﻿<?xml version="1.0" encoding="UTF-8" standalone="no" ?>
<gpx xmlns="http://www.topografix.com/GPX/1/1" creator="CompeGPS" version="1.1" xmlns:xsi="http://www.w3.org/2001/XMLSchema-instance" xsi:schemaLocation="http://www.topografix.com/GPX/1/1 http://www.topografix.com/GPX/1/1/gpx.xsd">
  <metadata>
    <link href="http://www.compegps.com">
      <text>CompeGPS TEAM, SL</text>
    </link>
    <time>2023-12-07T23:45:04Z</time>
    <bounds maxlat="43.162829" maxlon="-1.237052" minlat="42.258265" minlon="-8.545816"/>
  </metadata>
  <trk>
    <name>CS_SaintJean-Santiago_track_777Km</name>
    <trkseg>
      <trkpt lat="43.162829" lon="-1.237052">
        <ele>171.2</ele>
        <time>2018-08-20T05:55:21Z</time>
      </trkpt>
      <trkpt lat="43.162227" lon="-1.237312">
        <ele>170.8</ele>
        <time>2018-08-20T05:57:12Z</time>
      </trkpt>
      <trkpt lat="43.162108" lon="-1.237321">
        <ele>168.9</ele>
        <time>2018-08-20T05:57:26Z</time>
      </trkpt>
      <trkpt lat="43.161967" lon="-1.237439">
        <ele>170.8</ele>
        <time>2018-08-20T05:57:43Z</time>
      </trkpt>
      <trkpt lat="43.161822" lon="-1.237559">
        <ele>170.8</ele>
        <time>2018-08-20T05:57:57Z</time>
      </trkpt>
      <trkpt lat="43.161751" lon="-1.237665">
        <ele>171.2</ele>
        <time>2018-08-20T05:58:12Z</time>
      </trkpt>
      <trkpt lat="43.161572" lon="-1.237741">
        <ele>171.2</ele>
        <time>2018-08-20T05:58:31Z</time>
      </trkpt>
      <trkpt lat="43.161465" lon="-1.237806">
        <ele>174.1</ele>
        <time>2018-08-20T05:58:49Z</time>
      </trkpt>
      <trkpt lat="43.161459" lon="-1.237811">
        <ele>172.7</ele>
        <time>2018-08-20T05:58:51Z</time>
      </trkpt>
      <trkpt lat="43.161330" lon="-1.237911">
        <ele>174.1</ele>
        <time>2018-08-20T05:59:08Z</time>
      </trkpt>
      <trkpt lat="43.161164" lon="-1.237961">
        <ele>175.6</ele>
        <time>2018-08-20T05:59:22Z</time>
      </trkpt>
      <trkpt lat="43.161142" lon="-1.237976">
        <ele>175.6</ele>
        <time>2018-08-20T05:59:24Z</time>
      </trkpt>
      <trkpt lat="43.160987" lon="-1.238051">
        <ele>178.0</ele>
        <time>2018-08-20T05:59:40Z</time>
      </trkpt>
      <trkpt lat="43.160879" lon="-1.238138">
        <ele>179.9</ele>
        <time>2018-08-20T05:59:55Z</time>
      </trkpt>
      <trkpt lat="43.160764" lon="-1.238220">
        <ele>179.9</ele>
        <time>2018-08-20T06:00:10Z</time>
      </trkpt>
      <trkpt lat="43.160677" lon="-1.238268">
        <ele>180.4</ele>
        <time>2018-08-20T06:00:23Z</time>
      </trkpt>
      <trkpt lat="43.160537" lon="-1.238408">
        <ele>181.4</ele>
        <time>2018-08-20T06:01:24Z</time>
      </trkpt>
      <trkpt lat="43.160335" lon="-1.238439">
        <ele>181.8</ele>
        <time>2018-08-20T06:01:40Z</time>
      </trkpt>
      <trkpt lat="43.160184" lon="-1.238505">
        <ele>182.8</ele>
        <time>2018-08-20T06:01:54Z</time>
      </trkpt>
      <trkpt lat="43.160126" lon="-1.238553">
        <ele>180.9</ele>
        <time>2018-08-20T06:02:08Z</time>
      </trkpt>
    </trkseg>
    <trkseg>
      <trkpt lat="43.160124" lon="-1.238552">
        <ele>181.4</ele>
        <time>2018-08-20T06:02:10Z</time>
      </trkpt>
      <trkpt lat="43.159986" lon="-1.238648">
        <ele>182.3</ele>
        <time>2018-08-20T06:02:25Z</time>
      </trkpt>
      <trkpt lat="43.159862" lon="-1.238728">
        <ele>182.8</ele>
        <time>2018-08-20T06:02:39Z</time>
      </trkpt>
      <trkpt lat="43.159762" lon="-1.238827">
        <ele>183.8</ele>
        <time>2018-08-20T06:02:51Z</time>
      </trkpt>
      <trkpt lat="43.159567" lon="-1.238887">
        <ele>184.7</ele>
        <time>2018-08-20T06:03:08Z</time>
      </trkpt>
      <trkpt lat="43.159558" lon="-1.238887">
        <ele>186.6</ele>
        <time>2018-08-20T06:03:09Z</time>
      </trkpt>
      <trkpt lat="43.159399" lon="-1.238873">
        <ele>188.1</ele>
        <time>2018-08-20T06:03:23Z</time>
      </trkpt>
      <trkpt lat="43.159271" lon="-1.238870">
        <ele>188.6</ele>
        <time>2018-08-20T06:03:35Z</time>
      </trkpt>
      <trkpt lat="43.159144" lon="-1.238883">
        <ele>190.5</ele>
        <time>2018-08-20T06:03:48Z</time>
      </trkpt>
      <trkpt lat="43.159102" lon="-1.238884">
        <ele>190.0</ele>
        <time>2018-08-20T06:03:52Z</time>
      </trkpt>
      <trkpt lat="43.159044" lon="-1.238904">
        <ele>190.5</ele>
        <time>2018-08-20T06:03:58Z</time>
      </trkpt>
      <trkpt lat="43.158902" lon="-1.238992">
        <ele>191.9</ele>
        <time>2018-08-20T06:04:13Z</time>
      </trkpt>
      <trkpt lat="43.158858" lon="-1.239014">
        <ele>191.9</ele>
        <time>2018-08-20T06:04:18Z</time>
      </trkpt>
      <trkpt lat="43.158759" lon="-1.239115">
        <ele>195.3</ele>
        <time>2018-08-20T06:04:34Z</time>
      </trkpt>
      <trkpt lat="43.158684" lon="-1.239212">
        <ele>195.8</ele>
        <time>2018-08-20T06:04:46Z</time>
      </trkpt>
      <trkpt lat="43.158568" lon="-1.239227">
        <ele>197.2</ele>
        <time>2018-08-20T06:05:00Z</time>
      </trkpt>
      <trkpt lat="43.158547" lon="-1.239244">
        <ele>197.7</ele>
        <time>2018-08-20T06:05:03Z</time>
      </trkpt>
      <trkpt lat="43.158428" lon="-1.239302">
        <ele>200.6</ele>
        <time>2018-08-20T06:05:15Z</time>
      </trkpt>
      <trkpt lat="43.158342" lon="-1.239347">
        <ele>203.0</ele>
        <time>2018-08-20T06:05:28Z</time>
      </trkpt>
      <trkpt lat="43.158259" lon="-1.239393">
        <ele>204.4</ele>
        <time>2018-08-20T06:05:39Z</time>
      </trkpt>
      <trkpt lat="43.158215" lon="-1.239399">
        <ele>204.9</ele>
        <time>2018-08-20T06:05:44Z</time>
      </trkpt>
      <trkpt lat="43.158124" lon="-1.239398">
        <ele>206.8</ele>
        <time>2018-08-20T06:05:55Z</time>
      </trkpt>
      <trkpt lat="43.158030" lon="-1.239405">
        <ele>208.7</ele>
        <time>2018-08-20T06:06:06Z</time>
      </trkpt>
      <trkpt lat="43.157979" lon="-1.239439">
        <ele>210.7</ele>
        <time>2018-08-20T06:06:17Z</time>
      </trkpt>
      <trkpt lat="43.157880" lon="-1.239440">
        <ele>212.1</ele>
        <time>2018-08-20T06:06:29Z</time>
      </trkpt>
      <trkpt lat="43.157735" lon="-1.239463">
        <ele>214.5</ele>
        <time>2018-08-20T06:06:44Z</time>
      </trkpt>
      <trkpt lat="43.157727" lon="-1.239465">
        <ele>215.0</ele>
        <time>2018-08-20T06:06:45Z</time>
      </trkpt>
      <trkpt lat="43.157646" lon="-1.239539">
        <ele>217.4</ele>
        <time>2018-08-20T06:06:57Z</time>
      </trkpt>
      <trkpt lat="43.157611" lon="-1.239582">
        <ele>217.9</ele>
        <time>2018-08-20T06:07:03Z</time>
      </trkpt>
      <trkpt lat="43.157598" lon="-1.239605">
        <ele>218.4</ele>
        <time>2018-08-20T06:07:06Z</time>
      </trkpt>
      <trkpt lat="43.157568" lon="-1.239625">
        <ele>219.3</ele>
        <time>2018-08-20T06:07:10Z</time>
      </trkpt>
      <trkpt lat="43.157532" lon="-1.239655">
        <ele>220.8</ele>
        <time>2018-08-20T06:07:14Z</time>
      </trkpt>
      <trkpt lat="43.157439" lon="-1.239746">
        <ele>222.2</ele>
        <time>2018-08-20T06:07:28Z</time>
      </trkpt>
      <trkpt lat="43.157419" lon="-1.239745">
        <ele>222.7</ele>
        <time>2018-08-20T06:07:30Z</time>
      </trkpt>
      <trkpt lat="43.157402" lon="-1.239756">
        <ele>222.7</ele>
        <time>2018-08-20T06:07:32Z</time>
      </trkpt>
      <trkpt lat="43.157302" lon="-1.239772">
        <ele>223.2</ele>
        <time>2018-08-20T06:07:42Z</time>
      </trkpt>
      <trkpt lat="43.157188" lon="-1.239796">
        <ele>223.6</ele>
        <time>2018-08-20T06:07:52Z</time>
      </trkpt>
      <trkpt lat="43.157110" lon="-1.239805">
        <ele>223.6</ele>
        <time>2018-08-20T06:07:58Z</time>
      </trkpt>
      <trkpt lat="43.156968" lon="-1.239841">
        <ele>224.6</ele>
        <time>2018-08-20T06:08:12Z</time>
      </trkpt>
      <trkpt lat="43.156915" lon="-1.239865">
        <ele>224.6</ele>
        <time>2018-08-20T06:08:19Z</time>
      </trkpt>
      <trkpt lat="43.156776" lon="-1.239929">
        <ele>225.1</ele>
        <time>2018-08-20T06:08:33Z</time>
      </trkpt>
      <trkpt lat="43.156616" lon="-1.239973">
        <ele>224.1</ele>
        <time>2018-08-20T06:08:48Z</time>
      </trkpt>
      <trkpt lat="43.156606" lon="-1.239978">
        <ele>220.3</ele>
        <time>2018-08-20T06:08:49Z</time>
      </trkpt>
      <trkpt lat="43.156598" lon="-1.239983">
        <ele>228.4</ele>
        <time>2018-08-20T06:08:50Z</time>
      </trkpt>
      <trkpt lat="43.156588" lon="-1.239987">
        <ele>228.0</ele>
        <time>2018-08-20T06:08:51Z</time>
      </trkpt>
      <trkpt lat="43.156569" lon="-1.239999">
        <ele>224.6</ele>
        <time>2018-08-20T06:08:53Z</time>
      </trkpt>
      <trkpt lat="43.156418" lon="-1.240031">
        <ele>226.5</ele>
        <time>2018-08-20T06:09:06Z</time>
      </trkpt>
      <trkpt lat="43.156280" lon="-1.240125">
        <ele>226.5</ele>
        <time>2018-08-20T06:09:20Z</time>
      </trkpt>
      <trkpt lat="43.156197" lon="-1.240182">
        <ele>226.5</ele>
        <time>2018-08-20T06:09:28Z</time>
      </trkpt>
      <trkpt lat="43.156097" lon="-1.240262">
        <ele>228.0</ele>
        <time>2018-08-20T06:09:39Z</time>
      </trkpt>
      <trkpt lat="43.155954" lon="-1.240409">
        <ele>228.0</ele>
        <time>2018-08-20T06:09:56Z</time>
      </trkpt>
      <trkpt lat="43.155902" lon="-1.240443">
        <ele>228.4</ele>
        <time>2018-08-20T06:10:01Z</time>
      </trkpt>
      <trkpt lat="43.155867" lon="-1.240474">
        <ele>228.9</ele>
        <time>2018-08-20T06:10:05Z</time>
      </trkpt>
      <trkpt lat="43.155848" lon="-1.240483">
        <ele>228.9</ele>
        <time>2018-08-20T06:10:07Z</time>
      </trkpt>
      <trkpt lat="43.155792" lon="-1.240520">
        <ele>229.4</ele>
        <time>2018-08-20T06:10:13Z</time>
      </trkpt>
      <trkpt lat="43.155760" lon="-1.240548">
        <ele>229.9</ele>
        <time>2018-08-20T06:10:17Z</time>
      </trkpt>
      <trkpt lat="43.155740" lon="-1.240572">
        <ele>230.4</ele>
        <time>2018-08-20T06:10:20Z</time>
      </trkpt>
      <trkpt lat="43.155683" lon="-1.240628">
        <ele>231.3</ele>
        <time>2018-08-20T06:10:28Z</time>
      </trkpt>
      <trkpt lat="43.155641" lon="-1.240650">
        <ele>231.3</ele>
        <time>2018-08-20T06:10:32Z</time>
      </trkpt>
      <trkpt lat="43.155586" lon="-1.240721">
        <ele>232.3</ele>
        <time>2018-08-20T06:10:40Z</time>
      </trkpt>
      <trkpt lat="43.155469" lon="-1.240826">
        <ele>233.7</ele>
        <time>2018-08-20T06:10:53Z</time>
      </trkpt>
      <trkpt lat="43.155361" lon="-1.240907">
        <ele>235.7</ele>
        <time>2018-08-20T06:11:06Z</time>
      </trkpt>
      <trkpt lat="43.155312" lon="-1.240910">
        <ele>235.7</ele>
        <time>2018-08-20T06:11:11Z</time>
      </trkpt>
      <trkpt lat="43.155221" lon="-1.240953">
        <ele>236.6</ele>
        <time>2018-08-20T06:11:22Z</time>
      </trkpt>
      <trkpt lat="43.155132" lon="-1.241029">
        <ele>238.5</ele>
        <time>2018-08-20T06:11:36Z</time>
      </trkpt>
      <trkpt lat="43.155054" lon="-1.241055">
        <ele>239.0</ele>
        <time>2018-08-20T06:11:45Z</time>
      </trkpt>
      <trkpt lat="43.154957" lon="-1.241120">
        <ele>240.9</ele>
        <time>2018-08-20T06:11:58Z</time>
      </trkpt>
      <trkpt lat="43.154847" lon="-1.241153">
        <ele>241.9</ele>
        <time>2018-08-20T06:12:10Z</time>
      </trkpt>
      <trkpt lat="43.154788" lon="-1.241207">
        <ele>243.4</ele>
        <time>2018-08-20T06:12:19Z</time>
      </trkpt>
      <trkpt lat="43.154686" lon="-1.241226">
        <ele>244.8</ele>
        <time>2018-08-20T06:12:29Z</time>
      </trkpt>
      <trkpt lat="43.154608" lon="-1.241261">
        <ele>245.3</ele>
        <time>2018-08-20T06:12:38Z</time>
      </trkpt>
      <trkpt lat="43.154501" lon="-1.241329">
        <ele>246.2</ele>
        <time>2018-08-20T06:12:51Z</time>
      </trkpt>
      <trkpt lat="43.154423" lon="-1.241366">
        <ele>248.2</ele>
        <time>2018-08-20T06:13:02Z</time>
      </trkpt>
      <trkpt lat="43.154352" lon="-1.241395">
        <ele>248.6</ele>
        <time>2018-08-20T06:13:10Z</time>
      </trkpt>
      <trkpt lat="43.154268" lon="-1.241447">
        <ele>249.6</ele>
        <time>2018-08-20T06:13:20Z</time>
      </trkpt>
      <trkpt lat="43.154148" lon="-1.241479">
        <ele>250.6</ele>
        <time>2018-08-20T06:13:33Z</time>
      </trkpt>
      <trkpt lat="43.154067" lon="-1.241517">
        <ele>251.5</ele>
        <time>2018-08-20T06:13:41Z</time>
      </trkpt>
      <trkpt lat="43.154043" lon="-1.241538">
        <ele>251.5</ele>
        <time>2018-08-20T06:13:44Z</time>
      </trkpt>
      <trkpt lat="43.153977" lon="-1.241583">
        <ele>253.0</ele>
        <time>2018-08-20T06:13:55Z</time>
      </trkpt>
      <trkpt lat="43.153867" lon="-1.241607">
        <ele>254.9</ele>
        <time>2018-08-20T06:14:07Z</time>
      </trkpt>
      <trkpt lat="43.153782" lon="-1.241617">
        <ele>255.9</ele>
        <time>2018-08-20T06:14:17Z</time>
      </trkpt>
      <trkpt lat="43.153759" lon="-1.241635">
        <ele>255.9</ele>
        <time>2018-08-20T06:14:21Z</time>
      </trkpt>
      <trkpt lat="43.153620" lon="-1.241643">
        <ele>257.8</ele>
        <time>2018-08-20T06:14:36Z</time>
      </trkpt>
      <trkpt lat="43.153502" lon="-1.241704">
        <ele>258.7</ele>
        <time>2018-08-20T06:14:49Z</time>
      </trkpt>
      <trkpt lat="43.153482" lon="-1.241705">
        <ele>259.2</ele>
        <time>2018-08-20T06:14:51Z</time>
      </trkpt>
      <trkpt lat="43.153320" lon="-1.241769">
        <ele>260.2</ele>
        <time>2018-08-20T06:15:05Z</time>
      </trkpt>
      <trkpt lat="43.153155" lon="-1.241835">
        <ele>261.1</ele>
        <time>2018-08-20T06:15:21Z</time>
      </trkpt>
      <trkpt lat="43.152989" lon="-1.241888">
        <ele>262.1</ele>
        <time>2018-08-20T06:15:37Z</time>
      </trkpt>
      <trkpt lat="43.152825" lon="-1.241931">
        <ele>262.6</ele>
        <time>2018-08-20T06:15:53Z</time>
      </trkpt>
      <trkpt lat="43.152682" lon="-1.241983">
        <ele>262.1</ele>
        <time>2018-08-20T06:16:10Z</time>
      </trkpt>
      <trkpt lat="43.152618" lon="-1.242002">
        <ele>261.1</ele>
        <time>2018-08-20T06:16:16Z</time>
      </trkpt>
      <trkpt lat="43.152466" lon="-1.242032">
        <ele>260.2</ele>
        <time>2018-08-20T06:16:32Z</time>
      </trkpt>
      <trkpt lat="43.152343" lon="-1.242059">
        <ele>259.7</ele>
        <time>2018-08-20T06:16:47Z</time>
      </trkpt>
      <trkpt lat="43.152180" lon="-1.242125">
        <ele>258.2</ele>
        <time>2018-08-20T06:17:03Z</time>
      </trkpt>
      <trkpt lat="43.152077" lon="-1.242185">
        <ele>256.8</ele>
        <time>2018-08-20T06:17:13Z</time>
      </trkpt>
      <trkpt lat="43.151888" lon="-1.242288">
        <ele>255.4</ele>
        <time>2018-08-20T06:17:30Z</time>
      </trkpt>
      <trkpt lat="43.151762" lon="-1.242380">
        <ele>254.4</ele>
        <time>2018-08-20T06:17:45Z</time>
      </trkpt>
      <trkpt lat="43.151656" lon="-1.242412">
        <ele>254.4</ele>
        <time>2018-08-20T06:17:55Z</time>
      </trkpt>
      <trkpt lat="43.151573" lon="-1.242453">
        <ele>253.4</ele>
        <time>2018-08-20T06:18:03Z</time>
      </trkpt>
      <trkpt lat="43.151546" lon="-1.242465">
        <ele>253.4</ele>
        <time>2018-08-20T06:18:06Z</time>
      </trkpt>
      <trkpt lat="43.151526" lon="-1.242477">
        <ele>253.4</ele>
        <time>2018-08-20T06:18:08Z</time>
      </trkpt>
      <trkpt lat="43.151495" lon="-1.242487">
        <ele>253.0</ele>
        <time>2018-08-20T06:18:11Z</time>
      </trkpt>
      <trkpt lat="43.151380" lon="-1.242556">
        <ele>253.0</ele>
        <time>2018-08-20T06:18:23Z</time>
      </trkpt>
      <trkpt lat="43.151244" lon="-1.242635">
        <ele>252.0</ele>
        <time>2018-08-20T06:18:37Z</time>
      </trkpt>
      <trkpt lat="43.151070" lon="-1.242697">
        <ele>251.0</ele>
        <time>2018-08-20T06:18:54Z</time>
      </trkpt>
      <trkpt lat="43.150891" lon="-1.242705">
        <ele>250.6</ele>
        <time>2018-08-20T06:19:11Z</time>
      </trkpt>
      <trkpt lat="43.150869" lon="-1.242708">
        <ele>251.0</ele>
        <time>2018-08-20T06:19:13Z</time>
      </trkpt>
      <trkpt lat="43.150836" lon="-1.242726">
        <ele>250.6</ele>
        <time>2018-08-20T06:19:16Z</time>
      </trkpt>
      <trkpt lat="43.150787" lon="-1.242733">
        <ele>251.0</ele>
        <time>2018-08-20T06:19:20Z</time>
      </trkpt>
      <trkpt lat="43.150577" lon="-1.242749">
        <ele>251.0</ele>
        <time>2018-08-20T06:19:38Z</time>
      </trkpt>
      <trkpt lat="43.150363" lon="-1.242728">
        <ele>251.0</ele>
        <time>2018-08-20T06:19:57Z</time>
      </trkpt>
      <trkpt lat="43.150262" lon="-1.242705">
        <ele>251.5</ele>
        <time>2018-08-20T06:20:11Z</time>
      </trkpt>
      <trkpt lat="43.150281" lon="-1.242710">
        <ele>251.5</ele>
        <time>2018-08-20T06:20:13Z</time>
      </trkpt>
      <trkpt lat="43.150242" lon="-1.242687">
        <ele>252.0</ele>
        <time>2018-08-20T06:20:17Z</time>
      </trkpt>
      <trkpt lat="43.150018" lon="-1.242596">
        <ele>251.5</ele>
        <time>2018-08-20T06:20:36Z</time>
      </trkpt>
      <trkpt lat="43.149854" lon="-1.242548">
        <ele>251.5</ele>
        <time>2018-08-20T06:20:52Z</time>
      </trkpt>
      <trkpt lat="43.149785" lon="-1.242519">
        <ele>252.0</ele>
        <time>2018-08-20T06:20:59Z</time>
      </trkpt>
      <trkpt lat="43.149632" lon="-1.242492">
        <ele>252.5</ele>
        <time>2018-08-20T06:21:14Z</time>
      </trkpt>
      <trkpt lat="43.149578" lon="-1.242479">
        <ele>252.5</ele>
        <time>2018-08-20T06:21:19Z</time>
      </trkpt>
      <trkpt lat="43.149556" lon="-1.242482">
        <ele>253.0</ele>
        <time>2018-08-20T06:21:21Z</time>
      </trkpt>
      <trkpt lat="43.149494" lon="-1.242477">
        <ele>253.0</ele>
        <time>2018-08-20T06:21:27Z</time>
      </trkpt>
      <trkpt lat="43.149295" lon="-1.242480">
        <ele>253.4</ele>
        <time>2018-08-20T06:21:43Z</time>
      </trkpt>
      <trkpt lat="43.149234" lon="-1.242488">
        <ele>253.9</ele>
        <time>2018-08-20T06:21:48Z</time>
      </trkpt>
      <trkpt lat="43.149070" lon="-1.242481">
        <ele>253.4</ele>
        <time>2018-08-20T06:22:02Z</time>
      </trkpt>
      <trkpt lat="43.148967" lon="-1.242473">
        <ele>253.4</ele>
        <time>2018-08-20T06:22:11Z</time>
      </trkpt>
      <trkpt lat="43.148792" lon="-1.242474">
        <ele>253.9</ele>
        <time>2018-08-20T06:22:27Z</time>
      </trkpt>
      <trkpt lat="43.148653" lon="-1.242438">
        <ele>254.4</ele>
        <time>2018-08-20T06:22:40Z</time>
      </trkpt>
      <trkpt lat="43.148629" lon="-1.242445">
        <ele>254.4</ele>
        <time>2018-08-20T06:22:49Z</time>
      </trkpt>
      <trkpt lat="43.148460" lon="-1.242418">
        <ele>254.9</ele>
        <time>2018-08-20T06:23:03Z</time>
      </trkpt>
      <trkpt lat="43.148243" lon="-1.242413">
        <ele>256.3</ele>
        <time>2018-08-20T06:23:20Z</time>
      </trkpt>
      <trkpt lat="43.148225" lon="-1.242405">
        <ele>256.8</ele>
        <time>2018-08-20T06:23:22Z</time>
      </trkpt>
      <trkpt lat="43.148099" lon="-1.242440">
        <ele>259.2</ele>
        <time>2018-08-20T06:23:36Z</time>
      </trkpt>
      <trkpt lat="43.148006" lon="-1.242472">
        <ele>260.6</ele>
        <time>2018-08-20T06:23:47Z</time>
      </trkpt>
      <trkpt lat="43.147890" lon="-1.242492">
        <ele>261.1</ele>
        <time>2018-08-20T06:23:58Z</time>
      </trkpt>
      <trkpt lat="43.147754" lon="-1.242505">
        <ele>263.1</ele>
        <time>2018-08-20T06:24:11Z</time>
      </trkpt>
      <trkpt lat="43.147679" lon="-1.242518">
        <ele>264.0</ele>
        <time>2018-08-20T06:24:19Z</time>
      </trkpt>
      <trkpt lat="43.147619" lon="-1.242510">
        <ele>264.5</ele>
        <time>2018-08-20T06:24:25Z</time>
      </trkpt>
      <trkpt lat="43.147602" lon="-1.242512">
        <ele>265.0</ele>
        <time>2018-08-20T06:24:27Z</time>
      </trkpt>
      <trkpt lat="43.147584" lon="-1.242506">
        <ele>265.0</ele>
        <time>2018-08-20T06:24:29Z</time>
      </trkpt>
      <trkpt lat="43.147552" lon="-1.242508">
        <ele>265.0</ele>
        <time>2018-08-20T06:24:32Z</time>
      </trkpt>
      <trkpt lat="43.147532" lon="-1.242501">
        <ele>265.0</ele>
        <time>2018-08-20T06:24:34Z</time>
      </trkpt>
      <trkpt lat="43.147438" lon="-1.242486">
        <ele>266.4</ele>
        <time>2018-08-20T06:24:43Z</time>
      </trkpt>
      <trkpt lat="43.147390" lon="-1.242491">
        <ele>266.4</ele>
        <time>2018-08-20T06:24:47Z</time>
      </trkpt>
      <trkpt lat="43.147324" lon="-1.242482">
        <ele>266.9</ele>
        <time>2018-08-20T06:24:53Z</time>
      </trkpt>
      <trkpt lat="43.147171" lon="-1.242438">
        <ele>268.8</ele>
        <time>2018-08-20T06:25:08Z</time>
      </trkpt>
      <trkpt lat="43.147098" lon="-1.242438">
        <ele>270.8</ele>
        <time>2018-08-20T06:25:19Z</time>
      </trkpt>
      <trkpt lat="43.146968" lon="-1.242364">
        <ele>271.7</ele>
        <time>2018-08-20T06:25:31Z</time>
      </trkpt>
      <trkpt lat="43.146905" lon="-1.242322">
        <ele>272.7</ele>
        <time>2018-08-20T06:25:37Z</time>
      </trkpt>
      <trkpt lat="43.146756" lon="-1.242262">
        <ele>273.6</ele>
        <time>2018-08-20T06:25:52Z</time>
      </trkpt>
      <trkpt lat="43.146677" lon="-1.242204">
        <ele>275.1</ele>
        <time>2018-08-20T06:26:01Z</time>
      </trkpt>
      <trkpt lat="43.146526" lon="-1.242092">
        <ele>276.5</ele>
        <time>2018-08-20T06:26:16Z</time>
      </trkpt>
      <trkpt lat="43.146437" lon="-1.241993">
        <ele>277.5</ele>
        <time>2018-08-20T06:26:27Z</time>
      </trkpt>
      <trkpt lat="43.146326" lon="-1.241841">
        <ele>278.0</ele>
        <time>2018-08-20T06:26:40Z</time>
      </trkpt>
      <trkpt lat="43.146262" lon="-1.241767">
        <ele>279.4</ele>
        <time>2018-08-20T06:26:49Z</time>
      </trkpt>
      <trkpt lat="43.146154" lon="-1.241633">
        <ele>279.9</ele>
        <time>2018-08-20T06:27:03Z</time>
      </trkpt>
      <trkpt lat="43.146032" lon="-1.241484">
        <ele>280.8</ele>
        <time>2018-08-20T06:27:18Z</time>
      </trkpt>
      <trkpt lat="43.146003" lon="-1.241454">
        <ele>281.3</ele>
        <time>2018-08-20T06:27:22Z</time>
      </trkpt>
      <trkpt lat="43.145957" lon="-1.241396">
        <ele>281.3</ele>
        <time>2018-08-20T06:27:27Z</time>
      </trkpt>
      <trkpt lat="43.145918" lon="-1.241346">
        <ele>281.8</ele>
        <time>2018-08-20T06:27:32Z</time>
      </trkpt>
      <trkpt lat="43.145898" lon="-1.241313">
        <ele>282.3</ele>
        <time>2018-08-20T06:27:35Z</time>
      </trkpt>
      <trkpt lat="43.145879" lon="-1.241295">
        <ele>282.3</ele>
        <time>2018-08-20T06:27:37Z</time>
      </trkpt>
      <trkpt lat="43.145844" lon="-1.241257">
        <ele>282.3</ele>
        <time>2018-08-20T06:27:41Z</time>
      </trkpt>
      <trkpt lat="43.145827" lon="-1.241242">
        <ele>282.3</ele>
        <time>2018-08-20T06:27:43Z</time>
      </trkpt>
      <trkpt lat="43.145694" lon="-1.241103">
        <ele>283.2</ele>
        <time>2018-08-20T06:27:58Z</time>
      </trkpt>
      <trkpt lat="43.145598" lon="-1.240983">
        <ele>283.7</ele>
        <time>2018-08-20T06:28:11Z</time>
      </trkpt>
      <trkpt lat="43.145484" lon="-1.240868">
        <ele>284.7</ele>
        <time>2018-08-20T06:28:24Z</time>
      </trkpt>
      <trkpt lat="43.145359" lon="-1.240749">
        <ele>285.2</ele>
        <time>2018-08-20T06:28:37Z</time>
      </trkpt>
      <trkpt lat="43.145240" lon="-1.240652">
        <ele>285.2</ele>
        <time>2018-08-20T06:28:49Z</time>
      </trkpt>
      <trkpt lat="43.145103" lon="-1.240533">
        <ele>286.1</ele>
        <time>2018-08-20T06:29:03Z</time>
      </trkpt>
      <trkpt lat="43.145010" lon="-1.240456">
        <ele>286.1</ele>
        <time>2018-08-20T06:29:12Z</time>
      </trkpt>
      <trkpt lat="43.144949" lon="-1.240394">
        <ele>287.1</ele>
        <time>2018-08-20T06:29:20Z</time>
      </trkpt>
      <trkpt lat="43.144780" lon="-1.240308">
        <ele>287.6</ele>
        <time>2018-08-20T06:29:36Z</time>
      </trkpt>
      <trkpt lat="43.144663" lon="-1.240247">
        <ele>289.5</ele>
        <time>2018-08-20T06:29:49Z</time>
      </trkpt>
      <trkpt lat="43.144652" lon="-1.240243">
        <ele>289.5</ele>
        <time>2018-08-20T06:29:50Z</time>
      </trkpt>
      <trkpt lat="43.144509" lon="-1.240174">
        <ele>290.5</ele>
        <time>2018-08-20T06:30:03Z</time>
      </trkpt>
      <trkpt lat="43.144472" lon="-1.240158">
        <ele>290.9</ele>
        <time>2018-08-20T06:30:06Z</time>
      </trkpt>
      <trkpt lat="43.144441" lon="-1.240140">
        <ele>290.9</ele>
        <time>2018-08-20T06:30:09Z</time>
      </trkpt>
      <trkpt lat="43.144360" lon="-1.240124">
        <ele>291.4</ele>
        <time>2018-08-20T06:30:17Z</time>
      </trkpt>
      <trkpt lat="43.144200" lon="-1.240136">
        <ele>292.4</ele>
        <time>2018-08-20T06:30:33Z</time>
      </trkpt>
      <trkpt lat="43.144067" lon="-1.240188">
        <ele>291.9</ele>
        <time>2018-08-20T06:31:00Z</time>
      </trkpt>
      <trkpt lat="43.143896" lon="-1.240296">
        <ele>293.8</ele>
        <time>2018-08-20T06:31:15Z</time>
      </trkpt>
      <trkpt lat="43.143872" lon="-1.240302">
        <ele>293.8</ele>
        <time>2018-08-20T06:31:17Z</time>
      </trkpt>
      <trkpt lat="43.143735" lon="-1.240449">
        <ele>294.8</ele>
        <time>2018-08-20T06:31:33Z</time>
      </trkpt>
      <trkpt lat="43.143721" lon="-1.240456">
        <ele>294.8</ele>
        <time>2018-08-20T06:31:34Z</time>
      </trkpt>
      <trkpt lat="43.143646" lon="-1.240554">
        <ele>295.3</ele>
        <time>2018-08-20T06:31:45Z</time>
      </trkpt>
      <trkpt lat="43.143629" lon="-1.240564">
        <ele>295.3</ele>
        <time>2018-08-20T06:31:47Z</time>
      </trkpt>
      <trkpt lat="43.143589" lon="-1.240606">
        <ele>296.2</ele>
        <time>2018-08-20T06:31:51Z</time>
      </trkpt>
      <trkpt lat="43.143547" lon="-1.240659">
        <ele>296.2</ele>
        <time>2018-08-20T06:31:57Z</time>
      </trkpt>
      <trkpt lat="43.143465" lon="-1.240760">
        <ele>297.7</ele>
        <time>2018-08-20T06:32:11Z</time>
      </trkpt>
      <trkpt lat="43.143389" lon="-1.240865">
        <ele>300.1</ele>
        <time>2018-08-20T06:32:23Z</time>
      </trkpt>
      <trkpt lat="43.143382" lon="-1.240873">
        <ele>300.5</ele>
        <time>2018-08-20T06:32:24Z</time>
      </trkpt>
      <trkpt lat="43.143357" lon="-1.240895">
        <ele>300.5</ele>
        <time>2018-08-20T06:32:27Z</time>
      </trkpt>
      <trkpt lat="43.143337" lon="-1.240901">
        <ele>301.0</ele>
        <time>2018-08-20T06:32:29Z</time>
      </trkpt>
      <trkpt lat="43.143286" lon="-1.240958">
        <ele>302.5</ele>
        <time>2018-08-20T06:32:35Z</time>
      </trkpt>
      <trkpt lat="43.143203" lon="-1.241036">
        <ele>303.0</ele>
        <time>2018-08-20T06:32:44Z</time>
      </trkpt>
      <trkpt lat="43.143087" lon="-1.241144">
        <ele>303.9</ele>
        <time>2018-08-20T06:32:58Z</time>
      </trkpt>
      <trkpt lat="43.143024" lon="-1.241204">
        <ele>304.4</ele>
        <time>2018-08-20T06:33:05Z</time>
      </trkpt>
      <trkpt lat="43.143007" lon="-1.241221">
        <ele>305.4</ele>
        <time>2018-08-20T06:33:07Z</time>
      </trkpt>
      <trkpt lat="43.142864" lon="-1.241345">
        <ele>306.8</ele>
        <time>2018-08-20T06:33:22Z</time>
      </trkpt>
      <trkpt lat="43.142708" lon="-1.241442">
        <ele>307.8</ele>
        <time>2018-08-20T06:33:37Z</time>
      </trkpt>
      <trkpt lat="43.142582" lon="-1.241490">
        <ele>308.7</ele>
        <time>2018-08-20T06:33:49Z</time>
      </trkpt>
      <trkpt lat="43.142503" lon="-1.241496">
        <ele>310.2</ele>
        <time>2018-08-20T06:33:56Z</time>
      </trkpt>
      <trkpt lat="43.142442" lon="-1.241503">
        <ele>310.2</ele>
        <time>2018-08-20T06:34:01Z</time>
      </trkpt>
      <trkpt lat="43.142424" lon="-1.241509">
        <ele>310.2</ele>
        <time>2018-08-20T06:34:03Z</time>
      </trkpt>
      <trkpt lat="43.142381" lon="-1.241520">
        <ele>310.6</ele>
        <time>2018-08-20T06:34:07Z</time>
      </trkpt>
      <trkpt lat="43.142337" lon="-1.241516">
        <ele>311.1</ele>
        <time>2018-08-20T06:34:11Z</time>
      </trkpt>
      <trkpt lat="43.142236" lon="-1.241523">
        <ele>312.1</ele>
        <time>2018-08-20T06:34:23Z</time>
      </trkpt>
      <trkpt lat="43.142146" lon="-1.241534">
        <ele>312.1</ele>
        <time>2018-08-20T06:34:36Z</time>
      </trkpt>
      <trkpt lat="43.142144" lon="-1.241533">
        <ele>312.6</ele>
        <time>2018-08-20T06:34:39Z</time>
      </trkpt>
      <trkpt lat="43.142101" lon="-1.241547">
        <ele>312.6</ele>
        <time>2018-08-20T06:34:53Z</time>
      </trkpt>
      <trkpt lat="43.141999" lon="-1.241555">
        <ele>313.0</ele>
        <time>2018-08-20T06:35:05Z</time>
      </trkpt>
      <trkpt lat="43.141929" lon="-1.241524">
        <ele>313.0</ele>
        <time>2018-08-20T06:35:12Z</time>
      </trkpt>
      <trkpt lat="43.141890" lon="-1.241516">
        <ele>313.0</ele>
        <time>2018-08-20T06:35:15Z</time>
      </trkpt>
      <trkpt lat="43.141755" lon="-1.241455">
        <ele>313.5</ele>
        <time>2018-08-20T06:35:28Z</time>
      </trkpt>
      <trkpt lat="43.141621" lon="-1.241430">
        <ele>315.0</ele>
        <time>2018-08-20T06:35:41Z</time>
      </trkpt>
      <trkpt lat="43.141561" lon="-1.241410">
        <ele>314.5</ele>
        <time>2018-08-20T06:35:45Z</time>
      </trkpt>
      <trkpt lat="43.141505" lon="-1.241398">
        <ele>315.5</ele>
        <time>2018-08-20T06:35:49Z</time>
      </trkpt>
      <trkpt lat="43.141356" lon="-1.241357">
        <ele>316.4</ele>
        <time>2018-08-20T06:36:04Z</time>
      </trkpt>
      <trkpt lat="43.141227" lon="-1.241320">
        <ele>317.4</ele>
        <time>2018-08-20T06:36:18Z</time>
      </trkpt>
      <trkpt lat="43.141157" lon="-1.241279">
        <ele>317.9</ele>
        <time>2018-08-20T06:36:27Z</time>
      </trkpt>
      <trkpt lat="43.141137" lon="-1.241274">
        <ele>317.4</ele>
        <time>2018-08-20T06:36:29Z</time>
      </trkpt>
      <trkpt lat="43.141114" lon="-1.241279">
        <ele>317.9</ele>
        <time>2018-08-20T06:36:31Z</time>
      </trkpt>
      <trkpt lat="43.141089" lon="-1.241274">
        <ele>317.9</ele>
        <time>2018-08-20T06:36:33Z</time>
      </trkpt>
      <trkpt lat="43.141058" lon="-1.241251">
        <ele>318.3</ele>
        <time>2018-08-20T06:36:36Z</time>
      </trkpt>
      <trkpt lat="43.140993" lon="-1.241209">
        <ele>318.8</ele>
        <time>2018-08-20T06:36:42Z</time>
      </trkpt>
      <trkpt lat="43.140812" lon="-1.241109">
        <ele>318.3</ele>
        <time>2018-08-20T06:36:58Z</time>
      </trkpt>
      <trkpt lat="43.140627" lon="-1.240975">
        <ele>319.3</ele>
        <time>2018-08-20T06:37:15Z</time>
      </trkpt>
      <trkpt lat="43.140595" lon="-1.240941">
        <ele>319.8</ele>
        <time>2018-08-20T06:37:19Z</time>
      </trkpt>
      <trkpt lat="43.140436" lon="-1.240807">
        <ele>319.8</ele>
        <time>2018-08-20T06:37:35Z</time>
      </trkpt>
      <trkpt lat="43.140262" lon="-1.240685">
        <ele>319.3</ele>
        <time>2018-08-20T06:37:52Z</time>
      </trkpt>
      <trkpt lat="43.140119" lon="-1.240542">
        <ele>319.3</ele>
        <time>2018-08-20T06:38:07Z</time>
      </trkpt>
      <trkpt lat="43.140108" lon="-1.240537">
        <ele>319.3</ele>
        <time>2018-08-20T06:38:15Z</time>
      </trkpt>
      <trkpt lat="43.139941" lon="-1.240391">
        <ele>318.8</ele>
        <time>2018-08-20T06:38:34Z</time>
      </trkpt>
      <trkpt lat="43.139852" lon="-1.240304">
        <ele>318.8</ele>
        <time>2018-08-20T06:38:49Z</time>
      </trkpt>
      <trkpt lat="43.139756" lon="-1.240215">
        <ele>318.8</ele>
        <time>2018-08-20T06:39:03Z</time>
      </trkpt>
      <trkpt lat="43.139638" lon="-1.240062">
        <ele>317.4</ele>
        <time>2018-08-20T06:39:18Z</time>
      </trkpt>
      <trkpt lat="43.139505" lon="-1.239909">
        <ele>316.4</ele>
        <time>2018-08-20T06:39:33Z</time>
      </trkpt>
      <trkpt lat="43.139403" lon="-1.239794">
        <ele>316.4</ele>
        <time>2018-08-20T06:39:45Z</time>
      </trkpt>
      <trkpt lat="43.139361" lon="-1.239763">
        <ele>316.4</ele>
        <time>2018-08-20T06:39:49Z</time>
      </trkpt>
      <trkpt lat="43.139259" lon="-1.239654">
        <ele>315.9</ele>
        <time>2018-08-20T06:40:00Z</time>
      </trkpt>
      <trkpt lat="43.139158" lon="-1.239567">
        <ele>315.9</ele>
        <time>2018-08-20T06:40:10Z</time>
      </trkpt>
      <trkpt lat="43.139116" lon="-1.239537">
        <ele>315.9</ele>
        <time>2018-08-20T06:40:14Z</time>
      </trkpt>
      <trkpt lat="43.139078" lon="-1.239503">
        <ele>315.9</ele>
        <time>2018-08-20T06:40:18Z</time>
      </trkpt>
      <trkpt lat="43.139044" lon="-1.239485">
        <ele>316.4</ele>
        <time>2018-08-20T06:40:21Z</time>
      </trkpt>
      <trkpt lat="43.138881" lon="-1.239374">
        <ele>316.9</ele>
        <time>2018-08-20T06:40:36Z</time>
      </trkpt>
      <trkpt lat="43.138712" lon="-1.239250">
        <ele>315.9</ele>
        <time>2018-08-20T06:40:52Z</time>
      </trkpt>
      <trkpt lat="43.138644" lon="-1.239224">
        <ele>315.9</ele>
        <time>2018-08-20T06:41:05Z</time>
      </trkpt>
      <trkpt lat="43.138615" lon="-1.239178">
        <ele>315.9</ele>
        <time>2018-08-20T06:41:16Z</time>
      </trkpt>
      <trkpt lat="43.138440" lon="-1.239106">
        <ele>315.5</ele>
        <time>2018-08-20T06:41:32Z</time>
      </trkpt>
      <trkpt lat="43.138266" lon="-1.239050">
        <ele>315.5</ele>
        <time>2018-08-20T06:41:47Z</time>
      </trkpt>
      <trkpt lat="43.138222" lon="-1.239029">
        <ele>315.5</ele>
        <time>2018-08-20T06:41:51Z</time>
      </trkpt>
      <trkpt lat="43.138152" lon="-1.239015">
        <ele>315.9</ele>
        <time>2018-08-20T06:41:57Z</time>
      </trkpt>
      <trkpt lat="43.138063" lon="-1.238984">
        <ele>315.5</ele>
        <time>2018-08-20T06:42:05Z</time>
      </trkpt>
      <trkpt lat="43.137843" lon="-1.238933">
        <ele>315.0</ele>
        <time>2018-08-20T06:42:23Z</time>
      </trkpt>
      <trkpt lat="43.137652" lon="-1.238904">
        <ele>315.0</ele>
        <time>2018-08-20T06:42:40Z</time>
      </trkpt>
      <trkpt lat="43.137478" lon="-1.238867">
        <ele>314.5</ele>
        <time>2018-08-20T06:42:56Z</time>
      </trkpt>
      <trkpt lat="43.137328" lon="-1.238787">
        <ele>315.9</ele>
        <time>2018-08-20T06:43:11Z</time>
      </trkpt>
      <trkpt lat="43.137195" lon="-1.238710">
        <ele>317.4</ele>
        <time>2018-08-20T06:43:26Z</time>
      </trkpt>
      <trkpt lat="43.137066" lon="-1.238612">
        <ele>317.4</ele>
        <time>2018-08-20T06:43:40Z</time>
      </trkpt>
      <trkpt lat="43.136995" lon="-1.238581">
        <ele>317.9</ele>
        <time>2018-08-20T06:43:54Z</time>
      </trkpt>
      <trkpt lat="43.136981" lon="-1.238568">
        <ele>318.3</ele>
        <time>2018-08-20T06:43:56Z</time>
      </trkpt>
      <trkpt lat="43.136959" lon="-1.238534">
        <ele>318.3</ele>
        <time>2018-08-20T06:43:59Z</time>
      </trkpt>
      <trkpt lat="43.136940" lon="-1.238509">
        <ele>320.3</ele>
        <time>2018-08-20T06:44:02Z</time>
      </trkpt>
      <trkpt lat="43.136928" lon="-1.238490">
        <ele>319.3</ele>
        <time>2018-08-20T06:44:04Z</time>
      </trkpt>
      <trkpt lat="43.136865" lon="-1.238409">
        <ele>319.8</ele>
        <time>2018-08-20T06:44:12Z</time>
      </trkpt>
      <trkpt lat="43.136743" lon="-1.238296">
        <ele>320.3</ele>
        <time>2018-08-20T06:44:23Z</time>
      </trkpt>
      <trkpt lat="43.136656" lon="-1.238251">
        <ele>319.3</ele>
        <time>2018-08-20T06:44:32Z</time>
      </trkpt>
      <trkpt lat="43.136564" lon="-1.238209">
        <ele>318.8</ele>
        <time>2018-08-20T06:44:40Z</time>
      </trkpt>
      <trkpt lat="43.136524" lon="-1.238196">
        <ele>318.8</ele>
        <time>2018-08-20T06:44:44Z</time>
      </trkpt>
      <trkpt lat="43.136467" lon="-1.238175">
        <ele>318.3</ele>
        <time>2018-08-20T06:44:49Z</time>
      </trkpt>
      <trkpt lat="43.136308" lon="-1.238141">
        <ele>317.4</ele>
        <time>2018-08-20T06:45:03Z</time>
      </trkpt>
      <trkpt lat="43.136275" lon="-1.238139">
        <ele>317.9</ele>
        <time>2018-08-20T06:45:06Z</time>
      </trkpt>
      <trkpt lat="43.136232" lon="-1.238114">
        <ele>318.3</ele>
        <time>2018-08-20T06:45:18Z</time>
      </trkpt>
      <trkpt lat="43.136150" lon="-1.238094">
        <ele>319.3</ele>
        <time>2018-08-20T06:45:27Z</time>
      </trkpt>
      <trkpt lat="43.136131" lon="-1.238081">
        <ele>318.3</ele>
        <time>2018-08-20T06:45:29Z</time>
      </trkpt>
      <trkpt lat="43.136041" lon="-1.238052">
        <ele>318.8</ele>
        <time>2018-08-20T06:45:38Z</time>
      </trkpt>
      <trkpt lat="43.135994" lon="-1.238056">
        <ele>319.3</ele>
        <time>2018-08-20T06:45:42Z</time>
      </trkpt>
      <trkpt lat="43.135867" lon="-1.238070">
        <ele>320.3</ele>
        <time>2018-08-20T06:45:54Z</time>
      </trkpt>
      <trkpt lat="43.135850" lon="-1.238060">
        <ele>321.2</ele>
        <time>2018-08-20T06:46:06Z</time>
      </trkpt>
      <trkpt lat="43.135855" lon="-1.238078">
        <ele>320.7</ele>
        <time>2018-08-20T06:46:12Z</time>
      </trkpt>
      <trkpt lat="43.135810" lon="-1.238077">
        <ele>321.2</ele>
        <time>2018-08-20T06:46:16Z</time>
      </trkpt>
      <trkpt lat="43.135761" lon="-1.238075">
        <ele>321.2</ele>
        <time>2018-08-20T06:46:20Z</time>
      </trkpt>
      <trkpt lat="43.135615" lon="-1.238087">
        <ele>322.2</ele>
        <time>2018-08-20T06:46:34Z</time>
      </trkpt>
      <trkpt lat="43.135534" lon="-1.238090">
        <ele>323.1</ele>
        <time>2018-08-20T06:46:41Z</time>
      </trkpt>
      <trkpt lat="43.135481" lon="-1.238103">
        <ele>323.6</ele>
        <time>2018-08-20T06:46:46Z</time>
      </trkpt>
      <trkpt lat="43.135462" lon="-1.238106">
        <ele>323.6</ele>
        <time>2018-08-20T06:46:48Z</time>
      </trkpt>
      <trkpt lat="43.135426" lon="-1.238095">
        <ele>323.6</ele>
        <time>2018-08-20T06:46:51Z</time>
      </trkpt>
      <trkpt lat="43.135237" lon="-1.238089">
        <ele>323.6</ele>
        <time>2018-08-20T06:47:09Z</time>
      </trkpt>
      <trkpt lat="43.135021" lon="-1.238054">
        <ele>324.1</ele>
        <time>2018-08-20T06:47:28Z</time>
      </trkpt>
      <trkpt lat="43.134798" lon="-1.238046">
        <ele>325.1</ele>
        <time>2018-08-20T06:47:46Z</time>
      </trkpt>
      <trkpt lat="43.134640" lon="-1.238152">
        <ele>324.1</ele>
        <time>2018-08-20T06:48:03Z</time>
      </trkpt>
      <trkpt lat="43.134581" lon="-1.238226">
        <ele>324.1</ele>
        <time>2018-08-20T06:48:11Z</time>
      </trkpt>
      <trkpt lat="43.134469" lon="-1.238383">
        <ele>323.1</ele>
        <time>2018-08-20T06:48:26Z</time>
      </trkpt>
      <trkpt lat="43.134320" lon="-1.238562">
        <ele>322.7</ele>
        <time>2018-08-20T06:48:42Z</time>
      </trkpt>
      <trkpt lat="43.134217" lon="-1.238698">
        <ele>322.7</ele>
        <time>2018-08-20T06:48:55Z</time>
      </trkpt>
      <trkpt lat="43.134084" lon="-1.238837">
        <ele>323.1</ele>
        <time>2018-08-20T06:49:09Z</time>
      </trkpt>
      <trkpt lat="43.133915" lon="-1.238904">
        <ele>323.1</ele>
        <time>2018-08-20T06:49:24Z</time>
      </trkpt>
      <trkpt lat="43.133768" lon="-1.238897">
        <ele>323.1</ele>
        <time>2018-08-20T06:49:36Z</time>
      </trkpt>
      <trkpt lat="43.133605" lon="-1.238859">
        <ele>323.6</ele>
        <time>2018-08-20T06:49:50Z</time>
      </trkpt>
      <trkpt lat="43.133442" lon="-1.238762">
        <ele>323.6</ele>
        <time>2018-08-20T06:50:05Z</time>
      </trkpt>
      <trkpt lat="43.133371" lon="-1.238680">
        <ele>324.1</ele>
        <time>2018-08-20T06:50:13Z</time>
      </trkpt>
      <trkpt lat="43.133312" lon="-1.238598">
        <ele>324.1</ele>
        <time>2018-08-20T06:50:20Z</time>
      </trkpt>
      <trkpt lat="43.133200" lon="-1.238423">
        <ele>325.5</ele>
        <time>2018-08-20T06:50:34Z</time>
      </trkpt>
      <trkpt lat="43.133172" lon="-1.238388">
        <ele>326.0</ele>
        <time>2018-08-20T06:50:37Z</time>
      </trkpt>
      <trkpt lat="43.133160" lon="-1.238363">
        <ele>326.0</ele>
        <time>2018-08-20T06:50:39Z</time>
      </trkpt>
      <trkpt lat="43.133045" lon="-1.238263">
        <ele>327.5</ele>
        <time>2018-08-20T06:50:52Z</time>
      </trkpt>
      <trkpt lat="43.133012" lon="-1.238258">
        <ele>328.0</ele>
        <time>2018-08-20T06:50:56Z</time>
      </trkpt>
      <trkpt lat="43.132975" lon="-1.238253">
        <ele>328.4</ele>
        <time>2018-08-20T06:51:00Z</time>
      </trkpt>
      <trkpt lat="43.132883" lon="-1.238288">
        <ele>330.4</ele>
        <time>2018-08-20T06:51:14Z</time>
      </trkpt>
      <trkpt lat="43.132862" lon="-1.238297">
        <ele>330.8</ele>
        <time>2018-08-20T06:51:17Z</time>
      </trkpt>
      <trkpt lat="43.132802" lon="-1.238327">
        <ele>329.9</ele>
        <time>2018-08-20T06:51:23Z</time>
      </trkpt>
      <trkpt lat="43.132780" lon="-1.238337">
        <ele>331.3</ele>
        <time>2018-08-20T06:51:25Z</time>
      </trkpt>
      <trkpt lat="43.132631" lon="-1.238362">
        <ele>333.2</ele>
        <time>2018-08-20T06:51:38Z</time>
      </trkpt>
      <trkpt lat="43.132516" lon="-1.238413">
        <ele>334.7</ele>
        <time>2018-08-20T06:51:51Z</time>
      </trkpt>
      <trkpt lat="43.132507" lon="-1.238416">
        <ele>334.7</ele>
        <time>2018-08-20T06:51:52Z</time>
      </trkpt>
      <trkpt lat="43.132404" lon="-1.238502">
        <ele>337.6</ele>
        <time>2018-08-20T06:52:04Z</time>
      </trkpt>
      <trkpt lat="43.132338" lon="-1.238568">
        <ele>337.6</ele>
        <time>2018-08-20T06:52:13Z</time>
      </trkpt>
      <trkpt lat="43.132270" lon="-1.238639">
        <ele>338.0</ele>
        <time>2018-08-20T06:52:22Z</time>
      </trkpt>
      <trkpt lat="43.132237" lon="-1.238643">
        <ele>338.5</ele>
        <time>2018-08-20T06:52:25Z</time>
      </trkpt>
      <trkpt lat="43.132121" lon="-1.238756">
        <ele>339.0</ele>
        <time>2018-08-20T06:52:37Z</time>
      </trkpt>
      <trkpt lat="43.132070" lon="-1.238818">
        <ele>340.0</ele>
        <time>2018-08-20T06:52:43Z</time>
      </trkpt>
      <trkpt lat="43.132048" lon="-1.238842">
        <ele>339.5</ele>
        <time>2018-08-20T06:52:45Z</time>
      </trkpt>
      <trkpt lat="43.132016" lon="-1.238883">
        <ele>339.5</ele>
        <time>2018-08-20T06:52:49Z</time>
      </trkpt>
      <trkpt lat="43.131979" lon="-1.238916">
        <ele>340.0</ele>
        <time>2018-08-20T06:52:53Z</time>
      </trkpt>
      <trkpt lat="43.131820" lon="-1.239059">
        <ele>340.0</ele>
        <time>2018-08-20T06:53:09Z</time>
      </trkpt>
      <trkpt lat="43.131749" lon="-1.239103">
        <ele>339.5</ele>
        <time>2018-08-20T06:53:16Z</time>
      </trkpt>
      <trkpt lat="43.131602" lon="-1.239197">
        <ele>340.4</ele>
        <time>2018-08-20T06:53:31Z</time>
      </trkpt>
      <trkpt lat="43.131558" lon="-1.239212">
        <ele>340.0</ele>
        <time>2018-08-20T06:53:35Z</time>
      </trkpt>
      <trkpt lat="43.131393" lon="-1.239327">
        <ele>340.4</ele>
        <time>2018-08-20T06:53:50Z</time>
      </trkpt>
      <trkpt lat="43.131328" lon="-1.239352">
        <ele>340.9</ele>
        <time>2018-08-20T06:54:04Z</time>
      </trkpt>
      <trkpt lat="43.131321" lon="-1.239359">
        <ele>340.0</ele>
        <time>2018-08-20T06:54:17Z</time>
      </trkpt>
      <trkpt lat="43.131319" lon="-1.239363">
        <ele>340.0</ele>
        <time>2018-08-20T06:54:36Z</time>
      </trkpt>
      <trkpt lat="43.131270" lon="-1.239436">
        <ele>340.9</ele>
        <time>2018-08-20T06:54:47Z</time>
      </trkpt>
      <trkpt lat="43.131260" lon="-1.239444">
        <ele>340.9</ele>
        <time>2018-08-20T06:54:48Z</time>
      </trkpt>
      <trkpt lat="43.131144" lon="-1.239591">
        <ele>341.9</ele>
        <time>2018-08-20T06:55:03Z</time>
      </trkpt>
      <trkpt lat="43.131133" lon="-1.239608">
        <ele>341.4</ele>
        <time>2018-08-20T06:55:05Z</time>
      </trkpt>
      <trkpt lat="43.131126" lon="-1.239627">
        <ele>341.9</ele>
        <time>2018-08-20T06:55:07Z</time>
      </trkpt>
      <trkpt lat="43.131062" lon="-1.239713">
        <ele>342.4</ele>
        <time>2018-08-20T06:55:18Z</time>
      </trkpt>
      <trkpt lat="43.130984" lon="-1.239865">
        <ele>343.3</ele>
        <time>2018-08-20T06:55:31Z</time>
      </trkpt>
      <trkpt lat="43.130908" lon="-1.239972">
        <ele>343.8</ele>
        <time>2018-08-20T06:55:43Z</time>
      </trkpt>
      <trkpt lat="43.130825" lon="-1.240129">
        <ele>344.3</ele>
        <time>2018-08-20T06:55:56Z</time>
      </trkpt>
      <trkpt lat="43.130756" lon="-1.240309">
        <ele>344.8</ele>
        <time>2018-08-20T06:56:10Z</time>
      </trkpt>
      <trkpt lat="43.130715" lon="-1.240390">
        <ele>344.8</ele>
        <time>2018-08-20T06:56:16Z</time>
      </trkpt>
      <trkpt lat="43.130700" lon="-1.240454">
        <ele>344.8</ele>
        <time>2018-08-20T06:56:20Z</time>
      </trkpt>
      <trkpt lat="43.130671" lon="-1.240564">
        <ele>345.2</ele>
        <time>2018-08-20T06:56:27Z</time>
      </trkpt>
      <trkpt lat="43.130661" lon="-1.240609">
        <ele>345.7</ele>
        <time>2018-08-20T06:56:30Z</time>
      </trkpt>
      <trkpt lat="43.130629" lon="-1.240706">
        <ele>346.7</ele>
        <time>2018-08-20T06:56:37Z</time>
      </trkpt>
      <trkpt lat="43.130625" lon="-1.240751">
        <ele>346.7</ele>
        <time>2018-08-20T06:56:40Z</time>
      </trkpt>
      <trkpt lat="43.130615" lon="-1.240776">
        <ele>347.2</ele>
        <time>2018-08-20T06:56:42Z</time>
      </trkpt>
      <trkpt lat="43.130615" lon="-1.240803">
        <ele>347.6</ele>
        <time>2018-08-20T06:56:44Z</time>
      </trkpt>
      <trkpt lat="43.130603" lon="-1.240845">
        <ele>348.1</ele>
        <time>2018-08-20T06:56:47Z</time>
      </trkpt>
      <trkpt lat="43.130551" lon="-1.240995">
        <ele>350.5</ele>
        <time>2018-08-20T06:57:00Z</time>
      </trkpt>
      <trkpt lat="43.130519" lon="-1.241041">
        <ele>351.0</ele>
        <time>2018-08-20T06:57:05Z</time>
      </trkpt>
      <trkpt lat="43.130489" lon="-1.241112">
        <ele>352.0</ele>
        <time>2018-08-20T06:57:12Z</time>
      </trkpt>
      <trkpt lat="43.130424" lon="-1.241220">
        <ele>352.9</ele>
        <time>2018-08-20T06:57:25Z</time>
      </trkpt>
      <trkpt lat="43.130438" lon="-1.241256">
        <ele>352.9</ele>
        <time>2018-08-20T06:57:36Z</time>
      </trkpt>
      <trkpt lat="43.130451" lon="-1.241257">
        <ele>353.4</ele>
        <time>2018-08-20T06:57:54Z</time>
      </trkpt>
      <trkpt lat="43.130434" lon="-1.241253">
        <ele>352.5</ele>
        <time>2018-08-20T06:58:00Z</time>
      </trkpt>
      <trkpt lat="43.130335" lon="-1.241290">
        <ele>352.9</ele>
        <time>2018-08-20T06:58:09Z</time>
      </trkpt>
      <trkpt lat="43.130313" lon="-1.241325">
        <ele>352.9</ele>
        <time>2018-08-20T06:58:12Z</time>
      </trkpt>
      <trkpt lat="43.130245" lon="-1.241364">
        <ele>352.9</ele>
        <time>2018-08-20T06:58:19Z</time>
      </trkpt>
      <trkpt lat="43.130228" lon="-1.241447">
        <ele>352.5</ele>
        <time>2018-08-20T06:58:24Z</time>
      </trkpt>
      <trkpt lat="43.130168" lon="-1.241458">
        <ele>352.5</ele>
        <time>2018-08-20T06:58:38Z</time>
      </trkpt>
      <trkpt lat="43.129994" lon="-1.241548">
        <ele>352.9</ele>
        <time>2018-08-20T06:58:53Z</time>
      </trkpt>
      <trkpt lat="43.129948" lon="-1.241573">
        <ele>352.9</ele>
        <time>2018-08-20T06:58:57Z</time>
      </trkpt>
      <trkpt lat="43.129852" lon="-1.241639">
        <ele>352.9</ele>
        <time>2018-08-20T06:59:06Z</time>
      </trkpt>
      <trkpt lat="43.129778" lon="-1.241708">
        <ele>352.9</ele>
        <time>2018-08-20T06:59:13Z</time>
      </trkpt>
      <trkpt lat="43.129750" lon="-1.241772">
        <ele>353.4</ele>
        <time>2018-08-20T06:59:18Z</time>
      </trkpt>
      <trkpt lat="43.129710" lon="-1.241854">
        <ele>353.9</ele>
        <time>2018-08-20T06:59:24Z</time>
      </trkpt>
      <trkpt lat="43.129698" lon="-1.241895">
        <ele>353.9</ele>
        <time>2018-08-20T06:59:27Z</time>
      </trkpt>
      <trkpt lat="43.129671" lon="-1.241956">
        <ele>354.4</ele>
        <time>2018-08-20T06:59:32Z</time>
      </trkpt>
      <trkpt lat="43.129659" lon="-1.242024">
        <ele>354.4</ele>
        <time>2018-08-20T06:59:37Z</time>
      </trkpt>
      <trkpt lat="43.129623" lon="-1.242111">
        <ele>355.3</ele>
        <time>2018-08-20T06:59:44Z</time>
      </trkpt>
      <trkpt lat="43.129612" lon="-1.242139">
        <ele>355.3</ele>
        <time>2018-08-20T06:59:46Z</time>
      </trkpt>
      <trkpt lat="43.129606" lon="-1.242168">
        <ele>355.3</ele>
        <time>2018-08-20T06:59:48Z</time>
      </trkpt>
      <trkpt lat="43.129598" lon="-1.242208">
        <ele>355.8</ele>
        <time>2018-08-20T06:59:51Z</time>
      </trkpt>
      <trkpt lat="43.129586" lon="-1.242256">
        <ele>356.3</ele>
        <time>2018-08-20T06:59:54Z</time>
      </trkpt>
      <trkpt lat="43.129583" lon="-1.242286">
        <ele>355.8</ele>
        <time>2018-08-20T06:59:56Z</time>
      </trkpt>
      <trkpt lat="43.129536" lon="-1.242418">
        <ele>357.8</ele>
        <time>2018-08-20T07:00:07Z</time>
      </trkpt>
      <trkpt lat="43.129516" lon="-1.242502">
        <ele>359.7</ele>
        <time>2018-08-20T07:00:14Z</time>
      </trkpt>
      <trkpt lat="43.129478" lon="-1.242693">
        <ele>362.5</ele>
        <time>2018-08-20T07:00:28Z</time>
      </trkpt>
      <trkpt lat="43.129466" lon="-1.242826">
        <ele>364.0</ele>
        <time>2018-08-20T07:00:39Z</time>
      </trkpt>
      <trkpt lat="43.129478" lon="-1.242961">
        <ele>365.9</ele>
        <time>2018-08-20T07:00:49Z</time>
      </trkpt>
      <trkpt lat="43.129492" lon="-1.243077">
        <ele>367.8</ele>
        <time>2018-08-20T07:00:58Z</time>
      </trkpt>
      <trkpt lat="43.129533" lon="-1.243217">
        <ele>369.8</ele>
        <time>2018-08-20T07:01:10Z</time>
      </trkpt>
      <trkpt lat="43.129576" lon="-1.243359">
        <ele>371.2</ele>
        <time>2018-08-20T07:01:22Z</time>
      </trkpt>
      <trkpt lat="43.129618" lon="-1.243503">
        <ele>374.6</ele>
        <time>2018-08-20T07:01:33Z</time>
      </trkpt>
      <trkpt lat="43.129624" lon="-1.243528">
        <ele>375.0</ele>
        <time>2018-08-20T07:01:35Z</time>
      </trkpt>
      <trkpt lat="43.129639" lon="-1.243603">
        <ele>375.5</ele>
        <time>2018-08-20T07:01:40Z</time>
      </trkpt>
      <trkpt lat="43.129709" lon="-1.243792">
        <ele>377.0</ele>
        <time>2018-08-20T07:01:54Z</time>
      </trkpt>
      <trkpt lat="43.129797" lon="-1.243992">
        <ele>378.4</ele>
        <time>2018-08-20T07:02:08Z</time>
      </trkpt>
      <trkpt lat="43.129852" lon="-1.244141">
        <ele>379.9</ele>
        <time>2018-08-20T07:02:19Z</time>
      </trkpt>
      <trkpt lat="43.129940" lon="-1.244372">
        <ele>381.3</ele>
        <time>2018-08-20T07:02:35Z</time>
      </trkpt>
      <trkpt lat="43.130009" lon="-1.244515">
        <ele>382.3</ele>
        <time>2018-08-20T07:02:45Z</time>
      </trkpt>
      <trkpt lat="43.130033" lon="-1.244551">
        <ele>382.3</ele>
        <time>2018-08-20T07:02:48Z</time>
      </trkpt>
      <trkpt lat="43.130067" lon="-1.244626">
        <ele>382.7</ele>
        <time>2018-08-20T07:02:54Z</time>
      </trkpt>
      <trkpt lat="43.130146" lon="-1.244784">
        <ele>383.7</ele>
        <time>2018-08-20T07:03:05Z</time>
      </trkpt>
      <trkpt lat="43.130204" lon="-1.244936">
        <ele>385.1</ele>
        <time>2018-08-20T07:03:16Z</time>
      </trkpt>
      <trkpt lat="43.130217" lon="-1.244964">
        <ele>385.1</ele>
        <time>2018-08-20T07:03:18Z</time>
      </trkpt>
      <trkpt lat="43.130228" lon="-1.245047">
        <ele>386.1</ele>
        <time>2018-08-20T07:03:23Z</time>
      </trkpt>
      <trkpt lat="43.130311" lon="-1.245182">
        <ele>388.0</ele>
        <time>2018-08-20T07:03:35Z</time>
      </trkpt>
      <trkpt lat="43.130302" lon="-1.245267">
        <ele>389.5</ele>
        <time>2018-08-20T07:03:45Z</time>
      </trkpt>
      <trkpt lat="43.130249" lon="-1.245229">
        <ele>391.9</ele>
        <time>2018-08-20T07:03:58Z</time>
      </trkpt>
      <trkpt lat="43.130138" lon="-1.245096">
        <ele>393.8</ele>
        <time>2018-08-20T07:04:12Z</time>
      </trkpt>
      <trkpt lat="43.130106" lon="-1.245076">
        <ele>393.8</ele>
        <time>2018-08-20T07:04:15Z</time>
      </trkpt>
      <trkpt lat="43.130045" lon="-1.245022">
        <ele>394.3</ele>
        <time>2018-08-20T07:04:21Z</time>
      </trkpt>
      <trkpt lat="43.129969" lon="-1.244980">
        <ele>396.7</ele>
        <time>2018-08-20T07:04:29Z</time>
      </trkpt>
      <trkpt lat="43.129884" lon="-1.244961">
        <ele>396.7</ele>
        <time>2018-08-20T07:04:37Z</time>
      </trkpt>
      <trkpt lat="43.129791" lon="-1.244895">
        <ele>397.6</ele>
        <time>2018-08-20T07:04:46Z</time>
      </trkpt>
      <trkpt lat="43.129744" lon="-1.244875">
        <ele>398.6</ele>
        <time>2018-08-20T07:04:50Z</time>
      </trkpt>
      <trkpt lat="43.129709" lon="-1.244855">
        <ele>398.6</ele>
        <time>2018-08-20T07:04:53Z</time>
      </trkpt>
      <trkpt lat="43.129666" lon="-1.244839">
        <ele>399.1</ele>
        <time>2018-08-20T07:04:57Z</time>
      </trkpt>
      <trkpt lat="43.129605" lon="-1.244809">
        <ele>401.0</ele>
        <time>2018-08-20T07:05:03Z</time>
      </trkpt>
      <trkpt lat="43.129490" lon="-1.244759">
        <ele>402.5</ele>
        <time>2018-08-20T07:05:13Z</time>
      </trkpt>
      <trkpt lat="43.129452" lon="-1.244732">
        <ele>402.9</ele>
        <time>2018-08-20T07:05:17Z</time>
      </trkpt>
      <trkpt lat="43.129429" lon="-1.244725">
        <ele>403.4</ele>
        <time>2018-08-20T07:05:19Z</time>
      </trkpt>
      <trkpt lat="43.129370" lon="-1.244702">
        <ele>403.9</ele>
        <time>2018-08-20T07:05:24Z</time>
      </trkpt>
      <trkpt lat="43.129353" lon="-1.244687">
        <ele>403.9</ele>
        <time>2018-08-20T07:05:26Z</time>
      </trkpt>
      <trkpt lat="43.129309" lon="-1.244667">
        <ele>405.3</ele>
        <time>2018-08-20T07:05:31Z</time>
      </trkpt>
      <trkpt lat="43.129277" lon="-1.244645">
        <ele>405.3</ele>
        <time>2018-08-20T07:05:34Z</time>
      </trkpt>
      <trkpt lat="43.129245" lon="-1.244635">
        <ele>405.8</ele>
        <time>2018-08-20T07:05:37Z</time>
      </trkpt>
      <trkpt lat="43.129160" lon="-1.244599">
        <ele>407.3</ele>
        <time>2018-08-20T07:05:46Z</time>
      </trkpt>
      <trkpt lat="43.129104" lon="-1.244581">
        <ele>408.7</ele>
        <time>2018-08-20T07:05:51Z</time>
      </trkpt>
      <trkpt lat="43.129084" lon="-1.244567">
        <ele>408.7</ele>
        <time>2018-08-20T07:05:53Z</time>
      </trkpt>
      <trkpt lat="43.129052" lon="-1.244560">
        <ele>408.7</ele>
        <time>2018-08-20T07:05:56Z</time>
      </trkpt>
      <trkpt lat="43.128962" lon="-1.244529">
        <ele>410.1</ele>
        <time>2018-08-20T07:06:04Z</time>
      </trkpt>
      <trkpt lat="43.128928" lon="-1.244536">
        <ele>409.7</ele>
        <time>2018-08-20T07:06:07Z</time>
      </trkpt>
      <trkpt lat="43.128759" lon="-1.244436">
        <ele>411.6</ele>
        <time>2018-08-20T07:06:23Z</time>
      </trkpt>
      <trkpt lat="43.128592" lon="-1.244349">
        <ele>414.0</ele>
        <time>2018-08-20T07:06:38Z</time>
      </trkpt>
      <trkpt lat="43.128457" lon="-1.244298">
        <ele>415.9</ele>
        <time>2018-08-20T07:06:51Z</time>
      </trkpt>
      <trkpt lat="43.128372" lon="-1.244272">
        <ele>417.8</ele>
        <time>2018-08-20T07:07:01Z</time>
      </trkpt>
      <trkpt lat="43.128338" lon="-1.244257">
        <ele>418.8</ele>
        <time>2018-08-20T07:07:05Z</time>
      </trkpt>
      <trkpt lat="43.128319" lon="-1.244249">
        <ele>419.3</ele>
        <time>2018-08-20T07:07:07Z</time>
      </trkpt>
      <trkpt lat="43.128289" lon="-1.244244">
        <ele>419.8</ele>
        <time>2018-08-20T07:07:10Z</time>
      </trkpt>
      <trkpt lat="43.128193" lon="-1.244225">
        <ele>421.2</ele>
        <time>2018-08-20T07:07:20Z</time>
      </trkpt>
      <trkpt lat="43.128158" lon="-1.244217">
        <ele>421.7</ele>
        <time>2018-08-20T07:07:24Z</time>
      </trkpt>
      <trkpt lat="43.128029" lon="-1.244178">
        <ele>424.1</ele>
        <time>2018-08-20T07:07:37Z</time>
      </trkpt>
      <trkpt lat="43.127997" lon="-1.244165">
        <ele>424.6</ele>
        <time>2018-08-20T07:07:40Z</time>
      </trkpt>
      <trkpt lat="43.127932" lon="-1.244155">
        <ele>425.5</ele>
        <time>2018-08-20T07:07:48Z</time>
      </trkpt>
      <trkpt lat="43.127787" lon="-1.244153">
        <ele>427.9</ele>
        <time>2018-08-20T07:08:01Z</time>
      </trkpt>
      <trkpt lat="43.127681" lon="-1.244140">
        <ele>430.3</ele>
        <time>2018-08-20T07:08:11Z</time>
      </trkpt>
      <trkpt lat="43.127576" lon="-1.244150">
        <ele>431.8</ele>
        <time>2018-08-20T07:08:24Z</time>
      </trkpt>
      <trkpt lat="43.127447" lon="-1.244169">
        <ele>434.2</ele>
        <time>2018-08-20T07:08:35Z</time>
      </trkpt>
      <trkpt lat="43.127420" lon="-1.244172">
        <ele>434.6</ele>
        <time>2018-08-20T07:08:37Z</time>
      </trkpt>
      <trkpt lat="43.127323" lon="-1.244187">
        <ele>437.5</ele>
        <time>2018-08-20T07:08:51Z</time>
      </trkpt>
      <trkpt lat="43.127205" lon="-1.244201">
        <ele>439.9</ele>
        <time>2018-08-20T07:09:02Z</time>
      </trkpt>
      <trkpt lat="43.127059" lon="-1.244222">
        <ele>442.8</ele>
        <time>2018-08-20T07:09:15Z</time>
      </trkpt>
      <trkpt lat="43.127049" lon="-1.244224">
        <ele>442.3</ele>
        <time>2018-08-20T07:09:16Z</time>
      </trkpt>
      <trkpt lat="43.127026" lon="-1.244224">
        <ele>442.8</ele>
        <time>2018-08-20T07:09:18Z</time>
      </trkpt>
      <trkpt lat="43.127005" lon="-1.244224">
        <ele>442.8</ele>
        <time>2018-08-20T07:09:20Z</time>
      </trkpt>
      <trkpt lat="43.126986" lon="-1.244219">
        <ele>443.3</ele>
        <time>2018-08-20T07:09:22Z</time>
      </trkpt>
      <trkpt lat="43.126945" lon="-1.244226">
        <ele>444.3</ele>
        <time>2018-08-20T07:09:26Z</time>
      </trkpt>
      <trkpt lat="43.126855" lon="-1.244244">
        <ele>446.2</ele>
        <time>2018-08-20T07:09:38Z</time>
      </trkpt>
      <trkpt lat="43.126727" lon="-1.244278">
        <ele>447.6</ele>
        <time>2018-08-20T07:09:51Z</time>
      </trkpt>
      <trkpt lat="43.126654" lon="-1.244296">
        <ele>448.6</ele>
        <time>2018-08-20T07:09:58Z</time>
      </trkpt>
      <trkpt lat="43.126637" lon="-1.244308">
        <ele>449.5</ele>
        <time>2018-08-20T07:10:00Z</time>
      </trkpt>
      <trkpt lat="43.126605" lon="-1.244310">
        <ele>450.0</ele>
        <time>2018-08-20T07:10:03Z</time>
      </trkpt>
      <trkpt lat="43.126484" lon="-1.244348">
        <ele>451.5</ele>
        <time>2018-08-20T07:10:14Z</time>
      </trkpt>
      <trkpt lat="43.126461" lon="-1.244348">
        <ele>452.0</ele>
        <time>2018-08-20T07:10:16Z</time>
      </trkpt>
      <trkpt lat="43.126311" lon="-1.244435">
        <ele>455.3</ele>
        <time>2018-08-20T07:10:32Z</time>
      </trkpt>
      <trkpt lat="43.126255" lon="-1.244469">
        <ele>456.3</ele>
        <time>2018-08-20T07:10:39Z</time>
      </trkpt>
      <trkpt lat="43.126232" lon="-1.244478">
        <ele>456.8</ele>
        <time>2018-08-20T07:10:41Z</time>
      </trkpt>
      <trkpt lat="43.126186" lon="-1.244497">
        <ele>457.2</ele>
        <time>2018-08-20T07:10:45Z</time>
      </trkpt>
      <trkpt lat="43.126084" lon="-1.244558">
        <ele>458.2</ele>
        <time>2018-08-20T07:10:56Z</time>
      </trkpt>
      <trkpt lat="43.126061" lon="-1.244561">
        <ele>458.7</ele>
        <time>2018-08-20T07:10:58Z</time>
      </trkpt>
      <trkpt lat="43.125945" lon="-1.244593">
        <ele>461.6</ele>
        <time>2018-08-20T07:11:10Z</time>
      </trkpt>
      <trkpt lat="43.125894" lon="-1.244590">
        <ele>462.0</ele>
        <time>2018-08-20T07:11:15Z</time>
      </trkpt>
      <trkpt lat="43.125793" lon="-1.244614">
        <ele>464.5</ele>
        <time>2018-08-20T07:11:25Z</time>
      </trkpt>
      <trkpt lat="43.125701" lon="-1.244600">
        <ele>465.9</ele>
        <time>2018-08-20T07:11:36Z</time>
      </trkpt>
      <trkpt lat="43.125694" lon="-1.244601">
        <ele>465.9</ele>
        <time>2018-08-20T07:11:37Z</time>
      </trkpt>
      <trkpt lat="43.125677" lon="-1.244616">
        <ele>466.4</ele>
        <time>2018-08-20T07:11:39Z</time>
      </trkpt>
      <trkpt lat="43.125569" lon="-1.244659">
        <ele>469.3</ele>
        <time>2018-08-20T07:11:52Z</time>
      </trkpt>
      <trkpt lat="43.125472" lon="-1.244681">
        <ele>470.7</ele>
        <time>2018-08-20T07:12:03Z</time>
      </trkpt>
      <trkpt lat="43.125344" lon="-1.244698">
        <ele>473.1</ele>
        <time>2018-08-20T07:12:17Z</time>
      </trkpt>
      <trkpt lat="43.125303" lon="-1.244702">
        <ele>473.6</ele>
        <time>2018-08-20T07:12:21Z</time>
      </trkpt>
      <trkpt lat="43.125243" lon="-1.244708">
        <ele>474.1</ele>
        <time>2018-08-20T07:12:27Z</time>
      </trkpt>
      <trkpt lat="43.125164" lon="-1.244712">
        <ele>476.5</ele>
        <time>2018-08-20T07:12:36Z</time>
      </trkpt>
      <trkpt lat="43.125052" lon="-1.244725">
        <ele>478.4</ele>
        <time>2018-08-20T07:12:48Z</time>
      </trkpt>
      <trkpt lat="43.124943" lon="-1.244733">
        <ele>480.8</ele>
        <time>2018-08-20T07:12:59Z</time>
      </trkpt>
      <trkpt lat="43.124803" lon="-1.244776">
        <ele>482.7</ele>
        <time>2018-08-20T07:13:13Z</time>
      </trkpt>
      <trkpt lat="43.124680" lon="-1.244810">
        <ele>484.2</ele>
        <time>2018-08-20T07:13:26Z</time>
      </trkpt>
      <trkpt lat="43.124644" lon="-1.244834">
        <ele>484.2</ele>
        <time>2018-08-20T07:13:30Z</time>
      </trkpt>
      <trkpt lat="43.124582" lon="-1.244846">
        <ele>485.6</ele>
        <time>2018-08-20T07:13:36Z</time>
      </trkpt>
      <trkpt lat="43.124457" lon="-1.244877">
        <ele>487.5</ele>
        <time>2018-08-20T07:13:49Z</time>
      </trkpt>
      <trkpt lat="43.124400" lon="-1.244877">
        <ele>488.0</ele>
        <time>2018-08-20T07:13:54Z</time>
      </trkpt>
      <trkpt lat="43.124275" lon="-1.244902">
        <ele>490.9</ele>
        <time>2018-08-20T07:14:06Z</time>
      </trkpt>
      <trkpt lat="43.124165" lon="-1.244976">
        <ele>492.8</ele>
        <time>2018-08-20T07:14:19Z</time>
      </trkpt>
      <trkpt lat="43.124149" lon="-1.244987">
        <ele>493.3</ele>
        <time>2018-08-20T07:14:21Z</time>
      </trkpt>
      <trkpt lat="43.124046" lon="-1.245006">
        <ele>496.2</ele>
        <time>2018-08-20T07:14:33Z</time>
      </trkpt>
      <trkpt lat="43.123964" lon="-1.244958">
        <ele>498.6</ele>
        <time>2018-08-20T07:14:44Z</time>
      </trkpt>
      <trkpt lat="43.123859" lon="-1.244897">
        <ele>501.0</ele>
        <time>2018-08-20T07:14:57Z</time>
      </trkpt>
      <trkpt lat="43.123767" lon="-1.244853">
        <ele>503.4</ele>
        <time>2018-08-20T07:15:09Z</time>
      </trkpt>
      <trkpt lat="43.123761" lon="-1.244847">
        <ele>503.4</ele>
        <time>2018-08-20T07:15:10Z</time>
      </trkpt>
      <trkpt lat="43.123684" lon="-1.244811">
        <ele>505.3</ele>
        <time>2018-08-20T07:15:19Z</time>
      </trkpt>
      <trkpt lat="43.123577" lon="-1.244790">
        <ele>507.2</ele>
        <time>2018-08-20T07:15:32Z</time>
      </trkpt>
      <trkpt lat="43.123471" lon="-1.244769">
        <ele>510.1</ele>
        <time>2018-08-20T07:15:44Z</time>
      </trkpt>
      <trkpt lat="43.123439" lon="-1.244768">
        <ele>510.6</ele>
        <time>2018-08-20T07:15:48Z</time>
      </trkpt>
      <trkpt lat="43.123409" lon="-1.244758">
        <ele>511.1</ele>
        <time>2018-08-20T07:15:52Z</time>
      </trkpt>
      <trkpt lat="43.123299" lon="-1.244741">
        <ele>513.5</ele>
        <time>2018-08-20T07:16:05Z</time>
      </trkpt>
      <trkpt lat="43.123185" lon="-1.244696">
        <ele>514.9</ele>
        <time>2018-08-20T07:16:16Z</time>
      </trkpt>
      <trkpt lat="43.123147" lon="-1.244678">
        <ele>514.9</ele>
        <time>2018-08-20T07:16:19Z</time>
      </trkpt>
      <trkpt lat="43.123051" lon="-1.244583">
        <ele>517.3</ele>
        <time>2018-08-20T07:16:32Z</time>
      </trkpt>
      <trkpt lat="43.122965" lon="-1.244547">
        <ele>518.8</ele>
        <time>2018-08-20T07:16:44Z</time>
      </trkpt>
      <trkpt lat="43.122892" lon="-1.244504">
        <ele>520.2</ele>
        <time>2018-08-20T07:16:54Z</time>
      </trkpt>
      <trkpt lat="43.122852" lon="-1.244485">
        <ele>521.7</ele>
        <time>2018-08-20T07:16:59Z</time>
      </trkpt>
      <trkpt lat="43.122746" lon="-1.244412">
        <ele>523.6</ele>
        <time>2018-08-20T07:17:11Z</time>
      </trkpt>
      <trkpt lat="43.122699" lon="-1.244394">
        <ele>525.5</ele>
        <time>2018-08-20T07:17:17Z</time>
      </trkpt>
      <trkpt lat="43.122653" lon="-1.244355">
        <ele>526.0</ele>
        <time>2018-08-20T07:17:22Z</time>
      </trkpt>
      <trkpt lat="43.122609" lon="-1.244300">
        <ele>527.9</ele>
        <time>2018-08-20T07:17:34Z</time>
      </trkpt>
      <trkpt lat="43.122539" lon="-1.244262">
        <ele>528.9</ele>
        <time>2018-08-20T07:17:48Z</time>
      </trkpt>
      <trkpt lat="43.122531" lon="-1.244239">
        <ele>529.3</ele>
        <time>2018-08-20T07:17:56Z</time>
      </trkpt>
      <trkpt lat="43.122467" lon="-1.244166">
        <ele>530.8</ele>
        <time>2018-08-20T07:18:05Z</time>
      </trkpt>
      <trkpt lat="43.122453" lon="-1.244148">
        <ele>530.8</ele>
        <time>2018-08-20T07:18:07Z</time>
      </trkpt>
      <trkpt lat="43.122434" lon="-1.244130">
        <ele>531.8</ele>
        <time>2018-08-20T07:18:09Z</time>
      </trkpt>
      <trkpt lat="43.122415" lon="-1.244112">
        <ele>532.2</ele>
        <time>2018-08-20T07:18:11Z</time>
      </trkpt>
      <trkpt lat="43.122350" lon="-1.244073">
        <ele>532.7</ele>
        <time>2018-08-20T07:18:18Z</time>
      </trkpt>
      <trkpt lat="43.122230" lon="-1.243985">
        <ele>535.1</ele>
        <time>2018-08-20T07:18:31Z</time>
      </trkpt>
      <trkpt lat="43.122176" lon="-1.243956">
        <ele>536.1</ele>
        <time>2018-08-20T07:18:37Z</time>
      </trkpt>
      <trkpt lat="43.122055" lon="-1.243898">
        <ele>538.5</ele>
        <time>2018-08-20T07:18:50Z</time>
      </trkpt>
      <trkpt lat="43.121942" lon="-1.243817">
        <ele>540.9</ele>
        <time>2018-08-20T07:19:05Z</time>
      </trkpt>
      <trkpt lat="43.121919" lon="-1.243806">
        <ele>540.9</ele>
        <time>2018-08-20T07:19:15Z</time>
      </trkpt>
      <trkpt lat="43.121890" lon="-1.243771">
        <ele>541.4</ele>
        <time>2018-08-20T07:19:25Z</time>
      </trkpt>
      <trkpt lat="43.121819" lon="-1.243733">
        <ele>541.8</ele>
        <time>2018-08-20T07:19:39Z</time>
      </trkpt>
      <trkpt lat="43.121769" lon="-1.243704">
        <ele>542.8</ele>
        <time>2018-08-20T07:19:44Z</time>
      </trkpt>
      <trkpt lat="43.121717" lon="-1.243691">
        <ele>544.2</ele>
        <time>2018-08-20T07:19:49Z</time>
      </trkpt>
      <trkpt lat="43.121614" lon="-1.243601">
        <ele>546.2</ele>
        <time>2018-08-20T07:20:02Z</time>
      </trkpt>
      <trkpt lat="43.121556" lon="-1.243569">
        <ele>547.6</ele>
        <time>2018-08-20T07:20:10Z</time>
      </trkpt>
      <trkpt lat="43.121503" lon="-1.243525">
        <ele>548.6</ele>
        <time>2018-08-20T07:20:15Z</time>
      </trkpt>
      <trkpt lat="43.121408" lon="-1.243484">
        <ele>550.0</ele>
        <time>2018-08-20T07:20:25Z</time>
      </trkpt>
      <trkpt lat="43.121362" lon="-1.243446">
        <ele>551.5</ele>
        <time>2018-08-20T07:20:31Z</time>
      </trkpt>
      <trkpt lat="43.121278" lon="-1.243402">
        <ele>552.9</ele>
        <time>2018-08-20T07:20:40Z</time>
      </trkpt>
      <trkpt lat="43.121262" lon="-1.243390">
        <ele>553.4</ele>
        <time>2018-08-20T07:20:42Z</time>
      </trkpt>
      <trkpt lat="43.121243" lon="-1.243378">
        <ele>553.9</ele>
        <time>2018-08-20T07:20:44Z</time>
      </trkpt>
      <trkpt lat="43.121218" lon="-1.243351">
        <ele>554.3</ele>
        <time>2018-08-20T07:20:47Z</time>
      </trkpt>
      <trkpt lat="43.121178" lon="-1.243320">
        <ele>555.3</ele>
        <time>2018-08-20T07:20:52Z</time>
      </trkpt>
      <trkpt lat="43.121101" lon="-1.243196">
        <ele>557.7</ele>
        <time>2018-08-20T07:21:05Z</time>
      </trkpt>
      <trkpt lat="43.121035" lon="-1.243086">
        <ele>560.1</ele>
        <time>2018-08-20T07:21:17Z</time>
      </trkpt>
      <trkpt lat="43.121015" lon="-1.243046">
        <ele>560.1</ele>
        <time>2018-08-20T07:21:22Z</time>
      </trkpt>
      <trkpt lat="43.120993" lon="-1.242993">
        <ele>561.5</ele>
        <time>2018-08-20T07:21:27Z</time>
      </trkpt>
      <trkpt lat="43.120926" lon="-1.242873">
        <ele>563.0</ele>
        <time>2018-08-20T07:21:39Z</time>
      </trkpt>
      <trkpt lat="43.120912" lon="-1.242852">
        <ele>563.0</ele>
        <time>2018-08-20T07:21:41Z</time>
      </trkpt>
      <trkpt lat="43.120845" lon="-1.242728">
        <ele>565.9</ele>
        <time>2018-08-20T07:21:53Z</time>
      </trkpt>
      <trkpt lat="43.120842" lon="-1.242716">
        <ele>565.4</ele>
        <time>2018-08-20T07:21:54Z</time>
      </trkpt>
      <trkpt lat="43.120823" lon="-1.242670">
        <ele>566.8</ele>
        <time>2018-08-20T07:21:58Z</time>
      </trkpt>
      <trkpt lat="43.120799" lon="-1.242611">
        <ele>567.8</ele>
        <time>2018-08-20T07:22:03Z</time>
      </trkpt>
      <trkpt lat="43.120783" lon="-1.242577">
        <ele>568.3</ele>
        <time>2018-08-20T07:22:06Z</time>
      </trkpt>
      <trkpt lat="43.120744" lon="-1.242489">
        <ele>569.7</ele>
        <time>2018-08-20T07:22:15Z</time>
      </trkpt>
      <trkpt lat="43.120735" lon="-1.242470">
        <ele>570.7</ele>
        <time>2018-08-20T07:22:17Z</time>
      </trkpt>
      <trkpt lat="43.120718" lon="-1.242425">
        <ele>571.2</ele>
        <time>2018-08-20T07:22:21Z</time>
      </trkpt>
      <trkpt lat="43.120677" lon="-1.242325">
        <ele>572.6</ele>
        <time>2018-08-20T07:22:32Z</time>
      </trkpt>
      <trkpt lat="43.120628" lon="-1.242227">
        <ele>574.0</ele>
        <time>2018-08-20T07:22:43Z</time>
      </trkpt>
      <trkpt lat="43.120588" lon="-1.242136">
        <ele>575.0</ele>
        <time>2018-08-20T07:22:54Z</time>
      </trkpt>
      <trkpt lat="43.120500" lon="-1.242098">
        <ele>578.4</ele>
        <time>2018-08-20T07:23:08Z</time>
      </trkpt>
      <trkpt lat="43.120495" lon="-1.242100">
        <ele>578.8</ele>
        <time>2018-08-20T07:23:09Z</time>
      </trkpt>
      <trkpt lat="43.120450" lon="-1.242147">
        <ele>579.8</ele>
        <time>2018-08-20T07:23:19Z</time>
      </trkpt>
      <trkpt lat="43.120402" lon="-1.242237">
        <ele>582.2</ele>
        <time>2018-08-20T07:23:30Z</time>
      </trkpt>
      <trkpt lat="43.120335" lon="-1.242342">
        <ele>584.1</ele>
        <time>2018-08-20T07:23:43Z</time>
      </trkpt>
      <trkpt lat="43.120271" lon="-1.242442">
        <ele>586.1</ele>
        <time>2018-08-20T07:23:55Z</time>
      </trkpt>
      <trkpt lat="43.120224" lon="-1.242502">
        <ele>587.0</ele>
        <time>2018-08-20T07:24:02Z</time>
      </trkpt>
      <trkpt lat="43.120154" lon="-1.242555">
        <ele>588.5</ele>
        <time>2018-08-20T07:24:11Z</time>
      </trkpt>
      <trkpt lat="43.120127" lon="-1.242583">
        <ele>589.4</ele>
        <time>2018-08-20T07:24:15Z</time>
      </trkpt>
      <trkpt lat="43.120109" lon="-1.242591">
        <ele>589.4</ele>
        <time>2018-08-20T07:24:17Z</time>
      </trkpt>
      <trkpt lat="43.120087" lon="-1.242611">
        <ele>589.9</ele>
        <time>2018-08-20T07:24:19Z</time>
      </trkpt>
      <trkpt lat="43.119995" lon="-1.242628">
        <ele>591.3</ele>
        <time>2018-08-20T07:24:31Z</time>
      </trkpt>
      <trkpt lat="43.119981" lon="-1.242609">
        <ele>592.3</ele>
        <time>2018-08-20T07:24:33Z</time>
      </trkpt>
      <trkpt lat="43.119975" lon="-1.242571">
        <ele>592.3</ele>
        <time>2018-08-20T07:24:36Z</time>
      </trkpt>
      <trkpt lat="43.119937" lon="-1.242428">
        <ele>594.7</ele>
        <time>2018-08-20T07:24:48Z</time>
      </trkpt>
      <trkpt lat="43.119913" lon="-1.242305">
        <ele>597.1</ele>
        <time>2018-08-20T07:25:00Z</time>
      </trkpt>
      <trkpt lat="43.119898" lon="-1.242218">
        <ele>598.1</ele>
        <time>2018-08-20T07:25:09Z</time>
      </trkpt>
      <trkpt lat="43.119914" lon="-1.242176">
        <ele>599.0</ele>
        <time>2018-08-20T07:25:14Z</time>
      </trkpt>
      <trkpt lat="43.119914" lon="-1.242143">
        <ele>599.5</ele>
        <time>2018-08-20T07:25:18Z</time>
      </trkpt>
      <trkpt lat="43.119914" lon="-1.242051">
        <ele>601.0</ele>
        <time>2018-08-20T07:25:24Z</time>
      </trkpt>
      <trkpt lat="43.119909" lon="-1.242007">
        <ele>601.4</ele>
        <time>2018-08-20T07:25:28Z</time>
      </trkpt>
      <trkpt lat="43.119913" lon="-1.241912">
        <ele>603.8</ele>
        <time>2018-08-20T07:25:36Z</time>
      </trkpt>
      <trkpt lat="43.119913" lon="-1.241841">
        <ele>605.3</ele>
        <time>2018-08-20T07:25:43Z</time>
      </trkpt>
      <trkpt lat="43.119917" lon="-1.241803">
        <ele>605.8</ele>
        <time>2018-08-20T07:25:47Z</time>
      </trkpt>
      <trkpt lat="43.119903" lon="-1.241741">
        <ele>606.7</ele>
        <time>2018-08-20T07:25:55Z</time>
      </trkpt>
      <trkpt lat="43.119865" lon="-1.241732">
        <ele>607.2</ele>
        <time>2018-08-20T07:25:59Z</time>
      </trkpt>
      <trkpt lat="43.119799" lon="-1.241777">
        <ele>608.7</ele>
        <time>2018-08-20T07:26:07Z</time>
      </trkpt>
      <trkpt lat="43.119782" lon="-1.241798">
        <ele>609.1</ele>
        <time>2018-08-20T07:26:10Z</time>
      </trkpt>
      <trkpt lat="43.119760" lon="-1.241810">
        <ele>610.1</ele>
        <time>2018-08-20T07:26:13Z</time>
      </trkpt>
      <trkpt lat="43.119719" lon="-1.241833">
        <ele>611.1</ele>
        <time>2018-08-20T07:26:19Z</time>
      </trkpt>
      <trkpt lat="43.119668" lon="-1.241878">
        <ele>613.0</ele>
        <time>2018-08-20T07:26:31Z</time>
      </trkpt>
      <trkpt lat="43.119636" lon="-1.241914">
        <ele>613.5</ele>
        <time>2018-08-20T07:26:37Z</time>
      </trkpt>
      <trkpt lat="43.119595" lon="-1.241936">
        <ele>614.4</ele>
        <time>2018-08-20T07:26:42Z</time>
      </trkpt>
      <trkpt lat="43.119510" lon="-1.242005">
        <ele>615.9</ele>
        <time>2018-08-20T07:26:54Z</time>
      </trkpt>
      <trkpt lat="43.119479" lon="-1.242038">
        <ele>617.3</ele>
        <time>2018-08-20T07:27:01Z</time>
      </trkpt>
      <trkpt lat="43.119460" lon="-1.242035">
        <ele>616.8</ele>
        <time>2018-08-20T07:27:03Z</time>
      </trkpt>
      <trkpt lat="43.119410" lon="-1.242076">
        <ele>617.3</ele>
        <time>2018-08-20T07:27:08Z</time>
      </trkpt>
      <trkpt lat="43.119323" lon="-1.242143">
        <ele>618.8</ele>
        <time>2018-08-20T07:27:16Z</time>
      </trkpt>
      <trkpt lat="43.119273" lon="-1.242173">
        <ele>619.2</ele>
        <time>2018-08-20T07:27:20Z</time>
      </trkpt>
      <trkpt lat="43.119168" lon="-1.242230">
        <ele>620.2</ele>
        <time>2018-08-20T07:27:30Z</time>
      </trkpt>
      <trkpt lat="43.119033" lon="-1.242242">
        <ele>622.1</ele>
        <time>2018-08-20T07:27:43Z</time>
      </trkpt>
      <trkpt lat="43.118963" lon="-1.242199">
        <ele>622.6</ele>
        <time>2018-08-20T07:27:50Z</time>
      </trkpt>
      <trkpt lat="43.118911" lon="-1.242128">
        <ele>623.5</ele>
        <time>2018-08-20T07:27:58Z</time>
      </trkpt>
      <trkpt lat="43.118833" lon="-1.242060">
        <ele>626.0</ele>
        <time>2018-08-20T07:28:09Z</time>
      </trkpt>
      <trkpt lat="43.118827" lon="-1.241934">
        <ele>628.4</ele>
        <time>2018-08-20T07:28:22Z</time>
      </trkpt>
      <trkpt lat="43.118877" lon="-1.241895">
        <ele>629.8</ele>
        <time>2018-08-20T07:28:32Z</time>
      </trkpt>
      <trkpt lat="43.118926" lon="-1.241848">
        <ele>631.7</ele>
        <time>2018-08-20T07:28:40Z</time>
      </trkpt>
      <trkpt lat="43.118965" lon="-1.241773">
        <ele>633.7</ele>
        <time>2018-08-20T07:28:51Z</time>
      </trkpt>
      <trkpt lat="43.118985" lon="-1.241680">
        <ele>635.6</ele>
        <time>2018-08-20T07:29:00Z</time>
      </trkpt>
      <trkpt lat="43.118999" lon="-1.241628">
        <ele>637.0</ele>
        <time>2018-08-20T07:29:05Z</time>
      </trkpt>
      <trkpt lat="43.119039" lon="-1.241536">
        <ele>638.9</ele>
        <time>2018-08-20T07:29:16Z</time>
      </trkpt>
      <trkpt lat="43.119057" lon="-1.241433">
        <ele>640.9</ele>
        <time>2018-08-20T07:29:28Z</time>
      </trkpt>
      <trkpt lat="43.119099" lon="-1.241319">
        <ele>643.3</ele>
        <time>2018-08-20T07:29:40Z</time>
      </trkpt>
      <trkpt lat="43.119106" lon="-1.241254">
        <ele>644.2</ele>
        <time>2018-08-20T07:29:49Z</time>
      </trkpt>
      <trkpt lat="43.119053" lon="-1.241220">
        <ele>645.7</ele>
        <time>2018-08-20T07:29:58Z</time>
      </trkpt>
      <trkpt lat="43.119010" lon="-1.241240">
        <ele>646.1</ele>
        <time>2018-08-20T07:30:03Z</time>
      </trkpt>
      <trkpt lat="43.118979" lon="-1.241256">
        <ele>647.1</ele>
        <time>2018-08-20T07:30:07Z</time>
      </trkpt>
      <trkpt lat="43.118864" lon="-1.241265">
        <ele>649.5</ele>
        <time>2018-08-20T07:30:20Z</time>
      </trkpt>
      <trkpt lat="43.118778" lon="-1.241272">
        <ele>651.0</ele>
        <time>2018-08-20T07:30:30Z</time>
      </trkpt>
      <trkpt lat="43.118760" lon="-1.241280">
        <ele>651.0</ele>
        <time>2018-08-20T07:30:32Z</time>
      </trkpt>
      <trkpt lat="43.118728" lon="-1.241276">
        <ele>651.0</ele>
        <time>2018-08-20T07:30:35Z</time>
      </trkpt>
      <trkpt lat="43.118690" lon="-1.241273">
        <ele>652.4</ele>
        <time>2018-08-20T07:30:39Z</time>
      </trkpt>
      <trkpt lat="43.118670" lon="-1.241271">
        <ele>652.9</ele>
        <time>2018-08-20T07:30:41Z</time>
      </trkpt>
      <trkpt lat="43.118651" lon="-1.241260">
        <ele>653.3</ele>
        <time>2018-08-20T07:30:43Z</time>
      </trkpt>
      <trkpt lat="43.118629" lon="-1.241259">
        <ele>653.3</ele>
        <time>2018-08-20T07:30:45Z</time>
      </trkpt>
      <trkpt lat="43.118613" lon="-1.241247">
        <ele>653.8</ele>
        <time>2018-08-20T07:30:47Z</time>
      </trkpt>
      <trkpt lat="43.118574" lon="-1.241222">
        <ele>654.8</ele>
        <time>2018-08-20T07:30:51Z</time>
      </trkpt>
      <trkpt lat="43.118546" lon="-1.241112">
        <ele>657.7</ele>
        <time>2018-08-20T07:31:02Z</time>
      </trkpt>
      <trkpt lat="43.118547" lon="-1.241102">
        <ele>657.2</ele>
        <time>2018-08-20T07:31:03Z</time>
      </trkpt>
      <trkpt lat="43.118556" lon="-1.241081">
        <ele>657.7</ele>
        <time>2018-08-20T07:31:05Z</time>
      </trkpt>
      <trkpt lat="43.118564" lon="-1.241058">
        <ele>658.2</ele>
        <time>2018-08-20T07:31:07Z</time>
      </trkpt>
      <trkpt lat="43.118628" lon="-1.241004">
        <ele>660.1</ele>
        <time>2018-08-20T07:31:17Z</time>
      </trkpt>
      <trkpt lat="43.118650" lon="-1.240987">
        <ele>660.1</ele>
        <time>2018-08-20T07:31:20Z</time>
      </trkpt>
      <trkpt lat="43.118752" lon="-1.240902">
        <ele>661.5</ele>
        <time>2018-08-20T07:31:33Z</time>
      </trkpt>
      <trkpt lat="43.118764" lon="-1.240880">
        <ele>661.5</ele>
        <time>2018-08-20T07:31:35Z</time>
      </trkpt>
      <trkpt lat="43.118821" lon="-1.240762">
        <ele>663.9</ele>
        <time>2018-08-20T07:31:47Z</time>
      </trkpt>
      <trkpt lat="43.118824" lon="-1.240735">
        <ele>664.9</ele>
        <time>2018-08-20T07:31:52Z</time>
      </trkpt>
      <trkpt lat="43.118851" lon="-1.240728">
        <ele>665.8</ele>
        <time>2018-08-20T07:32:05Z</time>
      </trkpt>
      <trkpt lat="43.118866" lon="-1.240655">
        <ele>665.4</ele>
        <time>2018-08-20T07:32:19Z</time>
      </trkpt>
      <trkpt lat="43.118885" lon="-1.240531">
        <ele>667.3</ele>
        <time>2018-08-20T07:32:29Z</time>
      </trkpt>
      <trkpt lat="43.118897" lon="-1.240495">
        <ele>667.8</ele>
        <time>2018-08-20T07:32:32Z</time>
      </trkpt>
      <trkpt lat="43.118902" lon="-1.240470">
        <ele>668.2</ele>
        <time>2018-08-20T07:32:34Z</time>
      </trkpt>
      <trkpt lat="43.118909" lon="-1.240447">
        <ele>668.2</ele>
        <time>2018-08-20T07:32:36Z</time>
      </trkpt>
      <trkpt lat="43.118928" lon="-1.240292">
        <ele>670.2</ele>
        <time>2018-08-20T07:32:48Z</time>
      </trkpt>
      <trkpt lat="43.118925" lon="-1.240223">
        <ele>671.6</ele>
        <time>2018-08-20T07:32:53Z</time>
      </trkpt>
      <trkpt lat="43.118924" lon="-1.240168">
        <ele>672.6</ele>
        <time>2018-08-20T07:32:57Z</time>
      </trkpt>
      <trkpt lat="43.118899" lon="-1.240002">
        <ele>673.5</ele>
        <time>2018-08-20T07:33:10Z</time>
      </trkpt>
      <trkpt lat="43.118880" lon="-1.239931">
        <ele>674.5</ele>
        <time>2018-08-20T07:33:16Z</time>
      </trkpt>
      <trkpt lat="43.118762" lon="-1.239862">
        <ele>675.9</ele>
        <time>2018-08-20T07:33:28Z</time>
      </trkpt>
      <trkpt lat="43.118723" lon="-1.239858">
        <ele>676.9</ele>
        <time>2018-08-20T07:33:32Z</time>
      </trkpt>
      <trkpt lat="43.118709" lon="-1.239868">
        <ele>677.9</ele>
        <time>2018-08-20T07:33:34Z</time>
      </trkpt>
      <trkpt lat="43.118692" lon="-1.239888">
        <ele>677.9</ele>
        <time>2018-08-20T07:33:36Z</time>
      </trkpt>
      <trkpt lat="43.118646" lon="-1.239916">
        <ele>678.8</ele>
        <time>2018-08-20T07:33:42Z</time>
      </trkpt>
      <trkpt lat="43.118551" lon="-1.239985">
        <ele>681.7</ele>
        <time>2018-08-20T07:33:55Z</time>
      </trkpt>
      <trkpt lat="43.118517" lon="-1.240007">
        <ele>682.7</ele>
        <time>2018-08-20T07:34:00Z</time>
      </trkpt>
      <trkpt lat="43.118394" lon="-1.240056">
        <ele>684.1</ele>
        <time>2018-08-20T07:34:12Z</time>
      </trkpt>
      <trkpt lat="43.118312" lon="-1.240056">
        <ele>685.1</ele>
        <time>2018-08-20T07:34:20Z</time>
      </trkpt>
      <trkpt lat="43.118243" lon="-1.240047">
        <ele>686.5</ele>
        <time>2018-08-20T07:34:27Z</time>
      </trkpt>
      <trkpt lat="43.118162" lon="-1.239976">
        <ele>688.4</ele>
        <time>2018-08-20T07:34:38Z</time>
      </trkpt>
      <trkpt lat="43.118123" lon="-1.239889">
        <ele>688.9</ele>
        <time>2018-08-20T07:34:46Z</time>
      </trkpt>
      <trkpt lat="43.118137" lon="-1.239750">
        <ele>692.3</ele>
        <time>2018-08-20T07:34:59Z</time>
      </trkpt>
      <trkpt lat="43.118119" lon="-1.239676">
        <ele>693.7</ele>
        <time>2018-08-20T07:35:09Z</time>
      </trkpt>
      <trkpt lat="43.118084" lon="-1.239582">
        <ele>695.7</ele>
        <time>2018-08-20T07:35:21Z</time>
      </trkpt>
      <trkpt lat="43.118045" lon="-1.239508">
        <ele>697.6</ele>
        <time>2018-08-20T07:35:32Z</time>
      </trkpt>
      <trkpt lat="43.118062" lon="-1.239480">
        <ele>698.0</ele>
        <time>2018-08-20T07:35:35Z</time>
      </trkpt>
      <trkpt lat="43.118075" lon="-1.239447">
        <ele>698.5</ele>
        <time>2018-08-20T07:35:40Z</time>
      </trkpt>
      <trkpt lat="43.118076" lon="-1.239273">
        <ele>700.9</ele>
        <time>2018-08-20T07:35:55Z</time>
      </trkpt>
      <trkpt lat="43.118084" lon="-1.239203">
        <ele>701.4</ele>
        <time>2018-08-20T07:36:00Z</time>
      </trkpt>
      <trkpt lat="43.118102" lon="-1.239122">
        <ele>702.9</ele>
        <time>2018-08-20T07:36:07Z</time>
      </trkpt>
      <trkpt lat="43.118111" lon="-1.239090">
        <ele>703.8</ele>
        <time>2018-08-20T07:36:09Z</time>
      </trkpt>
      <trkpt lat="43.118127" lon="-1.239009">
        <ele>704.3</ele>
        <time>2018-08-20T07:36:15Z</time>
      </trkpt>
      <trkpt lat="43.118108" lon="-1.238886">
        <ele>706.2</ele>
        <time>2018-08-20T07:36:26Z</time>
      </trkpt>
      <trkpt lat="43.118087" lon="-1.238828">
        <ele>706.7</ele>
        <time>2018-08-20T07:36:32Z</time>
      </trkpt>
      <trkpt lat="43.118064" lon="-1.238778">
        <ele>708.2</ele>
        <time>2018-08-20T07:36:37Z</time>
      </trkpt>
      <trkpt lat="43.118014" lon="-1.238669">
        <ele>710.5</ele>
        <time>2018-08-20T07:36:49Z</time>
      </trkpt>
      <trkpt lat="43.117990" lon="-1.238646">
        <ele>711.0</ele>
        <time>2018-08-20T07:36:52Z</time>
      </trkpt>
      <trkpt lat="43.117977" lon="-1.238624">
        <ele>712.0</ele>
        <time>2018-08-20T07:36:54Z</time>
      </trkpt>
      <trkpt lat="43.117955" lon="-1.238564">
        <ele>712.5</ele>
        <time>2018-08-20T07:36:59Z</time>
      </trkpt>
      <trkpt lat="43.117887" lon="-1.238462">
        <ele>713.4</ele>
        <time>2018-08-20T07:37:11Z</time>
      </trkpt>
      <trkpt lat="43.117870" lon="-1.238441">
        <ele>714.4</ele>
        <time>2018-08-20T07:37:13Z</time>
      </trkpt>
      <trkpt lat="43.117825" lon="-1.238398">
        <ele>715.4</ele>
        <time>2018-08-20T07:37:20Z</time>
      </trkpt>
      <trkpt lat="43.117807" lon="-1.238378">
        <ele>715.8</ele>
        <time>2018-08-20T07:37:23Z</time>
      </trkpt>
      <trkpt lat="43.117716" lon="-1.238294">
        <ele>717.8</ele>
        <time>2018-08-20T07:37:36Z</time>
      </trkpt>
      <trkpt lat="43.117649" lon="-1.238245">
        <ele>720.2</ele>
        <time>2018-08-20T07:37:45Z</time>
      </trkpt>
      <trkpt lat="43.117573" lon="-1.238229">
        <ele>721.1</ele>
        <time>2018-08-20T07:37:54Z</time>
      </trkpt>
      <trkpt lat="43.117483" lon="-1.238209">
        <ele>723.0</ele>
        <time>2018-08-20T07:38:05Z</time>
      </trkpt>
      <trkpt lat="43.117361" lon="-1.238168">
        <ele>725.5</ele>
        <time>2018-08-20T07:38:18Z</time>
      </trkpt>
      <trkpt lat="43.117347" lon="-1.238167">
        <ele>725.9</ele>
        <time>2018-08-20T07:38:20Z</time>
      </trkpt>
      <trkpt lat="43.117319" lon="-1.238166">
        <ele>726.4</ele>
        <time>2018-08-20T07:38:23Z</time>
      </trkpt>
      <trkpt lat="43.117266" lon="-1.238155">
        <ele>727.4</ele>
        <time>2018-08-20T07:38:29Z</time>
      </trkpt>
      <trkpt lat="43.117174" lon="-1.238114">
        <ele>729.3</ele>
        <time>2018-08-20T07:38:41Z</time>
      </trkpt>
      <trkpt lat="43.117165" lon="-1.238113">
        <ele>728.8</ele>
        <time>2018-08-20T07:38:42Z</time>
      </trkpt>
      <trkpt lat="43.117101" lon="-1.238076">
        <ele>729.8</ele>
        <time>2018-08-20T07:38:49Z</time>
      </trkpt>
      <trkpt lat="43.117085" lon="-1.238055">
        <ele>729.8</ele>
        <time>2018-08-20T07:38:51Z</time>
      </trkpt>
      <trkpt lat="43.116970" lon="-1.237983">
        <ele>732.2</ele>
        <time>2018-08-20T07:39:05Z</time>
      </trkpt>
      <trkpt lat="43.116871" lon="-1.237926">
        <ele>733.6</ele>
        <time>2018-08-20T07:39:17Z</time>
      </trkpt>
      <trkpt lat="43.116811" lon="-1.237910">
        <ele>735.1</ele>
        <time>2018-08-20T07:39:24Z</time>
      </trkpt>
      <trkpt lat="43.116788" lon="-1.237913">
        <ele>735.1</ele>
        <time>2018-08-20T07:39:26Z</time>
      </trkpt>
      <trkpt lat="43.116713" lon="-1.237870">
        <ele>736.5</ele>
        <time>2018-08-20T07:39:34Z</time>
      </trkpt>
      <trkpt lat="43.116619" lon="-1.237808">
        <ele>738.0</ele>
        <time>2018-08-20T07:39:45Z</time>
      </trkpt>
      <trkpt lat="43.116600" lon="-1.237807">
        <ele>738.9</ele>
        <time>2018-08-20T07:39:47Z</time>
      </trkpt>
      <trkpt lat="43.116553" lon="-1.237782">
        <ele>739.4</ele>
        <time>2018-08-20T07:39:52Z</time>
      </trkpt>
      <trkpt lat="43.116463" lon="-1.237765">
        <ele>741.3</ele>
        <time>2018-08-20T07:40:03Z</time>
      </trkpt>
      <trkpt lat="43.116431" lon="-1.237752">
        <ele>741.8</ele>
        <time>2018-08-20T07:40:07Z</time>
      </trkpt>
      <trkpt lat="43.116405" lon="-1.237740">
        <ele>742.8</ele>
        <time>2018-08-20T07:40:10Z</time>
      </trkpt>
      <trkpt lat="43.116387" lon="-1.237728">
        <ele>742.3</ele>
        <time>2018-08-20T07:40:12Z</time>
      </trkpt>
      <trkpt lat="43.116346" lon="-1.237727">
        <ele>744.2</ele>
        <time>2018-08-20T07:40:18Z</time>
      </trkpt>
      <trkpt lat="43.116301" lon="-1.237729">
        <ele>745.2</ele>
        <time>2018-08-20T07:40:24Z</time>
      </trkpt>
      <trkpt lat="43.116288" lon="-1.237733">
        <ele>746.1</ele>
        <time>2018-08-20T07:40:26Z</time>
      </trkpt>
      <trkpt lat="43.116244" lon="-1.237722">
        <ele>746.6</ele>
        <time>2018-08-20T07:40:32Z</time>
      </trkpt>
      <trkpt lat="43.116173" lon="-1.237659">
        <ele>747.6</ele>
        <time>2018-08-20T07:40:40Z</time>
      </trkpt>
      <trkpt lat="43.116156" lon="-1.237635">
        <ele>747.6</ele>
        <time>2018-08-20T07:40:42Z</time>
      </trkpt>
      <trkpt lat="43.116080" lon="-1.237599">
        <ele>749.0</ele>
        <time>2018-08-20T07:40:49Z</time>
      </trkpt>
      <trkpt lat="43.116063" lon="-1.237594">
        <ele>749.0</ele>
        <time>2018-08-20T07:40:51Z</time>
      </trkpt>
      <trkpt lat="43.116048" lon="-1.237581">
        <ele>749.0</ele>
        <time>2018-08-20T07:40:53Z</time>
      </trkpt>
      <trkpt lat="43.116026" lon="-1.237581">
        <ele>750.0</ele>
        <time>2018-08-20T07:40:55Z</time>
      </trkpt>
      <trkpt lat="43.115973" lon="-1.237577">
        <ele>751.4</ele>
        <time>2018-08-20T07:41:01Z</time>
      </trkpt>
      <trkpt lat="43.115936" lon="-1.237592">
        <ele>751.9</ele>
        <time>2018-08-20T07:41:05Z</time>
      </trkpt>
      <trkpt lat="43.115884" lon="-1.237594">
        <ele>752.4</ele>
        <time>2018-08-20T07:41:10Z</time>
      </trkpt>
      <trkpt lat="43.115854" lon="-1.237604">
        <ele>752.4</ele>
        <time>2018-08-20T07:41:13Z</time>
      </trkpt>
      <trkpt lat="43.115786" lon="-1.237575">
        <ele>754.3</ele>
        <time>2018-08-20T07:41:20Z</time>
      </trkpt>
      <trkpt lat="43.115737" lon="-1.237576">
        <ele>754.8</ele>
        <time>2018-08-20T07:41:25Z</time>
      </trkpt>
      <trkpt lat="43.115705" lon="-1.237579">
        <ele>756.2</ele>
        <time>2018-08-20T07:41:28Z</time>
      </trkpt>
      <trkpt lat="43.115624" lon="-1.237560">
        <ele>757.7</ele>
        <time>2018-08-20T07:41:37Z</time>
      </trkpt>
      <trkpt lat="43.115567" lon="-1.237530">
        <ele>758.6</ele>
        <time>2018-08-20T07:41:42Z</time>
      </trkpt>
      <trkpt lat="43.115544" lon="-1.237534">
        <ele>759.1</ele>
        <time>2018-08-20T07:41:44Z</time>
      </trkpt>
      <trkpt lat="43.115502" lon="-1.237535">
        <ele>759.6</ele>
        <time>2018-08-20T07:41:48Z</time>
      </trkpt>
      <trkpt lat="43.115457" lon="-1.237537">
        <ele>760.5</ele>
        <time>2018-08-20T07:41:52Z</time>
      </trkpt>
      <trkpt lat="43.115402" lon="-1.237547">
        <ele>761.0</ele>
        <time>2018-08-20T07:41:58Z</time>
      </trkpt>
      <trkpt lat="43.115335" lon="-1.237540">
        <ele>762.0</ele>
        <time>2018-08-20T07:42:04Z</time>
      </trkpt>
      <trkpt lat="43.115317" lon="-1.237530">
        <ele>762.0</ele>
        <time>2018-08-20T07:42:06Z</time>
      </trkpt>
      <trkpt lat="43.115290" lon="-1.237530">
        <ele>762.5</ele>
        <time>2018-08-20T07:42:09Z</time>
      </trkpt>
      <trkpt lat="43.115257" lon="-1.237528">
        <ele>763.4</ele>
        <time>2018-08-20T07:42:12Z</time>
      </trkpt>
      <trkpt lat="43.115212" lon="-1.237518">
        <ele>763.9</ele>
        <time>2018-08-20T07:42:16Z</time>
      </trkpt>
      <trkpt lat="43.115199" lon="-1.237505">
        <ele>763.9</ele>
        <time>2018-08-20T07:42:18Z</time>
      </trkpt>
      <trkpt lat="43.115170" lon="-1.237508">
        <ele>764.4</ele>
        <time>2018-08-20T07:42:21Z</time>
      </trkpt>
      <trkpt lat="43.115043" lon="-1.237519">
        <ele>766.8</ele>
        <time>2018-08-20T07:42:33Z</time>
      </trkpt>
      <trkpt lat="43.114993" lon="-1.237526">
        <ele>767.3</ele>
        <time>2018-08-20T07:42:38Z</time>
      </trkpt>
      <trkpt lat="43.114975" lon="-1.237519">
        <ele>767.3</ele>
        <time>2018-08-20T07:42:40Z</time>
      </trkpt>
      <trkpt lat="43.114904" lon="-1.237546">
        <ele>768.2</ele>
        <time>2018-08-20T07:42:47Z</time>
      </trkpt>
      <trkpt lat="43.114847" lon="-1.237549">
        <ele>769.2</ele>
        <time>2018-08-20T07:42:53Z</time>
      </trkpt>
      <trkpt lat="43.114826" lon="-1.237559">
        <ele>769.7</ele>
        <time>2018-08-20T07:42:55Z</time>
      </trkpt>
      <trkpt lat="43.114764" lon="-1.237572">
        <ele>770.6</ele>
        <time>2018-08-20T07:43:00Z</time>
      </trkpt>
      <trkpt lat="43.114709" lon="-1.237561">
        <ele>771.6</ele>
        <time>2018-08-20T07:43:05Z</time>
      </trkpt>
      <trkpt lat="43.114570" lon="-1.237607">
        <ele>773.0</ele>
        <time>2018-08-20T07:43:19Z</time>
      </trkpt>
      <trkpt lat="43.114528" lon="-1.237612">
        <ele>774.0</ele>
        <time>2018-08-20T07:43:23Z</time>
      </trkpt>
      <trkpt lat="43.114445" lon="-1.237640">
        <ele>774.5</ele>
        <time>2018-08-20T07:43:31Z</time>
      </trkpt>
      <trkpt lat="43.114336" lon="-1.237639">
        <ele>776.9</ele>
        <time>2018-08-20T07:43:42Z</time>
      </trkpt>
      <trkpt lat="43.114254" lon="-1.237620">
        <ele>778.3</ele>
        <time>2018-08-20T07:43:50Z</time>
      </trkpt>
      <trkpt lat="43.114236" lon="-1.237611">
        <ele>778.3</ele>
        <time>2018-08-20T07:43:52Z</time>
      </trkpt>
      <trkpt lat="43.114218" lon="-1.237601">
        <ele>778.3</ele>
        <time>2018-08-20T07:43:54Z</time>
      </trkpt>
      <trkpt lat="43.114143" lon="-1.237578">
        <ele>779.8</ele>
        <time>2018-08-20T07:44:02Z</time>
      </trkpt>
      <trkpt lat="43.114126" lon="-1.237564">
        <ele>780.2</ele>
        <time>2018-08-20T07:44:04Z</time>
      </trkpt>
      <trkpt lat="43.114109" lon="-1.237566">
        <ele>780.2</ele>
        <time>2018-08-20T07:44:06Z</time>
      </trkpt>
      <trkpt lat="43.114090" lon="-1.237557">
        <ele>780.7</ele>
        <time>2018-08-20T07:44:08Z</time>
      </trkpt>
      <trkpt lat="43.114070" lon="-1.237550">
        <ele>780.7</ele>
        <time>2018-08-20T07:44:10Z</time>
      </trkpt>
      <trkpt lat="43.114051" lon="-1.237535">
        <ele>781.2</ele>
        <time>2018-08-20T07:44:12Z</time>
      </trkpt>
      <trkpt lat="43.114028" lon="-1.237532">
        <ele>781.2</ele>
        <time>2018-08-20T07:44:14Z</time>
      </trkpt>
      <trkpt lat="43.113900" lon="-1.237468">
        <ele>784.1</ele>
        <time>2018-08-20T07:44:27Z</time>
      </trkpt>
      <trkpt lat="43.113882" lon="-1.237467">
        <ele>784.1</ele>
        <time>2018-08-20T07:44:29Z</time>
      </trkpt>
      <trkpt lat="43.113803" lon="-1.237446">
        <ele>785.5</ele>
        <time>2018-08-20T07:44:37Z</time>
      </trkpt>
      <trkpt lat="43.113780" lon="-1.237443">
        <ele>785.0</ele>
        <time>2018-08-20T07:44:39Z</time>
      </trkpt>
      <trkpt lat="43.113763" lon="-1.237437">
        <ele>786.0</ele>
        <time>2018-08-20T07:44:41Z</time>
      </trkpt>
      <trkpt lat="43.113714" lon="-1.237417">
        <ele>786.5</ele>
        <time>2018-08-20T07:44:46Z</time>
      </trkpt>
      <trkpt lat="43.113690" lon="-1.237405">
        <ele>786.5</ele>
        <time>2018-08-20T07:44:48Z</time>
      </trkpt>
      <trkpt lat="43.113643" lon="-1.237395">
        <ele>787.5</ele>
        <time>2018-08-20T07:44:53Z</time>
      </trkpt>
      <trkpt lat="43.113556" lon="-1.237368">
        <ele>788.9</ele>
        <time>2018-08-20T07:45:04Z</time>
      </trkpt>
      <trkpt lat="43.113531" lon="-1.237354">
        <ele>789.4</ele>
        <time>2018-08-20T07:45:08Z</time>
      </trkpt>
      <trkpt lat="43.113439" lon="-1.237342">
        <ele>790.3</ele>
        <time>2018-08-20T07:45:21Z</time>
      </trkpt>
      <trkpt lat="43.113407" lon="-1.237356">
        <ele>791.8</ele>
        <time>2018-08-20T07:45:26Z</time>
      </trkpt>
      <trkpt lat="43.113386" lon="-1.237338">
        <ele>790.8</ele>
        <time>2018-08-20T07:45:28Z</time>
      </trkpt>
      <trkpt lat="43.113310" lon="-1.237309">
        <ele>792.3</ele>
        <time>2018-08-20T07:45:35Z</time>
      </trkpt>
      <trkpt lat="43.113293" lon="-1.237295">
        <ele>792.3</ele>
        <time>2018-08-20T07:45:37Z</time>
      </trkpt>
      <trkpt lat="43.113243" lon="-1.237274">
        <ele>792.7</ele>
        <time>2018-08-20T07:45:42Z</time>
      </trkpt>
      <trkpt lat="43.113109" lon="-1.237231">
        <ele>794.2</ele>
        <time>2018-08-20T07:45:54Z</time>
      </trkpt>
      <trkpt lat="43.113053" lon="-1.237229">
        <ele>795.2</ele>
        <time>2018-08-20T07:45:59Z</time>
      </trkpt>
      <trkpt lat="43.112938" lon="-1.237202">
        <ele>797.1</ele>
        <time>2018-08-20T07:46:10Z</time>
      </trkpt>
      <trkpt lat="43.112918" lon="-1.237192">
        <ele>797.1</ele>
        <time>2018-08-20T07:46:12Z</time>
      </trkpt>
      <trkpt lat="43.112800" lon="-1.237177">
        <ele>798.0</ele>
        <time>2018-08-20T07:46:23Z</time>
      </trkpt>
      <trkpt lat="43.112754" lon="-1.237176">
        <ele>798.5</ele>
        <time>2018-08-20T07:46:27Z</time>
      </trkpt>
      <trkpt lat="43.112671" lon="-1.237173">
        <ele>799.5</ele>
        <time>2018-08-20T07:46:34Z</time>
      </trkpt>
      <trkpt lat="43.112627" lon="-1.237172">
        <ele>799.5</ele>
        <time>2018-08-20T07:46:38Z</time>
      </trkpt>
      <trkpt lat="43.112589" lon="-1.237190">
        <ele>800.4</ele>
        <time>2018-08-20T07:46:41Z</time>
      </trkpt>
      <trkpt lat="43.112541" lon="-1.237191">
        <ele>800.0</ele>
        <time>2018-08-20T07:46:45Z</time>
      </trkpt>
      <trkpt lat="43.112399" lon="-1.237202">
        <ele>801.4</ele>
        <time>2018-08-20T07:46:59Z</time>
      </trkpt>
      <trkpt lat="43.112293" lon="-1.237216">
        <ele>801.4</ele>
        <time>2018-08-20T07:51:06Z</time>
      </trkpt>
      <trkpt lat="43.112290" lon="-1.237213">
        <ele>801.9</ele>
        <time>2018-08-20T07:51:45Z</time>
      </trkpt>
      <trkpt lat="43.112300" lon="-1.237218">
        <ele>794.7</ele>
        <time>2018-08-20T07:52:12Z</time>
      </trkpt>
      <trkpt lat="43.112296" lon="-1.237219">
        <ele>806.7</ele>
        <time>2018-08-20T07:52:13Z</time>
      </trkpt>
      <trkpt lat="43.112302" lon="-1.237219">
        <ele>802.8</ele>
        <time>2018-08-20T07:52:14Z</time>
      </trkpt>
      <trkpt lat="43.112317" lon="-1.237206">
        <ele>802.8</ele>
        <time>2018-08-20T07:52:25Z</time>
      </trkpt>
      <trkpt lat="43.112321" lon="-1.237203">
        <ele>802.8</ele>
        <time>2018-08-20T07:52:40Z</time>
      </trkpt>
      <trkpt lat="43.112304" lon="-1.237212">
        <ele>802.4</ele>
        <time>2018-08-20T07:52:50Z</time>
      </trkpt>
      <trkpt lat="43.112283" lon="-1.237247">
        <ele>803.8</ele>
        <time>2018-08-20T07:52:53Z</time>
      </trkpt>
      <trkpt lat="43.112255" lon="-1.237263">
        <ele>802.8</ele>
        <time>2018-08-20T07:52:56Z</time>
      </trkpt>
      <trkpt lat="43.112109" lon="-1.237349">
        <ele>801.4</ele>
        <time>2018-08-20T07:53:11Z</time>
      </trkpt>
      <trkpt lat="43.112019" lon="-1.237392">
        <ele>800.4</ele>
        <time>2018-08-20T07:53:22Z</time>
      </trkpt>
      <trkpt lat="43.111967" lon="-1.237420">
        <ele>800.4</ele>
        <time>2018-08-20T07:53:27Z</time>
      </trkpt>
      <trkpt lat="43.111931" lon="-1.237452">
        <ele>799.5</ele>
        <time>2018-08-20T07:53:36Z</time>
      </trkpt>
      <trkpt lat="43.111880" lon="-1.237495">
        <ele>799.5</ele>
        <time>2018-08-20T07:53:42Z</time>
      </trkpt>
      <trkpt lat="43.111834" lon="-1.237510">
        <ele>801.9</ele>
        <time>2018-08-20T07:53:53Z</time>
      </trkpt>
      <trkpt lat="43.111838" lon="-1.237518">
        <ele>798.5</ele>
        <time>2018-08-20T07:53:56Z</time>
      </trkpt>
      <trkpt lat="43.111834" lon="-1.237506">
        <ele>798.5</ele>
        <time>2018-08-20T07:54:19Z</time>
      </trkpt>
      <trkpt lat="43.111852" lon="-1.237497">
        <ele>798.5</ele>
        <time>2018-08-20T07:54:51Z</time>
      </trkpt>
      <trkpt lat="43.111855" lon="-1.237494">
        <ele>799.5</ele>
        <time>2018-08-20T07:55:26Z</time>
      </trkpt>
      <trkpt lat="43.111854" lon="-1.237504">
        <ele>800.4</ele>
        <time>2018-08-20T07:55:33Z</time>
      </trkpt>
      <trkpt lat="43.111848" lon="-1.237530">
        <ele>800.4</ele>
        <time>2018-08-20T07:55:35Z</time>
      </trkpt>
      <trkpt lat="43.111783" lon="-1.237567">
        <ele>800.4</ele>
        <time>2018-08-20T07:55:47Z</time>
      </trkpt>
      <trkpt lat="43.111793" lon="-1.237560">
        <ele>799.5</ele>
        <time>2018-08-20T07:56:05Z</time>
      </trkpt>
      <trkpt lat="43.111712" lon="-1.237584">
        <ele>799.0</ele>
        <time>2018-08-20T07:56:19Z</time>
      </trkpt>
      <trkpt lat="43.111656" lon="-1.237605">
        <ele>799.0</ele>
        <time>2018-08-20T07:56:29Z</time>
      </trkpt>
      <trkpt lat="43.111586" lon="-1.237670">
        <ele>799.0</ele>
        <time>2018-08-20T07:56:40Z</time>
      </trkpt>
      <trkpt lat="43.111463" lon="-1.237734">
        <ele>799.0</ele>
        <time>2018-08-20T07:56:53Z</time>
      </trkpt>
      <trkpt lat="43.111361" lon="-1.237790">
        <ele>798.5</ele>
        <time>2018-08-20T07:57:04Z</time>
      </trkpt>
      <trkpt lat="43.111206" lon="-1.237877">
        <ele>797.5</ele>
        <time>2018-08-20T07:57:19Z</time>
      </trkpt>
      <trkpt lat="43.111075" lon="-1.237947">
        <ele>797.5</ele>
        <time>2018-08-20T07:57:33Z</time>
      </trkpt>
      <trkpt lat="43.110900" lon="-1.237995">
        <ele>796.1</ele>
        <time>2018-08-20T07:57:49Z</time>
      </trkpt>
      <trkpt lat="43.110734" lon="-1.238034">
        <ele>795.6</ele>
        <time>2018-08-20T07:58:04Z</time>
      </trkpt>
      <trkpt lat="43.110582" lon="-1.238045">
        <ele>794.2</ele>
        <time>2018-08-20T07:58:18Z</time>
      </trkpt>
      <trkpt lat="43.110560" lon="-1.238052">
        <ele>794.7</ele>
        <time>2018-08-20T07:58:20Z</time>
      </trkpt>
      <trkpt lat="43.110493" lon="-1.238060">
        <ele>794.2</ele>
        <time>2018-08-20T07:58:26Z</time>
      </trkpt>
      <trkpt lat="43.110417" lon="-1.238074">
        <ele>793.7</ele>
        <time>2018-08-20T07:58:33Z</time>
      </trkpt>
      <trkpt lat="43.110274" lon="-1.238093">
        <ele>793.2</ele>
        <time>2018-08-20T07:58:46Z</time>
      </trkpt>
      <trkpt lat="43.110220" lon="-1.238101">
        <ele>793.2</ele>
        <time>2018-08-20T07:58:51Z</time>
      </trkpt>
      <trkpt lat="43.110069" lon="-1.238156">
        <ele>792.3</ele>
        <time>2018-08-20T07:59:05Z</time>
      </trkpt>
      <trkpt lat="43.110020" lon="-1.238161">
        <ele>792.3</ele>
        <time>2018-08-20T07:59:09Z</time>
      </trkpt>
      <trkpt lat="43.109970" lon="-1.238182">
        <ele>792.3</ele>
        <time>2018-08-20T07:59:13Z</time>
      </trkpt>
      <trkpt lat="43.109937" lon="-1.238183">
        <ele>792.7</ele>
        <time>2018-08-20T07:59:16Z</time>
      </trkpt>
      <trkpt lat="43.109862" lon="-1.238203">
        <ele>792.7</ele>
        <time>2018-08-20T07:59:23Z</time>
      </trkpt>
      <trkpt lat="43.109828" lon="-1.238219">
        <ele>792.3</ele>
        <time>2018-08-20T07:59:26Z</time>
      </trkpt>
      <trkpt lat="43.109765" lon="-1.238278">
        <ele>792.3</ele>
        <time>2018-08-20T07:59:33Z</time>
      </trkpt>
      <trkpt lat="43.109712" lon="-1.238296">
        <ele>792.7</ele>
        <time>2018-08-20T07:59:38Z</time>
      </trkpt>
      <trkpt lat="43.109653" lon="-1.238310">
        <ele>792.7</ele>
        <time>2018-08-20T07:59:43Z</time>
      </trkpt>
      <trkpt lat="43.109612" lon="-1.238343">
        <ele>792.7</ele>
        <time>2018-08-20T07:59:47Z</time>
      </trkpt>
      <trkpt lat="43.109573" lon="-1.238358">
        <ele>792.7</ele>
        <time>2018-08-20T07:59:51Z</time>
      </trkpt>
      <trkpt lat="43.109551" lon="-1.238379">
        <ele>793.2</ele>
        <time>2018-08-20T07:59:53Z</time>
      </trkpt>
      <trkpt lat="43.109514" lon="-1.238398">
        <ele>793.2</ele>
        <time>2018-08-20T07:59:56Z</time>
      </trkpt>
      <trkpt lat="43.109398" lon="-1.238487">
        <ele>792.7</ele>
        <time>2018-08-20T08:00:08Z</time>
      </trkpt>
      <trkpt lat="43.109331" lon="-1.238535">
        <ele>793.2</ele>
        <time>2018-08-20T08:00:15Z</time>
      </trkpt>
      <trkpt lat="43.109264" lon="-1.238603">
        <ele>793.2</ele>
        <time>2018-08-20T08:00:22Z</time>
      </trkpt>
      <trkpt lat="43.109250" lon="-1.238627">
        <ele>793.2</ele>
        <time>2018-08-20T08:00:24Z</time>
      </trkpt>
      <trkpt lat="43.109224" lon="-1.238642">
        <ele>793.2</ele>
        <time>2018-08-20T08:00:27Z</time>
      </trkpt>
      <trkpt lat="43.109182" lon="-1.238708">
        <ele>793.7</ele>
        <time>2018-08-20T08:00:32Z</time>
      </trkpt>
      <trkpt lat="43.109095" lon="-1.238807">
        <ele>793.7</ele>
        <time>2018-08-20T08:00:41Z</time>
      </trkpt>
      <trkpt lat="43.109059" lon="-1.238876">
        <ele>794.2</ele>
        <time>2018-08-20T08:00:46Z</time>
      </trkpt>
      <trkpt lat="43.109015" lon="-1.238933">
        <ele>793.7</ele>
        <time>2018-08-20T08:00:52Z</time>
      </trkpt>
      <trkpt lat="43.108997" lon="-1.238950">
        <ele>793.7</ele>
        <time>2018-08-20T08:00:54Z</time>
      </trkpt>
      <trkpt lat="43.108885" lon="-1.239052">
        <ele>794.2</ele>
        <time>2018-08-20T08:01:07Z</time>
      </trkpt>
      <trkpt lat="43.108868" lon="-1.239056">
        <ele>794.2</ele>
        <time>2018-08-20T08:01:11Z</time>
      </trkpt>
      <trkpt lat="43.108833" lon="-1.239075">
        <ele>794.7</ele>
        <time>2018-08-20T08:01:23Z</time>
      </trkpt>
      <trkpt lat="43.108758" lon="-1.239100">
        <ele>791.3</ele>
        <time>2018-08-20T08:04:27Z</time>
      </trkpt>
      <trkpt lat="43.108751" lon="-1.239101">
        <ele>798.5</ele>
        <time>2018-08-20T08:04:28Z</time>
      </trkpt>
      <trkpt lat="43.108748" lon="-1.239104">
        <ele>797.5</ele>
        <time>2018-08-20T08:04:29Z</time>
      </trkpt>
      <trkpt lat="43.108742" lon="-1.239103">
        <ele>795.6</ele>
        <time>2018-08-20T08:04:31Z</time>
      </trkpt>
      <trkpt lat="43.108660" lon="-1.239150">
        <ele>795.6</ele>
        <time>2018-08-20T08:04:46Z</time>
      </trkpt>
      <trkpt lat="43.108588" lon="-1.239112">
        <ele>796.6</ele>
        <time>2018-08-20T08:04:56Z</time>
      </trkpt>
      <trkpt lat="43.108523" lon="-1.239167">
        <ele>797.1</ele>
        <time>2018-08-20T08:05:02Z</time>
      </trkpt>
      <trkpt lat="43.108448" lon="-1.239192">
        <ele>798.0</ele>
        <time>2018-08-20T08:05:13Z</time>
      </trkpt>
      <trkpt lat="43.108375" lon="-1.239231">
        <ele>799.5</ele>
        <time>2018-08-20T08:05:23Z</time>
      </trkpt>
      <trkpt lat="43.108332" lon="-1.239247">
        <ele>800.0</ele>
        <time>2018-08-20T08:05:28Z</time>
      </trkpt>
      <trkpt lat="43.108241" lon="-1.239280">
        <ele>800.4</ele>
        <time>2018-08-20T08:05:39Z</time>
      </trkpt>
      <trkpt lat="43.108233" lon="-1.239291">
        <ele>800.9</ele>
        <time>2018-08-20T08:05:40Z</time>
      </trkpt>
      <trkpt lat="43.108141" lon="-1.239329">
        <ele>801.4</ele>
        <time>2018-08-20T08:05:48Z</time>
      </trkpt>
      <trkpt lat="43.108125" lon="-1.239340">
        <ele>802.4</ele>
        <time>2018-08-20T08:05:50Z</time>
      </trkpt>
      <trkpt lat="43.108108" lon="-1.239364">
        <ele>802.4</ele>
        <time>2018-08-20T08:05:52Z</time>
      </trkpt>
      <trkpt lat="43.107985" lon="-1.239390">
        <ele>803.8</ele>
        <time>2018-08-20T08:06:04Z</time>
      </trkpt>
      <trkpt lat="43.107911" lon="-1.239406">
        <ele>804.8</ele>
        <time>2018-08-20T08:06:17Z</time>
      </trkpt>
      <trkpt lat="43.107788" lon="-1.239380">
        <ele>806.2</ele>
        <time>2018-08-20T08:06:32Z</time>
      </trkpt>
      <trkpt lat="43.107776" lon="-1.239410">
        <ele>806.7</ele>
        <time>2018-08-20T08:06:47Z</time>
      </trkpt>
      <trkpt lat="43.107727" lon="-1.239413">
        <ele>806.7</ele>
        <time>2018-08-20T08:07:05Z</time>
      </trkpt>
      <trkpt lat="43.107669" lon="-1.239418">
        <ele>807.6</ele>
        <time>2018-08-20T08:07:19Z</time>
      </trkpt>
      <trkpt lat="43.107605" lon="-1.239388">
        <ele>809.1</ele>
        <time>2018-08-20T08:07:27Z</time>
      </trkpt>
      <trkpt lat="43.107507" lon="-1.239392">
        <ele>810.0</ele>
        <time>2018-08-20T08:07:37Z</time>
      </trkpt>
      <trkpt lat="43.107476" lon="-1.239395">
        <ele>810.5</ele>
        <time>2018-08-20T08:07:41Z</time>
      </trkpt>
      <trkpt lat="43.107393" lon="-1.239377">
        <ele>812.0</ele>
        <time>2018-08-20T08:07:52Z</time>
      </trkpt>
      <trkpt lat="43.107303" lon="-1.239368">
        <ele>813.4</ele>
        <time>2018-08-20T08:08:02Z</time>
      </trkpt>
      <trkpt lat="43.107198" lon="-1.239344">
        <ele>814.8</ele>
        <time>2018-08-20T08:08:13Z</time>
      </trkpt>
      <trkpt lat="43.107173" lon="-1.239349">
        <ele>814.8</ele>
        <time>2018-08-20T08:08:15Z</time>
      </trkpt>
      <trkpt lat="43.107149" lon="-1.239335">
        <ele>815.8</ele>
        <time>2018-08-20T08:08:17Z</time>
      </trkpt>
      <trkpt lat="43.107056" lon="-1.239362">
        <ele>817.3</ele>
        <time>2018-08-20T08:08:28Z</time>
      </trkpt>
      <trkpt lat="43.107020" lon="-1.239353">
        <ele>817.3</ele>
        <time>2018-08-20T08:08:31Z</time>
      </trkpt>
      <trkpt lat="43.106995" lon="-1.239347">
        <ele>818.2</ele>
        <time>2018-08-20T08:08:34Z</time>
      </trkpt>
      <trkpt lat="43.106955" lon="-1.239357">
        <ele>818.7</ele>
        <time>2018-08-20T08:08:38Z</time>
      </trkpt>
      <trkpt lat="43.106877" lon="-1.239360">
        <ele>819.2</ele>
        <time>2018-08-20T08:08:46Z</time>
      </trkpt>
      <trkpt lat="43.106793" lon="-1.239392">
        <ele>821.6</ele>
        <time>2018-08-20T08:08:55Z</time>
      </trkpt>
      <trkpt lat="43.106681" lon="-1.239409">
        <ele>823.5</ele>
        <time>2018-08-20T08:09:07Z</time>
      </trkpt>
      <trkpt lat="43.106616" lon="-1.239391">
        <ele>824.0</ele>
        <time>2018-08-20T08:09:17Z</time>
      </trkpt>
      <trkpt lat="43.106594" lon="-1.239357">
        <ele>824.5</ele>
        <time>2018-08-20T08:09:20Z</time>
      </trkpt>
      <trkpt lat="43.106520" lon="-1.239254">
        <ele>825.0</ele>
        <time>2018-08-20T08:09:31Z</time>
      </trkpt>
      <trkpt lat="43.106496" lon="-1.239192">
        <ele>825.9</ele>
        <time>2018-08-20T08:09:37Z</time>
      </trkpt>
      <trkpt lat="43.106475" lon="-1.239063">
        <ele>826.9</ele>
        <time>2018-08-20T08:09:48Z</time>
      </trkpt>
      <trkpt lat="43.106477" lon="-1.239027">
        <ele>827.3</ele>
        <time>2018-08-20T08:09:51Z</time>
      </trkpt>
      <trkpt lat="43.106474" lon="-1.239007">
        <ele>827.8</ele>
        <time>2018-08-20T08:09:53Z</time>
      </trkpt>
      <trkpt lat="43.106473" lon="-1.238982">
        <ele>827.8</ele>
        <time>2018-08-20T08:09:55Z</time>
      </trkpt>
      <trkpt lat="43.106475" lon="-1.238954">
        <ele>827.8</ele>
        <time>2018-08-20T08:09:57Z</time>
      </trkpt>
      <trkpt lat="43.106482" lon="-1.238876">
        <ele>828.8</ele>
        <time>2018-08-20T08:10:02Z</time>
      </trkpt>
      <trkpt lat="43.106457" lon="-1.238670">
        <ele>830.2</ele>
        <time>2018-08-20T08:10:16Z</time>
      </trkpt>
      <trkpt lat="43.106461" lon="-1.238637">
        <ele>829.8</ele>
        <time>2018-08-20T08:10:18Z</time>
      </trkpt>
      <trkpt lat="43.106460" lon="-1.238611">
        <ele>830.2</ele>
        <time>2018-08-20T08:10:20Z</time>
      </trkpt>
      <trkpt lat="43.106464" lon="-1.238580">
        <ele>830.7</ele>
        <time>2018-08-20T08:10:22Z</time>
      </trkpt>
      <trkpt lat="43.106459" lon="-1.238527">
        <ele>830.7</ele>
        <time>2018-08-20T08:10:26Z</time>
      </trkpt>
      <trkpt lat="43.106448" lon="-1.238511">
        <ele>831.2</ele>
        <time>2018-08-20T08:10:28Z</time>
      </trkpt>
      <trkpt lat="43.106448" lon="-1.238487">
        <ele>831.2</ele>
        <time>2018-08-20T08:10:30Z</time>
      </trkpt>
      <trkpt lat="43.106438" lon="-1.238417">
        <ele>831.2</ele>
        <time>2018-08-20T08:10:35Z</time>
      </trkpt>
      <trkpt lat="43.106388" lon="-1.238190">
        <ele>833.1</ele>
        <time>2018-08-20T08:10:51Z</time>
      </trkpt>
      <trkpt lat="43.106309" lon="-1.238064">
        <ele>834.6</ele>
        <time>2018-08-20T08:11:03Z</time>
      </trkpt>
      <trkpt lat="43.106305" lon="-1.238056">
        <ele>834.1</ele>
        <time>2018-08-20T08:11:04Z</time>
      </trkpt>
      <trkpt lat="43.106281" lon="-1.238021">
        <ele>834.6</ele>
        <time>2018-08-20T08:11:07Z</time>
      </trkpt>
      <trkpt lat="43.106259" lon="-1.238011">
        <ele>835.0</ele>
        <time>2018-08-20T08:11:09Z</time>
      </trkpt>
      <trkpt lat="43.106211" lon="-1.237975">
        <ele>836.5</ele>
        <time>2018-08-20T08:11:14Z</time>
      </trkpt>
      <trkpt lat="43.106169" lon="-1.237966">
        <ele>836.5</ele>
        <time>2018-08-20T08:11:19Z</time>
      </trkpt>
      <trkpt lat="43.106116" lon="-1.237937">
        <ele>837.0</ele>
        <time>2018-08-20T08:11:25Z</time>
      </trkpt>
      <trkpt lat="43.106015" lon="-1.237903">
        <ele>838.9</ele>
        <time>2018-08-20T08:11:37Z</time>
      </trkpt>
      <trkpt lat="43.105930" lon="-1.237882">
        <ele>839.8</ele>
        <time>2018-08-20T08:11:48Z</time>
      </trkpt>
      <trkpt lat="43.105922" lon="-1.237878">
        <ele>839.8</ele>
        <time>2018-08-20T08:11:59Z</time>
      </trkpt>
      <trkpt lat="43.105850" lon="-1.237872">
        <ele>841.8</ele>
        <time>2018-08-20T08:12:12Z</time>
      </trkpt>
      <trkpt lat="43.105766" lon="-1.237878">
        <ele>842.7</ele>
        <time>2018-08-20T08:12:23Z</time>
      </trkpt>
      <trkpt lat="43.105656" lon="-1.237911">
        <ele>843.7</ele>
        <time>2018-08-20T08:12:36Z</time>
      </trkpt>
      <trkpt lat="43.105613" lon="-1.237909">
        <ele>836.5</ele>
        <time>2018-08-20T08:12:45Z</time>
      </trkpt>
      <trkpt lat="43.105615" lon="-1.237908">
        <ele>844.7</ele>
        <time>2018-08-20T08:12:46Z</time>
      </trkpt>
      <trkpt lat="43.105621" lon="-1.237908">
        <ele>848.5</ele>
        <time>2018-08-20T08:12:48Z</time>
      </trkpt>
      <trkpt lat="43.105621" lon="-1.237903">
        <ele>848.5</ele>
        <time>2018-08-20T08:12:49Z</time>
      </trkpt>
      <trkpt lat="43.105619" lon="-1.237899">
        <ele>845.1</ele>
        <time>2018-08-20T08:12:50Z</time>
      </trkpt>
      <trkpt lat="43.105618" lon="-1.237902">
        <ele>844.2</ele>
        <time>2018-08-20T08:12:52Z</time>
      </trkpt>
      <trkpt lat="43.105616" lon="-1.237902">
        <ele>843.7</ele>
        <time>2018-08-20T08:13:14Z</time>
      </trkpt>
      <trkpt lat="43.105578" lon="-1.237940">
        <ele>844.2</ele>
        <time>2018-08-20T08:13:30Z</time>
      </trkpt>
      <trkpt lat="43.105539" lon="-1.237974">
        <ele>844.7</ele>
        <time>2018-08-20T08:13:36Z</time>
      </trkpt>
      <trkpt lat="43.105523" lon="-1.237993">
        <ele>844.2</ele>
        <time>2018-08-20T08:13:38Z</time>
      </trkpt>
      <trkpt lat="43.105449" lon="-1.238061">
        <ele>845.6</ele>
        <time>2018-08-20T08:13:46Z</time>
      </trkpt>
      <trkpt lat="43.105324" lon="-1.238195">
        <ele>848.0</ele>
        <time>2018-08-20T08:14:02Z</time>
      </trkpt>
      <trkpt lat="43.105270" lon="-1.238263">
        <ele>849.0</ele>
        <time>2018-08-20T08:14:09Z</time>
      </trkpt>
      <trkpt lat="43.105227" lon="-1.238326">
        <ele>849.0</ele>
        <time>2018-08-20T08:14:13Z</time>
      </trkpt>
      <trkpt lat="43.105208" lon="-1.238355">
        <ele>849.5</ele>
        <time>2018-08-20T08:14:16Z</time>
      </trkpt>
      <trkpt lat="43.105159" lon="-1.238420">
        <ele>849.5</ele>
        <time>2018-08-20T08:14:22Z</time>
      </trkpt>
      <trkpt lat="43.105130" lon="-1.238466">
        <ele>850.4</ele>
        <time>2018-08-20T08:14:26Z</time>
      </trkpt>
      <trkpt lat="43.105017" lon="-1.238598">
        <ele>850.9</ele>
        <time>2018-08-20T08:14:39Z</time>
      </trkpt>
      <trkpt lat="43.104956" lon="-1.238669">
        <ele>851.4</ele>
        <time>2018-08-20T08:14:46Z</time>
      </trkpt>
      <trkpt lat="43.104818" lon="-1.238827">
        <ele>852.8</ele>
        <time>2018-08-20T08:15:02Z</time>
      </trkpt>
      <trkpt lat="43.104799" lon="-1.238856">
        <ele>853.8</ele>
        <time>2018-08-20T08:15:05Z</time>
      </trkpt>
      <trkpt lat="43.104763" lon="-1.238889">
        <ele>853.8</ele>
        <time>2018-08-20T08:15:09Z</time>
      </trkpt>
      <trkpt lat="43.104701" lon="-1.238951">
        <ele>854.3</ele>
        <time>2018-08-20T08:15:16Z</time>
      </trkpt>
      <trkpt lat="43.104655" lon="-1.239002">
        <ele>854.3</ele>
        <time>2018-08-20T08:15:21Z</time>
      </trkpt>
      <trkpt lat="43.104636" lon="-1.239031">
        <ele>854.8</ele>
        <time>2018-08-20T08:15:24Z</time>
      </trkpt>
      <trkpt lat="43.104519" lon="-1.239186">
        <ele>855.2</ele>
        <time>2018-08-20T08:15:39Z</time>
      </trkpt>
      <trkpt lat="43.104456" lon="-1.239243">
        <ele>855.7</ele>
        <time>2018-08-20T08:15:46Z</time>
      </trkpt>
      <trkpt lat="43.104437" lon="-1.239260">
        <ele>855.7</ele>
        <time>2018-08-20T08:15:48Z</time>
      </trkpt>
      <trkpt lat="43.104412" lon="-1.239290">
        <ele>855.7</ele>
        <time>2018-08-20T08:15:51Z</time>
      </trkpt>
      <trkpt lat="43.104370" lon="-1.239339">
        <ele>855.7</ele>
        <time>2018-08-20T08:15:56Z</time>
      </trkpt>
      <trkpt lat="43.104350" lon="-1.239352">
        <ele>855.2</ele>
        <time>2018-08-20T08:15:58Z</time>
      </trkpt>
      <trkpt lat="43.104325" lon="-1.239386">
        <ele>855.7</ele>
        <time>2018-08-20T08:16:01Z</time>
      </trkpt>
      <trkpt lat="43.104303" lon="-1.239399">
        <ele>855.7</ele>
        <time>2018-08-20T08:16:03Z</time>
      </trkpt>
      <trkpt lat="43.104254" lon="-1.239442">
        <ele>855.7</ele>
        <time>2018-08-20T08:16:08Z</time>
      </trkpt>
      <trkpt lat="43.104184" lon="-1.239512">
        <ele>856.2</ele>
        <time>2018-08-20T08:16:16Z</time>
      </trkpt>
      <trkpt lat="43.104133" lon="-1.239546">
        <ele>855.7</ele>
        <time>2018-08-20T08:16:21Z</time>
      </trkpt>
      <trkpt lat="43.104032" lon="-1.239636">
        <ele>856.7</ele>
        <time>2018-08-20T08:16:35Z</time>
      </trkpt>
      <trkpt lat="43.104001" lon="-1.239637">
        <ele>856.2</ele>
        <time>2018-08-20T08:16:43Z</time>
      </trkpt>
      <trkpt lat="43.103952" lon="-1.239683">
        <ele>857.2</ele>
        <time>2018-08-20T08:16:47Z</time>
      </trkpt>
      <trkpt lat="43.103910" lon="-1.239718">
        <ele>857.2</ele>
        <time>2018-08-20T08:16:59Z</time>
      </trkpt>
      <trkpt lat="43.103808" lon="-1.239787">
        <ele>857.6</ele>
        <time>2018-08-20T08:17:13Z</time>
      </trkpt>
      <trkpt lat="43.103724" lon="-1.239827">
        <ele>858.1</ele>
        <time>2018-08-20T08:17:25Z</time>
      </trkpt>
      <trkpt lat="43.103709" lon="-1.239818">
        <ele>858.1</ele>
        <time>2018-08-20T08:17:35Z</time>
      </trkpt>
      <trkpt lat="43.103716" lon="-1.239826">
        <ele>858.1</ele>
        <time>2018-08-20T08:17:38Z</time>
      </trkpt>
      <trkpt lat="43.103592" lon="-1.239850">
        <ele>858.6</ele>
        <time>2018-08-20T08:17:50Z</time>
      </trkpt>
      <trkpt lat="43.103515" lon="-1.239849">
        <ele>859.6</ele>
        <time>2018-08-20T08:17:57Z</time>
      </trkpt>
      <trkpt lat="43.103480" lon="-1.239865">
        <ele>860.0</ele>
        <time>2018-08-20T08:18:00Z</time>
      </trkpt>
      <trkpt lat="43.103398" lon="-1.239872">
        <ele>860.5</ele>
        <time>2018-08-20T08:18:07Z</time>
      </trkpt>
      <trkpt lat="43.103376" lon="-1.239877">
        <ele>860.5</ele>
        <time>2018-08-20T08:18:09Z</time>
      </trkpt>
      <trkpt lat="43.103319" lon="-1.239890">
        <ele>861.5</ele>
        <time>2018-08-20T08:18:14Z</time>
      </trkpt>
      <trkpt lat="43.103265" lon="-1.239906">
        <ele>862.0</ele>
        <time>2018-08-20T08:18:19Z</time>
      </trkpt>
      <trkpt lat="43.103181" lon="-1.239910">
        <ele>863.4</ele>
        <time>2018-08-20T08:18:26Z</time>
      </trkpt>
      <trkpt lat="43.103137" lon="-1.239907">
        <ele>863.9</ele>
        <time>2018-08-20T08:18:30Z</time>
      </trkpt>
      <trkpt lat="43.103119" lon="-1.239912">
        <ele>864.4</ele>
        <time>2018-08-20T08:18:32Z</time>
      </trkpt>
      <trkpt lat="43.102985" lon="-1.239917">
        <ele>865.8</ele>
        <time>2018-08-20T08:18:45Z</time>
      </trkpt>
      <trkpt lat="43.102852" lon="-1.239876">
        <ele>867.2</ele>
        <time>2018-08-20T08:18:58Z</time>
      </trkpt>
      <trkpt lat="43.102712" lon="-1.239843">
        <ele>869.7</ele>
        <time>2018-08-20T08:19:11Z</time>
      </trkpt>
      <trkpt lat="43.102636" lon="-1.239824">
        <ele>871.1</ele>
        <time>2018-08-20T08:19:19Z</time>
      </trkpt>
      <trkpt lat="43.102576" lon="-1.239823">
        <ele>872.0</ele>
        <time>2018-08-20T08:19:25Z</time>
      </trkpt>
      <trkpt lat="43.102536" lon="-1.239821">
        <ele>872.0</ele>
        <time>2018-08-20T08:19:29Z</time>
      </trkpt>
      <trkpt lat="43.102504" lon="-1.239816">
        <ele>873.0</ele>
        <time>2018-08-20T08:19:32Z</time>
      </trkpt>
      <trkpt lat="43.102431" lon="-1.239808">
        <ele>873.5</ele>
        <time>2018-08-20T08:19:39Z</time>
      </trkpt>
      <trkpt lat="43.102330" lon="-1.239821">
        <ele>874.9</ele>
        <time>2018-08-20T08:19:48Z</time>
      </trkpt>
      <trkpt lat="43.102196" lon="-1.239838">
        <ele>875.9</ele>
        <time>2018-08-20T08:20:01Z</time>
      </trkpt>
      <trkpt lat="43.102173" lon="-1.239834">
        <ele>876.4</ele>
        <time>2018-08-20T08:20:03Z</time>
      </trkpt>
      <trkpt lat="43.102061" lon="-1.239863">
        <ele>876.9</ele>
        <time>2018-08-20T08:20:13Z</time>
      </trkpt>
      <trkpt lat="43.102002" lon="-1.239873">
        <ele>876.4</ele>
        <time>2018-08-20T08:20:18Z</time>
      </trkpt>
      <trkpt lat="43.101948" lon="-1.239884">
        <ele>876.9</ele>
        <time>2018-08-20T08:20:23Z</time>
      </trkpt>
      <trkpt lat="43.101790" lon="-1.239942">
        <ele>877.8</ele>
        <time>2018-08-20T08:20:38Z</time>
      </trkpt>
      <trkpt lat="43.101703" lon="-1.239951">
        <ele>878.8</ele>
        <time>2018-08-20T08:20:50Z</time>
      </trkpt>
      <trkpt lat="43.101647" lon="-1.239938">
        <ele>879.3</ele>
        <time>2018-08-20T08:21:05Z</time>
      </trkpt>
      <trkpt lat="43.101553" lon="-1.239978">
        <ele>879.3</ele>
        <time>2018-08-20T08:21:20Z</time>
      </trkpt>
      <trkpt lat="43.101386" lon="-1.240014">
        <ele>880.7</ele>
        <time>2018-08-20T08:21:35Z</time>
      </trkpt>
      <trkpt lat="43.101336" lon="-1.240039">
        <ele>881.2</ele>
        <time>2018-08-20T08:21:47Z</time>
      </trkpt>
      <trkpt lat="43.101172" lon="-1.240063">
        <ele>882.2</ele>
        <time>2018-08-20T08:22:00Z</time>
      </trkpt>
      <trkpt lat="43.101132" lon="-1.240063">
        <ele>882.2</ele>
        <time>2018-08-20T08:22:03Z</time>
      </trkpt>
      <trkpt lat="43.101088" lon="-1.240095">
        <ele>882.6</ele>
        <time>2018-08-20T08:22:07Z</time>
      </trkpt>
      <trkpt lat="43.100924" lon="-1.240161">
        <ele>883.1</ele>
        <time>2018-08-20T08:22:21Z</time>
      </trkpt>
      <trkpt lat="43.100893" lon="-1.240187">
        <ele>883.6</ele>
        <time>2018-08-20T08:22:32Z</time>
      </trkpt>
      <trkpt lat="43.100768" lon="-1.240242">
        <ele>884.5</ele>
        <time>2018-08-20T08:22:44Z</time>
      </trkpt>
      <trkpt lat="43.100607" lon="-1.240309">
        <ele>885.5</ele>
        <time>2018-08-20T08:22:58Z</time>
      </trkpt>
      <trkpt lat="43.100419" lon="-1.240399">
        <ele>886.0</ele>
        <time>2018-08-20T08:23:14Z</time>
      </trkpt>
      <trkpt lat="43.100244" lon="-1.240486">
        <ele>886.0</ele>
        <time>2018-08-20T08:23:30Z</time>
      </trkpt>
      <trkpt lat="43.100201" lon="-1.240517">
        <ele>887.0</ele>
        <time>2018-08-20T08:23:44Z</time>
      </trkpt>
      <trkpt lat="43.100051" lon="-1.240588">
        <ele>887.4</ele>
        <time>2018-08-20T08:24:01Z</time>
      </trkpt>
      <trkpt lat="43.100017" lon="-1.240594">
        <ele>887.0</ele>
        <time>2018-08-20T08:24:04Z</time>
      </trkpt>
      <trkpt lat="43.100002" lon="-1.240608">
        <ele>887.9</ele>
        <time>2018-08-20T08:24:06Z</time>
      </trkpt>
      <trkpt lat="43.099982" lon="-1.240612">
        <ele>887.4</ele>
        <time>2018-08-20T08:24:08Z</time>
      </trkpt>
      <trkpt lat="43.099964" lon="-1.240622">
        <ele>885.5</ele>
        <time>2018-08-20T08:24:10Z</time>
      </trkpt>
      <trkpt lat="43.099782" lon="-1.240696">
        <ele>889.4</ele>
        <time>2018-08-20T08:24:28Z</time>
      </trkpt>
      <trkpt lat="43.099668" lon="-1.240702">
        <ele>891.3</ele>
        <time>2018-08-20T08:24:43Z</time>
      </trkpt>
      <trkpt lat="43.099659" lon="-1.240693">
        <ele>890.8</ele>
        <time>2018-08-20T08:24:44Z</time>
      </trkpt>
      <trkpt lat="43.099503" lon="-1.240717">
        <ele>892.7</ele>
        <time>2018-08-20T08:25:00Z</time>
      </trkpt>
      <trkpt lat="43.099491" lon="-1.240719">
        <ele>892.7</ele>
        <time>2018-08-20T08:25:01Z</time>
      </trkpt>
      <trkpt lat="43.099335" lon="-1.240757">
        <ele>894.6</ele>
        <time>2018-08-20T08:25:17Z</time>
      </trkpt>
      <trkpt lat="43.099298" lon="-1.240769">
        <ele>895.1</ele>
        <time>2018-08-20T08:25:21Z</time>
      </trkpt>
      <trkpt lat="43.099237" lon="-1.240780">
        <ele>894.6</ele>
        <time>2018-08-20T08:25:26Z</time>
      </trkpt>
      <trkpt lat="43.099106" lon="-1.240817">
        <ele>895.6</ele>
        <time>2018-08-20T08:25:40Z</time>
      </trkpt>
      <trkpt lat="43.099065" lon="-1.240833">
        <ele>895.6</ele>
        <time>2018-08-20T08:25:44Z</time>
      </trkpt>
      <trkpt lat="43.099036" lon="-1.240852">
        <ele>896.6</ele>
        <time>2018-08-20T08:25:47Z</time>
      </trkpt>
      <trkpt lat="43.098995" lon="-1.240862">
        <ele>896.6</ele>
        <time>2018-08-20T08:25:52Z</time>
      </trkpt>
      <trkpt lat="43.098876" lon="-1.240926">
        <ele>898.0</ele>
        <time>2018-08-20T08:26:05Z</time>
      </trkpt>
      <trkpt lat="43.098812" lon="-1.240949">
        <ele>899.5</ele>
        <time>2018-08-20T08:26:14Z</time>
      </trkpt>
      <trkpt lat="43.098706" lon="-1.240989">
        <ele>900.4</ele>
        <time>2018-08-20T08:26:26Z</time>
      </trkpt>
      <trkpt lat="43.098664" lon="-1.240994">
        <ele>900.4</ele>
        <time>2018-08-20T08:26:30Z</time>
      </trkpt>
      <trkpt lat="43.098542" lon="-1.241033">
        <ele>901.8</ele>
        <time>2018-08-20T08:26:43Z</time>
      </trkpt>
      <trkpt lat="43.098426" lon="-1.241068">
        <ele>903.8</ele>
        <time>2018-08-20T08:26:55Z</time>
      </trkpt>
      <trkpt lat="43.098340" lon="-1.241091">
        <ele>904.7</ele>
        <time>2018-08-20T08:27:06Z</time>
      </trkpt>
      <trkpt lat="43.098298" lon="-1.241107">
        <ele>905.2</ele>
        <time>2018-08-20T08:27:11Z</time>
      </trkpt>
      <trkpt lat="43.098155" lon="-1.241203">
        <ele>907.6</ele>
        <time>2018-08-20T08:27:26Z</time>
      </trkpt>
      <trkpt lat="43.098148" lon="-1.241206">
        <ele>907.6</ele>
        <time>2018-08-20T08:27:27Z</time>
      </trkpt>
      <trkpt lat="43.098093" lon="-1.241233">
        <ele>908.1</ele>
        <time>2018-08-20T08:27:35Z</time>
      </trkpt>
      <trkpt lat="43.098063" lon="-1.241245">
        <ele>909.5</ele>
        <time>2018-08-20T08:27:39Z</time>
      </trkpt>
      <trkpt lat="43.097972" lon="-1.241313">
        <ele>910.5</ele>
        <time>2018-08-20T08:27:52Z</time>
      </trkpt>
      <trkpt lat="43.097913" lon="-1.241342">
        <ele>911.5</ele>
        <time>2018-08-20T08:28:01Z</time>
      </trkpt>
      <trkpt lat="43.097827" lon="-1.241369">
        <ele>912.9</ele>
        <time>2018-08-20T08:28:14Z</time>
      </trkpt>
      <trkpt lat="43.097757" lon="-1.241382">
        <ele>913.4</ele>
        <time>2018-08-20T08:28:26Z</time>
      </trkpt>
      <trkpt lat="43.097680" lon="-1.241384">
        <ele>914.3</ele>
        <time>2018-08-20T08:28:37Z</time>
      </trkpt>
      <trkpt lat="43.097581" lon="-1.241400">
        <ele>916.3</ele>
        <time>2018-08-20T08:28:50Z</time>
      </trkpt>
      <trkpt lat="43.097467" lon="-1.241409">
        <ele>917.7</ele>
        <time>2018-08-20T08:29:03Z</time>
      </trkpt>
      <trkpt lat="43.097412" lon="-1.241434">
        <ele>918.7</ele>
        <time>2018-08-20T08:29:10Z</time>
      </trkpt>
      <trkpt lat="43.097283" lon="-1.241524">
        <ele>921.1</ele>
        <time>2018-08-20T08:29:27Z</time>
      </trkpt>
      <trkpt lat="43.097206" lon="-1.241562">
        <ele>921.6</ele>
        <time>2018-08-20T08:29:38Z</time>
      </trkpt>
      <trkpt lat="43.097121" lon="-1.241612">
        <ele>923.5</ele>
        <time>2018-08-20T08:29:49Z</time>
      </trkpt>
      <trkpt lat="43.097013" lon="-1.241651">
        <ele>924.5</ele>
        <time>2018-08-20T08:30:03Z</time>
      </trkpt>
      <trkpt lat="43.096918" lon="-1.241705">
        <ele>925.9</ele>
        <time>2018-08-20T08:30:15Z</time>
      </trkpt>
      <trkpt lat="43.096806" lon="-1.241733">
        <ele>926.8</ele>
        <time>2018-08-20T08:30:27Z</time>
      </trkpt>
      <trkpt lat="43.096715" lon="-1.241786">
        <ele>928.8</ele>
        <time>2018-08-20T08:30:39Z</time>
      </trkpt>
      <trkpt lat="43.096689" lon="-1.241795">
        <ele>928.8</ele>
        <time>2018-08-20T08:30:43Z</time>
      </trkpt>
      <trkpt lat="43.096644" lon="-1.241819">
        <ele>929.7</ele>
        <time>2018-08-20T08:30:52Z</time>
      </trkpt>
      <trkpt lat="43.096572" lon="-1.241863">
        <ele>930.7</ele>
        <time>2018-08-20T08:31:05Z</time>
      </trkpt>
      <trkpt lat="43.096538" lon="-1.241887">
        <ele>930.7</ele>
        <time>2018-08-20T08:31:15Z</time>
      </trkpt>
      <trkpt lat="43.096366" lon="-1.241956">
        <ele>932.6</ele>
        <time>2018-08-20T08:31:30Z</time>
      </trkpt>
      <trkpt lat="43.096316" lon="-1.241976">
        <ele>933.6</ele>
        <time>2018-08-20T08:31:36Z</time>
      </trkpt>
      <trkpt lat="43.096284" lon="-1.241983">
        <ele>934.1</ele>
        <time>2018-08-20T08:31:39Z</time>
      </trkpt>
      <trkpt lat="43.096225" lon="-1.241998">
        <ele>934.5</ele>
        <time>2018-08-20T08:31:46Z</time>
      </trkpt>
      <trkpt lat="43.096197" lon="-1.242004">
        <ele>934.5</ele>
        <time>2018-08-20T08:31:49Z</time>
      </trkpt>
      <trkpt lat="43.096129" lon="-1.242034">
        <ele>936.0</ele>
        <time>2018-08-20T08:32:02Z</time>
      </trkpt>
      <trkpt lat="43.096112" lon="-1.242039">
        <ele>936.5</ele>
        <time>2018-08-20T08:32:05Z</time>
      </trkpt>
      <trkpt lat="43.096005" lon="-1.242097">
        <ele>937.9</ele>
        <time>2018-08-20T08:32:19Z</time>
      </trkpt>
      <trkpt lat="43.095983" lon="-1.242107">
        <ele>938.4</ele>
        <time>2018-08-20T08:32:22Z</time>
      </trkpt>
      <trkpt lat="43.095934" lon="-1.242123">
        <ele>939.3</ele>
        <time>2018-08-20T08:32:29Z</time>
      </trkpt>
      <trkpt lat="43.095840" lon="-1.242161">
        <ele>940.8</ele>
        <time>2018-08-20T08:32:42Z</time>
      </trkpt>
      <trkpt lat="43.095752" lon="-1.242212">
        <ele>942.2</ele>
        <time>2018-08-20T08:32:55Z</time>
      </trkpt>
      <trkpt lat="43.095662" lon="-1.242267">
        <ele>943.7</ele>
        <time>2018-08-20T08:33:06Z</time>
      </trkpt>
      <trkpt lat="43.095608" lon="-1.242308">
        <ele>944.6</ele>
        <time>2018-08-20T08:33:13Z</time>
      </trkpt>
      <trkpt lat="43.095586" lon="-1.242322">
        <ele>945.6</ele>
        <time>2018-08-20T08:33:16Z</time>
      </trkpt>
      <trkpt lat="43.095557" lon="-1.242341">
        <ele>945.6</ele>
        <time>2018-08-20T08:33:19Z</time>
      </trkpt>
      <trkpt lat="43.095490" lon="-1.242370">
        <ele>946.6</ele>
        <time>2018-08-20T08:33:27Z</time>
      </trkpt>
      <trkpt lat="43.095453" lon="-1.242373">
        <ele>947.0</ele>
        <time>2018-08-20T08:33:31Z</time>
      </trkpt>
      <trkpt lat="43.095420" lon="-1.242373">
        <ele>948.0</ele>
        <time>2018-08-20T08:33:35Z</time>
      </trkpt>
      <trkpt lat="43.095373" lon="-1.242377">
        <ele>949.0</ele>
        <time>2018-08-20T08:33:46Z</time>
      </trkpt>
      <trkpt lat="43.095352" lon="-1.242382">
        <ele>949.0</ele>
        <time>2018-08-20T08:33:51Z</time>
      </trkpt>
      <trkpt lat="43.095254" lon="-1.242352">
        <ele>949.9</ele>
        <time>2018-08-20T08:34:03Z</time>
      </trkpt>
      <trkpt lat="43.095193" lon="-1.242369">
        <ele>950.9</ele>
        <time>2018-08-20T08:34:17Z</time>
      </trkpt>
      <trkpt lat="43.095110" lon="-1.242361">
        <ele>951.8</ele>
        <time>2018-08-20T08:34:29Z</time>
      </trkpt>
      <trkpt lat="43.095148" lon="-1.242369">
        <ele>951.8</ele>
        <time>2018-08-20T08:34:32Z</time>
      </trkpt>
      <trkpt lat="43.095119" lon="-1.242364">
        <ele>952.8</ele>
        <time>2018-08-20T08:34:35Z</time>
      </trkpt>
      <trkpt lat="43.094978" lon="-1.242346">
        <ele>953.8</ele>
        <time>2018-08-20T08:34:49Z</time>
      </trkpt>
      <trkpt lat="43.094874" lon="-1.242346">
        <ele>955.2</ele>
        <time>2018-08-20T08:35:02Z</time>
      </trkpt>
      <trkpt lat="43.094835" lon="-1.242334">
        <ele>956.2</ele>
        <time>2018-08-20T08:35:13Z</time>
      </trkpt>
      <trkpt lat="43.094826" lon="-1.242327">
        <ele>956.2</ele>
        <time>2018-08-20T08:35:16Z</time>
      </trkpt>
      <trkpt lat="43.094799" lon="-1.242335">
        <ele>956.2</ele>
        <time>2018-08-20T08:35:19Z</time>
      </trkpt>
      <trkpt lat="43.094773" lon="-1.242337">
        <ele>956.2</ele>
        <time>2018-08-20T08:35:21Z</time>
      </trkpt>
      <trkpt lat="43.094724" lon="-1.242320">
        <ele>957.1</ele>
        <time>2018-08-20T08:35:25Z</time>
      </trkpt>
      <trkpt lat="43.094601" lon="-1.242331">
        <ele>959.0</ele>
        <time>2018-08-20T08:35:38Z</time>
      </trkpt>
      <trkpt lat="43.094582" lon="-1.242327">
        <ele>959.0</ele>
        <time>2018-08-20T08:35:40Z</time>
      </trkpt>
      <trkpt lat="43.094563" lon="-1.242327">
        <ele>959.5</ele>
        <time>2018-08-20T08:35:42Z</time>
      </trkpt>
      <trkpt lat="43.094474" lon="-1.242342">
        <ele>960.5</ele>
        <time>2018-08-20T08:35:51Z</time>
      </trkpt>
      <trkpt lat="43.094390" lon="-1.242343">
        <ele>961.5</ele>
        <time>2018-08-20T08:36:01Z</time>
      </trkpt>
      <trkpt lat="43.094281" lon="-1.242376">
        <ele>962.9</ele>
        <time>2018-08-20T08:36:15Z</time>
      </trkpt>
      <trkpt lat="43.094170" lon="-1.242403">
        <ele>964.8</ele>
        <time>2018-08-20T08:36:26Z</time>
      </trkpt>
      <trkpt lat="43.094084" lon="-1.242424">
        <ele>966.3</ele>
        <time>2018-08-20T08:36:35Z</time>
      </trkpt>
      <trkpt lat="43.094019" lon="-1.242433">
        <ele>966.3</ele>
        <time>2018-08-20T08:36:41Z</time>
      </trkpt>
      <trkpt lat="43.094003" lon="-1.242444">
        <ele>967.2</ele>
        <time>2018-08-20T08:36:43Z</time>
      </trkpt>
      <trkpt lat="43.093898" lon="-1.242482">
        <ele>968.2</ele>
        <time>2018-08-20T08:36:54Z</time>
      </trkpt>
      <trkpt lat="43.093876" lon="-1.242492">
        <ele>968.7</ele>
        <time>2018-08-20T08:36:57Z</time>
      </trkpt>
      <trkpt lat="43.093801" lon="-1.242510">
        <ele>969.6</ele>
        <time>2018-08-20T08:37:04Z</time>
      </trkpt>
      <trkpt lat="43.093744" lon="-1.242543">
        <ele>970.1</ele>
        <time>2018-08-20T08:37:10Z</time>
      </trkpt>
      <trkpt lat="43.093711" lon="-1.242560">
        <ele>970.6</ele>
        <time>2018-08-20T08:37:16Z</time>
      </trkpt>
      <trkpt lat="43.093687" lon="-1.242570">
        <ele>971.1</ele>
        <time>2018-08-20T08:37:19Z</time>
      </trkpt>
      <trkpt lat="43.093603" lon="-1.242592">
        <ele>972.0</ele>
        <time>2018-08-20T08:37:27Z</time>
      </trkpt>
      <trkpt lat="43.093556" lon="-1.242604">
        <ele>972.5</ele>
        <time>2018-08-20T08:37:32Z</time>
      </trkpt>
      <trkpt lat="43.093461" lon="-1.242655">
        <ele>973.0</ele>
        <time>2018-08-20T08:37:42Z</time>
      </trkpt>
      <trkpt lat="43.093446" lon="-1.242673">
        <ele>973.5</ele>
        <time>2018-08-20T08:37:45Z</time>
      </trkpt>
      <trkpt lat="43.093313" lon="-1.242716">
        <ele>975.9</ele>
        <time>2018-08-20T08:38:00Z</time>
      </trkpt>
      <trkpt lat="43.093229" lon="-1.242802">
        <ele>975.4</ele>
        <time>2018-08-20T08:38:13Z</time>
      </trkpt>
      <trkpt lat="43.093088" lon="-1.242885">
        <ele>976.8</ele>
        <time>2018-08-20T08:38:28Z</time>
      </trkpt>
      <trkpt lat="43.092957" lon="-1.242941">
        <ele>977.3</ele>
        <time>2018-08-20T08:38:41Z</time>
      </trkpt>
      <trkpt lat="43.092830" lon="-1.243034">
        <ele>979.2</ele>
        <time>2018-08-20T08:38:56Z</time>
      </trkpt>
      <trkpt lat="43.092813" lon="-1.243046">
        <ele>979.2</ele>
        <time>2018-08-20T08:38:58Z</time>
      </trkpt>
      <trkpt lat="43.092798" lon="-1.243061">
        <ele>979.2</ele>
        <time>2018-08-20T08:39:00Z</time>
      </trkpt>
      <trkpt lat="43.092713" lon="-1.243119">
        <ele>980.2</ele>
        <time>2018-08-20T08:39:09Z</time>
      </trkpt>
      <trkpt lat="43.092683" lon="-1.243152">
        <ele>980.2</ele>
        <time>2018-08-20T08:39:13Z</time>
      </trkpt>
      <trkpt lat="43.092575" lon="-1.243193">
        <ele>981.2</ele>
        <time>2018-08-20T08:39:28Z</time>
      </trkpt>
      <trkpt lat="43.092556" lon="-1.243203">
        <ele>981.6</ele>
        <time>2018-08-20T08:39:32Z</time>
      </trkpt>
      <trkpt lat="43.092537" lon="-1.243223">
        <ele>981.6</ele>
        <time>2018-08-20T08:39:34Z</time>
      </trkpt>
      <trkpt lat="43.092499" lon="-1.243244">
        <ele>982.1</ele>
        <time>2018-08-20T08:39:38Z</time>
      </trkpt>
      <trkpt lat="43.092443" lon="-1.243293">
        <ele>982.1</ele>
        <time>2018-08-20T08:39:44Z</time>
      </trkpt>
      <trkpt lat="43.092331" lon="-1.243408">
        <ele>983.6</ele>
        <time>2018-08-20T08:39:57Z</time>
      </trkpt>
      <trkpt lat="43.092233" lon="-1.243526">
        <ele>985.0</ele>
        <time>2018-08-20T08:40:11Z</time>
      </trkpt>
      <trkpt lat="43.092132" lon="-1.243605">
        <ele>986.0</ele>
        <time>2018-08-20T08:40:25Z</time>
      </trkpt>
      <trkpt lat="43.092055" lon="-1.243659">
        <ele>986.9</ele>
        <time>2018-08-20T08:40:37Z</time>
      </trkpt>
      <trkpt lat="43.092026" lon="-1.243671">
        <ele>986.9</ele>
        <time>2018-08-20T08:40:49Z</time>
      </trkpt>
      <trkpt lat="43.091937" lon="-1.243742">
        <ele>987.9</ele>
        <time>2018-08-20T08:41:04Z</time>
      </trkpt>
      <trkpt lat="43.091927" lon="-1.243749">
        <ele>988.4</ele>
        <time>2018-08-20T08:41:09Z</time>
      </trkpt>
      <trkpt lat="43.091819" lon="-1.243782">
        <ele>988.4</ele>
        <time>2018-08-20T08:41:18Z</time>
      </trkpt>
      <trkpt lat="43.091632" lon="-1.243879">
        <ele>989.8</ele>
        <time>2018-08-20T08:41:32Z</time>
      </trkpt>
      <trkpt lat="43.091585" lon="-1.243901">
        <ele>990.8</ele>
        <time>2018-08-20T08:41:36Z</time>
      </trkpt>
      <trkpt lat="43.091468" lon="-1.243963">
        <ele>991.7</ele>
        <time>2018-08-20T08:41:50Z</time>
      </trkpt>
      <trkpt lat="43.091341" lon="-1.244005">
        <ele>992.7</ele>
        <time>2018-08-20T08:42:01Z</time>
      </trkpt>
      <trkpt lat="43.091310" lon="-1.244016">
        <ele>993.2</ele>
        <time>2018-08-20T08:42:04Z</time>
      </trkpt>
      <trkpt lat="43.091232" lon="-1.244034">
        <ele>994.1</ele>
        <time>2018-08-20T08:42:11Z</time>
      </trkpt>
      <trkpt lat="43.091211" lon="-1.244045">
        <ele>994.1</ele>
        <time>2018-08-20T08:42:13Z</time>
      </trkpt>
      <trkpt lat="43.091188" lon="-1.244046">
        <ele>994.1</ele>
        <time>2018-08-20T08:42:15Z</time>
      </trkpt>
      <trkpt lat="43.091137" lon="-1.244053">
        <ele>994.6</ele>
        <time>2018-08-20T08:42:20Z</time>
      </trkpt>
      <trkpt lat="43.090974" lon="-1.244123">
        <ele>995.6</ele>
        <time>2018-08-20T08:42:33Z</time>
      </trkpt>
      <trkpt lat="43.090856" lon="-1.244145">
        <ele>997.0</ele>
        <time>2018-08-20T08:42:46Z</time>
      </trkpt>
      <trkpt lat="43.090796" lon="-1.244156">
        <ele>997.0</ele>
        <time>2018-08-20T08:42:51Z</time>
      </trkpt>
      <trkpt lat="43.090780" lon="-1.244157">
        <ele>997.5</ele>
        <time>2018-08-20T08:42:53Z</time>
      </trkpt>
      <trkpt lat="43.090600" lon="-1.244144">
        <ele>999.0</ele>
        <time>2018-08-20T08:43:06Z</time>
      </trkpt>
      <trkpt lat="43.090558" lon="-1.244156">
        <ele>999.0</ele>
        <time>2018-08-20T08:43:09Z</time>
      </trkpt>
      <trkpt lat="43.090499" lon="-1.244185">
        <ele>999.4</ele>
        <time>2018-08-20T08:43:14Z</time>
      </trkpt>
      <trkpt lat="43.090475" lon="-1.244186">
        <ele>999.9</ele>
        <time>2018-08-20T08:43:16Z</time>
      </trkpt>
      <trkpt lat="43.090406" lon="-1.244200">
        <ele>999.9</ele>
        <time>2018-08-20T08:43:22Z</time>
      </trkpt>
      <trkpt lat="43.090242" lon="-1.244220">
        <ele>1000.9</ele>
        <time>2018-08-20T08:43:38Z</time>
      </trkpt>
      <trkpt lat="43.090224" lon="-1.244227">
        <ele>1001.3</ele>
        <time>2018-08-20T08:43:40Z</time>
      </trkpt>
      <trkpt lat="43.090182" lon="-1.244225">
        <ele>1001.3</ele>
        <time>2018-08-20T08:43:44Z</time>
      </trkpt>
      <trkpt lat="43.090096" lon="-1.244229">
        <ele>1001.8</ele>
        <time>2018-08-20T08:43:52Z</time>
      </trkpt>
      <trkpt lat="43.089916" lon="-1.244237">
        <ele>1002.8</ele>
        <time>2018-08-20T08:44:07Z</time>
      </trkpt>
      <trkpt lat="43.089710" lon="-1.244283">
        <ele>1003.8</ele>
        <time>2018-08-20T08:44:24Z</time>
      </trkpt>
      <trkpt lat="43.089699" lon="-1.244291">
        <ele>1003.8</ele>
        <time>2018-08-20T08:44:25Z</time>
      </trkpt>
      <trkpt lat="43.089585" lon="-1.244388">
        <ele>1004.2</ele>
        <time>2018-08-20T08:44:39Z</time>
      </trkpt>
      <trkpt lat="43.089503" lon="-1.244437">
        <ele>1004.7</ele>
        <time>2018-08-20T08:44:51Z</time>
      </trkpt>
      <trkpt lat="43.089423" lon="-1.244465">
        <ele>1005.2</ele>
        <time>2018-08-20T08:44:59Z</time>
      </trkpt>
      <trkpt lat="43.089359" lon="-1.244520">
        <ele>1005.7</ele>
        <time>2018-08-20T08:45:07Z</time>
      </trkpt>
      <trkpt lat="43.089350" lon="-1.244538">
        <ele>1006.2</ele>
        <time>2018-08-20T08:45:09Z</time>
      </trkpt>
      <trkpt lat="43.089318" lon="-1.244568">
        <ele>1003.8</ele>
        <time>2018-08-20T08:45:13Z</time>
      </trkpt>
      <trkpt lat="43.089304" lon="-1.244577">
        <ele>1006.6</ele>
        <time>2018-08-20T08:45:15Z</time>
      </trkpt>
      <trkpt lat="43.089284" lon="-1.244591">
        <ele>1009.0</ele>
        <time>2018-08-20T08:45:17Z</time>
      </trkpt>
      <trkpt lat="43.089275" lon="-1.244597">
        <ele>1006.2</ele>
        <time>2018-08-20T08:45:20Z</time>
      </trkpt>
      <trkpt lat="43.089187" lon="-1.244652">
        <ele>1007.1</ele>
        <time>2018-08-20T08:45:30Z</time>
      </trkpt>
      <trkpt lat="43.089167" lon="-1.244660">
        <ele>1007.1</ele>
        <time>2018-08-20T08:45:32Z</time>
      </trkpt>
      <trkpt lat="43.089153" lon="-1.244684">
        <ele>1007.1</ele>
        <time>2018-08-20T08:45:34Z</time>
      </trkpt>
      <trkpt lat="43.089121" lon="-1.244722">
        <ele>1007.6</ele>
        <time>2018-08-20T08:45:38Z</time>
      </trkpt>
      <trkpt lat="43.088984" lon="-1.244873">
        <ele>1009.0</ele>
        <time>2018-08-20T08:45:52Z</time>
      </trkpt>
      <trkpt lat="43.088978" lon="-1.244880">
        <ele>1009.0</ele>
        <time>2018-08-20T08:45:53Z</time>
      </trkpt>
      <trkpt lat="43.088859" lon="-1.245015">
        <ele>1010.5</ele>
        <time>2018-08-20T08:46:06Z</time>
      </trkpt>
      <trkpt lat="43.088840" lon="-1.245034">
        <ele>1010.5</ele>
        <time>2018-08-20T08:46:08Z</time>
      </trkpt>
      <trkpt lat="43.088683" lon="-1.245181">
        <ele>1011.9</ele>
        <time>2018-08-20T08:46:23Z</time>
      </trkpt>
      <trkpt lat="43.088648" lon="-1.245219">
        <ele>1012.4</ele>
        <time>2018-08-20T08:46:27Z</time>
      </trkpt>
      <trkpt lat="43.088621" lon="-1.245257">
        <ele>1012.4</ele>
        <time>2018-08-20T08:46:30Z</time>
      </trkpt>
      <trkpt lat="43.088517" lon="-1.245364">
        <ele>1013.8</ele>
        <time>2018-08-20T08:46:41Z</time>
      </trkpt>
      <trkpt lat="43.088458" lon="-1.245506">
        <ele>1013.8</ele>
        <time>2018-08-20T08:46:51Z</time>
      </trkpt>
      <trkpt lat="43.088504" lon="-1.245630">
        <ele>1014.8</ele>
        <time>2018-08-20T08:46:59Z</time>
      </trkpt>
      <trkpt lat="43.088652" lon="-1.245687">
        <ele>1016.7</ele>
        <time>2018-08-20T08:47:11Z</time>
      </trkpt>
      <trkpt lat="43.088710" lon="-1.245706">
        <ele>1017.7</ele>
        <time>2018-08-20T08:47:16Z</time>
      </trkpt>
      <trkpt lat="43.088789" lon="-1.245756">
        <ele>1018.2</ele>
        <time>2018-08-20T08:47:23Z</time>
      </trkpt>
      <trkpt lat="43.088818" lon="-1.245766">
        <ele>1018.2</ele>
        <time>2018-08-20T08:47:26Z</time>
      </trkpt>
      <trkpt lat="43.088884" lon="-1.245819">
        <ele>1020.1</ele>
        <time>2018-08-20T08:47:33Z</time>
      </trkpt>
      <trkpt lat="43.088943" lon="-1.245881">
        <ele>1020.1</ele>
        <time>2018-08-20T08:47:41Z</time>
      </trkpt>
      <trkpt lat="43.089035" lon="-1.246027">
        <ele>1021.5</ele>
        <time>2018-08-20T08:47:54Z</time>
      </trkpt>
      <trkpt lat="43.089043" lon="-1.246041">
        <ele>1021.5</ele>
        <time>2018-08-20T08:47:55Z</time>
      </trkpt>
      <trkpt lat="43.089053" lon="-1.246065">
        <ele>1022.0</ele>
        <time>2018-08-20T08:47:57Z</time>
      </trkpt>
      <trkpt lat="43.089103" lon="-1.246159">
        <ele>1023.5</ele>
        <time>2018-08-20T08:48:05Z</time>
      </trkpt>
      <trkpt lat="43.089130" lon="-1.246208">
        <ele>1023.9</ele>
        <time>2018-08-20T08:48:09Z</time>
      </trkpt>
      <trkpt lat="43.089189" lon="-1.246277">
        <ele>1024.9</ele>
        <time>2018-08-20T08:48:16Z</time>
      </trkpt>
      <trkpt lat="43.089318" lon="-1.246371">
        <ele>1026.8</ele>
        <time>2018-08-20T08:48:29Z</time>
      </trkpt>
      <trkpt lat="43.089439" lon="-1.246442">
        <ele>1028.3</ele>
        <time>2018-08-20T08:48:40Z</time>
      </trkpt>
      <trkpt lat="43.089468" lon="-1.246477">
        <ele>1028.8</ele>
        <time>2018-08-20T08:48:44Z</time>
      </trkpt>
      <trkpt lat="43.089512" lon="-1.246591">
        <ele>1030.2</ele>
        <time>2018-08-20T08:48:54Z</time>
      </trkpt>
      <trkpt lat="43.089556" lon="-1.246645">
        <ele>1031.2</ele>
        <time>2018-08-20T08:48:59Z</time>
      </trkpt>
      <trkpt lat="43.089555" lon="-1.246670">
        <ele>1031.6</ele>
        <time>2018-08-20T08:49:01Z</time>
      </trkpt>
      <trkpt lat="43.089514" lon="-1.246907">
        <ele>1033.1</ele>
        <time>2018-08-20T08:49:50Z</time>
      </trkpt>
      <trkpt lat="43.089500" lon="-1.246954">
        <ele>1034.5</ele>
        <time>2018-08-20T08:50:46Z</time>
      </trkpt>
      <trkpt lat="43.089326" lon="-1.247032">
        <ele>1035.5</ele>
        <time>2018-08-20T08:51:28Z</time>
      </trkpt>
      <trkpt lat="43.089205" lon="-1.247152">
        <ele>1036.0</ele>
        <time>2018-08-20T08:51:42Z</time>
      </trkpt>
      <trkpt lat="43.089157" lon="-1.247226">
        <ele>1036.4</ele>
        <time>2018-08-20T08:51:56Z</time>
      </trkpt>
      <trkpt lat="43.089130" lon="-1.247249">
        <ele>1036.4</ele>
        <time>2018-08-20T08:52:12Z</time>
      </trkpt>
      <trkpt lat="43.089124" lon="-1.247247">
        <ele>1036.4</ele>
        <time>2018-08-20T08:52:14Z</time>
      </trkpt>
      <trkpt lat="43.089119" lon="-1.247265">
        <ele>1036.0</ele>
        <time>2018-08-20T08:52:18Z</time>
      </trkpt>
      <trkpt lat="43.089098" lon="-1.247293">
        <ele>1039.3</ele>
        <time>2018-08-20T08:52:20Z</time>
      </trkpt>
      <trkpt lat="43.089086" lon="-1.247305">
        <ele>1039.8</ele>
        <time>2018-08-20T08:52:21Z</time>
      </trkpt>
      <trkpt lat="43.089051" lon="-1.247341">
        <ele>1036.4</ele>
        <time>2018-08-20T08:52:24Z</time>
      </trkpt>
      <trkpt lat="43.089046" lon="-1.247352">
        <ele>1036.9</ele>
        <time>2018-08-20T08:52:25Z</time>
      </trkpt>
      <trkpt lat="43.089045" lon="-1.247363">
        <ele>1036.4</ele>
        <time>2018-08-20T08:52:26Z</time>
      </trkpt>
      <trkpt lat="43.089028" lon="-1.247391">
        <ele>1036.9</ele>
        <time>2018-08-20T08:52:28Z</time>
      </trkpt>
      <trkpt lat="43.088964" lon="-1.247462">
        <ele>1038.4</ele>
        <time>2018-08-20T08:52:40Z</time>
      </trkpt>
      <trkpt lat="43.088933" lon="-1.247503">
        <ele>1038.4</ele>
        <time>2018-08-20T08:52:46Z</time>
      </trkpt>
      <trkpt lat="43.088845" lon="-1.247613">
        <ele>1038.8</ele>
        <time>2018-08-20T08:52:57Z</time>
      </trkpt>
      <trkpt lat="43.088774" lon="-1.247724">
        <ele>1039.3</ele>
        <time>2018-08-20T08:53:09Z</time>
      </trkpt>
      <trkpt lat="43.088693" lon="-1.247829">
        <ele>1040.3</ele>
        <time>2018-08-20T08:53:20Z</time>
      </trkpt>
      <trkpt lat="43.088617" lon="-1.247922">
        <ele>1041.7</ele>
        <time>2018-08-20T08:53:29Z</time>
      </trkpt>
      <trkpt lat="43.088610" lon="-1.247942">
        <ele>1041.7</ele>
        <time>2018-08-20T08:53:31Z</time>
      </trkpt>
      <trkpt lat="43.088595" lon="-1.247957">
        <ele>1041.7</ele>
        <time>2018-08-20T08:53:33Z</time>
      </trkpt>
      <trkpt lat="43.088495" lon="-1.248113">
        <ele>1043.2</ele>
        <time>2018-08-20T08:53:46Z</time>
      </trkpt>
      <trkpt lat="43.088468" lon="-1.248145">
        <ele>1043.2</ele>
        <time>2018-08-20T08:53:49Z</time>
      </trkpt>
      <trkpt lat="43.088353" lon="-1.248289">
        <ele>1045.1</ele>
        <time>2018-08-20T08:54:02Z</time>
      </trkpt>
      <trkpt lat="43.088172" lon="-1.248534">
        <ele>1047.0</ele>
        <time>2018-08-20T08:54:22Z</time>
      </trkpt>
      <trkpt lat="43.088128" lon="-1.248614">
        <ele>1046.5</ele>
        <time>2018-08-20T08:54:28Z</time>
      </trkpt>
      <trkpt lat="43.088021" lon="-1.248812">
        <ele>1048.0</ele>
        <time>2018-08-20T08:54:43Z</time>
      </trkpt>
      <trkpt lat="43.088008" lon="-1.248843">
        <ele>1048.9</ele>
        <time>2018-08-20T08:54:45Z</time>
      </trkpt>
      <trkpt lat="43.087928" lon="-1.249039">
        <ele>1050.4</ele>
        <time>2018-08-20T08:54:59Z</time>
      </trkpt>
      <trkpt lat="43.087908" lon="-1.249077">
        <ele>1050.9</ele>
        <time>2018-08-20T08:55:02Z</time>
      </trkpt>
      <trkpt lat="43.087847" lon="-1.249216">
        <ele>1051.8</ele>
        <time>2018-08-20T08:55:12Z</time>
      </trkpt>
      <trkpt lat="43.087810" lon="-1.249305">
        <ele>1052.8</ele>
        <time>2018-08-20T08:55:18Z</time>
      </trkpt>
      <trkpt lat="43.087794" lon="-1.249377">
        <ele>1053.7</ele>
        <time>2018-08-20T08:55:23Z</time>
      </trkpt>
      <trkpt lat="43.087699" lon="-1.249592">
        <ele>1055.2</ele>
        <time>2018-08-20T08:55:38Z</time>
      </trkpt>
      <trkpt lat="43.087611" lon="-1.249783">
        <ele>1056.6</ele>
        <time>2018-08-20T08:55:52Z</time>
      </trkpt>
      <trkpt lat="43.087527" lon="-1.249900">
        <ele>1058.1</ele>
        <time>2018-08-20T08:56:03Z</time>
      </trkpt>
      <trkpt lat="43.087494" lon="-1.249916">
        <ele>1057.6</ele>
        <time>2018-08-20T08:56:06Z</time>
      </trkpt>
      <trkpt lat="43.087442" lon="-1.249971">
        <ele>1058.1</ele>
        <time>2018-08-20T08:56:11Z</time>
      </trkpt>
      <trkpt lat="43.087416" lon="-1.249978">
        <ele>1058.6</ele>
        <time>2018-08-20T08:56:13Z</time>
      </trkpt>
      <trkpt lat="43.087362" lon="-1.250011">
        <ele>1059.5</ele>
        <time>2018-08-20T08:56:18Z</time>
      </trkpt>
      <trkpt lat="43.087306" lon="-1.250030">
        <ele>1059.5</ele>
        <time>2018-08-20T08:56:23Z</time>
      </trkpt>
      <trkpt lat="43.087269" lon="-1.250030">
        <ele>1060.0</ele>
        <time>2018-08-20T08:56:27Z</time>
      </trkpt>
      <trkpt lat="43.087081" lon="-1.250074">
        <ele>1060.9</ele>
        <time>2018-08-20T08:56:42Z</time>
      </trkpt>
      <trkpt lat="43.086906" lon="-1.250090">
        <ele>1062.9</ele>
        <time>2018-08-20T08:56:56Z</time>
      </trkpt>
      <trkpt lat="43.086805" lon="-1.250109">
        <ele>1063.8</ele>
        <time>2018-08-20T08:57:05Z</time>
      </trkpt>
      <trkpt lat="43.086753" lon="-1.250128">
        <ele>1065.3</ele>
        <time>2018-08-20T08:57:10Z</time>
      </trkpt>
      <trkpt lat="43.086713" lon="-1.250165">
        <ele>1065.8</ele>
        <time>2018-08-20T08:57:14Z</time>
      </trkpt>
      <trkpt lat="43.086656" lon="-1.250201">
        <ele>1066.2</ele>
        <time>2018-08-20T08:57:19Z</time>
      </trkpt>
      <trkpt lat="43.086597" lon="-1.250264">
        <ele>1067.2</ele>
        <time>2018-08-20T08:57:26Z</time>
      </trkpt>
      <trkpt lat="43.086467" lon="-1.250395">
        <ele>1069.1</ele>
        <time>2018-08-20T08:57:41Z</time>
      </trkpt>
      <trkpt lat="43.086433" lon="-1.250434">
        <ele>1069.6</ele>
        <time>2018-08-20T08:57:51Z</time>
      </trkpt>
      <trkpt lat="43.086424" lon="-1.250454">
        <ele>1070.1</ele>
        <time>2018-08-20T08:57:54Z</time>
      </trkpt>
      <trkpt lat="43.086404" lon="-1.250487">
        <ele>1070.6</ele>
        <time>2018-08-20T08:57:58Z</time>
      </trkpt>
      <trkpt lat="43.086305" lon="-1.250644">
        <ele>1072.5</ele>
        <time>2018-08-20T08:58:11Z</time>
      </trkpt>
      <trkpt lat="43.086299" lon="-1.250659">
        <ele>1072.5</ele>
        <time>2018-08-20T08:58:12Z</time>
      </trkpt>
      <trkpt lat="43.086288" lon="-1.250684">
        <ele>1072.5</ele>
        <time>2018-08-20T08:58:14Z</time>
      </trkpt>
      <trkpt lat="43.086199" lon="-1.250876">
        <ele>1073.9</ele>
        <time>2018-08-20T08:58:28Z</time>
      </trkpt>
      <trkpt lat="43.086191" lon="-1.250888">
        <ele>1074.4</ele>
        <time>2018-08-20T08:58:29Z</time>
      </trkpt>
      <trkpt lat="43.086091" lon="-1.251099">
        <ele>1075.4</ele>
        <time>2018-08-20T08:58:43Z</time>
      </trkpt>
      <trkpt lat="43.086024" lon="-1.251227">
        <ele>1077.3</ele>
        <time>2018-08-20T08:58:52Z</time>
      </trkpt>
      <trkpt lat="43.085981" lon="-1.251333">
        <ele>1078.3</ele>
        <time>2018-08-20T08:59:04Z</time>
      </trkpt>
      <trkpt lat="43.085927" lon="-1.251473">
        <ele>1078.7</ele>
        <time>2018-08-20T08:59:15Z</time>
      </trkpt>
      <trkpt lat="43.085914" lon="-1.251514">
        <ele>1079.7</ele>
        <time>2018-08-20T08:59:18Z</time>
      </trkpt>
      <trkpt lat="43.085866" lon="-1.251589">
        <ele>1080.2</ele>
        <time>2018-08-20T08:59:27Z</time>
      </trkpt>
      <trkpt lat="43.085818" lon="-1.251651">
        <ele>1081.6</ele>
        <time>2018-08-20T08:59:33Z</time>
      </trkpt>
      <trkpt lat="43.085762" lon="-1.251720">
        <ele>1082.1</ele>
        <time>2018-08-20T08:59:41Z</time>
      </trkpt>
      <trkpt lat="43.085706" lon="-1.251744">
        <ele>1082.6</ele>
        <time>2018-08-20T08:59:46Z</time>
      </trkpt>
      <trkpt lat="43.085641" lon="-1.251776">
        <ele>1083.1</ele>
        <time>2018-08-20T08:59:51Z</time>
      </trkpt>
      <trkpt lat="43.085458" lon="-1.251881">
        <ele>1084.5</ele>
        <time>2018-08-20T09:00:06Z</time>
      </trkpt>
      <trkpt lat="43.085281" lon="-1.251989">
        <ele>1085.9</ele>
        <time>2018-08-20T09:00:21Z</time>
      </trkpt>
      <trkpt lat="43.085203" lon="-1.252020">
        <ele>1086.9</ele>
        <time>2018-08-20T09:00:27Z</time>
      </trkpt>
      <trkpt lat="43.085076" lon="-1.252069">
        <ele>1087.4</ele>
        <time>2018-08-20T09:00:37Z</time>
      </trkpt>
      <trkpt lat="43.084971" lon="-1.252105">
        <ele>1087.9</ele>
        <time>2018-08-20T09:00:45Z</time>
      </trkpt>
      <trkpt lat="43.084924" lon="-1.252111">
        <ele>1088.3</ele>
        <time>2018-08-20T09:00:49Z</time>
      </trkpt>
      <trkpt lat="43.084717" lon="-1.252141">
        <ele>1088.8</ele>
        <time>2018-08-20T09:01:04Z</time>
      </trkpt>
      <trkpt lat="43.084611" lon="-1.252190">
        <ele>1087.4</ele>
        <time>2018-08-20T09:01:14Z</time>
      </trkpt>
      <trkpt lat="43.084395" lon="-1.252196">
        <ele>1088.3</ele>
        <time>2018-08-20T09:01:32Z</time>
      </trkpt>
      <trkpt lat="43.084277" lon="-1.252202">
        <ele>1087.9</ele>
        <time>2018-08-20T09:01:41Z</time>
      </trkpt>
      <trkpt lat="43.084051" lon="-1.252152">
        <ele>1088.3</ele>
        <time>2018-08-20T09:01:58Z</time>
      </trkpt>
      <trkpt lat="43.083827" lon="-1.252079">
        <ele>1088.3</ele>
        <time>2018-08-20T09:02:16Z</time>
      </trkpt>
      <trkpt lat="43.083653" lon="-1.251999">
        <ele>1088.8</ele>
        <time>2018-08-20T09:02:33Z</time>
      </trkpt>
      <trkpt lat="43.083528" lon="-1.251967">
        <ele>1088.8</ele>
        <time>2018-08-20T09:02:44Z</time>
      </trkpt>
      <trkpt lat="43.083361" lon="-1.251910">
        <ele>1089.8</ele>
        <time>2018-08-20T09:02:58Z</time>
      </trkpt>
      <trkpt lat="43.083190" lon="-1.251889">
        <ele>1090.3</ele>
        <time>2018-08-20T09:03:12Z</time>
      </trkpt>
      <trkpt lat="43.083112" lon="-1.251901">
        <ele>1090.3</ele>
        <time>2018-08-20T09:03:18Z</time>
      </trkpt>
      <trkpt lat="43.083069" lon="-1.251889">
        <ele>1090.3</ele>
        <time>2018-08-20T09:03:22Z</time>
      </trkpt>
      <trkpt lat="43.082950" lon="-1.251893">
        <ele>1090.8</ele>
        <time>2018-08-20T09:03:32Z</time>
      </trkpt>
      <trkpt lat="43.082919" lon="-1.251901">
        <ele>1090.8</ele>
        <time>2018-08-20T09:03:35Z</time>
      </trkpt>
      <trkpt lat="43.082875" lon="-1.251897">
        <ele>1090.8</ele>
        <time>2018-08-20T09:03:39Z</time>
      </trkpt>
      <trkpt lat="43.082819" lon="-1.251894">
        <ele>1091.2</ele>
        <time>2018-08-20T09:03:44Z</time>
      </trkpt>
      <trkpt lat="43.082739" lon="-1.251912">
        <ele>1090.8</ele>
        <time>2018-08-20T09:03:51Z</time>
      </trkpt>
      <trkpt lat="43.082691" lon="-1.251935">
        <ele>1091.2</ele>
        <time>2018-08-20T09:03:55Z</time>
      </trkpt>
      <trkpt lat="43.082667" lon="-1.251941">
        <ele>1091.2</ele>
        <time>2018-08-20T09:03:57Z</time>
      </trkpt>
      <trkpt lat="43.082565" lon="-1.251957">
        <ele>1091.2</ele>
        <time>2018-08-20T09:04:06Z</time>
      </trkpt>
      <trkpt lat="43.082543" lon="-1.251964">
        <ele>1091.7</ele>
        <time>2018-08-20T09:04:08Z</time>
      </trkpt>
      <trkpt lat="43.082476" lon="-1.251968">
        <ele>1091.7</ele>
        <time>2018-08-20T09:04:14Z</time>
      </trkpt>
      <trkpt lat="43.082299" lon="-1.251978">
        <ele>1091.7</ele>
        <time>2018-08-20T09:04:30Z</time>
      </trkpt>
      <trkpt lat="43.082120" lon="-1.251972">
        <ele>1091.7</ele>
        <time>2018-08-20T09:04:46Z</time>
      </trkpt>
      <trkpt lat="43.081946" lon="-1.251967">
        <ele>1091.7</ele>
        <time>2018-08-20T09:05:01Z</time>
      </trkpt>
      <trkpt lat="43.081748" lon="-1.251980">
        <ele>1091.2</ele>
        <time>2018-08-20T09:05:18Z</time>
      </trkpt>
      <trkpt lat="43.081588" lon="-1.251994">
        <ele>1091.7</ele>
        <time>2018-08-20T09:05:31Z</time>
      </trkpt>
      <trkpt lat="43.081485" lon="-1.252020">
        <ele>1091.2</ele>
        <time>2018-08-20T09:05:41Z</time>
      </trkpt>
      <trkpt lat="43.081364" lon="-1.252057">
        <ele>1093.2</ele>
        <time>2018-08-20T09:05:53Z</time>
      </trkpt>
      <trkpt lat="43.081289" lon="-1.252133">
        <ele>1093.6</ele>
        <time>2018-08-20T09:06:03Z</time>
      </trkpt>
      <trkpt lat="43.081250" lon="-1.252210">
        <ele>1094.6</ele>
        <time>2018-08-20T09:06:11Z</time>
      </trkpt>
      <trkpt lat="43.081251" lon="-1.252246">
        <ele>1094.1</ele>
        <time>2018-08-20T09:06:24Z</time>
      </trkpt>
      <trkpt lat="43.081238" lon="-1.252309">
        <ele>1094.6</ele>
        <time>2018-08-20T09:06:34Z</time>
      </trkpt>
      <trkpt lat="43.081211" lon="-1.252375">
        <ele>1095.1</ele>
        <time>2018-08-20T09:06:40Z</time>
      </trkpt>
      <trkpt lat="43.081207" lon="-1.252405">
        <ele>1095.6</ele>
        <time>2018-08-20T09:06:42Z</time>
      </trkpt>
      <trkpt lat="43.081192" lon="-1.252586">
        <ele>1096.0</ele>
        <time>2018-08-20T09:06:55Z</time>
      </trkpt>
      <trkpt lat="43.081142" lon="-1.252733">
        <ele>1097.5</ele>
        <time>2018-08-20T09:07:08Z</time>
      </trkpt>
      <trkpt lat="43.081118" lon="-1.252866">
        <ele>1098.4</ele>
        <time>2018-08-20T09:07:15Z</time>
      </trkpt>
      <trkpt lat="43.081101" lon="-1.252946">
        <ele>1098.9</ele>
        <time>2018-08-20T09:07:20Z</time>
      </trkpt>
      <trkpt lat="43.081077" lon="-1.253044">
        <ele>1099.4</ele>
        <time>2018-08-20T09:07:26Z</time>
      </trkpt>
      <trkpt lat="43.081076" lon="-1.253121">
        <ele>1099.9</ele>
        <time>2018-08-20T09:07:30Z</time>
      </trkpt>
      <trkpt lat="43.081024" lon="-1.253311">
        <ele>1101.3</ele>
        <time>2018-08-20T09:07:44Z</time>
      </trkpt>
      <trkpt lat="43.080930" lon="-1.253512">
        <ele>1103.2</ele>
        <time>2018-08-20T09:07:59Z</time>
      </trkpt>
      <trkpt lat="43.080922" lon="-1.253532">
        <ele>1102.8</ele>
        <time>2018-08-20T09:08:01Z</time>
      </trkpt>
      <trkpt lat="43.080902" lon="-1.253599">
        <ele>1103.2</ele>
        <time>2018-08-20T09:08:06Z</time>
      </trkpt>
      <trkpt lat="43.080877" lon="-1.253687">
        <ele>1104.7</ele>
        <time>2018-08-20T09:08:12Z</time>
      </trkpt>
      <trkpt lat="43.080836" lon="-1.253838">
        <ele>1105.2</ele>
        <time>2018-08-20T09:08:21Z</time>
      </trkpt>
      <trkpt lat="43.080821" lon="-1.253859">
        <ele>1105.7</ele>
        <time>2018-08-20T09:08:23Z</time>
      </trkpt>
      <trkpt lat="43.080784" lon="-1.253966">
        <ele>1106.1</ele>
        <time>2018-08-20T09:08:30Z</time>
      </trkpt>
      <trkpt lat="43.080714" lon="-1.254178">
        <ele>1108.1</ele>
        <time>2018-08-20T09:08:44Z</time>
      </trkpt>
      <trkpt lat="43.080660" lon="-1.254317">
        <ele>1108.1</ele>
        <time>2018-08-20T09:08:53Z</time>
      </trkpt>
      <trkpt lat="43.080646" lon="-1.254386">
        <ele>1109.0</ele>
        <time>2018-08-20T09:08:58Z</time>
      </trkpt>
      <trkpt lat="43.080604" lon="-1.254488">
        <ele>1109.0</ele>
        <time>2018-08-20T09:09:05Z</time>
      </trkpt>
      <trkpt lat="43.080569" lon="-1.254577">
        <ele>1110.0</ele>
        <time>2018-08-20T09:09:11Z</time>
      </trkpt>
      <trkpt lat="43.080552" lon="-1.254641">
        <ele>1110.0</ele>
        <time>2018-08-20T09:09:16Z</time>
      </trkpt>
      <trkpt lat="43.080548" lon="-1.254671">
        <ele>1110.5</ele>
        <time>2018-08-20T09:09:18Z</time>
      </trkpt>
      <trkpt lat="43.080537" lon="-1.254701">
        <ele>1110.5</ele>
        <time>2018-08-20T09:09:20Z</time>
      </trkpt>
      <trkpt lat="43.080500" lon="-1.254845">
        <ele>1111.9</ele>
        <time>2018-08-20T09:09:30Z</time>
      </trkpt>
      <trkpt lat="43.080461" lon="-1.254943">
        <ele>1112.4</ele>
        <time>2018-08-20T09:09:36Z</time>
      </trkpt>
      <trkpt lat="43.080431" lon="-1.255018">
        <ele>1112.9</ele>
        <time>2018-08-20T09:09:41Z</time>
      </trkpt>
      <trkpt lat="43.080378" lon="-1.255138">
        <ele>1114.3</ele>
        <time>2018-08-20T09:09:50Z</time>
      </trkpt>
      <trkpt lat="43.080352" lon="-1.255163">
        <ele>1115.3</ele>
        <time>2018-08-20T09:09:53Z</time>
      </trkpt>
      <trkpt lat="43.080341" lon="-1.255192">
        <ele>1115.8</ele>
        <time>2018-08-20T09:09:55Z</time>
      </trkpt>
      <trkpt lat="43.080308" lon="-1.255230">
        <ele>1115.8</ele>
        <time>2018-08-20T09:09:58Z</time>
      </trkpt>
      <trkpt lat="43.080246" lon="-1.255334">
        <ele>1117.2</ele>
        <time>2018-08-20T09:10:08Z</time>
      </trkpt>
      <trkpt lat="43.080195" lon="-1.255414">
        <ele>1117.7</ele>
        <time>2018-08-20T09:10:15Z</time>
      </trkpt>
      <trkpt lat="43.080129" lon="-1.255539">
        <ele>1119.6</ele>
        <time>2018-08-20T09:10:26Z</time>
      </trkpt>
      <trkpt lat="43.080100" lon="-1.255582">
        <ele>1119.1</ele>
        <time>2018-08-20T09:10:29Z</time>
      </trkpt>
      <trkpt lat="43.080086" lon="-1.255605">
        <ele>1119.6</ele>
        <time>2018-08-20T09:10:31Z</time>
      </trkpt>
      <trkpt lat="43.080025" lon="-1.255703">
        <ele>1120.6</ele>
        <time>2018-08-20T09:10:38Z</time>
      </trkpt>
      <trkpt lat="43.079934" lon="-1.255853">
        <ele>1121.5</ele>
        <time>2018-08-20T09:10:50Z</time>
      </trkpt>
      <trkpt lat="43.079918" lon="-1.255892">
        <ele>1122.0</ele>
        <time>2018-08-20T09:10:53Z</time>
      </trkpt>
      <trkpt lat="43.079804" lon="-1.256079">
        <ele>1123.0</ele>
        <time>2018-08-20T09:11:07Z</time>
      </trkpt>
      <trkpt lat="43.079753" lon="-1.256164">
        <ele>1123.4</ele>
        <time>2018-08-20T09:11:13Z</time>
      </trkpt>
      <trkpt lat="43.079728" lon="-1.256205">
        <ele>1123.9</ele>
        <time>2018-08-20T09:11:16Z</time>
      </trkpt>
      <trkpt lat="43.079683" lon="-1.256287">
        <ele>1124.4</ele>
        <time>2018-08-20T09:11:22Z</time>
      </trkpt>
      <trkpt lat="43.079640" lon="-1.256366">
        <ele>1125.4</ele>
        <time>2018-08-20T09:11:29Z</time>
      </trkpt>
      <trkpt lat="43.079609" lon="-1.256429">
        <ele>1125.4</ele>
        <time>2018-08-20T09:11:34Z</time>
      </trkpt>
      <trkpt lat="43.079600" lon="-1.256489">
        <ele>1126.3</ele>
        <time>2018-08-20T09:11:38Z</time>
      </trkpt>
      <trkpt lat="43.079595" lon="-1.256673">
        <ele>1127.8</ele>
        <time>2018-08-20T09:11:49Z</time>
      </trkpt>
      <trkpt lat="43.079647" lon="-1.256806">
        <ele>1129.2</ele>
        <time>2018-08-20T09:11:58Z</time>
      </trkpt>
      <trkpt lat="43.079739" lon="-1.256879">
        <ele>1130.7</ele>
        <time>2018-08-20T09:12:06Z</time>
      </trkpt>
      <trkpt lat="43.079827" lon="-1.256945">
        <ele>1131.1</ele>
        <time>2018-08-20T09:12:14Z</time>
      </trkpt>
      <trkpt lat="43.079867" lon="-1.256981">
        <ele>1131.1</ele>
        <time>2018-08-20T09:12:18Z</time>
      </trkpt>
      <trkpt lat="43.079885" lon="-1.257007">
        <ele>1131.1</ele>
        <time>2018-08-20T09:12:20Z</time>
      </trkpt>
      <trkpt lat="43.079927" lon="-1.257052">
        <ele>1132.1</ele>
        <time>2018-08-20T09:12:25Z</time>
      </trkpt>
      <trkpt lat="43.079940" lon="-1.257079">
        <ele>1132.1</ele>
        <time>2018-08-20T09:12:27Z</time>
      </trkpt>
      <trkpt lat="43.079974" lon="-1.257136">
        <ele>1132.6</ele>
        <time>2018-08-20T09:12:32Z</time>
      </trkpt>
      <trkpt lat="43.080001" lon="-1.257166">
        <ele>1133.1</ele>
        <time>2018-08-20T09:12:35Z</time>
      </trkpt>
      <trkpt lat="43.080083" lon="-1.257292">
        <ele>1133.5</ele>
        <time>2018-08-20T09:12:46Z</time>
      </trkpt>
      <trkpt lat="43.080153" lon="-1.257461">
        <ele>1134.0</ele>
        <time>2018-08-20T09:12:59Z</time>
      </trkpt>
      <trkpt lat="43.080146" lon="-1.257494">
        <ele>1135.0</ele>
        <time>2018-08-20T09:13:11Z</time>
      </trkpt>
      <trkpt lat="43.080158" lon="-1.257496">
        <ele>1135.0</ele>
        <time>2018-08-20T09:13:26Z</time>
      </trkpt>
      <trkpt lat="43.080160" lon="-1.257505">
        <ele>1134.0</ele>
        <time>2018-08-20T09:13:27Z</time>
      </trkpt>
      <trkpt lat="43.080183" lon="-1.257574">
        <ele>1135.0</ele>
        <time>2018-08-20T09:13:38Z</time>
      </trkpt>
      <trkpt lat="43.080185" lon="-1.257590">
        <ele>1135.0</ele>
        <time>2018-08-20T09:13:47Z</time>
      </trkpt>
      <trkpt lat="43.080175" lon="-1.257571">
        <ele>1135.0</ele>
        <time>2018-08-20T09:13:59Z</time>
      </trkpt>
      <trkpt lat="43.080186" lon="-1.257583">
        <ele>1135.0</ele>
        <time>2018-08-20T09:14:11Z</time>
      </trkpt>
      <trkpt lat="43.080176" lon="-1.257583">
        <ele>1134.5</ele>
        <time>2018-08-20T09:14:23Z</time>
      </trkpt>
      <trkpt lat="43.080183" lon="-1.257623">
        <ele>1134.5</ele>
        <time>2018-08-20T09:14:36Z</time>
      </trkpt>
      <trkpt lat="43.080159" lon="-1.257638">
        <ele>1135.0</ele>
        <time>2018-08-20T09:14:50Z</time>
      </trkpt>
      <trkpt lat="43.080164" lon="-1.257675">
        <ele>1134.5</ele>
        <time>2018-08-20T09:15:07Z</time>
      </trkpt>
      <trkpt lat="43.080164" lon="-1.257698">
        <ele>1135.0</ele>
        <time>2018-08-20T09:15:10Z</time>
      </trkpt>
      <trkpt lat="43.080174" lon="-1.257791">
        <ele>1134.5</ele>
        <time>2018-08-20T09:15:18Z</time>
      </trkpt>
      <trkpt lat="43.080177" lon="-1.257847">
        <ele>1134.0</ele>
        <time>2018-08-20T09:15:22Z</time>
      </trkpt>
      <trkpt lat="43.080181" lon="-1.257864">
        <ele>1134.5</ele>
        <time>2018-08-20T09:15:24Z</time>
      </trkpt>
      <trkpt lat="43.080188" lon="-1.258099">
        <ele>1134.0</ele>
        <time>2018-08-20T09:15:41Z</time>
      </trkpt>
      <trkpt lat="43.080186" lon="-1.258314">
        <ele>1133.1</ele>
        <time>2018-08-20T09:15:57Z</time>
      </trkpt>
      <trkpt lat="43.080190" lon="-1.258331">
        <ele>1133.5</ele>
        <time>2018-08-20T09:16:15Z</time>
      </trkpt>
      <trkpt lat="43.080151" lon="-1.258421">
        <ele>1132.6</ele>
        <time>2018-08-20T09:16:29Z</time>
      </trkpt>
      <trkpt lat="43.080154" lon="-1.258459">
        <ele>1132.6</ele>
        <time>2018-08-20T09:16:43Z</time>
      </trkpt>
      <trkpt lat="43.080121" lon="-1.258518">
        <ele>1131.6</ele>
        <time>2018-08-20T09:16:57Z</time>
      </trkpt>
      <trkpt lat="43.080118" lon="-1.258542">
        <ele>1132.1</ele>
        <time>2018-08-20T09:17:08Z</time>
      </trkpt>
      <trkpt lat="43.080113" lon="-1.258561">
        <ele>1131.6</ele>
        <time>2018-08-20T09:17:10Z</time>
      </trkpt>
      <trkpt lat="43.080056" lon="-1.258759">
        <ele>1129.7</ele>
        <time>2018-08-20T09:17:25Z</time>
      </trkpt>
      <trkpt lat="43.080057" lon="-1.258759">
        <ele>1130.2</ele>
        <time>2018-08-20T09:17:26Z</time>
      </trkpt>
      <trkpt lat="43.080004" lon="-1.258896">
        <ele>1128.2</ele>
        <time>2018-08-20T09:17:39Z</time>
      </trkpt>
      <trkpt lat="43.079995" lon="-1.258929">
        <ele>1130.2</ele>
        <time>2018-08-20T09:17:42Z</time>
      </trkpt>
      <trkpt lat="43.079987" lon="-1.258955">
        <ele>1129.2</ele>
        <time>2018-08-20T09:17:44Z</time>
      </trkpt>
      <trkpt lat="43.079957" lon="-1.259034">
        <ele>1128.2</ele>
        <time>2018-08-20T09:17:50Z</time>
      </trkpt>
      <trkpt lat="43.079940" lon="-1.259080">
        <ele>1128.7</ele>
        <time>2018-08-20T09:17:54Z</time>
      </trkpt>
      <trkpt lat="43.079909" lon="-1.259137">
        <ele>1127.3</ele>
        <time>2018-08-20T09:18:12Z</time>
      </trkpt>
      <trkpt lat="43.079890" lon="-1.259141">
        <ele>1127.3</ele>
        <time>2018-08-20T09:18:27Z</time>
      </trkpt>
      <trkpt lat="43.079840" lon="-1.259227">
        <ele>1127.3</ele>
        <time>2018-08-20T09:18:39Z</time>
      </trkpt>
      <trkpt lat="43.079790" lon="-1.259361">
        <ele>1126.3</ele>
        <time>2018-08-20T09:18:53Z</time>
      </trkpt>
      <trkpt lat="43.079718" lon="-1.259438">
        <ele>1126.3</ele>
        <time>2018-08-20T09:19:07Z</time>
      </trkpt>
      <trkpt lat="43.079714" lon="-1.259442">
        <ele>1126.3</ele>
        <time>2018-08-20T09:19:17Z</time>
      </trkpt>
      <trkpt lat="43.079713" lon="-1.259490">
        <ele>1125.8</ele>
        <time>2018-08-20T09:19:37Z</time>
      </trkpt>
      <trkpt lat="43.079677" lon="-1.259567">
        <ele>1125.4</ele>
        <time>2018-08-20T09:19:49Z</time>
      </trkpt>
      <trkpt lat="43.079577" lon="-1.259698">
        <ele>1125.4</ele>
        <time>2018-08-20T09:20:03Z</time>
      </trkpt>
      <trkpt lat="43.079550" lon="-1.259728">
        <ele>1124.4</ele>
        <time>2018-08-20T09:20:06Z</time>
      </trkpt>
      <trkpt lat="43.079456" lon="-1.259812">
        <ele>1123.4</ele>
        <time>2018-08-20T09:20:20Z</time>
      </trkpt>
      <trkpt lat="43.079429" lon="-1.259836">
        <ele>1123.9</ele>
        <time>2018-08-20T09:20:43Z</time>
      </trkpt>
      <trkpt lat="43.079408" lon="-1.259880">
        <ele>1123.9</ele>
        <time>2018-08-20T09:20:55Z</time>
      </trkpt>
      <trkpt lat="43.079372" lon="-1.259913">
        <ele>1123.0</ele>
        <time>2018-08-20T09:21:08Z</time>
      </trkpt>
      <trkpt lat="43.079340" lon="-1.260001">
        <ele>1122.5</ele>
        <time>2018-08-20T09:21:25Z</time>
      </trkpt>
      <trkpt lat="43.079334" lon="-1.260004">
        <ele>1123.0</ele>
        <time>2018-08-20T09:21:26Z</time>
      </trkpt>
      <trkpt lat="43.079315" lon="-1.260028">
        <ele>1122.5</ele>
        <time>2018-08-20T09:21:29Z</time>
      </trkpt>
      <trkpt lat="43.079276" lon="-1.260066">
        <ele>1121.5</ele>
        <time>2018-08-20T09:21:35Z</time>
      </trkpt>
      <trkpt lat="43.079191" lon="-1.260180">
        <ele>1120.6</ele>
        <time>2018-08-20T09:21:50Z</time>
      </trkpt>
      <trkpt lat="43.079110" lon="-1.260298">
        <ele>1120.1</ele>
        <time>2018-08-20T09:22:04Z</time>
      </trkpt>
      <trkpt lat="43.079097" lon="-1.260332">
        <ele>1119.6</ele>
        <time>2018-08-20T09:22:07Z</time>
      </trkpt>
      <trkpt lat="43.079083" lon="-1.260356">
        <ele>1119.6</ele>
        <time>2018-08-20T09:22:09Z</time>
      </trkpt>
      <trkpt lat="43.078963" lon="-1.260526">
        <ele>1118.2</ele>
        <time>2018-08-20T09:22:25Z</time>
      </trkpt>
      <trkpt lat="43.078868" lon="-1.260697">
        <ele>1117.2</ele>
        <time>2018-08-20T09:22:40Z</time>
      </trkpt>
      <trkpt lat="43.078790" lon="-1.260812">
        <ele>1116.2</ele>
        <time>2018-08-20T09:22:53Z</time>
      </trkpt>
      <trkpt lat="43.078707" lon="-1.260938">
        <ele>1115.3</ele>
        <time>2018-08-20T09:23:07Z</time>
      </trkpt>
      <trkpt lat="43.078629" lon="-1.261085">
        <ele>1113.8</ele>
        <time>2018-08-20T09:23:22Z</time>
      </trkpt>
      <trkpt lat="43.078546" lon="-1.261168">
        <ele>1112.9</ele>
        <time>2018-08-20T09:23:35Z</time>
      </trkpt>
      <trkpt lat="43.078502" lon="-1.261227">
        <ele>1112.9</ele>
        <time>2018-08-20T09:23:49Z</time>
      </trkpt>
      <trkpt lat="43.078505" lon="-1.261234">
        <ele>1112.4</ele>
        <time>2018-08-20T09:24:07Z</time>
      </trkpt>
      <trkpt lat="43.078483" lon="-1.261255">
        <ele>1112.4</ele>
        <time>2018-08-20T09:24:26Z</time>
      </trkpt>
      <trkpt lat="43.078382" lon="-1.261360">
        <ele>1111.4</ele>
        <time>2018-08-20T09:24:39Z</time>
      </trkpt>
      <trkpt lat="43.078303" lon="-1.261486">
        <ele>1110.9</ele>
        <time>2018-08-20T09:24:51Z</time>
      </trkpt>
      <trkpt lat="43.078290" lon="-1.261511">
        <ele>1110.9</ele>
        <time>2018-08-20T09:24:53Z</time>
      </trkpt>
      <trkpt lat="43.078290" lon="-1.261569">
        <ele>1110.9</ele>
        <time>2018-08-20T09:24:57Z</time>
      </trkpt>
      <trkpt lat="43.078215" lon="-1.261697">
        <ele>1110.0</ele>
        <time>2018-08-20T09:25:11Z</time>
      </trkpt>
      <trkpt lat="43.078096" lon="-1.261877">
        <ele>1109.5</ele>
        <time>2018-08-20T09:25:28Z</time>
      </trkpt>
      <trkpt lat="43.077999" lon="-1.262075">
        <ele>1110.0</ele>
        <time>2018-08-20T09:25:43Z</time>
      </trkpt>
      <trkpt lat="43.077937" lon="-1.262162">
        <ele>1110.0</ele>
        <time>2018-08-20T09:25:51Z</time>
      </trkpt>
      <trkpt lat="43.077877" lon="-1.262215">
        <ele>1110.5</ele>
        <time>2018-08-20T09:26:01Z</time>
      </trkpt>
      <trkpt lat="43.077867" lon="-1.262233">
        <ele>1110.9</ele>
        <time>2018-08-20T09:26:03Z</time>
      </trkpt>
      <trkpt lat="43.077728" lon="-1.262414">
        <ele>1111.4</ele>
        <time>2018-08-20T09:26:19Z</time>
      </trkpt>
      <trkpt lat="43.077652" lon="-1.262504">
        <ele>1111.4</ele>
        <time>2018-08-20T09:26:27Z</time>
      </trkpt>
      <trkpt lat="43.077607" lon="-1.262555">
        <ele>1111.4</ele>
        <time>2018-08-20T09:26:32Z</time>
      </trkpt>
      <trkpt lat="43.077488" lon="-1.262663">
        <ele>1111.9</ele>
        <time>2018-08-20T09:26:45Z</time>
      </trkpt>
      <trkpt lat="43.077317" lon="-1.262800">
        <ele>1111.9</ele>
        <time>2018-08-20T09:27:03Z</time>
      </trkpt>
      <trkpt lat="43.077296" lon="-1.262815">
        <ele>1111.4</ele>
        <time>2018-08-20T09:27:05Z</time>
      </trkpt>
      <trkpt lat="43.077196" lon="-1.262874">
        <ele>1112.4</ele>
        <time>2018-08-20T09:27:15Z</time>
      </trkpt>
      <trkpt lat="43.077114" lon="-1.262922">
        <ele>1112.9</ele>
        <time>2018-08-20T09:27:22Z</time>
      </trkpt>
      <trkpt lat="43.076938" lon="-1.262996">
        <ele>1111.4</ele>
        <time>2018-08-20T09:27:39Z</time>
      </trkpt>
      <trkpt lat="43.076780" lon="-1.263056">
        <ele>1111.9</ele>
        <time>2018-08-20T09:27:55Z</time>
      </trkpt>
      <trkpt lat="43.076770" lon="-1.263062">
        <ele>1111.9</ele>
        <time>2018-08-20T09:27:56Z</time>
      </trkpt>
      <trkpt lat="43.076747" lon="-1.263067">
        <ele>1112.4</ele>
        <time>2018-08-20T09:27:58Z</time>
      </trkpt>
      <trkpt lat="43.076675" lon="-1.263088">
        <ele>1111.9</ele>
        <time>2018-08-20T09:28:05Z</time>
      </trkpt>
      <trkpt lat="43.076620" lon="-1.263112">
        <ele>1111.9</ele>
        <time>2018-08-20T09:28:10Z</time>
      </trkpt>
      <trkpt lat="43.076449" lon="-1.263173">
        <ele>1112.4</ele>
        <time>2018-08-20T09:28:28Z</time>
      </trkpt>
      <trkpt lat="43.076432" lon="-1.263210">
        <ele>1110.9</ele>
        <time>2018-08-20T09:28:38Z</time>
      </trkpt>
      <trkpt lat="43.076354" lon="-1.263315">
        <ele>1110.0</ele>
        <time>2018-08-20T09:28:52Z</time>
      </trkpt>
      <trkpt lat="43.076296" lon="-1.263391">
        <ele>1110.0</ele>
        <time>2018-08-20T09:29:04Z</time>
      </trkpt>
      <trkpt lat="43.076205" lon="-1.263471">
        <ele>1110.0</ele>
        <time>2018-08-20T09:29:16Z</time>
      </trkpt>
      <trkpt lat="43.076111" lon="-1.263557">
        <ele>1109.0</ele>
        <time>2018-08-20T09:29:28Z</time>
      </trkpt>
      <trkpt lat="43.076090" lon="-1.263561">
        <ele>1109.5</ele>
        <time>2018-08-20T09:29:30Z</time>
      </trkpt>
      <trkpt lat="43.076037" lon="-1.263624">
        <ele>1109.0</ele>
        <time>2018-08-20T09:29:36Z</time>
      </trkpt>
      <trkpt lat="43.075929" lon="-1.263749">
        <ele>1109.5</ele>
        <time>2018-08-20T09:29:51Z</time>
      </trkpt>
      <trkpt lat="43.075840" lon="-1.263868">
        <ele>1109.0</ele>
        <time>2018-08-20T09:30:02Z</time>
      </trkpt>
      <trkpt lat="43.075821" lon="-1.263880">
        <ele>1109.5</ele>
        <time>2018-08-20T09:30:04Z</time>
      </trkpt>
      <trkpt lat="43.075759" lon="-1.263940">
        <ele>1109.0</ele>
        <time>2018-08-20T09:30:11Z</time>
      </trkpt>
      <trkpt lat="43.075701" lon="-1.264017">
        <ele>1109.0</ele>
        <time>2018-08-20T09:30:19Z</time>
      </trkpt>
      <trkpt lat="43.075633" lon="-1.264105">
        <ele>1109.5</ele>
        <time>2018-08-20T09:30:28Z</time>
      </trkpt>
      <trkpt lat="43.075618" lon="-1.264126">
        <ele>1109.5</ele>
        <time>2018-08-20T09:30:30Z</time>
      </trkpt>
      <trkpt lat="43.075598" lon="-1.264136">
        <ele>1109.5</ele>
        <time>2018-08-20T09:30:32Z</time>
      </trkpt>
      <trkpt lat="43.075582" lon="-1.264171">
        <ele>1109.5</ele>
        <time>2018-08-20T09:30:35Z</time>
      </trkpt>
      <trkpt lat="43.075542" lon="-1.264225">
        <ele>1109.5</ele>
        <time>2018-08-20T09:30:41Z</time>
      </trkpt>
      <trkpt lat="43.075434" lon="-1.264424">
        <ele>1110.5</ele>
        <time>2018-08-20T09:30:58Z</time>
      </trkpt>
      <trkpt lat="43.075326" lon="-1.264562">
        <ele>1110.5</ele>
        <time>2018-08-20T09:31:11Z</time>
      </trkpt>
      <trkpt lat="43.075217" lon="-1.264730">
        <ele>1110.9</ele>
        <time>2018-08-20T09:31:26Z</time>
      </trkpt>
      <trkpt lat="43.075119" lon="-1.264893">
        <ele>1111.4</ele>
        <time>2018-08-20T09:31:40Z</time>
      </trkpt>
      <trkpt lat="43.075059" lon="-1.264985">
        <ele>1111.9</ele>
        <time>2018-08-20T09:31:49Z</time>
      </trkpt>
      <trkpt lat="43.075036" lon="-1.265014">
        <ele>1111.9</ele>
        <time>2018-08-20T09:31:56Z</time>
      </trkpt>
      <trkpt lat="43.075026" lon="-1.265030">
        <ele>1111.9</ele>
        <time>2018-08-20T09:31:58Z</time>
      </trkpt>
      <trkpt lat="43.074971" lon="-1.265130">
        <ele>1111.9</ele>
        <time>2018-08-20T09:32:08Z</time>
      </trkpt>
      <trkpt lat="43.074947" lon="-1.265156">
        <ele>1112.9</ele>
        <time>2018-08-20T09:32:11Z</time>
      </trkpt>
      <trkpt lat="43.074847" lon="-1.265285">
        <ele>1113.3</ele>
        <time>2018-08-20T09:32:26Z</time>
      </trkpt>
      <trkpt lat="43.074766" lon="-1.265406">
        <ele>1114.8</ele>
        <time>2018-08-20T09:32:39Z</time>
      </trkpt>
      <trkpt lat="43.074685" lon="-1.265528">
        <ele>1116.7</ele>
        <time>2018-08-20T09:32:53Z</time>
      </trkpt>
      <trkpt lat="43.074646" lon="-1.265594">
        <ele>1117.2</ele>
        <time>2018-08-20T09:33:05Z</time>
      </trkpt>
      <trkpt lat="43.074577" lon="-1.265683">
        <ele>1117.7</ele>
        <time>2018-08-20T09:33:17Z</time>
      </trkpt>
      <trkpt lat="43.074571" lon="-1.265691">
        <ele>1118.2</ele>
        <time>2018-08-20T09:33:18Z</time>
      </trkpt>
      <trkpt lat="43.074529" lon="-1.265731">
        <ele>1118.6</ele>
        <time>2018-08-20T09:33:28Z</time>
      </trkpt>
      <trkpt lat="43.074462" lon="-1.265791">
        <ele>1119.1</ele>
        <time>2018-08-20T09:33:39Z</time>
      </trkpt>
      <trkpt lat="43.074387" lon="-1.265844">
        <ele>1121.5</ele>
        <time>2018-08-20T09:33:51Z</time>
      </trkpt>
      <trkpt lat="43.074330" lon="-1.265879">
        <ele>1122.0</ele>
        <time>2018-08-20T09:33:58Z</time>
      </trkpt>
      <trkpt lat="43.074318" lon="-1.265895">
        <ele>1122.0</ele>
        <time>2018-08-20T09:34:00Z</time>
      </trkpt>
      <trkpt lat="43.074250" lon="-1.265933">
        <ele>1123.9</ele>
        <time>2018-08-20T09:34:11Z</time>
      </trkpt>
      <trkpt lat="43.074224" lon="-1.265962">
        <ele>1125.4</ele>
        <time>2018-08-20T09:34:23Z</time>
      </trkpt>
      <trkpt lat="43.074225" lon="-1.265989">
        <ele>1124.9</ele>
        <time>2018-08-20T09:34:32Z</time>
      </trkpt>
      <trkpt lat="43.074166" lon="-1.266131">
        <ele>1125.4</ele>
        <time>2018-08-20T09:34:40Z</time>
      </trkpt>
      <trkpt lat="43.074132" lon="-1.266167">
        <ele>1125.8</ele>
        <time>2018-08-20T09:34:43Z</time>
      </trkpt>
      <trkpt lat="43.074078" lon="-1.266251">
        <ele>1127.3</ele>
        <time>2018-08-20T09:34:54Z</time>
      </trkpt>
      <trkpt lat="43.074021" lon="-1.266316">
        <ele>1128.2</ele>
        <time>2018-08-20T09:35:01Z</time>
      </trkpt>
      <trkpt lat="43.073914" lon="-1.266420">
        <ele>1128.7</ele>
        <time>2018-08-20T09:35:14Z</time>
      </trkpt>
      <trkpt lat="43.073906" lon="-1.266433">
        <ele>1129.2</ele>
        <time>2018-08-20T09:35:15Z</time>
      </trkpt>
      <trkpt lat="43.073830" lon="-1.266506">
        <ele>1130.2</ele>
        <time>2018-08-20T09:35:24Z</time>
      </trkpt>
      <trkpt lat="43.073811" lon="-1.266505">
        <ele>1130.2</ele>
        <time>2018-08-20T09:35:26Z</time>
      </trkpt>
      <trkpt lat="43.073785" lon="-1.266508">
        <ele>1130.7</ele>
        <time>2018-08-20T09:35:29Z</time>
      </trkpt>
      <trkpt lat="43.073669" lon="-1.266550">
        <ele>1131.6</ele>
        <time>2018-08-20T09:35:39Z</time>
      </trkpt>
      <trkpt lat="43.073635" lon="-1.266564">
        <ele>1132.6</ele>
        <time>2018-08-20T09:35:43Z</time>
      </trkpt>
      <trkpt lat="43.073522" lon="-1.266592">
        <ele>1133.5</ele>
        <time>2018-08-20T09:35:55Z</time>
      </trkpt>
      <trkpt lat="43.073491" lon="-1.266605">
        <ele>1134.0</ele>
        <time>2018-08-20T09:35:58Z</time>
      </trkpt>
      <trkpt lat="43.073471" lon="-1.266617">
        <ele>1134.5</ele>
        <time>2018-08-20T09:36:00Z</time>
      </trkpt>
      <trkpt lat="43.073451" lon="-1.266625">
        <ele>1135.0</ele>
        <time>2018-08-20T09:36:02Z</time>
      </trkpt>
      <trkpt lat="43.073403" lon="-1.266644">
        <ele>1135.0</ele>
        <time>2018-08-20T09:36:07Z</time>
      </trkpt>
      <trkpt lat="43.073350" lon="-1.266661">
        <ele>1135.9</ele>
        <time>2018-08-20T09:36:14Z</time>
      </trkpt>
      <trkpt lat="43.073327" lon="-1.266668">
        <ele>1135.9</ele>
        <time>2018-08-20T09:36:16Z</time>
      </trkpt>
      <trkpt lat="43.073222" lon="-1.266713">
        <ele>1136.4</ele>
        <time>2018-08-20T09:36:27Z</time>
      </trkpt>
      <trkpt lat="43.073199" lon="-1.266716">
        <ele>1136.9</ele>
        <time>2018-08-20T09:36:29Z</time>
      </trkpt>
      <trkpt lat="43.073061" lon="-1.266753">
        <ele>1137.4</ele>
        <time>2018-08-20T09:36:43Z</time>
      </trkpt>
      <trkpt lat="43.073044" lon="-1.266758">
        <ele>1137.9</ele>
        <time>2018-08-20T09:36:45Z</time>
      </trkpt>
      <trkpt lat="43.073015" lon="-1.266780">
        <ele>1137.9</ele>
        <time>2018-08-20T09:36:48Z</time>
      </trkpt>
      <trkpt lat="43.072993" lon="-1.266783">
        <ele>1138.3</ele>
        <time>2018-08-20T09:36:50Z</time>
      </trkpt>
      <trkpt lat="43.072974" lon="-1.266790">
        <ele>1138.3</ele>
        <time>2018-08-20T09:36:52Z</time>
      </trkpt>
      <trkpt lat="43.072956" lon="-1.266791">
        <ele>1138.8</ele>
        <time>2018-08-20T09:36:54Z</time>
      </trkpt>
      <trkpt lat="43.072935" lon="-1.266799">
        <ele>1138.8</ele>
        <time>2018-08-20T09:36:56Z</time>
      </trkpt>
      <trkpt lat="43.072794" lon="-1.266804">
        <ele>1139.3</ele>
        <time>2018-08-20T09:37:10Z</time>
      </trkpt>
      <trkpt lat="43.072748" lon="-1.266799">
        <ele>1139.8</ele>
        <time>2018-08-20T09:37:14Z</time>
      </trkpt>
      <trkpt lat="43.072702" lon="-1.266790">
        <ele>1140.7</ele>
        <time>2018-08-20T09:37:19Z</time>
      </trkpt>
      <trkpt lat="43.072669" lon="-1.266784">
        <ele>1139.8</ele>
        <time>2018-08-20T09:37:23Z</time>
      </trkpt>
      <trkpt lat="43.072533" lon="-1.266761">
        <ele>1141.2</ele>
        <time>2018-08-20T09:37:37Z</time>
      </trkpt>
      <trkpt lat="43.072411" lon="-1.266734">
        <ele>1141.7</ele>
        <time>2018-08-20T09:37:49Z</time>
      </trkpt>
      <trkpt lat="43.072348" lon="-1.266704">
        <ele>1141.7</ele>
        <time>2018-08-20T09:37:55Z</time>
      </trkpt>
      <trkpt lat="43.072325" lon="-1.266715">
        <ele>1141.2</ele>
        <time>2018-08-20T09:37:57Z</time>
      </trkpt>
      <trkpt lat="43.072272" lon="-1.266714">
        <ele>1142.2</ele>
        <time>2018-08-20T09:38:02Z</time>
      </trkpt>
      <trkpt lat="43.072234" lon="-1.266692">
        <ele>1142.7</ele>
        <time>2018-08-20T09:38:06Z</time>
      </trkpt>
      <trkpt lat="43.072203" lon="-1.266684">
        <ele>1142.7</ele>
        <time>2018-08-20T09:38:09Z</time>
      </trkpt>
      <trkpt lat="43.072183" lon="-1.266673">
        <ele>1143.1</ele>
        <time>2018-08-20T09:38:11Z</time>
      </trkpt>
      <trkpt lat="43.072070" lon="-1.266642">
        <ele>1143.6</ele>
        <time>2018-08-20T09:38:23Z</time>
      </trkpt>
      <trkpt lat="43.072008" lon="-1.266656">
        <ele>1145.1</ele>
        <time>2018-08-20T09:38:29Z</time>
      </trkpt>
      <trkpt lat="43.071968" lon="-1.266650">
        <ele>1144.6</ele>
        <time>2018-08-20T09:38:33Z</time>
      </trkpt>
      <trkpt lat="43.071871" lon="-1.266638">
        <ele>1145.6</ele>
        <time>2018-08-20T09:38:42Z</time>
      </trkpt>
      <trkpt lat="43.071710" lon="-1.266606">
        <ele>1146.5</ele>
        <time>2018-08-20T09:38:58Z</time>
      </trkpt>
      <trkpt lat="43.071636" lon="-1.266604">
        <ele>1147.9</ele>
        <time>2018-08-20T09:39:05Z</time>
      </trkpt>
      <trkpt lat="43.071461" lon="-1.266641">
        <ele>1148.4</ele>
        <time>2018-08-20T09:39:22Z</time>
      </trkpt>
      <trkpt lat="43.071411" lon="-1.266660">
        <ele>1148.9</ele>
        <time>2018-08-20T09:39:27Z</time>
      </trkpt>
      <trkpt lat="43.071375" lon="-1.266681">
        <ele>1149.4</ele>
        <time>2018-08-20T09:39:31Z</time>
      </trkpt>
      <trkpt lat="43.071326" lon="-1.266697">
        <ele>1149.4</ele>
        <time>2018-08-20T09:39:36Z</time>
      </trkpt>
      <trkpt lat="43.071205" lon="-1.266812">
        <ele>1151.8</ele>
        <time>2018-08-20T09:39:51Z</time>
      </trkpt>
      <trkpt lat="43.071120" lon="-1.266959">
        <ele>1153.7</ele>
        <time>2018-08-20T09:40:06Z</time>
      </trkpt>
      <trkpt lat="43.071106" lon="-1.267009">
        <ele>1154.7</ele>
        <time>2018-08-20T09:40:10Z</time>
      </trkpt>
      <trkpt lat="43.071087" lon="-1.267110">
        <ele>1156.1</ele>
        <time>2018-08-20T09:40:17Z</time>
      </trkpt>
      <trkpt lat="43.071107" lon="-1.267274">
        <ele>1156.6</ele>
        <time>2018-08-20T09:40:29Z</time>
      </trkpt>
      <trkpt lat="43.071114" lon="-1.267299">
        <ele>1157.1</ele>
        <time>2018-08-20T09:40:31Z</time>
      </trkpt>
      <trkpt lat="43.071116" lon="-1.267403">
        <ele>1158.1</ele>
        <time>2018-08-20T09:40:39Z</time>
      </trkpt>
      <trkpt lat="43.071120" lon="-1.267432">
        <ele>1158.5</ele>
        <time>2018-08-20T09:40:41Z</time>
      </trkpt>
      <trkpt lat="43.071121" lon="-1.267471">
        <ele>1159.0</ele>
        <time>2018-08-20T09:40:44Z</time>
      </trkpt>
      <trkpt lat="43.071122" lon="-1.267504">
        <ele>1159.0</ele>
        <time>2018-08-20T09:40:46Z</time>
      </trkpt>
      <trkpt lat="43.071172" lon="-1.267570">
        <ele>1160.0</ele>
        <time>2018-08-20T09:40:59Z</time>
      </trkpt>
      <trkpt lat="43.071175" lon="-1.267646">
        <ele>1160.9</ele>
        <time>2018-08-20T09:41:06Z</time>
      </trkpt>
      <trkpt lat="43.071188" lon="-1.267690">
        <ele>1160.9</ele>
        <time>2018-08-20T09:41:09Z</time>
      </trkpt>
      <trkpt lat="43.071192" lon="-1.267816">
        <ele>1161.9</ele>
        <time>2018-08-20T09:41:18Z</time>
      </trkpt>
      <trkpt lat="43.071196" lon="-1.267844">
        <ele>1161.9</ele>
        <time>2018-08-20T09:41:20Z</time>
      </trkpt>
      <trkpt lat="43.071196" lon="-1.268023">
        <ele>1164.3</ele>
        <time>2018-08-20T09:41:32Z</time>
      </trkpt>
      <trkpt lat="43.071175" lon="-1.268204">
        <ele>1165.3</ele>
        <time>2018-08-20T09:41:45Z</time>
      </trkpt>
      <trkpt lat="43.071173" lon="-1.268228">
        <ele>1165.3</ele>
        <time>2018-08-20T09:41:47Z</time>
      </trkpt>
      <trkpt lat="43.071149" lon="-1.268451">
        <ele>1166.7</ele>
        <time>2018-08-20T09:42:01Z</time>
      </trkpt>
      <trkpt lat="43.071127" lon="-1.268563">
        <ele>1166.7</ele>
        <time>2018-08-20T09:42:09Z</time>
      </trkpt>
      <trkpt lat="43.071128" lon="-1.268609">
        <ele>1167.7</ele>
        <time>2018-08-20T09:42:12Z</time>
      </trkpt>
      <trkpt lat="43.071121" lon="-1.268638">
        <ele>1167.7</ele>
        <time>2018-08-20T09:42:14Z</time>
      </trkpt>
      <trkpt lat="43.071116" lon="-1.268668">
        <ele>1167.7</ele>
        <time>2018-08-20T09:42:16Z</time>
      </trkpt>
      <trkpt lat="43.071105" lon="-1.268696">
        <ele>1168.6</ele>
        <time>2018-08-20T09:42:18Z</time>
      </trkpt>
      <trkpt lat="43.071025" lon="-1.268891">
        <ele>1170.1</ele>
        <time>2018-08-20T09:42:31Z</time>
      </trkpt>
      <trkpt lat="43.070971" lon="-1.268974">
        <ele>1170.5</ele>
        <time>2018-08-20T09:42:37Z</time>
      </trkpt>
      <trkpt lat="43.070954" lon="-1.269028">
        <ele>1171.0</ele>
        <time>2018-08-20T09:42:40Z</time>
      </trkpt>
      <trkpt lat="43.070928" lon="-1.269056">
        <ele>1171.5</ele>
        <time>2018-08-20T09:42:43Z</time>
      </trkpt>
      <trkpt lat="43.070879" lon="-1.269103">
        <ele>1172.0</ele>
        <time>2018-08-20T09:42:48Z</time>
      </trkpt>
      <trkpt lat="43.070831" lon="-1.269161">
        <ele>1172.5</ele>
        <time>2018-08-20T09:42:53Z</time>
      </trkpt>
      <trkpt lat="43.070803" lon="-1.269185">
        <ele>1172.5</ele>
        <time>2018-08-20T09:42:56Z</time>
      </trkpt>
      <trkpt lat="43.070745" lon="-1.269213">
        <ele>1172.5</ele>
        <time>2018-08-20T09:43:01Z</time>
      </trkpt>
      <trkpt lat="43.070614" lon="-1.269216">
        <ele>1173.9</ele>
        <time>2018-08-20T09:43:20Z</time>
      </trkpt>
      <trkpt lat="43.070505" lon="-1.269274">
        <ele>1175.3</ele>
        <time>2018-08-20T09:43:32Z</time>
      </trkpt>
      <trkpt lat="43.070502" lon="-1.269264">
        <ele>1174.9</ele>
        <time>2018-08-20T09:43:39Z</time>
      </trkpt>
      <trkpt lat="43.070484" lon="-1.269267">
        <ele>1175.3</ele>
        <time>2018-08-20T09:43:41Z</time>
      </trkpt>
      <trkpt lat="43.070388" lon="-1.269302">
        <ele>1176.3</ele>
        <time>2018-08-20T09:43:51Z</time>
      </trkpt>
      <trkpt lat="43.070262" lon="-1.269329">
        <ele>1177.8</ele>
        <time>2018-08-20T09:44:04Z</time>
      </trkpt>
      <trkpt lat="43.070244" lon="-1.269328">
        <ele>1178.2</ele>
        <time>2018-08-20T09:44:06Z</time>
      </trkpt>
      <trkpt lat="43.070188" lon="-1.269333">
        <ele>1178.7</ele>
        <time>2018-08-20T09:44:11Z</time>
      </trkpt>
      <trkpt lat="43.070169" lon="-1.269338">
        <ele>1179.2</ele>
        <time>2018-08-20T09:44:13Z</time>
      </trkpt>
      <trkpt lat="43.070096" lon="-1.269340">
        <ele>1179.7</ele>
        <time>2018-08-20T09:44:20Z</time>
      </trkpt>
      <trkpt lat="43.069940" lon="-1.269366">
        <ele>1182.1</ele>
        <time>2018-08-20T09:44:35Z</time>
      </trkpt>
      <trkpt lat="43.069785" lon="-1.269385">
        <ele>1183.0</ele>
        <time>2018-08-20T09:44:49Z</time>
      </trkpt>
      <trkpt lat="43.069607" lon="-1.269362">
        <ele>1185.0</ele>
        <time>2018-08-20T09:45:05Z</time>
      </trkpt>
      <trkpt lat="43.069438" lon="-1.269299">
        <ele>1185.9</ele>
        <time>2018-08-20T09:45:22Z</time>
      </trkpt>
      <trkpt lat="43.069287" lon="-1.269269">
        <ele>1187.4</ele>
        <time>2018-08-20T09:45:35Z</time>
      </trkpt>
      <trkpt lat="43.069097" lon="-1.269224">
        <ele>1187.8</ele>
        <time>2018-08-20T09:45:50Z</time>
      </trkpt>
      <trkpt lat="43.069017" lon="-1.269201">
        <ele>1187.8</ele>
        <time>2018-08-20T09:45:57Z</time>
      </trkpt>
      <trkpt lat="43.068820" lon="-1.269170">
        <ele>1188.8</ele>
        <time>2018-08-20T09:46:14Z</time>
      </trkpt>
      <trkpt lat="43.068811" lon="-1.269162">
        <ele>1189.3</ele>
        <time>2018-08-20T09:46:15Z</time>
      </trkpt>
      <trkpt lat="43.068742" lon="-1.269141">
        <ele>1189.3</ele>
        <time>2018-08-20T09:46:21Z</time>
      </trkpt>
      <trkpt lat="43.068688" lon="-1.269144">
        <ele>1189.8</ele>
        <time>2018-08-20T09:46:26Z</time>
      </trkpt>
      <trkpt lat="43.068539" lon="-1.269159">
        <ele>1190.2</ele>
        <time>2018-08-20T09:46:38Z</time>
      </trkpt>
      <trkpt lat="43.068495" lon="-1.269148">
        <ele>1191.2</ele>
        <time>2018-08-20T09:46:43Z</time>
      </trkpt>
      <trkpt lat="43.068377" lon="-1.269127">
        <ele>1191.7</ele>
        <time>2018-08-20T09:46:53Z</time>
      </trkpt>
      <trkpt lat="43.068209" lon="-1.269068">
        <ele>1193.1</ele>
        <time>2018-08-20T09:47:07Z</time>
      </trkpt>
      <trkpt lat="43.068194" lon="-1.269064">
        <ele>1193.6</ele>
        <time>2018-08-20T09:47:08Z</time>
      </trkpt>
      <trkpt lat="43.068082" lon="-1.269019">
        <ele>1193.6</ele>
        <time>2018-08-20T09:47:20Z</time>
      </trkpt>
      <trkpt lat="43.067961" lon="-1.268910">
        <ele>1193.6</ele>
        <time>2018-08-20T09:47:34Z</time>
      </trkpt>
      <trkpt lat="43.067869" lon="-1.268778">
        <ele>1193.6</ele>
        <time>2018-08-20T09:47:46Z</time>
      </trkpt>
      <trkpt lat="43.067824" lon="-1.268687">
        <ele>1193.1</ele>
        <time>2018-08-20T09:47:54Z</time>
      </trkpt>
      <trkpt lat="43.067755" lon="-1.268516">
        <ele>1192.7</ele>
        <time>2018-08-20T09:48:10Z</time>
      </trkpt>
      <trkpt lat="43.067745" lon="-1.268478">
        <ele>1193.6</ele>
        <time>2018-08-20T09:48:13Z</time>
      </trkpt>
      <trkpt lat="43.067690" lon="-1.268331">
        <ele>1192.7</ele>
        <time>2018-08-20T09:48:27Z</time>
      </trkpt>
      <trkpt lat="43.067593" lon="-1.268145">
        <ele>1192.2</ele>
        <time>2018-08-20T09:48:43Z</time>
      </trkpt>
      <trkpt lat="43.067576" lon="-1.268116">
        <ele>1190.7</ele>
        <time>2018-08-20T09:48:46Z</time>
      </trkpt>
      <trkpt lat="43.067518" lon="-1.268047">
        <ele>1190.7</ele>
        <time>2018-08-20T09:48:53Z</time>
      </trkpt>
      <trkpt lat="43.067505" lon="-1.268034">
        <ele>1190.7</ele>
        <time>2018-08-20T09:48:55Z</time>
      </trkpt>
      <trkpt lat="43.067433" lon="-1.267963">
        <ele>1190.2</ele>
        <time>2018-08-20T09:49:04Z</time>
      </trkpt>
      <trkpt lat="43.067380" lon="-1.267915">
        <ele>1190.2</ele>
        <time>2018-08-20T09:49:10Z</time>
      </trkpt>
      <trkpt lat="43.067239" lon="-1.267807">
        <ele>1189.8</ele>
        <time>2018-08-20T09:49:26Z</time>
      </trkpt>
      <trkpt lat="43.067216" lon="-1.267795">
        <ele>1188.8</ele>
        <time>2018-08-20T09:49:28Z</time>
      </trkpt>
      <trkpt lat="43.067069" lon="-1.267720">
        <ele>1188.3</ele>
        <time>2018-08-20T09:49:43Z</time>
      </trkpt>
      <trkpt lat="43.066999" lon="-1.267699">
        <ele>1188.3</ele>
        <time>2018-08-20T09:49:50Z</time>
      </trkpt>
      <trkpt lat="43.066904" lon="-1.267673">
        <ele>1188.3</ele>
        <time>2018-08-20T09:49:59Z</time>
      </trkpt>
      <trkpt lat="43.066808" lon="-1.267648">
        <ele>1188.3</ele>
        <time>2018-08-20T09:50:08Z</time>
      </trkpt>
      <trkpt lat="43.066789" lon="-1.267641">
        <ele>1188.3</ele>
        <time>2018-08-20T09:50:10Z</time>
      </trkpt>
      <trkpt lat="43.066679" lon="-1.267588">
        <ele>1188.8</ele>
        <time>2018-08-20T09:50:21Z</time>
      </trkpt>
      <trkpt lat="43.066520" lon="-1.267546">
        <ele>1188.8</ele>
        <time>2018-08-20T09:50:36Z</time>
      </trkpt>
      <trkpt lat="43.066479" lon="-1.267535">
        <ele>1187.8</ele>
        <time>2018-08-20T09:50:40Z</time>
      </trkpt>
      <trkpt lat="43.066411" lon="-1.267517">
        <ele>1189.3</ele>
        <time>2018-08-20T09:50:46Z</time>
      </trkpt>
      <trkpt lat="43.066240" lon="-1.267472">
        <ele>1189.8</ele>
        <time>2018-08-20T09:51:03Z</time>
      </trkpt>
      <trkpt lat="43.066173" lon="-1.267460">
        <ele>1189.8</ele>
        <time>2018-08-20T09:51:09Z</time>
      </trkpt>
      <trkpt lat="43.066112" lon="-1.267448">
        <ele>1188.3</ele>
        <time>2018-08-20T09:51:14Z</time>
      </trkpt>
      <trkpt lat="43.065987" lon="-1.267399">
        <ele>1190.2</ele>
        <time>2018-08-20T09:51:28Z</time>
      </trkpt>
      <trkpt lat="43.065964" lon="-1.267379">
        <ele>1189.8</ele>
        <time>2018-08-20T09:51:31Z</time>
      </trkpt>
      <trkpt lat="43.065951" lon="-1.267384">
        <ele>1190.2</ele>
        <time>2018-08-20T09:51:46Z</time>
      </trkpt>
      <trkpt lat="43.065956" lon="-1.267350">
        <ele>1189.8</ele>
        <time>2018-08-20T09:52:01Z</time>
      </trkpt>
      <trkpt lat="43.065940" lon="-1.267340">
        <ele>1190.2</ele>
        <time>2018-08-20T09:52:15Z</time>
      </trkpt>
      <trkpt lat="43.065792" lon="-1.267290">
        <ele>1189.3</ele>
        <time>2018-08-20T09:52:29Z</time>
      </trkpt>
      <trkpt lat="43.065766" lon="-1.267278">
        <ele>1189.8</ele>
        <time>2018-08-20T09:52:31Z</time>
      </trkpt>
      <trkpt lat="43.065611" lon="-1.267241">
        <ele>1190.7</ele>
        <time>2018-08-20T09:52:44Z</time>
      </trkpt>
      <trkpt lat="43.065447" lon="-1.267179">
        <ele>1190.7</ele>
        <time>2018-08-20T09:52:58Z</time>
      </trkpt>
      <trkpt lat="43.065373" lon="-1.267163">
        <ele>1190.7</ele>
        <time>2018-08-20T09:53:05Z</time>
      </trkpt>
      <trkpt lat="43.065304" lon="-1.267144">
        <ele>1191.2</ele>
        <time>2018-08-20T09:53:11Z</time>
      </trkpt>
      <trkpt lat="43.065067" lon="-1.267064">
        <ele>1190.2</ele>
        <time>2018-08-20T09:53:31Z</time>
      </trkpt>
      <trkpt lat="43.064890" lon="-1.266980">
        <ele>1191.2</ele>
        <time>2018-08-20T09:53:46Z</time>
      </trkpt>
      <trkpt lat="43.064710" lon="-1.266908">
        <ele>1191.2</ele>
        <time>2018-08-20T09:54:01Z</time>
      </trkpt>
      <trkpt lat="43.064638" lon="-1.266889">
        <ele>1190.7</ele>
        <time>2018-08-20T09:54:07Z</time>
      </trkpt>
      <trkpt lat="43.064584" lon="-1.266859">
        <ele>1190.7</ele>
        <time>2018-08-20T09:54:12Z</time>
      </trkpt>
      <trkpt lat="43.064524" lon="-1.266834">
        <ele>1190.7</ele>
        <time>2018-08-20T09:54:17Z</time>
      </trkpt>
      <trkpt lat="43.064468" lon="-1.266826">
        <ele>1191.7</ele>
        <time>2018-08-20T09:54:22Z</time>
      </trkpt>
      <trkpt lat="43.064304" lon="-1.266743">
        <ele>1191.7</ele>
        <time>2018-08-20T09:54:36Z</time>
      </trkpt>
      <trkpt lat="43.064208" lon="-1.266712">
        <ele>1192.2</ele>
        <time>2018-08-20T09:54:44Z</time>
      </trkpt>
      <trkpt lat="43.064087" lon="-1.266660">
        <ele>1192.7</ele>
        <time>2018-08-20T09:54:55Z</time>
      </trkpt>
      <trkpt lat="43.063881" lon="-1.266580">
        <ele>1192.7</ele>
        <time>2018-08-20T09:55:13Z</time>
      </trkpt>
      <trkpt lat="43.063766" lon="-1.266546">
        <ele>1187.8</ele>
        <time>2018-08-20T09:55:23Z</time>
      </trkpt>
      <trkpt lat="43.063756" lon="-1.266540">
        <ele>1192.2</ele>
        <time>2018-08-20T09:55:24Z</time>
      </trkpt>
      <trkpt lat="43.063734" lon="-1.266535">
        <ele>1193.1</ele>
        <time>2018-08-20T09:55:26Z</time>
      </trkpt>
      <trkpt lat="43.063666" lon="-1.266524">
        <ele>1192.2</ele>
        <time>2018-08-20T09:55:32Z</time>
      </trkpt>
      <trkpt lat="43.063471" lon="-1.266499">
        <ele>1192.2</ele>
        <time>2018-08-20T09:55:49Z</time>
      </trkpt>
      <trkpt lat="43.063416" lon="-1.266492">
        <ele>1192.2</ele>
        <time>2018-08-20T09:55:54Z</time>
      </trkpt>
      <trkpt lat="43.063213" lon="-1.266513">
        <ele>1192.2</ele>
        <time>2018-08-20T09:56:11Z</time>
      </trkpt>
      <trkpt lat="43.063048" lon="-1.266560">
        <ele>1191.7</ele>
        <time>2018-08-20T09:56:25Z</time>
      </trkpt>
      <trkpt lat="43.063009" lon="-1.266583">
        <ele>1191.7</ele>
        <time>2018-08-20T09:56:29Z</time>
      </trkpt>
      <trkpt lat="43.062959" lon="-1.266599">
        <ele>1191.7</ele>
        <time>2018-08-20T09:56:34Z</time>
      </trkpt>
      <trkpt lat="43.062906" lon="-1.266619">
        <ele>1191.2</ele>
        <time>2018-08-20T09:56:39Z</time>
      </trkpt>
      <trkpt lat="43.062802" lon="-1.266651">
        <ele>1191.2</ele>
        <time>2018-08-20T09:56:48Z</time>
      </trkpt>
      <trkpt lat="43.062706" lon="-1.266681">
        <ele>1191.2</ele>
        <time>2018-08-20T09:56:56Z</time>
      </trkpt>
      <trkpt lat="43.062645" lon="-1.266706">
        <ele>1191.2</ele>
        <time>2018-08-20T09:57:01Z</time>
      </trkpt>
      <trkpt lat="43.062568" lon="-1.266731">
        <ele>1191.2</ele>
        <time>2018-08-20T09:57:07Z</time>
      </trkpt>
      <trkpt lat="43.062442" lon="-1.266755">
        <ele>1191.2</ele>
        <time>2018-08-20T09:57:18Z</time>
      </trkpt>
      <trkpt lat="43.062421" lon="-1.266764">
        <ele>1191.7</ele>
        <time>2018-08-20T09:57:20Z</time>
      </trkpt>
      <trkpt lat="43.062333" lon="-1.266770">
        <ele>1191.2</ele>
        <time>2018-08-20T09:57:28Z</time>
      </trkpt>
      <trkpt lat="43.062200" lon="-1.266818">
        <ele>1191.7</ele>
        <time>2018-08-20T09:57:43Z</time>
      </trkpt>
      <trkpt lat="43.062198" lon="-1.266824">
        <ele>1191.7</ele>
        <time>2018-08-20T09:57:49Z</time>
      </trkpt>
      <trkpt lat="43.062011" lon="-1.266868">
        <ele>1192.7</ele>
        <time>2018-08-20T09:58:04Z</time>
      </trkpt>
      <trkpt lat="43.062003" lon="-1.266873">
        <ele>1193.1</ele>
        <time>2018-08-20T09:58:05Z</time>
      </trkpt>
      <trkpt lat="43.061946" lon="-1.266887">
        <ele>1192.7</ele>
        <time>2018-08-20T09:58:10Z</time>
      </trkpt>
      <trkpt lat="43.061892" lon="-1.266904">
        <ele>1193.6</ele>
        <time>2018-08-20T09:58:15Z</time>
      </trkpt>
      <trkpt lat="43.061805" lon="-1.266967">
        <ele>1193.6</ele>
        <time>2018-08-20T09:58:25Z</time>
      </trkpt>
      <trkpt lat="43.061787" lon="-1.266971">
        <ele>1194.1</ele>
        <time>2018-08-20T09:58:27Z</time>
      </trkpt>
      <trkpt lat="43.061767" lon="-1.266991">
        <ele>1194.1</ele>
        <time>2018-08-20T09:58:29Z</time>
      </trkpt>
      <trkpt lat="43.061744" lon="-1.267010">
        <ele>1195.1</ele>
        <time>2018-08-20T09:58:32Z</time>
      </trkpt>
      <trkpt lat="43.061663" lon="-1.267116">
        <ele>1196.0</ele>
        <time>2018-08-20T09:58:43Z</time>
      </trkpt>
      <trkpt lat="43.061613" lon="-1.267246">
        <ele>1196.5</ele>
        <time>2018-08-20T09:58:55Z</time>
      </trkpt>
      <trkpt lat="43.061575" lon="-1.267384">
        <ele>1197.9</ele>
        <time>2018-08-20T09:59:08Z</time>
      </trkpt>
      <trkpt lat="43.061534" lon="-1.267561">
        <ele>1198.9</ele>
        <time>2018-08-20T09:59:22Z</time>
      </trkpt>
      <trkpt lat="43.061530" lon="-1.267604">
        <ele>1198.9</ele>
        <time>2018-08-20T09:59:25Z</time>
      </trkpt>
      <trkpt lat="43.061501" lon="-1.267789">
        <ele>1200.3</ele>
        <time>2018-08-20T09:59:37Z</time>
      </trkpt>
      <trkpt lat="43.061497" lon="-1.267858">
        <ele>1201.3</ele>
        <time>2018-08-20T09:59:42Z</time>
      </trkpt>
      <trkpt lat="43.061484" lon="-1.267951">
        <ele>1202.3</ele>
        <time>2018-08-20T09:59:49Z</time>
      </trkpt>
      <trkpt lat="43.061478" lon="-1.267980">
        <ele>1202.3</ele>
        <time>2018-08-20T09:59:51Z</time>
      </trkpt>
      <trkpt lat="43.061465" lon="-1.268007">
        <ele>1202.3</ele>
        <time>2018-08-20T09:59:53Z</time>
      </trkpt>
      <trkpt lat="43.061392" lon="-1.268181">
        <ele>1203.7</ele>
        <time>2018-08-20T10:00:07Z</time>
      </trkpt>
      <trkpt lat="43.061307" lon="-1.268287">
        <ele>1205.2</ele>
        <time>2018-08-20T10:00:18Z</time>
      </trkpt>
      <trkpt lat="43.061252" lon="-1.268318">
        <ele>1205.2</ele>
        <time>2018-08-20T10:00:23Z</time>
      </trkpt>
      <trkpt lat="43.061199" lon="-1.268343">
        <ele>1206.1</ele>
        <time>2018-08-20T10:00:29Z</time>
      </trkpt>
      <trkpt lat="43.061198" lon="-1.268416">
        <ele>1205.6</ele>
        <time>2018-08-20T10:02:11Z</time>
      </trkpt>
      <trkpt lat="43.061224" lon="-1.268492">
        <ele>1205.6</ele>
        <time>2018-08-20T10:10:00Z</time>
      </trkpt>
      <trkpt lat="43.061251" lon="-1.268513">
        <ele>1204.7</ele>
        <time>2018-08-20T10:10:28Z</time>
      </trkpt>
      <trkpt lat="43.061205" lon="-1.268542">
        <ele>1204.2</ele>
        <time>2018-08-20T10:10:39Z</time>
      </trkpt>
      <trkpt lat="43.061186" lon="-1.268553">
        <ele>1206.1</ele>
        <time>2018-08-20T10:10:41Z</time>
      </trkpt>
      <trkpt lat="43.061177" lon="-1.268557">
        <ele>1205.2</ele>
        <time>2018-08-20T10:10:42Z</time>
      </trkpt>
      <trkpt lat="43.061154" lon="-1.268551">
        <ele>1210.0</ele>
        <time>2018-08-20T10:10:45Z</time>
      </trkpt>
      <trkpt lat="43.061161" lon="-1.268541">
        <ele>1205.6</ele>
        <time>2018-08-20T10:10:47Z</time>
      </trkpt>
      <trkpt lat="43.061195" lon="-1.268524">
        <ele>1205.6</ele>
        <time>2018-08-20T10:10:48Z</time>
      </trkpt>
      <trkpt lat="43.061196" lon="-1.268500">
        <ele>1206.6</ele>
        <time>2018-08-20T10:14:32Z</time>
      </trkpt>
      <trkpt lat="43.061193" lon="-1.268484">
        <ele>1207.1</ele>
        <time>2018-08-20T10:14:34Z</time>
      </trkpt>
      <trkpt lat="43.061183" lon="-1.268463">
        <ele>1206.1</ele>
        <time>2018-08-20T10:14:36Z</time>
      </trkpt>
      <trkpt lat="43.061149" lon="-1.268384">
        <ele>1207.1</ele>
        <time>2018-08-20T10:14:48Z</time>
      </trkpt>
      <trkpt lat="43.061136" lon="-1.268379">
        <ele>1207.6</ele>
        <time>2018-08-20T10:14:50Z</time>
      </trkpt>
      <trkpt lat="43.061035" lon="-1.268366">
        <ele>1207.6</ele>
        <time>2018-08-20T10:15:02Z</time>
      </trkpt>
      <trkpt lat="43.060933" lon="-1.268342">
        <ele>1208.5</ele>
        <time>2018-08-20T10:15:15Z</time>
      </trkpt>
      <trkpt lat="43.060861" lon="-1.268328">
        <ele>1210.0</ele>
        <time>2018-08-20T10:15:27Z</time>
      </trkpt>
      <trkpt lat="43.060770" lon="-1.268318">
        <ele>1210.9</ele>
        <time>2018-08-20T10:15:39Z</time>
      </trkpt>
      <trkpt lat="43.060623" lon="-1.268278">
        <ele>1212.4</ele>
        <time>2018-08-20T10:15:55Z</time>
      </trkpt>
      <trkpt lat="43.060515" lon="-1.268258">
        <ele>1213.3</ele>
        <time>2018-08-20T10:16:06Z</time>
      </trkpt>
      <trkpt lat="43.060460" lon="-1.268245">
        <ele>1213.8</ele>
        <time>2018-08-20T10:16:11Z</time>
      </trkpt>
      <trkpt lat="43.060343" lon="-1.268228">
        <ele>1214.3</ele>
        <time>2018-08-20T10:16:25Z</time>
      </trkpt>
      <trkpt lat="43.060257" lon="-1.268229">
        <ele>1214.8</ele>
        <time>2018-08-20T10:16:33Z</time>
      </trkpt>
      <trkpt lat="43.060200" lon="-1.268220">
        <ele>1215.7</ele>
        <time>2018-08-20T10:16:38Z</time>
      </trkpt>
      <trkpt lat="43.060181" lon="-1.268210">
        <ele>1215.7</ele>
        <time>2018-08-20T10:16:40Z</time>
      </trkpt>
      <trkpt lat="43.060048" lon="-1.268200">
        <ele>1217.7</ele>
        <time>2018-08-20T10:16:52Z</time>
      </trkpt>
      <trkpt lat="43.060029" lon="-1.268188">
        <ele>1217.7</ele>
        <time>2018-08-20T10:16:54Z</time>
      </trkpt>
      <trkpt lat="43.059986" lon="-1.268179">
        <ele>1218.1</ele>
        <time>2018-08-20T10:16:58Z</time>
      </trkpt>
      <trkpt lat="43.059875" lon="-1.268149">
        <ele>1218.6</ele>
        <time>2018-08-20T10:17:09Z</time>
      </trkpt>
      <trkpt lat="43.059853" lon="-1.268135">
        <ele>1219.6</ele>
        <time>2018-08-20T10:17:11Z</time>
      </trkpt>
      <trkpt lat="43.059779" lon="-1.268105">
        <ele>1220.1</ele>
        <time>2018-08-20T10:17:18Z</time>
      </trkpt>
      <trkpt lat="43.059676" lon="-1.268030">
        <ele>1221.0</ele>
        <time>2018-08-20T10:17:29Z</time>
      </trkpt>
      <trkpt lat="43.059605" lon="-1.267975">
        <ele>1222.0</ele>
        <time>2018-08-20T10:17:36Z</time>
      </trkpt>
      <trkpt lat="43.059568" lon="-1.267940">
        <ele>1222.0</ele>
        <time>2018-08-20T10:17:40Z</time>
      </trkpt>
      <trkpt lat="43.059473" lon="-1.267859">
        <ele>1222.4</ele>
        <time>2018-08-20T10:17:50Z</time>
      </trkpt>
      <trkpt lat="43.059379" lon="-1.267788">
        <ele>1223.4</ele>
        <time>2018-08-20T10:18:00Z</time>
      </trkpt>
      <trkpt lat="43.059333" lon="-1.267758">
        <ele>1223.9</ele>
        <time>2018-08-20T10:18:04Z</time>
      </trkpt>
      <trkpt lat="43.059261" lon="-1.267701">
        <ele>1223.9</ele>
        <time>2018-08-20T10:18:11Z</time>
      </trkpt>
      <trkpt lat="43.059179" lon="-1.267637">
        <ele>1225.3</ele>
        <time>2018-08-20T10:18:21Z</time>
      </trkpt>
      <trkpt lat="43.059001" lon="-1.267593">
        <ele>1225.8</ele>
        <time>2018-08-20T10:18:37Z</time>
      </trkpt>
      <trkpt lat="43.058970" lon="-1.267567">
        <ele>1225.8</ele>
        <time>2018-08-20T10:18:48Z</time>
      </trkpt>
      <trkpt lat="43.058969" lon="-1.267561">
        <ele>1226.3</ele>
        <time>2018-08-20T10:19:04Z</time>
      </trkpt>
      <trkpt lat="43.058991" lon="-1.267552">
        <ele>1225.3</ele>
        <time>2018-08-20T10:19:20Z</time>
      </trkpt>
      <trkpt lat="43.058944" lon="-1.267506">
        <ele>1225.3</ele>
        <time>2018-08-20T10:19:30Z</time>
      </trkpt>
      <trkpt lat="43.058897" lon="-1.267499">
        <ele>1226.3</ele>
        <time>2018-08-20T10:19:44Z</time>
      </trkpt>
      <trkpt lat="43.058841" lon="-1.267467">
        <ele>1226.8</ele>
        <time>2018-08-20T10:20:00Z</time>
      </trkpt>
      <trkpt lat="43.058765" lon="-1.267418">
        <ele>1228.2</ele>
        <time>2018-08-20T10:20:09Z</time>
      </trkpt>
      <trkpt lat="43.058720" lon="-1.267378">
        <ele>1227.3</ele>
        <time>2018-08-20T10:20:14Z</time>
      </trkpt>
      <trkpt lat="43.058690" lon="-1.267364">
        <ele>1227.7</ele>
        <time>2018-08-20T10:20:17Z</time>
      </trkpt>
      <trkpt lat="43.058669" lon="-1.267345">
        <ele>1227.7</ele>
        <time>2018-08-20T10:20:19Z</time>
      </trkpt>
      <trkpt lat="43.058635" lon="-1.267316">
        <ele>1228.2</ele>
        <time>2018-08-20T10:20:23Z</time>
      </trkpt>
      <trkpt lat="43.058575" lon="-1.267290">
        <ele>1229.2</ele>
        <time>2018-08-20T10:20:29Z</time>
      </trkpt>
      <trkpt lat="43.058528" lon="-1.267263">
        <ele>1229.7</ele>
        <time>2018-08-20T10:20:34Z</time>
      </trkpt>
      <trkpt lat="43.058419" lon="-1.267203">
        <ele>1231.1</ele>
        <time>2018-08-20T10:20:46Z</time>
      </trkpt>
      <trkpt lat="43.058393" lon="-1.267178">
        <ele>1231.6</ele>
        <time>2018-08-20T10:20:49Z</time>
      </trkpt>
      <trkpt lat="43.058277" lon="-1.267117">
        <ele>1232.6</ele>
        <time>2018-08-20T10:21:02Z</time>
      </trkpt>
      <trkpt lat="43.058239" lon="-1.267095">
        <ele>1232.6</ele>
        <time>2018-08-20T10:21:06Z</time>
      </trkpt>
      <trkpt lat="43.058222" lon="-1.267089">
        <ele>1233.0</ele>
        <time>2018-08-20T10:21:09Z</time>
      </trkpt>
      <trkpt lat="43.058176" lon="-1.267065">
        <ele>1234.0</ele>
        <time>2018-08-20T10:21:16Z</time>
      </trkpt>
      <trkpt lat="43.058096" lon="-1.267088">
        <ele>1234.9</ele>
        <time>2018-08-20T10:22:04Z</time>
      </trkpt>
      <trkpt lat="43.058033" lon="-1.267052">
        <ele>1234.9</ele>
        <time>2018-08-20T10:22:13Z</time>
      </trkpt>
      <trkpt lat="43.057956" lon="-1.267042">
        <ele>1235.4</ele>
        <time>2018-08-20T10:22:26Z</time>
      </trkpt>
      <trkpt lat="43.057955" lon="-1.267035">
        <ele>1235.9</ele>
        <time>2018-08-20T10:22:28Z</time>
      </trkpt>
      <trkpt lat="43.057826" lon="-1.266962">
        <ele>1236.4</ele>
        <time>2018-08-20T10:22:40Z</time>
      </trkpt>
      <trkpt lat="43.057743" lon="-1.266940">
        <ele>1236.9</ele>
        <time>2018-08-20T10:22:47Z</time>
      </trkpt>
      <trkpt lat="43.057653" lon="-1.266902">
        <ele>1237.3</ele>
        <time>2018-08-20T10:22:57Z</time>
      </trkpt>
      <trkpt lat="43.057591" lon="-1.266881">
        <ele>1238.3</ele>
        <time>2018-08-20T10:23:04Z</time>
      </trkpt>
      <trkpt lat="43.057436" lon="-1.266788">
        <ele>1239.8</ele>
        <time>2018-08-20T10:23:19Z</time>
      </trkpt>
      <trkpt lat="43.057339" lon="-1.266742">
        <ele>1241.2</ele>
        <time>2018-08-20T10:23:28Z</time>
      </trkpt>
      <trkpt lat="43.057263" lon="-1.266697">
        <ele>1242.2</ele>
        <time>2018-08-20T10:23:36Z</time>
      </trkpt>
      <trkpt lat="43.057247" lon="-1.266683">
        <ele>1242.6</ele>
        <time>2018-08-20T10:23:38Z</time>
      </trkpt>
      <trkpt lat="43.057226" lon="-1.266676">
        <ele>1242.2</ele>
        <time>2018-08-20T10:23:40Z</time>
      </trkpt>
      <trkpt lat="43.057198" lon="-1.266654">
        <ele>1243.1</ele>
        <time>2018-08-20T10:23:43Z</time>
      </trkpt>
      <trkpt lat="43.057164" lon="-1.266631">
        <ele>1242.6</ele>
        <time>2018-08-20T10:23:46Z</time>
      </trkpt>
      <trkpt lat="43.057119" lon="-1.266601">
        <ele>1243.1</ele>
        <time>2018-08-20T10:23:51Z</time>
      </trkpt>
      <trkpt lat="43.057073" lon="-1.266585">
        <ele>1243.6</ele>
        <time>2018-08-20T10:23:55Z</time>
      </trkpt>
      <trkpt lat="43.057052" lon="-1.266569">
        <ele>1244.1</ele>
        <time>2018-08-20T10:23:57Z</time>
      </trkpt>
      <trkpt lat="43.056996" lon="-1.266534">
        <ele>1245.5</ele>
        <time>2018-08-20T10:24:03Z</time>
      </trkpt>
      <trkpt lat="43.056979" lon="-1.266528">
        <ele>1246.0</ele>
        <time>2018-08-20T10:24:05Z</time>
      </trkpt>
      <trkpt lat="43.056958" lon="-1.266516">
        <ele>1246.0</ele>
        <time>2018-08-20T10:24:07Z</time>
      </trkpt>
      <trkpt lat="43.056916" lon="-1.266481">
        <ele>1246.5</ele>
        <time>2018-08-20T10:24:12Z</time>
      </trkpt>
      <trkpt lat="43.056871" lon="-1.266482">
        <ele>1247.0</ele>
        <time>2018-08-20T10:24:17Z</time>
      </trkpt>
      <trkpt lat="43.056804" lon="-1.266445">
        <ele>1248.4</ele>
        <time>2018-08-20T10:24:24Z</time>
      </trkpt>
      <trkpt lat="43.056788" lon="-1.266427">
        <ele>1248.4</ele>
        <time>2018-08-20T10:24:26Z</time>
      </trkpt>
      <trkpt lat="43.056775" lon="-1.266417">
        <ele>1248.9</ele>
        <time>2018-08-20T10:24:28Z</time>
      </trkpt>
      <trkpt lat="43.056667" lon="-1.266414">
        <ele>1249.8</ele>
        <time>2018-08-20T10:24:40Z</time>
      </trkpt>
      <trkpt lat="43.056633" lon="-1.266380">
        <ele>1250.3</ele>
        <time>2018-08-20T10:24:45Z</time>
      </trkpt>
      <trkpt lat="43.056513" lon="-1.266307">
        <ele>1251.8</ele>
        <time>2018-08-20T10:24:58Z</time>
      </trkpt>
      <trkpt lat="43.056410" lon="-1.266265">
        <ele>1252.7</ele>
        <time>2018-08-20T10:25:09Z</time>
      </trkpt>
      <trkpt lat="43.056402" lon="-1.266265">
        <ele>1253.2</ele>
        <time>2018-08-20T10:25:10Z</time>
      </trkpt>
      <trkpt lat="43.056384" lon="-1.266265">
        <ele>1253.2</ele>
        <time>2018-08-20T10:25:12Z</time>
      </trkpt>
      <trkpt lat="43.056357" lon="-1.266255">
        <ele>1253.7</ele>
        <time>2018-08-20T10:25:15Z</time>
      </trkpt>
      <trkpt lat="43.056288" lon="-1.266244">
        <ele>1255.6</ele>
        <time>2018-08-20T10:25:24Z</time>
      </trkpt>
      <trkpt lat="43.056238" lon="-1.266221">
        <ele>1256.6</ele>
        <time>2018-08-20T10:25:30Z</time>
      </trkpt>
      <trkpt lat="43.056217" lon="-1.266211">
        <ele>1256.1</ele>
        <time>2018-08-20T10:25:32Z</time>
      </trkpt>
      <trkpt lat="43.056202" lon="-1.266198">
        <ele>1257.1</ele>
        <time>2018-08-20T10:25:34Z</time>
      </trkpt>
      <trkpt lat="43.056110" lon="-1.266187">
        <ele>1259.0</ele>
        <time>2018-08-20T10:25:44Z</time>
      </trkpt>
      <trkpt lat="43.056065" lon="-1.266152">
        <ele>1259.5</ele>
        <time>2018-08-20T10:25:49Z</time>
      </trkpt>
      <trkpt lat="43.055993" lon="-1.266135">
        <ele>1260.4</ele>
        <time>2018-08-20T10:25:57Z</time>
      </trkpt>
      <trkpt lat="43.055951" lon="-1.266140">
        <ele>1260.9</ele>
        <time>2018-08-20T10:26:02Z</time>
      </trkpt>
      <trkpt lat="43.055921" lon="-1.266132">
        <ele>1261.9</ele>
        <time>2018-08-20T10:26:06Z</time>
      </trkpt>
      <trkpt lat="43.055899" lon="-1.266120">
        <ele>1262.3</ele>
        <time>2018-08-20T10:26:09Z</time>
      </trkpt>
      <trkpt lat="43.055875" lon="-1.266110">
        <ele>1262.3</ele>
        <time>2018-08-20T10:26:12Z</time>
      </trkpt>
      <trkpt lat="43.055789" lon="-1.266105">
        <ele>1264.3</ele>
        <time>2018-08-20T10:26:21Z</time>
      </trkpt>
      <trkpt lat="43.055707" lon="-1.266112">
        <ele>1265.7</ele>
        <time>2018-08-20T10:26:31Z</time>
      </trkpt>
      <trkpt lat="43.055640" lon="-1.266101">
        <ele>1267.2</ele>
        <time>2018-08-20T10:26:42Z</time>
      </trkpt>
      <trkpt lat="43.055618" lon="-1.266108">
        <ele>1267.2</ele>
        <time>2018-08-20T10:26:47Z</time>
      </trkpt>
      <trkpt lat="43.055533" lon="-1.266166">
        <ele>1268.6</ele>
        <time>2018-08-20T10:26:58Z</time>
      </trkpt>
      <trkpt lat="43.055484" lon="-1.266185">
        <ele>1271.5</ele>
        <time>2018-08-20T10:27:08Z</time>
      </trkpt>
      <trkpt lat="43.055476" lon="-1.266184">
        <ele>1271.0</ele>
        <time>2018-08-20T10:27:10Z</time>
      </trkpt>
      <trkpt lat="43.055413" lon="-1.266235">
        <ele>1273.4</ele>
        <time>2018-08-20T10:27:21Z</time>
      </trkpt>
      <trkpt lat="43.055386" lon="-1.266252">
        <ele>1273.9</ele>
        <time>2018-08-20T10:27:26Z</time>
      </trkpt>
      <trkpt lat="43.055338" lon="-1.266246">
        <ele>1275.3</ele>
        <time>2018-08-20T10:27:37Z</time>
      </trkpt>
      <trkpt lat="43.055300" lon="-1.266241">
        <ele>1275.8</ele>
        <time>2018-08-20T10:27:45Z</time>
      </trkpt>
      <trkpt lat="43.055262" lon="-1.266227">
        <ele>1277.7</ele>
        <time>2018-08-20T10:27:56Z</time>
      </trkpt>
      <trkpt lat="43.055168" lon="-1.266244">
        <ele>1280.1</ele>
        <time>2018-08-20T10:28:06Z</time>
      </trkpt>
      <trkpt lat="43.055107" lon="-1.266320">
        <ele>1282.1</ele>
        <time>2018-08-20T10:28:17Z</time>
      </trkpt>
      <trkpt lat="43.055057" lon="-1.266391">
        <ele>1284.0</ele>
        <time>2018-08-20T10:28:29Z</time>
      </trkpt>
      <trkpt lat="43.055012" lon="-1.266461">
        <ele>1285.4</ele>
        <time>2018-08-20T10:28:40Z</time>
      </trkpt>
      <trkpt lat="43.054983" lon="-1.266521">
        <ele>1287.3</ele>
        <time>2018-08-20T10:28:51Z</time>
      </trkpt>
      <trkpt lat="43.054955" lon="-1.266562">
        <ele>1288.8</ele>
        <time>2018-08-20T10:28:58Z</time>
      </trkpt>
      <trkpt lat="43.054935" lon="-1.266613">
        <ele>1289.3</ele>
        <time>2018-08-20T10:29:03Z</time>
      </trkpt>
      <trkpt lat="43.054920" lon="-1.266644">
        <ele>1289.8</ele>
        <time>2018-08-20T10:29:07Z</time>
      </trkpt>
      <trkpt lat="43.054885" lon="-1.266726">
        <ele>1291.2</ele>
        <time>2018-08-20T10:29:18Z</time>
      </trkpt>
      <trkpt lat="43.054851" lon="-1.266792">
        <ele>1290.2</ele>
        <time>2018-08-20T10:29:29Z</time>
      </trkpt>
      <trkpt lat="43.054820" lon="-1.266819">
        <ele>1290.2</ele>
        <time>2018-08-20T10:29:52Z</time>
      </trkpt>
      <trkpt lat="43.054789" lon="-1.266814">
        <ele>1290.7</ele>
        <time>2018-08-20T10:30:04Z</time>
      </trkpt>
      <trkpt lat="43.054741" lon="-1.266825">
        <ele>1290.7</ele>
        <time>2018-08-20T10:30:08Z</time>
      </trkpt>
      <trkpt lat="43.054711" lon="-1.266844">
        <ele>1291.2</ele>
        <time>2018-08-20T10:30:11Z</time>
      </trkpt>
      <trkpt lat="43.054602" lon="-1.266897">
        <ele>1292.6</ele>
        <time>2018-08-20T10:30:24Z</time>
      </trkpt>
      <trkpt lat="43.054598" lon="-1.266896">
        <ele>1292.6</ele>
        <time>2018-08-20T10:30:26Z</time>
      </trkpt>
      <trkpt lat="43.054514" lon="-1.266908">
        <ele>1291.7</ele>
        <time>2018-08-20T10:30:34Z</time>
      </trkpt>
      <trkpt lat="43.054408" lon="-1.266937">
        <ele>1290.7</ele>
        <time>2018-08-20T10:30:43Z</time>
      </trkpt>
      <trkpt lat="43.054339" lon="-1.266979">
        <ele>1289.3</ele>
        <time>2018-08-20T10:30:50Z</time>
      </trkpt>
      <trkpt lat="43.054238" lon="-1.267019">
        <ele>1288.3</ele>
        <time>2018-08-20T10:30:59Z</time>
      </trkpt>
      <trkpt lat="43.054205" lon="-1.267049">
        <ele>1288.3</ele>
        <time>2018-08-20T10:31:03Z</time>
      </trkpt>
      <trkpt lat="43.054106" lon="-1.267110">
        <ele>1288.3</ele>
        <time>2018-08-20T10:31:13Z</time>
      </trkpt>
      <trkpt lat="43.054089" lon="-1.267124">
        <ele>1288.8</ele>
        <time>2018-08-20T10:31:15Z</time>
      </trkpt>
      <trkpt lat="43.054031" lon="-1.267150">
        <ele>1288.3</ele>
        <time>2018-08-20T10:31:20Z</time>
      </trkpt>
      <trkpt lat="43.053939" lon="-1.267195">
        <ele>1287.8</ele>
        <time>2018-08-20T10:31:29Z</time>
      </trkpt>
      <trkpt lat="43.053879" lon="-1.267195">
        <ele>1287.3</ele>
        <time>2018-08-20T10:31:35Z</time>
      </trkpt>
      <trkpt lat="43.053766" lon="-1.267248">
        <ele>1284.5</ele>
        <time>2018-08-20T10:31:47Z</time>
      </trkpt>
      <trkpt lat="43.053756" lon="-1.267250">
        <ele>1289.3</ele>
        <time>2018-08-20T10:31:48Z</time>
      </trkpt>
      <trkpt lat="43.053747" lon="-1.267253">
        <ele>1287.3</ele>
        <time>2018-08-20T10:31:49Z</time>
      </trkpt>
      <trkpt lat="43.053740" lon="-1.267254">
        <ele>1286.9</ele>
        <time>2018-08-20T10:31:50Z</time>
      </trkpt>
      <trkpt lat="43.053684" lon="-1.267282">
        <ele>1287.3</ele>
        <time>2018-08-20T10:31:56Z</time>
      </trkpt>
      <trkpt lat="43.053569" lon="-1.267325">
        <ele>1287.3</ele>
        <time>2018-08-20T10:32:08Z</time>
      </trkpt>
      <trkpt lat="43.053559" lon="-1.267328">
        <ele>1286.9</ele>
        <time>2018-08-20T10:32:09Z</time>
      </trkpt>
      <trkpt lat="43.053536" lon="-1.267324">
        <ele>1287.3</ele>
        <time>2018-08-20T10:32:11Z</time>
      </trkpt>
      <trkpt lat="43.053400" lon="-1.267381">
        <ele>1286.9</ele>
        <time>2018-08-20T10:32:26Z</time>
      </trkpt>
      <trkpt lat="43.053297" lon="-1.267422">
        <ele>1286.9</ele>
        <time>2018-08-20T10:32:38Z</time>
      </trkpt>
      <trkpt lat="43.053281" lon="-1.267421">
        <ele>1286.9</ele>
        <time>2018-08-20T10:32:40Z</time>
      </trkpt>
      <trkpt lat="43.053209" lon="-1.267430">
        <ele>1286.9</ele>
        <time>2018-08-20T10:32:47Z</time>
      </trkpt>
      <trkpt lat="43.053132" lon="-1.267443">
        <ele>1287.8</ele>
        <time>2018-08-20T10:32:55Z</time>
      </trkpt>
      <trkpt lat="43.053109" lon="-1.267435">
        <ele>1287.3</ele>
        <time>2018-08-20T10:32:57Z</time>
      </trkpt>
      <trkpt lat="43.053078" lon="-1.267442">
        <ele>1287.8</ele>
        <time>2018-08-20T10:33:00Z</time>
      </trkpt>
      <trkpt lat="43.052988" lon="-1.267442">
        <ele>1288.8</ele>
        <time>2018-08-20T10:33:09Z</time>
      </trkpt>
      <trkpt lat="43.052867" lon="-1.267452">
        <ele>1289.3</ele>
        <time>2018-08-20T10:33:22Z</time>
      </trkpt>
      <trkpt lat="43.052774" lon="-1.267487">
        <ele>1287.3</ele>
        <time>2018-08-20T10:33:33Z</time>
      </trkpt>
      <trkpt lat="43.052632" lon="-1.267537">
        <ele>1286.4</ele>
        <time>2018-08-20T10:33:48Z</time>
      </trkpt>
      <trkpt lat="43.052504" lon="-1.267581">
        <ele>1285.9</ele>
        <time>2018-08-20T10:34:00Z</time>
      </trkpt>
      <trkpt lat="43.052466" lon="-1.267590">
        <ele>1284.9</ele>
        <time>2018-08-20T10:34:04Z</time>
      </trkpt>
      <trkpt lat="43.052438" lon="-1.267610">
        <ele>1285.4</ele>
        <time>2018-08-20T10:34:08Z</time>
      </trkpt>
      <trkpt lat="43.052368" lon="-1.267614">
        <ele>1284.9</ele>
        <time>2018-08-20T10:34:14Z</time>
      </trkpt>
      <trkpt lat="43.052323" lon="-1.267612">
        <ele>1284.5</ele>
        <time>2018-08-20T10:34:19Z</time>
      </trkpt>
      <trkpt lat="43.052180" lon="-1.267634">
        <ele>1283.5</ele>
        <time>2018-08-20T10:34:33Z</time>
      </trkpt>
      <trkpt lat="43.052145" lon="-1.267626">
        <ele>1283.0</ele>
        <time>2018-08-20T10:34:36Z</time>
      </trkpt>
      <trkpt lat="43.052045" lon="-1.267640">
        <ele>1283.5</ele>
        <time>2018-08-20T10:34:46Z</time>
      </trkpt>
      <trkpt lat="43.051919" lon="-1.267659">
        <ele>1282.5</ele>
        <time>2018-08-20T10:34:59Z</time>
      </trkpt>
      <trkpt lat="43.051842" lon="-1.267695">
        <ele>1283.0</ele>
        <time>2018-08-20T10:35:11Z</time>
      </trkpt>
      <trkpt lat="43.051744" lon="-1.267738">
        <ele>1283.0</ele>
        <time>2018-08-20T10:35:23Z</time>
      </trkpt>
      <trkpt lat="43.051713" lon="-1.267757">
        <ele>1282.5</ele>
        <time>2018-08-20T10:35:37Z</time>
      </trkpt>
      <trkpt lat="43.051605" lon="-1.267773">
        <ele>1283.5</ele>
        <time>2018-08-20T10:35:50Z</time>
      </trkpt>
      <trkpt lat="43.051494" lon="-1.267813">
        <ele>1283.0</ele>
        <time>2018-08-20T10:36:00Z</time>
      </trkpt>
      <trkpt lat="43.051356" lon="-1.267882">
        <ele>1284.5</ele>
        <time>2018-08-20T10:36:13Z</time>
      </trkpt>
      <trkpt lat="43.051185" lon="-1.267959">
        <ele>1284.9</ele>
        <time>2018-08-20T10:36:29Z</time>
      </trkpt>
      <trkpt lat="43.051163" lon="-1.267956">
        <ele>1285.9</ele>
        <time>2018-08-20T10:36:32Z</time>
      </trkpt>
      <trkpt lat="43.051109" lon="-1.267975">
        <ele>1286.4</ele>
        <time>2018-08-20T10:36:38Z</time>
      </trkpt>
      <trkpt lat="43.051011" lon="-1.268003">
        <ele>1287.3</ele>
        <time>2018-08-20T10:36:48Z</time>
      </trkpt>
      <trkpt lat="43.050991" lon="-1.268010">
        <ele>1287.3</ele>
        <time>2018-08-20T10:36:50Z</time>
      </trkpt>
      <trkpt lat="43.050974" lon="-1.268021">
        <ele>1287.3</ele>
        <time>2018-08-20T10:36:52Z</time>
      </trkpt>
      <trkpt lat="43.050834" lon="-1.268123">
        <ele>1285.9</ele>
        <time>2018-08-20T10:37:08Z</time>
      </trkpt>
      <trkpt lat="43.050797" lon="-1.268201">
        <ele>1285.4</ele>
        <time>2018-08-20T10:37:14Z</time>
      </trkpt>
      <trkpt lat="43.050792" lon="-1.268218">
        <ele>1285.4</ele>
        <time>2018-08-20T10:37:16Z</time>
      </trkpt>
      <trkpt lat="43.050734" lon="-1.268279">
        <ele>1286.4</ele>
        <time>2018-08-20T10:37:27Z</time>
      </trkpt>
      <trkpt lat="43.050698" lon="-1.268296">
        <ele>1286.4</ele>
        <time>2018-08-20T10:37:31Z</time>
      </trkpt>
      <trkpt lat="43.050615" lon="-1.268327">
        <ele>1287.3</ele>
        <time>2018-08-20T10:37:42Z</time>
      </trkpt>
      <trkpt lat="43.050558" lon="-1.268366">
        <ele>1288.3</ele>
        <time>2018-08-20T10:37:53Z</time>
      </trkpt>
      <trkpt lat="43.050534" lon="-1.268365">
        <ele>1288.8</ele>
        <time>2018-08-20T10:37:56Z</time>
      </trkpt>
      <trkpt lat="43.050390" lon="-1.268382">
        <ele>1290.7</ele>
        <time>2018-08-20T10:39:32Z</time>
      </trkpt>
      <trkpt lat="43.050315" lon="-1.268339">
        <ele>1291.7</ele>
        <time>2018-08-20T10:39:43Z</time>
      </trkpt>
      <trkpt lat="43.050280" lon="-1.268318">
        <ele>1292.2</ele>
        <time>2018-08-20T10:39:47Z</time>
      </trkpt>
      <trkpt lat="43.050199" lon="-1.268264">
        <ele>1292.6</ele>
        <time>2018-08-20T10:39:57Z</time>
      </trkpt>
      <trkpt lat="43.050145" lon="-1.268227">
        <ele>1294.1</ele>
        <time>2018-08-20T10:40:03Z</time>
      </trkpt>
      <trkpt lat="43.050101" lon="-1.268187">
        <ele>1294.1</ele>
        <time>2018-08-20T10:40:08Z</time>
      </trkpt>
      <trkpt lat="43.050055" lon="-1.268147">
        <ele>1295.0</ele>
        <time>2018-08-20T10:40:15Z</time>
      </trkpt>
      <trkpt lat="43.049923" lon="-1.268052">
        <ele>1296.5</ele>
        <time>2018-08-20T10:40:28Z</time>
      </trkpt>
      <trkpt lat="43.049898" lon="-1.268017">
        <ele>1297.0</ele>
        <time>2018-08-20T10:40:33Z</time>
      </trkpt>
      <trkpt lat="43.049861" lon="-1.267975">
        <ele>1298.4</ele>
        <time>2018-08-20T10:40:39Z</time>
      </trkpt>
      <trkpt lat="43.049803" lon="-1.267822">
        <ele>1298.9</ele>
        <time>2018-08-20T10:40:53Z</time>
      </trkpt>
      <trkpt lat="43.049769" lon="-1.267732">
        <ele>1299.4</ele>
        <time>2018-08-20T10:41:07Z</time>
      </trkpt>
      <trkpt lat="43.049720" lon="-1.267609">
        <ele>1299.4</ele>
        <time>2018-08-20T10:41:22Z</time>
      </trkpt>
      <trkpt lat="43.049683" lon="-1.267502">
        <ele>1300.3</ele>
        <time>2018-08-20T10:41:33Z</time>
      </trkpt>
      <trkpt lat="43.049681" lon="-1.267453">
        <ele>1300.8</ele>
        <time>2018-08-20T10:41:37Z</time>
      </trkpt>
      <trkpt lat="43.049641" lon="-1.267389">
        <ele>1300.3</ele>
        <time>2018-08-20T10:41:43Z</time>
      </trkpt>
      <trkpt lat="43.049611" lon="-1.267350">
        <ele>1300.3</ele>
        <time>2018-08-20T10:41:47Z</time>
      </trkpt>
      <trkpt lat="43.049496" lon="-1.267187">
        <ele>1301.3</ele>
        <time>2018-08-20T10:42:01Z</time>
      </trkpt>
      <trkpt lat="43.049467" lon="-1.267147">
        <ele>1301.3</ele>
        <time>2018-08-20T10:42:05Z</time>
      </trkpt>
      <trkpt lat="43.049359" lon="-1.266977">
        <ele>1300.8</ele>
        <time>2018-08-20T10:42:19Z</time>
      </trkpt>
      <trkpt lat="43.049348" lon="-1.266951">
        <ele>1301.3</ele>
        <time>2018-08-20T10:42:21Z</time>
      </trkpt>
      <trkpt lat="43.049315" lon="-1.266907">
        <ele>1301.3</ele>
        <time>2018-08-20T10:42:25Z</time>
      </trkpt>
      <trkpt lat="43.049302" lon="-1.266885">
        <ele>1301.3</ele>
        <time>2018-08-20T10:42:27Z</time>
      </trkpt>
      <trkpt lat="43.049229" lon="-1.266779">
        <ele>1301.3</ele>
        <time>2018-08-20T10:42:36Z</time>
      </trkpt>
      <trkpt lat="43.049206" lon="-1.266740">
        <ele>1301.3</ele>
        <time>2018-08-20T10:42:39Z</time>
      </trkpt>
      <trkpt lat="43.049091" lon="-1.266618">
        <ele>1302.2</ele>
        <time>2018-08-20T10:42:51Z</time>
      </trkpt>
      <trkpt lat="43.048962" lon="-1.266479">
        <ele>1302.2</ele>
        <time>2018-08-20T10:43:05Z</time>
      </trkpt>
      <trkpt lat="43.048899" lon="-1.266394">
        <ele>1302.2</ele>
        <time>2018-08-20T10:43:12Z</time>
      </trkpt>
      <trkpt lat="43.048795" lon="-1.266257">
        <ele>1303.2</ele>
        <time>2018-08-20T10:43:24Z</time>
      </trkpt>
      <trkpt lat="43.048680" lon="-1.266090">
        <ele>1302.2</ele>
        <time>2018-08-20T10:43:39Z</time>
      </trkpt>
      <trkpt lat="43.048561" lon="-1.265917">
        <ele>1302.7</ele>
        <time>2018-08-20T10:43:55Z</time>
      </trkpt>
      <trkpt lat="43.048469" lon="-1.265831">
        <ele>1303.7</ele>
        <time>2018-08-20T10:44:07Z</time>
      </trkpt>
      <trkpt lat="43.048400" lon="-1.265746">
        <ele>1303.7</ele>
        <time>2018-08-20T10:44:15Z</time>
      </trkpt>
      <trkpt lat="43.048355" lon="-1.265717">
        <ele>1304.2</ele>
        <time>2018-08-20T10:44:20Z</time>
      </trkpt>
      <trkpt lat="43.048331" lon="-1.265687">
        <ele>1304.2</ele>
        <time>2018-08-20T10:44:23Z</time>
      </trkpt>
      <trkpt lat="43.048297" lon="-1.265670">
        <ele>1303.7</ele>
        <time>2018-08-20T10:44:26Z</time>
      </trkpt>
      <trkpt lat="43.048286" lon="-1.265650">
        <ele>1304.2</ele>
        <time>2018-08-20T10:44:28Z</time>
      </trkpt>
      <trkpt lat="43.048131" lon="-1.265531">
        <ele>1305.1</ele>
        <time>2018-08-20T10:44:43Z</time>
      </trkpt>
      <trkpt lat="43.048067" lon="-1.265457">
        <ele>1305.1</ele>
        <time>2018-08-20T10:44:51Z</time>
      </trkpt>
      <trkpt lat="43.048045" lon="-1.265435">
        <ele>1305.1</ele>
        <time>2018-08-20T10:44:54Z</time>
      </trkpt>
      <trkpt lat="43.047991" lon="-1.265396">
        <ele>1305.6</ele>
        <time>2018-08-20T10:45:00Z</time>
      </trkpt>
      <trkpt lat="43.047931" lon="-1.265357">
        <ele>1303.7</ele>
        <time>2018-08-20T10:45:06Z</time>
      </trkpt>
      <trkpt lat="43.047895" lon="-1.265341">
        <ele>1304.7</ele>
        <time>2018-08-20T10:45:09Z</time>
      </trkpt>
      <trkpt lat="43.047796" lon="-1.265264">
        <ele>1305.6</ele>
        <time>2018-08-20T10:45:21Z</time>
      </trkpt>
      <trkpt lat="43.047736" lon="-1.265247">
        <ele>1305.1</ele>
        <time>2018-08-20T10:45:33Z</time>
      </trkpt>
      <trkpt lat="43.047630" lon="-1.265200">
        <ele>1306.6</ele>
        <time>2018-08-20T10:45:46Z</time>
      </trkpt>
      <trkpt lat="43.047522" lon="-1.265133">
        <ele>1307.1</ele>
        <time>2018-08-20T10:46:56Z</time>
      </trkpt>
      <trkpt lat="43.047473" lon="-1.265097">
        <ele>1307.1</ele>
        <time>2018-08-20T10:47:01Z</time>
      </trkpt>
      <trkpt lat="43.047322" lon="-1.265028">
        <ele>1307.1</ele>
        <time>2018-08-20T10:47:14Z</time>
      </trkpt>
      <trkpt lat="43.047298" lon="-1.265000">
        <ele>1307.1</ele>
        <time>2018-08-20T10:47:17Z</time>
      </trkpt>
      <trkpt lat="43.047272" lon="-1.264989">
        <ele>1307.5</ele>
        <time>2018-08-20T10:47:20Z</time>
      </trkpt>
      <trkpt lat="43.047238" lon="-1.264956">
        <ele>1308.0</ele>
        <time>2018-08-20T10:47:24Z</time>
      </trkpt>
      <trkpt lat="43.047123" lon="-1.264847">
        <ele>1307.5</ele>
        <time>2018-08-20T10:51:23Z</time>
      </trkpt>
      <trkpt lat="43.047003" lon="-1.264788">
        <ele>1309.0</ele>
        <time>2018-08-20T10:51:36Z</time>
      </trkpt>
      <trkpt lat="43.046992" lon="-1.264780">
        <ele>1309.0</ele>
        <time>2018-08-20T10:51:37Z</time>
      </trkpt>
      <trkpt lat="43.046975" lon="-1.264761">
        <ele>1309.0</ele>
        <time>2018-08-20T10:51:39Z</time>
      </trkpt>
      <trkpt lat="43.046910" lon="-1.264738">
        <ele>1309.4</ele>
        <time>2018-08-20T10:51:47Z</time>
      </trkpt>
      <trkpt lat="43.046808" lon="-1.264736">
        <ele>1309.9</ele>
        <time>2018-08-20T10:58:51Z</time>
      </trkpt>
      <trkpt lat="43.046681" lon="-1.264730">
        <ele>1308.5</ele>
        <time>2018-08-20T11:00:00Z</time>
      </trkpt>
      <trkpt lat="43.046650" lon="-1.264737">
        <ele>1309.4</ele>
        <time>2018-08-20T11:00:12Z</time>
      </trkpt>
      <trkpt lat="43.046629" lon="-1.264721">
        <ele>1309.4</ele>
        <time>2018-08-20T11:00:14Z</time>
      </trkpt>
      <trkpt lat="43.046469" lon="-1.264714">
        <ele>1309.0</ele>
        <time>2018-08-20T11:00:29Z</time>
      </trkpt>
      <trkpt lat="43.046424" lon="-1.264717">
        <ele>1308.5</ele>
        <time>2018-08-20T11:00:33Z</time>
      </trkpt>
      <trkpt lat="43.046306" lon="-1.264724">
        <ele>1309.0</ele>
        <time>2018-08-20T11:00:43Z</time>
      </trkpt>
      <trkpt lat="43.046282" lon="-1.264718">
        <ele>1309.4</ele>
        <time>2018-08-20T11:00:45Z</time>
      </trkpt>
      <trkpt lat="43.046186" lon="-1.264726">
        <ele>1309.4</ele>
        <time>2018-08-20T11:00:53Z</time>
      </trkpt>
      <trkpt lat="43.046050" lon="-1.264746">
        <ele>1309.9</ele>
        <time>2018-08-20T11:01:06Z</time>
      </trkpt>
      <trkpt lat="43.045886" lon="-1.264763">
        <ele>1310.4</ele>
        <time>2018-08-20T11:01:21Z</time>
      </trkpt>
      <trkpt lat="43.045819" lon="-1.264762">
        <ele>1310.9</ele>
        <time>2018-08-20T11:01:28Z</time>
      </trkpt>
      <trkpt lat="43.045790" lon="-1.264780">
        <ele>1310.4</ele>
        <time>2018-08-20T11:01:40Z</time>
      </trkpt>
      <trkpt lat="43.045728" lon="-1.264779">
        <ele>1311.9</ele>
        <time>2018-08-20T11:01:52Z</time>
      </trkpt>
      <trkpt lat="43.045704" lon="-1.264787">
        <ele>1311.4</ele>
        <time>2018-08-20T11:01:55Z</time>
      </trkpt>
      <trkpt lat="43.045646" lon="-1.264810">
        <ele>1311.9</ele>
        <time>2018-08-20T11:02:00Z</time>
      </trkpt>
      <trkpt lat="43.045573" lon="-1.264824">
        <ele>1312.3</ele>
        <time>2018-08-20T11:02:07Z</time>
      </trkpt>
      <trkpt lat="43.045541" lon="-1.264846">
        <ele>1312.3</ele>
        <time>2018-08-20T11:02:10Z</time>
      </trkpt>
      <trkpt lat="43.045470" lon="-1.264875">
        <ele>1311.4</ele>
        <time>2018-08-20T11:02:18Z</time>
      </trkpt>
      <trkpt lat="43.045397" lon="-1.264883">
        <ele>1313.3</ele>
        <time>2018-08-20T11:02:32Z</time>
      </trkpt>
      <trkpt lat="43.045372" lon="-1.264879">
        <ele>1313.3</ele>
        <time>2018-08-20T11:02:46Z</time>
      </trkpt>
      <trkpt lat="43.045370" lon="-1.264863">
        <ele>1314.3</ele>
        <time>2018-08-20T11:02:49Z</time>
      </trkpt>
      <trkpt lat="43.045292" lon="-1.264848">
        <ele>1315.2</ele>
        <time>2018-08-20T11:03:01Z</time>
      </trkpt>
      <trkpt lat="43.045288" lon="-1.264849">
        <ele>1314.7</ele>
        <time>2018-08-20T11:03:02Z</time>
      </trkpt>
      <trkpt lat="43.045263" lon="-1.264863">
        <ele>1315.7</ele>
        <time>2018-08-20T11:03:05Z</time>
      </trkpt>
      <trkpt lat="43.045210" lon="-1.264866">
        <ele>1316.7</ele>
        <time>2018-08-20T11:03:15Z</time>
      </trkpt>
      <trkpt lat="43.045206" lon="-1.264869">
        <ele>1316.7</ele>
        <time>2018-08-20T11:03:24Z</time>
      </trkpt>
      <trkpt lat="43.045111" lon="-1.264988">
        <ele>1318.1</ele>
        <time>2018-08-20T11:03:37Z</time>
      </trkpt>
      <trkpt lat="43.045098" lon="-1.264998">
        <ele>1318.6</ele>
        <time>2018-08-20T11:03:42Z</time>
      </trkpt>
      <trkpt lat="43.045069" lon="-1.265021">
        <ele>1318.6</ele>
        <time>2018-08-20T11:03:46Z</time>
      </trkpt>
      <trkpt lat="43.044991" lon="-1.265140">
        <ele>1320.5</ele>
        <time>2018-08-20T11:03:59Z</time>
      </trkpt>
      <trkpt lat="43.044974" lon="-1.265157">
        <ele>1320.5</ele>
        <time>2018-08-20T11:04:01Z</time>
      </trkpt>
      <trkpt lat="43.044929" lon="-1.265216">
        <ele>1321.0</ele>
        <time>2018-08-20T11:04:08Z</time>
      </trkpt>
      <trkpt lat="43.044917" lon="-1.265235">
        <ele>1321.0</ele>
        <time>2018-08-20T11:04:10Z</time>
      </trkpt>
      <trkpt lat="43.044818" lon="-1.265394">
        <ele>1321.9</ele>
        <time>2018-08-20T11:04:24Z</time>
      </trkpt>
      <trkpt lat="43.044756" lon="-1.265590">
        <ele>1322.9</ele>
        <time>2018-08-20T11:04:38Z</time>
      </trkpt>
      <trkpt lat="43.044748" lon="-1.265639">
        <ele>1322.4</ele>
        <time>2018-08-20T11:04:41Z</time>
      </trkpt>
      <trkpt lat="43.044732" lon="-1.265707">
        <ele>1322.9</ele>
        <time>2018-08-20T11:04:46Z</time>
      </trkpt>
      <trkpt lat="43.044685" lon="-1.265939">
        <ele>1322.4</ele>
        <time>2018-08-20T11:05:02Z</time>
      </trkpt>
      <trkpt lat="43.044687" lon="-1.265992">
        <ele>1322.4</ele>
        <time>2018-08-20T11:05:20Z</time>
      </trkpt>
      <trkpt lat="43.044675" lon="-1.266121">
        <ele>1322.4</ele>
        <time>2018-08-20T11:05:28Z</time>
      </trkpt>
      <trkpt lat="43.044672" lon="-1.266303">
        <ele>1323.4</ele>
        <time>2018-08-20T11:05:41Z</time>
      </trkpt>
      <trkpt lat="43.044674" lon="-1.266316">
        <ele>1323.4</ele>
        <time>2018-08-20T11:05:42Z</time>
      </trkpt>
      <trkpt lat="43.044660" lon="-1.266479">
        <ele>1324.3</ele>
        <time>2018-08-20T11:05:57Z</time>
      </trkpt>
      <trkpt lat="43.044664" lon="-1.266488">
        <ele>1323.4</ele>
        <time>2018-08-20T11:06:12Z</time>
      </trkpt>
      <trkpt lat="43.044654" lon="-1.266518">
        <ele>1323.4</ele>
        <time>2018-08-20T11:06:20Z</time>
      </trkpt>
      <trkpt lat="43.044577" lon="-1.266611">
        <ele>1322.4</ele>
        <time>2018-08-20T11:06:31Z</time>
      </trkpt>
      <trkpt lat="43.044482" lon="-1.266818">
        <ele>1320.5</ele>
        <time>2018-08-20T11:06:48Z</time>
      </trkpt>
      <trkpt lat="43.044472" lon="-1.266861">
        <ele>1319.6</ele>
        <time>2018-08-20T11:07:00Z</time>
      </trkpt>
      <trkpt lat="43.044458" lon="-1.266877">
        <ele>1320.0</ele>
        <time>2018-08-20T11:07:03Z</time>
      </trkpt>
      <trkpt lat="43.044413" lon="-1.266989">
        <ele>1319.1</ele>
        <time>2018-08-20T11:07:16Z</time>
      </trkpt>
      <trkpt lat="43.044318" lon="-1.267185">
        <ele>1317.6</ele>
        <time>2018-08-20T11:07:33Z</time>
      </trkpt>
      <trkpt lat="43.044215" lon="-1.267396">
        <ele>1317.1</ele>
        <time>2018-08-20T11:07:50Z</time>
      </trkpt>
      <trkpt lat="43.044144" lon="-1.267549">
        <ele>1318.1</ele>
        <time>2018-08-20T11:08:03Z</time>
      </trkpt>
      <trkpt lat="43.044063" lon="-1.267656">
        <ele>1317.6</ele>
        <time>2018-08-20T11:08:17Z</time>
      </trkpt>
      <trkpt lat="43.043973" lon="-1.267784">
        <ele>1317.6</ele>
        <time>2018-08-20T11:08:32Z</time>
      </trkpt>
      <trkpt lat="43.043886" lon="-1.267927">
        <ele>1317.1</ele>
        <time>2018-08-20T11:08:47Z</time>
      </trkpt>
      <trkpt lat="43.043822" lon="-1.268071">
        <ele>1318.1</ele>
        <time>2018-08-20T11:09:00Z</time>
      </trkpt>
      <trkpt lat="43.043785" lon="-1.268159">
        <ele>1317.6</ele>
        <time>2018-08-20T11:09:13Z</time>
      </trkpt>
      <trkpt lat="43.043745" lon="-1.268213">
        <ele>1317.6</ele>
        <time>2018-08-20T11:09:28Z</time>
      </trkpt>
      <trkpt lat="43.043704" lon="-1.268312">
        <ele>1318.6</ele>
        <time>2018-08-20T11:09:44Z</time>
      </trkpt>
      <trkpt lat="43.043663" lon="-1.268425">
        <ele>1319.1</ele>
        <time>2018-08-20T11:09:58Z</time>
      </trkpt>
      <trkpt lat="43.043642" lon="-1.268479">
        <ele>1319.1</ele>
        <time>2018-08-20T11:10:06Z</time>
      </trkpt>
      <trkpt lat="43.043610" lon="-1.268575">
        <ele>1319.1</ele>
        <time>2018-08-20T11:10:15Z</time>
      </trkpt>
      <trkpt lat="43.043539" lon="-1.268721">
        <ele>1319.6</ele>
        <time>2018-08-20T11:10:29Z</time>
      </trkpt>
      <trkpt lat="43.043521" lon="-1.268818">
        <ele>1320.0</ele>
        <time>2018-08-20T11:10:42Z</time>
      </trkpt>
      <trkpt lat="43.043450" lon="-1.268942">
        <ele>1321.0</ele>
        <time>2018-08-20T11:10:57Z</time>
      </trkpt>
      <trkpt lat="43.043407" lon="-1.269054">
        <ele>1321.0</ele>
        <time>2018-08-20T11:11:09Z</time>
      </trkpt>
      <trkpt lat="43.043369" lon="-1.269229">
        <ele>1320.5</ele>
        <time>2018-08-20T11:11:23Z</time>
      </trkpt>
      <trkpt lat="43.043333" lon="-1.269352">
        <ele>1320.0</ele>
        <time>2018-08-20T11:11:36Z</time>
      </trkpt>
      <trkpt lat="43.043305" lon="-1.269486">
        <ele>1320.0</ele>
        <time>2018-08-20T11:11:52Z</time>
      </trkpt>
      <trkpt lat="43.043313" lon="-1.269589">
        <ele>1319.1</ele>
        <time>2018-08-20T11:12:06Z</time>
      </trkpt>
      <trkpt lat="43.043260" lon="-1.269758">
        <ele>1319.1</ele>
        <time>2018-08-20T11:12:25Z</time>
      </trkpt>
      <trkpt lat="43.043206" lon="-1.269909">
        <ele>1318.1</ele>
        <time>2018-08-20T11:12:41Z</time>
      </trkpt>
      <trkpt lat="43.043193" lon="-1.269968">
        <ele>1318.6</ele>
        <time>2018-08-20T11:13:11Z</time>
      </trkpt>
      <trkpt lat="43.043157" lon="-1.270074">
        <ele>1317.6</ele>
        <time>2018-08-20T11:13:29Z</time>
      </trkpt>
      <trkpt lat="43.043132" lon="-1.270215">
        <ele>1316.7</ele>
        <time>2018-08-20T11:13:43Z</time>
      </trkpt>
      <trkpt lat="43.043071" lon="-1.270413">
        <ele>1315.2</ele>
        <time>2018-08-20T11:13:56Z</time>
      </trkpt>
      <trkpt lat="43.043004" lon="-1.270587">
        <ele>1314.3</ele>
        <time>2018-08-20T11:14:11Z</time>
      </trkpt>
      <trkpt lat="43.042969" lon="-1.270777">
        <ele>1314.3</ele>
        <time>2018-08-20T11:14:24Z</time>
      </trkpt>
      <trkpt lat="43.042949" lon="-1.270999">
        <ele>1313.8</ele>
        <time>2018-08-20T11:14:38Z</time>
      </trkpt>
      <trkpt lat="43.042898" lon="-1.271146">
        <ele>1312.8</ele>
        <time>2018-08-20T11:14:53Z</time>
      </trkpt>
      <trkpt lat="43.042885" lon="-1.271224">
        <ele>1313.3</ele>
        <time>2018-08-20T11:16:00Z</time>
      </trkpt>
      <trkpt lat="43.042860" lon="-1.271332">
        <ele>1313.8</ele>
        <time>2018-08-20T11:16:25Z</time>
      </trkpt>
      <trkpt lat="43.042866" lon="-1.271377">
        <ele>1313.8</ele>
        <time>2018-08-20T11:16:44Z</time>
      </trkpt>
      <trkpt lat="43.042850" lon="-1.271417">
        <ele>1313.8</ele>
        <time>2018-08-20T11:16:48Z</time>
      </trkpt>
      <trkpt lat="43.042828" lon="-1.271521">
        <ele>1312.8</ele>
        <time>2018-08-20T11:16:59Z</time>
      </trkpt>
      <trkpt lat="43.042832" lon="-1.271604">
        <ele>1311.9</ele>
        <time>2018-08-20T11:18:10Z</time>
      </trkpt>
      <trkpt lat="43.042812" lon="-1.271746">
        <ele>1310.9</ele>
        <time>2018-08-20T11:18:28Z</time>
      </trkpt>
      <trkpt lat="43.042802" lon="-1.271834">
        <ele>1309.9</ele>
        <time>2018-08-20T11:18:43Z</time>
      </trkpt>
      <trkpt lat="43.042766" lon="-1.271896">
        <ele>1310.4</ele>
        <time>2018-08-20T11:19:08Z</time>
      </trkpt>
      <trkpt lat="43.042748" lon="-1.272054">
        <ele>1310.4</ele>
        <time>2018-08-20T11:19:25Z</time>
      </trkpt>
      <trkpt lat="43.042704" lon="-1.272178">
        <ele>1309.4</ele>
        <time>2018-08-20T11:19:38Z</time>
      </trkpt>
      <trkpt lat="43.042727" lon="-1.272260">
        <ele>1309.0</ele>
        <time>2018-08-20T11:19:49Z</time>
      </trkpt>
      <trkpt lat="43.042711" lon="-1.272356">
        <ele>1308.5</ele>
        <time>2018-08-20T11:20:01Z</time>
      </trkpt>
      <trkpt lat="43.042694" lon="-1.272405">
        <ele>1308.0</ele>
        <time>2018-08-20T11:20:13Z</time>
      </trkpt>
      <trkpt lat="43.042666" lon="-1.272595">
        <ele>1306.1</ele>
        <time>2018-08-20T11:20:29Z</time>
      </trkpt>
      <trkpt lat="43.042663" lon="-1.272710">
        <ele>1304.7</ele>
        <time>2018-08-20T11:20:46Z</time>
      </trkpt>
      <trkpt lat="43.042674" lon="-1.272787">
        <ele>1303.7</ele>
        <time>2018-08-20T11:20:56Z</time>
      </trkpt>
      <trkpt lat="43.042666" lon="-1.272868">
        <ele>1303.2</ele>
        <time>2018-08-20T11:21:04Z</time>
      </trkpt>
      <trkpt lat="43.042651" lon="-1.273014">
        <ele>1304.7</ele>
        <time>2018-08-20T11:21:16Z</time>
      </trkpt>
      <trkpt lat="43.042638" lon="-1.273045">
        <ele>1301.8</ele>
        <time>2018-08-20T11:21:19Z</time>
      </trkpt>
      <trkpt lat="43.042610" lon="-1.273240">
        <ele>1301.8</ele>
        <time>2018-08-20T11:21:32Z</time>
      </trkpt>
      <trkpt lat="43.042545" lon="-1.273404">
        <ele>1301.8</ele>
        <time>2018-08-20T11:21:46Z</time>
      </trkpt>
      <trkpt lat="43.042502" lon="-1.273530">
        <ele>1300.3</ele>
        <time>2018-08-20T11:21:59Z</time>
      </trkpt>
      <trkpt lat="43.042467" lon="-1.273723">
        <ele>1299.4</ele>
        <time>2018-08-20T11:22:12Z</time>
      </trkpt>
      <trkpt lat="43.042434" lon="-1.273926">
        <ele>1297.9</ele>
        <time>2018-08-20T11:22:28Z</time>
      </trkpt>
      <trkpt lat="43.042436" lon="-1.274025">
        <ele>1297.4</ele>
        <time>2018-08-20T11:22:43Z</time>
      </trkpt>
      <trkpt lat="43.042400" lon="-1.274133">
        <ele>1296.0</ele>
        <time>2018-08-20T11:22:56Z</time>
      </trkpt>
      <trkpt lat="43.042389" lon="-1.274182">
        <ele>1297.0</ele>
        <time>2018-08-20T11:23:02Z</time>
      </trkpt>
      <trkpt lat="43.042398" lon="-1.274234">
        <ele>1293.6</ele>
        <time>2018-08-20T11:23:16Z</time>
      </trkpt>
      <trkpt lat="43.042399" lon="-1.274236">
        <ele>1297.9</ele>
        <time>2018-08-20T11:23:17Z</time>
      </trkpt>
      <trkpt lat="43.042372" lon="-1.274334">
        <ele>1295.5</ele>
        <time>2018-08-20T11:23:33Z</time>
      </trkpt>
      <trkpt lat="43.042307" lon="-1.274549">
        <ele>1294.1</ele>
        <time>2018-08-20T11:23:47Z</time>
      </trkpt>
      <trkpt lat="43.042276" lon="-1.274706">
        <ele>1292.6</ele>
        <time>2018-08-20T11:24:00Z</time>
      </trkpt>
      <trkpt lat="43.042250" lon="-1.274871">
        <ele>1290.7</ele>
        <time>2018-08-20T11:24:13Z</time>
      </trkpt>
      <trkpt lat="43.042177" lon="-1.275106">
        <ele>1290.7</ele>
        <time>2018-08-20T11:24:28Z</time>
      </trkpt>
      <trkpt lat="43.042157" lon="-1.275241">
        <ele>1290.7</ele>
        <time>2018-08-20T11:24:40Z</time>
      </trkpt>
      <trkpt lat="43.042096" lon="-1.275355">
        <ele>1290.7</ele>
        <time>2018-08-20T11:24:52Z</time>
      </trkpt>
      <trkpt lat="43.042072" lon="-1.275500">
        <ele>1290.7</ele>
        <time>2018-08-20T11:25:06Z</time>
      </trkpt>
      <trkpt lat="43.042032" lon="-1.275715">
        <ele>1291.2</ele>
        <time>2018-08-20T11:25:21Z</time>
      </trkpt>
      <trkpt lat="43.042019" lon="-1.275821">
        <ele>1291.2</ele>
        <time>2018-08-20T11:25:31Z</time>
      </trkpt>
      <trkpt lat="43.041994" lon="-1.275988">
        <ele>1291.2</ele>
        <time>2018-08-20T11:25:41Z</time>
      </trkpt>
      <trkpt lat="43.041977" lon="-1.276040">
        <ele>1291.2</ele>
        <time>2018-08-20T11:25:44Z</time>
      </trkpt>
      <trkpt lat="43.041954" lon="-1.276141">
        <ele>1291.7</ele>
        <time>2018-08-20T11:25:50Z</time>
      </trkpt>
      <trkpt lat="43.041927" lon="-1.276275">
        <ele>1292.2</ele>
        <time>2018-08-20T11:26:01Z</time>
      </trkpt>
      <trkpt lat="43.041922" lon="-1.276338">
        <ele>1292.6</ele>
        <time>2018-08-20T11:26:06Z</time>
      </trkpt>
      <trkpt lat="43.041920" lon="-1.276365">
        <ele>1292.6</ele>
        <time>2018-08-20T11:26:08Z</time>
      </trkpt>
      <trkpt lat="43.041883" lon="-1.276530">
        <ele>1292.6</ele>
        <time>2018-08-20T11:26:21Z</time>
      </trkpt>
      <trkpt lat="43.041870" lon="-1.276578">
        <ele>1293.1</ele>
        <time>2018-08-20T11:26:24Z</time>
      </trkpt>
      <trkpt lat="43.041810" lon="-1.276823">
        <ele>1293.6</ele>
        <time>2018-08-20T11:26:40Z</time>
      </trkpt>
      <trkpt lat="43.041780" lon="-1.276946">
        <ele>1294.1</ele>
        <time>2018-08-20T11:26:49Z</time>
      </trkpt>
      <trkpt lat="43.041719" lon="-1.277133">
        <ele>1293.6</ele>
        <time>2018-08-20T11:27:03Z</time>
      </trkpt>
      <trkpt lat="43.041714" lon="-1.277175">
        <ele>1294.1</ele>
        <time>2018-08-20T11:27:06Z</time>
      </trkpt>
      <trkpt lat="43.041655" lon="-1.277383">
        <ele>1293.6</ele>
        <time>2018-08-20T11:27:21Z</time>
      </trkpt>
      <trkpt lat="43.041554" lon="-1.277545">
        <ele>1295.0</ele>
        <time>2018-08-20T11:27:36Z</time>
      </trkpt>
      <trkpt lat="43.041474" lon="-1.277625">
        <ele>1296.5</ele>
        <time>2018-08-20T11:27:49Z</time>
      </trkpt>
      <trkpt lat="43.041382" lon="-1.277739">
        <ele>1298.9</ele>
        <time>2018-08-20T11:28:03Z</time>
      </trkpt>
      <trkpt lat="43.041296" lon="-1.277879">
        <ele>1299.8</ele>
        <time>2018-08-20T11:28:15Z</time>
      </trkpt>
      <trkpt lat="43.041250" lon="-1.278020">
        <ele>1300.3</ele>
        <time>2018-08-20T11:28:24Z</time>
      </trkpt>
      <trkpt lat="43.041179" lon="-1.278302">
        <ele>1298.9</ele>
        <time>2018-08-20T11:28:42Z</time>
      </trkpt>
      <trkpt lat="43.041086" lon="-1.278533">
        <ele>1297.9</ele>
        <time>2018-08-20T11:29:00Z</time>
      </trkpt>
      <trkpt lat="43.041086" lon="-1.278536">
        <ele>1297.9</ele>
        <time>2018-08-20T11:29:05Z</time>
      </trkpt>
      <trkpt lat="43.041072" lon="-1.278614">
        <ele>1297.4</ele>
        <time>2018-08-20T11:29:10Z</time>
      </trkpt>
      <trkpt lat="43.041037" lon="-1.278671">
        <ele>1296.5</ele>
        <time>2018-08-20T11:29:15Z</time>
      </trkpt>
      <trkpt lat="43.040959" lon="-1.278860">
        <ele>1294.6</ele>
        <time>2018-08-20T11:29:31Z</time>
      </trkpt>
      <trkpt lat="43.040875" lon="-1.279032">
        <ele>1294.1</ele>
        <time>2018-08-20T11:29:45Z</time>
      </trkpt>
      <trkpt lat="43.040852" lon="-1.279100">
        <ele>1293.6</ele>
        <time>2018-08-20T11:29:51Z</time>
      </trkpt>
      <trkpt lat="43.040757" lon="-1.279279">
        <ele>1293.1</ele>
        <time>2018-08-20T11:30:05Z</time>
      </trkpt>
      <trkpt lat="43.040712" lon="-1.279416">
        <ele>1292.6</ele>
        <time>2018-08-20T11:30:15Z</time>
      </trkpt>
      <trkpt lat="43.040638" lon="-1.279652">
        <ele>1292.2</ele>
        <time>2018-08-20T11:30:29Z</time>
      </trkpt>
      <trkpt lat="43.040591" lon="-1.279828">
        <ele>1292.2</ele>
        <time>2018-08-20T11:30:40Z</time>
      </trkpt>
      <trkpt lat="43.040577" lon="-1.279894">
        <ele>1291.7</ele>
        <time>2018-08-20T11:30:44Z</time>
      </trkpt>
      <trkpt lat="43.040550" lon="-1.280178">
        <ele>1290.2</ele>
        <time>2018-08-20T11:30:59Z</time>
      </trkpt>
      <trkpt lat="43.040501" lon="-1.280415">
        <ele>1288.8</ele>
        <time>2018-08-20T11:31:43Z</time>
      </trkpt>
      <trkpt lat="43.040482" lon="-1.280474">
        <ele>1288.8</ele>
        <time>2018-08-20T11:32:01Z</time>
      </trkpt>
      <trkpt lat="43.040466" lon="-1.280542">
        <ele>1288.3</ele>
        <time>2018-08-20T11:32:13Z</time>
      </trkpt>
      <trkpt lat="43.040427" lon="-1.280691">
        <ele>1287.8</ele>
        <time>2018-08-20T11:32:27Z</time>
      </trkpt>
      <trkpt lat="43.040368" lon="-1.280874">
        <ele>1287.3</ele>
        <time>2018-08-20T11:32:42Z</time>
      </trkpt>
      <trkpt lat="43.040271" lon="-1.281058">
        <ele>1287.3</ele>
        <time>2018-08-20T11:33:00Z</time>
      </trkpt>
      <trkpt lat="43.040210" lon="-1.281185">
        <ele>1286.9</ele>
        <time>2018-08-20T11:33:14Z</time>
      </trkpt>
      <trkpt lat="43.040145" lon="-1.281315">
        <ele>1285.9</ele>
        <time>2018-08-20T11:33:28Z</time>
      </trkpt>
      <trkpt lat="43.040130" lon="-1.281377">
        <ele>1285.4</ele>
        <time>2018-08-20T11:33:38Z</time>
      </trkpt>
      <trkpt lat="43.040054" lon="-1.281456">
        <ele>1284.9</ele>
        <time>2018-08-20T11:33:51Z</time>
      </trkpt>
      <trkpt lat="43.040014" lon="-1.281518">
        <ele>1284.9</ele>
        <time>2018-08-20T11:33:57Z</time>
      </trkpt>
      <trkpt lat="43.039891" lon="-1.281663">
        <ele>1284.5</ele>
        <time>2018-08-20T11:34:13Z</time>
      </trkpt>
      <trkpt lat="43.039804" lon="-1.281735">
        <ele>1284.5</ele>
        <time>2018-08-20T11:34:24Z</time>
      </trkpt>
      <trkpt lat="43.039720" lon="-1.281856">
        <ele>1284.0</ele>
        <time>2018-08-20T11:34:34Z</time>
      </trkpt>
      <trkpt lat="43.039669" lon="-1.281923">
        <ele>1284.5</ele>
        <time>2018-08-20T11:34:40Z</time>
      </trkpt>
      <trkpt lat="43.039565" lon="-1.282092">
        <ele>1285.4</ele>
        <time>2018-08-20T11:34:55Z</time>
      </trkpt>
      <trkpt lat="43.039498" lon="-1.282172">
        <ele>1285.4</ele>
        <time>2018-08-20T11:35:08Z</time>
      </trkpt>
      <trkpt lat="43.039440" lon="-1.282202">
        <ele>1286.4</ele>
        <time>2018-08-20T11:35:13Z</time>
      </trkpt>
      <trkpt lat="43.039311" lon="-1.282168">
        <ele>1287.8</ele>
        <time>2018-08-20T11:35:28Z</time>
      </trkpt>
      <trkpt lat="43.039285" lon="-1.282159">
        <ele>1289.3</ele>
        <time>2018-08-20T11:35:31Z</time>
      </trkpt>
      <trkpt lat="43.039191" lon="-1.282163">
        <ele>1288.8</ele>
        <time>2018-08-20T11:35:44Z</time>
      </trkpt>
      <trkpt lat="43.039139" lon="-1.282156">
        <ele>1288.8</ele>
        <time>2018-08-20T11:35:58Z</time>
      </trkpt>
      <trkpt lat="43.039139" lon="-1.282173">
        <ele>1288.3</ele>
        <time>2018-08-20T11:36:15Z</time>
      </trkpt>
      <trkpt lat="43.039093" lon="-1.282206">
        <ele>1287.3</ele>
        <time>2018-08-20T11:36:28Z</time>
      </trkpt>
      <trkpt lat="43.039052" lon="-1.282226">
        <ele>1287.8</ele>
        <time>2018-08-20T11:36:36Z</time>
      </trkpt>
      <trkpt lat="43.038963" lon="-1.282299">
        <ele>1287.3</ele>
        <time>2018-08-20T11:36:48Z</time>
      </trkpt>
      <trkpt lat="43.038860" lon="-1.282449">
        <ele>1287.3</ele>
        <time>2018-08-20T11:37:04Z</time>
      </trkpt>
      <trkpt lat="43.038783" lon="-1.282569">
        <ele>1287.8</ele>
        <time>2018-08-20T11:37:17Z</time>
      </trkpt>
      <trkpt lat="43.038725" lon="-1.282674">
        <ele>1287.3</ele>
        <time>2018-08-20T11:37:27Z</time>
      </trkpt>
      <trkpt lat="43.038703" lon="-1.282705">
        <ele>1287.8</ele>
        <time>2018-08-20T11:37:30Z</time>
      </trkpt>
      <trkpt lat="43.038638" lon="-1.282858">
        <ele>1287.8</ele>
        <time>2018-08-20T11:37:43Z</time>
      </trkpt>
      <trkpt lat="43.038586" lon="-1.282947">
        <ele>1288.3</ele>
        <time>2018-08-20T11:37:51Z</time>
      </trkpt>
      <trkpt lat="43.038568" lon="-1.283012">
        <ele>1288.3</ele>
        <time>2018-08-20T11:37:57Z</time>
      </trkpt>
      <trkpt lat="43.038557" lon="-1.283046">
        <ele>1288.3</ele>
        <time>2018-08-20T11:38:00Z</time>
      </trkpt>
      <trkpt lat="43.038544" lon="-1.283073">
        <ele>1288.3</ele>
        <time>2018-08-20T11:38:02Z</time>
      </trkpt>
      <trkpt lat="43.038518" lon="-1.283128">
        <ele>1289.3</ele>
        <time>2018-08-20T11:38:07Z</time>
      </trkpt>
      <trkpt lat="43.038511" lon="-1.283153">
        <ele>1289.3</ele>
        <time>2018-08-20T11:38:09Z</time>
      </trkpt>
      <trkpt lat="43.038475" lon="-1.283259">
        <ele>1289.8</ele>
        <time>2018-08-20T11:38:21Z</time>
      </trkpt>
      <trkpt lat="43.038439" lon="-1.283434">
        <ele>1290.7</ele>
        <time>2018-08-20T11:38:36Z</time>
      </trkpt>
      <trkpt lat="43.038426" lon="-1.283466">
        <ele>1290.7</ele>
        <time>2018-08-20T11:38:39Z</time>
      </trkpt>
      <trkpt lat="43.038376" lon="-1.283641">
        <ele>1291.7</ele>
        <time>2018-08-20T11:38:52Z</time>
      </trkpt>
      <trkpt lat="43.038320" lon="-1.283806">
        <ele>1293.1</ele>
        <time>2018-08-20T11:39:05Z</time>
      </trkpt>
      <trkpt lat="43.038290" lon="-1.283925">
        <ele>1294.1</ele>
        <time>2018-08-20T11:39:13Z</time>
      </trkpt>
      <trkpt lat="43.038253" lon="-1.284094">
        <ele>1295.5</ele>
        <time>2018-08-20T11:39:26Z</time>
      </trkpt>
      <trkpt lat="43.038228" lon="-1.284239">
        <ele>1297.0</ele>
        <time>2018-08-20T11:39:39Z</time>
      </trkpt>
      <trkpt lat="43.038214" lon="-1.284426">
        <ele>1298.4</ele>
        <time>2018-08-20T11:39:52Z</time>
      </trkpt>
      <trkpt lat="43.038186" lon="-1.284479">
        <ele>1300.3</ele>
        <time>2018-08-20T11:39:57Z</time>
      </trkpt>
      <trkpt lat="43.038161" lon="-1.284654">
        <ele>1300.8</ele>
        <time>2018-08-20T11:40:11Z</time>
      </trkpt>
      <trkpt lat="43.038132" lon="-1.284797">
        <ele>1302.2</ele>
        <time>2018-08-20T11:40:22Z</time>
      </trkpt>
      <trkpt lat="43.038094" lon="-1.284958">
        <ele>1303.7</ele>
        <time>2018-08-20T11:40:34Z</time>
      </trkpt>
      <trkpt lat="43.038072" lon="-1.285082">
        <ele>1305.1</ele>
        <time>2018-08-20T11:40:44Z</time>
      </trkpt>
      <trkpt lat="43.038024" lon="-1.285224">
        <ele>1306.6</ele>
        <time>2018-08-20T11:40:56Z</time>
      </trkpt>
      <trkpt lat="43.038012" lon="-1.285279">
        <ele>1307.1</ele>
        <time>2018-08-20T11:41:00Z</time>
      </trkpt>
      <trkpt lat="43.038002" lon="-1.285307">
        <ele>1307.1</ele>
        <time>2018-08-20T11:41:02Z</time>
      </trkpt>
      <trkpt lat="43.037997" lon="-1.285403">
        <ele>1308.0</ele>
        <time>2018-08-20T11:41:09Z</time>
      </trkpt>
      <trkpt lat="43.037966" lon="-1.285569">
        <ele>1308.5</ele>
        <time>2018-08-20T11:41:22Z</time>
      </trkpt>
      <trkpt lat="43.037968" lon="-1.285665">
        <ele>1309.0</ele>
        <time>2018-08-20T11:41:32Z</time>
      </trkpt>
      <trkpt lat="43.037973" lon="-1.285720">
        <ele>1308.5</ele>
        <time>2018-08-20T11:41:36Z</time>
      </trkpt>
      <trkpt lat="43.037944" lon="-1.285924">
        <ele>1309.0</ele>
        <time>2018-08-20T11:41:51Z</time>
      </trkpt>
      <trkpt lat="43.037923" lon="-1.286055">
        <ele>1309.0</ele>
        <time>2018-08-20T11:42:03Z</time>
      </trkpt>
      <trkpt lat="43.037899" lon="-1.286205">
        <ele>1309.9</ele>
        <time>2018-08-20T11:42:15Z</time>
      </trkpt>
      <trkpt lat="43.037850" lon="-1.286402">
        <ele>1310.9</ele>
        <time>2018-08-20T11:42:29Z</time>
      </trkpt>
      <trkpt lat="43.037830" lon="-1.286575">
        <ele>1310.9</ele>
        <time>2018-08-20T11:42:42Z</time>
      </trkpt>
      <trkpt lat="43.037825" lon="-1.286627">
        <ele>1310.4</ele>
        <time>2018-08-20T11:42:46Z</time>
      </trkpt>
      <trkpt lat="43.037799" lon="-1.286755">
        <ele>1310.9</ele>
        <time>2018-08-20T11:42:56Z</time>
      </trkpt>
      <trkpt lat="43.037796" lon="-1.286784">
        <ele>1310.4</ele>
        <time>2018-08-20T11:42:58Z</time>
      </trkpt>
      <trkpt lat="43.037750" lon="-1.286962">
        <ele>1309.9</ele>
        <time>2018-08-20T11:43:12Z</time>
      </trkpt>
      <trkpt lat="43.037709" lon="-1.287134">
        <ele>1309.4</ele>
        <time>2018-08-20T11:43:27Z</time>
      </trkpt>
      <trkpt lat="43.037694" lon="-1.287237">
        <ele>1309.0</ele>
        <time>2018-08-20T11:43:34Z</time>
      </trkpt>
      <trkpt lat="43.037658" lon="-1.287411">
        <ele>1309.0</ele>
        <time>2018-08-20T11:43:48Z</time>
      </trkpt>
      <trkpt lat="43.037664" lon="-1.287442">
        <ele>1309.9</ele>
        <time>2018-08-20T11:44:06Z</time>
      </trkpt>
      <trkpt lat="43.037627" lon="-1.287574">
        <ele>1309.9</ele>
        <time>2018-08-20T11:44:18Z</time>
      </trkpt>
      <trkpt lat="43.037594" lon="-1.287695">
        <ele>1310.4</ele>
        <time>2018-08-20T11:44:27Z</time>
      </trkpt>
      <trkpt lat="43.037561" lon="-1.287766">
        <ele>1310.9</ele>
        <time>2018-08-20T11:44:38Z</time>
      </trkpt>
      <trkpt lat="43.037557" lon="-1.287768">
        <ele>1310.9</ele>
        <time>2018-08-20T11:44:39Z</time>
      </trkpt>
      <trkpt lat="43.037537" lon="-1.287780">
        <ele>1310.4</ele>
        <time>2018-08-20T11:44:42Z</time>
      </trkpt>
      <trkpt lat="43.037516" lon="-1.287834">
        <ele>1311.9</ele>
        <time>2018-08-20T11:44:47Z</time>
      </trkpt>
      <trkpt lat="43.037464" lon="-1.288025">
        <ele>1313.3</ele>
        <time>2018-08-20T11:45:03Z</time>
      </trkpt>
      <trkpt lat="43.037446" lon="-1.288076">
        <ele>1312.8</ele>
        <time>2018-08-20T11:45:07Z</time>
      </trkpt>
      <trkpt lat="43.037400" lon="-1.288203">
        <ele>1313.8</ele>
        <time>2018-08-20T11:45:16Z</time>
      </trkpt>
      <trkpt lat="43.037392" lon="-1.288230">
        <ele>1314.3</ele>
        <time>2018-08-20T11:45:18Z</time>
      </trkpt>
      <trkpt lat="43.037386" lon="-1.288256">
        <ele>1314.7</ele>
        <time>2018-08-20T11:45:20Z</time>
      </trkpt>
      <trkpt lat="43.037375" lon="-1.288281">
        <ele>1314.7</ele>
        <time>2018-08-20T11:45:22Z</time>
      </trkpt>
      <trkpt lat="43.037364" lon="-1.288387">
        <ele>1315.2</ele>
        <time>2018-08-20T11:45:36Z</time>
      </trkpt>
      <trkpt lat="43.037359" lon="-1.288399">
        <ele>1315.2</ele>
        <time>2018-08-20T11:45:41Z</time>
      </trkpt>
      <trkpt lat="43.037280" lon="-1.288574">
        <ele>1316.7</ele>
        <time>2018-08-20T11:45:56Z</time>
      </trkpt>
      <trkpt lat="43.037287" lon="-1.288590">
        <ele>1316.2</ele>
        <time>2018-08-20T11:45:59Z</time>
      </trkpt>
      <trkpt lat="43.037307" lon="-1.288607">
        <ele>1316.2</ele>
        <time>2018-08-20T11:46:13Z</time>
      </trkpt>
      <trkpt lat="43.037296" lon="-1.288586">
        <ele>1315.7</ele>
        <time>2018-08-20T11:46:26Z</time>
      </trkpt>
      <trkpt lat="43.037246" lon="-1.288585">
        <ele>1316.2</ele>
        <time>2018-08-20T11:46:30Z</time>
      </trkpt>
      <trkpt lat="43.037201" lon="-1.288671">
        <ele>1316.2</ele>
        <time>2018-08-20T11:46:36Z</time>
      </trkpt>
      <trkpt lat="43.037160" lon="-1.288775">
        <ele>1316.2</ele>
        <time>2018-08-20T11:46:44Z</time>
      </trkpt>
      <trkpt lat="43.037083" lon="-1.288914">
        <ele>1316.7</ele>
        <time>2018-08-20T11:46:58Z</time>
      </trkpt>
      <trkpt lat="43.037068" lon="-1.288940">
        <ele>1316.7</ele>
        <time>2018-08-20T11:47:00Z</time>
      </trkpt>
      <trkpt lat="43.036975" lon="-1.289108">
        <ele>1317.6</ele>
        <time>2018-08-20T11:47:14Z</time>
      </trkpt>
      <trkpt lat="43.036958" lon="-1.289132">
        <ele>1317.6</ele>
        <time>2018-08-20T11:47:16Z</time>
      </trkpt>
      <trkpt lat="43.036925" lon="-1.289213">
        <ele>1318.1</ele>
        <time>2018-08-20T11:47:22Z</time>
      </trkpt>
      <trkpt lat="43.036902" lon="-1.289311">
        <ele>1318.6</ele>
        <time>2018-08-20T11:47:30Z</time>
      </trkpt>
      <trkpt lat="43.036882" lon="-1.289384">
        <ele>1319.1</ele>
        <time>2018-08-20T11:47:35Z</time>
      </trkpt>
      <trkpt lat="43.036860" lon="-1.289464">
        <ele>1319.1</ele>
        <time>2018-08-20T11:47:40Z</time>
      </trkpt>
      <trkpt lat="43.036852" lon="-1.289489">
        <ele>1319.1</ele>
        <time>2018-08-20T11:47:42Z</time>
      </trkpt>
      <trkpt lat="43.036844" lon="-1.289530">
        <ele>1319.6</ele>
        <time>2018-08-20T11:47:45Z</time>
      </trkpt>
      <trkpt lat="43.036836" lon="-1.289560">
        <ele>1319.6</ele>
        <time>2018-08-20T11:47:47Z</time>
      </trkpt>
      <trkpt lat="43.036787" lon="-1.289739">
        <ele>1321.0</ele>
        <time>2018-08-20T11:48:01Z</time>
      </trkpt>
      <trkpt lat="43.036770" lon="-1.289786">
        <ele>1321.0</ele>
        <time>2018-08-20T11:48:05Z</time>
      </trkpt>
      <trkpt lat="43.036757" lon="-1.289833">
        <ele>1321.0</ele>
        <time>2018-08-20T11:48:09Z</time>
      </trkpt>
      <trkpt lat="43.036748" lon="-1.289875">
        <ele>1321.5</ele>
        <time>2018-08-20T11:48:12Z</time>
      </trkpt>
      <trkpt lat="43.036738" lon="-1.289905">
        <ele>1321.9</ele>
        <time>2018-08-20T11:48:14Z</time>
      </trkpt>
      <trkpt lat="43.036724" lon="-1.289967">
        <ele>1321.9</ele>
        <time>2018-08-20T11:48:19Z</time>
      </trkpt>
      <trkpt lat="43.036704" lon="-1.290121">
        <ele>1323.9</ele>
        <time>2018-08-20T11:48:39Z</time>
      </trkpt>
      <trkpt lat="43.036692" lon="-1.290172">
        <ele>1323.9</ele>
        <time>2018-08-20T11:48:51Z</time>
      </trkpt>
      <trkpt lat="43.036678" lon="-1.290198">
        <ele>1324.8</ele>
        <time>2018-08-20T11:48:54Z</time>
      </trkpt>
      <trkpt lat="43.036644" lon="-1.290348">
        <ele>1325.8</ele>
        <time>2018-08-20T11:49:06Z</time>
      </trkpt>
      <trkpt lat="43.036597" lon="-1.290450">
        <ele>1326.8</ele>
        <time>2018-08-20T11:49:17Z</time>
      </trkpt>
      <trkpt lat="43.036593" lon="-1.290458">
        <ele>1327.2</ele>
        <time>2018-08-20T11:49:18Z</time>
      </trkpt>
      <trkpt lat="43.036516" lon="-1.290564">
        <ele>1328.2</ele>
        <time>2018-08-20T11:49:31Z</time>
      </trkpt>
      <trkpt lat="43.036435" lon="-1.290673">
        <ele>1329.6</ele>
        <time>2018-08-20T11:49:44Z</time>
      </trkpt>
      <trkpt lat="43.036400" lon="-1.290772">
        <ele>1330.6</ele>
        <time>2018-08-20T11:49:54Z</time>
      </trkpt>
      <trkpt lat="43.036385" lon="-1.290802">
        <ele>1331.1</ele>
        <time>2018-08-20T11:49:58Z</time>
      </trkpt>
      <trkpt lat="43.036322" lon="-1.290940">
        <ele>1332.5</ele>
        <time>2018-08-20T11:50:12Z</time>
      </trkpt>
      <trkpt lat="43.036265" lon="-1.291065">
        <ele>1334.4</ele>
        <time>2018-08-20T11:50:26Z</time>
      </trkpt>
      <trkpt lat="43.036217" lon="-1.291160">
        <ele>1335.4</ele>
        <time>2018-08-20T11:50:38Z</time>
      </trkpt>
      <trkpt lat="43.036170" lon="-1.291268">
        <ele>1336.8</ele>
        <time>2018-08-20T11:50:50Z</time>
      </trkpt>
      <trkpt lat="43.036136" lon="-1.291344">
        <ele>1337.3</ele>
        <time>2018-08-20T11:50:58Z</time>
      </trkpt>
      <trkpt lat="43.036081" lon="-1.291461">
        <ele>1339.2</ele>
        <time>2018-08-20T11:51:11Z</time>
      </trkpt>
      <trkpt lat="43.036023" lon="-1.291549">
        <ele>1340.7</ele>
        <time>2018-08-20T11:51:22Z</time>
      </trkpt>
      <trkpt lat="43.036009" lon="-1.291559">
        <ele>1340.7</ele>
        <time>2018-08-20T11:51:24Z</time>
      </trkpt>
      <trkpt lat="43.035923" lon="-1.291622">
        <ele>1342.1</ele>
        <time>2018-08-20T11:51:37Z</time>
      </trkpt>
      <trkpt lat="43.035828" lon="-1.291695">
        <ele>1344.1</ele>
        <time>2018-08-20T11:51:51Z</time>
      </trkpt>
      <trkpt lat="43.035758" lon="-1.291721">
        <ele>1344.5</ele>
        <time>2018-08-20T11:52:01Z</time>
      </trkpt>
      <trkpt lat="43.035642" lon="-1.291753">
        <ele>1346.5</ele>
        <time>2018-08-20T11:52:15Z</time>
      </trkpt>
      <trkpt lat="43.035549" lon="-1.291769">
        <ele>1348.4</ele>
        <time>2018-08-20T11:52:28Z</time>
      </trkpt>
      <trkpt lat="43.035468" lon="-1.291797">
        <ele>1348.9</ele>
        <time>2018-08-20T11:52:40Z</time>
      </trkpt>
      <trkpt lat="43.035366" lon="-1.291822">
        <ele>1351.3</ele>
        <time>2018-08-20T11:52:53Z</time>
      </trkpt>
      <trkpt lat="43.035291" lon="-1.291738">
        <ele>1352.2</ele>
        <time>2018-08-20T11:53:04Z</time>
      </trkpt>
      <trkpt lat="43.035276" lon="-1.291698">
        <ele>1352.7</ele>
        <time>2018-08-20T11:53:08Z</time>
      </trkpt>
      <trkpt lat="43.035223" lon="-1.291620">
        <ele>1353.2</ele>
        <time>2018-08-20T11:53:17Z</time>
      </trkpt>
      <trkpt lat="43.035212" lon="-1.291600">
        <ele>1353.7</ele>
        <time>2018-08-20T11:53:19Z</time>
      </trkpt>
      <trkpt lat="43.035201" lon="-1.291579">
        <ele>1353.7</ele>
        <time>2018-08-20T11:53:21Z</time>
      </trkpt>
      <trkpt lat="43.035183" lon="-1.291567">
        <ele>1354.2</ele>
        <time>2018-08-20T11:53:23Z</time>
      </trkpt>
      <trkpt lat="43.035109" lon="-1.291480">
        <ele>1355.6</ele>
        <time>2018-08-20T11:53:34Z</time>
      </trkpt>
      <trkpt lat="43.035033" lon="-1.291308">
        <ele>1356.6</ele>
        <time>2018-08-20T11:53:50Z</time>
      </trkpt>
      <trkpt lat="43.034953" lon="-1.291129">
        <ele>1358.5</ele>
        <time>2018-08-20T11:54:05Z</time>
      </trkpt>
      <trkpt lat="43.034915" lon="-1.291090">
        <ele>1359.0</ele>
        <time>2018-08-20T11:54:10Z</time>
      </trkpt>
      <trkpt lat="43.034838" lon="-1.291017">
        <ele>1359.9</ele>
        <time>2018-08-20T11:54:20Z</time>
      </trkpt>
      <trkpt lat="43.034788" lon="-1.291009">
        <ele>1360.9</ele>
        <time>2018-08-20T11:54:25Z</time>
      </trkpt>
      <trkpt lat="43.034769" lon="-1.291011">
        <ele>1360.9</ele>
        <time>2018-08-20T11:54:27Z</time>
      </trkpt>
      <trkpt lat="43.034752" lon="-1.291016">
        <ele>1361.8</ele>
        <time>2018-08-20T11:54:29Z</time>
      </trkpt>
      <trkpt lat="43.034673" lon="-1.291131">
        <ele>1361.8</ele>
        <time>2018-08-20T11:54:42Z</time>
      </trkpt>
      <trkpt lat="43.034656" lon="-1.291164">
        <ele>1362.3</ele>
        <time>2018-08-20T11:54:45Z</time>
      </trkpt>
      <trkpt lat="43.034621" lon="-1.291237">
        <ele>1362.3</ele>
        <time>2018-08-20T11:54:52Z</time>
      </trkpt>
      <trkpt lat="43.034617" lon="-1.291260">
        <ele>1362.8</ele>
        <time>2018-08-20T11:54:54Z</time>
      </trkpt>
      <trkpt lat="43.034608" lon="-1.291295">
        <ele>1362.8</ele>
        <time>2018-08-20T11:54:57Z</time>
      </trkpt>
      <trkpt lat="43.034600" lon="-1.291316">
        <ele>1362.8</ele>
        <time>2018-08-20T11:54:59Z</time>
      </trkpt>
      <trkpt lat="43.034568" lon="-1.291424">
        <ele>1363.3</ele>
        <time>2018-08-20T11:55:07Z</time>
      </trkpt>
      <trkpt lat="43.034552" lon="-1.291475">
        <ele>1364.2</ele>
        <time>2018-08-20T11:55:11Z</time>
      </trkpt>
      <trkpt lat="43.034544" lon="-1.291500">
        <ele>1364.7</ele>
        <time>2018-08-20T11:55:13Z</time>
      </trkpt>
      <trkpt lat="43.034531" lon="-1.291523">
        <ele>1364.7</ele>
        <time>2018-08-20T11:55:15Z</time>
      </trkpt>
      <trkpt lat="43.034475" lon="-1.291688">
        <ele>1365.2</ele>
        <time>2018-08-20T11:55:28Z</time>
      </trkpt>
      <trkpt lat="43.034415" lon="-1.291737">
        <ele>1366.7</ele>
        <time>2018-08-20T11:55:36Z</time>
      </trkpt>
      <trkpt lat="43.034374" lon="-1.291757">
        <ele>1367.1</ele>
        <time>2018-08-20T11:55:40Z</time>
      </trkpt>
      <trkpt lat="43.034356" lon="-1.291757">
        <ele>1367.1</ele>
        <time>2018-08-20T11:55:42Z</time>
      </trkpt>
      <trkpt lat="43.034228" lon="-1.291796">
        <ele>1368.1</ele>
        <time>2018-08-20T11:55:56Z</time>
      </trkpt>
      <trkpt lat="43.034125" lon="-1.291854">
        <ele>1368.1</ele>
        <time>2018-08-20T11:56:07Z</time>
      </trkpt>
      <trkpt lat="43.034094" lon="-1.291873">
        <ele>1368.6</ele>
        <time>2018-08-20T11:56:10Z</time>
      </trkpt>
      <trkpt lat="43.033942" lon="-1.291872">
        <ele>1368.6</ele>
        <time>2018-08-20T11:56:24Z</time>
      </trkpt>
      <trkpt lat="43.033894" lon="-1.291881">
        <ele>1368.1</ele>
        <time>2018-08-20T11:56:29Z</time>
      </trkpt>
      <trkpt lat="43.033760" lon="-1.291852">
        <ele>1369.1</ele>
        <time>2018-08-20T11:56:42Z</time>
      </trkpt>
      <trkpt lat="43.033623" lon="-1.291795">
        <ele>1370.0</ele>
        <time>2018-08-20T11:56:54Z</time>
      </trkpt>
      <trkpt lat="43.033498" lon="-1.291739">
        <ele>1370.0</ele>
        <time>2018-08-20T11:57:06Z</time>
      </trkpt>
      <trkpt lat="43.033376" lon="-1.291710">
        <ele>1371.0</ele>
        <time>2018-08-20T11:57:19Z</time>
      </trkpt>
      <trkpt lat="43.033209" lon="-1.291644">
        <ele>1371.9</ele>
        <time>2018-08-20T11:57:33Z</time>
      </trkpt>
      <trkpt lat="43.033113" lon="-1.291662">
        <ele>1372.4</ele>
        <time>2018-08-20T11:57:41Z</time>
      </trkpt>
      <trkpt lat="43.033077" lon="-1.291656">
        <ele>1372.9</ele>
        <time>2018-08-20T11:57:44Z</time>
      </trkpt>
      <trkpt lat="43.033050" lon="-1.291665">
        <ele>1373.9</ele>
        <time>2018-08-20T11:57:46Z</time>
      </trkpt>
      <trkpt lat="43.032943" lon="-1.291697">
        <ele>1374.8</ele>
        <time>2018-08-20T11:57:55Z</time>
      </trkpt>
      <trkpt lat="43.032920" lon="-1.291706">
        <ele>1375.3</ele>
        <time>2018-08-20T11:57:57Z</time>
      </trkpt>
      <trkpt lat="43.032859" lon="-1.291734">
        <ele>1375.8</ele>
        <time>2018-08-20T11:58:03Z</time>
      </trkpt>
      <trkpt lat="43.032826" lon="-1.291747">
        <ele>1376.3</ele>
        <time>2018-08-20T11:58:06Z</time>
      </trkpt>
      <trkpt lat="43.032752" lon="-1.291806">
        <ele>1377.7</ele>
        <time>2018-08-20T11:58:16Z</time>
      </trkpt>
      <trkpt lat="43.032647" lon="-1.291901">
        <ele>1379.2</ele>
        <time>2018-08-20T11:58:28Z</time>
      </trkpt>
      <trkpt lat="43.032639" lon="-1.291910">
        <ele>1379.2</ele>
        <time>2018-08-20T11:58:29Z</time>
      </trkpt>
      <trkpt lat="43.032553" lon="-1.291995">
        <ele>1380.6</ele>
        <time>2018-08-20T11:58:41Z</time>
      </trkpt>
      <trkpt lat="43.032492" lon="-1.292065">
        <ele>1381.1</ele>
        <time>2018-08-20T11:58:49Z</time>
      </trkpt>
      <trkpt lat="43.032385" lon="-1.292166">
        <ele>1383.0</ele>
        <time>2018-08-20T11:59:04Z</time>
      </trkpt>
      <trkpt lat="43.032285" lon="-1.292279">
        <ele>1384.9</ele>
        <time>2018-08-20T11:59:17Z</time>
      </trkpt>
      <trkpt lat="43.032192" lon="-1.292377">
        <ele>1385.9</ele>
        <time>2018-08-20T11:59:29Z</time>
      </trkpt>
      <trkpt lat="43.032125" lon="-1.292461">
        <ele>1387.8</ele>
        <time>2018-08-20T11:59:40Z</time>
      </trkpt>
      <trkpt lat="43.032037" lon="-1.292535">
        <ele>1389.7</ele>
        <time>2018-08-20T11:59:54Z</time>
      </trkpt>
      <trkpt lat="43.031978" lon="-1.292615">
        <ele>1390.7</ele>
        <time>2018-08-20T12:00:06Z</time>
      </trkpt>
      <trkpt lat="43.031912" lon="-1.292695">
        <ele>1392.1</ele>
        <time>2018-08-20T12:00:19Z</time>
      </trkpt>
      <trkpt lat="43.031840" lon="-1.292792">
        <ele>1394.5</ele>
        <time>2018-08-20T12:00:32Z</time>
      </trkpt>
      <trkpt lat="43.031783" lon="-1.292873">
        <ele>1396.0</ele>
        <time>2018-08-20T12:00:43Z</time>
      </trkpt>
      <trkpt lat="43.031724" lon="-1.292955">
        <ele>1397.9</ele>
        <time>2018-08-20T12:00:54Z</time>
      </trkpt>
      <trkpt lat="43.031666" lon="-1.293032">
        <ele>1398.4</ele>
        <time>2018-08-20T12:01:03Z</time>
      </trkpt>
      <trkpt lat="43.031622" lon="-1.293077">
        <ele>1399.3</ele>
        <time>2018-08-20T12:01:10Z</time>
      </trkpt>
      <trkpt lat="43.031602" lon="-1.293101">
        <ele>1399.8</ele>
        <time>2018-08-20T12:01:13Z</time>
      </trkpt>
      <trkpt lat="43.031527" lon="-1.293200">
        <ele>1400.8</ele>
        <time>2018-08-20T12:01:24Z</time>
      </trkpt>
      <trkpt lat="43.031516" lon="-1.293223">
        <ele>1400.3</ele>
        <time>2018-08-20T12:01:26Z</time>
      </trkpt>
      <trkpt lat="43.031478" lon="-1.293263">
        <ele>1401.7</ele>
        <time>2018-08-20T12:01:32Z</time>
      </trkpt>
      <trkpt lat="43.031397" lon="-1.293352">
        <ele>1402.7</ele>
        <time>2018-08-20T12:01:44Z</time>
      </trkpt>
      <trkpt lat="43.031354" lon="-1.293410">
        <ele>1404.1</ele>
        <time>2018-08-20T12:01:51Z</time>
      </trkpt>
      <trkpt lat="43.031286" lon="-1.293480">
        <ele>1405.6</ele>
        <time>2018-08-20T12:02:00Z</time>
      </trkpt>
      <trkpt lat="43.031203" lon="-1.293570">
        <ele>1406.6</ele>
        <time>2018-08-20T12:02:10Z</time>
      </trkpt>
      <trkpt lat="43.031119" lon="-1.293642">
        <ele>1406.6</ele>
        <time>2018-08-20T12:02:19Z</time>
      </trkpt>
      <trkpt lat="43.031003" lon="-1.293766">
        <ele>1407.5</ele>
        <time>2018-08-20T12:02:33Z</time>
      </trkpt>
      <trkpt lat="43.030889" lon="-1.293978">
        <ele>1408.0</ele>
        <time>2018-08-20T12:02:50Z</time>
      </trkpt>
      <trkpt lat="43.030845" lon="-1.294170">
        <ele>1408.5</ele>
        <time>2018-08-20T12:03:05Z</time>
      </trkpt>
      <trkpt lat="43.030819" lon="-1.294383">
        <ele>1408.5</ele>
        <time>2018-08-20T12:03:20Z</time>
      </trkpt>
      <trkpt lat="43.030768" lon="-1.294608">
        <ele>1408.9</ele>
        <time>2018-08-20T12:03:35Z</time>
      </trkpt>
      <trkpt lat="43.030767" lon="-1.294622">
        <ele>1409.4</ele>
        <time>2018-08-20T12:03:36Z</time>
      </trkpt>
      <trkpt lat="43.030733" lon="-1.294733">
        <ele>1409.9</ele>
        <time>2018-08-20T12:03:50Z</time>
      </trkpt>
      <trkpt lat="43.030718" lon="-1.294803">
        <ele>1409.4</ele>
        <time>2018-08-20T12:04:07Z</time>
      </trkpt>
      <trkpt lat="43.030692" lon="-1.294935">
        <ele>1409.9</ele>
        <time>2018-08-20T12:04:18Z</time>
      </trkpt>
      <trkpt lat="43.030614" lon="-1.295109">
        <ele>1411.3</ele>
        <time>2018-08-20T12:04:32Z</time>
      </trkpt>
      <trkpt lat="43.030488" lon="-1.295251">
        <ele>1412.3</ele>
        <time>2018-08-20T12:04:45Z</time>
      </trkpt>
      <trkpt lat="43.030434" lon="-1.295344">
        <ele>1411.3</ele>
        <time>2018-08-20T12:04:52Z</time>
      </trkpt>
      <trkpt lat="43.030400" lon="-1.295374">
        <ele>1412.3</ele>
        <time>2018-08-20T12:04:56Z</time>
      </trkpt>
      <trkpt lat="43.030297" lon="-1.295557">
        <ele>1410.9</ele>
        <time>2018-08-20T12:05:11Z</time>
      </trkpt>
      <trkpt lat="43.030185" lon="-1.295730">
        <ele>1409.9</ele>
        <time>2018-08-20T12:05:27Z</time>
      </trkpt>
      <trkpt lat="43.030169" lon="-1.295764">
        <ele>1410.4</ele>
        <time>2018-08-20T12:05:30Z</time>
      </trkpt>
      <trkpt lat="43.030116" lon="-1.295843">
        <ele>1409.9</ele>
        <time>2018-08-20T12:05:37Z</time>
      </trkpt>
      <trkpt lat="43.030100" lon="-1.295862">
        <ele>1409.9</ele>
        <time>2018-08-20T12:05:39Z</time>
      </trkpt>
      <trkpt lat="43.029966" lon="-1.295987">
        <ele>1410.9</ele>
        <time>2018-08-20T12:05:56Z</time>
      </trkpt>
      <trkpt lat="43.029911" lon="-1.296025">
        <ele>1411.3</ele>
        <time>2018-08-20T12:06:08Z</time>
      </trkpt>
      <trkpt lat="43.029817" lon="-1.296093">
        <ele>1412.8</ele>
        <time>2018-08-20T12:06:21Z</time>
      </trkpt>
      <trkpt lat="43.029707" lon="-1.296141">
        <ele>1414.2</ele>
        <time>2018-08-20T12:06:35Z</time>
      </trkpt>
      <trkpt lat="43.029602" lon="-1.296155">
        <ele>1416.6</ele>
        <time>2018-08-20T12:06:47Z</time>
      </trkpt>
      <trkpt lat="43.029564" lon="-1.296158">
        <ele>1416.6</ele>
        <time>2018-08-20T12:06:52Z</time>
      </trkpt>
      <trkpt lat="43.029517" lon="-1.296166">
        <ele>1416.2</ele>
        <time>2018-08-20T12:06:58Z</time>
      </trkpt>
      <trkpt lat="43.029371" lon="-1.296177">
        <ele>1417.1</ele>
        <time>2018-08-20T12:07:15Z</time>
      </trkpt>
      <trkpt lat="43.029245" lon="-1.296168">
        <ele>1418.1</ele>
        <time>2018-08-20T12:07:29Z</time>
      </trkpt>
      <trkpt lat="43.029121" lon="-1.296164">
        <ele>1418.6</ele>
        <time>2018-08-20T12:07:41Z</time>
      </trkpt>
      <trkpt lat="43.029004" lon="-1.296131">
        <ele>1419.5</ele>
        <time>2018-08-20T12:07:53Z</time>
      </trkpt>
      <trkpt lat="43.028856" lon="-1.296097">
        <ele>1419.5</ele>
        <time>2018-08-20T12:08:06Z</time>
      </trkpt>
      <trkpt lat="43.028722" lon="-1.296040">
        <ele>1420.0</ele>
        <time>2018-08-20T12:08:19Z</time>
      </trkpt>
      <trkpt lat="43.028551" lon="-1.295992">
        <ele>1421.4</ele>
        <time>2018-08-20T12:08:34Z</time>
      </trkpt>
      <trkpt lat="43.028431" lon="-1.295931">
        <ele>1421.0</ele>
        <time>2018-08-20T12:08:47Z</time>
      </trkpt>
      <trkpt lat="43.028286" lon="-1.295874">
        <ele>1421.0</ele>
        <time>2018-08-20T12:09:01Z</time>
      </trkpt>
      <trkpt lat="43.028277" lon="-1.295868">
        <ele>1421.0</ele>
        <time>2018-08-20T12:09:02Z</time>
      </trkpt>
      <trkpt lat="43.028108" lon="-1.295778">
        <ele>1421.0</ele>
        <time>2018-08-20T12:09:18Z</time>
      </trkpt>
      <trkpt lat="43.028042" lon="-1.295733">
        <ele>1421.4</ele>
        <time>2018-08-20T12:09:27Z</time>
      </trkpt>
      <trkpt lat="43.027869" lon="-1.295671">
        <ele>1421.0</ele>
        <time>2018-08-20T12:09:42Z</time>
      </trkpt>
      <trkpt lat="43.027825" lon="-1.295639">
        <ele>1421.0</ele>
        <time>2018-08-20T12:09:46Z</time>
      </trkpt>
      <trkpt lat="43.027790" lon="-1.295623">
        <ele>1421.4</ele>
        <time>2018-08-20T12:09:49Z</time>
      </trkpt>
      <trkpt lat="43.027656" lon="-1.295582">
        <ele>1421.4</ele>
        <time>2018-08-20T12:10:01Z</time>
      </trkpt>
      <trkpt lat="43.027519" lon="-1.295527">
        <ele>1421.4</ele>
        <time>2018-08-20T12:10:16Z</time>
      </trkpt>
      <trkpt lat="43.027495" lon="-1.295527">
        <ele>1420.5</ele>
        <time>2018-08-20T12:10:26Z</time>
      </trkpt>
      <trkpt lat="43.027491" lon="-1.295528">
        <ele>1424.3</ele>
        <time>2018-08-20T12:10:27Z</time>
      </trkpt>
      <trkpt lat="43.027488" lon="-1.295528">
        <ele>1422.4</ele>
        <time>2018-08-20T12:10:28Z</time>
      </trkpt>
      <trkpt lat="43.027431" lon="-1.295488">
        <ele>1422.4</ele>
        <time>2018-08-20T12:10:41Z</time>
      </trkpt>
      <trkpt lat="43.027287" lon="-1.295493">
        <ele>1422.9</ele>
        <time>2018-08-20T12:10:56Z</time>
      </trkpt>
      <trkpt lat="43.027108" lon="-1.295414">
        <ele>1423.4</ele>
        <time>2018-08-20T12:11:12Z</time>
      </trkpt>
      <trkpt lat="43.027007" lon="-1.295383">
        <ele>1425.8</ele>
        <time>2018-08-20T12:11:22Z</time>
      </trkpt>
      <trkpt lat="43.026977" lon="-1.295378">
        <ele>1425.8</ele>
        <time>2018-08-20T12:11:25Z</time>
      </trkpt>
      <trkpt lat="43.026903" lon="-1.295360">
        <ele>1426.2</ele>
        <time>2018-08-20T12:11:33Z</time>
      </trkpt>
      <trkpt lat="43.026778" lon="-1.295329">
        <ele>1427.7</ele>
        <time>2018-08-20T12:11:46Z</time>
      </trkpt>
      <trkpt lat="43.026619" lon="-1.295326">
        <ele>1429.1</ele>
        <time>2018-08-20T12:12:01Z</time>
      </trkpt>
      <trkpt lat="43.026592" lon="-1.295327">
        <ele>1430.1</ele>
        <time>2018-08-20T12:12:04Z</time>
      </trkpt>
      <trkpt lat="43.026575" lon="-1.295326">
        <ele>1430.1</ele>
        <time>2018-08-20T12:12:06Z</time>
      </trkpt>
      <trkpt lat="43.026482" lon="-1.295350">
        <ele>1431.5</ele>
        <time>2018-08-20T12:12:15Z</time>
      </trkpt>
      <trkpt lat="43.026415" lon="-1.295364">
        <ele>1431.5</ele>
        <time>2018-08-20T12:12:22Z</time>
      </trkpt>
      <trkpt lat="43.026284" lon="-1.295415">
        <ele>1433.0</ele>
        <time>2018-08-20T12:12:35Z</time>
      </trkpt>
      <trkpt lat="43.026211" lon="-1.295441">
        <ele>1432.5</ele>
        <time>2018-08-20T12:12:46Z</time>
      </trkpt>
      <trkpt lat="43.026207" lon="-1.295438">
        <ele>1432.5</ele>
        <time>2018-08-20T12:12:47Z</time>
      </trkpt>
      <trkpt lat="43.026147" lon="-1.295524">
        <ele>1434.9</ele>
        <time>2018-08-20T12:13:02Z</time>
      </trkpt>
      <trkpt lat="43.026105" lon="-1.295539">
        <ele>1434.4</ele>
        <time>2018-08-20T12:13:13Z</time>
      </trkpt>
      <trkpt lat="43.026098" lon="-1.295545">
        <ele>1433.9</ele>
        <time>2018-08-20T12:13:14Z</time>
      </trkpt>
      <trkpt lat="43.025995" lon="-1.295610">
        <ele>1432.5</ele>
        <time>2018-08-20T12:14:38Z</time>
      </trkpt>
      <trkpt lat="43.025974" lon="-1.295646">
        <ele>1431.1</ele>
        <time>2018-08-20T12:14:46Z</time>
      </trkpt>
      <trkpt lat="43.025979" lon="-1.295641">
        <ele>1433.0</ele>
        <time>2018-08-20T12:14:51Z</time>
      </trkpt>
      <trkpt lat="43.025968" lon="-1.295654">
        <ele>1432.0</ele>
        <time>2018-08-20T12:15:30Z</time>
      </trkpt>
      <trkpt lat="43.025970" lon="-1.295659">
        <ele>1433.0</ele>
        <time>2018-08-20T12:15:35Z</time>
      </trkpt>
      <trkpt lat="43.025971" lon="-1.295658">
        <ele>1431.5</ele>
        <time>2018-08-20T12:15:37Z</time>
      </trkpt>
      <trkpt lat="43.025967" lon="-1.295659">
        <ele>1432.0</ele>
        <time>2018-08-20T12:15:39Z</time>
      </trkpt>
      <trkpt lat="43.025946" lon="-1.295688">
        <ele>1430.1</ele>
        <time>2018-08-20T12:15:42Z</time>
      </trkpt>
      <trkpt lat="43.025801" lon="-1.295865">
        <ele>1427.2</ele>
        <time>2018-08-20T12:15:58Z</time>
      </trkpt>
      <trkpt lat="43.025713" lon="-1.295971">
        <ele>1426.2</ele>
        <time>2018-08-20T12:16:11Z</time>
      </trkpt>
      <trkpt lat="43.025659" lon="-1.296008">
        <ele>1424.8</ele>
        <time>2018-08-20T12:16:17Z</time>
      </trkpt>
      <trkpt lat="43.025558" lon="-1.296093">
        <ele>1422.4</ele>
        <time>2018-08-20T12:16:30Z</time>
      </trkpt>
      <trkpt lat="43.025430" lon="-1.296160">
        <ele>1421.9</ele>
        <time>2018-08-20T12:16:45Z</time>
      </trkpt>
      <trkpt lat="43.025319" lon="-1.296237">
        <ele>1419.0</ele>
        <time>2018-08-20T12:17:00Z</time>
      </trkpt>
      <trkpt lat="43.025232" lon="-1.296307">
        <ele>1417.6</ele>
        <time>2018-08-20T12:17:14Z</time>
      </trkpt>
      <trkpt lat="43.025203" lon="-1.296297">
        <ele>1417.6</ele>
        <time>2018-08-20T12:17:46Z</time>
      </trkpt>
      <trkpt lat="43.025067" lon="-1.296327">
        <ele>1415.7</ele>
        <time>2018-08-20T12:18:01Z</time>
      </trkpt>
      <trkpt lat="43.024991" lon="-1.296328">
        <ele>1413.8</ele>
        <time>2018-08-20T12:18:09Z</time>
      </trkpt>
      <trkpt lat="43.024874" lon="-1.296305">
        <ele>1411.8</ele>
        <time>2018-08-20T12:18:20Z</time>
      </trkpt>
      <trkpt lat="43.024731" lon="-1.296281">
        <ele>1408.9</ele>
        <time>2018-08-20T12:18:33Z</time>
      </trkpt>
      <trkpt lat="43.024700" lon="-1.296231">
        <ele>1408.5</ele>
        <time>2018-08-20T12:18:45Z</time>
      </trkpt>
      <trkpt lat="43.024695" lon="-1.296237">
        <ele>1409.9</ele>
        <time>2018-08-20T12:53:11Z</time>
      </trkpt>
      <trkpt lat="43.024725" lon="-1.296342">
        <ele>1410.4</ele>
        <time>2018-08-20T12:53:24Z</time>
      </trkpt>
      <trkpt lat="43.024743" lon="-1.296383">
        <ele>1409.4</ele>
        <time>2018-08-20T12:53:37Z</time>
      </trkpt>
      <trkpt lat="43.024791" lon="-1.296429">
        <ele>1409.9</ele>
        <time>2018-08-20T12:53:51Z</time>
      </trkpt>
      <trkpt lat="43.024795" lon="-1.296456">
        <ele>1411.8</ele>
        <time>2018-08-20T12:54:01Z</time>
      </trkpt>
      <trkpt lat="43.024836" lon="-1.296485">
        <ele>1409.9</ele>
        <time>2018-08-20T12:54:16Z</time>
      </trkpt>
      <trkpt lat="43.024920" lon="-1.296494">
        <ele>1408.5</ele>
        <time>2018-08-20T12:54:29Z</time>
      </trkpt>
      <trkpt lat="43.024981" lon="-1.296500">
        <ele>1408.5</ele>
        <time>2018-08-20T12:54:40Z</time>
      </trkpt>
      <trkpt lat="43.025010" lon="-1.296514">
        <ele>1408.5</ele>
        <time>2018-08-20T12:54:46Z</time>
      </trkpt>
      <trkpt lat="43.025035" lon="-1.296511">
        <ele>1408.0</ele>
        <time>2018-08-20T12:54:58Z</time>
      </trkpt>
      <trkpt lat="43.025073" lon="-1.296520">
        <ele>1408.9</ele>
        <time>2018-08-20T12:55:11Z</time>
      </trkpt>
      <trkpt lat="43.025117" lon="-1.296520">
        <ele>1408.9</ele>
        <time>2018-08-20T12:55:24Z</time>
      </trkpt>
      <trkpt lat="43.025182" lon="-1.296527">
        <ele>1409.4</ele>
        <time>2018-08-20T12:55:37Z</time>
      </trkpt>
      <trkpt lat="43.025224" lon="-1.296526">
        <ele>1408.5</ele>
        <time>2018-08-20T12:55:49Z</time>
      </trkpt>
      <trkpt lat="43.025327" lon="-1.296536">
        <ele>1407.5</ele>
        <time>2018-08-20T12:56:02Z</time>
      </trkpt>
      <trkpt lat="43.025419" lon="-1.296531">
        <ele>1408.5</ele>
        <time>2018-08-20T12:56:16Z</time>
      </trkpt>
      <trkpt lat="43.025529" lon="-1.296542">
        <ele>1408.0</ele>
        <time>2018-08-20T12:56:30Z</time>
      </trkpt>
      <trkpt lat="43.025511" lon="-1.296569">
        <ele>1407.5</ele>
        <time>2018-08-20T12:56:41Z</time>
      </trkpt>
      <trkpt lat="43.025460" lon="-1.296620">
        <ele>1406.6</ele>
        <time>2018-08-20T12:56:54Z</time>
      </trkpt>
      <trkpt lat="43.025407" lon="-1.296654">
        <ele>1403.7</ele>
        <time>2018-08-20T12:57:06Z</time>
      </trkpt>
      <trkpt lat="43.025362" lon="-1.296702">
        <ele>1400.3</ele>
        <time>2018-08-20T12:57:15Z</time>
      </trkpt>
      <trkpt lat="43.025296" lon="-1.296782">
        <ele>1398.9</ele>
        <time>2018-08-20T12:57:31Z</time>
      </trkpt>
      <trkpt lat="43.025245" lon="-1.296830">
        <ele>1397.4</ele>
        <time>2018-08-20T12:57:46Z</time>
      </trkpt>
      <trkpt lat="43.025188" lon="-1.296879">
        <ele>1394.5</ele>
        <time>2018-08-20T12:58:00Z</time>
      </trkpt>
      <trkpt lat="43.025122" lon="-1.296913">
        <ele>1392.6</ele>
        <time>2018-08-20T12:58:12Z</time>
      </trkpt>
      <trkpt lat="43.025050" lon="-1.296941">
        <ele>1390.2</ele>
        <time>2018-08-20T12:58:27Z</time>
      </trkpt>
      <trkpt lat="43.024985" lon="-1.297010">
        <ele>1388.3</ele>
        <time>2018-08-20T12:58:43Z</time>
      </trkpt>
      <trkpt lat="43.024927" lon="-1.297077">
        <ele>1385.4</ele>
        <time>2018-08-20T12:58:57Z</time>
      </trkpt>
      <trkpt lat="43.024861" lon="-1.297145">
        <ele>1383.0</ele>
        <time>2018-08-20T12:59:12Z</time>
      </trkpt>
      <trkpt lat="43.024792" lon="-1.297185">
        <ele>1380.6</ele>
        <time>2018-08-20T12:59:27Z</time>
      </trkpt>
      <trkpt lat="43.024718" lon="-1.297239">
        <ele>1378.2</ele>
        <time>2018-08-20T12:59:40Z</time>
      </trkpt>
      <trkpt lat="43.024646" lon="-1.297296">
        <ele>1375.3</ele>
        <time>2018-08-20T12:59:55Z</time>
      </trkpt>
      <trkpt lat="43.024572" lon="-1.297363">
        <ele>1372.4</ele>
        <time>2018-08-20T13:00:11Z</time>
      </trkpt>
      <trkpt lat="43.024508" lon="-1.297403">
        <ele>1371.5</ele>
        <time>2018-08-20T13:00:26Z</time>
      </trkpt>
      <trkpt lat="43.024472" lon="-1.297438">
        <ele>1369.5</ele>
        <time>2018-08-20T13:00:39Z</time>
      </trkpt>
      <trkpt lat="43.024426" lon="-1.297465">
        <ele>1367.6</ele>
        <time>2018-08-20T13:00:54Z</time>
      </trkpt>
      <trkpt lat="43.024372" lon="-1.297507">
        <ele>1365.7</ele>
        <time>2018-08-20T13:01:08Z</time>
      </trkpt>
      <trkpt lat="43.024259" lon="-1.297574">
        <ele>1363.3</ele>
        <time>2018-08-20T13:01:30Z</time>
      </trkpt>
      <trkpt lat="43.024227" lon="-1.297595">
        <ele>1358.0</ele>
        <time>2018-08-20T13:01:34Z</time>
      </trkpt>
      <trkpt lat="43.024220" lon="-1.297598">
        <ele>1366.2</ele>
        <time>2018-08-20T13:01:35Z</time>
      </trkpt>
      <trkpt lat="43.024217" lon="-1.297594">
        <ele>1364.2</ele>
        <time>2018-08-20T13:01:36Z</time>
      </trkpt>
      <trkpt lat="43.024225" lon="-1.297589">
        <ele>1362.8</ele>
        <time>2018-08-20T13:01:39Z</time>
      </trkpt>
      <trkpt lat="43.024212" lon="-1.297630">
        <ele>1358.0</ele>
        <time>2018-08-20T13:01:58Z</time>
      </trkpt>
      <trkpt lat="43.024206" lon="-1.297635">
        <ele>1359.9</ele>
        <time>2018-08-20T13:01:59Z</time>
      </trkpt>
      <trkpt lat="43.024192" lon="-1.297634">
        <ele>1364.2</ele>
        <time>2018-08-20T13:02:00Z</time>
      </trkpt>
      <trkpt lat="43.024130" lon="-1.297661">
        <ele>1358.0</ele>
        <time>2018-08-20T13:02:07Z</time>
      </trkpt>
      <trkpt lat="43.024065" lon="-1.297724">
        <ele>1356.6</ele>
        <time>2018-08-20T13:02:22Z</time>
      </trkpt>
      <trkpt lat="43.023985" lon="-1.297759">
        <ele>1354.2</ele>
        <time>2018-08-20T13:02:37Z</time>
      </trkpt>
      <trkpt lat="43.023930" lon="-1.297769">
        <ele>1352.2</ele>
        <time>2018-08-20T13:02:49Z</time>
      </trkpt>
      <trkpt lat="43.023871" lon="-1.297807">
        <ele>1348.4</ele>
        <time>2018-08-20T13:02:59Z</time>
      </trkpt>
      <trkpt lat="43.023866" lon="-1.297813">
        <ele>1348.4</ele>
        <time>2018-08-20T13:03:00Z</time>
      </trkpt>
      <trkpt lat="43.023778" lon="-1.297863">
        <ele>1346.5</ele>
        <time>2018-08-20T13:03:16Z</time>
      </trkpt>
      <trkpt lat="43.023702" lon="-1.297896">
        <ele>1344.1</ele>
        <time>2018-08-20T13:03:29Z</time>
      </trkpt>
      <trkpt lat="43.023663" lon="-1.297916">
        <ele>1342.1</ele>
        <time>2018-08-20T13:03:36Z</time>
      </trkpt>
      <trkpt lat="43.023639" lon="-1.297954">
        <ele>1341.7</ele>
        <time>2018-08-20T13:03:49Z</time>
      </trkpt>
      <trkpt lat="43.023624" lon="-1.297965">
        <ele>1337.3</ele>
        <time>2018-08-20T13:03:56Z</time>
      </trkpt>
      <trkpt lat="43.023624" lon="-1.297972">
        <ele>1343.1</ele>
        <time>2018-08-20T13:03:57Z</time>
      </trkpt>
      <trkpt lat="43.023621" lon="-1.297978">
        <ele>1342.1</ele>
        <time>2018-08-20T13:03:58Z</time>
      </trkpt>
      <trkpt lat="43.023619" lon="-1.297983">
        <ele>1340.7</ele>
        <time>2018-08-20T13:04:00Z</time>
      </trkpt>
      <trkpt lat="43.023551" lon="-1.297972">
        <ele>1338.8</ele>
        <time>2018-08-20T13:04:14Z</time>
      </trkpt>
      <trkpt lat="43.023511" lon="-1.297982">
        <ele>1336.8</ele>
        <time>2018-08-20T13:04:26Z</time>
      </trkpt>
      <trkpt lat="43.023452" lon="-1.298026">
        <ele>1335.9</ele>
        <time>2018-08-20T13:04:39Z</time>
      </trkpt>
      <trkpt lat="43.023409" lon="-1.298063">
        <ele>1334.0</ele>
        <time>2018-08-20T13:04:58Z</time>
      </trkpt>
      <trkpt lat="43.023315" lon="-1.298092">
        <ele>1331.1</ele>
        <time>2018-08-20T13:05:17Z</time>
      </trkpt>
      <trkpt lat="43.023275" lon="-1.298121">
        <ele>1329.2</ele>
        <time>2018-08-20T13:05:31Z</time>
      </trkpt>
      <trkpt lat="43.023250" lon="-1.298109">
        <ele>1327.2</ele>
        <time>2018-08-20T13:05:42Z</time>
      </trkpt>
      <trkpt lat="43.023161" lon="-1.298160">
        <ele>1325.8</ele>
        <time>2018-08-20T13:05:55Z</time>
      </trkpt>
      <trkpt lat="43.023103" lon="-1.298197">
        <ele>1322.9</ele>
        <time>2018-08-20T13:06:06Z</time>
      </trkpt>
      <trkpt lat="43.023053" lon="-1.298212">
        <ele>1321.5</ele>
        <time>2018-08-20T13:06:19Z</time>
      </trkpt>
      <trkpt lat="43.022958" lon="-1.298224">
        <ele>1318.1</ele>
        <time>2018-08-20T13:06:35Z</time>
      </trkpt>
      <trkpt lat="43.022860" lon="-1.298280">
        <ele>1317.1</ele>
        <time>2018-08-20T13:06:48Z</time>
      </trkpt>
      <trkpt lat="43.022841" lon="-1.298261">
        <ele>1316.2</ele>
        <time>2018-08-20T13:07:01Z</time>
      </trkpt>
      <trkpt lat="43.022804" lon="-1.298248">
        <ele>1315.2</ele>
        <time>2018-08-20T13:07:16Z</time>
      </trkpt>
      <trkpt lat="43.022705" lon="-1.298281">
        <ele>1311.9</ele>
        <time>2018-08-20T13:07:33Z</time>
      </trkpt>
      <trkpt lat="43.022601" lon="-1.298358">
        <ele>1307.5</ele>
        <time>2018-08-20T13:09:15Z</time>
      </trkpt>
      <trkpt lat="43.022587" lon="-1.298392">
        <ele>1307.5</ele>
        <time>2018-08-20T13:09:19Z</time>
      </trkpt>
      <trkpt lat="43.022563" lon="-1.298411">
        <ele>1306.6</ele>
        <time>2018-08-20T13:09:22Z</time>
      </trkpt>
      <trkpt lat="43.022509" lon="-1.298416">
        <ele>1304.7</ele>
        <time>2018-08-20T13:09:26Z</time>
      </trkpt>
      <trkpt lat="43.022408" lon="-1.298440">
        <ele>1301.8</ele>
        <time>2018-08-20T13:09:34Z</time>
      </trkpt>
      <trkpt lat="43.022397" lon="-1.298437">
        <ele>1301.8</ele>
        <time>2018-08-20T13:09:35Z</time>
      </trkpt>
      <trkpt lat="43.022286" lon="-1.298473">
        <ele>1298.9</ele>
        <time>2018-08-20T13:09:47Z</time>
      </trkpt>
      <trkpt lat="43.022266" lon="-1.298470">
        <ele>1297.9</ele>
        <time>2018-08-20T13:09:49Z</time>
      </trkpt>
      <trkpt lat="43.022106" lon="-1.298525">
        <ele>1294.6</ele>
        <time>2018-08-20T13:10:05Z</time>
      </trkpt>
      <trkpt lat="43.022066" lon="-1.298545">
        <ele>1293.6</ele>
        <time>2018-08-20T13:10:09Z</time>
      </trkpt>
      <trkpt lat="43.022027" lon="-1.298534">
        <ele>1292.2</ele>
        <time>2018-08-20T13:10:14Z</time>
      </trkpt>
      <trkpt lat="43.021990" lon="-1.298473">
        <ele>1291.7</ele>
        <time>2018-08-20T13:10:22Z</time>
      </trkpt>
      <trkpt lat="43.021955" lon="-1.298445">
        <ele>1291.2</ele>
        <time>2018-08-20T13:10:27Z</time>
      </trkpt>
      <trkpt lat="43.021910" lon="-1.298398">
        <ele>1287.8</ele>
        <time>2018-08-20T13:10:35Z</time>
      </trkpt>
      <trkpt lat="43.021826" lon="-1.298371">
        <ele>1286.9</ele>
        <time>2018-08-20T13:10:47Z</time>
      </trkpt>
      <trkpt lat="43.021777" lon="-1.298386">
        <ele>1284.9</ele>
        <time>2018-08-20T13:10:56Z</time>
      </trkpt>
      <trkpt lat="43.021679" lon="-1.298478">
        <ele>1282.5</ele>
        <time>2018-08-20T13:11:11Z</time>
      </trkpt>
      <trkpt lat="43.021661" lon="-1.298490">
        <ele>1282.1</ele>
        <time>2018-08-20T13:11:25Z</time>
      </trkpt>
      <trkpt lat="43.021590" lon="-1.298538">
        <ele>1279.7</ele>
        <time>2018-08-20T13:11:38Z</time>
      </trkpt>
      <trkpt lat="43.021516" lon="-1.298630">
        <ele>1277.7</ele>
        <time>2018-08-20T13:11:52Z</time>
      </trkpt>
      <trkpt lat="43.021495" lon="-1.298689">
        <ele>1276.8</ele>
        <time>2018-08-20T13:12:40Z</time>
      </trkpt>
      <trkpt lat="43.021472" lon="-1.298721">
        <ele>1276.8</ele>
        <time>2018-08-20T13:12:54Z</time>
      </trkpt>
      <trkpt lat="43.021398" lon="-1.298757">
        <ele>1275.8</ele>
        <time>2018-08-20T13:13:08Z</time>
      </trkpt>
      <trkpt lat="43.021359" lon="-1.298850">
        <ele>1274.4</ele>
        <time>2018-08-20T13:13:22Z</time>
      </trkpt>
      <trkpt lat="43.021322" lon="-1.298924">
        <ele>1272.9</ele>
        <time>2018-08-20T13:13:36Z</time>
      </trkpt>
      <trkpt lat="43.021323" lon="-1.298931">
        <ele>1273.9</ele>
        <time>2018-08-20T13:13:38Z</time>
      </trkpt>
      <trkpt lat="43.021337" lon="-1.298972">
        <ele>1273.9</ele>
        <time>2018-08-20T13:13:59Z</time>
      </trkpt>
      <trkpt lat="43.021311" lon="-1.299006">
        <ele>1273.4</ele>
        <time>2018-08-20T13:14:15Z</time>
      </trkpt>
      <trkpt lat="43.021272" lon="-1.299054">
        <ele>1273.4</ele>
        <time>2018-08-20T13:14:28Z</time>
      </trkpt>
      <trkpt lat="43.021214" lon="-1.299062">
        <ele>1272.0</ele>
        <time>2018-08-20T13:14:40Z</time>
      </trkpt>
      <trkpt lat="43.021177" lon="-1.299084">
        <ele>1271.0</ele>
        <time>2018-08-20T13:14:45Z</time>
      </trkpt>
      <trkpt lat="43.021088" lon="-1.299168">
        <ele>1270.0</ele>
        <time>2018-08-20T13:14:59Z</time>
      </trkpt>
      <trkpt lat="43.021067" lon="-1.299242">
        <ele>1269.6</ele>
        <time>2018-08-20T13:15:14Z</time>
      </trkpt>
      <trkpt lat="43.021035" lon="-1.299322">
        <ele>1269.1</ele>
        <time>2018-08-20T13:15:29Z</time>
      </trkpt>
      <trkpt lat="43.021021" lon="-1.299407">
        <ele>1269.1</ele>
        <time>2018-08-20T13:15:42Z</time>
      </trkpt>
      <trkpt lat="43.020983" lon="-1.299495">
        <ele>1268.1</ele>
        <time>2018-08-20T13:15:58Z</time>
      </trkpt>
      <trkpt lat="43.020927" lon="-1.299635">
        <ele>1267.2</ele>
        <time>2018-08-20T13:16:12Z</time>
      </trkpt>
      <trkpt lat="43.020890" lon="-1.299692">
        <ele>1266.2</ele>
        <time>2018-08-20T13:16:26Z</time>
      </trkpt>
      <trkpt lat="43.020818" lon="-1.299792">
        <ele>1264.8</ele>
        <time>2018-08-20T13:16:40Z</time>
      </trkpt>
      <trkpt lat="43.020750" lon="-1.299910">
        <ele>1265.2</ele>
        <time>2018-08-20T13:16:54Z</time>
      </trkpt>
      <trkpt lat="43.020699" lon="-1.299986">
        <ele>1265.7</ele>
        <time>2018-08-20T13:17:07Z</time>
      </trkpt>
      <trkpt lat="43.020637" lon="-1.299992">
        <ele>1262.3</ele>
        <time>2018-08-20T13:20:26Z</time>
      </trkpt>
      <trkpt lat="43.020595" lon="-1.300004">
        <ele>1262.8</ele>
        <time>2018-08-20T13:22:13Z</time>
      </trkpt>
      <trkpt lat="43.020522" lon="-1.300061">
        <ele>1262.3</ele>
        <time>2018-08-20T13:22:28Z</time>
      </trkpt>
      <trkpt lat="43.020462" lon="-1.300075">
        <ele>1260.4</ele>
        <time>2018-08-20T13:22:41Z</time>
      </trkpt>
      <trkpt lat="43.020381" lon="-1.300099">
        <ele>1259.9</ele>
        <time>2018-08-20T13:22:55Z</time>
      </trkpt>
      <trkpt lat="43.020282" lon="-1.300044">
        <ele>1259.5</ele>
        <time>2018-08-20T13:23:09Z</time>
      </trkpt>
      <trkpt lat="43.020238" lon="-1.300033">
        <ele>1258.5</ele>
        <time>2018-08-20T13:23:21Z</time>
      </trkpt>
      <trkpt lat="43.020184" lon="-1.299978">
        <ele>1257.5</ele>
        <time>2018-08-20T13:23:35Z</time>
      </trkpt>
      <trkpt lat="43.020170" lon="-1.299983">
        <ele>1257.1</ele>
        <time>2018-08-20T13:23:47Z</time>
      </trkpt>
      <trkpt lat="43.020096" lon="-1.299908">
        <ele>1255.6</ele>
        <time>2018-08-20T13:24:01Z</time>
      </trkpt>
      <trkpt lat="43.020073" lon="-1.299827">
        <ele>1254.7</ele>
        <time>2018-08-20T13:24:14Z</time>
      </trkpt>
      <trkpt lat="43.020070" lon="-1.299811">
        <ele>1254.2</ele>
        <time>2018-08-20T13:24:17Z</time>
      </trkpt>
      <trkpt lat="43.020041" lon="-1.299799">
        <ele>1249.4</ele>
        <time>2018-08-20T13:24:20Z</time>
      </trkpt>
      <trkpt lat="43.020033" lon="-1.299794">
        <ele>1255.1</ele>
        <time>2018-08-20T13:24:21Z</time>
      </trkpt>
      <trkpt lat="43.020025" lon="-1.299789">
        <ele>1255.6</ele>
        <time>2018-08-20T13:24:22Z</time>
      </trkpt>
      <trkpt lat="43.020043" lon="-1.299694">
        <ele>1253.7</ele>
        <time>2018-08-20T13:24:30Z</time>
      </trkpt>
      <trkpt lat="43.020048" lon="-1.299674">
        <ele>1252.7</ele>
        <time>2018-08-20T13:24:32Z</time>
      </trkpt>
      <trkpt lat="43.020097" lon="-1.299567">
        <ele>1251.8</ele>
        <time>2018-08-20T13:24:47Z</time>
      </trkpt>
      <trkpt lat="43.020080" lon="-1.299523">
        <ele>1250.8</ele>
        <time>2018-08-20T13:25:06Z</time>
      </trkpt>
      <trkpt lat="43.020091" lon="-1.299469">
        <ele>1250.3</ele>
        <time>2018-08-20T13:25:23Z</time>
      </trkpt>
      <trkpt lat="43.020137" lon="-1.299424">
        <ele>1250.3</ele>
        <time>2018-08-20T13:25:35Z</time>
      </trkpt>
      <trkpt lat="43.020127" lon="-1.299379">
        <ele>1248.9</ele>
        <time>2018-08-20T13:25:49Z</time>
      </trkpt>
      <trkpt lat="43.020131" lon="-1.299293">
        <ele>1248.4</ele>
        <time>2018-08-20T13:26:03Z</time>
      </trkpt>
      <trkpt lat="43.020161" lon="-1.299258">
        <ele>1248.9</ele>
        <time>2018-08-20T13:26:18Z</time>
      </trkpt>
      <trkpt lat="43.020182" lon="-1.299142">
        <ele>1247.0</ele>
        <time>2018-08-20T13:26:32Z</time>
      </trkpt>
      <trkpt lat="43.020232" lon="-1.299075">
        <ele>1246.5</ele>
        <time>2018-08-20T13:26:45Z</time>
      </trkpt>
      <trkpt lat="43.020291" lon="-1.298966">
        <ele>1244.1</ele>
        <time>2018-08-20T13:26:59Z</time>
      </trkpt>
      <trkpt lat="43.020312" lon="-1.298825">
        <ele>1242.2</ele>
        <time>2018-08-20T13:27:13Z</time>
      </trkpt>
      <trkpt lat="43.020299" lon="-1.298770">
        <ele>1241.7</ele>
        <time>2018-08-20T13:27:28Z</time>
      </trkpt>
      <trkpt lat="43.020266" lon="-1.298655">
        <ele>1240.2</ele>
        <time>2018-08-20T13:27:47Z</time>
      </trkpt>
      <trkpt lat="43.020193" lon="-1.298640">
        <ele>1236.9</ele>
        <time>2018-08-20T13:28:01Z</time>
      </trkpt>
      <trkpt lat="43.020141" lon="-1.298716">
        <ele>1235.9</ele>
        <time>2018-08-20T13:28:15Z</time>
      </trkpt>
      <trkpt lat="43.020080" lon="-1.298709">
        <ele>1234.0</ele>
        <time>2018-08-20T13:28:30Z</time>
      </trkpt>
      <trkpt lat="43.020014" lon="-1.298783">
        <ele>1232.6</ele>
        <time>2018-08-20T13:28:42Z</time>
      </trkpt>
      <trkpt lat="43.019927" lon="-1.298857">
        <ele>1230.6</ele>
        <time>2018-08-20T13:29:48Z</time>
      </trkpt>
      <trkpt lat="43.019888" lon="-1.298890">
        <ele>1231.1</ele>
        <time>2018-08-20T13:36:20Z</time>
      </trkpt>
      <trkpt lat="43.019769" lon="-1.298958">
        <ele>1230.1</ele>
        <time>2018-08-20T13:36:35Z</time>
      </trkpt>
      <trkpt lat="43.019546" lon="-1.299100">
        <ele>1225.8</ele>
        <time>2018-08-20T13:43:15Z</time>
      </trkpt>
      <trkpt lat="43.019452" lon="-1.299168">
        <ele>1222.9</ele>
        <time>2018-08-20T13:43:29Z</time>
      </trkpt>
      <trkpt lat="43.019380" lon="-1.299181">
        <ele>1222.0</ele>
        <time>2018-08-20T13:43:43Z</time>
      </trkpt>
      <trkpt lat="43.019310" lon="-1.299185">
        <ele>1221.0</ele>
        <time>2018-08-20T13:43:56Z</time>
      </trkpt>
      <trkpt lat="43.019206" lon="-1.299242">
        <ele>1219.1</ele>
        <time>2018-08-20T13:44:09Z</time>
      </trkpt>
      <trkpt lat="43.019136" lon="-1.299263">
        <ele>1217.2</ele>
        <time>2018-08-20T13:44:20Z</time>
      </trkpt>
      <trkpt lat="43.019015" lon="-1.299259">
        <ele>1215.2</ele>
        <time>2018-08-20T13:44:35Z</time>
      </trkpt>
      <trkpt lat="43.018986" lon="-1.299256">
        <ele>1215.2</ele>
        <time>2018-08-20T13:44:38Z</time>
      </trkpt>
      <trkpt lat="43.018848" lon="-1.299256">
        <ele>1212.4</ele>
        <time>2018-08-20T13:44:54Z</time>
      </trkpt>
      <trkpt lat="43.018709" lon="-1.299270">
        <ele>1210.9</ele>
        <time>2018-08-20T13:45:10Z</time>
      </trkpt>
      <trkpt lat="43.018612" lon="-1.299344">
        <ele>1209.0</ele>
        <time>2018-08-20T13:45:25Z</time>
      </trkpt>
      <trkpt lat="43.018537" lon="-1.299465">
        <ele>1207.1</ele>
        <time>2018-08-20T13:45:44Z</time>
      </trkpt>
      <trkpt lat="43.018469" lon="-1.299481">
        <ele>1205.6</ele>
        <time>2018-08-20T13:45:57Z</time>
      </trkpt>
      <trkpt lat="43.018408" lon="-1.299623">
        <ele>1203.7</ele>
        <time>2018-08-20T13:46:10Z</time>
      </trkpt>
      <trkpt lat="43.018366" lon="-1.299729">
        <ele>1202.3</ele>
        <time>2018-08-20T13:46:24Z</time>
      </trkpt>
      <trkpt lat="43.018332" lon="-1.299821">
        <ele>1200.8</ele>
        <time>2018-08-20T13:46:37Z</time>
      </trkpt>
      <trkpt lat="43.018289" lon="-1.299909">
        <ele>1198.4</ele>
        <time>2018-08-20T13:46:49Z</time>
      </trkpt>
      <trkpt lat="43.018279" lon="-1.300026">
        <ele>1196.0</ele>
        <time>2018-08-20T13:47:02Z</time>
      </trkpt>
      <trkpt lat="43.018295" lon="-1.300080">
        <ele>1195.1</ele>
        <time>2018-08-20T13:47:15Z</time>
      </trkpt>
      <trkpt lat="43.018280" lon="-1.300141">
        <ele>1195.1</ele>
        <time>2018-08-20T13:47:34Z</time>
      </trkpt>
      <trkpt lat="43.018264" lon="-1.300231">
        <ele>1193.6</ele>
        <time>2018-08-20T13:47:48Z</time>
      </trkpt>
      <trkpt lat="43.018228" lon="-1.300343">
        <ele>1192.2</ele>
        <time>2018-08-20T13:48:04Z</time>
      </trkpt>
      <trkpt lat="43.018210" lon="-1.300457">
        <ele>1186.9</ele>
        <time>2018-08-20T13:48:31Z</time>
      </trkpt>
      <trkpt lat="43.018203" lon="-1.300463">
        <ele>1186.9</ele>
        <time>2018-08-20T13:48:32Z</time>
      </trkpt>
      <trkpt lat="43.018195" lon="-1.300469">
        <ele>1191.7</ele>
        <time>2018-08-20T13:48:33Z</time>
      </trkpt>
      <trkpt lat="43.018183" lon="-1.300498">
        <ele>1188.8</ele>
        <time>2018-08-20T13:48:36Z</time>
      </trkpt>
      <trkpt lat="43.018182" lon="-1.300505">
        <ele>1188.3</ele>
        <time>2018-08-20T13:48:37Z</time>
      </trkpt>
      <trkpt lat="43.018137" lon="-1.300661">
        <ele>1185.9</ele>
        <time>2018-08-20T13:48:53Z</time>
      </trkpt>
      <trkpt lat="43.018070" lon="-1.300824">
        <ele>1183.5</ele>
        <time>2018-08-20T13:49:10Z</time>
      </trkpt>
      <trkpt lat="43.018053" lon="-1.300961">
        <ele>1181.6</ele>
        <time>2018-08-20T13:49:25Z</time>
      </trkpt>
      <trkpt lat="43.018012" lon="-1.301130">
        <ele>1180.2</ele>
        <time>2018-08-20T13:49:39Z</time>
      </trkpt>
      <trkpt lat="43.017994" lon="-1.301209">
        <ele>1179.2</ele>
        <time>2018-08-20T13:49:54Z</time>
      </trkpt>
      <trkpt lat="43.017970" lon="-1.301244">
        <ele>1177.8</ele>
        <time>2018-08-20T13:50:07Z</time>
      </trkpt>
      <trkpt lat="43.017963" lon="-1.301403">
        <ele>1175.8</ele>
        <time>2018-08-20T13:50:24Z</time>
      </trkpt>
      <trkpt lat="43.017951" lon="-1.301484">
        <ele>1174.9</ele>
        <time>2018-08-20T13:50:38Z</time>
      </trkpt>
      <trkpt lat="43.017904" lon="-1.301571">
        <ele>1173.4</ele>
        <time>2018-08-20T13:50:53Z</time>
      </trkpt>
      <trkpt lat="43.017913" lon="-1.301659">
        <ele>1172.5</ele>
        <time>2018-08-20T13:51:05Z</time>
      </trkpt>
      <trkpt lat="43.017894" lon="-1.301705">
        <ele>1171.5</ele>
        <time>2018-08-20T13:51:18Z</time>
      </trkpt>
      <trkpt lat="43.017953" lon="-1.301915">
        <ele>1170.5</ele>
        <time>2018-08-20T13:51:39Z</time>
      </trkpt>
      <trkpt lat="43.017949" lon="-1.301934">
        <ele>1169.6</ele>
        <time>2018-08-20T13:52:00Z</time>
      </trkpt>
      <trkpt lat="43.017958" lon="-1.301905">
        <ele>1170.5</ele>
        <time>2018-08-20T13:52:22Z</time>
      </trkpt>
      <trkpt lat="43.017934" lon="-1.302024">
        <ele>1169.6</ele>
        <time>2018-08-20T13:52:44Z</time>
      </trkpt>
      <trkpt lat="43.017854" lon="-1.302117">
        <ele>1168.6</ele>
        <time>2018-08-20T13:53:00Z</time>
      </trkpt>
      <trkpt lat="43.017826" lon="-1.302110">
        <ele>1165.7</ele>
        <time>2018-08-20T13:53:12Z</time>
      </trkpt>
      <trkpt lat="43.017759" lon="-1.302085">
        <ele>1163.8</ele>
        <time>2018-08-20T13:53:26Z</time>
      </trkpt>
      <trkpt lat="43.017647" lon="-1.302115">
        <ele>1162.4</ele>
        <time>2018-08-20T13:53:48Z</time>
      </trkpt>
      <trkpt lat="43.017588" lon="-1.302099">
        <ele>1159.5</ele>
        <time>2018-08-20T13:54:49Z</time>
      </trkpt>
      <trkpt lat="43.017496" lon="-1.302020">
        <ele>1157.6</ele>
        <time>2018-08-20T13:55:05Z</time>
      </trkpt>
      <trkpt lat="43.017439" lon="-1.302026">
        <ele>1155.2</ele>
        <time>2018-08-20T13:55:20Z</time>
      </trkpt>
      <trkpt lat="43.017361" lon="-1.301998">
        <ele>1152.8</ele>
        <time>2018-08-20T13:55:38Z</time>
      </trkpt>
      <trkpt lat="43.017302" lon="-1.301980">
        <ele>1151.3</ele>
        <time>2018-08-20T13:55:53Z</time>
      </trkpt>
      <trkpt lat="43.017241" lon="-1.301964">
        <ele>1150.3</ele>
        <time>2018-08-20T13:56:08Z</time>
      </trkpt>
      <trkpt lat="43.017173" lon="-1.302024">
        <ele>1149.4</ele>
        <time>2018-08-20T13:56:22Z</time>
      </trkpt>
      <trkpt lat="43.017122" lon="-1.302068">
        <ele>1148.4</ele>
        <time>2018-08-20T13:56:36Z</time>
      </trkpt>
      <trkpt lat="43.017075" lon="-1.302207">
        <ele>1147.0</ele>
        <time>2018-08-20T13:56:50Z</time>
      </trkpt>
      <trkpt lat="43.017029" lon="-1.302350">
        <ele>1145.1</ele>
        <time>2018-08-20T13:57:07Z</time>
      </trkpt>
      <trkpt lat="43.017012" lon="-1.302448">
        <ele>1143.6</ele>
        <time>2018-08-20T13:57:19Z</time>
      </trkpt>
      <trkpt lat="43.016985" lon="-1.302534">
        <ele>1142.2</ele>
        <time>2018-08-20T13:57:33Z</time>
      </trkpt>
      <trkpt lat="43.016889" lon="-1.302685">
        <ele>1141.7</ele>
        <time>2018-08-20T13:57:48Z</time>
      </trkpt>
      <trkpt lat="43.016848" lon="-1.302826">
        <ele>1141.2</ele>
        <time>2018-08-20T13:58:01Z</time>
      </trkpt>
      <trkpt lat="43.016825" lon="-1.302971">
        <ele>1141.2</ele>
        <time>2018-08-20T13:58:16Z</time>
      </trkpt>
      <trkpt lat="43.016745" lon="-1.303101">
        <ele>1140.7</ele>
        <time>2018-08-20T13:58:25Z</time>
      </trkpt>
      <trkpt lat="43.016671" lon="-1.303296">
        <ele>1139.8</ele>
        <time>2018-08-20T13:58:42Z</time>
      </trkpt>
      <trkpt lat="43.016626" lon="-1.303469">
        <ele>1139.3</ele>
        <time>2018-08-20T13:58:57Z</time>
      </trkpt>
      <trkpt lat="43.016611" lon="-1.303656">
        <ele>1138.8</ele>
        <time>2018-08-20T13:59:10Z</time>
      </trkpt>
      <trkpt lat="43.016620" lon="-1.303695">
        <ele>1139.3</ele>
        <time>2018-08-20T13:59:13Z</time>
      </trkpt>
      <trkpt lat="43.016552" lon="-1.303874">
        <ele>1139.8</ele>
        <time>2018-08-20T13:59:27Z</time>
      </trkpt>
      <trkpt lat="43.016487" lon="-1.304022">
        <ele>1140.7</ele>
        <time>2018-08-20T13:59:40Z</time>
      </trkpt>
      <trkpt lat="43.016427" lon="-1.304176">
        <ele>1142.2</ele>
        <time>2018-08-20T13:59:53Z</time>
      </trkpt>
      <trkpt lat="43.016353" lon="-1.304342">
        <ele>1143.1</ele>
        <time>2018-08-20T14:00:06Z</time>
      </trkpt>
      <trkpt lat="43.016304" lon="-1.304468">
        <ele>1144.6</ele>
        <time>2018-08-20T14:00:21Z</time>
      </trkpt>
      <trkpt lat="43.016272" lon="-1.304558">
        <ele>1145.6</ele>
        <time>2018-08-20T14:00:32Z</time>
      </trkpt>
      <trkpt lat="43.016255" lon="-1.304572">
        <ele>1146.5</ele>
        <time>2018-08-20T14:00:38Z</time>
      </trkpt>
      <trkpt lat="43.016213" lon="-1.304594">
        <ele>1147.9</ele>
        <time>2018-08-20T14:00:48Z</time>
      </trkpt>
      <trkpt lat="43.016175" lon="-1.304612">
        <ele>1148.9</ele>
        <time>2018-08-20T14:00:56Z</time>
      </trkpt>
      <trkpt lat="43.016073" lon="-1.304731">
        <ele>1151.3</ele>
        <time>2018-08-20T14:01:08Z</time>
      </trkpt>
      <trkpt lat="43.016013" lon="-1.304818">
        <ele>1152.3</ele>
        <time>2018-08-20T14:01:19Z</time>
      </trkpt>
      <trkpt lat="43.015937" lon="-1.304853">
        <ele>1153.7</ele>
        <time>2018-08-20T14:01:29Z</time>
      </trkpt>
      <trkpt lat="43.015903" lon="-1.304899">
        <ele>1153.7</ele>
        <time>2018-08-20T14:01:33Z</time>
      </trkpt>
      <trkpt lat="43.015877" lon="-1.304941">
        <ele>1154.7</ele>
        <time>2018-08-20T14:01:36Z</time>
      </trkpt>
      <trkpt lat="43.015804" lon="-1.305061">
        <ele>1155.2</ele>
        <time>2018-08-20T14:01:48Z</time>
      </trkpt>
      <trkpt lat="43.015777" lon="-1.305114">
        <ele>1155.6</ele>
        <time>2018-08-20T14:01:52Z</time>
      </trkpt>
      <trkpt lat="43.015722" lon="-1.305249">
        <ele>1156.6</ele>
        <time>2018-08-20T14:02:04Z</time>
      </trkpt>
      <trkpt lat="43.015684" lon="-1.305406">
        <ele>1156.6</ele>
        <time>2018-08-20T14:02:17Z</time>
      </trkpt>
      <trkpt lat="43.015622" lon="-1.305532">
        <ele>1157.6</ele>
        <time>2018-08-20T14:02:29Z</time>
      </trkpt>
      <trkpt lat="43.015552" lon="-1.305658">
        <ele>1159.0</ele>
        <time>2018-08-20T14:02:42Z</time>
      </trkpt>
      <trkpt lat="43.015476" lon="-1.305805">
        <ele>1158.5</ele>
        <time>2018-08-20T14:02:55Z</time>
      </trkpt>
      <trkpt lat="43.015437" lon="-1.305947">
        <ele>1158.5</ele>
        <time>2018-08-20T14:03:08Z</time>
      </trkpt>
      <trkpt lat="43.015356" lon="-1.306015">
        <ele>1158.5</ele>
        <time>2018-08-20T14:03:18Z</time>
      </trkpt>
      <trkpt lat="43.015245" lon="-1.306133">
        <ele>1158.1</ele>
        <time>2018-08-20T14:03:34Z</time>
      </trkpt>
      <trkpt lat="43.015236" lon="-1.306288">
        <ele>1157.1</ele>
        <time>2018-08-20T14:03:47Z</time>
      </trkpt>
      <trkpt lat="43.015168" lon="-1.306352">
        <ele>1157.6</ele>
        <time>2018-08-20T14:03:55Z</time>
      </trkpt>
      <trkpt lat="43.015107" lon="-1.306470">
        <ele>1157.1</ele>
        <time>2018-08-20T14:04:05Z</time>
      </trkpt>
      <trkpt lat="43.015058" lon="-1.306571">
        <ele>1155.2</ele>
        <time>2018-08-20T14:04:15Z</time>
      </trkpt>
      <trkpt lat="43.014991" lon="-1.306682">
        <ele>1154.2</ele>
        <time>2018-08-20T14:04:29Z</time>
      </trkpt>
      <trkpt lat="43.014918" lon="-1.306752">
        <ele>1152.3</ele>
        <time>2018-08-20T14:04:42Z</time>
      </trkpt>
      <trkpt lat="43.014855" lon="-1.306827">
        <ele>1151.8</ele>
        <time>2018-08-20T14:04:54Z</time>
      </trkpt>
      <trkpt lat="43.014813" lon="-1.306934">
        <ele>1149.4</ele>
        <time>2018-08-20T14:05:07Z</time>
      </trkpt>
      <trkpt lat="43.014741" lon="-1.307083">
        <ele>1148.4</ele>
        <time>2018-08-20T14:05:21Z</time>
      </trkpt>
      <trkpt lat="43.014715" lon="-1.307142">
        <ele>1148.4</ele>
        <time>2018-08-20T14:05:25Z</time>
      </trkpt>
      <trkpt lat="43.014648" lon="-1.307202">
        <ele>1146.5</ele>
        <time>2018-08-20T14:05:38Z</time>
      </trkpt>
      <trkpt lat="43.014559" lon="-1.307185">
        <ele>1145.1</ele>
        <time>2018-08-20T14:05:52Z</time>
      </trkpt>
      <trkpt lat="43.014479" lon="-1.307267">
        <ele>1143.6</ele>
        <time>2018-08-20T14:06:06Z</time>
      </trkpt>
      <trkpt lat="43.014383" lon="-1.307319">
        <ele>1143.1</ele>
        <time>2018-08-20T14:06:17Z</time>
      </trkpt>
      <trkpt lat="43.014351" lon="-1.307336">
        <ele>1140.7</ele>
        <time>2018-08-20T14:06:20Z</time>
      </trkpt>
      <trkpt lat="43.014326" lon="-1.307359">
        <ele>1144.1</ele>
        <time>2018-08-20T14:06:23Z</time>
      </trkpt>
      <trkpt lat="43.014316" lon="-1.307366">
        <ele>1140.7</ele>
        <time>2018-08-20T14:06:26Z</time>
      </trkpt>
      <trkpt lat="43.014249" lon="-1.307399">
        <ele>1142.2</ele>
        <time>2018-08-20T14:06:39Z</time>
      </trkpt>
      <trkpt lat="43.014153" lon="-1.307467">
        <ele>1140.3</ele>
        <time>2018-08-20T14:06:56Z</time>
      </trkpt>
      <trkpt lat="43.014094" lon="-1.307509">
        <ele>1139.8</ele>
        <time>2018-08-20T14:07:10Z</time>
      </trkpt>
      <trkpt lat="43.013938" lon="-1.307583">
        <ele>1138.8</ele>
        <time>2018-08-20T14:07:25Z</time>
      </trkpt>
      <trkpt lat="43.013845" lon="-1.307616">
        <ele>1137.4</ele>
        <time>2018-08-20T14:07:37Z</time>
      </trkpt>
      <trkpt lat="43.013718" lon="-1.307674">
        <ele>1135.0</ele>
        <time>2018-08-20T14:07:48Z</time>
      </trkpt>
      <trkpt lat="43.013590" lon="-1.307771">
        <ele>1133.5</ele>
        <time>2018-08-20T14:08:03Z</time>
      </trkpt>
      <trkpt lat="43.013551" lon="-1.307772">
        <ele>1133.1</ele>
        <time>2018-08-20T14:08:23Z</time>
      </trkpt>
      <trkpt lat="43.013536" lon="-1.307793">
        <ele>1133.1</ele>
        <time>2018-08-20T14:08:56Z</time>
      </trkpt>
      <trkpt lat="43.013481" lon="-1.307809">
        <ele>1134.0</ele>
        <time>2018-08-20T14:10:30Z</time>
      </trkpt>
      <trkpt lat="43.013461" lon="-1.307847">
        <ele>1134.5</ele>
        <time>2018-08-20T14:11:00Z</time>
      </trkpt>
      <trkpt lat="43.013365" lon="-1.307923">
        <ele>1133.1</ele>
        <time>2018-08-20T14:14:45Z</time>
      </trkpt>
      <trkpt lat="43.013299" lon="-1.307988">
        <ele>1131.6</ele>
        <time>2018-08-20T14:14:59Z</time>
      </trkpt>
      <trkpt lat="43.013187" lon="-1.308102">
        <ele>1130.7</ele>
        <time>2018-08-20T14:15:14Z</time>
      </trkpt>
      <trkpt lat="43.013087" lon="-1.308275">
        <ele>1129.2</ele>
        <time>2018-08-20T14:15:28Z</time>
      </trkpt>
      <trkpt lat="43.013039" lon="-1.308389">
        <ele>1127.8</ele>
        <time>2018-08-20T14:15:38Z</time>
      </trkpt>
      <trkpt lat="43.012964" lon="-1.308565">
        <ele>1126.8</ele>
        <time>2018-08-20T14:15:51Z</time>
      </trkpt>
      <trkpt lat="43.012860" lon="-1.308701">
        <ele>1123.4</ele>
        <time>2018-08-20T14:16:08Z</time>
      </trkpt>
      <trkpt lat="43.012853" lon="-1.308707">
        <ele>1123.0</ele>
        <time>2018-08-20T14:16:09Z</time>
      </trkpt>
      <trkpt lat="43.012735" lon="-1.308779">
        <ele>1120.6</ele>
        <time>2018-08-20T14:16:25Z</time>
      </trkpt>
      <trkpt lat="43.012665" lon="-1.308856">
        <ele>1118.2</ele>
        <time>2018-08-20T14:16:36Z</time>
      </trkpt>
      <trkpt lat="43.012623" lon="-1.308915">
        <ele>1118.2</ele>
        <time>2018-08-20T14:16:43Z</time>
      </trkpt>
      <trkpt lat="43.012578" lon="-1.308961">
        <ele>1117.2</ele>
        <time>2018-08-20T14:16:59Z</time>
      </trkpt>
      <trkpt lat="43.012539" lon="-1.308932">
        <ele>1115.8</ele>
        <time>2018-08-20T14:17:14Z</time>
      </trkpt>
      <trkpt lat="43.012525" lon="-1.308922">
        <ele>1115.3</ele>
        <time>2018-08-20T14:17:34Z</time>
      </trkpt>
      <trkpt lat="43.012469" lon="-1.308947">
        <ele>1115.8</ele>
        <time>2018-08-20T14:18:01Z</time>
      </trkpt>
      <trkpt lat="43.012490" lon="-1.308952">
        <ele>1114.8</ele>
        <time>2018-08-20T14:18:17Z</time>
      </trkpt>
      <trkpt lat="43.012396" lon="-1.308959">
        <ele>1113.8</ele>
        <time>2018-08-20T14:18:31Z</time>
      </trkpt>
      <trkpt lat="43.012373" lon="-1.308928">
        <ele>1112.9</ele>
        <time>2018-08-20T14:18:46Z</time>
      </trkpt>
      <trkpt lat="43.012330" lon="-1.308927">
        <ele>1112.4</ele>
        <time>2018-08-20T14:18:59Z</time>
      </trkpt>
      <trkpt lat="43.012209" lon="-1.308889">
        <ele>1110.5</ele>
        <time>2018-08-20T14:19:12Z</time>
      </trkpt>
      <trkpt lat="43.012114" lon="-1.308884">
        <ele>1107.6</ele>
        <time>2018-08-20T14:19:25Z</time>
      </trkpt>
      <trkpt lat="43.012023" lon="-1.308844">
        <ele>1105.2</ele>
        <time>2018-08-20T14:19:40Z</time>
      </trkpt>
      <trkpt lat="43.011917" lon="-1.308768">
        <ele>1103.7</ele>
        <time>2018-08-20T14:19:52Z</time>
      </trkpt>
      <trkpt lat="43.011857" lon="-1.308736">
        <ele>1102.3</ele>
        <time>2018-08-20T14:20:09Z</time>
      </trkpt>
      <trkpt lat="43.011805" lon="-1.308607">
        <ele>1099.4</ele>
        <time>2018-08-20T14:20:21Z</time>
      </trkpt>
      <trkpt lat="43.011798" lon="-1.308597">
        <ele>1102.8</ele>
        <time>2018-08-20T14:20:22Z</time>
      </trkpt>
      <trkpt lat="43.011767" lon="-1.308535">
        <ele>1099.4</ele>
        <time>2018-08-20T14:20:33Z</time>
      </trkpt>
      <trkpt lat="43.011686" lon="-1.308415">
        <ele>1096.5</ele>
        <time>2018-08-20T14:20:48Z</time>
      </trkpt>
      <trkpt lat="43.011610" lon="-1.308332">
        <ele>1094.1</ele>
        <time>2018-08-20T14:21:02Z</time>
      </trkpt>
      <trkpt lat="43.011579" lon="-1.308269">
        <ele>1092.2</ele>
        <time>2018-08-20T14:21:16Z</time>
      </trkpt>
      <trkpt lat="43.011493" lon="-1.308174">
        <ele>1090.3</ele>
        <time>2018-08-20T14:21:31Z</time>
      </trkpt>
      <trkpt lat="43.011399" lon="-1.308103">
        <ele>1087.9</ele>
        <time>2018-08-20T14:21:44Z</time>
      </trkpt>
      <trkpt lat="43.011275" lon="-1.308027">
        <ele>1085.9</ele>
        <time>2018-08-20T14:22:00Z</time>
      </trkpt>
      <trkpt lat="43.011065" lon="-1.307966">
        <ele>1082.6</ele>
        <time>2018-08-20T14:22:18Z</time>
      </trkpt>
      <trkpt lat="43.010872" lon="-1.307961">
        <ele>1080.2</ele>
        <time>2018-08-20T14:22:37Z</time>
      </trkpt>
      <trkpt lat="43.010721" lon="-1.308014">
        <ele>1077.8</ele>
        <time>2018-08-20T14:22:57Z</time>
      </trkpt>
      <trkpt lat="43.010585" lon="-1.308054">
        <ele>1075.8</ele>
        <time>2018-08-20T14:23:12Z</time>
      </trkpt>
      <trkpt lat="43.010553" lon="-1.308049">
        <ele>1074.4</ele>
        <time>2018-08-20T14:23:27Z</time>
      </trkpt>
      <trkpt lat="43.010449" lon="-1.308044">
        <ele>1071.5</ele>
        <time>2018-08-20T14:23:47Z</time>
      </trkpt>
      <trkpt lat="43.010313" lon="-1.307979">
        <ele>1068.2</ele>
        <time>2018-08-20T14:24:03Z</time>
      </trkpt>
      <trkpt lat="43.010205" lon="-1.308011">
        <ele>1064.8</ele>
        <time>2018-08-20T14:24:15Z</time>
      </trkpt>
      <trkpt lat="43.010071" lon="-1.308006">
        <ele>1061.9</ele>
        <time>2018-08-20T14:24:30Z</time>
      </trkpt>
      <trkpt lat="43.009955" lon="-1.307971">
        <ele>1060.0</ele>
        <time>2018-08-20T14:24:43Z</time>
      </trkpt>
      <trkpt lat="43.009827" lon="-1.308011">
        <ele>1057.1</ele>
        <time>2018-08-20T14:24:57Z</time>
      </trkpt>
      <trkpt lat="43.009783" lon="-1.308031">
        <ele>1056.2</ele>
        <time>2018-08-20T14:25:02Z</time>
      </trkpt>
      <trkpt lat="43.009679" lon="-1.308130">
        <ele>1054.2</ele>
        <time>2018-08-20T14:25:17Z</time>
      </trkpt>
      <trkpt lat="43.009532" lon="-1.308207">
        <ele>1051.3</ele>
        <time>2018-08-20T14:25:32Z</time>
      </trkpt>
      <trkpt lat="43.009423" lon="-1.308268">
        <ele>1048.9</ele>
        <time>2018-08-20T14:25:46Z</time>
      </trkpt>
      <trkpt lat="43.009320" lon="-1.308308">
        <ele>1047.0</ele>
        <time>2018-08-20T14:25:59Z</time>
      </trkpt>
      <trkpt lat="43.009324" lon="-1.308352">
        <ele>1045.1</ele>
        <time>2018-08-20T14:26:02Z</time>
      </trkpt>
      <trkpt lat="43.009339" lon="-1.308363">
        <ele>1047.0</ele>
        <time>2018-08-20T14:26:14Z</time>
      </trkpt>
      <trkpt lat="43.009330" lon="-1.308378">
        <ele>1046.5</ele>
        <time>2018-08-20T14:26:28Z</time>
      </trkpt>
      <trkpt lat="43.009215" lon="-1.308389">
        <ele>1045.6</ele>
        <time>2018-08-20T14:26:45Z</time>
      </trkpt>
      <trkpt lat="43.009171" lon="-1.308340">
        <ele>1044.6</ele>
        <time>2018-08-20T14:26:59Z</time>
      </trkpt>
      <trkpt lat="43.009153" lon="-1.308340">
        <ele>1044.1</ele>
        <time>2018-08-20T14:27:01Z</time>
      </trkpt>
      <trkpt lat="43.009047" lon="-1.308294">
        <ele>1042.7</ele>
        <time>2018-08-20T14:27:16Z</time>
      </trkpt>
      <trkpt lat="43.008988" lon="-1.308292">
        <ele>1041.7</ele>
        <time>2018-08-20T14:27:29Z</time>
      </trkpt>
      <trkpt lat="43.008922" lon="-1.308360">
        <ele>1040.8</ele>
        <time>2018-08-20T14:27:37Z</time>
      </trkpt>
      <trkpt lat="43.008871" lon="-1.308423">
        <ele>1039.3</ele>
        <time>2018-08-20T14:27:43Z</time>
      </trkpt>
      <trkpt lat="43.008828" lon="-1.308566">
        <ele>1037.9</ele>
        <time>2018-08-20T14:27:52Z</time>
      </trkpt>
      <trkpt lat="43.008781" lon="-1.308790">
        <ele>1035.5</ele>
        <time>2018-08-20T14:28:07Z</time>
      </trkpt>
      <trkpt lat="43.008781" lon="-1.308827">
        <ele>1035.5</ele>
        <time>2018-08-20T14:28:10Z</time>
      </trkpt>
      <trkpt lat="43.008702" lon="-1.309047">
        <ele>1033.1</ele>
        <time>2018-08-20T14:28:24Z</time>
      </trkpt>
      <trkpt lat="43.008614" lon="-1.309225">
        <ele>1031.2</ele>
        <time>2018-08-20T14:28:38Z</time>
      </trkpt>
      <trkpt lat="43.008539" lon="-1.309406">
        <ele>1029.2</ele>
        <time>2018-08-20T14:28:52Z</time>
      </trkpt>
      <trkpt lat="43.008491" lon="-1.309539">
        <ele>1028.3</ele>
        <time>2018-08-20T14:29:03Z</time>
      </trkpt>
      <trkpt lat="43.008446" lon="-1.309628">
        <ele>1023.0</ele>
        <time>2018-08-20T14:29:12Z</time>
      </trkpt>
      <trkpt lat="43.008272" lon="-1.309777">
        <ele>1023.5</ele>
        <time>2018-08-20T14:29:30Z</time>
      </trkpt>
      <trkpt lat="43.008228" lon="-1.309813">
        <ele>1022.0</ele>
        <time>2018-08-20T14:29:36Z</time>
      </trkpt>
      <trkpt lat="43.008111" lon="-1.309848">
        <ele>1020.1</ele>
        <time>2018-08-20T14:30:12Z</time>
      </trkpt>
      <trkpt lat="43.007972" lon="-1.309896">
        <ele>1017.2</ele>
        <time>2018-08-20T14:30:25Z</time>
      </trkpt>
      <trkpt lat="43.007814" lon="-1.309979">
        <ele>1014.8</ele>
        <time>2018-08-20T14:30:39Z</time>
      </trkpt>
      <trkpt lat="43.007711" lon="-1.310180">
        <ele>1013.4</ele>
        <time>2018-08-20T14:30:54Z</time>
      </trkpt>
      <trkpt lat="43.007693" lon="-1.310227">
        <ele>1012.4</ele>
        <time>2018-08-20T14:30:57Z</time>
      </trkpt>
      <trkpt lat="43.007646" lon="-1.310333">
        <ele>1011.4</ele>
        <time>2018-08-20T14:31:03Z</time>
      </trkpt>
      <trkpt lat="43.007625" lon="-1.310383">
        <ele>1011.0</ele>
        <time>2018-08-20T14:31:06Z</time>
      </trkpt>
      <trkpt lat="43.007597" lon="-1.310583">
        <ele>1008.1</ele>
        <time>2018-08-20T14:31:21Z</time>
      </trkpt>
      <trkpt lat="43.007562" lon="-1.310812">
        <ele>1007.1</ele>
        <time>2018-08-20T14:31:37Z</time>
      </trkpt>
      <trkpt lat="43.007527" lon="-1.311035">
        <ele>1006.2</ele>
        <time>2018-08-20T14:31:50Z</time>
      </trkpt>
      <trkpt lat="43.007503" lon="-1.311173">
        <ele>1005.7</ele>
        <time>2018-08-20T14:32:03Z</time>
      </trkpt>
      <trkpt lat="43.007492" lon="-1.311332">
        <ele>1005.2</ele>
        <time>2018-08-20T14:32:16Z</time>
      </trkpt>
      <trkpt lat="43.007474" lon="-1.311421">
        <ele>1005.2</ele>
        <time>2018-08-20T14:32:29Z</time>
      </trkpt>
      <trkpt lat="43.007449" lon="-1.311419">
        <ele>1005.2</ele>
        <time>2018-08-20T14:32:46Z</time>
      </trkpt>
      <trkpt lat="43.007439" lon="-1.311480">
        <ele>1005.2</ele>
        <time>2018-08-20T14:32:59Z</time>
      </trkpt>
      <trkpt lat="43.007404" lon="-1.311578">
        <ele>1004.7</ele>
        <time>2018-08-20T14:33:09Z</time>
      </trkpt>
      <trkpt lat="43.007391" lon="-1.311800">
        <ele>1004.2</ele>
        <time>2018-08-20T14:33:22Z</time>
      </trkpt>
      <trkpt lat="43.007380" lon="-1.311980">
        <ele>1003.3</ele>
        <time>2018-08-20T14:33:36Z</time>
      </trkpt>
      <trkpt lat="43.007382" lon="-1.311976">
        <ele>1002.8</ele>
        <time>2018-08-20T14:33:40Z</time>
      </trkpt>
      <trkpt lat="43.007370" lon="-1.312043">
        <ele>1002.3</ele>
        <time>2018-08-20T14:33:46Z</time>
      </trkpt>
      <trkpt lat="43.007275" lon="-1.312183">
        <ele>998.0</ele>
        <time>2018-08-20T14:34:00Z</time>
      </trkpt>
      <trkpt lat="43.007245" lon="-1.312251">
        <ele>997.5</ele>
        <time>2018-08-20T14:34:05Z</time>
      </trkpt>
      <trkpt lat="43.007214" lon="-1.312389">
        <ele>994.6</ele>
        <time>2018-08-20T14:34:17Z</time>
      </trkpt>
      <trkpt lat="43.007166" lon="-1.312577">
        <ele>991.7</ele>
        <time>2018-08-20T14:34:30Z</time>
      </trkpt>
      <trkpt lat="43.007105" lon="-1.312777">
        <ele>988.8</ele>
        <time>2018-08-20T14:34:45Z</time>
      </trkpt>
      <trkpt lat="43.007029" lon="-1.312875">
        <ele>986.9</ele>
        <time>2018-08-20T14:34:57Z</time>
      </trkpt>
      <trkpt lat="43.006964" lon="-1.312979">
        <ele>984.5</ele>
        <time>2018-08-20T14:35:06Z</time>
      </trkpt>
      <trkpt lat="43.006935" lon="-1.313038">
        <ele>984.5</ele>
        <time>2018-08-20T14:35:10Z</time>
      </trkpt>
      <trkpt lat="43.006899" lon="-1.313088">
        <ele>983.1</ele>
        <time>2018-08-20T14:35:15Z</time>
      </trkpt>
      <trkpt lat="43.006804" lon="-1.313248">
        <ele>980.7</ele>
        <time>2018-08-20T14:35:30Z</time>
      </trkpt>
      <trkpt lat="43.006747" lon="-1.313395">
        <ele>978.3</ele>
        <time>2018-08-20T14:35:42Z</time>
      </trkpt>
      <trkpt lat="43.006726" lon="-1.313566">
        <ele>975.4</ele>
        <time>2018-08-20T14:35:55Z</time>
      </trkpt>
      <trkpt lat="43.006694" lon="-1.313664">
        <ele>974.4</ele>
        <time>2018-08-20T14:36:04Z</time>
      </trkpt>
      <trkpt lat="43.006688" lon="-1.313813">
        <ele>973.0</ele>
        <time>2018-08-20T14:36:18Z</time>
      </trkpt>
      <trkpt lat="43.006719" lon="-1.313884">
        <ele>973.5</ele>
        <time>2018-08-20T14:36:33Z</time>
      </trkpt>
      <trkpt lat="43.006712" lon="-1.313901">
        <ele>973.5</ele>
        <time>2018-08-20T14:36:35Z</time>
      </trkpt>
      <trkpt lat="43.006713" lon="-1.313947">
        <ele>973.0</ele>
        <time>2018-08-20T14:36:38Z</time>
      </trkpt>
      <trkpt lat="43.006749" lon="-1.314028">
        <ele>972.5</ele>
        <time>2018-08-20T14:36:51Z</time>
      </trkpt>
      <trkpt lat="43.006759" lon="-1.314042">
        <ele>973.0</ele>
        <time>2018-08-20T14:37:08Z</time>
      </trkpt>
      <trkpt lat="43.006749" lon="-1.314096">
        <ele>972.5</ele>
        <time>2018-08-20T14:37:58Z</time>
      </trkpt>
      <trkpt lat="43.006746" lon="-1.314106">
        <ele>972.0</ele>
        <time>2018-08-20T14:38:09Z</time>
      </trkpt>
      <trkpt lat="43.006758" lon="-1.314187">
        <ele>972.0</ele>
        <time>2018-08-20T14:38:22Z</time>
      </trkpt>
      <trkpt lat="43.006827" lon="-1.314266">
        <ele>971.5</ele>
        <time>2018-08-20T14:38:34Z</time>
      </trkpt>
      <trkpt lat="43.006890" lon="-1.314412">
        <ele>971.1</ele>
        <time>2018-08-20T14:38:45Z</time>
      </trkpt>
      <trkpt lat="43.006966" lon="-1.314561">
        <ele>969.6</ele>
        <time>2018-08-20T14:38:57Z</time>
      </trkpt>
      <trkpt lat="43.006991" lon="-1.314594">
        <ele>970.1</ele>
        <time>2018-08-20T14:39:10Z</time>
      </trkpt>
      <trkpt lat="43.007027" lon="-1.314639">
        <ele>969.2</ele>
        <time>2018-08-20T14:39:23Z</time>
      </trkpt>
      <trkpt lat="43.007052" lon="-1.314679">
        <ele>968.7</ele>
        <time>2018-08-20T14:39:28Z</time>
      </trkpt>
      <trkpt lat="43.007090" lon="-1.314796">
        <ele>968.2</ele>
        <time>2018-08-20T14:39:41Z</time>
      </trkpt>
      <trkpt lat="43.007125" lon="-1.314949">
        <ele>967.2</ele>
        <time>2018-08-20T14:39:52Z</time>
      </trkpt>
      <trkpt lat="43.007123" lon="-1.315125">
        <ele>965.3</ele>
        <time>2018-08-20T14:40:04Z</time>
      </trkpt>
      <trkpt lat="43.007117" lon="-1.315157">
        <ele>966.3</ele>
        <time>2018-08-20T14:40:11Z</time>
      </trkpt>
      <trkpt lat="43.007172" lon="-1.315331">
        <ele>963.9</ele>
        <time>2018-08-20T14:40:25Z</time>
      </trkpt>
      <trkpt lat="43.007182" lon="-1.315403">
        <ele>958.6</ele>
        <time>2018-08-20T14:40:33Z</time>
      </trkpt>
      <trkpt lat="43.007187" lon="-1.315410">
        <ele>963.9</ele>
        <time>2018-08-20T14:40:34Z</time>
      </trkpt>
      <trkpt lat="43.007194" lon="-1.315424">
        <ele>958.1</ele>
        <time>2018-08-20T14:40:36Z</time>
      </trkpt>
      <trkpt lat="43.007196" lon="-1.315434">
        <ele>967.2</ele>
        <time>2018-08-20T14:40:37Z</time>
      </trkpt>
      <trkpt lat="43.007195" lon="-1.315446">
        <ele>963.4</ele>
        <time>2018-08-20T14:40:38Z</time>
      </trkpt>
      <trkpt lat="43.007196" lon="-1.315471">
        <ele>961.9</ele>
        <time>2018-08-20T14:40:40Z</time>
      </trkpt>
      <trkpt lat="43.007234" lon="-1.315631">
        <ele>961.9</ele>
        <time>2018-08-20T14:40:54Z</time>
      </trkpt>
      <trkpt lat="43.007268" lon="-1.315729">
        <ele>961.9</ele>
        <time>2018-08-20T14:41:07Z</time>
      </trkpt>
      <trkpt lat="43.007266" lon="-1.315799">
        <ele>962.9</ele>
        <time>2018-08-20T14:41:11Z</time>
      </trkpt>
      <trkpt lat="43.007298" lon="-1.315952">
        <ele>960.0</ele>
        <time>2018-08-20T14:41:23Z</time>
      </trkpt>
      <trkpt lat="43.007349" lon="-1.316117">
        <ele>959.0</ele>
        <time>2018-08-20T14:41:37Z</time>
      </trkpt>
      <trkpt lat="43.007358" lon="-1.316153">
        <ele>959.5</ele>
        <time>2018-08-20T14:41:49Z</time>
      </trkpt>
      <trkpt lat="43.007409" lon="-1.316218">
        <ele>958.6</ele>
        <time>2018-08-20T14:42:03Z</time>
      </trkpt>
      <trkpt lat="43.007449" lon="-1.316332">
        <ele>959.0</ele>
        <time>2018-08-20T14:42:15Z</time>
      </trkpt>
      <trkpt lat="43.007472" lon="-1.316381">
        <ele>957.6</ele>
        <time>2018-08-20T14:42:29Z</time>
      </trkpt>
      <trkpt lat="43.007537" lon="-1.316557">
        <ele>956.7</ele>
        <time>2018-08-20T14:42:42Z</time>
      </trkpt>
      <trkpt lat="43.007577" lon="-1.316732">
        <ele>955.7</ele>
        <time>2018-08-20T14:42:59Z</time>
      </trkpt>
      <trkpt lat="43.007626" lon="-1.316840">
        <ele>954.2</ele>
        <time>2018-08-20T14:43:08Z</time>
      </trkpt>
      <trkpt lat="43.007687" lon="-1.317041">
        <ele>953.3</ele>
        <time>2018-08-20T14:43:23Z</time>
      </trkpt>
      <trkpt lat="43.007759" lon="-1.317223">
        <ele>952.8</ele>
        <time>2018-08-20T14:43:37Z</time>
      </trkpt>
      <trkpt lat="43.007768" lon="-1.317239">
        <ele>951.8</ele>
        <time>2018-08-20T14:43:39Z</time>
      </trkpt>
      <trkpt lat="43.007814" lon="-1.317342">
        <ele>950.4</ele>
        <time>2018-08-20T14:43:51Z</time>
      </trkpt>
      <trkpt lat="43.007839" lon="-1.317373">
        <ele>950.9</ele>
        <time>2018-08-20T14:43:55Z</time>
      </trkpt>
      <trkpt lat="43.007969" lon="-1.317529">
        <ele>949.9</ele>
        <time>2018-08-20T14:44:09Z</time>
      </trkpt>
      <trkpt lat="43.008071" lon="-1.317646">
        <ele>949.0</ele>
        <time>2018-08-20T14:44:21Z</time>
      </trkpt>
      <trkpt lat="43.008195" lon="-1.317757">
        <ele>947.0</ele>
        <time>2018-08-20T14:44:35Z</time>
      </trkpt>
      <trkpt lat="43.008223" lon="-1.317757">
        <ele>947.0</ele>
        <time>2018-08-20T14:44:48Z</time>
      </trkpt>
      <trkpt lat="43.008227" lon="-1.317763">
        <ele>947.0</ele>
        <time>2018-08-20T14:45:01Z</time>
      </trkpt>
      <trkpt lat="43.008283" lon="-1.317851">
        <ele>945.6</ele>
        <time>2018-08-20T14:45:10Z</time>
      </trkpt>
      <trkpt lat="43.008306" lon="-1.317907">
        <ele>945.6</ele>
        <time>2018-08-20T14:45:23Z</time>
      </trkpt>
      <trkpt lat="43.008320" lon="-1.317974">
        <ele>945.1</ele>
        <time>2018-08-20T14:45:37Z</time>
      </trkpt>
      <trkpt lat="43.008388" lon="-1.318027">
        <ele>944.2</ele>
        <time>2018-08-20T14:45:49Z</time>
      </trkpt>
      <trkpt lat="43.008431" lon="-1.318104">
        <ele>943.7</ele>
        <time>2018-08-20T14:45:57Z</time>
      </trkpt>
      <trkpt lat="43.008493" lon="-1.318183">
        <ele>942.2</ele>
        <time>2018-08-20T14:46:09Z</time>
      </trkpt>
      <trkpt lat="43.008497" lon="-1.318196">
        <ele>943.7</ele>
        <time>2018-08-20T14:46:19Z</time>
      </trkpt>
      <trkpt lat="43.008519" lon="-1.318239">
        <ele>943.7</ele>
        <time>2018-08-20T14:46:23Z</time>
      </trkpt>
      <trkpt lat="43.008536" lon="-1.318319">
        <ele>943.7</ele>
        <time>2018-08-20T14:46:29Z</time>
      </trkpt>
      <trkpt lat="43.008579" lon="-1.318348">
        <ele>942.7</ele>
        <time>2018-08-20T14:46:34Z</time>
      </trkpt>
      <trkpt lat="43.008698" lon="-1.318446">
        <ele>943.7</ele>
        <time>2018-08-20T14:46:48Z</time>
      </trkpt>
      <trkpt lat="43.008730" lon="-1.318476">
        <ele>943.7</ele>
        <time>2018-08-20T14:46:53Z</time>
      </trkpt>
      <trkpt lat="43.008838" lon="-1.318628">
        <ele>945.1</ele>
        <time>2018-08-20T14:47:10Z</time>
      </trkpt>
      <trkpt lat="43.008898" lon="-1.318757">
        <ele>946.1</ele>
        <time>2018-08-20T14:47:25Z</time>
      </trkpt>
      <trkpt lat="43.008960" lon="-1.318924">
        <ele>948.0</ele>
        <time>2018-08-20T14:49:33Z</time>
      </trkpt>
      <trkpt lat="43.008959" lon="-1.319035">
        <ele>949.4</ele>
        <time>2018-08-20T14:49:45Z</time>
      </trkpt>
      <trkpt lat="43.008902" lon="-1.319159">
        <ele>951.4</ele>
        <time>2018-08-20T14:49:58Z</time>
      </trkpt>
      <trkpt lat="43.008834" lon="-1.319251">
        <ele>951.8</ele>
        <time>2018-08-20T14:50:10Z</time>
      </trkpt>
      <trkpt lat="43.008812" lon="-1.319291">
        <ele>952.3</ele>
        <time>2018-08-20T14:50:14Z</time>
      </trkpt>
      <trkpt lat="43.008801" lon="-1.319371">
        <ele>951.4</ele>
        <time>2018-08-20T15:02:28Z</time>
      </trkpt>
      <trkpt lat="43.008646" lon="-1.319332">
        <ele>952.8</ele>
        <time>2018-08-20T15:02:43Z</time>
      </trkpt>
      <trkpt lat="43.008599" lon="-1.319611">
        <ele>953.8</ele>
        <time>2018-08-20T15:03:11Z</time>
      </trkpt>
      <trkpt lat="43.008608" lon="-1.319615">
        <ele>953.8</ele>
        <time>2018-08-20T15:03:12Z</time>
      </trkpt>
      <trkpt lat="43.008651" lon="-1.319632">
        <ele>953.8</ele>
        <time>2018-08-20T15:03:16Z</time>
      </trkpt>
      <trkpt lat="43.008670" lon="-1.319640">
        <ele>953.8</ele>
        <time>2018-08-20T15:03:55Z</time>
      </trkpt>
      <trkpt lat="43.008714" lon="-1.319704">
        <ele>954.2</ele>
        <time>2018-08-20T15:04:10Z</time>
      </trkpt>
      <trkpt lat="43.008715" lon="-1.319721">
        <ele>953.3</ele>
        <time>2018-08-20T15:04:13Z</time>
      </trkpt>
      <trkpt lat="43.008710" lon="-1.319751">
        <ele>955.2</ele>
        <time>2018-08-20T15:04:23Z</time>
      </trkpt>
      <trkpt lat="43.008714" lon="-1.319772">
        <ele>955.2</ele>
        <time>2018-08-20T15:04:27Z</time>
      </trkpt>
      <trkpt lat="43.008734" lon="-1.319807">
        <ele>954.7</ele>
        <time>2018-08-20T15:04:58Z</time>
      </trkpt>
      <trkpt lat="43.008891" lon="-1.319815">
        <ele>955.2</ele>
        <time>2018-08-20T15:05:10Z</time>
      </trkpt>
      <trkpt lat="43.008927" lon="-1.319815">
        <ele>955.2</ele>
        <time>2018-08-20T15:05:13Z</time>
      </trkpt>
      <trkpt lat="43.008942" lon="-1.319815">
        <ele>954.7</ele>
        <time>2018-08-20T15:05:14Z</time>
      </trkpt>
      <trkpt lat="43.008956" lon="-1.319816">
        <ele>955.2</ele>
        <time>2018-08-20T15:05:15Z</time>
      </trkpt>
      <trkpt lat="43.009094" lon="-1.319789">
        <ele>955.7</ele>
        <time>2018-08-20T15:05:29Z</time>
      </trkpt>
      <trkpt lat="43.009235" lon="-1.319787">
        <ele>957.1</ele>
        <time>2018-08-20T15:05:42Z</time>
      </trkpt>
      <trkpt lat="43.009246" lon="-1.319786">
        <ele>956.7</ele>
        <time>2018-08-20T15:05:43Z</time>
      </trkpt>
      <trkpt lat="43.009258" lon="-1.319784">
        <ele>956.7</ele>
        <time>2018-08-20T15:05:44Z</time>
      </trkpt>
      <trkpt lat="43.009297" lon="-1.319772">
        <ele>956.2</ele>
        <time>2018-08-20T15:05:48Z</time>
      </trkpt>
      <trkpt lat="43.009419" lon="-1.319701">
        <ele>957.1</ele>
        <time>2018-08-20T15:06:02Z</time>
      </trkpt>
      <trkpt lat="43.009426" lon="-1.319638">
        <ele>956.7</ele>
        <time>2018-08-20T15:06:06Z</time>
      </trkpt>
      <trkpt lat="43.009429" lon="-1.319621">
        <ele>957.1</ele>
        <time>2018-08-20T15:06:07Z</time>
      </trkpt>
      <trkpt lat="43.009431" lon="-1.319603">
        <ele>957.1</ele>
        <time>2018-08-20T15:06:08Z</time>
      </trkpt>
      <trkpt lat="43.009461" lon="-1.319523">
        <ele>957.6</ele>
        <time>2018-08-20T15:06:22Z</time>
      </trkpt>
      <trkpt lat="43.009442" lon="-1.319526">
        <ele>957.1</ele>
        <time>2018-08-20T15:06:25Z</time>
      </trkpt>
      <trkpt lat="43.009449" lon="-1.319556">
        <ele>957.6</ele>
        <time>2018-08-20T15:06:27Z</time>
      </trkpt>
      <trkpt lat="43.009467" lon="-1.319664">
        <ele>957.1</ele>
        <time>2018-08-20T15:06:34Z</time>
      </trkpt>
      <trkpt lat="43.009485" lon="-1.319765">
        <ele>956.7</ele>
        <time>2018-08-20T15:06:48Z</time>
      </trkpt>
      <trkpt lat="43.009644" lon="-1.319766">
        <ele>957.1</ele>
        <time>2018-08-20T15:06:58Z</time>
      </trkpt>
      <trkpt lat="43.009739" lon="-1.319762">
        <ele>957.1</ele>
        <time>2018-08-20T15:07:06Z</time>
      </trkpt>
      <trkpt lat="43.009776" lon="-1.319777">
        <ele>958.1</ele>
        <time>2018-08-20T15:07:17Z</time>
      </trkpt>
      <trkpt lat="43.009856" lon="-1.319753">
        <ele>957.6</ele>
        <time>2018-08-20T15:07:29Z</time>
      </trkpt>
      <trkpt lat="43.009923" lon="-1.319658">
        <ele>959.5</ele>
        <time>2018-08-20T15:07:43Z</time>
      </trkpt>
      <trkpt lat="43.010041" lon="-1.319614">
        <ele>958.1</ele>
        <time>2018-08-20T15:08:03Z</time>
      </trkpt>
      <trkpt lat="43.010044" lon="-1.319615">
        <ele>957.6</ele>
        <time>2018-08-20T15:08:06Z</time>
      </trkpt>
      <trkpt lat="43.010111" lon="-1.319567">
        <ele>958.1</ele>
        <time>2018-08-20T15:08:13Z</time>
      </trkpt>
      <trkpt lat="43.010155" lon="-1.319462">
        <ele>958.1</ele>
        <time>2018-08-20T15:08:20Z</time>
      </trkpt>
      <trkpt lat="43.010304" lon="-1.319361">
        <ele>957.6</ele>
        <time>2018-08-20T15:08:33Z</time>
      </trkpt>
      <trkpt lat="43.010334" lon="-1.319345">
        <ele>957.6</ele>
        <time>2018-08-20T15:08:35Z</time>
      </trkpt>
      <trkpt lat="43.010431" lon="-1.319259">
        <ele>957.1</ele>
        <time>2018-08-20T15:08:55Z</time>
      </trkpt>
      <trkpt lat="43.010262" lon="-1.319458">
        <ele>957.1</ele>
        <time>2018-08-20T15:14:54Z</time>
      </trkpt>
      <trkpt lat="43.010230" lon="-1.319468">
        <ele>957.6</ele>
        <time>2018-08-20T15:14:59Z</time>
      </trkpt>
      <trkpt lat="43.010142" lon="-1.319581">
        <ele>958.1</ele>
        <time>2018-08-20T15:15:13Z</time>
      </trkpt>
      <trkpt lat="43.009996" lon="-1.319607">
        <ele>959.0</ele>
        <time>2018-08-20T15:15:35Z</time>
      </trkpt>
      <trkpt lat="43.009825" lon="-1.319702">
        <ele>957.6</ele>
        <time>2018-08-20T15:15:50Z</time>
      </trkpt>
      <trkpt lat="43.009722" lon="-1.319763">
        <ele>957.1</ele>
        <time>2018-08-20T15:16:03Z</time>
      </trkpt>
      <trkpt lat="43.009520" lon="-1.319787">
        <ele>957.6</ele>
        <time>2018-08-20T15:16:18Z</time>
      </trkpt>
      <trkpt lat="43.009381" lon="-1.319711">
        <ele>957.6</ele>
        <time>2018-08-20T15:16:27Z</time>
      </trkpt>
      <trkpt lat="43.009296" lon="-1.319737">
        <ele>958.1</ele>
        <time>2018-08-20T15:16:35Z</time>
      </trkpt>
      <trkpt lat="43.009204" lon="-1.319745">
        <ele>957.1</ele>
        <time>2018-08-20T15:16:42Z</time>
      </trkpt>
      <trkpt lat="43.009033" lon="-1.319751">
        <ele>956.2</ele>
        <time>2018-08-20T15:16:58Z</time>
      </trkpt>
      <trkpt lat="43.009006" lon="-1.319745">
        <ele>955.7</ele>
        <time>2018-08-20T15:17:00Z</time>
      </trkpt>
      <trkpt lat="43.008969" lon="-1.319761">
        <ele>952.3</ele>
        <time>2018-08-20T15:17:03Z</time>
      </trkpt>
      <trkpt lat="43.008947" lon="-1.319773">
        <ele>957.1</ele>
        <time>2018-08-20T15:17:05Z</time>
      </trkpt>
      <trkpt lat="43.008936" lon="-1.319772">
        <ele>956.2</ele>
        <time>2018-08-20T15:17:06Z</time>
      </trkpt>
      <trkpt lat="43.008771" lon="-1.319750">
        <ele>954.7</ele>
        <time>2018-08-20T15:17:22Z</time>
      </trkpt>
      <trkpt lat="43.008766" lon="-1.319742">
        <ele>954.7</ele>
        <time>2018-08-20T15:17:23Z</time>
      </trkpt>
      <trkpt lat="43.008737" lon="-1.319734">
        <ele>955.2</ele>
        <time>2018-08-20T15:17:26Z</time>
      </trkpt>
      <trkpt lat="43.008698" lon="-1.319726">
        <ele>954.2</ele>
        <time>2018-08-20T15:17:30Z</time>
      </trkpt>
      <trkpt lat="43.008617" lon="-1.319675">
        <ele>953.3</ele>
        <time>2018-08-20T15:17:41Z</time>
      </trkpt>
      <trkpt lat="43.008572" lon="-1.319642">
        <ele>953.8</ele>
        <time>2018-08-20T15:17:51Z</time>
      </trkpt>
      <trkpt lat="43.008542" lon="-1.319642">
        <ele>953.8</ele>
        <time>2018-08-20T15:18:06Z</time>
      </trkpt>
      <trkpt lat="43.008549" lon="-1.319675">
        <ele>953.3</ele>
        <time>2018-08-20T15:18:27Z</time>
      </trkpt>
      <trkpt lat="43.008582" lon="-1.319576">
        <ele>952.8</ele>
        <time>2018-08-20T15:18:38Z</time>
      </trkpt>
      <trkpt lat="43.008609" lon="-1.319344">
        <ele>952.3</ele>
        <time>2018-08-20T15:18:54Z</time>
      </trkpt>
      <trkpt lat="43.008620" lon="-1.319342">
        <ele>952.3</ele>
        <time>2018-08-20T15:18:55Z</time>
      </trkpt>
      <trkpt lat="43.008673" lon="-1.319273">
        <ele>949.9</ele>
        <time>2018-08-20T15:19:07Z</time>
      </trkpt>
      <trkpt lat="43.008514" lon="-1.319232">
        <ele>949.4</ele>
        <time>2018-08-20T15:19:21Z</time>
      </trkpt>
      <trkpt lat="43.008471" lon="-1.319222">
        <ele>949.4</ele>
        <time>2018-08-20T15:19:25Z</time>
      </trkpt>
      <trkpt lat="43.008372" lon="-1.319242">
        <ele>950.4</ele>
        <time>2018-08-20T15:19:34Z</time>
      </trkpt>
      <trkpt lat="43.008251" lon="-1.319475">
        <ele>949.9</ele>
        <time>2018-08-20T15:19:51Z</time>
      </trkpt>
      <trkpt lat="43.008367" lon="-1.319769">
        <ele>952.8</ele>
        <time>2018-08-20T15:21:44Z</time>
      </trkpt>
      <trkpt lat="43.008293" lon="-1.319729">
        <ele>952.8</ele>
        <time>2018-08-20T15:21:50Z</time>
      </trkpt>
      <trkpt lat="43.008164" lon="-1.319677">
        <ele>952.3</ele>
        <time>2018-08-20T15:21:59Z</time>
      </trkpt>
      <trkpt lat="43.008108" lon="-1.319652">
        <ele>952.3</ele>
        <time>2018-08-20T15:22:03Z</time>
      </trkpt>
      <trkpt lat="43.007967" lon="-1.319621">
        <ele>951.4</ele>
        <time>2018-08-20T15:22:18Z</time>
      </trkpt>
      <trkpt lat="43.007911" lon="-1.319600">
        <ele>950.9</ele>
        <time>2018-08-20T15:22:23Z</time>
      </trkpt>
      <trkpt lat="43.007898" lon="-1.319593">
        <ele>950.9</ele>
        <time>2018-08-20T15:22:25Z</time>
      </trkpt>
      <trkpt lat="43.007779" lon="-1.319553">
        <ele>949.9</ele>
        <time>2018-08-20T15:22:38Z</time>
      </trkpt>
      <trkpt lat="43.007556" lon="-1.319550">
        <ele>949.0</ele>
        <time>2018-08-20T15:22:59Z</time>
      </trkpt>
      <trkpt lat="43.007292" lon="-1.319490">
        <ele>948.0</ele>
        <time>2018-08-20T15:23:23Z</time>
      </trkpt>
      <trkpt lat="43.007270" lon="-1.319482">
        <ele>944.6</ele>
        <time>2018-08-20T15:23:25Z</time>
      </trkpt>
      <trkpt lat="43.007249" lon="-1.319471">
        <ele>949.0</ele>
        <time>2018-08-20T15:23:27Z</time>
      </trkpt>
      <trkpt lat="43.007197" lon="-1.319454">
        <ele>945.6</ele>
        <time>2018-08-20T15:23:33Z</time>
      </trkpt>
      <trkpt lat="43.007185" lon="-1.319447">
        <ele>950.9</ele>
        <time>2018-08-20T15:23:34Z</time>
      </trkpt>
      <trkpt lat="43.007174" lon="-1.319443">
        <ele>948.0</ele>
        <time>2018-08-20T15:23:35Z</time>
      </trkpt>
      <trkpt lat="43.007104" lon="-1.319432">
        <ele>947.0</ele>
        <time>2018-08-20T15:23:41Z</time>
      </trkpt>
      <trkpt lat="43.007042" lon="-1.319407">
        <ele>946.1</ele>
        <time>2018-08-20T15:23:47Z</time>
      </trkpt>
      <trkpt lat="43.006919" lon="-1.319403">
        <ele>946.6</ele>
        <time>2018-08-20T15:23:57Z</time>
      </trkpt>
      <trkpt lat="43.006788" lon="-1.319349">
        <ele>947.0</ele>
        <time>2018-08-20T15:24:10Z</time>
      </trkpt>
      <trkpt lat="43.006699" lon="-1.319366">
        <ele>947.0</ele>
        <time>2018-08-20T15:24:24Z</time>
      </trkpt>
      <trkpt lat="43.006579" lon="-1.319337">
        <ele>947.0</ele>
        <time>2018-08-20T15:24:34Z</time>
      </trkpt>
      <trkpt lat="43.006427" lon="-1.319332">
        <ele>946.1</ele>
        <time>2018-08-20T15:24:48Z</time>
      </trkpt>
      <trkpt lat="43.006345" lon="-1.319321">
        <ele>945.6</ele>
        <time>2018-08-20T15:24:56Z</time>
      </trkpt>
      <trkpt lat="43.006245" lon="-1.319315">
        <ele>944.6</ele>
        <time>2018-08-20T15:25:09Z</time>
      </trkpt>
      <trkpt lat="43.006111" lon="-1.319270">
        <ele>944.2</ele>
        <time>2018-08-20T15:25:22Z</time>
      </trkpt>
      <trkpt lat="43.006030" lon="-1.319283">
        <ele>944.2</ele>
        <time>2018-08-20T15:25:28Z</time>
      </trkpt>
      <trkpt lat="43.005866" lon="-1.319257">
        <ele>943.2</ele>
        <time>2018-08-20T15:25:44Z</time>
      </trkpt>
      <trkpt lat="43.005780" lon="-1.319274">
        <ele>943.2</ele>
        <time>2018-08-20T15:25:56Z</time>
      </trkpt>
      <trkpt lat="43.005694" lon="-1.319280">
        <ele>942.2</ele>
        <time>2018-08-20T15:26:03Z</time>
      </trkpt>
      <trkpt lat="43.005508" lon="-1.319341">
        <ele>941.8</ele>
        <time>2018-08-20T15:26:16Z</time>
      </trkpt>
      <trkpt lat="43.005346" lon="-1.319409">
        <ele>941.8</ele>
        <time>2018-08-20T15:26:29Z</time>
      </trkpt>
      <trkpt lat="43.005187" lon="-1.319509">
        <ele>941.8</ele>
        <time>2018-08-20T15:26:43Z</time>
      </trkpt>
      <trkpt lat="43.005032" lon="-1.319606">
        <ele>940.8</ele>
        <time>2018-08-20T15:26:57Z</time>
      </trkpt>
      <trkpt lat="43.004874" lon="-1.319694">
        <ele>940.3</ele>
        <time>2018-08-20T15:27:11Z</time>
      </trkpt>
      <trkpt lat="43.004715" lon="-1.319826">
        <ele>940.3</ele>
        <time>2018-08-20T15:27:27Z</time>
      </trkpt>
      <trkpt lat="43.004572" lon="-1.319921">
        <ele>939.8</ele>
        <time>2018-08-20T15:27:43Z</time>
      </trkpt>
      <trkpt lat="43.004400" lon="-1.320043">
        <ele>939.8</ele>
        <time>2018-08-20T15:27:58Z</time>
      </trkpt>
      <trkpt lat="43.004256" lon="-1.320114">
        <ele>938.9</ele>
        <time>2018-08-20T15:28:13Z</time>
      </trkpt>
      <trkpt lat="43.004208" lon="-1.320149">
        <ele>938.4</ele>
        <time>2018-08-20T15:28:21Z</time>
      </trkpt>
      <trkpt lat="43.004183" lon="-1.320160">
        <ele>938.4</ele>
        <time>2018-08-20T15:28:23Z</time>
      </trkpt>
      <trkpt lat="43.003959" lon="-1.320284">
        <ele>938.4</ele>
        <time>2018-08-20T15:28:39Z</time>
      </trkpt>
      <trkpt lat="43.003833" lon="-1.320371">
        <ele>937.4</ele>
        <time>2018-08-20T15:28:52Z</time>
      </trkpt>
      <trkpt lat="43.003687" lon="-1.320457">
        <ele>936.5</ele>
        <time>2018-08-20T15:29:06Z</time>
      </trkpt>
      <trkpt lat="43.003513" lon="-1.320503">
        <ele>936.0</ele>
        <time>2018-08-20T15:29:21Z</time>
      </trkpt>
      <trkpt lat="43.003404" lon="-1.320575">
        <ele>936.5</ele>
        <time>2018-08-20T15:29:29Z</time>
      </trkpt>
      <trkpt lat="43.003283" lon="-1.320667">
        <ele>936.0</ele>
        <time>2018-08-20T15:29:36Z</time>
      </trkpt>
      <trkpt lat="43.003226" lon="-1.320721">
        <ele>936.5</ele>
        <time>2018-08-20T15:29:41Z</time>
      </trkpt>
      <trkpt lat="43.003117" lon="-1.320836">
        <ele>936.5</ele>
        <time>2018-08-20T15:29:55Z</time>
      </trkpt>
      <trkpt lat="43.003022" lon="-1.320968">
        <ele>936.0</ele>
        <time>2018-08-20T15:30:08Z</time>
      </trkpt>
      <trkpt lat="43.002934" lon="-1.321095">
        <ele>935.5</ele>
        <time>2018-08-20T15:30:21Z</time>
      </trkpt>
      <trkpt lat="43.002777" lon="-1.321265">
        <ele>934.1</ele>
        <time>2018-08-20T15:30:35Z</time>
      </trkpt>
      <trkpt lat="43.002661" lon="-1.321488">
        <ele>933.1</ele>
        <time>2018-08-20T15:30:50Z</time>
      </trkpt>
      <trkpt lat="43.002616" lon="-1.321548">
        <ele>932.1</ele>
        <time>2018-08-20T15:30:55Z</time>
      </trkpt>
      <trkpt lat="43.002523" lon="-1.321751">
        <ele>930.7</ele>
        <time>2018-08-20T15:31:10Z</time>
      </trkpt>
      <trkpt lat="43.002435" lon="-1.321925">
        <ele>930.2</ele>
        <time>2018-08-20T15:31:23Z</time>
      </trkpt>
      <trkpt lat="43.002338" lon="-1.322030">
        <ele>929.2</ele>
        <time>2018-08-20T15:31:36Z</time>
      </trkpt>
      <trkpt lat="43.002330" lon="-1.322032">
        <ele>929.7</ele>
        <time>2018-08-20T15:31:37Z</time>
      </trkpt>
      <trkpt lat="43.002155" lon="-1.322143">
        <ele>929.7</ele>
        <time>2018-08-20T15:31:53Z</time>
      </trkpt>
      <trkpt lat="43.002096" lon="-1.322304">
        <ele>929.2</ele>
        <time>2018-08-20T15:32:07Z</time>
      </trkpt>
      <trkpt lat="43.002091" lon="-1.322447">
        <ele>928.8</ele>
        <time>2018-08-20T15:32:20Z</time>
      </trkpt>
      <trkpt lat="43.002056" lon="-1.322679">
        <ele>929.2</ele>
        <time>2018-08-20T15:32:33Z</time>
      </trkpt>
      <trkpt lat="43.002030" lon="-1.322878">
        <ele>929.2</ele>
        <time>2018-08-20T15:32:46Z</time>
      </trkpt>
      <trkpt lat="43.002018" lon="-1.322925">
        <ele>929.2</ele>
        <time>2018-08-20T15:32:49Z</time>
      </trkpt>
      <trkpt lat="43.001984" lon="-1.323152">
        <ele>928.3</ele>
        <time>2018-08-20T15:33:03Z</time>
      </trkpt>
      <trkpt lat="43.001949" lon="-1.323314">
        <ele>928.8</ele>
        <time>2018-08-20T15:33:14Z</time>
      </trkpt>
      <trkpt lat="43.001850" lon="-1.323456">
        <ele>927.8</ele>
        <time>2018-08-20T15:33:27Z</time>
      </trkpt>
      <trkpt lat="43.001764" lon="-1.323596">
        <ele>928.3</ele>
        <time>2018-08-20T15:33:38Z</time>
      </trkpt>
      <trkpt lat="43.001678" lon="-1.323737">
        <ele>928.3</ele>
        <time>2018-08-20T15:33:51Z</time>
      </trkpt>
      <trkpt lat="43.001656" lon="-1.323895">
        <ele>927.8</ele>
        <time>2018-08-20T15:34:03Z</time>
      </trkpt>
      <trkpt lat="43.001639" lon="-1.324051">
        <ele>927.8</ele>
        <time>2018-08-20T15:34:14Z</time>
      </trkpt>
      <trkpt lat="43.001582" lon="-1.324226">
        <ele>926.8</ele>
        <time>2018-08-20T15:34:27Z</time>
      </trkpt>
      <trkpt lat="43.001522" lon="-1.324413">
        <ele>926.4</ele>
        <time>2018-08-20T15:34:41Z</time>
      </trkpt>
      <trkpt lat="43.001512" lon="-1.324473">
        <ele>926.4</ele>
        <time>2018-08-20T15:34:45Z</time>
      </trkpt>
      <trkpt lat="43.001448" lon="-1.324674">
        <ele>926.4</ele>
        <time>2018-08-20T15:34:59Z</time>
      </trkpt>
      <trkpt lat="43.001395" lon="-1.324803">
        <ele>926.4</ele>
        <time>2018-08-20T15:35:09Z</time>
      </trkpt>
      <trkpt lat="43.001310" lon="-1.324968">
        <ele>925.4</ele>
        <time>2018-08-20T15:35:23Z</time>
      </trkpt>
      <trkpt lat="43.001291" lon="-1.324998">
        <ele>924.9</ele>
        <time>2018-08-20T15:35:25Z</time>
      </trkpt>
      <trkpt lat="43.001154" lon="-1.325125">
        <ele>925.9</ele>
        <time>2018-08-20T15:35:37Z</time>
      </trkpt>
      <trkpt lat="43.001041" lon="-1.325257">
        <ele>926.4</ele>
        <time>2018-08-20T15:35:50Z</time>
      </trkpt>
      <trkpt lat="43.000881" lon="-1.325482">
        <ele>924.9</ele>
        <time>2018-08-20T15:36:05Z</time>
      </trkpt>
      <trkpt lat="43.000824" lon="-1.325610">
        <ele>924.9</ele>
        <time>2018-08-20T15:36:19Z</time>
      </trkpt>
      <trkpt lat="43.000741" lon="-1.325744">
        <ele>924.9</ele>
        <time>2018-08-20T15:36:29Z</time>
      </trkpt>
      <trkpt lat="43.000648" lon="-1.325876">
        <ele>925.4</ele>
        <time>2018-08-20T15:36:37Z</time>
      </trkpt>
      <trkpt lat="43.000527" lon="-1.326086">
        <ele>924.9</ele>
        <time>2018-08-20T15:36:51Z</time>
      </trkpt>
      <trkpt lat="43.000407" lon="-1.326279">
        <ele>924.5</ele>
        <time>2018-08-20T15:37:07Z</time>
      </trkpt>
      <trkpt lat="43.000354" lon="-1.326466">
        <ele>924.0</ele>
        <time>2018-08-20T15:37:23Z</time>
      </trkpt>
      <trkpt lat="43.000283" lon="-1.326647">
        <ele>923.0</ele>
        <time>2018-08-20T15:37:37Z</time>
      </trkpt>
      <trkpt lat="43.000262" lon="-1.326685">
        <ele>923.5</ele>
        <time>2018-08-20T15:37:40Z</time>
      </trkpt>
      <trkpt lat="43.000200" lon="-1.326856">
        <ele>923.0</ele>
        <time>2018-08-20T15:37:53Z</time>
      </trkpt>
      <trkpt lat="43.000127" lon="-1.327037">
        <ele>922.5</ele>
        <time>2018-08-20T15:38:06Z</time>
      </trkpt>
      <trkpt lat="43.000006" lon="-1.327283">
        <ele>921.6</ele>
        <time>2018-08-20T15:38:23Z</time>
      </trkpt>
      <trkpt lat="42.999870" lon="-1.327383">
        <ele>922.5</ele>
        <time>2018-08-20T15:38:37Z</time>
      </trkpt>
      <trkpt lat="42.999752" lon="-1.327440">
        <ele>923.0</ele>
        <time>2018-08-20T15:38:50Z</time>
      </trkpt>
      <trkpt lat="42.999630" lon="-1.327472">
        <ele>923.0</ele>
        <time>2018-08-20T15:39:03Z</time>
      </trkpt>
      <trkpt lat="42.999540" lon="-1.327467">
        <ele>923.5</ele>
        <time>2018-08-20T15:39:11Z</time>
      </trkpt>
      <trkpt lat="42.999371" lon="-1.327466">
        <ele>923.0</ele>
        <time>2018-08-20T15:39:24Z</time>
      </trkpt>
      <trkpt lat="42.999211" lon="-1.327558">
        <ele>923.0</ele>
        <time>2018-08-20T15:39:39Z</time>
      </trkpt>
      <trkpt lat="42.999094" lon="-1.327601">
        <ele>922.0</ele>
        <time>2018-08-20T15:39:51Z</time>
      </trkpt>
      <trkpt lat="42.998974" lon="-1.327651">
        <ele>921.6</ele>
        <time>2018-08-20T15:40:03Z</time>
      </trkpt>
      <trkpt lat="42.998838" lon="-1.327684">
        <ele>921.6</ele>
        <time>2018-08-20T15:40:15Z</time>
      </trkpt>
      <trkpt lat="42.998786" lon="-1.327711">
        <ele>921.1</ele>
        <time>2018-08-20T15:40:19Z</time>
      </trkpt>
      <trkpt lat="42.998638" lon="-1.327803">
        <ele>920.6</ele>
        <time>2018-08-20T15:40:33Z</time>
      </trkpt>
      <trkpt lat="42.998468" lon="-1.327849">
        <ele>920.1</ele>
        <time>2018-08-20T15:40:50Z</time>
      </trkpt>
      <trkpt lat="42.998328" lon="-1.327927">
        <ele>919.6</ele>
        <time>2018-08-20T15:41:03Z</time>
      </trkpt>
      <trkpt lat="42.998169" lon="-1.328014">
        <ele>918.7</ele>
        <time>2018-08-20T15:41:18Z</time>
      </trkpt>
      <trkpt lat="42.998064" lon="-1.328062">
        <ele>918.7</ele>
        <time>2018-08-20T15:41:26Z</time>
      </trkpt>
      <trkpt lat="42.997939" lon="-1.328124">
        <ele>918.7</ele>
        <time>2018-08-20T15:41:36Z</time>
      </trkpt>
      <trkpt lat="42.997758" lon="-1.328225">
        <ele>918.2</ele>
        <time>2018-08-20T15:41:49Z</time>
      </trkpt>
      <trkpt lat="42.997645" lon="-1.328311">
        <ele>918.2</ele>
        <time>2018-08-20T15:42:00Z</time>
      </trkpt>
      <trkpt lat="42.997626" lon="-1.328337">
        <ele>917.7</ele>
        <time>2018-08-20T15:42:02Z</time>
      </trkpt>
      <trkpt lat="42.997498" lon="-1.328423">
        <ele>917.7</ele>
        <time>2018-08-20T15:42:15Z</time>
      </trkpt>
      <trkpt lat="42.997475" lon="-1.328443">
        <ele>917.2</ele>
        <time>2018-08-20T15:42:18Z</time>
      </trkpt>
      <trkpt lat="42.997346" lon="-1.328578">
        <ele>916.3</ele>
        <time>2018-08-20T15:42:32Z</time>
      </trkpt>
      <trkpt lat="42.997266" lon="-1.328705">
        <ele>915.3</ele>
        <time>2018-08-20T15:42:44Z</time>
      </trkpt>
      <trkpt lat="42.997221" lon="-1.328839">
        <ele>916.3</ele>
        <time>2018-08-20T15:42:53Z</time>
      </trkpt>
      <trkpt lat="42.997151" lon="-1.329016">
        <ele>914.8</ele>
        <time>2018-08-20T15:43:07Z</time>
      </trkpt>
      <trkpt lat="42.997072" lon="-1.329236">
        <ele>913.9</ele>
        <time>2018-08-20T15:43:23Z</time>
      </trkpt>
      <trkpt lat="42.997004" lon="-1.329398">
        <ele>912.9</ele>
        <time>2018-08-20T15:43:37Z</time>
      </trkpt>
      <trkpt lat="42.996923" lon="-1.329551">
        <ele>912.4</ele>
        <time>2018-08-20T15:43:51Z</time>
      </trkpt>
      <trkpt lat="42.996812" lon="-1.329785">
        <ele>912.0</ele>
        <time>2018-08-20T15:44:06Z</time>
      </trkpt>
      <trkpt lat="42.996746" lon="-1.329876">
        <ele>911.5</ele>
        <time>2018-08-20T15:44:20Z</time>
      </trkpt>
      <trkpt lat="42.996696" lon="-1.329909">
        <ele>912.0</ele>
        <time>2018-08-20T15:44:34Z</time>
      </trkpt>
      <trkpt lat="42.996712" lon="-1.329941">
        <ele>912.0</ele>
        <time>2018-08-20T15:44:50Z</time>
      </trkpt>
      <trkpt lat="42.996681" lon="-1.330023">
        <ele>912.0</ele>
        <time>2018-08-20T15:45:12Z</time>
      </trkpt>
      <trkpt lat="42.996657" lon="-1.330131">
        <ele>911.0</ele>
        <time>2018-08-20T15:45:29Z</time>
      </trkpt>
      <trkpt lat="42.996601" lon="-1.330284">
        <ele>910.0</ele>
        <time>2018-08-20T15:45:41Z</time>
      </trkpt>
      <trkpt lat="42.996525" lon="-1.330378">
        <ele>909.1</ele>
        <time>2018-08-20T15:45:50Z</time>
      </trkpt>
      <trkpt lat="42.996457" lon="-1.330397">
        <ele>908.6</ele>
        <time>2018-08-20T15:45:56Z</time>
      </trkpt>
      <trkpt lat="42.996268" lon="-1.330401">
        <ele>906.7</ele>
        <time>2018-08-20T15:46:13Z</time>
      </trkpt>
      <trkpt lat="42.996183" lon="-1.330371">
        <ele>907.6</ele>
        <time>2018-08-20T15:46:21Z</time>
      </trkpt>
      <trkpt lat="42.996012" lon="-1.330328">
        <ele>907.6</ele>
        <time>2018-08-20T15:46:36Z</time>
      </trkpt>
      <trkpt lat="42.995851" lon="-1.330284">
        <ele>907.1</ele>
        <time>2018-08-20T15:46:51Z</time>
      </trkpt>
      <trkpt lat="42.995707" lon="-1.330241">
        <ele>907.6</ele>
        <time>2018-08-20T15:47:04Z</time>
      </trkpt>
      <trkpt lat="42.995533" lon="-1.330161">
        <ele>907.6</ele>
        <time>2018-08-20T15:47:18Z</time>
      </trkpt>
      <trkpt lat="42.995381" lon="-1.330148">
        <ele>908.1</ele>
        <time>2018-08-20T15:47:30Z</time>
      </trkpt>
      <trkpt lat="42.995208" lon="-1.330095">
        <ele>908.6</ele>
        <time>2018-08-20T15:47:45Z</time>
      </trkpt>
      <trkpt lat="42.995055" lon="-1.330047">
        <ele>909.1</ele>
        <time>2018-08-20T15:47:58Z</time>
      </trkpt>
      <trkpt lat="42.995019" lon="-1.330030">
        <ele>909.1</ele>
        <time>2018-08-20T15:48:01Z</time>
      </trkpt>
      <trkpt lat="42.994972" lon="-1.330020">
        <ele>910.0</ele>
        <time>2018-08-20T15:48:05Z</time>
      </trkpt>
      <trkpt lat="42.994863" lon="-1.329979">
        <ele>909.5</ele>
        <time>2018-08-20T15:48:14Z</time>
      </trkpt>
      <trkpt lat="42.994820" lon="-1.329962">
        <ele>909.1</ele>
        <time>2018-08-20T15:48:18Z</time>
      </trkpt>
      <trkpt lat="42.994647" lon="-1.329898">
        <ele>909.5</ele>
        <time>2018-08-20T15:48:33Z</time>
      </trkpt>
      <trkpt lat="42.994483" lon="-1.329876">
        <ele>909.1</ele>
        <time>2018-08-20T15:48:46Z</time>
      </trkpt>
      <trkpt lat="42.994429" lon="-1.329853">
        <ele>909.5</ele>
        <time>2018-08-20T15:48:50Z</time>
      </trkpt>
      <trkpt lat="42.994280" lon="-1.329788">
        <ele>909.1</ele>
        <time>2018-08-20T15:49:03Z</time>
      </trkpt>
      <trkpt lat="42.994221" lon="-1.329705">
        <ele>909.1</ele>
        <time>2018-08-20T15:49:10Z</time>
      </trkpt>
      <trkpt lat="42.994077" lon="-1.329563">
        <ele>909.1</ele>
        <time>2018-08-20T15:49:27Z</time>
      </trkpt>
      <trkpt lat="42.994038" lon="-1.329551">
        <ele>908.1</ele>
        <time>2018-08-20T15:49:41Z</time>
      </trkpt>
      <trkpt lat="42.994031" lon="-1.329542">
        <ele>908.1</ele>
        <time>2018-08-20T15:49:42Z</time>
      </trkpt>
      <trkpt lat="42.993865" lon="-1.329550">
        <ele>908.1</ele>
        <time>2018-08-20T15:49:57Z</time>
      </trkpt>
      <trkpt lat="42.993801" lon="-1.329581">
        <ele>908.1</ele>
        <time>2018-08-20T15:50:03Z</time>
      </trkpt>
      <trkpt lat="42.993650" lon="-1.329561">
        <ele>908.1</ele>
        <time>2018-08-20T15:51:13Z</time>
      </trkpt>
      <trkpt lat="42.993532" lon="-1.329584">
        <ele>907.6</ele>
        <time>2018-08-20T15:51:23Z</time>
      </trkpt>
      <trkpt lat="42.993482" lon="-1.329602">
        <ele>908.1</ele>
        <time>2018-08-20T15:51:27Z</time>
      </trkpt>
      <trkpt lat="42.993392" lon="-1.329690">
        <ele>907.6</ele>
        <time>2018-08-20T15:51:37Z</time>
      </trkpt>
      <trkpt lat="42.993223" lon="-1.329841">
        <ele>907.1</ele>
        <time>2018-08-20T15:51:54Z</time>
      </trkpt>
      <trkpt lat="42.993110" lon="-1.329958">
        <ele>906.2</ele>
        <time>2018-08-20T15:52:05Z</time>
      </trkpt>
      <trkpt lat="42.993026" lon="-1.330058">
        <ele>902.3</ele>
        <time>2018-08-20T15:52:15Z</time>
      </trkpt>
      <trkpt lat="42.993017" lon="-1.330065">
        <ele>902.8</ele>
        <time>2018-08-20T15:52:16Z</time>
      </trkpt>
      <trkpt lat="42.993006" lon="-1.330074">
        <ele>908.1</ele>
        <time>2018-08-20T15:52:17Z</time>
      </trkpt>
      <trkpt lat="42.992996" lon="-1.330084">
        <ele>904.7</ele>
        <time>2018-08-20T15:52:18Z</time>
      </trkpt>
      <trkpt lat="42.992842" lon="-1.330240">
        <ele>904.7</ele>
        <time>2018-08-20T15:52:33Z</time>
      </trkpt>
      <trkpt lat="42.992713" lon="-1.330378">
        <ele>904.3</ele>
        <time>2018-08-20T15:52:47Z</time>
      </trkpt>
      <trkpt lat="42.992612" lon="-1.330521">
        <ele>903.8</ele>
        <time>2018-08-20T15:53:01Z</time>
      </trkpt>
      <trkpt lat="42.992483" lon="-1.330666">
        <ele>902.8</ele>
        <time>2018-08-20T15:53:16Z</time>
      </trkpt>
      <trkpt lat="42.992386" lon="-1.330750">
        <ele>903.8</ele>
        <time>2018-08-20T15:53:29Z</time>
      </trkpt>
      <trkpt lat="42.992325" lon="-1.330770">
        <ele>902.8</ele>
        <time>2018-08-20T15:53:36Z</time>
      </trkpt>
      <trkpt lat="42.992245" lon="-1.330944">
        <ele>902.8</ele>
        <time>2018-08-20T15:53:49Z</time>
      </trkpt>
      <trkpt lat="42.992239" lon="-1.330956">
        <ele>902.8</ele>
        <time>2018-08-20T15:53:51Z</time>
      </trkpt>
      <trkpt lat="42.992224" lon="-1.331161">
        <ele>902.3</ele>
        <time>2018-08-20T15:58:04Z</time>
      </trkpt>
      <trkpt lat="42.992176" lon="-1.331251">
        <ele>900.9</ele>
        <time>2018-08-20T15:58:12Z</time>
      </trkpt>
      <trkpt lat="42.992137" lon="-1.331335">
        <ele>900.9</ele>
        <time>2018-08-20T15:58:19Z</time>
      </trkpt>
      <trkpt lat="42.992028" lon="-1.331549">
        <ele>899.9</ele>
        <time>2018-08-20T15:58:36Z</time>
      </trkpt>
      <trkpt lat="42.991991" lon="-1.331683">
        <ele>897.5</ele>
        <time>2018-08-20T15:58:49Z</time>
      </trkpt>
      <trkpt lat="42.991988" lon="-1.331692">
        <ele>901.4</ele>
        <time>2018-08-20T15:58:50Z</time>
      </trkpt>
      <trkpt lat="42.991984" lon="-1.331703">
        <ele>897.5</ele>
        <time>2018-08-20T15:58:51Z</time>
      </trkpt>
      <trkpt lat="42.991967" lon="-1.331734">
        <ele>903.3</ele>
        <time>2018-08-20T15:58:55Z</time>
      </trkpt>
      <trkpt lat="42.991969" lon="-1.331739">
        <ele>900.4</ele>
        <time>2018-08-20T15:58:56Z</time>
      </trkpt>
      <trkpt lat="42.992027" lon="-1.331741">
        <ele>900.4</ele>
        <time>2018-08-20T15:59:04Z</time>
      </trkpt>
      <trkpt lat="42.992016" lon="-1.331791">
        <ele>901.8</ele>
        <time>2018-08-20T15:59:06Z</time>
      </trkpt>
      <trkpt lat="42.992006" lon="-1.331813">
        <ele>899.9</ele>
        <time>2018-08-20T15:59:07Z</time>
      </trkpt>
      <trkpt lat="42.991953" lon="-1.331984">
        <ele>899.5</ele>
        <time>2018-08-20T15:59:23Z</time>
      </trkpt>
      <trkpt lat="42.991858" lon="-1.332199">
        <ele>899.5</ele>
        <time>2018-08-20T15:59:40Z</time>
      </trkpt>
      <trkpt lat="42.991821" lon="-1.332288">
        <ele>899.0</ele>
        <time>2018-08-20T15:59:47Z</time>
      </trkpt>
      <trkpt lat="42.991712" lon="-1.332480">
        <ele>899.0</ele>
        <time>2018-08-20T16:00:03Z</time>
      </trkpt>
      <trkpt lat="42.991655" lon="-1.332573">
        <ele>899.5</ele>
        <time>2018-08-20T16:00:11Z</time>
      </trkpt>
      <trkpt lat="42.991632" lon="-1.332627">
        <ele>899.0</ele>
        <time>2018-08-20T16:00:16Z</time>
      </trkpt>
      <trkpt lat="42.991634" lon="-1.332641">
        <ele>899.5</ele>
        <time>2018-08-20T16:00:18Z</time>
      </trkpt>
      <trkpt lat="42.991595" lon="-1.332714">
        <ele>899.0</ele>
        <time>2018-08-20T16:00:23Z</time>
      </trkpt>
      <trkpt lat="42.991556" lon="-1.332795">
        <ele>899.0</ele>
        <time>2018-08-20T16:00:36Z</time>
      </trkpt>
      <trkpt lat="42.991469" lon="-1.333052">
        <ele>899.0</ele>
        <time>2018-08-20T16:00:52Z</time>
      </trkpt>
      <trkpt lat="42.991326" lon="-1.333336">
        <ele>899.5</ele>
        <time>2018-08-20T16:01:10Z</time>
      </trkpt>
      <trkpt lat="42.991244" lon="-1.333551">
        <ele>899.5</ele>
        <time>2018-08-20T16:01:25Z</time>
      </trkpt>
      <trkpt lat="42.991194" lon="-1.333679">
        <ele>899.5</ele>
        <time>2018-08-20T16:01:38Z</time>
      </trkpt>
      <trkpt lat="42.991197" lon="-1.333715">
        <ele>899.5</ele>
        <time>2018-08-20T16:01:52Z</time>
      </trkpt>
      <trkpt lat="42.991145" lon="-1.333786">
        <ele>899.0</ele>
        <time>2018-08-20T16:01:59Z</time>
      </trkpt>
      <trkpt lat="42.991048" lon="-1.334030">
        <ele>899.0</ele>
        <time>2018-08-20T16:02:18Z</time>
      </trkpt>
      <trkpt lat="42.991039" lon="-1.334075">
        <ele>899.9</ele>
        <time>2018-08-20T16:02:31Z</time>
      </trkpt>
      <trkpt lat="42.991014" lon="-1.334111">
        <ele>899.5</ele>
        <time>2018-08-20T16:02:47Z</time>
      </trkpt>
      <trkpt lat="42.990971" lon="-1.334271">
        <ele>900.4</ele>
        <time>2018-08-20T16:03:00Z</time>
      </trkpt>
      <trkpt lat="42.990879" lon="-1.334437">
        <ele>900.9</ele>
        <time>2018-08-20T16:03:14Z</time>
      </trkpt>
      <trkpt lat="42.990859" lon="-1.334465">
        <ele>900.4</ele>
        <time>2018-08-20T16:03:21Z</time>
      </trkpt>
      <trkpt lat="42.990840" lon="-1.334493">
        <ele>900.4</ele>
        <time>2018-08-20T16:03:23Z</time>
      </trkpt>
      <trkpt lat="42.990731" lon="-1.334671">
        <ele>900.4</ele>
        <time>2018-08-20T16:03:39Z</time>
      </trkpt>
      <trkpt lat="42.990662" lon="-1.334771">
        <ele>900.9</ele>
        <time>2018-08-20T16:04:51Z</time>
      </trkpt>
      <trkpt lat="42.990585" lon="-1.334895">
        <ele>899.9</ele>
        <time>2018-08-20T16:05:03Z</time>
      </trkpt>
      <trkpt lat="42.990500" lon="-1.334986">
        <ele>900.9</ele>
        <time>2018-08-20T16:05:18Z</time>
      </trkpt>
      <trkpt lat="42.990362" lon="-1.335084">
        <ele>900.4</ele>
        <time>2018-08-20T16:05:31Z</time>
      </trkpt>
      <trkpt lat="42.990309" lon="-1.335151">
        <ele>900.4</ele>
        <time>2018-08-20T16:05:45Z</time>
      </trkpt>
      <trkpt lat="42.990299" lon="-1.335140">
        <ele>899.9</ele>
        <time>2018-08-20T16:06:03Z</time>
      </trkpt>
      <trkpt lat="42.990230" lon="-1.335175">
        <ele>899.9</ele>
        <time>2018-08-20T16:06:09Z</time>
      </trkpt>
      <trkpt lat="42.990074" lon="-1.335295">
        <ele>899.5</ele>
        <time>2018-08-20T16:06:24Z</time>
      </trkpt>
      <trkpt lat="42.990033" lon="-1.335324">
        <ele>899.5</ele>
        <time>2018-08-20T16:06:35Z</time>
      </trkpt>
      <trkpt lat="42.990026" lon="-1.335327">
        <ele>899.5</ele>
        <time>2018-08-20T16:06:47Z</time>
      </trkpt>
      <trkpt lat="42.990006" lon="-1.335324">
        <ele>899.9</ele>
        <time>2018-08-20T16:06:49Z</time>
      </trkpt>
      <trkpt lat="42.989937" lon="-1.335271">
        <ele>899.9</ele>
        <time>2018-08-20T16:06:57Z</time>
      </trkpt>
      <trkpt lat="42.989868" lon="-1.335031">
        <ele>899.9</ele>
        <time>2018-08-20T16:07:13Z</time>
      </trkpt>
      <trkpt lat="42.989784" lon="-1.334825">
        <ele>899.5</ele>
        <time>2018-08-20T16:07:28Z</time>
      </trkpt>
      <trkpt lat="42.989692" lon="-1.334619">
        <ele>899.0</ele>
        <time>2018-08-20T16:07:43Z</time>
      </trkpt>
      <trkpt lat="42.989665" lon="-1.334471">
        <ele>899.5</ele>
        <time>2018-08-20T16:08:46Z</time>
      </trkpt>
      <trkpt lat="42.989646" lon="-1.334430">
        <ele>904.7</ele>
        <time>2018-08-20T16:20:30Z</time>
      </trkpt>
      <trkpt lat="42.989675" lon="-1.334405">
        <ele>905.2</ele>
        <time>2018-08-20T16:25:59Z</time>
      </trkpt>
      <trkpt lat="42.989642" lon="-1.334567">
        <ele>880.2</ele>
        <time>2018-08-21T07:54:11Z</time>
      </trkpt>
      <trkpt lat="42.989661" lon="-1.334544">
        <ele>882.6</ele>
        <time>2018-08-21T07:54:28Z</time>
      </trkpt>
      <trkpt lat="42.989675" lon="-1.334657">
        <ele>886.0</ele>
        <time>2018-08-21T07:54:35Z</time>
      </trkpt>
      <trkpt lat="42.989707" lon="-1.334753">
        <ele>888.9</ele>
        <time>2018-08-21T07:54:43Z</time>
      </trkpt>
      <trkpt lat="42.989736" lon="-1.334821">
        <ele>891.3</ele>
        <time>2018-08-21T07:54:49Z</time>
      </trkpt>
      <trkpt lat="42.989784" lon="-1.334951">
        <ele>894.2</ele>
        <time>2018-08-21T07:54:58Z</time>
      </trkpt>
      <trkpt lat="42.989801" lon="-1.335008">
        <ele>895.6</ele>
        <time>2018-08-21T07:55:02Z</time>
      </trkpt>
      <trkpt lat="42.989814" lon="-1.335062">
        <ele>896.1</ele>
        <time>2018-08-21T07:55:05Z</time>
      </trkpt>
      <trkpt lat="42.989898" lon="-1.335226">
        <ele>895.6</ele>
        <time>2018-08-21T07:55:18Z</time>
      </trkpt>
      <trkpt lat="42.989930" lon="-1.335291">
        <ele>895.1</ele>
        <time>2018-08-21T07:55:22Z</time>
      </trkpt>
      <trkpt lat="42.989944" lon="-1.335324">
        <ele>891.8</ele>
        <time>2018-08-21T07:55:24Z</time>
      </trkpt>
      <trkpt lat="42.989951" lon="-1.335340">
        <ele>891.8</ele>
        <time>2018-08-21T07:55:25Z</time>
      </trkpt>
      <trkpt lat="42.989954" lon="-1.335352">
        <ele>901.4</ele>
        <time>2018-08-21T07:55:26Z</time>
      </trkpt>
      <trkpt lat="42.989958" lon="-1.335371">
        <ele>898.0</ele>
        <time>2018-08-21T07:55:28Z</time>
      </trkpt>
      <trkpt lat="42.989932" lon="-1.335403">
        <ele>897.0</ele>
        <time>2018-08-21T07:55:32Z</time>
      </trkpt>
      <trkpt lat="42.989747" lon="-1.335533">
        <ele>895.6</ele>
        <time>2018-08-21T07:55:50Z</time>
      </trkpt>
      <trkpt lat="42.989712" lon="-1.335540">
        <ele>896.1</ele>
        <time>2018-08-21T07:55:53Z</time>
      </trkpt>
      <trkpt lat="42.989650" lon="-1.335591">
        <ele>895.6</ele>
        <time>2018-08-21T07:56:01Z</time>
      </trkpt>
      <trkpt lat="42.989464" lon="-1.335742">
        <ele>895.6</ele>
        <time>2018-08-21T07:56:16Z</time>
      </trkpt>
      <trkpt lat="42.989391" lon="-1.335789">
        <ele>895.1</ele>
        <time>2018-08-21T07:56:23Z</time>
      </trkpt>
      <trkpt lat="42.989365" lon="-1.335820">
        <ele>895.6</ele>
        <time>2018-08-21T07:56:26Z</time>
      </trkpt>
      <trkpt lat="42.989214" lon="-1.335942">
        <ele>894.2</ele>
        <time>2018-08-21T07:56:42Z</time>
      </trkpt>
      <trkpt lat="42.989150" lon="-1.335976">
        <ele>894.2</ele>
        <time>2018-08-21T07:56:48Z</time>
      </trkpt>
      <trkpt lat="42.988969" lon="-1.336094">
        <ele>893.2</ele>
        <time>2018-08-21T07:57:02Z</time>
      </trkpt>
      <trkpt lat="42.988884" lon="-1.336160">
        <ele>893.7</ele>
        <time>2018-08-21T07:57:14Z</time>
      </trkpt>
      <trkpt lat="42.988681" lon="-1.336294">
        <ele>893.2</ele>
        <time>2018-08-21T07:57:31Z</time>
      </trkpt>
      <trkpt lat="42.988600" lon="-1.336373">
        <ele>893.7</ele>
        <time>2018-08-21T07:57:44Z</time>
      </trkpt>
      <trkpt lat="42.988551" lon="-1.336385">
        <ele>893.2</ele>
        <time>2018-08-21T07:57:48Z</time>
      </trkpt>
      <trkpt lat="42.988416" lon="-1.336461">
        <ele>892.7</ele>
        <time>2018-08-21T07:58:02Z</time>
      </trkpt>
      <trkpt lat="42.988392" lon="-1.336598">
        <ele>895.6</ele>
        <time>2018-08-21T08:11:55Z</time>
      </trkpt>
      <trkpt lat="42.988406" lon="-1.336679">
        <ele>895.1</ele>
        <time>2018-08-21T08:12:06Z</time>
      </trkpt>
      <trkpt lat="42.988418" lon="-1.336666">
        <ele>895.1</ele>
        <time>2018-08-21T08:12:15Z</time>
      </trkpt>
      <trkpt lat="42.988433" lon="-1.336746">
        <ele>894.6</ele>
        <time>2018-08-21T08:12:20Z</time>
      </trkpt>
      <trkpt lat="42.988480" lon="-1.336786">
        <ele>894.2</ele>
        <time>2018-08-21T08:12:31Z</time>
      </trkpt>
      <trkpt lat="42.988521" lon="-1.336960">
        <ele>890.8</ele>
        <time>2018-08-21T08:12:45Z</time>
      </trkpt>
      <trkpt lat="42.988553" lon="-1.337125">
        <ele>887.9</ele>
        <time>2018-08-21T08:13:00Z</time>
      </trkpt>
      <trkpt lat="42.988543" lon="-1.337186">
        <ele>887.4</ele>
        <time>2018-08-21T08:13:06Z</time>
      </trkpt>
      <trkpt lat="42.988512" lon="-1.337235">
        <ele>887.0</ele>
        <time>2018-08-21T08:13:19Z</time>
      </trkpt>
      <trkpt lat="42.988485" lon="-1.337321">
        <ele>887.0</ele>
        <time>2018-08-21T08:13:28Z</time>
      </trkpt>
      <trkpt lat="42.988501" lon="-1.337439">
        <ele>884.5</ele>
        <time>2018-08-21T08:13:40Z</time>
      </trkpt>
      <trkpt lat="42.988495" lon="-1.337528">
        <ele>884.1</ele>
        <time>2018-08-21T08:13:50Z</time>
      </trkpt>
      <trkpt lat="42.988511" lon="-1.337748">
        <ele>884.1</ele>
        <time>2018-08-21T08:14:17Z</time>
      </trkpt>
      <trkpt lat="42.988524" lon="-1.337777">
        <ele>883.6</ele>
        <time>2018-08-21T08:14:20Z</time>
      </trkpt>
      <trkpt lat="42.988537" lon="-1.337821">
        <ele>884.1</ele>
        <time>2018-08-21T08:14:23Z</time>
      </trkpt>
      <trkpt lat="42.988602" lon="-1.338045">
        <ele>884.1</ele>
        <time>2018-08-21T08:14:40Z</time>
      </trkpt>
      <trkpt lat="42.988622" lon="-1.338233">
        <ele>883.6</ele>
        <time>2018-08-21T08:14:54Z</time>
      </trkpt>
      <trkpt lat="42.988639" lon="-1.338347">
        <ele>883.6</ele>
        <time>2018-08-21T08:15:02Z</time>
      </trkpt>
      <trkpt lat="42.988663" lon="-1.338586">
        <ele>883.1</ele>
        <time>2018-08-21T08:15:16Z</time>
      </trkpt>
      <trkpt lat="42.988700" lon="-1.338787">
        <ele>883.1</ele>
        <time>2018-08-21T08:15:29Z</time>
      </trkpt>
      <trkpt lat="42.988704" lon="-1.338863">
        <ele>883.1</ele>
        <time>2018-08-21T08:15:34Z</time>
      </trkpt>
      <trkpt lat="42.988727" lon="-1.339046">
        <ele>883.6</ele>
        <time>2018-08-21T08:15:44Z</time>
      </trkpt>
      <trkpt lat="42.988774" lon="-1.339195">
        <ele>884.1</ele>
        <time>2018-08-21T08:15:53Z</time>
      </trkpt>
      <trkpt lat="42.988865" lon="-1.339440">
        <ele>884.5</ele>
        <time>2018-08-21T08:16:10Z</time>
      </trkpt>
      <trkpt lat="42.988913" lon="-1.339601">
        <ele>885.0</ele>
        <time>2018-08-21T08:16:22Z</time>
      </trkpt>
      <trkpt lat="42.988931" lon="-1.339648">
        <ele>884.5</ele>
        <time>2018-08-21T08:16:25Z</time>
      </trkpt>
      <trkpt lat="42.989020" lon="-1.339926">
        <ele>884.5</ele>
        <time>2018-08-21T08:16:42Z</time>
      </trkpt>
      <trkpt lat="42.989080" lon="-1.340086">
        <ele>884.5</ele>
        <time>2018-08-21T08:16:52Z</time>
      </trkpt>
      <trkpt lat="42.989087" lon="-1.340109">
        <ele>885.0</ele>
        <time>2018-08-21T08:16:54Z</time>
      </trkpt>
      <trkpt lat="42.989109" lon="-1.340168">
        <ele>885.5</ele>
        <time>2018-08-21T08:16:58Z</time>
      </trkpt>
      <trkpt lat="42.989150" lon="-1.340313">
        <ele>885.5</ele>
        <time>2018-08-21T08:17:08Z</time>
      </trkpt>
      <trkpt lat="42.989177" lon="-1.340368">
        <ele>885.5</ele>
        <time>2018-08-21T08:17:12Z</time>
      </trkpt>
      <trkpt lat="42.989197" lon="-1.340489">
        <ele>885.5</ele>
        <time>2018-08-21T08:17:19Z</time>
      </trkpt>
      <trkpt lat="42.989236" lon="-1.340619">
        <ele>885.5</ele>
        <time>2018-08-21T08:17:26Z</time>
      </trkpt>
      <trkpt lat="42.989248" lon="-1.340694">
        <ele>886.0</ele>
        <time>2018-08-21T08:17:30Z</time>
      </trkpt>
      <trkpt lat="42.989295" lon="-1.340824">
        <ele>885.5</ele>
        <time>2018-08-21T08:17:38Z</time>
      </trkpt>
      <trkpt lat="42.989372" lon="-1.341049">
        <ele>885.0</ele>
        <time>2018-08-21T08:17:53Z</time>
      </trkpt>
      <trkpt lat="42.989458" lon="-1.341305">
        <ele>884.1</ele>
        <time>2018-08-21T08:18:09Z</time>
      </trkpt>
      <trkpt lat="42.989449" lon="-1.341575">
        <ele>883.6</ele>
        <time>2018-08-21T08:18:25Z</time>
      </trkpt>
      <trkpt lat="42.989450" lon="-1.341591">
        <ele>884.1</ele>
        <time>2018-08-21T08:18:26Z</time>
      </trkpt>
      <trkpt lat="42.989436" lon="-1.341638">
        <ele>884.1</ele>
        <time>2018-08-21T08:18:29Z</time>
      </trkpt>
      <trkpt lat="42.989429" lon="-1.341953">
        <ele>884.1</ele>
        <time>2018-08-21T08:18:48Z</time>
      </trkpt>
      <trkpt lat="42.989446" lon="-1.342011">
        <ele>885.0</ele>
        <time>2018-08-21T08:18:52Z</time>
      </trkpt>
      <trkpt lat="42.989533" lon="-1.342249">
        <ele>886.0</ele>
        <time>2018-08-21T08:19:07Z</time>
      </trkpt>
      <trkpt lat="42.989615" lon="-1.342403">
        <ele>887.4</ele>
        <time>2018-08-21T08:19:18Z</time>
      </trkpt>
      <trkpt lat="42.989648" lon="-1.342479">
        <ele>888.4</ele>
        <time>2018-08-21T08:19:23Z</time>
      </trkpt>
      <trkpt lat="42.989669" lon="-1.342582">
        <ele>888.9</ele>
        <time>2018-08-21T08:19:30Z</time>
      </trkpt>
      <trkpt lat="42.989676" lon="-1.342628">
        <ele>889.4</ele>
        <time>2018-08-21T08:19:33Z</time>
      </trkpt>
      <trkpt lat="42.989681" lon="-1.342673">
        <ele>888.9</ele>
        <time>2018-08-21T08:19:36Z</time>
      </trkpt>
      <trkpt lat="42.989673" lon="-1.342766">
        <ele>889.4</ele>
        <time>2018-08-21T08:19:42Z</time>
      </trkpt>
      <trkpt lat="42.989689" lon="-1.342946">
        <ele>889.4</ele>
        <time>2018-08-21T08:20:24Z</time>
      </trkpt>
      <trkpt lat="42.989637" lon="-1.343116">
        <ele>889.4</ele>
        <time>2018-08-21T08:20:35Z</time>
      </trkpt>
      <trkpt lat="42.989601" lon="-1.343408">
        <ele>888.9</ele>
        <time>2018-08-21T08:20:52Z</time>
      </trkpt>
      <trkpt lat="42.989619" lon="-1.343637">
        <ele>888.4</ele>
        <time>2018-08-21T08:21:06Z</time>
      </trkpt>
      <trkpt lat="42.989615" lon="-1.343689">
        <ele>887.9</ele>
        <time>2018-08-21T08:21:09Z</time>
      </trkpt>
      <trkpt lat="42.989605" lon="-1.343888">
        <ele>887.0</ele>
        <time>2018-08-21T08:21:22Z</time>
      </trkpt>
      <trkpt lat="42.989631" lon="-1.344124">
        <ele>887.0</ele>
        <time>2018-08-21T08:21:37Z</time>
      </trkpt>
      <trkpt lat="42.989638" lon="-1.344308">
        <ele>886.5</ele>
        <time>2018-08-21T08:21:51Z</time>
      </trkpt>
      <trkpt lat="42.989652" lon="-1.344597">
        <ele>884.5</ele>
        <time>2018-08-21T08:22:08Z</time>
      </trkpt>
      <trkpt lat="42.989663" lon="-1.344887">
        <ele>884.5</ele>
        <time>2018-08-21T08:22:25Z</time>
      </trkpt>
      <trkpt lat="42.989659" lon="-1.344915">
        <ele>884.5</ele>
        <time>2018-08-21T08:22:27Z</time>
      </trkpt>
      <trkpt lat="42.989523" lon="-1.345214">
        <ele>884.1</ele>
        <time>2018-08-21T08:22:44Z</time>
      </trkpt>
      <trkpt lat="42.989391" lon="-1.345381">
        <ele>884.5</ele>
        <time>2018-08-21T08:22:57Z</time>
      </trkpt>
      <trkpt lat="42.989347" lon="-1.345440">
        <ele>884.5</ele>
        <time>2018-08-21T08:23:02Z</time>
      </trkpt>
      <trkpt lat="42.989287" lon="-1.345551">
        <ele>885.0</ele>
        <time>2018-08-21T08:23:09Z</time>
      </trkpt>
      <trkpt lat="42.989274" lon="-1.345667">
        <ele>884.5</ele>
        <time>2018-08-21T08:23:16Z</time>
      </trkpt>
      <trkpt lat="42.989270" lon="-1.345705">
        <ele>884.5</ele>
        <time>2018-08-21T08:23:18Z</time>
      </trkpt>
      <trkpt lat="42.989245" lon="-1.345736">
        <ele>885.0</ele>
        <time>2018-08-21T08:23:30Z</time>
      </trkpt>
      <trkpt lat="42.989276" lon="-1.345931">
        <ele>885.0</ele>
        <time>2018-08-21T08:23:44Z</time>
      </trkpt>
      <trkpt lat="42.989274" lon="-1.346143">
        <ele>884.5</ele>
        <time>2018-08-21T08:23:58Z</time>
      </trkpt>
      <trkpt lat="42.989276" lon="-1.346391">
        <ele>884.5</ele>
        <time>2018-08-21T08:24:12Z</time>
      </trkpt>
      <trkpt lat="42.989267" lon="-1.346445">
        <ele>884.1</ele>
        <time>2018-08-21T08:24:15Z</time>
      </trkpt>
      <trkpt lat="42.989289" lon="-1.346567">
        <ele>883.6</ele>
        <time>2018-08-21T08:24:22Z</time>
      </trkpt>
      <trkpt lat="42.989289" lon="-1.346813">
        <ele>883.1</ele>
        <time>2018-08-21T08:24:36Z</time>
      </trkpt>
      <trkpt lat="42.989299" lon="-1.346934">
        <ele>883.6</ele>
        <time>2018-08-21T08:24:43Z</time>
      </trkpt>
      <trkpt lat="42.989299" lon="-1.347010">
        <ele>883.6</ele>
        <time>2018-08-21T08:24:47Z</time>
      </trkpt>
      <trkpt lat="42.989299" lon="-1.347054">
        <ele>883.6</ele>
        <time>2018-08-21T08:24:50Z</time>
      </trkpt>
      <trkpt lat="42.989305" lon="-1.347172">
        <ele>884.1</ele>
        <time>2018-08-21T08:24:57Z</time>
      </trkpt>
      <trkpt lat="42.989314" lon="-1.347438">
        <ele>884.5</ele>
        <time>2018-08-21T08:25:13Z</time>
      </trkpt>
      <trkpt lat="42.989316" lon="-1.347694">
        <ele>885.0</ele>
        <time>2018-08-21T08:25:27Z</time>
      </trkpt>
      <trkpt lat="42.989333" lon="-1.347921">
        <ele>885.5</ele>
        <time>2018-08-21T08:25:39Z</time>
      </trkpt>
      <trkpt lat="42.989337" lon="-1.347971">
        <ele>885.5</ele>
        <time>2018-08-21T08:25:42Z</time>
      </trkpt>
      <trkpt lat="42.989330" lon="-1.348042">
        <ele>886.0</ele>
        <time>2018-08-21T08:25:46Z</time>
      </trkpt>
      <trkpt lat="42.989337" lon="-1.348200">
        <ele>886.0</ele>
        <time>2018-08-21T08:25:59Z</time>
      </trkpt>
      <trkpt lat="42.989358" lon="-1.348380">
        <ele>885.5</ele>
        <time>2018-08-21T08:26:09Z</time>
      </trkpt>
      <trkpt lat="42.989377" lon="-1.348455">
        <ele>885.0</ele>
        <time>2018-08-21T08:26:13Z</time>
      </trkpt>
      <trkpt lat="42.989452" lon="-1.348779">
        <ele>883.6</ele>
        <time>2018-08-21T08:26:32Z</time>
      </trkpt>
      <trkpt lat="42.989500" lon="-1.349031">
        <ele>883.6</ele>
        <time>2018-08-21T08:26:46Z</time>
      </trkpt>
      <trkpt lat="42.989558" lon="-1.349310">
        <ele>885.0</ele>
        <time>2018-08-21T08:27:02Z</time>
      </trkpt>
      <trkpt lat="42.989577" lon="-1.349431">
        <ele>885.0</ele>
        <time>2018-08-21T08:27:09Z</time>
      </trkpt>
      <trkpt lat="42.989636" lon="-1.349696">
        <ele>886.0</ele>
        <time>2018-08-21T08:27:24Z</time>
      </trkpt>
      <trkpt lat="42.989652" lon="-1.349756">
        <ele>886.0</ele>
        <time>2018-08-21T08:27:28Z</time>
      </trkpt>
      <trkpt lat="42.989720" lon="-1.349950">
        <ele>885.0</ele>
        <time>2018-08-21T08:27:44Z</time>
      </trkpt>
      <trkpt lat="42.989774" lon="-1.350338">
        <ele>884.5</ele>
        <time>2018-08-21T08:28:06Z</time>
      </trkpt>
      <trkpt lat="42.989812" lon="-1.350413">
        <ele>883.6</ele>
        <time>2018-08-21T08:28:13Z</time>
      </trkpt>
      <trkpt lat="42.989818" lon="-1.350521">
        <ele>884.1</ele>
        <time>2018-08-21T08:28:19Z</time>
      </trkpt>
      <trkpt lat="42.989844" lon="-1.350665">
        <ele>884.1</ele>
        <time>2018-08-21T08:28:27Z</time>
      </trkpt>
      <trkpt lat="42.989896" lon="-1.350871">
        <ele>884.5</ele>
        <time>2018-08-21T08:28:43Z</time>
      </trkpt>
      <trkpt lat="42.989895" lon="-1.350905">
        <ele>884.5</ele>
        <time>2018-08-21T08:28:45Z</time>
      </trkpt>
      <trkpt lat="42.989900" lon="-1.350942">
        <ele>885.0</ele>
        <time>2018-08-21T08:28:47Z</time>
      </trkpt>
      <trkpt lat="42.989949" lon="-1.351131">
        <ele>885.0</ele>
        <time>2018-08-21T08:29:01Z</time>
      </trkpt>
      <trkpt lat="42.989952" lon="-1.351153">
        <ele>885.0</ele>
        <time>2018-08-21T08:29:03Z</time>
      </trkpt>
      <trkpt lat="42.989984" lon="-1.351206">
        <ele>885.5</ele>
        <time>2018-08-21T08:29:33Z</time>
      </trkpt>
      <trkpt lat="42.989978" lon="-1.351216">
        <ele>885.5</ele>
        <time>2018-08-21T08:29:34Z</time>
      </trkpt>
      <trkpt lat="42.989974" lon="-1.351358">
        <ele>885.0</ele>
        <time>2018-08-21T08:29:43Z</time>
      </trkpt>
      <trkpt lat="42.989977" lon="-1.351429">
        <ele>885.0</ele>
        <time>2018-08-21T08:29:47Z</time>
      </trkpt>
      <trkpt lat="42.989969" lon="-1.351680">
        <ele>885.5</ele>
        <time>2018-08-21T08:30:02Z</time>
      </trkpt>
      <trkpt lat="42.989936" lon="-1.351930">
        <ele>886.0</ele>
        <time>2018-08-21T08:30:17Z</time>
      </trkpt>
      <trkpt lat="42.989931" lon="-1.351967">
        <ele>885.0</ele>
        <time>2018-08-21T08:30:19Z</time>
      </trkpt>
      <trkpt lat="42.989894" lon="-1.352311">
        <ele>885.0</ele>
        <time>2018-08-21T08:30:38Z</time>
      </trkpt>
      <trkpt lat="42.989859" lon="-1.352625">
        <ele>885.5</ele>
        <time>2018-08-21T08:30:56Z</time>
      </trkpt>
      <trkpt lat="42.989859" lon="-1.352712">
        <ele>885.0</ele>
        <time>2018-08-21T08:31:01Z</time>
      </trkpt>
      <trkpt lat="42.989809" lon="-1.353019">
        <ele>886.0</ele>
        <time>2018-08-21T08:31:18Z</time>
      </trkpt>
      <trkpt lat="42.989781" lon="-1.353273">
        <ele>885.5</ele>
        <time>2018-08-21T08:31:32Z</time>
      </trkpt>
      <trkpt lat="42.989740" lon="-1.353575">
        <ele>886.5</ele>
        <time>2018-08-21T08:31:48Z</time>
      </trkpt>
      <trkpt lat="42.989732" lon="-1.353704">
        <ele>886.5</ele>
        <time>2018-08-21T08:31:55Z</time>
      </trkpt>
      <trkpt lat="42.989700" lon="-1.353938">
        <ele>886.5</ele>
        <time>2018-08-21T08:32:08Z</time>
      </trkpt>
      <trkpt lat="42.989690" lon="-1.353973">
        <ele>887.0</ele>
        <time>2018-08-21T08:32:10Z</time>
      </trkpt>
      <trkpt lat="42.989667" lon="-1.354287">
        <ele>887.0</ele>
        <time>2018-08-21T08:32:27Z</time>
      </trkpt>
      <trkpt lat="42.989644" lon="-1.354548">
        <ele>885.5</ele>
        <time>2018-08-21T08:32:42Z</time>
      </trkpt>
      <trkpt lat="42.989634" lon="-1.354770">
        <ele>884.5</ele>
        <time>2018-08-21T08:33:55Z</time>
      </trkpt>
      <trkpt lat="42.989621" lon="-1.354876">
        <ele>883.6</ele>
        <time>2018-08-21T08:34:02Z</time>
      </trkpt>
      <trkpt lat="42.989619" lon="-1.354924">
        <ele>884.1</ele>
        <time>2018-08-21T08:34:04Z</time>
      </trkpt>
      <trkpt lat="42.989603" lon="-1.355009">
        <ele>883.6</ele>
        <time>2018-08-21T08:34:09Z</time>
      </trkpt>
      <trkpt lat="42.989605" lon="-1.355065">
        <ele>883.6</ele>
        <time>2018-08-21T08:34:12Z</time>
      </trkpt>
      <trkpt lat="42.989619" lon="-1.355157">
        <ele>883.1</ele>
        <time>2018-08-21T08:34:22Z</time>
      </trkpt>
      <trkpt lat="42.989619" lon="-1.355226">
        <ele>884.1</ele>
        <time>2018-08-21T08:34:40Z</time>
      </trkpt>
      <trkpt lat="42.989590" lon="-1.355334">
        <ele>883.1</ele>
        <time>2018-08-21T08:34:47Z</time>
      </trkpt>
      <trkpt lat="42.989488" lon="-1.355485">
        <ele>883.1</ele>
        <time>2018-08-21T08:35:02Z</time>
      </trkpt>
      <trkpt lat="42.989346" lon="-1.355569">
        <ele>884.1</ele>
        <time>2018-08-21T08:35:16Z</time>
      </trkpt>
      <trkpt lat="42.989306" lon="-1.355659">
        <ele>885.0</ele>
        <time>2018-08-21T08:35:23Z</time>
      </trkpt>
      <trkpt lat="42.989296" lon="-1.355767">
        <ele>885.5</ele>
        <time>2018-08-21T08:35:30Z</time>
      </trkpt>
      <trkpt lat="42.989344" lon="-1.355911">
        <ele>886.0</ele>
        <time>2018-08-21T08:35:40Z</time>
      </trkpt>
      <trkpt lat="42.989340" lon="-1.355962">
        <ele>886.5</ele>
        <time>2018-08-21T08:35:44Z</time>
      </trkpt>
      <trkpt lat="42.989334" lon="-1.356016">
        <ele>886.5</ele>
        <time>2018-08-21T08:35:47Z</time>
      </trkpt>
      <trkpt lat="42.989296" lon="-1.356309">
        <ele>887.4</ele>
        <time>2018-08-21T08:36:02Z</time>
      </trkpt>
      <trkpt lat="42.989292" lon="-1.356552">
        <ele>888.4</ele>
        <time>2018-08-21T08:36:16Z</time>
      </trkpt>
      <trkpt lat="42.989348" lon="-1.356748">
        <ele>889.4</ele>
        <time>2018-08-21T08:36:31Z</time>
      </trkpt>
      <trkpt lat="42.989368" lon="-1.356861">
        <ele>889.4</ele>
        <time>2018-08-21T08:36:39Z</time>
      </trkpt>
      <trkpt lat="42.989402" lon="-1.357052">
        <ele>889.8</ele>
        <time>2018-08-21T08:36:49Z</time>
      </trkpt>
      <trkpt lat="42.989419" lon="-1.357119">
        <ele>889.8</ele>
        <time>2018-08-21T08:36:53Z</time>
      </trkpt>
      <trkpt lat="42.989455" lon="-1.357282">
        <ele>890.3</ele>
        <time>2018-08-21T08:37:03Z</time>
      </trkpt>
      <trkpt lat="42.989485" lon="-1.357371">
        <ele>889.8</ele>
        <time>2018-08-21T08:37:09Z</time>
      </trkpt>
      <trkpt lat="42.989489" lon="-1.357419">
        <ele>889.8</ele>
        <time>2018-08-21T08:37:12Z</time>
      </trkpt>
      <trkpt lat="42.989550" lon="-1.357672">
        <ele>890.8</ele>
        <time>2018-08-21T08:37:27Z</time>
      </trkpt>
      <trkpt lat="42.989573" lon="-1.357863">
        <ele>890.8</ele>
        <time>2018-08-21T08:37:42Z</time>
      </trkpt>
      <trkpt lat="42.989579" lon="-1.358141">
        <ele>891.3</ele>
        <time>2018-08-21T08:37:55Z</time>
      </trkpt>
      <trkpt lat="42.989600" lon="-1.358403">
        <ele>891.3</ele>
        <time>2018-08-21T08:38:10Z</time>
      </trkpt>
      <trkpt lat="42.989608" lon="-1.358455">
        <ele>892.2</ele>
        <time>2018-08-21T08:38:14Z</time>
      </trkpt>
      <trkpt lat="42.989607" lon="-1.358498">
        <ele>891.8</ele>
        <time>2018-08-21T08:38:17Z</time>
      </trkpt>
      <trkpt lat="42.989598" lon="-1.358768">
        <ele>892.2</ele>
        <time>2018-08-21T08:38:32Z</time>
      </trkpt>
      <trkpt lat="42.989581" lon="-1.358998">
        <ele>891.8</ele>
        <time>2018-08-21T08:38:47Z</time>
      </trkpt>
      <trkpt lat="42.989578" lon="-1.359129">
        <ele>891.3</ele>
        <time>2018-08-21T08:38:54Z</time>
      </trkpt>
      <trkpt lat="42.989573" lon="-1.359365">
        <ele>892.7</ele>
        <time>2018-08-21T08:39:08Z</time>
      </trkpt>
      <trkpt lat="42.989486" lon="-1.359657">
        <ele>892.7</ele>
        <time>2018-08-21T08:39:26Z</time>
      </trkpt>
      <trkpt lat="42.989428" lon="-1.359845">
        <ele>894.2</ele>
        <time>2018-08-21T08:39:40Z</time>
      </trkpt>
      <trkpt lat="42.989364" lon="-1.359929">
        <ele>895.1</ele>
        <time>2018-08-21T08:39:46Z</time>
      </trkpt>
      <trkpt lat="42.989302" lon="-1.360013">
        <ele>895.6</ele>
        <time>2018-08-21T08:39:54Z</time>
      </trkpt>
      <trkpt lat="42.989261" lon="-1.360036">
        <ele>896.1</ele>
        <time>2018-08-21T08:39:57Z</time>
      </trkpt>
      <trkpt lat="42.989116" lon="-1.360249">
        <ele>894.6</ele>
        <time>2018-08-21T08:40:14Z</time>
      </trkpt>
      <trkpt lat="42.989116" lon="-1.360291">
        <ele>894.2</ele>
        <time>2018-08-21T08:40:17Z</time>
      </trkpt>
      <trkpt lat="42.989120" lon="-1.360563">
        <ele>891.3</ele>
        <time>2018-08-21T08:40:36Z</time>
      </trkpt>
      <trkpt lat="42.989077" lon="-1.360674">
        <ele>888.9</ele>
        <time>2018-08-21T08:40:49Z</time>
      </trkpt>
      <trkpt lat="42.988938" lon="-1.360734">
        <ele>889.4</ele>
        <time>2018-08-21T08:41:05Z</time>
      </trkpt>
      <trkpt lat="42.988887" lon="-1.360732">
        <ele>889.4</ele>
        <time>2018-08-21T08:41:19Z</time>
      </trkpt>
      <trkpt lat="42.988857" lon="-1.360772">
        <ele>889.8</ele>
        <time>2018-08-21T08:41:50Z</time>
      </trkpt>
      <trkpt lat="42.988736" lon="-1.360753">
        <ele>888.9</ele>
        <time>2018-08-21T08:42:04Z</time>
      </trkpt>
      <trkpt lat="42.988602" lon="-1.360811">
        <ele>889.4</ele>
        <time>2018-08-21T08:42:15Z</time>
      </trkpt>
      <trkpt lat="42.988457" lon="-1.360869">
        <ele>888.4</ele>
        <time>2018-08-21T08:42:29Z</time>
      </trkpt>
      <trkpt lat="42.988355" lon="-1.360862">
        <ele>888.9</ele>
        <time>2018-08-21T08:42:41Z</time>
      </trkpt>
      <trkpt lat="42.988262" lon="-1.360933">
        <ele>890.8</ele>
        <time>2018-08-21T08:42:57Z</time>
      </trkpt>
      <trkpt lat="42.988087" lon="-1.361120">
        <ele>892.2</ele>
        <time>2018-08-21T08:43:12Z</time>
      </trkpt>
      <trkpt lat="42.987960" lon="-1.361224">
        <ele>894.6</ele>
        <time>2018-08-21T08:43:27Z</time>
      </trkpt>
      <trkpt lat="42.987775" lon="-1.361261">
        <ele>897.0</ele>
        <time>2018-08-21T08:43:43Z</time>
      </trkpt>
      <trkpt lat="42.987679" lon="-1.361305">
        <ele>898.5</ele>
        <time>2018-08-21T08:43:58Z</time>
      </trkpt>
      <trkpt lat="42.987563" lon="-1.361380">
        <ele>900.9</ele>
        <time>2018-08-21T08:44:13Z</time>
      </trkpt>
      <trkpt lat="42.987487" lon="-1.361421">
        <ele>902.3</ele>
        <time>2018-08-21T08:44:21Z</time>
      </trkpt>
      <trkpt lat="42.987400" lon="-1.361523">
        <ele>904.7</ele>
        <time>2018-08-21T08:44:35Z</time>
      </trkpt>
      <trkpt lat="42.987299" lon="-1.361571">
        <ele>907.1</ele>
        <time>2018-08-21T08:44:46Z</time>
      </trkpt>
      <trkpt lat="42.987175" lon="-1.361658">
        <ele>910.5</ele>
        <time>2018-08-21T08:44:59Z</time>
      </trkpt>
      <trkpt lat="42.987042" lon="-1.361709">
        <ele>913.4</ele>
        <time>2018-08-21T08:45:16Z</time>
      </trkpt>
      <trkpt lat="42.987002" lon="-1.361730">
        <ele>914.3</ele>
        <time>2018-08-21T08:45:22Z</time>
      </trkpt>
      <trkpt lat="42.986927" lon="-1.361816">
        <ele>914.8</ele>
        <time>2018-08-21T08:45:31Z</time>
      </trkpt>
      <trkpt lat="42.986747" lon="-1.361904">
        <ele>918.2</ele>
        <time>2018-08-21T08:45:46Z</time>
      </trkpt>
      <trkpt lat="42.986641" lon="-1.361893">
        <ele>919.6</ele>
        <time>2018-08-21T08:45:59Z</time>
      </trkpt>
      <trkpt lat="42.986621" lon="-1.361909">
        <ele>920.6</ele>
        <time>2018-08-21T08:46:10Z</time>
      </trkpt>
      <trkpt lat="42.986487" lon="-1.362096">
        <ele>922.5</ele>
        <time>2018-08-21T08:46:28Z</time>
      </trkpt>
      <trkpt lat="42.986400" lon="-1.362325">
        <ele>923.5</ele>
        <time>2018-08-21T08:46:43Z</time>
      </trkpt>
      <trkpt lat="42.986389" lon="-1.362406">
        <ele>924.5</ele>
        <time>2018-08-21T08:46:49Z</time>
      </trkpt>
      <trkpt lat="42.986358" lon="-1.362552">
        <ele>924.5</ele>
        <time>2018-08-21T08:46:58Z</time>
      </trkpt>
      <trkpt lat="42.986348" lon="-1.362597">
        <ele>924.0</ele>
        <time>2018-08-21T08:47:01Z</time>
      </trkpt>
      <trkpt lat="42.986306" lon="-1.362777">
        <ele>924.9</ele>
        <time>2018-08-21T08:47:13Z</time>
      </trkpt>
      <trkpt lat="42.986227" lon="-1.362945">
        <ele>924.0</ele>
        <time>2018-08-21T08:47:27Z</time>
      </trkpt>
      <trkpt lat="42.986131" lon="-1.363000">
        <ele>922.5</ele>
        <time>2018-08-21T08:47:35Z</time>
      </trkpt>
      <trkpt lat="42.985958" lon="-1.363090">
        <ele>921.1</ele>
        <time>2018-08-21T08:47:51Z</time>
      </trkpt>
      <trkpt lat="42.985781" lon="-1.363188">
        <ele>920.1</ele>
        <time>2018-08-21T08:48:06Z</time>
      </trkpt>
      <trkpt lat="42.985752" lon="-1.363208">
        <ele>919.6</ele>
        <time>2018-08-21T08:48:09Z</time>
      </trkpt>
      <trkpt lat="42.985634" lon="-1.363343">
        <ele>918.7</ele>
        <time>2018-08-21T08:48:24Z</time>
      </trkpt>
      <trkpt lat="42.985517" lon="-1.363390">
        <ele>916.8</ele>
        <time>2018-08-21T08:48:36Z</time>
      </trkpt>
      <trkpt lat="42.985351" lon="-1.363484">
        <ele>914.8</ele>
        <time>2018-08-21T08:48:50Z</time>
      </trkpt>
      <trkpt lat="42.985280" lon="-1.363520">
        <ele>913.9</ele>
        <time>2018-08-21T08:48:56Z</time>
      </trkpt>
      <trkpt lat="42.985091" lon="-1.363655">
        <ele>911.5</ele>
        <time>2018-08-21T08:49:13Z</time>
      </trkpt>
      <trkpt lat="42.984978" lon="-1.363769">
        <ele>908.6</ele>
        <time>2018-08-21T08:49:27Z</time>
      </trkpt>
      <trkpt lat="42.984807" lon="-1.363928">
        <ele>907.1</ele>
        <time>2018-08-21T08:49:44Z</time>
      </trkpt>
      <trkpt lat="42.984701" lon="-1.363992">
        <ele>906.2</ele>
        <time>2018-08-21T08:49:59Z</time>
      </trkpt>
      <trkpt lat="42.984691" lon="-1.363998">
        <ele>906.2</ele>
        <time>2018-08-21T08:50:00Z</time>
      </trkpt>
      <trkpt lat="42.984571" lon="-1.364091">
        <ele>905.7</ele>
        <time>2018-08-21T08:50:11Z</time>
      </trkpt>
      <trkpt lat="42.984414" lon="-1.364235">
        <ele>904.3</ele>
        <time>2018-08-21T08:50:27Z</time>
      </trkpt>
      <trkpt lat="42.984250" lon="-1.364337">
        <ele>902.8</ele>
        <time>2018-08-21T08:50:41Z</time>
      </trkpt>
      <trkpt lat="42.984239" lon="-1.364341">
        <ele>902.3</ele>
        <time>2018-08-21T08:50:42Z</time>
      </trkpt>
      <trkpt lat="42.984123" lon="-1.364496">
        <ele>900.9</ele>
        <time>2018-08-21T08:50:58Z</time>
      </trkpt>
      <trkpt lat="42.984068" lon="-1.364540">
        <ele>900.4</ele>
        <time>2018-08-21T08:51:04Z</time>
      </trkpt>
      <trkpt lat="42.983912" lon="-1.364734">
        <ele>897.5</ele>
        <time>2018-08-21T08:51:21Z</time>
      </trkpt>
      <trkpt lat="42.983827" lon="-1.364831">
        <ele>896.6</ele>
        <time>2018-08-21T08:51:31Z</time>
      </trkpt>
      <trkpt lat="42.983719" lon="-1.364973">
        <ele>894.6</ele>
        <time>2018-08-21T08:51:44Z</time>
      </trkpt>
      <trkpt lat="42.983568" lon="-1.365148">
        <ele>892.2</ele>
        <time>2018-08-21T08:52:00Z</time>
      </trkpt>
      <trkpt lat="42.983443" lon="-1.365286">
        <ele>889.4</ele>
        <time>2018-08-21T08:52:12Z</time>
      </trkpt>
      <trkpt lat="42.983300" lon="-1.365425">
        <ele>886.0</ele>
        <time>2018-08-21T08:52:25Z</time>
      </trkpt>
      <trkpt lat="42.983114" lon="-1.365629">
        <ele>883.1</ele>
        <time>2018-08-21T08:52:43Z</time>
      </trkpt>
      <trkpt lat="42.982951" lon="-1.365801">
        <ele>880.7</ele>
        <time>2018-08-21T08:53:00Z</time>
      </trkpt>
      <trkpt lat="42.982810" lon="-1.365950">
        <ele>879.3</ele>
        <time>2018-08-21T08:53:16Z</time>
      </trkpt>
      <trkpt lat="42.982794" lon="-1.365975">
        <ele>879.7</ele>
        <time>2018-08-21T08:53:18Z</time>
      </trkpt>
      <trkpt lat="42.982624" lon="-1.366115">
        <ele>878.3</ele>
        <time>2018-08-21T08:53:34Z</time>
      </trkpt>
      <trkpt lat="42.982592" lon="-1.366166">
        <ele>878.3</ele>
        <time>2018-08-21T08:53:38Z</time>
      </trkpt>
      <trkpt lat="42.982528" lon="-1.366235">
        <ele>877.8</ele>
        <time>2018-08-21T08:53:44Z</time>
      </trkpt>
      <trkpt lat="42.982396" lon="-1.366415">
        <ele>876.9</ele>
        <time>2018-08-21T08:53:59Z</time>
      </trkpt>
      <trkpt lat="42.982350" lon="-1.366482">
        <ele>876.4</ele>
        <time>2018-08-21T08:54:04Z</time>
      </trkpt>
      <trkpt lat="42.982128" lon="-1.366702">
        <ele>875.4</ele>
        <time>2018-08-21T08:54:22Z</time>
      </trkpt>
      <trkpt lat="42.982047" lon="-1.366771">
        <ele>875.4</ele>
        <time>2018-08-21T08:54:31Z</time>
      </trkpt>
      <trkpt lat="42.981973" lon="-1.366832">
        <ele>875.4</ele>
        <time>2018-08-21T08:54:36Z</time>
      </trkpt>
      <trkpt lat="42.981829" lon="-1.367015">
        <ele>874.9</ele>
        <time>2018-08-21T08:54:52Z</time>
      </trkpt>
      <trkpt lat="42.981667" lon="-1.367104">
        <ele>874.0</ele>
        <time>2018-08-21T08:55:07Z</time>
      </trkpt>
      <trkpt lat="42.981652" lon="-1.367111">
        <ele>874.0</ele>
        <time>2018-08-21T08:55:08Z</time>
      </trkpt>
      <trkpt lat="42.981452" lon="-1.367159">
        <ele>873.5</ele>
        <time>2018-08-21T08:55:25Z</time>
      </trkpt>
      <trkpt lat="42.981401" lon="-1.367201">
        <ele>873.0</ele>
        <time>2018-08-21T08:55:31Z</time>
      </trkpt>
      <trkpt lat="42.981374" lon="-1.367223">
        <ele>873.5</ele>
        <time>2018-08-21T08:55:34Z</time>
      </trkpt>
      <trkpt lat="42.981321" lon="-1.367260">
        <ele>873.0</ele>
        <time>2018-08-21T08:55:39Z</time>
      </trkpt>
      <trkpt lat="42.981185" lon="-1.367424">
        <ele>871.1</ele>
        <time>2018-08-21T08:55:55Z</time>
      </trkpt>
      <trkpt lat="42.981041" lon="-1.367586">
        <ele>872.5</ele>
        <time>2018-08-21T08:56:10Z</time>
      </trkpt>
      <trkpt lat="42.980884" lon="-1.367834">
        <ele>872.0</ele>
        <time>2018-08-21T08:56:27Z</time>
      </trkpt>
      <trkpt lat="42.980753" lon="-1.368039">
        <ele>871.6</ele>
        <time>2018-08-21T08:56:45Z</time>
      </trkpt>
      <trkpt lat="42.980740" lon="-1.368064">
        <ele>872.0</ele>
        <time>2018-08-21T08:56:59Z</time>
      </trkpt>
      <trkpt lat="42.980709" lon="-1.368162">
        <ele>871.6</ele>
        <time>2018-08-21T08:57:19Z</time>
      </trkpt>
      <trkpt lat="42.980582" lon="-1.368397">
        <ele>871.6</ele>
        <time>2018-08-21T08:57:34Z</time>
      </trkpt>
      <trkpt lat="42.980474" lon="-1.368621">
        <ele>871.6</ele>
        <time>2018-08-21T08:57:50Z</time>
      </trkpt>
      <trkpt lat="42.980418" lon="-1.368775">
        <ele>871.6</ele>
        <time>2018-08-21T08:58:00Z</time>
      </trkpt>
      <trkpt lat="42.980310" lon="-1.368961">
        <ele>871.6</ele>
        <time>2018-08-21T08:58:14Z</time>
      </trkpt>
      <trkpt lat="42.980257" lon="-1.369015">
        <ele>872.0</ele>
        <time>2018-08-21T08:58:20Z</time>
      </trkpt>
      <trkpt lat="42.980217" lon="-1.369067">
        <ele>872.0</ele>
        <time>2018-08-21T08:58:25Z</time>
      </trkpt>
      <trkpt lat="42.980201" lon="-1.369077">
        <ele>872.5</ele>
        <time>2018-08-21T08:58:26Z</time>
      </trkpt>
      <trkpt lat="42.980063" lon="-1.369119">
        <ele>872.5</ele>
        <time>2018-08-21T08:58:38Z</time>
      </trkpt>
      <trkpt lat="42.979865" lon="-1.369176">
        <ele>872.0</ele>
        <time>2018-08-21T08:58:53Z</time>
      </trkpt>
      <trkpt lat="42.979684" lon="-1.369202">
        <ele>872.5</ele>
        <time>2018-08-21T08:59:08Z</time>
      </trkpt>
      <trkpt lat="42.979570" lon="-1.369287">
        <ele>871.1</ele>
        <time>2018-08-21T08:59:23Z</time>
      </trkpt>
      <trkpt lat="42.979560" lon="-1.369300">
        <ele>871.1</ele>
        <time>2018-08-21T08:59:24Z</time>
      </trkpt>
      <trkpt lat="42.979547" lon="-1.369309">
        <ele>871.1</ele>
        <time>2018-08-21T08:59:25Z</time>
      </trkpt>
      <trkpt lat="42.979427" lon="-1.369389">
        <ele>871.1</ele>
        <time>2018-08-21T08:59:38Z</time>
      </trkpt>
      <trkpt lat="42.979417" lon="-1.369392">
        <ele>870.6</ele>
        <time>2018-08-21T08:59:39Z</time>
      </trkpt>
      <trkpt lat="42.979404" lon="-1.369396">
        <ele>871.1</ele>
        <time>2018-08-21T08:59:40Z</time>
      </trkpt>
      <trkpt lat="42.979386" lon="-1.369409">
        <ele>870.6</ele>
        <time>2018-08-21T08:59:41Z</time>
      </trkpt>
      <trkpt lat="42.979369" lon="-1.369425">
        <ele>870.6</ele>
        <time>2018-08-21T08:59:42Z</time>
      </trkpt>
      <trkpt lat="42.979359" lon="-1.369437">
        <ele>870.1</ele>
        <time>2018-08-21T08:59:43Z</time>
      </trkpt>
      <trkpt lat="42.979276" lon="-1.369506">
        <ele>870.6</ele>
        <time>2018-08-21T08:59:50Z</time>
      </trkpt>
      <trkpt lat="42.979259" lon="-1.369507">
        <ele>870.6</ele>
        <time>2018-08-21T08:59:51Z</time>
      </trkpt>
      <trkpt lat="42.979150" lon="-1.369595">
        <ele>870.1</ele>
        <time>2018-08-21T09:00:00Z</time>
      </trkpt>
      <trkpt lat="42.979149" lon="-1.369619">
        <ele>870.1</ele>
        <time>2018-08-21T09:00:01Z</time>
      </trkpt>
      <trkpt lat="42.979105" lon="-1.369746">
        <ele>869.7</ele>
        <time>2018-08-21T09:00:11Z</time>
      </trkpt>
      <trkpt lat="42.979099" lon="-1.369802">
        <ele>869.2</ele>
        <time>2018-08-21T09:00:14Z</time>
      </trkpt>
      <trkpt lat="42.979115" lon="-1.369836">
        <ele>869.2</ele>
        <time>2018-08-21T09:00:16Z</time>
      </trkpt>
      <trkpt lat="42.979162" lon="-1.369970">
        <ele>869.2</ele>
        <time>2018-08-21T09:00:25Z</time>
      </trkpt>
      <trkpt lat="42.979171" lon="-1.369984">
        <ele>869.2</ele>
        <time>2018-08-21T09:00:26Z</time>
      </trkpt>
      <trkpt lat="42.979203" lon="-1.370030">
        <ele>869.2</ele>
        <time>2018-08-21T09:00:30Z</time>
      </trkpt>
      <trkpt lat="42.979242" lon="-1.370177">
        <ele>869.7</ele>
        <time>2018-08-21T09:00:39Z</time>
      </trkpt>
      <trkpt lat="42.979298" lon="-1.370250">
        <ele>869.2</ele>
        <time>2018-08-21T09:00:51Z</time>
      </trkpt>
      <trkpt lat="42.979313" lon="-1.370386">
        <ele>869.7</ele>
        <time>2018-08-21T09:00:56Z</time>
      </trkpt>
      <trkpt lat="42.979308" lon="-1.370403">
        <ele>869.2</ele>
        <time>2018-08-21T09:00:57Z</time>
      </trkpt>
      <trkpt lat="42.979303" lon="-1.370426">
        <ele>869.2</ele>
        <time>2018-08-21T09:00:58Z</time>
      </trkpt>
      <trkpt lat="42.979298" lon="-1.370448">
        <ele>869.2</ele>
        <time>2018-08-21T09:00:59Z</time>
      </trkpt>
      <trkpt lat="42.979300" lon="-1.370465">
        <ele>869.7</ele>
        <time>2018-08-21T09:01:00Z</time>
      </trkpt>
      <trkpt lat="42.979304" lon="-1.370481">
        <ele>869.7</ele>
        <time>2018-08-21T09:01:01Z</time>
      </trkpt>
      <trkpt lat="42.979334" lon="-1.370525">
        <ele>869.7</ele>
        <time>2018-08-21T09:01:04Z</time>
      </trkpt>
      <trkpt lat="42.979344" lon="-1.370541">
        <ele>869.7</ele>
        <time>2018-08-21T09:01:05Z</time>
      </trkpt>
      <trkpt lat="42.979355" lon="-1.370555">
        <ele>869.7</ele>
        <time>2018-08-21T09:01:06Z</time>
      </trkpt>
      <trkpt lat="42.979347" lon="-1.370573">
        <ele>869.7</ele>
        <time>2018-08-21T09:01:22Z</time>
      </trkpt>
      <trkpt lat="42.979430" lon="-1.370793">
        <ele>869.7</ele>
        <time>2018-08-21T09:01:36Z</time>
      </trkpt>
      <trkpt lat="42.979452" lon="-1.370869">
        <ele>869.7</ele>
        <time>2018-08-21T09:01:44Z</time>
      </trkpt>
      <trkpt lat="42.979458" lon="-1.370882">
        <ele>869.7</ele>
        <time>2018-08-21T09:01:45Z</time>
      </trkpt>
      <trkpt lat="42.979521" lon="-1.371106">
        <ele>869.7</ele>
        <time>2018-08-21T09:01:59Z</time>
      </trkpt>
      <trkpt lat="42.979655" lon="-1.371578">
        <ele>871.1</ele>
        <time>2018-08-21T09:02:31Z</time>
      </trkpt>
      <trkpt lat="42.979713" lon="-1.371837">
        <ele>871.6</ele>
        <time>2018-08-21T09:02:49Z</time>
      </trkpt>
      <trkpt lat="42.979712" lon="-1.371924">
        <ele>871.6</ele>
        <time>2018-08-21T09:02:55Z</time>
      </trkpt>
      <trkpt lat="42.979774" lon="-1.372037">
        <ele>872.5</ele>
        <time>2018-08-21T09:03:07Z</time>
      </trkpt>
      <trkpt lat="42.979792" lon="-1.372094">
        <ele>872.5</ele>
        <time>2018-08-21T09:03:11Z</time>
      </trkpt>
      <trkpt lat="42.979818" lon="-1.372218">
        <ele>872.5</ele>
        <time>2018-08-21T09:03:20Z</time>
      </trkpt>
      <trkpt lat="42.979854" lon="-1.372410">
        <ele>873.0</ele>
        <time>2018-08-21T09:03:32Z</time>
      </trkpt>
      <trkpt lat="42.979867" lon="-1.372532">
        <ele>873.5</ele>
        <time>2018-08-21T09:03:42Z</time>
      </trkpt>
      <trkpt lat="42.979885" lon="-1.372540">
        <ele>873.5</ele>
        <time>2018-08-21T09:03:52Z</time>
      </trkpt>
      <trkpt lat="42.979858" lon="-1.372537">
        <ele>873.0</ele>
        <time>2018-08-21T09:03:56Z</time>
      </trkpt>
      <trkpt lat="42.979808" lon="-1.372549">
        <ele>874.5</ele>
        <time>2018-08-21T09:04:01Z</time>
      </trkpt>
      <trkpt lat="42.979759" lon="-1.372595">
        <ele>874.0</ele>
        <time>2018-08-21T09:04:06Z</time>
      </trkpt>
      <trkpt lat="42.979723" lon="-1.372659">
        <ele>874.5</ele>
        <time>2018-08-21T09:04:10Z</time>
      </trkpt>
      <trkpt lat="42.979692" lon="-1.372677">
        <ele>874.9</ele>
        <time>2018-08-21T09:04:11Z</time>
      </trkpt>
      <trkpt lat="42.979676" lon="-1.372690">
        <ele>874.9</ele>
        <time>2018-08-21T09:04:12Z</time>
      </trkpt>
      <trkpt lat="42.979618" lon="-1.372757">
        <ele>874.9</ele>
        <time>2018-08-21T09:04:18Z</time>
      </trkpt>
      <trkpt lat="42.979558" lon="-1.372832">
        <ele>874.5</ele>
        <time>2018-08-21T09:04:25Z</time>
      </trkpt>
      <trkpt lat="42.979419" lon="-1.372964">
        <ele>873.5</ele>
        <time>2018-08-21T09:04:42Z</time>
      </trkpt>
      <trkpt lat="42.979394" lon="-1.372986">
        <ele>873.0</ele>
        <time>2018-08-21T09:04:46Z</time>
      </trkpt>
      <trkpt lat="42.979368" lon="-1.373005">
        <ele>873.0</ele>
        <time>2018-08-21T09:04:49Z</time>
      </trkpt>
      <trkpt lat="42.979283" lon="-1.373085">
        <ele>871.6</ele>
        <time>2018-08-21T09:04:58Z</time>
      </trkpt>
      <trkpt lat="42.979275" lon="-1.373099">
        <ele>872.0</ele>
        <time>2018-08-21T09:04:59Z</time>
      </trkpt>
      <trkpt lat="42.979266" lon="-1.373113">
        <ele>872.0</ele>
        <time>2018-08-21T09:05:00Z</time>
      </trkpt>
      <trkpt lat="42.979254" lon="-1.373126">
        <ele>871.6</ele>
        <time>2018-08-21T09:05:01Z</time>
      </trkpt>
      <trkpt lat="42.979241" lon="-1.373135">
        <ele>871.6</ele>
        <time>2018-08-21T09:05:02Z</time>
      </trkpt>
      <trkpt lat="42.979085" lon="-1.373307">
        <ele>871.1</ele>
        <time>2018-08-21T09:05:20Z</time>
      </trkpt>
      <trkpt lat="42.979033" lon="-1.373345">
        <ele>871.1</ele>
        <time>2018-08-21T09:05:25Z</time>
      </trkpt>
      <trkpt lat="42.979024" lon="-1.373354">
        <ele>871.1</ele>
        <time>2018-08-21T09:05:26Z</time>
      </trkpt>
      <trkpt lat="42.979013" lon="-1.373364">
        <ele>871.1</ele>
        <time>2018-08-21T09:05:27Z</time>
      </trkpt>
      <trkpt lat="42.979000" lon="-1.373375">
        <ele>871.6</ele>
        <time>2018-08-21T09:05:28Z</time>
      </trkpt>
      <trkpt lat="42.978984" lon="-1.373385">
        <ele>871.1</ele>
        <time>2018-08-21T09:05:29Z</time>
      </trkpt>
      <trkpt lat="42.978970" lon="-1.373399">
        <ele>871.1</ele>
        <time>2018-08-21T09:05:30Z</time>
      </trkpt>
      <trkpt lat="42.978949" lon="-1.373417">
        <ele>871.1</ele>
        <time>2018-08-21T09:05:32Z</time>
      </trkpt>
      <trkpt lat="42.978931" lon="-1.373425">
        <ele>871.1</ele>
        <time>2018-08-21T09:05:34Z</time>
      </trkpt>
      <trkpt lat="42.978921" lon="-1.373436">
        <ele>871.1</ele>
        <time>2018-08-21T09:05:35Z</time>
      </trkpt>
      <trkpt lat="42.978864" lon="-1.373501">
        <ele>871.1</ele>
        <time>2018-08-21T09:05:40Z</time>
      </trkpt>
      <trkpt lat="42.978851" lon="-1.373508">
        <ele>871.1</ele>
        <time>2018-08-21T09:05:41Z</time>
      </trkpt>
      <trkpt lat="42.978826" lon="-1.373535">
        <ele>871.1</ele>
        <time>2018-08-21T09:05:44Z</time>
      </trkpt>
      <trkpt lat="42.978804" lon="-1.373568">
        <ele>871.1</ele>
        <time>2018-08-21T09:05:47Z</time>
      </trkpt>
      <trkpt lat="42.978792" lon="-1.373580">
        <ele>871.1</ele>
        <time>2018-08-21T09:05:48Z</time>
      </trkpt>
      <trkpt lat="42.978778" lon="-1.373592">
        <ele>871.6</ele>
        <time>2018-08-21T09:05:49Z</time>
      </trkpt>
      <trkpt lat="42.978763" lon="-1.373603">
        <ele>871.6</ele>
        <time>2018-08-21T09:05:50Z</time>
      </trkpt>
      <trkpt lat="42.978663" lon="-1.373694">
        <ele>872.0</ele>
        <time>2018-08-21T09:05:59Z</time>
      </trkpt>
      <trkpt lat="42.978650" lon="-1.373701">
        <ele>871.6</ele>
        <time>2018-08-21T09:06:00Z</time>
      </trkpt>
      <trkpt lat="42.978640" lon="-1.373713">
        <ele>872.0</ele>
        <time>2018-08-21T09:06:01Z</time>
      </trkpt>
      <trkpt lat="42.978513" lon="-1.373847">
        <ele>873.0</ele>
        <time>2018-08-21T09:06:14Z</time>
      </trkpt>
      <trkpt lat="42.978501" lon="-1.373854">
        <ele>873.5</ele>
        <time>2018-08-21T09:06:15Z</time>
      </trkpt>
      <trkpt lat="42.978493" lon="-1.373864">
        <ele>873.5</ele>
        <time>2018-08-21T09:06:16Z</time>
      </trkpt>
      <trkpt lat="42.978408" lon="-1.373971">
        <ele>874.0</ele>
        <time>2018-08-21T09:06:25Z</time>
      </trkpt>
      <trkpt lat="42.978397" lon="-1.373980">
        <ele>874.5</ele>
        <time>2018-08-21T09:06:26Z</time>
      </trkpt>
      <trkpt lat="42.978389" lon="-1.373990">
        <ele>874.9</ele>
        <time>2018-08-21T09:06:27Z</time>
      </trkpt>
      <trkpt lat="42.978381" lon="-1.374004">
        <ele>874.5</ele>
        <time>2018-08-21T09:06:28Z</time>
      </trkpt>
      <trkpt lat="42.978371" lon="-1.374016">
        <ele>875.4</ele>
        <time>2018-08-21T09:06:29Z</time>
      </trkpt>
      <trkpt lat="42.978363" lon="-1.374025">
        <ele>875.4</ele>
        <time>2018-08-21T09:06:30Z</time>
      </trkpt>
      <trkpt lat="42.978352" lon="-1.374032">
        <ele>874.9</ele>
        <time>2018-08-21T09:06:31Z</time>
      </trkpt>
      <trkpt lat="42.978341" lon="-1.374041">
        <ele>874.9</ele>
        <time>2018-08-21T09:06:32Z</time>
      </trkpt>
      <trkpt lat="42.978332" lon="-1.374054">
        <ele>874.9</ele>
        <time>2018-08-21T09:06:33Z</time>
      </trkpt>
      <trkpt lat="42.978322" lon="-1.374068">
        <ele>875.4</ele>
        <time>2018-08-21T09:06:34Z</time>
      </trkpt>
      <trkpt lat="42.978315" lon="-1.374082">
        <ele>875.4</ele>
        <time>2018-08-21T09:06:35Z</time>
      </trkpt>
      <trkpt lat="42.978277" lon="-1.374124">
        <ele>876.4</ele>
        <time>2018-08-21T09:06:39Z</time>
      </trkpt>
      <trkpt lat="42.978269" lon="-1.374138">
        <ele>876.4</ele>
        <time>2018-08-21T09:06:40Z</time>
      </trkpt>
      <trkpt lat="42.978209" lon="-1.374234">
        <ele>876.9</ele>
        <time>2018-08-21T09:06:52Z</time>
      </trkpt>
      <trkpt lat="42.978199" lon="-1.374260">
        <ele>876.9</ele>
        <time>2018-08-21T09:06:54Z</time>
      </trkpt>
      <trkpt lat="42.978182" lon="-1.374288">
        <ele>877.3</ele>
        <time>2018-08-21T09:06:57Z</time>
      </trkpt>
      <trkpt lat="42.978169" lon="-1.374312">
        <ele>877.3</ele>
        <time>2018-08-21T09:06:59Z</time>
      </trkpt>
      <trkpt lat="42.978158" lon="-1.374341">
        <ele>877.3</ele>
        <time>2018-08-21T09:07:01Z</time>
      </trkpt>
      <trkpt lat="42.978149" lon="-1.374353">
        <ele>877.3</ele>
        <time>2018-08-21T09:07:02Z</time>
      </trkpt>
      <trkpt lat="42.978141" lon="-1.374366">
        <ele>877.3</ele>
        <time>2018-08-21T09:07:03Z</time>
      </trkpt>
      <trkpt lat="42.978103" lon="-1.374430">
        <ele>878.3</ele>
        <time>2018-08-21T09:07:08Z</time>
      </trkpt>
      <trkpt lat="42.978039" lon="-1.374544">
        <ele>879.7</ele>
        <time>2018-08-21T09:07:22Z</time>
      </trkpt>
      <trkpt lat="42.978017" lon="-1.374598">
        <ele>880.2</ele>
        <time>2018-08-21T09:07:33Z</time>
      </trkpt>
      <trkpt lat="42.977996" lon="-1.374652">
        <ele>880.7</ele>
        <time>2018-08-21T09:07:39Z</time>
      </trkpt>
      <trkpt lat="42.977994" lon="-1.374683">
        <ele>880.7</ele>
        <time>2018-08-21T09:07:41Z</time>
      </trkpt>
      <trkpt lat="42.977992" lon="-1.374697">
        <ele>881.2</ele>
        <time>2018-08-21T09:07:42Z</time>
      </trkpt>
      <trkpt lat="42.977986" lon="-1.374710">
        <ele>880.7</ele>
        <time>2018-08-21T09:07:43Z</time>
      </trkpt>
      <trkpt lat="42.977982" lon="-1.374723">
        <ele>881.2</ele>
        <time>2018-08-21T09:07:44Z</time>
      </trkpt>
      <trkpt lat="42.977978" lon="-1.374738">
        <ele>881.2</ele>
        <time>2018-08-21T09:07:45Z</time>
      </trkpt>
      <trkpt lat="42.977953" lon="-1.374789">
        <ele>881.7</ele>
        <time>2018-08-21T09:07:50Z</time>
      </trkpt>
      <trkpt lat="42.977946" lon="-1.374816">
        <ele>882.2</ele>
        <time>2018-08-21T09:07:52Z</time>
      </trkpt>
      <trkpt lat="42.977945" lon="-1.374833">
        <ele>882.2</ele>
        <time>2018-08-21T09:07:53Z</time>
      </trkpt>
      <trkpt lat="42.977942" lon="-1.374848">
        <ele>882.2</ele>
        <time>2018-08-21T09:07:54Z</time>
      </trkpt>
      <trkpt lat="42.977879" lon="-1.375025">
        <ele>883.6</ele>
        <time>2018-08-21T09:08:08Z</time>
      </trkpt>
      <trkpt lat="42.977848" lon="-1.375170">
        <ele>884.5</ele>
        <time>2018-08-21T09:08:19Z</time>
      </trkpt>
      <trkpt lat="42.977804" lon="-1.375266">
        <ele>886.5</ele>
        <time>2018-08-21T09:08:27Z</time>
      </trkpt>
      <trkpt lat="42.977799" lon="-1.375284">
        <ele>886.0</ele>
        <time>2018-08-21T09:08:28Z</time>
      </trkpt>
      <trkpt lat="42.977774" lon="-1.375348">
        <ele>886.5</ele>
        <time>2018-08-21T09:08:32Z</time>
      </trkpt>
      <trkpt lat="42.977768" lon="-1.375363">
        <ele>886.5</ele>
        <time>2018-08-21T09:08:33Z</time>
      </trkpt>
      <trkpt lat="42.977764" lon="-1.375378">
        <ele>887.0</ele>
        <time>2018-08-21T09:08:34Z</time>
      </trkpt>
      <trkpt lat="42.977758" lon="-1.375391">
        <ele>887.0</ele>
        <time>2018-08-21T09:08:35Z</time>
      </trkpt>
      <trkpt lat="42.977753" lon="-1.375403">
        <ele>887.0</ele>
        <time>2018-08-21T09:08:36Z</time>
      </trkpt>
      <trkpt lat="42.977744" lon="-1.375432">
        <ele>887.4</ele>
        <time>2018-08-21T09:08:38Z</time>
      </trkpt>
      <trkpt lat="42.977727" lon="-1.375475">
        <ele>887.4</ele>
        <time>2018-08-21T09:08:41Z</time>
      </trkpt>
      <trkpt lat="42.977707" lon="-1.375522">
        <ele>887.9</ele>
        <time>2018-08-21T09:08:44Z</time>
      </trkpt>
      <trkpt lat="42.977693" lon="-1.375564">
        <ele>887.9</ele>
        <time>2018-08-21T09:08:47Z</time>
      </trkpt>
      <trkpt lat="42.977606" lon="-1.375777">
        <ele>889.4</ele>
        <time>2018-08-21T09:09:01Z</time>
      </trkpt>
      <trkpt lat="42.977601" lon="-1.375792">
        <ele>889.8</ele>
        <time>2018-08-21T09:09:02Z</time>
      </trkpt>
      <trkpt lat="42.977550" lon="-1.375896">
        <ele>890.3</ele>
        <time>2018-08-21T09:09:11Z</time>
      </trkpt>
      <trkpt lat="42.977545" lon="-1.375911">
        <ele>890.3</ele>
        <time>2018-08-21T09:09:12Z</time>
      </trkpt>
      <trkpt lat="42.977540" lon="-1.375927">
        <ele>890.3</ele>
        <time>2018-08-21T09:09:13Z</time>
      </trkpt>
      <trkpt lat="42.977460" lon="-1.376104">
        <ele>890.8</ele>
        <time>2018-08-21T09:09:27Z</time>
      </trkpt>
      <trkpt lat="42.977458" lon="-1.376135">
        <ele>891.8</ele>
        <time>2018-08-21T09:09:29Z</time>
      </trkpt>
      <trkpt lat="42.977455" lon="-1.376153">
        <ele>891.8</ele>
        <time>2018-08-21T09:09:30Z</time>
      </trkpt>
      <trkpt lat="42.977410" lon="-1.376247">
        <ele>892.2</ele>
        <time>2018-08-21T09:09:36Z</time>
      </trkpt>
      <trkpt lat="42.977387" lon="-1.376286">
        <ele>892.7</ele>
        <time>2018-08-21T09:09:39Z</time>
      </trkpt>
      <trkpt lat="42.977377" lon="-1.376311">
        <ele>892.7</ele>
        <time>2018-08-21T09:09:41Z</time>
      </trkpt>
      <trkpt lat="42.977374" lon="-1.376328">
        <ele>892.7</ele>
        <time>2018-08-21T09:09:42Z</time>
      </trkpt>
      <trkpt lat="42.977292" lon="-1.376530">
        <ele>894.2</ele>
        <time>2018-08-21T09:09:56Z</time>
      </trkpt>
      <trkpt lat="42.977237" lon="-1.376636">
        <ele>894.6</ele>
        <time>2018-08-21T09:10:04Z</time>
      </trkpt>
      <trkpt lat="42.977224" lon="-1.376700">
        <ele>895.1</ele>
        <time>2018-08-21T09:10:08Z</time>
      </trkpt>
      <trkpt lat="42.977216" lon="-1.376713">
        <ele>894.6</ele>
        <time>2018-08-21T09:10:09Z</time>
      </trkpt>
      <trkpt lat="42.977182" lon="-1.376754">
        <ele>895.1</ele>
        <time>2018-08-21T09:10:12Z</time>
      </trkpt>
      <trkpt lat="42.977124" lon="-1.376873">
        <ele>896.1</ele>
        <time>2018-08-21T09:10:22Z</time>
      </trkpt>
      <trkpt lat="42.977090" lon="-1.376940">
        <ele>896.1</ele>
        <time>2018-08-21T09:10:27Z</time>
      </trkpt>
      <trkpt lat="42.977086" lon="-1.376953">
        <ele>896.1</ele>
        <time>2018-08-21T09:10:28Z</time>
      </trkpt>
      <trkpt lat="42.977082" lon="-1.376967">
        <ele>896.6</ele>
        <time>2018-08-21T09:10:29Z</time>
      </trkpt>
      <trkpt lat="42.977075" lon="-1.376982">
        <ele>896.6</ele>
        <time>2018-08-21T09:10:30Z</time>
      </trkpt>
      <trkpt lat="42.977069" lon="-1.376999">
        <ele>896.6</ele>
        <time>2018-08-21T09:10:31Z</time>
      </trkpt>
      <trkpt lat="42.977066" lon="-1.377016">
        <ele>897.0</ele>
        <time>2018-08-21T09:10:32Z</time>
      </trkpt>
      <trkpt lat="42.977064" lon="-1.377031">
        <ele>896.6</ele>
        <time>2018-08-21T09:10:33Z</time>
      </trkpt>
      <trkpt lat="42.977046" lon="-1.377063">
        <ele>897.0</ele>
        <time>2018-08-21T09:10:36Z</time>
      </trkpt>
      <trkpt lat="42.977016" lon="-1.377129">
        <ele>897.5</ele>
        <time>2018-08-21T09:10:44Z</time>
      </trkpt>
      <trkpt lat="42.977005" lon="-1.377157">
        <ele>897.5</ele>
        <time>2018-08-21T09:10:46Z</time>
      </trkpt>
      <trkpt lat="42.976991" lon="-1.377183">
        <ele>898.5</ele>
        <time>2018-08-21T09:10:48Z</time>
      </trkpt>
      <trkpt lat="42.976954" lon="-1.377246">
        <ele>898.5</ele>
        <time>2018-08-21T09:10:53Z</time>
      </trkpt>
      <trkpt lat="42.976932" lon="-1.377338">
        <ele>898.0</ele>
        <time>2018-08-21T09:10:59Z</time>
      </trkpt>
      <trkpt lat="42.976912" lon="-1.377374">
        <ele>899.9</ele>
        <time>2018-08-21T09:11:02Z</time>
      </trkpt>
      <trkpt lat="42.976819" lon="-1.377554">
        <ele>900.4</ele>
        <time>2018-08-21T09:11:16Z</time>
      </trkpt>
      <trkpt lat="42.976754" lon="-1.377687">
        <ele>901.8</ele>
        <time>2018-08-21T09:11:27Z</time>
      </trkpt>
      <trkpt lat="42.976752" lon="-1.377702">
        <ele>901.8</ele>
        <time>2018-08-21T09:11:28Z</time>
      </trkpt>
      <trkpt lat="42.976747" lon="-1.377716">
        <ele>902.3</ele>
        <time>2018-08-21T09:11:29Z</time>
      </trkpt>
      <trkpt lat="42.976740" lon="-1.377728">
        <ele>902.3</ele>
        <time>2018-08-21T09:11:30Z</time>
      </trkpt>
      <trkpt lat="42.976733" lon="-1.377741">
        <ele>902.3</ele>
        <time>2018-08-21T09:11:31Z</time>
      </trkpt>
      <trkpt lat="42.976650" lon="-1.377922">
        <ele>904.3</ele>
        <time>2018-08-21T09:11:46Z</time>
      </trkpt>
      <trkpt lat="42.976605" lon="-1.377987">
        <ele>905.2</ele>
        <time>2018-08-21T09:11:59Z</time>
      </trkpt>
      <trkpt lat="42.976581" lon="-1.378062">
        <ele>905.2</ele>
        <time>2018-08-21T09:12:17Z</time>
      </trkpt>
      <trkpt lat="42.976496" lon="-1.378281">
        <ele>907.1</ele>
        <time>2018-08-21T09:12:30Z</time>
      </trkpt>
      <trkpt lat="42.976432" lon="-1.378473">
        <ele>908.1</ele>
        <time>2018-08-21T09:12:44Z</time>
      </trkpt>
      <trkpt lat="42.976342" lon="-1.378672">
        <ele>909.1</ele>
        <time>2018-08-21T09:12:58Z</time>
      </trkpt>
      <trkpt lat="42.976246" lon="-1.378854">
        <ele>910.5</ele>
        <time>2018-08-21T09:13:13Z</time>
      </trkpt>
      <trkpt lat="42.976237" lon="-1.378866">
        <ele>911.0</ele>
        <time>2018-08-21T09:13:14Z</time>
      </trkpt>
      <trkpt lat="42.976217" lon="-1.378886">
        <ele>911.0</ele>
        <time>2018-08-21T09:13:16Z</time>
      </trkpt>
      <trkpt lat="42.976204" lon="-1.378895">
        <ele>911.0</ele>
        <time>2018-08-21T09:13:17Z</time>
      </trkpt>
      <trkpt lat="42.976120" lon="-1.378956">
        <ele>911.5</ele>
        <time>2018-08-21T09:13:24Z</time>
      </trkpt>
      <trkpt lat="42.976050" lon="-1.379051">
        <ele>912.4</ele>
        <time>2018-08-21T09:13:38Z</time>
      </trkpt>
      <trkpt lat="42.976044" lon="-1.379077">
        <ele>912.0</ele>
        <time>2018-08-21T09:13:40Z</time>
      </trkpt>
      <trkpt lat="42.976014" lon="-1.379224">
        <ele>912.9</ele>
        <time>2018-08-21T09:13:50Z</time>
      </trkpt>
      <trkpt lat="42.976005" lon="-1.379295">
        <ele>913.4</ele>
        <time>2018-08-21T09:13:54Z</time>
      </trkpt>
      <trkpt lat="42.975989" lon="-1.379341">
        <ele>913.4</ele>
        <time>2018-08-21T09:13:57Z</time>
      </trkpt>
      <trkpt lat="42.975959" lon="-1.379531">
        <ele>914.8</ele>
        <time>2018-08-21T09:14:10Z</time>
      </trkpt>
      <trkpt lat="42.975939" lon="-1.379675">
        <ele>916.8</ele>
        <time>2018-08-21T09:14:22Z</time>
      </trkpt>
      <trkpt lat="42.975863" lon="-1.379885">
        <ele>919.2</ele>
        <time>2018-08-21T09:14:39Z</time>
      </trkpt>
      <trkpt lat="42.975816" lon="-1.380059">
        <ele>921.6</ele>
        <time>2018-08-21T09:14:52Z</time>
      </trkpt>
      <trkpt lat="42.975816" lon="-1.380107">
        <ele>922.0</ele>
        <time>2018-08-21T09:14:55Z</time>
      </trkpt>
      <trkpt lat="42.975763" lon="-1.380256">
        <ele>923.5</ele>
        <time>2018-08-21T09:15:07Z</time>
      </trkpt>
      <trkpt lat="42.975711" lon="-1.380416">
        <ele>924.9</ele>
        <time>2018-08-21T09:15:20Z</time>
      </trkpt>
      <trkpt lat="42.975725" lon="-1.380436">
        <ele>925.4</ele>
        <time>2018-08-21T09:15:25Z</time>
      </trkpt>
      <trkpt lat="42.975703" lon="-1.380592">
        <ele>927.3</ele>
        <time>2018-08-21T09:15:38Z</time>
      </trkpt>
      <trkpt lat="42.975655" lon="-1.380772">
        <ele>930.2</ele>
        <time>2018-08-21T09:15:53Z</time>
      </trkpt>
      <trkpt lat="42.975636" lon="-1.380983">
        <ele>932.6</ele>
        <time>2018-08-21T09:16:10Z</time>
      </trkpt>
      <trkpt lat="42.975606" lon="-1.381114">
        <ele>935.0</ele>
        <time>2018-08-21T09:16:22Z</time>
      </trkpt>
      <trkpt lat="42.975615" lon="-1.381278">
        <ele>937.4</ele>
        <time>2018-08-21T09:16:37Z</time>
      </trkpt>
      <trkpt lat="42.975561" lon="-1.381507">
        <ele>940.8</ele>
        <time>2018-08-21T09:16:53Z</time>
      </trkpt>
      <trkpt lat="42.975586" lon="-1.381613">
        <ele>941.3</ele>
        <time>2018-08-21T09:17:07Z</time>
      </trkpt>
      <trkpt lat="42.975581" lon="-1.381659">
        <ele>941.3</ele>
        <time>2018-08-21T09:17:27Z</time>
      </trkpt>
      <trkpt lat="42.975578" lon="-1.381732">
        <ele>941.8</ele>
        <time>2018-08-21T09:17:42Z</time>
      </trkpt>
      <trkpt lat="42.975611" lon="-1.381732">
        <ele>942.2</ele>
        <time>2018-08-21T09:17:54Z</time>
      </trkpt>
      <trkpt lat="42.975783" lon="-1.381746">
        <ele>942.2</ele>
        <time>2018-08-21T09:18:10Z</time>
      </trkpt>
      <trkpt lat="42.975907" lon="-1.381806">
        <ele>942.2</ele>
        <time>2018-08-21T09:18:24Z</time>
      </trkpt>
      <trkpt lat="42.976013" lon="-1.381873">
        <ele>942.2</ele>
        <time>2018-08-21T09:18:40Z</time>
      </trkpt>
      <trkpt lat="42.976100" lon="-1.381890">
        <ele>942.2</ele>
        <time>2018-08-21T09:18:55Z</time>
      </trkpt>
      <trkpt lat="42.976194" lon="-1.381907">
        <ele>942.2</ele>
        <time>2018-08-21T09:19:10Z</time>
      </trkpt>
      <trkpt lat="42.976324" lon="-1.381950">
        <ele>941.8</ele>
        <time>2018-08-21T09:19:23Z</time>
      </trkpt>
      <trkpt lat="42.976374" lon="-1.382036">
        <ele>941.8</ele>
        <time>2018-08-21T09:19:35Z</time>
      </trkpt>
      <trkpt lat="42.976387" lon="-1.382057">
        <ele>941.3</ele>
        <time>2018-08-21T09:19:37Z</time>
      </trkpt>
      <trkpt lat="42.976505" lon="-1.382079">
        <ele>942.7</ele>
        <time>2018-08-21T09:19:50Z</time>
      </trkpt>
      <trkpt lat="42.976553" lon="-1.382127">
        <ele>944.2</ele>
        <time>2018-08-21T09:19:59Z</time>
      </trkpt>
      <trkpt lat="42.976682" lon="-1.382229">
        <ele>946.1</ele>
        <time>2018-08-21T09:20:14Z</time>
      </trkpt>
      <trkpt lat="42.976812" lon="-1.382292">
        <ele>948.5</ele>
        <time>2018-08-21T09:20:28Z</time>
      </trkpt>
      <trkpt lat="42.976882" lon="-1.382334">
        <ele>948.5</ele>
        <time>2018-08-21T09:20:44Z</time>
      </trkpt>
      <trkpt lat="42.976905" lon="-1.382326">
        <ele>948.0</ele>
        <time>2018-08-21T09:21:21Z</time>
      </trkpt>
      <trkpt lat="42.976987" lon="-1.382364">
        <ele>948.5</ele>
        <time>2018-08-21T09:21:37Z</time>
      </trkpt>
      <trkpt lat="42.977078" lon="-1.382465">
        <ele>949.0</ele>
        <time>2018-08-21T09:21:52Z</time>
      </trkpt>
      <trkpt lat="42.977086" lon="-1.382521">
        <ele>949.0</ele>
        <time>2018-08-21T09:22:08Z</time>
      </trkpt>
      <trkpt lat="42.977100" lon="-1.382564">
        <ele>949.0</ele>
        <time>2018-08-21T09:22:20Z</time>
      </trkpt>
      <trkpt lat="42.977234" lon="-1.382727">
        <ele>949.0</ele>
        <time>2018-08-21T09:22:37Z</time>
      </trkpt>
      <trkpt lat="42.977361" lon="-1.382894">
        <ele>948.5</ele>
        <time>2018-08-21T09:22:52Z</time>
      </trkpt>
      <trkpt lat="42.977486" lon="-1.383007">
        <ele>949.0</ele>
        <time>2018-08-21T09:23:06Z</time>
      </trkpt>
      <trkpt lat="42.977551" lon="-1.383109">
        <ele>949.0</ele>
        <time>2018-08-21T09:23:14Z</time>
      </trkpt>
      <trkpt lat="42.977681" lon="-1.383246">
        <ele>948.5</ele>
        <time>2018-08-21T09:23:29Z</time>
      </trkpt>
      <trkpt lat="42.977825" lon="-1.383376">
        <ele>947.5</ele>
        <time>2018-08-21T09:23:45Z</time>
      </trkpt>
      <trkpt lat="42.977963" lon="-1.383477">
        <ele>947.0</ele>
        <time>2018-08-21T09:23:59Z</time>
      </trkpt>
      <trkpt lat="42.978104" lon="-1.383566">
        <ele>947.0</ele>
        <time>2018-08-21T09:24:13Z</time>
      </trkpt>
      <trkpt lat="42.978218" lon="-1.383643">
        <ele>946.1</ele>
        <time>2018-08-21T09:24:27Z</time>
      </trkpt>
      <trkpt lat="42.978254" lon="-1.383694">
        <ele>946.1</ele>
        <time>2018-08-21T09:24:39Z</time>
      </trkpt>
      <trkpt lat="42.978336" lon="-1.383789">
        <ele>945.6</ele>
        <time>2018-08-21T09:24:53Z</time>
      </trkpt>
      <trkpt lat="42.978442" lon="-1.383890">
        <ele>944.6</ele>
        <time>2018-08-21T09:25:07Z</time>
      </trkpt>
      <trkpt lat="42.978467" lon="-1.383938">
        <ele>944.6</ele>
        <time>2018-08-21T09:25:21Z</time>
      </trkpt>
      <trkpt lat="42.978559" lon="-1.384064">
        <ele>943.7</ele>
        <time>2018-08-21T09:25:58Z</time>
      </trkpt>
      <trkpt lat="42.978562" lon="-1.384090">
        <ele>943.7</ele>
        <time>2018-08-21T09:26:27Z</time>
      </trkpt>
      <trkpt lat="42.978688" lon="-1.384234">
        <ele>942.7</ele>
        <time>2018-08-21T09:26:42Z</time>
      </trkpt>
      <trkpt lat="42.978706" lon="-1.384266">
        <ele>941.8</ele>
        <time>2018-08-21T09:26:45Z</time>
      </trkpt>
      <trkpt lat="42.978839" lon="-1.384441">
        <ele>940.3</ele>
        <time>2018-08-21T09:27:01Z</time>
      </trkpt>
      <trkpt lat="42.978886" lon="-1.384504">
        <ele>939.8</ele>
        <time>2018-08-21T09:27:11Z</time>
      </trkpt>
      <trkpt lat="42.978929" lon="-1.384582">
        <ele>938.9</ele>
        <time>2018-08-21T09:27:17Z</time>
      </trkpt>
      <trkpt lat="42.978982" lon="-1.384670">
        <ele>938.4</ele>
        <time>2018-08-21T09:27:24Z</time>
      </trkpt>
      <trkpt lat="42.979131" lon="-1.384924">
        <ele>936.0</ele>
        <time>2018-08-21T09:27:44Z</time>
      </trkpt>
      <trkpt lat="42.979206" lon="-1.385043">
        <ele>934.1</ele>
        <time>2018-08-21T09:27:54Z</time>
      </trkpt>
      <trkpt lat="42.979229" lon="-1.385106">
        <ele>933.6</ele>
        <time>2018-08-21T09:27:59Z</time>
      </trkpt>
      <trkpt lat="42.979321" lon="-1.385303">
        <ele>931.2</ele>
        <time>2018-08-21T09:28:14Z</time>
      </trkpt>
      <trkpt lat="42.979450" lon="-1.385493">
        <ele>929.2</ele>
        <time>2018-08-21T09:28:30Z</time>
      </trkpt>
      <trkpt lat="42.979548" lon="-1.385636">
        <ele>927.3</ele>
        <time>2018-08-21T09:28:42Z</time>
      </trkpt>
      <trkpt lat="42.979631" lon="-1.385701">
        <ele>926.4</ele>
        <time>2018-08-21T09:28:56Z</time>
      </trkpt>
      <trkpt lat="42.979667" lon="-1.385727">
        <ele>925.9</ele>
        <time>2018-08-21T09:29:05Z</time>
      </trkpt>
      <trkpt lat="42.979763" lon="-1.385959">
        <ele>925.4</ele>
        <time>2018-08-21T09:29:20Z</time>
      </trkpt>
      <trkpt lat="42.979777" lon="-1.386161">
        <ele>924.5</ele>
        <time>2018-08-21T09:29:34Z</time>
      </trkpt>
      <trkpt lat="42.979806" lon="-1.386379">
        <ele>924.9</ele>
        <time>2018-08-21T09:29:48Z</time>
      </trkpt>
      <trkpt lat="42.979810" lon="-1.386412">
        <ele>924.9</ele>
        <time>2018-08-21T09:29:50Z</time>
      </trkpt>
      <trkpt lat="42.979885" lon="-1.386504">
        <ele>924.0</ele>
        <time>2018-08-21T09:29:58Z</time>
      </trkpt>
      <trkpt lat="42.979906" lon="-1.386741">
        <ele>923.0</ele>
        <time>2018-08-21T09:30:11Z</time>
      </trkpt>
      <trkpt lat="42.979887" lon="-1.386862">
        <ele>923.5</ele>
        <time>2018-08-21T09:30:21Z</time>
      </trkpt>
      <trkpt lat="42.979931" lon="-1.387066">
        <ele>922.0</ele>
        <time>2018-08-21T09:30:37Z</time>
      </trkpt>
      <trkpt lat="42.979959" lon="-1.387112">
        <ele>922.5</ele>
        <time>2018-08-21T09:30:44Z</time>
      </trkpt>
      <trkpt lat="42.979971" lon="-1.387137">
        <ele>922.5</ele>
        <time>2018-08-21T09:30:46Z</time>
      </trkpt>
      <trkpt lat="42.980062" lon="-1.387259">
        <ele>921.6</ele>
        <time>2018-08-21T09:31:00Z</time>
      </trkpt>
      <trkpt lat="42.980140" lon="-1.387347">
        <ele>921.1</ele>
        <time>2018-08-21T09:31:12Z</time>
      </trkpt>
      <trkpt lat="42.980212" lon="-1.387487">
        <ele>920.1</ele>
        <time>2018-08-21T09:31:28Z</time>
      </trkpt>
      <trkpt lat="42.980218" lon="-1.387512">
        <ele>919.6</ele>
        <time>2018-08-21T09:31:30Z</time>
      </trkpt>
      <trkpt lat="42.980225" lon="-1.387713">
        <ele>917.7</ele>
        <time>2018-08-21T09:31:45Z</time>
      </trkpt>
      <trkpt lat="42.980205" lon="-1.387845">
        <ele>916.3</ele>
        <time>2018-08-21T09:31:58Z</time>
      </trkpt>
      <trkpt lat="42.980162" lon="-1.387884">
        <ele>914.8</ele>
        <time>2018-08-21T09:32:11Z</time>
      </trkpt>
      <trkpt lat="42.980149" lon="-1.387937">
        <ele>913.4</ele>
        <time>2018-08-21T09:32:17Z</time>
      </trkpt>
      <trkpt lat="42.980054" lon="-1.388088">
        <ele>911.0</ele>
        <time>2018-08-21T09:32:33Z</time>
      </trkpt>
      <trkpt lat="42.979998" lon="-1.388095">
        <ele>911.0</ele>
        <time>2018-08-21T09:32:50Z</time>
      </trkpt>
      <trkpt lat="42.979854" lon="-1.388371">
        <ele>910.0</ele>
        <time>2018-08-21T09:36:21Z</time>
      </trkpt>
      <trkpt lat="42.979735" lon="-1.388526">
        <ele>907.1</ele>
        <time>2018-08-21T09:36:39Z</time>
      </trkpt>
      <trkpt lat="42.979690" lon="-1.388651">
        <ele>906.2</ele>
        <time>2018-08-21T09:36:55Z</time>
      </trkpt>
      <trkpt lat="42.979594" lon="-1.388839">
        <ele>903.3</ele>
        <time>2018-08-21T09:38:07Z</time>
      </trkpt>
      <trkpt lat="42.979528" lon="-1.388898">
        <ele>902.3</ele>
        <time>2018-08-21T09:38:23Z</time>
      </trkpt>
      <trkpt lat="42.979405" lon="-1.389020">
        <ele>901.4</ele>
        <time>2018-08-21T09:38:36Z</time>
      </trkpt>
      <trkpt lat="42.979375" lon="-1.389160">
        <ele>899.9</ele>
        <time>2018-08-21T09:38:54Z</time>
      </trkpt>
      <trkpt lat="42.979367" lon="-1.389282">
        <ele>898.5</ele>
        <time>2018-08-21T09:39:14Z</time>
      </trkpt>
      <trkpt lat="42.979364" lon="-1.389397">
        <ele>897.5</ele>
        <time>2018-08-21T09:39:31Z</time>
      </trkpt>
      <trkpt lat="42.979337" lon="-1.389507">
        <ele>896.1</ele>
        <time>2018-08-21T09:39:43Z</time>
      </trkpt>
      <trkpt lat="42.979283" lon="-1.389705">
        <ele>895.1</ele>
        <time>2018-08-21T09:40:00Z</time>
      </trkpt>
      <trkpt lat="42.979213" lon="-1.389763">
        <ele>893.2</ele>
        <time>2018-08-21T09:40:17Z</time>
      </trkpt>
      <trkpt lat="42.979162" lon="-1.389820">
        <ele>892.2</ele>
        <time>2018-08-21T09:40:31Z</time>
      </trkpt>
      <trkpt lat="42.979105" lon="-1.389998">
        <ele>889.8</ele>
        <time>2018-08-21T09:40:48Z</time>
      </trkpt>
      <trkpt lat="42.979052" lon="-1.390163">
        <ele>888.4</ele>
        <time>2018-08-21T09:41:02Z</time>
      </trkpt>
      <trkpt lat="42.978973" lon="-1.390251">
        <ele>887.0</ele>
        <time>2018-08-21T09:41:16Z</time>
      </trkpt>
      <trkpt lat="42.978902" lon="-1.390381">
        <ele>885.5</ele>
        <time>2018-08-21T09:41:29Z</time>
      </trkpt>
      <trkpt lat="42.978880" lon="-1.390513">
        <ele>881.7</ele>
        <time>2018-08-21T09:41:42Z</time>
      </trkpt>
      <trkpt lat="42.978881" lon="-1.390521">
        <ele>886.0</ele>
        <time>2018-08-21T09:41:44Z</time>
      </trkpt>
      <trkpt lat="42.978886" lon="-1.390524">
        <ele>886.0</ele>
        <time>2018-08-21T09:41:45Z</time>
      </trkpt>
      <trkpt lat="42.978895" lon="-1.390601">
        <ele>884.1</ele>
        <time>2018-08-21T09:42:09Z</time>
      </trkpt>
      <trkpt lat="42.978900" lon="-1.390615">
        <ele>880.7</ele>
        <time>2018-08-21T09:42:13Z</time>
      </trkpt>
      <trkpt lat="42.978899" lon="-1.390617">
        <ele>884.1</ele>
        <time>2018-08-21T09:42:14Z</time>
      </trkpt>
      <trkpt lat="42.978900" lon="-1.390627">
        <ele>887.0</ele>
        <time>2018-08-21T09:42:16Z</time>
      </trkpt>
      <trkpt lat="42.978902" lon="-1.390630">
        <ele>885.5</ele>
        <time>2018-08-21T09:42:17Z</time>
      </trkpt>
      <trkpt lat="42.978901" lon="-1.390636">
        <ele>884.1</ele>
        <time>2018-08-21T09:42:19Z</time>
      </trkpt>
      <trkpt lat="42.978805" lon="-1.390734">
        <ele>882.6</ele>
        <time>2018-08-21T09:42:35Z</time>
      </trkpt>
      <trkpt lat="42.978798" lon="-1.390817">
        <ele>881.7</ele>
        <time>2018-08-21T09:43:19Z</time>
      </trkpt>
      <trkpt lat="42.978733" lon="-1.390884">
        <ele>880.7</ele>
        <time>2018-08-21T09:43:35Z</time>
      </trkpt>
      <trkpt lat="42.978710" lon="-1.391011">
        <ele>879.7</ele>
        <time>2018-08-21T09:43:58Z</time>
      </trkpt>
      <trkpt lat="42.978651" lon="-1.391206">
        <ele>878.8</ele>
        <time>2018-08-21T09:44:15Z</time>
      </trkpt>
      <trkpt lat="42.978630" lon="-1.391401">
        <ele>878.8</ele>
        <time>2018-08-21T09:44:30Z</time>
      </trkpt>
      <trkpt lat="42.978568" lon="-1.391573">
        <ele>878.3</ele>
        <time>2018-08-21T09:44:44Z</time>
      </trkpt>
      <trkpt lat="42.978523" lon="-1.391678">
        <ele>877.3</ele>
        <time>2018-08-21T09:45:00Z</time>
      </trkpt>
      <trkpt lat="42.978473" lon="-1.391806">
        <ele>877.3</ele>
        <time>2018-08-21T09:45:13Z</time>
      </trkpt>
      <trkpt lat="42.978410" lon="-1.391976">
        <ele>875.9</ele>
        <time>2018-08-21T09:45:27Z</time>
      </trkpt>
      <trkpt lat="42.978325" lon="-1.392114">
        <ele>875.4</ele>
        <time>2018-08-21T09:45:39Z</time>
      </trkpt>
      <trkpt lat="42.978220" lon="-1.392314">
        <ele>875.9</ele>
        <time>2018-08-21T09:45:53Z</time>
      </trkpt>
      <trkpt lat="42.978176" lon="-1.392417">
        <ele>876.4</ele>
        <time>2018-08-21T09:46:00Z</time>
      </trkpt>
      <trkpt lat="42.978132" lon="-1.392521">
        <ele>876.4</ele>
        <time>2018-08-21T09:46:08Z</time>
      </trkpt>
      <trkpt lat="42.978109" lon="-1.392551">
        <ele>876.9</ele>
        <time>2018-08-21T09:46:11Z</time>
      </trkpt>
      <trkpt lat="42.978039" lon="-1.392786">
        <ele>877.3</ele>
        <time>2018-08-21T09:46:27Z</time>
      </trkpt>
      <trkpt lat="42.977971" lon="-1.392963">
        <ele>876.9</ele>
        <time>2018-08-21T09:46:41Z</time>
      </trkpt>
      <trkpt lat="42.977958" lon="-1.392992">
        <ele>876.4</ele>
        <time>2018-08-21T09:46:43Z</time>
      </trkpt>
      <trkpt lat="42.977948" lon="-1.393023">
        <ele>872.0</ele>
        <time>2018-08-21T09:46:45Z</time>
      </trkpt>
      <trkpt lat="42.977943" lon="-1.393039">
        <ele>879.7</ele>
        <time>2018-08-21T09:46:46Z</time>
      </trkpt>
      <trkpt lat="42.977935" lon="-1.393073">
        <ele>875.9</ele>
        <time>2018-08-21T09:46:48Z</time>
      </trkpt>
      <trkpt lat="42.977932" lon="-1.393091">
        <ele>875.9</ele>
        <time>2018-08-21T09:46:49Z</time>
      </trkpt>
      <trkpt lat="42.977866" lon="-1.393293">
        <ele>874.5</ele>
        <time>2018-08-21T09:47:03Z</time>
      </trkpt>
      <trkpt lat="42.977857" lon="-1.393397">
        <ele>874.5</ele>
        <time>2018-08-21T09:47:09Z</time>
      </trkpt>
      <trkpt lat="42.977847" lon="-1.393513">
        <ele>874.5</ele>
        <time>2018-08-21T09:47:17Z</time>
      </trkpt>
      <trkpt lat="42.977821" lon="-1.393649">
        <ele>874.5</ele>
        <time>2018-08-21T09:47:29Z</time>
      </trkpt>
      <trkpt lat="42.977791" lon="-1.393889">
        <ele>873.5</ele>
        <time>2018-08-21T09:47:44Z</time>
      </trkpt>
      <trkpt lat="42.977794" lon="-1.394229">
        <ele>872.0</ele>
        <time>2018-08-21T09:48:01Z</time>
      </trkpt>
      <trkpt lat="42.977765" lon="-1.394410">
        <ele>870.6</ele>
        <time>2018-08-21T09:48:14Z</time>
      </trkpt>
      <trkpt lat="42.977762" lon="-1.394591">
        <ele>869.7</ele>
        <time>2018-08-21T09:48:26Z</time>
      </trkpt>
      <trkpt lat="42.977757" lon="-1.394587">
        <ele>869.7</ele>
        <time>2018-08-21T09:48:27Z</time>
      </trkpt>
      <trkpt lat="42.977757" lon="-1.394628">
        <ele>869.2</ele>
        <time>2018-08-21T09:48:30Z</time>
      </trkpt>
      <trkpt lat="42.977750" lon="-1.394728">
        <ele>869.2</ele>
        <time>2018-08-21T09:48:41Z</time>
      </trkpt>
      <trkpt lat="42.977711" lon="-1.394872">
        <ele>868.2</ele>
        <time>2018-08-21T09:48:59Z</time>
      </trkpt>
      <trkpt lat="42.977728" lon="-1.395073">
        <ele>866.3</ele>
        <time>2018-08-21T09:49:13Z</time>
      </trkpt>
      <trkpt lat="42.977730" lon="-1.395097">
        <ele>866.3</ele>
        <time>2018-08-21T09:49:15Z</time>
      </trkpt>
      <trkpt lat="42.977728" lon="-1.395343">
        <ele>864.8</ele>
        <time>2018-08-21T09:49:30Z</time>
      </trkpt>
      <trkpt lat="42.977675" lon="-1.395550">
        <ele>863.4</ele>
        <time>2018-08-21T09:49:44Z</time>
      </trkpt>
      <trkpt lat="42.977660" lon="-1.395761">
        <ele>862.9</ele>
        <time>2018-08-21T09:49:56Z</time>
      </trkpt>
      <trkpt lat="42.977630" lon="-1.395982">
        <ele>861.5</ele>
        <time>2018-08-21T09:50:10Z</time>
      </trkpt>
      <trkpt lat="42.977634" lon="-1.396036">
        <ele>861.0</ele>
        <time>2018-08-21T09:50:14Z</time>
      </trkpt>
      <trkpt lat="42.977590" lon="-1.396193">
        <ele>860.0</ele>
        <time>2018-08-21T09:50:28Z</time>
      </trkpt>
      <trkpt lat="42.977550" lon="-1.396229">
        <ele>857.6</ele>
        <time>2018-08-21T09:50:46Z</time>
      </trkpt>
      <trkpt lat="42.977494" lon="-1.396299">
        <ele>857.2</ele>
        <time>2018-08-21T09:51:01Z</time>
      </trkpt>
      <trkpt lat="42.977407" lon="-1.396435">
        <ele>856.7</ele>
        <time>2018-08-21T09:51:15Z</time>
      </trkpt>
      <trkpt lat="42.977397" lon="-1.396485">
        <ele>856.7</ele>
        <time>2018-08-21T09:51:19Z</time>
      </trkpt>
      <trkpt lat="42.977359" lon="-1.396537">
        <ele>856.7</ele>
        <time>2018-08-21T09:51:24Z</time>
      </trkpt>
      <trkpt lat="42.977291" lon="-1.396713">
        <ele>855.7</ele>
        <time>2018-08-21T09:51:38Z</time>
      </trkpt>
      <trkpt lat="42.977262" lon="-1.396862">
        <ele>856.2</ele>
        <time>2018-08-21T09:51:49Z</time>
      </trkpt>
      <trkpt lat="42.977244" lon="-1.396961">
        <ele>857.2</ele>
        <time>2018-08-21T09:51:57Z</time>
      </trkpt>
      <trkpt lat="42.977206" lon="-1.397097">
        <ele>857.6</ele>
        <time>2018-08-21T09:52:09Z</time>
      </trkpt>
      <trkpt lat="42.977255" lon="-1.397255">
        <ele>857.2</ele>
        <time>2018-08-21T09:52:23Z</time>
      </trkpt>
      <trkpt lat="42.977242" lon="-1.397325">
        <ele>855.2</ele>
        <time>2018-08-21T09:52:35Z</time>
      </trkpt>
      <trkpt lat="42.977251" lon="-1.397371">
        <ele>853.8</ele>
        <time>2018-08-21T09:52:43Z</time>
      </trkpt>
      <trkpt lat="42.977361" lon="-1.397518">
        <ele>851.9</ele>
        <time>2018-08-21T09:52:59Z</time>
      </trkpt>
      <trkpt lat="42.977402" lon="-1.397650">
        <ele>850.4</ele>
        <time>2018-08-21T09:53:11Z</time>
      </trkpt>
      <trkpt lat="42.977464" lon="-1.397741">
        <ele>849.5</ele>
        <time>2018-08-21T09:53:22Z</time>
      </trkpt>
      <trkpt lat="42.977512" lon="-1.397821">
        <ele>847.1</ele>
        <time>2018-08-21T09:53:33Z</time>
      </trkpt>
      <trkpt lat="42.977520" lon="-1.397843">
        <ele>847.1</ele>
        <time>2018-08-21T09:53:36Z</time>
      </trkpt>
      <trkpt lat="42.977489" lon="-1.397963">
        <ele>843.7</ele>
        <time>2018-08-21T09:53:50Z</time>
      </trkpt>
      <trkpt lat="42.977494" lon="-1.398085">
        <ele>841.3</ele>
        <time>2018-08-21T09:54:04Z</time>
      </trkpt>
      <trkpt lat="42.977510" lon="-1.398212">
        <ele>838.9</ele>
        <time>2018-08-21T09:54:18Z</time>
      </trkpt>
      <trkpt lat="42.977511" lon="-1.398273">
        <ele>837.9</ele>
        <time>2018-08-21T09:54:31Z</time>
      </trkpt>
      <trkpt lat="42.977525" lon="-1.398306">
        <ele>837.5</ele>
        <time>2018-08-21T09:54:35Z</time>
      </trkpt>
      <trkpt lat="42.977574" lon="-1.398381">
        <ele>836.0</ele>
        <time>2018-08-21T09:54:47Z</time>
      </trkpt>
      <trkpt lat="42.977524" lon="-1.398443">
        <ele>833.6</ele>
        <time>2018-08-21T09:55:02Z</time>
      </trkpt>
      <trkpt lat="42.977355" lon="-1.398433">
        <ele>832.6</ele>
        <time>2018-08-21T09:55:19Z</time>
      </trkpt>
      <trkpt lat="42.977201" lon="-1.398395">
        <ele>831.2</ele>
        <time>2018-08-21T09:55:36Z</time>
      </trkpt>
      <trkpt lat="42.977109" lon="-1.398368">
        <ele>829.3</ele>
        <time>2018-08-21T09:55:49Z</time>
      </trkpt>
      <trkpt lat="42.977027" lon="-1.398378">
        <ele>827.8</ele>
        <time>2018-08-21T09:56:04Z</time>
      </trkpt>
      <trkpt lat="42.976914" lon="-1.398384">
        <ele>825.4</ele>
        <time>2018-08-21T09:56:21Z</time>
      </trkpt>
      <trkpt lat="42.976834" lon="-1.398411">
        <ele>825.0</ele>
        <time>2018-08-21T09:56:29Z</time>
      </trkpt>
      <trkpt lat="42.976758" lon="-1.398554">
        <ele>824.5</ele>
        <time>2018-08-21T09:56:44Z</time>
      </trkpt>
      <trkpt lat="42.976667" lon="-1.398646">
        <ele>823.5</ele>
        <time>2018-08-21T09:57:00Z</time>
      </trkpt>
      <trkpt lat="42.976572" lon="-1.398603">
        <ele>823.5</ele>
        <time>2018-08-21T09:57:16Z</time>
      </trkpt>
      <trkpt lat="42.976571" lon="-1.398610">
        <ele>823.5</ele>
        <time>2018-08-21T09:57:33Z</time>
      </trkpt>
      <trkpt lat="42.976571" lon="-1.398601">
        <ele>823.5</ele>
        <time>2018-08-21T09:57:36Z</time>
      </trkpt>
      <trkpt lat="42.976516" lon="-1.398562">
        <ele>823.0</ele>
        <time>2018-08-21T09:57:40Z</time>
      </trkpt>
      <trkpt lat="42.976409" lon="-1.398593">
        <ele>823.0</ele>
        <time>2018-08-21T09:57:54Z</time>
      </trkpt>
      <trkpt lat="42.976364" lon="-1.398691">
        <ele>824.0</ele>
        <time>2018-08-21T09:58:05Z</time>
      </trkpt>
      <trkpt lat="42.976354" lon="-1.398785">
        <ele>825.0</ele>
        <time>2018-08-21T09:58:19Z</time>
      </trkpt>
      <trkpt lat="42.976293" lon="-1.398875">
        <ele>826.4</ele>
        <time>2018-08-21T09:58:34Z</time>
      </trkpt>
      <trkpt lat="42.976260" lon="-1.398917">
        <ele>827.3</ele>
        <time>2018-08-21T09:58:45Z</time>
      </trkpt>
      <trkpt lat="42.976185" lon="-1.398997">
        <ele>828.3</ele>
        <time>2018-08-21T09:58:57Z</time>
      </trkpt>
      <trkpt lat="42.976138" lon="-1.399129">
        <ele>829.3</ele>
        <time>2018-08-21T09:59:11Z</time>
      </trkpt>
      <trkpt lat="42.976118" lon="-1.399157">
        <ele>829.8</ele>
        <time>2018-08-21T09:59:15Z</time>
      </trkpt>
      <trkpt lat="42.976040" lon="-1.399242">
        <ele>830.7</ele>
        <time>2018-08-21T09:59:28Z</time>
      </trkpt>
      <trkpt lat="42.975953" lon="-1.399342">
        <ele>832.2</ele>
        <time>2018-08-21T09:59:42Z</time>
      </trkpt>
      <trkpt lat="42.975880" lon="-1.399440">
        <ele>833.1</ele>
        <time>2018-08-21T09:59:56Z</time>
      </trkpt>
      <trkpt lat="42.975770" lon="-1.399515">
        <ele>833.6</ele>
        <time>2018-08-21T10:00:10Z</time>
      </trkpt>
      <trkpt lat="42.975717" lon="-1.399586">
        <ele>834.1</ele>
        <time>2018-08-21T10:00:18Z</time>
      </trkpt>
      <trkpt lat="42.975653" lon="-1.399673">
        <ele>835.0</ele>
        <time>2018-08-21T10:00:29Z</time>
      </trkpt>
      <trkpt lat="42.975572" lon="-1.399790">
        <ele>835.0</ele>
        <time>2018-08-21T10:00:43Z</time>
      </trkpt>
      <trkpt lat="42.975476" lon="-1.399942">
        <ele>836.0</ele>
        <time>2018-08-21T10:00:58Z</time>
      </trkpt>
      <trkpt lat="42.975413" lon="-1.400026">
        <ele>836.5</ele>
        <time>2018-08-21T10:01:09Z</time>
      </trkpt>
      <trkpt lat="42.975271" lon="-1.400156">
        <ele>837.5</ele>
        <time>2018-08-21T10:01:27Z</time>
      </trkpt>
      <trkpt lat="42.975209" lon="-1.400322">
        <ele>837.9</ele>
        <time>2018-08-21T10:01:43Z</time>
      </trkpt>
      <trkpt lat="42.975109" lon="-1.400448">
        <ele>838.4</ele>
        <time>2018-08-21T10:01:56Z</time>
      </trkpt>
      <trkpt lat="42.975040" lon="-1.400503">
        <ele>837.9</ele>
        <time>2018-08-21T10:02:04Z</time>
      </trkpt>
      <trkpt lat="42.975029" lon="-1.400520">
        <ele>838.4</ele>
        <time>2018-08-21T10:02:06Z</time>
      </trkpt>
      <trkpt lat="42.974927" lon="-1.400620">
        <ele>837.9</ele>
        <time>2018-08-21T10:02:21Z</time>
      </trkpt>
      <trkpt lat="42.974816" lon="-1.400733">
        <ele>837.5</ele>
        <time>2018-08-21T10:02:37Z</time>
      </trkpt>
      <trkpt lat="42.974720" lon="-1.400821">
        <ele>837.5</ele>
        <time>2018-08-21T10:02:50Z</time>
      </trkpt>
      <trkpt lat="42.974598" lon="-1.400931">
        <ele>836.5</ele>
        <time>2018-08-21T10:03:06Z</time>
      </trkpt>
      <trkpt lat="42.974538" lon="-1.401031">
        <ele>836.5</ele>
        <time>2018-08-21T10:03:14Z</time>
      </trkpt>
      <trkpt lat="42.974418" lon="-1.401132">
        <ele>837.0</ele>
        <time>2018-08-21T10:03:29Z</time>
      </trkpt>
      <trkpt lat="42.974296" lon="-1.401236">
        <ele>836.0</ele>
        <time>2018-08-21T10:03:45Z</time>
      </trkpt>
      <trkpt lat="42.974255" lon="-1.401282">
        <ele>836.0</ele>
        <time>2018-08-21T10:03:50Z</time>
      </trkpt>
      <trkpt lat="42.974187" lon="-1.401388">
        <ele>835.5</ele>
        <time>2018-08-21T10:04:01Z</time>
      </trkpt>
      <trkpt lat="42.974096" lon="-1.401505">
        <ele>834.6</ele>
        <time>2018-08-21T10:04:16Z</time>
      </trkpt>
      <trkpt lat="42.974060" lon="-1.401609">
        <ele>834.1</ele>
        <time>2018-08-21T10:04:30Z</time>
      </trkpt>
      <trkpt lat="42.973996" lon="-1.401719">
        <ele>833.6</ele>
        <time>2018-08-21T10:04:43Z</time>
      </trkpt>
      <trkpt lat="42.973911" lon="-1.401897">
        <ele>831.7</ele>
        <time>2018-08-21T10:05:01Z</time>
      </trkpt>
      <trkpt lat="42.973896" lon="-1.401967">
        <ele>831.2</ele>
        <time>2018-08-21T10:05:19Z</time>
      </trkpt>
      <trkpt lat="42.973860" lon="-1.402056">
        <ele>830.2</ele>
        <time>2018-08-21T10:05:38Z</time>
      </trkpt>
      <trkpt lat="42.973795" lon="-1.402210">
        <ele>827.8</ele>
        <time>2018-08-21T10:05:54Z</time>
      </trkpt>
      <trkpt lat="42.973734" lon="-1.402403">
        <ele>825.9</ele>
        <time>2018-08-21T10:06:10Z</time>
      </trkpt>
      <trkpt lat="42.973657" lon="-1.402519">
        <ele>824.5</ele>
        <time>2018-08-21T10:06:23Z</time>
      </trkpt>
      <trkpt lat="42.973589" lon="-1.402602">
        <ele>823.5</ele>
        <time>2018-08-21T10:06:39Z</time>
      </trkpt>
      <trkpt lat="42.973500" lon="-1.402676">
        <ele>822.5</ele>
        <time>2018-08-21T10:06:52Z</time>
      </trkpt>
      <trkpt lat="42.973417" lon="-1.402789">
        <ele>821.1</ele>
        <time>2018-08-21T10:07:03Z</time>
      </trkpt>
      <trkpt lat="42.973325" lon="-1.402933">
        <ele>820.1</ele>
        <time>2018-08-21T10:07:18Z</time>
      </trkpt>
      <trkpt lat="42.973219" lon="-1.403112">
        <ele>817.7</ele>
        <time>2018-08-21T10:07:34Z</time>
      </trkpt>
      <trkpt lat="42.973189" lon="-1.403139">
        <ele>817.7</ele>
        <time>2018-08-21T10:07:50Z</time>
      </trkpt>
      <trkpt lat="42.973142" lon="-1.403213">
        <ele>816.8</ele>
        <time>2018-08-21T10:08:02Z</time>
      </trkpt>
      <trkpt lat="42.973072" lon="-1.403281">
        <ele>816.3</ele>
        <time>2018-08-21T10:08:16Z</time>
      </trkpt>
      <trkpt lat="42.973000" lon="-1.403420">
        <ele>815.3</ele>
        <time>2018-08-21T10:08:30Z</time>
      </trkpt>
      <trkpt lat="42.972928" lon="-1.403521">
        <ele>812.9</ele>
        <time>2018-08-21T10:08:45Z</time>
      </trkpt>
      <trkpt lat="42.972913" lon="-1.403534">
        <ele>812.9</ele>
        <time>2018-08-21T10:09:01Z</time>
      </trkpt>
      <trkpt lat="42.972894" lon="-1.403575">
        <ele>812.0</ele>
        <time>2018-08-21T10:09:19Z</time>
      </trkpt>
      <trkpt lat="42.972828" lon="-1.403731">
        <ele>810.0</ele>
        <time>2018-08-21T10:09:36Z</time>
      </trkpt>
      <trkpt lat="42.972736" lon="-1.403880">
        <ele>807.2</ele>
        <time>2018-08-21T10:09:51Z</time>
      </trkpt>
      <trkpt lat="42.972574" lon="-1.403960">
        <ele>805.7</ele>
        <time>2018-08-21T10:10:07Z</time>
      </trkpt>
      <trkpt lat="42.972412" lon="-1.404008">
        <ele>803.3</ele>
        <time>2018-08-21T10:10:23Z</time>
      </trkpt>
      <trkpt lat="42.972243" lon="-1.404042">
        <ele>801.4</ele>
        <time>2018-08-21T10:10:40Z</time>
      </trkpt>
      <trkpt lat="42.972117" lon="-1.404014">
        <ele>799.5</ele>
        <time>2018-08-21T10:10:53Z</time>
      </trkpt>
      <trkpt lat="42.971952" lon="-1.404041">
        <ele>798.0</ele>
        <time>2018-08-21T10:11:08Z</time>
      </trkpt>
      <trkpt lat="42.971925" lon="-1.404057">
        <ele>797.5</ele>
        <time>2018-08-21T10:11:11Z</time>
      </trkpt>
      <trkpt lat="42.971846" lon="-1.404169">
        <ele>795.6</ele>
        <time>2018-08-21T10:11:26Z</time>
      </trkpt>
      <trkpt lat="42.971827" lon="-1.404318">
        <ele>793.7</ele>
        <time>2018-08-21T10:11:39Z</time>
      </trkpt>
      <trkpt lat="42.971811" lon="-1.404452">
        <ele>791.8</ele>
        <time>2018-08-21T10:11:53Z</time>
      </trkpt>
      <trkpt lat="42.971791" lon="-1.404519">
        <ele>789.9</ele>
        <time>2018-08-21T10:12:13Z</time>
      </trkpt>
      <trkpt lat="42.971782" lon="-1.404687">
        <ele>787.5</ele>
        <time>2018-08-21T10:12:28Z</time>
      </trkpt>
      <trkpt lat="42.971781" lon="-1.404779">
        <ele>787.0</ele>
        <time>2018-08-21T10:12:34Z</time>
      </trkpt>
      <trkpt lat="42.971777" lon="-1.404855">
        <ele>786.0</ele>
        <time>2018-08-21T10:12:39Z</time>
      </trkpt>
      <trkpt lat="42.971736" lon="-1.404971">
        <ele>784.1</ele>
        <time>2018-08-21T10:12:49Z</time>
      </trkpt>
      <trkpt lat="42.971603" lon="-1.405041">
        <ele>782.2</ele>
        <time>2018-08-21T10:13:03Z</time>
      </trkpt>
      <trkpt lat="42.971421" lon="-1.405080">
        <ele>779.3</ele>
        <time>2018-08-21T10:13:20Z</time>
      </trkpt>
      <trkpt lat="42.971253" lon="-1.405149">
        <ele>777.4</ele>
        <time>2018-08-21T10:13:36Z</time>
      </trkpt>
      <trkpt lat="42.971143" lon="-1.405311">
        <ele>775.4</ele>
        <time>2018-08-21T10:13:50Z</time>
      </trkpt>
      <trkpt lat="42.971105" lon="-1.405368">
        <ele>774.5</ele>
        <time>2018-08-21T10:13:56Z</time>
      </trkpt>
      <trkpt lat="42.970994" lon="-1.405526">
        <ele>772.6</ele>
        <time>2018-08-21T10:14:12Z</time>
      </trkpt>
      <trkpt lat="42.970894" lon="-1.405656">
        <ele>770.2</ele>
        <time>2018-08-21T10:14:25Z</time>
      </trkpt>
      <trkpt lat="42.970887" lon="-1.405665">
        <ele>770.2</ele>
        <time>2018-08-21T10:14:26Z</time>
      </trkpt>
      <trkpt lat="42.970783" lon="-1.405864">
        <ele>766.8</ele>
        <time>2018-08-21T10:14:41Z</time>
      </trkpt>
      <trkpt lat="42.970762" lon="-1.405927">
        <ele>767.8</ele>
        <time>2018-08-21T10:14:55Z</time>
      </trkpt>
      <trkpt lat="42.970749" lon="-1.405927">
        <ele>766.3</ele>
        <time>2018-08-21T10:15:11Z</time>
      </trkpt>
      <trkpt lat="42.970743" lon="-1.405943">
        <ele>766.8</ele>
        <time>2018-08-21T10:15:19Z</time>
      </trkpt>
      <trkpt lat="42.970793" lon="-1.406003">
        <ele>766.3</ele>
        <time>2018-08-21T10:15:27Z</time>
      </trkpt>
      <trkpt lat="42.970848" lon="-1.406101">
        <ele>764.9</ele>
        <time>2018-08-21T10:15:41Z</time>
      </trkpt>
      <trkpt lat="42.970863" lon="-1.406173">
        <ele>763.9</ele>
        <time>2018-08-21T10:15:55Z</time>
      </trkpt>
      <trkpt lat="42.970871" lon="-1.406190">
        <ele>763.9</ele>
        <time>2018-08-21T10:16:00Z</time>
      </trkpt>
      <trkpt lat="42.970896" lon="-1.406249">
        <ele>763.4</ele>
        <time>2018-08-21T10:16:05Z</time>
      </trkpt>
      <trkpt lat="42.970882" lon="-1.406378">
        <ele>763.4</ele>
        <time>2018-08-21T10:16:17Z</time>
      </trkpt>
      <trkpt lat="42.970865" lon="-1.406408">
        <ele>763.9</ele>
        <time>2018-08-21T10:16:20Z</time>
      </trkpt>
      <trkpt lat="42.970872" lon="-1.406511">
        <ele>763.9</ele>
        <time>2018-08-21T10:16:26Z</time>
      </trkpt>
      <trkpt lat="42.970886" lon="-1.406696">
        <ele>765.8</ele>
        <time>2018-08-21T10:16:40Z</time>
      </trkpt>
      <trkpt lat="42.970883" lon="-1.406799">
        <ele>766.3</ele>
        <time>2018-08-21T10:16:51Z</time>
      </trkpt>
      <trkpt lat="42.970890" lon="-1.406896">
        <ele>765.8</ele>
        <time>2018-08-21T10:17:03Z</time>
      </trkpt>
      <trkpt lat="42.970908" lon="-1.406956">
        <ele>765.8</ele>
        <time>2018-08-21T10:17:07Z</time>
      </trkpt>
      <trkpt lat="42.970941" lon="-1.407035">
        <ele>765.8</ele>
        <time>2018-08-21T10:17:12Z</time>
      </trkpt>
      <trkpt lat="42.971059" lon="-1.407197">
        <ele>766.3</ele>
        <time>2018-08-21T10:17:27Z</time>
      </trkpt>
      <trkpt lat="42.971077" lon="-1.407209">
        <ele>765.3</ele>
        <time>2018-08-21T10:17:29Z</time>
      </trkpt>
      <trkpt lat="42.971178" lon="-1.407369">
        <ele>766.8</ele>
        <time>2018-08-21T10:17:44Z</time>
      </trkpt>
      <trkpt lat="42.971180" lon="-1.407385">
        <ele>766.3</ele>
        <time>2018-08-21T10:17:45Z</time>
      </trkpt>
      <trkpt lat="42.971195" lon="-1.407425">
        <ele>766.8</ele>
        <time>2018-08-21T10:17:48Z</time>
      </trkpt>
      <trkpt lat="42.971226" lon="-1.407551">
        <ele>766.8</ele>
        <time>2018-08-21T10:17:57Z</time>
      </trkpt>
      <trkpt lat="42.971242" lon="-1.407574">
        <ele>766.8</ele>
        <time>2018-08-21T10:17:59Z</time>
      </trkpt>
      <trkpt lat="42.971251" lon="-1.407599">
        <ele>767.3</ele>
        <time>2018-08-21T10:18:01Z</time>
      </trkpt>
      <trkpt lat="42.971279" lon="-1.407674">
        <ele>768.2</ele>
        <time>2018-08-21T10:18:07Z</time>
      </trkpt>
      <trkpt lat="42.971282" lon="-1.407700">
        <ele>767.8</ele>
        <time>2018-08-21T10:18:09Z</time>
      </trkpt>
      <trkpt lat="42.971290" lon="-1.407724">
        <ele>767.8</ele>
        <time>2018-08-21T10:18:11Z</time>
      </trkpt>
      <trkpt lat="42.971287" lon="-1.407844">
        <ele>769.2</ele>
        <time>2018-08-21T10:18:20Z</time>
      </trkpt>
      <trkpt lat="42.971255" lon="-1.408028">
        <ele>769.7</ele>
        <time>2018-08-21T10:18:33Z</time>
      </trkpt>
      <trkpt lat="42.971195" lon="-1.408222">
        <ele>771.1</ele>
        <time>2018-08-21T10:18:48Z</time>
      </trkpt>
      <trkpt lat="42.971126" lon="-1.408436">
        <ele>771.1</ele>
        <time>2018-08-21T10:19:03Z</time>
      </trkpt>
      <trkpt lat="42.971104" lon="-1.408505">
        <ele>771.6</ele>
        <time>2018-08-21T10:19:08Z</time>
      </trkpt>
      <trkpt lat="42.971096" lon="-1.408529">
        <ele>771.6</ele>
        <time>2018-08-21T10:19:11Z</time>
      </trkpt>
      <trkpt lat="42.971046" lon="-1.408650">
        <ele>772.6</ele>
        <time>2018-08-21T10:19:20Z</time>
      </trkpt>
      <trkpt lat="42.971008" lon="-1.408869">
        <ele>772.1</ele>
        <time>2018-08-21T10:19:35Z</time>
      </trkpt>
      <trkpt lat="42.970969" lon="-1.409052">
        <ele>773.0</ele>
        <time>2018-08-21T10:19:48Z</time>
      </trkpt>
      <trkpt lat="42.970953" lon="-1.409171">
        <ele>773.5</ele>
        <time>2018-08-21T10:19:56Z</time>
      </trkpt>
      <trkpt lat="42.970907" lon="-1.409402">
        <ele>773.5</ele>
        <time>2018-08-21T10:20:11Z</time>
      </trkpt>
      <trkpt lat="42.970895" lon="-1.409590">
        <ele>774.5</ele>
        <time>2018-08-21T10:20:24Z</time>
      </trkpt>
      <trkpt lat="42.970843" lon="-1.409742">
        <ele>775.0</ele>
        <time>2018-08-21T10:20:35Z</time>
      </trkpt>
      <trkpt lat="42.970790" lon="-1.409894">
        <ele>775.4</ele>
        <time>2018-08-21T10:20:48Z</time>
      </trkpt>
      <trkpt lat="42.970768" lon="-1.409930">
        <ele>775.9</ele>
        <time>2018-08-21T10:20:52Z</time>
      </trkpt>
      <trkpt lat="42.970710" lon="-1.410059">
        <ele>776.9</ele>
        <time>2018-08-21T10:21:05Z</time>
      </trkpt>
      <trkpt lat="42.970633" lon="-1.410176">
        <ele>777.4</ele>
        <time>2018-08-21T10:21:16Z</time>
      </trkpt>
      <trkpt lat="42.970582" lon="-1.410329">
        <ele>778.8</ele>
        <time>2018-08-21T10:21:28Z</time>
      </trkpt>
      <trkpt lat="42.970575" lon="-1.410340">
        <ele>778.8</ele>
        <time>2018-08-21T10:21:29Z</time>
      </trkpt>
      <trkpt lat="42.970559" lon="-1.410399">
        <ele>779.8</ele>
        <time>2018-08-21T10:21:33Z</time>
      </trkpt>
      <trkpt lat="42.970506" lon="-1.410545">
        <ele>778.8</ele>
        <time>2018-08-21T10:21:46Z</time>
      </trkpt>
      <trkpt lat="42.970486" lon="-1.410598">
        <ele>778.8</ele>
        <time>2018-08-21T10:21:50Z</time>
      </trkpt>
      <trkpt lat="42.970413" lon="-1.410802">
        <ele>779.3</ele>
        <time>2018-08-21T10:22:06Z</time>
      </trkpt>
      <trkpt lat="42.970374" lon="-1.410896">
        <ele>779.3</ele>
        <time>2018-08-21T10:22:19Z</time>
      </trkpt>
      <trkpt lat="42.970348" lon="-1.410969">
        <ele>780.2</ele>
        <time>2018-08-21T10:22:27Z</time>
      </trkpt>
      <trkpt lat="42.970317" lon="-1.411061">
        <ele>780.2</ele>
        <time>2018-08-21T10:22:34Z</time>
      </trkpt>
      <trkpt lat="42.970312" lon="-1.411120">
        <ele>780.7</ele>
        <time>2018-08-21T10:22:46Z</time>
      </trkpt>
      <trkpt lat="42.970275" lon="-1.411238">
        <ele>781.7</ele>
        <time>2018-08-21T10:23:05Z</time>
      </trkpt>
      <trkpt lat="42.970262" lon="-1.411309">
        <ele>782.7</ele>
        <time>2018-08-21T10:23:10Z</time>
      </trkpt>
      <trkpt lat="42.970255" lon="-1.411397">
        <ele>783.1</ele>
        <time>2018-08-21T10:23:17Z</time>
      </trkpt>
      <trkpt lat="42.970251" lon="-1.411436">
        <ele>784.1</ele>
        <time>2018-08-21T10:23:20Z</time>
      </trkpt>
      <trkpt lat="42.970228" lon="-1.411593">
        <ele>785.5</ele>
        <time>2018-08-21T10:23:33Z</time>
      </trkpt>
      <trkpt lat="42.970219" lon="-1.411703">
        <ele>787.0</ele>
        <time>2018-08-21T10:23:44Z</time>
      </trkpt>
      <trkpt lat="42.970204" lon="-1.411837">
        <ele>788.4</ele>
        <time>2018-08-21T10:23:56Z</time>
      </trkpt>
      <trkpt lat="42.970203" lon="-1.411966">
        <ele>789.9</ele>
        <time>2018-08-21T10:24:07Z</time>
      </trkpt>
      <trkpt lat="42.970182" lon="-1.412062">
        <ele>791.3</ele>
        <time>2018-08-21T10:24:14Z</time>
      </trkpt>
      <trkpt lat="42.970190" lon="-1.412110">
        <ele>791.8</ele>
        <time>2018-08-21T10:24:18Z</time>
      </trkpt>
      <trkpt lat="42.970192" lon="-1.412143">
        <ele>791.8</ele>
        <time>2018-08-21T10:24:21Z</time>
      </trkpt>
      <trkpt lat="42.970195" lon="-1.412215">
        <ele>792.3</ele>
        <time>2018-08-21T10:24:26Z</time>
      </trkpt>
      <trkpt lat="42.970191" lon="-1.412263">
        <ele>792.3</ele>
        <time>2018-08-21T10:24:30Z</time>
      </trkpt>
      <trkpt lat="42.970201" lon="-1.412405">
        <ele>793.7</ele>
        <time>2018-08-21T10:24:41Z</time>
      </trkpt>
      <trkpt lat="42.970198" lon="-1.412416">
        <ele>793.7</ele>
        <time>2018-08-21T10:24:42Z</time>
      </trkpt>
      <trkpt lat="42.970201" lon="-1.412483">
        <ele>794.2</ele>
        <time>2018-08-21T10:24:47Z</time>
      </trkpt>
      <trkpt lat="42.970204" lon="-1.412552">
        <ele>794.2</ele>
        <time>2018-08-21T10:24:51Z</time>
      </trkpt>
      <trkpt lat="42.970190" lon="-1.412734">
        <ele>795.6</ele>
        <time>2018-08-21T10:25:03Z</time>
      </trkpt>
      <trkpt lat="42.970147" lon="-1.412911">
        <ele>796.1</ele>
        <time>2018-08-21T10:25:17Z</time>
      </trkpt>
      <trkpt lat="42.970092" lon="-1.413083">
        <ele>796.1</ele>
        <time>2018-08-21T10:25:31Z</time>
      </trkpt>
      <trkpt lat="42.970064" lon="-1.413201">
        <ele>795.6</ele>
        <time>2018-08-21T10:25:44Z</time>
      </trkpt>
      <trkpt lat="42.970024" lon="-1.413378">
        <ele>794.2</ele>
        <time>2018-08-21T10:26:00Z</time>
      </trkpt>
      <trkpt lat="42.970005" lon="-1.413683">
        <ele>792.7</ele>
        <time>2018-08-21T10:26:20Z</time>
      </trkpt>
      <trkpt lat="42.969955" lon="-1.413924">
        <ele>793.2</ele>
        <time>2018-08-21T10:26:36Z</time>
      </trkpt>
      <trkpt lat="42.969862" lon="-1.414126">
        <ele>793.7</ele>
        <time>2018-08-21T10:26:52Z</time>
      </trkpt>
      <trkpt lat="42.969840" lon="-1.414175">
        <ele>793.2</ele>
        <time>2018-08-21T10:26:56Z</time>
      </trkpt>
      <trkpt lat="42.969813" lon="-1.414222">
        <ele>793.2</ele>
        <time>2018-08-21T10:27:00Z</time>
      </trkpt>
      <trkpt lat="42.969781" lon="-1.414355">
        <ele>792.7</ele>
        <time>2018-08-21T10:27:09Z</time>
      </trkpt>
      <trkpt lat="42.969755" lon="-1.414490">
        <ele>792.3</ele>
        <time>2018-08-21T10:27:19Z</time>
      </trkpt>
      <trkpt lat="42.969709" lon="-1.414580">
        <ele>791.3</ele>
        <time>2018-08-21T10:27:36Z</time>
      </trkpt>
      <trkpt lat="42.969716" lon="-1.414674">
        <ele>791.3</ele>
        <time>2018-08-21T10:27:44Z</time>
      </trkpt>
      <trkpt lat="42.969705" lon="-1.414704">
        <ele>790.8</ele>
        <time>2018-08-21T10:27:47Z</time>
      </trkpt>
      <trkpt lat="42.969690" lon="-1.414767">
        <ele>789.9</ele>
        <time>2018-08-21T10:27:52Z</time>
      </trkpt>
      <trkpt lat="42.969676" lon="-1.414854">
        <ele>788.9</ele>
        <time>2018-08-21T10:27:59Z</time>
      </trkpt>
      <trkpt lat="42.969654" lon="-1.414954">
        <ele>787.5</ele>
        <time>2018-08-21T10:28:14Z</time>
      </trkpt>
      <trkpt lat="42.969650" lon="-1.414967">
        <ele>787.5</ele>
        <time>2018-08-21T10:28:15Z</time>
      </trkpt>
      <trkpt lat="42.969527" lon="-1.415160">
        <ele>786.0</ele>
        <time>2018-08-21T10:28:31Z</time>
      </trkpt>
      <trkpt lat="42.969504" lon="-1.415204">
        <ele>786.5</ele>
        <time>2018-08-21T10:28:35Z</time>
      </trkpt>
      <trkpt lat="42.969499" lon="-1.415368">
        <ele>786.5</ele>
        <time>2018-08-21T10:28:45Z</time>
      </trkpt>
      <trkpt lat="42.969473" lon="-1.415436">
        <ele>786.0</ele>
        <time>2018-08-21T10:28:52Z</time>
      </trkpt>
      <trkpt lat="42.969382" lon="-1.415580">
        <ele>786.5</ele>
        <time>2018-08-21T10:29:06Z</time>
      </trkpt>
      <trkpt lat="42.969303" lon="-1.415899">
        <ele>782.2</ele>
        <time>2018-08-21T10:49:16Z</time>
      </trkpt>
      <trkpt lat="42.969272" lon="-1.415949">
        <ele>782.7</ele>
        <time>2018-08-21T10:49:30Z</time>
      </trkpt>
      <trkpt lat="42.969193" lon="-1.416130">
        <ele>782.2</ele>
        <time>2018-08-21T10:49:45Z</time>
      </trkpt>
      <trkpt lat="42.969134" lon="-1.416355">
        <ele>781.7</ele>
        <time>2018-08-21T10:50:02Z</time>
      </trkpt>
      <trkpt lat="42.969097" lon="-1.416559">
        <ele>782.2</ele>
        <time>2018-08-21T10:50:16Z</time>
      </trkpt>
      <trkpt lat="42.969050" lon="-1.416678">
        <ele>781.7</ele>
        <time>2018-08-21T10:50:27Z</time>
      </trkpt>
      <trkpt lat="42.968931" lon="-1.416809">
        <ele>782.2</ele>
        <time>2018-08-21T10:50:40Z</time>
      </trkpt>
      <trkpt lat="42.968878" lon="-1.416869">
        <ele>782.2</ele>
        <time>2018-08-21T10:50:46Z</time>
      </trkpt>
      <trkpt lat="42.968671" lon="-1.416926">
        <ele>782.2</ele>
        <time>2018-08-21T10:51:03Z</time>
      </trkpt>
      <trkpt lat="42.968638" lon="-1.416944">
        <ele>782.2</ele>
        <time>2018-08-21T10:51:06Z</time>
      </trkpt>
      <trkpt lat="42.968477" lon="-1.416997">
        <ele>783.1</ele>
        <time>2018-08-21T10:51:20Z</time>
      </trkpt>
      <trkpt lat="42.968465" lon="-1.416999">
        <ele>783.1</ele>
        <time>2018-08-21T10:51:21Z</time>
      </trkpt>
      <trkpt lat="42.968320" lon="-1.417044">
        <ele>783.1</ele>
        <time>2018-08-21T10:51:35Z</time>
      </trkpt>
      <trkpt lat="42.968306" lon="-1.417039">
        <ele>783.1</ele>
        <time>2018-08-21T10:51:40Z</time>
      </trkpt>
      <trkpt lat="42.968143" lon="-1.417124">
        <ele>784.6</ele>
        <time>2018-08-21T10:51:57Z</time>
      </trkpt>
      <trkpt lat="42.968028" lon="-1.417239">
        <ele>785.5</ele>
        <time>2018-08-21T10:52:13Z</time>
      </trkpt>
      <trkpt lat="42.967978" lon="-1.417344">
        <ele>786.5</ele>
        <time>2018-08-21T10:52:19Z</time>
      </trkpt>
      <trkpt lat="42.967821" lon="-1.417540">
        <ele>787.5</ele>
        <time>2018-08-21T10:52:35Z</time>
      </trkpt>
      <trkpt lat="42.967685" lon="-1.417791">
        <ele>786.5</ele>
        <time>2018-08-21T10:52:53Z</time>
      </trkpt>
      <trkpt lat="42.967605" lon="-1.417926">
        <ele>786.5</ele>
        <time>2018-08-21T10:53:08Z</time>
      </trkpt>
      <trkpt lat="42.967596" lon="-1.417929">
        <ele>786.5</ele>
        <time>2018-08-21T10:53:09Z</time>
      </trkpt>
      <trkpt lat="42.967358" lon="-1.418085">
        <ele>786.5</ele>
        <time>2018-08-21T10:53:25Z</time>
      </trkpt>
      <trkpt lat="42.967320" lon="-1.418305">
        <ele>785.5</ele>
        <time>2018-08-21T10:53:37Z</time>
      </trkpt>
      <trkpt lat="42.967335" lon="-1.418363">
        <ele>786.0</ele>
        <time>2018-08-21T10:53:40Z</time>
      </trkpt>
      <trkpt lat="42.967364" lon="-1.418412">
        <ele>785.0</ele>
        <time>2018-08-21T10:53:44Z</time>
      </trkpt>
      <trkpt lat="42.967504" lon="-1.418627">
        <ele>785.0</ele>
        <time>2018-08-21T10:54:01Z</time>
      </trkpt>
      <trkpt lat="42.967504" lon="-1.418744">
        <ele>785.0</ele>
        <time>2018-08-21T10:54:09Z</time>
      </trkpt>
      <trkpt lat="42.967518" lon="-1.418912">
        <ele>782.7</ele>
        <time>2018-08-21T10:54:20Z</time>
      </trkpt>
      <trkpt lat="42.967517" lon="-1.419080">
        <ele>781.2</ele>
        <time>2018-08-21T10:54:31Z</time>
      </trkpt>
      <trkpt lat="42.967495" lon="-1.419340">
        <ele>779.3</ele>
        <time>2018-08-21T10:54:47Z</time>
      </trkpt>
      <trkpt lat="42.967472" lon="-1.419598">
        <ele>777.8</ele>
        <time>2018-08-21T10:55:04Z</time>
      </trkpt>
      <trkpt lat="42.967449" lon="-1.419869">
        <ele>775.9</ele>
        <time>2018-08-21T10:55:19Z</time>
      </trkpt>
      <trkpt lat="42.967462" lon="-1.420134">
        <ele>775.0</ele>
        <time>2018-08-21T10:55:35Z</time>
      </trkpt>
      <trkpt lat="42.967484" lon="-1.420359">
        <ele>774.5</ele>
        <time>2018-08-21T10:55:48Z</time>
      </trkpt>
      <trkpt lat="42.967479" lon="-1.420407">
        <ele>775.0</ele>
        <time>2018-08-21T10:55:51Z</time>
      </trkpt>
      <trkpt lat="42.967487" lon="-1.420484">
        <ele>774.5</ele>
        <time>2018-08-21T10:55:55Z</time>
      </trkpt>
      <trkpt lat="42.967497" lon="-1.420609">
        <ele>775.4</ele>
        <time>2018-08-21T10:56:02Z</time>
      </trkpt>
      <trkpt lat="42.967524" lon="-1.420699">
        <ele>775.4</ele>
        <time>2018-08-21T10:56:07Z</time>
      </trkpt>
      <trkpt lat="42.967521" lon="-1.420788">
        <ele>775.9</ele>
        <time>2018-08-21T10:56:12Z</time>
      </trkpt>
      <trkpt lat="42.967516" lon="-1.420874">
        <ele>776.4</ele>
        <time>2018-08-21T10:56:17Z</time>
      </trkpt>
      <trkpt lat="42.967515" lon="-1.421083">
        <ele>777.8</ele>
        <time>2018-08-21T10:56:31Z</time>
      </trkpt>
      <trkpt lat="42.967510" lon="-1.421160">
        <ele>778.3</ele>
        <time>2018-08-21T10:56:36Z</time>
      </trkpt>
      <trkpt lat="42.967511" lon="-1.421315">
        <ele>780.2</ele>
        <time>2018-08-21T10:56:48Z</time>
      </trkpt>
      <trkpt lat="42.967510" lon="-1.421486">
        <ele>782.2</ele>
        <time>2018-08-21T10:57:02Z</time>
      </trkpt>
      <trkpt lat="42.967511" lon="-1.421679">
        <ele>783.6</ele>
        <time>2018-08-21T10:57:15Z</time>
      </trkpt>
      <trkpt lat="42.967502" lon="-1.421846">
        <ele>784.6</ele>
        <time>2018-08-21T10:57:26Z</time>
      </trkpt>
      <trkpt lat="42.967492" lon="-1.421922">
        <ele>785.0</ele>
        <time>2018-08-21T10:57:30Z</time>
      </trkpt>
      <trkpt lat="42.967470" lon="-1.422158">
        <ele>785.5</ele>
        <time>2018-08-21T10:57:45Z</time>
      </trkpt>
      <trkpt lat="42.967418" lon="-1.422340">
        <ele>787.0</ele>
        <time>2018-08-21T10:57:57Z</time>
      </trkpt>
      <trkpt lat="42.967403" lon="-1.422415">
        <ele>787.0</ele>
        <time>2018-08-21T10:58:02Z</time>
      </trkpt>
      <trkpt lat="42.967393" lon="-1.422452">
        <ele>787.5</ele>
        <time>2018-08-21T10:58:05Z</time>
      </trkpt>
      <trkpt lat="42.967345" lon="-1.422637">
        <ele>788.9</ele>
        <time>2018-08-21T10:58:19Z</time>
      </trkpt>
      <trkpt lat="42.967341" lon="-1.422858">
        <ele>788.9</ele>
        <time>2018-08-21T10:58:35Z</time>
      </trkpt>
      <trkpt lat="42.967325" lon="-1.423093">
        <ele>786.5</ele>
        <time>2018-08-21T10:58:51Z</time>
      </trkpt>
      <trkpt lat="42.967247" lon="-1.423278">
        <ele>785.0</ele>
        <time>2018-08-21T10:59:06Z</time>
      </trkpt>
      <trkpt lat="42.967204" lon="-1.423435">
        <ele>783.1</ele>
        <time>2018-08-21T10:59:21Z</time>
      </trkpt>
      <trkpt lat="42.967165" lon="-1.423633">
        <ele>782.2</ele>
        <time>2018-08-21T10:59:36Z</time>
      </trkpt>
      <trkpt lat="42.967123" lon="-1.423836">
        <ele>781.2</ele>
        <time>2018-08-21T10:59:50Z</time>
      </trkpt>
      <trkpt lat="42.967089" lon="-1.424088">
        <ele>779.3</ele>
        <time>2018-08-21T11:00:07Z</time>
      </trkpt>
      <trkpt lat="42.967044" lon="-1.424293">
        <ele>777.8</ele>
        <time>2018-08-21T11:00:22Z</time>
      </trkpt>
      <trkpt lat="42.966977" lon="-1.424474">
        <ele>776.9</ele>
        <time>2018-08-21T11:00:36Z</time>
      </trkpt>
      <trkpt lat="42.966916" lon="-1.424694">
        <ele>774.5</ele>
        <time>2018-08-21T11:00:51Z</time>
      </trkpt>
      <trkpt lat="42.966898" lon="-1.424885">
        <ele>773.5</ele>
        <time>2018-08-21T11:01:03Z</time>
      </trkpt>
      <trkpt lat="42.966791" lon="-1.425144">
        <ele>772.1</ele>
        <time>2018-08-21T11:01:20Z</time>
      </trkpt>
      <trkpt lat="42.966695" lon="-1.425352">
        <ele>771.1</ele>
        <time>2018-08-21T11:01:36Z</time>
      </trkpt>
      <trkpt lat="42.966560" lon="-1.425591">
        <ele>769.7</ele>
        <time>2018-08-21T11:01:55Z</time>
      </trkpt>
      <trkpt lat="42.966466" lon="-1.425775">
        <ele>768.7</ele>
        <time>2018-08-21T11:02:11Z</time>
      </trkpt>
      <trkpt lat="42.966401" lon="-1.426026">
        <ele>767.3</ele>
        <time>2018-08-21T11:02:27Z</time>
      </trkpt>
      <trkpt lat="42.966369" lon="-1.426236">
        <ele>765.8</ele>
        <time>2018-08-21T11:02:41Z</time>
      </trkpt>
      <trkpt lat="42.966276" lon="-1.426488">
        <ele>763.4</ele>
        <time>2018-08-21T11:02:59Z</time>
      </trkpt>
      <trkpt lat="42.966170" lon="-1.426694">
        <ele>762.0</ele>
        <time>2018-08-21T11:03:16Z</time>
      </trkpt>
      <trkpt lat="42.966091" lon="-1.426901">
        <ele>760.5</ele>
        <time>2018-08-21T11:03:32Z</time>
      </trkpt>
      <trkpt lat="42.966089" lon="-1.427061">
        <ele>759.6</ele>
        <time>2018-08-21T11:03:45Z</time>
      </trkpt>
      <trkpt lat="42.966040" lon="-1.427261">
        <ele>758.6</ele>
        <time>2018-08-21T11:04:00Z</time>
      </trkpt>
      <trkpt lat="42.966005" lon="-1.427373">
        <ele>759.1</ele>
        <time>2018-08-21T11:04:13Z</time>
      </trkpt>
      <trkpt lat="42.965939" lon="-1.427590">
        <ele>758.1</ele>
        <time>2018-08-21T11:04:28Z</time>
      </trkpt>
      <trkpt lat="42.965865" lon="-1.427844">
        <ele>757.2</ele>
        <time>2018-08-21T11:04:44Z</time>
      </trkpt>
      <trkpt lat="42.965773" lon="-1.428074">
        <ele>757.2</ele>
        <time>2018-08-21T11:05:01Z</time>
      </trkpt>
      <trkpt lat="42.965663" lon="-1.428252">
        <ele>756.7</ele>
        <time>2018-08-21T11:05:16Z</time>
      </trkpt>
      <trkpt lat="42.965641" lon="-1.428401">
        <ele>755.2</ele>
        <time>2018-08-21T11:05:30Z</time>
      </trkpt>
      <trkpt lat="42.965670" lon="-1.428449">
        <ele>755.2</ele>
        <time>2018-08-21T11:05:37Z</time>
      </trkpt>
      <trkpt lat="42.965771" lon="-1.428599">
        <ele>755.2</ele>
        <time>2018-08-21T11:05:54Z</time>
      </trkpt>
      <trkpt lat="42.965909" lon="-1.428764">
        <ele>755.7</ele>
        <time>2018-08-21T11:06:08Z</time>
      </trkpt>
      <trkpt lat="42.965896" lon="-1.428872">
        <ele>755.7</ele>
        <time>2018-08-21T11:06:20Z</time>
      </trkpt>
      <trkpt lat="42.965901" lon="-1.428918">
        <ele>756.7</ele>
        <time>2018-08-21T11:06:24Z</time>
      </trkpt>
      <trkpt lat="42.965830" lon="-1.429120">
        <ele>756.7</ele>
        <time>2018-08-21T11:06:39Z</time>
      </trkpt>
      <trkpt lat="42.965736" lon="-1.429323">
        <ele>754.8</ele>
        <time>2018-08-21T11:06:54Z</time>
      </trkpt>
      <trkpt lat="42.965654" lon="-1.429509">
        <ele>753.8</ele>
        <time>2018-08-21T11:07:08Z</time>
      </trkpt>
      <trkpt lat="42.965634" lon="-1.429560">
        <ele>753.8</ele>
        <time>2018-08-21T11:07:12Z</time>
      </trkpt>
      <trkpt lat="42.965555" lon="-1.429817">
        <ele>753.3</ele>
        <time>2018-08-21T11:07:28Z</time>
      </trkpt>
      <trkpt lat="42.965503" lon="-1.430064">
        <ele>753.3</ele>
        <time>2018-08-21T11:07:44Z</time>
      </trkpt>
      <trkpt lat="42.965452" lon="-1.430310">
        <ele>752.4</ele>
        <time>2018-08-21T11:08:00Z</time>
      </trkpt>
      <trkpt lat="42.965402" lon="-1.430582">
        <ele>751.9</ele>
        <time>2018-08-21T11:08:17Z</time>
      </trkpt>
      <trkpt lat="42.965350" lon="-1.430866">
        <ele>750.9</ele>
        <time>2018-08-21T11:08:34Z</time>
      </trkpt>
      <trkpt lat="42.965311" lon="-1.431059">
        <ele>750.5</ele>
        <time>2018-08-21T11:08:47Z</time>
      </trkpt>
      <trkpt lat="42.965239" lon="-1.431300">
        <ele>750.9</ele>
        <time>2018-08-21T11:09:03Z</time>
      </trkpt>
      <trkpt lat="42.965131" lon="-1.431539">
        <ele>750.0</ele>
        <time>2018-08-21T11:09:20Z</time>
      </trkpt>
      <trkpt lat="42.965037" lon="-1.431755">
        <ele>749.5</ele>
        <time>2018-08-21T11:09:35Z</time>
      </trkpt>
      <trkpt lat="42.964927" lon="-1.432003">
        <ele>749.0</ele>
        <time>2018-08-21T11:09:53Z</time>
      </trkpt>
      <trkpt lat="42.964902" lon="-1.432055">
        <ele>749.0</ele>
        <time>2018-08-21T11:09:57Z</time>
      </trkpt>
      <trkpt lat="42.964846" lon="-1.432157">
        <ele>748.0</ele>
        <time>2018-08-21T11:10:04Z</time>
      </trkpt>
      <trkpt lat="42.964697" lon="-1.432349">
        <ele>748.0</ele>
        <time>2018-08-21T11:10:21Z</time>
      </trkpt>
      <trkpt lat="42.964568" lon="-1.432555">
        <ele>749.5</ele>
        <time>2018-08-21T11:10:37Z</time>
      </trkpt>
      <trkpt lat="42.964457" lon="-1.432791">
        <ele>749.5</ele>
        <time>2018-08-21T11:10:54Z</time>
      </trkpt>
      <trkpt lat="42.964367" lon="-1.432980">
        <ele>749.5</ele>
        <time>2018-08-21T11:11:08Z</time>
      </trkpt>
      <trkpt lat="42.964310" lon="-1.433068">
        <ele>749.5</ele>
        <time>2018-08-21T11:11:15Z</time>
      </trkpt>
      <trkpt lat="42.964266" lon="-1.433151">
        <ele>750.0</ele>
        <time>2018-08-21T11:11:21Z</time>
      </trkpt>
      <trkpt lat="42.964206" lon="-1.433256">
        <ele>750.0</ele>
        <time>2018-08-21T11:11:29Z</time>
      </trkpt>
      <trkpt lat="42.964132" lon="-1.433397">
        <ele>751.4</ele>
        <time>2018-08-21T11:11:40Z</time>
      </trkpt>
      <trkpt lat="42.964119" lon="-1.433418">
        <ele>751.4</ele>
        <time>2018-08-21T11:11:42Z</time>
      </trkpt>
      <trkpt lat="42.964107" lon="-1.433441">
        <ele>751.4</ele>
        <time>2018-08-21T11:11:44Z</time>
      </trkpt>
      <trkpt lat="42.964094" lon="-1.433460">
        <ele>751.9</ele>
        <time>2018-08-21T11:11:46Z</time>
      </trkpt>
      <trkpt lat="42.964071" lon="-1.433512">
        <ele>752.4</ele>
        <time>2018-08-21T11:11:50Z</time>
      </trkpt>
      <trkpt lat="42.964066" lon="-1.433540">
        <ele>752.4</ele>
        <time>2018-08-21T11:11:52Z</time>
      </trkpt>
      <trkpt lat="42.964045" lon="-1.433608">
        <ele>753.3</ele>
        <time>2018-08-21T11:11:57Z</time>
      </trkpt>
      <trkpt lat="42.964028" lon="-1.433686">
        <ele>753.8</ele>
        <time>2018-08-21T11:12:02Z</time>
      </trkpt>
      <trkpt lat="42.963937" lon="-1.433903">
        <ele>753.3</ele>
        <time>2018-08-21T11:12:19Z</time>
      </trkpt>
      <trkpt lat="42.963829" lon="-1.434124">
        <ele>751.4</ele>
        <time>2018-08-21T11:12:36Z</time>
      </trkpt>
      <trkpt lat="42.963824" lon="-1.434133">
        <ele>751.9</ele>
        <time>2018-08-21T11:12:37Z</time>
      </trkpt>
      <trkpt lat="42.963718" lon="-1.434342">
        <ele>749.0</ele>
        <time>2018-08-21T11:12:54Z</time>
      </trkpt>
      <trkpt lat="42.963673" lon="-1.434436">
        <ele>747.6</ele>
        <time>2018-08-21T11:13:02Z</time>
      </trkpt>
      <trkpt lat="42.963625" lon="-1.434627">
        <ele>745.6</ele>
        <time>2018-08-21T11:13:15Z</time>
      </trkpt>
      <trkpt lat="42.963581" lon="-1.434878">
        <ele>743.2</ele>
        <time>2018-08-21T11:13:32Z</time>
      </trkpt>
      <trkpt lat="42.963582" lon="-1.435033">
        <ele>741.3</ele>
        <time>2018-08-21T11:13:42Z</time>
      </trkpt>
      <trkpt lat="42.963611" lon="-1.435244">
        <ele>740.8</ele>
        <time>2018-08-21T11:13:56Z</time>
      </trkpt>
      <trkpt lat="42.963614" lon="-1.435513">
        <ele>740.3</ele>
        <time>2018-08-21T11:14:12Z</time>
      </trkpt>
      <trkpt lat="42.963589" lon="-1.435625">
        <ele>739.9</ele>
        <time>2018-08-21T11:14:19Z</time>
      </trkpt>
      <trkpt lat="42.963482" lon="-1.435791">
        <ele>739.9</ele>
        <time>2018-08-21T11:14:33Z</time>
      </trkpt>
      <trkpt lat="42.963334" lon="-1.436004">
        <ele>739.4</ele>
        <time>2018-08-21T11:14:51Z</time>
      </trkpt>
      <trkpt lat="42.963318" lon="-1.436025">
        <ele>739.4</ele>
        <time>2018-08-21T11:14:53Z</time>
      </trkpt>
      <trkpt lat="42.963179" lon="-1.436259">
        <ele>739.4</ele>
        <time>2018-08-21T11:15:10Z</time>
      </trkpt>
      <trkpt lat="42.963069" lon="-1.436529">
        <ele>738.9</ele>
        <time>2018-08-21T11:15:27Z</time>
      </trkpt>
      <trkpt lat="42.962992" lon="-1.436678">
        <ele>738.0</ele>
        <time>2018-08-21T11:15:37Z</time>
      </trkpt>
      <trkpt lat="42.962962" lon="-1.436732">
        <ele>738.0</ele>
        <time>2018-08-21T11:15:41Z</time>
      </trkpt>
      <trkpt lat="42.962938" lon="-1.436846">
        <ele>738.9</ele>
        <time>2018-08-21T11:15:49Z</time>
      </trkpt>
      <trkpt lat="42.962932" lon="-1.436878">
        <ele>738.4</ele>
        <time>2018-08-21T11:15:51Z</time>
      </trkpt>
      <trkpt lat="42.962910" lon="-1.436984">
        <ele>738.4</ele>
        <time>2018-08-21T11:15:57Z</time>
      </trkpt>
      <trkpt lat="42.962849" lon="-1.437263">
        <ele>738.9</ele>
        <time>2018-08-21T11:16:14Z</time>
      </trkpt>
      <trkpt lat="42.962790" lon="-1.437504">
        <ele>738.4</ele>
        <time>2018-08-21T11:16:28Z</time>
      </trkpt>
      <trkpt lat="42.962715" lon="-1.437669">
        <ele>739.4</ele>
        <time>2018-08-21T11:16:40Z</time>
      </trkpt>
      <trkpt lat="42.962641" lon="-1.437718">
        <ele>738.9</ele>
        <time>2018-08-21T11:16:53Z</time>
      </trkpt>
      <trkpt lat="42.962460" lon="-1.437698">
        <ele>739.9</ele>
        <time>2018-08-21T11:17:53Z</time>
      </trkpt>
      <trkpt lat="42.962411" lon="-1.437711">
        <ele>739.9</ele>
        <time>2018-08-21T11:17:57Z</time>
      </trkpt>
      <trkpt lat="42.962334" lon="-1.437773">
        <ele>740.3</ele>
        <time>2018-08-21T11:18:08Z</time>
      </trkpt>
      <trkpt lat="42.962247" lon="-1.437879">
        <ele>741.3</ele>
        <time>2018-08-21T11:19:00Z</time>
      </trkpt>
      <trkpt lat="42.962216" lon="-1.437942">
        <ele>741.3</ele>
        <time>2018-08-21T11:19:06Z</time>
      </trkpt>
      <trkpt lat="42.962198" lon="-1.438099">
        <ele>742.8</ele>
        <time>2018-08-21T11:19:15Z</time>
      </trkpt>
      <trkpt lat="42.962178" lon="-1.438187">
        <ele>743.2</ele>
        <time>2018-08-21T11:19:21Z</time>
      </trkpt>
      <trkpt lat="42.962103" lon="-1.438411">
        <ele>744.2</ele>
        <time>2018-08-21T11:19:37Z</time>
      </trkpt>
      <trkpt lat="42.962025" lon="-1.438582">
        <ele>746.1</ele>
        <time>2018-08-21T11:19:50Z</time>
      </trkpt>
      <trkpt lat="42.962020" lon="-1.438595">
        <ele>746.1</ele>
        <time>2018-08-21T11:19:51Z</time>
      </trkpt>
      <trkpt lat="42.962022" lon="-1.438623">
        <ele>746.6</ele>
        <time>2018-08-21T11:19:53Z</time>
      </trkpt>
      <trkpt lat="42.962005" lon="-1.438745">
        <ele>747.6</ele>
        <time>2018-08-21T11:20:01Z</time>
      </trkpt>
      <trkpt lat="42.961991" lon="-1.438774">
        <ele>747.6</ele>
        <time>2018-08-21T11:20:03Z</time>
      </trkpt>
      <trkpt lat="42.961944" lon="-1.438928">
        <ele>749.0</ele>
        <time>2018-08-21T11:20:14Z</time>
      </trkpt>
      <trkpt lat="42.961932" lon="-1.438995">
        <ele>749.0</ele>
        <time>2018-08-21T11:20:19Z</time>
      </trkpt>
      <trkpt lat="42.961902" lon="-1.439160">
        <ele>750.5</ele>
        <time>2018-08-21T11:20:30Z</time>
      </trkpt>
      <trkpt lat="42.961892" lon="-1.439206">
        <ele>750.9</ele>
        <time>2018-08-21T11:20:33Z</time>
      </trkpt>
      <trkpt lat="42.961850" lon="-1.439444">
        <ele>752.4</ele>
        <time>2018-08-21T11:20:48Z</time>
      </trkpt>
      <trkpt lat="42.961841" lon="-1.439503">
        <ele>752.8</ele>
        <time>2018-08-21T11:20:52Z</time>
      </trkpt>
      <trkpt lat="42.961831" lon="-1.439569">
        <ele>753.3</ele>
        <time>2018-08-21T11:20:56Z</time>
      </trkpt>
      <trkpt lat="42.961823" lon="-1.439593">
        <ele>753.8</ele>
        <time>2018-08-21T11:20:58Z</time>
      </trkpt>
      <trkpt lat="42.961792" lon="-1.439793">
        <ele>756.2</ele>
        <time>2018-08-21T11:21:13Z</time>
      </trkpt>
      <trkpt lat="42.961787" lon="-1.439811">
        <ele>756.2</ele>
        <time>2018-08-21T11:21:14Z</time>
      </trkpt>
      <trkpt lat="42.961777" lon="-1.439840">
        <ele>756.7</ele>
        <time>2018-08-21T11:21:16Z</time>
      </trkpt>
      <trkpt lat="42.961775" lon="-1.439873">
        <ele>756.7</ele>
        <time>2018-08-21T11:21:18Z</time>
      </trkpt>
      <trkpt lat="42.961765" lon="-1.439952">
        <ele>757.7</ele>
        <time>2018-08-21T11:21:24Z</time>
      </trkpt>
      <trkpt lat="42.961743" lon="-1.440095">
        <ele>760.5</ele>
        <time>2018-08-21T11:21:36Z</time>
      </trkpt>
      <trkpt lat="42.961736" lon="-1.440120">
        <ele>760.5</ele>
        <time>2018-08-21T11:21:38Z</time>
      </trkpt>
      <trkpt lat="42.961721" lon="-1.440190">
        <ele>761.5</ele>
        <time>2018-08-21T11:21:44Z</time>
      </trkpt>
      <trkpt lat="42.961704" lon="-1.440256">
        <ele>762.5</ele>
        <time>2018-08-21T11:21:50Z</time>
      </trkpt>
      <trkpt lat="42.961672" lon="-1.440325">
        <ele>763.9</ele>
        <time>2018-08-21T11:21:56Z</time>
      </trkpt>
      <trkpt lat="42.961665" lon="-1.440352">
        <ele>763.9</ele>
        <time>2018-08-21T11:21:58Z</time>
      </trkpt>
      <trkpt lat="42.961649" lon="-1.440435">
        <ele>764.9</ele>
        <time>2018-08-21T11:22:05Z</time>
      </trkpt>
      <trkpt lat="42.961641" lon="-1.440511">
        <ele>766.3</ele>
        <time>2018-08-21T11:22:11Z</time>
      </trkpt>
      <trkpt lat="42.961621" lon="-1.440616">
        <ele>768.2</ele>
        <time>2018-08-21T11:22:21Z</time>
      </trkpt>
      <trkpt lat="42.961603" lon="-1.440710">
        <ele>769.2</ele>
        <time>2018-08-21T11:22:29Z</time>
      </trkpt>
      <trkpt lat="42.961590" lon="-1.440749">
        <ele>770.2</ele>
        <time>2018-08-21T11:22:33Z</time>
      </trkpt>
      <trkpt lat="42.961550" lon="-1.440906">
        <ele>771.6</ele>
        <time>2018-08-21T11:22:46Z</time>
      </trkpt>
      <trkpt lat="42.961533" lon="-1.440975">
        <ele>772.6</ele>
        <time>2018-08-21T11:22:51Z</time>
      </trkpt>
      <trkpt lat="42.961526" lon="-1.441005">
        <ele>772.6</ele>
        <time>2018-08-21T11:22:53Z</time>
      </trkpt>
      <trkpt lat="42.961515" lon="-1.441077">
        <ele>773.5</ele>
        <time>2018-08-21T11:22:58Z</time>
      </trkpt>
      <trkpt lat="42.961482" lon="-1.441169">
        <ele>774.5</ele>
        <time>2018-08-21T11:23:04Z</time>
      </trkpt>
      <trkpt lat="42.961403" lon="-1.441365">
        <ele>775.0</ele>
        <time>2018-08-21T11:23:18Z</time>
      </trkpt>
      <trkpt lat="42.961358" lon="-1.441495">
        <ele>775.9</ele>
        <time>2018-08-21T11:23:27Z</time>
      </trkpt>
      <trkpt lat="42.961335" lon="-1.441597">
        <ele>777.4</ele>
        <time>2018-08-21T11:23:35Z</time>
      </trkpt>
      <trkpt lat="42.961274" lon="-1.441753">
        <ele>777.8</ele>
        <time>2018-08-21T11:23:46Z</time>
      </trkpt>
      <trkpt lat="42.961259" lon="-1.441809">
        <ele>778.3</ele>
        <time>2018-08-21T11:23:50Z</time>
      </trkpt>
      <trkpt lat="42.961238" lon="-1.442045">
        <ele>779.3</ele>
        <time>2018-08-21T11:24:06Z</time>
      </trkpt>
      <trkpt lat="42.961236" lon="-1.442170">
        <ele>780.2</ele>
        <time>2018-08-21T11:24:14Z</time>
      </trkpt>
      <trkpt lat="42.961225" lon="-1.442336">
        <ele>781.7</ele>
        <time>2018-08-21T11:24:26Z</time>
      </trkpt>
      <trkpt lat="42.961199" lon="-1.442520">
        <ele>784.1</ele>
        <time>2018-08-21T11:24:40Z</time>
      </trkpt>
      <trkpt lat="42.961188" lon="-1.442611">
        <ele>785.0</ele>
        <time>2018-08-21T11:24:48Z</time>
      </trkpt>
      <trkpt lat="42.961181" lon="-1.442678">
        <ele>785.5</ele>
        <time>2018-08-21T11:24:53Z</time>
      </trkpt>
      <trkpt lat="42.961176" lon="-1.442734">
        <ele>786.5</ele>
        <time>2018-08-21T11:24:58Z</time>
      </trkpt>
      <trkpt lat="42.961166" lon="-1.442846">
        <ele>787.5</ele>
        <time>2018-08-21T11:25:11Z</time>
      </trkpt>
      <trkpt lat="42.961169" lon="-1.442829">
        <ele>788.4</ele>
        <time>2018-08-21T11:25:16Z</time>
      </trkpt>
      <trkpt lat="42.961102" lon="-1.442826">
        <ele>787.9</ele>
        <time>2018-08-21T11:25:22Z</time>
      </trkpt>
      <trkpt lat="42.961071" lon="-1.442844">
        <ele>787.9</ele>
        <time>2018-08-21T11:25:25Z</time>
      </trkpt>
      <trkpt lat="42.961027" lon="-1.442941">
        <ele>787.9</ele>
        <time>2018-08-21T11:25:38Z</time>
      </trkpt>
      <trkpt lat="42.961025" lon="-1.442949">
        <ele>788.4</ele>
        <time>2018-08-21T11:25:41Z</time>
      </trkpt>
      <trkpt lat="42.961004" lon="-1.443013">
        <ele>788.9</ele>
        <time>2018-08-21T11:25:46Z</time>
      </trkpt>
      <trkpt lat="42.960995" lon="-1.443115">
        <ele>788.9</ele>
        <time>2018-08-21T11:25:51Z</time>
      </trkpt>
      <trkpt lat="42.960982" lon="-1.443186">
        <ele>789.9</ele>
        <time>2018-08-21T11:25:56Z</time>
      </trkpt>
      <trkpt lat="42.960959" lon="-1.443289">
        <ele>790.3</ele>
        <time>2018-08-21T11:26:04Z</time>
      </trkpt>
      <trkpt lat="42.960909" lon="-1.443466">
        <ele>791.8</ele>
        <time>2018-08-21T11:26:17Z</time>
      </trkpt>
      <trkpt lat="42.960907" lon="-1.443494">
        <ele>791.8</ele>
        <time>2018-08-21T11:26:19Z</time>
      </trkpt>
      <trkpt lat="42.960910" lon="-1.443633">
        <ele>793.7</ele>
        <time>2018-08-21T11:26:32Z</time>
      </trkpt>
      <trkpt lat="42.960909" lon="-1.443656">
        <ele>793.7</ele>
        <time>2018-08-21T11:26:34Z</time>
      </trkpt>
      <trkpt lat="42.960909" lon="-1.443716">
        <ele>794.7</ele>
        <time>2018-08-21T11:26:39Z</time>
      </trkpt>
      <trkpt lat="42.960895" lon="-1.443818">
        <ele>796.6</ele>
        <time>2018-08-21T11:26:50Z</time>
      </trkpt>
      <trkpt lat="42.960891" lon="-1.443900">
        <ele>797.5</ele>
        <time>2018-08-21T11:26:57Z</time>
      </trkpt>
      <trkpt lat="42.960908" lon="-1.443942">
        <ele>799.0</ele>
        <time>2018-08-21T11:27:01Z</time>
      </trkpt>
      <trkpt lat="42.960929" lon="-1.444024">
        <ele>800.0</ele>
        <time>2018-08-21T11:27:12Z</time>
      </trkpt>
      <trkpt lat="42.960935" lon="-1.444077">
        <ele>800.4</ele>
        <time>2018-08-21T11:27:16Z</time>
      </trkpt>
      <trkpt lat="42.960950" lon="-1.444198">
        <ele>801.4</ele>
        <time>2018-08-21T11:27:28Z</time>
      </trkpt>
      <trkpt lat="42.960950" lon="-1.444268">
        <ele>802.4</ele>
        <time>2018-08-21T11:27:37Z</time>
      </trkpt>
      <trkpt lat="42.960949" lon="-1.444281">
        <ele>802.8</ele>
        <time>2018-08-21T11:27:38Z</time>
      </trkpt>
      <trkpt lat="42.960944" lon="-1.444325">
        <ele>803.8</ele>
        <time>2018-08-21T11:27:44Z</time>
      </trkpt>
      <trkpt lat="42.960939" lon="-1.444451">
        <ele>805.2</ele>
        <time>2018-08-21T11:27:58Z</time>
      </trkpt>
      <trkpt lat="42.960936" lon="-1.444474">
        <ele>806.2</ele>
        <time>2018-08-21T11:28:01Z</time>
      </trkpt>
      <trkpt lat="42.960902" lon="-1.444549">
        <ele>807.6</ele>
        <time>2018-08-21T11:28:11Z</time>
      </trkpt>
      <trkpt lat="42.960885" lon="-1.444654">
        <ele>808.6</ele>
        <time>2018-08-21T11:28:24Z</time>
      </trkpt>
      <trkpt lat="42.960842" lon="-1.444703">
        <ele>809.6</ele>
        <time>2018-08-21T11:28:39Z</time>
      </trkpt>
      <trkpt lat="42.960829" lon="-1.444754">
        <ele>811.0</ele>
        <time>2018-08-21T11:28:46Z</time>
      </trkpt>
      <trkpt lat="42.960801" lon="-1.444830">
        <ele>811.5</ele>
        <time>2018-08-21T11:28:51Z</time>
      </trkpt>
      <trkpt lat="42.960740" lon="-1.444937">
        <ele>812.9</ele>
        <time>2018-08-21T11:29:05Z</time>
      </trkpt>
      <trkpt lat="42.960670" lon="-1.445002">
        <ele>813.9</ele>
        <time>2018-08-21T11:29:19Z</time>
      </trkpt>
      <trkpt lat="42.960619" lon="-1.445106">
        <ele>814.8</ele>
        <time>2018-08-21T11:29:30Z</time>
      </trkpt>
      <trkpt lat="42.960601" lon="-1.445245">
        <ele>816.3</ele>
        <time>2018-08-21T11:29:39Z</time>
      </trkpt>
      <trkpt lat="42.960565" lon="-1.445394">
        <ele>817.7</ele>
        <time>2018-08-21T11:29:53Z</time>
      </trkpt>
      <trkpt lat="42.960535" lon="-1.445484">
        <ele>818.7</ele>
        <time>2018-08-21T11:30:02Z</time>
      </trkpt>
      <trkpt lat="42.960515" lon="-1.445626">
        <ele>819.7</ele>
        <time>2018-08-21T11:30:15Z</time>
      </trkpt>
      <trkpt lat="42.960508" lon="-1.445733">
        <ele>821.1</ele>
        <time>2018-08-21T11:30:24Z</time>
      </trkpt>
      <trkpt lat="42.960501" lon="-1.445826">
        <ele>822.1</ele>
        <time>2018-08-21T11:30:33Z</time>
      </trkpt>
      <trkpt lat="42.960464" lon="-1.445924">
        <ele>823.5</ele>
        <time>2018-08-21T11:30:44Z</time>
      </trkpt>
      <trkpt lat="42.960447" lon="-1.446022">
        <ele>825.0</ele>
        <time>2018-08-21T11:30:56Z</time>
      </trkpt>
      <trkpt lat="42.960416" lon="-1.446144">
        <ele>826.9</ele>
        <time>2018-08-21T11:31:09Z</time>
      </trkpt>
      <trkpt lat="42.960385" lon="-1.446212">
        <ele>827.3</ele>
        <time>2018-08-21T11:31:19Z</time>
      </trkpt>
      <trkpt lat="42.960351" lon="-1.446313">
        <ele>829.3</ele>
        <time>2018-08-21T11:31:30Z</time>
      </trkpt>
      <trkpt lat="42.960331" lon="-1.446519">
        <ele>832.2</ele>
        <time>2018-08-21T11:31:54Z</time>
      </trkpt>
      <trkpt lat="42.960339" lon="-1.446636">
        <ele>833.6</ele>
        <time>2018-08-21T11:32:07Z</time>
      </trkpt>
      <trkpt lat="42.960325" lon="-1.446784">
        <ele>835.5</ele>
        <time>2018-08-21T11:32:21Z</time>
      </trkpt>
      <trkpt lat="42.960256" lon="-1.447004">
        <ele>835.5</ele>
        <time>2018-08-21T11:32:39Z</time>
      </trkpt>
      <trkpt lat="42.960228" lon="-1.447123">
        <ele>834.6</ele>
        <time>2018-08-21T11:32:48Z</time>
      </trkpt>
      <trkpt lat="42.960116" lon="-1.447344">
        <ele>834.1</ele>
        <time>2018-08-21T11:33:03Z</time>
      </trkpt>
      <trkpt lat="42.960007" lon="-1.447561">
        <ele>833.1</ele>
        <time>2018-08-21T11:33:19Z</time>
      </trkpt>
      <trkpt lat="42.959933" lon="-1.447833">
        <ele>833.6</ele>
        <time>2018-08-21T11:33:35Z</time>
      </trkpt>
      <trkpt lat="42.959899" lon="-1.448109">
        <ele>832.6</ele>
        <time>2018-08-21T11:33:52Z</time>
      </trkpt>
      <trkpt lat="42.959882" lon="-1.448251">
        <ele>832.6</ele>
        <time>2018-08-21T11:34:02Z</time>
      </trkpt>
      <trkpt lat="42.959910" lon="-1.448452">
        <ele>831.7</ele>
        <time>2018-08-21T11:34:15Z</time>
      </trkpt>
      <trkpt lat="42.960010" lon="-1.448641">
        <ele>832.2</ele>
        <time>2018-08-21T11:34:31Z</time>
      </trkpt>
      <trkpt lat="42.960083" lon="-1.448852">
        <ele>833.6</ele>
        <time>2018-08-21T11:34:44Z</time>
      </trkpt>
      <trkpt lat="42.960087" lon="-1.449046">
        <ele>834.6</ele>
        <time>2018-08-21T11:34:56Z</time>
      </trkpt>
      <trkpt lat="42.960099" lon="-1.449190">
        <ele>835.5</ele>
        <time>2018-08-21T11:35:08Z</time>
      </trkpt>
      <trkpt lat="42.960112" lon="-1.449335">
        <ele>836.5</ele>
        <time>2018-08-21T11:35:19Z</time>
      </trkpt>
      <trkpt lat="42.960167" lon="-1.449480">
        <ele>837.9</ele>
        <time>2018-08-21T11:35:32Z</time>
      </trkpt>
      <trkpt lat="42.960237" lon="-1.449639">
        <ele>838.9</ele>
        <time>2018-08-21T11:35:46Z</time>
      </trkpt>
      <trkpt lat="42.960274" lon="-1.449782">
        <ele>839.4</ele>
        <time>2018-08-21T11:35:58Z</time>
      </trkpt>
      <trkpt lat="42.960330" lon="-1.449968">
        <ele>841.3</ele>
        <time>2018-08-21T11:36:13Z</time>
      </trkpt>
      <trkpt lat="42.960391" lon="-1.450113">
        <ele>840.3</ele>
        <time>2018-08-21T11:36:28Z</time>
      </trkpt>
      <trkpt lat="42.960430" lon="-1.450157">
        <ele>839.8</ele>
        <time>2018-08-21T11:36:32Z</time>
      </trkpt>
      <trkpt lat="42.960587" lon="-1.450253">
        <ele>840.3</ele>
        <time>2018-08-21T11:36:47Z</time>
      </trkpt>
      <trkpt lat="42.960711" lon="-1.450346">
        <ele>840.3</ele>
        <time>2018-08-21T11:36:58Z</time>
      </trkpt>
      <trkpt lat="42.960821" lon="-1.450438">
        <ele>840.8</ele>
        <time>2018-08-21T11:37:09Z</time>
      </trkpt>
      <trkpt lat="42.960862" lon="-1.450459">
        <ele>840.3</ele>
        <time>2018-08-21T11:37:13Z</time>
      </trkpt>
      <trkpt lat="42.960917" lon="-1.450453">
        <ele>841.3</ele>
        <time>2018-08-21T11:37:18Z</time>
      </trkpt>
      <trkpt lat="42.961033" lon="-1.450646">
        <ele>841.8</ele>
        <time>2018-08-21T11:37:32Z</time>
      </trkpt>
      <trkpt lat="42.961118" lon="-1.450779">
        <ele>842.2</ele>
        <time>2018-08-21T11:37:43Z</time>
      </trkpt>
      <trkpt lat="42.961157" lon="-1.450839">
        <ele>843.2</ele>
        <time>2018-08-21T11:37:48Z</time>
      </trkpt>
      <trkpt lat="42.961227" lon="-1.450999">
        <ele>844.2</ele>
        <time>2018-08-21T11:38:00Z</time>
      </trkpt>
      <trkpt lat="42.961234" lon="-1.451038">
        <ele>844.2</ele>
        <time>2018-08-21T11:38:03Z</time>
      </trkpt>
      <trkpt lat="42.961250" lon="-1.451068">
        <ele>844.7</ele>
        <time>2018-08-21T11:38:06Z</time>
      </trkpt>
      <trkpt lat="42.961259" lon="-1.451116">
        <ele>845.1</ele>
        <time>2018-08-21T11:38:10Z</time>
      </trkpt>
      <trkpt lat="42.961255" lon="-1.451146">
        <ele>845.6</ele>
        <time>2018-08-21T11:38:12Z</time>
      </trkpt>
      <trkpt lat="42.961261" lon="-1.451194">
        <ele>845.6</ele>
        <time>2018-08-21T11:38:16Z</time>
      </trkpt>
      <trkpt lat="42.961274" lon="-1.451255">
        <ele>846.1</ele>
        <time>2018-08-21T11:38:21Z</time>
      </trkpt>
      <trkpt lat="42.961311" lon="-1.451441">
        <ele>847.1</ele>
        <time>2018-08-21T11:38:34Z</time>
      </trkpt>
      <trkpt lat="42.961319" lon="-1.451533">
        <ele>847.1</ele>
        <time>2018-08-21T11:38:40Z</time>
      </trkpt>
      <trkpt lat="42.961316" lon="-1.451597">
        <ele>846.6</ele>
        <time>2018-08-21T11:38:44Z</time>
      </trkpt>
      <trkpt lat="42.961238" lon="-1.451845">
        <ele>846.6</ele>
        <time>2018-08-21T11:39:01Z</time>
      </trkpt>
      <trkpt lat="42.961220" lon="-1.451895">
        <ele>846.6</ele>
        <time>2018-08-21T11:39:06Z</time>
      </trkpt>
      <trkpt lat="42.961096" lon="-1.452054">
        <ele>846.1</ele>
        <time>2018-08-21T11:39:19Z</time>
      </trkpt>
      <trkpt lat="42.961063" lon="-1.452127">
        <ele>846.6</ele>
        <time>2018-08-21T11:39:24Z</time>
      </trkpt>
      <trkpt lat="42.960936" lon="-1.452277">
        <ele>846.1</ele>
        <time>2018-08-21T11:39:38Z</time>
      </trkpt>
      <trkpt lat="42.960799" lon="-1.452448">
        <ele>845.6</ele>
        <time>2018-08-21T11:39:52Z</time>
      </trkpt>
      <trkpt lat="42.960751" lon="-1.452485">
        <ele>842.2</ele>
        <time>2018-08-21T11:39:58Z</time>
      </trkpt>
      <trkpt lat="42.960741" lon="-1.452487">
        <ele>845.6</ele>
        <time>2018-08-21T11:39:59Z</time>
      </trkpt>
      <trkpt lat="42.960705" lon="-1.452488">
        <ele>844.2</ele>
        <time>2018-08-21T11:40:02Z</time>
      </trkpt>
      <trkpt lat="42.960630" lon="-1.452497">
        <ele>844.2</ele>
        <time>2018-08-21T11:40:08Z</time>
      </trkpt>
      <trkpt lat="42.960511" lon="-1.452518">
        <ele>842.7</ele>
        <time>2018-08-21T11:40:21Z</time>
      </trkpt>
      <trkpt lat="42.960364" lon="-1.452560">
        <ele>841.3</ele>
        <time>2018-08-21T11:40:35Z</time>
      </trkpt>
      <trkpt lat="42.960215" lon="-1.452626">
        <ele>840.3</ele>
        <time>2018-08-21T11:40:50Z</time>
      </trkpt>
      <trkpt lat="42.960056" lon="-1.452665">
        <ele>839.4</ele>
        <time>2018-08-21T11:41:04Z</time>
      </trkpt>
      <trkpt lat="42.959911" lon="-1.452695">
        <ele>837.9</ele>
        <time>2018-08-21T11:41:18Z</time>
      </trkpt>
      <trkpt lat="42.959759" lon="-1.452713">
        <ele>837.0</ele>
        <time>2018-08-21T11:41:34Z</time>
      </trkpt>
      <trkpt lat="42.959626" lon="-1.452731">
        <ele>835.5</ele>
        <time>2018-08-21T11:41:48Z</time>
      </trkpt>
      <trkpt lat="42.959504" lon="-1.452693">
        <ele>835.0</ele>
        <time>2018-08-21T11:42:02Z</time>
      </trkpt>
      <trkpt lat="42.959354" lon="-1.452686">
        <ele>834.1</ele>
        <time>2018-08-21T11:42:17Z</time>
      </trkpt>
      <trkpt lat="42.959142" lon="-1.452737">
        <ele>834.1</ele>
        <time>2018-08-21T11:42:36Z</time>
      </trkpt>
      <trkpt lat="42.958968" lon="-1.452838">
        <ele>833.6</ele>
        <time>2018-08-21T11:42:54Z</time>
      </trkpt>
      <trkpt lat="42.958895" lon="-1.452981">
        <ele>833.6</ele>
        <time>2018-08-21T11:43:38Z</time>
      </trkpt>
      <trkpt lat="42.958828" lon="-1.453038">
        <ele>833.1</ele>
        <time>2018-08-21T11:43:55Z</time>
      </trkpt>
      <trkpt lat="42.958782" lon="-1.453092">
        <ele>833.6</ele>
        <time>2018-08-21T11:44:02Z</time>
      </trkpt>
      <trkpt lat="42.958652" lon="-1.453322">
        <ele>833.6</ele>
        <time>2018-08-21T11:44:18Z</time>
      </trkpt>
      <trkpt lat="42.958606" lon="-1.453558">
        <ele>834.1</ele>
        <time>2018-08-21T11:44:32Z</time>
      </trkpt>
      <trkpt lat="42.958593" lon="-1.453810">
        <ele>834.6</ele>
        <time>2018-08-21T11:44:48Z</time>
      </trkpt>
      <trkpt lat="42.958623" lon="-1.454018">
        <ele>835.5</ele>
        <time>2018-08-21T11:45:04Z</time>
      </trkpt>
      <trkpt lat="42.958633" lon="-1.454133">
        <ele>836.5</ele>
        <time>2018-08-21T11:45:15Z</time>
      </trkpt>
      <trkpt lat="42.958672" lon="-1.454315">
        <ele>837.5</ele>
        <time>2018-08-21T11:45:29Z</time>
      </trkpt>
      <trkpt lat="42.958689" lon="-1.454542">
        <ele>837.0</ele>
        <time>2018-08-21T11:45:44Z</time>
      </trkpt>
      <trkpt lat="42.958675" lon="-1.454783">
        <ele>836.0</ele>
        <time>2018-08-21T11:45:58Z</time>
      </trkpt>
      <trkpt lat="42.958591" lon="-1.454910">
        <ele>834.6</ele>
        <time>2018-08-21T11:46:15Z</time>
      </trkpt>
      <trkpt lat="42.958531" lon="-1.454897">
        <ele>832.6</ele>
        <time>2018-08-21T11:46:26Z</time>
      </trkpt>
      <trkpt lat="42.958509" lon="-1.454874">
        <ele>832.2</ele>
        <time>2018-08-21T11:46:29Z</time>
      </trkpt>
      <trkpt lat="42.958411" lon="-1.454868">
        <ele>831.7</ele>
        <time>2018-08-21T11:46:39Z</time>
      </trkpt>
      <trkpt lat="42.958227" lon="-1.454860">
        <ele>830.2</ele>
        <time>2018-08-21T11:46:54Z</time>
      </trkpt>
      <trkpt lat="42.958029" lon="-1.454835">
        <ele>828.3</ele>
        <time>2018-08-21T11:47:11Z</time>
      </trkpt>
      <trkpt lat="42.957863" lon="-1.454797">
        <ele>825.9</ele>
        <time>2018-08-21T11:47:26Z</time>
      </trkpt>
      <trkpt lat="42.957692" lon="-1.454828">
        <ele>824.0</ele>
        <time>2018-08-21T11:47:41Z</time>
      </trkpt>
      <trkpt lat="42.957547" lon="-1.454816">
        <ele>824.0</ele>
        <time>2018-08-21T11:47:55Z</time>
      </trkpt>
      <trkpt lat="42.957374" lon="-1.454825">
        <ele>823.0</ele>
        <time>2018-08-21T11:48:09Z</time>
      </trkpt>
      <trkpt lat="42.957204" lon="-1.454803">
        <ele>823.0</ele>
        <time>2018-08-21T11:48:25Z</time>
      </trkpt>
      <trkpt lat="42.957048" lon="-1.454765">
        <ele>822.5</ele>
        <time>2018-08-21T11:48:39Z</time>
      </trkpt>
      <trkpt lat="42.956923" lon="-1.454752">
        <ele>822.5</ele>
        <time>2018-08-21T11:48:54Z</time>
      </trkpt>
      <trkpt lat="42.956694" lon="-1.454786">
        <ele>822.1</ele>
        <time>2018-08-21T11:49:11Z</time>
      </trkpt>
      <trkpt lat="42.956489" lon="-1.454809">
        <ele>823.5</ele>
        <time>2018-08-21T11:49:27Z</time>
      </trkpt>
      <trkpt lat="42.956286" lon="-1.454830">
        <ele>823.5</ele>
        <time>2018-08-21T11:49:43Z</time>
      </trkpt>
      <trkpt lat="42.956118" lon="-1.454847">
        <ele>824.5</ele>
        <time>2018-08-21T11:49:58Z</time>
      </trkpt>
      <trkpt lat="42.956020" lon="-1.454874">
        <ele>824.5</ele>
        <time>2018-08-21T11:50:07Z</time>
      </trkpt>
      <trkpt lat="42.955940" lon="-1.454945">
        <ele>824.5</ele>
        <time>2018-08-21T11:50:19Z</time>
      </trkpt>
      <trkpt lat="42.955850" lon="-1.455072">
        <ele>825.0</ele>
        <time>2018-08-21T11:50:33Z</time>
      </trkpt>
      <trkpt lat="42.955738" lon="-1.455250">
        <ele>825.4</ele>
        <time>2018-08-21T11:50:50Z</time>
      </trkpt>
      <trkpt lat="42.955722" lon="-1.455274">
        <ele>825.4</ele>
        <time>2018-08-21T11:50:52Z</time>
      </trkpt>
      <trkpt lat="42.955659" lon="-1.455342">
        <ele>825.9</ele>
        <time>2018-08-21T11:50:57Z</time>
      </trkpt>
      <trkpt lat="42.955623" lon="-1.455382">
        <ele>825.9</ele>
        <time>2018-08-21T11:51:00Z</time>
      </trkpt>
      <trkpt lat="42.955534" lon="-1.455548">
        <ele>826.9</ele>
        <time>2018-08-21T11:51:12Z</time>
      </trkpt>
      <trkpt lat="42.955485" lon="-1.455729">
        <ele>828.8</ele>
        <time>2018-08-21T11:51:25Z</time>
      </trkpt>
      <trkpt lat="42.955478" lon="-1.455760">
        <ele>828.8</ele>
        <time>2018-08-21T11:51:27Z</time>
      </trkpt>
      <trkpt lat="42.955475" lon="-1.455793">
        <ele>828.3</ele>
        <time>2018-08-21T11:51:29Z</time>
      </trkpt>
      <trkpt lat="42.955469" lon="-1.455824">
        <ele>828.8</ele>
        <time>2018-08-21T11:51:31Z</time>
      </trkpt>
      <trkpt lat="42.955451" lon="-1.456003">
        <ele>830.2</ele>
        <time>2018-08-21T11:51:44Z</time>
      </trkpt>
      <trkpt lat="42.955433" lon="-1.456206">
        <ele>830.7</ele>
        <time>2018-08-21T11:51:59Z</time>
      </trkpt>
      <trkpt lat="42.955413" lon="-1.456310">
        <ele>830.2</ele>
        <time>2018-08-21T11:52:11Z</time>
      </trkpt>
      <trkpt lat="42.955397" lon="-1.456476">
        <ele>829.8</ele>
        <time>2018-08-21T11:52:25Z</time>
      </trkpt>
      <trkpt lat="42.955359" lon="-1.456627">
        <ele>829.3</ele>
        <time>2018-08-21T11:52:39Z</time>
      </trkpt>
      <trkpt lat="42.955307" lon="-1.456794">
        <ele>827.8</ele>
        <time>2018-08-21T11:52:51Z</time>
      </trkpt>
      <trkpt lat="42.955214" lon="-1.456979">
        <ele>826.9</ele>
        <time>2018-08-21T11:53:06Z</time>
      </trkpt>
      <trkpt lat="42.955096" lon="-1.457129">
        <ele>826.9</ele>
        <time>2018-08-21T11:53:21Z</time>
      </trkpt>
      <trkpt lat="42.954982" lon="-1.457256">
        <ele>825.4</ele>
        <time>2018-08-21T11:53:35Z</time>
      </trkpt>
      <trkpt lat="42.954813" lon="-1.457393">
        <ele>825.4</ele>
        <time>2018-08-21T11:53:52Z</time>
      </trkpt>
      <trkpt lat="42.954681" lon="-1.457583">
        <ele>825.0</ele>
        <time>2018-08-21T11:54:08Z</time>
      </trkpt>
      <trkpt lat="42.954547" lon="-1.457723">
        <ele>824.0</ele>
        <time>2018-08-21T11:54:23Z</time>
      </trkpt>
      <trkpt lat="42.954542" lon="-1.457742">
        <ele>818.2</ele>
        <time>2018-08-21T11:54:25Z</time>
      </trkpt>
      <trkpt lat="42.954537" lon="-1.457751">
        <ele>818.2</ele>
        <time>2018-08-21T11:54:26Z</time>
      </trkpt>
      <trkpt lat="42.954530" lon="-1.457762">
        <ele>829.3</ele>
        <time>2018-08-21T11:54:27Z</time>
      </trkpt>
      <trkpt lat="42.954525" lon="-1.457772">
        <ele>825.0</ele>
        <time>2018-08-21T11:54:28Z</time>
      </trkpt>
      <trkpt lat="42.954512" lon="-1.457794">
        <ele>824.0</ele>
        <time>2018-08-21T11:54:30Z</time>
      </trkpt>
      <trkpt lat="42.954413" lon="-1.457932">
        <ele>822.5</ele>
        <time>2018-08-21T11:54:45Z</time>
      </trkpt>
      <trkpt lat="42.954390" lon="-1.457960">
        <ele>825.9</ele>
        <time>2018-08-21T11:54:49Z</time>
      </trkpt>
      <trkpt lat="42.954385" lon="-1.457968">
        <ele>823.0</ele>
        <time>2018-08-21T11:54:50Z</time>
      </trkpt>
      <trkpt lat="42.954271" lon="-1.458165">
        <ele>824.0</ele>
        <time>2018-08-21T11:55:08Z</time>
      </trkpt>
      <trkpt lat="42.954085" lon="-1.458369">
        <ele>823.0</ele>
        <time>2018-08-21T11:55:30Z</time>
      </trkpt>
      <trkpt lat="42.953989" lon="-1.458486">
        <ele>823.0</ele>
        <time>2018-08-21T11:55:43Z</time>
      </trkpt>
      <trkpt lat="42.953877" lon="-1.458604">
        <ele>823.5</ele>
        <time>2018-08-21T11:55:58Z</time>
      </trkpt>
      <trkpt lat="42.953765" lon="-1.458685">
        <ele>824.5</ele>
        <time>2018-08-21T11:56:10Z</time>
      </trkpt>
      <trkpt lat="42.953696" lon="-1.458837">
        <ele>825.0</ele>
        <time>2018-08-21T11:56:24Z</time>
      </trkpt>
      <trkpt lat="42.953708" lon="-1.459052">
        <ele>823.5</ele>
        <time>2018-08-21T11:56:40Z</time>
      </trkpt>
      <trkpt lat="42.953744" lon="-1.459308">
        <ele>820.6</ele>
        <time>2018-08-21T11:56:55Z</time>
      </trkpt>
      <trkpt lat="42.953773" lon="-1.459449">
        <ele>819.7</ele>
        <time>2018-08-21T11:57:05Z</time>
      </trkpt>
      <trkpt lat="42.953802" lon="-1.459692">
        <ele>818.2</ele>
        <time>2018-08-21T11:57:19Z</time>
      </trkpt>
      <trkpt lat="42.953814" lon="-1.459738">
        <ele>817.7</ele>
        <time>2018-08-21T11:57:22Z</time>
      </trkpt>
      <trkpt lat="42.953862" lon="-1.459948">
        <ele>816.3</ele>
        <time>2018-08-21T11:57:36Z</time>
      </trkpt>
      <trkpt lat="42.953866" lon="-1.459962">
        <ele>816.3</ele>
        <time>2018-08-21T11:57:37Z</time>
      </trkpt>
      <trkpt lat="42.953902" lon="-1.460022">
        <ele>815.3</ele>
        <time>2018-08-21T11:57:42Z</time>
      </trkpt>
      <trkpt lat="42.953901" lon="-1.460204">
        <ele>815.3</ele>
        <time>2018-08-21T11:57:56Z</time>
      </trkpt>
      <trkpt lat="42.953860" lon="-1.460385">
        <ele>816.3</ele>
        <time>2018-08-21T11:58:09Z</time>
      </trkpt>
      <trkpt lat="42.953855" lon="-1.460619">
        <ele>817.3</ele>
        <time>2018-08-21T11:58:25Z</time>
      </trkpt>
      <trkpt lat="42.953877" lon="-1.460769">
        <ele>817.7</ele>
        <time>2018-08-21T11:58:37Z</time>
      </trkpt>
      <trkpt lat="42.953889" lon="-1.460955">
        <ele>818.7</ele>
        <time>2018-08-21T11:58:51Z</time>
      </trkpt>
      <trkpt lat="42.953888" lon="-1.460975">
        <ele>819.2</ele>
        <time>2018-08-21T11:58:53Z</time>
      </trkpt>
      <trkpt lat="42.953900" lon="-1.461070">
        <ele>819.7</ele>
        <time>2018-08-21T11:58:59Z</time>
      </trkpt>
      <trkpt lat="42.953905" lon="-1.461154">
        <ele>820.1</ele>
        <time>2018-08-21T11:59:05Z</time>
      </trkpt>
      <trkpt lat="42.953908" lon="-1.461298">
        <ele>820.6</ele>
        <time>2018-08-21T11:59:15Z</time>
      </trkpt>
      <trkpt lat="42.953898" lon="-1.461426">
        <ele>821.1</ele>
        <time>2018-08-21T11:59:24Z</time>
      </trkpt>
      <trkpt lat="42.953883" lon="-1.461452">
        <ele>821.6</ele>
        <time>2018-08-21T11:59:26Z</time>
      </trkpt>
      <trkpt lat="42.953877" lon="-1.461478">
        <ele>821.6</ele>
        <time>2018-08-21T11:59:28Z</time>
      </trkpt>
      <trkpt lat="42.953810" lon="-1.461684">
        <ele>821.6</ele>
        <time>2018-08-21T11:59:42Z</time>
      </trkpt>
      <trkpt lat="42.953732" lon="-1.461901">
        <ele>822.1</ele>
        <time>2018-08-21T11:59:57Z</time>
      </trkpt>
      <trkpt lat="42.953686" lon="-1.462195">
        <ele>822.1</ele>
        <time>2018-08-21T12:00:16Z</time>
      </trkpt>
      <trkpt lat="42.953617" lon="-1.462418">
        <ele>822.1</ele>
        <time>2018-08-21T12:00:31Z</time>
      </trkpt>
      <trkpt lat="42.953623" lon="-1.462419">
        <ele>822.1</ele>
        <time>2018-08-21T12:00:45Z</time>
      </trkpt>
      <trkpt lat="42.953618" lon="-1.462472">
        <ele>821.6</ele>
        <time>2018-08-21T12:01:01Z</time>
      </trkpt>
      <trkpt lat="42.953613" lon="-1.462510">
        <ele>821.6</ele>
        <time>2018-08-21T12:01:04Z</time>
      </trkpt>
      <trkpt lat="42.953590" lon="-1.462758">
        <ele>822.5</ele>
        <time>2018-08-21T12:01:20Z</time>
      </trkpt>
      <trkpt lat="42.953586" lon="-1.462784">
        <ele>823.0</ele>
        <time>2018-08-21T12:01:22Z</time>
      </trkpt>
      <trkpt lat="42.953517" lon="-1.462916">
        <ele>824.0</ele>
        <time>2018-08-21T12:01:34Z</time>
      </trkpt>
      <trkpt lat="42.953396" lon="-1.463072">
        <ele>824.5</ele>
        <time>2018-08-21T12:01:49Z</time>
      </trkpt>
      <trkpt lat="42.953287" lon="-1.463179">
        <ele>825.4</ele>
        <time>2018-08-21T12:02:01Z</time>
      </trkpt>
      <trkpt lat="42.953276" lon="-1.463184">
        <ele>825.0</ele>
        <time>2018-08-21T12:02:02Z</time>
      </trkpt>
      <trkpt lat="42.953173" lon="-1.463298">
        <ele>824.0</ele>
        <time>2018-08-21T12:02:14Z</time>
      </trkpt>
      <trkpt lat="42.953099" lon="-1.463425">
        <ele>822.5</ele>
        <time>2018-08-21T12:02:24Z</time>
      </trkpt>
      <trkpt lat="42.952981" lon="-1.463528">
        <ele>821.6</ele>
        <time>2018-08-21T12:02:38Z</time>
      </trkpt>
      <trkpt lat="42.952866" lon="-1.463671">
        <ele>820.1</ele>
        <time>2018-08-21T12:02:53Z</time>
      </trkpt>
      <trkpt lat="42.952753" lon="-1.463804">
        <ele>817.7</ele>
        <time>2018-08-21T12:03:10Z</time>
      </trkpt>
      <trkpt lat="42.952644" lon="-1.463994">
        <ele>819.2</ele>
        <time>2018-08-21T12:03:26Z</time>
      </trkpt>
      <trkpt lat="42.952520" lon="-1.464163">
        <ele>819.2</ele>
        <time>2018-08-21T12:03:42Z</time>
      </trkpt>
      <trkpt lat="42.952482" lon="-1.464191">
        <ele>818.7</ele>
        <time>2018-08-21T12:03:46Z</time>
      </trkpt>
      <trkpt lat="42.952394" lon="-1.464293">
        <ele>819.2</ele>
        <time>2018-08-21T12:03:56Z</time>
      </trkpt>
      <trkpt lat="42.952359" lon="-1.464335">
        <ele>819.2</ele>
        <time>2018-08-21T12:04:00Z</time>
      </trkpt>
      <trkpt lat="42.952333" lon="-1.464373">
        <ele>819.2</ele>
        <time>2018-08-21T12:04:03Z</time>
      </trkpt>
      <trkpt lat="42.952246" lon="-1.464541">
        <ele>819.2</ele>
        <time>2018-08-21T12:04:18Z</time>
      </trkpt>
      <trkpt lat="42.952113" lon="-1.464668">
        <ele>818.2</ele>
        <time>2018-08-21T12:04:32Z</time>
      </trkpt>
      <trkpt lat="42.951989" lon="-1.464720">
        <ele>818.7</ele>
        <time>2018-08-21T12:04:43Z</time>
      </trkpt>
      <trkpt lat="42.951853" lon="-1.464809">
        <ele>817.7</ele>
        <time>2018-08-21T12:04:56Z</time>
      </trkpt>
      <trkpt lat="42.951705" lon="-1.464869">
        <ele>817.7</ele>
        <time>2018-08-21T12:05:10Z</time>
      </trkpt>
      <trkpt lat="42.951554" lon="-1.464946">
        <ele>817.7</ele>
        <time>2018-08-21T12:05:23Z</time>
      </trkpt>
      <trkpt lat="42.951441" lon="-1.465064">
        <ele>818.2</ele>
        <time>2018-08-21T12:05:34Z</time>
      </trkpt>
      <trkpt lat="42.951306" lon="-1.465122">
        <ele>818.7</ele>
        <time>2018-08-21T12:05:48Z</time>
      </trkpt>
      <trkpt lat="42.951232" lon="-1.465115">
        <ele>818.7</ele>
        <time>2018-08-21T12:06:01Z</time>
      </trkpt>
      <trkpt lat="42.951218" lon="-1.465066">
        <ele>818.2</ele>
        <time>2018-08-21T12:06:12Z</time>
      </trkpt>
      <trkpt lat="42.951107" lon="-1.465009">
        <ele>819.7</ele>
        <time>2018-08-21T12:06:24Z</time>
      </trkpt>
      <trkpt lat="42.951015" lon="-1.464947">
        <ele>821.6</ele>
        <time>2018-08-21T12:07:09Z</time>
      </trkpt>
      <trkpt lat="42.950961" lon="-1.464896">
        <ele>823.0</ele>
        <time>2018-08-21T12:07:15Z</time>
      </trkpt>
      <trkpt lat="42.950839" lon="-1.464786">
        <ele>825.0</ele>
        <time>2018-08-21T12:07:25Z</time>
      </trkpt>
      <trkpt lat="42.950835" lon="-1.464772">
        <ele>825.4</ele>
        <time>2018-08-21T12:07:26Z</time>
      </trkpt>
      <trkpt lat="42.950751" lon="-1.464648">
        <ele>826.4</ele>
        <time>2018-08-21T12:07:38Z</time>
      </trkpt>
      <trkpt lat="42.950681" lon="-1.464559">
        <ele>827.8</ele>
        <time>2018-08-21T12:07:50Z</time>
      </trkpt>
      <trkpt lat="42.950622" lon="-1.464494">
        <ele>828.8</ele>
        <time>2018-08-21T12:08:01Z</time>
      </trkpt>
      <trkpt lat="42.950578" lon="-1.464449">
        <ele>829.8</ele>
        <time>2018-08-21T12:08:13Z</time>
      </trkpt>
      <trkpt lat="42.950571" lon="-1.464442">
        <ele>829.8</ele>
        <time>2018-08-21T12:08:14Z</time>
      </trkpt>
      <trkpt lat="42.950494" lon="-1.464384">
        <ele>831.7</ele>
        <time>2018-08-21T12:08:26Z</time>
      </trkpt>
      <trkpt lat="42.950433" lon="-1.464306">
        <ele>832.6</ele>
        <time>2018-08-21T12:08:37Z</time>
      </trkpt>
      <trkpt lat="42.950370" lon="-1.464206">
        <ele>833.6</ele>
        <time>2018-08-21T12:08:50Z</time>
      </trkpt>
      <trkpt lat="42.950332" lon="-1.464137">
        <ele>835.0</ele>
        <time>2018-08-21T12:08:59Z</time>
      </trkpt>
      <trkpt lat="42.950317" lon="-1.464065">
        <ele>835.0</ele>
        <time>2018-08-21T12:09:07Z</time>
      </trkpt>
      <trkpt lat="42.950300" lon="-1.464038">
        <ele>836.0</ele>
        <time>2018-08-21T12:09:10Z</time>
      </trkpt>
      <trkpt lat="42.950283" lon="-1.464002">
        <ele>836.5</ele>
        <time>2018-08-21T12:09:14Z</time>
      </trkpt>
      <trkpt lat="42.950248" lon="-1.463894">
        <ele>837.0</ele>
        <time>2018-08-21T12:09:24Z</time>
      </trkpt>
      <trkpt lat="42.950245" lon="-1.463830">
        <ele>837.9</ele>
        <time>2018-08-21T12:09:29Z</time>
      </trkpt>
      <trkpt lat="42.950203" lon="-1.463704">
        <ele>839.4</ele>
        <time>2018-08-21T12:09:42Z</time>
      </trkpt>
      <trkpt lat="42.950122" lon="-1.463611">
        <ele>840.3</ele>
        <time>2018-08-21T12:09:56Z</time>
      </trkpt>
      <trkpt lat="42.950041" lon="-1.463660">
        <ele>842.2</ele>
        <time>2018-08-21T12:10:07Z</time>
      </trkpt>
      <trkpt lat="42.949984" lon="-1.463772">
        <ele>843.2</ele>
        <time>2018-08-21T12:10:21Z</time>
      </trkpt>
      <trkpt lat="42.949918" lon="-1.463907">
        <ele>844.2</ele>
        <time>2018-08-21T12:10:37Z</time>
      </trkpt>
      <trkpt lat="42.949847" lon="-1.464058">
        <ele>845.6</ele>
        <time>2018-08-21T12:10:53Z</time>
      </trkpt>
      <trkpt lat="42.949805" lon="-1.464225">
        <ele>846.1</ele>
        <time>2018-08-21T12:11:08Z</time>
      </trkpt>
      <trkpt lat="42.949755" lon="-1.464358">
        <ele>847.5</ele>
        <time>2018-08-21T12:11:22Z</time>
      </trkpt>
      <trkpt lat="42.949719" lon="-1.464499">
        <ele>849.0</ele>
        <time>2018-08-21T12:11:34Z</time>
      </trkpt>
      <trkpt lat="42.949640" lon="-1.464696">
        <ele>848.5</ele>
        <time>2018-08-21T12:11:48Z</time>
      </trkpt>
      <trkpt lat="42.949561" lon="-1.464899">
        <ele>848.0</ele>
        <time>2018-08-21T12:12:03Z</time>
      </trkpt>
      <trkpt lat="42.949551" lon="-1.464947">
        <ele>847.5</ele>
        <time>2018-08-21T12:12:06Z</time>
      </trkpt>
      <trkpt lat="42.949485" lon="-1.465202">
        <ele>847.5</ele>
        <time>2018-08-21T12:12:23Z</time>
      </trkpt>
      <trkpt lat="42.949410" lon="-1.465391">
        <ele>847.5</ele>
        <time>2018-08-21T12:12:39Z</time>
      </trkpt>
      <trkpt lat="42.949296" lon="-1.465557">
        <ele>847.1</ele>
        <time>2018-08-21T12:12:56Z</time>
      </trkpt>
      <trkpt lat="42.949200" lon="-1.465752">
        <ele>847.1</ele>
        <time>2018-08-21T12:13:13Z</time>
      </trkpt>
      <trkpt lat="42.949116" lon="-1.465917">
        <ele>846.1</ele>
        <time>2018-08-21T12:13:28Z</time>
      </trkpt>
      <trkpt lat="42.949007" lon="-1.466059">
        <ele>846.1</ele>
        <time>2018-08-21T12:13:44Z</time>
      </trkpt>
      <trkpt lat="42.948894" lon="-1.466213">
        <ele>845.6</ele>
        <time>2018-08-21T12:14:00Z</time>
      </trkpt>
      <trkpt lat="42.948793" lon="-1.466369">
        <ele>845.1</ele>
        <time>2018-08-21T12:14:15Z</time>
      </trkpt>
      <trkpt lat="42.948684" lon="-1.466462">
        <ele>843.7</ele>
        <time>2018-08-21T12:14:29Z</time>
      </trkpt>
      <trkpt lat="42.948565" lon="-1.466574">
        <ele>843.7</ele>
        <time>2018-08-21T12:14:45Z</time>
      </trkpt>
      <trkpt lat="42.948519" lon="-1.466627">
        <ele>843.7</ele>
        <time>2018-08-21T12:15:04Z</time>
      </trkpt>
      <trkpt lat="42.948540" lon="-1.466585">
        <ele>844.2</ele>
        <time>2018-08-21T12:15:23Z</time>
      </trkpt>
      <trkpt lat="42.948485" lon="-1.466710">
        <ele>844.7</ele>
        <time>2018-08-21T12:15:37Z</time>
      </trkpt>
      <trkpt lat="42.948363" lon="-1.466834">
        <ele>845.1</ele>
        <time>2018-08-21T12:15:51Z</time>
      </trkpt>
      <trkpt lat="42.948266" lon="-1.466905">
        <ele>844.7</ele>
        <time>2018-08-21T12:16:06Z</time>
      </trkpt>
      <trkpt lat="42.948164" lon="-1.466986">
        <ele>844.2</ele>
        <time>2018-08-21T12:16:20Z</time>
      </trkpt>
      <trkpt lat="42.948049" lon="-1.467049">
        <ele>844.2</ele>
        <time>2018-08-21T12:16:35Z</time>
      </trkpt>
      <trkpt lat="42.948023" lon="-1.467049">
        <ele>844.7</ele>
        <time>2018-08-21T12:17:01Z</time>
      </trkpt>
      <trkpt lat="42.947975" lon="-1.467064">
        <ele>844.2</ele>
        <time>2018-08-21T12:17:08Z</time>
      </trkpt>
      <trkpt lat="42.947835" lon="-1.467116">
        <ele>844.7</ele>
        <time>2018-08-21T12:17:28Z</time>
      </trkpt>
      <trkpt lat="42.947763" lon="-1.467176">
        <ele>843.2</ele>
        <time>2018-08-21T12:17:41Z</time>
      </trkpt>
      <trkpt lat="42.947655" lon="-1.467221">
        <ele>841.8</ele>
        <time>2018-08-21T12:17:54Z</time>
      </trkpt>
      <trkpt lat="42.947561" lon="-1.467284">
        <ele>841.3</ele>
        <time>2018-08-21T12:18:07Z</time>
      </trkpt>
      <trkpt lat="42.947451" lon="-1.467342">
        <ele>839.8</ele>
        <time>2018-08-21T12:18:22Z</time>
      </trkpt>
      <trkpt lat="42.947331" lon="-1.467422">
        <ele>838.9</ele>
        <time>2018-08-21T12:18:37Z</time>
      </trkpt>
      <trkpt lat="42.947205" lon="-1.467481">
        <ele>837.5</ele>
        <time>2018-08-21T12:18:52Z</time>
      </trkpt>
      <trkpt lat="42.947095" lon="-1.467531">
        <ele>837.0</ele>
        <time>2018-08-21T12:19:06Z</time>
      </trkpt>
      <trkpt lat="42.947078" lon="-1.467535">
        <ele>837.0</ele>
        <time>2018-08-21T12:19:08Z</time>
      </trkpt>
      <trkpt lat="42.946942" lon="-1.467576">
        <ele>837.0</ele>
        <time>2018-08-21T12:19:23Z</time>
      </trkpt>
      <trkpt lat="42.946814" lon="-1.467590">
        <ele>836.0</ele>
        <time>2018-08-21T12:19:39Z</time>
      </trkpt>
      <trkpt lat="42.946695" lon="-1.467632">
        <ele>836.5</ele>
        <time>2018-08-21T12:19:56Z</time>
      </trkpt>
      <trkpt lat="42.946572" lon="-1.467673">
        <ele>836.0</ele>
        <time>2018-08-21T12:20:10Z</time>
      </trkpt>
      <trkpt lat="42.946470" lon="-1.467710">
        <ele>836.5</ele>
        <time>2018-08-21T12:20:25Z</time>
      </trkpt>
      <trkpt lat="42.946386" lon="-1.467724">
        <ele>836.0</ele>
        <time>2018-08-21T12:20:48Z</time>
      </trkpt>
      <trkpt lat="42.946246" lon="-1.467780">
        <ele>835.5</ele>
        <time>2018-08-21T12:21:02Z</time>
      </trkpt>
      <trkpt lat="42.946145" lon="-1.467819">
        <ele>834.1</ele>
        <time>2018-08-21T12:21:16Z</time>
      </trkpt>
      <trkpt lat="42.946132" lon="-1.467817">
        <ele>834.1</ele>
        <time>2018-08-21T12:21:18Z</time>
      </trkpt>
      <trkpt lat="42.946044" lon="-1.467831">
        <ele>833.1</ele>
        <time>2018-08-21T12:21:31Z</time>
      </trkpt>
      <trkpt lat="42.945962" lon="-1.467861">
        <ele>831.7</ele>
        <time>2018-08-21T12:21:43Z</time>
      </trkpt>
      <trkpt lat="42.945919" lon="-1.467862">
        <ele>831.2</ele>
        <time>2018-08-21T12:21:48Z</time>
      </trkpt>
      <trkpt lat="42.945796" lon="-1.467888">
        <ele>830.2</ele>
        <time>2018-08-21T12:22:02Z</time>
      </trkpt>
      <trkpt lat="42.945715" lon="-1.467894">
        <ele>828.3</ele>
        <time>2018-08-21T12:22:13Z</time>
      </trkpt>
      <trkpt lat="42.945677" lon="-1.467902">
        <ele>827.8</ele>
        <time>2018-08-21T12:22:18Z</time>
      </trkpt>
      <trkpt lat="42.945596" lon="-1.467926">
        <ele>827.3</ele>
        <time>2018-08-21T12:22:30Z</time>
      </trkpt>
      <trkpt lat="42.945575" lon="-1.467979">
        <ele>826.4</ele>
        <time>2018-08-21T12:22:34Z</time>
      </trkpt>
      <trkpt lat="42.945536" lon="-1.468087">
        <ele>825.4</ele>
        <time>2018-08-21T12:22:47Z</time>
      </trkpt>
      <trkpt lat="42.945468" lon="-1.468185">
        <ele>824.0</ele>
        <time>2018-08-21T12:22:57Z</time>
      </trkpt>
      <trkpt lat="42.945345" lon="-1.468331">
        <ele>823.5</ele>
        <time>2018-08-21T12:23:13Z</time>
      </trkpt>
      <trkpt lat="42.945242" lon="-1.468444">
        <ele>822.5</ele>
        <time>2018-08-21T12:23:27Z</time>
      </trkpt>
      <trkpt lat="42.945080" lon="-1.468571">
        <ele>821.6</ele>
        <time>2018-08-21T12:23:46Z</time>
      </trkpt>
      <trkpt lat="42.945011" lon="-1.468617">
        <ele>821.1</ele>
        <time>2018-08-21T12:23:52Z</time>
      </trkpt>
      <trkpt lat="42.944981" lon="-1.468637">
        <ele>821.1</ele>
        <time>2018-08-21T12:23:55Z</time>
      </trkpt>
      <trkpt lat="42.944826" lon="-1.468735">
        <ele>820.1</ele>
        <time>2018-08-21T12:24:12Z</time>
      </trkpt>
      <trkpt lat="42.944679" lon="-1.468837">
        <ele>819.7</ele>
        <time>2018-08-21T12:24:28Z</time>
      </trkpt>
      <trkpt lat="42.944558" lon="-1.468919">
        <ele>819.7</ele>
        <time>2018-08-21T12:24:41Z</time>
      </trkpt>
      <trkpt lat="42.944470" lon="-1.468962">
        <ele>819.2</ele>
        <time>2018-08-21T12:24:49Z</time>
      </trkpt>
      <trkpt lat="42.944322" lon="-1.469020">
        <ele>818.2</ele>
        <time>2018-08-21T12:25:04Z</time>
      </trkpt>
      <trkpt lat="42.944140" lon="-1.469072">
        <ele>818.2</ele>
        <time>2018-08-21T12:25:19Z</time>
      </trkpt>
      <trkpt lat="42.943976" lon="-1.469146">
        <ele>817.3</ele>
        <time>2018-08-21T12:25:36Z</time>
      </trkpt>
      <trkpt lat="42.943792" lon="-1.469211">
        <ele>817.3</ele>
        <time>2018-08-21T12:25:54Z</time>
      </trkpt>
      <trkpt lat="42.943672" lon="-1.469278">
        <ele>816.8</ele>
        <time>2018-08-21T12:26:08Z</time>
      </trkpt>
      <trkpt lat="42.943453" lon="-1.469314">
        <ele>816.3</ele>
        <time>2018-08-21T12:26:26Z</time>
      </trkpt>
      <trkpt lat="42.943266" lon="-1.469442">
        <ele>816.3</ele>
        <time>2018-08-21T12:26:42Z</time>
      </trkpt>
      <trkpt lat="42.943106" lon="-1.469540">
        <ele>816.8</ele>
        <time>2018-08-21T12:26:59Z</time>
      </trkpt>
      <trkpt lat="42.942969" lon="-1.469596">
        <ele>816.8</ele>
        <time>2018-08-21T12:27:11Z</time>
      </trkpt>
      <trkpt lat="42.942818" lon="-1.469694">
        <ele>816.3</ele>
        <time>2018-08-21T12:27:27Z</time>
      </trkpt>
      <trkpt lat="42.942670" lon="-1.469810">
        <ele>816.3</ele>
        <time>2018-08-21T12:27:44Z</time>
      </trkpt>
      <trkpt lat="42.942529" lon="-1.469926">
        <ele>814.8</ele>
        <time>2018-08-21T12:28:00Z</time>
      </trkpt>
      <trkpt lat="42.942392" lon="-1.470019">
        <ele>813.4</ele>
        <time>2018-08-21T12:28:15Z</time>
      </trkpt>
      <trkpt lat="42.942273" lon="-1.470131">
        <ele>812.5</ele>
        <time>2018-08-21T12:28:28Z</time>
      </trkpt>
      <trkpt lat="42.942126" lon="-1.470270">
        <ele>810.5</ele>
        <time>2018-08-21T12:28:45Z</time>
      </trkpt>
      <trkpt lat="42.941979" lon="-1.470378">
        <ele>808.6</ele>
        <time>2018-08-21T12:29:01Z</time>
      </trkpt>
      <trkpt lat="42.941938" lon="-1.470382">
        <ele>808.6</ele>
        <time>2018-08-21T12:29:20Z</time>
      </trkpt>
      <trkpt lat="42.941770" lon="-1.470347">
        <ele>805.7</ele>
        <time>2018-08-21T12:29:35Z</time>
      </trkpt>
      <trkpt lat="42.941751" lon="-1.470352">
        <ele>806.2</ele>
        <time>2018-08-21T12:29:37Z</time>
      </trkpt>
      <trkpt lat="42.941644" lon="-1.470438">
        <ele>805.2</ele>
        <time>2018-08-21T12:29:47Z</time>
      </trkpt>
      <trkpt lat="42.941626" lon="-1.470463">
        <ele>804.8</ele>
        <time>2018-08-21T12:29:52Z</time>
      </trkpt>
      <trkpt lat="42.941624" lon="-1.470418">
        <ele>805.2</ele>
        <time>2018-08-21T12:29:57Z</time>
      </trkpt>
      <trkpt lat="42.941476" lon="-1.470555">
        <ele>805.7</ele>
        <time>2018-08-21T12:30:13Z</time>
      </trkpt>
      <trkpt lat="42.941332" lon="-1.470699">
        <ele>805.2</ele>
        <time>2018-08-21T12:30:27Z</time>
      </trkpt>
      <trkpt lat="42.941324" lon="-1.470710">
        <ele>805.2</ele>
        <time>2018-08-21T12:30:28Z</time>
      </trkpt>
      <trkpt lat="42.941291" lon="-1.470729">
        <ele>805.7</ele>
        <time>2018-08-21T12:30:31Z</time>
      </trkpt>
      <trkpt lat="42.941245" lon="-1.470751">
        <ele>805.2</ele>
        <time>2018-08-21T12:30:35Z</time>
      </trkpt>
      <trkpt lat="42.941217" lon="-1.470774">
        <ele>805.2</ele>
        <time>2018-08-21T12:30:38Z</time>
      </trkpt>
      <trkpt lat="42.941071" lon="-1.470851">
        <ele>805.7</ele>
        <time>2018-08-21T12:30:53Z</time>
      </trkpt>
      <trkpt lat="42.940932" lon="-1.470912">
        <ele>805.2</ele>
        <time>2018-08-21T12:31:07Z</time>
      </trkpt>
      <trkpt lat="42.940750" lon="-1.471008">
        <ele>806.2</ele>
        <time>2018-08-21T12:31:25Z</time>
      </trkpt>
      <trkpt lat="42.940638" lon="-1.471060">
        <ele>805.7</ele>
        <time>2018-08-21T12:31:39Z</time>
      </trkpt>
      <trkpt lat="42.940496" lon="-1.471121">
        <ele>803.3</ele>
        <time>2018-08-21T12:31:53Z</time>
      </trkpt>
      <trkpt lat="42.940336" lon="-1.471198">
        <ele>801.4</ele>
        <time>2018-08-21T12:32:08Z</time>
      </trkpt>
      <trkpt lat="42.940185" lon="-1.471250">
        <ele>799.0</ele>
        <time>2018-08-21T12:32:25Z</time>
      </trkpt>
      <trkpt lat="42.940099" lon="-1.471305">
        <ele>797.5</ele>
        <time>2018-08-21T12:32:39Z</time>
      </trkpt>
      <trkpt lat="42.939909" lon="-1.471484">
        <ele>794.7</ele>
        <time>2018-08-21T12:34:09Z</time>
      </trkpt>
      <trkpt lat="42.939760" lon="-1.471612">
        <ele>792.7</ele>
        <time>2018-08-21T12:34:26Z</time>
      </trkpt>
      <trkpt lat="42.939681" lon="-1.471734">
        <ele>792.3</ele>
        <time>2018-08-21T12:34:44Z</time>
      </trkpt>
      <trkpt lat="42.939573" lon="-1.471862">
        <ele>790.8</ele>
        <time>2018-08-21T12:34:59Z</time>
      </trkpt>
      <trkpt lat="42.939383" lon="-1.472031">
        <ele>789.9</ele>
        <time>2018-08-21T12:35:15Z</time>
      </trkpt>
      <trkpt lat="42.939209" lon="-1.472192">
        <ele>788.9</ele>
        <time>2018-08-21T12:35:31Z</time>
      </trkpt>
      <trkpt lat="42.939072" lon="-1.472372">
        <ele>787.5</ele>
        <time>2018-08-21T12:35:48Z</time>
      </trkpt>
      <trkpt lat="42.939001" lon="-1.472505">
        <ele>786.0</ele>
        <time>2018-08-21T12:36:02Z</time>
      </trkpt>
      <trkpt lat="42.938939" lon="-1.472632">
        <ele>784.6</ele>
        <time>2018-08-21T12:36:12Z</time>
      </trkpt>
      <trkpt lat="42.938900" lon="-1.472690">
        <ele>783.6</ele>
        <time>2018-08-21T12:36:19Z</time>
      </trkpt>
      <trkpt lat="42.938765" lon="-1.472818">
        <ele>781.7</ele>
        <time>2018-08-21T12:36:35Z</time>
      </trkpt>
      <trkpt lat="42.938677" lon="-1.472952">
        <ele>780.7</ele>
        <time>2018-08-21T12:36:50Z</time>
      </trkpt>
      <trkpt lat="42.938584" lon="-1.473118">
        <ele>779.3</ele>
        <time>2018-08-21T12:37:04Z</time>
      </trkpt>
      <trkpt lat="42.938493" lon="-1.473282">
        <ele>777.4</ele>
        <time>2018-08-21T12:37:19Z</time>
      </trkpt>
      <trkpt lat="42.938394" lon="-1.473414">
        <ele>776.9</ele>
        <time>2018-08-21T12:37:32Z</time>
      </trkpt>
      <trkpt lat="42.938347" lon="-1.473609">
        <ele>775.0</ele>
        <time>2018-08-21T12:37:45Z</time>
      </trkpt>
      <trkpt lat="42.938293" lon="-1.473752">
        <ele>774.0</ele>
        <time>2018-08-21T12:37:56Z</time>
      </trkpt>
      <trkpt lat="42.938204" lon="-1.473915">
        <ele>774.0</ele>
        <time>2018-08-21T12:38:11Z</time>
      </trkpt>
      <trkpt lat="42.938142" lon="-1.474053">
        <ele>773.5</ele>
        <time>2018-08-21T12:38:24Z</time>
      </trkpt>
      <trkpt lat="42.938103" lon="-1.474142">
        <ele>772.6</ele>
        <time>2018-08-21T12:38:42Z</time>
      </trkpt>
      <trkpt lat="42.938129" lon="-1.474239">
        <ele>772.6</ele>
        <time>2018-08-21T12:38:58Z</time>
      </trkpt>
      <trkpt lat="42.938050" lon="-1.474440">
        <ele>772.6</ele>
        <time>2018-08-21T12:39:13Z</time>
      </trkpt>
      <trkpt lat="42.938001" lon="-1.474596">
        <ele>772.1</ele>
        <time>2018-08-21T12:39:24Z</time>
      </trkpt>
      <trkpt lat="42.937915" lon="-1.474775">
        <ele>772.1</ele>
        <time>2018-08-21T12:39:38Z</time>
      </trkpt>
      <trkpt lat="42.937891" lon="-1.475049">
        <ele>772.1</ele>
        <time>2018-08-21T12:39:51Z</time>
      </trkpt>
      <trkpt lat="42.937838" lon="-1.475194">
        <ele>772.6</ele>
        <time>2018-08-21T12:40:01Z</time>
      </trkpt>
      <trkpt lat="42.937735" lon="-1.475446">
        <ele>774.5</ele>
        <time>2018-08-21T12:40:18Z</time>
      </trkpt>
      <trkpt lat="42.937729" lon="-1.475586">
        <ele>775.4</ele>
        <time>2018-08-21T12:40:31Z</time>
      </trkpt>
      <trkpt lat="42.937707" lon="-1.475772">
        <ele>775.4</ele>
        <time>2018-08-21T12:40:46Z</time>
      </trkpt>
      <trkpt lat="42.937659" lon="-1.475965">
        <ele>775.9</ele>
        <time>2018-08-21T12:41:00Z</time>
      </trkpt>
      <trkpt lat="42.937623" lon="-1.476156">
        <ele>776.4</ele>
        <time>2018-08-21T12:41:14Z</time>
      </trkpt>
      <trkpt lat="42.937629" lon="-1.476329">
        <ele>776.9</ele>
        <time>2018-08-21T12:41:26Z</time>
      </trkpt>
      <trkpt lat="42.937602" lon="-1.476516">
        <ele>776.9</ele>
        <time>2018-08-21T12:41:40Z</time>
      </trkpt>
      <trkpt lat="42.937581" lon="-1.476710">
        <ele>778.3</ele>
        <time>2018-08-21T12:41:53Z</time>
      </trkpt>
      <trkpt lat="42.937577" lon="-1.476789">
        <ele>778.3</ele>
        <time>2018-08-21T12:41:58Z</time>
      </trkpt>
      <trkpt lat="42.937512" lon="-1.477016">
        <ele>779.3</ele>
        <time>2018-08-21T12:42:13Z</time>
      </trkpt>
      <trkpt lat="42.937481" lon="-1.477152">
        <ele>780.7</ele>
        <time>2018-08-21T12:42:25Z</time>
      </trkpt>
      <trkpt lat="42.937502" lon="-1.477239">
        <ele>780.2</ele>
        <time>2018-08-21T12:42:32Z</time>
      </trkpt>
      <trkpt lat="42.937504" lon="-1.477234">
        <ele>780.2</ele>
        <time>2018-08-21T12:42:43Z</time>
      </trkpt>
      <trkpt lat="42.937515" lon="-1.477344">
        <ele>780.2</ele>
        <time>2018-08-21T12:42:57Z</time>
      </trkpt>
      <trkpt lat="42.937545" lon="-1.477490">
        <ele>780.2</ele>
        <time>2018-08-21T12:43:11Z</time>
      </trkpt>
      <trkpt lat="42.937554" lon="-1.477694">
        <ele>779.3</ele>
        <time>2018-08-21T12:43:27Z</time>
      </trkpt>
      <trkpt lat="42.937585" lon="-1.477882">
        <ele>778.8</ele>
        <time>2018-08-21T12:43:37Z</time>
      </trkpt>
      <trkpt lat="42.937591" lon="-1.477948">
        <ele>777.8</ele>
        <time>2018-08-21T12:43:53Z</time>
      </trkpt>
      <trkpt lat="42.937629" lon="-1.478127">
        <ele>777.4</ele>
        <time>2018-08-21T12:44:24Z</time>
      </trkpt>
      <trkpt lat="42.937625" lon="-1.478319">
        <ele>776.9</ele>
        <time>2018-08-21T12:44:37Z</time>
      </trkpt>
      <trkpt lat="42.937651" lon="-1.478553">
        <ele>776.4</ele>
        <time>2018-08-21T12:44:52Z</time>
      </trkpt>
      <trkpt lat="42.937650" lon="-1.478631">
        <ele>775.9</ele>
        <time>2018-08-21T12:44:57Z</time>
      </trkpt>
      <trkpt lat="42.937674" lon="-1.478830">
        <ele>775.4</ele>
        <time>2018-08-21T12:45:09Z</time>
      </trkpt>
      <trkpt lat="42.937699" lon="-1.478997">
        <ele>775.0</ele>
        <time>2018-08-21T12:45:20Z</time>
      </trkpt>
      <trkpt lat="42.937749" lon="-1.479169">
        <ele>774.0</ele>
        <time>2018-08-21T12:45:32Z</time>
      </trkpt>
      <trkpt lat="42.937810" lon="-1.479341">
        <ele>773.5</ele>
        <time>2018-08-21T12:45:45Z</time>
      </trkpt>
      <trkpt lat="42.937866" lon="-1.479571">
        <ele>772.6</ele>
        <time>2018-08-21T12:46:02Z</time>
      </trkpt>
      <trkpt lat="42.937924" lon="-1.479782">
        <ele>771.6</ele>
        <time>2018-08-21T12:46:16Z</time>
      </trkpt>
      <trkpt lat="42.937960" lon="-1.480012">
        <ele>771.1</ele>
        <time>2018-08-21T12:46:29Z</time>
      </trkpt>
      <trkpt lat="42.938013" lon="-1.480255">
        <ele>770.6</ele>
        <time>2018-08-21T12:46:44Z</time>
      </trkpt>
      <trkpt lat="42.938059" lon="-1.480479">
        <ele>770.2</ele>
        <time>2018-08-21T12:47:00Z</time>
      </trkpt>
      <trkpt lat="42.938097" lon="-1.480716">
        <ele>770.6</ele>
        <time>2018-08-21T12:47:16Z</time>
      </trkpt>
      <trkpt lat="42.938129" lon="-1.480887">
        <ele>769.2</ele>
        <time>2018-08-21T12:47:28Z</time>
      </trkpt>
      <trkpt lat="42.938140" lon="-1.480938">
        <ele>768.7</ele>
        <time>2018-08-21T12:47:32Z</time>
      </trkpt>
      <trkpt lat="42.938188" lon="-1.481146">
        <ele>767.3</ele>
        <time>2018-08-21T12:47:48Z</time>
      </trkpt>
      <trkpt lat="42.938229" lon="-1.481354">
        <ele>766.3</ele>
        <time>2018-08-21T12:48:03Z</time>
      </trkpt>
      <trkpt lat="42.938245" lon="-1.481556">
        <ele>764.4</ele>
        <time>2018-08-21T12:48:18Z</time>
      </trkpt>
      <trkpt lat="42.938248" lon="-1.481662">
        <ele>763.4</ele>
        <time>2018-08-21T12:48:27Z</time>
      </trkpt>
      <trkpt lat="42.938286" lon="-1.481864">
        <ele>761.5</ele>
        <time>2018-08-21T12:48:43Z</time>
      </trkpt>
      <trkpt lat="42.938300" lon="-1.481919">
        <ele>760.5</ele>
        <time>2018-08-21T12:48:48Z</time>
      </trkpt>
      <trkpt lat="42.938308" lon="-1.481981">
        <ele>760.5</ele>
        <time>2018-08-21T12:48:53Z</time>
      </trkpt>
      <trkpt lat="42.938344" lon="-1.482153">
        <ele>759.6</ele>
        <time>2018-08-21T12:49:06Z</time>
      </trkpt>
      <trkpt lat="42.938370" lon="-1.482333">
        <ele>758.1</ele>
        <time>2018-08-21T12:49:20Z</time>
      </trkpt>
      <trkpt lat="42.938397" lon="-1.482471">
        <ele>757.2</ele>
        <time>2018-08-21T12:49:30Z</time>
      </trkpt>
      <trkpt lat="42.938398" lon="-1.482498">
        <ele>757.2</ele>
        <time>2018-08-21T12:49:32Z</time>
      </trkpt>
      <trkpt lat="42.938443" lon="-1.482630">
        <ele>755.7</ele>
        <time>2018-08-21T12:49:42Z</time>
      </trkpt>
      <trkpt lat="42.938472" lon="-1.482779">
        <ele>754.8</ele>
        <time>2018-08-21T12:49:52Z</time>
      </trkpt>
      <trkpt lat="42.938473" lon="-1.482849">
        <ele>754.3</ele>
        <time>2018-08-21T12:49:57Z</time>
      </trkpt>
      <trkpt lat="42.938586" lon="-1.482956">
        <ele>753.3</ele>
        <time>2018-08-21T12:50:11Z</time>
      </trkpt>
      <trkpt lat="42.938717" lon="-1.483076">
        <ele>750.9</ele>
        <time>2018-08-21T12:50:27Z</time>
      </trkpt>
      <trkpt lat="42.938789" lon="-1.483183">
        <ele>748.5</ele>
        <time>2018-08-21T12:50:40Z</time>
      </trkpt>
      <trkpt lat="42.938763" lon="-1.483283">
        <ele>747.6</ele>
        <time>2018-08-21T12:50:52Z</time>
      </trkpt>
      <trkpt lat="42.938721" lon="-1.483452">
        <ele>745.6</ele>
        <time>2018-08-21T12:51:07Z</time>
      </trkpt>
      <trkpt lat="42.938719" lon="-1.483461">
        <ele>745.6</ele>
        <time>2018-08-21T12:51:08Z</time>
      </trkpt>
      <trkpt lat="42.938709" lon="-1.483487">
        <ele>745.2</ele>
        <time>2018-08-21T12:51:11Z</time>
      </trkpt>
      <trkpt lat="42.938650" lon="-1.483654">
        <ele>743.7</ele>
        <time>2018-08-21T12:51:26Z</time>
      </trkpt>
      <trkpt lat="42.938588" lon="-1.483820">
        <ele>741.8</ele>
        <time>2018-08-21T12:51:39Z</time>
      </trkpt>
      <trkpt lat="42.938560" lon="-1.483914">
        <ele>741.8</ele>
        <time>2018-08-21T12:51:48Z</time>
      </trkpt>
      <trkpt lat="42.938540" lon="-1.484077">
        <ele>739.9</ele>
        <time>2018-08-21T12:51:59Z</time>
      </trkpt>
      <trkpt lat="42.938526" lon="-1.484115">
        <ele>739.9</ele>
        <time>2018-08-21T12:52:02Z</time>
      </trkpt>
      <trkpt lat="42.938480" lon="-1.484285">
        <ele>738.0</ele>
        <time>2018-08-21T12:52:17Z</time>
      </trkpt>
      <trkpt lat="42.938514" lon="-1.484387">
        <ele>737.5</ele>
        <time>2018-08-21T12:52:26Z</time>
      </trkpt>
      <trkpt lat="42.938519" lon="-1.484440">
        <ele>737.5</ele>
        <time>2018-08-21T12:52:30Z</time>
      </trkpt>
      <trkpt lat="42.938510" lon="-1.484591">
        <ele>736.0</ele>
        <time>2018-08-21T12:52:42Z</time>
      </trkpt>
      <trkpt lat="42.938540" lon="-1.484721">
        <ele>734.1</ele>
        <time>2018-08-21T12:52:53Z</time>
      </trkpt>
      <trkpt lat="42.938550" lon="-1.484875">
        <ele>732.7</ele>
        <time>2018-08-21T12:53:04Z</time>
      </trkpt>
      <trkpt lat="42.938552" lon="-1.484925">
        <ele>732.7</ele>
        <time>2018-08-21T12:53:08Z</time>
      </trkpt>
      <trkpt lat="42.938630" lon="-1.485071">
        <ele>731.2</ele>
        <time>2018-08-21T12:53:20Z</time>
      </trkpt>
      <trkpt lat="42.938694" lon="-1.485224">
        <ele>730.3</ele>
        <time>2018-08-21T12:53:34Z</time>
      </trkpt>
      <trkpt lat="42.938726" lon="-1.485326">
        <ele>728.8</ele>
        <time>2018-08-21T12:53:44Z</time>
      </trkpt>
      <trkpt lat="42.938767" lon="-1.485445">
        <ele>728.3</ele>
        <time>2018-08-21T12:53:56Z</time>
      </trkpt>
      <trkpt lat="42.938771" lon="-1.485475">
        <ele>727.4</ele>
        <time>2018-08-21T12:53:59Z</time>
      </trkpt>
      <trkpt lat="42.938830" lon="-1.485624">
        <ele>726.4</ele>
        <time>2018-08-21T12:54:11Z</time>
      </trkpt>
      <trkpt lat="42.938900" lon="-1.485751">
        <ele>725.5</ele>
        <time>2018-08-21T12:54:24Z</time>
      </trkpt>
      <trkpt lat="42.938954" lon="-1.485887">
        <ele>724.5</ele>
        <time>2018-08-21T12:54:36Z</time>
      </trkpt>
      <trkpt lat="42.938968" lon="-1.485900">
        <ele>724.5</ele>
        <time>2018-08-21T12:54:39Z</time>
      </trkpt>
      <trkpt lat="42.939005" lon="-1.486076">
        <ele>723.5</ele>
        <time>2018-08-21T12:54:50Z</time>
      </trkpt>
      <trkpt lat="42.939100" lon="-1.486282">
        <ele>723.0</ele>
        <time>2018-08-21T12:55:06Z</time>
      </trkpt>
      <trkpt lat="42.939110" lon="-1.486320">
        <ele>722.6</ele>
        <time>2018-08-21T12:55:09Z</time>
      </trkpt>
      <trkpt lat="42.939189" lon="-1.486505">
        <ele>721.6</ele>
        <time>2018-08-21T12:55:24Z</time>
      </trkpt>
      <trkpt lat="42.939262" lon="-1.486633">
        <ele>720.7</ele>
        <time>2018-08-21T12:55:37Z</time>
      </trkpt>
      <trkpt lat="42.939362" lon="-1.486806">
        <ele>719.2</ele>
        <time>2018-08-21T12:55:54Z</time>
      </trkpt>
      <trkpt lat="42.939371" lon="-1.486829">
        <ele>719.7</ele>
        <time>2018-08-21T12:55:56Z</time>
      </trkpt>
      <trkpt lat="42.939514" lon="-1.486965">
        <ele>717.8</ele>
        <time>2018-08-21T12:56:12Z</time>
      </trkpt>
      <trkpt lat="42.939606" lon="-1.487090">
        <ele>716.8</ele>
        <time>2018-08-21T12:56:27Z</time>
      </trkpt>
      <trkpt lat="42.939628" lon="-1.487216">
        <ele>715.4</ele>
        <time>2018-08-21T12:56:38Z</time>
      </trkpt>
      <trkpt lat="42.939632" lon="-1.487363">
        <ele>713.9</ele>
        <time>2018-08-21T12:56:52Z</time>
      </trkpt>
      <trkpt lat="42.939593" lon="-1.487530">
        <ele>713.4</ele>
        <time>2018-08-21T12:57:07Z</time>
      </trkpt>
      <trkpt lat="42.939572" lon="-1.487676">
        <ele>711.0</ele>
        <time>2018-08-21T12:57:20Z</time>
      </trkpt>
      <trkpt lat="42.939560" lon="-1.487800">
        <ele>709.6</ele>
        <time>2018-08-21T12:57:34Z</time>
      </trkpt>
      <trkpt lat="42.939507" lon="-1.487942">
        <ele>708.2</ele>
        <time>2018-08-21T12:57:47Z</time>
      </trkpt>
      <trkpt lat="42.939450" lon="-1.488093">
        <ele>705.8</ele>
        <time>2018-08-21T12:58:02Z</time>
      </trkpt>
      <trkpt lat="42.939374" lon="-1.488235">
        <ele>703.8</ele>
        <time>2018-08-21T12:58:17Z</time>
      </trkpt>
      <trkpt lat="42.939331" lon="-1.488366">
        <ele>701.9</ele>
        <time>2018-08-21T12:58:31Z</time>
      </trkpt>
      <trkpt lat="42.939261" lon="-1.488525">
        <ele>699.5</ele>
        <time>2018-08-21T12:58:45Z</time>
      </trkpt>
      <trkpt lat="42.939184" lon="-1.488662">
        <ele>698.5</ele>
        <time>2018-08-21T12:58:58Z</time>
      </trkpt>
      <trkpt lat="42.939156" lon="-1.488790">
        <ele>696.6</ele>
        <time>2018-08-21T12:59:10Z</time>
      </trkpt>
      <trkpt lat="42.939087" lon="-1.488949">
        <ele>693.7</ele>
        <time>2018-08-21T12:59:27Z</time>
      </trkpt>
      <trkpt lat="42.939021" lon="-1.489027">
        <ele>690.8</ele>
        <time>2018-08-21T12:59:40Z</time>
      </trkpt>
      <trkpt lat="42.938916" lon="-1.489093">
        <ele>689.9</ele>
        <time>2018-08-21T12:59:53Z</time>
      </trkpt>
      <trkpt lat="42.938796" lon="-1.489231">
        <ele>688.4</ele>
        <time>2018-08-21T13:00:09Z</time>
      </trkpt>
      <trkpt lat="42.938686" lon="-1.489406">
        <ele>686.5</ele>
        <time>2018-08-21T13:00:25Z</time>
      </trkpt>
      <trkpt lat="42.938579" lon="-1.489622">
        <ele>685.1</ele>
        <time>2018-08-21T13:00:40Z</time>
      </trkpt>
      <trkpt lat="42.938459" lon="-1.489819">
        <ele>684.6</ele>
        <time>2018-08-21T13:00:56Z</time>
      </trkpt>
      <trkpt lat="42.938369" lon="-1.490010">
        <ele>683.2</ele>
        <time>2018-08-21T13:01:11Z</time>
      </trkpt>
      <trkpt lat="42.938296" lon="-1.490204">
        <ele>682.7</ele>
        <time>2018-08-21T13:01:26Z</time>
      </trkpt>
      <trkpt lat="42.938291" lon="-1.490217">
        <ele>682.2</ele>
        <time>2018-08-21T13:01:27Z</time>
      </trkpt>
      <trkpt lat="42.938235" lon="-1.490394">
        <ele>681.7</ele>
        <time>2018-08-21T13:01:40Z</time>
      </trkpt>
      <trkpt lat="42.938228" lon="-1.490546">
        <ele>680.3</ele>
        <time>2018-08-21T13:01:52Z</time>
      </trkpt>
      <trkpt lat="42.938223" lon="-1.490578">
        <ele>680.8</ele>
        <time>2018-08-21T13:01:54Z</time>
      </trkpt>
      <trkpt lat="42.938161" lon="-1.490783">
        <ele>678.8</ele>
        <time>2018-08-21T13:02:10Z</time>
      </trkpt>
      <trkpt lat="42.938136" lon="-1.490978">
        <ele>678.8</ele>
        <time>2018-08-21T13:02:24Z</time>
      </trkpt>
      <trkpt lat="42.938120" lon="-1.491096">
        <ele>677.4</ele>
        <time>2018-08-21T13:02:35Z</time>
      </trkpt>
      <trkpt lat="42.938107" lon="-1.491174">
        <ele>676.4</ele>
        <time>2018-08-21T13:02:41Z</time>
      </trkpt>
      <trkpt lat="42.938075" lon="-1.491391">
        <ele>675.0</ele>
        <time>2018-08-21T13:02:57Z</time>
      </trkpt>
      <trkpt lat="42.938046" lon="-1.491551">
        <ele>673.5</ele>
        <time>2018-08-21T13:03:08Z</time>
      </trkpt>
      <trkpt lat="42.938038" lon="-1.491585">
        <ele>673.5</ele>
        <time>2018-08-21T13:03:11Z</time>
      </trkpt>
      <trkpt lat="42.937978" lon="-1.491781">
        <ele>671.6</ele>
        <time>2018-08-21T13:03:26Z</time>
      </trkpt>
      <trkpt lat="42.937955" lon="-1.491945">
        <ele>670.2</ele>
        <time>2018-08-21T13:03:39Z</time>
      </trkpt>
      <trkpt lat="42.937963" lon="-1.492122">
        <ele>668.7</ele>
        <time>2018-08-21T13:03:53Z</time>
      </trkpt>
      <trkpt lat="42.937949" lon="-1.492272">
        <ele>667.3</ele>
        <time>2018-08-21T13:04:05Z</time>
      </trkpt>
      <trkpt lat="42.937950" lon="-1.492289">
        <ele>667.3</ele>
        <time>2018-08-21T13:04:06Z</time>
      </trkpt>
      <trkpt lat="42.937914" lon="-1.492454">
        <ele>664.4</ele>
        <time>2018-08-21T13:04:19Z</time>
      </trkpt>
      <trkpt lat="42.937905" lon="-1.492503">
        <ele>664.4</ele>
        <time>2018-08-21T13:04:25Z</time>
      </trkpt>
      <trkpt lat="42.937882" lon="-1.492612">
        <ele>663.0</ele>
        <time>2018-08-21T13:04:36Z</time>
      </trkpt>
      <trkpt lat="42.937855" lon="-1.492686">
        <ele>662.0</ele>
        <time>2018-08-21T13:04:47Z</time>
      </trkpt>
      <trkpt lat="42.937834" lon="-1.492753">
        <ele>661.5</ele>
        <time>2018-08-21T13:04:53Z</time>
      </trkpt>
      <trkpt lat="42.937831" lon="-1.492811">
        <ele>661.0</ele>
        <time>2018-08-21T13:05:05Z</time>
      </trkpt>
      <trkpt lat="42.937806" lon="-1.492952">
        <ele>658.6</ele>
        <time>2018-08-21T13:05:18Z</time>
      </trkpt>
      <trkpt lat="42.937789" lon="-1.493107">
        <ele>656.7</ele>
        <time>2018-08-21T13:05:33Z</time>
      </trkpt>
      <trkpt lat="42.937757" lon="-1.493208">
        <ele>655.3</ele>
        <time>2018-08-21T13:05:48Z</time>
      </trkpt>
      <trkpt lat="42.937747" lon="-1.493236">
        <ele>655.8</ele>
        <time>2018-08-21T13:05:50Z</time>
      </trkpt>
      <trkpt lat="42.937641" lon="-1.493367">
        <ele>653.3</ele>
        <time>2018-08-21T13:06:04Z</time>
      </trkpt>
      <trkpt lat="42.937581" lon="-1.493453">
        <ele>651.4</ele>
        <time>2018-08-21T13:06:15Z</time>
      </trkpt>
      <trkpt lat="42.937505" lon="-1.493556">
        <ele>650.5</ele>
        <time>2018-08-21T13:06:28Z</time>
      </trkpt>
      <trkpt lat="42.937417" lon="-1.493644">
        <ele>649.0</ele>
        <time>2018-08-21T13:06:40Z</time>
      </trkpt>
      <trkpt lat="42.937283" lon="-1.493788">
        <ele>647.6</ele>
        <time>2018-08-21T13:06:55Z</time>
      </trkpt>
      <trkpt lat="42.937172" lon="-1.493886">
        <ele>647.1</ele>
        <time>2018-08-21T13:07:08Z</time>
      </trkpt>
      <trkpt lat="42.937025" lon="-1.493991">
        <ele>646.1</ele>
        <time>2018-08-21T13:07:21Z</time>
      </trkpt>
      <trkpt lat="42.936900" lon="-1.494119">
        <ele>644.7</ele>
        <time>2018-08-21T13:07:35Z</time>
      </trkpt>
      <trkpt lat="42.936774" lon="-1.494219">
        <ele>644.2</ele>
        <time>2018-08-21T13:07:49Z</time>
      </trkpt>
      <trkpt lat="42.936613" lon="-1.494299">
        <ele>643.7</ele>
        <time>2018-08-21T13:08:03Z</time>
      </trkpt>
      <trkpt lat="42.936582" lon="-1.494330">
        <ele>644.2</ele>
        <time>2018-08-21T13:08:06Z</time>
      </trkpt>
      <trkpt lat="42.936428" lon="-1.494507">
        <ele>643.3</ele>
        <time>2018-08-21T13:08:21Z</time>
      </trkpt>
      <trkpt lat="42.936322" lon="-1.494620">
        <ele>642.8</ele>
        <time>2018-08-21T13:08:34Z</time>
      </trkpt>
      <trkpt lat="42.936146" lon="-1.494694">
        <ele>643.7</ele>
        <time>2018-08-21T13:08:51Z</time>
      </trkpt>
      <trkpt lat="42.935974" lon="-1.494777">
        <ele>644.2</ele>
        <time>2018-08-21T13:09:06Z</time>
      </trkpt>
      <trkpt lat="42.935831" lon="-1.494881">
        <ele>642.8</ele>
        <time>2018-08-21T13:09:20Z</time>
      </trkpt>
      <trkpt lat="42.935671" lon="-1.494985">
        <ele>642.8</ele>
        <time>2018-08-21T13:09:34Z</time>
      </trkpt>
      <trkpt lat="42.935542" lon="-1.495154">
        <ele>643.3</ele>
        <time>2018-08-21T13:09:49Z</time>
      </trkpt>
      <trkpt lat="42.935522" lon="-1.495174">
        <ele>642.8</ele>
        <time>2018-08-21T13:09:51Z</time>
      </trkpt>
      <trkpt lat="42.935373" lon="-1.495278">
        <ele>643.3</ele>
        <time>2018-08-21T13:10:06Z</time>
      </trkpt>
      <trkpt lat="42.935229" lon="-1.495353">
        <ele>642.3</ele>
        <time>2018-08-21T13:10:22Z</time>
      </trkpt>
      <trkpt lat="42.935087" lon="-1.495448">
        <ele>642.3</ele>
        <time>2018-08-21T13:10:36Z</time>
      </trkpt>
      <trkpt lat="42.934983" lon="-1.495497">
        <ele>643.3</ele>
        <time>2018-08-21T13:10:48Z</time>
      </trkpt>
      <trkpt lat="42.934819" lon="-1.495559">
        <ele>643.3</ele>
        <time>2018-08-21T13:11:03Z</time>
      </trkpt>
      <trkpt lat="42.934672" lon="-1.495595">
        <ele>643.3</ele>
        <time>2018-08-21T13:11:16Z</time>
      </trkpt>
      <trkpt lat="42.934538" lon="-1.495640">
        <ele>643.3</ele>
        <time>2018-08-21T13:11:32Z</time>
      </trkpt>
      <trkpt lat="42.934410" lon="-1.495662">
        <ele>643.3</ele>
        <time>2018-08-21T13:11:45Z</time>
      </trkpt>
      <trkpt lat="42.934284" lon="-1.495736">
        <ele>645.2</ele>
        <time>2018-08-21T13:12:00Z</time>
      </trkpt>
      <trkpt lat="42.934194" lon="-1.495779">
        <ele>645.2</ele>
        <time>2018-08-21T13:12:09Z</time>
      </trkpt>
      <trkpt lat="42.934109" lon="-1.495877">
        <ele>646.1</ele>
        <time>2018-08-21T13:12:25Z</time>
      </trkpt>
      <trkpt lat="42.934048" lon="-1.495906">
        <ele>645.7</ele>
        <time>2018-08-21T13:13:22Z</time>
      </trkpt>
      <trkpt lat="42.933886" lon="-1.495912">
        <ele>643.7</ele>
        <time>2018-08-21T13:13:39Z</time>
      </trkpt>
      <trkpt lat="42.933759" lon="-1.495936">
        <ele>641.3</ele>
        <time>2018-08-21T13:13:57Z</time>
      </trkpt>
      <trkpt lat="42.933729" lon="-1.495947">
        <ele>641.8</ele>
        <time>2018-08-21T13:14:14Z</time>
      </trkpt>
      <trkpt lat="42.933647" lon="-1.495931">
        <ele>641.3</ele>
        <time>2018-08-21T13:14:26Z</time>
      </trkpt>
      <trkpt lat="42.933539" lon="-1.495953">
        <ele>639.4</ele>
        <time>2018-08-21T13:14:40Z</time>
      </trkpt>
      <trkpt lat="42.933468" lon="-1.495974">
        <ele>638.9</ele>
        <time>2018-08-21T13:14:55Z</time>
      </trkpt>
      <trkpt lat="42.933389" lon="-1.496045">
        <ele>638.0</ele>
        <time>2018-08-21T13:15:06Z</time>
      </trkpt>
      <trkpt lat="42.933304" lon="-1.496121">
        <ele>637.0</ele>
        <time>2018-08-21T13:15:18Z</time>
      </trkpt>
      <trkpt lat="42.933231" lon="-1.496194">
        <ele>636.0</ele>
        <time>2018-08-21T13:15:30Z</time>
      </trkpt>
      <trkpt lat="42.933117" lon="-1.496323">
        <ele>633.7</ele>
        <time>2018-08-21T13:15:44Z</time>
      </trkpt>
      <trkpt lat="42.932987" lon="-1.496406">
        <ele>631.7</ele>
        <time>2018-08-21T13:16:07Z</time>
      </trkpt>
      <trkpt lat="42.932942" lon="-1.496419">
        <ele>631.7</ele>
        <time>2018-08-21T13:16:12Z</time>
      </trkpt>
      <trkpt lat="42.932877" lon="-1.496459">
        <ele>629.3</ele>
        <time>2018-08-21T13:16:54Z</time>
      </trkpt>
      <trkpt lat="42.932809" lon="-1.496495">
        <ele>628.8</ele>
        <time>2018-08-21T13:17:10Z</time>
      </trkpt>
      <trkpt lat="42.932743" lon="-1.496611">
        <ele>627.4</ele>
        <time>2018-08-21T13:17:23Z</time>
      </trkpt>
      <trkpt lat="42.932726" lon="-1.496680">
        <ele>626.0</ele>
        <time>2018-08-21T13:17:30Z</time>
      </trkpt>
      <trkpt lat="42.932681" lon="-1.496731">
        <ele>625.0</ele>
        <time>2018-08-21T13:17:42Z</time>
      </trkpt>
      <trkpt lat="42.932550" lon="-1.496762">
        <ele>623.1</ele>
        <time>2018-08-21T13:17:56Z</time>
      </trkpt>
      <trkpt lat="42.932451" lon="-1.496823">
        <ele>621.2</ele>
        <time>2018-08-21T13:18:08Z</time>
      </trkpt>
      <trkpt lat="42.932410" lon="-1.496842">
        <ele>617.8</ele>
        <time>2018-08-21T13:18:14Z</time>
      </trkpt>
      <trkpt lat="42.932403" lon="-1.496845">
        <ele>617.8</ele>
        <time>2018-08-21T13:18:15Z</time>
      </trkpt>
      <trkpt lat="42.932396" lon="-1.496851">
        <ele>622.1</ele>
        <time>2018-08-21T13:18:16Z</time>
      </trkpt>
      <trkpt lat="42.932388" lon="-1.496856">
        <ele>621.2</ele>
        <time>2018-08-21T13:18:17Z</time>
      </trkpt>
      <trkpt lat="42.932350" lon="-1.496874">
        <ele>617.3</ele>
        <time>2018-08-21T13:18:25Z</time>
      </trkpt>
      <trkpt lat="42.932328" lon="-1.496894">
        <ele>620.2</ele>
        <time>2018-08-21T13:18:28Z</time>
      </trkpt>
      <trkpt lat="42.932275" lon="-1.496881">
        <ele>617.3</ele>
        <time>2018-08-21T13:18:33Z</time>
      </trkpt>
      <trkpt lat="42.932226" lon="-1.496867">
        <ele>615.9</ele>
        <time>2018-08-21T13:18:47Z</time>
      </trkpt>
      <trkpt lat="42.932134" lon="-1.496964">
        <ele>613.0</ele>
        <time>2018-08-21T13:19:02Z</time>
      </trkpt>
      <trkpt lat="42.932089" lon="-1.497055">
        <ele>611.5</ele>
        <time>2018-08-21T13:19:15Z</time>
      </trkpt>
      <trkpt lat="42.932050" lon="-1.497155">
        <ele>610.1</ele>
        <time>2018-08-21T13:19:27Z</time>
      </trkpt>
      <trkpt lat="42.932033" lon="-1.497228">
        <ele>608.7</ele>
        <time>2018-08-21T13:19:33Z</time>
      </trkpt>
      <trkpt lat="42.931974" lon="-1.497418">
        <ele>607.2</ele>
        <time>2018-08-21T13:19:53Z</time>
      </trkpt>
      <trkpt lat="42.931946" lon="-1.497437">
        <ele>606.7</ele>
        <time>2018-08-21T13:20:06Z</time>
      </trkpt>
      <trkpt lat="42.931822" lon="-1.497509">
        <ele>604.8</ele>
        <time>2018-08-21T13:20:20Z</time>
      </trkpt>
      <trkpt lat="42.931770" lon="-1.497612">
        <ele>603.4</ele>
        <time>2018-08-21T13:20:29Z</time>
      </trkpt>
      <trkpt lat="42.931653" lon="-1.497807">
        <ele>600.0</ele>
        <time>2018-08-21T13:20:43Z</time>
      </trkpt>
      <trkpt lat="42.931568" lon="-1.497898">
        <ele>599.0</ele>
        <time>2018-08-21T13:20:58Z</time>
      </trkpt>
      <trkpt lat="42.931504" lon="-1.498039">
        <ele>594.7</ele>
        <time>2018-08-21T13:21:27Z</time>
      </trkpt>
      <trkpt lat="42.931477" lon="-1.498087">
        <ele>593.8</ele>
        <time>2018-08-21T13:21:37Z</time>
      </trkpt>
      <trkpt lat="42.931456" lon="-1.498194">
        <ele>591.3</ele>
        <time>2018-08-21T13:21:51Z</time>
      </trkpt>
      <trkpt lat="42.931405" lon="-1.498231">
        <ele>590.4</ele>
        <time>2018-08-21T13:22:00Z</time>
      </trkpt>
      <trkpt lat="42.931365" lon="-1.498258">
        <ele>589.4</ele>
        <time>2018-08-21T13:22:05Z</time>
      </trkpt>
      <trkpt lat="42.931266" lon="-1.498373">
        <ele>586.5</ele>
        <time>2018-08-21T13:22:20Z</time>
      </trkpt>
      <trkpt lat="42.931204" lon="-1.498480">
        <ele>584.1</ele>
        <time>2018-08-21T13:22:34Z</time>
      </trkpt>
      <trkpt lat="42.931119" lon="-1.498564">
        <ele>581.7</ele>
        <time>2018-08-21T13:22:47Z</time>
      </trkpt>
      <trkpt lat="42.931026" lon="-1.498611">
        <ele>580.3</ele>
        <time>2018-08-21T13:22:59Z</time>
      </trkpt>
      <trkpt lat="42.930871" lon="-1.498661">
        <ele>576.9</ele>
        <time>2018-08-21T13:23:15Z</time>
      </trkpt>
      <trkpt lat="42.930842" lon="-1.498679">
        <ele>576.9</ele>
        <time>2018-08-21T13:23:18Z</time>
      </trkpt>
      <trkpt lat="42.930842" lon="-1.498716">
        <ele>576.5</ele>
        <time>2018-08-21T13:23:48Z</time>
      </trkpt>
      <trkpt lat="42.930825" lon="-1.498762">
        <ele>576.5</ele>
        <time>2018-08-21T13:24:09Z</time>
      </trkpt>
      <trkpt lat="42.930784" lon="-1.498914">
        <ele>573.6</ele>
        <time>2018-08-21T13:24:23Z</time>
      </trkpt>
      <trkpt lat="42.930793" lon="-1.498992">
        <ele>572.6</ele>
        <time>2018-08-21T13:24:51Z</time>
      </trkpt>
      <trkpt lat="42.930771" lon="-1.499078">
        <ele>571.6</ele>
        <time>2018-08-21T13:25:05Z</time>
      </trkpt>
      <trkpt lat="42.930744" lon="-1.499170">
        <ele>570.7</ele>
        <time>2018-08-21T13:25:21Z</time>
      </trkpt>
      <trkpt lat="42.930699" lon="-1.499288">
        <ele>568.3</ele>
        <time>2018-08-21T13:25:39Z</time>
      </trkpt>
      <trkpt lat="42.930647" lon="-1.499358">
        <ele>567.3</ele>
        <time>2018-08-21T13:25:52Z</time>
      </trkpt>
      <trkpt lat="42.930642" lon="-1.499365">
        <ele>566.3</ele>
        <time>2018-08-21T13:25:54Z</time>
      </trkpt>
      <trkpt lat="42.930633" lon="-1.499413">
        <ele>565.9</ele>
        <time>2018-08-21T13:26:06Z</time>
      </trkpt>
      <trkpt lat="42.930608" lon="-1.499483">
        <ele>564.4</ele>
        <time>2018-08-21T13:26:19Z</time>
      </trkpt>
      <trkpt lat="42.930573" lon="-1.499623">
        <ele>562.0</ele>
        <time>2018-08-21T13:26:33Z</time>
      </trkpt>
      <trkpt lat="42.930568" lon="-1.499684">
        <ele>561.1</ele>
        <time>2018-08-21T13:26:44Z</time>
      </trkpt>
      <trkpt lat="42.930523" lon="-1.499749">
        <ele>560.6</ele>
        <time>2018-08-21T13:26:56Z</time>
      </trkpt>
      <trkpt lat="42.930426" lon="-1.499975">
        <ele>558.2</ele>
        <time>2018-08-21T13:27:13Z</time>
      </trkpt>
      <trkpt lat="42.930375" lon="-1.500053">
        <ele>557.2</ele>
        <time>2018-08-21T13:27:27Z</time>
      </trkpt>
      <trkpt lat="42.930364" lon="-1.500063">
        <ele>557.2</ele>
        <time>2018-08-21T13:27:28Z</time>
      </trkpt>
      <trkpt lat="42.930392" lon="-1.500239">
        <ele>555.8</ele>
        <time>2018-08-21T13:27:43Z</time>
      </trkpt>
      <trkpt lat="42.930375" lon="-1.500464">
        <ele>553.4</ele>
        <time>2018-08-21T13:27:57Z</time>
      </trkpt>
      <trkpt lat="42.930319" lon="-1.500686">
        <ele>552.4</ele>
        <time>2018-08-21T13:28:12Z</time>
      </trkpt>
      <trkpt lat="42.930318" lon="-1.500755">
        <ele>551.9</ele>
        <time>2018-08-21T13:28:17Z</time>
      </trkpt>
      <trkpt lat="42.930250" lon="-1.500973">
        <ele>550.0</ele>
        <time>2018-08-21T13:28:33Z</time>
      </trkpt>
      <trkpt lat="42.930233" lon="-1.501103">
        <ele>549.5</ele>
        <time>2018-08-21T13:28:44Z</time>
      </trkpt>
      <trkpt lat="42.930211" lon="-1.501212">
        <ele>549.0</ele>
        <time>2018-08-21T13:28:52Z</time>
      </trkpt>
      <trkpt lat="42.930192" lon="-1.501310">
        <ele>548.6</ele>
        <time>2018-08-21T13:28:59Z</time>
      </trkpt>
      <trkpt lat="42.930162" lon="-1.501568">
        <ele>546.7</ele>
        <time>2018-08-21T13:29:17Z</time>
      </trkpt>
      <trkpt lat="42.930129" lon="-1.501767">
        <ele>544.2</ele>
        <time>2018-08-21T13:29:33Z</time>
      </trkpt>
      <trkpt lat="42.930141" lon="-1.502005">
        <ele>543.3</ele>
        <time>2018-08-21T13:29:49Z</time>
      </trkpt>
      <trkpt lat="42.930152" lon="-1.502094">
        <ele>542.3</ele>
        <time>2018-08-21T13:29:55Z</time>
      </trkpt>
      <trkpt lat="42.930156" lon="-1.502183">
        <ele>541.4</ele>
        <time>2018-08-21T13:30:06Z</time>
      </trkpt>
      <trkpt lat="42.930181" lon="-1.502329">
        <ele>539.4</ele>
        <time>2018-08-21T13:30:19Z</time>
      </trkpt>
      <trkpt lat="42.930193" lon="-1.502344">
        <ele>539.4</ele>
        <time>2018-08-21T13:30:29Z</time>
      </trkpt>
      <trkpt lat="42.930162" lon="-1.502393">
        <ele>539.0</ele>
        <time>2018-08-21T13:30:43Z</time>
      </trkpt>
      <trkpt lat="42.930144" lon="-1.502432">
        <ele>538.0</ele>
        <time>2018-08-21T13:30:54Z</time>
      </trkpt>
      <trkpt lat="42.929969" lon="-1.502680">
        <ele>534.6</ele>
        <time>2018-08-21T13:31:49Z</time>
      </trkpt>
      <trkpt lat="42.929879" lon="-1.502836">
        <ele>533.7</ele>
        <time>2018-08-21T13:32:59Z</time>
      </trkpt>
      <trkpt lat="42.929831" lon="-1.502951">
        <ele>533.7</ele>
        <time>2018-08-21T13:33:15Z</time>
      </trkpt>
      <trkpt lat="42.929822" lon="-1.503005">
        <ele>534.2</ele>
        <time>2018-08-21T13:33:25Z</time>
      </trkpt>
      <trkpt lat="42.929831" lon="-1.503225">
        <ele>536.1</ele>
        <time>2018-08-21T13:33:39Z</time>
      </trkpt>
      <trkpt lat="42.929832" lon="-1.503288">
        <ele>536.1</ele>
        <time>2018-08-21T13:33:51Z</time>
      </trkpt>
      <trkpt lat="42.929834" lon="-1.503361">
        <ele>535.6</ele>
        <time>2018-08-21T13:36:35Z</time>
      </trkpt>
      <trkpt lat="42.929892" lon="-1.503519">
        <ele>532.2</ele>
        <time>2018-08-21T13:36:49Z</time>
      </trkpt>
      <trkpt lat="42.929890" lon="-1.503529">
        <ele>534.2</ele>
        <time>2018-08-21T13:36:55Z</time>
      </trkpt>
      <trkpt lat="42.929882" lon="-1.503513">
        <ele>533.2</ele>
        <time>2018-08-21T13:37:00Z</time>
      </trkpt>
      <trkpt lat="42.929884" lon="-1.503527">
        <ele>534.2</ele>
        <time>2018-08-21T13:37:12Z</time>
      </trkpt>
      <trkpt lat="42.929910" lon="-1.503631">
        <ele>531.8</ele>
        <time>2018-08-21T13:37:23Z</time>
      </trkpt>
      <trkpt lat="42.929937" lon="-1.503681">
        <ele>532.7</ele>
        <time>2018-08-21T13:37:37Z</time>
      </trkpt>
      <trkpt lat="42.929938" lon="-1.503774">
        <ele>531.3</ele>
        <time>2018-08-21T13:37:44Z</time>
      </trkpt>
      <trkpt lat="42.929988" lon="-1.503831">
        <ele>531.3</ele>
        <time>2018-08-21T13:37:48Z</time>
      </trkpt>
      <trkpt lat="42.930030" lon="-1.503916">
        <ele>531.3</ele>
        <time>2018-08-21T13:38:02Z</time>
      </trkpt>
      <trkpt lat="42.930037" lon="-1.503936">
        <ele>531.3</ele>
        <time>2018-08-21T13:38:04Z</time>
      </trkpt>
      <trkpt lat="42.930111" lon="-1.504025">
        <ele>531.8</ele>
        <time>2018-08-21T13:38:17Z</time>
      </trkpt>
      <trkpt lat="42.930153" lon="-1.504085">
        <ele>531.3</ele>
        <time>2018-08-21T13:38:22Z</time>
      </trkpt>
      <trkpt lat="42.930158" lon="-1.504130">
        <ele>531.3</ele>
        <time>2018-08-21T13:38:25Z</time>
      </trkpt>
      <trkpt lat="42.930207" lon="-1.504269">
        <ele>531.3</ele>
        <time>2018-08-21T13:38:38Z</time>
      </trkpt>
      <trkpt lat="42.930251" lon="-1.504362">
        <ele>531.8</ele>
        <time>2018-08-21T13:38:50Z</time>
      </trkpt>
      <trkpt lat="42.930289" lon="-1.504342">
        <ele>531.3</ele>
        <time>2018-08-21T13:39:01Z</time>
      </trkpt>
      <trkpt lat="42.930306" lon="-1.504380">
        <ele>531.3</ele>
        <time>2018-08-21T13:39:13Z</time>
      </trkpt>
      <trkpt lat="42.930312" lon="-1.504391">
        <ele>531.3</ele>
        <time>2018-08-21T13:39:26Z</time>
      </trkpt>
      <trkpt lat="42.930320" lon="-1.504389">
        <ele>531.3</ele>
        <time>2018-08-21T13:39:42Z</time>
      </trkpt>
      <trkpt lat="42.930334" lon="-1.504410">
        <ele>530.3</ele>
        <time>2018-08-21T13:39:58Z</time>
      </trkpt>
      <trkpt lat="42.930336" lon="-1.504469">
        <ele>530.8</ele>
        <time>2018-08-21T13:40:19Z</time>
      </trkpt>
      <trkpt lat="42.930311" lon="-1.504523">
        <ele>530.3</ele>
        <time>2018-08-21T13:40:35Z</time>
      </trkpt>
      <trkpt lat="42.930299" lon="-1.504598">
        <ele>531.3</ele>
        <time>2018-08-21T13:40:57Z</time>
      </trkpt>
      <trkpt lat="42.930374" lon="-1.504731">
        <ele>531.3</ele>
        <time>2018-08-21T13:41:12Z</time>
      </trkpt>
      <trkpt lat="42.930411" lon="-1.504746">
        <ele>531.8</ele>
        <time>2018-08-21T13:41:37Z</time>
      </trkpt>
      <trkpt lat="42.930444" lon="-1.504747">
        <ele>531.8</ele>
        <time>2018-08-21T13:44:34Z</time>
      </trkpt>
      <trkpt lat="42.930447" lon="-1.504750">
        <ele>530.8</ele>
        <time>2018-08-21T13:44:39Z</time>
      </trkpt>
      <trkpt lat="42.930527" lon="-1.504682">
        <ele>532.2</ele>
        <time>2018-08-21T13:44:52Z</time>
      </trkpt>
      <trkpt lat="42.930563" lon="-1.504667">
        <ele>532.2</ele>
        <time>2018-08-21T13:44:55Z</time>
      </trkpt>
      <trkpt lat="42.930688" lon="-1.504593">
        <ele>532.7</ele>
        <time>2018-08-21T13:45:08Z</time>
      </trkpt>
      <trkpt lat="42.930698" lon="-1.504582">
        <ele>532.7</ele>
        <time>2018-08-21T13:45:11Z</time>
      </trkpt>
      <trkpt lat="42.930713" lon="-1.504571">
        <ele>533.2</ele>
        <time>2018-08-21T13:45:13Z</time>
      </trkpt>
      <trkpt lat="42.930899" lon="-1.504476">
        <ele>531.8</ele>
        <time>2018-08-21T13:45:29Z</time>
      </trkpt>
      <trkpt lat="42.931010" lon="-1.504468">
        <ele>532.7</ele>
        <time>2018-08-21T13:45:42Z</time>
      </trkpt>
      <trkpt lat="42.931092" lon="-1.504473">
        <ele>531.8</ele>
        <time>2018-08-21T13:45:55Z</time>
      </trkpt>
      <trkpt lat="42.931122" lon="-1.504460">
        <ele>531.8</ele>
        <time>2018-08-21T13:46:03Z</time>
      </trkpt>
      <trkpt lat="42.931140" lon="-1.504310">
        <ele>533.2</ele>
        <time>2018-08-21T13:46:10Z</time>
      </trkpt>
      <trkpt lat="42.931173" lon="-1.504237">
        <ele>531.8</ele>
        <time>2018-08-21T13:46:15Z</time>
      </trkpt>
      <trkpt lat="42.931192" lon="-1.504090">
        <ele>532.2</ele>
        <time>2018-08-21T13:46:33Z</time>
      </trkpt>
      <trkpt lat="42.931212" lon="-1.504387">
        <ele>531.3</ele>
        <time>2018-08-21T13:47:00Z</time>
      </trkpt>
      <trkpt lat="42.931209" lon="-1.504447">
        <ele>529.8</ele>
        <time>2018-08-21T13:48:19Z</time>
      </trkpt>
      <trkpt lat="42.931172" lon="-1.504464">
        <ele>528.9</ele>
        <time>2018-08-21T13:48:36Z</time>
      </trkpt>
      <trkpt lat="42.931181" lon="-1.504331">
        <ele>525.5</ele>
        <time>2018-08-22T05:36:54Z</time>
      </trkpt>
      <trkpt lat="42.931066" lon="-1.504354">
        <ele>526.0</ele>
        <time>2018-08-22T05:37:04Z</time>
      </trkpt>
      <trkpt lat="42.931048" lon="-1.504354">
        <ele>525.5</ele>
        <time>2018-08-22T05:37:06Z</time>
      </trkpt>
      <trkpt lat="42.930793" lon="-1.504476">
        <ele>525.5</ele>
        <time>2018-08-22T05:37:28Z</time>
      </trkpt>
      <trkpt lat="42.930668" lon="-1.504577">
        <ele>525.5</ele>
        <time>2018-08-22T05:37:42Z</time>
      </trkpt>
      <trkpt lat="42.930499" lon="-1.504651">
        <ele>525.5</ele>
        <time>2018-08-22T05:37:55Z</time>
      </trkpt>
      <trkpt lat="42.930429" lon="-1.504602">
        <ele>525.0</ele>
        <time>2018-08-22T05:38:02Z</time>
      </trkpt>
      <trkpt lat="42.930324" lon="-1.504495">
        <ele>524.5</ele>
        <time>2018-08-22T05:38:11Z</time>
      </trkpt>
      <trkpt lat="42.930301" lon="-1.504439">
        <ele>524.1</ele>
        <time>2018-08-22T05:38:17Z</time>
      </trkpt>
      <trkpt lat="42.930253" lon="-1.504376">
        <ele>524.1</ele>
        <time>2018-08-22T05:38:21Z</time>
      </trkpt>
      <trkpt lat="42.930185" lon="-1.504232">
        <ele>523.6</ele>
        <time>2018-08-22T05:38:35Z</time>
      </trkpt>
      <trkpt lat="42.930106" lon="-1.504057">
        <ele>523.6</ele>
        <time>2018-08-22T05:38:50Z</time>
      </trkpt>
      <trkpt lat="42.929985" lon="-1.503804">
        <ele>523.6</ele>
        <time>2018-08-22T05:39:04Z</time>
      </trkpt>
      <trkpt lat="42.929953" lon="-1.503762">
        <ele>523.1</ele>
        <time>2018-08-22T05:39:08Z</time>
      </trkpt>
      <trkpt lat="42.929936" lon="-1.503533">
        <ele>525.5</ele>
        <time>2018-08-22T05:39:40Z</time>
      </trkpt>
      <trkpt lat="42.929857" lon="-1.503366">
        <ele>527.4</ele>
        <time>2018-08-22T05:39:56Z</time>
      </trkpt>
      <trkpt lat="42.929858" lon="-1.503305">
        <ele>527.4</ele>
        <time>2018-08-22T05:40:08Z</time>
      </trkpt>
      <trkpt lat="42.929830" lon="-1.502971">
        <ele>525.5</ele>
        <time>2018-08-22T05:40:27Z</time>
      </trkpt>
      <trkpt lat="42.929834" lon="-1.502884">
        <ele>525.5</ele>
        <time>2018-08-22T05:40:33Z</time>
      </trkpt>
      <trkpt lat="42.929622" lon="-1.502794">
        <ele>528.4</ele>
        <time>2018-08-22T05:40:49Z</time>
      </trkpt>
      <trkpt lat="42.929587" lon="-1.502803">
        <ele>528.9</ele>
        <time>2018-08-22T05:40:52Z</time>
      </trkpt>
      <trkpt lat="42.929409" lon="-1.502799">
        <ele>530.8</ele>
        <time>2018-08-22T05:41:04Z</time>
      </trkpt>
      <trkpt lat="42.929366" lon="-1.502785">
        <ele>531.3</ele>
        <time>2018-08-22T05:41:07Z</time>
      </trkpt>
      <trkpt lat="42.929289" lon="-1.502828">
        <ele>532.7</ele>
        <time>2018-08-22T05:41:14Z</time>
      </trkpt>
      <trkpt lat="42.929206" lon="-1.502809">
        <ele>534.6</ele>
        <time>2018-08-22T05:41:21Z</time>
      </trkpt>
      <trkpt lat="42.929117" lon="-1.502662">
        <ele>536.5</ele>
        <time>2018-08-22T05:41:32Z</time>
      </trkpt>
      <trkpt lat="42.929051" lon="-1.502603">
        <ele>537.0</ele>
        <time>2018-08-22T05:41:44Z</time>
      </trkpt>
      <trkpt lat="42.929031" lon="-1.502575">
        <ele>537.5</ele>
        <time>2018-08-22T05:41:56Z</time>
      </trkpt>
      <trkpt lat="42.928972" lon="-1.502515">
        <ele>538.0</ele>
        <time>2018-08-22T05:42:09Z</time>
      </trkpt>
      <trkpt lat="42.928967" lon="-1.502502">
        <ele>538.0</ele>
        <time>2018-08-22T05:42:10Z</time>
      </trkpt>
      <trkpt lat="42.928935" lon="-1.502449">
        <ele>538.0</ele>
        <time>2018-08-22T05:42:14Z</time>
      </trkpt>
      <trkpt lat="42.928860" lon="-1.502421">
        <ele>538.0</ele>
        <time>2018-08-22T05:42:26Z</time>
      </trkpt>
      <trkpt lat="42.928853" lon="-1.502429">
        <ele>538.0</ele>
        <time>2018-08-22T05:42:34Z</time>
      </trkpt>
      <trkpt lat="42.928739" lon="-1.502342">
        <ele>537.0</ele>
        <time>2018-08-22T05:42:46Z</time>
      </trkpt>
      <trkpt lat="42.928606" lon="-1.502267">
        <ele>533.7</ele>
        <time>2018-08-22T05:43:01Z</time>
      </trkpt>
      <trkpt lat="42.928601" lon="-1.502261">
        <ele>533.7</ele>
        <time>2018-08-22T05:43:02Z</time>
      </trkpt>
      <trkpt lat="42.928514" lon="-1.502235">
        <ele>531.3</ele>
        <time>2018-08-22T05:43:15Z</time>
      </trkpt>
      <trkpt lat="42.928343" lon="-1.502210">
        <ele>528.9</ele>
        <time>2018-08-22T05:43:31Z</time>
      </trkpt>
      <trkpt lat="42.928230" lon="-1.502188">
        <ele>527.9</ele>
        <time>2018-08-22T05:43:44Z</time>
      </trkpt>
      <trkpt lat="42.928109" lon="-1.502213">
        <ele>524.5</ele>
        <time>2018-08-22T05:43:58Z</time>
      </trkpt>
      <trkpt lat="42.928075" lon="-1.502129">
        <ele>525.5</ele>
        <time>2018-08-22T05:44:22Z</time>
      </trkpt>
      <trkpt lat="42.928030" lon="-1.502145">
        <ele>525.5</ele>
        <time>2018-08-22T05:44:34Z</time>
      </trkpt>
      <trkpt lat="42.927974" lon="-1.502226">
        <ele>525.5</ele>
        <time>2018-08-22T05:44:46Z</time>
      </trkpt>
      <trkpt lat="42.927986" lon="-1.502264">
        <ele>525.0</ele>
        <time>2018-08-22T05:45:03Z</time>
      </trkpt>
      <trkpt lat="42.927938" lon="-1.502314">
        <ele>526.5</ele>
        <time>2018-08-22T05:45:18Z</time>
      </trkpt>
      <trkpt lat="42.927870" lon="-1.502372">
        <ele>527.9</ele>
        <time>2018-08-22T05:45:23Z</time>
      </trkpt>
      <trkpt lat="42.927771" lon="-1.502513">
        <ele>529.8</ele>
        <time>2018-08-22T05:45:36Z</time>
      </trkpt>
      <trkpt lat="42.927750" lon="-1.502537">
        <ele>530.3</ele>
        <time>2018-08-22T05:45:39Z</time>
      </trkpt>
      <trkpt lat="42.927718" lon="-1.502569">
        <ele>530.8</ele>
        <time>2018-08-22T05:45:43Z</time>
      </trkpt>
      <trkpt lat="42.927563" lon="-1.502691">
        <ele>532.7</ele>
        <time>2018-08-22T05:45:59Z</time>
      </trkpt>
      <trkpt lat="42.927497" lon="-1.502766">
        <ele>534.2</ele>
        <time>2018-08-22T05:46:07Z</time>
      </trkpt>
      <trkpt lat="42.927321" lon="-1.502875">
        <ele>535.1</ele>
        <time>2018-08-22T05:46:23Z</time>
      </trkpt>
      <trkpt lat="42.927221" lon="-1.503013">
        <ele>533.7</ele>
        <time>2018-08-22T05:46:37Z</time>
      </trkpt>
      <trkpt lat="42.927140" lon="-1.503180">
        <ele>532.7</ele>
        <time>2018-08-22T05:46:51Z</time>
      </trkpt>
      <trkpt lat="42.927045" lon="-1.503339">
        <ele>532.2</ele>
        <time>2018-08-22T05:47:04Z</time>
      </trkpt>
      <trkpt lat="42.926922" lon="-1.503515">
        <ele>532.2</ele>
        <time>2018-08-22T05:47:18Z</time>
      </trkpt>
      <trkpt lat="42.926794" lon="-1.503721">
        <ele>531.3</ele>
        <time>2018-08-22T05:47:34Z</time>
      </trkpt>
      <trkpt lat="42.926766" lon="-1.503911">
        <ele>528.4</ele>
        <time>2018-08-22T05:47:49Z</time>
      </trkpt>
      <trkpt lat="42.926722" lon="-1.504002">
        <ele>527.4</ele>
        <time>2018-08-22T05:47:56Z</time>
      </trkpt>
      <trkpt lat="42.926701" lon="-1.504095">
        <ele>526.5</ele>
        <time>2018-08-22T05:48:03Z</time>
      </trkpt>
      <trkpt lat="42.926680" lon="-1.504131">
        <ele>526.0</ele>
        <time>2018-08-22T05:48:07Z</time>
      </trkpt>
      <trkpt lat="42.926552" lon="-1.504237">
        <ele>525.0</ele>
        <time>2018-08-22T05:48:20Z</time>
      </trkpt>
      <trkpt lat="42.926408" lon="-1.504318">
        <ele>524.1</ele>
        <time>2018-08-22T05:48:35Z</time>
      </trkpt>
      <trkpt lat="42.926353" lon="-1.504335">
        <ele>524.1</ele>
        <time>2018-08-22T05:48:40Z</time>
      </trkpt>
      <trkpt lat="42.926316" lon="-1.504365">
        <ele>523.6</ele>
        <time>2018-08-22T05:48:44Z</time>
      </trkpt>
      <trkpt lat="42.926243" lon="-1.504398">
        <ele>523.6</ele>
        <time>2018-08-22T05:48:52Z</time>
      </trkpt>
      <trkpt lat="42.926089" lon="-1.504467">
        <ele>520.7</ele>
        <time>2018-08-22T05:49:06Z</time>
      </trkpt>
      <trkpt lat="42.926079" lon="-1.504476">
        <ele>520.7</ele>
        <time>2018-08-22T05:49:07Z</time>
      </trkpt>
      <trkpt lat="42.926071" lon="-1.504484">
        <ele>524.1</ele>
        <time>2018-08-22T05:49:08Z</time>
      </trkpt>
      <trkpt lat="42.926064" lon="-1.504492">
        <ele>522.6</ele>
        <time>2018-08-22T05:49:09Z</time>
      </trkpt>
      <trkpt lat="42.925855" lon="-1.504596">
        <ele>522.6</ele>
        <time>2018-08-22T05:49:27Z</time>
      </trkpt>
      <trkpt lat="42.925741" lon="-1.504646">
        <ele>523.1</ele>
        <time>2018-08-22T05:49:40Z</time>
      </trkpt>
      <trkpt lat="42.925608" lon="-1.504692">
        <ele>523.6</ele>
        <time>2018-08-22T05:49:53Z</time>
      </trkpt>
      <trkpt lat="42.925398" lon="-1.504775">
        <ele>523.6</ele>
        <time>2018-08-22T05:50:08Z</time>
      </trkpt>
      <trkpt lat="42.925192" lon="-1.504826">
        <ele>524.1</ele>
        <time>2018-08-22T05:50:25Z</time>
      </trkpt>
      <trkpt lat="42.925085" lon="-1.504800">
        <ele>525.0</ele>
        <time>2018-08-22T05:50:38Z</time>
      </trkpt>
      <trkpt lat="42.924960" lon="-1.504797">
        <ele>526.5</ele>
        <time>2018-08-22T05:50:52Z</time>
      </trkpt>
      <trkpt lat="42.924796" lon="-1.504750">
        <ele>527.4</ele>
        <time>2018-08-22T05:51:06Z</time>
      </trkpt>
      <trkpt lat="42.924662" lon="-1.504675">
        <ele>528.9</ele>
        <time>2018-08-22T05:51:18Z</time>
      </trkpt>
      <trkpt lat="42.924566" lon="-1.504639">
        <ele>529.3</ele>
        <time>2018-08-22T05:51:29Z</time>
      </trkpt>
      <trkpt lat="42.924418" lon="-1.504583">
        <ele>529.8</ele>
        <time>2018-08-22T05:51:42Z</time>
      </trkpt>
      <trkpt lat="42.924303" lon="-1.504538">
        <ele>528.9</ele>
        <time>2018-08-22T05:51:52Z</time>
      </trkpt>
      <trkpt lat="42.924175" lon="-1.504497">
        <ele>527.9</ele>
        <time>2018-08-22T05:52:05Z</time>
      </trkpt>
      <trkpt lat="42.924116" lon="-1.504541">
        <ele>528.9</ele>
        <time>2018-08-22T05:52:13Z</time>
      </trkpt>
      <trkpt lat="42.923973" lon="-1.504619">
        <ele>531.8</ele>
        <time>2018-08-22T05:52:27Z</time>
      </trkpt>
      <trkpt lat="42.923864" lon="-1.504679">
        <ele>534.6</ele>
        <time>2018-08-22T05:52:39Z</time>
      </trkpt>
      <trkpt lat="42.923842" lon="-1.504683">
        <ele>534.6</ele>
        <time>2018-08-22T05:52:41Z</time>
      </trkpt>
      <trkpt lat="42.923811" lon="-1.504765">
        <ele>535.1</ele>
        <time>2018-08-22T05:52:49Z</time>
      </trkpt>
      <trkpt lat="42.923800" lon="-1.504984">
        <ele>533.7</ele>
        <time>2018-08-22T05:53:02Z</time>
      </trkpt>
      <trkpt lat="42.923738" lon="-1.505184">
        <ele>530.8</ele>
        <time>2018-08-22T05:53:18Z</time>
      </trkpt>
      <trkpt lat="42.923717" lon="-1.505324">
        <ele>528.9</ele>
        <time>2018-08-22T05:53:32Z</time>
      </trkpt>
      <trkpt lat="42.923674" lon="-1.505559">
        <ele>526.9</ele>
        <time>2018-08-22T05:53:48Z</time>
      </trkpt>
      <trkpt lat="42.923655" lon="-1.505656">
        <ele>526.0</ele>
        <time>2018-08-22T05:53:55Z</time>
      </trkpt>
      <trkpt lat="42.923619" lon="-1.505784">
        <ele>524.5</ele>
        <time>2018-08-22T05:54:04Z</time>
      </trkpt>
      <trkpt lat="42.923608" lon="-1.505819">
        <ele>523.6</ele>
        <time>2018-08-22T05:54:07Z</time>
      </trkpt>
      <trkpt lat="42.923562" lon="-1.506003">
        <ele>523.1</ele>
        <time>2018-08-22T05:54:21Z</time>
      </trkpt>
      <trkpt lat="42.923507" lon="-1.506206">
        <ele>521.7</ele>
        <time>2018-08-22T05:54:35Z</time>
      </trkpt>
      <trkpt lat="42.923435" lon="-1.506390">
        <ele>520.2</ele>
        <time>2018-08-22T05:54:49Z</time>
      </trkpt>
      <trkpt lat="42.923363" lon="-1.506478">
        <ele>519.2</ele>
        <time>2018-08-22T05:54:57Z</time>
      </trkpt>
      <trkpt lat="42.923309" lon="-1.506475">
        <ele>518.8</ele>
        <time>2018-08-22T05:55:04Z</time>
      </trkpt>
      <trkpt lat="42.923114" lon="-1.506380">
        <ele>520.2</ele>
        <time>2018-08-22T05:55:20Z</time>
      </trkpt>
      <trkpt lat="42.922975" lon="-1.506369">
        <ele>521.7</ele>
        <time>2018-08-22T05:55:33Z</time>
      </trkpt>
      <trkpt lat="42.922912" lon="-1.506387">
        <ele>522.1</ele>
        <time>2018-08-22T05:55:39Z</time>
      </trkpt>
      <trkpt lat="42.922816" lon="-1.506432">
        <ele>522.6</ele>
        <time>2018-08-22T05:55:49Z</time>
      </trkpt>
      <trkpt lat="42.922655" lon="-1.506506">
        <ele>523.1</ele>
        <time>2018-08-22T05:56:03Z</time>
      </trkpt>
      <trkpt lat="42.922514" lon="-1.506582">
        <ele>525.0</ele>
        <time>2018-08-22T05:56:17Z</time>
      </trkpt>
      <trkpt lat="42.922421" lon="-1.506627">
        <ele>525.0</ele>
        <time>2018-08-22T05:56:26Z</time>
      </trkpt>
      <trkpt lat="42.922273" lon="-1.506708">
        <ele>526.0</ele>
        <time>2018-08-22T05:56:41Z</time>
      </trkpt>
      <trkpt lat="42.922100" lon="-1.506792">
        <ele>526.9</ele>
        <time>2018-08-22T05:56:59Z</time>
      </trkpt>
      <trkpt lat="42.921968" lon="-1.506879">
        <ele>527.9</ele>
        <time>2018-08-22T05:57:13Z</time>
      </trkpt>
      <trkpt lat="42.921809" lon="-1.506961">
        <ele>528.4</ele>
        <time>2018-08-22T05:57:29Z</time>
      </trkpt>
      <trkpt lat="42.921684" lon="-1.507035">
        <ele>529.8</ele>
        <time>2018-08-22T05:57:41Z</time>
      </trkpt>
      <trkpt lat="42.921538" lon="-1.507109">
        <ele>530.3</ele>
        <time>2018-08-22T05:57:55Z</time>
      </trkpt>
      <trkpt lat="42.921416" lon="-1.507181">
        <ele>531.3</ele>
        <time>2018-08-22T05:58:08Z</time>
      </trkpt>
      <trkpt lat="42.921307" lon="-1.507245">
        <ele>532.2</ele>
        <time>2018-08-22T05:58:21Z</time>
      </trkpt>
      <trkpt lat="42.921138" lon="-1.507316">
        <ele>533.2</ele>
        <time>2018-08-22T05:58:34Z</time>
      </trkpt>
      <trkpt lat="42.921091" lon="-1.507345">
        <ele>533.7</ele>
        <time>2018-08-22T05:58:38Z</time>
      </trkpt>
      <trkpt lat="42.920963" lon="-1.507418">
        <ele>535.1</ele>
        <time>2018-08-22T05:58:50Z</time>
      </trkpt>
      <trkpt lat="42.920924" lon="-1.507453">
        <ele>535.1</ele>
        <time>2018-08-22T05:58:54Z</time>
      </trkpt>
      <trkpt lat="42.920795" lon="-1.507503">
        <ele>536.1</ele>
        <time>2018-08-22T05:59:06Z</time>
      </trkpt>
      <trkpt lat="42.920613" lon="-1.507573">
        <ele>537.0</ele>
        <time>2018-08-22T05:59:20Z</time>
      </trkpt>
      <trkpt lat="42.920461" lon="-1.507667">
        <ele>538.5</ele>
        <time>2018-08-22T05:59:34Z</time>
      </trkpt>
      <trkpt lat="42.920386" lon="-1.507718">
        <ele>539.4</ele>
        <time>2018-08-22T05:59:42Z</time>
      </trkpt>
      <trkpt lat="42.920258" lon="-1.507894">
        <ele>540.4</ele>
        <time>2018-08-22T05:59:56Z</time>
      </trkpt>
      <trkpt lat="42.920237" lon="-1.507939">
        <ele>540.9</ele>
        <time>2018-08-22T05:59:59Z</time>
      </trkpt>
      <trkpt lat="42.920169" lon="-1.508186">
        <ele>541.4</ele>
        <time>2018-08-22T06:00:16Z</time>
      </trkpt>
      <trkpt lat="42.920099" lon="-1.508394">
        <ele>542.3</ele>
        <time>2018-08-22T06:00:31Z</time>
      </trkpt>
      <trkpt lat="42.920054" lon="-1.508578">
        <ele>544.2</ele>
        <time>2018-08-22T06:00:44Z</time>
      </trkpt>
      <trkpt lat="42.920002" lon="-1.508720">
        <ele>544.7</ele>
        <time>2018-08-22T06:00:55Z</time>
      </trkpt>
      <trkpt lat="42.919967" lon="-1.508869">
        <ele>545.2</ele>
        <time>2018-08-22T06:01:05Z</time>
      </trkpt>
      <trkpt lat="42.919944" lon="-1.508937">
        <ele>545.2</ele>
        <time>2018-08-22T06:01:09Z</time>
      </trkpt>
      <trkpt lat="42.919874" lon="-1.509056">
        <ele>546.2</ele>
        <time>2018-08-22T06:01:18Z</time>
      </trkpt>
      <trkpt lat="42.919744" lon="-1.509304">
        <ele>547.6</ele>
        <time>2018-08-22T06:01:36Z</time>
      </trkpt>
      <trkpt lat="42.919620" lon="-1.509510">
        <ele>548.6</ele>
        <time>2018-08-22T06:01:52Z</time>
      </trkpt>
      <trkpt lat="42.919532" lon="-1.509652">
        <ele>547.6</ele>
        <time>2018-08-22T06:02:04Z</time>
      </trkpt>
      <trkpt lat="42.919475" lon="-1.509740">
        <ele>548.1</ele>
        <time>2018-08-22T06:02:20Z</time>
      </trkpt>
      <trkpt lat="42.919428" lon="-1.509747">
        <ele>548.1</ele>
        <time>2018-08-22T06:02:30Z</time>
      </trkpt>
      <trkpt lat="42.919256" lon="-1.509822">
        <ele>550.0</ele>
        <time>2018-08-22T06:02:47Z</time>
      </trkpt>
      <trkpt lat="42.919193" lon="-1.509856">
        <ele>551.0</ele>
        <time>2018-08-22T06:02:54Z</time>
      </trkpt>
      <trkpt lat="42.919061" lon="-1.509964">
        <ele>553.4</ele>
        <time>2018-08-22T06:03:10Z</time>
      </trkpt>
      <trkpt lat="42.918978" lon="-1.510001">
        <ele>553.9</ele>
        <time>2018-08-22T06:03:18Z</time>
      </trkpt>
      <trkpt lat="42.918957" lon="-1.510012">
        <ele>554.3</ele>
        <time>2018-08-22T06:03:20Z</time>
      </trkpt>
      <trkpt lat="42.918813" lon="-1.510123">
        <ele>555.8</ele>
        <time>2018-08-22T06:03:35Z</time>
      </trkpt>
      <trkpt lat="42.918625" lon="-1.510240">
        <ele>555.8</ele>
        <time>2018-08-22T06:03:54Z</time>
      </trkpt>
      <trkpt lat="42.918510" lon="-1.510345">
        <ele>557.7</ele>
        <time>2018-08-22T06:04:07Z</time>
      </trkpt>
      <trkpt lat="42.918385" lon="-1.510470">
        <ele>558.2</ele>
        <time>2018-08-22T06:04:21Z</time>
      </trkpt>
      <trkpt lat="42.918226" lon="-1.510638">
        <ele>556.3</ele>
        <time>2018-08-22T06:04:39Z</time>
      </trkpt>
      <trkpt lat="42.918033" lon="-1.510808">
        <ele>556.7</ele>
        <time>2018-08-22T06:04:57Z</time>
      </trkpt>
      <trkpt lat="42.917884" lon="-1.510933">
        <ele>557.7</ele>
        <time>2018-08-22T06:05:11Z</time>
      </trkpt>
      <trkpt lat="42.917742" lon="-1.511092">
        <ele>558.7</ele>
        <time>2018-08-22T06:05:26Z</time>
      </trkpt>
      <trkpt lat="42.917584" lon="-1.511155">
        <ele>559.1</ele>
        <time>2018-08-22T06:05:41Z</time>
      </trkpt>
      <trkpt lat="42.917471" lon="-1.511207">
        <ele>560.6</ele>
        <time>2018-08-22T06:05:55Z</time>
      </trkpt>
      <trkpt lat="42.917371" lon="-1.511280">
        <ele>562.0</ele>
        <time>2018-08-22T06:06:07Z</time>
      </trkpt>
      <trkpt lat="42.917220" lon="-1.511380">
        <ele>564.0</ele>
        <time>2018-08-22T06:06:23Z</time>
      </trkpt>
      <trkpt lat="42.917070" lon="-1.511468">
        <ele>564.4</ele>
        <time>2018-08-22T06:06:39Z</time>
      </trkpt>
      <trkpt lat="42.916968" lon="-1.511526">
        <ele>566.8</ele>
        <time>2018-08-22T06:06:52Z</time>
      </trkpt>
      <trkpt lat="42.916873" lon="-1.511595">
        <ele>568.3</ele>
        <time>2018-08-22T06:07:06Z</time>
      </trkpt>
      <trkpt lat="42.916722" lon="-1.511654">
        <ele>570.2</ele>
        <time>2018-08-22T06:07:22Z</time>
      </trkpt>
      <trkpt lat="42.916534" lon="-1.511735">
        <ele>571.2</ele>
        <time>2018-08-22T06:07:38Z</time>
      </trkpt>
      <trkpt lat="42.916366" lon="-1.511818">
        <ele>570.2</ele>
        <time>2018-08-22T06:07:54Z</time>
      </trkpt>
      <trkpt lat="42.916325" lon="-1.511852">
        <ele>570.7</ele>
        <time>2018-08-22T06:07:58Z</time>
      </trkpt>
      <trkpt lat="42.916182" lon="-1.511988">
        <ele>569.2</ele>
        <time>2018-08-22T06:08:13Z</time>
      </trkpt>
      <trkpt lat="42.916029" lon="-1.512131">
        <ele>569.2</ele>
        <time>2018-08-22T06:08:29Z</time>
      </trkpt>
      <trkpt lat="42.915924" lon="-1.512309">
        <ele>568.3</ele>
        <time>2018-08-22T06:08:44Z</time>
      </trkpt>
      <trkpt lat="42.915918" lon="-1.512327">
        <ele>567.3</ele>
        <time>2018-08-22T06:08:45Z</time>
      </trkpt>
      <trkpt lat="42.915808" lon="-1.512497">
        <ele>566.3</ele>
        <time>2018-08-22T06:09:00Z</time>
      </trkpt>
      <trkpt lat="42.915687" lon="-1.512664">
        <ele>564.4</ele>
        <time>2018-08-22T06:09:15Z</time>
      </trkpt>
      <trkpt lat="42.915559" lon="-1.512869">
        <ele>561.5</ele>
        <time>2018-08-22T06:09:32Z</time>
      </trkpt>
      <trkpt lat="42.915520" lon="-1.512937">
        <ele>560.6</ele>
        <time>2018-08-22T06:09:38Z</time>
      </trkpt>
      <trkpt lat="42.915439" lon="-1.513158">
        <ele>558.7</ele>
        <time>2018-08-22T06:09:55Z</time>
      </trkpt>
      <trkpt lat="42.915346" lon="-1.513365">
        <ele>556.7</ele>
        <time>2018-08-22T06:10:10Z</time>
      </trkpt>
      <trkpt lat="42.915206" lon="-1.513582">
        <ele>554.3</ele>
        <time>2018-08-22T06:10:28Z</time>
      </trkpt>
      <trkpt lat="42.915160" lon="-1.513634">
        <ele>553.4</ele>
        <time>2018-08-22T06:10:33Z</time>
      </trkpt>
      <trkpt lat="42.915053" lon="-1.513742">
        <ele>551.0</ele>
        <time>2018-08-22T06:10:47Z</time>
      </trkpt>
      <trkpt lat="42.915011" lon="-1.513808">
        <ele>549.0</ele>
        <time>2018-08-22T06:10:54Z</time>
      </trkpt>
      <trkpt lat="42.915053" lon="-1.513838">
        <ele>549.0</ele>
        <time>2018-08-22T06:10:58Z</time>
      </trkpt>
      <trkpt lat="42.915141" lon="-1.513812">
        <ele>548.6</ele>
        <time>2018-08-22T06:11:05Z</time>
      </trkpt>
      <trkpt lat="42.915219" lon="-1.513843">
        <ele>548.1</ele>
        <time>2018-08-22T06:11:18Z</time>
      </trkpt>
      <trkpt lat="42.915169" lon="-1.513939">
        <ele>544.7</ele>
        <time>2018-08-22T06:11:30Z</time>
      </trkpt>
      <trkpt lat="42.915092" lon="-1.514051">
        <ele>542.3</ele>
        <time>2018-08-22T06:11:44Z</time>
      </trkpt>
      <trkpt lat="42.915043" lon="-1.514138">
        <ele>540.4</ele>
        <time>2018-08-22T06:11:55Z</time>
      </trkpt>
      <trkpt lat="42.914957" lon="-1.514263">
        <ele>537.5</ele>
        <time>2018-08-22T06:12:03Z</time>
      </trkpt>
      <trkpt lat="42.914947" lon="-1.514277">
        <ele>536.5</ele>
        <time>2018-08-22T06:12:05Z</time>
      </trkpt>
      <trkpt lat="42.914943" lon="-1.514290">
        <ele>536.5</ele>
        <time>2018-08-22T06:12:06Z</time>
      </trkpt>
      <trkpt lat="42.914932" lon="-1.514305">
        <ele>536.5</ele>
        <time>2018-08-22T06:12:07Z</time>
      </trkpt>
      <trkpt lat="42.914920" lon="-1.514321">
        <ele>535.1</ele>
        <time>2018-08-22T06:12:08Z</time>
      </trkpt>
      <trkpt lat="42.914910" lon="-1.514333">
        <ele>535.6</ele>
        <time>2018-08-22T06:12:09Z</time>
      </trkpt>
      <trkpt lat="42.914869" lon="-1.514433">
        <ele>533.2</ele>
        <time>2018-08-22T06:12:19Z</time>
      </trkpt>
      <trkpt lat="42.914876" lon="-1.514444">
        <ele>533.2</ele>
        <time>2018-08-22T06:12:20Z</time>
      </trkpt>
      <trkpt lat="42.914862" lon="-1.514454">
        <ele>532.2</ele>
        <time>2018-08-22T06:12:31Z</time>
      </trkpt>
      <trkpt lat="42.914853" lon="-1.514463">
        <ele>532.7</ele>
        <time>2018-08-22T06:12:32Z</time>
      </trkpt>
      <trkpt lat="42.914845" lon="-1.514482">
        <ele>532.7</ele>
        <time>2018-08-22T06:12:33Z</time>
      </trkpt>
      <trkpt lat="42.914835" lon="-1.514506">
        <ele>533.2</ele>
        <time>2018-08-22T06:12:34Z</time>
      </trkpt>
      <trkpt lat="42.914748" lon="-1.514629">
        <ele>530.3</ele>
        <time>2018-08-22T06:12:43Z</time>
      </trkpt>
      <trkpt lat="42.914725" lon="-1.514649">
        <ele>529.3</ele>
        <time>2018-08-22T06:12:46Z</time>
      </trkpt>
      <trkpt lat="42.914720" lon="-1.514666">
        <ele>529.3</ele>
        <time>2018-08-22T06:12:47Z</time>
      </trkpt>
      <trkpt lat="42.914713" lon="-1.514681">
        <ele>529.3</ele>
        <time>2018-08-22T06:12:48Z</time>
      </trkpt>
      <trkpt lat="42.914703" lon="-1.514693">
        <ele>529.3</ele>
        <time>2018-08-22T06:12:49Z</time>
      </trkpt>
      <trkpt lat="42.914693" lon="-1.514704">
        <ele>529.3</ele>
        <time>2018-08-22T06:12:50Z</time>
      </trkpt>
      <trkpt lat="42.914645" lon="-1.514762">
        <ele>528.9</ele>
        <time>2018-08-22T06:12:56Z</time>
      </trkpt>
      <trkpt lat="42.914522" lon="-1.514979">
        <ele>526.5</ele>
        <time>2018-08-22T06:13:13Z</time>
      </trkpt>
      <trkpt lat="42.914433" lon="-1.515180">
        <ele>525.0</ele>
        <time>2018-08-22T06:13:29Z</time>
      </trkpt>
      <trkpt lat="42.914336" lon="-1.515375">
        <ele>523.1</ele>
        <time>2018-08-22T06:13:44Z</time>
      </trkpt>
      <trkpt lat="42.914217" lon="-1.515534">
        <ele>520.7</ele>
        <time>2018-08-22T06:13:59Z</time>
      </trkpt>
      <trkpt lat="42.914119" lon="-1.515690">
        <ele>519.7</ele>
        <time>2018-08-22T06:14:12Z</time>
      </trkpt>
      <trkpt lat="42.913976" lon="-1.515766">
        <ele>518.3</ele>
        <time>2018-08-22T06:14:25Z</time>
      </trkpt>
      <trkpt lat="42.913800" lon="-1.515832">
        <ele>516.4</ele>
        <time>2018-08-22T06:14:41Z</time>
      </trkpt>
      <trkpt lat="42.913696" lon="-1.515957">
        <ele>514.9</ele>
        <time>2018-08-22T06:14:55Z</time>
      </trkpt>
      <trkpt lat="42.913600" lon="-1.516129">
        <ele>515.9</ele>
        <time>2018-08-22T06:15:10Z</time>
      </trkpt>
      <trkpt lat="42.913539" lon="-1.516211">
        <ele>515.4</ele>
        <time>2018-08-22T06:15:25Z</time>
      </trkpt>
      <trkpt lat="42.913514" lon="-1.516265">
        <ele>514.9</ele>
        <time>2018-08-22T06:15:39Z</time>
      </trkpt>
      <trkpt lat="42.913514" lon="-1.516268">
        <ele>515.4</ele>
        <time>2018-08-22T06:15:51Z</time>
      </trkpt>
      <trkpt lat="42.913423" lon="-1.516361">
        <ele>514.9</ele>
        <time>2018-08-22T06:16:04Z</time>
      </trkpt>
      <trkpt lat="42.913386" lon="-1.516414">
        <ele>515.4</ele>
        <time>2018-08-22T06:16:10Z</time>
      </trkpt>
      <trkpt lat="42.913379" lon="-1.516427">
        <ele>515.9</ele>
        <time>2018-08-22T06:16:11Z</time>
      </trkpt>
      <trkpt lat="42.913299" lon="-1.516561">
        <ele>514.4</ele>
        <time>2018-08-22T06:16:23Z</time>
      </trkpt>
      <trkpt lat="42.913187" lon="-1.516685">
        <ele>514.9</ele>
        <time>2018-08-22T06:16:38Z</time>
      </trkpt>
      <trkpt lat="42.913045" lon="-1.516657">
        <ele>515.9</ele>
        <time>2018-08-22T06:16:53Z</time>
      </trkpt>
      <trkpt lat="42.913033" lon="-1.516654">
        <ele>515.9</ele>
        <time>2018-08-22T06:16:54Z</time>
      </trkpt>
      <trkpt lat="42.913014" lon="-1.516645">
        <ele>515.9</ele>
        <time>2018-08-22T06:16:56Z</time>
      </trkpt>
      <trkpt lat="42.912963" lon="-1.516632">
        <ele>516.4</ele>
        <time>2018-08-22T06:17:02Z</time>
      </trkpt>
      <trkpt lat="42.912953" lon="-1.516629">
        <ele>516.8</ele>
        <time>2018-08-22T06:17:03Z</time>
      </trkpt>
      <trkpt lat="42.912847" lon="-1.516617">
        <ele>516.8</ele>
        <time>2018-08-22T06:17:15Z</time>
      </trkpt>
      <trkpt lat="42.912747" lon="-1.516633">
        <ele>518.3</ele>
        <time>2018-08-22T06:17:26Z</time>
      </trkpt>
      <trkpt lat="42.912637" lon="-1.516673">
        <ele>520.2</ele>
        <time>2018-08-22T06:17:41Z</time>
      </trkpt>
      <trkpt lat="42.912510" lon="-1.516725">
        <ele>520.7</ele>
        <time>2018-08-22T06:17:53Z</time>
      </trkpt>
      <trkpt lat="42.912495" lon="-1.516728">
        <ele>520.7</ele>
        <time>2018-08-22T06:17:54Z</time>
      </trkpt>
      <trkpt lat="42.912349" lon="-1.516769">
        <ele>522.1</ele>
        <time>2018-08-22T06:18:09Z</time>
      </trkpt>
      <trkpt lat="42.912238" lon="-1.516807">
        <ele>524.1</ele>
        <time>2018-08-22T06:18:21Z</time>
      </trkpt>
      <trkpt lat="42.912117" lon="-1.516865">
        <ele>526.0</ele>
        <time>2018-08-22T06:18:37Z</time>
      </trkpt>
      <trkpt lat="42.912053" lon="-1.516921">
        <ele>526.9</ele>
        <time>2018-08-22T06:18:48Z</time>
      </trkpt>
      <trkpt lat="42.911987" lon="-1.517012">
        <ele>528.9</ele>
        <time>2018-08-22T06:19:01Z</time>
      </trkpt>
      <trkpt lat="42.911901" lon="-1.517085">
        <ele>530.3</ele>
        <time>2018-08-22T06:19:14Z</time>
      </trkpt>
      <trkpt lat="42.911793" lon="-1.517139">
        <ele>531.8</ele>
        <time>2018-08-22T06:19:28Z</time>
      </trkpt>
      <trkpt lat="42.911684" lon="-1.517227">
        <ele>534.6</ele>
        <time>2018-08-22T06:19:44Z</time>
      </trkpt>
      <trkpt lat="42.911588" lon="-1.517291">
        <ele>537.0</ele>
        <time>2018-08-22T06:20:00Z</time>
      </trkpt>
      <trkpt lat="42.911487" lon="-1.517344">
        <ele>539.0</ele>
        <time>2018-08-22T06:20:14Z</time>
      </trkpt>
      <trkpt lat="42.911396" lon="-1.517441">
        <ele>541.8</ele>
        <time>2018-08-22T06:20:29Z</time>
      </trkpt>
      <trkpt lat="42.911368" lon="-1.517457">
        <ele>542.3</ele>
        <time>2018-08-22T06:20:33Z</time>
      </trkpt>
      <trkpt lat="42.911224" lon="-1.517500">
        <ele>544.2</ele>
        <time>2018-08-22T06:20:49Z</time>
      </trkpt>
      <trkpt lat="42.911214" lon="-1.517499">
        <ele>544.2</ele>
        <time>2018-08-22T06:20:50Z</time>
      </trkpt>
      <trkpt lat="42.911123" lon="-1.517449">
        <ele>545.2</ele>
        <time>2018-08-22T06:21:00Z</time>
      </trkpt>
      <trkpt lat="42.911081" lon="-1.517287">
        <ele>546.2</ele>
        <time>2018-08-22T06:21:16Z</time>
      </trkpt>
      <trkpt lat="42.911094" lon="-1.517211">
        <ele>549.0</ele>
        <time>2018-08-22T06:23:22Z</time>
      </trkpt>
      <trkpt lat="42.911166" lon="-1.517111">
        <ele>546.2</ele>
        <time>2018-08-22T06:24:40Z</time>
      </trkpt>
      <trkpt lat="42.911102" lon="-1.517187">
        <ele>545.2</ele>
        <time>2018-08-22T06:25:20Z</time>
      </trkpt>
      <trkpt lat="42.911053" lon="-1.517132">
        <ele>545.2</ele>
        <time>2018-08-22T06:25:24Z</time>
      </trkpt>
      <trkpt lat="42.911002" lon="-1.517132">
        <ele>544.7</ele>
        <time>2018-08-22T06:25:28Z</time>
      </trkpt>
      <trkpt lat="42.910767" lon="-1.517134">
        <ele>543.8</ele>
        <time>2018-08-22T06:25:46Z</time>
      </trkpt>
      <trkpt lat="42.910598" lon="-1.517157">
        <ele>542.8</ele>
        <time>2018-08-22T06:26:00Z</time>
      </trkpt>
      <trkpt lat="42.910460" lon="-1.517402">
        <ele>541.8</ele>
        <time>2018-08-22T06:26:18Z</time>
      </trkpt>
      <trkpt lat="42.910422" lon="-1.517650">
        <ele>540.9</ele>
        <time>2018-08-22T06:26:33Z</time>
      </trkpt>
      <trkpt lat="42.910380" lon="-1.517934">
        <ele>539.4</ele>
        <time>2018-08-22T06:26:51Z</time>
      </trkpt>
      <trkpt lat="42.910367" lon="-1.518207">
        <ele>538.0</ele>
        <time>2018-08-22T06:27:08Z</time>
      </trkpt>
      <trkpt lat="42.910342" lon="-1.518472">
        <ele>537.0</ele>
        <time>2018-08-22T06:27:26Z</time>
      </trkpt>
      <trkpt lat="42.910320" lon="-1.518699">
        <ele>536.5</ele>
        <time>2018-08-22T06:27:40Z</time>
      </trkpt>
      <trkpt lat="42.910297" lon="-1.518946">
        <ele>535.1</ele>
        <time>2018-08-22T06:27:57Z</time>
      </trkpt>
      <trkpt lat="42.910286" lon="-1.519041">
        <ele>531.8</ele>
        <time>2018-08-22T06:28:03Z</time>
      </trkpt>
      <trkpt lat="42.910284" lon="-1.519058">
        <ele>532.7</ele>
        <time>2018-08-22T06:28:04Z</time>
      </trkpt>
      <trkpt lat="42.910285" lon="-1.519078">
        <ele>537.0</ele>
        <time>2018-08-22T06:28:05Z</time>
      </trkpt>
      <trkpt lat="42.910276" lon="-1.519091">
        <ele>535.1</ele>
        <time>2018-08-22T06:28:06Z</time>
      </trkpt>
      <trkpt lat="42.910278" lon="-1.519124">
        <ele>534.6</ele>
        <time>2018-08-22T06:28:08Z</time>
      </trkpt>
      <trkpt lat="42.910243" lon="-1.519370">
        <ele>533.7</ele>
        <time>2018-08-22T06:28:23Z</time>
      </trkpt>
      <trkpt lat="42.910172" lon="-1.519685">
        <ele>531.8</ele>
        <time>2018-08-22T06:28:42Z</time>
      </trkpt>
      <trkpt lat="42.910063" lon="-1.519984">
        <ele>529.8</ele>
        <time>2018-08-22T06:29:02Z</time>
      </trkpt>
      <trkpt lat="42.909983" lon="-1.520219">
        <ele>528.4</ele>
        <time>2018-08-22T06:29:17Z</time>
      </trkpt>
      <trkpt lat="42.909897" lon="-1.520477">
        <ele>526.9</ele>
        <time>2018-08-22T06:29:34Z</time>
      </trkpt>
      <trkpt lat="42.909796" lon="-1.520790">
        <ele>526.0</ele>
        <time>2018-08-22T06:29:52Z</time>
      </trkpt>
      <trkpt lat="42.909713" lon="-1.521041">
        <ele>525.5</ele>
        <time>2018-08-22T06:30:09Z</time>
      </trkpt>
      <trkpt lat="42.909585" lon="-1.521381">
        <ele>523.1</ele>
        <time>2018-08-22T06:30:31Z</time>
      </trkpt>
      <trkpt lat="42.909494" lon="-1.521606">
        <ele>522.1</ele>
        <time>2018-08-22T06:30:47Z</time>
      </trkpt>
      <trkpt lat="42.909490" lon="-1.521649">
        <ele>521.7</ele>
        <time>2018-08-22T06:31:00Z</time>
      </trkpt>
      <trkpt lat="42.909460" lon="-1.521730">
        <ele>521.2</ele>
        <time>2018-08-22T06:31:14Z</time>
      </trkpt>
      <trkpt lat="42.909421" lon="-1.521774">
        <ele>520.7</ele>
        <time>2018-08-22T06:31:18Z</time>
      </trkpt>
      <trkpt lat="42.909303" lon="-1.522011">
        <ele>519.7</ele>
        <time>2018-08-22T06:31:35Z</time>
      </trkpt>
      <trkpt lat="42.909194" lon="-1.522281">
        <ele>518.3</ele>
        <time>2018-08-22T06:31:53Z</time>
      </trkpt>
      <trkpt lat="42.909123" lon="-1.522594">
        <ele>517.3</ele>
        <time>2018-08-22T06:32:12Z</time>
      </trkpt>
      <trkpt lat="42.909075" lon="-1.522889">
        <ele>514.9</ele>
        <time>2018-08-22T06:32:31Z</time>
      </trkpt>
      <trkpt lat="42.909084" lon="-1.523171">
        <ele>513.0</ele>
        <time>2018-08-22T06:32:47Z</time>
      </trkpt>
      <trkpt lat="42.909112" lon="-1.523251">
        <ele>512.0</ele>
        <time>2018-08-22T06:32:52Z</time>
      </trkpt>
      <trkpt lat="42.909055" lon="-1.523402">
        <ele>512.5</ele>
        <time>2018-08-22T06:33:04Z</time>
      </trkpt>
      <trkpt lat="42.909036" lon="-1.523435">
        <ele>513.0</ele>
        <time>2018-08-22T06:33:07Z</time>
      </trkpt>
      <trkpt lat="42.908994" lon="-1.523483">
        <ele>514.0</ele>
        <time>2018-08-22T06:33:12Z</time>
      </trkpt>
      <trkpt lat="42.908869" lon="-1.523641">
        <ele>515.9</ele>
        <time>2018-08-22T06:33:27Z</time>
      </trkpt>
      <trkpt lat="42.908847" lon="-1.523672">
        <ele>515.9</ele>
        <time>2018-08-22T06:33:30Z</time>
      </trkpt>
      <trkpt lat="42.908788" lon="-1.523743">
        <ele>516.4</ele>
        <time>2018-08-22T06:33:38Z</time>
      </trkpt>
      <trkpt lat="42.908774" lon="-1.523769">
        <ele>516.8</ele>
        <time>2018-08-22T06:33:40Z</time>
      </trkpt>
      <trkpt lat="42.908755" lon="-1.523785">
        <ele>517.3</ele>
        <time>2018-08-22T06:33:42Z</time>
      </trkpt>
      <trkpt lat="42.908629" lon="-1.523956">
        <ele>519.2</ele>
        <time>2018-08-22T06:33:59Z</time>
      </trkpt>
      <trkpt lat="42.908486" lon="-1.524122">
        <ele>520.2</ele>
        <time>2018-08-22T06:34:14Z</time>
      </trkpt>
      <trkpt lat="42.908386" lon="-1.524242">
        <ele>522.1</ele>
        <time>2018-08-22T06:34:26Z</time>
      </trkpt>
      <trkpt lat="42.908254" lon="-1.524423">
        <ele>523.6</ele>
        <time>2018-08-22T06:34:42Z</time>
      </trkpt>
      <trkpt lat="42.908145" lon="-1.524548">
        <ele>524.1</ele>
        <time>2018-08-22T06:34:55Z</time>
      </trkpt>
      <trkpt lat="42.908006" lon="-1.524700">
        <ele>526.0</ele>
        <time>2018-08-22T06:35:10Z</time>
      </trkpt>
      <trkpt lat="42.907898" lon="-1.524830">
        <ele>527.4</ele>
        <time>2018-08-22T06:35:22Z</time>
      </trkpt>
      <trkpt lat="42.907821" lon="-1.525005">
        <ele>526.9</ele>
        <time>2018-08-22T06:35:36Z</time>
      </trkpt>
      <trkpt lat="42.907783" lon="-1.525103">
        <ele>526.9</ele>
        <time>2018-08-22T06:35:51Z</time>
      </trkpt>
      <trkpt lat="42.907688" lon="-1.525197">
        <ele>526.9</ele>
        <time>2018-08-22T06:36:03Z</time>
      </trkpt>
      <trkpt lat="42.907511" lon="-1.525166">
        <ele>525.5</ele>
        <time>2018-08-22T06:36:19Z</time>
      </trkpt>
      <trkpt lat="42.907401" lon="-1.525128">
        <ele>524.5</ele>
        <time>2018-08-22T06:36:30Z</time>
      </trkpt>
      <trkpt lat="42.907297" lon="-1.525046">
        <ele>523.6</ele>
        <time>2018-08-22T06:36:41Z</time>
      </trkpt>
      <trkpt lat="42.907148" lon="-1.525034">
        <ele>521.7</ele>
        <time>2018-08-22T06:36:55Z</time>
      </trkpt>
      <trkpt lat="42.907037" lon="-1.525069">
        <ele>519.7</ele>
        <time>2018-08-22T06:37:08Z</time>
      </trkpt>
      <trkpt lat="42.906910" lon="-1.525142">
        <ele>518.8</ele>
        <time>2018-08-22T06:37:23Z</time>
      </trkpt>
      <trkpt lat="42.906786" lon="-1.525200">
        <ele>517.8</ele>
        <time>2018-08-22T06:37:37Z</time>
      </trkpt>
      <trkpt lat="42.906657" lon="-1.525242">
        <ele>516.8</ele>
        <time>2018-08-22T06:37:52Z</time>
      </trkpt>
      <trkpt lat="42.906456" lon="-1.525273">
        <ele>516.4</ele>
        <time>2018-08-22T06:38:08Z</time>
      </trkpt>
      <trkpt lat="42.906446" lon="-1.525351">
        <ele>515.4</ele>
        <time>2018-08-22T06:38:15Z</time>
      </trkpt>
      <trkpt lat="42.906453" lon="-1.525402">
        <ele>514.4</ele>
        <time>2018-08-22T06:38:18Z</time>
      </trkpt>
      <trkpt lat="42.906432" lon="-1.525556">
        <ele>516.8</ele>
        <time>2018-08-22T06:38:29Z</time>
      </trkpt>
      <trkpt lat="42.906425" lon="-1.525598">
        <ele>516.8</ele>
        <time>2018-08-22T06:38:32Z</time>
      </trkpt>
      <trkpt lat="42.906387" lon="-1.525677">
        <ele>518.3</ele>
        <time>2018-08-22T06:39:17Z</time>
      </trkpt>
      <trkpt lat="42.906408" lon="-1.525773">
        <ele>518.8</ele>
        <time>2018-08-22T06:39:36Z</time>
      </trkpt>
      <trkpt lat="42.906483" lon="-1.526034">
        <ele>520.7</ele>
        <time>2018-08-22T06:39:51Z</time>
      </trkpt>
      <trkpt lat="42.906479" lon="-1.526064">
        <ele>521.2</ele>
        <time>2018-08-22T06:39:53Z</time>
      </trkpt>
      <trkpt lat="42.906510" lon="-1.526160">
        <ele>520.7</ele>
        <time>2018-08-22T06:39:59Z</time>
      </trkpt>
      <trkpt lat="42.906582" lon="-1.526247">
        <ele>521.2</ele>
        <time>2018-08-22T06:40:05Z</time>
      </trkpt>
      <trkpt lat="42.906699" lon="-1.526412">
        <ele>521.7</ele>
        <time>2018-08-22T06:40:17Z</time>
      </trkpt>
      <trkpt lat="42.906855" lon="-1.526626">
        <ele>522.6</ele>
        <time>2018-08-22T06:40:32Z</time>
      </trkpt>
      <trkpt lat="42.906915" lon="-1.526699">
        <ele>521.7</ele>
        <time>2018-08-22T06:40:39Z</time>
      </trkpt>
      <trkpt lat="42.907027" lon="-1.526896">
        <ele>520.7</ele>
        <time>2018-08-22T06:40:53Z</time>
      </trkpt>
      <trkpt lat="42.907110" lon="-1.527162">
        <ele>520.2</ele>
        <time>2018-08-22T06:41:11Z</time>
      </trkpt>
      <trkpt lat="42.907162" lon="-1.527327">
        <ele>520.2</ele>
        <time>2018-08-22T06:41:26Z</time>
      </trkpt>
      <trkpt lat="42.907218" lon="-1.527433">
        <ele>519.2</ele>
        <time>2018-08-22T06:44:20Z</time>
      </trkpt>
      <trkpt lat="42.907333" lon="-1.527568">
        <ele>517.3</ele>
        <time>2018-08-22T06:44:35Z</time>
      </trkpt>
      <trkpt lat="42.907452" lon="-1.527782">
        <ele>516.8</ele>
        <time>2018-08-22T06:44:51Z</time>
      </trkpt>
      <trkpt lat="42.907517" lon="-1.528013">
        <ele>516.8</ele>
        <time>2018-08-22T06:45:05Z</time>
      </trkpt>
      <trkpt lat="42.907578" lon="-1.528246">
        <ele>517.8</ele>
        <time>2018-08-22T06:45:19Z</time>
      </trkpt>
      <trkpt lat="42.907586" lon="-1.528317">
        <ele>517.3</ele>
        <time>2018-08-22T06:45:23Z</time>
      </trkpt>
      <trkpt lat="42.907628" lon="-1.528519">
        <ele>517.8</ele>
        <time>2018-08-22T06:45:35Z</time>
      </trkpt>
      <trkpt lat="42.907648" lon="-1.528833">
        <ele>516.8</ele>
        <time>2018-08-22T06:45:53Z</time>
      </trkpt>
      <trkpt lat="42.907607" lon="-1.529088">
        <ele>515.9</ele>
        <time>2018-08-22T06:46:08Z</time>
      </trkpt>
      <trkpt lat="42.907576" lon="-1.529313">
        <ele>516.4</ele>
        <time>2018-08-22T06:46:21Z</time>
      </trkpt>
      <trkpt lat="42.907480" lon="-1.529625">
        <ele>514.9</ele>
        <time>2018-08-22T06:46:39Z</time>
      </trkpt>
      <trkpt lat="42.907400" lon="-1.529895">
        <ele>514.4</ele>
        <time>2018-08-22T06:46:56Z</time>
      </trkpt>
      <trkpt lat="42.907346" lon="-1.530019">
        <ele>514.4</ele>
        <time>2018-08-22T06:47:05Z</time>
      </trkpt>
      <trkpt lat="42.907332" lon="-1.530065">
        <ele>514.9</ele>
        <time>2018-08-22T06:47:08Z</time>
      </trkpt>
      <trkpt lat="42.907264" lon="-1.530224">
        <ele>514.0</ele>
        <time>2018-08-22T06:47:18Z</time>
      </trkpt>
      <trkpt lat="42.907206" lon="-1.530480">
        <ele>514.0</ele>
        <time>2018-08-22T06:47:34Z</time>
      </trkpt>
      <trkpt lat="42.907189" lon="-1.530532">
        <ele>514.4</ele>
        <time>2018-08-22T06:47:38Z</time>
      </trkpt>
      <trkpt lat="42.907104" lon="-1.530681">
        <ele>514.0</ele>
        <time>2018-08-22T06:47:48Z</time>
      </trkpt>
      <trkpt lat="42.906941" lon="-1.530978">
        <ele>514.0</ele>
        <time>2018-08-22T06:48:07Z</time>
      </trkpt>
      <trkpt lat="42.906834" lon="-1.531252">
        <ele>513.5</ele>
        <time>2018-08-22T06:48:24Z</time>
      </trkpt>
      <trkpt lat="42.906717" lon="-1.531494">
        <ele>513.5</ele>
        <time>2018-08-22T06:48:42Z</time>
      </trkpt>
      <trkpt lat="42.906591" lon="-1.531732">
        <ele>514.0</ele>
        <time>2018-08-22T06:48:58Z</time>
      </trkpt>
      <trkpt lat="42.906472" lon="-1.531958">
        <ele>512.0</ele>
        <time>2018-08-22T06:49:14Z</time>
      </trkpt>
      <trkpt lat="42.906333" lon="-1.532223">
        <ele>511.6</ele>
        <time>2018-08-22T06:49:33Z</time>
      </trkpt>
      <trkpt lat="42.906221" lon="-1.532396">
        <ele>510.1</ele>
        <time>2018-08-22T06:49:48Z</time>
      </trkpt>
      <trkpt lat="42.906050" lon="-1.532599">
        <ele>510.1</ele>
        <time>2018-08-22T06:50:06Z</time>
      </trkpt>
      <trkpt lat="42.905957" lon="-1.532720">
        <ele>510.1</ele>
        <time>2018-08-22T06:50:17Z</time>
      </trkpt>
      <trkpt lat="42.905917" lon="-1.532828">
        <ele>509.6</ele>
        <time>2018-08-22T06:50:24Z</time>
      </trkpt>
      <trkpt lat="42.905800" lon="-1.533087">
        <ele>509.6</ele>
        <time>2018-08-22T06:50:42Z</time>
      </trkpt>
      <trkpt lat="42.905797" lon="-1.533094">
        <ele>509.6</ele>
        <time>2018-08-22T06:50:43Z</time>
      </trkpt>
      <trkpt lat="42.905638" lon="-1.533245">
        <ele>511.6</ele>
        <time>2018-08-22T06:51:00Z</time>
      </trkpt>
      <trkpt lat="42.905474" lon="-1.533407">
        <ele>511.1</ele>
        <time>2018-08-22T06:51:17Z</time>
      </trkpt>
      <trkpt lat="42.905283" lon="-1.533574">
        <ele>512.0</ele>
        <time>2018-08-22T06:51:36Z</time>
      </trkpt>
      <trkpt lat="42.905117" lon="-1.533727">
        <ele>511.1</ele>
        <time>2018-08-22T06:51:52Z</time>
      </trkpt>
      <trkpt lat="42.904964" lon="-1.533909">
        <ele>510.1</ele>
        <time>2018-08-22T06:52:09Z</time>
      </trkpt>
      <trkpt lat="42.904795" lon="-1.533949">
        <ele>509.2</ele>
        <time>2018-08-22T06:52:24Z</time>
      </trkpt>
      <trkpt lat="42.904653" lon="-1.534078">
        <ele>509.2</ele>
        <time>2018-08-22T06:52:39Z</time>
      </trkpt>
      <trkpt lat="42.904497" lon="-1.534236">
        <ele>510.1</ele>
        <time>2018-08-22T06:52:56Z</time>
      </trkpt>
      <trkpt lat="42.904371" lon="-1.534385">
        <ele>509.6</ele>
        <time>2018-08-22T06:53:12Z</time>
      </trkpt>
      <trkpt lat="42.904342" lon="-1.534403">
        <ele>510.1</ele>
        <time>2018-08-22T06:53:16Z</time>
      </trkpt>
      <trkpt lat="42.904321" lon="-1.534409">
        <ele>510.1</ele>
        <time>2018-08-22T06:53:18Z</time>
      </trkpt>
      <trkpt lat="42.904294" lon="-1.534430">
        <ele>509.6</ele>
        <time>2018-08-22T06:53:21Z</time>
      </trkpt>
      <trkpt lat="42.904188" lon="-1.534501">
        <ele>510.1</ele>
        <time>2018-08-22T06:53:32Z</time>
      </trkpt>
      <trkpt lat="42.904071" lon="-1.534654">
        <ele>510.1</ele>
        <time>2018-08-22T06:53:46Z</time>
      </trkpt>
      <trkpt lat="42.904001" lon="-1.534753">
        <ele>509.2</ele>
        <time>2018-08-22T06:54:00Z</time>
      </trkpt>
      <trkpt lat="42.903920" lon="-1.534892">
        <ele>509.2</ele>
        <time>2018-08-22T06:54:15Z</time>
      </trkpt>
      <trkpt lat="42.903860" lon="-1.535013">
        <ele>508.7</ele>
        <time>2018-08-22T06:54:27Z</time>
      </trkpt>
      <trkpt lat="42.903773" lon="-1.535124">
        <ele>507.7</ele>
        <time>2018-08-22T06:54:39Z</time>
      </trkpt>
      <trkpt lat="42.903600" lon="-1.535233">
        <ele>506.3</ele>
        <time>2018-08-22T06:54:56Z</time>
      </trkpt>
      <trkpt lat="42.903472" lon="-1.535295">
        <ele>506.3</ele>
        <time>2018-08-22T06:55:07Z</time>
      </trkpt>
      <trkpt lat="42.903321" lon="-1.535305">
        <ele>505.8</ele>
        <time>2018-08-22T06:55:20Z</time>
      </trkpt>
      <trkpt lat="42.903212" lon="-1.535280">
        <ele>506.3</ele>
        <time>2018-08-22T06:55:31Z</time>
      </trkpt>
      <trkpt lat="42.903122" lon="-1.535353">
        <ele>506.8</ele>
        <time>2018-08-22T06:55:47Z</time>
      </trkpt>
      <trkpt lat="42.903127" lon="-1.535459">
        <ele>507.7</ele>
        <time>2018-08-22T06:55:58Z</time>
      </trkpt>
      <trkpt lat="42.903142" lon="-1.535521">
        <ele>508.7</ele>
        <time>2018-08-22T06:56:05Z</time>
      </trkpt>
      <trkpt lat="42.903179" lon="-1.535668">
        <ele>510.1</ele>
        <time>2018-08-22T06:56:17Z</time>
      </trkpt>
      <trkpt lat="42.903181" lon="-1.535743">
        <ele>510.6</ele>
        <time>2018-08-22T06:56:22Z</time>
      </trkpt>
      <trkpt lat="42.903186" lon="-1.535830">
        <ele>510.1</ele>
        <time>2018-08-22T06:56:28Z</time>
      </trkpt>
      <trkpt lat="42.903124" lon="-1.536034">
        <ele>510.1</ele>
        <time>2018-08-22T06:56:44Z</time>
      </trkpt>
      <trkpt lat="42.903019" lon="-1.536266">
        <ele>509.6</ele>
        <time>2018-08-22T06:57:01Z</time>
      </trkpt>
      <trkpt lat="42.902925" lon="-1.536439">
        <ele>509.2</ele>
        <time>2018-08-22T06:57:18Z</time>
      </trkpt>
      <trkpt lat="42.902810" lon="-1.536664">
        <ele>508.2</ele>
        <time>2018-08-22T06:57:36Z</time>
      </trkpt>
      <trkpt lat="42.902765" lon="-1.536761">
        <ele>508.2</ele>
        <time>2018-08-22T06:57:43Z</time>
      </trkpt>
      <trkpt lat="42.902669" lon="-1.536929">
        <ele>507.2</ele>
        <time>2018-08-22T06:57:59Z</time>
      </trkpt>
      <trkpt lat="42.902577" lon="-1.537112">
        <ele>505.8</ele>
        <time>2018-08-22T06:58:15Z</time>
      </trkpt>
      <trkpt lat="42.902492" lon="-1.537279">
        <ele>504.8</ele>
        <time>2018-08-22T06:58:30Z</time>
      </trkpt>
      <trkpt lat="42.902418" lon="-1.537441">
        <ele>502.9</ele>
        <time>2018-08-22T06:58:45Z</time>
      </trkpt>
      <trkpt lat="42.902365" lon="-1.537569">
        <ele>502.0</ele>
        <time>2018-08-22T06:58:58Z</time>
      </trkpt>
      <trkpt lat="42.902294" lon="-1.537725">
        <ele>499.5</ele>
        <time>2018-08-22T06:59:14Z</time>
      </trkpt>
      <trkpt lat="42.902208" lon="-1.537906">
        <ele>498.1</ele>
        <time>2018-08-22T06:59:30Z</time>
      </trkpt>
      <trkpt lat="42.902117" lon="-1.538035">
        <ele>499.5</ele>
        <time>2018-08-22T06:59:43Z</time>
      </trkpt>
      <trkpt lat="42.902039" lon="-1.538171">
        <ele>500.5</ele>
        <time>2018-08-22T06:59:56Z</time>
      </trkpt>
      <trkpt lat="42.901980" lon="-1.538405">
        <ele>498.6</ele>
        <time>2018-08-22T07:00:12Z</time>
      </trkpt>
      <trkpt lat="42.901885" lon="-1.538613">
        <ele>498.1</ele>
        <time>2018-08-22T07:00:28Z</time>
      </trkpt>
      <trkpt lat="42.901792" lon="-1.538740">
        <ele>499.1</ele>
        <time>2018-08-22T07:00:41Z</time>
      </trkpt>
      <trkpt lat="42.901703" lon="-1.538852">
        <ele>499.5</ele>
        <time>2018-08-22T07:00:52Z</time>
      </trkpt>
      <trkpt lat="42.901609" lon="-1.538941">
        <ele>501.0</ele>
        <time>2018-08-22T07:01:04Z</time>
      </trkpt>
      <trkpt lat="42.901485" lon="-1.539065">
        <ele>502.9</ele>
        <time>2018-08-22T07:01:19Z</time>
      </trkpt>
      <trkpt lat="42.901441" lon="-1.539075">
        <ele>503.4</ele>
        <time>2018-08-22T07:01:23Z</time>
      </trkpt>
      <trkpt lat="42.901355" lon="-1.538993">
        <ele>504.4</ele>
        <time>2018-08-22T07:01:34Z</time>
      </trkpt>
      <trkpt lat="42.901242" lon="-1.538916">
        <ele>503.9</ele>
        <time>2018-08-22T07:01:50Z</time>
      </trkpt>
      <trkpt lat="42.901130" lon="-1.538881">
        <ele>501.5</ele>
        <time>2018-08-22T07:02:05Z</time>
      </trkpt>
      <trkpt lat="42.901086" lon="-1.538994">
        <ele>501.0</ele>
        <time>2018-08-22T07:02:13Z</time>
      </trkpt>
      <trkpt lat="42.901066" lon="-1.539273">
        <ele>500.5</ele>
        <time>2018-08-22T07:02:30Z</time>
      </trkpt>
      <trkpt lat="42.901074" lon="-1.539330">
        <ele>500.5</ele>
        <time>2018-08-22T07:02:40Z</time>
      </trkpt>
      <trkpt lat="42.901088" lon="-1.539434">
        <ele>501.5</ele>
        <time>2018-08-22T07:02:48Z</time>
      </trkpt>
      <trkpt lat="42.901073" lon="-1.539655">
        <ele>502.9</ele>
        <time>2018-08-22T07:03:03Z</time>
      </trkpt>
      <trkpt lat="42.901001" lon="-1.539817">
        <ele>503.4</ele>
        <time>2018-08-22T07:03:14Z</time>
      </trkpt>
      <trkpt lat="42.900936" lon="-1.539935">
        <ele>502.0</ele>
        <time>2018-08-22T07:03:24Z</time>
      </trkpt>
      <trkpt lat="42.900865" lon="-1.540095">
        <ele>500.5</ele>
        <time>2018-08-22T07:03:37Z</time>
      </trkpt>
      <trkpt lat="42.900811" lon="-1.540195">
        <ele>499.1</ele>
        <time>2018-08-22T07:03:47Z</time>
      </trkpt>
      <trkpt lat="42.900758" lon="-1.540282">
        <ele>498.6</ele>
        <time>2018-08-22T07:03:55Z</time>
      </trkpt>
      <trkpt lat="42.900714" lon="-1.540367">
        <ele>497.6</ele>
        <time>2018-08-22T07:04:03Z</time>
      </trkpt>
      <trkpt lat="42.900641" lon="-1.540581">
        <ele>495.7</ele>
        <time>2018-08-22T07:04:21Z</time>
      </trkpt>
      <trkpt lat="42.900572" lon="-1.540642">
        <ele>496.2</ele>
        <time>2018-08-22T07:04:34Z</time>
      </trkpt>
      <trkpt lat="42.900500" lon="-1.540687">
        <ele>496.7</ele>
        <time>2018-08-22T07:04:41Z</time>
      </trkpt>
      <trkpt lat="42.900388" lon="-1.540804">
        <ele>498.1</ele>
        <time>2018-08-22T07:04:53Z</time>
      </trkpt>
      <trkpt lat="42.900362" lon="-1.540826">
        <ele>499.1</ele>
        <time>2018-08-22T07:04:56Z</time>
      </trkpt>
      <trkpt lat="42.900307" lon="-1.540851">
        <ele>499.5</ele>
        <time>2018-08-22T07:05:02Z</time>
      </trkpt>
      <trkpt lat="42.900152" lon="-1.540919">
        <ele>501.0</ele>
        <time>2018-08-22T07:05:17Z</time>
      </trkpt>
      <trkpt lat="42.900103" lon="-1.540945">
        <ele>502.0</ele>
        <time>2018-08-22T07:05:22Z</time>
      </trkpt>
      <trkpt lat="42.899961" lon="-1.541046">
        <ele>503.4</ele>
        <time>2018-08-22T07:05:35Z</time>
      </trkpt>
      <trkpt lat="42.899842" lon="-1.541107">
        <ele>504.8</ele>
        <time>2018-08-22T07:05:47Z</time>
      </trkpt>
      <trkpt lat="42.899822" lon="-1.541114">
        <ele>504.8</ele>
        <time>2018-08-22T07:05:49Z</time>
      </trkpt>
      <trkpt lat="42.899743" lon="-1.541176">
        <ele>505.3</ele>
        <time>2018-08-22T07:05:57Z</time>
      </trkpt>
      <trkpt lat="42.899720" lon="-1.541183">
        <ele>505.8</ele>
        <time>2018-08-22T07:05:59Z</time>
      </trkpt>
      <trkpt lat="42.899677" lon="-1.541213">
        <ele>506.3</ele>
        <time>2018-08-22T07:06:03Z</time>
      </trkpt>
      <trkpt lat="42.899494" lon="-1.541292">
        <ele>506.8</ele>
        <time>2018-08-22T07:06:19Z</time>
      </trkpt>
      <trkpt lat="42.899462" lon="-1.541325">
        <ele>507.2</ele>
        <time>2018-08-22T07:06:30Z</time>
      </trkpt>
      <trkpt lat="42.899377" lon="-1.541331">
        <ele>507.7</ele>
        <time>2018-08-22T07:06:42Z</time>
      </trkpt>
      <trkpt lat="42.899212" lon="-1.541420">
        <ele>508.7</ele>
        <time>2018-08-22T07:06:58Z</time>
      </trkpt>
      <trkpt lat="42.899053" lon="-1.541519">
        <ele>510.1</ele>
        <time>2018-08-22T07:07:13Z</time>
      </trkpt>
      <trkpt lat="42.898985" lon="-1.541542">
        <ele>511.6</ele>
        <time>2018-08-22T07:07:20Z</time>
      </trkpt>
      <trkpt lat="42.898843" lon="-1.541649">
        <ele>512.0</ele>
        <time>2018-08-22T07:07:34Z</time>
      </trkpt>
      <trkpt lat="42.898707" lon="-1.541736">
        <ele>513.0</ele>
        <time>2018-08-22T07:07:46Z</time>
      </trkpt>
      <trkpt lat="42.898680" lon="-1.541763">
        <ele>514.0</ele>
        <time>2018-08-22T07:07:49Z</time>
      </trkpt>
      <trkpt lat="42.898562" lon="-1.541857">
        <ele>514.9</ele>
        <time>2018-08-22T07:08:01Z</time>
      </trkpt>
      <trkpt lat="42.898403" lon="-1.541939">
        <ele>516.8</ele>
        <time>2018-08-22T07:08:16Z</time>
      </trkpt>
      <trkpt lat="42.898383" lon="-1.541949">
        <ele>516.8</ele>
        <time>2018-08-22T07:08:18Z</time>
      </trkpt>
      <trkpt lat="42.898329" lon="-1.541970">
        <ele>516.8</ele>
        <time>2018-08-22T07:08:23Z</time>
      </trkpt>
      <trkpt lat="42.898262" lon="-1.541988">
        <ele>517.8</ele>
        <time>2018-08-22T07:08:29Z</time>
      </trkpt>
      <trkpt lat="42.898122" lon="-1.542002">
        <ele>518.3</ele>
        <time>2018-08-22T07:08:40Z</time>
      </trkpt>
      <trkpt lat="42.898031" lon="-1.542011">
        <ele>518.3</ele>
        <time>2018-08-22T07:08:47Z</time>
      </trkpt>
      <trkpt lat="42.897855" lon="-1.541968">
        <ele>518.8</ele>
        <time>2018-08-22T07:09:03Z</time>
      </trkpt>
      <trkpt lat="42.897711" lon="-1.541929">
        <ele>518.3</ele>
        <time>2018-08-22T07:09:16Z</time>
      </trkpt>
      <trkpt lat="42.897539" lon="-1.541867">
        <ele>518.8</ele>
        <time>2018-08-22T07:09:31Z</time>
      </trkpt>
      <trkpt lat="42.897380" lon="-1.541802">
        <ele>518.3</ele>
        <time>2018-08-22T07:09:44Z</time>
      </trkpt>
      <trkpt lat="42.897368" lon="-1.541797">
        <ele>518.3</ele>
        <time>2018-08-22T07:09:45Z</time>
      </trkpt>
      <trkpt lat="42.897200" lon="-1.541828">
        <ele>518.8</ele>
        <time>2018-08-22T07:09:59Z</time>
      </trkpt>
      <trkpt lat="42.897157" lon="-1.541826">
        <ele>519.2</ele>
        <time>2018-08-22T07:10:03Z</time>
      </trkpt>
      <trkpt lat="42.897039" lon="-1.541849">
        <ele>519.7</ele>
        <time>2018-08-22T07:10:12Z</time>
      </trkpt>
      <trkpt lat="42.896943" lon="-1.541900">
        <ele>519.2</ele>
        <time>2018-08-22T07:10:20Z</time>
      </trkpt>
      <trkpt lat="42.896841" lon="-1.542106">
        <ele>519.7</ele>
        <time>2018-08-22T07:10:36Z</time>
      </trkpt>
      <trkpt lat="42.896743" lon="-1.542313">
        <ele>521.2</ele>
        <time>2018-08-22T07:10:52Z</time>
      </trkpt>
      <trkpt lat="42.896698" lon="-1.542462">
        <ele>523.6</ele>
        <time>2018-08-22T07:11:04Z</time>
      </trkpt>
      <trkpt lat="42.896699" lon="-1.542535">
        <ele>524.1</ele>
        <time>2018-08-22T07:11:09Z</time>
      </trkpt>
      <trkpt lat="42.896799" lon="-1.542696">
        <ele>525.5</ele>
        <time>2018-08-22T07:11:25Z</time>
      </trkpt>
      <trkpt lat="42.896846" lon="-1.542763">
        <ele>526.5</ele>
        <time>2018-08-22T07:11:32Z</time>
      </trkpt>
      <trkpt lat="42.896875" lon="-1.542802">
        <ele>527.4</ele>
        <time>2018-08-22T07:11:37Z</time>
      </trkpt>
      <trkpt lat="42.896948" lon="-1.542919">
        <ele>528.4</ele>
        <time>2018-08-22T07:11:51Z</time>
      </trkpt>
      <trkpt lat="42.897014" lon="-1.543068">
        <ele>529.8</ele>
        <time>2018-08-22T07:12:06Z</time>
      </trkpt>
      <trkpt lat="42.896974" lon="-1.543201">
        <ele>531.3</ele>
        <time>2018-08-22T07:12:17Z</time>
      </trkpt>
      <trkpt lat="42.896877" lon="-1.543252">
        <ele>533.2</ele>
        <time>2018-08-22T07:12:28Z</time>
      </trkpt>
      <trkpt lat="42.896757" lon="-1.543359">
        <ele>534.2</ele>
        <time>2018-08-22T07:12:42Z</time>
      </trkpt>
      <trkpt lat="42.896724" lon="-1.543410">
        <ele>535.1</ele>
        <time>2018-08-22T07:12:46Z</time>
      </trkpt>
      <trkpt lat="42.896683" lon="-1.543431">
        <ele>535.1</ele>
        <time>2018-08-22T07:12:49Z</time>
      </trkpt>
      <trkpt lat="42.896506" lon="-1.543632">
        <ele>535.6</ele>
        <time>2018-08-22T07:13:08Z</time>
      </trkpt>
      <trkpt lat="42.896469" lon="-1.543704">
        <ele>535.1</ele>
        <time>2018-08-22T07:13:14Z</time>
      </trkpt>
      <trkpt lat="42.896440" lon="-1.543918">
        <ele>533.2</ele>
        <time>2018-08-22T07:13:30Z</time>
      </trkpt>
      <trkpt lat="42.896442" lon="-1.544067">
        <ele>531.8</ele>
        <time>2018-08-22T07:13:43Z</time>
      </trkpt>
      <trkpt lat="42.896448" lon="-1.544190">
        <ele>528.9</ele>
        <time>2018-08-22T07:13:57Z</time>
      </trkpt>
      <trkpt lat="42.896419" lon="-1.544352">
        <ele>527.4</ele>
        <time>2018-08-22T07:14:14Z</time>
      </trkpt>
      <trkpt lat="42.896403" lon="-1.544471">
        <ele>524.1</ele>
        <time>2018-08-22T07:14:31Z</time>
      </trkpt>
      <trkpt lat="42.896344" lon="-1.544688">
        <ele>521.2</ele>
        <time>2018-08-22T07:14:51Z</time>
      </trkpt>
      <trkpt lat="42.896339" lon="-1.544740">
        <ele>520.7</ele>
        <time>2018-08-22T07:15:05Z</time>
      </trkpt>
      <trkpt lat="42.896308" lon="-1.544840">
        <ele>519.2</ele>
        <time>2018-08-22T07:15:24Z</time>
      </trkpt>
      <trkpt lat="42.896268" lon="-1.544994">
        <ele>517.3</ele>
        <time>2018-08-22T07:15:40Z</time>
      </trkpt>
      <trkpt lat="42.896202" lon="-1.545162">
        <ele>514.9</ele>
        <time>2018-08-22T07:15:56Z</time>
      </trkpt>
      <trkpt lat="42.896162" lon="-1.545256">
        <ele>513.0</ele>
        <time>2018-08-22T07:16:05Z</time>
      </trkpt>
      <trkpt lat="42.896119" lon="-1.545313">
        <ele>514.0</ele>
        <time>2018-08-22T07:16:09Z</time>
      </trkpt>
      <trkpt lat="42.895994" lon="-1.545448">
        <ele>514.9</ele>
        <time>2018-08-22T07:16:25Z</time>
      </trkpt>
      <trkpt lat="42.895897" lon="-1.545603">
        <ele>515.4</ele>
        <time>2018-08-22T07:16:38Z</time>
      </trkpt>
      <trkpt lat="42.895785" lon="-1.545746">
        <ele>515.4</ele>
        <time>2018-08-22T07:16:52Z</time>
      </trkpt>
      <trkpt lat="42.895716" lon="-1.545828">
        <ele>515.9</ele>
        <time>2018-08-22T07:17:00Z</time>
      </trkpt>
      <trkpt lat="42.895616" lon="-1.545973">
        <ele>515.4</ele>
        <time>2018-08-22T07:17:14Z</time>
      </trkpt>
      <trkpt lat="42.895554" lon="-1.546087">
        <ele>514.4</ele>
        <time>2018-08-22T07:17:26Z</time>
      </trkpt>
      <trkpt lat="42.895423" lon="-1.546276">
        <ele>514.4</ele>
        <time>2018-08-22T07:17:39Z</time>
      </trkpt>
      <trkpt lat="42.895294" lon="-1.546479">
        <ele>514.4</ele>
        <time>2018-08-22T07:17:56Z</time>
      </trkpt>
      <trkpt lat="42.895178" lon="-1.546635">
        <ele>514.4</ele>
        <time>2018-08-22T07:18:11Z</time>
      </trkpt>
      <trkpt lat="42.895041" lon="-1.546885">
        <ele>514.4</ele>
        <time>2018-08-22T07:18:27Z</time>
      </trkpt>
      <trkpt lat="42.895017" lon="-1.546979">
        <ele>514.0</ele>
        <time>2018-08-22T07:18:32Z</time>
      </trkpt>
      <trkpt lat="42.894964" lon="-1.547246">
        <ele>513.5</ele>
        <time>2018-08-22T07:18:49Z</time>
      </trkpt>
      <trkpt lat="42.894938" lon="-1.547377">
        <ele>513.0</ele>
        <time>2018-08-22T07:19:01Z</time>
      </trkpt>
      <trkpt lat="42.894909" lon="-1.547525">
        <ele>512.5</ele>
        <time>2018-08-22T07:19:11Z</time>
      </trkpt>
      <trkpt lat="42.894897" lon="-1.547685">
        <ele>510.6</ele>
        <time>2018-08-22T07:19:22Z</time>
      </trkpt>
      <trkpt lat="42.894965" lon="-1.547938">
        <ele>508.7</ele>
        <time>2018-08-22T07:19:40Z</time>
      </trkpt>
      <trkpt lat="42.895006" lon="-1.548183">
        <ele>507.2</ele>
        <time>2018-08-22T07:19:56Z</time>
      </trkpt>
      <trkpt lat="42.895011" lon="-1.548477">
        <ele>506.8</ele>
        <time>2018-08-22T07:20:14Z</time>
      </trkpt>
      <trkpt lat="42.895036" lon="-1.548726">
        <ele>505.8</ele>
        <time>2018-08-22T07:20:30Z</time>
      </trkpt>
      <trkpt lat="42.895038" lon="-1.548770">
        <ele>505.8</ele>
        <time>2018-08-22T07:20:33Z</time>
      </trkpt>
      <trkpt lat="42.895017" lon="-1.549019">
        <ele>504.8</ele>
        <time>2018-08-22T07:20:50Z</time>
      </trkpt>
      <trkpt lat="42.895014" lon="-1.549062">
        <ele>504.8</ele>
        <time>2018-08-22T07:20:53Z</time>
      </trkpt>
      <trkpt lat="42.895008" lon="-1.549231">
        <ele>504.4</ele>
        <time>2018-08-22T07:21:04Z</time>
      </trkpt>
      <trkpt lat="42.894938" lon="-1.549517">
        <ele>502.9</ele>
        <time>2018-08-22T07:21:21Z</time>
      </trkpt>
      <trkpt lat="42.894921" lon="-1.549581">
        <ele>502.4</ele>
        <time>2018-08-22T07:21:25Z</time>
      </trkpt>
      <trkpt lat="42.894774" lon="-1.549763">
        <ele>502.9</ele>
        <time>2018-08-22T07:21:41Z</time>
      </trkpt>
      <trkpt lat="42.894645" lon="-1.549862">
        <ele>502.9</ele>
        <time>2018-08-22T07:21:52Z</time>
      </trkpt>
      <trkpt lat="42.894625" lon="-1.549859">
        <ele>502.9</ele>
        <time>2018-08-22T07:21:54Z</time>
      </trkpt>
      <trkpt lat="42.894574" lon="-1.549770">
        <ele>503.4</ele>
        <time>2018-08-22T07:22:02Z</time>
      </trkpt>
      <trkpt lat="42.894531" lon="-1.549768">
        <ele>503.9</ele>
        <time>2018-08-22T07:22:06Z</time>
      </trkpt>
      <trkpt lat="42.894481" lon="-1.549824">
        <ele>504.4</ele>
        <time>2018-08-22T07:22:12Z</time>
      </trkpt>
      <trkpt lat="42.894401" lon="-1.549935">
        <ele>504.8</ele>
        <time>2018-08-22T07:22:23Z</time>
      </trkpt>
      <trkpt lat="42.894327" lon="-1.550057">
        <ele>504.4</ele>
        <time>2018-08-22T07:22:33Z</time>
      </trkpt>
      <trkpt lat="42.894259" lon="-1.550134">
        <ele>504.4</ele>
        <time>2018-08-22T07:22:40Z</time>
      </trkpt>
      <trkpt lat="42.894222" lon="-1.550190">
        <ele>504.8</ele>
        <time>2018-08-22T07:22:44Z</time>
      </trkpt>
      <trkpt lat="42.894073" lon="-1.550341">
        <ele>504.8</ele>
        <time>2018-08-22T07:22:59Z</time>
      </trkpt>
      <trkpt lat="42.893937" lon="-1.550498">
        <ele>505.8</ele>
        <time>2018-08-22T07:23:14Z</time>
      </trkpt>
      <trkpt lat="42.893823" lon="-1.550667">
        <ele>505.8</ele>
        <time>2018-08-22T07:23:28Z</time>
      </trkpt>
      <trkpt lat="42.893725" lon="-1.550844">
        <ele>506.3</ele>
        <time>2018-08-22T07:23:42Z</time>
      </trkpt>
      <trkpt lat="42.893667" lon="-1.550940">
        <ele>505.8</ele>
        <time>2018-08-22T07:23:50Z</time>
      </trkpt>
      <trkpt lat="42.893650" lon="-1.550994">
        <ele>506.3</ele>
        <time>2018-08-22T07:23:55Z</time>
      </trkpt>
      <trkpt lat="42.893580" lon="-1.551250">
        <ele>506.3</ele>
        <time>2018-08-22T07:24:11Z</time>
      </trkpt>
      <trkpt lat="42.893479" lon="-1.551480">
        <ele>507.2</ele>
        <time>2018-08-22T07:24:26Z</time>
      </trkpt>
      <trkpt lat="42.893375" lon="-1.551645">
        <ele>509.2</ele>
        <time>2018-08-22T07:24:40Z</time>
      </trkpt>
      <trkpt lat="42.893312" lon="-1.551699">
        <ele>509.6</ele>
        <time>2018-08-22T07:24:48Z</time>
      </trkpt>
      <trkpt lat="42.893275" lon="-1.551729">
        <ele>509.6</ele>
        <time>2018-08-22T07:24:52Z</time>
      </trkpt>
      <trkpt lat="42.893147" lon="-1.551891">
        <ele>510.6</ele>
        <time>2018-08-22T07:25:07Z</time>
      </trkpt>
      <trkpt lat="42.893063" lon="-1.552037">
        <ele>510.6</ele>
        <time>2018-08-22T07:25:21Z</time>
      </trkpt>
      <trkpt lat="42.893016" lon="-1.552160">
        <ele>511.6</ele>
        <time>2018-08-22T07:25:30Z</time>
      </trkpt>
      <trkpt lat="42.892940" lon="-1.552302">
        <ele>512.5</ele>
        <time>2018-08-22T07:25:39Z</time>
      </trkpt>
      <trkpt lat="42.892907" lon="-1.552339">
        <ele>513.0</ele>
        <time>2018-08-22T07:25:43Z</time>
      </trkpt>
      <trkpt lat="42.892891" lon="-1.552373">
        <ele>513.5</ele>
        <time>2018-08-22T07:25:46Z</time>
      </trkpt>
      <trkpt lat="42.892766" lon="-1.552434">
        <ele>514.0</ele>
        <time>2018-08-22T07:25:57Z</time>
      </trkpt>
      <trkpt lat="42.892627" lon="-1.552473">
        <ele>515.4</ele>
        <time>2018-08-22T07:26:10Z</time>
      </trkpt>
      <trkpt lat="42.892588" lon="-1.552480">
        <ele>515.4</ele>
        <time>2018-08-22T07:26:14Z</time>
      </trkpt>
      <trkpt lat="42.892432" lon="-1.552574">
        <ele>516.4</ele>
        <time>2018-08-22T07:26:29Z</time>
      </trkpt>
      <trkpt lat="42.892371" lon="-1.552623">
        <ele>516.8</ele>
        <time>2018-08-22T07:26:34Z</time>
      </trkpt>
      <trkpt lat="42.892196" lon="-1.552784">
        <ele>516.4</ele>
        <time>2018-08-22T07:26:52Z</time>
      </trkpt>
      <trkpt lat="42.892059" lon="-1.552899">
        <ele>515.9</ele>
        <time>2018-08-22T07:27:05Z</time>
      </trkpt>
      <trkpt lat="42.891943" lon="-1.553099">
        <ele>517.8</ele>
        <time>2018-08-22T07:27:20Z</time>
      </trkpt>
      <trkpt lat="42.891875" lon="-1.553299">
        <ele>518.3</ele>
        <time>2018-08-22T07:27:35Z</time>
      </trkpt>
      <trkpt lat="42.891867" lon="-1.553325">
        <ele>519.2</ele>
        <time>2018-08-22T07:27:37Z</time>
      </trkpt>
      <trkpt lat="42.891858" lon="-1.553350">
        <ele>519.2</ele>
        <time>2018-08-22T07:27:39Z</time>
      </trkpt>
      <trkpt lat="42.891803" lon="-1.553480">
        <ele>520.2</ele>
        <time>2018-08-22T07:27:50Z</time>
      </trkpt>
      <trkpt lat="42.891798" lon="-1.553554">
        <ele>520.7</ele>
        <time>2018-08-22T07:27:54Z</time>
      </trkpt>
      <trkpt lat="42.891717" lon="-1.553785">
        <ele>521.7</ele>
        <time>2018-08-22T07:28:10Z</time>
      </trkpt>
      <trkpt lat="42.891583" lon="-1.553965">
        <ele>522.1</ele>
        <time>2018-08-22T07:28:26Z</time>
      </trkpt>
      <trkpt lat="42.891459" lon="-1.554165">
        <ele>521.7</ele>
        <time>2018-08-22T07:28:42Z</time>
      </trkpt>
      <trkpt lat="42.891447" lon="-1.554194">
        <ele>521.7</ele>
        <time>2018-08-22T07:28:44Z</time>
      </trkpt>
      <trkpt lat="42.891297" lon="-1.554335">
        <ele>522.1</ele>
        <time>2018-08-22T07:28:58Z</time>
      </trkpt>
      <trkpt lat="42.891170" lon="-1.554380">
        <ele>523.6</ele>
        <time>2018-08-22T07:29:10Z</time>
      </trkpt>
      <trkpt lat="42.891025" lon="-1.554397">
        <ele>523.6</ele>
        <time>2018-08-22T07:29:22Z</time>
      </trkpt>
      <trkpt lat="42.890869" lon="-1.554530">
        <ele>524.5</ele>
        <time>2018-08-22T07:29:38Z</time>
      </trkpt>
      <trkpt lat="42.890816" lon="-1.554591">
        <ele>524.5</ele>
        <time>2018-08-22T07:29:43Z</time>
      </trkpt>
      <trkpt lat="42.890687" lon="-1.554676">
        <ele>524.1</ele>
        <time>2018-08-22T07:29:57Z</time>
      </trkpt>
      <trkpt lat="42.890590" lon="-1.554695">
        <ele>524.5</ele>
        <time>2018-08-22T07:30:05Z</time>
      </trkpt>
      <trkpt lat="42.890448" lon="-1.554888">
        <ele>524.1</ele>
        <time>2018-08-22T07:30:21Z</time>
      </trkpt>
      <trkpt lat="42.890342" lon="-1.555020">
        <ele>523.6</ele>
        <time>2018-08-22T07:30:35Z</time>
      </trkpt>
      <trkpt lat="42.890196" lon="-1.555185">
        <ele>521.7</ele>
        <time>2018-08-22T07:30:50Z</time>
      </trkpt>
      <trkpt lat="42.890156" lon="-1.555242">
        <ele>521.2</ele>
        <time>2018-08-22T07:30:56Z</time>
      </trkpt>
      <trkpt lat="42.890087" lon="-1.555338">
        <ele>520.7</ele>
        <time>2018-08-22T07:31:05Z</time>
      </trkpt>
      <trkpt lat="42.889979" lon="-1.555508">
        <ele>519.2</ele>
        <time>2018-08-22T07:31:20Z</time>
      </trkpt>
      <trkpt lat="42.889893" lon="-1.555672">
        <ele>517.3</ele>
        <time>2018-08-22T07:31:34Z</time>
      </trkpt>
      <trkpt lat="42.889786" lon="-1.555813">
        <ele>515.9</ele>
        <time>2018-08-22T07:31:46Z</time>
      </trkpt>
      <trkpt lat="42.889670" lon="-1.556004">
        <ele>515.9</ele>
        <time>2018-08-22T07:31:58Z</time>
      </trkpt>
      <trkpt lat="42.889603" lon="-1.556182">
        <ele>515.9</ele>
        <time>2018-08-22T07:32:13Z</time>
      </trkpt>
      <trkpt lat="42.889539" lon="-1.556434">
        <ele>514.4</ele>
        <time>2018-08-22T07:32:27Z</time>
      </trkpt>
      <trkpt lat="42.889528" lon="-1.556548">
        <ele>514.4</ele>
        <time>2018-08-22T07:32:32Z</time>
      </trkpt>
      <trkpt lat="42.889505" lon="-1.556763">
        <ele>513.0</ele>
        <time>2018-08-22T07:32:48Z</time>
      </trkpt>
      <trkpt lat="42.889463" lon="-1.556784">
        <ele>511.6</ele>
        <time>2018-08-22T07:32:52Z</time>
      </trkpt>
      <trkpt lat="42.889378" lon="-1.557085">
        <ele>507.2</ele>
        <time>2018-08-22T07:33:21Z</time>
      </trkpt>
      <trkpt lat="42.889457" lon="-1.557248">
        <ele>504.4</ele>
        <time>2018-08-22T07:33:35Z</time>
      </trkpt>
      <trkpt lat="42.889467" lon="-1.557295">
        <ele>503.4</ele>
        <time>2018-08-22T07:33:39Z</time>
      </trkpt>
      <trkpt lat="42.889451" lon="-1.557348">
        <ele>501.5</ele>
        <time>2018-08-22T07:33:47Z</time>
      </trkpt>
      <trkpt lat="42.889456" lon="-1.557500">
        <ele>497.1</ele>
        <time>2018-08-22T07:34:01Z</time>
      </trkpt>
      <trkpt lat="42.889439" lon="-1.557642">
        <ele>493.8</ele>
        <time>2018-08-22T07:34:15Z</time>
      </trkpt>
      <trkpt lat="42.889443" lon="-1.557694">
        <ele>492.3</ele>
        <time>2018-08-22T07:34:19Z</time>
      </trkpt>
      <trkpt lat="42.889434" lon="-1.557854">
        <ele>489.0</ele>
        <time>2018-08-22T07:34:31Z</time>
      </trkpt>
      <trkpt lat="42.889445" lon="-1.557910">
        <ele>489.0</ele>
        <time>2018-08-22T07:34:35Z</time>
      </trkpt>
      <trkpt lat="42.889454" lon="-1.557947">
        <ele>488.5</ele>
        <time>2018-08-22T07:34:38Z</time>
      </trkpt>
      <trkpt lat="42.889470" lon="-1.557974">
        <ele>487.5</ele>
        <time>2018-08-22T07:34:41Z</time>
      </trkpt>
      <trkpt lat="42.889502" lon="-1.558165">
        <ele>485.6</ele>
        <time>2018-08-22T07:34:54Z</time>
      </trkpt>
      <trkpt lat="42.889492" lon="-1.558429">
        <ele>485.1</ele>
        <time>2018-08-22T07:35:09Z</time>
      </trkpt>
      <trkpt lat="42.889463" lon="-1.558475">
        <ele>486.1</ele>
        <time>2018-08-22T07:35:23Z</time>
      </trkpt>
      <trkpt lat="42.889416" lon="-1.558580">
        <ele>485.6</ele>
        <time>2018-08-22T07:35:37Z</time>
      </trkpt>
      <trkpt lat="42.889356" lon="-1.558662">
        <ele>485.1</ele>
        <time>2018-08-22T07:35:51Z</time>
      </trkpt>
      <trkpt lat="42.889310" lon="-1.558734">
        <ele>485.1</ele>
        <time>2018-08-22T07:36:13Z</time>
      </trkpt>
      <trkpt lat="42.889239" lon="-1.558782">
        <ele>486.1</ele>
        <time>2018-08-22T07:38:33Z</time>
      </trkpt>
      <trkpt lat="42.889181" lon="-1.558755">
        <ele>486.6</ele>
        <time>2018-08-22T07:38:40Z</time>
      </trkpt>
      <trkpt lat="42.889012" lon="-1.558786">
        <ele>486.6</ele>
        <time>2018-08-22T07:38:55Z</time>
      </trkpt>
      <trkpt lat="42.888788" lon="-1.558931">
        <ele>487.0</ele>
        <time>2018-08-22T07:39:15Z</time>
      </trkpt>
      <trkpt lat="42.888648" lon="-1.558996">
        <ele>486.6</ele>
        <time>2018-08-22T07:39:29Z</time>
      </trkpt>
      <trkpt lat="42.888452" lon="-1.559144">
        <ele>487.5</ele>
        <time>2018-08-22T07:39:49Z</time>
      </trkpt>
      <trkpt lat="42.888307" lon="-1.559220">
        <ele>486.1</ele>
        <time>2018-08-22T07:40:04Z</time>
      </trkpt>
      <trkpt lat="42.888216" lon="-1.559283">
        <ele>487.0</ele>
        <time>2018-08-22T07:40:16Z</time>
      </trkpt>
      <trkpt lat="42.888040" lon="-1.559396">
        <ele>488.0</ele>
        <time>2018-08-22T07:40:32Z</time>
      </trkpt>
      <trkpt lat="42.888030" lon="-1.559409">
        <ele>488.0</ele>
        <time>2018-08-22T07:40:33Z</time>
      </trkpt>
      <trkpt lat="42.887932" lon="-1.559501">
        <ele>487.5</ele>
        <time>2018-08-22T07:40:42Z</time>
      </trkpt>
      <trkpt lat="42.887798" lon="-1.559624">
        <ele>487.5</ele>
        <time>2018-08-22T07:40:57Z</time>
      </trkpt>
      <trkpt lat="42.887757" lon="-1.559693">
        <ele>487.0</ele>
        <time>2018-08-22T07:41:01Z</time>
      </trkpt>
      <trkpt lat="42.887637" lon="-1.559862">
        <ele>486.6</ele>
        <time>2018-08-22T07:41:16Z</time>
      </trkpt>
      <trkpt lat="42.887561" lon="-1.560035">
        <ele>487.0</ele>
        <time>2018-08-22T07:41:30Z</time>
      </trkpt>
      <trkpt lat="42.887493" lon="-1.560132">
        <ele>488.5</ele>
        <time>2018-08-22T07:41:40Z</time>
      </trkpt>
      <trkpt lat="42.887466" lon="-1.560171">
        <ele>489.0</ele>
        <time>2018-08-22T07:41:45Z</time>
      </trkpt>
      <trkpt lat="42.887426" lon="-1.560249">
        <ele>489.9</ele>
        <time>2018-08-22T07:41:52Z</time>
      </trkpt>
      <trkpt lat="42.887412" lon="-1.560285">
        <ele>490.4</ele>
        <time>2018-08-22T07:41:56Z</time>
      </trkpt>
      <trkpt lat="42.887359" lon="-1.560403">
        <ele>489.5</ele>
        <time>2018-08-22T07:42:09Z</time>
      </trkpt>
      <trkpt lat="42.887308" lon="-1.560480">
        <ele>489.0</ele>
        <time>2018-08-22T07:42:17Z</time>
      </trkpt>
      <trkpt lat="42.887186" lon="-1.560660">
        <ele>488.5</ele>
        <time>2018-08-22T07:42:33Z</time>
      </trkpt>
      <trkpt lat="42.887052" lon="-1.560770">
        <ele>489.5</ele>
        <time>2018-08-22T07:42:46Z</time>
      </trkpt>
      <trkpt lat="42.886959" lon="-1.560989">
        <ele>489.0</ele>
        <time>2018-08-22T07:43:01Z</time>
      </trkpt>
      <trkpt lat="42.886905" lon="-1.561176">
        <ele>488.5</ele>
        <time>2018-08-22T07:43:14Z</time>
      </trkpt>
      <trkpt lat="42.886871" lon="-1.561370">
        <ele>488.5</ele>
        <time>2018-08-22T07:43:28Z</time>
      </trkpt>
      <trkpt lat="42.886841" lon="-1.561588">
        <ele>488.5</ele>
        <time>2018-08-22T07:43:40Z</time>
      </trkpt>
      <trkpt lat="42.886790" lon="-1.561727">
        <ele>489.5</ele>
        <time>2018-08-22T07:43:50Z</time>
      </trkpt>
      <trkpt lat="42.886796" lon="-1.561785">
        <ele>489.5</ele>
        <time>2018-08-22T07:43:56Z</time>
      </trkpt>
      <trkpt lat="42.886683" lon="-1.561898">
        <ele>490.4</ele>
        <time>2018-08-22T07:44:08Z</time>
      </trkpt>
      <trkpt lat="42.886547" lon="-1.562028">
        <ele>490.9</ele>
        <time>2018-08-22T07:44:22Z</time>
      </trkpt>
      <trkpt lat="42.886426" lon="-1.562208">
        <ele>490.4</ele>
        <time>2018-08-22T07:44:38Z</time>
      </trkpt>
      <trkpt lat="42.886313" lon="-1.562383">
        <ele>490.9</ele>
        <time>2018-08-22T07:44:54Z</time>
      </trkpt>
      <trkpt lat="42.886236" lon="-1.562455">
        <ele>491.9</ele>
        <time>2018-08-22T07:45:04Z</time>
      </trkpt>
      <trkpt lat="42.886076" lon="-1.562476">
        <ele>491.9</ele>
        <time>2018-08-22T07:45:20Z</time>
      </trkpt>
      <trkpt lat="42.885942" lon="-1.562535">
        <ele>490.9</ele>
        <time>2018-08-22T07:45:32Z</time>
      </trkpt>
      <trkpt lat="42.885845" lon="-1.562610">
        <ele>490.4</ele>
        <time>2018-08-22T07:45:43Z</time>
      </trkpt>
      <trkpt lat="42.885704" lon="-1.562663">
        <ele>489.9</ele>
        <time>2018-08-22T07:45:55Z</time>
      </trkpt>
      <trkpt lat="42.885578" lon="-1.562690">
        <ele>489.5</ele>
        <time>2018-08-22T07:46:09Z</time>
      </trkpt>
      <trkpt lat="42.885469" lon="-1.562689">
        <ele>489.5</ele>
        <time>2018-08-22T07:46:20Z</time>
      </trkpt>
      <trkpt lat="42.885328" lon="-1.562754">
        <ele>489.5</ele>
        <time>2018-08-22T07:46:34Z</time>
      </trkpt>
      <trkpt lat="42.885153" lon="-1.562747">
        <ele>490.4</ele>
        <time>2018-08-22T07:46:50Z</time>
      </trkpt>
      <trkpt lat="42.885068" lon="-1.562697">
        <ele>489.5</ele>
        <time>2018-08-22T07:46:57Z</time>
      </trkpt>
      <trkpt lat="42.884941" lon="-1.562644">
        <ele>489.9</ele>
        <time>2018-08-22T07:47:08Z</time>
      </trkpt>
      <trkpt lat="42.884916" lon="-1.562630">
        <ele>489.9</ele>
        <time>2018-08-22T07:47:10Z</time>
      </trkpt>
      <trkpt lat="42.884887" lon="-1.562619">
        <ele>490.4</ele>
        <time>2018-08-22T07:47:13Z</time>
      </trkpt>
      <trkpt lat="42.884750" lon="-1.562551">
        <ele>490.9</ele>
        <time>2018-08-22T07:47:27Z</time>
      </trkpt>
      <trkpt lat="42.884691" lon="-1.562529">
        <ele>490.9</ele>
        <time>2018-08-22T07:47:36Z</time>
      </trkpt>
      <trkpt lat="42.884570" lon="-1.562533">
        <ele>489.9</ele>
        <time>2018-08-22T07:47:44Z</time>
      </trkpt>
      <trkpt lat="42.884459" lon="-1.562494">
        <ele>490.4</ele>
        <time>2018-08-22T07:47:53Z</time>
      </trkpt>
      <trkpt lat="42.884391" lon="-1.562449">
        <ele>489.9</ele>
        <time>2018-08-22T07:48:00Z</time>
      </trkpt>
      <trkpt lat="42.884247" lon="-1.562336">
        <ele>491.9</ele>
        <time>2018-08-22T07:48:13Z</time>
      </trkpt>
      <trkpt lat="42.884128" lon="-1.562311">
        <ele>491.4</ele>
        <time>2018-08-22T07:48:26Z</time>
      </trkpt>
      <trkpt lat="42.884066" lon="-1.562289">
        <ele>490.9</ele>
        <time>2018-08-22T07:48:31Z</time>
      </trkpt>
      <trkpt lat="42.883973" lon="-1.562266">
        <ele>491.4</ele>
        <time>2018-08-22T07:48:38Z</time>
      </trkpt>
      <trkpt lat="42.883906" lon="-1.562273">
        <ele>489.9</ele>
        <time>2018-08-22T07:48:43Z</time>
      </trkpt>
      <trkpt lat="42.883770" lon="-1.562256">
        <ele>488.0</ele>
        <time>2018-08-22T07:48:56Z</time>
      </trkpt>
      <trkpt lat="42.883641" lon="-1.562284">
        <ele>486.1</ele>
        <time>2018-08-22T07:49:09Z</time>
      </trkpt>
      <trkpt lat="42.883499" lon="-1.562318">
        <ele>485.1</ele>
        <time>2018-08-22T07:49:24Z</time>
      </trkpt>
      <trkpt lat="42.883384" lon="-1.562297">
        <ele>484.2</ele>
        <time>2018-08-22T07:49:36Z</time>
      </trkpt>
      <trkpt lat="42.883214" lon="-1.562325">
        <ele>484.2</ele>
        <time>2018-08-22T07:49:51Z</time>
      </trkpt>
      <trkpt lat="42.883090" lon="-1.562355">
        <ele>484.2</ele>
        <time>2018-08-22T07:50:04Z</time>
      </trkpt>
      <trkpt lat="42.883002" lon="-1.562378">
        <ele>484.2</ele>
        <time>2018-08-22T07:50:17Z</time>
      </trkpt>
      <trkpt lat="42.882885" lon="-1.562383">
        <ele>486.1</ele>
        <time>2018-08-22T07:50:32Z</time>
      </trkpt>
      <trkpt lat="42.882724" lon="-1.562428">
        <ele>484.6</ele>
        <time>2018-08-22T07:50:47Z</time>
      </trkpt>
      <trkpt lat="42.882701" lon="-1.562426">
        <ele>485.1</ele>
        <time>2018-08-22T07:50:49Z</time>
      </trkpt>
      <trkpt lat="42.882631" lon="-1.562377">
        <ele>484.6</ele>
        <time>2018-08-22T07:50:56Z</time>
      </trkpt>
      <trkpt lat="42.882496" lon="-1.562401">
        <ele>486.6</ele>
        <time>2018-08-22T07:51:10Z</time>
      </trkpt>
      <trkpt lat="42.882338" lon="-1.562480">
        <ele>486.6</ele>
        <time>2018-08-22T07:51:26Z</time>
      </trkpt>
      <trkpt lat="42.882188" lon="-1.562540">
        <ele>485.1</ele>
        <time>2018-08-22T07:51:40Z</time>
      </trkpt>
      <trkpt lat="42.882032" lon="-1.562634">
        <ele>486.6</ele>
        <time>2018-08-22T07:51:55Z</time>
      </trkpt>
      <trkpt lat="42.881926" lon="-1.562729">
        <ele>487.5</ele>
        <time>2018-08-22T07:52:05Z</time>
      </trkpt>
      <trkpt lat="42.881861" lon="-1.562771">
        <ele>488.0</ele>
        <time>2018-08-22T07:52:12Z</time>
      </trkpt>
      <trkpt lat="42.881690" lon="-1.562946">
        <ele>490.4</ele>
        <time>2018-08-22T07:52:30Z</time>
      </trkpt>
      <trkpt lat="42.881567" lon="-1.563215">
        <ele>489.0</ele>
        <time>2018-08-22T07:52:48Z</time>
      </trkpt>
      <trkpt lat="42.881455" lon="-1.563387">
        <ele>487.5</ele>
        <time>2018-08-22T07:53:03Z</time>
      </trkpt>
      <trkpt lat="42.881444" lon="-1.563401">
        <ele>487.5</ele>
        <time>2018-08-22T07:53:04Z</time>
      </trkpt>
      <trkpt lat="42.881417" lon="-1.563450">
        <ele>487.5</ele>
        <time>2018-08-22T07:53:08Z</time>
      </trkpt>
      <trkpt lat="42.881317" lon="-1.563572">
        <ele>486.6</ele>
        <time>2018-08-22T07:53:21Z</time>
      </trkpt>
      <trkpt lat="42.881223" lon="-1.563658">
        <ele>486.6</ele>
        <time>2018-08-22T07:53:31Z</time>
      </trkpt>
      <trkpt lat="42.881102" lon="-1.563824">
        <ele>485.6</ele>
        <time>2018-08-22T07:53:45Z</time>
      </trkpt>
      <trkpt lat="42.881020" lon="-1.563900">
        <ele>485.6</ele>
        <time>2018-08-22T07:53:52Z</time>
      </trkpt>
      <trkpt lat="42.880868" lon="-1.564017">
        <ele>485.1</ele>
        <time>2018-08-22T07:54:05Z</time>
      </trkpt>
      <trkpt lat="42.880851" lon="-1.564032">
        <ele>485.1</ele>
        <time>2018-08-22T07:54:07Z</time>
      </trkpt>
      <trkpt lat="42.880741" lon="-1.564151">
        <ele>485.6</ele>
        <time>2018-08-22T07:54:22Z</time>
      </trkpt>
      <trkpt lat="42.880604" lon="-1.564195">
        <ele>485.1</ele>
        <time>2018-08-22T07:54:35Z</time>
      </trkpt>
      <trkpt lat="42.880535" lon="-1.564174">
        <ele>485.6</ele>
        <time>2018-08-22T07:54:41Z</time>
      </trkpt>
      <trkpt lat="42.880392" lon="-1.564210">
        <ele>485.1</ele>
        <time>2018-08-22T07:54:54Z</time>
      </trkpt>
      <trkpt lat="42.880255" lon="-1.564281">
        <ele>486.1</ele>
        <time>2018-08-22T07:55:08Z</time>
      </trkpt>
      <trkpt lat="42.880160" lon="-1.564332">
        <ele>486.1</ele>
        <time>2018-08-22T07:55:16Z</time>
      </trkpt>
      <trkpt lat="42.879998" lon="-1.564440">
        <ele>485.1</ele>
        <time>2018-08-22T07:55:31Z</time>
      </trkpt>
      <trkpt lat="42.879837" lon="-1.564551">
        <ele>484.6</ele>
        <time>2018-08-22T07:55:48Z</time>
      </trkpt>
      <trkpt lat="42.879799" lon="-1.564575">
        <ele>484.6</ele>
        <time>2018-08-22T07:55:51Z</time>
      </trkpt>
      <trkpt lat="42.879656" lon="-1.564697">
        <ele>483.2</ele>
        <time>2018-08-22T07:56:05Z</time>
      </trkpt>
      <trkpt lat="42.879552" lon="-1.564763">
        <ele>483.2</ele>
        <time>2018-08-22T07:56:17Z</time>
      </trkpt>
      <trkpt lat="42.879454" lon="-1.564819">
        <ele>484.6</ele>
        <time>2018-08-22T07:56:27Z</time>
      </trkpt>
      <trkpt lat="42.879366" lon="-1.564912">
        <ele>483.2</ele>
        <time>2018-08-22T07:56:41Z</time>
      </trkpt>
      <trkpt lat="42.879238" lon="-1.565007">
        <ele>482.2</ele>
        <time>2018-08-22T07:56:54Z</time>
      </trkpt>
      <trkpt lat="42.879061" lon="-1.565102">
        <ele>482.2</ele>
        <time>2018-08-22T07:57:09Z</time>
      </trkpt>
      <trkpt lat="42.878881" lon="-1.565195">
        <ele>481.8</ele>
        <time>2018-08-22T07:57:26Z</time>
      </trkpt>
      <trkpt lat="42.878649" lon="-1.565342">
        <ele>481.3</ele>
        <time>2018-08-22T07:57:45Z</time>
      </trkpt>
      <trkpt lat="42.878486" lon="-1.565483">
        <ele>482.2</ele>
        <time>2018-08-22T07:58:00Z</time>
      </trkpt>
      <trkpt lat="42.878493" lon="-1.565511">
        <ele>482.2</ele>
        <time>2018-08-22T07:58:02Z</time>
      </trkpt>
      <trkpt lat="42.878495" lon="-1.565548">
        <ele>482.7</ele>
        <time>2018-08-22T07:58:04Z</time>
      </trkpt>
      <trkpt lat="42.878508" lon="-1.565794">
        <ele>482.7</ele>
        <time>2018-08-22T07:58:20Z</time>
      </trkpt>
      <trkpt lat="42.878547" lon="-1.565972">
        <ele>483.2</ele>
        <time>2018-08-22T07:58:33Z</time>
      </trkpt>
      <trkpt lat="42.878560" lon="-1.566070">
        <ele>484.2</ele>
        <time>2018-08-22T07:58:39Z</time>
      </trkpt>
      <trkpt lat="42.878511" lon="-1.566162">
        <ele>485.6</ele>
        <time>2018-08-22T07:58:47Z</time>
      </trkpt>
      <trkpt lat="42.878483" lon="-1.566202">
        <ele>486.6</ele>
        <time>2018-08-22T07:58:53Z</time>
      </trkpt>
      <trkpt lat="42.878448" lon="-1.566249">
        <ele>486.6</ele>
        <time>2018-08-22T07:58:57Z</time>
      </trkpt>
      <trkpt lat="42.878256" lon="-1.566314">
        <ele>486.1</ele>
        <time>2018-08-22T07:59:11Z</time>
      </trkpt>
      <trkpt lat="42.878112" lon="-1.566376">
        <ele>486.1</ele>
        <time>2018-08-22T07:59:24Z</time>
      </trkpt>
      <trkpt lat="42.877956" lon="-1.566455">
        <ele>485.6</ele>
        <time>2018-08-22T07:59:37Z</time>
      </trkpt>
      <trkpt lat="42.877928" lon="-1.566467">
        <ele>485.1</ele>
        <time>2018-08-22T07:59:39Z</time>
      </trkpt>
      <trkpt lat="42.877784" lon="-1.566565">
        <ele>485.1</ele>
        <time>2018-08-22T07:59:51Z</time>
      </trkpt>
      <trkpt lat="42.877754" lon="-1.566634">
        <ele>485.6</ele>
        <time>2018-08-22T07:59:56Z</time>
      </trkpt>
      <trkpt lat="42.877571" lon="-1.566735">
        <ele>485.6</ele>
        <time>2018-08-22T08:00:13Z</time>
      </trkpt>
      <trkpt lat="42.877408" lon="-1.566862">
        <ele>486.1</ele>
        <time>2018-08-22T08:00:28Z</time>
      </trkpt>
      <trkpt lat="42.877367" lon="-1.566889">
        <ele>485.1</ele>
        <time>2018-08-22T08:00:32Z</time>
      </trkpt>
      <trkpt lat="42.877200" lon="-1.566928">
        <ele>485.1</ele>
        <time>2018-08-22T08:00:44Z</time>
      </trkpt>
      <trkpt lat="42.877122" lon="-1.566989">
        <ele>484.2</ele>
        <time>2018-08-22T08:00:51Z</time>
      </trkpt>
      <trkpt lat="42.876909" lon="-1.567103">
        <ele>484.6</ele>
        <time>2018-08-22T08:01:08Z</time>
      </trkpt>
      <trkpt lat="42.876728" lon="-1.567234">
        <ele>484.6</ele>
        <time>2018-08-22T08:01:24Z</time>
      </trkpt>
      <trkpt lat="42.876552" lon="-1.567332">
        <ele>484.6</ele>
        <time>2018-08-22T08:01:37Z</time>
      </trkpt>
      <trkpt lat="42.876462" lon="-1.567400">
        <ele>484.2</ele>
        <time>2018-08-22T08:01:45Z</time>
      </trkpt>
      <trkpt lat="42.876375" lon="-1.567507">
        <ele>484.2</ele>
        <time>2018-08-22T08:01:57Z</time>
      </trkpt>
      <trkpt lat="42.876280" lon="-1.567574">
        <ele>484.6</ele>
        <time>2018-08-22T08:02:07Z</time>
      </trkpt>
      <trkpt lat="42.876090" lon="-1.567700">
        <ele>484.2</ele>
        <time>2018-08-22T08:02:24Z</time>
      </trkpt>
      <trkpt lat="42.875939" lon="-1.567792">
        <ele>483.7</ele>
        <time>2018-08-22T08:02:40Z</time>
      </trkpt>
      <trkpt lat="42.875789" lon="-1.567877">
        <ele>483.7</ele>
        <time>2018-08-22T08:02:52Z</time>
      </trkpt>
      <trkpt lat="42.875720" lon="-1.567919">
        <ele>482.7</ele>
        <time>2018-08-22T08:02:57Z</time>
      </trkpt>
      <trkpt lat="42.875548" lon="-1.568047">
        <ele>483.2</ele>
        <time>2018-08-22T08:03:12Z</time>
      </trkpt>
      <trkpt lat="42.875354" lon="-1.568142">
        <ele>483.2</ele>
        <time>2018-08-22T08:03:27Z</time>
      </trkpt>
      <trkpt lat="42.875172" lon="-1.568257">
        <ele>483.2</ele>
        <time>2018-08-22T08:03:42Z</time>
      </trkpt>
      <trkpt lat="42.875038" lon="-1.568336">
        <ele>483.2</ele>
        <time>2018-08-22T08:03:53Z</time>
      </trkpt>
      <trkpt lat="42.874879" lon="-1.568445">
        <ele>483.2</ele>
        <time>2018-08-22T08:04:09Z</time>
      </trkpt>
      <trkpt lat="42.874772" lon="-1.568510">
        <ele>483.2</ele>
        <time>2018-08-22T08:04:21Z</time>
      </trkpt>
      <trkpt lat="42.874581" lon="-1.568624">
        <ele>483.7</ele>
        <time>2018-08-22T08:04:38Z</time>
      </trkpt>
      <trkpt lat="42.874373" lon="-1.568739">
        <ele>482.2</ele>
        <time>2018-08-22T08:04:56Z</time>
      </trkpt>
      <trkpt lat="42.874211" lon="-1.568843">
        <ele>482.2</ele>
        <time>2018-08-22T08:05:10Z</time>
      </trkpt>
      <trkpt lat="42.874028" lon="-1.568979">
        <ele>482.2</ele>
        <time>2018-08-22T08:05:26Z</time>
      </trkpt>
      <trkpt lat="42.874017" lon="-1.568986">
        <ele>482.2</ele>
        <time>2018-08-22T08:05:27Z</time>
      </trkpt>
      <trkpt lat="42.873996" lon="-1.569016">
        <ele>482.7</ele>
        <time>2018-08-22T08:05:30Z</time>
      </trkpt>
      <trkpt lat="42.873808" lon="-1.569196">
        <ele>482.7</ele>
        <time>2018-08-22T08:05:48Z</time>
      </trkpt>
      <trkpt lat="42.873757" lon="-1.569232">
        <ele>483.7</ele>
        <time>2018-08-22T08:05:53Z</time>
      </trkpt>
      <trkpt lat="42.873701" lon="-1.569252">
        <ele>484.6</ele>
        <time>2018-08-22T08:05:58Z</time>
      </trkpt>
      <trkpt lat="42.873546" lon="-1.569121">
        <ele>485.1</ele>
        <time>2018-08-22T08:06:14Z</time>
      </trkpt>
      <trkpt lat="42.873539" lon="-1.569116">
        <ele>484.6</ele>
        <time>2018-08-22T08:06:15Z</time>
      </trkpt>
      <trkpt lat="42.873486" lon="-1.569070">
        <ele>484.6</ele>
        <time>2018-08-22T08:06:20Z</time>
      </trkpt>
      <trkpt lat="42.873363" lon="-1.569110">
        <ele>484.6</ele>
        <time>2018-08-22T08:06:30Z</time>
      </trkpt>
      <trkpt lat="42.873170" lon="-1.569272">
        <ele>483.2</ele>
        <time>2018-08-22T08:06:47Z</time>
      </trkpt>
      <trkpt lat="42.873154" lon="-1.569294">
        <ele>483.2</ele>
        <time>2018-08-22T08:06:49Z</time>
      </trkpt>
      <trkpt lat="42.873108" lon="-1.569350">
        <ele>482.7</ele>
        <time>2018-08-22T08:06:56Z</time>
      </trkpt>
      <trkpt lat="42.873077" lon="-1.569363">
        <ele>483.2</ele>
        <time>2018-08-22T08:07:00Z</time>
      </trkpt>
      <trkpt lat="42.872856" lon="-1.569448">
        <ele>482.2</ele>
        <time>2018-08-22T08:07:17Z</time>
      </trkpt>
      <trkpt lat="42.872752" lon="-1.569431">
        <ele>481.8</ele>
        <time>2018-08-22T08:07:29Z</time>
      </trkpt>
      <trkpt lat="42.872562" lon="-1.569396">
        <ele>480.8</ele>
        <time>2018-08-22T08:07:45Z</time>
      </trkpt>
      <trkpt lat="42.872341" lon="-1.569338">
        <ele>480.3</ele>
        <time>2018-08-22T08:08:02Z</time>
      </trkpt>
      <trkpt lat="42.872119" lon="-1.569277">
        <ele>478.4</ele>
        <time>2018-08-22T08:08:19Z</time>
      </trkpt>
      <trkpt lat="42.871929" lon="-1.569233">
        <ele>477.9</ele>
        <time>2018-08-22T08:08:35Z</time>
      </trkpt>
      <trkpt lat="42.871877" lon="-1.569228">
        <ele>477.9</ele>
        <time>2018-08-22T08:08:47Z</time>
      </trkpt>
      <trkpt lat="42.871725" lon="-1.569200">
        <ele>476.5</ele>
        <time>2018-08-22T08:09:05Z</time>
      </trkpt>
      <trkpt lat="42.871534" lon="-1.569149">
        <ele>477.4</ele>
        <time>2018-08-22T08:09:20Z</time>
      </trkpt>
      <trkpt lat="42.871414" lon="-1.569110">
        <ele>477.4</ele>
        <time>2018-08-22T08:09:29Z</time>
      </trkpt>
      <trkpt lat="42.871312" lon="-1.569057">
        <ele>477.4</ele>
        <time>2018-08-22T08:09:37Z</time>
      </trkpt>
      <trkpt lat="42.871085" lon="-1.569063">
        <ele>476.5</ele>
        <time>2018-08-22T08:09:56Z</time>
      </trkpt>
      <trkpt lat="42.870933" lon="-1.569124">
        <ele>477.0</ele>
        <time>2018-08-22T08:10:10Z</time>
      </trkpt>
      <trkpt lat="42.870808" lon="-1.569189">
        <ele>477.4</ele>
        <time>2018-08-22T08:10:24Z</time>
      </trkpt>
      <trkpt lat="42.870655" lon="-1.569238">
        <ele>477.0</ele>
        <time>2018-08-22T08:10:37Z</time>
      </trkpt>
      <trkpt lat="42.870532" lon="-1.569245">
        <ele>476.5</ele>
        <time>2018-08-22T08:10:50Z</time>
      </trkpt>
      <trkpt lat="42.870466" lon="-1.569255">
        <ele>477.0</ele>
        <time>2018-08-22T08:10:56Z</time>
      </trkpt>
      <trkpt lat="42.870416" lon="-1.569244">
        <ele>476.5</ele>
        <time>2018-08-22T08:11:00Z</time>
      </trkpt>
      <trkpt lat="42.870231" lon="-1.569213">
        <ele>476.5</ele>
        <time>2018-08-22T08:11:15Z</time>
      </trkpt>
      <trkpt lat="42.870116" lon="-1.569184">
        <ele>476.5</ele>
        <time>2018-08-22T08:11:26Z</time>
      </trkpt>
      <trkpt lat="42.870039" lon="-1.569118">
        <ele>476.5</ele>
        <time>2018-08-22T08:11:34Z</time>
      </trkpt>
      <trkpt lat="42.870013" lon="-1.569092">
        <ele>477.0</ele>
        <time>2018-08-22T08:11:36Z</time>
      </trkpt>
      <trkpt lat="42.869881" lon="-1.569014">
        <ele>476.5</ele>
        <time>2018-08-22T08:11:51Z</time>
      </trkpt>
      <trkpt lat="42.869708" lon="-1.568929">
        <ele>477.4</ele>
        <time>2018-08-22T08:12:06Z</time>
      </trkpt>
      <trkpt lat="42.869598" lon="-1.568966">
        <ele>478.9</ele>
        <time>2018-08-22T08:12:19Z</time>
      </trkpt>
      <trkpt lat="42.869514" lon="-1.568938">
        <ele>478.9</ele>
        <time>2018-08-22T08:12:24Z</time>
      </trkpt>
      <trkpt lat="42.869342" lon="-1.568944">
        <ele>479.8</ele>
        <time>2018-08-22T08:12:39Z</time>
      </trkpt>
      <trkpt lat="42.869245" lon="-1.568956">
        <ele>480.8</ele>
        <time>2018-08-22T08:12:48Z</time>
      </trkpt>
      <trkpt lat="42.869160" lon="-1.568947">
        <ele>480.8</ele>
        <time>2018-08-22T08:12:55Z</time>
      </trkpt>
      <trkpt lat="42.869047" lon="-1.568935">
        <ele>481.3</ele>
        <time>2018-08-22T08:13:03Z</time>
      </trkpt>
      <trkpt lat="42.868972" lon="-1.568928">
        <ele>482.2</ele>
        <time>2018-08-22T08:13:11Z</time>
      </trkpt>
      <trkpt lat="42.868869" lon="-1.568856">
        <ele>483.2</ele>
        <time>2018-08-22T08:13:24Z</time>
      </trkpt>
      <trkpt lat="42.868740" lon="-1.568799">
        <ele>485.1</ele>
        <time>2018-08-22T08:13:35Z</time>
      </trkpt>
      <trkpt lat="42.868696" lon="-1.568800">
        <ele>485.6</ele>
        <time>2018-08-22T08:13:39Z</time>
      </trkpt>
      <trkpt lat="42.868544" lon="-1.568831">
        <ele>484.6</ele>
        <time>2018-08-22T08:13:54Z</time>
      </trkpt>
      <trkpt lat="42.868380" lon="-1.568809">
        <ele>484.2</ele>
        <time>2018-08-22T08:14:08Z</time>
      </trkpt>
      <trkpt lat="42.868333" lon="-1.568802">
        <ele>485.1</ele>
        <time>2018-08-22T08:14:13Z</time>
      </trkpt>
      <trkpt lat="42.868148" lon="-1.568788">
        <ele>484.6</ele>
        <time>2018-08-22T08:14:29Z</time>
      </trkpt>
      <trkpt lat="42.868005" lon="-1.568798">
        <ele>482.2</ele>
        <time>2018-08-22T08:14:43Z</time>
      </trkpt>
      <trkpt lat="42.867832" lon="-1.568793">
        <ele>481.8</ele>
        <time>2018-08-22T08:14:57Z</time>
      </trkpt>
      <trkpt lat="42.867632" lon="-1.568831">
        <ele>481.3</ele>
        <time>2018-08-22T08:15:14Z</time>
      </trkpt>
      <trkpt lat="42.867478" lon="-1.568862">
        <ele>481.8</ele>
        <time>2018-08-22T08:15:29Z</time>
      </trkpt>
      <trkpt lat="42.867296" lon="-1.568984">
        <ele>482.2</ele>
        <time>2018-08-22T08:15:45Z</time>
      </trkpt>
      <trkpt lat="42.867143" lon="-1.569044">
        <ele>481.8</ele>
        <time>2018-08-22T08:15:59Z</time>
      </trkpt>
      <trkpt lat="42.866994" lon="-1.569110">
        <ele>481.8</ele>
        <time>2018-08-22T08:16:13Z</time>
      </trkpt>
      <trkpt lat="42.866853" lon="-1.569173">
        <ele>480.3</ele>
        <time>2018-08-22T08:16:28Z</time>
      </trkpt>
      <trkpt lat="42.866748" lon="-1.569233">
        <ele>479.8</ele>
        <time>2018-08-22T08:16:43Z</time>
      </trkpt>
      <trkpt lat="42.866586" lon="-1.569294">
        <ele>479.8</ele>
        <time>2018-08-22T08:16:57Z</time>
      </trkpt>
      <trkpt lat="42.866469" lon="-1.569355">
        <ele>479.8</ele>
        <time>2018-08-22T08:17:10Z</time>
      </trkpt>
      <trkpt lat="42.866327" lon="-1.569421">
        <ele>480.3</ele>
        <time>2018-08-22T08:17:23Z</time>
      </trkpt>
      <trkpt lat="42.866171" lon="-1.569486">
        <ele>481.3</ele>
        <time>2018-08-22T08:17:39Z</time>
      </trkpt>
      <trkpt lat="42.866049" lon="-1.569575">
        <ele>482.7</ele>
        <time>2018-08-22T08:17:51Z</time>
      </trkpt>
      <trkpt lat="42.866014" lon="-1.569584">
        <ele>483.2</ele>
        <time>2018-08-22T08:17:54Z</time>
      </trkpt>
      <trkpt lat="42.865922" lon="-1.569568">
        <ele>485.1</ele>
        <time>2018-08-22T08:18:08Z</time>
      </trkpt>
      <trkpt lat="42.865895" lon="-1.569581">
        <ele>485.6</ele>
        <time>2018-08-22T08:18:11Z</time>
      </trkpt>
      <trkpt lat="42.865800" lon="-1.569684">
        <ele>486.1</ele>
        <time>2018-08-22T08:18:22Z</time>
      </trkpt>
      <trkpt lat="42.865679" lon="-1.569777">
        <ele>487.5</ele>
        <time>2018-08-22T08:18:36Z</time>
      </trkpt>
      <trkpt lat="42.865627" lon="-1.569825">
        <ele>487.0</ele>
        <time>2018-08-22T08:18:42Z</time>
      </trkpt>
      <trkpt lat="42.865556" lon="-1.569895">
        <ele>488.0</ele>
        <time>2018-08-22T08:18:51Z</time>
      </trkpt>
      <trkpt lat="42.865528" lon="-1.569915">
        <ele>488.0</ele>
        <time>2018-08-22T08:18:53Z</time>
      </trkpt>
      <trkpt lat="42.865432" lon="-1.569905">
        <ele>489.0</ele>
        <time>2018-08-22T08:19:06Z</time>
      </trkpt>
      <trkpt lat="42.865402" lon="-1.569790">
        <ele>489.9</ele>
        <time>2018-08-22T08:19:16Z</time>
      </trkpt>
      <trkpt lat="42.865321" lon="-1.569812">
        <ele>490.4</ele>
        <time>2018-08-22T08:19:25Z</time>
      </trkpt>
      <trkpt lat="42.865228" lon="-1.570037">
        <ele>489.5</ele>
        <time>2018-08-22T08:19:42Z</time>
      </trkpt>
      <trkpt lat="42.865184" lon="-1.570131">
        <ele>489.5</ele>
        <time>2018-08-22T08:19:49Z</time>
      </trkpt>
      <trkpt lat="42.865128" lon="-1.570398">
        <ele>489.9</ele>
        <time>2018-08-22T08:20:06Z</time>
      </trkpt>
      <trkpt lat="42.865100" lon="-1.570499">
        <ele>489.5</ele>
        <time>2018-08-22T08:20:14Z</time>
      </trkpt>
      <trkpt lat="42.864971" lon="-1.570697">
        <ele>487.5</ele>
        <time>2018-08-22T08:20:32Z</time>
      </trkpt>
      <trkpt lat="42.864810" lon="-1.570781">
        <ele>485.6</ele>
        <time>2018-08-22T08:20:48Z</time>
      </trkpt>
      <trkpt lat="42.864802" lon="-1.570788">
        <ele>485.6</ele>
        <time>2018-08-22T08:20:49Z</time>
      </trkpt>
      <trkpt lat="42.864639" lon="-1.570865">
        <ele>485.1</ele>
        <time>2018-08-22T08:21:05Z</time>
      </trkpt>
      <trkpt lat="42.864580" lon="-1.570878">
        <ele>484.2</ele>
        <time>2018-08-22T08:21:10Z</time>
      </trkpt>
      <trkpt lat="42.864428" lon="-1.570919">
        <ele>482.2</ele>
        <time>2018-08-22T08:21:24Z</time>
      </trkpt>
      <trkpt lat="42.864320" lon="-1.570959">
        <ele>482.2</ele>
        <time>2018-08-22T08:21:33Z</time>
      </trkpt>
      <trkpt lat="42.864231" lon="-1.570959">
        <ele>482.2</ele>
        <time>2018-08-22T08:21:39Z</time>
      </trkpt>
      <trkpt lat="42.864081" lon="-1.570959">
        <ele>481.3</ele>
        <time>2018-08-22T08:21:54Z</time>
      </trkpt>
      <trkpt lat="42.863914" lon="-1.571012">
        <ele>481.3</ele>
        <time>2018-08-22T08:22:10Z</time>
      </trkpt>
      <trkpt lat="42.863776" lon="-1.571084">
        <ele>482.2</ele>
        <time>2018-08-22T08:22:26Z</time>
      </trkpt>
      <trkpt lat="42.863604" lon="-1.571122">
        <ele>482.7</ele>
        <time>2018-08-22T08:22:42Z</time>
      </trkpt>
      <trkpt lat="42.863426" lon="-1.571179">
        <ele>482.2</ele>
        <time>2018-08-22T08:22:57Z</time>
      </trkpt>
      <trkpt lat="42.863236" lon="-1.571243">
        <ele>481.8</ele>
        <time>2018-08-22T08:23:13Z</time>
      </trkpt>
      <trkpt lat="42.863110" lon="-1.571252">
        <ele>481.3</ele>
        <time>2018-08-22T08:23:25Z</time>
      </trkpt>
      <trkpt lat="42.862899" lon="-1.571279">
        <ele>480.3</ele>
        <time>2018-08-22T08:23:42Z</time>
      </trkpt>
      <trkpt lat="42.862742" lon="-1.571312">
        <ele>480.3</ele>
        <time>2018-08-22T08:23:55Z</time>
      </trkpt>
      <trkpt lat="42.862585" lon="-1.571269">
        <ele>481.8</ele>
        <time>2018-08-22T08:24:10Z</time>
      </trkpt>
      <trkpt lat="42.862491" lon="-1.571200">
        <ele>482.7</ele>
        <time>2018-08-22T08:24:20Z</time>
      </trkpt>
      <trkpt lat="42.862378" lon="-1.571142">
        <ele>483.7</ele>
        <time>2018-08-22T08:24:33Z</time>
      </trkpt>
      <trkpt lat="42.862249" lon="-1.571020">
        <ele>484.6</ele>
        <time>2018-08-22T08:24:47Z</time>
      </trkpt>
      <trkpt lat="42.862113" lon="-1.570945">
        <ele>482.2</ele>
        <time>2018-08-22T08:25:00Z</time>
      </trkpt>
      <trkpt lat="42.862103" lon="-1.570930">
        <ele>482.2</ele>
        <time>2018-08-22T08:25:01Z</time>
      </trkpt>
      <trkpt lat="42.862056" lon="-1.570817">
        <ele>480.8</ele>
        <time>2018-08-22T08:25:08Z</time>
      </trkpt>
      <trkpt lat="42.861985" lon="-1.570761">
        <ele>480.3</ele>
        <time>2018-08-22T08:25:21Z</time>
      </trkpt>
      <trkpt lat="42.861976" lon="-1.570759">
        <ele>479.8</ele>
        <time>2018-08-22T08:25:23Z</time>
      </trkpt>
      <trkpt lat="42.861842" lon="-1.570801">
        <ele>479.4</ele>
        <time>2018-08-22T08:25:32Z</time>
      </trkpt>
      <trkpt lat="42.861678" lon="-1.570869">
        <ele>478.9</ele>
        <time>2018-08-22T08:25:48Z</time>
      </trkpt>
      <trkpt lat="42.861584" lon="-1.570930">
        <ele>477.9</ele>
        <time>2018-08-22T08:26:07Z</time>
      </trkpt>
      <trkpt lat="42.861531" lon="-1.571015">
        <ele>478.4</ele>
        <time>2018-08-22T08:26:43Z</time>
      </trkpt>
      <trkpt lat="42.861450" lon="-1.571227">
        <ele>479.8</ele>
        <time>2018-08-22T08:26:59Z</time>
      </trkpt>
      <trkpt lat="42.861398" lon="-1.571308">
        <ele>480.8</ele>
        <time>2018-08-22T08:27:12Z</time>
      </trkpt>
      <trkpt lat="42.861394" lon="-1.571315">
        <ele>479.8</ele>
        <time>2018-08-22T08:27:37Z</time>
      </trkpt>
      <trkpt lat="42.861382" lon="-1.571314">
        <ele>479.8</ele>
        <time>2018-08-22T08:27:44Z</time>
      </trkpt>
      <trkpt lat="42.861188" lon="-1.571428">
        <ele>481.8</ele>
        <time>2018-08-22T08:28:01Z</time>
      </trkpt>
      <trkpt lat="42.861139" lon="-1.571552">
        <ele>481.8</ele>
        <time>2018-08-22T08:28:15Z</time>
      </trkpt>
      <trkpt lat="42.861092" lon="-1.571550">
        <ele>481.8</ele>
        <time>2018-08-22T08:28:32Z</time>
      </trkpt>
      <trkpt lat="42.861032" lon="-1.571643">
        <ele>481.3</ele>
        <time>2018-08-22T08:28:48Z</time>
      </trkpt>
      <trkpt lat="42.860990" lon="-1.571704">
        <ele>480.8</ele>
        <time>2018-08-22T08:28:55Z</time>
      </trkpt>
      <trkpt lat="42.860833" lon="-1.571804">
        <ele>479.4</ele>
        <time>2018-08-22T08:29:11Z</time>
      </trkpt>
      <trkpt lat="42.860695" lon="-1.571921">
        <ele>478.4</ele>
        <time>2018-08-22T08:29:27Z</time>
      </trkpt>
      <trkpt lat="42.860548" lon="-1.572088">
        <ele>477.0</ele>
        <time>2018-08-22T08:29:44Z</time>
      </trkpt>
      <trkpt lat="42.860442" lon="-1.572181">
        <ele>476.0</ele>
        <time>2018-08-22T08:29:58Z</time>
      </trkpt>
      <trkpt lat="42.860319" lon="-1.572318">
        <ele>475.0</ele>
        <time>2018-08-22T08:30:13Z</time>
      </trkpt>
      <trkpt lat="42.860198" lon="-1.572472">
        <ele>474.1</ele>
        <time>2018-08-22T08:30:28Z</time>
      </trkpt>
      <trkpt lat="42.860069" lon="-1.572654">
        <ele>473.6</ele>
        <time>2018-08-22T08:30:44Z</time>
      </trkpt>
      <trkpt lat="42.859995" lon="-1.572816">
        <ele>472.6</ele>
        <time>2018-08-22T08:30:56Z</time>
      </trkpt>
      <trkpt lat="42.859951" lon="-1.572897">
        <ele>472.1</ele>
        <time>2018-08-22T08:31:03Z</time>
      </trkpt>
      <trkpt lat="42.859926" lon="-1.572954">
        <ele>471.7</ele>
        <time>2018-08-22T08:31:07Z</time>
      </trkpt>
      <trkpt lat="42.859908" lon="-1.572969">
        <ele>472.1</ele>
        <time>2018-08-22T08:31:09Z</time>
      </trkpt>
      <trkpt lat="42.859813" lon="-1.573196">
        <ele>469.7</ele>
        <time>2018-08-22T08:31:26Z</time>
      </trkpt>
      <trkpt lat="42.859803" lon="-1.573254">
        <ele>469.7</ele>
        <time>2018-08-22T08:31:30Z</time>
      </trkpt>
      <trkpt lat="42.859745" lon="-1.573489">
        <ele>466.4</ele>
        <time>2018-08-22T08:31:46Z</time>
      </trkpt>
      <trkpt lat="42.859762" lon="-1.573738">
        <ele>464.9</ele>
        <time>2018-08-22T08:32:02Z</time>
      </trkpt>
      <trkpt lat="42.859767" lon="-1.573764">
        <ele>464.9</ele>
        <time>2018-08-22T08:32:03Z</time>
      </trkpt>
      <trkpt lat="42.859806" lon="-1.574072">
        <ele>464.9</ele>
        <time>2018-08-22T08:32:19Z</time>
      </trkpt>
      <trkpt lat="42.859834" lon="-1.574163">
        <ele>465.9</ele>
        <time>2018-08-22T08:32:31Z</time>
      </trkpt>
      <trkpt lat="42.859832" lon="-1.574153">
        <ele>465.9</ele>
        <time>2018-08-22T08:32:33Z</time>
      </trkpt>
      <trkpt lat="42.859890" lon="-1.574231">
        <ele>466.9</ele>
        <time>2018-08-22T08:32:39Z</time>
      </trkpt>
      <trkpt lat="42.859973" lon="-1.574470">
        <ele>465.4</ele>
        <time>2018-08-22T08:32:55Z</time>
      </trkpt>
      <trkpt lat="42.860005" lon="-1.574663">
        <ele>465.9</ele>
        <time>2018-08-22T08:33:09Z</time>
      </trkpt>
      <trkpt lat="42.860005" lon="-1.574700">
        <ele>466.4</ele>
        <time>2018-08-22T08:33:11Z</time>
      </trkpt>
      <trkpt lat="42.859951" lon="-1.574759">
        <ele>467.8</ele>
        <time>2018-08-22T08:33:20Z</time>
      </trkpt>
      <trkpt lat="42.859804" lon="-1.574882">
        <ele>465.9</ele>
        <time>2018-08-22T08:33:38Z</time>
      </trkpt>
      <trkpt lat="42.859674" lon="-1.575099">
        <ele>465.9</ele>
        <time>2018-08-22T08:33:54Z</time>
      </trkpt>
      <trkpt lat="42.859605" lon="-1.575292">
        <ele>468.3</ele>
        <time>2018-08-22T08:34:09Z</time>
      </trkpt>
      <trkpt lat="42.859579" lon="-1.575314">
        <ele>468.8</ele>
        <time>2018-08-22T08:34:12Z</time>
      </trkpt>
      <trkpt lat="42.859431" lon="-1.575437">
        <ele>468.3</ele>
        <time>2018-08-22T08:34:28Z</time>
      </trkpt>
      <trkpt lat="42.859367" lon="-1.575444">
        <ele>467.3</ele>
        <time>2018-08-22T08:34:33Z</time>
      </trkpt>
      <trkpt lat="42.859286" lon="-1.575509">
        <ele>467.8</ele>
        <time>2018-08-22T08:34:48Z</time>
      </trkpt>
      <trkpt lat="42.859179" lon="-1.575654">
        <ele>467.3</ele>
        <time>2018-08-22T08:35:01Z</time>
      </trkpt>
      <trkpt lat="42.859063" lon="-1.575832">
        <ele>468.3</ele>
        <time>2018-08-22T08:35:16Z</time>
      </trkpt>
      <trkpt lat="42.859013" lon="-1.575899">
        <ele>467.8</ele>
        <time>2018-08-22T08:35:21Z</time>
      </trkpt>
      <trkpt lat="42.858934" lon="-1.576057">
        <ele>468.3</ele>
        <time>2018-08-22T08:35:36Z</time>
      </trkpt>
      <trkpt lat="42.858796" lon="-1.576192">
        <ele>468.3</ele>
        <time>2018-08-22T08:35:51Z</time>
      </trkpt>
      <trkpt lat="42.858749" lon="-1.576236">
        <ele>467.8</ele>
        <time>2018-08-22T08:35:57Z</time>
      </trkpt>
      <trkpt lat="42.858628" lon="-1.576426">
        <ele>468.3</ele>
        <time>2018-08-22T08:36:13Z</time>
      </trkpt>
      <trkpt lat="42.858547" lon="-1.576490">
        <ele>467.3</ele>
        <time>2018-08-22T08:36:21Z</time>
      </trkpt>
      <trkpt lat="42.858393" lon="-1.576682">
        <ele>466.9</ele>
        <time>2018-08-22T08:36:37Z</time>
      </trkpt>
      <trkpt lat="42.858254" lon="-1.576851">
        <ele>466.9</ele>
        <time>2018-08-22T08:36:52Z</time>
      </trkpt>
      <trkpt lat="42.858172" lon="-1.576942">
        <ele>466.9</ele>
        <time>2018-08-22T08:37:02Z</time>
      </trkpt>
      <trkpt lat="42.858151" lon="-1.576986">
        <ele>465.9</ele>
        <time>2018-08-22T08:37:05Z</time>
      </trkpt>
      <trkpt lat="42.858002" lon="-1.577167">
        <ele>465.9</ele>
        <time>2018-08-22T08:37:22Z</time>
      </trkpt>
      <trkpt lat="42.857873" lon="-1.577321">
        <ele>465.9</ele>
        <time>2018-08-22T08:37:37Z</time>
      </trkpt>
      <trkpt lat="42.857755" lon="-1.577459">
        <ele>467.3</ele>
        <time>2018-08-22T08:37:52Z</time>
      </trkpt>
      <trkpt lat="42.857613" lon="-1.577613">
        <ele>468.3</ele>
        <time>2018-08-22T08:38:08Z</time>
      </trkpt>
      <trkpt lat="42.857463" lon="-1.577778">
        <ele>469.3</ele>
        <time>2018-08-22T08:38:24Z</time>
      </trkpt>
      <trkpt lat="42.857349" lon="-1.577913">
        <ele>470.2</ele>
        <time>2018-08-22T08:38:40Z</time>
      </trkpt>
      <trkpt lat="42.857325" lon="-1.577946">
        <ele>471.2</ele>
        <time>2018-08-22T08:38:59Z</time>
      </trkpt>
      <trkpt lat="42.857270" lon="-1.578033">
        <ele>471.7</ele>
        <time>2018-08-22T08:39:10Z</time>
      </trkpt>
      <trkpt lat="42.857168" lon="-1.578148">
        <ele>473.1</ele>
        <time>2018-08-22T08:39:25Z</time>
      </trkpt>
      <trkpt lat="42.857070" lon="-1.578270">
        <ele>473.6</ele>
        <time>2018-08-22T08:39:38Z</time>
      </trkpt>
      <trkpt lat="42.856935" lon="-1.578339">
        <ele>473.1</ele>
        <time>2018-08-22T08:39:50Z</time>
      </trkpt>
      <trkpt lat="42.856901" lon="-1.578366">
        <ele>473.6</ele>
        <time>2018-08-22T08:39:53Z</time>
      </trkpt>
      <trkpt lat="42.856812" lon="-1.578442">
        <ele>474.1</ele>
        <time>2018-08-22T08:40:02Z</time>
      </trkpt>
      <trkpt lat="42.856667" lon="-1.578514">
        <ele>474.1</ele>
        <time>2018-08-22T08:40:15Z</time>
      </trkpt>
      <trkpt lat="42.856547" lon="-1.578591">
        <ele>475.5</ele>
        <time>2018-08-22T08:40:28Z</time>
      </trkpt>
      <trkpt lat="42.856399" lon="-1.578733">
        <ele>474.1</ele>
        <time>2018-08-22T08:40:41Z</time>
      </trkpt>
      <trkpt lat="42.856295" lon="-1.578821">
        <ele>475.5</ele>
        <time>2018-08-22T08:40:51Z</time>
      </trkpt>
      <trkpt lat="42.856157" lon="-1.579041">
        <ele>475.5</ele>
        <time>2018-08-22T08:41:07Z</time>
      </trkpt>
      <trkpt lat="42.856111" lon="-1.579246">
        <ele>475.0</ele>
        <time>2018-08-22T08:41:21Z</time>
      </trkpt>
      <trkpt lat="42.856114" lon="-1.579303">
        <ele>473.6</ele>
        <time>2018-08-22T08:41:26Z</time>
      </trkpt>
      <trkpt lat="42.856085" lon="-1.579341">
        <ele>474.1</ele>
        <time>2018-08-22T08:41:34Z</time>
      </trkpt>
      <trkpt lat="42.856031" lon="-1.579386">
        <ele>474.5</ele>
        <time>2018-08-22T08:41:45Z</time>
      </trkpt>
      <trkpt lat="42.855940" lon="-1.579463">
        <ele>475.0</ele>
        <time>2018-08-22T08:41:57Z</time>
      </trkpt>
      <trkpt lat="42.855744" lon="-1.579604">
        <ele>476.0</ele>
        <time>2018-08-22T08:42:13Z</time>
      </trkpt>
      <trkpt lat="42.855653" lon="-1.579698">
        <ele>476.0</ele>
        <time>2018-08-22T08:42:28Z</time>
      </trkpt>
      <trkpt lat="42.855647" lon="-1.579700">
        <ele>477.0</ele>
        <time>2018-08-22T08:42:29Z</time>
      </trkpt>
      <trkpt lat="42.855587" lon="-1.579787">
        <ele>477.0</ele>
        <time>2018-08-22T08:42:44Z</time>
      </trkpt>
      <trkpt lat="42.855576" lon="-1.579793">
        <ele>477.9</ele>
        <time>2018-08-22T08:43:41Z</time>
      </trkpt>
      <trkpt lat="42.855557" lon="-1.579791">
        <ele>477.9</ele>
        <time>2018-08-22T08:43:55Z</time>
      </trkpt>
      <trkpt lat="42.855540" lon="-1.579773">
        <ele>477.4</ele>
        <time>2018-08-22T08:44:11Z</time>
      </trkpt>
      <trkpt lat="42.855504" lon="-1.579754">
        <ele>477.9</ele>
        <time>2018-08-22T08:44:26Z</time>
      </trkpt>
      <trkpt lat="42.855444" lon="-1.579657">
        <ele>475.5</ele>
        <time>2018-08-22T08:44:43Z</time>
      </trkpt>
      <trkpt lat="42.855434" lon="-1.579686">
        <ele>475.0</ele>
        <time>2018-08-22T08:44:56Z</time>
      </trkpt>
      <trkpt lat="42.855425" lon="-1.579700">
        <ele>475.5</ele>
        <time>2018-08-22T08:45:06Z</time>
      </trkpt>
      <trkpt lat="42.855382" lon="-1.579665">
        <ele>474.1</ele>
        <time>2018-08-22T08:45:11Z</time>
      </trkpt>
      <trkpt lat="42.855321" lon="-1.579639">
        <ele>472.1</ele>
        <time>2018-08-22T08:45:18Z</time>
      </trkpt>
      <trkpt lat="42.855231" lon="-1.579591">
        <ele>470.2</ele>
        <time>2018-08-22T08:45:35Z</time>
      </trkpt>
      <trkpt lat="42.855138" lon="-1.579409">
        <ele>467.8</ele>
        <time>2018-08-22T08:45:50Z</time>
      </trkpt>
      <trkpt lat="42.855024" lon="-1.579253">
        <ele>464.9</ele>
        <time>2018-08-22T08:46:07Z</time>
      </trkpt>
      <trkpt lat="42.854970" lon="-1.579180">
        <ele>464.0</ele>
        <time>2018-08-22T08:46:13Z</time>
      </trkpt>
      <trkpt lat="42.854895" lon="-1.579100">
        <ele>463.5</ele>
        <time>2018-08-22T08:46:23Z</time>
      </trkpt>
      <trkpt lat="42.854812" lon="-1.578996">
        <ele>462.5</ele>
        <time>2018-08-22T08:46:32Z</time>
      </trkpt>
      <trkpt lat="42.854681" lon="-1.578850">
        <ele>462.0</ele>
        <time>2018-08-22T08:46:47Z</time>
      </trkpt>
      <trkpt lat="42.854494" lon="-1.578879">
        <ele>462.5</ele>
        <time>2018-08-22T08:48:17Z</time>
      </trkpt>
      <trkpt lat="42.854338" lon="-1.578965">
        <ele>461.6</ele>
        <time>2018-08-22T08:48:31Z</time>
      </trkpt>
      <trkpt lat="42.854123" lon="-1.579008">
        <ele>460.1</ele>
        <time>2018-08-22T08:48:47Z</time>
      </trkpt>
      <trkpt lat="42.853946" lon="-1.579100">
        <ele>459.6</ele>
        <time>2018-08-22T08:49:02Z</time>
      </trkpt>
      <trkpt lat="42.853898" lon="-1.579118">
        <ele>459.6</ele>
        <time>2018-08-22T08:49:06Z</time>
      </trkpt>
      <trkpt lat="42.853740" lon="-1.579266">
        <ele>458.7</ele>
        <time>2018-08-22T08:49:20Z</time>
      </trkpt>
      <trkpt lat="42.853549" lon="-1.579376">
        <ele>459.2</ele>
        <time>2018-08-22T08:49:36Z</time>
      </trkpt>
      <trkpt lat="42.853477" lon="-1.579402">
        <ele>458.7</ele>
        <time>2018-08-22T08:49:41Z</time>
      </trkpt>
      <trkpt lat="42.853417" lon="-1.579451">
        <ele>458.2</ele>
        <time>2018-08-22T08:49:46Z</time>
      </trkpt>
      <trkpt lat="42.853199" lon="-1.579557">
        <ele>458.2</ele>
        <time>2018-08-22T08:50:03Z</time>
      </trkpt>
      <trkpt lat="42.852988" lon="-1.579636">
        <ele>457.2</ele>
        <time>2018-08-22T08:50:18Z</time>
      </trkpt>
      <trkpt lat="42.852828" lon="-1.579831">
        <ele>458.2</ele>
        <time>2018-08-22T08:50:35Z</time>
      </trkpt>
      <trkpt lat="42.852823" lon="-1.579852">
        <ele>458.7</ele>
        <time>2018-08-22T08:50:36Z</time>
      </trkpt>
      <trkpt lat="42.852771" lon="-1.580150">
        <ele>457.7</ele>
        <time>2018-08-22T08:50:52Z</time>
      </trkpt>
      <trkpt lat="42.852729" lon="-1.580171">
        <ele>457.2</ele>
        <time>2018-08-22T08:51:06Z</time>
      </trkpt>
      <trkpt lat="42.852716" lon="-1.580226">
        <ele>457.2</ele>
        <time>2018-08-22T08:51:10Z</time>
      </trkpt>
      <trkpt lat="42.852613" lon="-1.580553">
        <ele>457.2</ele>
        <time>2018-08-22T08:51:29Z</time>
      </trkpt>
      <trkpt lat="42.852500" lon="-1.580854">
        <ele>456.8</ele>
        <time>2018-08-22T08:51:45Z</time>
      </trkpt>
      <trkpt lat="42.852475" lon="-1.580903">
        <ele>456.3</ele>
        <time>2018-08-22T08:51:49Z</time>
      </trkpt>
      <trkpt lat="42.852466" lon="-1.580916">
        <ele>456.3</ele>
        <time>2018-08-22T08:51:50Z</time>
      </trkpt>
      <trkpt lat="42.852422" lon="-1.580992">
        <ele>456.8</ele>
        <time>2018-08-22T08:51:55Z</time>
      </trkpt>
      <trkpt lat="42.852383" lon="-1.581109">
        <ele>456.8</ele>
        <time>2018-08-22T08:52:01Z</time>
      </trkpt>
      <trkpt lat="42.852379" lon="-1.581129">
        <ele>456.8</ele>
        <time>2018-08-22T08:52:02Z</time>
      </trkpt>
      <trkpt lat="42.852374" lon="-1.581147">
        <ele>456.3</ele>
        <time>2018-08-22T08:52:03Z</time>
      </trkpt>
      <trkpt lat="42.852367" lon="-1.581164">
        <ele>456.8</ele>
        <time>2018-08-22T08:52:04Z</time>
      </trkpt>
      <trkpt lat="42.852360" lon="-1.581181">
        <ele>456.8</ele>
        <time>2018-08-22T08:52:05Z</time>
      </trkpt>
      <trkpt lat="42.852274" lon="-1.581394">
        <ele>456.3</ele>
        <time>2018-08-22T08:52:18Z</time>
      </trkpt>
      <trkpt lat="42.852266" lon="-1.581436">
        <ele>455.8</ele>
        <time>2018-08-22T08:52:20Z</time>
      </trkpt>
      <trkpt lat="42.852179" lon="-1.581761">
        <ele>456.3</ele>
        <time>2018-08-22T08:52:37Z</time>
      </trkpt>
      <trkpt lat="42.852177" lon="-1.581788">
        <ele>455.3</ele>
        <time>2018-08-22T08:52:38Z</time>
      </trkpt>
      <trkpt lat="42.852179" lon="-1.581813">
        <ele>455.3</ele>
        <time>2018-08-22T08:52:39Z</time>
      </trkpt>
      <trkpt lat="42.852178" lon="-1.581832">
        <ele>457.2</ele>
        <time>2018-08-22T08:52:40Z</time>
      </trkpt>
      <trkpt lat="42.852177" lon="-1.581850">
        <ele>455.8</ele>
        <time>2018-08-22T08:52:41Z</time>
      </trkpt>
      <trkpt lat="42.852177" lon="-1.581870">
        <ele>456.3</ele>
        <time>2018-08-22T08:52:42Z</time>
      </trkpt>
      <trkpt lat="42.852175" lon="-1.581885">
        <ele>456.3</ele>
        <time>2018-08-22T08:52:43Z</time>
      </trkpt>
      <trkpt lat="42.852146" lon="-1.582158">
        <ele>455.8</ele>
        <time>2018-08-22T08:52:59Z</time>
      </trkpt>
      <trkpt lat="42.852142" lon="-1.582170">
        <ele>456.3</ele>
        <time>2018-08-22T08:53:00Z</time>
      </trkpt>
      <trkpt lat="42.852138" lon="-1.582207">
        <ele>456.3</ele>
        <time>2018-08-22T08:53:02Z</time>
      </trkpt>
      <trkpt lat="42.852138" lon="-1.582225">
        <ele>456.3</ele>
        <time>2018-08-22T08:53:03Z</time>
      </trkpt>
      <trkpt lat="42.852137" lon="-1.582242">
        <ele>455.8</ele>
        <time>2018-08-22T08:53:04Z</time>
      </trkpt>
      <trkpt lat="42.852107" lon="-1.582533">
        <ele>456.3</ele>
        <time>2018-08-22T08:53:20Z</time>
      </trkpt>
      <trkpt lat="42.852107" lon="-1.582565">
        <ele>456.3</ele>
        <time>2018-08-22T08:53:22Z</time>
      </trkpt>
      <trkpt lat="42.852109" lon="-1.582583">
        <ele>455.8</ele>
        <time>2018-08-22T08:53:23Z</time>
      </trkpt>
      <trkpt lat="42.852115" lon="-1.582879">
        <ele>455.8</ele>
        <time>2018-08-22T08:53:39Z</time>
      </trkpt>
      <trkpt lat="42.852135" lon="-1.582973">
        <ele>454.8</ele>
        <time>2018-08-22T08:53:45Z</time>
      </trkpt>
      <trkpt lat="42.852147" lon="-1.583107">
        <ele>456.3</ele>
        <time>2018-08-22T08:53:52Z</time>
      </trkpt>
      <trkpt lat="42.852150" lon="-1.583125">
        <ele>455.8</ele>
        <time>2018-08-22T08:53:53Z</time>
      </trkpt>
      <trkpt lat="42.852153" lon="-1.583143">
        <ele>455.8</ele>
        <time>2018-08-22T08:53:54Z</time>
      </trkpt>
      <trkpt lat="42.852181" lon="-1.583244">
        <ele>455.3</ele>
        <time>2018-08-22T08:54:00Z</time>
      </trkpt>
      <trkpt lat="42.852258" lon="-1.583547">
        <ele>456.8</ele>
        <time>2018-08-22T08:54:17Z</time>
      </trkpt>
      <trkpt lat="42.852275" lon="-1.583616">
        <ele>457.2</ele>
        <time>2018-08-22T08:54:21Z</time>
      </trkpt>
      <trkpt lat="42.852363" lon="-1.583700">
        <ele>459.6</ele>
        <time>2018-08-22T08:54:31Z</time>
      </trkpt>
      <trkpt lat="42.852424" lon="-1.583753">
        <ele>459.6</ele>
        <time>2018-08-22T08:54:40Z</time>
      </trkpt>
      <trkpt lat="42.852558" lon="-1.583807">
        <ele>460.6</ele>
        <time>2018-08-22T08:54:53Z</time>
      </trkpt>
      <trkpt lat="42.852644" lon="-1.583751">
        <ele>460.1</ele>
        <time>2018-08-22T08:55:02Z</time>
      </trkpt>
      <trkpt lat="42.852671" lon="-1.583711">
        <ele>460.6</ele>
        <time>2018-08-22T08:55:05Z</time>
      </trkpt>
      <trkpt lat="42.852679" lon="-1.583698">
        <ele>460.6</ele>
        <time>2018-08-22T08:55:06Z</time>
      </trkpt>
      <trkpt lat="42.852681" lon="-1.583614">
        <ele>461.6</ele>
        <time>2018-08-22T08:55:13Z</time>
      </trkpt>
      <trkpt lat="42.852691" lon="-1.583585">
        <ele>461.1</ele>
        <time>2018-08-22T08:55:15Z</time>
      </trkpt>
      <trkpt lat="42.852727" lon="-1.583418">
        <ele>461.6</ele>
        <time>2018-08-22T08:55:30Z</time>
      </trkpt>
      <trkpt lat="42.852767" lon="-1.583333">
        <ele>461.6</ele>
        <time>2018-08-22T08:56:15Z</time>
      </trkpt>
      <trkpt lat="42.852781" lon="-1.583352">
        <ele>462.0</ele>
        <time>2018-08-22T08:59:57Z</time>
      </trkpt>
      <trkpt lat="42.852772" lon="-1.583392">
        <ele>462.5</ele>
        <time>2018-08-22T09:01:19Z</time>
      </trkpt>
      <trkpt lat="42.852761" lon="-1.583398">
        <ele>462.5</ele>
        <time>2018-08-22T09:01:56Z</time>
      </trkpt>
      <trkpt lat="42.852746" lon="-1.583611">
        <ele>464.0</ele>
        <time>2018-08-22T09:23:26Z</time>
      </trkpt>
      <trkpt lat="42.852735" lon="-1.583674">
        <ele>464.0</ele>
        <time>2018-08-22T09:23:30Z</time>
      </trkpt>
      <trkpt lat="42.852727" lon="-1.583687">
        <ele>464.0</ele>
        <time>2018-08-22T09:23:31Z</time>
      </trkpt>
      <trkpt lat="42.852720" lon="-1.583699">
        <ele>464.0</ele>
        <time>2018-08-22T09:23:32Z</time>
      </trkpt>
      <trkpt lat="42.852710" lon="-1.583710">
        <ele>464.0</ele>
        <time>2018-08-22T09:23:33Z</time>
      </trkpt>
      <trkpt lat="42.852702" lon="-1.583719">
        <ele>464.0</ele>
        <time>2018-08-22T09:23:34Z</time>
      </trkpt>
      <trkpt lat="42.852689" lon="-1.583780">
        <ele>462.5</ele>
        <time>2018-08-22T09:24:49Z</time>
      </trkpt>
      <trkpt lat="42.852701" lon="-1.583846">
        <ele>463.0</ele>
        <time>2018-08-22T09:25:01Z</time>
      </trkpt>
      <trkpt lat="42.852694" lon="-1.583855">
        <ele>463.0</ele>
        <time>2018-08-22T09:25:02Z</time>
      </trkpt>
      <trkpt lat="42.852636" lon="-1.583905">
        <ele>464.9</ele>
        <time>2018-08-22T09:25:12Z</time>
      </trkpt>
      <trkpt lat="42.852626" lon="-1.583961">
        <ele>465.4</ele>
        <time>2018-08-22T09:25:16Z</time>
      </trkpt>
      <trkpt lat="42.852621" lon="-1.583990">
        <ele>465.4</ele>
        <time>2018-08-22T09:25:18Z</time>
      </trkpt>
      <trkpt lat="42.852615" lon="-1.584038">
        <ele>465.4</ele>
        <time>2018-08-22T09:25:22Z</time>
      </trkpt>
      <trkpt lat="42.852600" lon="-1.584081">
        <ele>466.4</ele>
        <time>2018-08-22T09:25:26Z</time>
      </trkpt>
      <trkpt lat="42.852571" lon="-1.584119">
        <ele>466.9</ele>
        <time>2018-08-22T09:25:30Z</time>
      </trkpt>
      <trkpt lat="42.852556" lon="-1.584139">
        <ele>466.9</ele>
        <time>2018-08-22T09:25:32Z</time>
      </trkpt>
      <trkpt lat="42.852549" lon="-1.584152">
        <ele>466.9</ele>
        <time>2018-08-22T09:25:33Z</time>
      </trkpt>
      <trkpt lat="42.852543" lon="-1.584163">
        <ele>466.4</ele>
        <time>2018-08-22T09:25:34Z</time>
      </trkpt>
      <trkpt lat="42.852537" lon="-1.584171">
        <ele>466.9</ele>
        <time>2018-08-22T09:25:35Z</time>
      </trkpt>
      <trkpt lat="42.852501" lon="-1.584239">
        <ele>467.8</ele>
        <time>2018-08-22T09:25:41Z</time>
      </trkpt>
      <trkpt lat="42.852463" lon="-1.584280">
        <ele>469.3</ele>
        <time>2018-08-22T09:25:47Z</time>
      </trkpt>
      <trkpt lat="42.852402" lon="-1.584349">
        <ele>470.2</ele>
        <time>2018-08-22T09:25:58Z</time>
      </trkpt>
      <trkpt lat="42.852336" lon="-1.584423">
        <ele>472.1</ele>
        <time>2018-08-22T09:26:09Z</time>
      </trkpt>
      <trkpt lat="42.852294" lon="-1.584481">
        <ele>473.6</ele>
        <time>2018-08-22T09:26:17Z</time>
      </trkpt>
      <trkpt lat="42.852282" lon="-1.584504">
        <ele>473.6</ele>
        <time>2018-08-22T09:26:19Z</time>
      </trkpt>
      <trkpt lat="42.852269" lon="-1.584525">
        <ele>473.1</ele>
        <time>2018-08-22T09:26:21Z</time>
      </trkpt>
      <trkpt lat="42.852221" lon="-1.584641">
        <ele>475.0</ele>
        <time>2018-08-22T09:26:31Z</time>
      </trkpt>
      <trkpt lat="42.852148" lon="-1.584768">
        <ele>475.5</ele>
        <time>2018-08-22T09:26:43Z</time>
      </trkpt>
      <trkpt lat="42.852122" lon="-1.584822">
        <ele>475.5</ele>
        <time>2018-08-22T09:26:48Z</time>
      </trkpt>
      <trkpt lat="42.852089" lon="-1.584887">
        <ele>477.0</ele>
        <time>2018-08-22T09:26:55Z</time>
      </trkpt>
      <trkpt lat="42.852083" lon="-1.584930">
        <ele>477.4</ele>
        <time>2018-08-22T09:26:58Z</time>
      </trkpt>
      <trkpt lat="42.852075" lon="-1.584967">
        <ele>477.4</ele>
        <time>2018-08-22T09:27:02Z</time>
      </trkpt>
      <trkpt lat="42.852060" lon="-1.585085">
        <ele>479.8</ele>
        <time>2018-08-22T09:27:12Z</time>
      </trkpt>
      <trkpt lat="42.852027" lon="-1.585166">
        <ele>480.8</ele>
        <time>2018-08-22T09:27:23Z</time>
      </trkpt>
      <trkpt lat="42.851988" lon="-1.585230">
        <ele>482.2</ele>
        <time>2018-08-22T09:27:33Z</time>
      </trkpt>
      <trkpt lat="42.851933" lon="-1.585270">
        <ele>485.1</ele>
        <time>2018-08-22T09:27:47Z</time>
      </trkpt>
      <trkpt lat="42.851916" lon="-1.585306">
        <ele>486.1</ele>
        <time>2018-08-22T09:27:53Z</time>
      </trkpt>
      <trkpt lat="42.851876" lon="-1.585391">
        <ele>488.5</ele>
        <time>2018-08-22T09:28:05Z</time>
      </trkpt>
      <trkpt lat="42.851818" lon="-1.585445">
        <ele>490.9</ele>
        <time>2018-08-22T09:28:18Z</time>
      </trkpt>
      <trkpt lat="42.851784" lon="-1.585482">
        <ele>490.9</ele>
        <time>2018-08-22T09:28:24Z</time>
      </trkpt>
      <trkpt lat="42.851644" lon="-1.585555">
        <ele>491.4</ele>
        <time>2018-08-22T09:28:40Z</time>
      </trkpt>
      <trkpt lat="42.851500" lon="-1.585629">
        <ele>491.4</ele>
        <time>2018-08-22T09:28:56Z</time>
      </trkpt>
      <trkpt lat="42.851406" lon="-1.585670">
        <ele>490.4</ele>
        <time>2018-08-22T09:29:07Z</time>
      </trkpt>
      <trkpt lat="42.851285" lon="-1.585763">
        <ele>489.9</ele>
        <time>2018-08-22T09:29:20Z</time>
      </trkpt>
      <trkpt lat="42.851212" lon="-1.585942">
        <ele>487.0</ele>
        <time>2018-08-22T09:29:37Z</time>
      </trkpt>
      <trkpt lat="42.851124" lon="-1.586066">
        <ele>485.6</ele>
        <time>2018-08-22T09:29:52Z</time>
      </trkpt>
      <trkpt lat="42.851071" lon="-1.586154">
        <ele>484.2</ele>
        <time>2018-08-22T09:30:03Z</time>
      </trkpt>
      <trkpt lat="42.851054" lon="-1.586127">
        <ele>483.2</ele>
        <time>2018-08-22T09:30:11Z</time>
      </trkpt>
      <trkpt lat="42.851021" lon="-1.585954">
        <ele>480.8</ele>
        <time>2018-08-22T09:30:26Z</time>
      </trkpt>
      <trkpt lat="42.850996" lon="-1.585873">
        <ele>480.3</ele>
        <time>2018-08-22T09:30:33Z</time>
      </trkpt>
      <trkpt lat="42.850961" lon="-1.585741">
        <ele>478.4</ele>
        <time>2018-08-22T09:30:43Z</time>
      </trkpt>
      <trkpt lat="42.850815" lon="-1.585751">
        <ele>476.0</ele>
        <time>2018-08-22T09:30:56Z</time>
      </trkpt>
      <trkpt lat="42.850709" lon="-1.585722">
        <ele>476.5</ele>
        <time>2018-08-22T09:31:08Z</time>
      </trkpt>
      <trkpt lat="42.850688" lon="-1.585687">
        <ele>476.0</ele>
        <time>2018-08-22T09:31:11Z</time>
      </trkpt>
      <trkpt lat="42.850561" lon="-1.585637">
        <ele>476.0</ele>
        <time>2018-08-22T09:31:26Z</time>
      </trkpt>
      <trkpt lat="42.850446" lon="-1.585597">
        <ele>476.0</ele>
        <time>2018-08-22T09:31:40Z</time>
      </trkpt>
      <trkpt lat="42.850398" lon="-1.585602">
        <ele>476.0</ele>
        <time>2018-08-22T09:31:44Z</time>
      </trkpt>
      <trkpt lat="42.850227" lon="-1.585596">
        <ele>474.5</ele>
        <time>2018-08-22T09:31:59Z</time>
      </trkpt>
      <trkpt lat="42.850199" lon="-1.585590">
        <ele>474.1</ele>
        <time>2018-08-22T09:32:02Z</time>
      </trkpt>
      <trkpt lat="42.850129" lon="-1.585538">
        <ele>472.1</ele>
        <time>2018-08-22T09:32:14Z</time>
      </trkpt>
      <trkpt lat="42.849981" lon="-1.585512">
        <ele>470.7</ele>
        <time>2018-08-22T09:32:28Z</time>
      </trkpt>
      <trkpt lat="42.849868" lon="-1.585543">
        <ele>470.2</ele>
        <time>2018-08-22T09:32:37Z</time>
      </trkpt>
      <trkpt lat="42.849677" lon="-1.585648">
        <ele>469.7</ele>
        <time>2018-08-22T09:32:55Z</time>
      </trkpt>
      <trkpt lat="42.849571" lon="-1.585716">
        <ele>468.8</ele>
        <time>2018-08-22T09:33:06Z</time>
      </trkpt>
      <trkpt lat="42.849517" lon="-1.585748">
        <ele>468.3</ele>
        <time>2018-08-22T09:33:13Z</time>
      </trkpt>
      <trkpt lat="42.849374" lon="-1.585874">
        <ele>468.8</ele>
        <time>2018-08-22T09:33:29Z</time>
      </trkpt>
      <trkpt lat="42.849356" lon="-1.585884">
        <ele>468.8</ele>
        <time>2018-08-22T09:33:31Z</time>
      </trkpt>
      <trkpt lat="42.849314" lon="-1.585903">
        <ele>468.3</ele>
        <time>2018-08-22T09:33:35Z</time>
      </trkpt>
      <trkpt lat="42.849154" lon="-1.586049">
        <ele>467.3</ele>
        <time>2018-08-22T09:33:51Z</time>
      </trkpt>
      <trkpt lat="42.848951" lon="-1.586193">
        <ele>466.9</ele>
        <time>2018-08-22T09:34:10Z</time>
      </trkpt>
      <trkpt lat="42.848792" lon="-1.586357">
        <ele>466.4</ele>
        <time>2018-08-22T09:34:28Z</time>
      </trkpt>
      <trkpt lat="42.848646" lon="-1.586494">
        <ele>465.9</ele>
        <time>2018-08-22T09:34:45Z</time>
      </trkpt>
      <trkpt lat="42.848598" lon="-1.586526">
        <ele>465.9</ele>
        <time>2018-08-22T09:34:49Z</time>
      </trkpt>
      <trkpt lat="42.848565" lon="-1.586573">
        <ele>465.9</ele>
        <time>2018-08-22T09:34:53Z</time>
      </trkpt>
      <trkpt lat="42.848384" lon="-1.586695">
        <ele>466.4</ele>
        <time>2018-08-22T09:35:11Z</time>
      </trkpt>
      <trkpt lat="42.848270" lon="-1.586799">
        <ele>465.9</ele>
        <time>2018-08-22T09:35:23Z</time>
      </trkpt>
      <trkpt lat="42.848142" lon="-1.586865">
        <ele>465.9</ele>
        <time>2018-08-22T09:35:38Z</time>
      </trkpt>
      <trkpt lat="42.848065" lon="-1.586911">
        <ele>465.4</ele>
        <time>2018-08-22T09:35:46Z</time>
      </trkpt>
      <trkpt lat="42.848006" lon="-1.586939">
        <ele>466.4</ele>
        <time>2018-08-22T09:35:51Z</time>
      </trkpt>
      <trkpt lat="42.847961" lon="-1.586999">
        <ele>466.9</ele>
        <time>2018-08-22T09:35:57Z</time>
      </trkpt>
      <trkpt lat="42.847809" lon="-1.587069">
        <ele>465.9</ele>
        <time>2018-08-22T09:36:12Z</time>
      </trkpt>
      <trkpt lat="42.847692" lon="-1.587161">
        <ele>465.4</ele>
        <time>2018-08-22T09:36:25Z</time>
      </trkpt>
      <trkpt lat="42.847493" lon="-1.587257">
        <ele>465.9</ele>
        <time>2018-08-22T09:36:41Z</time>
      </trkpt>
      <trkpt lat="42.847389" lon="-1.587287">
        <ele>466.4</ele>
        <time>2018-08-22T09:36:54Z</time>
      </trkpt>
      <trkpt lat="42.847195" lon="-1.587422">
        <ele>465.9</ele>
        <time>2018-08-22T09:37:12Z</time>
      </trkpt>
      <trkpt lat="42.847028" lon="-1.587531">
        <ele>466.4</ele>
        <time>2018-08-22T09:37:28Z</time>
      </trkpt>
      <trkpt lat="42.846908" lon="-1.587629">
        <ele>466.9</ele>
        <time>2018-08-22T09:37:42Z</time>
      </trkpt>
      <trkpt lat="42.846826" lon="-1.587701">
        <ele>466.9</ele>
        <time>2018-08-22T09:37:51Z</time>
      </trkpt>
      <trkpt lat="42.846731" lon="-1.587777">
        <ele>467.8</ele>
        <time>2018-08-22T09:38:01Z</time>
      </trkpt>
      <trkpt lat="42.846700" lon="-1.587770">
        <ele>467.3</ele>
        <time>2018-08-22T09:38:05Z</time>
      </trkpt>
      <trkpt lat="42.846600" lon="-1.587834">
        <ele>466.9</ele>
        <time>2018-08-22T09:38:15Z</time>
      </trkpt>
      <trkpt lat="42.846541" lon="-1.587881">
        <ele>466.9</ele>
        <time>2018-08-22T09:38:21Z</time>
      </trkpt>
      <trkpt lat="42.846389" lon="-1.587977">
        <ele>467.3</ele>
        <time>2018-08-22T09:38:35Z</time>
      </trkpt>
      <trkpt lat="42.846279" lon="-1.588024">
        <ele>467.3</ele>
        <time>2018-08-22T09:38:45Z</time>
      </trkpt>
      <trkpt lat="42.846253" lon="-1.588034">
        <ele>467.3</ele>
        <time>2018-08-22T09:38:48Z</time>
      </trkpt>
      <trkpt lat="42.846125" lon="-1.588092">
        <ele>465.9</ele>
        <time>2018-08-22T09:39:03Z</time>
      </trkpt>
      <trkpt lat="42.845958" lon="-1.588184">
        <ele>466.4</ele>
        <time>2018-08-22T09:39:17Z</time>
      </trkpt>
      <trkpt lat="42.845922" lon="-1.588208">
        <ele>466.4</ele>
        <time>2018-08-22T09:39:20Z</time>
      </trkpt>
      <trkpt lat="42.845852" lon="-1.588248">
        <ele>466.4</ele>
        <time>2018-08-22T09:39:26Z</time>
      </trkpt>
      <trkpt lat="42.845800" lon="-1.588272">
        <ele>466.9</ele>
        <time>2018-08-22T09:39:31Z</time>
      </trkpt>
      <trkpt lat="42.845667" lon="-1.588364">
        <ele>466.4</ele>
        <time>2018-08-22T09:39:45Z</time>
      </trkpt>
      <trkpt lat="42.845506" lon="-1.588457">
        <ele>465.4</ele>
        <time>2018-08-22T09:39:59Z</time>
      </trkpt>
      <trkpt lat="42.845355" lon="-1.588526">
        <ele>465.4</ele>
        <time>2018-08-22T09:40:14Z</time>
      </trkpt>
      <trkpt lat="42.845314" lon="-1.588580">
        <ele>465.4</ele>
        <time>2018-08-22T09:40:19Z</time>
      </trkpt>
      <trkpt lat="42.845273" lon="-1.588666">
        <ele>466.4</ele>
        <time>2018-08-22T09:40:27Z</time>
      </trkpt>
      <trkpt lat="42.845189" lon="-1.588745">
        <ele>466.9</ele>
        <time>2018-08-22T09:40:36Z</time>
      </trkpt>
      <trkpt lat="42.844994" lon="-1.588776">
        <ele>464.9</ele>
        <time>2018-08-22T09:40:53Z</time>
      </trkpt>
      <trkpt lat="42.844983" lon="-1.588779">
        <ele>464.5</ele>
        <time>2018-08-22T09:40:54Z</time>
      </trkpt>
      <trkpt lat="42.844829" lon="-1.588868">
        <ele>464.0</ele>
        <time>2018-08-22T09:41:09Z</time>
      </trkpt>
      <trkpt lat="42.844681" lon="-1.588941">
        <ele>464.0</ele>
        <time>2018-08-22T09:41:23Z</time>
      </trkpt>
      <trkpt lat="42.844561" lon="-1.589047">
        <ele>464.5</ele>
        <time>2018-08-22T09:41:38Z</time>
      </trkpt>
      <trkpt lat="42.844488" lon="-1.589077">
        <ele>466.4</ele>
        <time>2018-08-22T09:41:48Z</time>
      </trkpt>
      <trkpt lat="42.844435" lon="-1.589079">
        <ele>466.9</ele>
        <time>2018-08-22T09:41:53Z</time>
      </trkpt>
      <trkpt lat="42.844337" lon="-1.589139">
        <ele>468.3</ele>
        <time>2018-08-22T09:42:06Z</time>
      </trkpt>
      <trkpt lat="42.844267" lon="-1.589196">
        <ele>469.7</ele>
        <time>2018-08-22T09:42:18Z</time>
      </trkpt>
      <trkpt lat="42.844245" lon="-1.589204">
        <ele>469.7</ele>
        <time>2018-08-22T09:42:21Z</time>
      </trkpt>
      <trkpt lat="42.844185" lon="-1.589231">
        <ele>470.2</ele>
        <time>2018-08-22T09:42:28Z</time>
      </trkpt>
      <trkpt lat="42.844118" lon="-1.589267">
        <ele>470.7</ele>
        <time>2018-08-22T09:42:35Z</time>
      </trkpt>
      <trkpt lat="42.844086" lon="-1.589282">
        <ele>470.2</ele>
        <time>2018-08-22T09:42:38Z</time>
      </trkpt>
      <trkpt lat="42.844029" lon="-1.589335">
        <ele>471.2</ele>
        <time>2018-08-22T09:42:44Z</time>
      </trkpt>
      <trkpt lat="42.843917" lon="-1.589448">
        <ele>472.1</ele>
        <time>2018-08-22T09:42:58Z</time>
      </trkpt>
      <trkpt lat="42.843856" lon="-1.589562">
        <ele>474.1</ele>
        <time>2018-08-22T09:43:10Z</time>
      </trkpt>
      <trkpt lat="42.843818" lon="-1.589648">
        <ele>474.5</ele>
        <time>2018-08-22T09:43:21Z</time>
      </trkpt>
      <trkpt lat="42.843805" lon="-1.589813">
        <ele>475.0</ele>
        <time>2018-08-22T09:43:32Z</time>
      </trkpt>
      <trkpt lat="42.843799" lon="-1.589820">
        <ele>475.0</ele>
        <time>2018-08-22T09:43:33Z</time>
      </trkpt>
      <trkpt lat="42.843679" lon="-1.589890">
        <ele>473.6</ele>
        <time>2018-08-22T09:43:47Z</time>
      </trkpt>
      <trkpt lat="42.843658" lon="-1.589896">
        <ele>473.6</ele>
        <time>2018-08-22T09:43:49Z</time>
      </trkpt>
      <trkpt lat="42.843505" lon="-1.589918">
        <ele>472.6</ele>
        <time>2018-08-22T09:44:05Z</time>
      </trkpt>
      <trkpt lat="42.843418" lon="-1.589930">
        <ele>472.1</ele>
        <time>2018-08-22T09:44:14Z</time>
      </trkpt>
      <trkpt lat="42.843326" lon="-1.589964">
        <ele>472.1</ele>
        <time>2018-08-22T09:44:23Z</time>
      </trkpt>
      <trkpt lat="42.843164" lon="-1.589975">
        <ele>471.7</ele>
        <time>2018-08-22T09:44:39Z</time>
      </trkpt>
      <trkpt lat="42.843036" lon="-1.589999">
        <ele>471.2</ele>
        <time>2018-08-22T09:44:52Z</time>
      </trkpt>
      <trkpt lat="42.842944" lon="-1.589993">
        <ele>471.2</ele>
        <time>2018-08-22T09:45:00Z</time>
      </trkpt>
      <trkpt lat="42.842838" lon="-1.590028">
        <ele>472.1</ele>
        <time>2018-08-22T09:45:13Z</time>
      </trkpt>
      <trkpt lat="42.842828" lon="-1.590030">
        <ele>472.1</ele>
        <time>2018-08-22T09:45:15Z</time>
      </trkpt>
      <trkpt lat="42.842769" lon="-1.590058">
        <ele>472.1</ele>
        <time>2018-08-22T09:45:22Z</time>
      </trkpt>
      <trkpt lat="42.842597" lon="-1.590104">
        <ele>472.6</ele>
        <time>2018-08-22T09:45:36Z</time>
      </trkpt>
      <trkpt lat="42.842433" lon="-1.590192">
        <ele>472.1</ele>
        <time>2018-08-22T09:45:51Z</time>
      </trkpt>
      <trkpt lat="42.842352" lon="-1.590218">
        <ele>474.1</ele>
        <time>2018-08-22T09:46:03Z</time>
      </trkpt>
      <trkpt lat="42.842320" lon="-1.590247">
        <ele>474.1</ele>
        <time>2018-08-22T09:46:07Z</time>
      </trkpt>
      <trkpt lat="42.842242" lon="-1.590332">
        <ele>474.5</ele>
        <time>2018-08-22T09:46:16Z</time>
      </trkpt>
      <trkpt lat="42.842208" lon="-1.590355">
        <ele>475.5</ele>
        <time>2018-08-22T09:46:20Z</time>
      </trkpt>
      <trkpt lat="42.842170" lon="-1.590384">
        <ele>476.0</ele>
        <time>2018-08-22T09:46:25Z</time>
      </trkpt>
      <trkpt lat="42.842077" lon="-1.590436">
        <ele>476.5</ele>
        <time>2018-08-22T09:46:34Z</time>
      </trkpt>
      <trkpt lat="42.842040" lon="-1.590475">
        <ele>477.0</ele>
        <time>2018-08-22T09:46:39Z</time>
      </trkpt>
      <trkpt lat="42.842021" lon="-1.590497">
        <ele>477.0</ele>
        <time>2018-08-22T09:46:42Z</time>
      </trkpt>
      <trkpt lat="42.841999" lon="-1.590514">
        <ele>477.4</ele>
        <time>2018-08-22T09:46:45Z</time>
      </trkpt>
      <trkpt lat="42.841963" lon="-1.590544">
        <ele>477.4</ele>
        <time>2018-08-22T09:46:49Z</time>
      </trkpt>
      <trkpt lat="42.841948" lon="-1.590565">
        <ele>477.4</ele>
        <time>2018-08-22T09:46:51Z</time>
      </trkpt>
      <trkpt lat="42.841903" lon="-1.590587">
        <ele>477.4</ele>
        <time>2018-08-22T09:46:55Z</time>
      </trkpt>
      <trkpt lat="42.841789" lon="-1.590670">
        <ele>478.4</ele>
        <time>2018-08-22T09:47:08Z</time>
      </trkpt>
      <trkpt lat="42.841720" lon="-1.590732">
        <ele>478.9</ele>
        <time>2018-08-22T09:47:16Z</time>
      </trkpt>
      <trkpt lat="42.841621" lon="-1.590810">
        <ele>478.9</ele>
        <time>2018-08-22T09:47:27Z</time>
      </trkpt>
      <trkpt lat="42.841521" lon="-1.590892">
        <ele>479.4</ele>
        <time>2018-08-22T09:47:40Z</time>
      </trkpt>
      <trkpt lat="42.841480" lon="-1.590926">
        <ele>479.8</ele>
        <time>2018-08-22T09:47:46Z</time>
      </trkpt>
      <trkpt lat="42.841426" lon="-1.590969">
        <ele>479.8</ele>
        <time>2018-08-22T09:47:53Z</time>
      </trkpt>
      <trkpt lat="42.841416" lon="-1.590988">
        <ele>480.3</ele>
        <time>2018-08-22T09:47:55Z</time>
      </trkpt>
      <trkpt lat="42.841380" lon="-1.591026">
        <ele>480.8</ele>
        <time>2018-08-22T09:48:01Z</time>
      </trkpt>
      <trkpt lat="42.841265" lon="-1.591086">
        <ele>481.3</ele>
        <time>2018-08-22T09:48:16Z</time>
      </trkpt>
      <trkpt lat="42.841240" lon="-1.591092">
        <ele>480.3</ele>
        <time>2018-08-22T09:48:18Z</time>
      </trkpt>
      <trkpt lat="42.841214" lon="-1.591115">
        <ele>478.9</ele>
        <time>2018-08-22T09:48:20Z</time>
      </trkpt>
      <trkpt lat="42.841197" lon="-1.591137">
        <ele>482.7</ele>
        <time>2018-08-22T09:48:22Z</time>
      </trkpt>
      <trkpt lat="42.841081" lon="-1.591304">
        <ele>480.8</ele>
        <time>2018-08-22T09:48:38Z</time>
      </trkpt>
      <trkpt lat="42.841012" lon="-1.591464">
        <ele>477.9</ele>
        <time>2018-08-22T09:48:52Z</time>
      </trkpt>
      <trkpt lat="42.840971" lon="-1.591605">
        <ele>476.5</ele>
        <time>2018-08-22T09:49:04Z</time>
      </trkpt>
      <trkpt lat="42.840976" lon="-1.591744">
        <ele>476.5</ele>
        <time>2018-08-22T09:49:14Z</time>
      </trkpt>
      <trkpt lat="42.840919" lon="-1.591960">
        <ele>476.0</ele>
        <time>2018-08-22T09:49:29Z</time>
      </trkpt>
      <trkpt lat="42.840868" lon="-1.592067">
        <ele>476.0</ele>
        <time>2018-08-22T09:49:43Z</time>
      </trkpt>
      <trkpt lat="42.840780" lon="-1.592094">
        <ele>476.0</ele>
        <time>2018-08-22T09:49:49Z</time>
      </trkpt>
      <trkpt lat="42.840620" lon="-1.592106">
        <ele>476.0</ele>
        <time>2018-08-22T09:50:03Z</time>
      </trkpt>
      <trkpt lat="42.840437" lon="-1.592093">
        <ele>476.0</ele>
        <time>2018-08-22T09:50:19Z</time>
      </trkpt>
      <trkpt lat="42.840426" lon="-1.592089">
        <ele>475.5</ele>
        <time>2018-08-22T09:50:20Z</time>
      </trkpt>
      <trkpt lat="42.840321" lon="-1.592084">
        <ele>475.5</ele>
        <time>2018-08-22T09:50:30Z</time>
      </trkpt>
      <trkpt lat="42.840287" lon="-1.592103">
        <ele>475.5</ele>
        <time>2018-08-22T09:50:33Z</time>
      </trkpt>
      <trkpt lat="42.840227" lon="-1.592096">
        <ele>475.5</ele>
        <time>2018-08-22T09:50:39Z</time>
      </trkpt>
      <trkpt lat="42.840134" lon="-1.592087">
        <ele>476.0</ele>
        <time>2018-08-22T09:50:48Z</time>
      </trkpt>
      <trkpt lat="42.840092" lon="-1.592085">
        <ele>476.5</ele>
        <time>2018-08-22T09:50:52Z</time>
      </trkpt>
      <trkpt lat="42.840060" lon="-1.592093">
        <ele>476.5</ele>
        <time>2018-08-22T09:50:55Z</time>
      </trkpt>
      <trkpt lat="42.839941" lon="-1.592094">
        <ele>477.4</ele>
        <time>2018-08-22T09:51:07Z</time>
      </trkpt>
      <trkpt lat="42.839898" lon="-1.592115">
        <ele>477.9</ele>
        <time>2018-08-22T09:51:11Z</time>
      </trkpt>
      <trkpt lat="42.839882" lon="-1.592113">
        <ele>477.9</ele>
        <time>2018-08-22T09:51:13Z</time>
      </trkpt>
      <trkpt lat="42.839817" lon="-1.592150">
        <ele>477.9</ele>
        <time>2018-08-22T09:51:20Z</time>
      </trkpt>
      <trkpt lat="42.839777" lon="-1.592155">
        <ele>477.9</ele>
        <time>2018-08-22T09:51:23Z</time>
      </trkpt>
      <trkpt lat="42.839667" lon="-1.592084">
        <ele>477.0</ele>
        <time>2018-08-22T09:51:35Z</time>
      </trkpt>
      <trkpt lat="42.839549" lon="-1.592017">
        <ele>475.0</ele>
        <time>2018-08-22T09:51:48Z</time>
      </trkpt>
      <trkpt lat="42.839529" lon="-1.592015">
        <ele>474.5</ele>
        <time>2018-08-22T09:51:50Z</time>
      </trkpt>
      <trkpt lat="42.839464" lon="-1.591969">
        <ele>474.1</ele>
        <time>2018-08-22T09:51:57Z</time>
      </trkpt>
      <trkpt lat="42.839339" lon="-1.591896">
        <ele>472.1</ele>
        <time>2018-08-22T09:52:11Z</time>
      </trkpt>
      <trkpt lat="42.839218" lon="-1.591820">
        <ele>472.1</ele>
        <time>2018-08-22T09:52:32Z</time>
      </trkpt>
      <trkpt lat="42.839131" lon="-1.591763">
        <ele>471.7</ele>
        <time>2018-08-22T09:52:46Z</time>
      </trkpt>
      <trkpt lat="42.838990" lon="-1.591685">
        <ele>472.1</ele>
        <time>2018-08-22T09:52:58Z</time>
      </trkpt>
      <trkpt lat="42.838914" lon="-1.591717">
        <ele>474.1</ele>
        <time>2018-08-22T09:53:10Z</time>
      </trkpt>
      <trkpt lat="42.838907" lon="-1.591725">
        <ele>474.5</ele>
        <time>2018-08-22T09:53:11Z</time>
      </trkpt>
      <trkpt lat="42.838890" lon="-1.591736">
        <ele>475.0</ele>
        <time>2018-08-22T09:53:13Z</time>
      </trkpt>
      <trkpt lat="42.838870" lon="-1.591757">
        <ele>475.5</ele>
        <time>2018-08-22T09:53:17Z</time>
      </trkpt>
      <trkpt lat="42.838860" lon="-1.591812">
        <ele>476.5</ele>
        <time>2018-08-22T09:53:22Z</time>
      </trkpt>
      <trkpt lat="42.838855" lon="-1.591879">
        <ele>477.4</ele>
        <time>2018-08-22T09:53:28Z</time>
      </trkpt>
      <trkpt lat="42.838859" lon="-1.591938">
        <ele>477.9</ele>
        <time>2018-08-22T09:53:33Z</time>
      </trkpt>
      <trkpt lat="42.838821" lon="-1.592103">
        <ele>478.4</ele>
        <time>2018-08-22T09:55:20Z</time>
      </trkpt>
      <trkpt lat="42.838778" lon="-1.592295">
        <ele>479.8</ele>
        <time>2018-08-22T09:55:35Z</time>
      </trkpt>
      <trkpt lat="42.838774" lon="-1.592302">
        <ele>479.8</ele>
        <time>2018-08-22T09:55:36Z</time>
      </trkpt>
      <trkpt lat="42.838741" lon="-1.592461">
        <ele>481.3</ele>
        <time>2018-08-22T09:55:59Z</time>
      </trkpt>
      <trkpt lat="42.838735" lon="-1.592477">
        <ele>481.3</ele>
        <time>2018-08-22T09:56:01Z</time>
      </trkpt>
      <trkpt lat="42.838689" lon="-1.592636">
        <ele>482.2</ele>
        <time>2018-08-22T09:56:14Z</time>
      </trkpt>
      <trkpt lat="42.838687" lon="-1.592646">
        <ele>482.2</ele>
        <time>2018-08-22T09:56:15Z</time>
      </trkpt>
      <trkpt lat="42.838673" lon="-1.592688">
        <ele>481.8</ele>
        <time>2018-08-22T09:56:19Z</time>
      </trkpt>
      <trkpt lat="42.838669" lon="-1.592700">
        <ele>485.1</ele>
        <time>2018-08-22T09:56:20Z</time>
      </trkpt>
      <trkpt lat="42.838666" lon="-1.592713">
        <ele>483.2</ele>
        <time>2018-08-22T09:56:21Z</time>
      </trkpt>
      <trkpt lat="42.838610" lon="-1.592874">
        <ele>484.6</ele>
        <time>2018-08-22T09:56:35Z</time>
      </trkpt>
      <trkpt lat="42.838606" lon="-1.592886">
        <ele>484.6</ele>
        <time>2018-08-22T09:56:36Z</time>
      </trkpt>
      <trkpt lat="42.838568" lon="-1.592979">
        <ele>485.6</ele>
        <time>2018-08-22T09:56:42Z</time>
      </trkpt>
      <trkpt lat="42.838523" lon="-1.593146">
        <ele>486.6</ele>
        <time>2018-08-22T09:56:54Z</time>
      </trkpt>
      <trkpt lat="42.838496" lon="-1.593253">
        <ele>486.6</ele>
        <time>2018-08-22T09:57:01Z</time>
      </trkpt>
      <trkpt lat="42.838497" lon="-1.593326">
        <ele>487.5</ele>
        <time>2018-08-22T09:57:06Z</time>
      </trkpt>
      <trkpt lat="42.838468" lon="-1.593512">
        <ele>489.0</ele>
        <time>2018-08-22T09:57:17Z</time>
      </trkpt>
      <trkpt lat="42.838464" lon="-1.593553">
        <ele>489.5</ele>
        <time>2018-08-22T09:57:20Z</time>
      </trkpt>
      <trkpt lat="42.838445" lon="-1.593670">
        <ele>490.4</ele>
        <time>2018-08-22T09:57:31Z</time>
      </trkpt>
      <trkpt lat="42.838442" lon="-1.593685">
        <ele>490.9</ele>
        <time>2018-08-22T09:57:32Z</time>
      </trkpt>
      <trkpt lat="42.838430" lon="-1.593713">
        <ele>490.9</ele>
        <time>2018-08-22T09:57:34Z</time>
      </trkpt>
      <trkpt lat="42.838403" lon="-1.593883">
        <ele>492.3</ele>
        <time>2018-08-22T09:57:44Z</time>
      </trkpt>
      <trkpt lat="42.838383" lon="-1.593976">
        <ele>493.3</ele>
        <time>2018-08-22T09:57:49Z</time>
      </trkpt>
      <trkpt lat="42.838351" lon="-1.594211">
        <ele>494.3</ele>
        <time>2018-08-22T09:58:03Z</time>
      </trkpt>
      <trkpt lat="42.838349" lon="-1.594337">
        <ele>495.2</ele>
        <time>2018-08-22T09:58:11Z</time>
      </trkpt>
      <trkpt lat="42.838343" lon="-1.594571">
        <ele>497.1</ele>
        <time>2018-08-22T09:58:26Z</time>
      </trkpt>
      <trkpt lat="42.838317" lon="-1.594729">
        <ele>497.6</ele>
        <time>2018-08-22T09:58:36Z</time>
      </trkpt>
      <trkpt lat="42.838303" lon="-1.594854">
        <ele>497.6</ele>
        <time>2018-08-22T09:58:44Z</time>
      </trkpt>
      <trkpt lat="42.838329" lon="-1.595033">
        <ele>498.1</ele>
        <time>2018-08-22T09:58:57Z</time>
      </trkpt>
      <trkpt lat="42.838334" lon="-1.595234">
        <ele>497.6</ele>
        <time>2018-08-22T09:59:10Z</time>
      </trkpt>
      <trkpt lat="42.838319" lon="-1.595326">
        <ele>497.6</ele>
        <time>2018-08-22T09:59:18Z</time>
      </trkpt>
      <trkpt lat="42.838288" lon="-1.595653">
        <ele>496.2</ele>
        <time>2018-08-22T09:59:35Z</time>
      </trkpt>
      <trkpt lat="42.838271" lon="-1.595846">
        <ele>496.2</ele>
        <time>2018-08-22T09:59:50Z</time>
      </trkpt>
      <trkpt lat="42.838266" lon="-1.595911">
        <ele>495.7</ele>
        <time>2018-08-22T09:59:54Z</time>
      </trkpt>
      <trkpt lat="42.838264" lon="-1.595991">
        <ele>495.7</ele>
        <time>2018-08-22T09:59:59Z</time>
      </trkpt>
      <trkpt lat="42.838239" lon="-1.596175">
        <ele>494.3</ele>
        <time>2018-08-22T10:00:12Z</time>
      </trkpt>
      <trkpt lat="42.838267" lon="-1.596389">
        <ele>493.8</ele>
        <time>2018-08-22T10:00:27Z</time>
      </trkpt>
      <trkpt lat="42.838302" lon="-1.596591">
        <ele>494.3</ele>
        <time>2018-08-22T10:00:43Z</time>
      </trkpt>
      <trkpt lat="42.838325" lon="-1.596711">
        <ele>494.3</ele>
        <time>2018-08-22T10:00:52Z</time>
      </trkpt>
      <trkpt lat="42.838339" lon="-1.596813">
        <ele>492.8</ele>
        <time>2018-08-22T10:01:00Z</time>
      </trkpt>
      <trkpt lat="42.838366" lon="-1.597082">
        <ele>492.3</ele>
        <time>2018-08-22T10:01:17Z</time>
      </trkpt>
      <trkpt lat="42.838362" lon="-1.597199">
        <ele>491.4</ele>
        <time>2018-08-22T10:01:25Z</time>
      </trkpt>
      <trkpt lat="42.838366" lon="-1.597399">
        <ele>490.9</ele>
        <time>2018-08-22T10:01:40Z</time>
      </trkpt>
      <trkpt lat="42.838366" lon="-1.597431">
        <ele>490.9</ele>
        <time>2018-08-22T10:01:42Z</time>
      </trkpt>
      <trkpt lat="42.838330" lon="-1.597699">
        <ele>489.9</ele>
        <time>2018-08-22T10:01:59Z</time>
      </trkpt>
      <trkpt lat="42.838333" lon="-1.597808">
        <ele>489.0</ele>
        <time>2018-08-22T10:02:15Z</time>
      </trkpt>
      <trkpt lat="42.838363" lon="-1.597850">
        <ele>489.0</ele>
        <time>2018-08-22T10:02:32Z</time>
      </trkpt>
      <trkpt lat="42.838350" lon="-1.597960">
        <ele>488.5</ele>
        <time>2018-08-22T10:02:46Z</time>
      </trkpt>
      <trkpt lat="42.838350" lon="-1.598099">
        <ele>487.0</ele>
        <time>2018-08-22T10:03:00Z</time>
      </trkpt>
      <trkpt lat="42.838349" lon="-1.598234">
        <ele>486.1</ele>
        <time>2018-08-22T10:03:14Z</time>
      </trkpt>
      <trkpt lat="42.838318" lon="-1.598361">
        <ele>485.1</ele>
        <time>2018-08-22T10:03:28Z</time>
      </trkpt>
      <trkpt lat="42.838317" lon="-1.598500">
        <ele>484.2</ele>
        <time>2018-08-22T10:03:41Z</time>
      </trkpt>
      <trkpt lat="42.838276" lon="-1.598745">
        <ele>482.7</ele>
        <time>2018-08-22T10:03:58Z</time>
      </trkpt>
      <trkpt lat="42.838214" lon="-1.598977">
        <ele>482.7</ele>
        <time>2018-08-22T10:04:14Z</time>
      </trkpt>
      <trkpt lat="42.838199" lon="-1.599169">
        <ele>480.3</ele>
        <time>2018-08-22T10:04:30Z</time>
      </trkpt>
      <trkpt lat="42.838146" lon="-1.599397">
        <ele>479.4</ele>
        <time>2018-08-22T10:04:45Z</time>
      </trkpt>
      <trkpt lat="42.838131" lon="-1.599539">
        <ele>478.4</ele>
        <time>2018-08-22T10:04:57Z</time>
      </trkpt>
      <trkpt lat="42.838096" lon="-1.599703">
        <ele>476.5</ele>
        <time>2018-08-22T10:05:09Z</time>
      </trkpt>
      <trkpt lat="42.838058" lon="-1.599918">
        <ele>475.0</ele>
        <time>2018-08-22T10:05:25Z</time>
      </trkpt>
      <trkpt lat="42.838022" lon="-1.600063">
        <ele>473.1</ele>
        <time>2018-08-22T10:05:37Z</time>
      </trkpt>
      <trkpt lat="42.837925" lon="-1.600291">
        <ele>471.7</ele>
        <time>2018-08-22T10:05:52Z</time>
      </trkpt>
      <trkpt lat="42.837858" lon="-1.600486">
        <ele>469.3</ele>
        <time>2018-08-22T10:06:07Z</time>
      </trkpt>
      <trkpt lat="42.837788" lon="-1.600683">
        <ele>467.8</ele>
        <time>2018-08-22T10:06:22Z</time>
      </trkpt>
      <trkpt lat="42.837714" lon="-1.600883">
        <ele>465.9</ele>
        <time>2018-08-22T10:06:37Z</time>
      </trkpt>
      <trkpt lat="42.837616" lon="-1.601098">
        <ele>464.9</ele>
        <time>2018-08-22T10:06:53Z</time>
      </trkpt>
      <trkpt lat="42.837542" lon="-1.601295">
        <ele>462.0</ele>
        <time>2018-08-22T10:07:08Z</time>
      </trkpt>
      <trkpt lat="42.837474" lon="-1.601480">
        <ele>460.6</ele>
        <time>2018-08-22T10:07:23Z</time>
      </trkpt>
      <trkpt lat="42.837391" lon="-1.601652">
        <ele>459.2</ele>
        <time>2018-08-22T10:07:37Z</time>
      </trkpt>
      <trkpt lat="42.837330" lon="-1.601785">
        <ele>457.2</ele>
        <time>2018-08-22T10:07:52Z</time>
      </trkpt>
      <trkpt lat="42.837288" lon="-1.601895">
        <ele>456.3</ele>
        <time>2018-08-22T10:08:06Z</time>
      </trkpt>
      <trkpt lat="42.837161" lon="-1.602125">
        <ele>454.4</ele>
        <time>2018-08-22T10:08:21Z</time>
      </trkpt>
      <trkpt lat="42.837049" lon="-1.602316">
        <ele>452.0</ele>
        <time>2018-08-22T10:08:38Z</time>
      </trkpt>
      <trkpt lat="42.836995" lon="-1.602448">
        <ele>451.0</ele>
        <time>2018-08-22T10:08:48Z</time>
      </trkpt>
      <trkpt lat="42.836902" lon="-1.602632">
        <ele>447.6</ele>
        <time>2018-08-22T10:09:04Z</time>
      </trkpt>
      <trkpt lat="42.836797" lon="-1.602784">
        <ele>445.2</ele>
        <time>2018-08-22T10:09:20Z</time>
      </trkpt>
      <trkpt lat="42.836635" lon="-1.603014">
        <ele>442.8</ele>
        <time>2018-08-22T10:09:38Z</time>
      </trkpt>
      <trkpt lat="42.836513" lon="-1.603161">
        <ele>440.9</ele>
        <time>2018-08-22T10:09:53Z</time>
      </trkpt>
      <trkpt lat="42.836397" lon="-1.603213">
        <ele>439.5</ele>
        <time>2018-08-22T10:10:09Z</time>
      </trkpt>
      <trkpt lat="42.836396" lon="-1.603222">
        <ele>439.5</ele>
        <time>2018-08-22T10:10:28Z</time>
      </trkpt>
      <trkpt lat="42.836235" lon="-1.603320">
        <ele>438.5</ele>
        <time>2018-08-22T10:10:48Z</time>
      </trkpt>
      <trkpt lat="42.836212" lon="-1.603342">
        <ele>438.5</ele>
        <time>2018-08-22T10:11:06Z</time>
      </trkpt>
      <trkpt lat="42.836161" lon="-1.603394">
        <ele>438.0</ele>
        <time>2018-08-22T10:11:24Z</time>
      </trkpt>
      <trkpt lat="42.836143" lon="-1.603405">
        <ele>438.0</ele>
        <time>2018-08-22T10:11:42Z</time>
      </trkpt>
      <trkpt lat="42.836124" lon="-1.603413">
        <ele>439.0</ele>
        <time>2018-08-22T10:11:57Z</time>
      </trkpt>
      <trkpt lat="42.836119" lon="-1.603444">
        <ele>438.5</ele>
        <time>2018-08-22T10:12:08Z</time>
      </trkpt>
      <trkpt lat="42.836105" lon="-1.603518">
        <ele>438.5</ele>
        <time>2018-08-22T10:12:16Z</time>
      </trkpt>
      <trkpt lat="42.836125" lon="-1.603736">
        <ele>439.0</ele>
        <time>2018-08-22T10:12:30Z</time>
      </trkpt>
      <trkpt lat="42.836105" lon="-1.603851">
        <ele>439.0</ele>
        <time>2018-08-22T10:12:43Z</time>
      </trkpt>
      <trkpt lat="42.836116" lon="-1.604041">
        <ele>439.0</ele>
        <time>2018-08-22T10:13:00Z</time>
      </trkpt>
      <trkpt lat="42.836140" lon="-1.604074">
        <ele>438.0</ele>
        <time>2018-08-22T10:13:03Z</time>
      </trkpt>
      <trkpt lat="42.836203" lon="-1.604197">
        <ele>436.6</ele>
        <time>2018-08-22T10:13:21Z</time>
      </trkpt>
      <trkpt lat="42.836135" lon="-1.604305">
        <ele>436.6</ele>
        <time>2018-08-22T10:13:44Z</time>
      </trkpt>
      <trkpt lat="42.836107" lon="-1.604289">
        <ele>437.1</ele>
        <time>2018-08-22T10:13:46Z</time>
      </trkpt>
      <trkpt lat="42.835961" lon="-1.604324">
        <ele>439.0</ele>
        <time>2018-08-22T10:14:00Z</time>
      </trkpt>
      <trkpt lat="42.835830" lon="-1.604380">
        <ele>438.5</ele>
        <time>2018-08-22T10:14:14Z</time>
      </trkpt>
      <trkpt lat="42.835740" lon="-1.604451">
        <ele>439.0</ele>
        <time>2018-08-22T10:14:26Z</time>
      </trkpt>
      <trkpt lat="42.835720" lon="-1.604457">
        <ele>438.5</ele>
        <time>2018-08-22T10:14:28Z</time>
      </trkpt>
      <trkpt lat="42.835654" lon="-1.604494">
        <ele>438.5</ele>
        <time>2018-08-22T10:14:34Z</time>
      </trkpt>
      <trkpt lat="42.835511" lon="-1.604563">
        <ele>437.5</ele>
        <time>2018-08-22T10:14:48Z</time>
      </trkpt>
      <trkpt lat="42.835488" lon="-1.604559">
        <ele>437.5</ele>
        <time>2018-08-22T10:14:50Z</time>
      </trkpt>
      <trkpt lat="42.835452" lon="-1.604584">
        <ele>437.1</ele>
        <time>2018-08-22T10:14:54Z</time>
      </trkpt>
      <trkpt lat="42.835432" lon="-1.604604">
        <ele>438.0</ele>
        <time>2018-08-22T10:14:56Z</time>
      </trkpt>
      <trkpt lat="42.835334" lon="-1.604715">
        <ele>438.0</ele>
        <time>2018-08-22T10:15:09Z</time>
      </trkpt>
      <trkpt lat="42.835192" lon="-1.604847">
        <ele>439.0</ele>
        <time>2018-08-22T10:15:27Z</time>
      </trkpt>
      <trkpt lat="42.835048" lon="-1.604906">
        <ele>437.1</ele>
        <time>2018-08-22T10:15:41Z</time>
      </trkpt>
      <trkpt lat="42.834883" lon="-1.605057">
        <ele>437.1</ele>
        <time>2018-08-22T10:15:57Z</time>
      </trkpt>
      <trkpt lat="42.834661" lon="-1.605227">
        <ele>436.1</ele>
        <time>2018-08-22T10:16:17Z</time>
      </trkpt>
      <trkpt lat="42.834588" lon="-1.605282">
        <ele>436.6</ele>
        <time>2018-08-22T10:16:24Z</time>
      </trkpt>
      <trkpt lat="42.834393" lon="-1.605406">
        <ele>436.1</ele>
        <time>2018-08-22T10:16:39Z</time>
      </trkpt>
      <trkpt lat="42.834363" lon="-1.605418">
        <ele>436.1</ele>
        <time>2018-08-22T10:16:44Z</time>
      </trkpt>
      <trkpt lat="42.834279" lon="-1.605634">
        <ele>436.6</ele>
        <time>2018-08-22T10:16:59Z</time>
      </trkpt>
      <trkpt lat="42.834105" lon="-1.605648">
        <ele>436.1</ele>
        <time>2018-08-22T10:17:08Z</time>
      </trkpt>
      <trkpt lat="42.834032" lon="-1.605727">
        <ele>435.6</ele>
        <time>2018-08-22T10:17:20Z</time>
      </trkpt>
      <trkpt lat="42.833930" lon="-1.605877">
        <ele>436.1</ele>
        <time>2018-08-22T10:17:35Z</time>
      </trkpt>
      <trkpt lat="42.833704" lon="-1.606040">
        <ele>436.1</ele>
        <time>2018-08-22T10:17:49Z</time>
      </trkpt>
      <trkpt lat="42.833656" lon="-1.606023">
        <ele>436.6</ele>
        <time>2018-08-22T10:17:54Z</time>
      </trkpt>
      <trkpt lat="42.833602" lon="-1.606054">
        <ele>436.1</ele>
        <time>2018-08-22T10:17:59Z</time>
      </trkpt>
      <trkpt lat="42.833584" lon="-1.606073">
        <ele>436.6</ele>
        <time>2018-08-22T10:18:01Z</time>
      </trkpt>
      <trkpt lat="42.833553" lon="-1.606087">
        <ele>436.6</ele>
        <time>2018-08-22T10:18:05Z</time>
      </trkpt>
      <trkpt lat="42.833407" lon="-1.606223">
        <ele>435.6</ele>
        <time>2018-08-22T10:18:20Z</time>
      </trkpt>
      <trkpt lat="42.833323" lon="-1.606323">
        <ele>435.1</ele>
        <time>2018-08-22T10:18:33Z</time>
      </trkpt>
      <trkpt lat="42.833324" lon="-1.606328">
        <ele>436.1</ele>
        <time>2018-08-22T10:18:34Z</time>
      </trkpt>
      <trkpt lat="42.833208" lon="-1.606511">
        <ele>435.6</ele>
        <time>2018-08-22T10:18:48Z</time>
      </trkpt>
      <trkpt lat="42.833050" lon="-1.606653">
        <ele>435.1</ele>
        <time>2018-08-22T10:19:04Z</time>
      </trkpt>
      <trkpt lat="42.833007" lon="-1.606717">
        <ele>435.1</ele>
        <time>2018-08-22T10:19:09Z</time>
      </trkpt>
      <trkpt lat="42.832847" lon="-1.606863">
        <ele>435.6</ele>
        <time>2018-08-22T10:19:24Z</time>
      </trkpt>
      <trkpt lat="42.832838" lon="-1.606873">
        <ele>436.1</ele>
        <time>2018-08-22T10:19:25Z</time>
      </trkpt>
      <trkpt lat="42.832757" lon="-1.606961">
        <ele>435.1</ele>
        <time>2018-08-22T10:19:40Z</time>
      </trkpt>
      <trkpt lat="42.832708" lon="-1.607015">
        <ele>435.1</ele>
        <time>2018-08-22T10:19:51Z</time>
      </trkpt>
      <trkpt lat="42.832541" lon="-1.607142">
        <ele>435.1</ele>
        <time>2018-08-22T10:20:09Z</time>
      </trkpt>
      <trkpt lat="42.832349" lon="-1.607233">
        <ele>435.6</ele>
        <time>2018-08-22T10:20:23Z</time>
      </trkpt>
      <trkpt lat="42.832309" lon="-1.607291">
        <ele>435.6</ele>
        <time>2018-08-22T10:20:31Z</time>
      </trkpt>
      <trkpt lat="42.832229" lon="-1.607364">
        <ele>435.1</ele>
        <time>2018-08-22T10:20:39Z</time>
      </trkpt>
      <trkpt lat="42.832143" lon="-1.607457">
        <ele>435.1</ele>
        <time>2018-08-22T10:20:45Z</time>
      </trkpt>
      <trkpt lat="42.832084" lon="-1.607491">
        <ele>435.6</ele>
        <time>2018-08-22T10:20:50Z</time>
      </trkpt>
      <trkpt lat="42.832031" lon="-1.607561">
        <ele>435.6</ele>
        <time>2018-08-22T10:20:55Z</time>
      </trkpt>
      <trkpt lat="42.831924" lon="-1.607694">
        <ele>435.6</ele>
        <time>2018-08-22T10:21:07Z</time>
      </trkpt>
      <trkpt lat="42.831894" lon="-1.607724">
        <ele>435.6</ele>
        <time>2018-08-22T10:21:15Z</time>
      </trkpt>
      <trkpt lat="42.831797" lon="-1.607881">
        <ele>436.1</ele>
        <time>2018-08-22T10:21:31Z</time>
      </trkpt>
      <trkpt lat="42.831690" lon="-1.607983">
        <ele>436.1</ele>
        <time>2018-08-22T10:21:41Z</time>
      </trkpt>
      <trkpt lat="42.831521" lon="-1.608015">
        <ele>436.6</ele>
        <time>2018-08-22T10:21:55Z</time>
      </trkpt>
      <trkpt lat="42.831484" lon="-1.607998">
        <ele>436.6</ele>
        <time>2018-08-22T10:21:58Z</time>
      </trkpt>
      <trkpt lat="42.831421" lon="-1.608032">
        <ele>436.6</ele>
        <time>2018-08-22T10:22:01Z</time>
      </trkpt>
      <trkpt lat="42.831263" lon="-1.608262">
        <ele>436.6</ele>
        <time>2018-08-22T10:22:15Z</time>
      </trkpt>
      <trkpt lat="42.831121" lon="-1.608391">
        <ele>437.1</ele>
        <time>2018-08-22T10:22:30Z</time>
      </trkpt>
      <trkpt lat="42.831055" lon="-1.608461">
        <ele>437.1</ele>
        <time>2018-08-22T10:22:36Z</time>
      </trkpt>
      <trkpt lat="42.830934" lon="-1.608576">
        <ele>437.5</ele>
        <time>2018-08-22T10:22:49Z</time>
      </trkpt>
      <trkpt lat="42.830850" lon="-1.608608">
        <ele>437.1</ele>
        <time>2018-08-22T10:23:12Z</time>
      </trkpt>
      <trkpt lat="42.830809" lon="-1.608668">
        <ele>436.6</ele>
        <time>2018-08-22T10:23:17Z</time>
      </trkpt>
      <trkpt lat="42.830824" lon="-1.608804">
        <ele>437.5</ele>
        <time>2018-08-22T10:23:28Z</time>
      </trkpt>
      <trkpt lat="42.830758" lon="-1.608979">
        <ele>437.5</ele>
        <time>2018-08-22T10:23:39Z</time>
      </trkpt>
      <trkpt lat="42.830756" lon="-1.609020">
        <ele>437.5</ele>
        <time>2018-08-22T10:23:41Z</time>
      </trkpt>
      <trkpt lat="42.830644" lon="-1.609091">
        <ele>437.5</ele>
        <time>2018-08-22T10:23:52Z</time>
      </trkpt>
      <trkpt lat="42.830473" lon="-1.609387">
        <ele>437.5</ele>
        <time>2018-08-22T10:25:00Z</time>
      </trkpt>
      <trkpt lat="42.830247" lon="-1.609625">
        <ele>437.5</ele>
        <time>2018-08-22T10:27:39Z</time>
      </trkpt>
      <trkpt lat="42.830150" lon="-1.609762">
        <ele>437.5</ele>
        <time>2018-08-22T10:27:54Z</time>
      </trkpt>
      <trkpt lat="42.830016" lon="-1.609942">
        <ele>438.0</ele>
        <time>2018-08-22T10:28:09Z</time>
      </trkpt>
      <trkpt lat="42.829886" lon="-1.610159">
        <ele>437.1</ele>
        <time>2018-08-22T10:28:25Z</time>
      </trkpt>
      <trkpt lat="42.829887" lon="-1.610179">
        <ele>438.0</ele>
        <time>2018-08-22T10:28:29Z</time>
      </trkpt>
      <trkpt lat="42.829847" lon="-1.610217">
        <ele>437.5</ele>
        <time>2018-08-22T10:28:32Z</time>
      </trkpt>
      <trkpt lat="42.829701" lon="-1.610263">
        <ele>437.5</ele>
        <time>2018-08-22T10:28:46Z</time>
      </trkpt>
      <trkpt lat="42.829689" lon="-1.610260">
        <ele>437.5</ele>
        <time>2018-08-22T10:28:47Z</time>
      </trkpt>
      <trkpt lat="42.829591" lon="-1.610410">
        <ele>436.6</ele>
        <time>2018-08-22T10:29:01Z</time>
      </trkpt>
      <trkpt lat="42.829569" lon="-1.610487">
        <ele>437.1</ele>
        <time>2018-08-22T10:29:08Z</time>
      </trkpt>
      <trkpt lat="42.829524" lon="-1.610669">
        <ele>437.5</ele>
        <time>2018-08-22T10:29:22Z</time>
      </trkpt>
      <trkpt lat="42.829383" lon="-1.610854">
        <ele>437.5</ele>
        <time>2018-08-22T10:29:37Z</time>
      </trkpt>
      <trkpt lat="42.829272" lon="-1.611036">
        <ele>437.1</ele>
        <time>2018-08-22T10:29:52Z</time>
      </trkpt>
      <trkpt lat="42.829142" lon="-1.611201">
        <ele>436.6</ele>
        <time>2018-08-22T10:30:07Z</time>
      </trkpt>
      <trkpt lat="42.829011" lon="-1.611369">
        <ele>437.1</ele>
        <time>2018-08-22T10:30:22Z</time>
      </trkpt>
      <trkpt lat="42.828913" lon="-1.611532">
        <ele>437.1</ele>
        <time>2018-08-22T10:30:34Z</time>
      </trkpt>
      <trkpt lat="42.828753" lon="-1.611770">
        <ele>437.1</ele>
        <time>2018-08-22T10:30:51Z</time>
      </trkpt>
      <trkpt lat="42.828656" lon="-1.611890">
        <ele>436.6</ele>
        <time>2018-08-22T10:31:02Z</time>
      </trkpt>
      <trkpt lat="42.828530" lon="-1.612098">
        <ele>436.1</ele>
        <time>2018-08-22T10:31:17Z</time>
      </trkpt>
      <trkpt lat="42.828421" lon="-1.612256">
        <ele>436.6</ele>
        <time>2018-08-22T10:31:30Z</time>
      </trkpt>
      <trkpt lat="42.828276" lon="-1.612464">
        <ele>435.6</ele>
        <time>2018-08-22T10:31:47Z</time>
      </trkpt>
      <trkpt lat="42.828135" lon="-1.612612">
        <ele>435.6</ele>
        <time>2018-08-22T10:32:02Z</time>
      </trkpt>
      <trkpt lat="42.828094" lon="-1.612605">
        <ele>435.1</ele>
        <time>2018-08-22T10:32:06Z</time>
      </trkpt>
      <trkpt lat="42.827974" lon="-1.612575">
        <ele>435.6</ele>
        <time>2018-08-22T10:32:15Z</time>
      </trkpt>
      <trkpt lat="42.827903" lon="-1.612728">
        <ele>435.1</ele>
        <time>2018-08-22T10:32:27Z</time>
      </trkpt>
      <trkpt lat="42.827909" lon="-1.612774">
        <ele>435.1</ele>
        <time>2018-08-22T10:32:31Z</time>
      </trkpt>
      <trkpt lat="42.827949" lon="-1.612926">
        <ele>435.6</ele>
        <time>2018-08-22T10:32:43Z</time>
      </trkpt>
      <trkpt lat="42.827814" lon="-1.613144">
        <ele>435.1</ele>
        <time>2018-08-22T10:33:00Z</time>
      </trkpt>
      <trkpt lat="42.827707" lon="-1.613297">
        <ele>435.1</ele>
        <time>2018-08-22T10:33:15Z</time>
      </trkpt>
      <trkpt lat="42.827543" lon="-1.613491">
        <ele>435.6</ele>
        <time>2018-08-22T10:33:32Z</time>
      </trkpt>
      <trkpt lat="42.827451" lon="-1.613625">
        <ele>435.6</ele>
        <time>2018-08-22T10:33:43Z</time>
      </trkpt>
      <trkpt lat="42.827315" lon="-1.613825">
        <ele>435.1</ele>
        <time>2018-08-22T10:33:58Z</time>
      </trkpt>
      <trkpt lat="42.827297" lon="-1.613866">
        <ele>435.6</ele>
        <time>2018-08-22T10:34:01Z</time>
      </trkpt>
      <trkpt lat="42.827250" lon="-1.613940">
        <ele>435.1</ele>
        <time>2018-08-22T10:34:06Z</time>
      </trkpt>
      <trkpt lat="42.827173" lon="-1.613981">
        <ele>435.1</ele>
        <time>2018-08-22T10:34:17Z</time>
      </trkpt>
      <trkpt lat="42.827072" lon="-1.614178">
        <ele>435.1</ele>
        <time>2018-08-22T10:34:33Z</time>
      </trkpt>
      <trkpt lat="42.826990" lon="-1.614358">
        <ele>434.6</ele>
        <time>2018-08-22T10:34:46Z</time>
      </trkpt>
      <trkpt lat="42.826979" lon="-1.614385">
        <ele>435.1</ele>
        <time>2018-08-22T10:34:47Z</time>
      </trkpt>
      <trkpt lat="42.826845" lon="-1.614558">
        <ele>434.6</ele>
        <time>2018-08-22T10:35:03Z</time>
      </trkpt>
      <trkpt lat="42.826809" lon="-1.614634">
        <ele>434.6</ele>
        <time>2018-08-22T10:35:09Z</time>
      </trkpt>
      <trkpt lat="42.826763" lon="-1.614649">
        <ele>434.6</ele>
        <time>2018-08-22T10:35:14Z</time>
      </trkpt>
      <trkpt lat="42.826654" lon="-1.614901">
        <ele>434.6</ele>
        <time>2018-08-22T10:35:29Z</time>
      </trkpt>
      <trkpt lat="42.826580" lon="-1.614984">
        <ele>434.2</ele>
        <time>2018-08-22T10:35:38Z</time>
      </trkpt>
      <trkpt lat="42.826498" lon="-1.615080">
        <ele>434.2</ele>
        <time>2018-08-22T10:35:48Z</time>
      </trkpt>
      <trkpt lat="42.826360" lon="-1.615247">
        <ele>433.7</ele>
        <time>2018-08-22T10:36:01Z</time>
      </trkpt>
      <trkpt lat="42.826252" lon="-1.615381">
        <ele>433.2</ele>
        <time>2018-08-22T10:36:13Z</time>
      </trkpt>
      <trkpt lat="42.826159" lon="-1.615485">
        <ele>433.2</ele>
        <time>2018-08-22T10:36:23Z</time>
      </trkpt>
      <trkpt lat="42.826054" lon="-1.615664">
        <ele>433.2</ele>
        <time>2018-08-22T10:36:36Z</time>
      </trkpt>
      <trkpt lat="42.826035" lon="-1.615674">
        <ele>433.2</ele>
        <time>2018-08-22T10:36:38Z</time>
      </trkpt>
      <trkpt lat="42.825958" lon="-1.615762">
        <ele>432.7</ele>
        <time>2018-08-22T10:36:50Z</time>
      </trkpt>
      <trkpt lat="42.825940" lon="-1.615815">
        <ele>433.7</ele>
        <time>2018-08-22T10:36:55Z</time>
      </trkpt>
      <trkpt lat="42.825952" lon="-1.616123">
        <ele>432.7</ele>
        <time>2018-08-22T10:37:13Z</time>
      </trkpt>
      <trkpt lat="42.825710" lon="-1.616324">
        <ele>432.7</ele>
        <time>2018-08-22T10:37:58Z</time>
      </trkpt>
      <trkpt lat="42.825534" lon="-1.616361">
        <ele>431.8</ele>
        <time>2018-08-22T10:38:01Z</time>
      </trkpt>
      <trkpt lat="42.825443" lon="-1.616432">
        <ele>432.2</ele>
        <time>2018-08-22T10:38:03Z</time>
      </trkpt>
      <trkpt lat="42.825261" lon="-1.616674">
        <ele>432.2</ele>
        <time>2018-08-22T10:38:19Z</time>
      </trkpt>
      <trkpt lat="42.825162" lon="-1.616862">
        <ele>432.2</ele>
        <time>2018-08-22T10:38:36Z</time>
      </trkpt>
      <trkpt lat="42.824989" lon="-1.617033">
        <ele>431.8</ele>
        <time>2018-08-22T10:38:50Z</time>
      </trkpt>
      <trkpt lat="42.824832" lon="-1.617197">
        <ele>431.8</ele>
        <time>2018-08-22T10:39:03Z</time>
      </trkpt>
      <trkpt lat="42.824824" lon="-1.617209">
        <ele>431.8</ele>
        <time>2018-08-22T10:39:05Z</time>
      </trkpt>
      <trkpt lat="42.824726" lon="-1.617325">
        <ele>432.2</ele>
        <time>2018-08-22T10:39:17Z</time>
      </trkpt>
      <trkpt lat="42.824614" lon="-1.617503">
        <ele>431.3</ele>
        <time>2018-08-22T10:39:31Z</time>
      </trkpt>
      <trkpt lat="42.824593" lon="-1.617622">
        <ele>431.3</ele>
        <time>2018-08-22T10:39:44Z</time>
      </trkpt>
      <trkpt lat="42.824622" lon="-1.617678">
        <ele>428.9</ele>
        <time>2018-08-22T10:39:49Z</time>
      </trkpt>
      <trkpt lat="42.824599" lon="-1.617800">
        <ele>430.3</ele>
        <time>2018-08-22T10:40:01Z</time>
      </trkpt>
      <trkpt lat="42.824531" lon="-1.617932">
        <ele>430.3</ele>
        <time>2018-08-22T10:40:14Z</time>
      </trkpt>
      <trkpt lat="42.824330" lon="-1.618109">
        <ele>429.9</ele>
        <time>2018-08-22T10:40:29Z</time>
      </trkpt>
      <trkpt lat="42.824243" lon="-1.618214">
        <ele>430.3</ele>
        <time>2018-08-22T10:40:44Z</time>
      </trkpt>
      <trkpt lat="42.824117" lon="-1.618426">
        <ele>429.9</ele>
        <time>2018-08-22T10:40:56Z</time>
      </trkpt>
      <trkpt lat="42.823884" lon="-1.618729">
        <ele>429.9</ele>
        <time>2018-08-22T10:41:14Z</time>
      </trkpt>
      <trkpt lat="42.823833" lon="-1.618760">
        <ele>430.3</ele>
        <time>2018-08-22T10:41:16Z</time>
      </trkpt>
      <trkpt lat="42.823684" lon="-1.618927">
        <ele>429.9</ele>
        <time>2018-08-22T10:41:25Z</time>
      </trkpt>
      <trkpt lat="42.823533" lon="-1.619133">
        <ele>428.9</ele>
        <time>2018-08-22T10:41:41Z</time>
      </trkpt>
      <trkpt lat="42.823477" lon="-1.619215">
        <ele>429.4</ele>
        <time>2018-08-22T10:41:55Z</time>
      </trkpt>
      <trkpt lat="42.823421" lon="-1.619284">
        <ele>428.9</ele>
        <time>2018-08-22T10:42:07Z</time>
      </trkpt>
      <trkpt lat="42.823330" lon="-1.619330">
        <ele>428.9</ele>
        <time>2018-08-22T10:42:13Z</time>
      </trkpt>
      <trkpt lat="42.823196" lon="-1.619625">
        <ele>428.4</ele>
        <time>2018-08-22T10:42:56Z</time>
      </trkpt>
      <trkpt lat="42.823205" lon="-1.619773">
        <ele>428.9</ele>
        <time>2018-08-22T10:43:04Z</time>
      </trkpt>
      <trkpt lat="42.823206" lon="-1.619829">
        <ele>428.9</ele>
        <time>2018-08-22T10:43:08Z</time>
      </trkpt>
      <trkpt lat="42.823231" lon="-1.619880">
        <ele>429.4</ele>
        <time>2018-08-22T10:43:13Z</time>
      </trkpt>
      <trkpt lat="42.823226" lon="-1.620049">
        <ele>427.9</ele>
        <time>2018-08-22T10:43:25Z</time>
      </trkpt>
      <trkpt lat="42.823223" lon="-1.620061">
        <ele>430.8</ele>
        <time>2018-08-22T10:43:26Z</time>
      </trkpt>
      <trkpt lat="42.823214" lon="-1.620075">
        <ele>429.4</ele>
        <time>2018-08-22T10:43:27Z</time>
      </trkpt>
      <trkpt lat="42.823226" lon="-1.620256">
        <ele>428.9</ele>
        <time>2018-08-22T10:43:41Z</time>
      </trkpt>
      <trkpt lat="42.823244" lon="-1.620444">
        <ele>429.4</ele>
        <time>2018-08-22T10:43:52Z</time>
      </trkpt>
      <trkpt lat="42.823323" lon="-1.620711">
        <ele>430.3</ele>
        <time>2018-08-22T10:44:06Z</time>
      </trkpt>
      <trkpt lat="42.823357" lon="-1.620836">
        <ele>429.4</ele>
        <time>2018-08-22T10:44:14Z</time>
      </trkpt>
      <trkpt lat="42.823358" lon="-1.620910">
        <ele>429.9</ele>
        <time>2018-08-22T10:44:18Z</time>
      </trkpt>
      <trkpt lat="42.823281" lon="-1.620976">
        <ele>429.9</ele>
        <time>2018-08-22T10:44:20Z</time>
      </trkpt>
      <trkpt lat="42.823122" lon="-1.621124">
        <ele>429.9</ele>
        <time>2018-08-22T10:44:34Z</time>
      </trkpt>
      <trkpt lat="42.823061" lon="-1.621182">
        <ele>429.9</ele>
        <time>2018-08-22T10:44:42Z</time>
      </trkpt>
      <trkpt lat="42.823021" lon="-1.621246">
        <ele>429.9</ele>
        <time>2018-08-22T10:44:46Z</time>
      </trkpt>
      <trkpt lat="42.823014" lon="-1.621340">
        <ele>429.4</ele>
        <time>2018-08-22T10:44:52Z</time>
      </trkpt>
      <trkpt lat="42.822966" lon="-1.621394">
        <ele>428.9</ele>
        <time>2018-08-22T10:45:10Z</time>
      </trkpt>
      <trkpt lat="42.822932" lon="-1.621434">
        <ele>428.9</ele>
        <time>2018-08-22T10:45:32Z</time>
      </trkpt>
      <trkpt lat="42.822880" lon="-1.621570">
        <ele>428.4</ele>
        <time>2018-08-22T10:45:48Z</time>
      </trkpt>
      <trkpt lat="42.822836" lon="-1.621729">
        <ele>428.9</ele>
        <time>2018-08-22T10:46:03Z</time>
      </trkpt>
      <trkpt lat="42.822946" lon="-1.621870">
        <ele>428.9</ele>
        <time>2018-08-22T10:46:17Z</time>
      </trkpt>
      <trkpt lat="42.823056" lon="-1.621971">
        <ele>428.9</ele>
        <time>2018-08-22T10:46:30Z</time>
      </trkpt>
      <trkpt lat="42.823289" lon="-1.622147">
        <ele>428.9</ele>
        <time>2018-08-22T10:46:50Z</time>
      </trkpt>
      <trkpt lat="42.823293" lon="-1.622255">
        <ele>428.4</ele>
        <time>2018-08-22T10:46:59Z</time>
      </trkpt>
      <trkpt lat="42.823255" lon="-1.622476">
        <ele>427.9</ele>
        <time>2018-08-22T10:47:16Z</time>
      </trkpt>
      <trkpt lat="42.823203" lon="-1.622722">
        <ele>427.0</ele>
        <time>2018-08-22T10:47:32Z</time>
      </trkpt>
      <trkpt lat="42.823157" lon="-1.622947">
        <ele>426.5</ele>
        <time>2018-08-22T10:47:46Z</time>
      </trkpt>
      <trkpt lat="42.823103" lon="-1.623196">
        <ele>426.5</ele>
        <time>2018-08-22T10:48:01Z</time>
      </trkpt>
      <trkpt lat="42.823076" lon="-1.623293">
        <ele>427.0</ele>
        <time>2018-08-22T10:48:07Z</time>
      </trkpt>
      <trkpt lat="42.823030" lon="-1.623542">
        <ele>426.5</ele>
        <time>2018-08-22T10:48:22Z</time>
      </trkpt>
      <trkpt lat="42.822975" lon="-1.623776">
        <ele>426.5</ele>
        <time>2018-08-22T10:48:38Z</time>
      </trkpt>
      <trkpt lat="42.822915" lon="-1.623968">
        <ele>426.5</ele>
        <time>2018-08-22T10:48:52Z</time>
      </trkpt>
      <trkpt lat="42.822899" lon="-1.624012">
        <ele>426.5</ele>
        <time>2018-08-22T10:48:55Z</time>
      </trkpt>
      <trkpt lat="42.822824" lon="-1.624249">
        <ele>426.0</ele>
        <time>2018-08-22T10:49:11Z</time>
      </trkpt>
      <trkpt lat="42.822727" lon="-1.624477">
        <ele>426.0</ele>
        <time>2018-08-22T10:49:28Z</time>
      </trkpt>
      <trkpt lat="42.822642" lon="-1.624667">
        <ele>425.5</ele>
        <time>2018-08-22T10:49:42Z</time>
      </trkpt>
      <trkpt lat="42.822617" lon="-1.624731">
        <ele>426.0</ele>
        <time>2018-08-22T10:49:46Z</time>
      </trkpt>
      <trkpt lat="42.822534" lon="-1.624957">
        <ele>426.0</ele>
        <time>2018-08-22T10:50:02Z</time>
      </trkpt>
      <trkpt lat="42.822453" lon="-1.625197">
        <ele>426.0</ele>
        <time>2018-08-22T10:50:17Z</time>
      </trkpt>
      <trkpt lat="42.822389" lon="-1.625418">
        <ele>425.5</ele>
        <time>2018-08-22T10:50:32Z</time>
      </trkpt>
      <trkpt lat="42.822313" lon="-1.625632">
        <ele>425.5</ele>
        <time>2018-08-22T10:50:47Z</time>
      </trkpt>
      <trkpt lat="42.822244" lon="-1.625841">
        <ele>426.0</ele>
        <time>2018-08-22T10:51:02Z</time>
      </trkpt>
      <trkpt lat="42.822188" lon="-1.625956">
        <ele>426.0</ele>
        <time>2018-08-22T10:51:09Z</time>
      </trkpt>
      <trkpt lat="42.822141" lon="-1.626116">
        <ele>425.0</ele>
        <time>2018-08-22T10:51:19Z</time>
      </trkpt>
      <trkpt lat="42.822099" lon="-1.626323">
        <ele>425.5</ele>
        <time>2018-08-22T10:51:33Z</time>
      </trkpt>
      <trkpt lat="42.822021" lon="-1.626594">
        <ele>425.5</ele>
        <time>2018-08-22T10:51:49Z</time>
      </trkpt>
      <trkpt lat="42.821975" lon="-1.626756">
        <ele>425.0</ele>
        <time>2018-08-22T10:52:00Z</time>
      </trkpt>
      <trkpt lat="42.821979" lon="-1.626807">
        <ele>425.0</ele>
        <time>2018-08-22T10:52:03Z</time>
      </trkpt>
      <trkpt lat="42.822000" lon="-1.626856">
        <ele>424.1</ele>
        <time>2018-08-22T10:52:15Z</time>
      </trkpt>
      <trkpt lat="42.821992" lon="-1.626851">
        <ele>424.6</ele>
        <time>2018-08-22T10:52:29Z</time>
      </trkpt>
      <trkpt lat="42.822009" lon="-1.626879">
        <ele>424.6</ele>
        <time>2018-08-22T10:52:43Z</time>
      </trkpt>
      <trkpt lat="42.821964" lon="-1.627016">
        <ele>425.0</ele>
        <time>2018-08-22T10:52:58Z</time>
      </trkpt>
      <trkpt lat="42.821877" lon="-1.627202">
        <ele>424.6</ele>
        <time>2018-08-22T10:53:10Z</time>
      </trkpt>
      <trkpt lat="42.821832" lon="-1.627316">
        <ele>425.0</ele>
        <time>2018-08-22T10:53:22Z</time>
      </trkpt>
      <trkpt lat="42.821788" lon="-1.627495">
        <ele>425.0</ele>
        <time>2018-08-22T10:53:34Z</time>
      </trkpt>
      <trkpt lat="42.821713" lon="-1.627763">
        <ele>425.0</ele>
        <time>2018-08-22T10:53:52Z</time>
      </trkpt>
      <trkpt lat="42.821649" lon="-1.628008">
        <ele>425.5</ele>
        <time>2018-08-22T10:54:09Z</time>
      </trkpt>
      <trkpt lat="42.821606" lon="-1.628294">
        <ele>424.1</ele>
        <time>2018-08-22T10:54:25Z</time>
      </trkpt>
      <trkpt lat="42.821535" lon="-1.628546">
        <ele>425.0</ele>
        <time>2018-08-22T10:54:41Z</time>
      </trkpt>
      <trkpt lat="42.821449" lon="-1.628811">
        <ele>425.0</ele>
        <time>2018-08-22T10:54:56Z</time>
      </trkpt>
      <trkpt lat="42.821384" lon="-1.629054">
        <ele>424.6</ele>
        <time>2018-08-22T10:55:12Z</time>
      </trkpt>
      <trkpt lat="42.821275" lon="-1.629313">
        <ele>424.6</ele>
        <time>2018-08-22T10:55:30Z</time>
      </trkpt>
      <trkpt lat="42.821215" lon="-1.629573">
        <ele>424.6</ele>
        <time>2018-08-22T10:55:45Z</time>
      </trkpt>
      <trkpt lat="42.821145" lon="-1.629839">
        <ele>424.6</ele>
        <time>2018-08-22T10:56:01Z</time>
      </trkpt>
      <trkpt lat="42.821154" lon="-1.629988">
        <ele>424.6</ele>
        <time>2018-08-22T10:56:09Z</time>
      </trkpt>
      <trkpt lat="42.821175" lon="-1.630075">
        <ele>425.0</ele>
        <time>2018-08-22T10:56:15Z</time>
      </trkpt>
      <trkpt lat="42.821235" lon="-1.630328">
        <ele>424.6</ele>
        <time>2018-08-22T10:56:31Z</time>
      </trkpt>
      <trkpt lat="42.821261" lon="-1.630569">
        <ele>424.1</ele>
        <time>2018-08-22T10:56:45Z</time>
      </trkpt>
      <trkpt lat="42.821271" lon="-1.630642">
        <ele>424.1</ele>
        <time>2018-08-22T10:56:49Z</time>
      </trkpt>
      <trkpt lat="42.821305" lon="-1.630959">
        <ele>424.6</ele>
        <time>2018-08-22T10:57:08Z</time>
      </trkpt>
      <trkpt lat="42.821325" lon="-1.631175">
        <ele>424.1</ele>
        <time>2018-08-22T10:57:23Z</time>
      </trkpt>
      <trkpt lat="42.821343" lon="-1.631381">
        <ele>424.6</ele>
        <time>2018-08-22T10:57:37Z</time>
      </trkpt>
      <trkpt lat="42.821348" lon="-1.631641">
        <ele>423.6</ele>
        <time>2018-08-22T10:57:53Z</time>
      </trkpt>
      <trkpt lat="42.821350" lon="-1.631670">
        <ele>424.1</ele>
        <time>2018-08-22T10:57:55Z</time>
      </trkpt>
      <trkpt lat="42.821371" lon="-1.631924">
        <ele>423.6</ele>
        <time>2018-08-22T10:58:10Z</time>
      </trkpt>
      <trkpt lat="42.821378" lon="-1.632003">
        <ele>423.6</ele>
        <time>2018-08-22T10:58:15Z</time>
      </trkpt>
      <trkpt lat="42.821408" lon="-1.632140">
        <ele>423.1</ele>
        <time>2018-08-22T10:58:23Z</time>
      </trkpt>
      <trkpt lat="42.821389" lon="-1.632320">
        <ele>422.6</ele>
        <time>2018-08-22T10:58:32Z</time>
      </trkpt>
      <trkpt lat="42.821408" lon="-1.632480">
        <ele>422.6</ele>
        <time>2018-08-22T10:58:41Z</time>
      </trkpt>
      <trkpt lat="42.821416" lon="-1.632544">
        <ele>423.1</ele>
        <time>2018-08-22T10:58:45Z</time>
      </trkpt>
      <trkpt lat="42.821429" lon="-1.632831">
        <ele>422.6</ele>
        <time>2018-08-22T10:59:03Z</time>
      </trkpt>
      <trkpt lat="42.821439" lon="-1.633004">
        <ele>422.2</ele>
        <time>2018-08-22T10:59:14Z</time>
      </trkpt>
      <trkpt lat="42.821465" lon="-1.633243">
        <ele>422.2</ele>
        <time>2018-08-22T10:59:28Z</time>
      </trkpt>
      <trkpt lat="42.821482" lon="-1.633352">
        <ele>422.6</ele>
        <time>2018-08-22T10:59:34Z</time>
      </trkpt>
      <trkpt lat="42.821478" lon="-1.633597">
        <ele>421.7</ele>
        <time>2018-08-22T10:59:48Z</time>
      </trkpt>
      <trkpt lat="42.821445" lon="-1.633687">
        <ele>422.2</ele>
        <time>2018-08-22T10:59:53Z</time>
      </trkpt>
      <trkpt lat="42.821440" lon="-1.633729">
        <ele>421.7</ele>
        <time>2018-08-22T10:59:55Z</time>
      </trkpt>
      <trkpt lat="42.821479" lon="-1.634026">
        <ele>421.2</ele>
        <time>2018-08-22T11:00:11Z</time>
      </trkpt>
      <trkpt lat="42.821469" lon="-1.634253">
        <ele>421.7</ele>
        <time>2018-08-22T11:00:24Z</time>
      </trkpt>
      <trkpt lat="42.821465" lon="-1.634310">
        <ele>423.1</ele>
        <time>2018-08-22T11:00:28Z</time>
      </trkpt>
      <trkpt lat="42.821461" lon="-1.634332">
        <ele>421.7</ele>
        <time>2018-08-22T11:00:30Z</time>
      </trkpt>
      <trkpt lat="42.821399" lon="-1.634630">
        <ele>421.7</ele>
        <time>2018-08-22T11:00:47Z</time>
      </trkpt>
      <trkpt lat="42.821327" lon="-1.634859">
        <ele>422.2</ele>
        <time>2018-08-22T11:01:00Z</time>
      </trkpt>
      <trkpt lat="42.821265" lon="-1.635097">
        <ele>421.7</ele>
        <time>2018-08-22T11:01:16Z</time>
      </trkpt>
      <trkpt lat="42.821158" lon="-1.635382">
        <ele>421.7</ele>
        <time>2018-08-22T11:01:34Z</time>
      </trkpt>
      <trkpt lat="42.821090" lon="-1.635652">
        <ele>422.2</ele>
        <time>2018-08-22T11:01:50Z</time>
      </trkpt>
      <trkpt lat="42.821029" lon="-1.635906">
        <ele>421.2</ele>
        <time>2018-08-22T11:02:06Z</time>
      </trkpt>
      <trkpt lat="42.820965" lon="-1.636160">
        <ele>421.2</ele>
        <time>2018-08-22T11:02:22Z</time>
      </trkpt>
      <trkpt lat="42.820946" lon="-1.636245">
        <ele>421.2</ele>
        <time>2018-08-22T11:02:27Z</time>
      </trkpt>
      <trkpt lat="42.820881" lon="-1.636439">
        <ele>421.2</ele>
        <time>2018-08-22T11:02:40Z</time>
      </trkpt>
      <trkpt lat="42.820858" lon="-1.636542">
        <ele>420.2</ele>
        <time>2018-08-22T11:02:46Z</time>
      </trkpt>
      <trkpt lat="42.820847" lon="-1.636613">
        <ele>420.2</ele>
        <time>2018-08-22T11:02:50Z</time>
      </trkpt>
      <trkpt lat="42.820829" lon="-1.636769">
        <ele>420.2</ele>
        <time>2018-08-22T11:02:59Z</time>
      </trkpt>
      <trkpt lat="42.820777" lon="-1.637021">
        <ele>419.8</ele>
        <time>2018-08-22T11:03:16Z</time>
      </trkpt>
      <trkpt lat="42.820730" lon="-1.637276">
        <ele>419.3</ele>
        <time>2018-08-22T11:03:32Z</time>
      </trkpt>
      <trkpt lat="42.820727" lon="-1.637314">
        <ele>420.2</ele>
        <time>2018-08-22T11:03:35Z</time>
      </trkpt>
      <trkpt lat="42.820694" lon="-1.637416">
        <ele>419.8</ele>
        <time>2018-08-22T11:03:42Z</time>
      </trkpt>
      <trkpt lat="42.820716" lon="-1.637479">
        <ele>419.3</ele>
        <time>2018-08-22T11:03:45Z</time>
      </trkpt>
      <trkpt lat="42.820862" lon="-1.637567">
        <ele>419.8</ele>
        <time>2018-08-22T11:03:58Z</time>
      </trkpt>
      <trkpt lat="42.821014" lon="-1.637652">
        <ele>420.2</ele>
        <time>2018-08-22T11:04:10Z</time>
      </trkpt>
      <trkpt lat="42.821027" lon="-1.637661">
        <ele>420.2</ele>
        <time>2018-08-22T11:04:25Z</time>
      </trkpt>
      <trkpt lat="42.821054" lon="-1.637678">
        <ele>421.2</ele>
        <time>2018-08-22T11:04:40Z</time>
      </trkpt>
      <trkpt lat="42.821068" lon="-1.637684">
        <ele>420.7</ele>
        <time>2018-08-22T11:04:41Z</time>
      </trkpt>
      <trkpt lat="42.821120" lon="-1.637781">
        <ele>421.2</ele>
        <time>2018-08-22T11:04:51Z</time>
      </trkpt>
      <trkpt lat="42.821021" lon="-1.637957">
        <ele>424.1</ele>
        <time>2018-08-22T11:05:07Z</time>
      </trkpt>
      <trkpt lat="42.821017" lon="-1.637968">
        <ele>423.6</ele>
        <time>2018-08-22T11:05:10Z</time>
      </trkpt>
      <trkpt lat="42.821000" lon="-1.638060">
        <ele>424.1</ele>
        <time>2018-08-22T11:05:25Z</time>
      </trkpt>
      <trkpt lat="42.820989" lon="-1.638063">
        <ele>424.1</ele>
        <time>2018-08-22T11:05:28Z</time>
      </trkpt>
      <trkpt lat="42.820970" lon="-1.638091">
        <ele>425.0</ele>
        <time>2018-08-22T11:05:32Z</time>
      </trkpt>
      <trkpt lat="42.820956" lon="-1.638135">
        <ele>424.6</ele>
        <time>2018-08-22T11:05:35Z</time>
      </trkpt>
      <trkpt lat="42.820779" lon="-1.638596">
        <ele>422.2</ele>
        <time>2018-08-22T11:12:05Z</time>
      </trkpt>
      <trkpt lat="42.820780" lon="-1.638849">
        <ele>421.7</ele>
        <time>2018-08-22T11:12:20Z</time>
      </trkpt>
      <trkpt lat="42.820744" lon="-1.638996">
        <ele>422.2</ele>
        <time>2018-08-22T11:12:32Z</time>
      </trkpt>
      <trkpt lat="42.820748" lon="-1.639063">
        <ele>422.6</ele>
        <time>2018-08-22T11:12:35Z</time>
      </trkpt>
      <trkpt lat="42.820827" lon="-1.639276">
        <ele>423.1</ele>
        <time>2018-08-22T11:12:51Z</time>
      </trkpt>
      <trkpt lat="42.820800" lon="-1.639334">
        <ele>422.2</ele>
        <time>2018-08-22T11:12:57Z</time>
      </trkpt>
      <trkpt lat="42.820802" lon="-1.639448">
        <ele>422.2</ele>
        <time>2018-08-22T11:13:02Z</time>
      </trkpt>
      <trkpt lat="42.820922" lon="-1.639533">
        <ele>421.7</ele>
        <time>2018-08-22T11:13:14Z</time>
      </trkpt>
      <trkpt lat="42.821028" lon="-1.639772">
        <ele>421.2</ele>
        <time>2018-08-22T11:13:29Z</time>
      </trkpt>
      <trkpt lat="42.821032" lon="-1.639789">
        <ele>421.2</ele>
        <time>2018-08-22T11:13:30Z</time>
      </trkpt>
      <trkpt lat="42.821122" lon="-1.639959">
        <ele>421.2</ele>
        <time>2018-08-22T11:13:44Z</time>
      </trkpt>
      <trkpt lat="42.821151" lon="-1.640003">
        <ele>421.7</ele>
        <time>2018-08-22T11:13:47Z</time>
      </trkpt>
      <trkpt lat="42.821320" lon="-1.640146">
        <ele>422.6</ele>
        <time>2018-08-22T11:14:03Z</time>
      </trkpt>
      <trkpt lat="42.821391" lon="-1.640189">
        <ele>422.2</ele>
        <time>2018-08-22T11:14:18Z</time>
      </trkpt>
      <trkpt lat="42.821472" lon="-1.640249">
        <ele>422.6</ele>
        <time>2018-08-22T11:14:25Z</time>
      </trkpt>
      <trkpt lat="42.821649" lon="-1.640334">
        <ele>423.6</ele>
        <time>2018-08-22T11:14:40Z</time>
      </trkpt>
      <trkpt lat="42.821823" lon="-1.640520">
        <ele>423.6</ele>
        <time>2018-08-22T11:14:57Z</time>
      </trkpt>
      <trkpt lat="42.821827" lon="-1.640563">
        <ele>423.6</ele>
        <time>2018-08-22T11:15:03Z</time>
      </trkpt>
      <trkpt lat="42.821771" lon="-1.640798">
        <ele>423.6</ele>
        <time>2018-08-22T11:15:19Z</time>
      </trkpt>
      <trkpt lat="42.821721" lon="-1.640992">
        <ele>424.1</ele>
        <time>2018-08-22T11:15:36Z</time>
      </trkpt>
      <trkpt lat="42.821720" lon="-1.640997">
        <ele>423.6</ele>
        <time>2018-08-22T11:15:37Z</time>
      </trkpt>
      <trkpt lat="42.821706" lon="-1.641205">
        <ele>424.6</ele>
        <time>2018-08-22T11:15:52Z</time>
      </trkpt>
      <trkpt lat="42.821684" lon="-1.641276">
        <ele>424.6</ele>
        <time>2018-08-22T11:15:56Z</time>
      </trkpt>
      <trkpt lat="42.821647" lon="-1.641413">
        <ele>425.0</ele>
        <time>2018-08-22T11:16:09Z</time>
      </trkpt>
      <trkpt lat="42.821575" lon="-1.641640">
        <ele>426.5</ele>
        <time>2018-08-22T11:16:24Z</time>
      </trkpt>
      <trkpt lat="42.821542" lon="-1.641785">
        <ele>427.0</ele>
        <time>2018-08-22T11:16:33Z</time>
      </trkpt>
      <trkpt lat="42.821470" lon="-1.641929">
        <ele>428.4</ele>
        <time>2018-08-22T11:16:44Z</time>
      </trkpt>
      <trkpt lat="42.821454" lon="-1.641946">
        <ele>428.9</ele>
        <time>2018-08-22T11:16:46Z</time>
      </trkpt>
      <trkpt lat="42.821357" lon="-1.642039">
        <ele>430.8</ele>
        <time>2018-08-22T11:16:57Z</time>
      </trkpt>
      <trkpt lat="42.821312" lon="-1.642066">
        <ele>431.3</ele>
        <time>2018-08-22T11:17:03Z</time>
      </trkpt>
      <trkpt lat="42.821239" lon="-1.642171">
        <ele>433.2</ele>
        <time>2018-08-22T11:17:16Z</time>
      </trkpt>
      <trkpt lat="42.821235" lon="-1.642180">
        <ele>432.7</ele>
        <time>2018-08-22T11:17:17Z</time>
      </trkpt>
      <trkpt lat="42.821224" lon="-1.642271">
        <ele>434.2</ele>
        <time>2018-08-22T11:17:32Z</time>
      </trkpt>
      <trkpt lat="42.821142" lon="-1.642765">
        <ele>438.0</ele>
        <time>2018-08-22T11:18:47Z</time>
      </trkpt>
      <trkpt lat="42.821134" lon="-1.642782">
        <ele>438.0</ele>
        <time>2018-08-22T11:19:09Z</time>
      </trkpt>
      <trkpt lat="42.821122" lon="-1.642873">
        <ele>439.0</ele>
        <time>2018-08-22T11:19:20Z</time>
      </trkpt>
      <trkpt lat="42.821095" lon="-1.643088">
        <ele>440.9</ele>
        <time>2018-08-22T11:19:34Z</time>
      </trkpt>
      <trkpt lat="42.821075" lon="-1.643166">
        <ele>442.3</ele>
        <time>2018-08-22T11:19:58Z</time>
      </trkpt>
      <trkpt lat="42.821069" lon="-1.643185">
        <ele>441.9</ele>
        <time>2018-08-22T11:20:00Z</time>
      </trkpt>
      <trkpt lat="42.820990" lon="-1.643242">
        <ele>442.3</ele>
        <time>2018-08-22T11:20:14Z</time>
      </trkpt>
      <trkpt lat="42.820917" lon="-1.643203">
        <ele>445.2</ele>
        <time>2018-08-22T11:20:29Z</time>
      </trkpt>
      <trkpt lat="42.820873" lon="-1.643220">
        <ele>441.9</ele>
        <time>2018-08-22T11:20:32Z</time>
      </trkpt>
      <trkpt lat="42.820861" lon="-1.643232">
        <ele>442.8</ele>
        <time>2018-08-22T11:20:48Z</time>
      </trkpt>
      <trkpt lat="42.820823" lon="-1.643218">
        <ele>442.3</ele>
        <time>2018-08-22T11:21:00Z</time>
      </trkpt>
      <trkpt lat="42.820801" lon="-1.643218">
        <ele>443.3</ele>
        <time>2018-08-22T11:21:03Z</time>
      </trkpt>
      <trkpt lat="42.820616" lon="-1.643204">
        <ele>444.3</ele>
        <time>2018-08-22T11:21:17Z</time>
      </trkpt>
      <trkpt lat="42.820414" lon="-1.643178">
        <ele>446.7</ele>
        <time>2018-08-22T11:21:35Z</time>
      </trkpt>
      <trkpt lat="42.820205" lon="-1.643159">
        <ele>447.6</ele>
        <time>2018-08-22T11:21:50Z</time>
      </trkpt>
      <trkpt lat="42.819990" lon="-1.643146">
        <ele>448.1</ele>
        <time>2018-08-22T11:22:06Z</time>
      </trkpt>
      <trkpt lat="42.819785" lon="-1.643151">
        <ele>448.6</ele>
        <time>2018-08-22T11:22:23Z</time>
      </trkpt>
      <trkpt lat="42.819599" lon="-1.643070">
        <ele>447.6</ele>
        <time>2018-08-22T11:22:39Z</time>
      </trkpt>
      <trkpt lat="42.819518" lon="-1.642994">
        <ele>447.6</ele>
        <time>2018-08-22T11:22:47Z</time>
      </trkpt>
      <trkpt lat="42.819403" lon="-1.642997">
        <ele>446.7</ele>
        <time>2018-08-22T11:22:58Z</time>
      </trkpt>
      <trkpt lat="42.819461" lon="-1.642745">
        <ele>447.6</ele>
        <time>2018-08-22T11:23:11Z</time>
      </trkpt>
      <trkpt lat="42.819492" lon="-1.642662">
        <ele>447.6</ele>
        <time>2018-08-22T11:23:14Z</time>
      </trkpt>
      <trkpt lat="42.819520" lon="-1.642507">
        <ele>449.1</ele>
        <time>2018-08-22T11:23:28Z</time>
      </trkpt>
      <trkpt lat="42.819575" lon="-1.642281">
        <ele>449.5</ele>
        <time>2018-08-22T11:23:44Z</time>
      </trkpt>
      <trkpt lat="42.819594" lon="-1.642220">
        <ele>449.5</ele>
        <time>2018-08-22T11:23:46Z</time>
      </trkpt>
      <trkpt lat="42.819599" lon="-1.642164">
        <ele>451.0</ele>
        <time>2018-08-22T11:24:00Z</time>
      </trkpt>
      <trkpt lat="42.819612" lon="-1.642122">
        <ele>450.5</ele>
        <time>2018-08-22T11:24:16Z</time>
      </trkpt>
      <trkpt lat="42.819622" lon="-1.642094">
        <ele>450.0</ele>
        <time>2018-08-22T11:24:48Z</time>
      </trkpt>
      <trkpt lat="42.819630" lon="-1.642051">
        <ele>449.5</ele>
        <time>2018-08-22T11:25:17Z</time>
      </trkpt>
      <trkpt lat="42.819697" lon="-1.642040">
        <ele>449.5</ele>
        <time>2018-08-22T11:25:53Z</time>
      </trkpt>
      <trkpt lat="42.819635" lon="-1.642016">
        <ele>462.0</ele>
        <time>2018-08-23T05:41:09Z</time>
      </trkpt>
      <trkpt lat="42.819601" lon="-1.642029">
        <ele>462.0</ele>
        <time>2018-08-23T05:41:33Z</time>
      </trkpt>
      <trkpt lat="42.819591" lon="-1.642093">
        <ele>462.5</ele>
        <time>2018-08-23T05:41:48Z</time>
      </trkpt>
      <trkpt lat="42.819567" lon="-1.642178">
        <ele>462.5</ele>
        <time>2018-08-23T05:42:03Z</time>
      </trkpt>
      <trkpt lat="42.819539" lon="-1.642293">
        <ele>461.6</ele>
        <time>2018-08-23T05:42:17Z</time>
      </trkpt>
      <trkpt lat="42.819506" lon="-1.642401">
        <ele>460.6</ele>
        <time>2018-08-23T05:42:31Z</time>
      </trkpt>
      <trkpt lat="42.819482" lon="-1.642528">
        <ele>460.6</ele>
        <time>2018-08-23T05:42:42Z</time>
      </trkpt>
      <trkpt lat="42.819465" lon="-1.642599">
        <ele>459.2</ele>
        <time>2018-08-23T05:42:44Z</time>
      </trkpt>
      <trkpt lat="42.819432" lon="-1.642723">
        <ele>459.6</ele>
        <time>2018-08-23T05:42:46Z</time>
      </trkpt>
      <trkpt lat="42.819378" lon="-1.643007">
        <ele>458.2</ele>
        <time>2018-08-23T05:42:50Z</time>
      </trkpt>
      <trkpt lat="42.819313" lon="-1.642988">
        <ele>458.2</ele>
        <time>2018-08-23T05:43:03Z</time>
      </trkpt>
      <trkpt lat="42.819232" lon="-1.642900">
        <ele>457.2</ele>
        <time>2018-08-23T05:43:18Z</time>
      </trkpt>
      <trkpt lat="42.819121" lon="-1.642873">
        <ele>457.2</ele>
        <time>2018-08-23T05:43:33Z</time>
      </trkpt>
      <trkpt lat="42.819087" lon="-1.642874">
        <ele>456.8</ele>
        <time>2018-08-23T05:43:37Z</time>
      </trkpt>
      <trkpt lat="42.818925" lon="-1.642812">
        <ele>455.8</ele>
        <time>2018-08-23T05:43:56Z</time>
      </trkpt>
      <trkpt lat="42.818838" lon="-1.642773">
        <ele>455.8</ele>
        <time>2018-08-23T05:44:02Z</time>
      </trkpt>
      <trkpt lat="42.818794" lon="-1.642782">
        <ele>455.8</ele>
        <time>2018-08-23T05:44:07Z</time>
      </trkpt>
      <trkpt lat="42.818675" lon="-1.642721">
        <ele>456.3</ele>
        <time>2018-08-23T05:44:19Z</time>
      </trkpt>
      <trkpt lat="42.818569" lon="-1.642891">
        <ele>457.2</ele>
        <time>2018-08-23T05:44:32Z</time>
      </trkpt>
      <trkpt lat="42.818503" lon="-1.643066">
        <ele>458.2</ele>
        <time>2018-08-23T05:44:50Z</time>
      </trkpt>
      <trkpt lat="42.818421" lon="-1.643363">
        <ele>458.2</ele>
        <time>2018-08-23T05:45:05Z</time>
      </trkpt>
      <trkpt lat="42.818398" lon="-1.643444">
        <ele>458.2</ele>
        <time>2018-08-23T05:45:18Z</time>
      </trkpt>
      <trkpt lat="42.818366" lon="-1.643574">
        <ele>457.7</ele>
        <time>2018-08-23T05:45:37Z</time>
      </trkpt>
      <trkpt lat="42.818335" lon="-1.643719">
        <ele>458.2</ele>
        <time>2018-08-23T05:45:52Z</time>
      </trkpt>
      <trkpt lat="42.818283" lon="-1.643814">
        <ele>457.2</ele>
        <time>2018-08-23T05:46:05Z</time>
      </trkpt>
      <trkpt lat="42.818276" lon="-1.643863">
        <ele>457.2</ele>
        <time>2018-08-23T05:46:18Z</time>
      </trkpt>
      <trkpt lat="42.818276" lon="-1.643934">
        <ele>457.7</ele>
        <time>2018-08-23T05:46:29Z</time>
      </trkpt>
      <trkpt lat="42.818221" lon="-1.643963">
        <ele>457.2</ele>
        <time>2018-08-23T05:46:45Z</time>
      </trkpt>
      <trkpt lat="42.818210" lon="-1.644035">
        <ele>457.2</ele>
        <time>2018-08-23T05:46:53Z</time>
      </trkpt>
      <trkpt lat="42.818141" lon="-1.644150">
        <ele>457.7</ele>
        <time>2018-08-23T05:47:07Z</time>
      </trkpt>
      <trkpt lat="42.818138" lon="-1.644242">
        <ele>458.2</ele>
        <time>2018-08-23T05:47:13Z</time>
      </trkpt>
      <trkpt lat="42.818149" lon="-1.644311">
        <ele>457.7</ele>
        <time>2018-08-23T05:47:16Z</time>
      </trkpt>
      <trkpt lat="42.818202" lon="-1.644375">
        <ele>458.7</ele>
        <time>2018-08-23T05:47:18Z</time>
      </trkpt>
      <trkpt lat="42.818305" lon="-1.644528">
        <ele>458.7</ele>
        <time>2018-08-23T05:47:31Z</time>
      </trkpt>
      <trkpt lat="42.818336" lon="-1.644675">
        <ele>458.7</ele>
        <time>2018-08-23T05:47:45Z</time>
      </trkpt>
      <trkpt lat="42.818313" lon="-1.644922">
        <ele>458.2</ele>
        <time>2018-08-23T05:48:01Z</time>
      </trkpt>
      <trkpt lat="42.818308" lon="-1.645113">
        <ele>459.2</ele>
        <time>2018-08-23T05:48:16Z</time>
      </trkpt>
      <trkpt lat="42.818336" lon="-1.645186">
        <ele>458.7</ele>
        <time>2018-08-23T05:48:18Z</time>
      </trkpt>
      <trkpt lat="42.818286" lon="-1.645405">
        <ele>459.6</ele>
        <time>2018-08-23T05:48:36Z</time>
      </trkpt>
      <trkpt lat="42.818219" lon="-1.645621">
        <ele>458.2</ele>
        <time>2018-08-23T05:48:51Z</time>
      </trkpt>
      <trkpt lat="42.818126" lon="-1.645830">
        <ele>459.2</ele>
        <time>2018-08-23T05:49:07Z</time>
      </trkpt>
      <trkpt lat="42.818071" lon="-1.646058">
        <ele>458.7</ele>
        <time>2018-08-23T05:49:23Z</time>
      </trkpt>
      <trkpt lat="42.817961" lon="-1.646327">
        <ele>458.2</ele>
        <time>2018-08-23T05:49:41Z</time>
      </trkpt>
      <trkpt lat="42.817841" lon="-1.646587">
        <ele>458.2</ele>
        <time>2018-08-23T05:50:00Z</time>
      </trkpt>
      <trkpt lat="42.817785" lon="-1.646809">
        <ele>458.2</ele>
        <time>2018-08-23T05:50:14Z</time>
      </trkpt>
      <trkpt lat="42.817734" lon="-1.646955">
        <ele>458.2</ele>
        <time>2018-08-23T05:50:23Z</time>
      </trkpt>
      <trkpt lat="42.817649" lon="-1.647207">
        <ele>457.7</ele>
        <time>2018-08-23T05:50:41Z</time>
      </trkpt>
      <trkpt lat="42.817626" lon="-1.647296">
        <ele>457.7</ele>
        <time>2018-08-23T05:50:47Z</time>
      </trkpt>
      <trkpt lat="42.817521" lon="-1.647563">
        <ele>456.8</ele>
        <time>2018-08-23T05:51:06Z</time>
      </trkpt>
      <trkpt lat="42.817456" lon="-1.647792">
        <ele>456.3</ele>
        <time>2018-08-23T05:51:21Z</time>
      </trkpt>
      <trkpt lat="42.817421" lon="-1.648037">
        <ele>456.3</ele>
        <time>2018-08-23T05:51:37Z</time>
      </trkpt>
      <trkpt lat="42.817417" lon="-1.648051">
        <ele>456.3</ele>
        <time>2018-08-23T05:51:38Z</time>
      </trkpt>
      <trkpt lat="42.817318" lon="-1.648278">
        <ele>456.3</ele>
        <time>2018-08-23T05:51:56Z</time>
      </trkpt>
      <trkpt lat="42.817237" lon="-1.648497">
        <ele>455.8</ele>
        <time>2018-08-23T05:52:14Z</time>
      </trkpt>
      <trkpt lat="42.817173" lon="-1.648748">
        <ele>455.8</ele>
        <time>2018-08-23T05:52:32Z</time>
      </trkpt>
      <trkpt lat="42.817138" lon="-1.648807">
        <ele>456.3</ele>
        <time>2018-08-23T05:52:35Z</time>
      </trkpt>
      <trkpt lat="42.817060" lon="-1.649092">
        <ele>455.3</ele>
        <time>2018-08-23T05:52:50Z</time>
      </trkpt>
      <trkpt lat="42.817047" lon="-1.649161">
        <ele>455.8</ele>
        <time>2018-08-23T05:52:57Z</time>
      </trkpt>
      <trkpt lat="42.817022" lon="-1.649266">
        <ele>456.3</ele>
        <time>2018-08-23T05:53:01Z</time>
      </trkpt>
      <trkpt lat="42.816890" lon="-1.649281">
        <ele>456.8</ele>
        <time>2018-08-23T05:53:15Z</time>
      </trkpt>
      <trkpt lat="42.816851" lon="-1.649318">
        <ele>456.3</ele>
        <time>2018-08-23T05:53:31Z</time>
      </trkpt>
      <trkpt lat="42.816758" lon="-1.649377">
        <ele>456.8</ele>
        <time>2018-08-23T05:53:44Z</time>
      </trkpt>
      <trkpt lat="42.816720" lon="-1.649551">
        <ele>456.3</ele>
        <time>2018-08-23T05:53:56Z</time>
      </trkpt>
      <trkpt lat="42.816613" lon="-1.649682">
        <ele>456.8</ele>
        <time>2018-08-23T05:54:10Z</time>
      </trkpt>
      <trkpt lat="42.816542" lon="-1.649842">
        <ele>456.8</ele>
        <time>2018-08-23T05:54:23Z</time>
      </trkpt>
      <trkpt lat="42.816388" lon="-1.650032">
        <ele>456.8</ele>
        <time>2018-08-23T05:54:39Z</time>
      </trkpt>
      <trkpt lat="42.816332" lon="-1.650172">
        <ele>456.3</ele>
        <time>2018-08-23T05:54:54Z</time>
      </trkpt>
      <trkpt lat="42.816239" lon="-1.650284">
        <ele>456.3</ele>
        <time>2018-08-23T05:55:11Z</time>
      </trkpt>
      <trkpt lat="42.816160" lon="-1.650344">
        <ele>455.8</ele>
        <time>2018-08-23T05:55:14Z</time>
      </trkpt>
      <trkpt lat="42.816138" lon="-1.650387">
        <ele>455.8</ele>
        <time>2018-08-23T05:55:18Z</time>
      </trkpt>
      <trkpt lat="42.816015" lon="-1.650557">
        <ele>455.8</ele>
        <time>2018-08-23T05:55:33Z</time>
      </trkpt>
      <trkpt lat="42.815907" lon="-1.650682">
        <ele>455.8</ele>
        <time>2018-08-23T05:55:47Z</time>
      </trkpt>
      <trkpt lat="42.815874" lon="-1.650745">
        <ele>452.9</ele>
        <time>2018-08-23T05:55:53Z</time>
      </trkpt>
      <trkpt lat="42.815867" lon="-1.650759">
        <ele>458.2</ele>
        <time>2018-08-23T05:55:54Z</time>
      </trkpt>
      <trkpt lat="42.815859" lon="-1.650778">
        <ele>456.8</ele>
        <time>2018-08-23T05:55:55Z</time>
      </trkpt>
      <trkpt lat="42.815743" lon="-1.650997">
        <ele>456.3</ele>
        <time>2018-08-23T05:56:10Z</time>
      </trkpt>
      <trkpt lat="42.815733" lon="-1.651013">
        <ele>455.8</ele>
        <time>2018-08-23T05:56:11Z</time>
      </trkpt>
      <trkpt lat="42.815640" lon="-1.651164">
        <ele>455.8</ele>
        <time>2018-08-23T05:56:25Z</time>
      </trkpt>
      <trkpt lat="42.815609" lon="-1.651223">
        <ele>455.8</ele>
        <time>2018-08-23T05:56:30Z</time>
      </trkpt>
      <trkpt lat="42.815581" lon="-1.651328">
        <ele>455.8</ele>
        <time>2018-08-23T05:56:38Z</time>
      </trkpt>
      <trkpt lat="42.815513" lon="-1.651564">
        <ele>455.3</ele>
        <time>2018-08-23T05:56:53Z</time>
      </trkpt>
      <trkpt lat="42.815421" lon="-1.651676">
        <ele>455.3</ele>
        <time>2018-08-23T05:57:06Z</time>
      </trkpt>
      <trkpt lat="42.815380" lon="-1.651731">
        <ele>454.8</ele>
        <time>2018-08-23T05:57:30Z</time>
      </trkpt>
      <trkpt lat="42.815384" lon="-1.651744">
        <ele>455.3</ele>
        <time>2018-08-23T05:57:52Z</time>
      </trkpt>
      <trkpt lat="42.815348" lon="-1.651724">
        <ele>454.8</ele>
        <time>2018-08-23T05:57:57Z</time>
      </trkpt>
      <trkpt lat="42.815216" lon="-1.651639">
        <ele>454.8</ele>
        <time>2018-08-23T05:58:11Z</time>
      </trkpt>
      <trkpt lat="42.815079" lon="-1.651707">
        <ele>455.3</ele>
        <time>2018-08-23T05:58:22Z</time>
      </trkpt>
      <trkpt lat="42.815001" lon="-1.651769">
        <ele>454.8</ele>
        <time>2018-08-23T05:58:29Z</time>
      </trkpt>
      <trkpt lat="42.814841" lon="-1.651873">
        <ele>454.8</ele>
        <time>2018-08-23T05:58:42Z</time>
      </trkpt>
      <trkpt lat="42.814705" lon="-1.652053">
        <ele>453.9</ele>
        <time>2018-08-23T05:58:56Z</time>
      </trkpt>
      <trkpt lat="42.814631" lon="-1.652167">
        <ele>454.4</ele>
        <time>2018-08-23T05:59:05Z</time>
      </trkpt>
      <trkpt lat="42.814616" lon="-1.652220">
        <ele>454.4</ele>
        <time>2018-08-23T05:59:09Z</time>
      </trkpt>
      <trkpt lat="42.814508" lon="-1.652259">
        <ele>455.3</ele>
        <time>2018-08-23T05:59:24Z</time>
      </trkpt>
      <trkpt lat="42.814502" lon="-1.652295">
        <ele>454.4</ele>
        <time>2018-08-23T05:59:39Z</time>
      </trkpt>
      <trkpt lat="42.814488" lon="-1.652285">
        <ele>454.8</ele>
        <time>2018-08-23T05:59:52Z</time>
      </trkpt>
      <trkpt lat="42.814480" lon="-1.652321">
        <ele>454.8</ele>
        <time>2018-08-23T05:59:54Z</time>
      </trkpt>
      <trkpt lat="42.814429" lon="-1.652394">
        <ele>454.8</ele>
        <time>2018-08-23T06:00:08Z</time>
      </trkpt>
      <trkpt lat="42.814408" lon="-1.652383">
        <ele>454.8</ele>
        <time>2018-08-23T06:00:30Z</time>
      </trkpt>
      <trkpt lat="42.814427" lon="-1.652399">
        <ele>454.4</ele>
        <time>2018-08-23T06:00:49Z</time>
      </trkpt>
      <trkpt lat="42.814422" lon="-1.652403">
        <ele>454.4</ele>
        <time>2018-08-23T06:00:50Z</time>
      </trkpt>
      <trkpt lat="42.814373" lon="-1.652431">
        <ele>454.4</ele>
        <time>2018-08-23T06:00:55Z</time>
      </trkpt>
      <trkpt lat="42.814270" lon="-1.652424">
        <ele>454.4</ele>
        <time>2018-08-23T06:01:05Z</time>
      </trkpt>
      <trkpt lat="42.814081" lon="-1.652412">
        <ele>455.3</ele>
        <time>2018-08-23T06:01:17Z</time>
      </trkpt>
      <trkpt lat="42.814041" lon="-1.652437">
        <ele>455.8</ele>
        <time>2018-08-23T06:01:21Z</time>
      </trkpt>
      <trkpt lat="42.813984" lon="-1.652556">
        <ele>455.8</ele>
        <time>2018-08-23T06:01:33Z</time>
      </trkpt>
      <trkpt lat="42.813979" lon="-1.652612">
        <ele>455.8</ele>
        <time>2018-08-23T06:01:36Z</time>
      </trkpt>
      <trkpt lat="42.813961" lon="-1.652634">
        <ele>455.3</ele>
        <time>2018-08-23T06:01:38Z</time>
      </trkpt>
      <trkpt lat="42.813816" lon="-1.652762">
        <ele>455.3</ele>
        <time>2018-08-23T06:01:52Z</time>
      </trkpt>
      <trkpt lat="42.813679" lon="-1.652923">
        <ele>455.3</ele>
        <time>2018-08-23T06:02:07Z</time>
      </trkpt>
      <trkpt lat="42.813567" lon="-1.653085">
        <ele>454.8</ele>
        <time>2018-08-23T06:02:19Z</time>
      </trkpt>
      <trkpt lat="42.813375" lon="-1.653319">
        <ele>454.8</ele>
        <time>2018-08-23T06:02:35Z</time>
      </trkpt>
      <trkpt lat="42.813213" lon="-1.653507">
        <ele>454.8</ele>
        <time>2018-08-23T06:02:52Z</time>
      </trkpt>
      <trkpt lat="42.813074" lon="-1.653687">
        <ele>454.8</ele>
        <time>2018-08-23T06:03:07Z</time>
      </trkpt>
      <trkpt lat="42.813066" lon="-1.653697">
        <ele>454.4</ele>
        <time>2018-08-23T06:03:08Z</time>
      </trkpt>
      <trkpt lat="42.813034" lon="-1.653747">
        <ele>454.4</ele>
        <time>2018-08-23T06:03:12Z</time>
      </trkpt>
      <trkpt lat="42.812943" lon="-1.653835">
        <ele>453.9</ele>
        <time>2018-08-23T06:03:20Z</time>
      </trkpt>
      <trkpt lat="42.812869" lon="-1.653937">
        <ele>453.4</ele>
        <time>2018-08-23T06:03:27Z</time>
      </trkpt>
      <trkpt lat="42.812733" lon="-1.654109">
        <ele>452.4</ele>
        <time>2018-08-23T06:03:42Z</time>
      </trkpt>
      <trkpt lat="42.812663" lon="-1.654175">
        <ele>453.9</ele>
        <time>2018-08-23T06:03:55Z</time>
      </trkpt>
      <trkpt lat="42.812538" lon="-1.654274">
        <ele>453.4</ele>
        <time>2018-08-23T06:04:09Z</time>
      </trkpt>
      <trkpt lat="42.812513" lon="-1.654290">
        <ele>453.9</ele>
        <time>2018-08-23T06:04:13Z</time>
      </trkpt>
      <trkpt lat="42.812399" lon="-1.654277">
        <ele>453.9</ele>
        <time>2018-08-23T06:04:19Z</time>
      </trkpt>
      <trkpt lat="42.812196" lon="-1.654284">
        <ele>453.9</ele>
        <time>2018-08-23T06:04:32Z</time>
      </trkpt>
      <trkpt lat="42.812149" lon="-1.654278">
        <ele>453.9</ele>
        <time>2018-08-23T06:04:35Z</time>
      </trkpt>
      <trkpt lat="42.812008" lon="-1.654201">
        <ele>453.9</ele>
        <time>2018-08-23T06:04:49Z</time>
      </trkpt>
      <trkpt lat="42.811941" lon="-1.654150">
        <ele>453.4</ele>
        <time>2018-08-23T06:04:56Z</time>
      </trkpt>
      <trkpt lat="42.811803" lon="-1.654122">
        <ele>453.9</ele>
        <time>2018-08-23T06:05:06Z</time>
      </trkpt>
      <trkpt lat="42.811679" lon="-1.654052">
        <ele>454.4</ele>
        <time>2018-08-23T06:05:17Z</time>
      </trkpt>
      <trkpt lat="42.811573" lon="-1.653992">
        <ele>454.8</ele>
        <time>2018-08-23T06:05:25Z</time>
      </trkpt>
      <trkpt lat="42.811390" lon="-1.653922">
        <ele>454.4</ele>
        <time>2018-08-23T06:05:39Z</time>
      </trkpt>
      <trkpt lat="42.811238" lon="-1.653831">
        <ele>454.4</ele>
        <time>2018-08-23T06:05:51Z</time>
      </trkpt>
      <trkpt lat="42.811030" lon="-1.653720">
        <ele>454.8</ele>
        <time>2018-08-23T06:06:07Z</time>
      </trkpt>
      <trkpt lat="42.810967" lon="-1.653663">
        <ele>454.8</ele>
        <time>2018-08-23T06:06:14Z</time>
      </trkpt>
      <trkpt lat="42.810923" lon="-1.653648">
        <ele>454.4</ele>
        <time>2018-08-23T06:06:18Z</time>
      </trkpt>
      <trkpt lat="42.810868" lon="-1.653591">
        <ele>454.8</ele>
        <time>2018-08-23T06:06:24Z</time>
      </trkpt>
      <trkpt lat="42.810720" lon="-1.653463">
        <ele>454.8</ele>
        <time>2018-08-23T06:06:36Z</time>
      </trkpt>
      <trkpt lat="42.810708" lon="-1.653450">
        <ele>454.8</ele>
        <time>2018-08-23T06:06:37Z</time>
      </trkpt>
      <trkpt lat="42.810592" lon="-1.653384">
        <ele>454.8</ele>
        <time>2018-08-23T06:06:48Z</time>
      </trkpt>
      <trkpt lat="42.810382" lon="-1.653246">
        <ele>455.3</ele>
        <time>2018-08-23T06:07:05Z</time>
      </trkpt>
      <trkpt lat="42.810257" lon="-1.653174">
        <ele>455.3</ele>
        <time>2018-08-23T06:07:15Z</time>
      </trkpt>
      <trkpt lat="42.810129" lon="-1.652959">
        <ele>455.8</ele>
        <time>2018-08-23T06:07:31Z</time>
      </trkpt>
      <trkpt lat="42.810005" lon="-1.652928">
        <ele>455.3</ele>
        <time>2018-08-23T06:07:42Z</time>
      </trkpt>
      <trkpt lat="42.810001" lon="-1.652941">
        <ele>455.3</ele>
        <time>2018-08-23T06:07:43Z</time>
      </trkpt>
      <trkpt lat="42.809960" lon="-1.652998">
        <ele>454.4</ele>
        <time>2018-08-23T06:07:53Z</time>
      </trkpt>
      <trkpt lat="42.809852" lon="-1.653030">
        <ele>454.8</ele>
        <time>2018-08-23T06:08:02Z</time>
      </trkpt>
      <trkpt lat="42.809683" lon="-1.653100">
        <ele>454.4</ele>
        <time>2018-08-23T06:08:16Z</time>
      </trkpt>
      <trkpt lat="42.809451" lon="-1.653165">
        <ele>454.4</ele>
        <time>2018-08-23T06:08:31Z</time>
      </trkpt>
      <trkpt lat="42.809401" lon="-1.653189">
        <ele>453.9</ele>
        <time>2018-08-23T06:08:35Z</time>
      </trkpt>
      <trkpt lat="42.809355" lon="-1.653226">
        <ele>453.4</ele>
        <time>2018-08-23T06:08:38Z</time>
      </trkpt>
      <trkpt lat="42.809203" lon="-1.653323">
        <ele>453.9</ele>
        <time>2018-08-23T06:08:45Z</time>
      </trkpt>
      <trkpt lat="42.809252" lon="-1.653788">
        <ele>453.9</ele>
        <time>2018-08-23T06:09:03Z</time>
      </trkpt>
      <trkpt lat="42.809218" lon="-1.653884">
        <ele>453.9</ele>
        <time>2018-08-23T06:09:15Z</time>
      </trkpt>
      <trkpt lat="42.809135" lon="-1.653901">
        <ele>453.4</ele>
        <time>2018-08-23T06:09:26Z</time>
      </trkpt>
      <trkpt lat="42.809098" lon="-1.653941">
        <ele>453.4</ele>
        <time>2018-08-23T06:09:35Z</time>
      </trkpt>
      <trkpt lat="42.809087" lon="-1.653945">
        <ele>454.4</ele>
        <time>2018-08-23T06:09:37Z</time>
      </trkpt>
      <trkpt lat="42.808945" lon="-1.653986">
        <ele>453.9</ele>
        <time>2018-08-23T06:09:49Z</time>
      </trkpt>
      <trkpt lat="42.808894" lon="-1.654012">
        <ele>453.9</ele>
        <time>2018-08-23T06:09:52Z</time>
      </trkpt>
      <trkpt lat="42.808765" lon="-1.654089">
        <ele>453.4</ele>
        <time>2018-08-23T06:10:06Z</time>
      </trkpt>
      <trkpt lat="42.808671" lon="-1.654162">
        <ele>453.4</ele>
        <time>2018-08-23T06:10:16Z</time>
      </trkpt>
      <trkpt lat="42.808517" lon="-1.654375">
        <ele>453.4</ele>
        <time>2018-08-23T06:10:31Z</time>
      </trkpt>
      <trkpt lat="42.808480" lon="-1.654448">
        <ele>453.9</ele>
        <time>2018-08-23T06:10:34Z</time>
      </trkpt>
      <trkpt lat="42.808338" lon="-1.654725">
        <ele>452.9</ele>
        <time>2018-08-23T06:10:50Z</time>
      </trkpt>
      <trkpt lat="42.808320" lon="-1.654744">
        <ele>452.9</ele>
        <time>2018-08-23T06:10:52Z</time>
      </trkpt>
      <trkpt lat="42.808109" lon="-1.654903">
        <ele>452.9</ele>
        <time>2018-08-23T06:11:07Z</time>
      </trkpt>
      <trkpt lat="42.808099" lon="-1.654934">
        <ele>452.9</ele>
        <time>2018-08-23T06:11:09Z</time>
      </trkpt>
      <trkpt lat="42.808012" lon="-1.655063">
        <ele>452.9</ele>
        <time>2018-08-23T06:11:23Z</time>
      </trkpt>
      <trkpt lat="42.807928" lon="-1.655242">
        <ele>452.4</ele>
        <time>2018-08-23T06:11:37Z</time>
      </trkpt>
      <trkpt lat="42.807820" lon="-1.655465">
        <ele>452.4</ele>
        <time>2018-08-23T06:11:51Z</time>
      </trkpt>
      <trkpt lat="42.807609" lon="-1.655603">
        <ele>452.4</ele>
        <time>2018-08-23T06:12:08Z</time>
      </trkpt>
      <trkpt lat="42.807473" lon="-1.655897">
        <ele>451.5</ele>
        <time>2018-08-23T06:12:23Z</time>
      </trkpt>
      <trkpt lat="42.807444" lon="-1.656034">
        <ele>452.0</ele>
        <time>2018-08-23T06:12:37Z</time>
      </trkpt>
      <trkpt lat="42.807259" lon="-1.656276">
        <ele>451.5</ele>
        <time>2018-08-23T06:12:51Z</time>
      </trkpt>
      <trkpt lat="42.807135" lon="-1.656482">
        <ele>451.0</ele>
        <time>2018-08-23T06:13:07Z</time>
      </trkpt>
      <trkpt lat="42.807131" lon="-1.656510">
        <ele>451.0</ele>
        <time>2018-08-23T06:13:09Z</time>
      </trkpt>
      <trkpt lat="42.807041" lon="-1.656647">
        <ele>451.0</ele>
        <time>2018-08-23T06:13:23Z</time>
      </trkpt>
      <trkpt lat="42.806842" lon="-1.656939">
        <ele>451.0</ele>
        <time>2018-08-23T06:13:36Z</time>
      </trkpt>
      <trkpt lat="42.806842" lon="-1.657016">
        <ele>451.0</ele>
        <time>2018-08-23T06:13:38Z</time>
      </trkpt>
      <trkpt lat="42.806937" lon="-1.657306">
        <ele>451.0</ele>
        <time>2018-08-23T06:13:51Z</time>
      </trkpt>
      <trkpt lat="42.806920" lon="-1.657334">
        <ele>450.5</ele>
        <time>2018-08-23T06:13:54Z</time>
      </trkpt>
      <trkpt lat="42.806844" lon="-1.657491">
        <ele>450.5</ele>
        <time>2018-08-23T06:14:09Z</time>
      </trkpt>
      <trkpt lat="42.806847" lon="-1.657466">
        <ele>450.0</ele>
        <time>2018-08-23T06:14:21Z</time>
      </trkpt>
      <trkpt lat="42.806677" lon="-1.657673">
        <ele>450.0</ele>
        <time>2018-08-23T06:14:37Z</time>
      </trkpt>
      <trkpt lat="42.806578" lon="-1.657848">
        <ele>449.5</ele>
        <time>2018-08-23T06:14:49Z</time>
      </trkpt>
      <trkpt lat="42.806397" lon="-1.658101">
        <ele>449.5</ele>
        <time>2018-08-23T06:15:05Z</time>
      </trkpt>
      <trkpt lat="42.806325" lon="-1.658284">
        <ele>449.1</ele>
        <time>2018-08-23T06:15:15Z</time>
      </trkpt>
      <trkpt lat="42.806202" lon="-1.658400">
        <ele>449.5</ele>
        <time>2018-08-23T06:15:27Z</time>
      </trkpt>
      <trkpt lat="42.806079" lon="-1.658601">
        <ele>448.6</ele>
        <time>2018-08-23T06:15:44Z</time>
      </trkpt>
      <trkpt lat="42.806010" lon="-1.658667">
        <ele>447.6</ele>
        <time>2018-08-23T06:15:50Z</time>
      </trkpt>
      <trkpt lat="42.805894" lon="-1.658819">
        <ele>445.7</ele>
        <time>2018-08-23T06:16:04Z</time>
      </trkpt>
      <trkpt lat="42.805759" lon="-1.659008">
        <ele>444.8</ele>
        <time>2018-08-23T06:16:19Z</time>
      </trkpt>
      <trkpt lat="42.805627" lon="-1.659210">
        <ele>443.8</ele>
        <time>2018-08-23T06:16:35Z</time>
      </trkpt>
      <trkpt lat="42.805565" lon="-1.659305">
        <ele>442.8</ele>
        <time>2018-08-23T06:16:43Z</time>
      </trkpt>
      <trkpt lat="42.805461" lon="-1.659428">
        <ele>441.4</ele>
        <time>2018-08-23T06:16:55Z</time>
      </trkpt>
      <trkpt lat="42.805353" lon="-1.659484">
        <ele>440.4</ele>
        <time>2018-08-23T06:17:08Z</time>
      </trkpt>
      <trkpt lat="42.805330" lon="-1.659513">
        <ele>440.4</ele>
        <time>2018-08-23T06:17:10Z</time>
      </trkpt>
      <trkpt lat="42.805186" lon="-1.659715">
        <ele>438.5</ele>
        <time>2018-08-23T06:17:26Z</time>
      </trkpt>
      <trkpt lat="42.805000" lon="-1.659943">
        <ele>436.6</ele>
        <time>2018-08-23T06:17:46Z</time>
      </trkpt>
      <trkpt lat="42.804886" lon="-1.660112">
        <ele>436.1</ele>
        <time>2018-08-23T06:18:01Z</time>
      </trkpt>
      <trkpt lat="42.804861" lon="-1.660110">
        <ele>435.6</ele>
        <time>2018-08-23T06:18:03Z</time>
      </trkpt>
      <trkpt lat="42.804803" lon="-1.660036">
        <ele>435.6</ele>
        <time>2018-08-23T06:18:09Z</time>
      </trkpt>
      <trkpt lat="42.804612" lon="-1.660060">
        <ele>435.6</ele>
        <time>2018-08-23T06:18:25Z</time>
      </trkpt>
      <trkpt lat="42.804433" lon="-1.660174">
        <ele>433.7</ele>
        <time>2018-08-23T06:18:39Z</time>
      </trkpt>
      <trkpt lat="42.804396" lon="-1.660357">
        <ele>434.2</ele>
        <time>2018-08-23T06:20:22Z</time>
      </trkpt>
      <trkpt lat="42.804376" lon="-1.660392">
        <ele>434.2</ele>
        <time>2018-08-23T06:20:24Z</time>
      </trkpt>
      <trkpt lat="42.804215" lon="-1.660595">
        <ele>433.2</ele>
        <time>2018-08-23T06:20:41Z</time>
      </trkpt>
      <trkpt lat="42.804042" lon="-1.660724">
        <ele>433.2</ele>
        <time>2018-08-23T06:20:57Z</time>
      </trkpt>
      <trkpt lat="42.803907" lon="-1.660840">
        <ele>432.7</ele>
        <time>2018-08-23T06:21:11Z</time>
      </trkpt>
      <trkpt lat="42.803859" lon="-1.660875">
        <ele>432.7</ele>
        <time>2018-08-23T06:21:20Z</time>
      </trkpt>
      <trkpt lat="42.803792" lon="-1.660890">
        <ele>432.7</ele>
        <time>2018-08-23T06:21:37Z</time>
      </trkpt>
      <trkpt lat="42.803792" lon="-1.660891">
        <ele>432.7</ele>
        <time>2018-08-23T06:21:39Z</time>
      </trkpt>
      <trkpt lat="42.803597" lon="-1.661083">
        <ele>432.2</ele>
        <time>2018-08-23T06:21:55Z</time>
      </trkpt>
      <trkpt lat="42.803388" lon="-1.661261">
        <ele>431.8</ele>
        <time>2018-08-23T06:22:14Z</time>
      </trkpt>
      <trkpt lat="42.803231" lon="-1.661410">
        <ele>430.8</ele>
        <time>2018-08-23T06:22:30Z</time>
      </trkpt>
      <trkpt lat="42.803080" lon="-1.661559">
        <ele>430.3</ele>
        <time>2018-08-23T06:22:46Z</time>
      </trkpt>
      <trkpt lat="42.802860" lon="-1.661765">
        <ele>428.4</ele>
        <time>2018-08-23T06:23:07Z</time>
      </trkpt>
      <trkpt lat="42.802648" lon="-1.661972">
        <ele>426.5</ele>
        <time>2018-08-23T06:23:28Z</time>
      </trkpt>
      <trkpt lat="42.802490" lon="-1.662155">
        <ele>424.6</ele>
        <time>2018-08-23T06:23:45Z</time>
      </trkpt>
      <trkpt lat="42.802384" lon="-1.662279">
        <ele>423.6</ele>
        <time>2018-08-23T06:23:56Z</time>
      </trkpt>
      <trkpt lat="42.802346" lon="-1.662337">
        <ele>423.1</ele>
        <time>2018-08-23T06:24:01Z</time>
      </trkpt>
      <trkpt lat="42.802153" lon="-1.662571">
        <ele>421.2</ele>
        <time>2018-08-23T06:24:20Z</time>
      </trkpt>
      <trkpt lat="42.802113" lon="-1.662631">
        <ele>417.8</ele>
        <time>2018-08-23T06:24:25Z</time>
      </trkpt>
      <trkpt lat="42.802092" lon="-1.662662">
        <ele>422.6</ele>
        <time>2018-08-23T06:24:27Z</time>
      </trkpt>
      <trkpt lat="42.802056" lon="-1.662706">
        <ele>419.8</ele>
        <time>2018-08-23T06:24:30Z</time>
      </trkpt>
      <trkpt lat="42.801971" lon="-1.662864">
        <ele>418.8</ele>
        <time>2018-08-23T06:24:45Z</time>
      </trkpt>
      <trkpt lat="42.801879" lon="-1.662972">
        <ele>418.3</ele>
        <time>2018-08-23T06:24:57Z</time>
      </trkpt>
      <trkpt lat="42.801898" lon="-1.662919">
        <ele>418.3</ele>
        <time>2018-08-23T06:25:12Z</time>
      </trkpt>
      <trkpt lat="42.801893" lon="-1.662914">
        <ele>418.3</ele>
        <time>2018-08-23T06:25:23Z</time>
      </trkpt>
      <trkpt lat="42.801833" lon="-1.662993">
        <ele>418.3</ele>
        <time>2018-08-23T06:25:27Z</time>
      </trkpt>
      <trkpt lat="42.801641" lon="-1.663170">
        <ele>417.8</ele>
        <time>2018-08-23T06:25:45Z</time>
      </trkpt>
      <trkpt lat="42.801501" lon="-1.663253">
        <ele>416.9</ele>
        <time>2018-08-23T06:25:59Z</time>
      </trkpt>
      <trkpt lat="42.801497" lon="-1.663298">
        <ele>416.9</ele>
        <time>2018-08-23T06:26:02Z</time>
      </trkpt>
      <trkpt lat="42.801474" lon="-1.663500">
        <ele>416.9</ele>
        <time>2018-08-23T06:26:15Z</time>
      </trkpt>
      <trkpt lat="42.801516" lon="-1.663623">
        <ele>416.9</ele>
        <time>2018-08-23T06:26:29Z</time>
      </trkpt>
      <trkpt lat="42.801508" lon="-1.663745">
        <ele>415.4</ele>
        <time>2018-08-23T06:26:36Z</time>
      </trkpt>
      <trkpt lat="42.801465" lon="-1.663983">
        <ele>414.0</ele>
        <time>2018-08-23T06:26:50Z</time>
      </trkpt>
      <trkpt lat="42.801440" lon="-1.664108">
        <ele>415.0</ele>
        <time>2018-08-23T06:27:03Z</time>
      </trkpt>
      <trkpt lat="42.801396" lon="-1.664381">
        <ele>415.4</ele>
        <time>2018-08-23T06:27:19Z</time>
      </trkpt>
      <trkpt lat="42.801340" lon="-1.664631">
        <ele>415.0</ele>
        <time>2018-08-23T06:27:34Z</time>
      </trkpt>
      <trkpt lat="42.801274" lon="-1.664807">
        <ele>415.4</ele>
        <time>2018-08-23T06:27:47Z</time>
      </trkpt>
      <trkpt lat="42.801254" lon="-1.664926">
        <ele>415.4</ele>
        <time>2018-08-23T06:28:02Z</time>
      </trkpt>
      <trkpt lat="42.801169" lon="-1.665057">
        <ele>415.4</ele>
        <time>2018-08-23T06:28:15Z</time>
      </trkpt>
      <trkpt lat="42.801159" lon="-1.665055">
        <ele>415.4</ele>
        <time>2018-08-23T06:28:16Z</time>
      </trkpt>
      <trkpt lat="42.801081" lon="-1.665095">
        <ele>416.4</ele>
        <time>2018-08-23T06:28:26Z</time>
      </trkpt>
      <trkpt lat="42.801032" lon="-1.665086">
        <ele>416.4</ele>
        <time>2018-08-23T06:29:13Z</time>
      </trkpt>
      <trkpt lat="42.800826" lon="-1.665240">
        <ele>415.9</ele>
        <time>2018-08-23T06:29:30Z</time>
      </trkpt>
      <trkpt lat="42.800821" lon="-1.665325">
        <ele>415.4</ele>
        <time>2018-08-23T06:29:35Z</time>
      </trkpt>
      <trkpt lat="42.800777" lon="-1.665396">
        <ele>415.4</ele>
        <time>2018-08-23T06:29:40Z</time>
      </trkpt>
      <trkpt lat="42.800714" lon="-1.665411">
        <ele>415.4</ele>
        <time>2018-08-23T06:29:45Z</time>
      </trkpt>
      <trkpt lat="42.800490" lon="-1.665433">
        <ele>415.9</ele>
        <time>2018-08-23T06:30:02Z</time>
      </trkpt>
      <trkpt lat="42.800273" lon="-1.665567">
        <ele>415.4</ele>
        <time>2018-08-23T06:30:21Z</time>
      </trkpt>
      <trkpt lat="42.800065" lon="-1.665732">
        <ele>415.4</ele>
        <time>2018-08-23T06:30:39Z</time>
      </trkpt>
      <trkpt lat="42.800014" lon="-1.665780">
        <ele>415.4</ele>
        <time>2018-08-23T06:30:44Z</time>
      </trkpt>
      <trkpt lat="42.799800" lon="-1.665933">
        <ele>415.9</ele>
        <time>2018-08-23T06:31:03Z</time>
      </trkpt>
      <trkpt lat="42.799748" lon="-1.665930">
        <ele>415.9</ele>
        <time>2018-08-23T06:31:07Z</time>
      </trkpt>
      <trkpt lat="42.799540" lon="-1.665961">
        <ele>415.0</ele>
        <time>2018-08-23T06:31:25Z</time>
      </trkpt>
      <trkpt lat="42.799324" lon="-1.666075">
        <ele>415.0</ele>
        <time>2018-08-23T06:31:43Z</time>
      </trkpt>
      <trkpt lat="42.799108" lon="-1.666202">
        <ele>415.0</ele>
        <time>2018-08-23T06:32:02Z</time>
      </trkpt>
      <trkpt lat="42.798884" lon="-1.666333">
        <ele>414.5</ele>
        <time>2018-08-23T06:32:21Z</time>
      </trkpt>
      <trkpt lat="42.798659" lon="-1.666448">
        <ele>414.0</ele>
        <time>2018-08-23T06:32:39Z</time>
      </trkpt>
      <trkpt lat="42.798471" lon="-1.666601">
        <ele>414.0</ele>
        <time>2018-08-23T06:32:55Z</time>
      </trkpt>
      <trkpt lat="42.798254" lon="-1.666765">
        <ele>413.5</ele>
        <time>2018-08-23T06:33:13Z</time>
      </trkpt>
      <trkpt lat="42.798145" lon="-1.666854">
        <ele>413.0</ele>
        <time>2018-08-23T06:33:27Z</time>
      </trkpt>
      <trkpt lat="42.798046" lon="-1.666882">
        <ele>413.5</ele>
        <time>2018-08-23T06:33:39Z</time>
      </trkpt>
      <trkpt lat="42.797945" lon="-1.667013">
        <ele>414.0</ele>
        <time>2018-08-23T06:33:49Z</time>
      </trkpt>
      <trkpt lat="42.797919" lon="-1.667034">
        <ele>414.5</ele>
        <time>2018-08-23T06:34:01Z</time>
      </trkpt>
      <trkpt lat="42.797929" lon="-1.667086">
        <ele>414.5</ele>
        <time>2018-08-23T06:34:13Z</time>
      </trkpt>
      <trkpt lat="42.797846" lon="-1.667146">
        <ele>414.0</ele>
        <time>2018-08-23T06:34:27Z</time>
      </trkpt>
      <trkpt lat="42.797761" lon="-1.667282">
        <ele>413.5</ele>
        <time>2018-08-23T06:34:39Z</time>
      </trkpt>
      <trkpt lat="42.797630" lon="-1.667573">
        <ele>413.5</ele>
        <time>2018-08-23T06:34:58Z</time>
      </trkpt>
      <trkpt lat="42.797494" lon="-1.667798">
        <ele>413.5</ele>
        <time>2018-08-23T06:35:15Z</time>
      </trkpt>
      <trkpt lat="42.797386" lon="-1.667963">
        <ele>413.5</ele>
        <time>2018-08-23T06:35:28Z</time>
      </trkpt>
      <trkpt lat="42.797361" lon="-1.668016">
        <ele>414.0</ele>
        <time>2018-08-23T06:35:32Z</time>
      </trkpt>
      <trkpt lat="42.797190" lon="-1.668245">
        <ele>414.5</ele>
        <time>2018-08-23T06:35:50Z</time>
      </trkpt>
      <trkpt lat="42.797012" lon="-1.668453">
        <ele>414.5</ele>
        <time>2018-08-23T06:36:08Z</time>
      </trkpt>
      <trkpt lat="42.796854" lon="-1.668601">
        <ele>415.0</ele>
        <time>2018-08-23T06:36:24Z</time>
      </trkpt>
      <trkpt lat="42.796711" lon="-1.668720">
        <ele>415.0</ele>
        <time>2018-08-23T06:36:38Z</time>
      </trkpt>
      <trkpt lat="42.796511" lon="-1.668876">
        <ele>415.4</ele>
        <time>2018-08-23T06:36:56Z</time>
      </trkpt>
      <trkpt lat="42.796488" lon="-1.668886">
        <ele>415.4</ele>
        <time>2018-08-23T06:36:58Z</time>
      </trkpt>
      <trkpt lat="42.796273" lon="-1.669056">
        <ele>415.9</ele>
        <time>2018-08-23T06:37:17Z</time>
      </trkpt>
      <trkpt lat="42.796104" lon="-1.669190">
        <ele>416.4</ele>
        <time>2018-08-23T06:37:32Z</time>
      </trkpt>
      <trkpt lat="42.796071" lon="-1.669218">
        <ele>416.9</ele>
        <time>2018-08-23T06:37:35Z</time>
      </trkpt>
      <trkpt lat="42.795932" lon="-1.669436">
        <ele>418.3</ele>
        <time>2018-08-23T06:37:53Z</time>
      </trkpt>
      <trkpt lat="42.795780" lon="-1.669668">
        <ele>419.8</ele>
        <time>2018-08-23T06:38:11Z</time>
      </trkpt>
      <trkpt lat="42.795667" lon="-1.669943">
        <ele>421.2</ele>
        <time>2018-08-23T06:38:29Z</time>
      </trkpt>
      <trkpt lat="42.795584" lon="-1.670216">
        <ele>422.2</ele>
        <time>2018-08-23T06:38:46Z</time>
      </trkpt>
      <trkpt lat="42.795530" lon="-1.670476">
        <ele>423.1</ele>
        <time>2018-08-23T06:39:02Z</time>
      </trkpt>
      <trkpt lat="42.795453" lon="-1.670727">
        <ele>422.2</ele>
        <time>2018-08-23T06:39:19Z</time>
      </trkpt>
      <trkpt lat="42.795362" lon="-1.670998">
        <ele>421.2</ele>
        <time>2018-08-23T06:39:37Z</time>
      </trkpt>
      <trkpt lat="42.795320" lon="-1.671096">
        <ele>420.7</ele>
        <time>2018-08-23T06:39:50Z</time>
      </trkpt>
      <trkpt lat="42.795321" lon="-1.671079">
        <ele>420.7</ele>
        <time>2018-08-23T06:40:04Z</time>
      </trkpt>
      <trkpt lat="42.795186" lon="-1.671397">
        <ele>419.8</ele>
        <time>2018-08-23T06:40:23Z</time>
      </trkpt>
      <trkpt lat="42.794997" lon="-1.671705">
        <ele>418.8</ele>
        <time>2018-08-23T06:40:44Z</time>
      </trkpt>
      <trkpt lat="42.794804" lon="-1.671934">
        <ele>418.8</ele>
        <time>2018-08-23T06:41:03Z</time>
      </trkpt>
      <trkpt lat="42.794609" lon="-1.672162">
        <ele>418.8</ele>
        <time>2018-08-23T06:41:21Z</time>
      </trkpt>
      <trkpt lat="42.794465" lon="-1.672387">
        <ele>418.3</ele>
        <time>2018-08-23T06:41:38Z</time>
      </trkpt>
      <trkpt lat="42.794326" lon="-1.672568">
        <ele>419.3</ele>
        <time>2018-08-23T06:41:53Z</time>
      </trkpt>
      <trkpt lat="42.794170" lon="-1.672759">
        <ele>419.8</ele>
        <time>2018-08-23T06:42:09Z</time>
      </trkpt>
      <trkpt lat="42.794093" lon="-1.672842">
        <ele>420.7</ele>
        <time>2018-08-23T06:42:17Z</time>
      </trkpt>
      <trkpt lat="42.794006" lon="-1.673092">
        <ele>419.3</ele>
        <time>2018-08-23T06:42:34Z</time>
      </trkpt>
      <trkpt lat="42.794013" lon="-1.673124">
        <ele>421.2</ele>
        <time>2018-08-23T06:42:36Z</time>
      </trkpt>
      <trkpt lat="42.793980" lon="-1.673175">
        <ele>420.2</ele>
        <time>2018-08-23T06:42:40Z</time>
      </trkpt>
      <trkpt lat="42.793916" lon="-1.673204">
        <ele>420.7</ele>
        <time>2018-08-23T06:42:46Z</time>
      </trkpt>
      <trkpt lat="42.793693" lon="-1.673150">
        <ele>420.7</ele>
        <time>2018-08-23T06:43:05Z</time>
      </trkpt>
      <trkpt lat="42.793616" lon="-1.673199">
        <ele>425.0</ele>
        <time>2018-08-23T06:43:12Z</time>
      </trkpt>
      <trkpt lat="42.793605" lon="-1.673207">
        <ele>421.2</ele>
        <time>2018-08-23T06:43:13Z</time>
      </trkpt>
      <trkpt lat="42.793343" lon="-1.673358">
        <ele>423.1</ele>
        <time>2018-08-23T06:43:36Z</time>
      </trkpt>
      <trkpt lat="42.793137" lon="-1.673460">
        <ele>424.6</ele>
        <time>2018-08-23T06:43:55Z</time>
      </trkpt>
      <trkpt lat="42.792953" lon="-1.673536">
        <ele>426.5</ele>
        <time>2018-08-23T06:44:11Z</time>
      </trkpt>
      <trkpt lat="42.792818" lon="-1.673577">
        <ele>427.0</ele>
        <time>2018-08-23T06:44:22Z</time>
      </trkpt>
      <trkpt lat="42.792635" lon="-1.673661">
        <ele>428.9</ele>
        <time>2018-08-23T06:44:37Z</time>
      </trkpt>
      <trkpt lat="42.792441" lon="-1.673730">
        <ele>430.3</ele>
        <time>2018-08-23T06:44:52Z</time>
      </trkpt>
      <trkpt lat="42.792359" lon="-1.673772">
        <ele>430.8</ele>
        <time>2018-08-23T06:44:59Z</time>
      </trkpt>
      <trkpt lat="42.792199" lon="-1.673869">
        <ele>431.8</ele>
        <time>2018-08-23T06:45:14Z</time>
      </trkpt>
      <trkpt lat="42.792034" lon="-1.673972">
        <ele>432.7</ele>
        <time>2018-08-23T06:45:30Z</time>
      </trkpt>
      <trkpt lat="42.791852" lon="-1.674087">
        <ele>434.2</ele>
        <time>2018-08-23T06:45:46Z</time>
      </trkpt>
      <trkpt lat="42.791843" lon="-1.674093">
        <ele>434.2</ele>
        <time>2018-08-23T06:45:47Z</time>
      </trkpt>
      <trkpt lat="42.791694" lon="-1.674179">
        <ele>435.1</ele>
        <time>2018-08-23T06:46:01Z</time>
      </trkpt>
      <trkpt lat="42.791520" lon="-1.674322">
        <ele>435.6</ele>
        <time>2018-08-23T06:46:16Z</time>
      </trkpt>
      <trkpt lat="42.791381" lon="-1.674442">
        <ele>437.1</ele>
        <time>2018-08-23T06:46:30Z</time>
      </trkpt>
      <trkpt lat="42.791359" lon="-1.674461">
        <ele>437.1</ele>
        <time>2018-08-23T06:46:32Z</time>
      </trkpt>
      <trkpt lat="42.791326" lon="-1.674475">
        <ele>437.1</ele>
        <time>2018-08-23T06:46:35Z</time>
      </trkpt>
      <trkpt lat="42.791148" lon="-1.674573">
        <ele>438.5</ele>
        <time>2018-08-23T06:46:50Z</time>
      </trkpt>
      <trkpt lat="42.791125" lon="-1.674559">
        <ele>439.0</ele>
        <time>2018-08-23T06:47:03Z</time>
      </trkpt>
      <trkpt lat="42.791039" lon="-1.674630">
        <ele>439.5</ele>
        <time>2018-08-23T06:47:19Z</time>
      </trkpt>
      <trkpt lat="42.790945" lon="-1.674679">
        <ele>439.9</ele>
        <time>2018-08-23T06:47:29Z</time>
      </trkpt>
      <trkpt lat="42.790821" lon="-1.674725">
        <ele>441.4</ele>
        <time>2018-08-23T06:47:42Z</time>
      </trkpt>
      <trkpt lat="42.790666" lon="-1.674817">
        <ele>442.3</ele>
        <time>2018-08-23T06:47:57Z</time>
      </trkpt>
      <trkpt lat="42.790557" lon="-1.674880">
        <ele>443.3</ele>
        <time>2018-08-23T06:48:07Z</time>
      </trkpt>
      <trkpt lat="42.790506" lon="-1.674888">
        <ele>443.3</ele>
        <time>2018-08-23T06:48:11Z</time>
      </trkpt>
      <trkpt lat="42.790335" lon="-1.674974">
        <ele>445.2</ele>
        <time>2018-08-23T06:48:27Z</time>
      </trkpt>
      <trkpt lat="42.790251" lon="-1.675001">
        <ele>445.2</ele>
        <time>2018-08-23T06:48:41Z</time>
      </trkpt>
      <trkpt lat="42.790234" lon="-1.675016">
        <ele>445.2</ele>
        <time>2018-08-23T06:48:48Z</time>
      </trkpt>
      <trkpt lat="42.790079" lon="-1.675052">
        <ele>447.1</ele>
        <time>2018-08-23T06:49:00Z</time>
      </trkpt>
      <trkpt lat="42.789993" lon="-1.675077">
        <ele>447.6</ele>
        <time>2018-08-23T06:49:06Z</time>
      </trkpt>
      <trkpt lat="42.789934" lon="-1.675080">
        <ele>449.1</ele>
        <time>2018-08-23T06:49:13Z</time>
      </trkpt>
      <trkpt lat="42.789831" lon="-1.675104">
        <ele>449.5</ele>
        <time>2018-08-23T06:49:23Z</time>
      </trkpt>
      <trkpt lat="42.789681" lon="-1.675132">
        <ele>451.0</ele>
        <time>2018-08-23T06:49:37Z</time>
      </trkpt>
      <trkpt lat="42.789564" lon="-1.675121">
        <ele>451.5</ele>
        <time>2018-08-23T06:49:47Z</time>
      </trkpt>
      <trkpt lat="42.789424" lon="-1.675147">
        <ele>452.9</ele>
        <time>2018-08-23T06:49:58Z</time>
      </trkpt>
      <trkpt lat="42.789340" lon="-1.675149">
        <ele>454.4</ele>
        <time>2018-08-23T06:50:06Z</time>
      </trkpt>
      <trkpt lat="42.789234" lon="-1.675138">
        <ele>455.8</ele>
        <time>2018-08-23T06:50:16Z</time>
      </trkpt>
      <trkpt lat="42.789075" lon="-1.675138">
        <ele>456.8</ele>
        <time>2018-08-23T06:50:28Z</time>
      </trkpt>
      <trkpt lat="42.789035" lon="-1.675156">
        <ele>456.8</ele>
        <time>2018-08-23T06:50:32Z</time>
      </trkpt>
      <trkpt lat="42.788945" lon="-1.675192">
        <ele>457.7</ele>
        <time>2018-08-23T06:50:41Z</time>
      </trkpt>
      <trkpt lat="42.788857" lon="-1.675197">
        <ele>458.7</ele>
        <time>2018-08-23T06:50:49Z</time>
      </trkpt>
      <trkpt lat="42.788767" lon="-1.675188">
        <ele>459.6</ele>
        <time>2018-08-23T06:50:55Z</time>
      </trkpt>
      <trkpt lat="42.788604" lon="-1.675163">
        <ele>460.6</ele>
        <time>2018-08-23T06:51:08Z</time>
      </trkpt>
      <trkpt lat="42.788597" lon="-1.675160">
        <ele>460.1</ele>
        <time>2018-08-23T06:51:09Z</time>
      </trkpt>
      <trkpt lat="42.788501" lon="-1.675203">
        <ele>460.6</ele>
        <time>2018-08-23T06:51:17Z</time>
      </trkpt>
      <trkpt lat="42.788487" lon="-1.675228">
        <ele>461.1</ele>
        <time>2018-08-23T06:51:20Z</time>
      </trkpt>
      <trkpt lat="42.788429" lon="-1.675263">
        <ele>460.6</ele>
        <time>2018-08-23T06:51:25Z</time>
      </trkpt>
      <trkpt lat="42.788364" lon="-1.675302">
        <ele>461.6</ele>
        <time>2018-08-23T06:51:31Z</time>
      </trkpt>
      <trkpt lat="42.788250" lon="-1.675493">
        <ele>461.6</ele>
        <time>2018-08-23T06:51:45Z</time>
      </trkpt>
      <trkpt lat="42.788231" lon="-1.675511">
        <ele>460.1</ele>
        <time>2018-08-23T06:51:47Z</time>
      </trkpt>
      <trkpt lat="42.788221" lon="-1.675522">
        <ele>460.1</ele>
        <time>2018-08-23T06:51:48Z</time>
      </trkpt>
      <trkpt lat="42.788211" lon="-1.675533">
        <ele>464.5</ele>
        <time>2018-08-23T06:51:49Z</time>
      </trkpt>
      <trkpt lat="42.788199" lon="-1.675546">
        <ele>462.5</ele>
        <time>2018-08-23T06:51:50Z</time>
      </trkpt>
      <trkpt lat="42.788095" lon="-1.675696">
        <ele>462.5</ele>
        <time>2018-08-23T06:52:03Z</time>
      </trkpt>
      <trkpt lat="42.788074" lon="-1.675720">
        <ele>462.5</ele>
        <time>2018-08-23T06:52:05Z</time>
      </trkpt>
      <trkpt lat="42.788060" lon="-1.675760">
        <ele>463.0</ele>
        <time>2018-08-23T06:52:08Z</time>
      </trkpt>
      <trkpt lat="42.788013" lon="-1.675817">
        <ele>463.0</ele>
        <time>2018-08-23T06:52:13Z</time>
      </trkpt>
      <trkpt lat="42.787972" lon="-1.675960">
        <ele>464.0</ele>
        <time>2018-08-23T06:52:22Z</time>
      </trkpt>
      <trkpt lat="42.787984" lon="-1.676036">
        <ele>464.5</ele>
        <time>2018-08-23T06:52:27Z</time>
      </trkpt>
      <trkpt lat="42.787988" lon="-1.676104">
        <ele>465.4</ele>
        <time>2018-08-23T06:52:39Z</time>
      </trkpt>
      <trkpt lat="42.788015" lon="-1.676161">
        <ele>466.4</ele>
        <time>2018-08-23T06:52:45Z</time>
      </trkpt>
      <trkpt lat="42.788072" lon="-1.676200">
        <ele>466.4</ele>
        <time>2018-08-23T06:52:50Z</time>
      </trkpt>
      <trkpt lat="42.788095" lon="-1.676218">
        <ele>466.4</ele>
        <time>2018-08-23T06:52:52Z</time>
      </trkpt>
      <trkpt lat="42.788045" lon="-1.676326">
        <ele>465.9</ele>
        <time>2018-08-23T06:53:06Z</time>
      </trkpt>
      <trkpt lat="42.787824" lon="-1.676312">
        <ele>465.4</ele>
        <time>2018-08-23T06:53:23Z</time>
      </trkpt>
      <trkpt lat="42.787650" lon="-1.676383">
        <ele>464.0</ele>
        <time>2018-08-23T06:53:39Z</time>
      </trkpt>
      <trkpt lat="42.787551" lon="-1.676440">
        <ele>463.5</ele>
        <time>2018-08-23T06:53:50Z</time>
      </trkpt>
      <trkpt lat="42.787463" lon="-1.676472">
        <ele>463.0</ele>
        <time>2018-08-23T06:53:58Z</time>
      </trkpt>
      <trkpt lat="42.787294" lon="-1.676573">
        <ele>461.6</ele>
        <time>2018-08-23T06:54:13Z</time>
      </trkpt>
      <trkpt lat="42.787119" lon="-1.676708">
        <ele>460.6</ele>
        <time>2018-08-23T06:54:29Z</time>
      </trkpt>
      <trkpt lat="42.786919" lon="-1.676817">
        <ele>459.2</ele>
        <time>2018-08-23T06:54:46Z</time>
      </trkpt>
      <trkpt lat="42.786765" lon="-1.676918">
        <ele>458.2</ele>
        <time>2018-08-23T06:55:00Z</time>
      </trkpt>
      <trkpt lat="42.786634" lon="-1.677043">
        <ele>457.7</ele>
        <time>2018-08-23T06:55:13Z</time>
      </trkpt>
      <trkpt lat="42.786557" lon="-1.677077">
        <ele>458.2</ele>
        <time>2018-08-23T06:55:19Z</time>
      </trkpt>
      <trkpt lat="42.786408" lon="-1.677158">
        <ele>457.7</ele>
        <time>2018-08-23T06:55:34Z</time>
      </trkpt>
      <trkpt lat="42.786358" lon="-1.677160">
        <ele>458.2</ele>
        <time>2018-08-23T06:55:39Z</time>
      </trkpt>
      <trkpt lat="42.786230" lon="-1.677412">
        <ele>456.8</ele>
        <time>2018-08-23T06:55:58Z</time>
      </trkpt>
      <trkpt lat="42.786194" lon="-1.677530">
        <ele>456.8</ele>
        <time>2018-08-23T06:56:06Z</time>
      </trkpt>
      <trkpt lat="42.786151" lon="-1.677783">
        <ele>456.3</ele>
        <time>2018-08-23T06:56:22Z</time>
      </trkpt>
      <trkpt lat="42.786062" lon="-1.678079">
        <ele>456.8</ele>
        <time>2018-08-23T06:56:39Z</time>
      </trkpt>
      <trkpt lat="42.786014" lon="-1.678255">
        <ele>456.3</ele>
        <time>2018-08-23T06:56:51Z</time>
      </trkpt>
      <trkpt lat="42.785938" lon="-1.678443">
        <ele>456.3</ele>
        <time>2018-08-23T06:57:04Z</time>
      </trkpt>
      <trkpt lat="42.785802" lon="-1.678574">
        <ele>455.8</ele>
        <time>2018-08-23T06:57:19Z</time>
      </trkpt>
      <trkpt lat="42.785640" lon="-1.678713">
        <ele>454.4</ele>
        <time>2018-08-23T06:57:34Z</time>
      </trkpt>
      <trkpt lat="42.785579" lon="-1.678767">
        <ele>454.4</ele>
        <time>2018-08-23T06:57:40Z</time>
      </trkpt>
      <trkpt lat="42.785494" lon="-1.678906">
        <ele>453.4</ele>
        <time>2018-08-23T06:57:53Z</time>
      </trkpt>
      <trkpt lat="42.785352" lon="-1.679044">
        <ele>452.4</ele>
        <time>2018-08-23T06:58:07Z</time>
      </trkpt>
      <trkpt lat="42.785211" lon="-1.679169">
        <ele>451.5</ele>
        <time>2018-08-23T06:58:21Z</time>
      </trkpt>
      <trkpt lat="42.785047" lon="-1.679332">
        <ele>450.5</ele>
        <time>2018-08-23T06:58:37Z</time>
      </trkpt>
      <trkpt lat="42.784878" lon="-1.679502">
        <ele>449.1</ele>
        <time>2018-08-23T06:58:53Z</time>
      </trkpt>
      <trkpt lat="42.784697" lon="-1.679703">
        <ele>447.1</ele>
        <time>2018-08-23T06:59:11Z</time>
      </trkpt>
      <trkpt lat="42.784573" lon="-1.679855">
        <ele>446.7</ele>
        <time>2018-08-23T06:59:25Z</time>
      </trkpt>
      <trkpt lat="42.784461" lon="-1.679964">
        <ele>445.7</ele>
        <time>2018-08-23T06:59:39Z</time>
      </trkpt>
      <trkpt lat="42.784332" lon="-1.680164">
        <ele>443.8</ele>
        <time>2018-08-23T06:59:55Z</time>
      </trkpt>
      <trkpt lat="42.784157" lon="-1.680359">
        <ele>441.9</ele>
        <time>2018-08-23T07:00:14Z</time>
      </trkpt>
      <trkpt lat="42.784015" lon="-1.680474">
        <ele>441.4</ele>
        <time>2018-08-23T07:00:29Z</time>
      </trkpt>
      <trkpt lat="42.783969" lon="-1.680503">
        <ele>440.9</ele>
        <time>2018-08-23T07:00:33Z</time>
      </trkpt>
      <trkpt lat="42.783816" lon="-1.680603">
        <ele>439.9</ele>
        <time>2018-08-23T07:00:49Z</time>
      </trkpt>
      <trkpt lat="42.783647" lon="-1.680714">
        <ele>439.5</ele>
        <time>2018-08-23T07:01:05Z</time>
      </trkpt>
      <trkpt lat="42.783550" lon="-1.680782">
        <ele>439.0</ele>
        <time>2018-08-23T07:01:15Z</time>
      </trkpt>
      <trkpt lat="42.783379" lon="-1.680919">
        <ele>438.0</ele>
        <time>2018-08-23T07:01:33Z</time>
      </trkpt>
      <trkpt lat="42.783239" lon="-1.681030">
        <ele>437.5</ele>
        <time>2018-08-23T07:01:47Z</time>
      </trkpt>
      <trkpt lat="42.783074" lon="-1.681151">
        <ele>437.1</ele>
        <time>2018-08-23T07:02:03Z</time>
      </trkpt>
      <trkpt lat="42.782942" lon="-1.681265">
        <ele>436.6</ele>
        <time>2018-08-23T07:02:17Z</time>
      </trkpt>
      <trkpt lat="42.782836" lon="-1.681354">
        <ele>437.1</ele>
        <time>2018-08-23T07:02:27Z</time>
      </trkpt>
      <trkpt lat="42.782795" lon="-1.681407">
        <ele>436.6</ele>
        <time>2018-08-23T07:02:31Z</time>
      </trkpt>
      <trkpt lat="42.782693" lon="-1.681509">
        <ele>436.6</ele>
        <time>2018-08-23T07:02:41Z</time>
      </trkpt>
      <trkpt lat="42.782620" lon="-1.681603">
        <ele>436.6</ele>
        <time>2018-08-23T07:02:51Z</time>
      </trkpt>
      <trkpt lat="42.782535" lon="-1.681735">
        <ele>436.6</ele>
        <time>2018-08-23T07:03:03Z</time>
      </trkpt>
      <trkpt lat="42.782494" lon="-1.681810">
        <ele>436.1</ele>
        <time>2018-08-23T07:03:09Z</time>
      </trkpt>
      <trkpt lat="42.782366" lon="-1.682039">
        <ele>436.6</ele>
        <time>2018-08-23T07:03:28Z</time>
      </trkpt>
      <trkpt lat="42.782226" lon="-1.682222">
        <ele>436.6</ele>
        <time>2018-08-23T07:03:45Z</time>
      </trkpt>
      <trkpt lat="42.782082" lon="-1.682400">
        <ele>436.1</ele>
        <time>2018-08-23T07:04:01Z</time>
      </trkpt>
      <trkpt lat="42.781914" lon="-1.682575">
        <ele>436.1</ele>
        <time>2018-08-23T07:04:18Z</time>
      </trkpt>
      <trkpt lat="42.781839" lon="-1.682701">
        <ele>436.1</ele>
        <time>2018-08-23T07:04:33Z</time>
      </trkpt>
      <trkpt lat="42.781755" lon="-1.682945">
        <ele>436.1</ele>
        <time>2018-08-23T07:05:09Z</time>
      </trkpt>
      <trkpt lat="42.781672" lon="-1.683099">
        <ele>436.1</ele>
        <time>2018-08-23T07:05:19Z</time>
      </trkpt>
      <trkpt lat="42.781653" lon="-1.683177">
        <ele>436.1</ele>
        <time>2018-08-23T07:05:23Z</time>
      </trkpt>
      <trkpt lat="42.781621" lon="-1.683237">
        <ele>436.6</ele>
        <time>2018-08-23T07:05:27Z</time>
      </trkpt>
      <trkpt lat="42.781518" lon="-1.683521">
        <ele>436.6</ele>
        <time>2018-08-23T07:05:45Z</time>
      </trkpt>
      <trkpt lat="42.781491" lon="-1.683600">
        <ele>436.6</ele>
        <time>2018-08-23T07:05:51Z</time>
      </trkpt>
      <trkpt lat="42.781372" lon="-1.683795">
        <ele>436.6</ele>
        <time>2018-08-23T07:06:06Z</time>
      </trkpt>
      <trkpt lat="42.781289" lon="-1.683976">
        <ele>436.6</ele>
        <time>2018-08-23T07:06:22Z</time>
      </trkpt>
      <trkpt lat="42.781197" lon="-1.684115">
        <ele>436.6</ele>
        <time>2018-08-23T07:06:32Z</time>
      </trkpt>
      <trkpt lat="42.781088" lon="-1.684292">
        <ele>436.6</ele>
        <time>2018-08-23T07:06:45Z</time>
      </trkpt>
      <trkpt lat="42.780975" lon="-1.684498">
        <ele>436.6</ele>
        <time>2018-08-23T07:07:00Z</time>
      </trkpt>
      <trkpt lat="42.780857" lon="-1.684685">
        <ele>437.1</ele>
        <time>2018-08-23T07:07:14Z</time>
      </trkpt>
      <trkpt lat="42.780714" lon="-1.684938">
        <ele>437.1</ele>
        <time>2018-08-23T07:07:32Z</time>
      </trkpt>
      <trkpt lat="42.780578" lon="-1.685169">
        <ele>437.1</ele>
        <time>2018-08-23T07:07:49Z</time>
      </trkpt>
      <trkpt lat="42.780477" lon="-1.685333">
        <ele>437.1</ele>
        <time>2018-08-23T07:08:03Z</time>
      </trkpt>
      <trkpt lat="42.780338" lon="-1.685549">
        <ele>438.0</ele>
        <time>2018-08-23T07:08:20Z</time>
      </trkpt>
      <trkpt lat="42.780306" lon="-1.685595">
        <ele>438.0</ele>
        <time>2018-08-23T07:08:24Z</time>
      </trkpt>
      <trkpt lat="42.780254" lon="-1.685690">
        <ele>438.0</ele>
        <time>2018-08-23T07:08:32Z</time>
      </trkpt>
      <trkpt lat="42.780141" lon="-1.685884">
        <ele>438.5</ele>
        <time>2018-08-23T07:08:48Z</time>
      </trkpt>
      <trkpt lat="42.780124" lon="-1.685919">
        <ele>439.0</ele>
        <time>2018-08-23T07:08:51Z</time>
      </trkpt>
      <trkpt lat="42.780117" lon="-1.685947">
        <ele>439.0</ele>
        <time>2018-08-23T07:08:53Z</time>
      </trkpt>
      <trkpt lat="42.780100" lon="-1.685969">
        <ele>439.5</ele>
        <time>2018-08-23T07:08:56Z</time>
      </trkpt>
      <trkpt lat="42.779931" lon="-1.686068">
        <ele>439.0</ele>
        <time>2018-08-23T07:09:12Z</time>
      </trkpt>
      <trkpt lat="42.779890" lon="-1.686096">
        <ele>439.5</ele>
        <time>2018-08-23T07:09:17Z</time>
      </trkpt>
      <trkpt lat="42.779795" lon="-1.686232">
        <ele>439.9</ele>
        <time>2018-08-23T07:09:29Z</time>
      </trkpt>
      <trkpt lat="42.779662" lon="-1.686414">
        <ele>440.9</ele>
        <time>2018-08-23T07:09:45Z</time>
      </trkpt>
      <trkpt lat="42.779519" lon="-1.686607">
        <ele>441.9</ele>
        <time>2018-08-23T07:10:02Z</time>
      </trkpt>
      <trkpt lat="42.779378" lon="-1.686797">
        <ele>442.3</ele>
        <time>2018-08-23T07:10:19Z</time>
      </trkpt>
      <trkpt lat="42.779242" lon="-1.686965">
        <ele>443.3</ele>
        <time>2018-08-23T07:10:35Z</time>
      </trkpt>
      <trkpt lat="42.779093" lon="-1.687162">
        <ele>443.3</ele>
        <time>2018-08-23T07:10:52Z</time>
      </trkpt>
      <trkpt lat="42.778915" lon="-1.687390">
        <ele>444.3</ele>
        <time>2018-08-23T07:11:12Z</time>
      </trkpt>
      <trkpt lat="42.778892" lon="-1.687401">
        <ele>444.3</ele>
        <time>2018-08-23T07:11:14Z</time>
      </trkpt>
      <trkpt lat="42.778872" lon="-1.687472">
        <ele>443.8</ele>
        <time>2018-08-23T07:11:18Z</time>
      </trkpt>
      <trkpt lat="42.778696" lon="-1.687705">
        <ele>444.3</ele>
        <time>2018-08-23T07:11:36Z</time>
      </trkpt>
      <trkpt lat="42.778533" lon="-1.687901">
        <ele>444.8</ele>
        <time>2018-08-23T07:11:52Z</time>
      </trkpt>
      <trkpt lat="42.778374" lon="-1.688125">
        <ele>445.2</ele>
        <time>2018-08-23T07:12:10Z</time>
      </trkpt>
      <trkpt lat="42.778204" lon="-1.688272">
        <ele>445.2</ele>
        <time>2018-08-23T07:12:26Z</time>
      </trkpt>
      <trkpt lat="42.778063" lon="-1.688441">
        <ele>445.2</ele>
        <time>2018-08-23T07:12:41Z</time>
      </trkpt>
      <trkpt lat="42.777990" lon="-1.688712">
        <ele>445.2</ele>
        <time>2018-08-23T07:12:58Z</time>
      </trkpt>
      <trkpt lat="42.778018" lon="-1.689031">
        <ele>444.8</ele>
        <time>2018-08-23T07:13:15Z</time>
      </trkpt>
      <trkpt lat="42.778048" lon="-1.689334">
        <ele>444.3</ele>
        <time>2018-08-23T07:13:32Z</time>
      </trkpt>
      <trkpt lat="42.778099" lon="-1.689643">
        <ele>444.3</ele>
        <time>2018-08-23T07:13:50Z</time>
      </trkpt>
      <trkpt lat="42.778083" lon="-1.689837">
        <ele>444.3</ele>
        <time>2018-08-23T07:14:05Z</time>
      </trkpt>
      <trkpt lat="42.777904" lon="-1.689934">
        <ele>443.8</ele>
        <time>2018-08-23T07:14:22Z</time>
      </trkpt>
      <trkpt lat="42.777887" lon="-1.689947">
        <ele>444.8</ele>
        <time>2018-08-23T07:14:24Z</time>
      </trkpt>
      <trkpt lat="42.777829" lon="-1.689973">
        <ele>445.2</ele>
        <time>2018-08-23T07:14:29Z</time>
      </trkpt>
      <trkpt lat="42.777647" lon="-1.690068">
        <ele>445.7</ele>
        <time>2018-08-23T07:14:46Z</time>
      </trkpt>
      <trkpt lat="42.777466" lon="-1.690162">
        <ele>446.2</ele>
        <time>2018-08-23T07:15:02Z</time>
      </trkpt>
      <trkpt lat="42.777252" lon="-1.690273">
        <ele>447.1</ele>
        <time>2018-08-23T07:15:20Z</time>
      </trkpt>
      <trkpt lat="42.777226" lon="-1.690279">
        <ele>446.7</ele>
        <time>2018-08-23T07:15:22Z</time>
      </trkpt>
      <trkpt lat="42.777180" lon="-1.690303">
        <ele>447.1</ele>
        <time>2018-08-23T07:15:26Z</time>
      </trkpt>
      <trkpt lat="42.777032" lon="-1.690382">
        <ele>447.6</ele>
        <time>2018-08-23T07:15:39Z</time>
      </trkpt>
      <trkpt lat="42.776957" lon="-1.690428">
        <ele>448.1</ele>
        <time>2018-08-23T07:15:45Z</time>
      </trkpt>
      <trkpt lat="42.776748" lon="-1.690527">
        <ele>448.6</ele>
        <time>2018-08-23T07:16:03Z</time>
      </trkpt>
      <trkpt lat="42.776551" lon="-1.690609">
        <ele>449.5</ele>
        <time>2018-08-23T07:16:21Z</time>
      </trkpt>
      <trkpt lat="42.776373" lon="-1.690690">
        <ele>450.0</ele>
        <time>2018-08-23T07:16:36Z</time>
      </trkpt>
      <trkpt lat="42.776185" lon="-1.690806">
        <ele>450.5</ele>
        <time>2018-08-23T07:16:52Z</time>
      </trkpt>
      <trkpt lat="42.776164" lon="-1.690819">
        <ele>451.0</ele>
        <time>2018-08-23T07:16:54Z</time>
      </trkpt>
      <trkpt lat="42.776119" lon="-1.690840">
        <ele>451.0</ele>
        <time>2018-08-23T07:16:58Z</time>
      </trkpt>
      <trkpt lat="42.775984" lon="-1.690915">
        <ele>452.4</ele>
        <time>2018-08-23T07:17:11Z</time>
      </trkpt>
      <trkpt lat="42.775853" lon="-1.690958">
        <ele>453.9</ele>
        <time>2018-08-23T07:17:24Z</time>
      </trkpt>
      <trkpt lat="42.775792" lon="-1.690990">
        <ele>454.4</ele>
        <time>2018-08-23T07:17:30Z</time>
      </trkpt>
      <trkpt lat="42.775762" lon="-1.691015">
        <ele>455.3</ele>
        <time>2018-08-23T07:17:33Z</time>
      </trkpt>
      <trkpt lat="42.775723" lon="-1.691035">
        <ele>455.3</ele>
        <time>2018-08-23T07:17:37Z</time>
      </trkpt>
      <trkpt lat="42.775696" lon="-1.691042">
        <ele>455.8</ele>
        <time>2018-08-23T07:17:40Z</time>
      </trkpt>
      <trkpt lat="42.775568" lon="-1.691094">
        <ele>457.7</ele>
        <time>2018-08-23T07:17:54Z</time>
      </trkpt>
      <trkpt lat="42.775514" lon="-1.691105">
        <ele>459.2</ele>
        <time>2018-08-23T07:18:05Z</time>
      </trkpt>
      <trkpt lat="42.775445" lon="-1.691151">
        <ele>460.6</ele>
        <time>2018-08-23T07:18:16Z</time>
      </trkpt>
      <trkpt lat="42.775356" lon="-1.691270">
        <ele>461.6</ele>
        <time>2018-08-23T07:18:28Z</time>
      </trkpt>
      <trkpt lat="42.775337" lon="-1.691283">
        <ele>462.0</ele>
        <time>2018-08-23T07:18:30Z</time>
      </trkpt>
      <trkpt lat="42.775249" lon="-1.691376">
        <ele>462.5</ele>
        <time>2018-08-23T07:18:40Z</time>
      </trkpt>
      <trkpt lat="42.775107" lon="-1.691458">
        <ele>463.0</ele>
        <time>2018-08-23T07:18:54Z</time>
      </trkpt>
      <trkpt lat="42.775075" lon="-1.691517">
        <ele>463.5</ele>
        <time>2018-08-23T07:19:06Z</time>
      </trkpt>
      <trkpt lat="42.775092" lon="-1.691524">
        <ele>463.5</ele>
        <time>2018-08-23T07:19:20Z</time>
      </trkpt>
      <trkpt lat="42.775090" lon="-1.691518">
        <ele>463.5</ele>
        <time>2018-08-23T07:19:26Z</time>
      </trkpt>
      <trkpt lat="42.775041" lon="-1.691534">
        <ele>463.5</ele>
        <time>2018-08-23T07:19:30Z</time>
      </trkpt>
      <trkpt lat="42.774967" lon="-1.691615">
        <ele>463.5</ele>
        <time>2018-08-23T07:19:37Z</time>
      </trkpt>
      <trkpt lat="42.774851" lon="-1.691783">
        <ele>464.5</ele>
        <time>2018-08-23T07:19:51Z</time>
      </trkpt>
      <trkpt lat="42.774719" lon="-1.691969">
        <ele>464.5</ele>
        <time>2018-08-23T07:20:07Z</time>
      </trkpt>
      <trkpt lat="42.774572" lon="-1.692137">
        <ele>465.4</ele>
        <time>2018-08-23T07:20:23Z</time>
      </trkpt>
      <trkpt lat="42.774406" lon="-1.692299">
        <ele>465.9</ele>
        <time>2018-08-23T07:20:40Z</time>
      </trkpt>
      <trkpt lat="42.774265" lon="-1.692458">
        <ele>466.9</ele>
        <time>2018-08-23T07:20:56Z</time>
      </trkpt>
      <trkpt lat="42.774191" lon="-1.692583">
        <ele>467.3</ele>
        <time>2018-08-23T07:21:06Z</time>
      </trkpt>
      <trkpt lat="42.774157" lon="-1.692627">
        <ele>466.9</ele>
        <time>2018-08-23T07:21:10Z</time>
      </trkpt>
      <trkpt lat="42.774039" lon="-1.692787">
        <ele>467.8</ele>
        <time>2018-08-23T07:21:23Z</time>
      </trkpt>
      <trkpt lat="42.774004" lon="-1.692825">
        <ele>467.8</ele>
        <time>2018-08-23T07:21:27Z</time>
      </trkpt>
      <trkpt lat="42.773978" lon="-1.692886">
        <ele>467.8</ele>
        <time>2018-08-23T07:21:31Z</time>
      </trkpt>
      <trkpt lat="42.773860" lon="-1.693004">
        <ele>468.3</ele>
        <time>2018-08-23T07:21:43Z</time>
      </trkpt>
      <trkpt lat="42.773776" lon="-1.693130">
        <ele>468.8</ele>
        <time>2018-08-23T07:21:54Z</time>
      </trkpt>
      <trkpt lat="42.773662" lon="-1.693270">
        <ele>469.7</ele>
        <time>2018-08-23T07:22:08Z</time>
      </trkpt>
      <trkpt lat="42.773593" lon="-1.693363">
        <ele>470.2</ele>
        <time>2018-08-23T07:22:15Z</time>
      </trkpt>
      <trkpt lat="42.773447" lon="-1.693549">
        <ele>471.2</ele>
        <time>2018-08-23T07:22:31Z</time>
      </trkpt>
      <trkpt lat="42.773404" lon="-1.693585">
        <ele>471.2</ele>
        <time>2018-08-23T07:22:35Z</time>
      </trkpt>
      <trkpt lat="42.773367" lon="-1.693631">
        <ele>471.2</ele>
        <time>2018-08-23T07:22:39Z</time>
      </trkpt>
      <trkpt lat="42.773335" lon="-1.693674">
        <ele>471.7</ele>
        <time>2018-08-23T07:22:43Z</time>
      </trkpt>
      <trkpt lat="42.773280" lon="-1.693757">
        <ele>473.1</ele>
        <time>2018-08-23T07:22:51Z</time>
      </trkpt>
      <trkpt lat="42.773253" lon="-1.693818">
        <ele>471.7</ele>
        <time>2018-08-23T07:22:56Z</time>
      </trkpt>
      <trkpt lat="42.773100" lon="-1.693943">
        <ele>473.6</ele>
        <time>2018-08-23T07:23:12Z</time>
      </trkpt>
      <trkpt lat="42.772916" lon="-1.694063">
        <ele>475.5</ele>
        <time>2018-08-23T07:23:29Z</time>
      </trkpt>
      <trkpt lat="42.772896" lon="-1.694072">
        <ele>475.0</ele>
        <time>2018-08-23T07:23:31Z</time>
      </trkpt>
      <trkpt lat="42.772746" lon="-1.694215">
        <ele>476.0</ele>
        <time>2018-08-23T07:23:45Z</time>
      </trkpt>
      <trkpt lat="42.772700" lon="-1.694373">
        <ele>477.4</ele>
        <time>2018-08-23T07:23:58Z</time>
      </trkpt>
      <trkpt lat="42.772596" lon="-1.694499">
        <ele>478.4</ele>
        <time>2018-08-23T07:24:10Z</time>
      </trkpt>
      <trkpt lat="42.772585" lon="-1.694524">
        <ele>478.4</ele>
        <time>2018-08-23T07:24:12Z</time>
      </trkpt>
      <trkpt lat="42.772571" lon="-1.694544">
        <ele>478.4</ele>
        <time>2018-08-23T07:24:14Z</time>
      </trkpt>
      <trkpt lat="42.772531" lon="-1.694597">
        <ele>479.4</ele>
        <time>2018-08-23T07:24:19Z</time>
      </trkpt>
      <trkpt lat="42.772456" lon="-1.694699">
        <ele>480.3</ele>
        <time>2018-08-23T07:24:28Z</time>
      </trkpt>
      <trkpt lat="42.772436" lon="-1.694713">
        <ele>480.3</ele>
        <time>2018-08-23T07:24:30Z</time>
      </trkpt>
      <trkpt lat="42.772402" lon="-1.694763">
        <ele>480.8</ele>
        <time>2018-08-23T07:24:35Z</time>
      </trkpt>
      <trkpt lat="42.772360" lon="-1.694835">
        <ele>481.8</ele>
        <time>2018-08-23T07:24:41Z</time>
      </trkpt>
      <trkpt lat="42.772327" lon="-1.694884">
        <ele>481.8</ele>
        <time>2018-08-23T07:24:45Z</time>
      </trkpt>
      <trkpt lat="42.772275" lon="-1.694959">
        <ele>482.7</ele>
        <time>2018-08-23T07:24:51Z</time>
      </trkpt>
      <trkpt lat="42.772249" lon="-1.694992">
        <ele>483.2</ele>
        <time>2018-08-23T07:24:54Z</time>
      </trkpt>
      <trkpt lat="42.772207" lon="-1.695066">
        <ele>484.2</ele>
        <time>2018-08-23T07:25:00Z</time>
      </trkpt>
      <trkpt lat="42.772099" lon="-1.695213">
        <ele>485.1</ele>
        <time>2018-08-23T07:25:13Z</time>
      </trkpt>
      <trkpt lat="42.771980" lon="-1.695436">
        <ele>486.1</ele>
        <time>2018-08-23T07:25:30Z</time>
      </trkpt>
      <trkpt lat="42.771887" lon="-1.695681">
        <ele>486.6</ele>
        <time>2018-08-23T07:25:47Z</time>
      </trkpt>
      <trkpt lat="42.771832" lon="-1.695816">
        <ele>487.0</ele>
        <time>2018-08-23T07:25:56Z</time>
      </trkpt>
      <trkpt lat="42.771713" lon="-1.696038">
        <ele>487.5</ele>
        <time>2018-08-23T07:26:13Z</time>
      </trkpt>
      <trkpt lat="42.771607" lon="-1.696282">
        <ele>489.0</ele>
        <time>2018-08-23T07:26:30Z</time>
      </trkpt>
      <trkpt lat="42.771534" lon="-1.696441">
        <ele>489.9</ele>
        <time>2018-08-23T07:26:42Z</time>
      </trkpt>
      <trkpt lat="42.771522" lon="-1.696462">
        <ele>490.4</ele>
        <time>2018-08-23T07:26:44Z</time>
      </trkpt>
      <trkpt lat="42.771493" lon="-1.696525">
        <ele>490.9</ele>
        <time>2018-08-23T07:26:49Z</time>
      </trkpt>
      <trkpt lat="42.771480" lon="-1.696554">
        <ele>491.4</ele>
        <time>2018-08-23T07:26:51Z</time>
      </trkpt>
      <trkpt lat="42.771466" lon="-1.696577">
        <ele>491.4</ele>
        <time>2018-08-23T07:26:53Z</time>
      </trkpt>
      <trkpt lat="42.771453" lon="-1.696620">
        <ele>492.3</ele>
        <time>2018-08-23T07:26:56Z</time>
      </trkpt>
      <trkpt lat="42.771435" lon="-1.696651">
        <ele>492.8</ele>
        <time>2018-08-23T07:26:59Z</time>
      </trkpt>
      <trkpt lat="42.771393" lon="-1.696769">
        <ele>493.8</ele>
        <time>2018-08-23T07:27:08Z</time>
      </trkpt>
      <trkpt lat="42.771372" lon="-1.696859">
        <ele>494.3</ele>
        <time>2018-08-23T07:27:14Z</time>
      </trkpt>
      <trkpt lat="42.771343" lon="-1.697087">
        <ele>495.7</ele>
        <time>2018-08-23T07:27:28Z</time>
      </trkpt>
      <trkpt lat="42.771316" lon="-1.697389">
        <ele>496.2</ele>
        <time>2018-08-23T07:27:44Z</time>
      </trkpt>
      <trkpt lat="42.771267" lon="-1.697713">
        <ele>496.2</ele>
        <time>2018-08-23T07:28:03Z</time>
      </trkpt>
      <trkpt lat="42.771224" lon="-1.697869">
        <ele>496.2</ele>
        <time>2018-08-23T07:28:13Z</time>
      </trkpt>
      <trkpt lat="42.771121" lon="-1.698094">
        <ele>495.7</ele>
        <time>2018-08-23T07:28:29Z</time>
      </trkpt>
      <trkpt lat="42.770989" lon="-1.698336">
        <ele>494.3</ele>
        <time>2018-08-23T07:28:47Z</time>
      </trkpt>
      <trkpt lat="42.770819" lon="-1.698583">
        <ele>493.3</ele>
        <time>2018-08-23T07:29:06Z</time>
      </trkpt>
      <trkpt lat="42.770690" lon="-1.698788">
        <ele>492.3</ele>
        <time>2018-08-23T07:29:23Z</time>
      </trkpt>
      <trkpt lat="42.770542" lon="-1.699031">
        <ele>492.3</ele>
        <time>2018-08-23T07:29:42Z</time>
      </trkpt>
      <trkpt lat="42.770399" lon="-1.699219">
        <ele>491.4</ele>
        <time>2018-08-23T07:29:59Z</time>
      </trkpt>
      <trkpt lat="42.770238" lon="-1.699413">
        <ele>490.9</ele>
        <time>2018-08-23T07:30:17Z</time>
      </trkpt>
      <trkpt lat="42.770079" lon="-1.699576">
        <ele>490.4</ele>
        <time>2018-08-23T07:30:34Z</time>
      </trkpt>
      <trkpt lat="42.769916" lon="-1.699729">
        <ele>489.5</ele>
        <time>2018-08-23T07:30:50Z</time>
      </trkpt>
      <trkpt lat="42.769725" lon="-1.699913">
        <ele>489.0</ele>
        <time>2018-08-23T07:31:09Z</time>
      </trkpt>
      <trkpt lat="42.769565" lon="-1.700069">
        <ele>488.5</ele>
        <time>2018-08-23T07:31:25Z</time>
      </trkpt>
      <trkpt lat="42.769466" lon="-1.700165">
        <ele>488.5</ele>
        <time>2018-08-23T07:31:34Z</time>
      </trkpt>
      <trkpt lat="42.769292" lon="-1.700348">
        <ele>489.5</ele>
        <time>2018-08-23T07:31:52Z</time>
      </trkpt>
      <trkpt lat="42.769128" lon="-1.700509">
        <ele>489.9</ele>
        <time>2018-08-23T07:32:09Z</time>
      </trkpt>
      <trkpt lat="42.768975" lon="-1.700640">
        <ele>490.4</ele>
        <time>2018-08-23T07:32:24Z</time>
      </trkpt>
      <trkpt lat="42.768808" lon="-1.700749">
        <ele>490.9</ele>
        <time>2018-08-23T07:32:39Z</time>
      </trkpt>
      <trkpt lat="42.768628" lon="-1.700866">
        <ele>490.4</ele>
        <time>2018-08-23T07:32:55Z</time>
      </trkpt>
      <trkpt lat="42.768465" lon="-1.700951">
        <ele>489.9</ele>
        <time>2018-08-23T07:33:10Z</time>
      </trkpt>
      <trkpt lat="42.768252" lon="-1.701086">
        <ele>490.9</ele>
        <time>2018-08-23T07:33:28Z</time>
      </trkpt>
      <trkpt lat="42.768106" lon="-1.701156">
        <ele>490.9</ele>
        <time>2018-08-23T07:33:41Z</time>
      </trkpt>
      <trkpt lat="42.767971" lon="-1.701248">
        <ele>491.9</ele>
        <time>2018-08-23T07:33:53Z</time>
      </trkpt>
      <trkpt lat="42.767932" lon="-1.701252">
        <ele>491.4</ele>
        <time>2018-08-23T07:33:56Z</time>
      </trkpt>
      <trkpt lat="42.767744" lon="-1.701351">
        <ele>492.3</ele>
        <time>2018-08-23T07:34:12Z</time>
      </trkpt>
      <trkpt lat="42.767574" lon="-1.701432">
        <ele>493.8</ele>
        <time>2018-08-23T07:34:27Z</time>
      </trkpt>
      <trkpt lat="42.767391" lon="-1.701572">
        <ele>494.3</ele>
        <time>2018-08-23T07:34:43Z</time>
      </trkpt>
      <trkpt lat="42.767328" lon="-1.701637">
        <ele>494.3</ele>
        <time>2018-08-23T07:34:49Z</time>
      </trkpt>
      <trkpt lat="42.767137" lon="-1.701919">
        <ele>492.8</ele>
        <time>2018-08-23T07:35:08Z</time>
      </trkpt>
      <trkpt lat="42.766966" lon="-1.702171">
        <ele>492.3</ele>
        <time>2018-08-23T07:35:25Z</time>
      </trkpt>
      <trkpt lat="42.766787" lon="-1.702412">
        <ele>491.4</ele>
        <time>2018-08-23T07:35:43Z</time>
      </trkpt>
      <trkpt lat="42.766615" lon="-1.702682">
        <ele>490.9</ele>
        <time>2018-08-23T07:36:01Z</time>
      </trkpt>
      <trkpt lat="42.766443" lon="-1.702963">
        <ele>490.4</ele>
        <time>2018-08-23T07:36:21Z</time>
      </trkpt>
      <trkpt lat="42.766331" lon="-1.703170">
        <ele>490.4</ele>
        <time>2018-08-23T07:36:38Z</time>
      </trkpt>
      <trkpt lat="42.766205" lon="-1.703411">
        <ele>490.9</ele>
        <time>2018-08-23T07:36:55Z</time>
      </trkpt>
      <trkpt lat="42.766060" lon="-1.703726">
        <ele>489.9</ele>
        <time>2018-08-23T07:37:14Z</time>
      </trkpt>
      <trkpt lat="42.765939" lon="-1.704021">
        <ele>490.9</ele>
        <time>2018-08-23T07:37:32Z</time>
      </trkpt>
      <trkpt lat="42.765867" lon="-1.704153">
        <ele>491.4</ele>
        <time>2018-08-23T07:37:41Z</time>
      </trkpt>
      <trkpt lat="42.765837" lon="-1.704220">
        <ele>490.9</ele>
        <time>2018-08-23T07:37:46Z</time>
      </trkpt>
      <trkpt lat="42.765716" lon="-1.704448">
        <ele>490.9</ele>
        <time>2018-08-23T07:38:02Z</time>
      </trkpt>
      <trkpt lat="42.765567" lon="-1.704686">
        <ele>490.4</ele>
        <time>2018-08-23T07:38:20Z</time>
      </trkpt>
      <trkpt lat="42.765456" lon="-1.704880">
        <ele>490.4</ele>
        <time>2018-08-23T07:38:35Z</time>
      </trkpt>
      <trkpt lat="42.765359" lon="-1.705061">
        <ele>490.4</ele>
        <time>2018-08-23T07:38:49Z</time>
      </trkpt>
      <trkpt lat="42.765309" lon="-1.705145">
        <ele>490.4</ele>
        <time>2018-08-23T07:39:01Z</time>
      </trkpt>
      <trkpt lat="42.765245" lon="-1.705397">
        <ele>490.9</ele>
        <time>2018-08-23T07:39:16Z</time>
      </trkpt>
      <trkpt lat="42.765175" lon="-1.705648">
        <ele>490.4</ele>
        <time>2018-08-23T07:39:29Z</time>
      </trkpt>
      <trkpt lat="42.765111" lon="-1.705887">
        <ele>491.4</ele>
        <time>2018-08-23T07:39:44Z</time>
      </trkpt>
      <trkpt lat="42.765066" lon="-1.706106">
        <ele>491.4</ele>
        <time>2018-08-23T07:39:58Z</time>
      </trkpt>
      <trkpt lat="42.765009" lon="-1.706320">
        <ele>493.3</ele>
        <time>2018-08-23T07:40:12Z</time>
      </trkpt>
      <trkpt lat="42.764942" lon="-1.706583">
        <ele>492.8</ele>
        <time>2018-08-23T07:40:25Z</time>
      </trkpt>
      <trkpt lat="42.764893" lon="-1.706812">
        <ele>493.3</ele>
        <time>2018-08-23T07:40:39Z</time>
      </trkpt>
      <trkpt lat="42.764835" lon="-1.707070">
        <ele>493.8</ele>
        <time>2018-08-23T07:40:55Z</time>
      </trkpt>
      <trkpt lat="42.764741" lon="-1.707296">
        <ele>494.7</ele>
        <time>2018-08-23T07:41:09Z</time>
      </trkpt>
      <trkpt lat="42.764690" lon="-1.707387">
        <ele>495.7</ele>
        <time>2018-08-23T07:41:16Z</time>
      </trkpt>
      <trkpt lat="42.764643" lon="-1.707475">
        <ele>496.2</ele>
        <time>2018-08-23T07:41:23Z</time>
      </trkpt>
      <trkpt lat="42.764632" lon="-1.707502">
        <ele>496.7</ele>
        <time>2018-08-23T07:41:25Z</time>
      </trkpt>
      <trkpt lat="42.764539" lon="-1.707679">
        <ele>497.1</ele>
        <time>2018-08-23T07:41:39Z</time>
      </trkpt>
      <trkpt lat="42.764488" lon="-1.707797">
        <ele>497.1</ele>
        <time>2018-08-23T07:41:49Z</time>
      </trkpt>
      <trkpt lat="42.764479" lon="-1.707820">
        <ele>497.6</ele>
        <time>2018-08-23T07:41:51Z</time>
      </trkpt>
      <trkpt lat="42.764447" lon="-1.707886">
        <ele>497.6</ele>
        <time>2018-08-23T07:41:55Z</time>
      </trkpt>
      <trkpt lat="42.764312" lon="-1.708080">
        <ele>498.6</ele>
        <time>2018-08-23T07:42:10Z</time>
      </trkpt>
      <trkpt lat="42.764126" lon="-1.708268">
        <ele>499.5</ele>
        <time>2018-08-23T07:42:28Z</time>
      </trkpt>
      <trkpt lat="42.763948" lon="-1.708420">
        <ele>500.0</ele>
        <time>2018-08-23T07:42:45Z</time>
      </trkpt>
      <trkpt lat="42.763768" lon="-1.708631">
        <ele>499.5</ele>
        <time>2018-08-23T07:43:02Z</time>
      </trkpt>
      <trkpt lat="42.763626" lon="-1.708770">
        <ele>498.1</ele>
        <time>2018-08-23T07:43:18Z</time>
      </trkpt>
      <trkpt lat="42.763554" lon="-1.708801">
        <ele>498.6</ele>
        <time>2018-08-23T07:43:23Z</time>
      </trkpt>
      <trkpt lat="42.763492" lon="-1.708847">
        <ele>498.6</ele>
        <time>2018-08-23T07:43:28Z</time>
      </trkpt>
      <trkpt lat="42.763358" lon="-1.709007">
        <ele>498.6</ele>
        <time>2018-08-23T07:43:44Z</time>
      </trkpt>
      <trkpt lat="42.763193" lon="-1.709191">
        <ele>498.6</ele>
        <time>2018-08-23T07:44:01Z</time>
      </trkpt>
      <trkpt lat="42.763107" lon="-1.709336">
        <ele>498.6</ele>
        <time>2018-08-23T07:44:16Z</time>
      </trkpt>
      <trkpt lat="42.763103" lon="-1.709377">
        <ele>498.6</ele>
        <time>2018-08-23T07:44:20Z</time>
      </trkpt>
      <trkpt lat="42.763080" lon="-1.709606">
        <ele>499.5</ele>
        <time>2018-08-23T07:44:34Z</time>
      </trkpt>
      <trkpt lat="42.763048" lon="-1.709854">
        <ele>500.5</ele>
        <time>2018-08-23T07:44:48Z</time>
      </trkpt>
      <trkpt lat="42.763006" lon="-1.710031">
        <ele>502.4</ele>
        <time>2018-08-23T07:45:01Z</time>
      </trkpt>
      <trkpt lat="42.762973" lon="-1.710007">
        <ele>502.4</ele>
        <time>2018-08-23T07:45:05Z</time>
      </trkpt>
      <trkpt lat="42.762964" lon="-1.710104">
        <ele>502.9</ele>
        <time>2018-08-23T07:46:56Z</time>
      </trkpt>
      <trkpt lat="42.762833" lon="-1.710283">
        <ele>504.8</ele>
        <time>2018-08-23T07:47:10Z</time>
      </trkpt>
      <trkpt lat="42.762680" lon="-1.710416">
        <ele>504.4</ele>
        <time>2018-08-23T07:47:24Z</time>
      </trkpt>
      <trkpt lat="42.762634" lon="-1.710476">
        <ele>504.8</ele>
        <time>2018-08-23T07:47:29Z</time>
      </trkpt>
      <trkpt lat="42.762583" lon="-1.710586">
        <ele>506.3</ele>
        <time>2018-08-23T07:47:37Z</time>
      </trkpt>
      <trkpt lat="42.762563" lon="-1.710615">
        <ele>506.3</ele>
        <time>2018-08-23T07:47:40Z</time>
      </trkpt>
      <trkpt lat="42.762546" lon="-1.710646">
        <ele>506.8</ele>
        <time>2018-08-23T07:47:43Z</time>
      </trkpt>
      <trkpt lat="42.762487" lon="-1.710749">
        <ele>507.7</ele>
        <time>2018-08-23T07:47:51Z</time>
      </trkpt>
      <trkpt lat="42.762363" lon="-1.710913">
        <ele>508.7</ele>
        <time>2018-08-23T07:48:06Z</time>
      </trkpt>
      <trkpt lat="42.762267" lon="-1.711007">
        <ele>509.2</ele>
        <time>2018-08-23T07:48:15Z</time>
      </trkpt>
      <trkpt lat="42.762222" lon="-1.711041">
        <ele>509.6</ele>
        <time>2018-08-23T07:48:19Z</time>
      </trkpt>
      <trkpt lat="42.762141" lon="-1.711121">
        <ele>510.1</ele>
        <time>2018-08-23T07:48:27Z</time>
      </trkpt>
      <trkpt lat="42.762126" lon="-1.711150">
        <ele>511.1</ele>
        <time>2018-08-23T07:48:29Z</time>
      </trkpt>
      <trkpt lat="42.762061" lon="-1.711200">
        <ele>511.1</ele>
        <time>2018-08-23T07:48:35Z</time>
      </trkpt>
      <trkpt lat="42.761971" lon="-1.711342">
        <ele>512.0</ele>
        <time>2018-08-23T07:48:46Z</time>
      </trkpt>
      <trkpt lat="42.761949" lon="-1.711377">
        <ele>512.0</ele>
        <time>2018-08-23T07:48:49Z</time>
      </trkpt>
      <trkpt lat="42.761861" lon="-1.711557">
        <ele>513.0</ele>
        <time>2018-08-23T07:49:02Z</time>
      </trkpt>
      <trkpt lat="42.761833" lon="-1.711615">
        <ele>513.5</ele>
        <time>2018-08-23T07:49:06Z</time>
      </trkpt>
      <trkpt lat="42.761785" lon="-1.711689">
        <ele>514.4</ele>
        <time>2018-08-23T07:49:12Z</time>
      </trkpt>
      <trkpt lat="42.761760" lon="-1.711723">
        <ele>514.9</ele>
        <time>2018-08-23T07:49:15Z</time>
      </trkpt>
      <trkpt lat="42.761690" lon="-1.711918">
        <ele>515.9</ele>
        <time>2018-08-23T07:49:28Z</time>
      </trkpt>
      <trkpt lat="42.761599" lon="-1.712173">
        <ele>516.8</ele>
        <time>2018-08-23T07:49:43Z</time>
      </trkpt>
      <trkpt lat="42.761499" lon="-1.712378">
        <ele>516.8</ele>
        <time>2018-08-23T07:49:58Z</time>
      </trkpt>
      <trkpt lat="42.761310" lon="-1.712543">
        <ele>516.8</ele>
        <time>2018-08-23T07:50:15Z</time>
      </trkpt>
      <trkpt lat="42.761164" lon="-1.712651">
        <ele>517.3</ele>
        <time>2018-08-23T07:50:28Z</time>
      </trkpt>
      <trkpt lat="42.761125" lon="-1.712699">
        <ele>517.3</ele>
        <time>2018-08-23T07:50:32Z</time>
      </trkpt>
      <trkpt lat="42.760958" lon="-1.712858">
        <ele>518.3</ele>
        <time>2018-08-23T07:50:49Z</time>
      </trkpt>
      <trkpt lat="42.760954" lon="-1.712833">
        <ele>519.2</ele>
        <time>2018-08-23T07:51:07Z</time>
      </trkpt>
      <trkpt lat="42.760828" lon="-1.712922">
        <ele>519.2</ele>
        <time>2018-08-23T07:51:20Z</time>
      </trkpt>
      <trkpt lat="42.760798" lon="-1.712943">
        <ele>520.7</ele>
        <time>2018-08-23T07:51:23Z</time>
      </trkpt>
      <trkpt lat="42.760637" lon="-1.713053">
        <ele>521.2</ele>
        <time>2018-08-23T07:51:39Z</time>
      </trkpt>
      <trkpt lat="42.760464" lon="-1.713159">
        <ele>522.1</ele>
        <time>2018-08-23T07:51:55Z</time>
      </trkpt>
      <trkpt lat="42.760452" lon="-1.713157">
        <ele>522.1</ele>
        <time>2018-08-23T07:51:56Z</time>
      </trkpt>
      <trkpt lat="42.760412" lon="-1.713150">
        <ele>522.6</ele>
        <time>2018-08-23T07:51:59Z</time>
      </trkpt>
      <trkpt lat="42.760277" lon="-1.713208">
        <ele>524.1</ele>
        <time>2018-08-23T07:52:12Z</time>
      </trkpt>
      <trkpt lat="42.760080" lon="-1.713297">
        <ele>525.0</ele>
        <time>2018-08-23T07:52:28Z</time>
      </trkpt>
      <trkpt lat="42.759910" lon="-1.713392">
        <ele>526.0</ele>
        <time>2018-08-23T07:52:42Z</time>
      </trkpt>
      <trkpt lat="42.759791" lon="-1.713461">
        <ele>527.4</ele>
        <time>2018-08-23T07:52:54Z</time>
      </trkpt>
      <trkpt lat="42.759619" lon="-1.713536">
        <ele>528.9</ele>
        <time>2018-08-23T07:53:10Z</time>
      </trkpt>
      <trkpt lat="42.759590" lon="-1.713611">
        <ele>529.3</ele>
        <time>2018-08-23T07:53:16Z</time>
      </trkpt>
      <trkpt lat="42.759440" lon="-1.713683">
        <ele>530.8</ele>
        <time>2018-08-23T07:53:30Z</time>
      </trkpt>
      <trkpt lat="42.759355" lon="-1.713712">
        <ele>531.3</ele>
        <time>2018-08-23T07:53:37Z</time>
      </trkpt>
      <trkpt lat="42.759240" lon="-1.713761">
        <ele>532.7</ele>
        <time>2018-08-23T07:53:51Z</time>
      </trkpt>
      <trkpt lat="42.759115" lon="-1.713823">
        <ele>532.7</ele>
        <time>2018-08-23T07:54:07Z</time>
      </trkpt>
      <trkpt lat="42.759026" lon="-1.713901">
        <ele>533.2</ele>
        <time>2018-08-23T07:54:15Z</time>
      </trkpt>
      <trkpt lat="42.759009" lon="-1.713938">
        <ele>533.7</ele>
        <time>2018-08-23T07:54:18Z</time>
      </trkpt>
      <trkpt lat="42.758974" lon="-1.713950">
        <ele>534.2</ele>
        <time>2018-08-23T07:54:21Z</time>
      </trkpt>
      <trkpt lat="42.758833" lon="-1.713971">
        <ele>534.6</ele>
        <time>2018-08-23T07:54:30Z</time>
      </trkpt>
      <trkpt lat="42.758738" lon="-1.714012">
        <ele>535.1</ele>
        <time>2018-08-23T07:54:37Z</time>
      </trkpt>
      <trkpt lat="42.758603" lon="-1.714055">
        <ele>536.1</ele>
        <time>2018-08-23T07:54:47Z</time>
      </trkpt>
      <trkpt lat="42.758552" lon="-1.714109">
        <ele>536.5</ele>
        <time>2018-08-23T07:54:52Z</time>
      </trkpt>
      <trkpt lat="42.758484" lon="-1.714179">
        <ele>537.0</ele>
        <time>2018-08-23T07:54:59Z</time>
      </trkpt>
      <trkpt lat="42.758339" lon="-1.714246">
        <ele>538.5</ele>
        <time>2018-08-23T07:55:12Z</time>
      </trkpt>
      <trkpt lat="42.758281" lon="-1.714274">
        <ele>539.0</ele>
        <time>2018-08-23T07:55:18Z</time>
      </trkpt>
      <trkpt lat="42.758154" lon="-1.714348">
        <ele>539.0</ele>
        <time>2018-08-23T07:55:30Z</time>
      </trkpt>
      <trkpt lat="42.758068" lon="-1.714379">
        <ele>540.4</ele>
        <time>2018-08-23T07:55:37Z</time>
      </trkpt>
      <trkpt lat="42.758014" lon="-1.714409">
        <ele>540.9</ele>
        <time>2018-08-23T07:55:42Z</time>
      </trkpt>
      <trkpt lat="42.757869" lon="-1.714474">
        <ele>541.8</ele>
        <time>2018-08-23T07:55:55Z</time>
      </trkpt>
      <trkpt lat="42.757713" lon="-1.714552">
        <ele>542.8</ele>
        <time>2018-08-23T07:56:09Z</time>
      </trkpt>
      <trkpt lat="42.757640" lon="-1.714629">
        <ele>543.8</ele>
        <time>2018-08-23T07:56:17Z</time>
      </trkpt>
      <trkpt lat="42.757445" lon="-1.714726">
        <ele>544.7</ele>
        <time>2018-08-23T07:56:33Z</time>
      </trkpt>
      <trkpt lat="42.757300" lon="-1.714804">
        <ele>545.2</ele>
        <time>2018-08-23T07:56:45Z</time>
      </trkpt>
      <trkpt lat="42.757151" lon="-1.714911">
        <ele>546.2</ele>
        <time>2018-08-23T07:56:59Z</time>
      </trkpt>
      <trkpt lat="42.757039" lon="-1.714971">
        <ele>546.7</ele>
        <time>2018-08-23T07:57:10Z</time>
      </trkpt>
      <trkpt lat="42.757014" lon="-1.714977">
        <ele>547.1</ele>
        <time>2018-08-23T07:57:12Z</time>
      </trkpt>
      <trkpt lat="42.756913" lon="-1.715072">
        <ele>547.6</ele>
        <time>2018-08-23T07:57:22Z</time>
      </trkpt>
      <trkpt lat="42.756749" lon="-1.715209">
        <ele>549.0</ele>
        <time>2018-08-23T07:57:38Z</time>
      </trkpt>
      <trkpt lat="42.756583" lon="-1.715295">
        <ele>550.0</ele>
        <time>2018-08-23T07:57:53Z</time>
      </trkpt>
      <trkpt lat="42.756462" lon="-1.715377">
        <ele>550.5</ele>
        <time>2018-08-23T07:58:07Z</time>
      </trkpt>
      <trkpt lat="42.756289" lon="-1.715527">
        <ele>551.5</ele>
        <time>2018-08-23T07:58:22Z</time>
      </trkpt>
      <trkpt lat="42.756180" lon="-1.715634">
        <ele>552.4</ele>
        <time>2018-08-23T07:58:32Z</time>
      </trkpt>
      <trkpt lat="42.756141" lon="-1.715669">
        <ele>552.4</ele>
        <time>2018-08-23T07:58:44Z</time>
      </trkpt>
      <trkpt lat="42.756142" lon="-1.715670">
        <ele>552.9</ele>
        <time>2018-08-23T07:58:48Z</time>
      </trkpt>
      <trkpt lat="42.756078" lon="-1.715684">
        <ele>552.4</ele>
        <time>2018-08-23T07:58:54Z</time>
      </trkpt>
      <trkpt lat="42.756037" lon="-1.715723">
        <ele>552.9</ele>
        <time>2018-08-23T07:58:58Z</time>
      </trkpt>
      <trkpt lat="42.755961" lon="-1.715804">
        <ele>552.9</ele>
        <time>2018-08-23T07:59:12Z</time>
      </trkpt>
      <trkpt lat="42.755858" lon="-1.715904">
        <ele>553.4</ele>
        <time>2018-08-23T07:59:28Z</time>
      </trkpt>
      <trkpt lat="42.755848" lon="-1.715889">
        <ele>553.9</ele>
        <time>2018-08-23T07:59:41Z</time>
      </trkpt>
      <trkpt lat="42.755725" lon="-1.715969">
        <ele>554.3</ele>
        <time>2018-08-23T07:59:54Z</time>
      </trkpt>
      <trkpt lat="42.755549" lon="-1.716094">
        <ele>553.9</ele>
        <time>2018-08-23T08:00:10Z</time>
      </trkpt>
      <trkpt lat="42.755399" lon="-1.716228">
        <ele>554.3</ele>
        <time>2018-08-23T08:00:24Z</time>
      </trkpt>
      <trkpt lat="42.755259" lon="-1.716371">
        <ele>555.3</ele>
        <time>2018-08-23T08:00:38Z</time>
      </trkpt>
      <trkpt lat="42.755234" lon="-1.716396">
        <ele>555.3</ele>
        <time>2018-08-23T08:00:41Z</time>
      </trkpt>
      <trkpt lat="42.755194" lon="-1.716424">
        <ele>555.8</ele>
        <time>2018-08-23T08:00:45Z</time>
      </trkpt>
      <trkpt lat="42.755122" lon="-1.716500">
        <ele>556.7</ele>
        <time>2018-08-23T08:00:53Z</time>
      </trkpt>
      <trkpt lat="42.754974" lon="-1.716630">
        <ele>558.7</ele>
        <time>2018-08-23T08:01:09Z</time>
      </trkpt>
      <trkpt lat="42.754861" lon="-1.716732">
        <ele>560.1</ele>
        <time>2018-08-23T08:01:21Z</time>
      </trkpt>
      <trkpt lat="42.754704" lon="-1.716877">
        <ele>561.5</ele>
        <time>2018-08-23T08:01:38Z</time>
      </trkpt>
      <trkpt lat="42.754570" lon="-1.716995">
        <ele>563.0</ele>
        <time>2018-08-23T08:01:53Z</time>
      </trkpt>
      <trkpt lat="42.754486" lon="-1.717076">
        <ele>564.0</ele>
        <time>2018-08-23T08:02:03Z</time>
      </trkpt>
      <trkpt lat="42.754478" lon="-1.717087">
        <ele>564.0</ele>
        <time>2018-08-23T08:02:04Z</time>
      </trkpt>
      <trkpt lat="42.754428" lon="-1.717128">
        <ele>564.9</ele>
        <time>2018-08-23T08:02:09Z</time>
      </trkpt>
      <trkpt lat="42.754314" lon="-1.717226">
        <ele>566.3</ele>
        <time>2018-08-23T08:02:22Z</time>
      </trkpt>
      <trkpt lat="42.754230" lon="-1.717316">
        <ele>567.8</ele>
        <time>2018-08-23T08:02:33Z</time>
      </trkpt>
      <trkpt lat="42.754174" lon="-1.717367">
        <ele>568.8</ele>
        <time>2018-08-23T08:02:40Z</time>
      </trkpt>
      <trkpt lat="42.754147" lon="-1.717394">
        <ele>569.2</ele>
        <time>2018-08-23T08:02:43Z</time>
      </trkpt>
      <trkpt lat="42.754041" lon="-1.717480">
        <ele>570.7</ele>
        <time>2018-08-23T08:02:54Z</time>
      </trkpt>
      <trkpt lat="42.753981" lon="-1.717532">
        <ele>572.1</ele>
        <time>2018-08-23T08:03:01Z</time>
      </trkpt>
      <trkpt lat="42.753885" lon="-1.717593">
        <ele>573.1</ele>
        <time>2018-08-23T08:03:13Z</time>
      </trkpt>
      <trkpt lat="42.753787" lon="-1.717651">
        <ele>575.0</ele>
        <time>2018-08-23T08:03:26Z</time>
      </trkpt>
      <trkpt lat="42.753769" lon="-1.717664">
        <ele>575.0</ele>
        <time>2018-08-23T08:03:28Z</time>
      </trkpt>
      <trkpt lat="42.753723" lon="-1.717674">
        <ele>576.0</ele>
        <time>2018-08-23T08:03:33Z</time>
      </trkpt>
      <trkpt lat="42.753672" lon="-1.717728">
        <ele>576.5</ele>
        <time>2018-08-23T08:03:39Z</time>
      </trkpt>
      <trkpt lat="42.753599" lon="-1.717814">
        <ele>577.9</ele>
        <time>2018-08-23T08:03:51Z</time>
      </trkpt>
      <trkpt lat="42.753586" lon="-1.717830">
        <ele>578.4</ele>
        <time>2018-08-23T08:03:53Z</time>
      </trkpt>
      <trkpt lat="42.753500" lon="-1.717961">
        <ele>579.8</ele>
        <time>2018-08-23T08:04:05Z</time>
      </trkpt>
      <trkpt lat="42.753482" lon="-1.717984">
        <ele>580.8</ele>
        <time>2018-08-23T08:04:08Z</time>
      </trkpt>
      <trkpt lat="42.753410" lon="-1.718040">
        <ele>581.7</ele>
        <time>2018-08-23T08:04:17Z</time>
      </trkpt>
      <trkpt lat="42.753298" lon="-1.718143">
        <ele>584.1</ele>
        <time>2018-08-23T08:04:32Z</time>
      </trkpt>
      <trkpt lat="42.753234" lon="-1.718187">
        <ele>585.1</ele>
        <time>2018-08-23T08:04:39Z</time>
      </trkpt>
      <trkpt lat="42.753092" lon="-1.718214">
        <ele>586.5</ele>
        <time>2018-08-23T08:04:52Z</time>
      </trkpt>
      <trkpt lat="42.752983" lon="-1.718246">
        <ele>588.5</ele>
        <time>2018-08-23T08:05:03Z</time>
      </trkpt>
      <trkpt lat="42.752901" lon="-1.718273">
        <ele>589.4</ele>
        <time>2018-08-23T08:05:11Z</time>
      </trkpt>
      <trkpt lat="42.752881" lon="-1.718269">
        <ele>589.9</ele>
        <time>2018-08-23T08:05:13Z</time>
      </trkpt>
      <trkpt lat="42.752803" lon="-1.718305">
        <ele>590.9</ele>
        <time>2018-08-23T08:05:22Z</time>
      </trkpt>
      <trkpt lat="42.752781" lon="-1.718321">
        <ele>591.3</ele>
        <time>2018-08-23T08:05:25Z</time>
      </trkpt>
      <trkpt lat="42.752657" lon="-1.718376">
        <ele>593.8</ele>
        <time>2018-08-23T08:05:39Z</time>
      </trkpt>
      <trkpt lat="42.752637" lon="-1.718396">
        <ele>593.8</ele>
        <time>2018-08-23T08:05:42Z</time>
      </trkpt>
      <trkpt lat="42.752621" lon="-1.718411">
        <ele>593.8</ele>
        <time>2018-08-23T08:05:44Z</time>
      </trkpt>
      <trkpt lat="42.752601" lon="-1.718416">
        <ele>594.2</ele>
        <time>2018-08-23T08:05:46Z</time>
      </trkpt>
      <trkpt lat="42.752499" lon="-1.718475">
        <ele>595.7</ele>
        <time>2018-08-23T08:05:57Z</time>
      </trkpt>
      <trkpt lat="42.752461" lon="-1.718485">
        <ele>596.6</ele>
        <time>2018-08-23T08:06:01Z</time>
      </trkpt>
      <trkpt lat="42.752342" lon="-1.718540">
        <ele>598.1</ele>
        <time>2018-08-23T08:06:14Z</time>
      </trkpt>
      <trkpt lat="42.752245" lon="-1.718647">
        <ele>600.5</ele>
        <time>2018-08-23T08:06:26Z</time>
      </trkpt>
      <trkpt lat="42.752165" lon="-1.718762">
        <ele>601.4</ele>
        <time>2018-08-23T08:06:38Z</time>
      </trkpt>
      <trkpt lat="42.752075" lon="-1.718912">
        <ele>602.9</ele>
        <time>2018-08-23T08:06:52Z</time>
      </trkpt>
      <trkpt lat="42.752002" lon="-1.718990">
        <ele>605.3</ele>
        <time>2018-08-23T08:07:03Z</time>
      </trkpt>
      <trkpt lat="42.751994" lon="-1.718999">
        <ele>604.8</ele>
        <time>2018-08-23T08:07:05Z</time>
      </trkpt>
      <trkpt lat="42.751852" lon="-1.719165">
        <ele>605.3</ele>
        <time>2018-08-23T08:07:22Z</time>
      </trkpt>
      <trkpt lat="42.751845" lon="-1.719172">
        <ele>605.3</ele>
        <time>2018-08-23T08:07:36Z</time>
      </trkpt>
      <trkpt lat="42.751737" lon="-1.719258">
        <ele>604.8</ele>
        <time>2018-08-23T08:07:50Z</time>
      </trkpt>
      <trkpt lat="42.751551" lon="-1.719454">
        <ele>603.8</ele>
        <time>2018-08-23T08:08:08Z</time>
      </trkpt>
      <trkpt lat="42.751364" lon="-1.719625">
        <ele>602.9</ele>
        <time>2018-08-23T08:08:25Z</time>
      </trkpt>
      <trkpt lat="42.751182" lon="-1.719743">
        <ele>601.4</ele>
        <time>2018-08-23T08:08:42Z</time>
      </trkpt>
      <trkpt lat="42.750955" lon="-1.719803">
        <ele>600.0</ele>
        <time>2018-08-23T08:09:01Z</time>
      </trkpt>
      <trkpt lat="42.750825" lon="-1.719806">
        <ele>599.5</ele>
        <time>2018-08-23T08:09:13Z</time>
      </trkpt>
      <trkpt lat="42.750765" lon="-1.719843">
        <ele>599.5</ele>
        <time>2018-08-23T08:09:25Z</time>
      </trkpt>
      <trkpt lat="42.750576" lon="-1.719858">
        <ele>598.6</ele>
        <time>2018-08-23T08:09:41Z</time>
      </trkpt>
      <trkpt lat="42.750517" lon="-1.719882">
        <ele>598.6</ele>
        <time>2018-08-23T08:09:46Z</time>
      </trkpt>
      <trkpt lat="42.750348" lon="-1.719812">
        <ele>599.0</ele>
        <time>2018-08-23T08:10:03Z</time>
      </trkpt>
      <trkpt lat="42.750275" lon="-1.719779">
        <ele>599.0</ele>
        <time>2018-08-23T08:10:12Z</time>
      </trkpt>
      <trkpt lat="42.750148" lon="-1.719761">
        <ele>600.0</ele>
        <time>2018-08-23T08:10:25Z</time>
      </trkpt>
      <trkpt lat="42.749982" lon="-1.719797">
        <ele>600.0</ele>
        <time>2018-08-23T08:10:39Z</time>
      </trkpt>
      <trkpt lat="42.749861" lon="-1.719885">
        <ele>600.5</ele>
        <time>2018-08-23T08:10:52Z</time>
      </trkpt>
      <trkpt lat="42.749776" lon="-1.720011">
        <ele>601.0</ele>
        <time>2018-08-23T08:11:03Z</time>
      </trkpt>
      <trkpt lat="42.749764" lon="-1.720034">
        <ele>601.0</ele>
        <time>2018-08-23T08:11:05Z</time>
      </trkpt>
      <trkpt lat="42.749720" lon="-1.720137">
        <ele>601.9</ele>
        <time>2018-08-23T08:11:17Z</time>
      </trkpt>
      <trkpt lat="42.749654" lon="-1.720253">
        <ele>601.9</ele>
        <time>2018-08-23T08:11:26Z</time>
      </trkpt>
      <trkpt lat="42.749641" lon="-1.720293">
        <ele>601.9</ele>
        <time>2018-08-23T08:11:29Z</time>
      </trkpt>
      <trkpt lat="42.749615" lon="-1.720340">
        <ele>602.4</ele>
        <time>2018-08-23T08:11:34Z</time>
      </trkpt>
      <trkpt lat="42.749598" lon="-1.720361">
        <ele>602.9</ele>
        <time>2018-08-23T08:11:36Z</time>
      </trkpt>
      <trkpt lat="42.749547" lon="-1.720444">
        <ele>603.4</ele>
        <time>2018-08-23T08:11:43Z</time>
      </trkpt>
      <trkpt lat="42.749536" lon="-1.720472">
        <ele>603.8</ele>
        <time>2018-08-23T08:11:45Z</time>
      </trkpt>
      <trkpt lat="42.749500" lon="-1.720530">
        <ele>604.3</ele>
        <time>2018-08-23T08:11:50Z</time>
      </trkpt>
      <trkpt lat="42.749482" lon="-1.720548">
        <ele>604.3</ele>
        <time>2018-08-23T08:11:52Z</time>
      </trkpt>
      <trkpt lat="42.749382" lon="-1.720727">
        <ele>606.2</ele>
        <time>2018-08-23T08:12:09Z</time>
      </trkpt>
      <trkpt lat="42.749318" lon="-1.720853">
        <ele>607.7</ele>
        <time>2018-08-23T08:12:20Z</time>
      </trkpt>
      <trkpt lat="42.749292" lon="-1.720898">
        <ele>607.7</ele>
        <time>2018-08-23T08:12:24Z</time>
      </trkpt>
      <trkpt lat="42.749200" lon="-1.721060">
        <ele>609.1</ele>
        <time>2018-08-23T08:12:38Z</time>
      </trkpt>
      <trkpt lat="42.749189" lon="-1.721080">
        <ele>609.1</ele>
        <time>2018-08-23T08:12:40Z</time>
      </trkpt>
      <trkpt lat="42.749177" lon="-1.721099">
        <ele>610.1</ele>
        <time>2018-08-23T08:12:42Z</time>
      </trkpt>
      <trkpt lat="42.749170" lon="-1.721126">
        <ele>610.1</ele>
        <time>2018-08-23T08:12:44Z</time>
      </trkpt>
      <trkpt lat="42.749094" lon="-1.721259">
        <ele>611.1</ele>
        <time>2018-08-23T08:12:56Z</time>
      </trkpt>
      <trkpt lat="42.749077" lon="-1.721280">
        <ele>612.0</ele>
        <time>2018-08-23T08:12:58Z</time>
      </trkpt>
      <trkpt lat="42.749038" lon="-1.721338">
        <ele>612.0</ele>
        <time>2018-08-23T08:13:04Z</time>
      </trkpt>
      <trkpt lat="42.748933" lon="-1.721503">
        <ele>613.9</ele>
        <time>2018-08-23T08:13:18Z</time>
      </trkpt>
      <trkpt lat="42.748881" lon="-1.721628">
        <ele>614.9</ele>
        <time>2018-08-23T08:13:26Z</time>
      </trkpt>
      <trkpt lat="42.748817" lon="-1.721750">
        <ele>615.9</ele>
        <time>2018-08-23T08:13:35Z</time>
      </trkpt>
      <trkpt lat="42.748713" lon="-1.721932">
        <ele>617.8</ele>
        <time>2018-08-23T08:13:50Z</time>
      </trkpt>
      <trkpt lat="42.748638" lon="-1.722072">
        <ele>619.7</ele>
        <time>2018-08-23T08:14:04Z</time>
      </trkpt>
      <trkpt lat="42.748598" lon="-1.722140">
        <ele>619.2</ele>
        <time>2018-08-23T08:14:19Z</time>
      </trkpt>
      <trkpt lat="42.748398" lon="-1.722553">
        <ele>620.2</ele>
        <time>2018-08-23T08:18:51Z</time>
      </trkpt>
      <trkpt lat="42.748346" lon="-1.722604">
        <ele>620.2</ele>
        <time>2018-08-23T08:19:08Z</time>
      </trkpt>
      <trkpt lat="42.748195" lon="-1.722768">
        <ele>620.7</ele>
        <time>2018-08-23T08:20:02Z</time>
      </trkpt>
      <trkpt lat="42.747947" lon="-1.722973">
        <ele>622.1</ele>
        <time>2018-08-23T08:26:09Z</time>
      </trkpt>
      <trkpt lat="42.747790" lon="-1.723125">
        <ele>624.0</ele>
        <time>2018-08-23T08:26:24Z</time>
      </trkpt>
      <trkpt lat="42.747730" lon="-1.723170">
        <ele>622.6</ele>
        <time>2018-08-23T08:26:33Z</time>
      </trkpt>
      <trkpt lat="42.747710" lon="-1.723181">
        <ele>626.0</ele>
        <time>2018-08-23T08:26:36Z</time>
      </trkpt>
      <trkpt lat="42.747641" lon="-1.723267">
        <ele>625.0</ele>
        <time>2018-08-23T08:26:51Z</time>
      </trkpt>
      <trkpt lat="42.747469" lon="-1.723277">
        <ele>626.4</ele>
        <time>2018-08-23T08:27:05Z</time>
      </trkpt>
      <trkpt lat="42.747411" lon="-1.723295">
        <ele>626.9</ele>
        <time>2018-08-23T08:27:11Z</time>
      </trkpt>
      <trkpt lat="42.747348" lon="-1.723329">
        <ele>627.4</ele>
        <time>2018-08-23T08:27:17Z</time>
      </trkpt>
      <trkpt lat="42.747215" lon="-1.723360">
        <ele>627.9</ele>
        <time>2018-08-23T08:27:30Z</time>
      </trkpt>
      <trkpt lat="42.747021" lon="-1.723401">
        <ele>628.8</ele>
        <time>2018-08-23T08:27:45Z</time>
      </trkpt>
      <trkpt lat="42.746794" lon="-1.723429">
        <ele>628.4</ele>
        <time>2018-08-23T08:28:02Z</time>
      </trkpt>
      <trkpt lat="42.746717" lon="-1.723446">
        <ele>628.8</ele>
        <time>2018-08-23T08:28:15Z</time>
      </trkpt>
      <trkpt lat="42.746571" lon="-1.723449">
        <ele>627.9</ele>
        <time>2018-08-23T08:28:28Z</time>
      </trkpt>
      <trkpt lat="42.746383" lon="-1.723468">
        <ele>628.8</ele>
        <time>2018-08-23T08:28:42Z</time>
      </trkpt>
      <trkpt lat="42.746191" lon="-1.723566">
        <ele>629.8</ele>
        <time>2018-08-23T08:28:57Z</time>
      </trkpt>
      <trkpt lat="42.745971" lon="-1.723805">
        <ele>628.8</ele>
        <time>2018-08-23T08:29:18Z</time>
      </trkpt>
      <trkpt lat="42.745780" lon="-1.723983">
        <ele>629.3</ele>
        <time>2018-08-23T08:29:36Z</time>
      </trkpt>
      <trkpt lat="42.745618" lon="-1.724146">
        <ele>628.8</ele>
        <time>2018-08-23T08:29:52Z</time>
      </trkpt>
      <trkpt lat="42.745421" lon="-1.724311">
        <ele>628.4</ele>
        <time>2018-08-23T08:30:10Z</time>
      </trkpt>
      <trkpt lat="42.745227" lon="-1.724543">
        <ele>627.9</ele>
        <time>2018-08-23T08:30:29Z</time>
      </trkpt>
      <trkpt lat="42.745046" lon="-1.724696">
        <ele>627.9</ele>
        <time>2018-08-23T08:30:46Z</time>
      </trkpt>
      <trkpt lat="42.744860" lon="-1.724809">
        <ele>628.4</ele>
        <time>2018-08-23T08:31:02Z</time>
      </trkpt>
      <trkpt lat="42.744695" lon="-1.724960">
        <ele>628.4</ele>
        <time>2018-08-23T08:31:18Z</time>
      </trkpt>
      <trkpt lat="42.744513" lon="-1.725120">
        <ele>627.9</ele>
        <time>2018-08-23T08:31:35Z</time>
      </trkpt>
      <trkpt lat="42.744301" lon="-1.725261">
        <ele>626.9</ele>
        <time>2018-08-23T08:31:53Z</time>
      </trkpt>
      <trkpt lat="42.744110" lon="-1.725411">
        <ele>627.4</ele>
        <time>2018-08-23T08:32:10Z</time>
      </trkpt>
      <trkpt lat="42.743900" lon="-1.725575">
        <ele>626.9</ele>
        <time>2018-08-23T08:32:28Z</time>
      </trkpt>
      <trkpt lat="42.743816" lon="-1.725608">
        <ele>626.9</ele>
        <time>2018-08-23T08:32:35Z</time>
      </trkpt>
      <trkpt lat="42.743582" lon="-1.725775">
        <ele>626.4</ele>
        <time>2018-08-23T08:32:54Z</time>
      </trkpt>
      <trkpt lat="42.743414" lon="-1.725934">
        <ele>626.4</ele>
        <time>2018-08-23T08:33:09Z</time>
      </trkpt>
      <trkpt lat="42.743244" lon="-1.726146">
        <ele>626.0</ele>
        <time>2018-08-23T08:33:27Z</time>
      </trkpt>
      <trkpt lat="42.743191" lon="-1.726323">
        <ele>627.4</ele>
        <time>2018-08-23T08:33:38Z</time>
      </trkpt>
      <trkpt lat="42.743113" lon="-1.726531">
        <ele>628.4</ele>
        <time>2018-08-23T08:33:54Z</time>
      </trkpt>
      <trkpt lat="42.743058" lon="-1.726550">
        <ele>629.3</ele>
        <time>2018-08-23T08:34:06Z</time>
      </trkpt>
      <trkpt lat="42.742968" lon="-1.726636">
        <ele>631.2</ele>
        <time>2018-08-23T08:34:21Z</time>
      </trkpt>
      <trkpt lat="42.742892" lon="-1.726731">
        <ele>632.7</ele>
        <time>2018-08-23T08:34:35Z</time>
      </trkpt>
      <trkpt lat="42.742854" lon="-1.726783">
        <ele>634.6</ele>
        <time>2018-08-23T08:34:43Z</time>
      </trkpt>
      <trkpt lat="42.742779" lon="-1.726883">
        <ele>636.0</ele>
        <time>2018-08-23T08:34:56Z</time>
      </trkpt>
      <trkpt lat="42.742716" lon="-1.726938">
        <ele>637.5</ele>
        <time>2018-08-23T08:35:06Z</time>
      </trkpt>
      <trkpt lat="42.742664" lon="-1.726979">
        <ele>638.5</ele>
        <time>2018-08-23T08:35:17Z</time>
      </trkpt>
      <trkpt lat="42.742591" lon="-1.727029">
        <ele>640.4</ele>
        <time>2018-08-23T08:35:29Z</time>
      </trkpt>
      <trkpt lat="42.742538" lon="-1.727099">
        <ele>641.3</ele>
        <time>2018-08-23T08:35:41Z</time>
      </trkpt>
      <trkpt lat="42.742485" lon="-1.727147">
        <ele>643.3</ele>
        <time>2018-08-23T08:35:53Z</time>
      </trkpt>
      <trkpt lat="42.742435" lon="-1.727167">
        <ele>644.2</ele>
        <time>2018-08-23T08:36:04Z</time>
      </trkpt>
      <trkpt lat="42.742374" lon="-1.727214">
        <ele>645.2</ele>
        <time>2018-08-23T08:36:16Z</time>
      </trkpt>
      <trkpt lat="42.742330" lon="-1.727220">
        <ele>646.6</ele>
        <time>2018-08-23T08:36:28Z</time>
      </trkpt>
      <trkpt lat="42.742282" lon="-1.727257">
        <ele>648.1</ele>
        <time>2018-08-23T08:36:39Z</time>
      </trkpt>
      <trkpt lat="42.742232" lon="-1.727288">
        <ele>649.5</ele>
        <time>2018-08-23T08:36:51Z</time>
      </trkpt>
      <trkpt lat="42.742178" lon="-1.727302">
        <ele>651.0</ele>
        <time>2018-08-23T08:37:04Z</time>
      </trkpt>
      <trkpt lat="42.742125" lon="-1.727323">
        <ele>651.9</ele>
        <time>2018-08-23T08:37:15Z</time>
      </trkpt>
      <trkpt lat="42.742078" lon="-1.727350">
        <ele>653.3</ele>
        <time>2018-08-23T08:37:27Z</time>
      </trkpt>
      <trkpt lat="42.742030" lon="-1.727388">
        <ele>654.8</ele>
        <time>2018-08-23T08:37:40Z</time>
      </trkpt>
      <trkpt lat="42.741985" lon="-1.727452">
        <ele>656.2</ele>
        <time>2018-08-23T08:37:53Z</time>
      </trkpt>
      <trkpt lat="42.741967" lon="-1.727536">
        <ele>658.2</ele>
        <time>2018-08-23T08:38:04Z</time>
      </trkpt>
      <trkpt lat="42.741957" lon="-1.727615">
        <ele>659.6</ele>
        <time>2018-08-23T08:38:14Z</time>
      </trkpt>
      <trkpt lat="42.741945" lon="-1.727654">
        <ele>660.6</ele>
        <time>2018-08-23T08:38:19Z</time>
      </trkpt>
      <trkpt lat="42.741939" lon="-1.727792">
        <ele>661.0</ele>
        <time>2018-08-23T08:38:31Z</time>
      </trkpt>
      <trkpt lat="42.741944" lon="-1.727815">
        <ele>662.0</ele>
        <time>2018-08-23T08:38:33Z</time>
      </trkpt>
      <trkpt lat="42.741961" lon="-1.727946">
        <ele>662.5</ele>
        <time>2018-08-23T08:38:44Z</time>
      </trkpt>
      <trkpt lat="42.741993" lon="-1.728082">
        <ele>662.5</ele>
        <time>2018-08-23T08:38:55Z</time>
      </trkpt>
      <trkpt lat="42.741995" lon="-1.728226">
        <ele>663.0</ele>
        <time>2018-08-23T08:39:09Z</time>
      </trkpt>
      <trkpt lat="42.741949" lon="-1.728354">
        <ele>663.9</ele>
        <time>2018-08-23T08:39:23Z</time>
      </trkpt>
      <trkpt lat="42.741923" lon="-1.728429">
        <ele>664.4</ele>
        <time>2018-08-23T08:39:30Z</time>
      </trkpt>
      <trkpt lat="42.741826" lon="-1.728537">
        <ele>663.5</ele>
        <time>2018-08-23T08:39:44Z</time>
      </trkpt>
      <trkpt lat="42.741692" lon="-1.728670">
        <ele>663.9</ele>
        <time>2018-08-23T08:40:00Z</time>
      </trkpt>
      <trkpt lat="42.741586" lon="-1.728733">
        <ele>665.4</ele>
        <time>2018-08-23T08:40:13Z</time>
      </trkpt>
      <trkpt lat="42.741497" lon="-1.728847">
        <ele>666.3</ele>
        <time>2018-08-23T08:40:28Z</time>
      </trkpt>
      <trkpt lat="42.741483" lon="-1.728863">
        <ele>666.8</ele>
        <time>2018-08-23T08:40:30Z</time>
      </trkpt>
      <trkpt lat="42.741395" lon="-1.729000">
        <ele>668.2</ele>
        <time>2018-08-23T08:40:45Z</time>
      </trkpt>
      <trkpt lat="42.741347" lon="-1.729101">
        <ele>669.2</ele>
        <time>2018-08-23T08:40:57Z</time>
      </trkpt>
      <trkpt lat="42.741337" lon="-1.729169">
        <ele>669.7</ele>
        <time>2018-08-23T08:41:03Z</time>
      </trkpt>
      <trkpt lat="42.741299" lon="-1.729240">
        <ele>669.7</ele>
        <time>2018-08-23T08:41:09Z</time>
      </trkpt>
      <trkpt lat="42.741213" lon="-1.729305">
        <ele>671.1</ele>
        <time>2018-08-23T08:41:24Z</time>
      </trkpt>
      <trkpt lat="42.741188" lon="-1.729301">
        <ele>671.1</ele>
        <time>2018-08-23T08:41:39Z</time>
      </trkpt>
      <trkpt lat="42.741167" lon="-1.729311">
        <ele>671.6</ele>
        <time>2018-08-23T08:41:41Z</time>
      </trkpt>
      <trkpt lat="42.741119" lon="-1.729332">
        <ele>671.6</ele>
        <time>2018-08-23T08:41:46Z</time>
      </trkpt>
      <trkpt lat="42.741035" lon="-1.729385">
        <ele>671.6</ele>
        <time>2018-08-23T08:41:55Z</time>
      </trkpt>
      <trkpt lat="42.741015" lon="-1.729391">
        <ele>671.6</ele>
        <time>2018-08-23T08:41:57Z</time>
      </trkpt>
      <trkpt lat="42.740948" lon="-1.729445">
        <ele>672.6</ele>
        <time>2018-08-23T08:42:05Z</time>
      </trkpt>
      <trkpt lat="42.740846" lon="-1.729494">
        <ele>674.5</ele>
        <time>2018-08-23T08:42:18Z</time>
      </trkpt>
      <trkpt lat="42.740771" lon="-1.729527">
        <ele>675.9</ele>
        <time>2018-08-23T08:42:29Z</time>
      </trkpt>
      <trkpt lat="42.740695" lon="-1.729578">
        <ele>677.9</ele>
        <time>2018-08-23T08:42:40Z</time>
      </trkpt>
      <trkpt lat="42.740609" lon="-1.729596">
        <ele>678.8</ele>
        <time>2018-08-23T08:42:50Z</time>
      </trkpt>
      <trkpt lat="42.740540" lon="-1.729598">
        <ele>678.8</ele>
        <time>2018-08-23T08:42:57Z</time>
      </trkpt>
      <trkpt lat="42.740477" lon="-1.729700">
        <ele>678.8</ele>
        <time>2018-08-23T08:43:05Z</time>
      </trkpt>
      <trkpt lat="42.740462" lon="-1.729746">
        <ele>678.8</ele>
        <time>2018-08-23T08:43:08Z</time>
      </trkpt>
      <trkpt lat="42.740438" lon="-1.729809">
        <ele>679.3</ele>
        <time>2018-08-23T08:43:13Z</time>
      </trkpt>
      <trkpt lat="42.740414" lon="-1.729904">
        <ele>679.3</ele>
        <time>2018-08-23T08:43:19Z</time>
      </trkpt>
      <trkpt lat="42.740472" lon="-1.730142">
        <ele>679.8</ele>
        <time>2018-08-23T08:43:35Z</time>
      </trkpt>
      <trkpt lat="42.740481" lon="-1.730319">
        <ele>680.3</ele>
        <time>2018-08-23T08:43:49Z</time>
      </trkpt>
      <trkpt lat="42.740472" lon="-1.730448">
        <ele>681.7</ele>
        <time>2018-08-23T08:44:00Z</time>
      </trkpt>
      <trkpt lat="42.740464" lon="-1.730539">
        <ele>683.2</ele>
        <time>2018-08-23T08:44:11Z</time>
      </trkpt>
      <trkpt lat="42.740465" lon="-1.730586">
        <ele>683.6</ele>
        <time>2018-08-23T08:44:15Z</time>
      </trkpt>
      <trkpt lat="42.740450" lon="-1.730667">
        <ele>684.6</ele>
        <time>2018-08-23T08:44:21Z</time>
      </trkpt>
      <trkpt lat="42.740452" lon="-1.730841">
        <ele>685.1</ele>
        <time>2018-08-23T08:44:34Z</time>
      </trkpt>
      <trkpt lat="42.740450" lon="-1.730905">
        <ele>686.0</ele>
        <time>2018-08-23T08:44:39Z</time>
      </trkpt>
      <trkpt lat="42.740398" lon="-1.731037">
        <ele>687.5</ele>
        <time>2018-08-23T08:44:51Z</time>
      </trkpt>
      <trkpt lat="42.740341" lon="-1.731128">
        <ele>689.9</ele>
        <time>2018-08-23T08:45:04Z</time>
      </trkpt>
      <trkpt lat="42.740339" lon="-1.731136">
        <ele>689.9</ele>
        <time>2018-08-23T08:45:05Z</time>
      </trkpt>
      <trkpt lat="42.740320" lon="-1.731176">
        <ele>690.8</ele>
        <time>2018-08-23T08:45:11Z</time>
      </trkpt>
      <trkpt lat="42.740245" lon="-1.731260">
        <ele>692.3</ele>
        <time>2018-08-23T08:45:22Z</time>
      </trkpt>
      <trkpt lat="42.740187" lon="-1.731361">
        <ele>692.8</ele>
        <time>2018-08-23T08:45:32Z</time>
      </trkpt>
      <trkpt lat="42.740121" lon="-1.731421">
        <ele>693.7</ele>
        <time>2018-08-23T08:45:42Z</time>
      </trkpt>
      <trkpt lat="42.739995" lon="-1.731597">
        <ele>693.7</ele>
        <time>2018-08-23T08:46:01Z</time>
      </trkpt>
      <trkpt lat="42.739938" lon="-1.731764">
        <ele>692.8</ele>
        <time>2018-08-23T08:46:17Z</time>
      </trkpt>
      <trkpt lat="42.739926" lon="-1.731786">
        <ele>692.8</ele>
        <time>2018-08-23T08:46:19Z</time>
      </trkpt>
      <trkpt lat="42.739876" lon="-1.731828">
        <ele>693.2</ele>
        <time>2018-08-23T08:46:26Z</time>
      </trkpt>
      <trkpt lat="42.739855" lon="-1.731846">
        <ele>693.2</ele>
        <time>2018-08-23T08:46:29Z</time>
      </trkpt>
      <trkpt lat="42.739802" lon="-1.731868">
        <ele>694.2</ele>
        <time>2018-08-23T08:46:35Z</time>
      </trkpt>
      <trkpt lat="42.739712" lon="-1.731974">
        <ele>694.2</ele>
        <time>2018-08-23T08:46:49Z</time>
      </trkpt>
      <trkpt lat="42.739638" lon="-1.732097">
        <ele>696.1</ele>
        <time>2018-08-23T08:47:03Z</time>
      </trkpt>
      <trkpt lat="42.739583" lon="-1.732263">
        <ele>697.1</ele>
        <time>2018-08-23T08:47:15Z</time>
      </trkpt>
      <trkpt lat="42.739556" lon="-1.732368">
        <ele>697.6</ele>
        <time>2018-08-23T08:47:23Z</time>
      </trkpt>
      <trkpt lat="42.739526" lon="-1.732477">
        <ele>698.5</ele>
        <time>2018-08-23T08:47:30Z</time>
      </trkpt>
      <trkpt lat="42.739479" lon="-1.732625">
        <ele>699.5</ele>
        <time>2018-08-23T08:47:41Z</time>
      </trkpt>
      <trkpt lat="42.739423" lon="-1.732805">
        <ele>700.9</ele>
        <time>2018-08-23T08:47:55Z</time>
      </trkpt>
      <trkpt lat="42.739411" lon="-1.732826">
        <ele>701.4</ele>
        <time>2018-08-23T08:47:57Z</time>
      </trkpt>
      <trkpt lat="42.739337" lon="-1.732973">
        <ele>702.9</ele>
        <time>2018-08-23T08:48:09Z</time>
      </trkpt>
      <trkpt lat="42.739319" lon="-1.733050">
        <ele>703.3</ele>
        <time>2018-08-23T08:48:15Z</time>
      </trkpt>
      <trkpt lat="42.739271" lon="-1.733132">
        <ele>704.3</ele>
        <time>2018-08-23T08:48:22Z</time>
      </trkpt>
      <trkpt lat="42.739176" lon="-1.733272">
        <ele>705.8</ele>
        <time>2018-08-23T08:48:36Z</time>
      </trkpt>
      <trkpt lat="42.739124" lon="-1.733387">
        <ele>705.8</ele>
        <time>2018-08-23T08:48:44Z</time>
      </trkpt>
      <trkpt lat="42.739114" lon="-1.733409">
        <ele>706.2</ele>
        <time>2018-08-23T08:48:46Z</time>
      </trkpt>
      <trkpt lat="42.739071" lon="-1.733469">
        <ele>707.2</ele>
        <time>2018-08-23T08:48:52Z</time>
      </trkpt>
      <trkpt lat="42.738915" lon="-1.733678">
        <ele>706.2</ele>
        <time>2018-08-23T08:49:11Z</time>
      </trkpt>
      <trkpt lat="42.738838" lon="-1.733766">
        <ele>707.2</ele>
        <time>2018-08-23T08:49:21Z</time>
      </trkpt>
      <trkpt lat="42.738738" lon="-1.733972">
        <ele>707.2</ele>
        <time>2018-08-23T08:49:37Z</time>
      </trkpt>
      <trkpt lat="42.738723" lon="-1.734031">
        <ele>707.2</ele>
        <time>2018-08-23T08:49:42Z</time>
      </trkpt>
      <trkpt lat="42.738626" lon="-1.734214">
        <ele>708.6</ele>
        <time>2018-08-23T08:49:55Z</time>
      </trkpt>
      <trkpt lat="42.738616" lon="-1.734240">
        <ele>708.2</ele>
        <time>2018-08-23T08:49:57Z</time>
      </trkpt>
      <trkpt lat="42.738605" lon="-1.734260">
        <ele>708.6</ele>
        <time>2018-08-23T08:49:59Z</time>
      </trkpt>
      <trkpt lat="42.738531" lon="-1.734416">
        <ele>709.1</ele>
        <time>2018-08-23T08:50:11Z</time>
      </trkpt>
      <trkpt lat="42.738460" lon="-1.734566">
        <ele>709.6</ele>
        <time>2018-08-23T08:50:22Z</time>
      </trkpt>
      <trkpt lat="42.738389" lon="-1.734705">
        <ele>710.5</ele>
        <time>2018-08-23T08:50:32Z</time>
      </trkpt>
      <trkpt lat="42.738371" lon="-1.734763">
        <ele>711.0</ele>
        <time>2018-08-23T08:50:36Z</time>
      </trkpt>
      <trkpt lat="42.738314" lon="-1.734948">
        <ele>711.5</ele>
        <time>2018-08-23T08:50:49Z</time>
      </trkpt>
      <trkpt lat="42.738301" lon="-1.734973">
        <ele>712.0</ele>
        <time>2018-08-23T08:50:51Z</time>
      </trkpt>
      <trkpt lat="42.738262" lon="-1.735111">
        <ele>712.0</ele>
        <time>2018-08-23T08:51:00Z</time>
      </trkpt>
      <trkpt lat="42.738250" lon="-1.735151">
        <ele>712.0</ele>
        <time>2018-08-23T08:51:03Z</time>
      </trkpt>
      <trkpt lat="42.738225" lon="-1.735190">
        <ele>712.5</ele>
        <time>2018-08-23T08:51:10Z</time>
      </trkpt>
      <trkpt lat="42.738100" lon="-1.735403">
        <ele>712.0</ele>
        <time>2018-08-23T08:51:26Z</time>
      </trkpt>
      <trkpt lat="42.738024" lon="-1.735657">
        <ele>712.5</ele>
        <time>2018-08-23T08:51:41Z</time>
      </trkpt>
      <trkpt lat="42.738009" lon="-1.735880">
        <ele>713.9</ele>
        <time>2018-08-23T08:51:56Z</time>
      </trkpt>
      <trkpt lat="42.738009" lon="-1.735950">
        <ele>714.9</ele>
        <time>2018-08-23T08:52:00Z</time>
      </trkpt>
      <trkpt lat="42.738002" lon="-1.735980">
        <ele>714.9</ele>
        <time>2018-08-23T08:52:02Z</time>
      </trkpt>
      <trkpt lat="42.737955" lon="-1.736173">
        <ele>715.8</ele>
        <time>2018-08-23T08:52:16Z</time>
      </trkpt>
      <trkpt lat="42.737944" lon="-1.736200">
        <ele>715.8</ele>
        <time>2018-08-23T08:52:18Z</time>
      </trkpt>
      <trkpt lat="42.737858" lon="-1.736359">
        <ele>716.3</ele>
        <time>2018-08-23T08:52:32Z</time>
      </trkpt>
      <trkpt lat="42.737829" lon="-1.736519">
        <ele>718.2</ele>
        <time>2018-08-23T08:52:44Z</time>
      </trkpt>
      <trkpt lat="42.737810" lon="-1.736601">
        <ele>718.7</ele>
        <time>2018-08-23T08:52:50Z</time>
      </trkpt>
      <trkpt lat="42.737801" lon="-1.736652">
        <ele>719.2</ele>
        <time>2018-08-23T08:52:53Z</time>
      </trkpt>
      <trkpt lat="42.737784" lon="-1.736730">
        <ele>719.7</ele>
        <time>2018-08-23T08:52:59Z</time>
      </trkpt>
      <trkpt lat="42.737779" lon="-1.736761">
        <ele>719.2</ele>
        <time>2018-08-23T08:53:01Z</time>
      </trkpt>
      <trkpt lat="42.737772" lon="-1.736788">
        <ele>720.2</ele>
        <time>2018-08-23T08:53:03Z</time>
      </trkpt>
      <trkpt lat="42.737758" lon="-1.736887">
        <ele>720.2</ele>
        <time>2018-08-23T08:53:13Z</time>
      </trkpt>
      <trkpt lat="42.737736" lon="-1.736934">
        <ele>721.1</ele>
        <time>2018-08-23T08:53:17Z</time>
      </trkpt>
      <trkpt lat="42.737713" lon="-1.737012">
        <ele>721.6</ele>
        <time>2018-08-23T08:53:23Z</time>
      </trkpt>
      <trkpt lat="42.737675" lon="-1.737172">
        <ele>723.0</ele>
        <time>2018-08-23T08:53:36Z</time>
      </trkpt>
      <trkpt lat="42.737664" lon="-1.737219">
        <ele>724.0</ele>
        <time>2018-08-23T08:53:40Z</time>
      </trkpt>
      <trkpt lat="42.737623" lon="-1.737354">
        <ele>723.5</ele>
        <time>2018-08-23T08:53:50Z</time>
      </trkpt>
      <trkpt lat="42.737612" lon="-1.737373">
        <ele>724.5</ele>
        <time>2018-08-23T08:53:52Z</time>
      </trkpt>
      <trkpt lat="42.737540" lon="-1.737558">
        <ele>725.5</ele>
        <time>2018-08-23T08:54:06Z</time>
      </trkpt>
      <trkpt lat="42.737478" lon="-1.737732">
        <ele>726.4</ele>
        <time>2018-08-23T08:54:20Z</time>
      </trkpt>
      <trkpt lat="42.737445" lon="-1.737830">
        <ele>726.9</ele>
        <time>2018-08-23T08:54:27Z</time>
      </trkpt>
      <trkpt lat="42.737434" lon="-1.737874">
        <ele>726.4</ele>
        <time>2018-08-23T08:54:30Z</time>
      </trkpt>
      <trkpt lat="42.737411" lon="-1.737977">
        <ele>727.9</ele>
        <time>2018-08-23T08:54:36Z</time>
      </trkpt>
      <trkpt lat="42.737399" lon="-1.737999">
        <ele>727.4</ele>
        <time>2018-08-23T08:54:38Z</time>
      </trkpt>
      <trkpt lat="42.737340" lon="-1.738269">
        <ele>728.3</ele>
        <time>2018-08-23T08:54:55Z</time>
      </trkpt>
      <trkpt lat="42.737283" lon="-1.738500">
        <ele>730.3</ele>
        <time>2018-08-23T08:55:10Z</time>
      </trkpt>
      <trkpt lat="42.737241" lon="-1.738716">
        <ele>728.8</ele>
        <time>2018-08-23T08:55:26Z</time>
      </trkpt>
      <trkpt lat="42.737213" lon="-1.738794">
        <ele>729.3</ele>
        <time>2018-08-23T08:55:32Z</time>
      </trkpt>
      <trkpt lat="42.737182" lon="-1.738872">
        <ele>729.3</ele>
        <time>2018-08-23T08:55:37Z</time>
      </trkpt>
      <trkpt lat="42.737109" lon="-1.739053">
        <ele>730.3</ele>
        <time>2018-08-23T08:55:51Z</time>
      </trkpt>
      <trkpt lat="42.737046" lon="-1.739160">
        <ele>731.2</ele>
        <time>2018-08-23T08:56:01Z</time>
      </trkpt>
      <trkpt lat="42.737019" lon="-1.739186">
        <ele>731.7</ele>
        <time>2018-08-23T08:56:05Z</time>
      </trkpt>
      <trkpt lat="42.736939" lon="-1.739302">
        <ele>734.1</ele>
        <time>2018-08-23T08:56:17Z</time>
      </trkpt>
      <trkpt lat="42.736845" lon="-1.739399">
        <ele>735.5</ele>
        <time>2018-08-23T08:56:30Z</time>
      </trkpt>
      <trkpt lat="42.736743" lon="-1.739501">
        <ele>736.5</ele>
        <time>2018-08-23T08:56:44Z</time>
      </trkpt>
      <trkpt lat="42.736710" lon="-1.739555">
        <ele>736.5</ele>
        <time>2018-08-23T08:56:49Z</time>
      </trkpt>
      <trkpt lat="42.736655" lon="-1.739606">
        <ele>737.5</ele>
        <time>2018-08-23T08:56:55Z</time>
      </trkpt>
      <trkpt lat="42.736556" lon="-1.739722">
        <ele>739.4</ele>
        <time>2018-08-23T08:57:08Z</time>
      </trkpt>
      <trkpt lat="42.736462" lon="-1.739835">
        <ele>740.3</ele>
        <time>2018-08-23T08:57:22Z</time>
      </trkpt>
      <trkpt lat="42.736387" lon="-1.739982">
        <ele>741.3</ele>
        <time>2018-08-23T08:57:37Z</time>
      </trkpt>
      <trkpt lat="42.736374" lon="-1.740025">
        <ele>742.3</ele>
        <time>2018-08-23T08:57:41Z</time>
      </trkpt>
      <trkpt lat="42.736321" lon="-1.740146">
        <ele>742.8</ele>
        <time>2018-08-23T08:57:54Z</time>
      </trkpt>
      <trkpt lat="42.736284" lon="-1.740303">
        <ele>743.7</ele>
        <time>2018-08-23T08:58:10Z</time>
      </trkpt>
      <trkpt lat="42.736248" lon="-1.740445">
        <ele>744.7</ele>
        <time>2018-08-23T08:58:25Z</time>
      </trkpt>
      <trkpt lat="42.736210" lon="-1.740573">
        <ele>746.6</ele>
        <time>2018-08-23T08:58:39Z</time>
      </trkpt>
      <trkpt lat="42.736178" lon="-1.740640">
        <ele>747.6</ele>
        <time>2018-08-23T08:58:51Z</time>
      </trkpt>
      <trkpt lat="42.736170" lon="-1.740647">
        <ele>747.6</ele>
        <time>2018-08-23T08:58:52Z</time>
      </trkpt>
      <trkpt lat="42.736142" lon="-1.740720">
        <ele>748.5</ele>
        <time>2018-08-23T08:58:59Z</time>
      </trkpt>
      <trkpt lat="42.736095" lon="-1.740882">
        <ele>749.5</ele>
        <time>2018-08-23T08:59:14Z</time>
      </trkpt>
      <trkpt lat="42.736068" lon="-1.741002">
        <ele>750.9</ele>
        <time>2018-08-23T08:59:28Z</time>
      </trkpt>
      <trkpt lat="42.736037" lon="-1.741092">
        <ele>751.9</ele>
        <time>2018-08-23T08:59:40Z</time>
      </trkpt>
      <trkpt lat="42.736034" lon="-1.741103">
        <ele>752.4</ele>
        <time>2018-08-23T08:59:41Z</time>
      </trkpt>
      <trkpt lat="42.736008" lon="-1.741215">
        <ele>752.8</ele>
        <time>2018-08-23T08:59:54Z</time>
      </trkpt>
      <trkpt lat="42.735972" lon="-1.741303">
        <ele>755.2</ele>
        <time>2018-08-23T09:00:07Z</time>
      </trkpt>
      <trkpt lat="42.735948" lon="-1.741423">
        <ele>757.7</ele>
        <time>2018-08-23T09:00:19Z</time>
      </trkpt>
      <trkpt lat="42.735931" lon="-1.741486">
        <ele>758.1</ele>
        <time>2018-08-23T09:00:25Z</time>
      </trkpt>
      <trkpt lat="42.735897" lon="-1.741822">
        <ele>761.0</ele>
        <time>2018-08-23T09:00:58Z</time>
      </trkpt>
      <trkpt lat="42.735889" lon="-1.741935">
        <ele>764.4</ele>
        <time>2018-08-23T09:01:10Z</time>
      </trkpt>
      <trkpt lat="42.735891" lon="-1.742024">
        <ele>764.4</ele>
        <time>2018-08-23T09:01:19Z</time>
      </trkpt>
      <trkpt lat="42.735863" lon="-1.742175">
        <ele>765.3</ele>
        <time>2018-08-23T09:01:32Z</time>
      </trkpt>
      <trkpt lat="42.735862" lon="-1.742202">
        <ele>765.8</ele>
        <time>2018-08-23T09:01:34Z</time>
      </trkpt>
      <trkpt lat="42.735849" lon="-1.742318">
        <ele>767.3</ele>
        <time>2018-08-23T09:02:24Z</time>
      </trkpt>
      <trkpt lat="42.735853" lon="-1.742354">
        <ele>767.8</ele>
        <time>2018-08-23T09:02:37Z</time>
      </trkpt>
      <trkpt lat="42.735826" lon="-1.742473">
        <ele>767.8</ele>
        <time>2018-08-23T09:03:00Z</time>
      </trkpt>
      <trkpt lat="42.735778" lon="-1.742523">
        <ele>765.8</ele>
        <time>2018-08-23T09:03:15Z</time>
      </trkpt>
      <trkpt lat="42.735750" lon="-1.742559">
        <ele>760.5</ele>
        <time>2018-08-23T09:03:30Z</time>
      </trkpt>
      <trkpt lat="42.735710" lon="-1.742626">
        <ele>767.8</ele>
        <time>2018-08-23T09:24:43Z</time>
      </trkpt>
      <trkpt lat="42.735693" lon="-1.742856">
        <ele>766.8</ele>
        <time>2018-08-23T09:24:59Z</time>
      </trkpt>
      <trkpt lat="42.735629" lon="-1.742848">
        <ele>764.4</ele>
        <time>2018-08-23T09:26:32Z</time>
      </trkpt>
      <trkpt lat="42.735572" lon="-1.742862">
        <ele>756.7</ele>
        <time>2018-08-23T09:26:42Z</time>
      </trkpt>
      <trkpt lat="42.735570" lon="-1.742858">
        <ele>767.8</ele>
        <time>2018-08-23T09:26:43Z</time>
      </trkpt>
      <trkpt lat="42.735573" lon="-1.742856">
        <ele>765.3</ele>
        <time>2018-08-23T09:26:44Z</time>
      </trkpt>
      <trkpt lat="42.735527" lon="-1.742840">
        <ele>762.0</ele>
        <time>2018-08-23T09:26:55Z</time>
      </trkpt>
      <trkpt lat="42.735414" lon="-1.742823">
        <ele>760.5</ele>
        <time>2018-08-23T09:27:08Z</time>
      </trkpt>
      <trkpt lat="42.735374" lon="-1.742915">
        <ele>758.1</ele>
        <time>2018-08-23T09:27:21Z</time>
      </trkpt>
      <trkpt lat="42.735313" lon="-1.743046">
        <ele>754.8</ele>
        <time>2018-08-23T09:27:36Z</time>
      </trkpt>
      <trkpt lat="42.735253" lon="-1.743152">
        <ele>752.8</ele>
        <time>2018-08-23T09:27:50Z</time>
      </trkpt>
      <trkpt lat="42.735217" lon="-1.743272">
        <ele>750.9</ele>
        <time>2018-08-23T09:28:02Z</time>
      </trkpt>
      <trkpt lat="42.735157" lon="-1.743455">
        <ele>747.6</ele>
        <time>2018-08-23T09:28:18Z</time>
      </trkpt>
      <trkpt lat="42.735112" lon="-1.743679">
        <ele>744.2</ele>
        <time>2018-08-23T09:28:34Z</time>
      </trkpt>
      <trkpt lat="42.735097" lon="-1.743797">
        <ele>743.7</ele>
        <time>2018-08-23T09:28:47Z</time>
      </trkpt>
      <trkpt lat="42.735055" lon="-1.743868">
        <ele>741.3</ele>
        <time>2018-08-23T09:29:03Z</time>
      </trkpt>
      <trkpt lat="42.735042" lon="-1.743907">
        <ele>741.8</ele>
        <time>2018-08-23T09:29:21Z</time>
      </trkpt>
      <trkpt lat="42.735039" lon="-1.743975">
        <ele>739.9</ele>
        <time>2018-08-23T09:29:36Z</time>
      </trkpt>
      <trkpt lat="42.735052" lon="-1.744137">
        <ele>738.9</ele>
        <time>2018-08-23T09:29:49Z</time>
      </trkpt>
      <trkpt lat="42.735048" lon="-1.744318">
        <ele>736.0</ele>
        <time>2018-08-23T09:30:04Z</time>
      </trkpt>
      <trkpt lat="42.735069" lon="-1.744481">
        <ele>733.1</ele>
        <time>2018-08-23T09:30:20Z</time>
      </trkpt>
      <trkpt lat="42.735096" lon="-1.744590">
        <ele>731.7</ele>
        <time>2018-08-23T09:30:30Z</time>
      </trkpt>
      <trkpt lat="42.735107" lon="-1.744792">
        <ele>729.8</ele>
        <time>2018-08-23T09:30:45Z</time>
      </trkpt>
      <trkpt lat="42.735082" lon="-1.744959">
        <ele>726.9</ele>
        <time>2018-08-23T09:30:58Z</time>
      </trkpt>
      <trkpt lat="42.735068" lon="-1.745039">
        <ele>725.9</ele>
        <time>2018-08-23T09:31:05Z</time>
      </trkpt>
      <trkpt lat="42.735017" lon="-1.745284">
        <ele>723.0</ele>
        <time>2018-08-23T09:31:21Z</time>
      </trkpt>
      <trkpt lat="42.734994" lon="-1.745409">
        <ele>722.6</ele>
        <time>2018-08-23T09:31:29Z</time>
      </trkpt>
      <trkpt lat="42.734969" lon="-1.745648">
        <ele>721.6</ele>
        <time>2018-08-23T09:31:46Z</time>
      </trkpt>
      <trkpt lat="42.734955" lon="-1.745734">
        <ele>720.7</ele>
        <time>2018-08-23T09:31:53Z</time>
      </trkpt>
      <trkpt lat="42.734879" lon="-1.745885">
        <ele>717.8</ele>
        <time>2018-08-23T09:32:08Z</time>
      </trkpt>
      <trkpt lat="42.734815" lon="-1.746012">
        <ele>715.8</ele>
        <time>2018-08-23T09:32:22Z</time>
      </trkpt>
      <trkpt lat="42.734757" lon="-1.746184">
        <ele>713.9</ele>
        <time>2018-08-23T09:32:35Z</time>
      </trkpt>
      <trkpt lat="42.734752" lon="-1.746309">
        <ele>713.0</ele>
        <time>2018-08-23T09:32:48Z</time>
      </trkpt>
      <trkpt lat="42.734745" lon="-1.746321">
        <ele>712.5</ele>
        <time>2018-08-23T09:32:50Z</time>
      </trkpt>
      <trkpt lat="42.734705" lon="-1.746369">
        <ele>711.0</ele>
        <time>2018-08-23T09:33:02Z</time>
      </trkpt>
      <trkpt lat="42.734676" lon="-1.746423">
        <ele>709.6</ele>
        <time>2018-08-23T09:33:15Z</time>
      </trkpt>
      <trkpt lat="42.734644" lon="-1.746500">
        <ele>708.2</ele>
        <time>2018-08-23T09:33:29Z</time>
      </trkpt>
      <trkpt lat="42.734609" lon="-1.746544">
        <ele>707.2</ele>
        <time>2018-08-23T09:33:43Z</time>
      </trkpt>
      <trkpt lat="42.734596" lon="-1.746580">
        <ele>706.7</ele>
        <time>2018-08-23T09:33:49Z</time>
      </trkpt>
      <trkpt lat="42.734529" lon="-1.746651">
        <ele>705.3</ele>
        <time>2018-08-23T09:34:02Z</time>
      </trkpt>
      <trkpt lat="42.734491" lon="-1.746738">
        <ele>703.8</ele>
        <time>2018-08-23T09:34:15Z</time>
      </trkpt>
      <trkpt lat="42.734452" lon="-1.746838">
        <ele>700.9</ele>
        <time>2018-08-23T09:34:32Z</time>
      </trkpt>
      <trkpt lat="42.734405" lon="-1.746949">
        <ele>699.0</ele>
        <time>2018-08-23T09:34:45Z</time>
      </trkpt>
      <trkpt lat="42.734347" lon="-1.747051">
        <ele>697.6</ele>
        <time>2018-08-23T09:34:57Z</time>
      </trkpt>
      <trkpt lat="42.734315" lon="-1.747129">
        <ele>696.1</ele>
        <time>2018-08-23T09:35:10Z</time>
      </trkpt>
      <trkpt lat="42.734246" lon="-1.747208">
        <ele>694.7</ele>
        <time>2018-08-23T09:35:23Z</time>
      </trkpt>
      <trkpt lat="42.734160" lon="-1.747313">
        <ele>692.3</ele>
        <time>2018-08-23T09:35:36Z</time>
      </trkpt>
      <trkpt lat="42.734100" lon="-1.747391">
        <ele>691.3</ele>
        <time>2018-08-23T09:35:48Z</time>
      </trkpt>
      <trkpt lat="42.733976" lon="-1.747416">
        <ele>689.9</ele>
        <time>2018-08-23T09:36:02Z</time>
      </trkpt>
      <trkpt lat="42.733931" lon="-1.747519">
        <ele>687.5</ele>
        <time>2018-08-23T09:36:14Z</time>
      </trkpt>
      <trkpt lat="42.733870" lon="-1.747612">
        <ele>685.6</ele>
        <time>2018-08-23T09:36:27Z</time>
      </trkpt>
      <trkpt lat="42.733767" lon="-1.747681">
        <ele>683.6</ele>
        <time>2018-08-23T09:36:41Z</time>
      </trkpt>
      <trkpt lat="42.733670" lon="-1.747758">
        <ele>682.2</ele>
        <time>2018-08-23T09:36:56Z</time>
      </trkpt>
      <trkpt lat="42.733547" lon="-1.747823">
        <ele>680.8</ele>
        <time>2018-08-23T09:37:12Z</time>
      </trkpt>
      <trkpt lat="42.733434" lon="-1.747968">
        <ele>678.8</ele>
        <time>2018-08-23T09:37:28Z</time>
      </trkpt>
      <trkpt lat="42.733426" lon="-1.747978">
        <ele>678.3</ele>
        <time>2018-08-23T09:37:29Z</time>
      </trkpt>
      <trkpt lat="42.733331" lon="-1.748128">
        <ele>675.0</ele>
        <time>2018-08-23T09:37:43Z</time>
      </trkpt>
      <trkpt lat="42.733266" lon="-1.748187">
        <ele>673.1</ele>
        <time>2018-08-23T09:37:50Z</time>
      </trkpt>
      <trkpt lat="42.733216" lon="-1.748216">
        <ele>671.6</ele>
        <time>2018-08-23T09:37:55Z</time>
      </trkpt>
      <trkpt lat="42.733150" lon="-1.748241">
        <ele>670.7</ele>
        <time>2018-08-23T09:38:02Z</time>
      </trkpt>
      <trkpt lat="42.733138" lon="-1.748289">
        <ele>669.2</ele>
        <time>2018-08-23T09:38:05Z</time>
      </trkpt>
      <trkpt lat="42.733120" lon="-1.748320">
        <ele>669.7</ele>
        <time>2018-08-23T09:38:08Z</time>
      </trkpt>
      <trkpt lat="42.733081" lon="-1.748353">
        <ele>668.7</ele>
        <time>2018-08-23T09:38:12Z</time>
      </trkpt>
      <trkpt lat="42.732970" lon="-1.748516">
        <ele>666.3</ele>
        <time>2018-08-23T09:38:27Z</time>
      </trkpt>
      <trkpt lat="42.732928" lon="-1.748569">
        <ele>664.9</ele>
        <time>2018-08-23T09:38:33Z</time>
      </trkpt>
      <trkpt lat="42.732914" lon="-1.748608">
        <ele>664.4</ele>
        <time>2018-08-23T09:38:36Z</time>
      </trkpt>
      <trkpt lat="42.732842" lon="-1.748685">
        <ele>661.5</ele>
        <time>2018-08-23T09:38:48Z</time>
      </trkpt>
      <trkpt lat="42.732771" lon="-1.748741">
        <ele>661.0</ele>
        <time>2018-08-23T09:39:00Z</time>
      </trkpt>
      <trkpt lat="42.732698" lon="-1.748812">
        <ele>659.1</ele>
        <time>2018-08-23T09:39:13Z</time>
      </trkpt>
      <trkpt lat="42.732607" lon="-1.748834">
        <ele>656.7</ele>
        <time>2018-08-23T09:39:26Z</time>
      </trkpt>
      <trkpt lat="42.732517" lon="-1.748869">
        <ele>653.8</ele>
        <time>2018-08-23T09:39:39Z</time>
      </trkpt>
      <trkpt lat="42.732454" lon="-1.748917">
        <ele>651.4</ele>
        <time>2018-08-23T09:39:51Z</time>
      </trkpt>
      <trkpt lat="42.732360" lon="-1.748912">
        <ele>649.5</ele>
        <time>2018-08-23T09:40:06Z</time>
      </trkpt>
      <trkpt lat="42.732298" lon="-1.748909">
        <ele>647.6</ele>
        <time>2018-08-23T09:40:19Z</time>
      </trkpt>
      <trkpt lat="42.732266" lon="-1.748966">
        <ele>646.1</ele>
        <time>2018-08-23T09:40:28Z</time>
      </trkpt>
      <trkpt lat="42.732193" lon="-1.748959">
        <ele>644.7</ele>
        <time>2018-08-23T09:40:36Z</time>
      </trkpt>
      <trkpt lat="42.732172" lon="-1.748962">
        <ele>644.7</ele>
        <time>2018-08-23T09:40:38Z</time>
      </trkpt>
      <trkpt lat="42.732104" lon="-1.748969">
        <ele>643.3</ele>
        <time>2018-08-23T09:40:45Z</time>
      </trkpt>
      <trkpt lat="42.732023" lon="-1.749022">
        <ele>641.8</ele>
        <time>2018-08-23T09:40:54Z</time>
      </trkpt>
      <trkpt lat="42.732000" lon="-1.748984">
        <ele>641.3</ele>
        <time>2018-08-23T09:40:57Z</time>
      </trkpt>
      <trkpt lat="42.731895" lon="-1.748944">
        <ele>639.4</ele>
        <time>2018-08-23T09:41:10Z</time>
      </trkpt>
      <trkpt lat="42.731884" lon="-1.748956">
        <ele>638.5</ele>
        <time>2018-08-23T09:42:00Z</time>
      </trkpt>
      <trkpt lat="42.731792" lon="-1.748949">
        <ele>637.5</ele>
        <time>2018-08-23T09:42:12Z</time>
      </trkpt>
      <trkpt lat="42.731754" lon="-1.748949">
        <ele>636.0</ele>
        <time>2018-08-23T09:42:17Z</time>
      </trkpt>
      <trkpt lat="42.731665" lon="-1.748939">
        <ele>636.0</ele>
        <time>2018-08-23T09:42:31Z</time>
      </trkpt>
      <trkpt lat="42.731623" lon="-1.748948">
        <ele>634.6</ele>
        <time>2018-08-23T09:42:36Z</time>
      </trkpt>
      <trkpt lat="42.731491" lon="-1.749001">
        <ele>632.7</ele>
        <time>2018-08-23T09:42:51Z</time>
      </trkpt>
      <trkpt lat="42.731452" lon="-1.749012">
        <ele>632.2</ele>
        <time>2018-08-23T09:42:57Z</time>
      </trkpt>
      <trkpt lat="42.731356" lon="-1.749047">
        <ele>630.3</ele>
        <time>2018-08-23T09:43:07Z</time>
      </trkpt>
      <trkpt lat="42.731227" lon="-1.749133">
        <ele>627.4</ele>
        <time>2018-08-23T09:43:23Z</time>
      </trkpt>
      <trkpt lat="42.731143" lon="-1.749165">
        <ele>625.5</ele>
        <time>2018-08-23T09:43:37Z</time>
      </trkpt>
      <trkpt lat="42.731060" lon="-1.749140">
        <ele>624.0</ele>
        <time>2018-08-23T09:43:49Z</time>
      </trkpt>
      <trkpt lat="42.730986" lon="-1.749096">
        <ele>623.1</ele>
        <time>2018-08-23T09:44:03Z</time>
      </trkpt>
      <trkpt lat="42.730857" lon="-1.749085">
        <ele>622.1</ele>
        <time>2018-08-23T09:44:17Z</time>
      </trkpt>
      <trkpt lat="42.730769" lon="-1.749123">
        <ele>618.8</ele>
        <time>2018-08-23T09:44:31Z</time>
      </trkpt>
      <trkpt lat="42.730654" lon="-1.749101">
        <ele>617.3</ele>
        <time>2018-08-23T09:44:47Z</time>
      </trkpt>
      <trkpt lat="42.730632" lon="-1.749066">
        <ele>616.3</ele>
        <time>2018-08-23T09:44:50Z</time>
      </trkpt>
      <trkpt lat="42.730524" lon="-1.749015">
        <ele>614.9</ele>
        <time>2018-08-23T09:45:02Z</time>
      </trkpt>
      <trkpt lat="42.730339" lon="-1.749042">
        <ele>612.0</ele>
        <time>2018-08-23T09:45:19Z</time>
      </trkpt>
      <trkpt lat="42.730267" lon="-1.749020">
        <ele>610.6</ele>
        <time>2018-08-23T09:45:25Z</time>
      </trkpt>
      <trkpt lat="42.730203" lon="-1.749010">
        <ele>610.1</ele>
        <time>2018-08-23T09:45:30Z</time>
      </trkpt>
      <trkpt lat="42.730143" lon="-1.748969">
        <ele>609.6</ele>
        <time>2018-08-23T09:45:38Z</time>
      </trkpt>
      <trkpt lat="42.730129" lon="-1.748927">
        <ele>609.1</ele>
        <time>2018-08-23T09:45:41Z</time>
      </trkpt>
      <trkpt lat="42.730079" lon="-1.748897">
        <ele>608.7</ele>
        <time>2018-08-23T09:45:46Z</time>
      </trkpt>
      <trkpt lat="42.729943" lon="-1.748837">
        <ele>605.3</ele>
        <time>2018-08-23T09:45:58Z</time>
      </trkpt>
      <trkpt lat="42.729913" lon="-1.748819">
        <ele>605.8</ele>
        <time>2018-08-23T09:46:01Z</time>
      </trkpt>
      <trkpt lat="42.729810" lon="-1.748802">
        <ele>603.8</ele>
        <time>2018-08-23T09:46:15Z</time>
      </trkpt>
      <trkpt lat="42.729693" lon="-1.748807">
        <ele>601.0</ele>
        <time>2018-08-23T09:46:28Z</time>
      </trkpt>
      <trkpt lat="42.729685" lon="-1.748815">
        <ele>601.0</ele>
        <time>2018-08-23T09:46:29Z</time>
      </trkpt>
      <trkpt lat="42.729600" lon="-1.748919">
        <ele>599.0</ele>
        <time>2018-08-23T09:46:43Z</time>
      </trkpt>
      <trkpt lat="42.729503" lon="-1.748885">
        <ele>596.6</ele>
        <time>2018-08-23T09:46:56Z</time>
      </trkpt>
      <trkpt lat="42.729424" lon="-1.748881">
        <ele>595.7</ele>
        <time>2018-08-23T09:47:09Z</time>
      </trkpt>
      <trkpt lat="42.729409" lon="-1.748900">
        <ele>595.2</ele>
        <time>2018-08-23T09:47:19Z</time>
      </trkpt>
      <trkpt lat="42.729308" lon="-1.748890">
        <ele>593.8</ele>
        <time>2018-08-23T09:47:33Z</time>
      </trkpt>
      <trkpt lat="42.729315" lon="-1.748893">
        <ele>593.8</ele>
        <time>2018-08-23T09:47:39Z</time>
      </trkpt>
      <trkpt lat="42.729303" lon="-1.748862">
        <ele>593.3</ele>
        <time>2018-08-23T09:47:41Z</time>
      </trkpt>
      <trkpt lat="42.729206" lon="-1.748813">
        <ele>591.8</ele>
        <time>2018-08-23T09:47:51Z</time>
      </trkpt>
      <trkpt lat="42.729120" lon="-1.748800">
        <ele>590.9</ele>
        <time>2018-08-23T09:48:03Z</time>
      </trkpt>
      <trkpt lat="42.728991" lon="-1.748807">
        <ele>589.0</ele>
        <time>2018-08-23T09:48:17Z</time>
      </trkpt>
      <trkpt lat="42.728978" lon="-1.748826">
        <ele>588.5</ele>
        <time>2018-08-23T09:48:19Z</time>
      </trkpt>
      <trkpt lat="42.728919" lon="-1.748887">
        <ele>587.5</ele>
        <time>2018-08-23T09:48:33Z</time>
      </trkpt>
      <trkpt lat="42.728869" lon="-1.748935">
        <ele>586.5</ele>
        <time>2018-08-23T09:48:50Z</time>
      </trkpt>
      <trkpt lat="42.728828" lon="-1.748946">
        <ele>586.5</ele>
        <time>2018-08-23T09:49:04Z</time>
      </trkpt>
      <trkpt lat="42.728818" lon="-1.748948">
        <ele>586.5</ele>
        <time>2018-08-23T09:49:05Z</time>
      </trkpt>
      <trkpt lat="42.728718" lon="-1.748946">
        <ele>585.6</ele>
        <time>2018-08-23T09:49:18Z</time>
      </trkpt>
      <trkpt lat="42.728519" lon="-1.748932">
        <ele>585.6</ele>
        <time>2018-08-23T09:49:35Z</time>
      </trkpt>
      <trkpt lat="42.728496" lon="-1.748944">
        <ele>584.6</ele>
        <time>2018-08-23T09:49:37Z</time>
      </trkpt>
      <trkpt lat="42.728413" lon="-1.749020">
        <ele>584.6</ele>
        <time>2018-08-23T09:49:49Z</time>
      </trkpt>
      <trkpt lat="42.728338" lon="-1.749042">
        <ele>585.1</ele>
        <time>2018-08-23T09:50:00Z</time>
      </trkpt>
      <trkpt lat="42.728331" lon="-1.749030">
        <ele>585.1</ele>
        <time>2018-08-23T09:50:12Z</time>
      </trkpt>
      <trkpt lat="42.728323" lon="-1.749032">
        <ele>584.6</ele>
        <time>2018-08-23T09:50:30Z</time>
      </trkpt>
      <trkpt lat="42.728240" lon="-1.749084">
        <ele>584.6</ele>
        <time>2018-08-23T09:50:51Z</time>
      </trkpt>
      <trkpt lat="42.728035" lon="-1.749141">
        <ele>584.1</ele>
        <time>2018-08-23T09:51:10Z</time>
      </trkpt>
      <trkpt lat="42.728023" lon="-1.749141">
        <ele>584.1</ele>
        <time>2018-08-23T09:51:11Z</time>
      </trkpt>
      <trkpt lat="42.727887" lon="-1.749187">
        <ele>583.2</ele>
        <time>2018-08-23T09:51:25Z</time>
      </trkpt>
      <trkpt lat="42.727687" lon="-1.749187">
        <ele>582.2</ele>
        <time>2018-08-23T09:51:42Z</time>
      </trkpt>
      <trkpt lat="42.727605" lon="-1.749188">
        <ele>581.7</ele>
        <time>2018-08-23T09:51:56Z</time>
      </trkpt>
      <trkpt lat="42.727514" lon="-1.749232">
        <ele>580.3</ele>
        <time>2018-08-23T09:52:10Z</time>
      </trkpt>
      <trkpt lat="42.727351" lon="-1.749255">
        <ele>578.8</ele>
        <time>2018-08-23T09:52:24Z</time>
      </trkpt>
      <trkpt lat="42.727340" lon="-1.749254">
        <ele>578.8</ele>
        <time>2018-08-23T09:52:25Z</time>
      </trkpt>
      <trkpt lat="42.727296" lon="-1.749279">
        <ele>578.8</ele>
        <time>2018-08-23T09:52:29Z</time>
      </trkpt>
      <trkpt lat="42.727143" lon="-1.749349">
        <ele>576.9</ele>
        <time>2018-08-23T09:52:44Z</time>
      </trkpt>
      <trkpt lat="42.726984" lon="-1.749394">
        <ele>576.0</ele>
        <time>2018-08-23T09:52:58Z</time>
      </trkpt>
      <trkpt lat="42.726864" lon="-1.749411">
        <ele>574.5</ele>
        <time>2018-08-23T09:53:10Z</time>
      </trkpt>
      <trkpt lat="42.726806" lon="-1.749409">
        <ele>574.5</ele>
        <time>2018-08-23T09:53:17Z</time>
      </trkpt>
      <trkpt lat="42.726695" lon="-1.749497">
        <ele>573.6</ele>
        <time>2018-08-23T09:53:31Z</time>
      </trkpt>
      <trkpt lat="42.726534" lon="-1.749567">
        <ele>573.6</ele>
        <time>2018-08-23T09:53:44Z</time>
      </trkpt>
      <trkpt lat="42.726342" lon="-1.749629">
        <ele>572.6</ele>
        <time>2018-08-23T09:54:00Z</time>
      </trkpt>
      <trkpt lat="42.726168" lon="-1.749661">
        <ele>572.1</ele>
        <time>2018-08-23T09:54:14Z</time>
      </trkpt>
      <trkpt lat="42.726138" lon="-1.749665">
        <ele>571.2</ele>
        <time>2018-08-23T09:54:16Z</time>
      </trkpt>
      <trkpt lat="42.725981" lon="-1.749662">
        <ele>571.2</ele>
        <time>2018-08-23T09:54:30Z</time>
      </trkpt>
      <trkpt lat="42.725803" lon="-1.749664">
        <ele>569.2</ele>
        <time>2018-08-23T09:54:45Z</time>
      </trkpt>
      <trkpt lat="42.725657" lon="-1.749613">
        <ele>568.8</ele>
        <time>2018-08-23T09:54:58Z</time>
      </trkpt>
      <trkpt lat="42.725601" lon="-1.749623">
        <ele>568.3</ele>
        <time>2018-08-23T09:55:03Z</time>
      </trkpt>
      <trkpt lat="42.725462" lon="-1.749595">
        <ele>569.2</ele>
        <time>2018-08-23T09:55:18Z</time>
      </trkpt>
      <trkpt lat="42.725446" lon="-1.749598">
        <ele>567.3</ele>
        <time>2018-08-23T09:55:28Z</time>
      </trkpt>
      <trkpt lat="42.725424" lon="-1.749574">
        <ele>567.3</ele>
        <time>2018-08-23T09:55:30Z</time>
      </trkpt>
      <trkpt lat="42.725394" lon="-1.749542">
        <ele>566.8</ele>
        <time>2018-08-23T09:55:37Z</time>
      </trkpt>
      <trkpt lat="42.725318" lon="-1.749557">
        <ele>566.3</ele>
        <time>2018-08-23T09:55:50Z</time>
      </trkpt>
      <trkpt lat="42.725191" lon="-1.749539">
        <ele>564.9</ele>
        <time>2018-08-23T09:56:03Z</time>
      </trkpt>
      <trkpt lat="42.725173" lon="-1.749545">
        <ele>564.9</ele>
        <time>2018-08-23T09:56:05Z</time>
      </trkpt>
      <trkpt lat="42.725093" lon="-1.749531">
        <ele>564.0</ele>
        <time>2018-08-23T09:56:19Z</time>
      </trkpt>
      <trkpt lat="42.724880" lon="-1.749465">
        <ele>562.0</ele>
        <time>2018-08-23T09:56:37Z</time>
      </trkpt>
      <trkpt lat="42.724640" lon="-1.749423">
        <ele>559.1</ele>
        <time>2018-08-23T09:56:56Z</time>
      </trkpt>
      <trkpt lat="42.724627" lon="-1.749419">
        <ele>558.7</ele>
        <time>2018-08-23T09:56:57Z</time>
      </trkpt>
      <trkpt lat="42.724496" lon="-1.749430">
        <ele>557.7</ele>
        <time>2018-08-23T09:57:12Z</time>
      </trkpt>
      <trkpt lat="42.724459" lon="-1.749441">
        <ele>557.2</ele>
        <time>2018-08-23T09:57:16Z</time>
      </trkpt>
      <trkpt lat="42.724399" lon="-1.749447">
        <ele>557.2</ele>
        <time>2018-08-23T09:57:21Z</time>
      </trkpt>
      <trkpt lat="42.724200" lon="-1.749413">
        <ele>555.3</ele>
        <time>2018-08-23T09:57:37Z</time>
      </trkpt>
      <trkpt lat="42.724047" lon="-1.749441">
        <ele>553.9</ele>
        <time>2018-08-23T09:57:54Z</time>
      </trkpt>
      <trkpt lat="42.724008" lon="-1.749419">
        <ele>553.9</ele>
        <time>2018-08-23T09:57:58Z</time>
      </trkpt>
      <trkpt lat="42.723907" lon="-1.749435">
        <ele>552.9</ele>
        <time>2018-08-23T09:58:11Z</time>
      </trkpt>
      <trkpt lat="42.723790" lon="-1.749474">
        <ele>551.9</ele>
        <time>2018-08-23T09:58:21Z</time>
      </trkpt>
      <trkpt lat="42.723556" lon="-1.749506">
        <ele>550.0</ele>
        <time>2018-08-23T09:58:40Z</time>
      </trkpt>
      <trkpt lat="42.723347" lon="-1.749550">
        <ele>548.1</ele>
        <time>2018-08-23T09:58:58Z</time>
      </trkpt>
      <trkpt lat="42.723144" lon="-1.749670">
        <ele>545.7</ele>
        <time>2018-08-23T09:59:17Z</time>
      </trkpt>
      <trkpt lat="42.723001" lon="-1.749795">
        <ele>544.7</ele>
        <time>2018-08-23T09:59:32Z</time>
      </trkpt>
      <trkpt lat="42.722841" lon="-1.749938">
        <ele>543.3</ele>
        <time>2018-08-23T09:59:49Z</time>
      </trkpt>
      <trkpt lat="42.722673" lon="-1.750077">
        <ele>543.8</ele>
        <time>2018-08-23T10:00:05Z</time>
      </trkpt>
      <trkpt lat="42.722637" lon="-1.750116">
        <ele>542.3</ele>
        <time>2018-08-23T10:00:08Z</time>
      </trkpt>
      <trkpt lat="42.722593" lon="-1.750162">
        <ele>541.4</ele>
        <time>2018-08-23T10:00:13Z</time>
      </trkpt>
      <trkpt lat="42.722581" lon="-1.750178">
        <ele>542.3</ele>
        <time>2018-08-23T10:00:26Z</time>
      </trkpt>
      <trkpt lat="42.722417" lon="-1.750309">
        <ele>541.8</ele>
        <time>2018-08-23T10:00:41Z</time>
      </trkpt>
      <trkpt lat="42.722316" lon="-1.750404">
        <ele>540.9</ele>
        <time>2018-08-23T10:00:53Z</time>
      </trkpt>
      <trkpt lat="42.722211" lon="-1.750516">
        <ele>540.4</ele>
        <time>2018-08-23T10:01:05Z</time>
      </trkpt>
      <trkpt lat="42.722225" lon="-1.750514">
        <ele>540.9</ele>
        <time>2018-08-23T10:01:10Z</time>
      </trkpt>
      <trkpt lat="42.722205" lon="-1.750526">
        <ele>540.9</ele>
        <time>2018-08-23T10:01:12Z</time>
      </trkpt>
      <trkpt lat="42.722082" lon="-1.750658">
        <ele>539.9</ele>
        <time>2018-08-23T10:01:28Z</time>
      </trkpt>
      <trkpt lat="42.721970" lon="-1.750787">
        <ele>539.0</ele>
        <time>2018-08-23T10:01:41Z</time>
      </trkpt>
      <trkpt lat="42.721877" lon="-1.750884">
        <ele>538.0</ele>
        <time>2018-08-23T10:01:55Z</time>
      </trkpt>
      <trkpt lat="42.721779" lon="-1.751012">
        <ele>537.0</ele>
        <time>2018-08-23T10:02:07Z</time>
      </trkpt>
      <trkpt lat="42.721680" lon="-1.751150">
        <ele>535.1</ele>
        <time>2018-08-23T10:02:19Z</time>
      </trkpt>
      <trkpt lat="42.721637" lon="-1.751215">
        <ele>534.6</ele>
        <time>2018-08-23T10:02:25Z</time>
      </trkpt>
      <trkpt lat="42.721554" lon="-1.751345">
        <ele>533.2</ele>
        <time>2018-08-23T10:02:37Z</time>
      </trkpt>
      <trkpt lat="42.721465" lon="-1.751492">
        <ele>530.3</ele>
        <time>2018-08-23T10:02:50Z</time>
      </trkpt>
      <trkpt lat="42.721454" lon="-1.751516">
        <ele>529.8</ele>
        <time>2018-08-23T10:02:52Z</time>
      </trkpt>
      <trkpt lat="42.721428" lon="-1.751555">
        <ele>528.9</ele>
        <time>2018-08-23T10:02:56Z</time>
      </trkpt>
      <trkpt lat="42.721368" lon="-1.751651">
        <ele>526.5</ele>
        <time>2018-08-23T10:03:05Z</time>
      </trkpt>
      <trkpt lat="42.721239" lon="-1.751829">
        <ele>524.5</ele>
        <time>2018-08-23T10:03:20Z</time>
      </trkpt>
      <trkpt lat="42.721173" lon="-1.751946">
        <ele>522.6</ele>
        <time>2018-08-23T10:03:28Z</time>
      </trkpt>
      <trkpt lat="42.721009" lon="-1.752153">
        <ele>520.7</ele>
        <time>2018-08-23T10:03:46Z</time>
      </trkpt>
      <trkpt lat="42.720836" lon="-1.752351">
        <ele>518.3</ele>
        <time>2018-08-23T10:04:03Z</time>
      </trkpt>
      <trkpt lat="42.720738" lon="-1.752484">
        <ele>517.3</ele>
        <time>2018-08-23T10:04:14Z</time>
      </trkpt>
      <trkpt lat="42.720691" lon="-1.752538">
        <ele>517.3</ele>
        <time>2018-08-23T10:04:19Z</time>
      </trkpt>
      <trkpt lat="42.720534" lon="-1.752690">
        <ele>517.3</ele>
        <time>2018-08-23T10:04:36Z</time>
      </trkpt>
      <trkpt lat="42.720365" lon="-1.752832">
        <ele>514.9</ele>
        <time>2018-08-23T10:04:52Z</time>
      </trkpt>
      <trkpt lat="42.720204" lon="-1.752937">
        <ele>514.4</ele>
        <time>2018-08-23T10:05:08Z</time>
      </trkpt>
      <trkpt lat="42.719996" lon="-1.753089">
        <ele>513.0</ele>
        <time>2018-08-23T10:05:27Z</time>
      </trkpt>
      <trkpt lat="42.719831" lon="-1.753217">
        <ele>511.6</ele>
        <time>2018-08-23T10:05:41Z</time>
      </trkpt>
      <trkpt lat="42.719760" lon="-1.753272">
        <ele>510.6</ele>
        <time>2018-08-23T10:05:48Z</time>
      </trkpt>
      <trkpt lat="42.719645" lon="-1.753340">
        <ele>510.6</ele>
        <time>2018-08-23T10:05:59Z</time>
      </trkpt>
      <trkpt lat="42.719628" lon="-1.753412">
        <ele>511.1</ele>
        <time>2018-08-23T10:06:12Z</time>
      </trkpt>
      <trkpt lat="42.719614" lon="-1.753420">
        <ele>510.6</ele>
        <time>2018-08-23T10:06:21Z</time>
      </trkpt>
      <trkpt lat="42.719469" lon="-1.753459">
        <ele>510.6</ele>
        <time>2018-08-23T10:06:33Z</time>
      </trkpt>
      <trkpt lat="42.719222" lon="-1.753514">
        <ele>509.2</ele>
        <time>2018-08-23T10:06:52Z</time>
      </trkpt>
      <trkpt lat="42.719082" lon="-1.753553">
        <ele>509.6</ele>
        <time>2018-08-23T10:07:03Z</time>
      </trkpt>
      <trkpt lat="42.718994" lon="-1.753603">
        <ele>509.2</ele>
        <time>2018-08-23T10:07:15Z</time>
      </trkpt>
      <trkpt lat="42.718887" lon="-1.753590">
        <ele>508.7</ele>
        <time>2018-08-23T10:07:24Z</time>
      </trkpt>
      <trkpt lat="42.718751" lon="-1.753602">
        <ele>508.2</ele>
        <time>2018-08-23T10:07:35Z</time>
      </trkpt>
      <trkpt lat="42.718685" lon="-1.753606">
        <ele>507.7</ele>
        <time>2018-08-23T10:07:40Z</time>
      </trkpt>
      <trkpt lat="42.718661" lon="-1.753610">
        <ele>507.7</ele>
        <time>2018-08-23T10:07:42Z</time>
      </trkpt>
      <trkpt lat="42.718518" lon="-1.753597">
        <ele>506.3</ele>
        <time>2018-08-23T10:07:55Z</time>
      </trkpt>
      <trkpt lat="42.718330" lon="-1.753607">
        <ele>505.3</ele>
        <time>2018-08-23T10:08:11Z</time>
      </trkpt>
      <trkpt lat="42.718147" lon="-1.753573">
        <ele>504.4</ele>
        <time>2018-08-23T10:08:27Z</time>
      </trkpt>
      <trkpt lat="42.718053" lon="-1.753551">
        <ele>503.9</ele>
        <time>2018-08-23T10:08:35Z</time>
      </trkpt>
      <trkpt lat="42.717856" lon="-1.753573">
        <ele>503.4</ele>
        <time>2018-08-23T10:08:53Z</time>
      </trkpt>
      <trkpt lat="42.717682" lon="-1.753612">
        <ele>502.4</ele>
        <time>2018-08-23T10:09:08Z</time>
      </trkpt>
      <trkpt lat="42.717436" lon="-1.753694">
        <ele>502.4</ele>
        <time>2018-08-23T10:09:24Z</time>
      </trkpt>
      <trkpt lat="42.717251" lon="-1.753644">
        <ele>500.5</ele>
        <time>2018-08-23T10:09:40Z</time>
      </trkpt>
      <trkpt lat="42.717155" lon="-1.753564">
        <ele>500.0</ele>
        <time>2018-08-23T10:09:52Z</time>
      </trkpt>
      <trkpt lat="42.717133" lon="-1.753564">
        <ele>500.5</ele>
        <time>2018-08-23T10:09:54Z</time>
      </trkpt>
      <trkpt lat="42.717078" lon="-1.753583">
        <ele>499.5</ele>
        <time>2018-08-23T10:09:59Z</time>
      </trkpt>
      <trkpt lat="42.717043" lon="-1.753618">
        <ele>499.5</ele>
        <time>2018-08-23T10:10:06Z</time>
      </trkpt>
      <trkpt lat="42.716943" lon="-1.753643">
        <ele>499.1</ele>
        <time>2018-08-23T10:10:15Z</time>
      </trkpt>
      <trkpt lat="42.716878" lon="-1.753649">
        <ele>498.6</ele>
        <time>2018-08-23T10:10:23Z</time>
      </trkpt>
      <trkpt lat="42.716841" lon="-1.753698">
        <ele>498.6</ele>
        <time>2018-08-23T10:10:35Z</time>
      </trkpt>
      <trkpt lat="42.716808" lon="-1.753728">
        <ele>498.6</ele>
        <time>2018-08-23T10:10:47Z</time>
      </trkpt>
      <trkpt lat="42.716787" lon="-1.753737">
        <ele>499.1</ele>
        <time>2018-08-23T10:10:57Z</time>
      </trkpt>
      <trkpt lat="42.716650" lon="-1.753834">
        <ele>499.5</ele>
        <time>2018-08-23T10:11:10Z</time>
      </trkpt>
      <trkpt lat="42.716616" lon="-1.753854">
        <ele>500.0</ele>
        <time>2018-08-23T10:11:13Z</time>
      </trkpt>
      <trkpt lat="42.716570" lon="-1.753869">
        <ele>500.0</ele>
        <time>2018-08-23T10:11:18Z</time>
      </trkpt>
      <trkpt lat="42.716498" lon="-1.753920">
        <ele>500.5</ele>
        <time>2018-08-23T10:11:25Z</time>
      </trkpt>
      <trkpt lat="42.716474" lon="-1.753924">
        <ele>501.0</ele>
        <time>2018-08-23T10:11:28Z</time>
      </trkpt>
      <trkpt lat="42.716439" lon="-1.753945">
        <ele>501.0</ele>
        <time>2018-08-23T10:11:32Z</time>
      </trkpt>
      <trkpt lat="42.716381" lon="-1.753989">
        <ele>501.5</ele>
        <time>2018-08-23T10:11:38Z</time>
      </trkpt>
      <trkpt lat="42.716351" lon="-1.754012">
        <ele>501.5</ele>
        <time>2018-08-23T10:11:41Z</time>
      </trkpt>
      <trkpt lat="42.716192" lon="-1.754160">
        <ele>501.0</ele>
        <time>2018-08-23T10:11:56Z</time>
      </trkpt>
      <trkpt lat="42.716179" lon="-1.754172">
        <ele>501.5</ele>
        <time>2018-08-23T10:11:57Z</time>
      </trkpt>
      <trkpt lat="42.716160" lon="-1.754187">
        <ele>501.5</ele>
        <time>2018-08-23T10:11:59Z</time>
      </trkpt>
      <trkpt lat="42.716025" lon="-1.754323">
        <ele>502.4</ele>
        <time>2018-08-23T10:12:13Z</time>
      </trkpt>
      <trkpt lat="42.715952" lon="-1.754374">
        <ele>502.9</ele>
        <time>2018-08-23T10:12:20Z</time>
      </trkpt>
      <trkpt lat="42.715804" lon="-1.754512">
        <ele>503.4</ele>
        <time>2018-08-23T10:12:35Z</time>
      </trkpt>
      <trkpt lat="42.715656" lon="-1.754686">
        <ele>503.9</ele>
        <time>2018-08-23T10:12:52Z</time>
      </trkpt>
      <trkpt lat="42.715549" lon="-1.754884">
        <ele>504.4</ele>
        <time>2018-08-23T10:13:07Z</time>
      </trkpt>
      <trkpt lat="42.715489" lon="-1.755069">
        <ele>504.8</ele>
        <time>2018-08-23T10:13:20Z</time>
      </trkpt>
      <trkpt lat="42.715452" lon="-1.755208">
        <ele>506.3</ele>
        <time>2018-08-23T10:13:29Z</time>
      </trkpt>
      <trkpt lat="42.715439" lon="-1.755250">
        <ele>506.8</ele>
        <time>2018-08-23T10:13:32Z</time>
      </trkpt>
      <trkpt lat="42.715399" lon="-1.755334">
        <ele>507.2</ele>
        <time>2018-08-23T10:13:38Z</time>
      </trkpt>
      <trkpt lat="42.715361" lon="-1.755396">
        <ele>507.2</ele>
        <time>2018-08-23T10:13:43Z</time>
      </trkpt>
      <trkpt lat="42.715339" lon="-1.755448">
        <ele>508.2</ele>
        <time>2018-08-23T10:13:47Z</time>
      </trkpt>
      <trkpt lat="42.715305" lon="-1.755483">
        <ele>507.7</ele>
        <time>2018-08-23T10:13:51Z</time>
      </trkpt>
      <trkpt lat="42.715287" lon="-1.755532">
        <ele>508.7</ele>
        <time>2018-08-23T10:13:54Z</time>
      </trkpt>
      <trkpt lat="42.715190" lon="-1.755672">
        <ele>509.6</ele>
        <time>2018-08-23T10:14:06Z</time>
      </trkpt>
      <trkpt lat="42.715154" lon="-1.755701">
        <ele>509.6</ele>
        <time>2018-08-23T10:14:09Z</time>
      </trkpt>
      <trkpt lat="42.715054" lon="-1.755789">
        <ele>510.1</ele>
        <time>2018-08-23T10:14:19Z</time>
      </trkpt>
      <trkpt lat="42.714874" lon="-1.755947">
        <ele>510.1</ele>
        <time>2018-08-23T10:14:37Z</time>
      </trkpt>
      <trkpt lat="42.714826" lon="-1.755999">
        <ele>510.6</ele>
        <time>2018-08-23T10:14:42Z</time>
      </trkpt>
      <trkpt lat="42.714799" lon="-1.756036">
        <ele>510.1</ele>
        <time>2018-08-23T10:14:45Z</time>
      </trkpt>
      <trkpt lat="42.714639" lon="-1.756157">
        <ele>510.1</ele>
        <time>2018-08-23T10:15:00Z</time>
      </trkpt>
      <trkpt lat="42.714604" lon="-1.756192">
        <ele>510.1</ele>
        <time>2018-08-23T10:15:03Z</time>
      </trkpt>
      <trkpt lat="42.714543" lon="-1.756242">
        <ele>510.1</ele>
        <time>2018-08-23T10:15:09Z</time>
      </trkpt>
      <trkpt lat="42.714365" lon="-1.756373">
        <ele>509.2</ele>
        <time>2018-08-23T10:15:25Z</time>
      </trkpt>
      <trkpt lat="42.714294" lon="-1.756436">
        <ele>510.1</ele>
        <time>2018-08-23T10:15:32Z</time>
      </trkpt>
      <trkpt lat="42.714144" lon="-1.756561">
        <ele>510.6</ele>
        <time>2018-08-23T10:15:46Z</time>
      </trkpt>
      <trkpt lat="42.713984" lon="-1.756680">
        <ele>510.6</ele>
        <time>2018-08-23T10:16:01Z</time>
      </trkpt>
      <trkpt lat="42.713847" lon="-1.756788">
        <ele>512.0</ele>
        <time>2018-08-23T10:16:14Z</time>
      </trkpt>
      <trkpt lat="42.713680" lon="-1.756906">
        <ele>512.0</ele>
        <time>2018-08-23T10:16:29Z</time>
      </trkpt>
      <trkpt lat="42.713569" lon="-1.757001">
        <ele>512.0</ele>
        <time>2018-08-23T10:16:58Z</time>
      </trkpt>
      <trkpt lat="42.713464" lon="-1.757038">
        <ele>511.1</ele>
        <time>2018-08-23T10:17:22Z</time>
      </trkpt>
      <trkpt lat="42.713251" lon="-1.757111">
        <ele>511.6</ele>
        <time>2018-08-23T10:17:38Z</time>
      </trkpt>
      <trkpt lat="42.713145" lon="-1.757145">
        <ele>510.6</ele>
        <time>2018-08-23T10:17:47Z</time>
      </trkpt>
      <trkpt lat="42.713092" lon="-1.757176">
        <ele>510.1</ele>
        <time>2018-08-23T10:17:52Z</time>
      </trkpt>
      <trkpt lat="42.712889" lon="-1.757244">
        <ele>509.2</ele>
        <time>2018-08-23T10:18:09Z</time>
      </trkpt>
      <trkpt lat="42.712672" lon="-1.757309">
        <ele>508.7</ele>
        <time>2018-08-23T10:18:27Z</time>
      </trkpt>
      <trkpt lat="42.712474" lon="-1.757361">
        <ele>507.7</ele>
        <time>2018-08-23T10:18:43Z</time>
      </trkpt>
      <trkpt lat="42.712294" lon="-1.757441">
        <ele>506.8</ele>
        <time>2018-08-23T10:18:59Z</time>
      </trkpt>
      <trkpt lat="42.712092" lon="-1.757487">
        <ele>505.3</ele>
        <time>2018-08-23T10:19:16Z</time>
      </trkpt>
      <trkpt lat="42.711997" lon="-1.757527">
        <ele>505.3</ele>
        <time>2018-08-23T10:19:25Z</time>
      </trkpt>
      <trkpt lat="42.711932" lon="-1.757533">
        <ele>505.8</ele>
        <time>2018-08-23T10:19:30Z</time>
      </trkpt>
      <trkpt lat="42.711817" lon="-1.757583">
        <ele>505.3</ele>
        <time>2018-08-23T10:19:40Z</time>
      </trkpt>
      <trkpt lat="42.711633" lon="-1.757694">
        <ele>504.4</ele>
        <time>2018-08-23T10:19:56Z</time>
      </trkpt>
      <trkpt lat="42.711461" lon="-1.757760">
        <ele>503.9</ele>
        <time>2018-08-23T10:20:11Z</time>
      </trkpt>
      <trkpt lat="42.711263" lon="-1.757851">
        <ele>502.0</ele>
        <time>2018-08-23T10:20:28Z</time>
      </trkpt>
      <trkpt lat="42.711250" lon="-1.757852">
        <ele>502.4</ele>
        <time>2018-08-23T10:20:29Z</time>
      </trkpt>
      <trkpt lat="42.711204" lon="-1.757869">
        <ele>502.0</ele>
        <time>2018-08-23T10:20:33Z</time>
      </trkpt>
      <trkpt lat="42.711131" lon="-1.757891">
        <ele>502.4</ele>
        <time>2018-08-23T10:20:39Z</time>
      </trkpt>
      <trkpt lat="42.710929" lon="-1.758027">
        <ele>501.0</ele>
        <time>2018-08-23T10:20:58Z</time>
      </trkpt>
      <trkpt lat="42.710815" lon="-1.758124">
        <ele>501.5</ele>
        <time>2018-08-23T10:21:10Z</time>
      </trkpt>
      <trkpt lat="42.710799" lon="-1.758161">
        <ele>500.0</ele>
        <time>2018-08-23T10:21:27Z</time>
      </trkpt>
      <trkpt lat="42.710676" lon="-1.758310">
        <ele>501.5</ele>
        <time>2018-08-23T10:21:40Z</time>
      </trkpt>
      <trkpt lat="42.710593" lon="-1.758475">
        <ele>500.5</ele>
        <time>2018-08-23T10:21:53Z</time>
      </trkpt>
      <trkpt lat="42.710485" lon="-1.758643">
        <ele>501.0</ele>
        <time>2018-08-23T10:22:06Z</time>
      </trkpt>
      <trkpt lat="42.710338" lon="-1.758897">
        <ele>499.1</ele>
        <time>2018-08-23T10:22:24Z</time>
      </trkpt>
      <trkpt lat="42.710331" lon="-1.758903">
        <ele>500.0</ele>
        <time>2018-08-23T10:22:25Z</time>
      </trkpt>
      <trkpt lat="42.710182" lon="-1.759122">
        <ele>498.6</ele>
        <time>2018-08-23T10:22:44Z</time>
      </trkpt>
      <trkpt lat="42.710146" lon="-1.759188">
        <ele>498.1</ele>
        <time>2018-08-23T10:22:49Z</time>
      </trkpt>
      <trkpt lat="42.710083" lon="-1.759352">
        <ele>498.1</ele>
        <time>2018-08-23T10:22:59Z</time>
      </trkpt>
      <trkpt lat="42.710087" lon="-1.759374">
        <ele>497.6</ele>
        <time>2018-08-23T10:23:00Z</time>
      </trkpt>
      <trkpt lat="42.710043" lon="-1.759440">
        <ele>497.6</ele>
        <time>2018-08-23T10:23:11Z</time>
      </trkpt>
      <trkpt lat="42.710026" lon="-1.759441">
        <ele>497.1</ele>
        <time>2018-08-23T10:23:13Z</time>
      </trkpt>
      <trkpt lat="42.709974" lon="-1.759475">
        <ele>496.7</ele>
        <time>2018-08-23T10:23:18Z</time>
      </trkpt>
      <trkpt lat="42.709874" lon="-1.759615">
        <ele>497.1</ele>
        <time>2018-08-23T10:23:35Z</time>
      </trkpt>
      <trkpt lat="42.709793" lon="-1.759736">
        <ele>495.7</ele>
        <time>2018-08-23T10:23:54Z</time>
      </trkpt>
      <trkpt lat="42.709684" lon="-1.759908">
        <ele>495.2</ele>
        <time>2018-08-23T10:24:10Z</time>
      </trkpt>
      <trkpt lat="42.709556" lon="-1.760148">
        <ele>494.3</ele>
        <time>2018-08-23T10:24:26Z</time>
      </trkpt>
      <trkpt lat="42.709452" lon="-1.760299">
        <ele>493.8</ele>
        <time>2018-08-23T10:24:42Z</time>
      </trkpt>
      <trkpt lat="42.709338" lon="-1.760473">
        <ele>494.7</ele>
        <time>2018-08-23T10:26:16Z</time>
      </trkpt>
      <trkpt lat="42.709337" lon="-1.760508">
        <ele>494.3</ele>
        <time>2018-08-23T10:26:19Z</time>
      </trkpt>
      <trkpt lat="42.709204" lon="-1.760675">
        <ele>493.8</ele>
        <time>2018-08-23T10:26:37Z</time>
      </trkpt>
      <trkpt lat="42.709058" lon="-1.760819">
        <ele>493.3</ele>
        <time>2018-08-23T10:26:53Z</time>
      </trkpt>
      <trkpt lat="42.709053" lon="-1.760835">
        <ele>493.3</ele>
        <time>2018-08-23T10:26:54Z</time>
      </trkpt>
      <trkpt lat="42.709038" lon="-1.760877">
        <ele>492.8</ele>
        <time>2018-08-23T10:26:59Z</time>
      </trkpt>
      <trkpt lat="42.708976" lon="-1.760975">
        <ele>492.8</ele>
        <time>2018-08-23T10:27:07Z</time>
      </trkpt>
      <trkpt lat="42.708861" lon="-1.761142">
        <ele>492.3</ele>
        <time>2018-08-23T10:27:24Z</time>
      </trkpt>
      <trkpt lat="42.708802" lon="-1.761223">
        <ele>491.9</ele>
        <time>2018-08-23T10:27:30Z</time>
      </trkpt>
      <trkpt lat="42.708615" lon="-1.761383">
        <ele>491.4</ele>
        <time>2018-08-23T10:27:48Z</time>
      </trkpt>
      <trkpt lat="42.708599" lon="-1.761378">
        <ele>491.4</ele>
        <time>2018-08-23T10:27:49Z</time>
      </trkpt>
      <trkpt lat="42.708492" lon="-1.761345">
        <ele>490.9</ele>
        <time>2018-08-23T10:27:59Z</time>
      </trkpt>
      <trkpt lat="42.708446" lon="-1.761323">
        <ele>490.9</ele>
        <time>2018-08-23T10:28:03Z</time>
      </trkpt>
      <trkpt lat="42.708269" lon="-1.761241">
        <ele>490.4</ele>
        <time>2018-08-23T10:28:19Z</time>
      </trkpt>
      <trkpt lat="42.708125" lon="-1.761137">
        <ele>489.5</ele>
        <time>2018-08-23T10:28:31Z</time>
      </trkpt>
      <trkpt lat="42.708018" lon="-1.761018">
        <ele>490.4</ele>
        <time>2018-08-23T10:28:44Z</time>
      </trkpt>
      <trkpt lat="42.707987" lon="-1.760996">
        <ele>489.9</ele>
        <time>2018-08-23T10:28:49Z</time>
      </trkpt>
      <trkpt lat="42.707866" lon="-1.760805">
        <ele>491.4</ele>
        <time>2018-08-23T10:29:06Z</time>
      </trkpt>
      <trkpt lat="42.707851" lon="-1.760787">
        <ele>490.9</ele>
        <time>2018-08-23T10:29:08Z</time>
      </trkpt>
      <trkpt lat="42.707726" lon="-1.760776">
        <ele>490.9</ele>
        <time>2018-08-23T10:29:18Z</time>
      </trkpt>
      <trkpt lat="42.707590" lon="-1.760780">
        <ele>490.9</ele>
        <time>2018-08-23T10:29:29Z</time>
      </trkpt>
      <trkpt lat="42.707379" lon="-1.760758">
        <ele>489.9</ele>
        <time>2018-08-23T10:29:46Z</time>
      </trkpt>
      <trkpt lat="42.707186" lon="-1.760793">
        <ele>489.9</ele>
        <time>2018-08-23T10:30:01Z</time>
      </trkpt>
      <trkpt lat="42.706971" lon="-1.760838">
        <ele>489.9</ele>
        <time>2018-08-23T10:30:18Z</time>
      </trkpt>
      <trkpt lat="42.706822" lon="-1.760861">
        <ele>489.9</ele>
        <time>2018-08-23T10:30:30Z</time>
      </trkpt>
      <trkpt lat="42.706648" lon="-1.760902">
        <ele>489.5</ele>
        <time>2018-08-23T10:30:45Z</time>
      </trkpt>
      <trkpt lat="42.706459" lon="-1.760950">
        <ele>488.0</ele>
        <time>2018-08-23T10:31:01Z</time>
      </trkpt>
      <trkpt lat="42.706282" lon="-1.760953">
        <ele>487.0</ele>
        <time>2018-08-23T10:31:18Z</time>
      </trkpt>
      <trkpt lat="42.706195" lon="-1.760935">
        <ele>487.0</ele>
        <time>2018-08-23T10:31:26Z</time>
      </trkpt>
      <trkpt lat="42.706090" lon="-1.760927">
        <ele>485.6</ele>
        <time>2018-08-23T10:31:35Z</time>
      </trkpt>
      <trkpt lat="42.706034" lon="-1.760922">
        <ele>484.6</ele>
        <time>2018-08-23T10:31:40Z</time>
      </trkpt>
      <trkpt lat="42.705897" lon="-1.760891">
        <ele>483.2</ele>
        <time>2018-08-23T10:31:53Z</time>
      </trkpt>
      <trkpt lat="42.705828" lon="-1.760724">
        <ele>481.3</ele>
        <time>2018-08-23T10:32:09Z</time>
      </trkpt>
      <trkpt lat="42.705832" lon="-1.760488">
        <ele>478.4</ele>
        <time>2018-08-23T10:32:25Z</time>
      </trkpt>
      <trkpt lat="42.705756" lon="-1.760274">
        <ele>476.5</ele>
        <time>2018-08-23T10:32:39Z</time>
      </trkpt>
      <trkpt lat="42.705747" lon="-1.760248">
        <ele>476.5</ele>
        <time>2018-08-23T10:32:41Z</time>
      </trkpt>
      <trkpt lat="42.705694" lon="-1.760183">
        <ele>475.5</ele>
        <time>2018-08-23T10:32:47Z</time>
      </trkpt>
      <trkpt lat="42.705670" lon="-1.760129">
        <ele>475.5</ele>
        <time>2018-08-23T10:32:51Z</time>
      </trkpt>
      <trkpt lat="42.705611" lon="-1.760013">
        <ele>473.1</ele>
        <time>2018-08-23T10:33:00Z</time>
      </trkpt>
      <trkpt lat="42.705519" lon="-1.759795">
        <ele>470.7</ele>
        <time>2018-08-23T10:33:16Z</time>
      </trkpt>
      <trkpt lat="42.705415" lon="-1.759661">
        <ele>470.2</ele>
        <time>2018-08-23T10:33:29Z</time>
      </trkpt>
      <trkpt lat="42.705361" lon="-1.759582">
        <ele>469.7</ele>
        <time>2018-08-23T10:33:35Z</time>
      </trkpt>
      <trkpt lat="42.705340" lon="-1.759564">
        <ele>469.7</ele>
        <time>2018-08-23T10:33:37Z</time>
      </trkpt>
      <trkpt lat="42.705247" lon="-1.759622">
        <ele>469.3</ele>
        <time>2018-08-23T10:33:44Z</time>
      </trkpt>
      <trkpt lat="42.705180" lon="-1.759737">
        <ele>469.3</ele>
        <time>2018-08-23T10:33:58Z</time>
      </trkpt>
      <trkpt lat="42.705042" lon="-1.759937">
        <ele>468.8</ele>
        <time>2018-08-23T10:34:14Z</time>
      </trkpt>
      <trkpt lat="42.704890" lon="-1.760077">
        <ele>467.8</ele>
        <time>2018-08-23T10:34:29Z</time>
      </trkpt>
      <trkpt lat="42.704728" lon="-1.760182">
        <ele>467.8</ele>
        <time>2018-08-23T10:34:44Z</time>
      </trkpt>
      <trkpt lat="42.704608" lon="-1.760215">
        <ele>468.3</ele>
        <time>2018-08-23T10:34:54Z</time>
      </trkpt>
      <trkpt lat="42.704401" lon="-1.760270">
        <ele>467.8</ele>
        <time>2018-08-23T10:35:12Z</time>
      </trkpt>
      <trkpt lat="42.704215" lon="-1.760312">
        <ele>467.3</ele>
        <time>2018-08-23T10:35:27Z</time>
      </trkpt>
      <trkpt lat="42.704006" lon="-1.760344">
        <ele>467.8</ele>
        <time>2018-08-23T10:35:44Z</time>
      </trkpt>
      <trkpt lat="42.703830" lon="-1.760356">
        <ele>468.3</ele>
        <time>2018-08-23T10:35:59Z</time>
      </trkpt>
      <trkpt lat="42.703693" lon="-1.760366">
        <ele>468.3</ele>
        <time>2018-08-23T10:36:09Z</time>
      </trkpt>
      <trkpt lat="42.703589" lon="-1.760383">
        <ele>469.3</ele>
        <time>2018-08-23T10:36:17Z</time>
      </trkpt>
      <trkpt lat="42.703398" lon="-1.760421">
        <ele>470.2</ele>
        <time>2018-08-23T10:36:32Z</time>
      </trkpt>
      <trkpt lat="42.703360" lon="-1.760431">
        <ele>470.7</ele>
        <time>2018-08-23T10:36:35Z</time>
      </trkpt>
      <trkpt lat="42.703186" lon="-1.760469">
        <ele>472.6</ele>
        <time>2018-08-23T10:36:49Z</time>
      </trkpt>
      <trkpt lat="42.703159" lon="-1.760476">
        <ele>472.6</ele>
        <time>2018-08-23T10:36:51Z</time>
      </trkpt>
      <trkpt lat="42.703043" lon="-1.760574">
        <ele>473.1</ele>
        <time>2018-08-23T10:37:02Z</time>
      </trkpt>
      <trkpt lat="42.703012" lon="-1.760627">
        <ele>473.6</ele>
        <time>2018-08-23T10:37:13Z</time>
      </trkpt>
      <trkpt lat="42.702880" lon="-1.760726">
        <ele>475.0</ele>
        <time>2018-08-23T10:37:27Z</time>
      </trkpt>
      <trkpt lat="42.702727" lon="-1.760854">
        <ele>475.5</ele>
        <time>2018-08-23T10:37:43Z</time>
      </trkpt>
      <trkpt lat="42.702680" lon="-1.760892">
        <ele>476.5</ele>
        <time>2018-08-23T10:37:48Z</time>
      </trkpt>
      <trkpt lat="42.702661" lon="-1.760906">
        <ele>477.0</ele>
        <time>2018-08-23T10:37:50Z</time>
      </trkpt>
      <trkpt lat="42.702588" lon="-1.760955">
        <ele>477.9</ele>
        <time>2018-08-23T10:37:57Z</time>
      </trkpt>
      <trkpt lat="42.702508" lon="-1.761000">
        <ele>478.4</ele>
        <time>2018-08-23T10:38:04Z</time>
      </trkpt>
      <trkpt lat="42.702436" lon="-1.761059">
        <ele>478.9</ele>
        <time>2018-08-23T10:38:12Z</time>
      </trkpt>
      <trkpt lat="42.702415" lon="-1.761068">
        <ele>478.9</ele>
        <time>2018-08-23T10:38:14Z</time>
      </trkpt>
      <trkpt lat="42.702246" lon="-1.761112">
        <ele>481.3</ele>
        <time>2018-08-23T10:38:29Z</time>
      </trkpt>
      <trkpt lat="42.702044" lon="-1.761139">
        <ele>481.3</ele>
        <time>2018-08-23T10:38:46Z</time>
      </trkpt>
      <trkpt lat="42.701854" lon="-1.761139">
        <ele>480.8</ele>
        <time>2018-08-23T10:39:01Z</time>
      </trkpt>
      <trkpt lat="42.701650" lon="-1.761175">
        <ele>480.8</ele>
        <time>2018-08-23T10:39:18Z</time>
      </trkpt>
      <trkpt lat="42.701484" lon="-1.761231">
        <ele>481.3</ele>
        <time>2018-08-23T10:39:32Z</time>
      </trkpt>
      <trkpt lat="42.701334" lon="-1.761379">
        <ele>481.3</ele>
        <time>2018-08-23T10:39:47Z</time>
      </trkpt>
      <trkpt lat="42.701299" lon="-1.761427">
        <ele>481.8</ele>
        <time>2018-08-23T10:39:51Z</time>
      </trkpt>
      <trkpt lat="42.701288" lon="-1.761434">
        <ele>480.8</ele>
        <time>2018-08-23T10:39:53Z</time>
      </trkpt>
      <trkpt lat="42.701107" lon="-1.761564">
        <ele>480.3</ele>
        <time>2018-08-23T10:40:08Z</time>
      </trkpt>
      <trkpt lat="42.700923" lon="-1.761714">
        <ele>479.8</ele>
        <time>2018-08-23T10:40:26Z</time>
      </trkpt>
      <trkpt lat="42.700751" lon="-1.761920">
        <ele>478.4</ele>
        <time>2018-08-23T10:40:44Z</time>
      </trkpt>
      <trkpt lat="42.700607" lon="-1.762182">
        <ele>477.4</ele>
        <time>2018-08-23T10:41:04Z</time>
      </trkpt>
      <trkpt lat="42.700604" lon="-1.762205">
        <ele>477.4</ele>
        <time>2018-08-23T10:41:06Z</time>
      </trkpt>
      <trkpt lat="42.700586" lon="-1.762239">
        <ele>477.9</ele>
        <time>2018-08-23T10:41:10Z</time>
      </trkpt>
      <trkpt lat="42.700575" lon="-1.762304">
        <ele>477.9</ele>
        <time>2018-08-23T10:41:14Z</time>
      </trkpt>
      <trkpt lat="42.700468" lon="-1.762559">
        <ele>477.0</ele>
        <time>2018-08-23T10:41:31Z</time>
      </trkpt>
      <trkpt lat="42.700351" lon="-1.762784">
        <ele>476.0</ele>
        <time>2018-08-23T10:41:48Z</time>
      </trkpt>
      <trkpt lat="42.700192" lon="-1.762835">
        <ele>476.0</ele>
        <time>2018-08-23T10:42:02Z</time>
      </trkpt>
      <trkpt lat="42.700138" lon="-1.762849">
        <ele>475.5</ele>
        <time>2018-08-23T10:42:06Z</time>
      </trkpt>
      <trkpt lat="42.700106" lon="-1.762858">
        <ele>475.0</ele>
        <time>2018-08-23T10:42:09Z</time>
      </trkpt>
      <trkpt lat="42.700045" lon="-1.762877">
        <ele>475.5</ele>
        <time>2018-08-23T10:42:14Z</time>
      </trkpt>
      <trkpt lat="42.699985" lon="-1.762891">
        <ele>476.0</ele>
        <time>2018-08-23T10:42:21Z</time>
      </trkpt>
      <trkpt lat="42.699831" lon="-1.762985">
        <ele>475.0</ele>
        <time>2018-08-23T10:42:38Z</time>
      </trkpt>
      <trkpt lat="42.699598" lon="-1.763058">
        <ele>473.1</ele>
        <time>2018-08-23T10:42:57Z</time>
      </trkpt>
      <trkpt lat="42.699350" lon="-1.763151">
        <ele>472.1</ele>
        <time>2018-08-23T10:43:16Z</time>
      </trkpt>
      <trkpt lat="42.699327" lon="-1.763158">
        <ele>472.6</ele>
        <time>2018-08-23T10:43:18Z</time>
      </trkpt>
      <trkpt lat="42.699130" lon="-1.763246">
        <ele>472.1</ele>
        <time>2018-08-23T10:43:35Z</time>
      </trkpt>
      <trkpt lat="42.698944" lon="-1.763344">
        <ele>471.2</ele>
        <time>2018-08-23T10:43:51Z</time>
      </trkpt>
      <trkpt lat="42.698770" lon="-1.763496">
        <ele>471.7</ele>
        <time>2018-08-23T10:44:08Z</time>
      </trkpt>
      <trkpt lat="42.698767" lon="-1.763499">
        <ele>471.7</ele>
        <time>2018-08-23T10:44:10Z</time>
      </trkpt>
      <trkpt lat="42.698662" lon="-1.763566">
        <ele>473.1</ele>
        <time>2018-08-23T10:44:19Z</time>
      </trkpt>
      <trkpt lat="42.698591" lon="-1.763645">
        <ele>472.1</ele>
        <time>2018-08-23T10:44:26Z</time>
      </trkpt>
      <trkpt lat="42.698588" lon="-1.763652">
        <ele>472.6</ele>
        <time>2018-08-23T10:44:31Z</time>
      </trkpt>
      <trkpt lat="42.698535" lon="-1.763692">
        <ele>471.7</ele>
        <time>2018-08-23T10:44:35Z</time>
      </trkpt>
      <trkpt lat="42.698362" lon="-1.763917">
        <ele>471.2</ele>
        <time>2018-08-23T10:44:53Z</time>
      </trkpt>
      <trkpt lat="42.698190" lon="-1.764189">
        <ele>470.2</ele>
        <time>2018-08-23T10:45:12Z</time>
      </trkpt>
      <trkpt lat="42.698031" lon="-1.764403">
        <ele>470.7</ele>
        <time>2018-08-23T10:45:30Z</time>
      </trkpt>
      <trkpt lat="42.697966" lon="-1.764544">
        <ele>468.3</ele>
        <time>2018-08-23T10:45:40Z</time>
      </trkpt>
      <trkpt lat="42.697873" lon="-1.764658">
        <ele>468.3</ele>
        <time>2018-08-23T10:45:52Z</time>
      </trkpt>
      <trkpt lat="42.697724" lon="-1.764839">
        <ele>469.3</ele>
        <time>2018-08-23T10:46:08Z</time>
      </trkpt>
      <trkpt lat="42.697529" lon="-1.765002">
        <ele>468.8</ele>
        <time>2018-08-23T10:46:26Z</time>
      </trkpt>
      <trkpt lat="42.697417" lon="-1.765103">
        <ele>467.3</ele>
        <time>2018-08-23T10:46:37Z</time>
      </trkpt>
      <trkpt lat="42.697246" lon="-1.765261">
        <ele>465.4</ele>
        <time>2018-08-23T10:46:54Z</time>
      </trkpt>
      <trkpt lat="42.697215" lon="-1.765294">
        <ele>465.9</ele>
        <time>2018-08-23T10:46:57Z</time>
      </trkpt>
      <trkpt lat="42.697056" lon="-1.765508">
        <ele>465.9</ele>
        <time>2018-08-23T10:47:14Z</time>
      </trkpt>
      <trkpt lat="42.696912" lon="-1.765731">
        <ele>464.5</ele>
        <time>2018-08-23T10:47:30Z</time>
      </trkpt>
      <trkpt lat="42.696743" lon="-1.765941">
        <ele>464.5</ele>
        <time>2018-08-23T10:47:48Z</time>
      </trkpt>
      <trkpt lat="42.696566" lon="-1.766098">
        <ele>464.5</ele>
        <time>2018-08-23T10:48:04Z</time>
      </trkpt>
      <trkpt lat="42.696452" lon="-1.766225">
        <ele>464.0</ele>
        <time>2018-08-23T10:48:19Z</time>
      </trkpt>
      <trkpt lat="42.696327" lon="-1.766324">
        <ele>464.0</ele>
        <time>2018-08-23T10:48:32Z</time>
      </trkpt>
      <trkpt lat="42.696249" lon="-1.766421">
        <ele>463.5</ele>
        <time>2018-08-23T10:48:40Z</time>
      </trkpt>
      <trkpt lat="42.696119" lon="-1.766584">
        <ele>463.5</ele>
        <time>2018-08-23T10:48:55Z</time>
      </trkpt>
      <trkpt lat="42.695963" lon="-1.766743">
        <ele>461.6</ele>
        <time>2018-08-23T10:49:10Z</time>
      </trkpt>
      <trkpt lat="42.695806" lon="-1.766895">
        <ele>460.6</ele>
        <time>2018-08-23T10:49:25Z</time>
      </trkpt>
      <trkpt lat="42.695718" lon="-1.766988">
        <ele>461.6</ele>
        <time>2018-08-23T10:49:34Z</time>
      </trkpt>
      <trkpt lat="42.695583" lon="-1.767167">
        <ele>461.6</ele>
        <time>2018-08-23T10:49:49Z</time>
      </trkpt>
      <trkpt lat="42.695560" lon="-1.767187">
        <ele>461.1</ele>
        <time>2018-08-23T10:49:51Z</time>
      </trkpt>
      <trkpt lat="42.695535" lon="-1.767198">
        <ele>461.1</ele>
        <time>2018-08-23T10:49:53Z</time>
      </trkpt>
      <trkpt lat="42.695483" lon="-1.767248">
        <ele>460.6</ele>
        <time>2018-08-23T10:49:58Z</time>
      </trkpt>
      <trkpt lat="42.695380" lon="-1.767389">
        <ele>457.2</ele>
        <time>2018-08-23T10:50:09Z</time>
      </trkpt>
      <trkpt lat="42.695370" lon="-1.767404">
        <ele>458.7</ele>
        <time>2018-08-23T10:50:10Z</time>
      </trkpt>
      <trkpt lat="42.695356" lon="-1.767410">
        <ele>463.5</ele>
        <time>2018-08-23T10:50:11Z</time>
      </trkpt>
      <trkpt lat="42.695344" lon="-1.767420">
        <ele>460.1</ele>
        <time>2018-08-23T10:50:12Z</time>
      </trkpt>
      <trkpt lat="42.695197" lon="-1.767543">
        <ele>459.6</ele>
        <time>2018-08-23T10:50:27Z</time>
      </trkpt>
      <trkpt lat="42.695135" lon="-1.767618">
        <ele>459.2</ele>
        <time>2018-08-23T10:50:34Z</time>
      </trkpt>
      <trkpt lat="42.694926" lon="-1.767715">
        <ele>458.7</ele>
        <time>2018-08-23T10:50:50Z</time>
      </trkpt>
      <trkpt lat="42.694740" lon="-1.767774">
        <ele>458.2</ele>
        <time>2018-08-23T10:51:05Z</time>
      </trkpt>
      <trkpt lat="42.694504" lon="-1.767887">
        <ele>457.7</ele>
        <time>2018-08-23T10:51:23Z</time>
      </trkpt>
      <trkpt lat="42.694302" lon="-1.767958">
        <ele>456.8</ele>
        <time>2018-08-23T10:51:40Z</time>
      </trkpt>
      <trkpt lat="42.694104" lon="-1.768033">
        <ele>455.8</ele>
        <time>2018-08-23T10:51:56Z</time>
      </trkpt>
      <trkpt lat="42.694069" lon="-1.768057">
        <ele>459.2</ele>
        <time>2018-08-23T10:51:59Z</time>
      </trkpt>
      <trkpt lat="42.694056" lon="-1.768062">
        <ele>459.2</ele>
        <time>2018-08-23T10:52:00Z</time>
      </trkpt>
      <trkpt lat="42.694042" lon="-1.768068">
        <ele>455.8</ele>
        <time>2018-08-23T10:52:01Z</time>
      </trkpt>
      <trkpt lat="42.694031" lon="-1.768074">
        <ele>455.8</ele>
        <time>2018-08-23T10:52:02Z</time>
      </trkpt>
      <trkpt lat="42.693833" lon="-1.768164">
        <ele>455.8</ele>
        <time>2018-08-23T10:52:18Z</time>
      </trkpt>
      <trkpt lat="42.693622" lon="-1.768259">
        <ele>454.4</ele>
        <time>2018-08-23T10:52:36Z</time>
      </trkpt>
      <trkpt lat="42.693463" lon="-1.768350">
        <ele>454.4</ele>
        <time>2018-08-23T10:52:51Z</time>
      </trkpt>
      <trkpt lat="42.693278" lon="-1.768444">
        <ele>454.8</ele>
        <time>2018-08-23T10:53:07Z</time>
      </trkpt>
      <trkpt lat="42.693062" lon="-1.768577">
        <ele>453.4</ele>
        <time>2018-08-23T10:53:25Z</time>
      </trkpt>
      <trkpt lat="42.693011" lon="-1.768614">
        <ele>453.9</ele>
        <time>2018-08-23T10:53:30Z</time>
      </trkpt>
      <trkpt lat="42.692952" lon="-1.768632">
        <ele>453.9</ele>
        <time>2018-08-23T10:53:35Z</time>
      </trkpt>
      <trkpt lat="42.692744" lon="-1.768774">
        <ele>452.9</ele>
        <time>2018-08-23T10:53:54Z</time>
      </trkpt>
      <trkpt lat="42.692532" lon="-1.768913">
        <ele>452.4</ele>
        <time>2018-08-23T10:54:13Z</time>
      </trkpt>
      <trkpt lat="42.692337" lon="-1.769009">
        <ele>452.0</ele>
        <time>2018-08-23T10:54:29Z</time>
      </trkpt>
      <trkpt lat="42.692076" lon="-1.769095">
        <ele>452.0</ele>
        <time>2018-08-23T10:54:51Z</time>
      </trkpt>
      <trkpt lat="42.691838" lon="-1.769213">
        <ele>451.0</ele>
        <time>2018-08-23T10:55:11Z</time>
      </trkpt>
      <trkpt lat="42.691754" lon="-1.769261">
        <ele>451.5</ele>
        <time>2018-08-23T10:55:18Z</time>
      </trkpt>
      <trkpt lat="42.691604" lon="-1.769380">
        <ele>450.0</ele>
        <time>2018-08-23T10:55:49Z</time>
      </trkpt>
      <trkpt lat="42.691458" lon="-1.769543">
        <ele>450.5</ele>
        <time>2018-08-23T10:56:05Z</time>
      </trkpt>
      <trkpt lat="42.691290" lon="-1.769720">
        <ele>450.0</ele>
        <time>2018-08-23T10:56:21Z</time>
      </trkpt>
      <trkpt lat="42.691142" lon="-1.769863">
        <ele>448.6</ele>
        <time>2018-08-23T10:56:36Z</time>
      </trkpt>
      <trkpt lat="42.691122" lon="-1.769886">
        <ele>452.9</ele>
        <time>2018-08-23T10:56:38Z</time>
      </trkpt>
      <trkpt lat="42.691114" lon="-1.769896">
        <ele>450.0</ele>
        <time>2018-08-23T10:56:39Z</time>
      </trkpt>
      <trkpt lat="42.691058" lon="-1.769942">
        <ele>451.0</ele>
        <time>2018-08-23T10:56:44Z</time>
      </trkpt>
      <trkpt lat="42.691032" lon="-1.769966">
        <ele>449.1</ele>
        <time>2018-08-23T10:56:46Z</time>
      </trkpt>
      <trkpt lat="42.690864" lon="-1.770095">
        <ele>448.6</ele>
        <time>2018-08-23T10:57:02Z</time>
      </trkpt>
      <trkpt lat="42.690779" lon="-1.770164">
        <ele>445.2</ele>
        <time>2018-08-23T10:57:10Z</time>
      </trkpt>
      <trkpt lat="42.690768" lon="-1.770172">
        <ele>449.5</ele>
        <time>2018-08-23T10:57:11Z</time>
      </trkpt>
      <trkpt lat="42.690718" lon="-1.770219">
        <ele>445.2</ele>
        <time>2018-08-23T10:57:16Z</time>
      </trkpt>
      <trkpt lat="42.690710" lon="-1.770242">
        <ele>452.0</ele>
        <time>2018-08-23T10:57:17Z</time>
      </trkpt>
      <trkpt lat="42.690701" lon="-1.770253">
        <ele>450.5</ele>
        <time>2018-08-23T10:57:18Z</time>
      </trkpt>
      <trkpt lat="42.690683" lon="-1.770274">
        <ele>448.6</ele>
        <time>2018-08-23T10:57:20Z</time>
      </trkpt>
      <trkpt lat="42.690537" lon="-1.770426">
        <ele>447.1</ele>
        <time>2018-08-23T10:57:36Z</time>
      </trkpt>
      <trkpt lat="42.690520" lon="-1.770451">
        <ele>447.6</ele>
        <time>2018-08-23T10:57:38Z</time>
      </trkpt>
      <trkpt lat="42.690265" lon="-1.770661">
        <ele>446.7</ele>
        <time>2018-08-23T10:58:24Z</time>
      </trkpt>
      <trkpt lat="42.690147" lon="-1.770795">
        <ele>446.7</ele>
        <time>2018-08-23T10:58:39Z</time>
      </trkpt>
      <trkpt lat="42.689983" lon="-1.770890">
        <ele>446.7</ele>
        <time>2018-08-23T10:58:56Z</time>
      </trkpt>
      <trkpt lat="42.689968" lon="-1.770795">
        <ele>447.1</ele>
        <time>2018-08-23T10:59:03Z</time>
      </trkpt>
      <trkpt lat="42.689955" lon="-1.770734">
        <ele>447.1</ele>
        <time>2018-08-23T10:59:07Z</time>
      </trkpt>
      <trkpt lat="42.689993" lon="-1.770697">
        <ele>446.7</ele>
        <time>2018-08-23T10:59:11Z</time>
      </trkpt>
      <trkpt lat="42.690038" lon="-1.770575">
        <ele>447.1</ele>
        <time>2018-08-23T10:59:22Z</time>
      </trkpt>
      <trkpt lat="42.690027" lon="-1.770548">
        <ele>447.1</ele>
        <time>2018-08-23T10:59:33Z</time>
      </trkpt>
      <trkpt lat="42.690018" lon="-1.770558">
        <ele>447.6</ele>
        <time>2018-08-23T10:59:50Z</time>
      </trkpt>
      <trkpt lat="42.690013" lon="-1.770578">
        <ele>448.1</ele>
        <time>2018-08-23T11:00:05Z</time>
      </trkpt>
      <trkpt lat="42.690012" lon="-1.770600">
        <ele>447.6</ele>
        <time>2018-08-23T11:02:21Z</time>
      </trkpt>
      <trkpt lat="42.689998" lon="-1.770649">
        <ele>447.1</ele>
        <time>2018-08-23T11:03:31Z</time>
      </trkpt>
      <trkpt lat="42.689943" lon="-1.770731">
        <ele>447.1</ele>
        <time>2018-08-23T11:03:39Z</time>
      </trkpt>
      <trkpt lat="42.689938" lon="-1.770881">
        <ele>446.7</ele>
        <time>2018-08-23T11:03:49Z</time>
      </trkpt>
      <trkpt lat="42.689786" lon="-1.771034">
        <ele>446.7</ele>
        <time>2018-08-23T11:04:05Z</time>
      </trkpt>
      <trkpt lat="42.689569" lon="-1.771115">
        <ele>446.2</ele>
        <time>2018-08-23T11:04:21Z</time>
      </trkpt>
      <trkpt lat="42.689417" lon="-1.771240">
        <ele>445.7</ele>
        <time>2018-08-23T11:04:35Z</time>
      </trkpt>
      <trkpt lat="42.689373" lon="-1.771313">
        <ele>445.7</ele>
        <time>2018-08-23T11:04:41Z</time>
      </trkpt>
      <trkpt lat="42.689313" lon="-1.771377">
        <ele>444.8</ele>
        <time>2018-08-23T11:04:56Z</time>
      </trkpt>
      <trkpt lat="42.689309" lon="-1.771457">
        <ele>444.8</ele>
        <time>2018-08-23T11:05:25Z</time>
      </trkpt>
      <trkpt lat="42.689255" lon="-1.771479">
        <ele>447.1</ele>
        <time>2018-08-23T11:08:42Z</time>
      </trkpt>
      <trkpt lat="42.689223" lon="-1.771510">
        <ele>446.7</ele>
        <time>2018-08-23T11:08:46Z</time>
      </trkpt>
      <trkpt lat="42.689093" lon="-1.771680">
        <ele>445.7</ele>
        <time>2018-08-23T11:09:04Z</time>
      </trkpt>
      <trkpt lat="42.689026" lon="-1.771778">
        <ele>444.3</ele>
        <time>2018-08-23T11:09:12Z</time>
      </trkpt>
      <trkpt lat="42.688964" lon="-1.771814">
        <ele>445.2</ele>
        <time>2018-08-23T11:09:17Z</time>
      </trkpt>
      <trkpt lat="42.688940" lon="-1.771810">
        <ele>447.1</ele>
        <time>2018-08-23T11:09:19Z</time>
      </trkpt>
      <trkpt lat="42.688933" lon="-1.771815">
        <ele>446.7</ele>
        <time>2018-08-23T11:09:20Z</time>
      </trkpt>
      <trkpt lat="42.688913" lon="-1.771836">
        <ele>444.3</ele>
        <time>2018-08-23T11:09:22Z</time>
      </trkpt>
      <trkpt lat="42.688869" lon="-1.771866">
        <ele>444.3</ele>
        <time>2018-08-23T11:09:26Z</time>
      </trkpt>
      <trkpt lat="42.688714" lon="-1.771869">
        <ele>444.8</ele>
        <time>2018-08-23T11:09:40Z</time>
      </trkpt>
      <trkpt lat="42.688494" lon="-1.772000">
        <ele>443.8</ele>
        <time>2018-08-23T11:09:58Z</time>
      </trkpt>
      <trkpt lat="42.688352" lon="-1.772105">
        <ele>443.3</ele>
        <time>2018-08-23T11:10:10Z</time>
      </trkpt>
      <trkpt lat="42.688177" lon="-1.772211">
        <ele>441.9</ele>
        <time>2018-08-23T11:10:25Z</time>
      </trkpt>
      <trkpt lat="42.688042" lon="-1.772326">
        <ele>440.9</ele>
        <time>2018-08-23T11:10:41Z</time>
      </trkpt>
      <trkpt lat="42.687876" lon="-1.772478">
        <ele>439.5</ele>
        <time>2018-08-23T11:10:59Z</time>
      </trkpt>
      <trkpt lat="42.687847" lon="-1.772526">
        <ele>439.0</ele>
        <time>2018-08-23T11:11:03Z</time>
      </trkpt>
      <trkpt lat="42.687786" lon="-1.772650">
        <ele>437.5</ele>
        <time>2018-08-23T11:11:19Z</time>
      </trkpt>
      <trkpt lat="42.687787" lon="-1.772649">
        <ele>438.0</ele>
        <time>2018-08-23T11:11:20Z</time>
      </trkpt>
      <trkpt lat="42.687763" lon="-1.772707">
        <ele>437.1</ele>
        <time>2018-08-23T11:11:29Z</time>
      </trkpt>
      <trkpt lat="42.687739" lon="-1.772820">
        <ele>435.1</ele>
        <time>2018-08-23T11:11:37Z</time>
      </trkpt>
      <trkpt lat="42.687722" lon="-1.772957">
        <ele>433.2</ele>
        <time>2018-08-23T11:11:50Z</time>
      </trkpt>
      <trkpt lat="42.687662" lon="-1.773158">
        <ele>430.3</ele>
        <time>2018-08-23T11:12:06Z</time>
      </trkpt>
      <trkpt lat="42.687611" lon="-1.773260">
        <ele>429.4</ele>
        <time>2018-08-23T11:12:14Z</time>
      </trkpt>
      <trkpt lat="42.687490" lon="-1.773427">
        <ele>426.0</ele>
        <time>2018-08-23T11:12:28Z</time>
      </trkpt>
      <trkpt lat="42.687419" lon="-1.773546">
        <ele>425.0</ele>
        <time>2018-08-23T11:12:37Z</time>
      </trkpt>
      <trkpt lat="42.687402" lon="-1.773566">
        <ele>424.1</ele>
        <time>2018-08-23T11:12:39Z</time>
      </trkpt>
      <trkpt lat="42.687296" lon="-1.773698">
        <ele>422.2</ele>
        <time>2018-08-23T11:12:51Z</time>
      </trkpt>
      <trkpt lat="42.687211" lon="-1.773820">
        <ele>421.7</ele>
        <time>2018-08-23T11:13:01Z</time>
      </trkpt>
      <trkpt lat="42.687075" lon="-1.774016">
        <ele>419.3</ele>
        <time>2018-08-23T11:13:17Z</time>
      </trkpt>
      <trkpt lat="42.686962" lon="-1.774183">
        <ele>418.3</ele>
        <time>2018-08-23T11:13:32Z</time>
      </trkpt>
      <trkpt lat="42.686839" lon="-1.774358">
        <ele>417.4</ele>
        <time>2018-08-23T11:13:48Z</time>
      </trkpt>
      <trkpt lat="42.686699" lon="-1.774539">
        <ele>415.9</ele>
        <time>2018-08-23T11:14:05Z</time>
      </trkpt>
      <trkpt lat="42.686566" lon="-1.774699">
        <ele>415.0</ele>
        <time>2018-08-23T11:14:20Z</time>
      </trkpt>
      <trkpt lat="42.686526" lon="-1.774745">
        <ele>414.5</ele>
        <time>2018-08-23T11:14:24Z</time>
      </trkpt>
      <trkpt lat="42.686472" lon="-1.774806">
        <ele>414.0</ele>
        <time>2018-08-23T11:14:30Z</time>
      </trkpt>
      <trkpt lat="42.686306" lon="-1.774979">
        <ele>412.1</ele>
        <time>2018-08-23T11:14:47Z</time>
      </trkpt>
      <trkpt lat="42.686144" lon="-1.775138">
        <ele>410.6</ele>
        <time>2018-08-23T11:15:03Z</time>
      </trkpt>
      <trkpt lat="42.685941" lon="-1.775295">
        <ele>408.7</ele>
        <time>2018-08-23T11:15:22Z</time>
      </trkpt>
      <trkpt lat="42.685759" lon="-1.775438">
        <ele>408.2</ele>
        <time>2018-08-23T11:15:39Z</time>
      </trkpt>
      <trkpt lat="42.685605" lon="-1.775556">
        <ele>407.3</ele>
        <time>2018-08-23T11:15:53Z</time>
      </trkpt>
      <trkpt lat="42.685434" lon="-1.775697">
        <ele>407.3</ele>
        <time>2018-08-23T11:16:10Z</time>
      </trkpt>
      <trkpt lat="42.685268" lon="-1.775857">
        <ele>405.8</ele>
        <time>2018-08-23T11:16:26Z</time>
      </trkpt>
      <trkpt lat="42.685129" lon="-1.776017">
        <ele>405.3</ele>
        <time>2018-08-23T11:16:41Z</time>
      </trkpt>
      <trkpt lat="42.685030" lon="-1.776139">
        <ele>404.4</ele>
        <time>2018-08-23T11:16:52Z</time>
      </trkpt>
      <trkpt lat="42.684869" lon="-1.776356">
        <ele>403.4</ele>
        <time>2018-08-23T11:17:10Z</time>
      </trkpt>
      <trkpt lat="42.684705" lon="-1.776580">
        <ele>402.5</ele>
        <time>2018-08-23T11:17:28Z</time>
      </trkpt>
      <trkpt lat="42.684555" lon="-1.776795">
        <ele>402.0</ele>
        <time>2018-08-23T11:17:45Z</time>
      </trkpt>
      <trkpt lat="42.684417" lon="-1.777004">
        <ele>401.5</ele>
        <time>2018-08-23T11:18:02Z</time>
      </trkpt>
      <trkpt lat="42.684372" lon="-1.777085">
        <ele>401.5</ele>
        <time>2018-08-23T11:18:08Z</time>
      </trkpt>
      <trkpt lat="42.684231" lon="-1.777318">
        <ele>401.5</ele>
        <time>2018-08-23T11:18:26Z</time>
      </trkpt>
      <trkpt lat="42.684120" lon="-1.777556">
        <ele>402.0</ele>
        <time>2018-08-23T11:18:42Z</time>
      </trkpt>
      <trkpt lat="42.684032" lon="-1.777783">
        <ele>401.5</ele>
        <time>2018-08-23T11:18:58Z</time>
      </trkpt>
      <trkpt lat="42.684022" lon="-1.777812">
        <ele>401.0</ele>
        <time>2018-08-23T11:19:00Z</time>
      </trkpt>
      <trkpt lat="42.684011" lon="-1.777872">
        <ele>401.0</ele>
        <time>2018-08-23T11:19:05Z</time>
      </trkpt>
      <trkpt lat="42.683982" lon="-1.777959">
        <ele>401.0</ele>
        <time>2018-08-23T11:20:02Z</time>
      </trkpt>
      <trkpt lat="42.683885" lon="-1.778195">
        <ele>400.5</ele>
        <time>2018-08-23T11:20:19Z</time>
      </trkpt>
      <trkpt lat="42.683663" lon="-1.778378">
        <ele>400.5</ele>
        <time>2018-08-23T11:20:44Z</time>
      </trkpt>
      <trkpt lat="42.683560" lon="-1.778542">
        <ele>401.0</ele>
        <time>2018-08-23T11:21:01Z</time>
      </trkpt>
      <trkpt lat="42.683546" lon="-1.778557">
        <ele>401.0</ele>
        <time>2018-08-23T11:21:03Z</time>
      </trkpt>
      <trkpt lat="42.683531" lon="-1.778583">
        <ele>401.5</ele>
        <time>2018-08-23T11:21:05Z</time>
      </trkpt>
      <trkpt lat="42.683516" lon="-1.778660">
        <ele>401.0</ele>
        <time>2018-08-23T11:21:10Z</time>
      </trkpt>
      <trkpt lat="42.683394" lon="-1.778865">
        <ele>401.0</ele>
        <time>2018-08-23T11:21:27Z</time>
      </trkpt>
      <trkpt lat="42.683311" lon="-1.779051">
        <ele>401.5</ele>
        <time>2018-08-23T11:21:40Z</time>
      </trkpt>
      <trkpt lat="42.683277" lon="-1.779104">
        <ele>403.4</ele>
        <time>2018-08-23T11:21:44Z</time>
      </trkpt>
      <trkpt lat="42.683143" lon="-1.779308">
        <ele>403.4</ele>
        <time>2018-08-23T11:22:01Z</time>
      </trkpt>
      <trkpt lat="42.683054" lon="-1.779488">
        <ele>403.4</ele>
        <time>2018-08-23T11:22:14Z</time>
      </trkpt>
      <trkpt lat="42.683013" lon="-1.779575">
        <ele>403.9</ele>
        <time>2018-08-23T11:22:21Z</time>
      </trkpt>
      <trkpt lat="42.682929" lon="-1.779727">
        <ele>405.3</ele>
        <time>2018-08-23T11:22:33Z</time>
      </trkpt>
      <trkpt lat="42.682910" lon="-1.779751">
        <ele>405.8</ele>
        <time>2018-08-23T11:22:35Z</time>
      </trkpt>
      <trkpt lat="42.682853" lon="-1.779846">
        <ele>406.3</ele>
        <time>2018-08-23T11:22:43Z</time>
      </trkpt>
      <trkpt lat="42.682744" lon="-1.780008">
        <ele>407.3</ele>
        <time>2018-08-23T11:22:57Z</time>
      </trkpt>
      <trkpt lat="42.682714" lon="-1.780053">
        <ele>406.8</ele>
        <time>2018-08-23T11:23:01Z</time>
      </trkpt>
      <trkpt lat="42.682677" lon="-1.780109">
        <ele>406.8</ele>
        <time>2018-08-23T11:23:06Z</time>
      </trkpt>
      <trkpt lat="42.682644" lon="-1.780153">
        <ele>407.7</ele>
        <time>2018-08-23T11:23:10Z</time>
      </trkpt>
      <trkpt lat="42.682512" lon="-1.780346">
        <ele>409.2</ele>
        <time>2018-08-23T11:23:27Z</time>
      </trkpt>
      <trkpt lat="42.682402" lon="-1.780493">
        <ele>409.2</ele>
        <time>2018-08-23T11:23:39Z</time>
      </trkpt>
      <trkpt lat="42.682264" lon="-1.780703">
        <ele>410.1</ele>
        <time>2018-08-23T11:23:57Z</time>
      </trkpt>
      <trkpt lat="42.682214" lon="-1.780769">
        <ele>409.7</ele>
        <time>2018-08-23T11:24:03Z</time>
      </trkpt>
      <trkpt lat="42.682088" lon="-1.780897">
        <ele>410.6</ele>
        <time>2018-08-23T11:24:17Z</time>
      </trkpt>
      <trkpt lat="42.681966" lon="-1.781027">
        <ele>411.6</ele>
        <time>2018-08-23T11:24:30Z</time>
      </trkpt>
      <trkpt lat="42.681959" lon="-1.781041">
        <ele>411.6</ele>
        <time>2018-08-23T11:24:31Z</time>
      </trkpt>
      <trkpt lat="42.681904" lon="-1.781085">
        <ele>411.6</ele>
        <time>2018-08-23T11:24:36Z</time>
      </trkpt>
      <trkpt lat="42.681840" lon="-1.781148">
        <ele>412.5</ele>
        <time>2018-08-23T11:24:43Z</time>
      </trkpt>
      <trkpt lat="42.681764" lon="-1.781198">
        <ele>414.0</ele>
        <time>2018-08-23T11:24:51Z</time>
      </trkpt>
      <trkpt lat="42.681734" lon="-1.781231">
        <ele>414.0</ele>
        <time>2018-08-23T11:24:55Z</time>
      </trkpt>
      <trkpt lat="42.681655" lon="-1.781319">
        <ele>415.0</ele>
        <time>2018-08-23T11:25:07Z</time>
      </trkpt>
      <trkpt lat="42.681575" lon="-1.781405">
        <ele>415.9</ele>
        <time>2018-08-23T11:25:17Z</time>
      </trkpt>
      <trkpt lat="42.681469" lon="-1.781498">
        <ele>417.8</ele>
        <time>2018-08-23T11:25:30Z</time>
      </trkpt>
      <trkpt lat="42.681412" lon="-1.781567">
        <ele>418.8</ele>
        <time>2018-08-23T11:25:42Z</time>
      </trkpt>
      <trkpt lat="42.681399" lon="-1.781567">
        <ele>419.3</ele>
        <time>2018-08-23T11:25:53Z</time>
      </trkpt>
      <trkpt lat="42.681400" lon="-1.781626">
        <ele>418.8</ele>
        <time>2018-08-23T11:26:05Z</time>
      </trkpt>
      <trkpt lat="42.681365" lon="-1.781655">
        <ele>419.8</ele>
        <time>2018-08-23T11:26:17Z</time>
      </trkpt>
      <trkpt lat="42.681362" lon="-1.781638">
        <ele>419.8</ele>
        <time>2018-08-23T11:26:32Z</time>
      </trkpt>
      <trkpt lat="42.681333" lon="-1.781738">
        <ele>420.2</ele>
        <time>2018-08-23T11:26:40Z</time>
      </trkpt>
      <trkpt lat="42.681313" lon="-1.781816">
        <ele>421.2</ele>
        <time>2018-08-23T11:26:45Z</time>
      </trkpt>
      <trkpt lat="42.681296" lon="-1.781850">
        <ele>421.2</ele>
        <time>2018-08-23T11:26:48Z</time>
      </trkpt>
      <trkpt lat="42.681255" lon="-1.782041">
        <ele>422.6</ele>
        <time>2018-08-23T11:27:02Z</time>
      </trkpt>
      <trkpt lat="42.681240" lon="-1.782146">
        <ele>422.6</ele>
        <time>2018-08-23T11:27:10Z</time>
      </trkpt>
      <trkpt lat="42.681231" lon="-1.782377">
        <ele>422.2</ele>
        <time>2018-08-23T11:27:26Z</time>
      </trkpt>
      <trkpt lat="42.681229" lon="-1.782657">
        <ele>421.2</ele>
        <time>2018-08-23T11:27:42Z</time>
      </trkpt>
      <trkpt lat="42.681234" lon="-1.782880">
        <ele>421.7</ele>
        <time>2018-08-23T11:27:56Z</time>
      </trkpt>
      <trkpt lat="42.681248" lon="-1.783212">
        <ele>420.2</ele>
        <time>2018-08-23T11:32:44Z</time>
      </trkpt>
      <trkpt lat="42.681258" lon="-1.783462">
        <ele>420.2</ele>
        <time>2018-08-23T11:33:00Z</time>
      </trkpt>
      <trkpt lat="42.681255" lon="-1.783530">
        <ele>420.2</ele>
        <time>2018-08-23T11:33:05Z</time>
      </trkpt>
      <trkpt lat="42.681199" lon="-1.783791">
        <ele>419.8</ele>
        <time>2018-08-23T11:33:23Z</time>
      </trkpt>
      <trkpt lat="42.681219" lon="-1.783905">
        <ele>419.3</ele>
        <time>2018-08-23T11:33:37Z</time>
      </trkpt>
      <trkpt lat="42.681212" lon="-1.783954">
        <ele>428.4</ele>
        <time>2018-08-23T12:11:45Z</time>
      </trkpt>
      <trkpt lat="42.681219" lon="-1.784077">
        <ele>427.9</ele>
        <time>2018-08-23T12:11:54Z</time>
      </trkpt>
      <trkpt lat="42.681182" lon="-1.784291">
        <ele>427.9</ele>
        <time>2018-08-23T12:12:10Z</time>
      </trkpt>
      <trkpt lat="42.681159" lon="-1.784336">
        <ele>427.4</ele>
        <time>2018-08-23T12:12:37Z</time>
      </trkpt>
      <trkpt lat="42.680981" lon="-1.784457">
        <ele>427.0</ele>
        <time>2018-08-23T12:12:52Z</time>
      </trkpt>
      <trkpt lat="42.680906" lon="-1.784518">
        <ele>426.5</ele>
        <time>2018-08-23T12:12:59Z</time>
      </trkpt>
      <trkpt lat="42.680885" lon="-1.784732">
        <ele>425.5</ele>
        <time>2018-08-23T12:13:14Z</time>
      </trkpt>
      <trkpt lat="42.680898" lon="-1.784804">
        <ele>426.5</ele>
        <time>2018-08-23T12:13:27Z</time>
      </trkpt>
      <trkpt lat="42.680887" lon="-1.784893">
        <ele>426.0</ele>
        <time>2018-08-23T12:13:35Z</time>
      </trkpt>
      <trkpt lat="42.680936" lon="-1.785128">
        <ele>426.0</ele>
        <time>2018-08-23T12:13:53Z</time>
      </trkpt>
      <trkpt lat="42.680935" lon="-1.785150">
        <ele>426.0</ele>
        <time>2018-08-23T12:13:59Z</time>
      </trkpt>
      <trkpt lat="42.680855" lon="-1.785188">
        <ele>426.0</ele>
        <time>2018-08-23T12:14:07Z</time>
      </trkpt>
      <trkpt lat="42.680758" lon="-1.785250">
        <ele>425.5</ele>
        <time>2018-08-23T12:14:23Z</time>
      </trkpt>
      <trkpt lat="42.680582" lon="-1.785328">
        <ele>425.0</ele>
        <time>2018-08-23T12:14:39Z</time>
      </trkpt>
      <trkpt lat="42.680494" lon="-1.785364">
        <ele>425.0</ele>
        <time>2018-08-23T12:14:51Z</time>
      </trkpt>
      <trkpt lat="42.680384" lon="-1.785442">
        <ele>424.6</ele>
        <time>2018-08-23T12:15:05Z</time>
      </trkpt>
      <trkpt lat="42.680220" lon="-1.785506">
        <ele>424.6</ele>
        <time>2018-08-23T12:15:20Z</time>
      </trkpt>
      <trkpt lat="42.680092" lon="-1.785565">
        <ele>424.6</ele>
        <time>2018-08-23T12:15:33Z</time>
      </trkpt>
      <trkpt lat="42.679973" lon="-1.785638">
        <ele>424.6</ele>
        <time>2018-08-23T12:15:43Z</time>
      </trkpt>
      <trkpt lat="42.679927" lon="-1.785724">
        <ele>424.1</ele>
        <time>2018-08-23T12:15:56Z</time>
      </trkpt>
      <trkpt lat="42.679887" lon="-1.785768">
        <ele>423.1</ele>
        <time>2018-08-23T12:16:01Z</time>
      </trkpt>
      <trkpt lat="42.679866" lon="-1.785801">
        <ele>424.1</ele>
        <time>2018-08-23T12:16:16Z</time>
      </trkpt>
      <trkpt lat="42.679861" lon="-1.785806">
        <ele>423.6</ele>
        <time>2018-08-23T12:16:17Z</time>
      </trkpt>
      <trkpt lat="42.679804" lon="-1.785804">
        <ele>423.6</ele>
        <time>2018-08-23T12:16:23Z</time>
      </trkpt>
      <trkpt lat="42.679756" lon="-1.785825">
        <ele>423.6</ele>
        <time>2018-08-23T12:16:27Z</time>
      </trkpt>
      <trkpt lat="42.679547" lon="-1.785881">
        <ele>423.6</ele>
        <time>2018-08-23T12:16:44Z</time>
      </trkpt>
      <trkpt lat="42.679521" lon="-1.785902">
        <ele>423.6</ele>
        <time>2018-08-23T12:16:51Z</time>
      </trkpt>
      <trkpt lat="42.679431" lon="-1.786142">
        <ele>423.6</ele>
        <time>2018-08-23T12:17:09Z</time>
      </trkpt>
      <trkpt lat="42.679409" lon="-1.786175">
        <ele>422.2</ele>
        <time>2018-08-23T12:20:45Z</time>
      </trkpt>
      <trkpt lat="42.679348" lon="-1.786329">
        <ele>422.6</ele>
        <time>2018-08-23T12:20:58Z</time>
      </trkpt>
      <trkpt lat="42.679331" lon="-1.786340">
        <ele>422.6</ele>
        <time>2018-08-23T12:21:16Z</time>
      </trkpt>
      <trkpt lat="42.679309" lon="-1.786563">
        <ele>421.7</ele>
        <time>2018-08-23T12:21:32Z</time>
      </trkpt>
      <trkpt lat="42.679312" lon="-1.786701">
        <ele>419.8</ele>
        <time>2018-08-23T12:21:46Z</time>
      </trkpt>
      <trkpt lat="42.679315" lon="-1.786823">
        <ele>420.7</ele>
        <time>2018-08-23T12:21:59Z</time>
      </trkpt>
      <trkpt lat="42.679237" lon="-1.786869">
        <ele>420.7</ele>
        <time>2018-08-23T12:22:13Z</time>
      </trkpt>
      <trkpt lat="42.679217" lon="-1.787013">
        <ele>420.2</ele>
        <time>2018-08-23T12:22:26Z</time>
      </trkpt>
      <trkpt lat="42.679223" lon="-1.787149">
        <ele>419.8</ele>
        <time>2018-08-23T12:22:38Z</time>
      </trkpt>
      <trkpt lat="42.679143" lon="-1.787249">
        <ele>419.8</ele>
        <time>2018-08-23T12:22:49Z</time>
      </trkpt>
      <trkpt lat="42.679014" lon="-1.787414">
        <ele>419.3</ele>
        <time>2018-08-23T12:23:05Z</time>
      </trkpt>
      <trkpt lat="42.678985" lon="-1.787461">
        <ele>419.3</ele>
        <time>2018-08-23T12:23:09Z</time>
      </trkpt>
      <trkpt lat="42.678946" lon="-1.787690">
        <ele>418.8</ele>
        <time>2018-08-23T12:23:26Z</time>
      </trkpt>
      <trkpt lat="42.678932" lon="-1.787764">
        <ele>419.3</ele>
        <time>2018-08-23T12:23:33Z</time>
      </trkpt>
      <trkpt lat="42.679057" lon="-1.788586">
        <ele>417.4</ele>
        <time>2018-08-23T12:25:45Z</time>
      </trkpt>
      <trkpt lat="42.679076" lon="-1.788709">
        <ele>417.4</ele>
        <time>2018-08-23T12:25:59Z</time>
      </trkpt>
      <trkpt lat="42.679137" lon="-1.788958">
        <ele>416.4</ele>
        <time>2018-08-23T12:26:14Z</time>
      </trkpt>
      <trkpt lat="42.679206" lon="-1.789211">
        <ele>416.9</ele>
        <time>2018-08-23T12:26:31Z</time>
      </trkpt>
      <trkpt lat="42.679255" lon="-1.789533">
        <ele>415.9</ele>
        <time>2018-08-23T12:27:35Z</time>
      </trkpt>
      <trkpt lat="42.679293" lon="-1.789678">
        <ele>416.9</ele>
        <time>2018-08-23T12:28:03Z</time>
      </trkpt>
      <trkpt lat="42.679340" lon="-1.790000">
        <ele>415.0</ele>
        <time>2018-08-23T12:28:20Z</time>
      </trkpt>
      <trkpt lat="42.679390" lon="-1.790258">
        <ele>415.0</ele>
        <time>2018-08-23T12:28:36Z</time>
      </trkpt>
      <trkpt lat="42.679391" lon="-1.790272">
        <ele>414.5</ele>
        <time>2018-08-23T12:28:37Z</time>
      </trkpt>
      <trkpt lat="42.679392" lon="-1.790564">
        <ele>414.0</ele>
        <time>2018-08-23T12:28:55Z</time>
      </trkpt>
      <trkpt lat="42.679371" lon="-1.790816">
        <ele>414.5</ele>
        <time>2018-08-23T12:29:10Z</time>
      </trkpt>
      <trkpt lat="42.679367" lon="-1.790941">
        <ele>413.0</ele>
        <time>2018-08-23T12:29:17Z</time>
      </trkpt>
      <trkpt lat="42.679355" lon="-1.791090">
        <ele>413.0</ele>
        <time>2018-08-23T12:29:26Z</time>
      </trkpt>
      <trkpt lat="42.679290" lon="-1.791363">
        <ele>413.0</ele>
        <time>2018-08-23T12:29:42Z</time>
      </trkpt>
      <trkpt lat="42.679231" lon="-1.791589">
        <ele>413.0</ele>
        <time>2018-08-23T12:29:57Z</time>
      </trkpt>
      <trkpt lat="42.679120" lon="-1.791844">
        <ele>413.0</ele>
        <time>2018-08-23T12:30:14Z</time>
      </trkpt>
      <trkpt lat="42.679021" lon="-1.792028">
        <ele>412.1</ele>
        <time>2018-08-23T12:30:27Z</time>
      </trkpt>
      <trkpt lat="42.678990" lon="-1.792072">
        <ele>412.5</ele>
        <time>2018-08-23T12:30:31Z</time>
      </trkpt>
      <trkpt lat="42.678874" lon="-1.792317">
        <ele>411.6</ele>
        <time>2018-08-23T12:30:49Z</time>
      </trkpt>
      <trkpt lat="42.678865" lon="-1.792329">
        <ele>411.6</ele>
        <time>2018-08-23T12:30:50Z</time>
      </trkpt>
      <trkpt lat="42.678759" lon="-1.792642">
        <ele>409.7</ele>
        <time>2018-08-23T12:31:11Z</time>
      </trkpt>
      <trkpt lat="42.678755" lon="-1.792655">
        <ele>408.7</ele>
        <time>2018-08-23T12:31:12Z</time>
      </trkpt>
      <trkpt lat="42.678623" lon="-1.792902">
        <ele>407.3</ele>
        <time>2018-08-23T12:31:31Z</time>
      </trkpt>
      <trkpt lat="42.678545" lon="-1.793028">
        <ele>406.8</ele>
        <time>2018-08-23T12:31:41Z</time>
      </trkpt>
      <trkpt lat="42.678514" lon="-1.793075">
        <ele>407.3</ele>
        <time>2018-08-23T12:31:45Z</time>
      </trkpt>
      <trkpt lat="42.678432" lon="-1.793254">
        <ele>406.8</ele>
        <time>2018-08-23T12:31:58Z</time>
      </trkpt>
      <trkpt lat="42.678368" lon="-1.793571">
        <ele>405.8</ele>
        <time>2018-08-23T12:32:18Z</time>
      </trkpt>
      <trkpt lat="42.678310" lon="-1.793860">
        <ele>403.9</ele>
        <time>2018-08-23T12:32:37Z</time>
      </trkpt>
      <trkpt lat="42.678306" lon="-1.793884">
        <ele>403.9</ele>
        <time>2018-08-23T12:32:44Z</time>
      </trkpt>
      <trkpt lat="42.678296" lon="-1.793942">
        <ele>403.9</ele>
        <time>2018-08-23T12:32:48Z</time>
      </trkpt>
      <trkpt lat="42.678262" lon="-1.794233">
        <ele>400.5</ele>
        <time>2018-08-23T12:33:05Z</time>
      </trkpt>
      <trkpt lat="42.678268" lon="-1.794377">
        <ele>399.1</ele>
        <time>2018-08-23T12:33:15Z</time>
      </trkpt>
      <trkpt lat="42.678213" lon="-1.794656">
        <ele>395.2</ele>
        <time>2018-08-23T12:33:34Z</time>
      </trkpt>
      <trkpt lat="42.678183" lon="-1.794873">
        <ele>392.4</ele>
        <time>2018-08-23T12:33:50Z</time>
      </trkpt>
      <trkpt lat="42.678178" lon="-1.794896">
        <ele>392.4</ele>
        <time>2018-08-23T12:33:52Z</time>
      </trkpt>
      <trkpt lat="42.678125" lon="-1.795168">
        <ele>388.5</ele>
        <time>2018-08-23T12:34:10Z</time>
      </trkpt>
      <trkpt lat="42.678059" lon="-1.795421">
        <ele>387.5</ele>
        <time>2018-08-23T12:34:26Z</time>
      </trkpt>
      <trkpt lat="42.677995" lon="-1.795696">
        <ele>386.1</ele>
        <time>2018-08-23T12:34:44Z</time>
      </trkpt>
      <trkpt lat="42.677949" lon="-1.795942">
        <ele>384.2</ele>
        <time>2018-08-23T12:34:59Z</time>
      </trkpt>
      <trkpt lat="42.677934" lon="-1.796048">
        <ele>382.7</ele>
        <time>2018-08-23T12:35:06Z</time>
      </trkpt>
      <trkpt lat="42.677913" lon="-1.796177">
        <ele>382.3</ele>
        <time>2018-08-23T12:35:14Z</time>
      </trkpt>
      <trkpt lat="42.677867" lon="-1.796399">
        <ele>380.3</ele>
        <time>2018-08-23T12:35:28Z</time>
      </trkpt>
      <trkpt lat="42.677831" lon="-1.796661">
        <ele>377.9</ele>
        <time>2018-08-23T12:35:45Z</time>
      </trkpt>
      <trkpt lat="42.677821" lon="-1.796690">
        <ele>377.9</ele>
        <time>2018-08-23T12:35:47Z</time>
      </trkpt>
      <trkpt lat="42.677776" lon="-1.796989">
        <ele>376.0</ele>
        <time>2018-08-23T12:36:05Z</time>
      </trkpt>
      <trkpt lat="42.677745" lon="-1.797284">
        <ele>373.6</ele>
        <time>2018-08-23T12:36:23Z</time>
      </trkpt>
      <trkpt lat="42.677730" lon="-1.797421">
        <ele>373.1</ele>
        <time>2018-08-23T12:36:31Z</time>
      </trkpt>
      <trkpt lat="42.677724" lon="-1.797495">
        <ele>373.1</ele>
        <time>2018-08-23T12:36:36Z</time>
      </trkpt>
      <trkpt lat="42.677699" lon="-1.797806">
        <ele>371.7</ele>
        <time>2018-08-23T12:36:55Z</time>
      </trkpt>
      <trkpt lat="42.677689" lon="-1.798073">
        <ele>370.7</ele>
        <time>2018-08-23T12:37:11Z</time>
      </trkpt>
      <trkpt lat="42.677659" lon="-1.798350">
        <ele>369.8</ele>
        <time>2018-08-23T12:37:28Z</time>
      </trkpt>
      <trkpt lat="42.677643" lon="-1.798414">
        <ele>369.8</ele>
        <time>2018-08-23T12:37:32Z</time>
      </trkpt>
      <trkpt lat="42.677578" lon="-1.798706">
        <ele>367.8</ele>
        <time>2018-08-23T12:37:51Z</time>
      </trkpt>
      <trkpt lat="42.677559" lon="-1.798766">
        <ele>367.8</ele>
        <time>2018-08-23T12:37:55Z</time>
      </trkpt>
      <trkpt lat="42.677466" lon="-1.799026">
        <ele>367.8</ele>
        <time>2018-08-23T12:38:12Z</time>
      </trkpt>
      <trkpt lat="42.677371" lon="-1.799278">
        <ele>367.8</ele>
        <time>2018-08-23T12:38:29Z</time>
      </trkpt>
      <trkpt lat="42.677273" lon="-1.799481">
        <ele>366.9</ele>
        <time>2018-08-23T12:38:43Z</time>
      </trkpt>
      <trkpt lat="42.677251" lon="-1.799515">
        <ele>367.4</ele>
        <time>2018-08-23T12:38:47Z</time>
      </trkpt>
      <trkpt lat="42.677173" lon="-1.799768">
        <ele>367.4</ele>
        <time>2018-08-23T12:39:03Z</time>
      </trkpt>
      <trkpt lat="42.677095" lon="-1.799949">
        <ele>366.9</ele>
        <time>2018-08-23T12:39:18Z</time>
      </trkpt>
      <trkpt lat="42.676948" lon="-1.800115">
        <ele>365.9</ele>
        <time>2018-08-23T12:39:35Z</time>
      </trkpt>
      <trkpt lat="42.676884" lon="-1.800243">
        <ele>364.0</ele>
        <time>2018-08-23T12:39:49Z</time>
      </trkpt>
      <trkpt lat="42.676875" lon="-1.800362">
        <ele>364.5</ele>
        <time>2018-08-23T12:39:57Z</time>
      </trkpt>
      <trkpt lat="42.676862" lon="-1.800393">
        <ele>364.5</ele>
        <time>2018-08-23T12:39:59Z</time>
      </trkpt>
      <trkpt lat="42.676814" lon="-1.800691">
        <ele>365.0</ele>
        <time>2018-08-23T12:40:17Z</time>
      </trkpt>
      <trkpt lat="42.676805" lon="-1.800736">
        <ele>364.5</ele>
        <time>2018-08-23T12:40:20Z</time>
      </trkpt>
      <trkpt lat="42.676835" lon="-1.801015">
        <ele>364.5</ele>
        <time>2018-08-23T12:40:36Z</time>
      </trkpt>
      <trkpt lat="42.676843" lon="-1.801049">
        <ele>364.5</ele>
        <time>2018-08-23T12:40:38Z</time>
      </trkpt>
      <trkpt lat="42.676887" lon="-1.801159">
        <ele>364.5</ele>
        <time>2018-08-23T12:40:49Z</time>
      </trkpt>
      <trkpt lat="42.677005" lon="-1.801485">
        <ele>363.5</ele>
        <time>2018-08-23T12:41:08Z</time>
      </trkpt>
      <trkpt lat="42.677083" lon="-1.801656">
        <ele>364.5</ele>
        <time>2018-08-23T12:41:19Z</time>
      </trkpt>
      <trkpt lat="42.677088" lon="-1.801824">
        <ele>364.5</ele>
        <time>2018-08-23T12:41:35Z</time>
      </trkpt>
      <trkpt lat="42.677074" lon="-1.802156">
        <ele>364.0</ele>
        <time>2018-08-23T12:41:53Z</time>
      </trkpt>
      <trkpt lat="42.677026" lon="-1.802374">
        <ele>364.5</ele>
        <time>2018-08-23T12:42:07Z</time>
      </trkpt>
      <trkpt lat="42.677014" lon="-1.802481">
        <ele>364.0</ele>
        <time>2018-08-23T12:42:20Z</time>
      </trkpt>
      <trkpt lat="42.677024" lon="-1.802493">
        <ele>363.5</ele>
        <time>2018-08-23T12:42:29Z</time>
      </trkpt>
      <trkpt lat="42.677008" lon="-1.802567">
        <ele>364.0</ele>
        <time>2018-08-23T12:42:33Z</time>
      </trkpt>
      <trkpt lat="42.676973" lon="-1.802724">
        <ele>364.5</ele>
        <time>2018-08-23T12:42:41Z</time>
      </trkpt>
      <trkpt lat="42.676923" lon="-1.803058">
        <ele>364.5</ele>
        <time>2018-08-23T12:42:59Z</time>
      </trkpt>
      <trkpt lat="42.676866" lon="-1.803372">
        <ele>364.0</ele>
        <time>2018-08-23T12:43:16Z</time>
      </trkpt>
      <trkpt lat="42.676848" lon="-1.803634">
        <ele>362.5</ele>
        <time>2018-08-23T12:43:32Z</time>
      </trkpt>
      <trkpt lat="42.676807" lon="-1.803909">
        <ele>363.0</ele>
        <time>2018-08-23T12:43:48Z</time>
      </trkpt>
      <trkpt lat="42.676789" lon="-1.803987">
        <ele>363.0</ele>
        <time>2018-08-23T12:43:53Z</time>
      </trkpt>
      <trkpt lat="42.676734" lon="-1.804342">
        <ele>362.5</ele>
        <time>2018-08-23T12:44:13Z</time>
      </trkpt>
      <trkpt lat="42.676684" lon="-1.804595">
        <ele>360.6</ele>
        <time>2018-08-23T12:44:29Z</time>
      </trkpt>
      <trkpt lat="42.676667" lon="-1.804877">
        <ele>360.6</ele>
        <time>2018-08-23T12:44:46Z</time>
      </trkpt>
      <trkpt lat="42.676660" lon="-1.804965">
        <ele>360.1</ele>
        <time>2018-08-23T12:44:51Z</time>
      </trkpt>
      <trkpt lat="42.676627" lon="-1.805247">
        <ele>361.1</ele>
        <time>2018-08-23T12:45:09Z</time>
      </trkpt>
      <trkpt lat="42.676557" lon="-1.805405">
        <ele>362.1</ele>
        <time>2018-08-23T12:45:22Z</time>
      </trkpt>
      <trkpt lat="42.676538" lon="-1.805586">
        <ele>362.5</ele>
        <time>2018-08-23T12:45:36Z</time>
      </trkpt>
      <trkpt lat="42.676530" lon="-1.805618">
        <ele>362.5</ele>
        <time>2018-08-23T12:45:38Z</time>
      </trkpt>
      <trkpt lat="42.676467" lon="-1.805852">
        <ele>362.5</ele>
        <time>2018-08-23T12:45:54Z</time>
      </trkpt>
      <trkpt lat="42.676450" lon="-1.805926">
        <ele>362.5</ele>
        <time>2018-08-23T12:46:00Z</time>
      </trkpt>
      <trkpt lat="42.676413" lon="-1.806141">
        <ele>362.5</ele>
        <time>2018-08-23T12:46:13Z</time>
      </trkpt>
      <trkpt lat="42.676371" lon="-1.806394">
        <ele>362.5</ele>
        <time>2018-08-23T12:46:26Z</time>
      </trkpt>
      <trkpt lat="42.676344" lon="-1.806497">
        <ele>364.5</ele>
        <time>2018-08-23T12:46:32Z</time>
      </trkpt>
      <trkpt lat="42.676174" lon="-1.806680">
        <ele>363.0</ele>
        <time>2018-08-23T12:46:48Z</time>
      </trkpt>
      <trkpt lat="42.676073" lon="-1.806808">
        <ele>361.6</ele>
        <time>2018-08-23T12:46:59Z</time>
      </trkpt>
      <trkpt lat="42.675897" lon="-1.806946">
        <ele>361.6</ele>
        <time>2018-08-23T12:47:15Z</time>
      </trkpt>
      <trkpt lat="42.675730" lon="-1.807099">
        <ele>361.1</ele>
        <time>2018-08-23T12:47:31Z</time>
      </trkpt>
      <trkpt lat="42.675631" lon="-1.807285">
        <ele>360.6</ele>
        <time>2018-08-23T12:47:43Z</time>
      </trkpt>
      <trkpt lat="42.675474" lon="-1.807563">
        <ele>360.6</ele>
        <time>2018-08-23T12:48:02Z</time>
      </trkpt>
      <trkpt lat="42.675349" lon="-1.807797">
        <ele>360.6</ele>
        <time>2018-08-23T12:48:19Z</time>
      </trkpt>
      <trkpt lat="42.675222" lon="-1.807981">
        <ele>360.6</ele>
        <time>2018-08-23T12:48:35Z</time>
      </trkpt>
      <trkpt lat="42.675073" lon="-1.808191">
        <ele>360.1</ele>
        <time>2018-08-23T12:48:51Z</time>
      </trkpt>
      <trkpt lat="42.674935" lon="-1.808392">
        <ele>360.1</ele>
        <time>2018-08-23T12:49:08Z</time>
      </trkpt>
      <trkpt lat="42.674802" lon="-1.808602">
        <ele>359.7</ele>
        <time>2018-08-23T12:49:24Z</time>
      </trkpt>
      <trkpt lat="42.674665" lon="-1.808798">
        <ele>359.7</ele>
        <time>2018-08-23T12:49:40Z</time>
      </trkpt>
      <trkpt lat="42.674608" lon="-1.808875">
        <ele>360.1</ele>
        <time>2018-08-23T12:49:47Z</time>
      </trkpt>
      <trkpt lat="42.674454" lon="-1.809107">
        <ele>359.7</ele>
        <time>2018-08-23T12:50:06Z</time>
      </trkpt>
      <trkpt lat="42.674316" lon="-1.809310">
        <ele>359.7</ele>
        <time>2018-08-23T12:50:22Z</time>
      </trkpt>
      <trkpt lat="42.674241" lon="-1.809402">
        <ele>359.7</ele>
        <time>2018-08-23T12:50:30Z</time>
      </trkpt>
      <trkpt lat="42.674072" lon="-1.809643">
        <ele>359.7</ele>
        <time>2018-08-23T12:50:49Z</time>
      </trkpt>
      <trkpt lat="42.673916" lon="-1.809849">
        <ele>359.7</ele>
        <time>2018-08-23T12:51:07Z</time>
      </trkpt>
      <trkpt lat="42.673884" lon="-1.809878">
        <ele>360.1</ele>
        <time>2018-08-23T12:51:10Z</time>
      </trkpt>
      <trkpt lat="42.673858" lon="-1.809932">
        <ele>360.1</ele>
        <time>2018-08-23T12:51:14Z</time>
      </trkpt>
      <trkpt lat="42.673721" lon="-1.810147">
        <ele>360.1</ele>
        <time>2018-08-23T12:51:29Z</time>
      </trkpt>
      <trkpt lat="42.673615" lon="-1.810338">
        <ele>359.7</ele>
        <time>2018-08-23T12:51:44Z</time>
      </trkpt>
      <trkpt lat="42.673480" lon="-1.810497">
        <ele>359.2</ele>
        <time>2018-08-23T12:52:02Z</time>
      </trkpt>
      <trkpt lat="42.673261" lon="-1.810320">
        <ele>357.3</ele>
        <time>2018-08-23T12:52:24Z</time>
      </trkpt>
      <trkpt lat="42.673170" lon="-1.810422">
        <ele>357.3</ele>
        <time>2018-08-23T12:52:35Z</time>
      </trkpt>
      <trkpt lat="42.673114" lon="-1.810507">
        <ele>356.3</ele>
        <time>2018-08-23T12:52:45Z</time>
      </trkpt>
      <trkpt lat="42.673066" lon="-1.810654">
        <ele>356.8</ele>
        <time>2018-08-23T12:52:54Z</time>
      </trkpt>
      <trkpt lat="42.672973" lon="-1.810804">
        <ele>356.3</ele>
        <time>2018-08-23T12:53:05Z</time>
      </trkpt>
      <trkpt lat="42.672903" lon="-1.811020">
        <ele>355.8</ele>
        <time>2018-08-23T12:53:21Z</time>
      </trkpt>
      <trkpt lat="42.672843" lon="-1.811271">
        <ele>355.8</ele>
        <time>2018-08-23T12:53:37Z</time>
      </trkpt>
      <trkpt lat="42.672838" lon="-1.811302">
        <ele>355.3</ele>
        <time>2018-08-23T12:53:39Z</time>
      </trkpt>
      <trkpt lat="42.672823" lon="-1.811453">
        <ele>355.3</ele>
        <time>2018-08-23T12:53:46Z</time>
      </trkpt>
      <trkpt lat="42.672750" lon="-1.811682">
        <ele>354.9</ele>
        <time>2018-08-23T12:54:01Z</time>
      </trkpt>
      <trkpt lat="42.672701" lon="-1.811880">
        <ele>354.4</ele>
        <time>2018-08-23T12:54:17Z</time>
      </trkpt>
      <trkpt lat="42.672660" lon="-1.812106">
        <ele>354.4</ele>
        <time>2018-08-23T12:54:32Z</time>
      </trkpt>
      <trkpt lat="42.672609" lon="-1.812448">
        <ele>354.4</ele>
        <time>2018-08-23T12:54:52Z</time>
      </trkpt>
      <trkpt lat="42.672575" lon="-1.812662">
        <ele>353.9</ele>
        <time>2018-08-23T12:55:04Z</time>
      </trkpt>
      <trkpt lat="42.672483" lon="-1.812817">
        <ele>353.4</ele>
        <time>2018-08-23T12:55:17Z</time>
      </trkpt>
      <trkpt lat="42.672427" lon="-1.813042">
        <ele>353.4</ele>
        <time>2018-08-23T12:55:33Z</time>
      </trkpt>
      <trkpt lat="42.672360" lon="-1.813267">
        <ele>352.9</ele>
        <time>2018-08-23T12:55:48Z</time>
      </trkpt>
      <trkpt lat="42.672308" lon="-1.813573">
        <ele>352.9</ele>
        <time>2018-08-23T12:56:07Z</time>
      </trkpt>
      <trkpt lat="42.672302" lon="-1.813762">
        <ele>353.4</ele>
        <time>2018-08-23T12:56:19Z</time>
      </trkpt>
      <trkpt lat="42.672272" lon="-1.813875">
        <ele>352.9</ele>
        <time>2018-08-23T12:56:25Z</time>
      </trkpt>
      <trkpt lat="42.672258" lon="-1.814075">
        <ele>352.9</ele>
        <time>2018-08-23T12:56:43Z</time>
      </trkpt>
      <trkpt lat="42.672243" lon="-1.814207">
        <ele>352.9</ele>
        <time>2018-08-23T12:56:54Z</time>
      </trkpt>
      <trkpt lat="42.672219" lon="-1.814342">
        <ele>352.9</ele>
        <time>2018-08-23T12:57:08Z</time>
      </trkpt>
      <trkpt lat="42.672207" lon="-1.814385">
        <ele>352.9</ele>
        <time>2018-08-23T12:57:22Z</time>
      </trkpt>
      <trkpt lat="42.672168" lon="-1.814537">
        <ele>352.5</ele>
        <time>2018-08-23T12:57:36Z</time>
      </trkpt>
      <trkpt lat="42.672128" lon="-1.814776">
        <ele>351.5</ele>
        <time>2018-08-23T12:57:54Z</time>
      </trkpt>
      <trkpt lat="42.672070" lon="-1.815045">
        <ele>351.5</ele>
        <time>2018-08-23T12:58:14Z</time>
      </trkpt>
      <trkpt lat="42.672001" lon="-1.815182">
        <ele>351.5</ele>
        <time>2018-08-23T12:58:29Z</time>
      </trkpt>
      <trkpt lat="42.671972" lon="-1.815304">
        <ele>351.0</ele>
        <time>2018-08-23T12:58:44Z</time>
      </trkpt>
      <trkpt lat="42.671945" lon="-1.815389">
        <ele>351.5</ele>
        <time>2018-08-23T12:58:53Z</time>
      </trkpt>
      <trkpt lat="42.671941" lon="-1.815468">
        <ele>351.5</ele>
        <time>2018-08-23T12:59:00Z</time>
      </trkpt>
      <trkpt lat="42.671892" lon="-1.815732">
        <ele>350.5</ele>
        <time>2018-08-23T13:00:40Z</time>
      </trkpt>
      <trkpt lat="42.671859" lon="-1.815840">
        <ele>350.5</ele>
        <time>2018-08-23T13:00:57Z</time>
      </trkpt>
      <trkpt lat="42.671952" lon="-1.815906">
        <ele>350.5</ele>
        <time>2018-08-23T13:01:17Z</time>
      </trkpt>
      <trkpt lat="42.671986" lon="-1.815910">
        <ele>350.1</ele>
        <time>2018-08-23T13:01:20Z</time>
      </trkpt>
      <trkpt lat="42.672435" lon="-1.816013">
        <ele>350.5</ele>
        <time>2018-08-23T13:01:39Z</time>
      </trkpt>
      <trkpt lat="42.672465" lon="-1.815849">
        <ele>350.5</ele>
        <time>2018-08-23T13:01:56Z</time>
      </trkpt>
      <trkpt lat="42.672416" lon="-1.816161">
        <ele>351.0</ele>
        <time>2018-08-23T13:02:13Z</time>
      </trkpt>
      <trkpt lat="42.672181" lon="-1.816120">
        <ele>353.9</ele>
        <time>2018-08-23T13:02:18Z</time>
      </trkpt>
      <trkpt lat="42.671817" lon="-1.816087">
        <ele>321.7</ele>
        <time>2018-08-24T05:46:52Z</time>
      </trkpt>
      <trkpt lat="42.671788" lon="-1.816280">
        <ele>320.7</ele>
        <time>2018-08-24T05:47:07Z</time>
      </trkpt>
      <trkpt lat="42.671686" lon="-1.816551">
        <ele>321.2</ele>
        <time>2018-08-24T05:47:26Z</time>
      </trkpt>
      <trkpt lat="42.671707" lon="-1.816696">
        <ele>320.3</ele>
        <time>2018-08-24T05:47:32Z</time>
      </trkpt>
      <trkpt lat="42.671669" lon="-1.816943">
        <ele>320.7</ele>
        <time>2018-08-24T05:47:51Z</time>
      </trkpt>
      <trkpt lat="42.671603" lon="-1.817271">
        <ele>320.7</ele>
        <time>2018-08-24T05:48:07Z</time>
      </trkpt>
      <trkpt lat="42.671562" lon="-1.817497">
        <ele>320.3</ele>
        <time>2018-08-24T05:48:19Z</time>
      </trkpt>
      <trkpt lat="42.671535" lon="-1.817618">
        <ele>320.3</ele>
        <time>2018-08-24T05:48:24Z</time>
      </trkpt>
      <trkpt lat="42.671491" lon="-1.817832">
        <ele>319.8</ele>
        <time>2018-08-24T05:48:41Z</time>
      </trkpt>
      <trkpt lat="42.671461" lon="-1.817945">
        <ele>320.3</ele>
        <time>2018-08-24T05:48:45Z</time>
      </trkpt>
      <trkpt lat="42.671441" lon="-1.818062">
        <ele>321.2</ele>
        <time>2018-08-24T05:51:05Z</time>
      </trkpt>
      <trkpt lat="42.671403" lon="-1.818145">
        <ele>322.7</ele>
        <time>2018-08-24T05:51:28Z</time>
      </trkpt>
      <trkpt lat="42.671335" lon="-1.818271">
        <ele>323.6</ele>
        <time>2018-08-24T05:51:36Z</time>
      </trkpt>
      <trkpt lat="42.671263" lon="-1.818427">
        <ele>324.6</ele>
        <time>2018-08-24T05:51:42Z</time>
      </trkpt>
      <trkpt lat="42.671268" lon="-1.818485">
        <ele>325.5</ele>
        <time>2018-08-24T05:51:49Z</time>
      </trkpt>
      <trkpt lat="42.671225" lon="-1.818530">
        <ele>325.5</ele>
        <time>2018-08-24T05:51:54Z</time>
      </trkpt>
      <trkpt lat="42.671118" lon="-1.818708">
        <ele>326.5</ele>
        <time>2018-08-24T05:52:07Z</time>
      </trkpt>
      <trkpt lat="42.671051" lon="-1.818893">
        <ele>326.0</ele>
        <time>2018-08-24T05:52:20Z</time>
      </trkpt>
      <trkpt lat="42.670913" lon="-1.819151">
        <ele>324.1</ele>
        <time>2018-08-24T05:52:37Z</time>
      </trkpt>
      <trkpt lat="42.670839" lon="-1.819379">
        <ele>323.6</ele>
        <time>2018-08-24T05:52:51Z</time>
      </trkpt>
      <trkpt lat="42.670775" lon="-1.819327">
        <ele>324.6</ele>
        <time>2018-08-24T05:53:11Z</time>
      </trkpt>
      <trkpt lat="42.670585" lon="-1.819265">
        <ele>323.6</ele>
        <time>2018-08-24T05:53:27Z</time>
      </trkpt>
      <trkpt lat="42.670370" lon="-1.819218">
        <ele>323.6</ele>
        <time>2018-08-24T05:53:46Z</time>
      </trkpt>
      <trkpt lat="42.670338" lon="-1.819284">
        <ele>323.1</ele>
        <time>2018-08-24T05:53:50Z</time>
      </trkpt>
      <trkpt lat="42.670314" lon="-1.819306">
        <ele>323.6</ele>
        <time>2018-08-24T05:53:52Z</time>
      </trkpt>
      <trkpt lat="42.670265" lon="-1.819309">
        <ele>323.6</ele>
        <time>2018-08-24T05:53:56Z</time>
      </trkpt>
      <trkpt lat="42.670014" lon="-1.819261">
        <ele>324.1</ele>
        <time>2018-08-24T05:54:15Z</time>
      </trkpt>
      <trkpt lat="42.669795" lon="-1.819317">
        <ele>323.1</ele>
        <time>2018-08-24T05:54:33Z</time>
      </trkpt>
      <trkpt lat="42.669722" lon="-1.819272">
        <ele>323.6</ele>
        <time>2018-08-24T05:54:46Z</time>
      </trkpt>
      <trkpt lat="42.669715" lon="-1.819271">
        <ele>323.6</ele>
        <time>2018-08-24T05:54:47Z</time>
      </trkpt>
      <trkpt lat="42.669519" lon="-1.819334">
        <ele>322.7</ele>
        <time>2018-08-24T05:55:03Z</time>
      </trkpt>
      <trkpt lat="42.669309" lon="-1.819508">
        <ele>323.6</ele>
        <time>2018-08-24T05:55:22Z</time>
      </trkpt>
      <trkpt lat="42.669182" lon="-1.819720">
        <ele>324.1</ele>
        <time>2018-08-24T05:55:39Z</time>
      </trkpt>
      <trkpt lat="42.669080" lon="-1.819987">
        <ele>324.6</ele>
        <time>2018-08-24T05:55:54Z</time>
      </trkpt>
      <trkpt lat="42.668986" lon="-1.820209">
        <ele>324.1</ele>
        <time>2018-08-24T05:56:09Z</time>
      </trkpt>
      <trkpt lat="42.668895" lon="-1.820487">
        <ele>325.1</ele>
        <time>2018-08-24T05:56:26Z</time>
      </trkpt>
      <trkpt lat="42.668856" lon="-1.820560">
        <ele>324.6</ele>
        <time>2018-08-24T05:56:31Z</time>
      </trkpt>
      <trkpt lat="42.668777" lon="-1.820830">
        <ele>325.5</ele>
        <time>2018-08-24T05:56:46Z</time>
      </trkpt>
      <trkpt lat="42.668685" lon="-1.821077">
        <ele>325.5</ele>
        <time>2018-08-24T05:57:01Z</time>
      </trkpt>
      <trkpt lat="42.668610" lon="-1.821331">
        <ele>325.5</ele>
        <time>2018-08-24T05:57:16Z</time>
      </trkpt>
      <trkpt lat="42.668492" lon="-1.821616">
        <ele>325.5</ele>
        <time>2018-08-24T05:57:33Z</time>
      </trkpt>
      <trkpt lat="42.668404" lon="-1.821841">
        <ele>326.0</ele>
        <time>2018-08-24T05:57:47Z</time>
      </trkpt>
      <trkpt lat="42.668330" lon="-1.822166">
        <ele>326.5</ele>
        <time>2018-08-24T05:58:06Z</time>
      </trkpt>
      <trkpt lat="42.668259" lon="-1.822449">
        <ele>326.5</ele>
        <time>2018-08-24T05:58:22Z</time>
      </trkpt>
      <trkpt lat="42.668172" lon="-1.822698">
        <ele>326.0</ele>
        <time>2018-08-24T05:58:37Z</time>
      </trkpt>
      <trkpt lat="42.668150" lon="-1.822807">
        <ele>325.1</ele>
        <time>2018-08-24T05:58:44Z</time>
      </trkpt>
      <trkpt lat="42.668140" lon="-1.822850">
        <ele>325.1</ele>
        <time>2018-08-24T05:58:47Z</time>
      </trkpt>
      <trkpt lat="42.668077" lon="-1.823160">
        <ele>325.1</ele>
        <time>2018-08-24T05:59:05Z</time>
      </trkpt>
      <trkpt lat="42.668017" lon="-1.823408">
        <ele>324.6</ele>
        <time>2018-08-24T05:59:19Z</time>
      </trkpt>
      <trkpt lat="42.668008" lon="-1.823441">
        <ele>324.6</ele>
        <time>2018-08-24T05:59:21Z</time>
      </trkpt>
      <trkpt lat="42.667969" lon="-1.823577">
        <ele>324.6</ele>
        <time>2018-08-24T05:59:28Z</time>
      </trkpt>
      <trkpt lat="42.667950" lon="-1.823624">
        <ele>325.1</ele>
        <time>2018-08-24T05:59:31Z</time>
      </trkpt>
      <trkpt lat="42.667940" lon="-1.823699">
        <ele>324.6</ele>
        <time>2018-08-24T05:59:35Z</time>
      </trkpt>
      <trkpt lat="42.667854" lon="-1.824029">
        <ele>324.6</ele>
        <time>2018-08-24T05:59:54Z</time>
      </trkpt>
      <trkpt lat="42.667760" lon="-1.824334">
        <ele>324.6</ele>
        <time>2018-08-24T06:00:12Z</time>
      </trkpt>
      <trkpt lat="42.667637" lon="-1.824641">
        <ele>324.6</ele>
        <time>2018-08-24T06:00:31Z</time>
      </trkpt>
      <trkpt lat="42.667522" lon="-1.824908">
        <ele>324.6</ele>
        <time>2018-08-24T06:00:48Z</time>
      </trkpt>
      <trkpt lat="42.667433" lon="-1.825174">
        <ele>324.6</ele>
        <time>2018-08-24T06:01:04Z</time>
      </trkpt>
      <trkpt lat="42.667333" lon="-1.825490">
        <ele>324.6</ele>
        <time>2018-08-24T06:01:22Z</time>
      </trkpt>
      <trkpt lat="42.667236" lon="-1.825777">
        <ele>324.6</ele>
        <time>2018-08-24T06:01:39Z</time>
      </trkpt>
      <trkpt lat="42.667140" lon="-1.826069">
        <ele>324.6</ele>
        <time>2018-08-24T06:01:57Z</time>
      </trkpt>
      <trkpt lat="42.667077" lon="-1.826237">
        <ele>324.1</ele>
        <time>2018-08-24T06:02:07Z</time>
      </trkpt>
      <trkpt lat="42.666944" lon="-1.826499">
        <ele>324.1</ele>
        <time>2018-08-24T06:02:25Z</time>
      </trkpt>
      <trkpt lat="42.666779" lon="-1.826690">
        <ele>323.1</ele>
        <time>2018-08-24T06:02:42Z</time>
      </trkpt>
      <trkpt lat="42.666746" lon="-1.826964">
        <ele>323.6</ele>
        <time>2018-08-24T06:02:57Z</time>
      </trkpt>
      <trkpt lat="42.666761" lon="-1.827063">
        <ele>324.1</ele>
        <time>2018-08-24T06:03:03Z</time>
      </trkpt>
      <trkpt lat="42.666705" lon="-1.827372">
        <ele>324.6</ele>
        <time>2018-08-24T06:03:20Z</time>
      </trkpt>
      <trkpt lat="42.666687" lon="-1.827464">
        <ele>324.1</ele>
        <time>2018-08-24T06:03:26Z</time>
      </trkpt>
      <trkpt lat="42.666680" lon="-1.827535">
        <ele>324.6</ele>
        <time>2018-08-24T06:03:30Z</time>
      </trkpt>
      <trkpt lat="42.666595" lon="-1.827873">
        <ele>324.6</ele>
        <time>2018-08-24T06:03:51Z</time>
      </trkpt>
      <trkpt lat="42.666555" lon="-1.828164">
        <ele>325.1</ele>
        <time>2018-08-24T06:04:08Z</time>
      </trkpt>
      <trkpt lat="42.666474" lon="-1.828458">
        <ele>325.1</ele>
        <time>2018-08-24T06:04:26Z</time>
      </trkpt>
      <trkpt lat="42.666386" lon="-1.828748">
        <ele>324.6</ele>
        <time>2018-08-24T06:04:44Z</time>
      </trkpt>
      <trkpt lat="42.666293" lon="-1.829031">
        <ele>325.1</ele>
        <time>2018-08-24T06:05:01Z</time>
      </trkpt>
      <trkpt lat="42.666165" lon="-1.829267">
        <ele>324.1</ele>
        <time>2018-08-24T06:05:18Z</time>
      </trkpt>
      <trkpt lat="42.666023" lon="-1.829481">
        <ele>324.6</ele>
        <time>2018-08-24T06:05:34Z</time>
      </trkpt>
      <trkpt lat="42.665986" lon="-1.829538">
        <ele>324.1</ele>
        <time>2018-08-24T06:05:38Z</time>
      </trkpt>
      <trkpt lat="42.665918" lon="-1.829667">
        <ele>324.1</ele>
        <time>2018-08-24T06:05:47Z</time>
      </trkpt>
      <trkpt lat="42.665880" lon="-1.829727">
        <ele>323.1</ele>
        <time>2018-08-24T06:05:51Z</time>
      </trkpt>
      <trkpt lat="42.665766" lon="-1.830014">
        <ele>324.6</ele>
        <time>2018-08-24T06:06:09Z</time>
      </trkpt>
      <trkpt lat="42.665691" lon="-1.830216">
        <ele>325.1</ele>
        <time>2018-08-24T06:06:21Z</time>
      </trkpt>
      <trkpt lat="42.665654" lon="-1.830328">
        <ele>325.1</ele>
        <time>2018-08-24T06:06:28Z</time>
      </trkpt>
      <trkpt lat="42.665590" lon="-1.830619">
        <ele>325.1</ele>
        <time>2018-08-24T06:06:45Z</time>
      </trkpt>
      <trkpt lat="42.665575" lon="-1.830945">
        <ele>325.5</ele>
        <time>2018-08-24T06:07:03Z</time>
      </trkpt>
      <trkpt lat="42.665517" lon="-1.831227">
        <ele>325.1</ele>
        <time>2018-08-24T06:07:19Z</time>
      </trkpt>
      <trkpt lat="42.665409" lon="-1.831480">
        <ele>325.1</ele>
        <time>2018-08-24T06:07:36Z</time>
      </trkpt>
      <trkpt lat="42.665334" lon="-1.831704">
        <ele>324.6</ele>
        <time>2018-08-24T06:07:51Z</time>
      </trkpt>
      <trkpt lat="42.665304" lon="-1.831793">
        <ele>324.6</ele>
        <time>2018-08-24T06:07:57Z</time>
      </trkpt>
      <trkpt lat="42.665188" lon="-1.832065">
        <ele>324.6</ele>
        <time>2018-08-24T06:08:13Z</time>
      </trkpt>
      <trkpt lat="42.665099" lon="-1.832319">
        <ele>324.6</ele>
        <time>2018-08-24T06:08:29Z</time>
      </trkpt>
      <trkpt lat="42.664998" lon="-1.832573">
        <ele>324.6</ele>
        <time>2018-08-24T06:08:45Z</time>
      </trkpt>
      <trkpt lat="42.664944" lon="-1.832722">
        <ele>324.6</ele>
        <time>2018-08-24T06:08:55Z</time>
      </trkpt>
      <trkpt lat="42.664816" lon="-1.832969">
        <ele>324.6</ele>
        <time>2018-08-24T06:09:11Z</time>
      </trkpt>
      <trkpt lat="42.664700" lon="-1.833210">
        <ele>325.1</ele>
        <time>2018-08-24T06:09:27Z</time>
      </trkpt>
      <trkpt lat="42.664586" lon="-1.833498">
        <ele>325.5</ele>
        <time>2018-08-24T06:09:45Z</time>
      </trkpt>
      <trkpt lat="42.664440" lon="-1.833791">
        <ele>325.5</ele>
        <time>2018-08-24T06:10:04Z</time>
      </trkpt>
      <trkpt lat="42.664351" lon="-1.834030">
        <ele>326.5</ele>
        <time>2018-08-24T06:10:19Z</time>
      </trkpt>
      <trkpt lat="42.664338" lon="-1.834326">
        <ele>327.5</ele>
        <time>2018-08-24T06:10:35Z</time>
      </trkpt>
      <trkpt lat="42.664311" lon="-1.834617">
        <ele>328.0</ele>
        <time>2018-08-24T06:10:51Z</time>
      </trkpt>
      <trkpt lat="42.664266" lon="-1.834919">
        <ele>328.4</ele>
        <time>2018-08-24T06:11:08Z</time>
      </trkpt>
      <trkpt lat="42.664209" lon="-1.835226">
        <ele>328.9</ele>
        <time>2018-08-24T06:11:26Z</time>
      </trkpt>
      <trkpt lat="42.664175" lon="-1.835507">
        <ele>329.4</ele>
        <time>2018-08-24T06:11:42Z</time>
      </trkpt>
      <trkpt lat="42.664133" lon="-1.835787">
        <ele>329.4</ele>
        <time>2018-08-24T06:11:58Z</time>
      </trkpt>
      <trkpt lat="42.664103" lon="-1.836040">
        <ele>330.4</ele>
        <time>2018-08-24T06:12:13Z</time>
      </trkpt>
      <trkpt lat="42.664079" lon="-1.836329">
        <ele>330.8</ele>
        <time>2018-08-24T06:12:29Z</time>
      </trkpt>
      <trkpt lat="42.664060" lon="-1.836595">
        <ele>331.3</ele>
        <time>2018-08-24T06:12:44Z</time>
      </trkpt>
      <trkpt lat="42.664051" lon="-1.836867">
        <ele>332.3</ele>
        <time>2018-08-24T06:13:00Z</time>
      </trkpt>
      <trkpt lat="42.664034" lon="-1.837135">
        <ele>333.2</ele>
        <time>2018-08-24T06:13:15Z</time>
      </trkpt>
      <trkpt lat="42.664029" lon="-1.837360">
        <ele>333.7</ele>
        <time>2018-08-24T06:13:27Z</time>
      </trkpt>
      <trkpt lat="42.663973" lon="-1.837598">
        <ele>333.2</ele>
        <time>2018-08-24T06:13:41Z</time>
      </trkpt>
      <trkpt lat="42.663914" lon="-1.837798">
        <ele>334.2</ele>
        <time>2018-08-24T06:13:57Z</time>
      </trkpt>
      <trkpt lat="42.663900" lon="-1.837812">
        <ele>333.7</ele>
        <time>2018-08-24T06:14:05Z</time>
      </trkpt>
      <trkpt lat="42.663833" lon="-1.838002">
        <ele>333.7</ele>
        <time>2018-08-24T06:14:16Z</time>
      </trkpt>
      <trkpt lat="42.663717" lon="-1.838333">
        <ele>334.7</ele>
        <time>2018-08-24T06:14:36Z</time>
      </trkpt>
      <trkpt lat="42.663695" lon="-1.838378">
        <ele>334.7</ele>
        <time>2018-08-24T06:14:39Z</time>
      </trkpt>
      <trkpt lat="42.663647" lon="-1.838689">
        <ele>335.2</ele>
        <time>2018-08-24T06:14:57Z</time>
      </trkpt>
      <trkpt lat="42.663607" lon="-1.838967">
        <ele>336.1</ele>
        <time>2018-08-24T06:15:13Z</time>
      </trkpt>
      <trkpt lat="42.663591" lon="-1.839207">
        <ele>337.6</ele>
        <time>2018-08-24T06:15:28Z</time>
      </trkpt>
      <trkpt lat="42.663588" lon="-1.839293">
        <ele>337.6</ele>
        <time>2018-08-24T06:15:33Z</time>
      </trkpt>
      <trkpt lat="42.663574" lon="-1.839632">
        <ele>338.5</ele>
        <time>2018-08-24T06:15:52Z</time>
      </trkpt>
      <trkpt lat="42.663539" lon="-1.839909">
        <ele>339.5</ele>
        <time>2018-08-24T06:16:09Z</time>
      </trkpt>
      <trkpt lat="42.663435" lon="-1.840099">
        <ele>339.5</ele>
        <time>2018-08-24T06:16:23Z</time>
      </trkpt>
      <trkpt lat="42.663242" lon="-1.840335">
        <ele>338.5</ele>
        <time>2018-08-24T06:16:44Z</time>
      </trkpt>
      <trkpt lat="42.663093" lon="-1.840571">
        <ele>336.6</ele>
        <time>2018-08-24T06:17:02Z</time>
      </trkpt>
      <trkpt lat="42.662920" lon="-1.840782">
        <ele>335.6</ele>
        <time>2018-08-24T06:17:20Z</time>
      </trkpt>
      <trkpt lat="42.662763" lon="-1.841001">
        <ele>335.6</ele>
        <time>2018-08-24T06:17:37Z</time>
      </trkpt>
      <trkpt lat="42.662624" lon="-1.841216">
        <ele>335.6</ele>
        <time>2018-08-24T06:17:53Z</time>
      </trkpt>
      <trkpt lat="42.662488" lon="-1.841345">
        <ele>335.6</ele>
        <time>2018-08-24T06:18:07Z</time>
      </trkpt>
      <trkpt lat="42.662362" lon="-1.841460">
        <ele>336.6</ele>
        <time>2018-08-24T06:18:20Z</time>
      </trkpt>
      <trkpt lat="42.662193" lon="-1.841665">
        <ele>335.6</ele>
        <time>2018-08-24T06:18:38Z</time>
      </trkpt>
      <trkpt lat="42.662084" lon="-1.841880">
        <ele>334.7</ele>
        <time>2018-08-24T06:18:54Z</time>
      </trkpt>
      <trkpt lat="42.661989" lon="-1.842111">
        <ele>332.8</ele>
        <time>2018-08-24T06:19:10Z</time>
      </trkpt>
      <trkpt lat="42.661892" lon="-1.842361">
        <ele>332.3</ele>
        <time>2018-08-24T06:19:26Z</time>
      </trkpt>
      <trkpt lat="42.661805" lon="-1.842616">
        <ele>331.3</ele>
        <time>2018-08-24T06:19:42Z</time>
      </trkpt>
      <trkpt lat="42.661787" lon="-1.842696">
        <ele>333.2</ele>
        <time>2018-08-24T06:19:47Z</time>
      </trkpt>
      <trkpt lat="42.661775" lon="-1.842727">
        <ele>332.3</ele>
        <time>2018-08-24T06:19:49Z</time>
      </trkpt>
      <trkpt lat="42.661733" lon="-1.842987">
        <ele>330.8</ele>
        <time>2018-08-24T06:20:04Z</time>
      </trkpt>
      <trkpt lat="42.661731" lon="-1.843005">
        <ele>333.7</ele>
        <time>2018-08-24T06:20:05Z</time>
      </trkpt>
      <trkpt lat="42.661727" lon="-1.843021">
        <ele>334.2</ele>
        <time>2018-08-24T06:20:06Z</time>
      </trkpt>
      <trkpt lat="42.661712" lon="-1.843141">
        <ele>334.7</ele>
        <time>2018-08-24T06:20:13Z</time>
      </trkpt>
      <trkpt lat="42.661678" lon="-1.843455">
        <ele>333.2</ele>
        <time>2018-08-24T06:20:31Z</time>
      </trkpt>
      <trkpt lat="42.661620" lon="-1.843757">
        <ele>333.7</ele>
        <time>2018-08-24T06:20:49Z</time>
      </trkpt>
      <trkpt lat="42.661572" lon="-1.843941">
        <ele>332.8</ele>
        <time>2018-08-24T06:21:00Z</time>
      </trkpt>
      <trkpt lat="42.661464" lon="-1.844274">
        <ele>333.2</ele>
        <time>2018-08-24T06:21:20Z</time>
      </trkpt>
      <trkpt lat="42.661365" lon="-1.844532">
        <ele>332.3</ele>
        <time>2018-08-24T06:21:36Z</time>
      </trkpt>
      <trkpt lat="42.661330" lon="-1.844664">
        <ele>332.3</ele>
        <time>2018-08-24T06:21:44Z</time>
      </trkpt>
      <trkpt lat="42.661316" lon="-1.844755">
        <ele>332.3</ele>
        <time>2018-08-24T06:21:49Z</time>
      </trkpt>
      <trkpt lat="42.661370" lon="-1.845026">
        <ele>331.8</ele>
        <time>2018-08-24T06:22:05Z</time>
      </trkpt>
      <trkpt lat="42.661396" lon="-1.845118">
        <ele>331.3</ele>
        <time>2018-08-24T06:22:11Z</time>
      </trkpt>
      <trkpt lat="42.661406" lon="-1.845169">
        <ele>331.3</ele>
        <time>2018-08-24T06:22:18Z</time>
      </trkpt>
      <trkpt lat="42.661510" lon="-1.845429">
        <ele>330.4</ele>
        <time>2018-08-24T06:22:34Z</time>
      </trkpt>
      <trkpt lat="42.661514" lon="-1.845441">
        <ele>330.4</ele>
        <time>2018-08-24T06:22:35Z</time>
      </trkpt>
      <trkpt lat="42.661563" lon="-1.845481">
        <ele>331.3</ele>
        <time>2018-08-24T06:22:40Z</time>
      </trkpt>
      <trkpt lat="42.661591" lon="-1.845519">
        <ele>331.8</ele>
        <time>2018-08-24T06:22:44Z</time>
      </trkpt>
      <trkpt lat="42.661600" lon="-1.845528">
        <ele>332.3</ele>
        <time>2018-08-24T06:22:46Z</time>
      </trkpt>
      <trkpt lat="42.661680" lon="-1.845599">
        <ele>334.2</ele>
        <time>2018-08-24T06:22:59Z</time>
      </trkpt>
      <trkpt lat="42.661687" lon="-1.845603">
        <ele>334.2</ele>
        <time>2018-08-24T06:23:00Z</time>
      </trkpt>
      <trkpt lat="42.661778" lon="-1.845696">
        <ele>335.2</ele>
        <time>2018-08-24T06:23:11Z</time>
      </trkpt>
      <trkpt lat="42.661894" lon="-1.845787">
        <ele>337.1</ele>
        <time>2018-08-24T06:23:24Z</time>
      </trkpt>
      <trkpt lat="42.661901" lon="-1.845795">
        <ele>337.1</ele>
        <time>2018-08-24T06:23:25Z</time>
      </trkpt>
      <trkpt lat="42.661915" lon="-1.845811">
        <ele>337.6</ele>
        <time>2018-08-24T06:23:27Z</time>
      </trkpt>
      <trkpt lat="42.662017" lon="-1.845900">
        <ele>339.5</ele>
        <time>2018-08-24T06:23:40Z</time>
      </trkpt>
      <trkpt lat="42.662113" lon="-1.845990">
        <ele>341.9</ele>
        <time>2018-08-24T06:23:54Z</time>
      </trkpt>
      <trkpt lat="42.662152" lon="-1.846104">
        <ele>342.4</ele>
        <time>2018-08-24T06:24:05Z</time>
      </trkpt>
      <trkpt lat="42.662297" lon="-1.846236">
        <ele>344.8</ele>
        <time>2018-08-24T06:24:24Z</time>
      </trkpt>
      <trkpt lat="42.662404" lon="-1.846287">
        <ele>346.7</ele>
        <time>2018-08-24T06:24:35Z</time>
      </trkpt>
      <trkpt lat="42.662504" lon="-1.846418">
        <ele>348.1</ele>
        <time>2018-08-24T06:24:49Z</time>
      </trkpt>
      <trkpt lat="42.662606" lon="-1.846552">
        <ele>349.1</ele>
        <time>2018-08-24T06:25:03Z</time>
      </trkpt>
      <trkpt lat="42.662724" lon="-1.846707">
        <ele>350.5</ele>
        <time>2018-08-24T06:25:17Z</time>
      </trkpt>
      <trkpt lat="42.662838" lon="-1.846750">
        <ele>351.5</ele>
        <time>2018-08-24T06:25:27Z</time>
      </trkpt>
      <trkpt lat="42.662910" lon="-1.846784">
        <ele>352.9</ele>
        <time>2018-08-24T06:25:37Z</time>
      </trkpt>
      <trkpt lat="42.662929" lon="-1.846792">
        <ele>353.4</ele>
        <time>2018-08-24T06:25:39Z</time>
      </trkpt>
      <trkpt lat="42.662979" lon="-1.846812">
        <ele>354.9</ele>
        <time>2018-08-24T06:25:46Z</time>
      </trkpt>
      <trkpt lat="42.663130" lon="-1.846870">
        <ele>356.8</ele>
        <time>2018-08-24T06:26:01Z</time>
      </trkpt>
      <trkpt lat="42.663253" lon="-1.846971">
        <ele>356.8</ele>
        <time>2018-08-24T06:26:13Z</time>
      </trkpt>
      <trkpt lat="42.663320" lon="-1.847011">
        <ele>357.8</ele>
        <time>2018-08-24T06:26:20Z</time>
      </trkpt>
      <trkpt lat="42.663339" lon="-1.847022">
        <ele>358.2</ele>
        <time>2018-08-24T06:26:22Z</time>
      </trkpt>
      <trkpt lat="42.663494" lon="-1.847117">
        <ele>359.7</ele>
        <time>2018-08-24T06:26:37Z</time>
      </trkpt>
      <trkpt lat="42.663689" lon="-1.847132">
        <ele>360.6</ele>
        <time>2018-08-24T06:26:53Z</time>
      </trkpt>
      <trkpt lat="42.663793" lon="-1.847137">
        <ele>362.1</ele>
        <time>2018-08-24T06:27:03Z</time>
      </trkpt>
      <trkpt lat="42.663815" lon="-1.847152">
        <ele>362.1</ele>
        <time>2018-08-24T06:27:06Z</time>
      </trkpt>
      <trkpt lat="42.663878" lon="-1.847185">
        <ele>362.5</ele>
        <time>2018-08-24T06:27:13Z</time>
      </trkpt>
      <trkpt lat="42.664021" lon="-1.847275">
        <ele>364.0</ele>
        <time>2018-08-24T06:27:25Z</time>
      </trkpt>
      <trkpt lat="42.664088" lon="-1.847340">
        <ele>365.4</ele>
        <time>2018-08-24T06:27:33Z</time>
      </trkpt>
      <trkpt lat="42.664149" lon="-1.847396">
        <ele>366.4</ele>
        <time>2018-08-24T06:27:42Z</time>
      </trkpt>
      <trkpt lat="42.664175" lon="-1.847440">
        <ele>367.4</ele>
        <time>2018-08-24T06:27:46Z</time>
      </trkpt>
      <trkpt lat="42.664225" lon="-1.847472">
        <ele>368.3</ele>
        <time>2018-08-24T06:27:52Z</time>
      </trkpt>
      <trkpt lat="42.664306" lon="-1.847537">
        <ele>370.2</ele>
        <time>2018-08-24T06:28:03Z</time>
      </trkpt>
      <trkpt lat="42.664360" lon="-1.847597">
        <ele>371.2</ele>
        <time>2018-08-24T06:28:10Z</time>
      </trkpt>
      <trkpt lat="42.664495" lon="-1.847708">
        <ele>372.6</ele>
        <time>2018-08-24T06:28:23Z</time>
      </trkpt>
      <trkpt lat="42.664581" lon="-1.847819">
        <ele>373.6</ele>
        <time>2018-08-24T06:28:34Z</time>
      </trkpt>
      <trkpt lat="42.664703" lon="-1.847936">
        <ele>375.5</ele>
        <time>2018-08-24T06:28:49Z</time>
      </trkpt>
      <trkpt lat="42.664834" lon="-1.848071">
        <ele>376.5</ele>
        <time>2018-08-24T06:29:04Z</time>
      </trkpt>
      <trkpt lat="42.664925" lon="-1.848142">
        <ele>377.5</ele>
        <time>2018-08-24T06:29:15Z</time>
      </trkpt>
      <trkpt lat="42.664950" lon="-1.848167">
        <ele>377.9</ele>
        <time>2018-08-24T06:29:18Z</time>
      </trkpt>
      <trkpt lat="42.665061" lon="-1.848279">
        <ele>379.4</ele>
        <time>2018-08-24T06:29:34Z</time>
      </trkpt>
      <trkpt lat="42.665153" lon="-1.848341">
        <ele>381.8</ele>
        <time>2018-08-24T06:29:49Z</time>
      </trkpt>
      <trkpt lat="42.665177" lon="-1.848369">
        <ele>382.3</ele>
        <time>2018-08-24T06:29:53Z</time>
      </trkpt>
      <trkpt lat="42.665234" lon="-1.848475">
        <ele>383.7</ele>
        <time>2018-08-24T06:30:05Z</time>
      </trkpt>
      <trkpt lat="42.665302" lon="-1.848608">
        <ele>385.6</ele>
        <time>2018-08-24T06:30:19Z</time>
      </trkpt>
      <trkpt lat="42.665390" lon="-1.848667">
        <ele>387.5</ele>
        <time>2018-08-24T06:30:33Z</time>
      </trkpt>
      <trkpt lat="42.665426" lon="-1.848687">
        <ele>389.0</ele>
        <time>2018-08-24T06:30:40Z</time>
      </trkpt>
      <trkpt lat="42.665565" lon="-1.848722">
        <ele>391.4</ele>
        <time>2018-08-24T06:30:56Z</time>
      </trkpt>
      <trkpt lat="42.665643" lon="-1.848802">
        <ele>393.3</ele>
        <time>2018-08-24T06:31:09Z</time>
      </trkpt>
      <trkpt lat="42.665698" lon="-1.848869">
        <ele>394.3</ele>
        <time>2018-08-24T06:31:17Z</time>
      </trkpt>
      <trkpt lat="42.665757" lon="-1.848965">
        <ele>396.7</ele>
        <time>2018-08-24T06:31:30Z</time>
      </trkpt>
      <trkpt lat="42.665770" lon="-1.849013">
        <ele>397.2</ele>
        <time>2018-08-24T06:31:35Z</time>
      </trkpt>
      <trkpt lat="42.665793" lon="-1.849158">
        <ele>398.6</ele>
        <time>2018-08-24T06:31:49Z</time>
      </trkpt>
      <trkpt lat="42.665798" lon="-1.849294">
        <ele>400.0</ele>
        <time>2018-08-24T06:32:01Z</time>
      </trkpt>
      <trkpt lat="42.665818" lon="-1.849462">
        <ele>402.0</ele>
        <time>2018-08-24T06:32:15Z</time>
      </trkpt>
      <trkpt lat="42.665861" lon="-1.849614">
        <ele>402.9</ele>
        <time>2018-08-24T06:32:27Z</time>
      </trkpt>
      <trkpt lat="42.665886" lon="-1.849726">
        <ele>403.9</ele>
        <time>2018-08-24T06:32:34Z</time>
      </trkpt>
      <trkpt lat="42.665899" lon="-1.849803">
        <ele>405.3</ele>
        <time>2018-08-24T06:32:41Z</time>
      </trkpt>
      <trkpt lat="42.665903" lon="-1.849832">
        <ele>404.9</ele>
        <time>2018-08-24T06:32:44Z</time>
      </trkpt>
      <trkpt lat="42.665914" lon="-1.849872">
        <ele>405.8</ele>
        <time>2018-08-24T06:32:49Z</time>
      </trkpt>
      <trkpt lat="42.665940" lon="-1.849959">
        <ele>406.3</ele>
        <time>2018-08-24T06:32:57Z</time>
      </trkpt>
      <trkpt lat="42.665952" lon="-1.850103">
        <ele>408.7</ele>
        <time>2018-08-24T06:33:10Z</time>
      </trkpt>
      <trkpt lat="42.665961" lon="-1.850245">
        <ele>410.1</ele>
        <time>2018-08-24T06:33:23Z</time>
      </trkpt>
      <trkpt lat="42.665976" lon="-1.850340">
        <ele>411.1</ele>
        <time>2018-08-24T06:33:35Z</time>
      </trkpt>
      <trkpt lat="42.665991" lon="-1.850457">
        <ele>412.5</ele>
        <time>2018-08-24T06:33:45Z</time>
      </trkpt>
      <trkpt lat="42.665991" lon="-1.850525">
        <ele>413.5</ele>
        <time>2018-08-24T06:33:51Z</time>
      </trkpt>
      <trkpt lat="42.666020" lon="-1.850679">
        <ele>415.0</ele>
        <time>2018-08-24T06:34:05Z</time>
      </trkpt>
      <trkpt lat="42.666059" lon="-1.850797">
        <ele>415.9</ele>
        <time>2018-08-24T06:34:17Z</time>
      </trkpt>
      <trkpt lat="42.666086" lon="-1.850881">
        <ele>417.4</ele>
        <time>2018-08-24T06:34:25Z</time>
      </trkpt>
      <trkpt lat="42.666114" lon="-1.850937">
        <ele>417.8</ele>
        <time>2018-08-24T06:34:30Z</time>
      </trkpt>
      <trkpt lat="42.666170" lon="-1.851077">
        <ele>419.3</ele>
        <time>2018-08-24T06:34:43Z</time>
      </trkpt>
      <trkpt lat="42.666192" lon="-1.851125">
        <ele>419.3</ele>
        <time>2018-08-24T06:34:47Z</time>
      </trkpt>
      <trkpt lat="42.666231" lon="-1.851208">
        <ele>420.2</ele>
        <time>2018-08-24T06:34:55Z</time>
      </trkpt>
      <trkpt lat="42.666252" lon="-1.851236">
        <ele>420.2</ele>
        <time>2018-08-24T06:34:58Z</time>
      </trkpt>
      <trkpt lat="42.666261" lon="-1.851264">
        <ele>420.7</ele>
        <time>2018-08-24T06:35:01Z</time>
      </trkpt>
      <trkpt lat="42.666305" lon="-1.851398">
        <ele>422.2</ele>
        <time>2018-08-24T06:35:13Z</time>
      </trkpt>
      <trkpt lat="42.666348" lon="-1.851507">
        <ele>423.1</ele>
        <time>2018-08-24T06:35:25Z</time>
      </trkpt>
      <trkpt lat="42.666389" lon="-1.851583">
        <ele>424.6</ele>
        <time>2018-08-24T06:35:35Z</time>
      </trkpt>
      <trkpt lat="42.666438" lon="-1.851672">
        <ele>426.0</ele>
        <time>2018-08-24T06:35:47Z</time>
      </trkpt>
      <trkpt lat="42.666492" lon="-1.851762">
        <ele>427.4</ele>
        <time>2018-08-24T06:35:58Z</time>
      </trkpt>
      <trkpt lat="42.666561" lon="-1.851842">
        <ele>428.4</ele>
        <time>2018-08-24T06:36:09Z</time>
      </trkpt>
      <trkpt lat="42.666602" lon="-1.851970">
        <ele>429.9</ele>
        <time>2018-08-24T06:36:22Z</time>
      </trkpt>
      <trkpt lat="42.666632" lon="-1.852066">
        <ele>431.8</ele>
        <time>2018-08-24T06:36:34Z</time>
      </trkpt>
      <trkpt lat="42.666639" lon="-1.852095">
        <ele>432.2</ele>
        <time>2018-08-24T06:36:38Z</time>
      </trkpt>
      <trkpt lat="42.666662" lon="-1.852169">
        <ele>433.2</ele>
        <time>2018-08-24T06:36:45Z</time>
      </trkpt>
      <trkpt lat="42.666689" lon="-1.852245">
        <ele>434.2</ele>
        <time>2018-08-24T06:36:53Z</time>
      </trkpt>
      <trkpt lat="42.666717" lon="-1.852375">
        <ele>435.6</ele>
        <time>2018-08-24T06:37:05Z</time>
      </trkpt>
      <trkpt lat="42.666758" lon="-1.852509">
        <ele>437.5</ele>
        <time>2018-08-24T06:37:17Z</time>
      </trkpt>
      <trkpt lat="42.666790" lon="-1.852629">
        <ele>439.0</ele>
        <time>2018-08-24T06:37:29Z</time>
      </trkpt>
      <trkpt lat="42.666813" lon="-1.852755">
        <ele>440.4</ele>
        <time>2018-08-24T06:37:41Z</time>
      </trkpt>
      <trkpt lat="42.666833" lon="-1.852793">
        <ele>440.9</ele>
        <time>2018-08-24T06:37:45Z</time>
      </trkpt>
      <trkpt lat="42.666873" lon="-1.852905">
        <ele>442.8</ele>
        <time>2018-08-24T06:37:57Z</time>
      </trkpt>
      <trkpt lat="42.666913" lon="-1.853013">
        <ele>443.3</ele>
        <time>2018-08-24T06:38:08Z</time>
      </trkpt>
      <trkpt lat="42.666938" lon="-1.853114">
        <ele>445.2</ele>
        <time>2018-08-24T06:38:21Z</time>
      </trkpt>
      <trkpt lat="42.666968" lon="-1.853173">
        <ele>447.1</ele>
        <time>2018-08-24T06:38:34Z</time>
      </trkpt>
      <trkpt lat="42.666992" lon="-1.853259">
        <ele>448.1</ele>
        <time>2018-08-24T06:38:46Z</time>
      </trkpt>
      <trkpt lat="42.667025" lon="-1.853343">
        <ele>450.0</ele>
        <time>2018-08-24T06:38:58Z</time>
      </trkpt>
      <trkpt lat="42.667069" lon="-1.853414">
        <ele>452.0</ele>
        <time>2018-08-24T06:39:11Z</time>
      </trkpt>
      <trkpt lat="42.667094" lon="-1.853435">
        <ele>453.9</ele>
        <time>2018-08-24T06:39:20Z</time>
      </trkpt>
      <trkpt lat="42.667133" lon="-1.853528">
        <ele>455.3</ele>
        <time>2018-08-24T06:39:33Z</time>
      </trkpt>
      <trkpt lat="42.667211" lon="-1.853646">
        <ele>457.2</ele>
        <time>2018-08-24T06:39:48Z</time>
      </trkpt>
      <trkpt lat="42.667216" lon="-1.853657">
        <ele>457.2</ele>
        <time>2018-08-24T06:39:49Z</time>
      </trkpt>
      <trkpt lat="42.667236" lon="-1.853740">
        <ele>457.7</ele>
        <time>2018-08-24T06:39:56Z</time>
      </trkpt>
      <trkpt lat="42.667300" lon="-1.853997">
        <ele>459.2</ele>
        <time>2018-08-24T06:40:15Z</time>
      </trkpt>
      <trkpt lat="42.667334" lon="-1.854146">
        <ele>459.6</ele>
        <time>2018-08-24T06:40:26Z</time>
      </trkpt>
      <trkpt lat="42.667345" lon="-1.854173">
        <ele>459.6</ele>
        <time>2018-08-24T06:40:28Z</time>
      </trkpt>
      <trkpt lat="42.667387" lon="-1.854334">
        <ele>461.1</ele>
        <time>2018-08-24T06:40:40Z</time>
      </trkpt>
      <trkpt lat="42.667390" lon="-1.854379">
        <ele>460.6</ele>
        <time>2018-08-24T06:40:43Z</time>
      </trkpt>
      <trkpt lat="42.667447" lon="-1.854612">
        <ele>462.0</ele>
        <time>2018-08-24T06:41:00Z</time>
      </trkpt>
      <trkpt lat="42.667467" lon="-1.854718">
        <ele>462.0</ele>
        <time>2018-08-24T06:41:08Z</time>
      </trkpt>
      <trkpt lat="42.667515" lon="-1.854915">
        <ele>463.0</ele>
        <time>2018-08-24T06:41:23Z</time>
      </trkpt>
      <trkpt lat="42.667517" lon="-1.854942">
        <ele>463.5</ele>
        <time>2018-08-24T06:41:25Z</time>
      </trkpt>
      <trkpt lat="42.667572" lon="-1.855163">
        <ele>464.0</ele>
        <time>2018-08-24T06:41:42Z</time>
      </trkpt>
      <trkpt lat="42.667576" lon="-1.855207">
        <ele>464.5</ele>
        <time>2018-08-24T06:41:45Z</time>
      </trkpt>
      <trkpt lat="42.667614" lon="-1.855362">
        <ele>464.9</ele>
        <time>2018-08-24T06:41:57Z</time>
      </trkpt>
      <trkpt lat="42.667654" lon="-1.855581">
        <ele>465.9</ele>
        <time>2018-08-24T06:42:12Z</time>
      </trkpt>
      <trkpt lat="42.667693" lon="-1.855735">
        <ele>466.4</ele>
        <time>2018-08-24T06:42:23Z</time>
      </trkpt>
      <trkpt lat="42.667746" lon="-1.855892">
        <ele>466.9</ele>
        <time>2018-08-24T06:42:39Z</time>
      </trkpt>
      <trkpt lat="42.667760" lon="-1.856034">
        <ele>466.9</ele>
        <time>2018-08-24T06:42:57Z</time>
      </trkpt>
      <trkpt lat="42.667754" lon="-1.856040">
        <ele>462.5</ele>
        <time>2018-08-24T06:43:00Z</time>
      </trkpt>
      <trkpt lat="42.667754" lon="-1.856043">
        <ele>469.7</ele>
        <time>2018-08-24T06:43:01Z</time>
      </trkpt>
      <trkpt lat="42.667756" lon="-1.856070">
        <ele>467.3</ele>
        <time>2018-08-24T06:43:04Z</time>
      </trkpt>
      <trkpt lat="42.667771" lon="-1.856208">
        <ele>465.9</ele>
        <time>2018-08-24T06:43:17Z</time>
      </trkpt>
      <trkpt lat="42.667786" lon="-1.856263">
        <ele>464.9</ele>
        <time>2018-08-24T06:43:23Z</time>
      </trkpt>
      <trkpt lat="42.667791" lon="-1.856287">
        <ele>465.4</ele>
        <time>2018-08-24T06:43:25Z</time>
      </trkpt>
      <trkpt lat="42.667814" lon="-1.856470">
        <ele>464.0</ele>
        <time>2018-08-24T06:43:39Z</time>
      </trkpt>
      <trkpt lat="42.667867" lon="-1.856687">
        <ele>463.0</ele>
        <time>2018-08-24T06:43:54Z</time>
      </trkpt>
      <trkpt lat="42.667937" lon="-1.856952">
        <ele>463.5</ele>
        <time>2018-08-24T06:44:13Z</time>
      </trkpt>
      <trkpt lat="42.667993" lon="-1.857178">
        <ele>463.5</ele>
        <time>2018-08-24T06:44:28Z</time>
      </trkpt>
      <trkpt lat="42.668001" lon="-1.857206">
        <ele>463.5</ele>
        <time>2018-08-24T06:44:30Z</time>
      </trkpt>
      <trkpt lat="42.668031" lon="-1.857282">
        <ele>464.5</ele>
        <time>2018-08-24T06:44:36Z</time>
      </trkpt>
      <trkpt lat="42.668043" lon="-1.857311">
        <ele>464.5</ele>
        <time>2018-08-24T06:44:38Z</time>
      </trkpt>
      <trkpt lat="42.668070" lon="-1.857391">
        <ele>464.5</ele>
        <time>2018-08-24T06:44:44Z</time>
      </trkpt>
      <trkpt lat="42.668077" lon="-1.857417">
        <ele>464.9</ele>
        <time>2018-08-24T06:44:46Z</time>
      </trkpt>
      <trkpt lat="42.668124" lon="-1.857567">
        <ele>465.9</ele>
        <time>2018-08-24T06:45:00Z</time>
      </trkpt>
      <trkpt lat="42.668154" lon="-1.857603">
        <ele>467.3</ele>
        <time>2018-08-24T06:45:06Z</time>
      </trkpt>
      <trkpt lat="42.668170" lon="-1.857649">
        <ele>466.9</ele>
        <time>2018-08-24T06:45:10Z</time>
      </trkpt>
      <trkpt lat="42.668196" lon="-1.857727">
        <ele>468.8</ele>
        <time>2018-08-24T06:45:18Z</time>
      </trkpt>
      <trkpt lat="42.668272" lon="-1.857838">
        <ele>469.3</ele>
        <time>2018-08-24T06:45:31Z</time>
      </trkpt>
      <trkpt lat="42.668345" lon="-1.857953">
        <ele>471.2</ele>
        <time>2018-08-24T06:45:44Z</time>
      </trkpt>
      <trkpt lat="42.668351" lon="-1.857961">
        <ele>471.7</ele>
        <time>2018-08-24T06:45:45Z</time>
      </trkpt>
      <trkpt lat="42.668366" lon="-1.857977">
        <ele>471.7</ele>
        <time>2018-08-24T06:45:47Z</time>
      </trkpt>
      <trkpt lat="42.668400" lon="-1.858024">
        <ele>472.1</ele>
        <time>2018-08-24T06:45:59Z</time>
      </trkpt>
      <trkpt lat="42.668413" lon="-1.858042">
        <ele>472.1</ele>
        <time>2018-08-24T06:46:01Z</time>
      </trkpt>
      <trkpt lat="42.668444" lon="-1.858106">
        <ele>472.6</ele>
        <time>2018-08-24T06:46:07Z</time>
      </trkpt>
      <trkpt lat="42.668560" lon="-1.858321">
        <ele>472.1</ele>
        <time>2018-08-24T06:46:27Z</time>
      </trkpt>
      <trkpt lat="42.668678" lon="-1.858549">
        <ele>471.7</ele>
        <time>2018-08-24T06:46:44Z</time>
      </trkpt>
      <trkpt lat="42.668786" lon="-1.858735">
        <ele>469.7</ele>
        <time>2018-08-24T06:46:59Z</time>
      </trkpt>
      <trkpt lat="42.668847" lon="-1.858818">
        <ele>469.7</ele>
        <time>2018-08-24T06:47:10Z</time>
      </trkpt>
      <trkpt lat="42.668842" lon="-1.858963">
        <ele>470.2</ele>
        <time>2018-08-24T06:47:26Z</time>
      </trkpt>
      <trkpt lat="42.668851" lon="-1.858982">
        <ele>469.7</ele>
        <time>2018-08-24T06:47:31Z</time>
      </trkpt>
      <trkpt lat="42.668881" lon="-1.859108">
        <ele>469.3</ele>
        <time>2018-08-24T06:47:45Z</time>
      </trkpt>
      <trkpt lat="42.668881" lon="-1.859105">
        <ele>468.8</ele>
        <time>2018-08-24T06:47:46Z</time>
      </trkpt>
      <trkpt lat="42.668935" lon="-1.859151">
        <ele>468.8</ele>
        <time>2018-08-24T06:47:59Z</time>
      </trkpt>
      <trkpt lat="42.669039" lon="-1.859290">
        <ele>468.3</ele>
        <time>2018-08-24T06:48:15Z</time>
      </trkpt>
      <trkpt lat="42.669050" lon="-1.859315">
        <ele>468.3</ele>
        <time>2018-08-24T06:48:17Z</time>
      </trkpt>
      <trkpt lat="42.669057" lon="-1.859353">
        <ele>467.8</ele>
        <time>2018-08-24T06:48:20Z</time>
      </trkpt>
      <trkpt lat="42.669130" lon="-1.859531">
        <ele>466.4</ele>
        <time>2018-08-24T06:48:35Z</time>
      </trkpt>
      <trkpt lat="42.669140" lon="-1.859589">
        <ele>466.4</ele>
        <time>2018-08-24T06:48:39Z</time>
      </trkpt>
      <trkpt lat="42.669152" lon="-1.859645">
        <ele>465.9</ele>
        <time>2018-08-24T06:48:44Z</time>
      </trkpt>
      <trkpt lat="42.669179" lon="-1.859725">
        <ele>465.4</ele>
        <time>2018-08-24T06:48:58Z</time>
      </trkpt>
      <trkpt lat="42.669213" lon="-1.859801">
        <ele>464.5</ele>
        <time>2018-08-24T06:49:10Z</time>
      </trkpt>
      <trkpt lat="42.669217" lon="-1.859972">
        <ele>463.5</ele>
        <time>2018-08-24T06:49:26Z</time>
      </trkpt>
      <trkpt lat="42.669220" lon="-1.860138">
        <ele>461.6</ele>
        <time>2018-08-24T06:49:40Z</time>
      </trkpt>
      <trkpt lat="42.669197" lon="-1.860305">
        <ele>460.6</ele>
        <time>2018-08-24T06:49:55Z</time>
      </trkpt>
      <trkpt lat="42.669177" lon="-1.860400">
        <ele>459.6</ele>
        <time>2018-08-24T06:50:04Z</time>
      </trkpt>
      <trkpt lat="42.669143" lon="-1.860576">
        <ele>459.2</ele>
        <time>2018-08-24T06:50:20Z</time>
      </trkpt>
      <trkpt lat="42.669143" lon="-1.860584">
        <ele>458.7</ele>
        <time>2018-08-24T06:50:21Z</time>
      </trkpt>
      <trkpt lat="42.669146" lon="-1.860770">
        <ele>457.7</ele>
        <time>2018-08-24T06:50:37Z</time>
      </trkpt>
      <trkpt lat="42.669150" lon="-1.860909">
        <ele>456.8</ele>
        <time>2018-08-24T06:50:50Z</time>
      </trkpt>
      <trkpt lat="42.669147" lon="-1.861019">
        <ele>455.3</ele>
        <time>2018-08-24T06:51:03Z</time>
      </trkpt>
      <trkpt lat="42.669144" lon="-1.861044">
        <ele>455.3</ele>
        <time>2018-08-24T06:51:06Z</time>
      </trkpt>
      <trkpt lat="42.669156" lon="-1.861108">
        <ele>455.3</ele>
        <time>2018-08-24T06:51:11Z</time>
      </trkpt>
      <trkpt lat="42.669132" lon="-1.861228">
        <ele>454.4</ele>
        <time>2018-08-24T06:51:24Z</time>
      </trkpt>
      <trkpt lat="42.669152" lon="-1.861389">
        <ele>453.9</ele>
        <time>2018-08-24T06:51:38Z</time>
      </trkpt>
      <trkpt lat="42.669167" lon="-1.861484">
        <ele>452.4</ele>
        <time>2018-08-24T06:51:55Z</time>
      </trkpt>
      <trkpt lat="42.669159" lon="-1.861555">
        <ele>451.5</ele>
        <time>2018-08-24T06:52:11Z</time>
      </trkpt>
      <trkpt lat="42.669153" lon="-1.861559">
        <ele>452.0</ele>
        <time>2018-08-24T06:52:16Z</time>
      </trkpt>
      <trkpt lat="42.669019" lon="-1.861757">
        <ele>450.5</ele>
        <time>2018-08-24T06:52:32Z</time>
      </trkpt>
      <trkpt lat="42.668964" lon="-1.861899">
        <ele>449.5</ele>
        <time>2018-08-24T06:52:49Z</time>
      </trkpt>
      <trkpt lat="42.668941" lon="-1.862004">
        <ele>449.1</ele>
        <time>2018-08-24T06:53:00Z</time>
      </trkpt>
      <trkpt lat="42.668959" lon="-1.862019">
        <ele>449.1</ele>
        <time>2018-08-24T06:53:12Z</time>
      </trkpt>
      <trkpt lat="42.668965" lon="-1.862027">
        <ele>449.5</ele>
        <time>2018-08-24T06:53:18Z</time>
      </trkpt>
      <trkpt lat="42.668949" lon="-1.862083">
        <ele>449.5</ele>
        <time>2018-08-24T06:53:21Z</time>
      </trkpt>
      <trkpt lat="42.668947" lon="-1.862132">
        <ele>449.5</ele>
        <time>2018-08-24T06:53:24Z</time>
      </trkpt>
      <trkpt lat="42.668955" lon="-1.862352">
        <ele>449.1</ele>
        <time>2018-08-24T06:53:39Z</time>
      </trkpt>
      <trkpt lat="42.668978" lon="-1.862370">
        <ele>449.5</ele>
        <time>2018-08-24T06:53:42Z</time>
      </trkpt>
      <trkpt lat="42.668970" lon="-1.862431">
        <ele>449.5</ele>
        <time>2018-08-24T06:55:00Z</time>
      </trkpt>
      <trkpt lat="42.668964" lon="-1.862487">
        <ele>449.1</ele>
        <time>2018-08-24T06:55:13Z</time>
      </trkpt>
      <trkpt lat="42.668909" lon="-1.862533">
        <ele>449.5</ele>
        <time>2018-08-24T06:55:24Z</time>
      </trkpt>
      <trkpt lat="42.668904" lon="-1.862539">
        <ele>449.5</ele>
        <time>2018-08-24T06:55:25Z</time>
      </trkpt>
      <trkpt lat="42.668911" lon="-1.862709">
        <ele>449.5</ele>
        <time>2018-08-24T06:55:40Z</time>
      </trkpt>
      <trkpt lat="42.668921" lon="-1.862745">
        <ele>450.0</ele>
        <time>2018-08-24T06:55:44Z</time>
      </trkpt>
      <trkpt lat="42.668929" lon="-1.863023">
        <ele>450.0</ele>
        <time>2018-08-24T06:56:01Z</time>
      </trkpt>
      <trkpt lat="42.668933" lon="-1.863040">
        <ele>449.5</ele>
        <time>2018-08-24T06:56:02Z</time>
      </trkpt>
      <trkpt lat="42.668937" lon="-1.863171">
        <ele>450.0</ele>
        <time>2018-08-24T06:56:11Z</time>
      </trkpt>
      <trkpt lat="42.668850" lon="-1.863357">
        <ele>449.1</ele>
        <time>2018-08-24T06:56:24Z</time>
      </trkpt>
      <trkpt lat="42.668853" lon="-1.863475">
        <ele>449.5</ele>
        <time>2018-08-24T06:56:37Z</time>
      </trkpt>
      <trkpt lat="42.668842" lon="-1.863582">
        <ele>449.5</ele>
        <time>2018-08-24T06:56:48Z</time>
      </trkpt>
      <trkpt lat="42.668803" lon="-1.863702">
        <ele>449.1</ele>
        <time>2018-08-24T06:57:00Z</time>
      </trkpt>
      <trkpt lat="42.668796" lon="-1.863703">
        <ele>450.0</ele>
        <time>2018-08-24T06:57:01Z</time>
      </trkpt>
      <trkpt lat="42.668738" lon="-1.863739">
        <ele>449.1</ele>
        <time>2018-08-24T06:57:09Z</time>
      </trkpt>
      <trkpt lat="42.668707" lon="-1.863992">
        <ele>449.5</ele>
        <time>2018-08-24T06:57:26Z</time>
      </trkpt>
      <trkpt lat="42.668697" lon="-1.864118">
        <ele>449.5</ele>
        <time>2018-08-24T06:57:38Z</time>
      </trkpt>
      <trkpt lat="42.668688" lon="-1.864183">
        <ele>450.0</ele>
        <time>2018-08-24T06:57:42Z</time>
      </trkpt>
      <trkpt lat="42.668746" lon="-1.864411">
        <ele>450.5</ele>
        <time>2018-08-24T06:57:56Z</time>
      </trkpt>
      <trkpt lat="42.668722" lon="-1.864531">
        <ele>451.5</ele>
        <time>2018-08-24T06:58:04Z</time>
      </trkpt>
      <trkpt lat="42.668698" lon="-1.864628">
        <ele>451.0</ele>
        <time>2018-08-24T06:58:10Z</time>
      </trkpt>
      <trkpt lat="42.668685" lon="-1.864899">
        <ele>451.0</ele>
        <time>2018-08-24T06:58:27Z</time>
      </trkpt>
      <trkpt lat="42.668695" lon="-1.865056">
        <ele>451.0</ele>
        <time>2018-08-24T06:58:40Z</time>
      </trkpt>
      <trkpt lat="42.668703" lon="-1.865217">
        <ele>451.0</ele>
        <time>2018-08-24T06:58:50Z</time>
      </trkpt>
      <trkpt lat="42.668719" lon="-1.865223">
        <ele>451.0</ele>
        <time>2018-08-24T06:59:05Z</time>
      </trkpt>
      <trkpt lat="42.668753" lon="-1.865342">
        <ele>451.0</ele>
        <time>2018-08-24T06:59:23Z</time>
      </trkpt>
      <trkpt lat="42.668802" lon="-1.865645">
        <ele>452.0</ele>
        <time>2018-08-24T06:59:38Z</time>
      </trkpt>
      <trkpt lat="42.668851" lon="-1.866001">
        <ele>452.0</ele>
        <time>2018-08-24T06:59:57Z</time>
      </trkpt>
      <trkpt lat="42.668862" lon="-1.866109">
        <ele>452.4</ele>
        <time>2018-08-24T07:00:04Z</time>
      </trkpt>
      <trkpt lat="42.668897" lon="-1.866349">
        <ele>453.4</ele>
        <time>2018-08-24T07:00:20Z</time>
      </trkpt>
      <trkpt lat="42.668927" lon="-1.866505">
        <ele>453.9</ele>
        <time>2018-08-24T07:00:30Z</time>
      </trkpt>
      <trkpt lat="42.668948" lon="-1.866718">
        <ele>455.3</ele>
        <time>2018-08-24T07:00:45Z</time>
      </trkpt>
      <trkpt lat="42.668960" lon="-1.866846">
        <ele>455.8</ele>
        <time>2018-08-24T07:00:54Z</time>
      </trkpt>
      <trkpt lat="42.668973" lon="-1.866977">
        <ele>457.2</ele>
        <time>2018-08-24T07:01:04Z</time>
      </trkpt>
      <trkpt lat="42.668980" lon="-1.867000">
        <ele>457.2</ele>
        <time>2018-08-24T07:01:06Z</time>
      </trkpt>
      <trkpt lat="42.668995" lon="-1.867070">
        <ele>457.2</ele>
        <time>2018-08-24T07:01:12Z</time>
      </trkpt>
      <trkpt lat="42.668994" lon="-1.867112">
        <ele>458.2</ele>
        <time>2018-08-24T07:01:15Z</time>
      </trkpt>
      <trkpt lat="42.669009" lon="-1.867206">
        <ele>458.2</ele>
        <time>2018-08-24T07:01:22Z</time>
      </trkpt>
      <trkpt lat="42.669016" lon="-1.867349">
        <ele>458.7</ele>
        <time>2018-08-24T07:01:35Z</time>
      </trkpt>
      <trkpt lat="42.669021" lon="-1.867403">
        <ele>459.2</ele>
        <time>2018-08-24T07:01:54Z</time>
      </trkpt>
      <trkpt lat="42.669026" lon="-1.867491">
        <ele>459.2</ele>
        <time>2018-08-24T07:02:00Z</time>
      </trkpt>
      <trkpt lat="42.669042" lon="-1.867572">
        <ele>459.2</ele>
        <time>2018-08-24T07:02:13Z</time>
      </trkpt>
      <trkpt lat="42.669056" lon="-1.867593">
        <ele>459.2</ele>
        <time>2018-08-24T07:02:15Z</time>
      </trkpt>
      <trkpt lat="42.669112" lon="-1.867806">
        <ele>458.7</ele>
        <time>2018-08-24T07:02:32Z</time>
      </trkpt>
      <trkpt lat="42.669145" lon="-1.867959">
        <ele>458.2</ele>
        <time>2018-08-24T07:02:49Z</time>
      </trkpt>
      <trkpt lat="42.669150" lon="-1.867959">
        <ele>457.2</ele>
        <time>2018-08-24T07:02:52Z</time>
      </trkpt>
      <trkpt lat="42.669241" lon="-1.868228">
        <ele>456.8</ele>
        <time>2018-08-24T07:03:09Z</time>
      </trkpt>
      <trkpt lat="42.669290" lon="-1.868428">
        <ele>455.8</ele>
        <time>2018-08-24T07:03:22Z</time>
      </trkpt>
      <trkpt lat="42.669353" lon="-1.868667">
        <ele>454.8</ele>
        <time>2018-08-24T07:03:38Z</time>
      </trkpt>
      <trkpt lat="42.669357" lon="-1.868682">
        <ele>454.8</ele>
        <time>2018-08-24T07:03:39Z</time>
      </trkpt>
      <trkpt lat="42.669375" lon="-1.868762">
        <ele>454.8</ele>
        <time>2018-08-24T07:03:44Z</time>
      </trkpt>
      <trkpt lat="42.669419" lon="-1.869004">
        <ele>454.8</ele>
        <time>2018-08-24T07:04:00Z</time>
      </trkpt>
      <trkpt lat="42.669428" lon="-1.869061">
        <ele>454.8</ele>
        <time>2018-08-24T07:04:04Z</time>
      </trkpt>
      <trkpt lat="42.669429" lon="-1.869124">
        <ele>455.3</ele>
        <time>2018-08-24T07:04:08Z</time>
      </trkpt>
      <trkpt lat="42.669433" lon="-1.869152">
        <ele>455.3</ele>
        <time>2018-08-24T07:04:10Z</time>
      </trkpt>
      <trkpt lat="42.669423" lon="-1.869195">
        <ele>455.3</ele>
        <time>2018-08-24T07:04:13Z</time>
      </trkpt>
      <trkpt lat="42.669419" lon="-1.869228">
        <ele>454.4</ele>
        <time>2018-08-24T07:04:15Z</time>
      </trkpt>
      <trkpt lat="42.669414" lon="-1.869345">
        <ele>455.3</ele>
        <time>2018-08-24T07:04:22Z</time>
      </trkpt>
      <trkpt lat="42.669411" lon="-1.869437">
        <ele>455.8</ele>
        <time>2018-08-24T07:04:28Z</time>
      </trkpt>
      <trkpt lat="42.669415" lon="-1.869639">
        <ele>456.8</ele>
        <time>2018-08-24T07:04:42Z</time>
      </trkpt>
      <trkpt lat="42.669340" lon="-1.869866">
        <ele>455.8</ele>
        <time>2018-08-24T07:04:58Z</time>
      </trkpt>
      <trkpt lat="42.669348" lon="-1.869942">
        <ele>455.3</ele>
        <time>2018-08-24T07:05:03Z</time>
      </trkpt>
      <trkpt lat="42.669354" lon="-1.870167">
        <ele>455.8</ele>
        <time>2018-08-24T07:05:18Z</time>
      </trkpt>
      <trkpt lat="42.669359" lon="-1.870243">
        <ele>455.8</ele>
        <time>2018-08-24T07:05:31Z</time>
      </trkpt>
      <trkpt lat="42.669395" lon="-1.870331">
        <ele>455.3</ele>
        <time>2018-08-24T07:05:48Z</time>
      </trkpt>
      <trkpt lat="42.669467" lon="-1.870512">
        <ele>455.8</ele>
        <time>2018-08-24T07:06:01Z</time>
      </trkpt>
      <trkpt lat="42.669583" lon="-1.870868">
        <ele>454.4</ele>
        <time>2018-08-24T07:06:21Z</time>
      </trkpt>
      <trkpt lat="42.669679" lon="-1.871138">
        <ele>453.9</ele>
        <time>2018-08-24T07:06:37Z</time>
      </trkpt>
      <trkpt lat="42.669811" lon="-1.871419">
        <ele>453.4</ele>
        <time>2018-08-24T07:06:56Z</time>
      </trkpt>
      <trkpt lat="42.669958" lon="-1.871636">
        <ele>453.4</ele>
        <time>2018-08-24T07:07:12Z</time>
      </trkpt>
      <trkpt lat="42.669975" lon="-1.871710">
        <ele>453.4</ele>
        <time>2018-08-24T07:07:17Z</time>
      </trkpt>
      <trkpt lat="42.669990" lon="-1.871775">
        <ele>453.4</ele>
        <time>2018-08-24T07:07:21Z</time>
      </trkpt>
      <trkpt lat="42.670028" lon="-1.871995">
        <ele>453.4</ele>
        <time>2018-08-24T07:07:35Z</time>
      </trkpt>
      <trkpt lat="42.670084" lon="-1.872210">
        <ele>453.9</ele>
        <time>2018-08-24T07:07:50Z</time>
      </trkpt>
      <trkpt lat="42.670132" lon="-1.872424">
        <ele>454.4</ele>
        <time>2018-08-24T07:08:03Z</time>
      </trkpt>
      <trkpt lat="42.670141" lon="-1.872480">
        <ele>455.3</ele>
        <time>2018-08-24T07:08:07Z</time>
      </trkpt>
      <trkpt lat="42.670168" lon="-1.872558">
        <ele>454.8</ele>
        <time>2018-08-24T07:08:12Z</time>
      </trkpt>
      <trkpt lat="42.670197" lon="-1.872668">
        <ele>455.3</ele>
        <time>2018-08-24T07:08:19Z</time>
      </trkpt>
      <trkpt lat="42.670225" lon="-1.872955">
        <ele>454.8</ele>
        <time>2018-08-24T07:08:36Z</time>
      </trkpt>
      <trkpt lat="42.670266" lon="-1.873112">
        <ele>455.3</ele>
        <time>2018-08-24T07:08:46Z</time>
      </trkpt>
      <trkpt lat="42.670337" lon="-1.873246">
        <ele>453.9</ele>
        <time>2018-08-24T07:08:55Z</time>
      </trkpt>
      <trkpt lat="42.670502" lon="-1.873458">
        <ele>453.4</ele>
        <time>2018-08-24T07:09:14Z</time>
      </trkpt>
      <trkpt lat="42.670560" lon="-1.873709">
        <ele>452.9</ele>
        <time>2018-08-24T07:09:30Z</time>
      </trkpt>
      <trkpt lat="42.670597" lon="-1.873951">
        <ele>452.4</ele>
        <time>2018-08-24T07:09:47Z</time>
      </trkpt>
      <trkpt lat="42.670600" lon="-1.873997">
        <ele>452.0</ele>
        <time>2018-08-24T07:10:59Z</time>
      </trkpt>
      <trkpt lat="42.670612" lon="-1.874067">
        <ele>452.0</ele>
        <time>2018-08-24T07:11:11Z</time>
      </trkpt>
      <trkpt lat="42.670657" lon="-1.874210">
        <ele>451.0</ele>
        <time>2018-08-24T07:11:26Z</time>
      </trkpt>
      <trkpt lat="42.670681" lon="-1.874417">
        <ele>449.1</ele>
        <time>2018-08-24T07:11:48Z</time>
      </trkpt>
      <trkpt lat="42.670747" lon="-1.874564">
        <ele>449.5</ele>
        <time>2018-08-24T07:12:00Z</time>
      </trkpt>
      <trkpt lat="42.670826" lon="-1.874818">
        <ele>448.1</ele>
        <time>2018-08-24T07:12:17Z</time>
      </trkpt>
      <trkpt lat="42.670866" lon="-1.875074">
        <ele>447.1</ele>
        <time>2018-08-24T07:12:33Z</time>
      </trkpt>
      <trkpt lat="42.670906" lon="-1.875399">
        <ele>447.1</ele>
        <time>2018-08-24T07:12:52Z</time>
      </trkpt>
      <trkpt lat="42.670930" lon="-1.875693">
        <ele>447.1</ele>
        <time>2018-08-24T07:13:09Z</time>
      </trkpt>
      <trkpt lat="42.670932" lon="-1.875711">
        <ele>447.1</ele>
        <time>2018-08-24T07:13:10Z</time>
      </trkpt>
      <trkpt lat="42.670963" lon="-1.875807">
        <ele>446.7</ele>
        <time>2018-08-24T07:13:16Z</time>
      </trkpt>
      <trkpt lat="42.671025" lon="-1.875980">
        <ele>447.6</ele>
        <time>2018-08-24T07:13:31Z</time>
      </trkpt>
      <trkpt lat="42.671029" lon="-1.875977">
        <ele>446.7</ele>
        <time>2018-08-24T07:13:35Z</time>
      </trkpt>
      <trkpt lat="42.671077" lon="-1.876142">
        <ele>446.7</ele>
        <time>2018-08-24T07:13:45Z</time>
      </trkpt>
      <trkpt lat="42.671108" lon="-1.876224">
        <ele>447.1</ele>
        <time>2018-08-24T07:13:51Z</time>
      </trkpt>
      <trkpt lat="42.671132" lon="-1.876304">
        <ele>447.1</ele>
        <time>2018-08-24T07:13:56Z</time>
      </trkpt>
      <trkpt lat="42.671236" lon="-1.876627">
        <ele>447.1</ele>
        <time>2018-08-24T07:14:16Z</time>
      </trkpt>
      <trkpt lat="42.671238" lon="-1.876969">
        <ele>448.6</ele>
        <time>2018-08-24T07:14:35Z</time>
      </trkpt>
      <trkpt lat="42.671203" lon="-1.877005">
        <ele>447.6</ele>
        <time>2018-08-24T07:14:39Z</time>
      </trkpt>
      <trkpt lat="42.671158" lon="-1.877203">
        <ele>448.1</ele>
        <time>2018-08-24T07:14:52Z</time>
      </trkpt>
      <trkpt lat="42.671098" lon="-1.877395">
        <ele>448.6</ele>
        <time>2018-08-24T07:15:05Z</time>
      </trkpt>
      <trkpt lat="42.671051" lon="-1.877573">
        <ele>448.6</ele>
        <time>2018-08-24T07:15:18Z</time>
      </trkpt>
      <trkpt lat="42.671021" lon="-1.877640">
        <ele>447.6</ele>
        <time>2018-08-24T07:15:30Z</time>
      </trkpt>
      <trkpt lat="42.670964" lon="-1.877841">
        <ele>447.1</ele>
        <time>2018-08-24T07:15:43Z</time>
      </trkpt>
      <trkpt lat="42.670944" lon="-1.878134">
        <ele>446.2</ele>
        <time>2018-08-24T07:15:59Z</time>
      </trkpt>
      <trkpt lat="42.670962" lon="-1.878359">
        <ele>445.2</ele>
        <time>2018-08-24T07:16:13Z</time>
      </trkpt>
      <trkpt lat="42.671023" lon="-1.878613">
        <ele>443.3</ele>
        <time>2018-08-24T07:16:29Z</time>
      </trkpt>
      <trkpt lat="42.671044" lon="-1.878740">
        <ele>442.3</ele>
        <time>2018-08-24T07:16:37Z</time>
      </trkpt>
      <trkpt lat="42.671052" lon="-1.878794">
        <ele>441.9</ele>
        <time>2018-08-24T07:16:41Z</time>
      </trkpt>
      <trkpt lat="42.671090" lon="-1.879066">
        <ele>440.4</ele>
        <time>2018-08-24T07:16:57Z</time>
      </trkpt>
      <trkpt lat="42.671126" lon="-1.879329">
        <ele>439.9</ele>
        <time>2018-08-24T07:17:12Z</time>
      </trkpt>
      <trkpt lat="42.671187" lon="-1.879573">
        <ele>440.9</ele>
        <time>2018-08-24T07:17:27Z</time>
      </trkpt>
      <trkpt lat="42.671263" lon="-1.879732">
        <ele>440.9</ele>
        <time>2018-08-24T07:17:38Z</time>
      </trkpt>
      <trkpt lat="42.671364" lon="-1.879941">
        <ele>440.9</ele>
        <time>2018-08-24T07:17:53Z</time>
      </trkpt>
      <trkpt lat="42.671461" lon="-1.880117">
        <ele>440.9</ele>
        <time>2018-08-24T07:18:08Z</time>
      </trkpt>
      <trkpt lat="42.671488" lon="-1.880175">
        <ele>441.9</ele>
        <time>2018-08-24T07:18:12Z</time>
      </trkpt>
      <trkpt lat="42.671622" lon="-1.880343">
        <ele>441.9</ele>
        <time>2018-08-24T07:18:27Z</time>
      </trkpt>
      <trkpt lat="42.671635" lon="-1.880364">
        <ele>441.9</ele>
        <time>2018-08-24T07:18:29Z</time>
      </trkpt>
      <trkpt lat="42.671659" lon="-1.880401">
        <ele>442.3</ele>
        <time>2018-08-24T07:18:32Z</time>
      </trkpt>
      <trkpt lat="42.671788" lon="-1.880643">
        <ele>443.3</ele>
        <time>2018-08-24T07:18:49Z</time>
      </trkpt>
      <trkpt lat="42.671795" lon="-1.880658">
        <ele>442.8</ele>
        <time>2018-08-24T07:18:50Z</time>
      </trkpt>
      <trkpt lat="42.671840" lon="-1.880759">
        <ele>443.8</ele>
        <time>2018-08-24T07:18:57Z</time>
      </trkpt>
      <trkpt lat="42.671921" lon="-1.880900">
        <ele>443.3</ele>
        <time>2018-08-24T07:19:07Z</time>
      </trkpt>
      <trkpt lat="42.672094" lon="-1.881124">
        <ele>443.8</ele>
        <time>2018-08-24T07:19:25Z</time>
      </trkpt>
      <trkpt lat="42.672233" lon="-1.881285">
        <ele>444.3</ele>
        <time>2018-08-24T07:19:40Z</time>
      </trkpt>
      <trkpt lat="42.672324" lon="-1.881394">
        <ele>444.8</ele>
        <time>2018-08-24T07:19:50Z</time>
      </trkpt>
      <trkpt lat="42.672429" lon="-1.881534">
        <ele>445.2</ele>
        <time>2018-08-24T07:20:02Z</time>
      </trkpt>
      <trkpt lat="42.672561" lon="-1.881712">
        <ele>446.2</ele>
        <time>2018-08-24T07:20:17Z</time>
      </trkpt>
      <trkpt lat="42.672715" lon="-1.881911">
        <ele>446.2</ele>
        <time>2018-08-24T07:20:34Z</time>
      </trkpt>
      <trkpt lat="42.672744" lon="-1.881963">
        <ele>446.2</ele>
        <time>2018-08-24T07:20:38Z</time>
      </trkpt>
      <trkpt lat="42.672887" lon="-1.882165">
        <ele>447.1</ele>
        <time>2018-08-24T07:20:55Z</time>
      </trkpt>
      <trkpt lat="42.673032" lon="-1.882348">
        <ele>447.1</ele>
        <time>2018-08-24T07:21:11Z</time>
      </trkpt>
      <trkpt lat="42.673153" lon="-1.882509">
        <ele>447.6</ele>
        <time>2018-08-24T07:21:25Z</time>
      </trkpt>
      <trkpt lat="42.673246" lon="-1.882621">
        <ele>448.6</ele>
        <time>2018-08-24T07:21:36Z</time>
      </trkpt>
      <trkpt lat="42.673301" lon="-1.882677">
        <ele>449.1</ele>
        <time>2018-08-24T07:21:42Z</time>
      </trkpt>
      <trkpt lat="42.673314" lon="-1.882701">
        <ele>449.5</ele>
        <time>2018-08-24T07:21:44Z</time>
      </trkpt>
      <trkpt lat="42.673388" lon="-1.882797">
        <ele>449.5</ele>
        <time>2018-08-24T07:21:52Z</time>
      </trkpt>
      <trkpt lat="42.673509" lon="-1.882919">
        <ele>450.0</ele>
        <time>2018-08-24T07:22:04Z</time>
      </trkpt>
      <trkpt lat="42.673586" lon="-1.882985">
        <ele>450.5</ele>
        <time>2018-08-24T07:22:11Z</time>
      </trkpt>
      <trkpt lat="42.673772" lon="-1.883146">
        <ele>450.5</ele>
        <time>2018-08-24T07:22:27Z</time>
      </trkpt>
      <trkpt lat="42.673916" lon="-1.883318">
        <ele>451.5</ele>
        <time>2018-08-24T07:22:42Z</time>
      </trkpt>
      <trkpt lat="42.673980" lon="-1.883424">
        <ele>452.0</ele>
        <time>2018-08-24T07:22:50Z</time>
      </trkpt>
      <trkpt lat="42.674004" lon="-1.883469">
        <ele>452.4</ele>
        <time>2018-08-24T07:22:53Z</time>
      </trkpt>
      <trkpt lat="42.674117" lon="-1.883648">
        <ele>452.9</ele>
        <time>2018-08-24T07:23:07Z</time>
      </trkpt>
      <trkpt lat="42.674202" lon="-1.883827">
        <ele>453.4</ele>
        <time>2018-08-24T07:23:20Z</time>
      </trkpt>
      <trkpt lat="42.674250" lon="-1.883966">
        <ele>454.4</ele>
        <time>2018-08-24T07:23:29Z</time>
      </trkpt>
      <trkpt lat="42.674282" lon="-1.884169">
        <ele>455.3</ele>
        <time>2018-08-24T07:23:41Z</time>
      </trkpt>
      <trkpt lat="42.674346" lon="-1.884355">
        <ele>456.8</ele>
        <time>2018-08-24T07:23:54Z</time>
      </trkpt>
      <trkpt lat="42.674407" lon="-1.884532">
        <ele>458.2</ele>
        <time>2018-08-24T07:24:07Z</time>
      </trkpt>
      <trkpt lat="42.674412" lon="-1.884558">
        <ele>458.2</ele>
        <time>2018-08-24T07:24:09Z</time>
      </trkpt>
      <trkpt lat="42.674451" lon="-1.884634">
        <ele>458.7</ele>
        <time>2018-08-24T07:24:15Z</time>
      </trkpt>
      <trkpt lat="42.674504" lon="-1.884752">
        <ele>460.1</ele>
        <time>2018-08-24T07:24:25Z</time>
      </trkpt>
      <trkpt lat="42.674558" lon="-1.884831">
        <ele>460.6</ele>
        <time>2018-08-24T07:24:32Z</time>
      </trkpt>
      <trkpt lat="42.674656" lon="-1.885004">
        <ele>462.5</ele>
        <time>2018-08-24T07:24:46Z</time>
      </trkpt>
      <trkpt lat="42.674668" lon="-1.885027">
        <ele>462.5</ele>
        <time>2018-08-24T07:24:48Z</time>
      </trkpt>
      <trkpt lat="42.674726" lon="-1.885157">
        <ele>464.0</ele>
        <time>2018-08-24T07:24:57Z</time>
      </trkpt>
      <trkpt lat="42.674798" lon="-1.885379">
        <ele>465.9</ele>
        <time>2018-08-24T07:25:13Z</time>
      </trkpt>
      <trkpt lat="42.674804" lon="-1.885417">
        <ele>465.9</ele>
        <time>2018-08-24T07:25:15Z</time>
      </trkpt>
      <trkpt lat="42.674855" lon="-1.885527">
        <ele>466.9</ele>
        <time>2018-08-24T07:25:24Z</time>
      </trkpt>
      <trkpt lat="42.674890" lon="-1.885744">
        <ele>465.9</ele>
        <time>2018-08-24T07:25:39Z</time>
      </trkpt>
      <trkpt lat="42.674964" lon="-1.885985">
        <ele>466.9</ele>
        <time>2018-08-24T07:25:55Z</time>
      </trkpt>
      <trkpt lat="42.675002" lon="-1.886169">
        <ele>467.3</ele>
        <time>2018-08-24T07:26:08Z</time>
      </trkpt>
      <trkpt lat="42.675004" lon="-1.886195">
        <ele>467.8</ele>
        <time>2018-08-24T07:26:10Z</time>
      </trkpt>
      <trkpt lat="42.675020" lon="-1.886264">
        <ele>467.8</ele>
        <time>2018-08-24T07:26:16Z</time>
      </trkpt>
      <trkpt lat="42.675024" lon="-1.886329">
        <ele>467.8</ele>
        <time>2018-08-24T07:26:30Z</time>
      </trkpt>
      <trkpt lat="42.675033" lon="-1.886380">
        <ele>468.8</ele>
        <time>2018-08-24T07:26:41Z</time>
      </trkpt>
      <trkpt lat="42.675051" lon="-1.886489">
        <ele>468.8</ele>
        <time>2018-08-24T07:26:47Z</time>
      </trkpt>
      <trkpt lat="42.675099" lon="-1.886865">
        <ele>469.7</ele>
        <time>2018-08-24T07:27:07Z</time>
      </trkpt>
      <trkpt lat="42.675175" lon="-1.887143">
        <ele>469.7</ele>
        <time>2018-08-24T07:27:47Z</time>
      </trkpt>
      <trkpt lat="42.675177" lon="-1.887174">
        <ele>469.3</ele>
        <time>2018-08-24T07:27:49Z</time>
      </trkpt>
      <trkpt lat="42.675212" lon="-1.887401">
        <ele>469.3</ele>
        <time>2018-08-24T07:28:04Z</time>
      </trkpt>
      <trkpt lat="42.675230" lon="-1.887460">
        <ele>469.3</ele>
        <time>2018-08-24T07:28:08Z</time>
      </trkpt>
      <trkpt lat="42.675242" lon="-1.887497">
        <ele>469.3</ele>
        <time>2018-08-24T07:28:10Z</time>
      </trkpt>
      <trkpt lat="42.675285" lon="-1.887724">
        <ele>469.3</ele>
        <time>2018-08-24T07:28:25Z</time>
      </trkpt>
      <trkpt lat="42.675288" lon="-1.887736">
        <ele>468.8</ele>
        <time>2018-08-24T07:28:26Z</time>
      </trkpt>
      <trkpt lat="42.675315" lon="-1.887796">
        <ele>468.3</ele>
        <time>2018-08-24T07:28:30Z</time>
      </trkpt>
      <trkpt lat="42.675415" lon="-1.888023">
        <ele>468.3</ele>
        <time>2018-08-24T07:28:46Z</time>
      </trkpt>
      <trkpt lat="42.675501" lon="-1.888265">
        <ele>468.3</ele>
        <time>2018-08-24T07:29:05Z</time>
      </trkpt>
      <trkpt lat="42.675509" lon="-1.888303">
        <ele>468.8</ele>
        <time>2018-08-24T07:29:27Z</time>
      </trkpt>
      <trkpt lat="42.675566" lon="-1.888540">
        <ele>467.8</ele>
        <time>2018-08-24T07:29:41Z</time>
      </trkpt>
      <trkpt lat="42.675566" lon="-1.888697">
        <ele>467.8</ele>
        <time>2018-08-24T07:29:50Z</time>
      </trkpt>
      <trkpt lat="42.675578" lon="-1.888761">
        <ele>467.8</ele>
        <time>2018-08-24T07:29:54Z</time>
      </trkpt>
      <trkpt lat="42.675618" lon="-1.889000">
        <ele>467.8</ele>
        <time>2018-08-24T07:30:09Z</time>
      </trkpt>
      <trkpt lat="42.675664" lon="-1.889110">
        <ele>468.3</ele>
        <time>2018-08-24T07:30:18Z</time>
      </trkpt>
      <trkpt lat="42.675681" lon="-1.889145">
        <ele>468.3</ele>
        <time>2018-08-24T07:30:21Z</time>
      </trkpt>
      <trkpt lat="42.675705" lon="-1.889292">
        <ele>468.8</ele>
        <time>2018-08-24T07:30:33Z</time>
      </trkpt>
      <trkpt lat="42.675720" lon="-1.889319">
        <ele>468.8</ele>
        <time>2018-08-24T07:30:35Z</time>
      </trkpt>
      <trkpt lat="42.675741" lon="-1.889333">
        <ele>468.8</ele>
        <time>2018-08-24T07:30:37Z</time>
      </trkpt>
      <trkpt lat="42.675834" lon="-1.889439">
        <ele>469.3</ele>
        <time>2018-08-24T07:30:51Z</time>
      </trkpt>
      <trkpt lat="42.675825" lon="-1.889574">
        <ele>471.2</ele>
        <time>2018-08-24T07:31:06Z</time>
      </trkpt>
      <trkpt lat="42.675844" lon="-1.889610">
        <ele>471.2</ele>
        <time>2018-08-24T07:31:23Z</time>
      </trkpt>
      <trkpt lat="42.675866" lon="-1.889644">
        <ele>470.7</ele>
        <time>2018-08-24T07:31:38Z</time>
      </trkpt>
      <trkpt lat="42.675873" lon="-1.889650">
        <ele>470.7</ele>
        <time>2018-08-24T07:31:39Z</time>
      </trkpt>
      <trkpt lat="42.675985" lon="-1.889741">
        <ele>470.7</ele>
        <time>2018-08-24T07:31:54Z</time>
      </trkpt>
      <trkpt lat="42.676005" lon="-1.889856">
        <ele>472.1</ele>
        <time>2018-08-24T07:32:08Z</time>
      </trkpt>
      <trkpt lat="42.676016" lon="-1.890037">
        <ele>474.5</ele>
        <time>2018-08-24T07:32:28Z</time>
      </trkpt>
      <trkpt lat="42.675967" lon="-1.890379">
        <ele>477.0</ele>
        <time>2018-08-24T07:32:49Z</time>
      </trkpt>
      <trkpt lat="42.675974" lon="-1.890430">
        <ele>477.9</ele>
        <time>2018-08-24T07:33:36Z</time>
      </trkpt>
      <trkpt lat="42.676043" lon="-1.890451">
        <ele>478.4</ele>
        <time>2018-08-24T07:33:50Z</time>
      </trkpt>
      <trkpt lat="42.676070" lon="-1.890519">
        <ele>479.8</ele>
        <time>2018-08-24T07:40:08Z</time>
      </trkpt>
      <trkpt lat="42.676026" lon="-1.890677">
        <ele>481.3</ele>
        <time>2018-08-24T07:40:29Z</time>
      </trkpt>
      <trkpt lat="42.675937" lon="-1.890836">
        <ele>483.2</ele>
        <time>2018-08-24T07:40:45Z</time>
      </trkpt>
      <trkpt lat="42.675895" lon="-1.890861">
        <ele>485.1</ele>
        <time>2018-08-24T07:40:59Z</time>
      </trkpt>
      <trkpt lat="42.675854" lon="-1.890968">
        <ele>486.1</ele>
        <time>2018-08-24T07:41:14Z</time>
      </trkpt>
      <trkpt lat="42.675793" lon="-1.891086">
        <ele>489.0</ele>
        <time>2018-08-24T07:41:28Z</time>
      </trkpt>
      <trkpt lat="42.675708" lon="-1.891162">
        <ele>490.9</ele>
        <time>2018-08-24T07:41:42Z</time>
      </trkpt>
      <trkpt lat="42.675632" lon="-1.891126">
        <ele>491.9</ele>
        <time>2018-08-24T07:41:54Z</time>
      </trkpt>
      <trkpt lat="42.675598" lon="-1.891183">
        <ele>492.3</ele>
        <time>2018-08-24T07:42:10Z</time>
      </trkpt>
      <trkpt lat="42.675531" lon="-1.891105">
        <ele>491.9</ele>
        <time>2018-08-24T07:42:17Z</time>
      </trkpt>
      <trkpt lat="42.675513" lon="-1.891184">
        <ele>491.9</ele>
        <time>2018-08-24T07:42:49Z</time>
      </trkpt>
      <trkpt lat="42.675468" lon="-1.891245">
        <ele>493.3</ele>
        <time>2018-08-24T07:43:09Z</time>
      </trkpt>
      <trkpt lat="42.675249" lon="-1.891446">
        <ele>489.9</ele>
        <time>2018-08-24T07:45:58Z</time>
      </trkpt>
      <trkpt lat="42.675137" lon="-1.891580">
        <ele>487.0</ele>
        <time>2018-08-24T07:46:12Z</time>
      </trkpt>
      <trkpt lat="42.675217" lon="-1.891855">
        <ele>484.6</ele>
        <time>2018-08-24T07:46:28Z</time>
      </trkpt>
      <trkpt lat="42.675240" lon="-1.891901">
        <ele>484.6</ele>
        <time>2018-08-24T07:46:32Z</time>
      </trkpt>
      <trkpt lat="42.675272" lon="-1.891983">
        <ele>483.7</ele>
        <time>2018-08-24T07:46:38Z</time>
      </trkpt>
      <trkpt lat="42.675331" lon="-1.892079">
        <ele>483.7</ele>
        <time>2018-08-24T07:46:46Z</time>
      </trkpt>
      <trkpt lat="42.675368" lon="-1.892305">
        <ele>482.7</ele>
        <time>2018-08-24T07:47:01Z</time>
      </trkpt>
      <trkpt lat="42.675358" lon="-1.892432">
        <ele>481.3</ele>
        <time>2018-08-24T07:47:08Z</time>
      </trkpt>
      <trkpt lat="42.675243" lon="-1.892617">
        <ele>478.9</ele>
        <time>2018-08-24T07:47:23Z</time>
      </trkpt>
      <trkpt lat="42.675215" lon="-1.892843">
        <ele>477.0</ele>
        <time>2018-08-24T07:47:37Z</time>
      </trkpt>
      <trkpt lat="42.675228" lon="-1.892924">
        <ele>475.5</ele>
        <time>2018-08-24T07:47:42Z</time>
      </trkpt>
      <trkpt lat="42.675240" lon="-1.893003">
        <ele>475.0</ele>
        <time>2018-08-24T07:47:47Z</time>
      </trkpt>
      <trkpt lat="42.675394" lon="-1.893256">
        <ele>472.6</ele>
        <time>2018-08-24T07:48:03Z</time>
      </trkpt>
      <trkpt lat="42.675500" lon="-1.893357">
        <ele>471.7</ele>
        <time>2018-08-24T07:48:18Z</time>
      </trkpt>
      <trkpt lat="42.675550" lon="-1.893409">
        <ele>470.2</ele>
        <time>2018-08-24T07:48:31Z</time>
      </trkpt>
      <trkpt lat="42.675588" lon="-1.893482">
        <ele>469.7</ele>
        <time>2018-08-24T07:48:37Z</time>
      </trkpt>
      <trkpt lat="42.675646" lon="-1.893567">
        <ele>468.3</ele>
        <time>2018-08-24T07:48:45Z</time>
      </trkpt>
      <trkpt lat="42.675679" lon="-1.893621">
        <ele>468.3</ele>
        <time>2018-08-24T07:48:50Z</time>
      </trkpt>
      <trkpt lat="42.675782" lon="-1.893779">
        <ele>466.9</ele>
        <time>2018-08-24T07:49:04Z</time>
      </trkpt>
      <trkpt lat="42.675892" lon="-1.893948">
        <ele>464.5</ele>
        <time>2018-08-24T07:49:18Z</time>
      </trkpt>
      <trkpt lat="42.676062" lon="-1.894118">
        <ele>461.6</ele>
        <time>2018-08-24T07:49:35Z</time>
      </trkpt>
      <trkpt lat="42.676107" lon="-1.894168">
        <ele>460.6</ele>
        <time>2018-08-24T07:49:40Z</time>
      </trkpt>
      <trkpt lat="42.676129" lon="-1.894180">
        <ele>460.1</ele>
        <time>2018-08-24T07:49:42Z</time>
      </trkpt>
      <trkpt lat="42.676244" lon="-1.894269">
        <ele>458.7</ele>
        <time>2018-08-24T07:49:53Z</time>
      </trkpt>
      <trkpt lat="42.676345" lon="-1.894336">
        <ele>456.3</ele>
        <time>2018-08-24T07:50:04Z</time>
      </trkpt>
      <trkpt lat="42.676359" lon="-1.894351">
        <ele>456.3</ele>
        <time>2018-08-24T07:50:06Z</time>
      </trkpt>
      <trkpt lat="42.676530" lon="-1.894478">
        <ele>453.9</ele>
        <time>2018-08-24T07:50:23Z</time>
      </trkpt>
      <trkpt lat="42.676606" lon="-1.894520">
        <ele>452.4</ele>
        <time>2018-08-24T07:50:30Z</time>
      </trkpt>
      <trkpt lat="42.676756" lon="-1.894623">
        <ele>450.5</ele>
        <time>2018-08-24T07:50:45Z</time>
      </trkpt>
      <trkpt lat="42.676863" lon="-1.894725">
        <ele>448.1</ele>
        <time>2018-08-24T07:50:59Z</time>
      </trkpt>
      <trkpt lat="42.676918" lon="-1.894747">
        <ele>447.1</ele>
        <time>2018-08-24T07:51:04Z</time>
      </trkpt>
      <trkpt lat="42.676949" lon="-1.894782">
        <ele>447.6</ele>
        <time>2018-08-24T07:51:08Z</time>
      </trkpt>
      <trkpt lat="42.677028" lon="-1.894848">
        <ele>445.7</ele>
        <time>2018-08-24T07:51:22Z</time>
      </trkpt>
      <trkpt lat="42.677074" lon="-1.894891">
        <ele>444.8</ele>
        <time>2018-08-24T07:51:37Z</time>
      </trkpt>
      <trkpt lat="42.677114" lon="-1.894903">
        <ele>442.3</ele>
        <time>2018-08-24T07:51:50Z</time>
      </trkpt>
      <trkpt lat="42.677207" lon="-1.894980">
        <ele>441.4</ele>
        <time>2018-08-24T07:52:04Z</time>
      </trkpt>
      <trkpt lat="42.677309" lon="-1.895075">
        <ele>441.4</ele>
        <time>2018-08-24T07:52:19Z</time>
      </trkpt>
      <trkpt lat="42.677333" lon="-1.895058">
        <ele>440.9</ele>
        <time>2018-08-24T07:52:36Z</time>
      </trkpt>
      <trkpt lat="42.677362" lon="-1.895083">
        <ele>441.4</ele>
        <time>2018-08-24T07:52:41Z</time>
      </trkpt>
      <trkpt lat="42.677442" lon="-1.895174">
        <ele>445.2</ele>
        <time>2018-08-24T07:52:50Z</time>
      </trkpt>
      <trkpt lat="42.677470" lon="-1.895211">
        <ele>446.7</ele>
        <time>2018-08-24T07:53:46Z</time>
      </trkpt>
      <trkpt lat="42.677496" lon="-1.895238">
        <ele>447.1</ele>
        <time>2018-08-24T07:53:56Z</time>
      </trkpt>
      <trkpt lat="42.677533" lon="-1.895246">
        <ele>447.6</ele>
        <time>2018-08-24T07:54:00Z</time>
      </trkpt>
      <trkpt lat="42.677554" lon="-1.895263">
        <ele>447.6</ele>
        <time>2018-08-24T07:54:02Z</time>
      </trkpt>
      <trkpt lat="42.677616" lon="-1.895397">
        <ele>449.5</ele>
        <time>2018-08-24T07:54:13Z</time>
      </trkpt>
      <trkpt lat="42.677638" lon="-1.895459">
        <ele>450.0</ele>
        <time>2018-08-24T07:54:18Z</time>
      </trkpt>
      <trkpt lat="42.677642" lon="-1.895613">
        <ele>452.0</ele>
        <time>2018-08-24T07:54:31Z</time>
      </trkpt>
      <trkpt lat="42.677611" lon="-1.895705">
        <ele>452.9</ele>
        <time>2018-08-24T07:54:42Z</time>
      </trkpt>
      <trkpt lat="42.677435" lon="-1.895674">
        <ele>453.4</ele>
        <time>2018-08-24T07:54:55Z</time>
      </trkpt>
      <trkpt lat="42.677297" lon="-1.895761">
        <ele>454.4</ele>
        <time>2018-08-24T07:55:08Z</time>
      </trkpt>
      <trkpt lat="42.677212" lon="-1.895885">
        <ele>455.3</ele>
        <time>2018-08-24T07:55:21Z</time>
      </trkpt>
      <trkpt lat="42.677151" lon="-1.896104">
        <ele>456.3</ele>
        <time>2018-08-24T07:55:35Z</time>
      </trkpt>
      <trkpt lat="42.677150" lon="-1.896163">
        <ele>456.8</ele>
        <time>2018-08-24T07:55:41Z</time>
      </trkpt>
      <trkpt lat="42.677171" lon="-1.896328">
        <ele>456.8</ele>
        <time>2018-08-24T07:55:50Z</time>
      </trkpt>
      <trkpt lat="42.677181" lon="-1.896381">
        <ele>457.7</ele>
        <time>2018-08-24T07:55:53Z</time>
      </trkpt>
      <trkpt lat="42.677255" lon="-1.896535">
        <ele>458.2</ele>
        <time>2018-08-24T07:56:04Z</time>
      </trkpt>
      <trkpt lat="42.677341" lon="-1.896605">
        <ele>459.2</ele>
        <time>2018-08-24T07:56:12Z</time>
      </trkpt>
      <trkpt lat="42.677388" lon="-1.896644">
        <ele>459.6</ele>
        <time>2018-08-24T07:56:16Z</time>
      </trkpt>
      <trkpt lat="42.677569" lon="-1.896720">
        <ele>459.2</ele>
        <time>2018-08-24T07:56:32Z</time>
      </trkpt>
      <trkpt lat="42.677753" lon="-1.896778">
        <ele>460.6</ele>
        <time>2018-08-24T07:56:48Z</time>
      </trkpt>
      <trkpt lat="42.677901" lon="-1.896857">
        <ele>461.1</ele>
        <time>2018-08-24T07:57:03Z</time>
      </trkpt>
      <trkpt lat="42.678061" lon="-1.896915">
        <ele>460.6</ele>
        <time>2018-08-24T07:57:18Z</time>
      </trkpt>
      <trkpt lat="42.678186" lon="-1.896937">
        <ele>460.1</ele>
        <time>2018-08-24T07:57:35Z</time>
      </trkpt>
      <trkpt lat="42.678165" lon="-1.896914">
        <ele>460.1</ele>
        <time>2018-08-24T07:57:42Z</time>
      </trkpt>
      <trkpt lat="42.678162" lon="-1.896944">
        <ele>460.1</ele>
        <time>2018-08-24T07:57:44Z</time>
      </trkpt>
      <trkpt lat="42.678153" lon="-1.897270">
        <ele>458.2</ele>
        <time>2018-08-24T07:58:01Z</time>
      </trkpt>
      <trkpt lat="42.678137" lon="-1.897390">
        <ele>458.7</ele>
        <time>2018-08-24T07:58:09Z</time>
      </trkpt>
      <trkpt lat="42.677995" lon="-1.897661">
        <ele>456.8</ele>
        <time>2018-08-24T07:58:28Z</time>
      </trkpt>
      <trkpt lat="42.677872" lon="-1.897899">
        <ele>453.9</ele>
        <time>2018-08-24T07:58:44Z</time>
      </trkpt>
      <trkpt lat="42.677814" lon="-1.898195">
        <ele>452.9</ele>
        <time>2018-08-24T07:59:02Z</time>
      </trkpt>
      <trkpt lat="42.677811" lon="-1.898210">
        <ele>452.4</ele>
        <time>2018-08-24T07:59:03Z</time>
      </trkpt>
      <trkpt lat="42.677785" lon="-1.898457">
        <ele>453.4</ele>
        <time>2018-08-24T07:59:19Z</time>
      </trkpt>
      <trkpt lat="42.677779" lon="-1.898680">
        <ele>453.4</ele>
        <time>2018-08-24T07:59:33Z</time>
      </trkpt>
      <trkpt lat="42.677777" lon="-1.898716">
        <ele>453.9</ele>
        <time>2018-08-24T07:59:35Z</time>
      </trkpt>
      <trkpt lat="42.677765" lon="-1.898807">
        <ele>453.9</ele>
        <time>2018-08-24T07:59:40Z</time>
      </trkpt>
      <trkpt lat="42.677742" lon="-1.899029">
        <ele>454.8</ele>
        <time>2018-08-24T07:59:52Z</time>
      </trkpt>
      <trkpt lat="42.677745" lon="-1.899111">
        <ele>454.4</ele>
        <time>2018-08-24T07:59:57Z</time>
      </trkpt>
      <trkpt lat="42.677743" lon="-1.899163">
        <ele>454.8</ele>
        <time>2018-08-24T08:00:00Z</time>
      </trkpt>
      <trkpt lat="42.677738" lon="-1.899193">
        <ele>455.3</ele>
        <time>2018-08-24T08:00:02Z</time>
      </trkpt>
      <trkpt lat="42.677742" lon="-1.899219">
        <ele>454.8</ele>
        <time>2018-08-24T08:00:04Z</time>
      </trkpt>
      <trkpt lat="42.677742" lon="-1.899242">
        <ele>455.3</ele>
        <time>2018-08-24T08:00:06Z</time>
      </trkpt>
      <trkpt lat="42.677748" lon="-1.899326">
        <ele>455.8</ele>
        <time>2018-08-24T08:00:12Z</time>
      </trkpt>
      <trkpt lat="42.677746" lon="-1.899356">
        <ele>456.3</ele>
        <time>2018-08-24T08:00:14Z</time>
      </trkpt>
      <trkpt lat="42.677752" lon="-1.899388">
        <ele>456.8</ele>
        <time>2018-08-24T08:00:16Z</time>
      </trkpt>
      <trkpt lat="42.677757" lon="-1.899501">
        <ele>457.7</ele>
        <time>2018-08-24T08:00:23Z</time>
      </trkpt>
      <trkpt lat="42.677770" lon="-1.899769">
        <ele>458.2</ele>
        <time>2018-08-24T08:00:39Z</time>
      </trkpt>
      <trkpt lat="42.677763" lon="-1.900067">
        <ele>458.2</ele>
        <time>2018-08-24T08:00:56Z</time>
      </trkpt>
      <trkpt lat="42.677779" lon="-1.900313">
        <ele>457.2</ele>
        <time>2018-08-24T08:01:12Z</time>
      </trkpt>
      <trkpt lat="42.677801" lon="-1.900564">
        <ele>456.3</ele>
        <time>2018-08-24T08:01:28Z</time>
      </trkpt>
      <trkpt lat="42.677836" lon="-1.900878">
        <ele>454.4</ele>
        <time>2018-08-24T08:01:46Z</time>
      </trkpt>
      <trkpt lat="42.677882" lon="-1.901114">
        <ele>453.9</ele>
        <time>2018-08-24T08:02:00Z</time>
      </trkpt>
      <trkpt lat="42.677948" lon="-1.901430">
        <ele>453.4</ele>
        <time>2018-08-24T08:02:19Z</time>
      </trkpt>
      <trkpt lat="42.677994" lon="-1.901681">
        <ele>452.4</ele>
        <time>2018-08-24T08:02:35Z</time>
      </trkpt>
      <trkpt lat="42.678022" lon="-1.901880">
        <ele>451.5</ele>
        <time>2018-08-24T08:02:48Z</time>
      </trkpt>
      <trkpt lat="42.678078" lon="-1.902162">
        <ele>450.5</ele>
        <time>2018-08-24T08:03:06Z</time>
      </trkpt>
      <trkpt lat="42.678110" lon="-1.902420">
        <ele>450.0</ele>
        <time>2018-08-24T08:03:22Z</time>
      </trkpt>
      <trkpt lat="42.678155" lon="-1.902665">
        <ele>448.1</ele>
        <time>2018-08-24T08:03:37Z</time>
      </trkpt>
      <trkpt lat="42.678188" lon="-1.902938">
        <ele>447.6</ele>
        <time>2018-08-24T08:03:53Z</time>
      </trkpt>
      <trkpt lat="42.678169" lon="-1.903192">
        <ele>445.2</ele>
        <time>2018-08-24T08:04:09Z</time>
      </trkpt>
      <trkpt lat="42.678158" lon="-1.903439">
        <ele>442.8</ele>
        <time>2018-08-24T08:04:24Z</time>
      </trkpt>
      <trkpt lat="42.678143" lon="-1.903551">
        <ele>442.3</ele>
        <time>2018-08-24T08:04:31Z</time>
      </trkpt>
      <trkpt lat="42.678152" lon="-1.903649">
        <ele>440.4</ele>
        <time>2018-08-24T08:04:37Z</time>
      </trkpt>
      <trkpt lat="42.678185" lon="-1.903910">
        <ele>438.5</ele>
        <time>2018-08-24T08:04:54Z</time>
      </trkpt>
      <trkpt lat="42.678225" lon="-1.904100">
        <ele>438.0</ele>
        <time>2018-08-24T08:05:06Z</time>
      </trkpt>
      <trkpt lat="42.678266" lon="-1.904301">
        <ele>437.1</ele>
        <time>2018-08-24T08:05:19Z</time>
      </trkpt>
      <trkpt lat="42.678324" lon="-1.904544">
        <ele>435.1</ele>
        <time>2018-08-24T08:05:35Z</time>
      </trkpt>
      <trkpt lat="42.678392" lon="-1.904742">
        <ele>435.1</ele>
        <time>2018-08-24T08:05:49Z</time>
      </trkpt>
      <trkpt lat="42.678400" lon="-1.904770">
        <ele>435.1</ele>
        <time>2018-08-24T08:05:51Z</time>
      </trkpt>
      <trkpt lat="42.678444" lon="-1.904861">
        <ele>435.1</ele>
        <time>2018-08-24T08:05:58Z</time>
      </trkpt>
      <trkpt lat="42.678519" lon="-1.904997">
        <ele>433.7</ele>
        <time>2018-08-24T08:06:08Z</time>
      </trkpt>
      <trkpt lat="42.678678" lon="-1.905211">
        <ele>431.3</ele>
        <time>2018-08-24T08:06:27Z</time>
      </trkpt>
      <trkpt lat="42.678684" lon="-1.905223">
        <ele>431.3</ele>
        <time>2018-08-24T08:06:28Z</time>
      </trkpt>
      <trkpt lat="42.678820" lon="-1.905453">
        <ele>429.4</ele>
        <time>2018-08-24T08:06:46Z</time>
      </trkpt>
      <trkpt lat="42.678918" lon="-1.905636">
        <ele>427.9</ele>
        <time>2018-08-24T08:07:01Z</time>
      </trkpt>
      <trkpt lat="42.679041" lon="-1.905822">
        <ele>427.0</ele>
        <time>2018-08-24T08:07:17Z</time>
      </trkpt>
      <trkpt lat="42.679090" lon="-1.905878">
        <ele>426.0</ele>
        <time>2018-08-24T08:07:22Z</time>
      </trkpt>
      <trkpt lat="42.679137" lon="-1.905972">
        <ele>425.5</ele>
        <time>2018-08-24T08:07:29Z</time>
      </trkpt>
      <trkpt lat="42.679205" lon="-1.906252">
        <ele>424.6</ele>
        <time>2018-08-24T08:07:48Z</time>
      </trkpt>
      <trkpt lat="42.679220" lon="-1.906384">
        <ele>424.1</ele>
        <time>2018-08-24T08:07:56Z</time>
      </trkpt>
      <trkpt lat="42.679222" lon="-1.906472">
        <ele>423.6</ele>
        <time>2018-08-24T08:08:02Z</time>
      </trkpt>
      <trkpt lat="42.679237" lon="-1.906660">
        <ele>422.6</ele>
        <time>2018-08-24T08:11:43Z</time>
      </trkpt>
      <trkpt lat="42.679222" lon="-1.906758">
        <ele>422.2</ele>
        <time>2018-08-24T08:11:56Z</time>
      </trkpt>
      <trkpt lat="42.679222" lon="-1.906795">
        <ele>421.7</ele>
        <time>2018-08-24T08:11:58Z</time>
      </trkpt>
      <trkpt lat="42.679210" lon="-1.906894">
        <ele>421.7</ele>
        <time>2018-08-24T08:12:05Z</time>
      </trkpt>
      <trkpt lat="42.679271" lon="-1.907367">
        <ele>422.6</ele>
        <time>2018-08-24T08:13:11Z</time>
      </trkpt>
      <trkpt lat="42.679274" lon="-1.907495">
        <ele>423.1</ele>
        <time>2018-08-24T08:13:25Z</time>
      </trkpt>
      <trkpt lat="42.679256" lon="-1.907592">
        <ele>423.6</ele>
        <time>2018-08-24T08:13:37Z</time>
      </trkpt>
      <trkpt lat="42.679247" lon="-1.907638">
        <ele>424.1</ele>
        <time>2018-08-24T08:13:41Z</time>
      </trkpt>
      <trkpt lat="42.679207" lon="-1.907786">
        <ele>426.0</ele>
        <time>2018-08-24T08:13:53Z</time>
      </trkpt>
      <trkpt lat="42.679200" lon="-1.907827">
        <ele>426.5</ele>
        <time>2018-08-24T08:13:56Z</time>
      </trkpt>
      <trkpt lat="42.679185" lon="-1.907867">
        <ele>427.4</ele>
        <time>2018-08-24T08:13:59Z</time>
      </trkpt>
      <trkpt lat="42.679166" lon="-1.907998">
        <ele>429.4</ele>
        <time>2018-08-24T08:14:11Z</time>
      </trkpt>
      <trkpt lat="42.679151" lon="-1.908040">
        <ele>429.9</ele>
        <time>2018-08-24T08:14:16Z</time>
      </trkpt>
      <trkpt lat="42.679139" lon="-1.908135">
        <ele>431.3</ele>
        <time>2018-08-24T08:14:24Z</time>
      </trkpt>
      <trkpt lat="42.679148" lon="-1.908190">
        <ele>431.8</ele>
        <time>2018-08-24T08:14:29Z</time>
      </trkpt>
      <trkpt lat="42.679132" lon="-1.908322">
        <ele>433.7</ele>
        <time>2018-08-24T08:14:40Z</time>
      </trkpt>
      <trkpt lat="42.679133" lon="-1.908367">
        <ele>434.2</ele>
        <time>2018-08-24T08:14:44Z</time>
      </trkpt>
      <trkpt lat="42.679132" lon="-1.908393">
        <ele>434.6</ele>
        <time>2018-08-24T08:14:46Z</time>
      </trkpt>
      <trkpt lat="42.679119" lon="-1.908469">
        <ele>435.6</ele>
        <time>2018-08-24T08:14:54Z</time>
      </trkpt>
      <trkpt lat="42.679104" lon="-1.908531">
        <ele>435.6</ele>
        <time>2018-08-24T08:14:59Z</time>
      </trkpt>
      <trkpt lat="42.679101" lon="-1.908557">
        <ele>436.1</ele>
        <time>2018-08-24T08:15:01Z</time>
      </trkpt>
      <trkpt lat="42.679094" lon="-1.908638">
        <ele>438.0</ele>
        <time>2018-08-24T08:15:13Z</time>
      </trkpt>
      <trkpt lat="42.679075" lon="-1.908711">
        <ele>438.0</ele>
        <time>2018-08-24T08:15:19Z</time>
      </trkpt>
      <trkpt lat="42.679077" lon="-1.908748">
        <ele>438.5</ele>
        <time>2018-08-24T08:15:22Z</time>
      </trkpt>
      <trkpt lat="42.679061" lon="-1.908861">
        <ele>439.5</ele>
        <time>2018-08-24T08:15:33Z</time>
      </trkpt>
      <trkpt lat="42.679061" lon="-1.908876">
        <ele>439.5</ele>
        <time>2018-08-24T08:15:34Z</time>
      </trkpt>
      <trkpt lat="42.679084" lon="-1.908938">
        <ele>439.5</ele>
        <time>2018-08-24T08:15:39Z</time>
      </trkpt>
      <trkpt lat="42.679081" lon="-1.908998">
        <ele>440.4</ele>
        <time>2018-08-24T08:15:43Z</time>
      </trkpt>
      <trkpt lat="42.679101" lon="-1.909067">
        <ele>440.4</ele>
        <time>2018-08-24T08:15:48Z</time>
      </trkpt>
      <trkpt lat="42.679110" lon="-1.909098">
        <ele>441.4</ele>
        <time>2018-08-24T08:15:50Z</time>
      </trkpt>
      <trkpt lat="42.679113" lon="-1.909142">
        <ele>441.4</ele>
        <time>2018-08-24T08:15:53Z</time>
      </trkpt>
      <trkpt lat="42.679113" lon="-1.909206">
        <ele>441.9</ele>
        <time>2018-08-24T08:15:57Z</time>
      </trkpt>
      <trkpt lat="42.679125" lon="-1.909381">
        <ele>442.3</ele>
        <time>2018-08-24T08:16:08Z</time>
      </trkpt>
      <trkpt lat="42.679127" lon="-1.909509">
        <ele>442.8</ele>
        <time>2018-08-24T08:16:17Z</time>
      </trkpt>
      <trkpt lat="42.679140" lon="-1.909613">
        <ele>442.3</ele>
        <time>2018-08-24T08:16:33Z</time>
      </trkpt>
      <trkpt lat="42.679131" lon="-1.909618">
        <ele>442.3</ele>
        <time>2018-08-24T08:16:48Z</time>
      </trkpt>
      <trkpt lat="42.679142" lon="-1.909605">
        <ele>442.8</ele>
        <time>2018-08-24T08:17:01Z</time>
      </trkpt>
      <trkpt lat="42.679138" lon="-1.909587">
        <ele>442.8</ele>
        <time>2018-08-24T08:17:12Z</time>
      </trkpt>
      <trkpt lat="42.679124" lon="-1.909604">
        <ele>442.8</ele>
        <time>2018-08-24T08:17:23Z</time>
      </trkpt>
      <trkpt lat="42.679159" lon="-1.909707">
        <ele>442.3</ele>
        <time>2018-08-24T08:17:36Z</time>
      </trkpt>
      <trkpt lat="42.679165" lon="-1.909778">
        <ele>442.8</ele>
        <time>2018-08-24T08:17:41Z</time>
      </trkpt>
      <trkpt lat="42.679183" lon="-1.909913">
        <ele>442.8</ele>
        <time>2018-08-24T08:17:53Z</time>
      </trkpt>
      <trkpt lat="42.679208" lon="-1.910008">
        <ele>443.3</ele>
        <time>2018-08-24T08:18:06Z</time>
      </trkpt>
      <trkpt lat="42.679244" lon="-1.910148">
        <ele>443.8</ele>
        <time>2018-08-24T08:18:16Z</time>
      </trkpt>
      <trkpt lat="42.679278" lon="-1.910404">
        <ele>443.8</ele>
        <time>2018-08-24T08:18:36Z</time>
      </trkpt>
      <trkpt lat="42.679292" lon="-1.910477">
        <ele>445.2</ele>
        <time>2018-08-24T08:18:44Z</time>
      </trkpt>
      <trkpt lat="42.679353" lon="-1.910484">
        <ele>444.8</ele>
        <time>2018-08-24T08:18:51Z</time>
      </trkpt>
      <trkpt lat="42.679405" lon="-1.910410">
        <ele>444.3</ele>
        <time>2018-08-24T08:19:47Z</time>
      </trkpt>
      <trkpt lat="42.679415" lon="-1.910417">
        <ele>444.8</ele>
        <time>2018-08-24T08:20:20Z</time>
      </trkpt>
      <trkpt lat="42.679439" lon="-1.910430">
        <ele>444.3</ele>
        <time>2018-08-24T08:24:03Z</time>
      </trkpt>
      <trkpt lat="42.679422" lon="-1.910465">
        <ele>446.2</ele>
        <time>2018-08-24T08:33:03Z</time>
      </trkpt>
      <trkpt lat="42.679402" lon="-1.910478">
        <ele>445.7</ele>
        <time>2018-08-24T08:33:17Z</time>
      </trkpt>
      <trkpt lat="42.679377" lon="-1.910488">
        <ele>445.7</ele>
        <time>2018-08-24T08:33:48Z</time>
      </trkpt>
      <trkpt lat="42.679362" lon="-1.910488">
        <ele>446.2</ele>
        <time>2018-08-24T08:33:55Z</time>
      </trkpt>
      <trkpt lat="42.679301" lon="-1.910503">
        <ele>444.3</ele>
        <time>2018-08-24T08:34:43Z</time>
      </trkpt>
      <trkpt lat="42.679287" lon="-1.910581">
        <ele>444.8</ele>
        <time>2018-08-24T08:34:49Z</time>
      </trkpt>
      <trkpt lat="42.679289" lon="-1.910742">
        <ele>444.8</ele>
        <time>2018-08-24T08:35:01Z</time>
      </trkpt>
      <trkpt lat="42.679282" lon="-1.910776">
        <ele>445.2</ele>
        <time>2018-08-24T08:35:29Z</time>
      </trkpt>
      <trkpt lat="42.679291" lon="-1.910928">
        <ele>445.2</ele>
        <time>2018-08-24T08:35:43Z</time>
      </trkpt>
      <trkpt lat="42.679303" lon="-1.911145">
        <ele>443.8</ele>
        <time>2018-08-24T08:36:00Z</time>
      </trkpt>
      <trkpt lat="42.679246" lon="-1.911358">
        <ele>445.7</ele>
        <time>2018-08-24T08:36:17Z</time>
      </trkpt>
      <trkpt lat="42.679226" lon="-1.911498">
        <ele>446.7</ele>
        <time>2018-08-24T08:36:27Z</time>
      </trkpt>
      <trkpt lat="42.679217" lon="-1.911610">
        <ele>446.2</ele>
        <time>2018-08-24T08:36:43Z</time>
      </trkpt>
      <trkpt lat="42.679212" lon="-1.911761">
        <ele>447.1</ele>
        <time>2018-08-24T08:36:56Z</time>
      </trkpt>
      <trkpt lat="42.679217" lon="-1.911886">
        <ele>447.1</ele>
        <time>2018-08-24T08:37:06Z</time>
      </trkpt>
      <trkpt lat="42.679198" lon="-1.912074">
        <ele>446.7</ele>
        <time>2018-08-24T08:37:22Z</time>
      </trkpt>
      <trkpt lat="42.679185" lon="-1.912265">
        <ele>447.1</ele>
        <time>2018-08-24T08:37:36Z</time>
      </trkpt>
      <trkpt lat="42.679165" lon="-1.912330">
        <ele>447.1</ele>
        <time>2018-08-24T08:37:50Z</time>
      </trkpt>
      <trkpt lat="42.679163" lon="-1.912498">
        <ele>445.2</ele>
        <time>2018-08-24T08:38:05Z</time>
      </trkpt>
      <trkpt lat="42.679190" lon="-1.912691">
        <ele>443.8</ele>
        <time>2018-08-24T08:38:21Z</time>
      </trkpt>
      <trkpt lat="42.679212" lon="-1.912720">
        <ele>443.3</ele>
        <time>2018-08-24T08:38:24Z</time>
      </trkpt>
      <trkpt lat="42.679244" lon="-1.912766">
        <ele>443.3</ele>
        <time>2018-08-24T08:38:29Z</time>
      </trkpt>
      <trkpt lat="42.679316" lon="-1.912874">
        <ele>442.3</ele>
        <time>2018-08-24T08:38:43Z</time>
      </trkpt>
      <trkpt lat="42.679417" lon="-1.913045">
        <ele>439.5</ele>
        <time>2018-08-24T08:39:00Z</time>
      </trkpt>
      <trkpt lat="42.679458" lon="-1.913137">
        <ele>439.0</ele>
        <time>2018-08-24T08:39:07Z</time>
      </trkpt>
      <trkpt lat="42.679476" lon="-1.913359">
        <ele>438.0</ele>
        <time>2018-08-24T08:39:24Z</time>
      </trkpt>
      <trkpt lat="42.679515" lon="-1.913496">
        <ele>436.6</ele>
        <time>2018-08-24T08:39:37Z</time>
      </trkpt>
      <trkpt lat="42.679529" lon="-1.913593">
        <ele>436.1</ele>
        <time>2018-08-24T08:39:49Z</time>
      </trkpt>
      <trkpt lat="42.679572" lon="-1.913774">
        <ele>435.6</ele>
        <time>2018-08-24T08:40:03Z</time>
      </trkpt>
      <trkpt lat="42.679596" lon="-1.913909">
        <ele>435.6</ele>
        <time>2018-08-24T08:40:18Z</time>
      </trkpt>
      <trkpt lat="42.679602" lon="-1.913938">
        <ele>435.6</ele>
        <time>2018-08-24T08:40:31Z</time>
      </trkpt>
      <trkpt lat="42.679657" lon="-1.914257">
        <ele>434.6</ele>
        <time>2018-08-24T08:40:48Z</time>
      </trkpt>
      <trkpt lat="42.679664" lon="-1.914487">
        <ele>435.1</ele>
        <time>2018-08-24T08:41:01Z</time>
      </trkpt>
      <trkpt lat="42.679668" lon="-1.914662">
        <ele>434.2</ele>
        <time>2018-08-24T08:41:17Z</time>
      </trkpt>
      <trkpt lat="42.679670" lon="-1.914684">
        <ele>434.2</ele>
        <time>2018-08-24T08:41:21Z</time>
      </trkpt>
      <trkpt lat="42.679666" lon="-1.914713">
        <ele>434.2</ele>
        <time>2018-08-24T08:41:24Z</time>
      </trkpt>
      <trkpt lat="42.679635" lon="-1.914983">
        <ele>432.2</ele>
        <time>2018-08-24T08:41:43Z</time>
      </trkpt>
      <trkpt lat="42.679629" lon="-1.915189">
        <ele>429.9</ele>
        <time>2018-08-24T08:41:59Z</time>
      </trkpt>
      <trkpt lat="42.679598" lon="-1.915415">
        <ele>427.9</ele>
        <time>2018-08-24T08:42:16Z</time>
      </trkpt>
      <trkpt lat="42.679575" lon="-1.915656">
        <ele>427.9</ele>
        <time>2018-08-24T08:42:31Z</time>
      </trkpt>
      <trkpt lat="42.679535" lon="-1.915886">
        <ele>427.4</ele>
        <time>2018-08-24T08:42:46Z</time>
      </trkpt>
      <trkpt lat="42.679535" lon="-1.915957">
        <ele>427.4</ele>
        <time>2018-08-24T08:42:55Z</time>
      </trkpt>
      <trkpt lat="42.679502" lon="-1.916119">
        <ele>427.4</ele>
        <time>2018-08-24T08:43:05Z</time>
      </trkpt>
      <trkpt lat="42.679492" lon="-1.916148">
        <ele>427.9</ele>
        <time>2018-08-24T08:43:07Z</time>
      </trkpt>
      <trkpt lat="42.679418" lon="-1.916326">
        <ele>427.4</ele>
        <time>2018-08-24T08:43:21Z</time>
      </trkpt>
      <trkpt lat="42.679395" lon="-1.916380">
        <ele>427.9</ele>
        <time>2018-08-24T08:43:25Z</time>
      </trkpt>
      <trkpt lat="42.679362" lon="-1.916428">
        <ele>429.4</ele>
        <time>2018-08-24T08:43:29Z</time>
      </trkpt>
      <trkpt lat="42.679246" lon="-1.916559">
        <ele>430.3</ele>
        <time>2018-08-24T08:43:42Z</time>
      </trkpt>
      <trkpt lat="42.679208" lon="-1.916618">
        <ele>430.8</ele>
        <time>2018-08-24T08:43:48Z</time>
      </trkpt>
      <trkpt lat="42.679160" lon="-1.916683">
        <ele>431.8</ele>
        <time>2018-08-24T08:43:56Z</time>
      </trkpt>
      <trkpt lat="42.679141" lon="-1.916714">
        <ele>432.2</ele>
        <time>2018-08-24T08:43:59Z</time>
      </trkpt>
      <trkpt lat="42.679094" lon="-1.916828">
        <ele>433.7</ele>
        <time>2018-08-24T08:44:10Z</time>
      </trkpt>
      <trkpt lat="42.679082" lon="-1.916962">
        <ele>435.1</ele>
        <time>2018-08-24T08:44:22Z</time>
      </trkpt>
      <trkpt lat="42.679081" lon="-1.917003">
        <ele>435.1</ele>
        <time>2018-08-24T08:44:27Z</time>
      </trkpt>
      <trkpt lat="42.679085" lon="-1.917033">
        <ele>435.1</ele>
        <time>2018-08-24T08:44:29Z</time>
      </trkpt>
      <trkpt lat="42.679085" lon="-1.917215">
        <ele>436.6</ele>
        <time>2018-08-24T08:44:42Z</time>
      </trkpt>
      <trkpt lat="42.679093" lon="-1.917296">
        <ele>436.6</ele>
        <time>2018-08-24T08:44:47Z</time>
      </trkpt>
      <trkpt lat="42.679093" lon="-1.917586">
        <ele>436.1</ele>
        <time>2018-08-24T08:45:05Z</time>
      </trkpt>
      <trkpt lat="42.679088" lon="-1.917632">
        <ele>436.6</ele>
        <time>2018-08-24T08:45:08Z</time>
      </trkpt>
      <trkpt lat="42.679140" lon="-1.917894">
        <ele>436.1</ele>
        <time>2018-08-24T08:45:25Z</time>
      </trkpt>
      <trkpt lat="42.679144" lon="-1.917909">
        <ele>436.6</ele>
        <time>2018-08-24T08:45:26Z</time>
      </trkpt>
      <trkpt lat="42.679164" lon="-1.917980">
        <ele>436.1</ele>
        <time>2018-08-24T08:45:31Z</time>
      </trkpt>
      <trkpt lat="42.679197" lon="-1.918183">
        <ele>435.6</ele>
        <time>2018-08-24T08:45:46Z</time>
      </trkpt>
      <trkpt lat="42.679242" lon="-1.918383">
        <ele>434.2</ele>
        <time>2018-08-24T08:46:02Z</time>
      </trkpt>
      <trkpt lat="42.679244" lon="-1.918523">
        <ele>433.2</ele>
        <time>2018-08-24T08:46:13Z</time>
      </trkpt>
      <trkpt lat="42.679220" lon="-1.918670">
        <ele>432.2</ele>
        <time>2018-08-24T08:46:24Z</time>
      </trkpt>
      <trkpt lat="42.679211" lon="-1.918724">
        <ele>431.8</ele>
        <time>2018-08-24T08:46:28Z</time>
      </trkpt>
      <trkpt lat="42.679160" lon="-1.918837">
        <ele>431.3</ele>
        <time>2018-08-24T08:46:37Z</time>
      </trkpt>
      <trkpt lat="42.679106" lon="-1.918999">
        <ele>429.4</ele>
        <time>2018-08-24T08:46:51Z</time>
      </trkpt>
      <trkpt lat="42.679102" lon="-1.919093">
        <ele>428.4</ele>
        <time>2018-08-24T08:46:58Z</time>
      </trkpt>
      <trkpt lat="42.679126" lon="-1.919252">
        <ele>427.4</ele>
        <time>2018-08-24T08:47:13Z</time>
      </trkpt>
      <trkpt lat="42.679127" lon="-1.919278">
        <ele>426.5</ele>
        <time>2018-08-24T08:47:16Z</time>
      </trkpt>
      <trkpt lat="42.679205" lon="-1.919381">
        <ele>424.6</ele>
        <time>2018-08-24T08:47:33Z</time>
      </trkpt>
      <trkpt lat="42.679259" lon="-1.919422">
        <ele>423.1</ele>
        <time>2018-08-24T08:47:47Z</time>
      </trkpt>
      <trkpt lat="42.679337" lon="-1.919441">
        <ele>421.2</ele>
        <time>2018-08-24T08:48:01Z</time>
      </trkpt>
      <trkpt lat="42.679381" lon="-1.919512">
        <ele>418.8</ele>
        <time>2018-08-24T08:48:18Z</time>
      </trkpt>
      <trkpt lat="42.679369" lon="-1.919647">
        <ele>416.4</ele>
        <time>2018-08-24T08:48:34Z</time>
      </trkpt>
      <trkpt lat="42.679365" lon="-1.919771">
        <ele>414.5</ele>
        <time>2018-08-24T08:48:49Z</time>
      </trkpt>
      <trkpt lat="42.679328" lon="-1.919882">
        <ele>412.1</ele>
        <time>2018-08-24T08:49:06Z</time>
      </trkpt>
      <trkpt lat="42.679337" lon="-1.920020">
        <ele>410.1</ele>
        <time>2018-08-24T08:49:22Z</time>
      </trkpt>
      <trkpt lat="42.679319" lon="-1.920132">
        <ele>409.7</ele>
        <time>2018-08-24T08:49:35Z</time>
      </trkpt>
      <trkpt lat="42.679311" lon="-1.920255">
        <ele>408.7</ele>
        <time>2018-08-24T08:49:47Z</time>
      </trkpt>
      <trkpt lat="42.679306" lon="-1.920335">
        <ele>407.7</ele>
        <time>2018-08-24T08:49:56Z</time>
      </trkpt>
      <trkpt lat="42.679285" lon="-1.920538">
        <ele>406.8</ele>
        <time>2018-08-24T08:50:11Z</time>
      </trkpt>
      <trkpt lat="42.679254" lon="-1.920717">
        <ele>406.3</ele>
        <time>2018-08-24T08:50:23Z</time>
      </trkpt>
      <trkpt lat="42.679323" lon="-1.920799">
        <ele>407.3</ele>
        <time>2018-08-24T08:50:35Z</time>
      </trkpt>
      <trkpt lat="42.679304" lon="-1.920856">
        <ele>406.8</ele>
        <time>2018-08-24T08:50:39Z</time>
      </trkpt>
      <trkpt lat="42.679282" lon="-1.920918">
        <ele>406.8</ele>
        <time>2018-08-24T08:50:43Z</time>
      </trkpt>
      <trkpt lat="42.679310" lon="-1.921026">
        <ele>406.3</ele>
        <time>2018-08-24T08:50:50Z</time>
      </trkpt>
      <trkpt lat="42.679304" lon="-1.921245">
        <ele>405.8</ele>
        <time>2018-08-24T08:51:03Z</time>
      </trkpt>
      <trkpt lat="42.679305" lon="-1.921471">
        <ele>404.9</ele>
        <time>2018-08-24T08:51:17Z</time>
      </trkpt>
      <trkpt lat="42.679309" lon="-1.921750">
        <ele>404.4</ele>
        <time>2018-08-24T08:51:34Z</time>
      </trkpt>
      <trkpt lat="42.679328" lon="-1.921924">
        <ele>404.4</ele>
        <time>2018-08-24T08:51:45Z</time>
      </trkpt>
      <trkpt lat="42.679405" lon="-1.922249">
        <ele>402.9</ele>
        <time>2018-08-24T08:52:06Z</time>
      </trkpt>
      <trkpt lat="42.679464" lon="-1.922511">
        <ele>402.0</ele>
        <time>2018-08-24T08:52:22Z</time>
      </trkpt>
      <trkpt lat="42.679491" lon="-1.922599">
        <ele>401.5</ele>
        <time>2018-08-24T08:52:28Z</time>
      </trkpt>
      <trkpt lat="42.679515" lon="-1.922674">
        <ele>401.5</ele>
        <time>2018-08-24T08:52:33Z</time>
      </trkpt>
      <trkpt lat="42.679543" lon="-1.922860">
        <ele>400.0</ele>
        <time>2018-08-24T08:52:45Z</time>
      </trkpt>
      <trkpt lat="42.679568" lon="-1.923132">
        <ele>399.6</ele>
        <time>2018-08-24T08:53:01Z</time>
      </trkpt>
      <trkpt lat="42.679591" lon="-1.923294">
        <ele>398.1</ele>
        <time>2018-08-24T08:53:11Z</time>
      </trkpt>
      <trkpt lat="42.679659" lon="-1.923557">
        <ele>397.6</ele>
        <time>2018-08-24T08:53:28Z</time>
      </trkpt>
      <trkpt lat="42.679662" lon="-1.923570">
        <ele>397.6</ele>
        <time>2018-08-24T08:53:29Z</time>
      </trkpt>
      <trkpt lat="42.679675" lon="-1.923634">
        <ele>397.6</ele>
        <time>2018-08-24T08:53:33Z</time>
      </trkpt>
      <trkpt lat="42.679719" lon="-1.923885">
        <ele>394.8</ele>
        <time>2018-08-24T08:53:51Z</time>
      </trkpt>
      <trkpt lat="42.679751" lon="-1.924116">
        <ele>393.3</ele>
        <time>2018-08-24T08:54:06Z</time>
      </trkpt>
      <trkpt lat="42.679769" lon="-1.924197">
        <ele>392.4</ele>
        <time>2018-08-24T08:54:20Z</time>
      </trkpt>
      <trkpt lat="42.679831" lon="-1.924491">
        <ele>390.9</ele>
        <time>2018-08-24T08:54:35Z</time>
      </trkpt>
      <trkpt lat="42.679919" lon="-1.924783">
        <ele>390.4</ele>
        <time>2018-08-24T08:54:52Z</time>
      </trkpt>
      <trkpt lat="42.679970" lon="-1.925064">
        <ele>389.5</ele>
        <time>2018-08-24T08:55:07Z</time>
      </trkpt>
      <trkpt lat="42.680023" lon="-1.925294">
        <ele>389.0</ele>
        <time>2018-08-24T08:55:21Z</time>
      </trkpt>
      <trkpt lat="42.680058" lon="-1.925481">
        <ele>388.0</ele>
        <time>2018-08-24T08:55:33Z</time>
      </trkpt>
      <trkpt lat="42.680130" lon="-1.925775">
        <ele>387.1</ele>
        <time>2018-08-24T08:55:50Z</time>
      </trkpt>
      <trkpt lat="42.680195" lon="-1.926041">
        <ele>386.6</ele>
        <time>2018-08-24T08:56:06Z</time>
      </trkpt>
      <trkpt lat="42.680262" lon="-1.926325">
        <ele>387.1</ele>
        <time>2018-08-24T08:56:23Z</time>
      </trkpt>
      <trkpt lat="42.680292" lon="-1.926409">
        <ele>386.6</ele>
        <time>2018-08-24T08:56:30Z</time>
      </trkpt>
      <trkpt lat="42.680303" lon="-1.926443">
        <ele>387.1</ele>
        <time>2018-08-24T08:56:33Z</time>
      </trkpt>
      <trkpt lat="42.680289" lon="-1.926535">
        <ele>387.1</ele>
        <time>2018-08-24T08:56:47Z</time>
      </trkpt>
      <trkpt lat="42.680279" lon="-1.926531">
        <ele>386.6</ele>
        <time>2018-08-24T08:56:52Z</time>
      </trkpt>
      <trkpt lat="42.680282" lon="-1.926553">
        <ele>386.6</ele>
        <time>2018-08-24T08:56:56Z</time>
      </trkpt>
      <trkpt lat="42.680225" lon="-1.926572">
        <ele>386.1</ele>
        <time>2018-08-24T08:57:01Z</time>
      </trkpt>
      <trkpt lat="42.680043" lon="-1.926856">
        <ele>385.1</ele>
        <time>2018-08-24T08:57:20Z</time>
      </trkpt>
      <trkpt lat="42.679918" lon="-1.927145">
        <ele>386.1</ele>
        <time>2018-08-24T08:57:37Z</time>
      </trkpt>
      <trkpt lat="42.679920" lon="-1.927485">
        <ele>384.7</ele>
        <time>2018-08-24T08:57:54Z</time>
      </trkpt>
      <trkpt lat="42.679953" lon="-1.927866">
        <ele>384.2</ele>
        <time>2018-08-24T08:58:15Z</time>
      </trkpt>
      <trkpt lat="42.679976" lon="-1.928136">
        <ele>384.2</ele>
        <time>2018-08-24T08:58:30Z</time>
      </trkpt>
      <trkpt lat="42.679968" lon="-1.928248">
        <ele>383.7</ele>
        <time>2018-08-24T08:58:36Z</time>
      </trkpt>
      <trkpt lat="42.679939" lon="-1.928365">
        <ele>384.2</ele>
        <time>2018-08-24T08:58:43Z</time>
      </trkpt>
      <trkpt lat="42.679816" lon="-1.928512">
        <ele>383.7</ele>
        <time>2018-08-24T08:58:58Z</time>
      </trkpt>
      <trkpt lat="42.679696" lon="-1.928567">
        <ele>384.2</ele>
        <time>2018-08-24T08:59:09Z</time>
      </trkpt>
      <trkpt lat="42.679442" lon="-1.928565">
        <ele>384.2</ele>
        <time>2018-08-24T08:59:24Z</time>
      </trkpt>
      <trkpt lat="42.679408" lon="-1.928571">
        <ele>384.2</ele>
        <time>2018-08-24T08:59:27Z</time>
      </trkpt>
      <trkpt lat="42.679285" lon="-1.928791">
        <ele>384.7</ele>
        <time>2018-08-24T08:59:44Z</time>
      </trkpt>
      <trkpt lat="42.679256" lon="-1.928835">
        <ele>385.1</ele>
        <time>2018-08-24T08:59:47Z</time>
      </trkpt>
      <trkpt lat="42.679178" lon="-1.929053">
        <ele>384.7</ele>
        <time>2018-08-24T09:00:00Z</time>
      </trkpt>
      <trkpt lat="42.679105" lon="-1.929294">
        <ele>386.1</ele>
        <time>2018-08-24T09:00:15Z</time>
      </trkpt>
      <trkpt lat="42.679097" lon="-1.929334">
        <ele>385.6</ele>
        <time>2018-08-24T09:00:18Z</time>
      </trkpt>
      <trkpt lat="42.679059" lon="-1.929541">
        <ele>386.6</ele>
        <time>2018-08-24T09:00:31Z</time>
      </trkpt>
      <trkpt lat="42.679002" lon="-1.929783">
        <ele>386.6</ele>
        <time>2018-08-24T09:00:45Z</time>
      </trkpt>
      <trkpt lat="42.678943" lon="-1.930062">
        <ele>387.1</ele>
        <time>2018-08-24T09:01:02Z</time>
      </trkpt>
      <trkpt lat="42.678915" lon="-1.930388">
        <ele>387.1</ele>
        <time>2018-08-24T09:01:19Z</time>
      </trkpt>
      <trkpt lat="42.678876" lon="-1.930745">
        <ele>387.1</ele>
        <time>2018-08-24T09:01:39Z</time>
      </trkpt>
      <trkpt lat="42.678980" lon="-1.930984">
        <ele>387.5</ele>
        <time>2018-08-24T09:01:56Z</time>
      </trkpt>
      <trkpt lat="42.679007" lon="-1.931244">
        <ele>389.5</ele>
        <time>2018-08-24T09:02:17Z</time>
      </trkpt>
      <trkpt lat="42.679131" lon="-1.931447">
        <ele>389.5</ele>
        <time>2018-08-24T09:02:32Z</time>
      </trkpt>
      <trkpt lat="42.679146" lon="-1.931471">
        <ele>389.0</ele>
        <time>2018-08-24T09:02:34Z</time>
      </trkpt>
      <trkpt lat="42.679181" lon="-1.931531">
        <ele>389.5</ele>
        <time>2018-08-24T09:02:38Z</time>
      </trkpt>
      <trkpt lat="42.679196" lon="-1.931561">
        <ele>389.5</ele>
        <time>2018-08-24T09:02:41Z</time>
      </trkpt>
      <trkpt lat="42.679223" lon="-1.931586">
        <ele>389.5</ele>
        <time>2018-08-24T09:02:44Z</time>
      </trkpt>
      <trkpt lat="42.679286" lon="-1.931725">
        <ele>390.0</ele>
        <time>2018-08-24T09:02:55Z</time>
      </trkpt>
      <trkpt lat="42.679370" lon="-1.931838">
        <ele>388.5</ele>
        <time>2018-08-24T09:03:04Z</time>
      </trkpt>
      <trkpt lat="42.679510" lon="-1.931986">
        <ele>388.5</ele>
        <time>2018-08-24T09:03:19Z</time>
      </trkpt>
      <trkpt lat="42.679656" lon="-1.932120">
        <ele>389.0</ele>
        <time>2018-08-24T09:03:35Z</time>
      </trkpt>
      <trkpt lat="42.679806" lon="-1.932233">
        <ele>388.5</ele>
        <time>2018-08-24T09:03:48Z</time>
      </trkpt>
      <trkpt lat="42.679995" lon="-1.932375">
        <ele>387.5</ele>
        <time>2018-08-24T09:04:03Z</time>
      </trkpt>
      <trkpt lat="42.680056" lon="-1.932427">
        <ele>387.1</ele>
        <time>2018-08-24T09:04:08Z</time>
      </trkpt>
      <trkpt lat="42.680136" lon="-1.932497">
        <ele>387.5</ele>
        <time>2018-08-24T09:04:15Z</time>
      </trkpt>
      <trkpt lat="42.680283" lon="-1.932665">
        <ele>387.5</ele>
        <time>2018-08-24T09:04:29Z</time>
      </trkpt>
      <trkpt lat="42.680391" lon="-1.932805">
        <ele>387.1</ele>
        <time>2018-08-24T09:04:41Z</time>
      </trkpt>
      <trkpt lat="42.680485" lon="-1.932949">
        <ele>387.5</ele>
        <time>2018-08-24T09:04:52Z</time>
      </trkpt>
      <trkpt lat="42.680542" lon="-1.933037">
        <ele>388.0</ele>
        <time>2018-08-24T09:04:59Z</time>
      </trkpt>
      <trkpt lat="42.680584" lon="-1.933159">
        <ele>387.5</ele>
        <time>2018-08-24T09:05:07Z</time>
      </trkpt>
      <trkpt lat="42.680570" lon="-1.933215">
        <ele>387.1</ele>
        <time>2018-08-24T09:05:18Z</time>
      </trkpt>
      <trkpt lat="42.680577" lon="-1.933241">
        <ele>387.1</ele>
        <time>2018-08-24T09:05:20Z</time>
      </trkpt>
      <trkpt lat="42.680641" lon="-1.933529">
        <ele>388.0</ele>
        <time>2018-08-24T09:05:38Z</time>
      </trkpt>
      <trkpt lat="42.680679" lon="-1.933775">
        <ele>387.5</ele>
        <time>2018-08-24T09:05:54Z</time>
      </trkpt>
      <trkpt lat="42.680680" lon="-1.933807">
        <ele>387.1</ele>
        <time>2018-08-24T09:05:56Z</time>
      </trkpt>
      <trkpt lat="42.680687" lon="-1.934103">
        <ele>388.0</ele>
        <time>2018-08-24T09:06:12Z</time>
      </trkpt>
      <trkpt lat="42.680707" lon="-1.934378">
        <ele>387.5</ele>
        <time>2018-08-24T09:06:27Z</time>
      </trkpt>
      <trkpt lat="42.680751" lon="-1.934618">
        <ele>387.5</ele>
        <time>2018-08-24T09:06:41Z</time>
      </trkpt>
      <trkpt lat="42.680815" lon="-1.934841">
        <ele>387.5</ele>
        <time>2018-08-24T09:06:56Z</time>
      </trkpt>
      <trkpt lat="42.680880" lon="-1.935076">
        <ele>387.5</ele>
        <time>2018-08-24T09:07:11Z</time>
      </trkpt>
      <trkpt lat="42.680875" lon="-1.935147">
        <ele>387.1</ele>
        <time>2018-08-24T09:07:15Z</time>
      </trkpt>
      <trkpt lat="42.680895" lon="-1.935292">
        <ele>387.1</ele>
        <time>2018-08-24T09:07:25Z</time>
      </trkpt>
      <trkpt lat="42.680967" lon="-1.935550">
        <ele>387.5</ele>
        <time>2018-08-24T09:07:40Z</time>
      </trkpt>
      <trkpt lat="42.680978" lon="-1.935582">
        <ele>387.1</ele>
        <time>2018-08-24T09:07:42Z</time>
      </trkpt>
      <trkpt lat="42.680999" lon="-1.935615">
        <ele>387.5</ele>
        <time>2018-08-24T09:07:44Z</time>
      </trkpt>
      <trkpt lat="42.681075" lon="-1.935775">
        <ele>387.5</ele>
        <time>2018-08-24T09:07:54Z</time>
      </trkpt>
      <trkpt lat="42.681240" lon="-1.936019">
        <ele>388.5</ele>
        <time>2018-08-24T09:08:12Z</time>
      </trkpt>
      <trkpt lat="42.681299" lon="-1.936181">
        <ele>388.5</ele>
        <time>2018-08-24T09:08:24Z</time>
      </trkpt>
      <trkpt lat="42.681226" lon="-1.936430">
        <ele>387.5</ele>
        <time>2018-08-24T09:08:40Z</time>
      </trkpt>
      <trkpt lat="42.681155" lon="-1.936675">
        <ele>387.1</ele>
        <time>2018-08-24T09:08:56Z</time>
      </trkpt>
      <trkpt lat="42.681141" lon="-1.936676">
        <ele>387.1</ele>
        <time>2018-08-24T09:09:01Z</time>
      </trkpt>
      <trkpt lat="42.681127" lon="-1.936676">
        <ele>387.1</ele>
        <time>2018-08-24T09:09:03Z</time>
      </trkpt>
      <trkpt lat="42.681033" lon="-1.936794">
        <ele>388.5</ele>
        <time>2018-08-24T09:09:15Z</time>
      </trkpt>
      <trkpt lat="42.681021" lon="-1.936882">
        <ele>389.5</ele>
        <time>2018-08-24T09:09:20Z</time>
      </trkpt>
      <trkpt lat="42.680982" lon="-1.937026">
        <ele>390.0</ele>
        <time>2018-08-24T09:09:31Z</time>
      </trkpt>
      <trkpt lat="42.680960" lon="-1.937128">
        <ele>389.5</ele>
        <time>2018-08-24T09:09:42Z</time>
      </trkpt>
      <trkpt lat="42.680912" lon="-1.937223">
        <ele>387.5</ele>
        <time>2018-08-24T09:09:51Z</time>
      </trkpt>
      <trkpt lat="42.680845" lon="-1.937235">
        <ele>388.0</ele>
        <time>2018-08-24T09:09:57Z</time>
      </trkpt>
      <trkpt lat="42.680753" lon="-1.937251">
        <ele>389.5</ele>
        <time>2018-08-24T09:10:08Z</time>
      </trkpt>
      <trkpt lat="42.680709" lon="-1.937243">
        <ele>389.5</ele>
        <time>2018-08-24T09:10:12Z</time>
      </trkpt>
      <trkpt lat="42.680521" lon="-1.937321">
        <ele>390.4</ele>
        <time>2018-08-24T09:10:28Z</time>
      </trkpt>
      <trkpt lat="42.680453" lon="-1.937366">
        <ele>390.9</ele>
        <time>2018-08-24T09:10:35Z</time>
      </trkpt>
      <trkpt lat="42.680310" lon="-1.937461">
        <ele>391.9</ele>
        <time>2018-08-24T09:10:48Z</time>
      </trkpt>
      <trkpt lat="42.680168" lon="-1.937558">
        <ele>393.3</ele>
        <time>2018-08-24T09:11:03Z</time>
      </trkpt>
      <trkpt lat="42.680137" lon="-1.937566">
        <ele>393.3</ele>
        <time>2018-08-24T09:11:06Z</time>
      </trkpt>
      <trkpt lat="42.680082" lon="-1.937584">
        <ele>394.8</ele>
        <time>2018-08-24T09:11:13Z</time>
      </trkpt>
      <trkpt lat="42.680011" lon="-1.937600">
        <ele>395.2</ele>
        <time>2018-08-24T09:11:19Z</time>
      </trkpt>
      <trkpt lat="42.679941" lon="-1.937619">
        <ele>395.7</ele>
        <time>2018-08-24T09:11:26Z</time>
      </trkpt>
      <trkpt lat="42.679901" lon="-1.937646">
        <ele>396.7</ele>
        <time>2018-08-24T09:11:31Z</time>
      </trkpt>
      <trkpt lat="42.679864" lon="-1.937634">
        <ele>397.2</ele>
        <time>2018-08-24T09:11:34Z</time>
      </trkpt>
      <trkpt lat="42.679819" lon="-1.937632">
        <ele>397.6</ele>
        <time>2018-08-24T09:11:38Z</time>
      </trkpt>
      <trkpt lat="42.679738" lon="-1.937634">
        <ele>398.6</ele>
        <time>2018-08-24T09:11:49Z</time>
      </trkpt>
      <trkpt lat="42.679604" lon="-1.937732">
        <ele>400.5</ele>
        <time>2018-08-24T09:12:03Z</time>
      </trkpt>
      <trkpt lat="42.679518" lon="-1.937821">
        <ele>401.5</ele>
        <time>2018-08-24T09:12:15Z</time>
      </trkpt>
      <trkpt lat="42.679386" lon="-1.937942">
        <ele>402.9</ele>
        <time>2018-08-24T09:12:29Z</time>
      </trkpt>
      <trkpt lat="42.679276" lon="-1.937996">
        <ele>403.9</ele>
        <time>2018-08-24T09:12:39Z</time>
      </trkpt>
      <trkpt lat="42.679127" lon="-1.938088">
        <ele>405.3</ele>
        <time>2018-08-24T09:12:52Z</time>
      </trkpt>
      <trkpt lat="42.679004" lon="-1.938202">
        <ele>407.3</ele>
        <time>2018-08-24T09:13:04Z</time>
      </trkpt>
      <trkpt lat="42.678887" lon="-1.938324">
        <ele>409.7</ele>
        <time>2018-08-24T09:13:16Z</time>
      </trkpt>
      <trkpt lat="42.678748" lon="-1.938395">
        <ele>410.6</ele>
        <time>2018-08-24T09:13:29Z</time>
      </trkpt>
      <trkpt lat="42.678227" lon="-1.938376">
        <ele>411.6</ele>
        <time>2018-08-24T09:14:09Z</time>
      </trkpt>
      <trkpt lat="42.678221" lon="-1.938432">
        <ele>412.1</ele>
        <time>2018-08-24T09:14:14Z</time>
      </trkpt>
      <trkpt lat="42.678183" lon="-1.938576">
        <ele>413.5</ele>
        <time>2018-08-24T09:14:27Z</time>
      </trkpt>
      <trkpt lat="42.678176" lon="-1.938587">
        <ele>413.5</ele>
        <time>2018-08-24T09:14:28Z</time>
      </trkpt>
      <trkpt lat="42.678037" lon="-1.938664">
        <ele>414.5</ele>
        <time>2018-08-24T09:14:41Z</time>
      </trkpt>
      <trkpt lat="42.678017" lon="-1.938659">
        <ele>415.0</ele>
        <time>2018-08-24T09:14:43Z</time>
      </trkpt>
      <trkpt lat="42.677996" lon="-1.938661">
        <ele>415.4</ele>
        <time>2018-08-24T09:14:45Z</time>
      </trkpt>
      <trkpt lat="42.677829" lon="-1.938580">
        <ele>414.5</ele>
        <time>2018-08-24T09:15:00Z</time>
      </trkpt>
      <trkpt lat="42.677723" lon="-1.938607">
        <ele>414.0</ele>
        <time>2018-08-24T09:15:12Z</time>
      </trkpt>
      <trkpt lat="42.677637" lon="-1.938778">
        <ele>413.5</ele>
        <time>2018-08-24T09:15:26Z</time>
      </trkpt>
      <trkpt lat="42.677533" lon="-1.938847">
        <ele>412.1</ele>
        <time>2018-08-24T09:15:40Z</time>
      </trkpt>
      <trkpt lat="42.677507" lon="-1.938880">
        <ele>411.6</ele>
        <time>2018-08-24T09:15:53Z</time>
      </trkpt>
      <trkpt lat="42.677445" lon="-1.938916">
        <ele>411.6</ele>
        <time>2018-08-24T09:16:10Z</time>
      </trkpt>
      <trkpt lat="42.677348" lon="-1.938975">
        <ele>410.6</ele>
        <time>2018-08-24T09:16:19Z</time>
      </trkpt>
      <trkpt lat="42.677212" lon="-1.939092">
        <ele>410.1</ele>
        <time>2018-08-24T09:16:32Z</time>
      </trkpt>
      <trkpt lat="42.677102" lon="-1.939224">
        <ele>410.1</ele>
        <time>2018-08-24T09:16:45Z</time>
      </trkpt>
      <trkpt lat="42.677081" lon="-1.939264">
        <ele>409.7</ele>
        <time>2018-08-24T09:16:49Z</time>
      </trkpt>
      <trkpt lat="42.676970" lon="-1.939425">
        <ele>410.1</ele>
        <time>2018-08-24T09:17:03Z</time>
      </trkpt>
      <trkpt lat="42.676862" lon="-1.939564">
        <ele>410.1</ele>
        <time>2018-08-24T09:17:16Z</time>
      </trkpt>
      <trkpt lat="42.676799" lon="-1.939635">
        <ele>410.6</ele>
        <time>2018-08-24T09:17:23Z</time>
      </trkpt>
      <trkpt lat="42.676754" lon="-1.939689">
        <ele>410.6</ele>
        <time>2018-08-24T09:17:28Z</time>
      </trkpt>
      <trkpt lat="42.676621" lon="-1.939829">
        <ele>411.1</ele>
        <time>2018-08-24T09:17:43Z</time>
      </trkpt>
      <trkpt lat="42.676584" lon="-1.939862">
        <ele>410.6</ele>
        <time>2018-08-24T09:17:47Z</time>
      </trkpt>
      <trkpt lat="42.676476" lon="-1.939973">
        <ele>412.1</ele>
        <time>2018-08-24T09:18:00Z</time>
      </trkpt>
      <trkpt lat="42.676455" lon="-1.940002">
        <ele>412.1</ele>
        <time>2018-08-24T09:18:03Z</time>
      </trkpt>
      <trkpt lat="42.676421" lon="-1.940038">
        <ele>412.1</ele>
        <time>2018-08-24T09:18:07Z</time>
      </trkpt>
      <trkpt lat="42.676321" lon="-1.940146">
        <ele>412.1</ele>
        <time>2018-08-24T09:18:19Z</time>
      </trkpt>
      <trkpt lat="42.676307" lon="-1.940149">
        <ele>412.5</ele>
        <time>2018-08-24T09:18:20Z</time>
      </trkpt>
      <trkpt lat="42.676242" lon="-1.940203">
        <ele>413.0</ele>
        <time>2018-08-24T09:18:26Z</time>
      </trkpt>
      <trkpt lat="42.676176" lon="-1.940255">
        <ele>413.0</ele>
        <time>2018-08-24T09:18:32Z</time>
      </trkpt>
      <trkpt lat="42.676122" lon="-1.940314">
        <ele>413.0</ele>
        <time>2018-08-24T09:18:38Z</time>
      </trkpt>
      <trkpt lat="42.676031" lon="-1.940403">
        <ele>413.5</ele>
        <time>2018-08-24T09:18:48Z</time>
      </trkpt>
      <trkpt lat="42.675976" lon="-1.940449">
        <ele>414.0</ele>
        <time>2018-08-24T09:18:54Z</time>
      </trkpt>
      <trkpt lat="42.675933" lon="-1.940498">
        <ele>414.5</ele>
        <time>2018-08-24T09:18:59Z</time>
      </trkpt>
      <trkpt lat="42.675848" lon="-1.940583">
        <ele>415.0</ele>
        <time>2018-08-24T09:19:08Z</time>
      </trkpt>
      <trkpt lat="42.675712" lon="-1.940647">
        <ele>416.9</ele>
        <time>2018-08-24T09:19:21Z</time>
      </trkpt>
      <trkpt lat="42.675687" lon="-1.940656">
        <ele>416.9</ele>
        <time>2018-08-24T09:19:24Z</time>
      </trkpt>
      <trkpt lat="42.675610" lon="-1.940707">
        <ele>418.3</ele>
        <time>2018-08-24T09:19:33Z</time>
      </trkpt>
      <trkpt lat="42.675547" lon="-1.940767">
        <ele>419.3</ele>
        <time>2018-08-24T09:19:40Z</time>
      </trkpt>
      <trkpt lat="42.675525" lon="-1.940812">
        <ele>419.8</ele>
        <time>2018-08-24T09:19:44Z</time>
      </trkpt>
      <trkpt lat="42.675500" lon="-1.940841">
        <ele>420.2</ele>
        <time>2018-08-24T09:19:47Z</time>
      </trkpt>
      <trkpt lat="42.675448" lon="-1.940947">
        <ele>421.7</ele>
        <time>2018-08-24T09:19:58Z</time>
      </trkpt>
      <trkpt lat="42.675419" lon="-1.941052">
        <ele>422.6</ele>
        <time>2018-08-24T09:20:08Z</time>
      </trkpt>
      <trkpt lat="42.675418" lon="-1.941062">
        <ele>423.6</ele>
        <time>2018-08-24T09:20:09Z</time>
      </trkpt>
      <trkpt lat="42.675376" lon="-1.941171">
        <ele>424.6</ele>
        <time>2018-08-24T09:20:21Z</time>
      </trkpt>
      <trkpt lat="42.675369" lon="-1.941188">
        <ele>424.6</ele>
        <time>2018-08-24T09:20:23Z</time>
      </trkpt>
      <trkpt lat="42.675344" lon="-1.941308">
        <ele>425.0</ele>
        <time>2018-08-24T09:20:31Z</time>
      </trkpt>
      <trkpt lat="42.675334" lon="-1.941349">
        <ele>425.0</ele>
        <time>2018-08-24T09:20:34Z</time>
      </trkpt>
      <trkpt lat="42.675268" lon="-1.941501">
        <ele>425.5</ele>
        <time>2018-08-24T09:20:46Z</time>
      </trkpt>
      <trkpt lat="42.675248" lon="-1.941581">
        <ele>426.0</ele>
        <time>2018-08-24T09:20:51Z</time>
      </trkpt>
      <trkpt lat="42.675221" lon="-1.941688">
        <ele>427.4</ele>
        <time>2018-08-24T09:20:57Z</time>
      </trkpt>
      <trkpt lat="42.675210" lon="-1.941742">
        <ele>428.4</ele>
        <time>2018-08-24T09:21:01Z</time>
      </trkpt>
      <trkpt lat="42.675162" lon="-1.941904">
        <ele>429.4</ele>
        <time>2018-08-24T09:21:13Z</time>
      </trkpt>
      <trkpt lat="42.675137" lon="-1.941948">
        <ele>429.9</ele>
        <time>2018-08-24T09:21:17Z</time>
      </trkpt>
      <trkpt lat="42.675035" lon="-1.942055">
        <ele>430.3</ele>
        <time>2018-08-24T09:21:29Z</time>
      </trkpt>
      <trkpt lat="42.674995" lon="-1.942129">
        <ele>430.8</ele>
        <time>2018-08-24T09:21:36Z</time>
      </trkpt>
      <trkpt lat="42.674982" lon="-1.942160">
        <ele>431.3</ele>
        <time>2018-08-24T09:21:38Z</time>
      </trkpt>
      <trkpt lat="42.674973" lon="-1.942180">
        <ele>431.3</ele>
        <time>2018-08-24T09:21:40Z</time>
      </trkpt>
      <trkpt lat="42.674929" lon="-1.942266">
        <ele>431.8</ele>
        <time>2018-08-24T09:21:47Z</time>
      </trkpt>
      <trkpt lat="42.674914" lon="-1.942315">
        <ele>432.2</ele>
        <time>2018-08-24T09:21:50Z</time>
      </trkpt>
      <trkpt lat="42.674864" lon="-1.942378">
        <ele>433.2</ele>
        <time>2018-08-24T09:21:56Z</time>
      </trkpt>
      <trkpt lat="42.674833" lon="-1.942445">
        <ele>433.2</ele>
        <time>2018-08-24T09:22:02Z</time>
      </trkpt>
      <trkpt lat="42.674766" lon="-1.942542">
        <ele>434.6</ele>
        <time>2018-08-24T09:22:13Z</time>
      </trkpt>
      <trkpt lat="42.674744" lon="-1.942562">
        <ele>435.6</ele>
        <time>2018-08-24T09:22:16Z</time>
      </trkpt>
      <trkpt lat="42.674718" lon="-1.942587">
        <ele>436.1</ele>
        <time>2018-08-24T09:22:20Z</time>
      </trkpt>
      <trkpt lat="42.674694" lon="-1.942600">
        <ele>437.1</ele>
        <time>2018-08-24T09:22:23Z</time>
      </trkpt>
      <trkpt lat="42.674652" lon="-1.942609">
        <ele>437.1</ele>
        <time>2018-08-24T09:22:28Z</time>
      </trkpt>
      <trkpt lat="42.674572" lon="-1.942643">
        <ele>439.9</ele>
        <time>2018-08-24T09:22:40Z</time>
      </trkpt>
      <trkpt lat="42.674561" lon="-1.942677">
        <ele>439.9</ele>
        <time>2018-08-24T09:22:43Z</time>
      </trkpt>
      <trkpt lat="42.674480" lon="-1.942792">
        <ele>440.9</ele>
        <time>2018-08-24T09:22:56Z</time>
      </trkpt>
      <trkpt lat="42.674427" lon="-1.942858">
        <ele>441.4</ele>
        <time>2018-08-24T09:23:08Z</time>
      </trkpt>
      <trkpt lat="42.674375" lon="-1.942932">
        <ele>442.8</ele>
        <time>2018-08-24T09:23:16Z</time>
      </trkpt>
      <trkpt lat="42.674308" lon="-1.942996">
        <ele>443.8</ele>
        <time>2018-08-24T09:23:27Z</time>
      </trkpt>
      <trkpt lat="42.674252" lon="-1.943067">
        <ele>445.2</ele>
        <time>2018-08-24T09:23:36Z</time>
      </trkpt>
      <trkpt lat="42.674200" lon="-1.943103">
        <ele>446.2</ele>
        <time>2018-08-24T09:23:43Z</time>
      </trkpt>
      <trkpt lat="42.674142" lon="-1.943155">
        <ele>447.6</ele>
        <time>2018-08-24T09:23:50Z</time>
      </trkpt>
      <trkpt lat="42.674124" lon="-1.943161">
        <ele>447.6</ele>
        <time>2018-08-24T09:23:52Z</time>
      </trkpt>
      <trkpt lat="42.674095" lon="-1.943188">
        <ele>448.1</ele>
        <time>2018-08-24T09:23:56Z</time>
      </trkpt>
      <trkpt lat="42.673994" lon="-1.943280">
        <ele>450.5</ele>
        <time>2018-08-24T09:24:09Z</time>
      </trkpt>
      <trkpt lat="42.673944" lon="-1.943337">
        <ele>452.0</ele>
        <time>2018-08-24T09:24:19Z</time>
      </trkpt>
      <trkpt lat="42.673895" lon="-1.943389">
        <ele>453.4</ele>
        <time>2018-08-24T09:24:29Z</time>
      </trkpt>
      <trkpt lat="42.673772" lon="-1.943543">
        <ele>457.7</ele>
        <time>2018-08-24T09:25:17Z</time>
      </trkpt>
      <trkpt lat="42.673789" lon="-1.943523">
        <ele>458.2</ele>
        <time>2018-08-24T09:25:43Z</time>
      </trkpt>
      <trkpt lat="42.673785" lon="-1.943551">
        <ele>457.7</ele>
        <time>2018-08-24T09:26:03Z</time>
      </trkpt>
      <trkpt lat="42.673633" lon="-1.943681">
        <ele>458.2</ele>
        <time>2018-08-24T09:26:18Z</time>
      </trkpt>
      <trkpt lat="42.673623" lon="-1.943701">
        <ele>458.7</ele>
        <time>2018-08-24T09:26:36Z</time>
      </trkpt>
      <trkpt lat="42.673620" lon="-1.943711">
        <ele>459.2</ele>
        <time>2018-08-24T09:26:37Z</time>
      </trkpt>
      <trkpt lat="42.673602" lon="-1.943749">
        <ele>459.6</ele>
        <time>2018-08-24T09:26:40Z</time>
      </trkpt>
      <trkpt lat="42.673549" lon="-1.943817">
        <ele>460.6</ele>
        <time>2018-08-24T09:26:47Z</time>
      </trkpt>
      <trkpt lat="42.673517" lon="-1.943873">
        <ele>461.1</ele>
        <time>2018-08-24T09:26:51Z</time>
      </trkpt>
      <trkpt lat="42.673441" lon="-1.943995">
        <ele>463.5</ele>
        <time>2018-08-24T09:27:02Z</time>
      </trkpt>
      <trkpt lat="42.673346" lon="-1.944115">
        <ele>464.5</ele>
        <time>2018-08-24T09:27:14Z</time>
      </trkpt>
      <trkpt lat="42.673341" lon="-1.944137">
        <ele>464.5</ele>
        <time>2018-08-24T09:27:17Z</time>
      </trkpt>
      <trkpt lat="42.673329" lon="-1.944142">
        <ele>464.5</ele>
        <time>2018-08-24T09:27:19Z</time>
      </trkpt>
      <trkpt lat="42.673281" lon="-1.944237">
        <ele>465.4</ele>
        <time>2018-08-24T09:27:31Z</time>
      </trkpt>
      <trkpt lat="42.673274" lon="-1.944247">
        <ele>465.4</ele>
        <time>2018-08-24T09:27:32Z</time>
      </trkpt>
      <trkpt lat="42.673250" lon="-1.944281">
        <ele>465.9</ele>
        <time>2018-08-24T09:27:36Z</time>
      </trkpt>
      <trkpt lat="42.673214" lon="-1.944329">
        <ele>466.9</ele>
        <time>2018-08-24T09:27:49Z</time>
      </trkpt>
      <trkpt lat="42.673160" lon="-1.944366">
        <ele>466.9</ele>
        <time>2018-08-24T09:27:55Z</time>
      </trkpt>
      <trkpt lat="42.673135" lon="-1.944428">
        <ele>467.3</ele>
        <time>2018-08-24T09:28:05Z</time>
      </trkpt>
      <trkpt lat="42.673044" lon="-1.944602">
        <ele>467.8</ele>
        <time>2018-08-24T09:28:22Z</time>
      </trkpt>
      <trkpt lat="42.672911" lon="-1.944778">
        <ele>467.3</ele>
        <time>2018-08-24T09:28:39Z</time>
      </trkpt>
      <trkpt lat="42.672825" lon="-1.944927">
        <ele>466.9</ele>
        <time>2018-08-24T09:28:54Z</time>
      </trkpt>
      <trkpt lat="42.672715" lon="-1.944997">
        <ele>465.9</ele>
        <time>2018-08-24T09:29:12Z</time>
      </trkpt>
      <trkpt lat="42.672633" lon="-1.944969">
        <ele>466.4</ele>
        <time>2018-08-24T09:29:27Z</time>
      </trkpt>
      <trkpt lat="42.672619" lon="-1.944983">
        <ele>467.8</ele>
        <time>2018-08-24T09:29:44Z</time>
      </trkpt>
      <trkpt lat="42.672544" lon="-1.945127">
        <ele>467.8</ele>
        <time>2018-08-24T09:30:12Z</time>
      </trkpt>
      <trkpt lat="42.672476" lon="-1.945169">
        <ele>468.3</ele>
        <time>2018-08-24T09:30:46Z</time>
      </trkpt>
      <trkpt lat="42.672476" lon="-1.945227">
        <ele>467.8</ele>
        <time>2018-08-24T09:31:12Z</time>
      </trkpt>
      <trkpt lat="42.672505" lon="-1.945281">
        <ele>467.8</ele>
        <time>2018-08-24T09:31:52Z</time>
      </trkpt>
      <trkpt lat="42.672544" lon="-1.945228">
        <ele>469.7</ele>
        <time>2018-08-24T09:32:47Z</time>
      </trkpt>
      <trkpt lat="42.672610" lon="-1.945131">
        <ele>471.2</ele>
        <time>2018-08-24T09:35:14Z</time>
      </trkpt>
      <trkpt lat="42.672617" lon="-1.945176">
        <ele>471.2</ele>
        <time>2018-08-24T09:35:19Z</time>
      </trkpt>
      <trkpt lat="42.672520" lon="-1.945302">
        <ele>470.2</ele>
        <time>2018-08-24T09:35:32Z</time>
      </trkpt>
      <trkpt lat="42.672444" lon="-1.945415">
        <ele>470.2</ele>
        <time>2018-08-24T09:35:44Z</time>
      </trkpt>
      <trkpt lat="42.672436" lon="-1.945481">
        <ele>471.2</ele>
        <time>2018-08-24T09:35:52Z</time>
      </trkpt>
      <trkpt lat="42.672336" lon="-1.945659">
        <ele>469.7</ele>
        <time>2018-08-24T09:36:09Z</time>
      </trkpt>
      <trkpt lat="42.672217" lon="-1.945844">
        <ele>469.7</ele>
        <time>2018-08-24T09:36:26Z</time>
      </trkpt>
      <trkpt lat="42.672188" lon="-1.945893">
        <ele>469.3</ele>
        <time>2018-08-24T09:36:31Z</time>
      </trkpt>
      <trkpt lat="42.672176" lon="-1.945910">
        <ele>469.3</ele>
        <time>2018-08-24T09:36:33Z</time>
      </trkpt>
      <trkpt lat="42.672052" lon="-1.946085">
        <ele>467.3</ele>
        <time>2018-08-24T09:36:48Z</time>
      </trkpt>
      <trkpt lat="42.672002" lon="-1.946123">
        <ele>466.9</ele>
        <time>2018-08-24T09:36:53Z</time>
      </trkpt>
      <trkpt lat="42.671888" lon="-1.946318">
        <ele>464.5</ele>
        <time>2018-08-24T09:37:09Z</time>
      </trkpt>
      <trkpt lat="42.671769" lon="-1.946571">
        <ele>463.0</ele>
        <time>2018-08-24T09:37:25Z</time>
      </trkpt>
      <trkpt lat="42.671712" lon="-1.946626">
        <ele>462.5</ele>
        <time>2018-08-24T09:37:31Z</time>
      </trkpt>
      <trkpt lat="42.671647" lon="-1.946739">
        <ele>461.6</ele>
        <time>2018-08-24T09:37:39Z</time>
      </trkpt>
      <trkpt lat="42.671529" lon="-1.946903">
        <ele>459.6</ele>
        <time>2018-08-24T09:37:53Z</time>
      </trkpt>
      <trkpt lat="42.671425" lon="-1.947061">
        <ele>459.2</ele>
        <time>2018-08-24T09:38:06Z</time>
      </trkpt>
      <trkpt lat="42.671392" lon="-1.947091">
        <ele>459.2</ele>
        <time>2018-08-24T09:38:09Z</time>
      </trkpt>
      <trkpt lat="42.671305" lon="-1.947245">
        <ele>459.2</ele>
        <time>2018-08-24T09:38:21Z</time>
      </trkpt>
      <trkpt lat="42.671227" lon="-1.947414">
        <ele>458.2</ele>
        <time>2018-08-24T09:38:31Z</time>
      </trkpt>
      <trkpt lat="42.671141" lon="-1.947595">
        <ele>458.7</ele>
        <time>2018-08-24T09:38:43Z</time>
      </trkpt>
      <trkpt lat="42.671073" lon="-1.947795">
        <ele>458.7</ele>
        <time>2018-08-24T09:38:56Z</time>
      </trkpt>
      <trkpt lat="42.671018" lon="-1.947978">
        <ele>459.2</ele>
        <time>2018-08-24T09:39:08Z</time>
      </trkpt>
      <trkpt lat="42.670992" lon="-1.948112">
        <ele>459.6</ele>
        <time>2018-08-24T09:39:16Z</time>
      </trkpt>
      <trkpt lat="42.670994" lon="-1.948148">
        <ele>460.1</ele>
        <time>2018-08-24T09:39:18Z</time>
      </trkpt>
      <trkpt lat="42.670944" lon="-1.948333">
        <ele>461.6</ele>
        <time>2018-08-24T09:39:30Z</time>
      </trkpt>
      <trkpt lat="42.670917" lon="-1.948423">
        <ele>462.0</ele>
        <time>2018-08-24T09:39:43Z</time>
      </trkpt>
      <trkpt lat="42.670899" lon="-1.948467">
        <ele>462.5</ele>
        <time>2018-08-24T09:39:46Z</time>
      </trkpt>
      <trkpt lat="42.670872" lon="-1.948531">
        <ele>463.0</ele>
        <time>2018-08-24T09:39:51Z</time>
      </trkpt>
      <trkpt lat="42.670796" lon="-1.948624">
        <ele>464.5</ele>
        <time>2018-08-24T09:40:01Z</time>
      </trkpt>
      <trkpt lat="42.670769" lon="-1.948631">
        <ele>464.5</ele>
        <time>2018-08-24T09:40:07Z</time>
      </trkpt>
      <trkpt lat="42.670722" lon="-1.948737">
        <ele>464.9</ele>
        <time>2018-08-24T09:40:19Z</time>
      </trkpt>
      <trkpt lat="42.670634" lon="-1.948876">
        <ele>466.4</ele>
        <time>2018-08-24T09:40:33Z</time>
      </trkpt>
      <trkpt lat="42.670378" lon="-1.949197">
        <ele>468.8</ele>
        <time>2018-08-24T09:41:49Z</time>
      </trkpt>
      <trkpt lat="42.670308" lon="-1.949379">
        <ele>469.7</ele>
        <time>2018-08-24T09:42:01Z</time>
      </trkpt>
      <trkpt lat="42.670253" lon="-1.949468">
        <ele>470.2</ele>
        <time>2018-08-24T09:42:08Z</time>
      </trkpt>
      <trkpt lat="42.670178" lon="-1.949590">
        <ele>471.7</ele>
        <time>2018-08-24T09:42:19Z</time>
      </trkpt>
      <trkpt lat="42.670134" lon="-1.949656">
        <ele>472.1</ele>
        <time>2018-08-24T09:42:26Z</time>
      </trkpt>
      <trkpt lat="42.670074" lon="-1.949758">
        <ele>473.1</ele>
        <time>2018-08-24T09:42:35Z</time>
      </trkpt>
      <trkpt lat="42.670061" lon="-1.949782">
        <ele>474.1</ele>
        <time>2018-08-24T09:42:37Z</time>
      </trkpt>
      <trkpt lat="42.669992" lon="-1.949921">
        <ele>474.5</ele>
        <time>2018-08-24T09:42:48Z</time>
      </trkpt>
      <trkpt lat="42.669961" lon="-1.949976">
        <ele>475.0</ele>
        <time>2018-08-24T09:42:53Z</time>
      </trkpt>
      <trkpt lat="42.669952" lon="-1.950008">
        <ele>475.5</ele>
        <time>2018-08-24T09:42:55Z</time>
      </trkpt>
      <trkpt lat="42.669859" lon="-1.950182">
        <ele>476.5</ele>
        <time>2018-08-24T09:43:08Z</time>
      </trkpt>
      <trkpt lat="42.669843" lon="-1.950214">
        <ele>476.5</ele>
        <time>2018-08-24T09:43:10Z</time>
      </trkpt>
      <trkpt lat="42.669781" lon="-1.950346">
        <ele>477.0</ele>
        <time>2018-08-24T09:43:20Z</time>
      </trkpt>
      <trkpt lat="42.669729" lon="-1.950448">
        <ele>477.0</ele>
        <time>2018-08-24T09:43:29Z</time>
      </trkpt>
      <trkpt lat="42.669608" lon="-1.950551">
        <ele>476.0</ele>
        <time>2018-08-24T09:44:25Z</time>
      </trkpt>
      <trkpt lat="42.669573" lon="-1.950765">
        <ele>476.5</ele>
        <time>2018-08-24T09:44:38Z</time>
      </trkpt>
      <trkpt lat="42.669539" lon="-1.950851">
        <ele>477.4</ele>
        <time>2018-08-24T09:44:44Z</time>
      </trkpt>
      <trkpt lat="42.669465" lon="-1.950993">
        <ele>478.4</ele>
        <time>2018-08-24T09:44:55Z</time>
      </trkpt>
      <trkpt lat="42.669426" lon="-1.951085">
        <ele>478.9</ele>
        <time>2018-08-24T09:45:03Z</time>
      </trkpt>
      <trkpt lat="42.669409" lon="-1.951107">
        <ele>479.4</ele>
        <time>2018-08-24T09:45:05Z</time>
      </trkpt>
      <trkpt lat="42.669304" lon="-1.951284">
        <ele>480.3</ele>
        <time>2018-08-24T09:45:17Z</time>
      </trkpt>
      <trkpt lat="42.669297" lon="-1.951312">
        <ele>480.3</ele>
        <time>2018-08-24T09:45:19Z</time>
      </trkpt>
      <trkpt lat="42.669282" lon="-1.951333">
        <ele>480.3</ele>
        <time>2018-08-24T09:45:21Z</time>
      </trkpt>
      <trkpt lat="42.669225" lon="-1.951515">
        <ele>480.3</ele>
        <time>2018-08-24T09:45:34Z</time>
      </trkpt>
      <trkpt lat="42.669165" lon="-1.951719">
        <ele>481.3</ele>
        <time>2018-08-24T09:45:49Z</time>
      </trkpt>
      <trkpt lat="42.669096" lon="-1.951897">
        <ele>482.2</ele>
        <time>2018-08-24T09:46:01Z</time>
      </trkpt>
      <trkpt lat="42.669035" lon="-1.952072">
        <ele>482.7</ele>
        <time>2018-08-24T09:46:12Z</time>
      </trkpt>
      <trkpt lat="42.668934" lon="-1.952314">
        <ele>482.7</ele>
        <time>2018-08-24T09:46:26Z</time>
      </trkpt>
      <trkpt lat="42.668845" lon="-1.952560">
        <ele>483.7</ele>
        <time>2018-08-24T09:46:41Z</time>
      </trkpt>
      <trkpt lat="42.668765" lon="-1.952783">
        <ele>484.2</ele>
        <time>2018-08-24T09:46:57Z</time>
      </trkpt>
      <trkpt lat="42.668690" lon="-1.952974">
        <ele>485.1</ele>
        <time>2018-08-24T09:47:11Z</time>
      </trkpt>
      <trkpt lat="42.668602" lon="-1.953216">
        <ele>485.1</ele>
        <time>2018-08-24T09:47:25Z</time>
      </trkpt>
      <trkpt lat="42.668511" lon="-1.953485">
        <ele>486.1</ele>
        <time>2018-08-24T09:47:41Z</time>
      </trkpt>
      <trkpt lat="42.668422" lon="-1.953754">
        <ele>486.1</ele>
        <time>2018-08-24T09:47:57Z</time>
      </trkpt>
      <trkpt lat="42.668362" lon="-1.953996">
        <ele>486.1</ele>
        <time>2018-08-24T09:48:11Z</time>
      </trkpt>
      <trkpt lat="42.668282" lon="-1.954232">
        <ele>486.1</ele>
        <time>2018-08-24T09:48:26Z</time>
      </trkpt>
      <trkpt lat="42.668189" lon="-1.954558">
        <ele>485.6</ele>
        <time>2018-08-24T09:48:46Z</time>
      </trkpt>
      <trkpt lat="42.668150" lon="-1.954666">
        <ele>484.6</ele>
        <time>2018-08-24T09:48:53Z</time>
      </trkpt>
      <trkpt lat="42.668103" lon="-1.954895">
        <ele>484.2</ele>
        <time>2018-08-24T09:49:07Z</time>
      </trkpt>
      <trkpt lat="42.668042" lon="-1.955065">
        <ele>484.2</ele>
        <time>2018-08-24T09:49:20Z</time>
      </trkpt>
      <trkpt lat="42.668019" lon="-1.955107">
        <ele>484.2</ele>
        <time>2018-08-24T09:49:24Z</time>
      </trkpt>
      <trkpt lat="42.667930" lon="-1.955246">
        <ele>484.6</ele>
        <time>2018-08-24T09:49:35Z</time>
      </trkpt>
      <trkpt lat="42.667885" lon="-1.955451">
        <ele>484.2</ele>
        <time>2018-08-24T09:49:47Z</time>
      </trkpt>
      <trkpt lat="42.667835" lon="-1.955685">
        <ele>484.2</ele>
        <time>2018-08-24T09:50:01Z</time>
      </trkpt>
      <trkpt lat="42.667778" lon="-1.955973">
        <ele>484.2</ele>
        <time>2018-08-24T09:50:19Z</time>
      </trkpt>
      <trkpt lat="42.667707" lon="-1.956247">
        <ele>483.2</ele>
        <time>2018-08-24T09:50:36Z</time>
      </trkpt>
      <trkpt lat="42.667680" lon="-1.956414">
        <ele>482.7</ele>
        <time>2018-08-24T09:50:48Z</time>
      </trkpt>
      <trkpt lat="42.667673" lon="-1.956490">
        <ele>482.2</ele>
        <time>2018-08-24T09:50:52Z</time>
      </trkpt>
      <trkpt lat="42.667630" lon="-1.956662">
        <ele>481.8</ele>
        <time>2018-08-24T09:51:04Z</time>
      </trkpt>
      <trkpt lat="42.667584" lon="-1.956849">
        <ele>481.8</ele>
        <time>2018-08-24T09:51:15Z</time>
      </trkpt>
      <trkpt lat="42.667528" lon="-1.957078">
        <ele>482.7</ele>
        <time>2018-08-24T09:51:28Z</time>
      </trkpt>
      <trkpt lat="42.667497" lon="-1.957276">
        <ele>483.2</ele>
        <time>2018-08-24T09:51:39Z</time>
      </trkpt>
      <trkpt lat="42.667441" lon="-1.957529">
        <ele>483.7</ele>
        <time>2018-08-24T09:51:54Z</time>
      </trkpt>
      <trkpt lat="42.667439" lon="-1.957548">
        <ele>483.7</ele>
        <time>2018-08-24T09:51:55Z</time>
      </trkpt>
      <trkpt lat="42.667445" lon="-1.957622">
        <ele>484.2</ele>
        <time>2018-08-24T09:52:02Z</time>
      </trkpt>
      <trkpt lat="42.667416" lon="-1.957767">
        <ele>484.6</ele>
        <time>2018-08-24T09:52:12Z</time>
      </trkpt>
      <trkpt lat="42.667363" lon="-1.957832">
        <ele>484.2</ele>
        <time>2018-08-24T09:52:18Z</time>
      </trkpt>
      <trkpt lat="42.667331" lon="-1.958030">
        <ele>484.2</ele>
        <time>2018-08-24T09:52:31Z</time>
      </trkpt>
      <trkpt lat="42.667331" lon="-1.958048">
        <ele>484.2</ele>
        <time>2018-08-24T09:52:32Z</time>
      </trkpt>
      <trkpt lat="42.667269" lon="-1.958208">
        <ele>484.2</ele>
        <time>2018-08-24T09:52:44Z</time>
      </trkpt>
      <trkpt lat="42.667201" lon="-1.958436">
        <ele>484.6</ele>
        <time>2018-08-24T09:52:58Z</time>
      </trkpt>
      <trkpt lat="42.667160" lon="-1.958581">
        <ele>486.1</ele>
        <time>2018-08-24T09:53:08Z</time>
      </trkpt>
      <trkpt lat="42.667154" lon="-1.958597">
        <ele>485.6</ele>
        <time>2018-08-24T09:53:09Z</time>
      </trkpt>
      <trkpt lat="42.667099" lon="-1.958878">
        <ele>487.0</ele>
        <time>2018-08-24T09:53:24Z</time>
      </trkpt>
      <trkpt lat="42.667042" lon="-1.959016">
        <ele>487.5</ele>
        <time>2018-08-24T09:53:39Z</time>
      </trkpt>
      <trkpt lat="42.667005" lon="-1.959233">
        <ele>488.5</ele>
        <time>2018-08-24T09:53:54Z</time>
      </trkpt>
      <trkpt lat="42.666956" lon="-1.959496">
        <ele>489.0</ele>
        <time>2018-08-24T09:54:09Z</time>
      </trkpt>
      <trkpt lat="42.666945" lon="-1.959576">
        <ele>489.0</ele>
        <time>2018-08-24T09:54:14Z</time>
      </trkpt>
      <trkpt lat="42.666925" lon="-1.959636">
        <ele>490.4</ele>
        <time>2018-08-24T09:54:18Z</time>
      </trkpt>
      <trkpt lat="42.666906" lon="-1.959690">
        <ele>490.4</ele>
        <time>2018-08-24T09:54:21Z</time>
      </trkpt>
      <trkpt lat="42.666867" lon="-1.959828">
        <ele>491.4</ele>
        <time>2018-08-24T09:54:30Z</time>
      </trkpt>
      <trkpt lat="42.666848" lon="-1.959904">
        <ele>491.9</ele>
        <time>2018-08-24T09:54:35Z</time>
      </trkpt>
      <trkpt lat="42.666783" lon="-1.960122">
        <ele>493.8</ele>
        <time>2018-08-24T09:54:49Z</time>
      </trkpt>
      <trkpt lat="42.666755" lon="-1.960197">
        <ele>493.8</ele>
        <time>2018-08-24T09:54:54Z</time>
      </trkpt>
      <trkpt lat="42.666756" lon="-1.960244">
        <ele>494.3</ele>
        <time>2018-08-24T09:54:57Z</time>
      </trkpt>
      <trkpt lat="42.666727" lon="-1.960357">
        <ele>494.7</ele>
        <time>2018-08-24T09:55:04Z</time>
      </trkpt>
      <trkpt lat="42.666665" lon="-1.960590">
        <ele>496.7</ele>
        <time>2018-08-24T09:55:18Z</time>
      </trkpt>
      <trkpt lat="42.666637" lon="-1.960679">
        <ele>497.1</ele>
        <time>2018-08-24T09:55:23Z</time>
      </trkpt>
      <trkpt lat="42.666600" lon="-1.960844">
        <ele>497.6</ele>
        <time>2018-08-24T09:55:34Z</time>
      </trkpt>
      <trkpt lat="42.666504" lon="-1.960987">
        <ele>497.6</ele>
        <time>2018-08-24T09:55:50Z</time>
      </trkpt>
      <trkpt lat="42.666438" lon="-1.960993">
        <ele>497.1</ele>
        <time>2018-08-24T09:55:57Z</time>
      </trkpt>
      <trkpt lat="42.666294" lon="-1.960886">
        <ele>497.1</ele>
        <time>2018-08-24T09:56:10Z</time>
      </trkpt>
      <trkpt lat="42.666099" lon="-1.960765">
        <ele>497.1</ele>
        <time>2018-08-24T09:56:26Z</time>
      </trkpt>
      <trkpt lat="42.666090" lon="-1.960764">
        <ele>497.1</ele>
        <time>2018-08-24T09:56:27Z</time>
      </trkpt>
      <trkpt lat="42.666041" lon="-1.960783">
        <ele>496.7</ele>
        <time>2018-08-24T09:56:46Z</time>
      </trkpt>
      <trkpt lat="42.665825" lon="-1.960871">
        <ele>494.7</ele>
        <time>2018-08-24T09:57:02Z</time>
      </trkpt>
      <trkpt lat="42.665756" lon="-1.960962">
        <ele>494.7</ele>
        <time>2018-08-24T09:57:08Z</time>
      </trkpt>
      <trkpt lat="42.665636" lon="-1.961192">
        <ele>493.3</ele>
        <time>2018-08-24T09:57:24Z</time>
      </trkpt>
      <trkpt lat="42.665545" lon="-1.961374">
        <ele>492.3</ele>
        <time>2018-08-24T09:57:38Z</time>
      </trkpt>
      <trkpt lat="42.665434" lon="-1.961566">
        <ele>491.9</ele>
        <time>2018-08-24T09:57:52Z</time>
      </trkpt>
      <trkpt lat="42.665316" lon="-1.961799">
        <ele>491.9</ele>
        <time>2018-08-24T09:58:08Z</time>
      </trkpt>
      <trkpt lat="42.665194" lon="-1.962017">
        <ele>491.4</ele>
        <time>2018-08-24T09:58:24Z</time>
      </trkpt>
      <trkpt lat="42.665149" lon="-1.962186">
        <ele>490.4</ele>
        <time>2018-08-24T09:58:36Z</time>
      </trkpt>
      <trkpt lat="42.665080" lon="-1.962401">
        <ele>489.9</ele>
        <time>2018-08-24T09:58:50Z</time>
      </trkpt>
      <trkpt lat="42.664984" lon="-1.962601">
        <ele>489.5</ele>
        <time>2018-08-24T09:59:03Z</time>
      </trkpt>
      <trkpt lat="42.664958" lon="-1.962660">
        <ele>489.0</ele>
        <time>2018-08-24T09:59:07Z</time>
      </trkpt>
      <trkpt lat="42.664826" lon="-1.962909">
        <ele>488.5</ele>
        <time>2018-08-24T09:59:24Z</time>
      </trkpt>
      <trkpt lat="42.664753" lon="-1.963018">
        <ele>488.0</ele>
        <time>2018-08-24T09:59:32Z</time>
      </trkpt>
      <trkpt lat="42.664736" lon="-1.963081">
        <ele>487.5</ele>
        <time>2018-08-24T09:59:36Z</time>
      </trkpt>
      <trkpt lat="42.664636" lon="-1.963359">
        <ele>486.6</ele>
        <time>2018-08-24T09:59:53Z</time>
      </trkpt>
      <trkpt lat="42.664582" lon="-1.963587">
        <ele>484.6</ele>
        <time>2018-08-24T10:00:08Z</time>
      </trkpt>
      <trkpt lat="42.664559" lon="-1.963873">
        <ele>483.7</ele>
        <time>2018-08-24T10:00:25Z</time>
      </trkpt>
      <trkpt lat="42.664544" lon="-1.964022">
        <ele>483.7</ele>
        <time>2018-08-24T10:00:34Z</time>
      </trkpt>
      <trkpt lat="42.664555" lon="-1.964194">
        <ele>483.2</ele>
        <time>2018-08-24T10:00:44Z</time>
      </trkpt>
      <trkpt lat="42.664577" lon="-1.964516">
        <ele>482.2</ele>
        <time>2018-08-24T10:01:03Z</time>
      </trkpt>
      <trkpt lat="42.664604" lon="-1.964796">
        <ele>481.3</ele>
        <time>2018-08-24T10:01:19Z</time>
      </trkpt>
      <trkpt lat="42.664658" lon="-1.965043">
        <ele>481.8</ele>
        <time>2018-08-24T10:01:34Z</time>
      </trkpt>
      <trkpt lat="42.664680" lon="-1.965096">
        <ele>481.8</ele>
        <time>2018-08-24T10:01:38Z</time>
      </trkpt>
      <trkpt lat="42.664694" lon="-1.965201">
        <ele>481.8</ele>
        <time>2018-08-24T10:01:45Z</time>
      </trkpt>
      <trkpt lat="42.664695" lon="-1.965272">
        <ele>481.8</ele>
        <time>2018-08-24T10:01:50Z</time>
      </trkpt>
      <trkpt lat="42.664675" lon="-1.965617">
        <ele>480.3</ele>
        <time>2018-08-24T10:02:08Z</time>
      </trkpt>
      <trkpt lat="42.664654" lon="-1.965900">
        <ele>479.4</ele>
        <time>2018-08-24T10:02:24Z</time>
      </trkpt>
      <trkpt lat="42.664646" lon="-1.966207">
        <ele>478.4</ele>
        <time>2018-08-24T10:02:42Z</time>
      </trkpt>
      <trkpt lat="42.664616" lon="-1.966475">
        <ele>478.4</ele>
        <time>2018-08-24T10:02:58Z</time>
      </trkpt>
      <trkpt lat="42.664602" lon="-1.966606">
        <ele>477.4</ele>
        <time>2018-08-24T10:03:06Z</time>
      </trkpt>
      <trkpt lat="42.664597" lon="-1.966709">
        <ele>477.0</ele>
        <time>2018-08-24T10:03:13Z</time>
      </trkpt>
      <trkpt lat="42.664577" lon="-1.967017">
        <ele>477.4</ele>
        <time>2018-08-24T10:03:31Z</time>
      </trkpt>
      <trkpt lat="42.664548" lon="-1.967285">
        <ele>477.0</ele>
        <time>2018-08-24T10:03:47Z</time>
      </trkpt>
      <trkpt lat="42.664504" lon="-1.967565">
        <ele>477.0</ele>
        <time>2018-08-24T10:04:03Z</time>
      </trkpt>
      <trkpt lat="42.664455" lon="-1.967851">
        <ele>475.0</ele>
        <time>2018-08-24T10:04:19Z</time>
      </trkpt>
      <trkpt lat="42.664445" lon="-1.968145">
        <ele>473.6</ele>
        <time>2018-08-24T10:04:36Z</time>
      </trkpt>
      <trkpt lat="42.664426" lon="-1.968275">
        <ele>473.1</ele>
        <time>2018-08-24T10:04:43Z</time>
      </trkpt>
      <trkpt lat="42.664440" lon="-1.968494">
        <ele>472.1</ele>
        <time>2018-08-24T10:04:57Z</time>
      </trkpt>
      <trkpt lat="42.664441" lon="-1.968620">
        <ele>471.7</ele>
        <time>2018-08-24T10:05:04Z</time>
      </trkpt>
      <trkpt lat="42.664427" lon="-1.968887">
        <ele>469.7</ele>
        <time>2018-08-24T10:05:20Z</time>
      </trkpt>
      <trkpt lat="42.664394" lon="-1.969161">
        <ele>468.8</ele>
        <time>2018-08-24T10:05:36Z</time>
      </trkpt>
      <trkpt lat="42.664386" lon="-1.969240">
        <ele>468.8</ele>
        <time>2018-08-24T10:05:41Z</time>
      </trkpt>
      <trkpt lat="42.664318" lon="-1.969499">
        <ele>467.3</ele>
        <time>2018-08-24T10:05:57Z</time>
      </trkpt>
      <trkpt lat="42.664207" lon="-1.969766">
        <ele>465.9</ele>
        <time>2018-08-24T10:06:14Z</time>
      </trkpt>
      <trkpt lat="42.664105" lon="-1.970040">
        <ele>464.5</ele>
        <time>2018-08-24T10:06:32Z</time>
      </trkpt>
      <trkpt lat="42.664002" lon="-1.970282">
        <ele>464.5</ele>
        <time>2018-08-24T10:06:50Z</time>
      </trkpt>
      <trkpt lat="42.663971" lon="-1.970434">
        <ele>464.0</ele>
        <time>2018-08-24T10:06:59Z</time>
      </trkpt>
      <trkpt lat="42.663971" lon="-1.970510">
        <ele>463.5</ele>
        <time>2018-08-24T10:07:03Z</time>
      </trkpt>
      <trkpt lat="42.663930" lon="-1.970805">
        <ele>462.5</ele>
        <time>2018-08-24T10:07:20Z</time>
      </trkpt>
      <trkpt lat="42.663925" lon="-1.971078">
        <ele>462.0</ele>
        <time>2018-08-24T10:07:36Z</time>
      </trkpt>
      <trkpt lat="42.663913" lon="-1.971363">
        <ele>462.0</ele>
        <time>2018-08-24T10:07:52Z</time>
      </trkpt>
      <trkpt lat="42.663890" lon="-1.971642">
        <ele>462.0</ele>
        <time>2018-08-24T10:08:08Z</time>
      </trkpt>
      <trkpt lat="42.663875" lon="-1.971935">
        <ele>462.0</ele>
        <time>2018-08-24T10:08:24Z</time>
      </trkpt>
      <trkpt lat="42.663869" lon="-1.972252">
        <ele>461.1</ele>
        <time>2018-08-24T10:08:42Z</time>
      </trkpt>
      <trkpt lat="42.663869" lon="-1.972525">
        <ele>460.6</ele>
        <time>2018-08-24T10:08:57Z</time>
      </trkpt>
      <trkpt lat="42.663861" lon="-1.972799">
        <ele>460.6</ele>
        <time>2018-08-24T10:09:13Z</time>
      </trkpt>
      <trkpt lat="42.663835" lon="-1.973082">
        <ele>460.1</ele>
        <time>2018-08-24T10:09:28Z</time>
      </trkpt>
      <trkpt lat="42.663831" lon="-1.973338">
        <ele>458.7</ele>
        <time>2018-08-24T10:09:43Z</time>
      </trkpt>
      <trkpt lat="42.663828" lon="-1.973634">
        <ele>458.2</ele>
        <time>2018-08-24T10:10:00Z</time>
      </trkpt>
      <trkpt lat="42.663812" lon="-1.973924">
        <ele>457.7</ele>
        <time>2018-08-24T10:10:16Z</time>
      </trkpt>
      <trkpt lat="42.663807" lon="-1.974203">
        <ele>456.8</ele>
        <time>2018-08-24T10:10:32Z</time>
      </trkpt>
      <trkpt lat="42.663797" lon="-1.974521">
        <ele>456.3</ele>
        <time>2018-08-24T10:10:50Z</time>
      </trkpt>
      <trkpt lat="42.663780" lon="-1.974847">
        <ele>455.8</ele>
        <time>2018-08-24T10:11:08Z</time>
      </trkpt>
      <trkpt lat="42.663775" lon="-1.975183">
        <ele>455.3</ele>
        <time>2018-08-24T10:11:27Z</time>
      </trkpt>
      <trkpt lat="42.663716" lon="-1.975482">
        <ele>454.8</ele>
        <time>2018-08-24T10:11:44Z</time>
      </trkpt>
      <trkpt lat="42.663700" lon="-1.975505">
        <ele>454.8</ele>
        <time>2018-08-24T10:11:46Z</time>
      </trkpt>
      <trkpt lat="42.663519" lon="-1.975620">
        <ele>452.9</ele>
        <time>2018-08-24T10:12:02Z</time>
      </trkpt>
      <trkpt lat="42.663351" lon="-1.975553">
        <ele>452.0</ele>
        <time>2018-08-24T10:12:16Z</time>
      </trkpt>
      <trkpt lat="42.663318" lon="-1.975527">
        <ele>452.4</ele>
        <time>2018-08-24T10:12:19Z</time>
      </trkpt>
      <trkpt lat="42.663256" lon="-1.975567">
        <ele>452.0</ele>
        <time>2018-08-24T10:12:24Z</time>
      </trkpt>
      <trkpt lat="42.663130" lon="-1.975872">
        <ele>451.0</ele>
        <time>2018-08-24T10:12:43Z</time>
      </trkpt>
      <trkpt lat="42.663035" lon="-1.976141">
        <ele>451.0</ele>
        <time>2018-08-24T10:13:00Z</time>
      </trkpt>
      <trkpt lat="42.663013" lon="-1.976504">
        <ele>449.1</ele>
        <time>2018-08-24T10:13:20Z</time>
      </trkpt>
      <trkpt lat="42.663071" lon="-1.976764">
        <ele>448.6</ele>
        <time>2018-08-24T10:13:36Z</time>
      </trkpt>
      <trkpt lat="42.663102" lon="-1.976986">
        <ele>448.1</ele>
        <time>2018-08-24T10:13:49Z</time>
      </trkpt>
      <trkpt lat="42.663173" lon="-1.977282">
        <ele>447.6</ele>
        <time>2018-08-24T10:14:07Z</time>
      </trkpt>
      <trkpt lat="42.663238" lon="-1.977537">
        <ele>446.2</ele>
        <time>2018-08-24T10:14:22Z</time>
      </trkpt>
      <trkpt lat="42.663303" lon="-1.977805">
        <ele>446.2</ele>
        <time>2018-08-24T10:14:38Z</time>
      </trkpt>
      <trkpt lat="42.663330" lon="-1.977892">
        <ele>446.2</ele>
        <time>2018-08-24T10:14:43Z</time>
      </trkpt>
      <trkpt lat="42.663396" lon="-1.978186">
        <ele>445.7</ele>
        <time>2018-08-24T10:15:01Z</time>
      </trkpt>
      <trkpt lat="42.663487" lon="-1.978448">
        <ele>445.2</ele>
        <time>2018-08-24T10:15:19Z</time>
      </trkpt>
      <trkpt lat="42.663502" lon="-1.978518">
        <ele>441.4</ele>
        <time>2018-08-24T10:15:24Z</time>
      </trkpt>
      <trkpt lat="42.663504" lon="-1.978533">
        <ele>441.4</ele>
        <time>2018-08-24T10:15:25Z</time>
      </trkpt>
      <trkpt lat="42.663506" lon="-1.978549">
        <ele>448.6</ele>
        <time>2018-08-24T10:15:26Z</time>
      </trkpt>
      <trkpt lat="42.663509" lon="-1.978564">
        <ele>444.8</ele>
        <time>2018-08-24T10:15:27Z</time>
      </trkpt>
      <trkpt lat="42.663549" lon="-1.978848">
        <ele>443.8</ele>
        <time>2018-08-24T10:15:45Z</time>
      </trkpt>
      <trkpt lat="42.663648" lon="-1.979250">
        <ele>443.3</ele>
        <time>2018-08-24T10:16:04Z</time>
      </trkpt>
      <trkpt lat="42.663716" lon="-1.979549">
        <ele>442.8</ele>
        <time>2018-08-24T10:16:22Z</time>
      </trkpt>
      <trkpt lat="42.663715" lon="-1.979574">
        <ele>442.8</ele>
        <time>2018-08-24T10:16:24Z</time>
      </trkpt>
      <trkpt lat="42.663723" lon="-1.979682">
        <ele>442.8</ele>
        <time>2018-08-24T10:16:33Z</time>
      </trkpt>
      <trkpt lat="42.663729" lon="-1.979994">
        <ele>442.3</ele>
        <time>2018-08-24T10:16:50Z</time>
      </trkpt>
      <trkpt lat="42.663726" lon="-1.980033">
        <ele>442.3</ele>
        <time>2018-08-24T10:16:52Z</time>
      </trkpt>
      <trkpt lat="42.663724" lon="-1.980341">
        <ele>441.9</ele>
        <time>2018-08-24T10:17:10Z</time>
      </trkpt>
      <trkpt lat="42.663682" lon="-1.980618">
        <ele>441.9</ele>
        <time>2018-08-24T10:17:27Z</time>
      </trkpt>
      <trkpt lat="42.663589" lon="-1.980899">
        <ele>441.4</ele>
        <time>2018-08-24T10:17:44Z</time>
      </trkpt>
      <trkpt lat="42.663509" lon="-1.981183">
        <ele>440.9</ele>
        <time>2018-08-24T10:18:01Z</time>
      </trkpt>
      <trkpt lat="42.663493" lon="-1.981477">
        <ele>439.9</ele>
        <time>2018-08-24T10:18:17Z</time>
      </trkpt>
      <trkpt lat="42.663497" lon="-1.981794">
        <ele>440.4</ele>
        <time>2018-08-24T10:18:35Z</time>
      </trkpt>
      <trkpt lat="42.663504" lon="-1.982087">
        <ele>440.4</ele>
        <time>2018-08-24T10:18:51Z</time>
      </trkpt>
      <trkpt lat="42.663506" lon="-1.982366">
        <ele>439.9</ele>
        <time>2018-08-24T10:19:07Z</time>
      </trkpt>
      <trkpt lat="42.663513" lon="-1.982486">
        <ele>439.9</ele>
        <time>2018-08-24T10:19:17Z</time>
      </trkpt>
      <trkpt lat="42.663513" lon="-1.982767">
        <ele>439.0</ele>
        <time>2018-08-24T10:19:32Z</time>
      </trkpt>
      <trkpt lat="42.663521" lon="-1.983067">
        <ele>439.0</ele>
        <time>2018-08-24T10:19:49Z</time>
      </trkpt>
      <trkpt lat="42.663526" lon="-1.983352">
        <ele>438.5</ele>
        <time>2018-08-24T10:20:05Z</time>
      </trkpt>
      <trkpt lat="42.663535" lon="-1.983415">
        <ele>438.5</ele>
        <time>2018-08-24T10:20:09Z</time>
      </trkpt>
      <trkpt lat="42.663553" lon="-1.983610">
        <ele>438.5</ele>
        <time>2018-08-24T10:20:21Z</time>
      </trkpt>
      <trkpt lat="42.663562" lon="-1.983900">
        <ele>438.0</ele>
        <time>2018-08-24T10:20:37Z</time>
      </trkpt>
      <trkpt lat="42.663609" lon="-1.984210">
        <ele>438.0</ele>
        <time>2018-08-24T10:20:54Z</time>
      </trkpt>
      <trkpt lat="42.663587" lon="-1.984457">
        <ele>437.1</ele>
        <time>2018-08-24T10:21:09Z</time>
      </trkpt>
      <trkpt lat="42.663524" lon="-1.984772">
        <ele>437.1</ele>
        <time>2018-08-24T10:21:28Z</time>
      </trkpt>
      <trkpt lat="42.663477" lon="-1.985063">
        <ele>437.5</ele>
        <time>2018-08-24T10:21:45Z</time>
      </trkpt>
      <trkpt lat="42.663526" lon="-1.985352">
        <ele>437.1</ele>
        <time>2018-08-24T10:22:02Z</time>
      </trkpt>
      <trkpt lat="42.663565" lon="-1.985641">
        <ele>435.6</ele>
        <time>2018-08-24T10:22:19Z</time>
      </trkpt>
      <trkpt lat="42.663588" lon="-1.985765">
        <ele>434.6</ele>
        <time>2018-08-24T10:22:27Z</time>
      </trkpt>
      <trkpt lat="42.663602" lon="-1.985977">
        <ele>435.1</ele>
        <time>2018-08-24T10:22:40Z</time>
      </trkpt>
      <trkpt lat="42.663570" lon="-1.986034">
        <ele>435.1</ele>
        <time>2018-08-24T10:22:44Z</time>
      </trkpt>
      <trkpt lat="42.663560" lon="-1.986376">
        <ele>434.6</ele>
        <time>2018-08-24T10:23:03Z</time>
      </trkpt>
      <trkpt lat="42.663561" lon="-1.986392">
        <ele>435.1</ele>
        <time>2018-08-24T10:23:04Z</time>
      </trkpt>
      <trkpt lat="42.663600" lon="-1.986607">
        <ele>435.6</ele>
        <time>2018-08-24T10:23:18Z</time>
      </trkpt>
      <trkpt lat="42.663601" lon="-1.986635">
        <ele>434.6</ele>
        <time>2018-08-24T10:23:31Z</time>
      </trkpt>
      <trkpt lat="42.663539" lon="-1.986674">
        <ele>434.6</ele>
        <time>2018-08-24T10:23:36Z</time>
      </trkpt>
      <trkpt lat="42.663340" lon="-1.986853">
        <ele>433.7</ele>
        <time>2018-08-24T10:23:55Z</time>
      </trkpt>
      <trkpt lat="42.663199" lon="-1.987029">
        <ele>433.7</ele>
        <time>2018-08-24T10:24:10Z</time>
      </trkpt>
      <trkpt lat="42.663071" lon="-1.987201">
        <ele>433.2</ele>
        <time>2018-08-24T10:24:24Z</time>
      </trkpt>
      <trkpt lat="42.662973" lon="-1.987371">
        <ele>432.7</ele>
        <time>2018-08-24T10:24:39Z</time>
      </trkpt>
      <trkpt lat="42.662835" lon="-1.987618">
        <ele>432.2</ele>
        <time>2018-08-24T10:24:56Z</time>
      </trkpt>
      <trkpt lat="42.662744" lon="-1.987817">
        <ele>432.2</ele>
        <time>2018-08-24T10:25:10Z</time>
      </trkpt>
      <trkpt lat="42.662706" lon="-1.987920">
        <ele>428.4</ele>
        <time>2018-08-24T10:25:17Z</time>
      </trkpt>
      <trkpt lat="42.662700" lon="-1.987939">
        <ele>433.7</ele>
        <time>2018-08-24T10:25:18Z</time>
      </trkpt>
      <trkpt lat="42.662695" lon="-1.987956">
        <ele>429.9</ele>
        <time>2018-08-24T10:25:19Z</time>
      </trkpt>
      <trkpt lat="42.662673" lon="-1.988004">
        <ele>433.2</ele>
        <time>2018-08-24T10:25:22Z</time>
      </trkpt>
      <trkpt lat="42.662647" lon="-1.988079">
        <ele>430.3</ele>
        <time>2018-08-24T10:25:27Z</time>
      </trkpt>
      <trkpt lat="42.662592" lon="-1.988208">
        <ele>430.8</ele>
        <time>2018-08-24T10:25:36Z</time>
      </trkpt>
      <trkpt lat="42.662489" lon="-1.988440">
        <ele>429.4</ele>
        <time>2018-08-24T10:25:53Z</time>
      </trkpt>
      <trkpt lat="42.662405" lon="-1.988624">
        <ele>430.8</ele>
        <time>2018-08-24T10:26:08Z</time>
      </trkpt>
      <trkpt lat="42.662311" lon="-1.988814">
        <ele>430.8</ele>
        <time>2018-08-24T10:26:24Z</time>
      </trkpt>
      <trkpt lat="42.662134" lon="-1.989042">
        <ele>430.3</ele>
        <time>2018-08-24T10:26:43Z</time>
      </trkpt>
      <trkpt lat="42.661942" lon="-1.989274">
        <ele>429.9</ele>
        <time>2018-08-24T10:27:02Z</time>
      </trkpt>
      <trkpt lat="42.661778" lon="-1.989464">
        <ele>430.3</ele>
        <time>2018-08-24T10:27:19Z</time>
      </trkpt>
      <trkpt lat="42.661714" lon="-1.989546">
        <ele>429.4</ele>
        <time>2018-08-24T10:27:32Z</time>
      </trkpt>
      <trkpt lat="42.661547" lon="-1.989668">
        <ele>429.4</ele>
        <time>2018-08-24T10:27:48Z</time>
      </trkpt>
      <trkpt lat="42.661435" lon="-1.989704">
        <ele>429.4</ele>
        <time>2018-08-24T10:28:00Z</time>
      </trkpt>
      <trkpt lat="42.661368" lon="-1.989737">
        <ele>428.4</ele>
        <time>2018-08-24T10:28:07Z</time>
      </trkpt>
      <trkpt lat="42.661263" lon="-1.989947">
        <ele>429.4</ele>
        <time>2018-08-24T10:28:22Z</time>
      </trkpt>
      <trkpt lat="42.661193" lon="-1.990077">
        <ele>429.4</ele>
        <time>2018-08-24T10:28:35Z</time>
      </trkpt>
      <trkpt lat="42.661187" lon="-1.990109">
        <ele>429.9</ele>
        <time>2018-08-24T10:28:37Z</time>
      </trkpt>
      <trkpt lat="42.661254" lon="-1.990334">
        <ele>430.3</ele>
        <time>2018-08-24T10:28:52Z</time>
      </trkpt>
      <trkpt lat="42.661264" lon="-1.990372">
        <ele>430.3</ele>
        <time>2018-08-24T10:28:54Z</time>
      </trkpt>
      <trkpt lat="42.661264" lon="-1.990595">
        <ele>430.8</ele>
        <time>2018-08-24T10:29:00Z</time>
      </trkpt>
      <trkpt lat="42.661027" lon="-1.990647">
        <ele>429.9</ele>
        <time>2018-08-24T10:29:20Z</time>
      </trkpt>
      <trkpt lat="42.660836" lon="-1.990729">
        <ele>428.9</ele>
        <time>2018-08-24T10:29:37Z</time>
      </trkpt>
      <trkpt lat="42.660654" lon="-1.990810">
        <ele>429.4</ele>
        <time>2018-08-24T10:29:53Z</time>
      </trkpt>
      <trkpt lat="42.660633" lon="-1.990876">
        <ele>428.9</ele>
        <time>2018-08-24T10:29:59Z</time>
      </trkpt>
      <trkpt lat="42.660608" lon="-1.990893">
        <ele>428.9</ele>
        <time>2018-08-24T10:30:01Z</time>
      </trkpt>
      <trkpt lat="42.660522" lon="-1.990933">
        <ele>428.9</ele>
        <time>2018-08-24T10:30:07Z</time>
      </trkpt>
      <trkpt lat="42.660307" lon="-1.991118">
        <ele>427.9</ele>
        <time>2018-08-24T10:30:24Z</time>
      </trkpt>
      <trkpt lat="42.660193" lon="-1.991285">
        <ele>427.0</ele>
        <time>2018-08-24T10:30:39Z</time>
      </trkpt>
      <trkpt lat="42.660041" lon="-1.991381">
        <ele>427.0</ele>
        <time>2018-08-24T10:30:53Z</time>
      </trkpt>
      <trkpt lat="42.659954" lon="-1.991423">
        <ele>426.0</ele>
        <time>2018-08-24T10:31:00Z</time>
      </trkpt>
      <trkpt lat="42.659897" lon="-1.991430">
        <ele>426.0</ele>
        <time>2018-08-24T10:31:03Z</time>
      </trkpt>
      <trkpt lat="42.659647" lon="-1.991535">
        <ele>426.0</ele>
        <time>2018-08-24T10:31:20Z</time>
      </trkpt>
      <trkpt lat="42.659529" lon="-1.991565">
        <ele>425.5</ele>
        <time>2018-08-24T10:31:30Z</time>
      </trkpt>
      <trkpt lat="42.659438" lon="-1.991632">
        <ele>425.0</ele>
        <time>2018-08-24T10:31:41Z</time>
      </trkpt>
      <trkpt lat="42.659378" lon="-1.991704">
        <ele>425.0</ele>
        <time>2018-08-24T10:31:54Z</time>
      </trkpt>
      <trkpt lat="42.659350" lon="-1.991707">
        <ele>425.0</ele>
        <time>2018-08-24T10:32:21Z</time>
      </trkpt>
      <trkpt lat="42.659260" lon="-1.991552">
        <ele>425.0</ele>
        <time>2018-08-24T10:38:02Z</time>
      </trkpt>
      <trkpt lat="42.659225" lon="-1.991595">
        <ele>424.1</ele>
        <time>2018-08-24T10:38:37Z</time>
      </trkpt>
      <trkpt lat="42.659205" lon="-1.991686">
        <ele>426.0</ele>
        <time>2018-08-24T10:48:48Z</time>
      </trkpt>
      <trkpt lat="42.659207" lon="-1.991701">
        <ele>426.0</ele>
        <time>2018-08-24T10:49:24Z</time>
      </trkpt>
      <trkpt lat="42.659210" lon="-1.991729">
        <ele>426.0</ele>
        <time>2018-08-24T10:49:56Z</time>
      </trkpt>
      <trkpt lat="42.659231" lon="-1.991774">
        <ele>427.0</ele>
        <time>2018-08-24T10:52:26Z</time>
      </trkpt>
      <trkpt lat="42.659260" lon="-1.991818">
        <ele>427.0</ele>
        <time>2018-08-24T10:53:07Z</time>
      </trkpt>
      <trkpt lat="42.659282" lon="-1.991807">
        <ele>427.0</ele>
        <time>2018-08-24T10:53:39Z</time>
      </trkpt>
      <trkpt lat="42.659330" lon="-1.991810">
        <ele>430.3</ele>
        <time>2018-08-24T11:09:44Z</time>
      </trkpt>
      <trkpt lat="42.659406" lon="-1.991866">
        <ele>430.3</ele>
        <time>2018-08-24T11:09:57Z</time>
      </trkpt>
      <trkpt lat="42.659400" lon="-1.991903">
        <ele>430.8</ele>
        <time>2018-08-24T11:10:02Z</time>
      </trkpt>
      <trkpt lat="42.659351" lon="-1.991966">
        <ele>433.2</ele>
        <time>2018-08-24T11:10:16Z</time>
      </trkpt>
      <trkpt lat="42.659335" lon="-1.992004">
        <ele>432.7</ele>
        <time>2018-08-24T11:10:27Z</time>
      </trkpt>
      <trkpt lat="42.659291" lon="-1.992098">
        <ele>430.8</ele>
        <time>2018-08-24T11:10:37Z</time>
      </trkpt>
      <trkpt lat="42.659246" lon="-1.992099">
        <ele>430.3</ele>
        <time>2018-08-24T11:10:41Z</time>
      </trkpt>
      <trkpt lat="42.659112" lon="-1.992152">
        <ele>429.4</ele>
        <time>2018-08-24T11:10:54Z</time>
      </trkpt>
      <trkpt lat="42.658949" lon="-1.992210">
        <ele>430.8</ele>
        <time>2018-08-24T11:11:10Z</time>
      </trkpt>
      <trkpt lat="42.658779" lon="-1.992391">
        <ele>431.8</ele>
        <time>2018-08-24T11:11:28Z</time>
      </trkpt>
      <trkpt lat="42.658767" lon="-1.992416">
        <ele>432.2</ele>
        <time>2018-08-24T11:11:30Z</time>
      </trkpt>
      <trkpt lat="42.658651" lon="-1.992600">
        <ele>432.2</ele>
        <time>2018-08-24T11:11:46Z</time>
      </trkpt>
      <trkpt lat="42.658562" lon="-1.992851">
        <ele>433.7</ele>
        <time>2018-08-24T11:12:02Z</time>
      </trkpt>
      <trkpt lat="42.658533" lon="-1.992940">
        <ele>434.6</ele>
        <time>2018-08-24T11:12:10Z</time>
      </trkpt>
      <trkpt lat="42.658508" lon="-1.993121">
        <ele>435.1</ele>
        <time>2018-08-24T11:12:22Z</time>
      </trkpt>
      <trkpt lat="42.658476" lon="-1.993243">
        <ele>436.1</ele>
        <time>2018-08-24T11:12:34Z</time>
      </trkpt>
      <trkpt lat="42.658448" lon="-1.993341">
        <ele>436.6</ele>
        <time>2018-08-24T11:12:43Z</time>
      </trkpt>
      <trkpt lat="42.658429" lon="-1.993364">
        <ele>437.1</ele>
        <time>2018-08-24T11:12:45Z</time>
      </trkpt>
      <trkpt lat="42.658404" lon="-1.993444">
        <ele>437.5</ele>
        <time>2018-08-24T11:12:51Z</time>
      </trkpt>
      <trkpt lat="42.658361" lon="-1.993598">
        <ele>438.5</ele>
        <time>2018-08-24T11:13:02Z</time>
      </trkpt>
      <trkpt lat="42.658347" lon="-1.993651">
        <ele>439.5</ele>
        <time>2018-08-24T11:13:06Z</time>
      </trkpt>
      <trkpt lat="42.658325" lon="-1.993692">
        <ele>439.9</ele>
        <time>2018-08-24T11:13:10Z</time>
      </trkpt>
      <trkpt lat="42.658317" lon="-1.993728">
        <ele>440.9</ele>
        <time>2018-08-24T11:13:13Z</time>
      </trkpt>
      <trkpt lat="42.658296" lon="-1.993767">
        <ele>441.4</ele>
        <time>2018-08-24T11:13:17Z</time>
      </trkpt>
      <trkpt lat="42.658276" lon="-1.993863">
        <ele>441.9</ele>
        <time>2018-08-24T11:13:25Z</time>
      </trkpt>
      <trkpt lat="42.658227" lon="-1.993925">
        <ele>443.3</ele>
        <time>2018-08-24T11:13:40Z</time>
      </trkpt>
      <trkpt lat="42.658227" lon="-1.993939">
        <ele>443.3</ele>
        <time>2018-08-24T11:13:41Z</time>
      </trkpt>
      <trkpt lat="42.658226" lon="-1.994126">
        <ele>444.8</ele>
        <time>2018-08-24T11:13:53Z</time>
      </trkpt>
      <trkpt lat="42.658243" lon="-1.994191">
        <ele>445.2</ele>
        <time>2018-08-24T11:13:57Z</time>
      </trkpt>
      <trkpt lat="42.658253" lon="-1.994219">
        <ele>445.2</ele>
        <time>2018-08-24T11:13:59Z</time>
      </trkpt>
      <trkpt lat="42.658258" lon="-1.994254">
        <ele>445.7</ele>
        <time>2018-08-24T11:14:01Z</time>
      </trkpt>
      <trkpt lat="42.658279" lon="-1.994318">
        <ele>447.1</ele>
        <time>2018-08-24T11:14:06Z</time>
      </trkpt>
      <trkpt lat="42.658307" lon="-1.994448">
        <ele>446.7</ele>
        <time>2018-08-24T11:14:18Z</time>
      </trkpt>
      <trkpt lat="42.658323" lon="-1.994491">
        <ele>447.6</ele>
        <time>2018-08-24T11:14:21Z</time>
      </trkpt>
      <trkpt lat="42.658403" lon="-1.994686">
        <ele>447.6</ele>
        <time>2018-08-24T11:14:35Z</time>
      </trkpt>
      <trkpt lat="42.658413" lon="-1.994711">
        <ele>448.1</ele>
        <time>2018-08-24T11:14:37Z</time>
      </trkpt>
      <trkpt lat="42.658577" lon="-1.994856">
        <ele>448.1</ele>
        <time>2018-08-24T11:14:52Z</time>
      </trkpt>
      <trkpt lat="42.658686" lon="-1.994920">
        <ele>448.6</ele>
        <time>2018-08-24T11:15:01Z</time>
      </trkpt>
      <trkpt lat="42.658721" lon="-1.994922">
        <ele>448.6</ele>
        <time>2018-08-24T11:15:04Z</time>
      </trkpt>
      <trkpt lat="42.658877" lon="-1.995082">
        <ele>448.6</ele>
        <time>2018-08-24T11:15:20Z</time>
      </trkpt>
      <trkpt lat="42.658915" lon="-1.995149">
        <ele>448.6</ele>
        <time>2018-08-24T11:15:25Z</time>
      </trkpt>
      <trkpt lat="42.658928" lon="-1.995177">
        <ele>448.6</ele>
        <time>2018-08-24T11:15:27Z</time>
      </trkpt>
      <trkpt lat="42.659066" lon="-1.995283">
        <ele>448.1</ele>
        <time>2018-08-24T11:15:40Z</time>
      </trkpt>
      <trkpt lat="42.659276" lon="-1.995473">
        <ele>447.6</ele>
        <time>2018-08-24T11:15:59Z</time>
      </trkpt>
      <trkpt lat="42.659392" lon="-1.995647">
        <ele>448.6</ele>
        <time>2018-08-24T11:16:13Z</time>
      </trkpt>
      <trkpt lat="42.659432" lon="-1.995722">
        <ele>448.6</ele>
        <time>2018-08-24T11:16:19Z</time>
      </trkpt>
      <trkpt lat="42.659456" lon="-1.995777">
        <ele>448.1</ele>
        <time>2018-08-24T11:16:23Z</time>
      </trkpt>
      <trkpt lat="42.659559" lon="-1.996002">
        <ele>448.6</ele>
        <time>2018-08-24T11:16:39Z</time>
      </trkpt>
      <trkpt lat="42.659664" lon="-1.996200">
        <ele>448.1</ele>
        <time>2018-08-24T11:16:53Z</time>
      </trkpt>
      <trkpt lat="42.659713" lon="-1.996392">
        <ele>449.1</ele>
        <time>2018-08-24T11:17:08Z</time>
      </trkpt>
      <trkpt lat="42.659776" lon="-1.996567">
        <ele>449.5</ele>
        <time>2018-08-24T11:17:20Z</time>
      </trkpt>
      <trkpt lat="42.659853" lon="-1.996852">
        <ele>450.0</ele>
        <time>2018-08-24T11:17:37Z</time>
      </trkpt>
      <trkpt lat="42.659871" lon="-1.996916">
        <ele>449.5</ele>
        <time>2018-08-24T11:17:41Z</time>
      </trkpt>
      <trkpt lat="42.659922" lon="-1.997128">
        <ele>449.5</ele>
        <time>2018-08-24T11:17:55Z</time>
      </trkpt>
      <trkpt lat="42.659961" lon="-1.997299">
        <ele>449.5</ele>
        <time>2018-08-24T11:18:05Z</time>
      </trkpt>
      <trkpt lat="42.660013" lon="-1.997630">
        <ele>449.5</ele>
        <time>2018-08-24T11:18:24Z</time>
      </trkpt>
      <trkpt lat="42.660049" lon="-1.997825">
        <ele>449.1</ele>
        <time>2018-08-24T11:18:39Z</time>
      </trkpt>
      <trkpt lat="42.660065" lon="-1.997875">
        <ele>448.6</ele>
        <time>2018-08-24T11:18:43Z</time>
      </trkpt>
      <trkpt lat="42.660122" lon="-1.997961">
        <ele>448.1</ele>
        <time>2018-08-24T11:18:48Z</time>
      </trkpt>
      <trkpt lat="42.660181" lon="-1.998085">
        <ele>448.6</ele>
        <time>2018-08-24T11:18:56Z</time>
      </trkpt>
      <trkpt lat="42.660275" lon="-1.998319">
        <ele>448.1</ele>
        <time>2018-08-24T11:19:11Z</time>
      </trkpt>
      <trkpt lat="42.660374" lon="-1.998607">
        <ele>447.1</ele>
        <time>2018-08-24T11:19:29Z</time>
      </trkpt>
      <trkpt lat="42.660473" lon="-1.998887">
        <ele>446.7</ele>
        <time>2018-08-24T11:19:47Z</time>
      </trkpt>
      <trkpt lat="42.660502" lon="-1.998972">
        <ele>447.6</ele>
        <time>2018-08-24T11:19:53Z</time>
      </trkpt>
      <trkpt lat="42.660585" lon="-1.999210">
        <ele>447.1</ele>
        <time>2018-08-24T11:20:09Z</time>
      </trkpt>
      <trkpt lat="42.660630" lon="-1.999386">
        <ele>447.6</ele>
        <time>2018-08-24T11:20:20Z</time>
      </trkpt>
      <trkpt lat="42.660657" lon="-1.999676">
        <ele>448.1</ele>
        <time>2018-08-24T11:20:37Z</time>
      </trkpt>
      <trkpt lat="42.660685" lon="-1.999965">
        <ele>449.1</ele>
        <time>2018-08-24T11:20:54Z</time>
      </trkpt>
      <trkpt lat="42.660721" lon="-2.000257">
        <ele>449.1</ele>
        <time>2018-08-24T11:21:11Z</time>
      </trkpt>
      <trkpt lat="42.660740" lon="-2.000403">
        <ele>449.5</ele>
        <time>2018-08-24T11:21:20Z</time>
      </trkpt>
      <trkpt lat="42.660750" lon="-2.000500">
        <ele>449.5</ele>
        <time>2018-08-24T11:21:26Z</time>
      </trkpt>
      <trkpt lat="42.660808" lon="-2.000779">
        <ele>450.5</ele>
        <time>2018-08-24T11:21:44Z</time>
      </trkpt>
      <trkpt lat="42.660853" lon="-2.000983">
        <ele>450.5</ele>
        <time>2018-08-24T11:21:57Z</time>
      </trkpt>
      <trkpt lat="42.660881" lon="-2.001181">
        <ele>450.5</ele>
        <time>2018-08-24T11:22:09Z</time>
      </trkpt>
      <trkpt lat="42.660919" lon="-2.001444">
        <ele>450.5</ele>
        <time>2018-08-24T11:22:25Z</time>
      </trkpt>
      <trkpt lat="42.660953" lon="-2.001685">
        <ele>452.0</ele>
        <time>2018-08-24T11:22:40Z</time>
      </trkpt>
      <trkpt lat="42.660974" lon="-2.001961">
        <ele>452.9</ele>
        <time>2018-08-24T11:22:56Z</time>
      </trkpt>
      <trkpt lat="42.661038" lon="-2.002249">
        <ele>452.9</ele>
        <time>2018-08-24T11:23:13Z</time>
      </trkpt>
      <trkpt lat="42.661162" lon="-2.002462">
        <ele>452.4</ele>
        <time>2018-08-24T11:23:29Z</time>
      </trkpt>
      <trkpt lat="42.661196" lon="-2.002525">
        <ele>452.4</ele>
        <time>2018-08-24T11:23:33Z</time>
      </trkpt>
      <trkpt lat="42.661239" lon="-2.002586">
        <ele>452.4</ele>
        <time>2018-08-24T11:23:38Z</time>
      </trkpt>
      <trkpt lat="42.661315" lon="-2.002691">
        <ele>453.4</ele>
        <time>2018-08-24T11:23:46Z</time>
      </trkpt>
      <trkpt lat="42.661369" lon="-2.002776">
        <ele>453.4</ele>
        <time>2018-08-24T11:23:53Z</time>
      </trkpt>
      <trkpt lat="42.661394" lon="-2.002870">
        <ele>454.8</ele>
        <time>2018-08-24T11:24:00Z</time>
      </trkpt>
      <trkpt lat="42.661401" lon="-2.003161">
        <ele>454.8</ele>
        <time>2018-08-24T11:24:18Z</time>
      </trkpt>
      <trkpt lat="42.661379" lon="-2.003318">
        <ele>455.3</ele>
        <time>2018-08-24T11:24:29Z</time>
      </trkpt>
      <trkpt lat="42.661379" lon="-2.003421">
        <ele>456.3</ele>
        <time>2018-08-24T11:24:41Z</time>
      </trkpt>
      <trkpt lat="42.661381" lon="-2.003425">
        <ele>455.3</ele>
        <time>2018-08-24T11:24:42Z</time>
      </trkpt>
      <trkpt lat="42.661333" lon="-2.003531">
        <ele>456.3</ele>
        <time>2018-08-24T11:24:49Z</time>
      </trkpt>
      <trkpt lat="42.661295" lon="-2.003710">
        <ele>457.2</ele>
        <time>2018-08-24T11:25:01Z</time>
      </trkpt>
      <trkpt lat="42.661288" lon="-2.003796">
        <ele>457.7</ele>
        <time>2018-08-24T11:25:05Z</time>
      </trkpt>
      <trkpt lat="42.661249" lon="-2.004097">
        <ele>460.6</ele>
        <time>2018-08-24T11:25:22Z</time>
      </trkpt>
      <trkpt lat="42.661247" lon="-2.004223">
        <ele>461.1</ele>
        <time>2018-08-24T11:25:31Z</time>
      </trkpt>
      <trkpt lat="42.661244" lon="-2.004505">
        <ele>461.6</ele>
        <time>2018-08-24T11:25:46Z</time>
      </trkpt>
      <trkpt lat="42.661256" lon="-2.004545">
        <ele>462.0</ele>
        <time>2018-08-24T11:25:57Z</time>
      </trkpt>
      <trkpt lat="42.661277" lon="-2.004597">
        <ele>461.6</ele>
        <time>2018-08-24T11:26:01Z</time>
      </trkpt>
      <trkpt lat="42.661251" lon="-2.004890">
        <ele>460.6</ele>
        <time>2018-08-24T11:26:17Z</time>
      </trkpt>
      <trkpt lat="42.661234" lon="-2.005105">
        <ele>456.8</ele>
        <time>2018-08-24T11:26:30Z</time>
      </trkpt>
      <trkpt lat="42.661213" lon="-2.005262">
        <ele>454.8</ele>
        <time>2018-08-24T11:26:41Z</time>
      </trkpt>
      <trkpt lat="42.661217" lon="-2.005476">
        <ele>452.0</ele>
        <time>2018-08-24T11:26:56Z</time>
      </trkpt>
      <trkpt lat="42.661207" lon="-2.005546">
        <ele>450.5</ele>
        <time>2018-08-24T11:27:09Z</time>
      </trkpt>
      <trkpt lat="42.661232" lon="-2.005575">
        <ele>450.0</ele>
        <time>2018-08-24T11:27:37Z</time>
      </trkpt>
      <trkpt lat="42.661215" lon="-2.005898">
        <ele>448.1</ele>
        <time>2018-08-24T11:27:56Z</time>
      </trkpt>
      <trkpt lat="42.661254" lon="-2.006084">
        <ele>445.2</ele>
        <time>2018-08-24T11:28:09Z</time>
      </trkpt>
      <trkpt lat="42.661396" lon="-2.006261">
        <ele>439.0</ele>
        <time>2018-08-24T11:28:27Z</time>
      </trkpt>
      <trkpt lat="42.661401" lon="-2.006279">
        <ele>443.3</ele>
        <time>2018-08-24T11:28:28Z</time>
      </trkpt>
      <trkpt lat="42.661467" lon="-2.006468">
        <ele>441.4</ele>
        <time>2018-08-24T11:28:39Z</time>
      </trkpt>
      <trkpt lat="42.661502" lon="-2.006543">
        <ele>440.9</ele>
        <time>2018-08-24T11:28:51Z</time>
      </trkpt>
      <trkpt lat="42.661288" lon="-2.006688">
        <ele>438.0</ele>
        <time>2018-08-24T11:29:12Z</time>
      </trkpt>
      <trkpt lat="42.661220" lon="-2.006839">
        <ele>437.1</ele>
        <time>2018-08-24T11:29:27Z</time>
      </trkpt>
      <trkpt lat="42.661288" lon="-2.007003">
        <ele>437.1</ele>
        <time>2018-08-24T11:29:44Z</time>
      </trkpt>
      <trkpt lat="42.661277" lon="-2.007289">
        <ele>436.6</ele>
        <time>2018-08-24T11:29:59Z</time>
      </trkpt>
      <trkpt lat="42.661210" lon="-2.007530">
        <ele>436.1</ele>
        <time>2018-08-24T11:30:15Z</time>
      </trkpt>
      <trkpt lat="42.661154" lon="-2.007574">
        <ele>435.1</ele>
        <time>2018-08-24T11:30:22Z</time>
      </trkpt>
      <trkpt lat="42.661048" lon="-2.007712">
        <ele>431.3</ele>
        <time>2018-08-24T11:30:34Z</time>
      </trkpt>
      <trkpt lat="42.660953" lon="-2.007775">
        <ele>429.9</ele>
        <time>2018-08-24T11:30:45Z</time>
      </trkpt>
      <trkpt lat="42.660740" lon="-2.007836">
        <ele>427.9</ele>
        <time>2018-08-24T11:31:04Z</time>
      </trkpt>
      <trkpt lat="42.660505" lon="-2.007920">
        <ele>427.4</ele>
        <time>2018-08-24T11:31:22Z</time>
      </trkpt>
      <trkpt lat="42.660280" lon="-2.007998">
        <ele>425.5</ele>
        <time>2018-08-24T11:31:40Z</time>
      </trkpt>
      <trkpt lat="42.660070" lon="-2.008085">
        <ele>422.6</ele>
        <time>2018-08-24T11:31:59Z</time>
      </trkpt>
      <trkpt lat="42.659906" lon="-2.008162">
        <ele>422.2</ele>
        <time>2018-08-24T11:32:15Z</time>
      </trkpt>
      <trkpt lat="42.659893" lon="-2.008167">
        <ele>422.2</ele>
        <time>2018-08-24T11:32:17Z</time>
      </trkpt>
      <trkpt lat="42.659848" lon="-2.008244">
        <ele>421.7</ele>
        <time>2018-08-24T11:32:22Z</time>
      </trkpt>
      <trkpt lat="42.659845" lon="-2.008286">
        <ele>422.2</ele>
        <time>2018-08-24T11:32:24Z</time>
      </trkpt>
      <trkpt lat="42.659946" lon="-2.008524">
        <ele>419.3</ele>
        <time>2018-08-24T11:32:42Z</time>
      </trkpt>
      <trkpt lat="42.660127" lon="-2.008616">
        <ele>418.8</ele>
        <time>2018-08-24T11:32:57Z</time>
      </trkpt>
      <trkpt lat="42.660248" lon="-2.008708">
        <ele>417.8</ele>
        <time>2018-08-24T11:33:08Z</time>
      </trkpt>
      <trkpt lat="42.660359" lon="-2.008790">
        <ele>415.9</ele>
        <time>2018-08-24T11:33:24Z</time>
      </trkpt>
      <trkpt lat="42.660390" lon="-2.008812">
        <ele>414.5</ele>
        <time>2018-08-24T11:33:32Z</time>
      </trkpt>
      <trkpt lat="42.660424" lon="-2.008853">
        <ele>415.4</ele>
        <time>2018-08-24T11:33:37Z</time>
      </trkpt>
      <trkpt lat="42.660496" lon="-2.008977">
        <ele>417.4</ele>
        <time>2018-08-24T11:33:45Z</time>
      </trkpt>
      <trkpt lat="42.660489" lon="-2.009006">
        <ele>418.8</ele>
        <time>2018-08-24T11:33:50Z</time>
      </trkpt>
      <trkpt lat="42.660508" lon="-2.009042">
        <ele>416.4</ele>
        <time>2018-08-24T11:33:53Z</time>
      </trkpt>
      <trkpt lat="42.660575" lon="-2.009148">
        <ele>415.0</ele>
        <time>2018-08-24T11:34:01Z</time>
      </trkpt>
      <trkpt lat="42.660700" lon="-2.009399">
        <ele>414.5</ele>
        <time>2018-08-24T11:34:16Z</time>
      </trkpt>
      <trkpt lat="42.660738" lon="-2.009562">
        <ele>414.5</ele>
        <time>2018-08-24T11:34:25Z</time>
      </trkpt>
      <trkpt lat="42.660756" lon="-2.009631">
        <ele>415.9</ele>
        <time>2018-08-24T11:34:29Z</time>
      </trkpt>
      <trkpt lat="42.660762" lon="-2.009678">
        <ele>416.4</ele>
        <time>2018-08-24T11:34:35Z</time>
      </trkpt>
      <trkpt lat="42.660758" lon="-2.009797">
        <ele>417.4</ele>
        <time>2018-08-24T11:34:43Z</time>
      </trkpt>
      <trkpt lat="42.660743" lon="-2.010103">
        <ele>417.4</ele>
        <time>2018-08-24T11:35:00Z</time>
      </trkpt>
      <trkpt lat="42.660758" lon="-2.010152">
        <ele>417.4</ele>
        <time>2018-08-24T11:35:03Z</time>
      </trkpt>
      <trkpt lat="42.660785" lon="-2.010214">
        <ele>417.8</ele>
        <time>2018-08-24T11:35:07Z</time>
      </trkpt>
      <trkpt lat="42.660811" lon="-2.010282">
        <ele>418.3</ele>
        <time>2018-08-24T11:35:12Z</time>
      </trkpt>
      <trkpt lat="42.660881" lon="-2.010508">
        <ele>417.8</ele>
        <time>2018-08-24T11:35:26Z</time>
      </trkpt>
      <trkpt lat="42.660942" lon="-2.010710">
        <ele>419.3</ele>
        <time>2018-08-24T11:35:39Z</time>
      </trkpt>
      <trkpt lat="42.660981" lon="-2.010786">
        <ele>419.8</ele>
        <time>2018-08-24T11:35:45Z</time>
      </trkpt>
      <trkpt lat="42.660989" lon="-2.010816">
        <ele>419.8</ele>
        <time>2018-08-24T11:35:47Z</time>
      </trkpt>
      <trkpt lat="42.661044" lon="-2.010924">
        <ele>420.7</ele>
        <time>2018-08-24T11:35:55Z</time>
      </trkpt>
      <trkpt lat="42.661053" lon="-2.010954">
        <ele>421.2</ele>
        <time>2018-08-24T11:35:57Z</time>
      </trkpt>
      <trkpt lat="42.661111" lon="-2.011036">
        <ele>421.7</ele>
        <time>2018-08-24T11:36:04Z</time>
      </trkpt>
      <trkpt lat="42.661121" lon="-2.011059">
        <ele>421.7</ele>
        <time>2018-08-24T11:36:06Z</time>
      </trkpt>
      <trkpt lat="42.661206" lon="-2.011184">
        <ele>423.6</ele>
        <time>2018-08-24T11:36:18Z</time>
      </trkpt>
      <trkpt lat="42.661220" lon="-2.011202">
        <ele>424.6</ele>
        <time>2018-08-24T11:36:20Z</time>
      </trkpt>
      <trkpt lat="42.661230" lon="-2.011224">
        <ele>425.0</ele>
        <time>2018-08-24T11:36:22Z</time>
      </trkpt>
      <trkpt lat="42.661326" lon="-2.011340">
        <ele>427.0</ele>
        <time>2018-08-24T11:36:34Z</time>
      </trkpt>
      <trkpt lat="42.661330" lon="-2.011350">
        <ele>427.4</ele>
        <time>2018-08-24T11:36:35Z</time>
      </trkpt>
      <trkpt lat="42.661422" lon="-2.011468">
        <ele>428.9</ele>
        <time>2018-08-24T11:36:48Z</time>
      </trkpt>
      <trkpt lat="42.661498" lon="-2.011539">
        <ele>430.3</ele>
        <time>2018-08-24T11:36:57Z</time>
      </trkpt>
      <trkpt lat="42.661538" lon="-2.011551">
        <ele>430.8</ele>
        <time>2018-08-24T11:37:01Z</time>
      </trkpt>
      <trkpt lat="42.661561" lon="-2.011553">
        <ele>431.3</ele>
        <time>2018-08-24T11:37:03Z</time>
      </trkpt>
      <trkpt lat="42.661614" lon="-2.011578">
        <ele>432.7</ele>
        <time>2018-08-24T11:37:08Z</time>
      </trkpt>
      <trkpt lat="42.661645" lon="-2.011597">
        <ele>432.7</ele>
        <time>2018-08-24T11:37:11Z</time>
      </trkpt>
      <trkpt lat="42.661832" lon="-2.011685">
        <ele>433.2</ele>
        <time>2018-08-24T11:37:27Z</time>
      </trkpt>
      <trkpt lat="42.662010" lon="-2.011775">
        <ele>434.6</ele>
        <time>2018-08-24T11:37:42Z</time>
      </trkpt>
      <trkpt lat="42.662183" lon="-2.011906">
        <ele>434.6</ele>
        <time>2018-08-24T11:37:57Z</time>
      </trkpt>
      <trkpt lat="42.662350" lon="-2.012081">
        <ele>434.6</ele>
        <time>2018-08-24T11:38:13Z</time>
      </trkpt>
      <trkpt lat="42.662513" lon="-2.012275">
        <ele>435.1</ele>
        <time>2018-08-24T11:38:29Z</time>
      </trkpt>
      <trkpt lat="42.662585" lon="-2.012361">
        <ele>435.1</ele>
        <time>2018-08-24T11:38:36Z</time>
      </trkpt>
      <trkpt lat="42.662774" lon="-2.012591">
        <ele>435.1</ele>
        <time>2018-08-24T11:38:55Z</time>
      </trkpt>
      <trkpt lat="42.662910" lon="-2.012805">
        <ele>435.1</ele>
        <time>2018-08-24T11:39:11Z</time>
      </trkpt>
      <trkpt lat="42.663063" lon="-2.012969">
        <ele>435.1</ele>
        <time>2018-08-24T11:39:26Z</time>
      </trkpt>
      <trkpt lat="42.663218" lon="-2.013171">
        <ele>435.1</ele>
        <time>2018-08-24T11:39:43Z</time>
      </trkpt>
      <trkpt lat="42.663325" lon="-2.013389">
        <ele>435.1</ele>
        <time>2018-08-24T11:39:58Z</time>
      </trkpt>
      <trkpt lat="42.663381" lon="-2.013578">
        <ele>433.7</ele>
        <time>2018-08-24T11:40:11Z</time>
      </trkpt>
      <trkpt lat="42.663379" lon="-2.013628">
        <ele>435.1</ele>
        <time>2018-08-24T11:40:14Z</time>
      </trkpt>
      <trkpt lat="42.663353" lon="-2.013851">
        <ele>433.7</ele>
        <time>2018-08-24T11:40:29Z</time>
      </trkpt>
      <trkpt lat="42.663345" lon="-2.014086">
        <ele>432.7</ele>
        <time>2018-08-24T11:40:44Z</time>
      </trkpt>
      <trkpt lat="42.663375" lon="-2.014331">
        <ele>430.8</ele>
        <time>2018-08-24T11:40:59Z</time>
      </trkpt>
      <trkpt lat="42.663377" lon="-2.014349">
        <ele>431.3</ele>
        <time>2018-08-24T11:41:00Z</time>
      </trkpt>
      <trkpt lat="42.663397" lon="-2.014590">
        <ele>427.9</ele>
        <time>2018-08-24T11:41:15Z</time>
      </trkpt>
      <trkpt lat="42.663390" lon="-2.014639">
        <ele>429.4</ele>
        <time>2018-08-24T11:41:18Z</time>
      </trkpt>
      <trkpt lat="42.663388" lon="-2.014652">
        <ele>429.9</ele>
        <time>2018-08-24T11:41:19Z</time>
      </trkpt>
      <trkpt lat="42.663364" lon="-2.014887">
        <ele>428.9</ele>
        <time>2018-08-24T11:41:34Z</time>
      </trkpt>
      <trkpt lat="42.663345" lon="-2.014942">
        <ele>427.9</ele>
        <time>2018-08-24T11:41:38Z</time>
      </trkpt>
      <trkpt lat="42.663332" lon="-2.015133">
        <ele>426.5</ele>
        <time>2018-08-24T11:41:49Z</time>
      </trkpt>
      <trkpt lat="42.663329" lon="-2.015149">
        <ele>426.5</ele>
        <time>2018-08-24T11:41:50Z</time>
      </trkpt>
      <trkpt lat="42.663239" lon="-2.015381">
        <ele>425.0</ele>
        <time>2018-08-24T11:42:06Z</time>
      </trkpt>
      <trkpt lat="42.663210" lon="-2.015419">
        <ele>424.6</ele>
        <time>2018-08-24T11:42:09Z</time>
      </trkpt>
      <trkpt lat="42.663154" lon="-2.015529">
        <ele>426.0</ele>
        <time>2018-08-24T11:42:17Z</time>
      </trkpt>
      <trkpt lat="42.663116" lon="-2.015665">
        <ele>425.5</ele>
        <time>2018-08-24T11:42:26Z</time>
      </trkpt>
      <trkpt lat="42.663089" lon="-2.015884">
        <ele>425.5</ele>
        <time>2018-08-24T11:42:39Z</time>
      </trkpt>
      <trkpt lat="42.663047" lon="-2.016117">
        <ele>425.0</ele>
        <time>2018-08-24T11:42:52Z</time>
      </trkpt>
      <trkpt lat="42.662986" lon="-2.016379">
        <ele>425.0</ele>
        <time>2018-08-24T11:43:07Z</time>
      </trkpt>
      <trkpt lat="42.662969" lon="-2.016645">
        <ele>425.0</ele>
        <time>2018-08-24T11:43:22Z</time>
      </trkpt>
      <trkpt lat="42.662949" lon="-2.016815">
        <ele>425.0</ele>
        <time>2018-08-24T11:43:35Z</time>
      </trkpt>
      <trkpt lat="42.662948" lon="-2.016957">
        <ele>425.0</ele>
        <time>2018-08-24T11:43:43Z</time>
      </trkpt>
      <trkpt lat="42.662912" lon="-2.017185">
        <ele>424.6</ele>
        <time>2018-08-24T11:43:57Z</time>
      </trkpt>
      <trkpt lat="42.662873" lon="-2.017355">
        <ele>424.6</ele>
        <time>2018-08-24T11:44:07Z</time>
      </trkpt>
      <trkpt lat="42.662801" lon="-2.017568">
        <ele>423.6</ele>
        <time>2018-08-24T11:44:22Z</time>
      </trkpt>
      <trkpt lat="42.662712" lon="-2.017783">
        <ele>425.0</ele>
        <time>2018-08-24T11:44:37Z</time>
      </trkpt>
      <trkpt lat="42.662646" lon="-2.017950">
        <ele>424.6</ele>
        <time>2018-08-24T11:44:48Z</time>
      </trkpt>
      <trkpt lat="42.662563" lon="-2.018223">
        <ele>424.6</ele>
        <time>2018-08-24T11:45:04Z</time>
      </trkpt>
      <trkpt lat="42.662557" lon="-2.018320">
        <ele>423.1</ele>
        <time>2018-08-24T11:45:10Z</time>
      </trkpt>
      <trkpt lat="42.662548" lon="-2.018498">
        <ele>425.0</ele>
        <time>2018-08-24T11:45:20Z</time>
      </trkpt>
      <trkpt lat="42.662552" lon="-2.018743">
        <ele>426.0</ele>
        <time>2018-08-24T11:45:35Z</time>
      </trkpt>
      <trkpt lat="42.662564" lon="-2.018910">
        <ele>427.4</ele>
        <time>2018-08-24T11:45:45Z</time>
      </trkpt>
      <trkpt lat="42.662629" lon="-2.019078">
        <ele>427.9</ele>
        <time>2018-08-24T11:45:56Z</time>
      </trkpt>
      <trkpt lat="42.662647" lon="-2.019119">
        <ele>427.9</ele>
        <time>2018-08-24T11:45:59Z</time>
      </trkpt>
      <trkpt lat="42.662682" lon="-2.019219">
        <ele>428.9</ele>
        <time>2018-08-24T11:46:04Z</time>
      </trkpt>
      <trkpt lat="42.662744" lon="-2.019360">
        <ele>429.4</ele>
        <time>2018-08-24T11:46:15Z</time>
      </trkpt>
      <trkpt lat="42.662767" lon="-2.019443">
        <ele>430.3</ele>
        <time>2018-08-24T11:46:21Z</time>
      </trkpt>
      <trkpt lat="42.662850" lon="-2.019603">
        <ele>431.3</ele>
        <time>2018-08-24T11:46:34Z</time>
      </trkpt>
      <trkpt lat="42.662923" lon="-2.019819">
        <ele>431.8</ele>
        <time>2018-08-24T11:46:47Z</time>
      </trkpt>
      <trkpt lat="42.662944" lon="-2.019877">
        <ele>431.3</ele>
        <time>2018-08-24T11:46:50Z</time>
      </trkpt>
      <trkpt lat="42.662956" lon="-2.019895">
        <ele>430.8</ele>
        <time>2018-08-24T11:46:51Z</time>
      </trkpt>
      <trkpt lat="42.662966" lon="-2.019927">
        <ele>430.8</ele>
        <time>2018-08-24T11:46:53Z</time>
      </trkpt>
      <trkpt lat="42.662972" lon="-2.019945">
        <ele>431.8</ele>
        <time>2018-08-24T11:46:54Z</time>
      </trkpt>
      <trkpt lat="42.662978" lon="-2.019964">
        <ele>431.8</ele>
        <time>2018-08-24T11:46:55Z</time>
      </trkpt>
      <trkpt lat="42.662984" lon="-2.019982">
        <ele>431.8</ele>
        <time>2018-08-24T11:46:56Z</time>
      </trkpt>
      <trkpt lat="42.662992" lon="-2.020000">
        <ele>431.8</ele>
        <time>2018-08-24T11:46:57Z</time>
      </trkpt>
      <trkpt lat="42.662999" lon="-2.020018">
        <ele>431.8</ele>
        <time>2018-08-24T11:46:58Z</time>
      </trkpt>
      <trkpt lat="42.663100" lon="-2.020292">
        <ele>431.8</ele>
        <time>2018-08-24T11:47:14Z</time>
      </trkpt>
      <trkpt lat="42.663231" lon="-2.020501">
        <ele>431.8</ele>
        <time>2018-08-24T11:47:30Z</time>
      </trkpt>
      <trkpt lat="42.663398" lon="-2.020742">
        <ele>432.7</ele>
        <time>2018-08-24T11:47:48Z</time>
      </trkpt>
      <trkpt lat="42.663504" lon="-2.020962">
        <ele>432.2</ele>
        <time>2018-08-24T11:48:03Z</time>
      </trkpt>
      <trkpt lat="42.663540" lon="-2.021122">
        <ele>433.2</ele>
        <time>2018-08-24T11:48:13Z</time>
      </trkpt>
      <trkpt lat="42.663548" lon="-2.021137">
        <ele>433.2</ele>
        <time>2018-08-24T11:48:14Z</time>
      </trkpt>
      <trkpt lat="42.663707" lon="-2.021287">
        <ele>432.2</ele>
        <time>2018-08-24T11:48:29Z</time>
      </trkpt>
      <trkpt lat="42.663860" lon="-2.021432">
        <ele>431.8</ele>
        <time>2018-08-24T11:48:44Z</time>
      </trkpt>
      <trkpt lat="42.664021" lon="-2.021513">
        <ele>431.8</ele>
        <time>2018-08-24T11:48:57Z</time>
      </trkpt>
      <trkpt lat="42.664034" lon="-2.021520">
        <ele>431.8</ele>
        <time>2018-08-24T11:48:58Z</time>
      </trkpt>
      <trkpt lat="42.664047" lon="-2.021526">
        <ele>432.2</ele>
        <time>2018-08-24T11:48:59Z</time>
      </trkpt>
      <trkpt lat="42.664228" lon="-2.021620">
        <ele>432.2</ele>
        <time>2018-08-24T11:49:14Z</time>
      </trkpt>
      <trkpt lat="42.664416" lon="-2.021745">
        <ele>431.8</ele>
        <time>2018-08-24T11:49:31Z</time>
      </trkpt>
      <trkpt lat="42.664459" lon="-2.021782">
        <ele>431.3</ele>
        <time>2018-08-24T11:49:35Z</time>
      </trkpt>
      <trkpt lat="42.664639" lon="-2.021874">
        <ele>430.3</ele>
        <time>2018-08-24T11:49:50Z</time>
      </trkpt>
      <trkpt lat="42.664847" lon="-2.021980">
        <ele>429.4</ele>
        <time>2018-08-24T11:50:07Z</time>
      </trkpt>
      <trkpt lat="42.665054" lon="-2.022013">
        <ele>429.9</ele>
        <time>2018-08-24T11:50:23Z</time>
      </trkpt>
      <trkpt lat="42.665320" lon="-2.022002">
        <ele>430.3</ele>
        <time>2018-08-24T11:50:43Z</time>
      </trkpt>
      <trkpt lat="42.665534" lon="-2.021951">
        <ele>429.4</ele>
        <time>2018-08-24T11:51:02Z</time>
      </trkpt>
      <trkpt lat="42.665706" lon="-2.021991">
        <ele>428.9</ele>
        <time>2018-08-24T11:51:17Z</time>
      </trkpt>
      <trkpt lat="42.665849" lon="-2.022056">
        <ele>428.9</ele>
        <time>2018-08-24T11:51:31Z</time>
      </trkpt>
      <trkpt lat="42.665995" lon="-2.022080">
        <ele>427.9</ele>
        <time>2018-08-24T11:51:42Z</time>
      </trkpt>
      <trkpt lat="42.666220" lon="-2.022195">
        <ele>428.4</ele>
        <time>2018-08-24T11:51:57Z</time>
      </trkpt>
      <trkpt lat="42.666444" lon="-2.022327">
        <ele>427.9</ele>
        <time>2018-08-24T11:52:13Z</time>
      </trkpt>
      <trkpt lat="42.666596" lon="-2.022426">
        <ele>427.4</ele>
        <time>2018-08-24T11:52:25Z</time>
      </trkpt>
      <trkpt lat="42.666758" lon="-2.022548">
        <ele>427.9</ele>
        <time>2018-08-24T11:52:39Z</time>
      </trkpt>
      <trkpt lat="42.666900" lon="-2.022677">
        <ele>426.5</ele>
        <time>2018-08-24T11:52:51Z</time>
      </trkpt>
      <trkpt lat="42.667000" lon="-2.022687">
        <ele>426.0</ele>
        <time>2018-08-24T11:53:05Z</time>
      </trkpt>
      <trkpt lat="42.667195" lon="-2.022758">
        <ele>425.0</ele>
        <time>2018-08-24T11:53:20Z</time>
      </trkpt>
      <trkpt lat="42.667431" lon="-2.022885">
        <ele>423.6</ele>
        <time>2018-08-24T11:53:36Z</time>
      </trkpt>
      <trkpt lat="42.667630" lon="-2.022941">
        <ele>423.6</ele>
        <time>2018-08-24T11:53:51Z</time>
      </trkpt>
      <trkpt lat="42.667810" lon="-2.023015">
        <ele>422.2</ele>
        <time>2018-08-24T11:54:05Z</time>
      </trkpt>
      <trkpt lat="42.667994" lon="-2.023082">
        <ele>423.6</ele>
        <time>2018-08-24T11:54:19Z</time>
      </trkpt>
      <trkpt lat="42.668140" lon="-2.023144">
        <ele>423.1</ele>
        <time>2018-08-24T11:54:31Z</time>
      </trkpt>
      <trkpt lat="42.668311" lon="-2.023219">
        <ele>423.1</ele>
        <time>2018-08-24T11:54:45Z</time>
      </trkpt>
      <trkpt lat="42.668472" lon="-2.023325">
        <ele>422.6</ele>
        <time>2018-08-24T11:54:58Z</time>
      </trkpt>
      <trkpt lat="42.668604" lon="-2.023474">
        <ele>422.6</ele>
        <time>2018-08-24T11:55:12Z</time>
      </trkpt>
      <trkpt lat="42.668657" lon="-2.023384">
        <ele>427.0</ele>
        <time>2018-08-24T12:03:26Z</time>
      </trkpt>
      <trkpt lat="42.668671" lon="-2.023364">
        <ele>427.4</ele>
        <time>2018-08-24T12:03:52Z</time>
      </trkpt>
      <trkpt lat="42.668710" lon="-2.023386">
        <ele>427.0</ele>
        <time>2018-08-24T12:04:47Z</time>
      </trkpt>
      <trkpt lat="42.668721" lon="-2.023455">
        <ele>428.9</ele>
        <time>2018-08-24T12:25:41Z</time>
      </trkpt>
      <trkpt lat="42.668676" lon="-2.023562">
        <ele>423.6</ele>
        <time>2018-08-24T12:29:14Z</time>
      </trkpt>
      <trkpt lat="42.668965" lon="-2.023717">
        <ele>425.5</ele>
        <time>2018-08-24T12:36:12Z</time>
      </trkpt>
      <trkpt lat="42.669072" lon="-2.023711">
        <ele>424.6</ele>
        <time>2018-08-24T12:36:25Z</time>
      </trkpt>
      <trkpt lat="42.669278" lon="-2.023818">
        <ele>425.0</ele>
        <time>2018-08-24T12:36:39Z</time>
      </trkpt>
      <trkpt lat="42.669347" lon="-2.023841">
        <ele>424.1</ele>
        <time>2018-08-24T12:36:43Z</time>
      </trkpt>
      <trkpt lat="42.669446" lon="-2.023964">
        <ele>425.0</ele>
        <time>2018-08-24T12:36:52Z</time>
      </trkpt>
      <trkpt lat="42.669544" lon="-2.024076">
        <ele>426.0</ele>
        <time>2018-08-24T12:37:02Z</time>
      </trkpt>
      <trkpt lat="42.669576" lon="-2.024154">
        <ele>426.0</ele>
        <time>2018-08-24T12:37:07Z</time>
      </trkpt>
      <trkpt lat="42.669722" lon="-2.024355">
        <ele>427.0</ele>
        <time>2018-08-24T12:37:21Z</time>
      </trkpt>
      <trkpt lat="42.669755" lon="-2.024425">
        <ele>427.4</ele>
        <time>2018-08-24T12:37:25Z</time>
      </trkpt>
      <trkpt lat="42.669754" lon="-2.024477">
        <ele>426.0</ele>
        <time>2018-08-24T12:37:28Z</time>
      </trkpt>
      <trkpt lat="42.669760" lon="-2.024500">
        <ele>427.0</ele>
        <time>2018-08-24T12:37:30Z</time>
      </trkpt>
      <trkpt lat="42.669778" lon="-2.024553">
        <ele>427.4</ele>
        <time>2018-08-24T12:37:45Z</time>
      </trkpt>
      <trkpt lat="42.669773" lon="-2.024679">
        <ele>428.4</ele>
        <time>2018-08-24T12:39:01Z</time>
      </trkpt>
      <trkpt lat="42.669792" lon="-2.024805">
        <ele>428.4</ele>
        <time>2018-08-24T12:39:06Z</time>
      </trkpt>
      <trkpt lat="42.669830" lon="-2.025145">
        <ele>429.4</ele>
        <time>2018-08-24T12:39:23Z</time>
      </trkpt>
      <trkpt lat="42.669833" lon="-2.025291">
        <ele>428.9</ele>
        <time>2018-08-24T12:39:36Z</time>
      </trkpt>
      <trkpt lat="42.669835" lon="-2.025318">
        <ele>428.4</ele>
        <time>2018-08-24T12:39:38Z</time>
      </trkpt>
      <trkpt lat="42.669806" lon="-2.025617">
        <ele>429.4</ele>
        <time>2018-08-24T12:39:54Z</time>
      </trkpt>
      <trkpt lat="42.669812" lon="-2.025673">
        <ele>428.9</ele>
        <time>2018-08-24T12:39:57Z</time>
      </trkpt>
      <trkpt lat="42.669824" lon="-2.025976">
        <ele>427.0</ele>
        <time>2018-08-24T12:40:14Z</time>
      </trkpt>
      <trkpt lat="42.669820" lon="-2.026129">
        <ele>426.5</ele>
        <time>2018-08-24T12:40:22Z</time>
      </trkpt>
      <trkpt lat="42.669823" lon="-2.026218">
        <ele>426.0</ele>
        <time>2018-08-24T12:40:27Z</time>
      </trkpt>
      <trkpt lat="42.669840" lon="-2.026543">
        <ele>426.5</ele>
        <time>2018-08-24T12:40:44Z</time>
      </trkpt>
      <trkpt lat="42.669859" lon="-2.026780">
        <ele>426.5</ele>
        <time>2018-08-24T12:40:57Z</time>
      </trkpt>
      <trkpt lat="42.669883" lon="-2.026994">
        <ele>426.0</ele>
        <time>2018-08-24T12:41:11Z</time>
      </trkpt>
      <trkpt lat="42.669893" lon="-2.027098">
        <ele>425.5</ele>
        <time>2018-08-24T12:41:22Z</time>
      </trkpt>
      <trkpt lat="42.669886" lon="-2.027158">
        <ele>426.0</ele>
        <time>2018-08-24T12:41:28Z</time>
      </trkpt>
      <trkpt lat="42.669886" lon="-2.027231">
        <ele>426.0</ele>
        <time>2018-08-24T12:41:32Z</time>
      </trkpt>
      <trkpt lat="42.669864" lon="-2.027536">
        <ele>425.5</ele>
        <time>2018-08-24T12:41:50Z</time>
      </trkpt>
      <trkpt lat="42.669847" lon="-2.027802">
        <ele>425.0</ele>
        <time>2018-08-24T12:42:05Z</time>
      </trkpt>
      <trkpt lat="42.669825" lon="-2.027920">
        <ele>426.0</ele>
        <time>2018-08-24T12:42:12Z</time>
      </trkpt>
      <trkpt lat="42.669780" lon="-2.028148">
        <ele>426.0</ele>
        <time>2018-08-24T12:42:27Z</time>
      </trkpt>
      <trkpt lat="42.669756" lon="-2.028261">
        <ele>426.0</ele>
        <time>2018-08-24T12:42:32Z</time>
      </trkpt>
      <trkpt lat="42.669652" lon="-2.028497">
        <ele>426.0</ele>
        <time>2018-08-24T12:42:46Z</time>
      </trkpt>
      <trkpt lat="42.669622" lon="-2.028820">
        <ele>426.0</ele>
        <time>2018-08-24T12:43:05Z</time>
      </trkpt>
      <trkpt lat="42.669560" lon="-2.029027">
        <ele>426.0</ele>
        <time>2018-08-24T12:43:22Z</time>
      </trkpt>
      <trkpt lat="42.669458" lon="-2.029196">
        <ele>425.5</ele>
        <time>2018-08-24T12:43:33Z</time>
      </trkpt>
      <trkpt lat="42.669398" lon="-2.029279">
        <ele>424.6</ele>
        <time>2018-08-24T12:43:44Z</time>
      </trkpt>
      <trkpt lat="42.669343" lon="-2.029367">
        <ele>425.5</ele>
        <time>2018-08-24T12:44:00Z</time>
      </trkpt>
      <trkpt lat="42.669245" lon="-2.029508">
        <ele>425.0</ele>
        <time>2018-08-24T12:44:10Z</time>
      </trkpt>
      <trkpt lat="42.669140" lon="-2.029664">
        <ele>425.5</ele>
        <time>2018-08-24T12:44:23Z</time>
      </trkpt>
      <trkpt lat="42.668950" lon="-2.029812">
        <ele>425.0</ele>
        <time>2018-08-24T12:44:40Z</time>
      </trkpt>
      <trkpt lat="42.668895" lon="-2.029827">
        <ele>425.5</ele>
        <time>2018-08-24T12:44:56Z</time>
      </trkpt>
      <trkpt lat="42.668884" lon="-2.029835">
        <ele>425.5</ele>
        <time>2018-08-24T12:45:03Z</time>
      </trkpt>
      <trkpt lat="42.668697" lon="-2.030073">
        <ele>426.0</ele>
        <time>2018-08-24T12:45:21Z</time>
      </trkpt>
      <trkpt lat="42.668524" lon="-2.030274">
        <ele>426.5</ele>
        <time>2018-08-24T12:45:39Z</time>
      </trkpt>
      <trkpt lat="42.668487" lon="-2.030312">
        <ele>427.0</ele>
        <time>2018-08-24T12:45:43Z</time>
      </trkpt>
      <trkpt lat="42.668405" lon="-2.030443">
        <ele>426.5</ele>
        <time>2018-08-24T12:45:52Z</time>
      </trkpt>
      <trkpt lat="42.668286" lon="-2.030591">
        <ele>427.0</ele>
        <time>2018-08-24T12:46:07Z</time>
      </trkpt>
      <trkpt lat="42.668267" lon="-2.030626">
        <ele>427.4</ele>
        <time>2018-08-24T12:46:18Z</time>
      </trkpt>
      <trkpt lat="42.668230" lon="-2.030688">
        <ele>424.1</ele>
        <time>2018-08-24T12:46:27Z</time>
      </trkpt>
      <trkpt lat="42.668209" lon="-2.030744">
        <ele>425.0</ele>
        <time>2018-08-24T12:46:30Z</time>
      </trkpt>
      <trkpt lat="42.668201" lon="-2.030707">
        <ele>421.9</ele>
        <time>2019-08-18T06:15:13Z</time>
        <sat>7</sat>
      </trkpt>
      <trkpt lat="42.668146" lon="-2.030755">
        <ele>423.6</ele>
        <time>2019-08-18T06:16:10Z</time>
        <sat>6</sat>
      </trkpt>
      <trkpt lat="42.668089" lon="-2.030798">
        <ele>423.7</ele>
        <time>2019-08-18T06:16:29Z</time>
        <sat>6</sat>
      </trkpt>
      <trkpt lat="42.668014" lon="-2.030851">
        <ele>423.9</ele>
        <time>2019-08-18T06:16:45Z</time>
        <sat>6</sat>
      </trkpt>
      <trkpt lat="42.667928" lon="-2.030871">
        <ele>423.3</ele>
        <time>2019-08-18T06:16:51Z</time>
        <sat>6</sat>
      </trkpt>
      <trkpt lat="42.667850" lon="-2.030930">
        <ele>423.9</ele>
        <time>2019-08-18T06:16:59Z</time>
        <sat>6</sat>
      </trkpt>
      <trkpt lat="42.667791" lon="-2.030989">
        <ele>425.7</ele>
        <time>2019-08-18T06:17:06Z</time>
        <sat>5</sat>
      </trkpt>
      <trkpt lat="42.667700" lon="-2.031050">
        <ele>425.6</ele>
        <time>2019-08-18T06:17:15Z</time>
        <sat>6</sat>
      </trkpt>
      <trkpt lat="42.667617" lon="-2.031101">
        <ele>425.1</ele>
        <time>2019-08-18T06:17:23Z</time>
        <sat>6</sat>
      </trkpt>
      <trkpt lat="42.667531" lon="-2.031164">
        <ele>424.9</ele>
        <time>2019-08-18T06:17:31Z</time>
        <sat>6</sat>
      </trkpt>
      <trkpt lat="42.667461" lon="-2.031228">
        <ele>424.8</ele>
        <time>2019-08-18T06:17:38Z</time>
        <sat>6</sat>
      </trkpt>
      <trkpt lat="42.667370" lon="-2.031290">
        <ele>426.0</ele>
        <time>2019-08-18T06:17:55Z</time>
        <sat>6</sat>
      </trkpt>
      <trkpt lat="42.667291" lon="-2.031352">
        <ele>426.3</ele>
        <time>2019-08-18T06:18:03Z</time>
        <sat>6</sat>
      </trkpt>
      <trkpt lat="42.667202" lon="-2.031368">
        <ele>426.9</ele>
        <time>2019-08-18T06:18:21Z</time>
        <sat>6</sat>
      </trkpt>
      <trkpt lat="42.667127" lon="-2.031426">
        <ele>426.9</ele>
        <time>2019-08-18T06:18:32Z</time>
        <sat>6</sat>
      </trkpt>
      <trkpt lat="42.667050" lon="-2.031500">
        <ele>427.0</ele>
        <time>2019-08-18T06:18:39Z</time>
        <sat>5</sat>
      </trkpt>
      <trkpt lat="42.666968" lon="-2.031550">
        <ele>427.2</ele>
        <time>2019-08-18T06:18:45Z</time>
        <sat>6</sat>
      </trkpt>
      <trkpt lat="42.666941" lon="-2.031588">
        <ele>427.2</ele>
        <time>2019-08-18T06:18:50Z</time>
        <sat>6</sat>
      </trkpt>
      <trkpt lat="42.666893" lon="-2.031610">
        <ele>427.2</ele>
        <time>2019-08-18T06:18:55Z</time>
        <sat>5</sat>
      </trkpt>
      <trkpt lat="42.666864" lon="-2.031652">
        <ele>426.9</ele>
        <time>2019-08-18T06:19:01Z</time>
        <sat>6</sat>
      </trkpt>
      <trkpt lat="42.666763" lon="-2.031637">
        <ele>429.7</ele>
        <time>2019-08-18T06:19:46Z</time>
        <sat>6</sat>
      </trkpt>
      <trkpt lat="42.666673" lon="-2.031673">
        <ele>429.2</ele>
        <time>2019-08-18T06:19:53Z</time>
        <sat>5</sat>
      </trkpt>
      <trkpt lat="42.666594" lon="-2.031746">
        <ele>429.1</ele>
        <time>2019-08-18T06:20:00Z</time>
        <sat>5</sat>
      </trkpt>
      <trkpt lat="42.666501" lon="-2.031810">
        <ele>428.5</ele>
        <time>2019-08-18T06:20:07Z</time>
        <sat>5</sat>
      </trkpt>
      <trkpt lat="42.666416" lon="-2.031860">
        <ele>427.8</ele>
        <time>2019-08-18T06:20:14Z</time>
        <sat>6</sat>
      </trkpt>
      <trkpt lat="42.666323" lon="-2.031854">
        <ele>427.4</ele>
        <time>2019-08-18T06:20:20Z</time>
        <sat>6</sat>
      </trkpt>
      <trkpt lat="42.666232" lon="-2.031881">
        <ele>427.3</ele>
        <time>2019-08-18T06:20:27Z</time>
        <sat>6</sat>
      </trkpt>
      <trkpt lat="42.666135" lon="-2.031895">
        <ele>427.5</ele>
        <time>2019-08-18T06:20:34Z</time>
        <sat>6</sat>
      </trkpt>
      <trkpt lat="42.666040" lon="-2.031914">
        <ele>427.8</ele>
        <time>2019-08-18T06:20:41Z</time>
        <sat>6</sat>
      </trkpt>
      <trkpt lat="42.665946" lon="-2.031917">
        <ele>428.2</ele>
        <time>2019-08-18T06:20:48Z</time>
        <sat>6</sat>
      </trkpt>
      <trkpt lat="42.665849" lon="-2.031929">
        <ele>428.5</ele>
        <time>2019-08-18T06:20:54Z</time>
        <sat>6</sat>
      </trkpt>
      <trkpt lat="42.665758" lon="-2.031930">
        <ele>429.0</ele>
        <time>2019-08-18T06:21:01Z</time>
        <sat>6</sat>
      </trkpt>
      <trkpt lat="42.665501" lon="-2.031952">
        <ele>431.3</ele>
        <time>2019-08-18T06:22:13Z</time>
        <sat>6</sat>
      </trkpt>
      <trkpt lat="42.665403" lon="-2.031958">
        <ele>431.0</ele>
        <time>2019-08-18T06:22:21Z</time>
        <sat>6</sat>
      </trkpt>
      <trkpt lat="42.665312" lon="-2.031970">
        <ele>430.9</ele>
        <time>2019-08-18T06:22:27Z</time>
        <sat>6</sat>
      </trkpt>
      <trkpt lat="42.665215" lon="-2.031996">
        <ele>432.3</ele>
        <time>2019-08-18T06:22:34Z</time>
        <sat>6</sat>
      </trkpt>
      <trkpt lat="42.665127" lon="-2.032025">
        <ele>433.1</ele>
        <time>2019-08-18T06:22:40Z</time>
        <sat>6</sat>
      </trkpt>
      <trkpt lat="42.665031" lon="-2.032042">
        <ele>433.7</ele>
        <time>2019-08-18T06:22:48Z</time>
        <sat>6</sat>
      </trkpt>
      <trkpt lat="42.664927" lon="-2.032069">
        <ele>434.2</ele>
        <time>2019-08-18T06:22:57Z</time>
        <sat>6</sat>
      </trkpt>
      <trkpt lat="42.664837" lon="-2.032115">
        <ele>434.4</ele>
        <time>2019-08-18T06:23:04Z</time>
        <sat>5</sat>
      </trkpt>
      <trkpt lat="42.664746" lon="-2.032158">
        <ele>434.7</ele>
        <time>2019-08-18T06:23:12Z</time>
        <sat>6</sat>
      </trkpt>
      <trkpt lat="42.664657" lon="-2.032199">
        <ele>435.0</ele>
        <time>2019-08-18T06:23:19Z</time>
        <sat>6</sat>
      </trkpt>
      <trkpt lat="42.664571" lon="-2.032249">
        <ele>435.2</ele>
        <time>2019-08-18T06:23:25Z</time>
        <sat>5</sat>
      </trkpt>
      <trkpt lat="42.664473" lon="-2.032282">
        <ele>435.5</ele>
        <time>2019-08-18T06:23:34Z</time>
        <sat>5</sat>
      </trkpt>
      <trkpt lat="42.664378" lon="-2.032345">
        <ele>435.9</ele>
        <time>2019-08-18T06:23:41Z</time>
        <sat>5</sat>
      </trkpt>
      <trkpt lat="42.664311" lon="-2.032447">
        <ele>436.6</ele>
        <time>2019-08-18T06:23:57Z</time>
        <sat>6</sat>
      </trkpt>
      <trkpt lat="42.664246" lon="-2.032548">
        <ele>437.3</ele>
        <time>2019-08-18T06:24:20Z</time>
        <sat>6</sat>
      </trkpt>
      <trkpt lat="42.664180" lon="-2.032649">
        <ele>437.4</ele>
        <time>2019-08-18T06:24:40Z</time>
        <sat>6</sat>
      </trkpt>
      <trkpt lat="42.664159" lon="-2.032778">
        <ele>437.1</ele>
        <time>2019-08-18T06:24:47Z</time>
        <sat>6</sat>
      </trkpt>
      <trkpt lat="42.664145" lon="-2.032921">
        <ele>437.7</ele>
        <time>2019-08-18T06:24:57Z</time>
        <sat>6</sat>
      </trkpt>
      <trkpt lat="42.664061" lon="-2.033001">
        <ele>437.4</ele>
        <time>2019-08-18T06:25:04Z</time>
        <sat>6</sat>
      </trkpt>
      <trkpt lat="42.663959" lon="-2.032997">
        <ele>437.0</ele>
        <time>2019-08-18T06:25:13Z</time>
        <sat>6</sat>
      </trkpt>
      <trkpt lat="42.663870" lon="-2.032929">
        <ele>435.8</ele>
        <time>2019-08-18T06:25:19Z</time>
        <sat>6</sat>
      </trkpt>
      <trkpt lat="42.663790" lon="-2.033004">
        <ele>437.9</ele>
        <time>2019-08-18T06:25:28Z</time>
        <sat>5</sat>
      </trkpt>
      <trkpt lat="42.663711" lon="-2.033070">
        <ele>439.1</ele>
        <time>2019-08-18T06:25:35Z</time>
        <sat>6</sat>
      </trkpt>
      <trkpt lat="42.663641" lon="-2.033162">
        <ele>439.8</ele>
        <time>2019-08-18T06:25:43Z</time>
        <sat>7</sat>
      </trkpt>
      <trkpt lat="42.663567" lon="-2.033245">
        <ele>440.4</ele>
        <time>2019-08-18T06:25:51Z</time>
        <sat>7</sat>
      </trkpt>
      <trkpt lat="42.663499" lon="-2.033331">
        <ele>440.8</ele>
        <time>2019-08-18T06:25:59Z</time>
        <sat>7</sat>
      </trkpt>
      <trkpt lat="42.663429" lon="-2.033430">
        <ele>441.3</ele>
        <time>2019-08-18T06:26:06Z</time>
        <sat>7</sat>
      </trkpt>
      <trkpt lat="42.663362" lon="-2.033523">
        <ele>441.5</ele>
        <time>2019-08-18T06:26:13Z</time>
        <sat>7</sat>
      </trkpt>
      <trkpt lat="42.663300" lon="-2.033616">
        <ele>441.7</ele>
        <time>2019-08-18T06:26:20Z</time>
        <sat>7</sat>
      </trkpt>
      <trkpt lat="42.663226" lon="-2.033693">
        <ele>442.9</ele>
        <time>2019-08-18T06:26:28Z</time>
        <sat>7</sat>
      </trkpt>
      <trkpt lat="42.663003" lon="-2.033998">
        <ele>445.4</ele>
        <time>2019-08-18T06:27:54Z</time>
        <sat>7</sat>
      </trkpt>
      <trkpt lat="42.662944" lon="-2.034112">
        <ele>445.9</ele>
        <time>2019-08-18T06:28:02Z</time>
        <sat>7</sat>
      </trkpt>
      <trkpt lat="42.662876" lon="-2.034204">
        <ele>446.9</ele>
        <time>2019-08-18T06:28:11Z</time>
        <sat>7</sat>
      </trkpt>
      <trkpt lat="42.662804" lon="-2.034300">
        <ele>446.7</ele>
        <time>2019-08-18T06:28:19Z</time>
        <sat>7</sat>
      </trkpt>
      <trkpt lat="42.662743" lon="-2.034394">
        <ele>445.7</ele>
        <time>2019-08-18T06:28:26Z</time>
        <sat>7</sat>
      </trkpt>
      <trkpt lat="42.662664" lon="-2.034476">
        <ele>447.2</ele>
        <time>2019-08-18T06:28:33Z</time>
        <sat>7</sat>
      </trkpt>
      <trkpt lat="42.662592" lon="-2.034563">
        <ele>448.8</ele>
        <time>2019-08-18T06:28:41Z</time>
        <sat>7</sat>
      </trkpt>
      <trkpt lat="42.662510" lon="-2.034639">
        <ele>449.8</ele>
        <time>2019-08-18T06:28:50Z</time>
        <sat>7</sat>
      </trkpt>
      <trkpt lat="42.662428" lon="-2.034717">
        <ele>450.8</ele>
        <time>2019-08-18T06:28:58Z</time>
        <sat>7</sat>
      </trkpt>
      <trkpt lat="42.662347" lon="-2.034803">
        <ele>451.6</ele>
        <time>2019-08-18T06:29:05Z</time>
        <sat>7</sat>
      </trkpt>
      <trkpt lat="42.662273" lon="-2.034885">
        <ele>452.0</ele>
        <time>2019-08-18T06:29:12Z</time>
        <sat>7</sat>
      </trkpt>
      <trkpt lat="42.662192" lon="-2.034968">
        <ele>451.0</ele>
        <time>2019-08-18T06:29:20Z</time>
        <sat>7</sat>
      </trkpt>
      <trkpt lat="42.662112" lon="-2.035029">
        <ele>454.2</ele>
        <time>2019-08-18T06:29:27Z</time>
        <sat>7</sat>
      </trkpt>
      <trkpt lat="42.662022" lon="-2.035096">
        <ele>454.9</ele>
        <time>2019-08-18T06:29:35Z</time>
        <sat>7</sat>
      </trkpt>
      <trkpt lat="42.661921" lon="-2.035134">
        <ele>454.9</ele>
        <time>2019-08-18T06:29:43Z</time>
        <sat>7</sat>
      </trkpt>
      <trkpt lat="42.661825" lon="-2.035176">
        <ele>455.2</ele>
        <time>2019-08-18T06:29:51Z</time>
        <sat>7</sat>
      </trkpt>
      <trkpt lat="42.661730" lon="-2.035208">
        <ele>455.6</ele>
        <time>2019-08-18T06:29:59Z</time>
        <sat>7</sat>
      </trkpt>
      <trkpt lat="42.661639" lon="-2.035224">
        <ele>456.3</ele>
        <time>2019-08-18T06:30:07Z</time>
        <sat>7</sat>
      </trkpt>
      <trkpt lat="42.661544" lon="-2.035252">
        <ele>456.9</ele>
        <time>2019-08-18T06:30:14Z</time>
        <sat>6</sat>
      </trkpt>
      <trkpt lat="42.661453" lon="-2.035287">
        <ele>457.6</ele>
        <time>2019-08-18T06:30:23Z</time>
        <sat>7</sat>
      </trkpt>
      <trkpt lat="42.661358" lon="-2.035336">
        <ele>458.2</ele>
        <time>2019-08-18T06:30:30Z</time>
        <sat>7</sat>
      </trkpt>
      <trkpt lat="42.661268" lon="-2.035353">
        <ele>458.9</ele>
        <time>2019-08-18T06:30:37Z</time>
        <sat>7</sat>
      </trkpt>
      <trkpt lat="42.661178" lon="-2.035376">
        <ele>459.3</ele>
        <time>2019-08-18T06:30:45Z</time>
        <sat>7</sat>
      </trkpt>
      <trkpt lat="42.661090" lon="-2.035433">
        <ele>458.7</ele>
        <time>2019-08-18T06:30:53Z</time>
        <sat>7</sat>
      </trkpt>
      <trkpt lat="42.661025" lon="-2.035527">
        <ele>461.2</ele>
        <time>2019-08-18T06:31:01Z</time>
        <sat>7</sat>
      </trkpt>
      <trkpt lat="42.660971" lon="-2.035630">
        <ele>461.3</ele>
        <time>2019-08-18T06:31:09Z</time>
        <sat>7</sat>
      </trkpt>
      <trkpt lat="42.660924" lon="-2.035735">
        <ele>463.5</ele>
        <time>2019-08-18T06:31:16Z</time>
        <sat>7</sat>
      </trkpt>
      <trkpt lat="42.660889" lon="-2.035861">
        <ele>466.0</ele>
        <time>2019-08-18T06:31:37Z</time>
        <sat>7</sat>
      </trkpt>
      <trkpt lat="42.660836" lon="-2.035968">
        <ele>466.5</ele>
        <time>2019-08-18T06:31:44Z</time>
        <sat>7</sat>
      </trkpt>
      <trkpt lat="42.660783" lon="-2.036070">
        <ele>467.3</ele>
        <time>2019-08-18T06:31:51Z</time>
        <sat>7</sat>
      </trkpt>
      <trkpt lat="42.660734" lon="-2.036187">
        <ele>467.9</ele>
        <time>2019-08-18T06:31:58Z</time>
        <sat>7</sat>
      </trkpt>
      <trkpt lat="42.660691" lon="-2.036297">
        <ele>468.5</ele>
        <time>2019-08-18T06:32:05Z</time>
        <sat>7</sat>
      </trkpt>
      <trkpt lat="42.660644" lon="-2.036412">
        <ele>469.0</ele>
        <time>2019-08-18T06:32:12Z</time>
        <sat>7</sat>
      </trkpt>
      <trkpt lat="42.660574" lon="-2.036510">
        <ele>469.6</ele>
        <time>2019-08-18T06:32:19Z</time>
        <sat>7</sat>
      </trkpt>
      <trkpt lat="42.660505" lon="-2.036600">
        <ele>469.6</ele>
        <time>2019-08-18T06:32:25Z</time>
        <sat>6</sat>
      </trkpt>
      <trkpt lat="42.660420" lon="-2.036654">
        <ele>470.1</ele>
        <time>2019-08-18T06:32:32Z</time>
        <sat>7</sat>
      </trkpt>
      <trkpt lat="42.660327" lon="-2.036656">
        <ele>470.6</ele>
        <time>2019-08-18T06:32:40Z</time>
        <sat>7</sat>
      </trkpt>
      <trkpt lat="42.660233" lon="-2.036668">
        <ele>471.0</ele>
        <time>2019-08-18T06:32:46Z</time>
        <sat>7</sat>
      </trkpt>
      <trkpt lat="42.660134" lon="-2.036694">
        <ele>471.6</ele>
        <time>2019-08-18T06:32:53Z</time>
        <sat>7</sat>
      </trkpt>
      <trkpt lat="42.660052" lon="-2.036754">
        <ele>472.2</ele>
        <time>2019-08-18T06:33:00Z</time>
        <sat>7</sat>
      </trkpt>
      <trkpt lat="42.659983" lon="-2.036838">
        <ele>473.1</ele>
        <time>2019-08-18T06:33:07Z</time>
        <sat>7</sat>
      </trkpt>
      <trkpt lat="42.659913" lon="-2.036917">
        <ele>473.8</ele>
        <time>2019-08-18T06:33:14Z</time>
        <sat>7</sat>
      </trkpt>
      <trkpt lat="42.659844" lon="-2.037003">
        <ele>474.5</ele>
        <time>2019-08-18T06:33:21Z</time>
        <sat>7</sat>
      </trkpt>
      <trkpt lat="42.659769" lon="-2.037096">
        <ele>475.1</ele>
        <time>2019-08-18T06:33:29Z</time>
        <sat>7</sat>
      </trkpt>
      <trkpt lat="42.659694" lon="-2.037174">
        <ele>475.5</ele>
        <time>2019-08-18T06:33:36Z</time>
        <sat>7</sat>
      </trkpt>
      <trkpt lat="42.659626" lon="-2.037262">
        <ele>475.8</ele>
        <time>2019-08-18T06:33:43Z</time>
        <sat>7</sat>
      </trkpt>
      <trkpt lat="42.659550" lon="-2.037350">
        <ele>476.2</ele>
        <time>2019-08-18T06:33:50Z</time>
        <sat>6</sat>
      </trkpt>
      <trkpt lat="42.659463" lon="-2.037413">
        <ele>476.6</ele>
        <time>2019-08-18T06:33:57Z</time>
        <sat>7</sat>
      </trkpt>
      <trkpt lat="42.659385" lon="-2.037474">
        <ele>477.0</ele>
        <time>2019-08-18T06:34:04Z</time>
        <sat>6</sat>
      </trkpt>
      <trkpt lat="42.659302" lon="-2.037559">
        <ele>477.6</ele>
        <time>2019-08-18T06:34:11Z</time>
        <sat>6</sat>
      </trkpt>
      <trkpt lat="42.659210" lon="-2.037599">
        <ele>477.7</ele>
        <time>2019-08-18T06:34:19Z</time>
        <sat>6</sat>
      </trkpt>
      <trkpt lat="42.659116" lon="-2.037632">
        <ele>476.9</ele>
        <time>2019-08-18T06:34:26Z</time>
        <sat>6</sat>
      </trkpt>
      <trkpt lat="42.659025" lon="-2.037659">
        <ele>477.0</ele>
        <time>2019-08-18T06:34:34Z</time>
        <sat>6</sat>
      </trkpt>
      <trkpt lat="42.658932" lon="-2.037703">
        <ele>479.1</ele>
        <time>2019-08-18T06:34:41Z</time>
        <sat>6</sat>
      </trkpt>
      <trkpt lat="42.658849" lon="-2.037759">
        <ele>480.2</ele>
        <time>2019-08-18T06:34:47Z</time>
        <sat>6</sat>
      </trkpt>
      <trkpt lat="42.658763" lon="-2.037804">
        <ele>481.2</ele>
        <time>2019-08-18T06:34:54Z</time>
        <sat>6</sat>
      </trkpt>
      <trkpt lat="42.658668" lon="-2.037857">
        <ele>482.3</ele>
        <time>2019-08-18T06:35:02Z</time>
        <sat>7</sat>
      </trkpt>
      <trkpt lat="42.658583" lon="-2.037911">
        <ele>483.0</ele>
        <time>2019-08-18T06:35:09Z</time>
        <sat>6</sat>
      </trkpt>
      <trkpt lat="42.658501" lon="-2.037975">
        <ele>484.0</ele>
        <time>2019-08-18T06:35:16Z</time>
        <sat>6</sat>
      </trkpt>
      <trkpt lat="42.658412" lon="-2.038001">
        <ele>484.4</ele>
        <time>2019-08-18T06:35:23Z</time>
        <sat>5</sat>
      </trkpt>
      <trkpt lat="42.658329" lon="-2.038071">
        <ele>484.8</ele>
        <time>2019-08-18T06:35:30Z</time>
        <sat>7</sat>
      </trkpt>
      <trkpt lat="42.658264" lon="-2.038169">
        <ele>484.8</ele>
        <time>2019-08-18T06:35:37Z</time>
        <sat>7</sat>
      </trkpt>
      <trkpt lat="42.658181" lon="-2.038240">
        <ele>484.8</ele>
        <time>2019-08-18T06:35:46Z</time>
        <sat>6</sat>
      </trkpt>
      <trkpt lat="42.658108" lon="-2.038334">
        <ele>485.3</ele>
        <time>2019-08-18T06:35:54Z</time>
        <sat>6</sat>
      </trkpt>
      <trkpt lat="42.658045" lon="-2.038429">
        <ele>486.3</ele>
        <time>2019-08-18T06:36:02Z</time>
        <sat>7</sat>
      </trkpt>
      <trkpt lat="42.657982" lon="-2.038528">
        <ele>486.5</ele>
        <time>2019-08-18T06:36:11Z</time>
        <sat>7</sat>
      </trkpt>
      <trkpt lat="42.657927" lon="-2.038627">
        <ele>489.9</ele>
        <time>2019-08-18T06:36:27Z</time>
        <sat>7</sat>
      </trkpt>
      <trkpt lat="42.657867" lon="-2.038730">
        <ele>491.2</ele>
        <time>2019-08-18T06:36:51Z</time>
        <sat>7</sat>
      </trkpt>
      <trkpt lat="42.657797" lon="-2.038814">
        <ele>491.5</ele>
        <time>2019-08-18T06:36:58Z</time>
        <sat>7</sat>
      </trkpt>
      <trkpt lat="42.657721" lon="-2.038910">
        <ele>491.7</ele>
        <time>2019-08-18T06:37:06Z</time>
        <sat>7</sat>
      </trkpt>
      <trkpt lat="42.657652" lon="-2.039005">
        <ele>492.3</ele>
        <time>2019-08-18T06:37:13Z</time>
        <sat>7</sat>
      </trkpt>
      <trkpt lat="42.657578" lon="-2.039097">
        <ele>492.7</ele>
        <time>2019-08-18T06:37:21Z</time>
        <sat>7</sat>
      </trkpt>
      <trkpt lat="42.657514" lon="-2.039200">
        <ele>493.0</ele>
        <time>2019-08-18T06:37:29Z</time>
        <sat>7</sat>
      </trkpt>
      <trkpt lat="42.657424" lon="-2.039251">
        <ele>493.2</ele>
        <time>2019-08-18T06:37:37Z</time>
        <sat>6</sat>
      </trkpt>
      <trkpt lat="42.657362" lon="-2.039357">
        <ele>493.5</ele>
        <time>2019-08-18T06:37:45Z</time>
        <sat>7</sat>
      </trkpt>
      <trkpt lat="42.657314" lon="-2.039465">
        <ele>493.7</ele>
        <time>2019-08-18T06:37:52Z</time>
        <sat>6</sat>
      </trkpt>
      <trkpt lat="42.657260" lon="-2.039575">
        <ele>494.1</ele>
        <time>2019-08-18T06:37:59Z</time>
        <sat>6</sat>
      </trkpt>
      <trkpt lat="42.657189" lon="-2.039655">
        <ele>494.4</ele>
        <time>2019-08-18T06:38:06Z</time>
        <sat>6</sat>
      </trkpt>
      <trkpt lat="42.657135" lon="-2.039759">
        <ele>494.8</ele>
        <time>2019-08-18T06:38:13Z</time>
        <sat>6</sat>
      </trkpt>
      <trkpt lat="42.657048" lon="-2.039858">
        <ele>494.9</ele>
        <time>2019-08-18T06:38:21Z</time>
        <sat>6</sat>
      </trkpt>
      <trkpt lat="42.656979" lon="-2.039940">
        <ele>495.4</ele>
        <time>2019-08-18T06:38:27Z</time>
        <sat>6</sat>
      </trkpt>
      <trkpt lat="42.656931" lon="-2.040055">
        <ele>493.9</ele>
        <time>2019-08-18T06:38:35Z</time>
        <sat>6</sat>
      </trkpt>
      <trkpt lat="42.656840" lon="-2.040113">
        <ele>495.2</ele>
        <time>2019-08-18T06:38:44Z</time>
        <sat>5</sat>
      </trkpt>
      <trkpt lat="42.656749" lon="-2.040145">
        <ele>496.7</ele>
        <time>2019-08-18T06:38:51Z</time>
        <sat>5</sat>
      </trkpt>
      <trkpt lat="42.656664" lon="-2.040204">
        <ele>497.9</ele>
        <time>2019-08-18T06:38:57Z</time>
        <sat>5</sat>
      </trkpt>
      <trkpt lat="42.656590" lon="-2.040278">
        <ele>498.7</ele>
        <time>2019-08-18T06:39:03Z</time>
        <sat>6</sat>
      </trkpt>
      <trkpt lat="42.656504" lon="-2.040335">
        <ele>499.8</ele>
        <time>2019-08-18T06:39:12Z</time>
        <sat>5</sat>
      </trkpt>
      <trkpt lat="42.656425" lon="-2.040400">
        <ele>500.8</ele>
        <time>2019-08-18T06:39:25Z</time>
        <sat>5</sat>
      </trkpt>
      <trkpt lat="42.656340" lon="-2.040447">
        <ele>501.6</ele>
        <time>2019-08-18T06:39:30Z</time>
        <sat>5</sat>
      </trkpt>
      <trkpt lat="42.656250" lon="-2.040514">
        <ele>502.3</ele>
        <time>2019-08-18T06:39:37Z</time>
        <sat>6</sat>
      </trkpt>
      <trkpt lat="42.656157" lon="-2.040561">
        <ele>502.9</ele>
        <time>2019-08-18T06:39:43Z</time>
        <sat>6</sat>
      </trkpt>
      <trkpt lat="42.656075" lon="-2.040622">
        <ele>503.5</ele>
        <time>2019-08-18T06:39:51Z</time>
        <sat>5</sat>
      </trkpt>
      <trkpt lat="42.655993" lon="-2.040679">
        <ele>504.2</ele>
        <time>2019-08-18T06:40:11Z</time>
        <sat>6</sat>
      </trkpt>
      <trkpt lat="42.655928" lon="-2.040767">
        <ele>504.0</ele>
        <time>2019-08-18T06:40:20Z</time>
        <sat>4</sat>
      </trkpt>
      <trkpt lat="42.655854" lon="-2.040842">
        <ele>504.8</ele>
        <time>2019-08-18T06:40:26Z</time>
        <sat>6</sat>
      </trkpt>
      <trkpt lat="42.655753" lon="-2.040889">
        <ele>505.4</ele>
        <time>2019-08-18T06:40:33Z</time>
        <sat>6</sat>
      </trkpt>
      <trkpt lat="42.655661" lon="-2.040948">
        <ele>505.9</ele>
        <time>2019-08-18T06:40:41Z</time>
        <sat>6</sat>
      </trkpt>
      <trkpt lat="42.655562" lon="-2.041017">
        <ele>506.6</ele>
        <time>2019-08-18T06:40:49Z</time>
        <sat>6</sat>
      </trkpt>
      <trkpt lat="42.655489" lon="-2.040933">
        <ele>506.1</ele>
        <time>2019-08-18T06:41:10Z</time>
        <sat>6</sat>
      </trkpt>
      <trkpt lat="42.655429" lon="-2.040833">
        <ele>505.4</ele>
        <time>2019-08-18T06:41:18Z</time>
        <sat>5</sat>
      </trkpt>
      <trkpt lat="42.655338" lon="-2.040804">
        <ele>504.1</ele>
        <time>2019-08-18T06:41:27Z</time>
        <sat>7</sat>
      </trkpt>
      <trkpt lat="42.655248" lon="-2.040811">
        <ele>502.4</ele>
        <time>2019-08-18T06:41:37Z</time>
        <sat>5</sat>
      </trkpt>
      <trkpt lat="42.655149" lon="-2.040811">
        <ele>501.1</ele>
        <time>2019-08-18T06:41:45Z</time>
        <sat>7</sat>
      </trkpt>
      <trkpt lat="42.655061" lon="-2.040844">
        <ele>499.9</ele>
        <time>2019-08-18T06:41:53Z</time>
        <sat>7</sat>
      </trkpt>
      <trkpt lat="42.654971" lon="-2.040905">
        <ele>497.6</ele>
        <time>2019-08-18T06:42:05Z</time>
        <sat>7</sat>
      </trkpt>
      <trkpt lat="42.654914" lon="-2.041015">
        <ele>497.0</ele>
        <time>2019-08-18T06:42:16Z</time>
        <sat>6</sat>
      </trkpt>
      <trkpt lat="42.654843" lon="-2.041105">
        <ele>498.1</ele>
        <time>2019-08-18T06:42:24Z</time>
        <sat>6</sat>
      </trkpt>
      <trkpt lat="42.654767" lon="-2.041195">
        <ele>497.8</ele>
        <time>2019-08-18T06:42:34Z</time>
        <sat>7</sat>
      </trkpt>
      <trkpt lat="42.654677" lon="-2.041224">
        <ele>495.1</ele>
        <time>2019-08-18T06:43:03Z</time>
        <sat>7</sat>
      </trkpt>
      <trkpt lat="42.654592" lon="-2.041287">
        <ele>493.1</ele>
        <time>2019-08-18T06:43:18Z</time>
        <sat>7</sat>
      </trkpt>
      <trkpt lat="42.654508" lon="-2.041344">
        <ele>491.0</ele>
        <time>2019-08-18T06:43:29Z</time>
        <sat>7</sat>
      </trkpt>
      <trkpt lat="42.654413" lon="-2.041341">
        <ele>489.4</ele>
        <time>2019-08-18T06:43:39Z</time>
        <sat>6</sat>
      </trkpt>
      <trkpt lat="42.654323" lon="-2.041308">
        <ele>487.6</ele>
        <time>2019-08-18T06:43:48Z</time>
        <sat>7</sat>
      </trkpt>
      <trkpt lat="42.654231" lon="-2.041259">
        <ele>486.5</ele>
        <time>2019-08-18T06:43:57Z</time>
        <sat>6</sat>
      </trkpt>
      <trkpt lat="42.654136" lon="-2.041306">
        <ele>485.6</ele>
        <time>2019-08-18T06:44:06Z</time>
        <sat>7</sat>
      </trkpt>
      <trkpt lat="42.654040" lon="-2.041329">
        <ele>485.7</ele>
        <time>2019-08-18T06:44:15Z</time>
        <sat>7</sat>
      </trkpt>
      <trkpt lat="42.653956" lon="-2.041392">
        <ele>485.6</ele>
        <time>2019-08-18T06:44:22Z</time>
        <sat>7</sat>
      </trkpt>
      <trkpt lat="42.653878" lon="-2.041465">
        <ele>485.5</ele>
        <time>2019-08-18T06:44:29Z</time>
        <sat>7</sat>
      </trkpt>
      <trkpt lat="42.653786" lon="-2.041496">
        <ele>485.4</ele>
        <time>2019-08-18T06:44:36Z</time>
        <sat>7</sat>
      </trkpt>
      <trkpt lat="42.653697" lon="-2.041535">
        <ele>485.6</ele>
        <time>2019-08-18T06:44:43Z</time>
        <sat>6</sat>
      </trkpt>
      <trkpt lat="42.653602" lon="-2.041550">
        <ele>485.8</ele>
        <time>2019-08-18T06:44:50Z</time>
        <sat>6</sat>
      </trkpt>
      <trkpt lat="42.653509" lon="-2.041584">
        <ele>485.8</ele>
        <time>2019-08-18T06:44:57Z</time>
        <sat>6</sat>
      </trkpt>
      <trkpt lat="42.653419" lon="-2.041627">
        <ele>486.0</ele>
        <time>2019-08-18T06:45:04Z</time>
        <sat>5</sat>
      </trkpt>
      <trkpt lat="42.653330" lon="-2.041659">
        <ele>486.0</ele>
        <time>2019-08-18T06:45:11Z</time>
        <sat>6</sat>
      </trkpt>
      <trkpt lat="42.653235" lon="-2.041700">
        <ele>486.3</ele>
        <time>2019-08-18T06:45:19Z</time>
        <sat>6</sat>
      </trkpt>
      <trkpt lat="42.653149" lon="-2.041735">
        <ele>486.6</ele>
        <time>2019-08-18T06:45:26Z</time>
        <sat>7</sat>
      </trkpt>
      <trkpt lat="42.653055" lon="-2.041786">
        <ele>486.7</ele>
        <time>2019-08-18T06:45:34Z</time>
        <sat>7</sat>
      </trkpt>
      <trkpt lat="42.652961" lon="-2.041824">
        <ele>487.4</ele>
        <time>2019-08-18T06:45:45Z</time>
        <sat>7</sat>
      </trkpt>
      <trkpt lat="42.652875" lon="-2.041892">
        <ele>486.4</ele>
        <time>2019-08-18T06:45:53Z</time>
        <sat>7</sat>
      </trkpt>
      <trkpt lat="42.652793" lon="-2.041970">
        <ele>488.3</ele>
        <time>2019-08-18T06:46:00Z</time>
        <sat>6</sat>
      </trkpt>
      <trkpt lat="42.652701" lon="-2.042019">
        <ele>489.9</ele>
        <time>2019-08-18T06:46:08Z</time>
        <sat>6</sat>
      </trkpt>
      <trkpt lat="42.652612" lon="-2.042087">
        <ele>491.6</ele>
        <time>2019-08-18T06:46:18Z</time>
        <sat>7</sat>
      </trkpt>
      <trkpt lat="42.652522" lon="-2.042151">
        <ele>492.9</ele>
        <time>2019-08-18T06:46:27Z</time>
        <sat>7</sat>
      </trkpt>
      <trkpt lat="42.652431" lon="-2.042193">
        <ele>493.9</ele>
        <time>2019-08-18T06:46:35Z</time>
        <sat>7</sat>
      </trkpt>
      <trkpt lat="42.652331" lon="-2.042222">
        <ele>495.1</ele>
        <time>2019-08-18T06:46:43Z</time>
        <sat>7</sat>
      </trkpt>
      <trkpt lat="42.652241" lon="-2.042268">
        <ele>496.1</ele>
        <time>2019-08-18T06:46:50Z</time>
        <sat>7</sat>
      </trkpt>
      <trkpt lat="42.652150" lon="-2.042333">
        <ele>497.0</ele>
        <time>2019-08-18T06:46:58Z</time>
        <sat>7</sat>
      </trkpt>
      <trkpt lat="42.652069" lon="-2.042390">
        <ele>497.8</ele>
        <time>2019-08-18T06:47:05Z</time>
        <sat>8</sat>
      </trkpt>
      <trkpt lat="42.651986" lon="-2.042466">
        <ele>498.5</ele>
        <time>2019-08-18T06:47:13Z</time>
        <sat>8</sat>
      </trkpt>
      <trkpt lat="42.651902" lon="-2.042540">
        <ele>499.0</ele>
        <time>2019-08-18T06:47:20Z</time>
        <sat>7</sat>
      </trkpt>
      <trkpt lat="42.651824" lon="-2.042605">
        <ele>499.7</ele>
        <time>2019-08-18T06:47:28Z</time>
        <sat>7</sat>
      </trkpt>
      <trkpt lat="42.651754" lon="-2.042684">
        <ele>500.6</ele>
        <time>2019-08-18T06:47:50Z</time>
        <sat>8</sat>
      </trkpt>
      <trkpt lat="42.651670" lon="-2.042764">
        <ele>500.9</ele>
        <time>2019-08-18T06:47:57Z</time>
        <sat>8</sat>
      </trkpt>
      <trkpt lat="42.651591" lon="-2.042853">
        <ele>501.1</ele>
        <time>2019-08-18T06:48:05Z</time>
        <sat>7</sat>
      </trkpt>
      <trkpt lat="42.651513" lon="-2.042933">
        <ele>501.8</ele>
        <time>2019-08-18T06:48:13Z</time>
        <sat>7</sat>
      </trkpt>
      <trkpt lat="42.651448" lon="-2.043018">
        <ele>502.1</ele>
        <time>2019-08-18T06:48:20Z</time>
        <sat>8</sat>
      </trkpt>
      <trkpt lat="42.651373" lon="-2.043100">
        <ele>502.5</ele>
        <time>2019-08-18T06:48:27Z</time>
        <sat>7</sat>
      </trkpt>
      <trkpt lat="42.651302" lon="-2.043195">
        <ele>502.9</ele>
        <time>2019-08-18T06:48:34Z</time>
        <sat>7</sat>
      </trkpt>
      <trkpt lat="42.651228" lon="-2.043278">
        <ele>503.4</ele>
        <time>2019-08-18T06:48:41Z</time>
        <sat>6</sat>
      </trkpt>
      <trkpt lat="42.651157" lon="-2.043358">
        <ele>503.9</ele>
        <time>2019-08-18T06:48:48Z</time>
        <sat>8</sat>
      </trkpt>
      <trkpt lat="42.651069" lon="-2.043432">
        <ele>504.7</ele>
        <time>2019-08-18T06:48:56Z</time>
        <sat>8</sat>
      </trkpt>
      <trkpt lat="42.650987" lon="-2.043516">
        <ele>505.5</ele>
        <time>2019-08-18T06:49:04Z</time>
        <sat>8</sat>
      </trkpt>
      <trkpt lat="42.650910" lon="-2.043591">
        <ele>506.1</ele>
        <time>2019-08-18T06:49:13Z</time>
        <sat>8</sat>
      </trkpt>
      <trkpt lat="42.650814" lon="-2.043607">
        <ele>507.1</ele>
        <time>2019-08-18T06:52:42Z</time>
        <sat>9</sat>
      </trkpt>
      <trkpt lat="42.650731" lon="-2.043677">
        <ele>507.2</ele>
        <time>2019-08-18T06:52:49Z</time>
        <sat>8</sat>
      </trkpt>
      <trkpt lat="42.650653" lon="-2.043763">
        <ele>507.7</ele>
        <time>2019-08-18T06:52:56Z</time>
        <sat>9</sat>
      </trkpt>
      <trkpt lat="42.650586" lon="-2.043867">
        <ele>508.6</ele>
        <time>2019-08-18T06:53:06Z</time>
        <sat>8</sat>
      </trkpt>
      <trkpt lat="42.650495" lon="-2.043922">
        <ele>509.4</ele>
        <time>2019-08-18T06:53:13Z</time>
        <sat>7</sat>
      </trkpt>
      <trkpt lat="42.650408" lon="-2.043980">
        <ele>510.5</ele>
        <time>2019-08-18T06:53:22Z</time>
        <sat>7</sat>
      </trkpt>
      <trkpt lat="42.650307" lon="-2.044121">
        <ele>512.4</ele>
        <time>2019-08-18T06:54:54Z</time>
        <sat>8</sat>
      </trkpt>
      <trkpt lat="42.650237" lon="-2.044213">
        <ele>512.6</ele>
        <time>2019-08-18T06:55:04Z</time>
        <sat>8</sat>
      </trkpt>
      <trkpt lat="42.650170" lon="-2.044307">
        <ele>512.1</ele>
        <time>2019-08-18T06:55:21Z</time>
        <sat>7</sat>
      </trkpt>
      <trkpt lat="42.650091" lon="-2.044398">
        <ele>512.2</ele>
        <time>2019-08-18T06:55:29Z</time>
        <sat>8</sat>
      </trkpt>
      <trkpt lat="42.650018" lon="-2.044485">
        <ele>513.1</ele>
        <time>2019-08-18T06:55:36Z</time>
        <sat>8</sat>
      </trkpt>
      <trkpt lat="42.649960" lon="-2.044581">
        <ele>514.1</ele>
        <time>2019-08-18T06:55:43Z</time>
        <sat>8</sat>
      </trkpt>
      <trkpt lat="42.649894" lon="-2.044679">
        <ele>514.7</ele>
        <time>2019-08-18T06:55:50Z</time>
        <sat>8</sat>
      </trkpt>
      <trkpt lat="42.649838" lon="-2.044786">
        <ele>515.2</ele>
        <time>2019-08-18T06:55:57Z</time>
        <sat>8</sat>
      </trkpt>
      <trkpt lat="42.649775" lon="-2.044880">
        <ele>515.7</ele>
        <time>2019-08-18T06:56:05Z</time>
        <sat>8</sat>
      </trkpt>
      <trkpt lat="42.649713" lon="-2.044977">
        <ele>516.2</ele>
        <time>2019-08-18T06:56:13Z</time>
        <sat>7</sat>
      </trkpt>
      <trkpt lat="42.649628" lon="-2.045052">
        <ele>516.8</ele>
        <time>2019-08-18T06:56:28Z</time>
        <sat>7</sat>
      </trkpt>
      <trkpt lat="42.649557" lon="-2.045154">
        <ele>517.1</ele>
        <time>2019-08-18T06:56:35Z</time>
        <sat>7</sat>
      </trkpt>
      <trkpt lat="42.649493" lon="-2.045262">
        <ele>517.3</ele>
        <time>2019-08-18T06:56:42Z</time>
        <sat>8</sat>
      </trkpt>
      <trkpt lat="42.649426" lon="-2.045345">
        <ele>517.6</ele>
        <time>2019-08-18T06:56:48Z</time>
        <sat>8</sat>
      </trkpt>
      <trkpt lat="42.649373" lon="-2.045452">
        <ele>518.0</ele>
        <time>2019-08-18T06:56:55Z</time>
        <sat>9</sat>
      </trkpt>
      <trkpt lat="42.649317" lon="-2.045559">
        <ele>518.4</ele>
        <time>2019-08-18T06:57:02Z</time>
        <sat>9</sat>
      </trkpt>
      <trkpt lat="42.649268" lon="-2.045691">
        <ele>519.9</ele>
        <time>2019-08-18T06:57:38Z</time>
        <sat>9</sat>
      </trkpt>
      <trkpt lat="42.649186" lon="-2.045775">
        <ele>519.8</ele>
        <time>2019-08-18T06:57:45Z</time>
        <sat>9</sat>
      </trkpt>
      <trkpt lat="42.649121" lon="-2.045878">
        <ele>520.1</ele>
        <time>2019-08-18T06:57:52Z</time>
        <sat>9</sat>
      </trkpt>
      <trkpt lat="42.649056" lon="-2.045981">
        <ele>520.5</ele>
        <time>2019-08-18T06:57:59Z</time>
        <sat>9</sat>
      </trkpt>
      <trkpt lat="42.648995" lon="-2.046091">
        <ele>521.0</ele>
        <time>2019-08-18T06:58:07Z</time>
        <sat>9</sat>
      </trkpt>
      <trkpt lat="42.648934" lon="-2.046203">
        <ele>521.7</ele>
        <time>2019-08-18T06:58:15Z</time>
        <sat>9</sat>
      </trkpt>
      <trkpt lat="42.648867" lon="-2.046298">
        <ele>522.3</ele>
        <time>2019-08-18T06:58:22Z</time>
        <sat>9</sat>
      </trkpt>
      <trkpt lat="42.648812" lon="-2.046410">
        <ele>522.7</ele>
        <time>2019-08-18T06:58:29Z</time>
        <sat>9</sat>
      </trkpt>
      <trkpt lat="42.648747" lon="-2.046512">
        <ele>523.1</ele>
        <time>2019-08-18T06:58:36Z</time>
        <sat>9</sat>
      </trkpt>
      <trkpt lat="42.648685" lon="-2.046611">
        <ele>523.8</ele>
        <time>2019-08-18T06:58:47Z</time>
        <sat>9</sat>
      </trkpt>
      <trkpt lat="42.648625" lon="-2.046706">
        <ele>524.3</ele>
        <time>2019-08-18T06:58:54Z</time>
        <sat>9</sat>
      </trkpt>
      <trkpt lat="42.648561" lon="-2.046809">
        <ele>524.7</ele>
        <time>2019-08-18T06:59:01Z</time>
        <sat>9</sat>
      </trkpt>
      <trkpt lat="42.648496" lon="-2.046916">
        <ele>525.2</ele>
        <time>2019-08-18T06:59:08Z</time>
        <sat>9</sat>
      </trkpt>
      <trkpt lat="42.648421" lon="-2.047006">
        <ele>525.7</ele>
        <time>2019-08-18T06:59:15Z</time>
        <sat>9</sat>
      </trkpt>
      <trkpt lat="42.648359" lon="-2.047098">
        <ele>526.1</ele>
        <time>2019-08-18T06:59:22Z</time>
        <sat>9</sat>
      </trkpt>
      <trkpt lat="42.648288" lon="-2.047191">
        <ele>526.7</ele>
        <time>2019-08-18T06:59:29Z</time>
        <sat>9</sat>
      </trkpt>
      <trkpt lat="42.648206" lon="-2.047255">
        <ele>527.4</ele>
        <time>2019-08-18T06:59:36Z</time>
        <sat>9</sat>
      </trkpt>
      <trkpt lat="42.648122" lon="-2.047315">
        <ele>528.4</ele>
        <time>2019-08-18T06:59:43Z</time>
        <sat>9</sat>
      </trkpt>
      <trkpt lat="42.648030" lon="-2.047374">
        <ele>529.1</ele>
        <time>2019-08-18T06:59:51Z</time>
        <sat>8</sat>
      </trkpt>
      <trkpt lat="42.647951" lon="-2.047436">
        <ele>529.4</ele>
        <time>2019-08-18T06:59:58Z</time>
        <sat>9</sat>
      </trkpt>
      <trkpt lat="42.647878" lon="-2.047508">
        <ele>528.7</ele>
        <time>2019-08-18T07:00:07Z</time>
        <sat>9</sat>
      </trkpt>
      <trkpt lat="42.647778" lon="-2.047529">
        <ele>531.6</ele>
        <time>2019-08-18T07:00:46Z</time>
        <sat>9</sat>
      </trkpt>
      <trkpt lat="42.647692" lon="-2.047565">
        <ele>532.0</ele>
        <time>2019-08-18T07:00:53Z</time>
        <sat>8</sat>
      </trkpt>
      <trkpt lat="42.647599" lon="-2.047613">
        <ele>532.6</ele>
        <time>2019-08-18T07:01:01Z</time>
        <sat>9</sat>
      </trkpt>
      <trkpt lat="42.647502" lon="-2.047669">
        <ele>533.1</ele>
        <time>2019-08-18T07:01:09Z</time>
        <sat>9</sat>
      </trkpt>
      <trkpt lat="42.647405" lon="-2.047714">
        <ele>533.6</ele>
        <time>2019-08-18T07:01:17Z</time>
        <sat>9</sat>
      </trkpt>
      <trkpt lat="42.647314" lon="-2.047722">
        <ele>534.3</ele>
        <time>2019-08-18T07:01:24Z</time>
        <sat>9</sat>
      </trkpt>
      <trkpt lat="42.647214" lon="-2.047728">
        <ele>535.2</ele>
        <time>2019-08-18T07:01:32Z</time>
        <sat>8</sat>
      </trkpt>
      <trkpt lat="42.647117" lon="-2.047745">
        <ele>535.9</ele>
        <time>2019-08-18T07:01:40Z</time>
        <sat>8</sat>
      </trkpt>
      <trkpt lat="42.647028" lon="-2.047764">
        <ele>537.3</ele>
        <time>2019-08-18T07:01:55Z</time>
        <sat>8</sat>
      </trkpt>
      <trkpt lat="42.646937" lon="-2.047757">
        <ele>537.8</ele>
        <time>2019-08-18T07:02:02Z</time>
        <sat>7</sat>
      </trkpt>
      <trkpt lat="42.646835" lon="-2.047758">
        <ele>537.9</ele>
        <time>2019-08-18T07:02:09Z</time>
        <sat>8</sat>
      </trkpt>
      <trkpt lat="42.646745" lon="-2.047768">
        <ele>538.9</ele>
        <time>2019-08-18T07:02:17Z</time>
        <sat>9</sat>
      </trkpt>
      <trkpt lat="42.646644" lon="-2.047794">
        <ele>538.9</ele>
        <time>2019-08-18T07:02:26Z</time>
        <sat>9</sat>
      </trkpt>
      <trkpt lat="42.646546" lon="-2.047819">
        <ele>539.8</ele>
        <time>2019-08-18T07:02:35Z</time>
        <sat>9</sat>
      </trkpt>
      <trkpt lat="42.646445" lon="-2.047840">
        <ele>540.3</ele>
        <time>2019-08-18T07:02:42Z</time>
        <sat>8</sat>
      </trkpt>
      <trkpt lat="42.646354" lon="-2.047892">
        <ele>540.9</ele>
        <time>2019-08-18T07:02:49Z</time>
        <sat>9</sat>
      </trkpt>
      <trkpt lat="42.646332" lon="-2.048016">
        <ele>542.4</ele>
        <time>2019-08-18T07:03:01Z</time>
        <sat>8</sat>
      </trkpt>
      <trkpt lat="42.646364" lon="-2.048131">
        <ele>542.8</ele>
        <time>2019-08-18T07:03:09Z</time>
        <sat>8</sat>
      </trkpt>
      <trkpt lat="42.646386" lon="-2.048254">
        <ele>543.0</ele>
        <time>2019-08-18T07:03:17Z</time>
        <sat>8</sat>
      </trkpt>
      <trkpt lat="42.646426" lon="-2.048380">
        <ele>541.8</ele>
        <time>2019-08-18T07:03:27Z</time>
        <sat>8</sat>
      </trkpt>
      <trkpt lat="42.646445" lon="-2.048500">
        <ele>543.4</ele>
        <time>2019-08-18T07:03:33Z</time>
        <sat>9</sat>
      </trkpt>
      <trkpt lat="42.646477" lon="-2.048620">
        <ele>544.4</ele>
        <time>2019-08-18T07:03:40Z</time>
        <sat>9</sat>
      </trkpt>
      <trkpt lat="42.646500" lon="-2.048747">
        <ele>544.8</ele>
        <time>2019-08-18T07:03:47Z</time>
        <sat>9</sat>
      </trkpt>
      <trkpt lat="42.646527" lon="-2.048865">
        <ele>545.0</ele>
        <time>2019-08-18T07:03:54Z</time>
        <sat>9</sat>
      </trkpt>
      <trkpt lat="42.646529" lon="-2.049000">
        <ele>545.1</ele>
        <time>2019-08-18T07:04:06Z</time>
        <sat>9</sat>
      </trkpt>
      <trkpt lat="42.646552" lon="-2.049134">
        <ele>545.3</ele>
        <time>2019-08-18T07:04:14Z</time>
        <sat>9</sat>
      </trkpt>
      <trkpt lat="42.646567" lon="-2.049255">
        <ele>545.2</ele>
        <time>2019-08-18T07:04:21Z</time>
        <sat>9</sat>
      </trkpt>
      <trkpt lat="42.646570" lon="-2.049383">
        <ele>545.2</ele>
        <time>2019-08-18T07:04:28Z</time>
        <sat>9</sat>
      </trkpt>
      <trkpt lat="42.646573" lon="-2.049521">
        <ele>545.3</ele>
        <time>2019-08-18T07:04:36Z</time>
        <sat>9</sat>
      </trkpt>
      <trkpt lat="42.646572" lon="-2.049660">
        <ele>545.4</ele>
        <time>2019-08-18T07:04:44Z</time>
        <sat>9</sat>
      </trkpt>
      <trkpt lat="42.646580" lon="-2.049798">
        <ele>545.5</ele>
        <time>2019-08-18T07:04:52Z</time>
        <sat>9</sat>
      </trkpt>
      <trkpt lat="42.646600" lon="-2.049928">
        <ele>545.6</ele>
        <time>2019-08-18T07:05:00Z</time>
        <sat>9</sat>
      </trkpt>
      <trkpt lat="42.646624" lon="-2.050052">
        <ele>545.8</ele>
        <time>2019-08-18T07:05:07Z</time>
        <sat>9</sat>
      </trkpt>
      <trkpt lat="42.646639" lon="-2.050176">
        <ele>546.1</ele>
        <time>2019-08-18T07:05:14Z</time>
        <sat>8</sat>
      </trkpt>
      <trkpt lat="42.646668" lon="-2.050306">
        <ele>546.4</ele>
        <time>2019-08-18T07:05:22Z</time>
        <sat>8</sat>
      </trkpt>
      <trkpt lat="42.646695" lon="-2.050433">
        <ele>546.8</ele>
        <time>2019-08-18T07:05:30Z</time>
        <sat>9</sat>
      </trkpt>
      <trkpt lat="42.646705" lon="-2.050566">
        <ele>547.1</ele>
        <time>2019-08-18T07:05:41Z</time>
        <sat>9</sat>
      </trkpt>
      <trkpt lat="42.646728" lon="-2.050685">
        <ele>547.3</ele>
        <time>2019-08-18T07:05:48Z</time>
        <sat>9</sat>
      </trkpt>
      <trkpt lat="42.646749" lon="-2.050811">
        <ele>547.6</ele>
        <time>2019-08-18T07:05:55Z</time>
        <sat>9</sat>
      </trkpt>
      <trkpt lat="42.646770" lon="-2.050935">
        <ele>547.7</ele>
        <time>2019-08-18T07:06:02Z</time>
        <sat>9</sat>
      </trkpt>
      <trkpt lat="42.646790" lon="-2.051062">
        <ele>547.8</ele>
        <time>2019-08-18T07:06:09Z</time>
        <sat>9</sat>
      </trkpt>
      <trkpt lat="42.646813" lon="-2.051184">
        <ele>547.9</ele>
        <time>2019-08-18T07:06:16Z</time>
        <sat>9</sat>
      </trkpt>
      <trkpt lat="42.646843" lon="-2.051313">
        <ele>548.1</ele>
        <time>2019-08-18T07:06:23Z</time>
        <sat>9</sat>
      </trkpt>
      <trkpt lat="42.646854" lon="-2.051436">
        <ele>548.3</ele>
        <time>2019-08-18T07:06:30Z</time>
        <sat>9</sat>
      </trkpt>
      <trkpt lat="42.646884" lon="-2.051555">
        <ele>548.5</ele>
        <time>2019-08-18T07:06:37Z</time>
        <sat>9</sat>
      </trkpt>
      <trkpt lat="42.646910" lon="-2.051675">
        <ele>548.6</ele>
        <time>2019-08-18T07:06:44Z</time>
        <sat>9</sat>
      </trkpt>
      <trkpt lat="42.646937" lon="-2.051809">
        <ele>547.5</ele>
        <time>2019-08-18T07:06:52Z</time>
        <sat>8</sat>
      </trkpt>
      <trkpt lat="42.646963" lon="-2.051942">
        <ele>548.6</ele>
        <time>2019-08-18T07:07:00Z</time>
        <sat>8</sat>
      </trkpt>
      <trkpt lat="42.647000" lon="-2.052157">
        <ele>548.5</ele>
        <time>2019-08-18T07:07:45Z</time>
        <sat>9</sat>
      </trkpt>
      <trkpt lat="42.647018" lon="-2.052290">
        <ele>549.3</ele>
        <time>2019-08-18T07:07:52Z</time>
        <sat>9</sat>
      </trkpt>
      <trkpt lat="42.647052" lon="-2.052405">
        <ele>549.6</ele>
        <time>2019-08-18T07:07:58Z</time>
        <sat>9</sat>
      </trkpt>
      <trkpt lat="42.647071" lon="-2.052529">
        <ele>549.8</ele>
        <time>2019-08-18T07:08:05Z</time>
        <sat>9</sat>
      </trkpt>
      <trkpt lat="42.647083" lon="-2.052658">
        <ele>550.0</ele>
        <time>2019-08-18T07:08:13Z</time>
        <sat>9</sat>
      </trkpt>
      <trkpt lat="42.647077" lon="-2.052786">
        <ele>549.8</ele>
        <time>2019-08-18T07:08:20Z</time>
        <sat>9</sat>
      </trkpt>
      <trkpt lat="42.647083" lon="-2.052917">
        <ele>549.9</ele>
        <time>2019-08-18T07:08:27Z</time>
        <sat>9</sat>
      </trkpt>
      <trkpt lat="42.647135" lon="-2.053019">
        <ele>550.2</ele>
        <time>2019-08-18T07:08:37Z</time>
        <sat>8</sat>
      </trkpt>
      <trkpt lat="42.647186" lon="-2.053123">
        <ele>550.1</ele>
        <time>2019-08-18T07:08:44Z</time>
        <sat>9</sat>
      </trkpt>
      <trkpt lat="42.647193" lon="-2.053253">
        <ele>550.4</ele>
        <time>2019-08-18T07:08:52Z</time>
        <sat>9</sat>
      </trkpt>
      <trkpt lat="42.647175" lon="-2.053389">
        <ele>550.2</ele>
        <time>2019-08-18T07:09:00Z</time>
        <sat>9</sat>
      </trkpt>
      <trkpt lat="42.647159" lon="-2.053519">
        <ele>550.7</ele>
        <time>2019-08-18T07:09:07Z</time>
        <sat>9</sat>
      </trkpt>
      <trkpt lat="42.647145" lon="-2.053646">
        <ele>551.8</ele>
        <time>2019-08-18T07:09:14Z</time>
        <sat>9</sat>
      </trkpt>
      <trkpt lat="42.647137" lon="-2.053773">
        <ele>552.5</ele>
        <time>2019-08-18T07:09:21Z</time>
        <sat>9</sat>
      </trkpt>
      <trkpt lat="42.647117" lon="-2.053908">
        <ele>552.8</ele>
        <time>2019-08-18T07:09:28Z</time>
        <sat>9</sat>
      </trkpt>
      <trkpt lat="42.647103" lon="-2.054039">
        <ele>553.2</ele>
        <time>2019-08-18T07:09:35Z</time>
        <sat>9</sat>
      </trkpt>
      <trkpt lat="42.647088" lon="-2.054172">
        <ele>553.3</ele>
        <time>2019-08-18T07:09:42Z</time>
        <sat>9</sat>
      </trkpt>
      <trkpt lat="42.647079" lon="-2.054299">
        <ele>553.4</ele>
        <time>2019-08-18T07:09:49Z</time>
        <sat>9</sat>
      </trkpt>
      <trkpt lat="42.647056" lon="-2.054427">
        <ele>553.5</ele>
        <time>2019-08-18T07:09:56Z</time>
        <sat>9</sat>
      </trkpt>
      <trkpt lat="42.647037" lon="-2.054551">
        <ele>553.7</ele>
        <time>2019-08-18T07:10:03Z</time>
        <sat>9</sat>
      </trkpt>
      <trkpt lat="42.647032" lon="-2.054681">
        <ele>553.9</ele>
        <time>2019-08-18T07:10:10Z</time>
        <sat>9</sat>
      </trkpt>
      <trkpt lat="42.647018" lon="-2.054806">
        <ele>554.2</ele>
        <time>2019-08-18T07:10:17Z</time>
        <sat>9</sat>
      </trkpt>
      <trkpt lat="42.647003" lon="-2.054934">
        <ele>554.3</ele>
        <time>2019-08-18T07:10:24Z</time>
        <sat>8</sat>
      </trkpt>
      <trkpt lat="42.646975" lon="-2.055069">
        <ele>554.5</ele>
        <time>2019-08-18T07:10:31Z</time>
        <sat>8</sat>
      </trkpt>
      <trkpt lat="42.646964" lon="-2.055196">
        <ele>554.7</ele>
        <time>2019-08-18T07:10:38Z</time>
        <sat>8</sat>
      </trkpt>
      <trkpt lat="42.646953" lon="-2.055321">
        <ele>554.9</ele>
        <time>2019-08-18T07:10:45Z</time>
        <sat>9</sat>
      </trkpt>
      <trkpt lat="42.646924" lon="-2.055455">
        <ele>555.3</ele>
        <time>2019-08-18T07:10:53Z</time>
        <sat>9</sat>
      </trkpt>
      <trkpt lat="42.646893" lon="-2.055581">
        <ele>555.5</ele>
        <time>2019-08-18T07:11:01Z</time>
        <sat>9</sat>
      </trkpt>
      <trkpt lat="42.646860" lon="-2.055710">
        <ele>555.7</ele>
        <time>2019-08-18T07:11:09Z</time>
        <sat>9</sat>
      </trkpt>
      <trkpt lat="42.646827" lon="-2.055832">
        <ele>555.9</ele>
        <time>2019-08-18T07:11:16Z</time>
        <sat>9</sat>
      </trkpt>
      <trkpt lat="42.646780" lon="-2.055943">
        <ele>556.3</ele>
        <time>2019-08-18T07:11:23Z</time>
        <sat>9</sat>
      </trkpt>
      <trkpt lat="42.646733" lon="-2.056067">
        <ele>556.5</ele>
        <time>2019-08-18T07:11:30Z</time>
        <sat>8</sat>
      </trkpt>
      <trkpt lat="42.646697" lon="-2.056183">
        <ele>556.8</ele>
        <time>2019-08-18T07:11:37Z</time>
        <sat>9</sat>
      </trkpt>
      <trkpt lat="42.646653" lon="-2.056296">
        <ele>557.3</ele>
        <time>2019-08-18T07:11:44Z</time>
        <sat>9</sat>
      </trkpt>
      <trkpt lat="42.646616" lon="-2.056409">
        <ele>557.5</ele>
        <time>2019-08-18T07:11:51Z</time>
        <sat>9</sat>
      </trkpt>
      <trkpt lat="42.646547" lon="-2.056488">
        <ele>557.9</ele>
        <time>2019-08-18T07:11:58Z</time>
        <sat>9</sat>
      </trkpt>
      <trkpt lat="42.646497" lon="-2.056608">
        <ele>557.8</ele>
        <time>2019-08-18T07:12:06Z</time>
        <sat>9</sat>
      </trkpt>
      <trkpt lat="42.646448" lon="-2.056723">
        <ele>558.2</ele>
        <time>2019-08-18T07:12:13Z</time>
        <sat>9</sat>
      </trkpt>
      <trkpt lat="42.646404" lon="-2.056838">
        <ele>558.6</ele>
        <time>2019-08-18T07:12:21Z</time>
        <sat>9</sat>
      </trkpt>
      <trkpt lat="42.646352" lon="-2.056957">
        <ele>558.5</ele>
        <time>2019-08-18T07:12:29Z</time>
        <sat>8</sat>
      </trkpt>
      <trkpt lat="42.646309" lon="-2.057077">
        <ele>558.5</ele>
        <time>2019-08-18T07:12:37Z</time>
        <sat>9</sat>
      </trkpt>
      <trkpt lat="42.646276" lon="-2.057196">
        <ele>559.2</ele>
        <time>2019-08-18T07:12:44Z</time>
        <sat>8</sat>
      </trkpt>
      <trkpt lat="42.646217" lon="-2.057305">
        <ele>559.9</ele>
        <time>2019-08-18T07:12:51Z</time>
        <sat>8</sat>
      </trkpt>
      <trkpt lat="42.646171" lon="-2.057417">
        <ele>560.4</ele>
        <time>2019-08-18T07:12:58Z</time>
        <sat>8</sat>
      </trkpt>
      <trkpt lat="42.646116" lon="-2.057523">
        <ele>560.8</ele>
        <time>2019-08-18T07:13:05Z</time>
        <sat>8</sat>
      </trkpt>
      <trkpt lat="42.646066" lon="-2.057628">
        <ele>561.0</ele>
        <time>2019-08-18T07:13:12Z</time>
        <sat>8</sat>
      </trkpt>
      <trkpt lat="42.646022" lon="-2.057752">
        <ele>561.0</ele>
        <time>2019-08-18T07:13:20Z</time>
        <sat>8</sat>
      </trkpt>
      <trkpt lat="42.645997" lon="-2.057873">
        <ele>561.1</ele>
        <time>2019-08-18T07:13:27Z</time>
        <sat>8</sat>
      </trkpt>
      <trkpt lat="42.645975" lon="-2.058001">
        <ele>561.2</ele>
        <time>2019-08-18T07:13:35Z</time>
        <sat>8</sat>
      </trkpt>
      <trkpt lat="42.645967" lon="-2.058141">
        <ele>560.9</ele>
        <time>2019-08-18T07:13:43Z</time>
        <sat>8</sat>
      </trkpt>
      <trkpt lat="42.645935" lon="-2.058268">
        <ele>560.6</ele>
        <time>2019-08-18T07:13:50Z</time>
        <sat>8</sat>
      </trkpt>
      <trkpt lat="42.645908" lon="-2.058404">
        <ele>560.6</ele>
        <time>2019-08-18T07:13:57Z</time>
        <sat>8</sat>
      </trkpt>
      <trkpt lat="42.645865" lon="-2.058529">
        <ele>560.6</ele>
        <time>2019-08-18T07:14:04Z</time>
        <sat>8</sat>
      </trkpt>
      <trkpt lat="42.645835" lon="-2.058657">
        <ele>560.0</ele>
        <time>2019-08-18T07:14:11Z</time>
        <sat>8</sat>
      </trkpt>
      <trkpt lat="42.645804" lon="-2.058787">
        <ele>561.3</ele>
        <time>2019-08-18T07:14:18Z</time>
        <sat>8</sat>
      </trkpt>
      <trkpt lat="42.645772" lon="-2.058909">
        <ele>562.3</ele>
        <time>2019-08-18T07:14:25Z</time>
        <sat>8</sat>
      </trkpt>
      <trkpt lat="42.645751" lon="-2.059031">
        <ele>562.9</ele>
        <time>2019-08-18T07:14:34Z</time>
        <sat>8</sat>
      </trkpt>
      <trkpt lat="42.645726" lon="-2.059157">
        <ele>563.2</ele>
        <time>2019-08-18T07:14:41Z</time>
        <sat>8</sat>
      </trkpt>
      <trkpt lat="42.645685" lon="-2.059281">
        <ele>563.4</ele>
        <time>2019-08-18T07:14:48Z</time>
        <sat>8</sat>
      </trkpt>
      <trkpt lat="42.645661" lon="-2.059409">
        <ele>563.6</ele>
        <time>2019-08-18T07:14:55Z</time>
        <sat>8</sat>
      </trkpt>
      <trkpt lat="42.645629" lon="-2.059530">
        <ele>563.2</ele>
        <time>2019-08-18T07:15:02Z</time>
        <sat>8</sat>
      </trkpt>
      <trkpt lat="42.645604" lon="-2.059654">
        <ele>563.8</ele>
        <time>2019-08-18T07:15:09Z</time>
        <sat>8</sat>
      </trkpt>
      <trkpt lat="42.645569" lon="-2.059773">
        <ele>563.9</ele>
        <time>2019-08-18T07:15:16Z</time>
        <sat>8</sat>
      </trkpt>
      <trkpt lat="42.645544" lon="-2.059910">
        <ele>563.7</ele>
        <time>2019-08-18T07:15:24Z</time>
        <sat>8</sat>
      </trkpt>
      <trkpt lat="42.645507" lon="-2.060040">
        <ele>562.8</ele>
        <time>2019-08-18T07:15:32Z</time>
        <sat>8</sat>
      </trkpt>
      <trkpt lat="42.645479" lon="-2.060169">
        <ele>561.0</ele>
        <time>2019-08-18T07:15:40Z</time>
        <sat>8</sat>
      </trkpt>
      <trkpt lat="42.645443" lon="-2.060287">
        <ele>561.1</ele>
        <time>2019-08-18T07:15:47Z</time>
        <sat>8</sat>
      </trkpt>
      <trkpt lat="42.645413" lon="-2.060407">
        <ele>561.8</ele>
        <time>2019-08-18T07:15:54Z</time>
        <sat>8</sat>
      </trkpt>
      <trkpt lat="42.645365" lon="-2.060533">
        <ele>562.3</ele>
        <time>2019-08-18T07:16:02Z</time>
        <sat>8</sat>
      </trkpt>
      <trkpt lat="42.645331" lon="-2.060647">
        <ele>562.8</ele>
        <time>2019-08-18T07:16:09Z</time>
        <sat>8</sat>
      </trkpt>
      <trkpt lat="42.645296" lon="-2.060778">
        <ele>562.7</ele>
        <time>2019-08-18T07:16:17Z</time>
        <sat>8</sat>
      </trkpt>
      <trkpt lat="42.645249" lon="-2.060891">
        <ele>562.4</ele>
        <time>2019-08-18T07:16:24Z</time>
        <sat>8</sat>
      </trkpt>
      <trkpt lat="42.645231" lon="-2.061016">
        <ele>562.1</ele>
        <time>2019-08-18T07:16:50Z</time>
        <sat>7</sat>
      </trkpt>
      <trkpt lat="42.645207" lon="-2.061140">
        <ele>561.9</ele>
        <time>2019-08-18T07:16:57Z</time>
        <sat>8</sat>
      </trkpt>
      <trkpt lat="42.645190" lon="-2.061269">
        <ele>562.0</ele>
        <time>2019-08-18T07:17:04Z</time>
        <sat>8</sat>
      </trkpt>
      <trkpt lat="42.645179" lon="-2.061398">
        <ele>562.0</ele>
        <time>2019-08-18T07:17:11Z</time>
        <sat>8</sat>
      </trkpt>
      <trkpt lat="42.645152" lon="-2.061518">
        <ele>562.0</ele>
        <time>2019-08-18T07:17:18Z</time>
        <sat>8</sat>
      </trkpt>
      <trkpt lat="42.645124" lon="-2.061635">
        <ele>562.1</ele>
        <time>2019-08-18T07:17:25Z</time>
        <sat>8</sat>
      </trkpt>
      <trkpt lat="42.645082" lon="-2.061754">
        <ele>562.3</ele>
        <time>2019-08-18T07:17:32Z</time>
        <sat>8</sat>
      </trkpt>
      <trkpt lat="42.645041" lon="-2.061876">
        <ele>562.3</ele>
        <time>2019-08-18T07:17:40Z</time>
        <sat>8</sat>
      </trkpt>
      <trkpt lat="42.645004" lon="-2.061990">
        <ele>562.5</ele>
        <time>2019-08-18T07:17:47Z</time>
        <sat>8</sat>
      </trkpt>
      <trkpt lat="42.644975" lon="-2.062108">
        <ele>562.7</ele>
        <time>2019-08-18T07:17:54Z</time>
        <sat>8</sat>
      </trkpt>
      <trkpt lat="42.644942" lon="-2.062226">
        <ele>562.9</ele>
        <time>2019-08-18T07:18:01Z</time>
        <sat>8</sat>
      </trkpt>
      <trkpt lat="42.644903" lon="-2.062345">
        <ele>563.0</ele>
        <time>2019-08-18T07:18:08Z</time>
        <sat>8</sat>
      </trkpt>
      <trkpt lat="42.644870" lon="-2.062463">
        <ele>563.2</ele>
        <time>2019-08-18T07:18:15Z</time>
        <sat>8</sat>
      </trkpt>
      <trkpt lat="42.644804" lon="-2.062551">
        <ele>563.4</ele>
        <time>2019-08-18T07:18:22Z</time>
        <sat>7</sat>
      </trkpt>
      <trkpt lat="42.644761" lon="-2.062667">
        <ele>563.4</ele>
        <time>2019-08-18T07:18:30Z</time>
        <sat>7</sat>
      </trkpt>
      <trkpt lat="42.644711" lon="-2.062791">
        <ele>563.6</ele>
        <time>2019-08-18T07:18:37Z</time>
        <sat>7</sat>
      </trkpt>
      <trkpt lat="42.644662" lon="-2.062897">
        <ele>563.6</ele>
        <time>2019-08-18T07:18:44Z</time>
        <sat>7</sat>
      </trkpt>
      <trkpt lat="42.644609" lon="-2.063008">
        <ele>563.9</ele>
        <time>2019-08-18T07:18:52Z</time>
        <sat>8</sat>
      </trkpt>
      <trkpt lat="42.644552" lon="-2.063122">
        <ele>564.8</ele>
        <time>2019-08-18T07:19:00Z</time>
        <sat>7</sat>
      </trkpt>
      <trkpt lat="42.644506" lon="-2.063243">
        <ele>564.1</ele>
        <time>2019-08-18T07:19:08Z</time>
        <sat>8</sat>
      </trkpt>
      <trkpt lat="42.644469" lon="-2.063360">
        <ele>564.7</ele>
        <time>2019-08-18T07:19:16Z</time>
        <sat>8</sat>
      </trkpt>
      <trkpt lat="42.644419" lon="-2.063480">
        <ele>565.9</ele>
        <time>2019-08-18T07:19:33Z</time>
        <sat>8</sat>
      </trkpt>
      <trkpt lat="42.644377" lon="-2.063593">
        <ele>566.1</ele>
        <time>2019-08-18T07:19:40Z</time>
        <sat>8</sat>
      </trkpt>
      <trkpt lat="42.644321" lon="-2.063705">
        <ele>566.3</ele>
        <time>2019-08-18T07:19:48Z</time>
        <sat>8</sat>
      </trkpt>
      <trkpt lat="42.644270" lon="-2.063806">
        <ele>566.5</ele>
        <time>2019-08-18T07:19:55Z</time>
        <sat>8</sat>
      </trkpt>
      <trkpt lat="42.644229" lon="-2.063925">
        <ele>567.0</ele>
        <time>2019-08-18T07:20:36Z</time>
        <sat>8</sat>
      </trkpt>
      <trkpt lat="42.644175" lon="-2.064035">
        <ele>567.1</ele>
        <time>2019-08-18T07:20:44Z</time>
        <sat>8</sat>
      </trkpt>
      <trkpt lat="42.644124" lon="-2.064145">
        <ele>567.5</ele>
        <time>2019-08-18T07:20:56Z</time>
        <sat>8</sat>
      </trkpt>
      <trkpt lat="42.644063" lon="-2.064256">
        <ele>567.8</ele>
        <time>2019-08-18T07:21:04Z</time>
        <sat>7</sat>
      </trkpt>
      <trkpt lat="42.644009" lon="-2.064370">
        <ele>568.3</ele>
        <time>2019-08-18T07:21:12Z</time>
        <sat>8</sat>
      </trkpt>
      <trkpt lat="42.643965" lon="-2.064490">
        <ele>568.7</ele>
        <time>2019-08-18T07:21:20Z</time>
        <sat>8</sat>
      </trkpt>
      <trkpt lat="42.643904" lon="-2.064604">
        <ele>569.2</ele>
        <time>2019-08-18T07:21:29Z</time>
        <sat>7</sat>
      </trkpt>
      <trkpt lat="42.643844" lon="-2.064708">
        <ele>569.1</ele>
        <time>2019-08-18T07:21:36Z</time>
        <sat>7</sat>
      </trkpt>
      <trkpt lat="42.643786" lon="-2.064815">
        <ele>568.8</ele>
        <time>2019-08-18T07:21:44Z</time>
        <sat>7</sat>
      </trkpt>
      <trkpt lat="42.643726" lon="-2.064913">
        <ele>569.3</ele>
        <time>2019-08-18T07:21:51Z</time>
        <sat>8</sat>
      </trkpt>
      <trkpt lat="42.643660" lon="-2.064999">
        <ele>570.0</ele>
        <time>2019-08-18T07:21:58Z</time>
        <sat>8</sat>
      </trkpt>
      <trkpt lat="42.643568" lon="-2.065138">
        <ele>570.5</ele>
        <time>2019-08-18T07:23:43Z</time>
        <sat>7</sat>
      </trkpt>
      <trkpt lat="42.643499" lon="-2.065232">
        <ele>570.0</ele>
        <time>2019-08-18T07:23:53Z</time>
        <sat>8</sat>
      </trkpt>
      <trkpt lat="42.643430" lon="-2.065310">
        <ele>569.8</ele>
        <time>2019-08-18T07:24:01Z</time>
        <sat>7</sat>
      </trkpt>
      <trkpt lat="42.643362" lon="-2.065398">
        <ele>569.8</ele>
        <time>2019-08-18T07:24:40Z</time>
        <sat>8</sat>
      </trkpt>
      <trkpt lat="42.643316" lon="-2.065510">
        <ele>569.9</ele>
        <time>2019-08-18T07:24:51Z</time>
        <sat>7</sat>
      </trkpt>
      <trkpt lat="42.643261" lon="-2.065606">
        <ele>569.8</ele>
        <time>2019-08-18T07:24:58Z</time>
        <sat>8</sat>
      </trkpt>
      <trkpt lat="42.643201" lon="-2.065699">
        <ele>569.9</ele>
        <time>2019-08-18T07:25:07Z</time>
        <sat>8</sat>
      </trkpt>
      <trkpt lat="42.643159" lon="-2.065811">
        <ele>569.9</ele>
        <time>2019-08-18T07:25:15Z</time>
        <sat>8</sat>
      </trkpt>
      <trkpt lat="42.643118" lon="-2.065920">
        <ele>570.0</ele>
        <time>2019-08-18T07:25:26Z</time>
        <sat>8</sat>
      </trkpt>
      <trkpt lat="42.643043" lon="-2.066009">
        <ele>570.0</ele>
        <time>2019-08-18T07:25:36Z</time>
        <sat>8</sat>
      </trkpt>
      <trkpt lat="42.642995" lon="-2.066117">
        <ele>570.0</ele>
        <time>2019-08-18T07:25:43Z</time>
        <sat>8</sat>
      </trkpt>
      <trkpt lat="42.642943" lon="-2.066231">
        <ele>570.2</ele>
        <time>2019-08-18T07:25:51Z</time>
        <sat>7</sat>
      </trkpt>
      <trkpt lat="42.642889" lon="-2.066348">
        <ele>570.3</ele>
        <time>2019-08-18T07:25:59Z</time>
        <sat>8</sat>
      </trkpt>
      <trkpt lat="42.642838" lon="-2.066459">
        <ele>570.4</ele>
        <time>2019-08-18T07:26:05Z</time>
        <sat>8</sat>
      </trkpt>
      <trkpt lat="42.642790" lon="-2.066569">
        <ele>570.6</ele>
        <time>2019-08-18T07:26:10Z</time>
        <sat>8</sat>
      </trkpt>
      <trkpt lat="42.642741" lon="-2.066683">
        <ele>570.7</ele>
        <time>2019-08-18T07:26:18Z</time>
        <sat>8</sat>
      </trkpt>
      <trkpt lat="42.642711" lon="-2.066801">
        <ele>571.0</ele>
        <time>2019-08-18T07:26:32Z</time>
        <sat>8</sat>
      </trkpt>
      <trkpt lat="42.642662" lon="-2.066923">
        <ele>571.1</ele>
        <time>2019-08-18T07:26:39Z</time>
        <sat>8</sat>
      </trkpt>
      <trkpt lat="42.642607" lon="-2.067031">
        <ele>571.3</ele>
        <time>2019-08-18T07:27:03Z</time>
        <sat>8</sat>
      </trkpt>
      <trkpt lat="42.642564" lon="-2.067148">
        <ele>571.4</ele>
        <time>2019-08-18T07:27:10Z</time>
        <sat>8</sat>
      </trkpt>
      <trkpt lat="42.642537" lon="-2.067282">
        <ele>571.7</ele>
        <time>2019-08-18T07:27:18Z</time>
        <sat>8</sat>
      </trkpt>
      <trkpt lat="42.642495" lon="-2.067398">
        <ele>571.8</ele>
        <time>2019-08-18T07:27:25Z</time>
        <sat>8</sat>
      </trkpt>
      <trkpt lat="42.642440" lon="-2.067511">
        <ele>572.3</ele>
        <time>2019-08-18T07:27:46Z</time>
        <sat>8</sat>
      </trkpt>
      <trkpt lat="42.642383" lon="-2.067630">
        <ele>572.5</ele>
        <time>2019-08-18T07:27:54Z</time>
        <sat>7</sat>
      </trkpt>
      <trkpt lat="42.642321" lon="-2.067729">
        <ele>573.1</ele>
        <time>2019-08-18T07:28:02Z</time>
        <sat>8</sat>
      </trkpt>
      <trkpt lat="42.642259" lon="-2.067824">
        <ele>573.7</ele>
        <time>2019-08-18T07:28:10Z</time>
        <sat>8</sat>
      </trkpt>
      <trkpt lat="42.642229" lon="-2.067946">
        <ele>574.6</ele>
        <time>2019-08-18T07:28:17Z</time>
        <sat>8</sat>
      </trkpt>
      <trkpt lat="42.642179" lon="-2.068049">
        <ele>575.7</ele>
        <time>2019-08-18T07:28:25Z</time>
        <sat>8</sat>
      </trkpt>
      <trkpt lat="42.642116" lon="-2.068158">
        <ele>576.4</ele>
        <time>2019-08-18T07:28:33Z</time>
        <sat>8</sat>
      </trkpt>
      <trkpt lat="42.642065" lon="-2.068264">
        <ele>577.4</ele>
        <time>2019-08-18T07:28:40Z</time>
        <sat>8</sat>
      </trkpt>
      <trkpt lat="42.642013" lon="-2.068374">
        <ele>578.0</ele>
        <time>2019-08-18T07:28:47Z</time>
        <sat>8</sat>
      </trkpt>
      <trkpt lat="42.641987" lon="-2.068504">
        <ele>578.6</ele>
        <time>2019-08-18T07:28:55Z</time>
        <sat>8</sat>
      </trkpt>
      <trkpt lat="42.641951" lon="-2.068631">
        <ele>579.2</ele>
        <time>2019-08-18T07:29:02Z</time>
        <sat>8</sat>
      </trkpt>
      <trkpt lat="42.641937" lon="-2.068756">
        <ele>579.8</ele>
        <time>2019-08-18T07:29:09Z</time>
        <sat>8</sat>
      </trkpt>
      <trkpt lat="42.641916" lon="-2.068885">
        <ele>580.3</ele>
        <time>2019-08-18T07:29:16Z</time>
        <sat>8</sat>
      </trkpt>
      <trkpt lat="42.641906" lon="-2.069006">
        <ele>581.5</ele>
        <time>2019-08-18T07:29:29Z</time>
        <sat>8</sat>
      </trkpt>
      <trkpt lat="42.641913" lon="-2.069132">
        <ele>580.5</ele>
        <time>2019-08-18T07:29:37Z</time>
        <sat>8</sat>
      </trkpt>
      <trkpt lat="42.641940" lon="-2.069253">
        <ele>579.9</ele>
        <time>2019-08-18T07:29:45Z</time>
        <sat>8</sat>
      </trkpt>
      <trkpt lat="42.641926" lon="-2.069388">
        <ele>579.8</ele>
        <time>2019-08-18T07:29:52Z</time>
        <sat>8</sat>
      </trkpt>
      <trkpt lat="42.641897" lon="-2.069508">
        <ele>579.1</ele>
        <time>2019-08-18T07:29:59Z</time>
        <sat>8</sat>
      </trkpt>
      <trkpt lat="42.641872" lon="-2.069640">
        <ele>578.1</ele>
        <time>2019-08-18T07:30:07Z</time>
        <sat>8</sat>
      </trkpt>
      <trkpt lat="42.641863" lon="-2.069770">
        <ele>577.0</ele>
        <time>2019-08-18T07:30:14Z</time>
        <sat>8</sat>
      </trkpt>
      <trkpt lat="42.641847" lon="-2.069899">
        <ele>575.7</ele>
        <time>2019-08-18T07:30:22Z</time>
        <sat>8</sat>
      </trkpt>
      <trkpt lat="42.641852" lon="-2.070027">
        <ele>574.3</ele>
        <time>2019-08-18T07:30:32Z</time>
        <sat>8</sat>
      </trkpt>
      <trkpt lat="42.641865" lon="-2.070169">
        <ele>573.7</ele>
        <time>2019-08-18T07:30:39Z</time>
        <sat>8</sat>
      </trkpt>
      <trkpt lat="42.641856" lon="-2.070304">
        <ele>573.1</ele>
        <time>2019-08-18T07:30:46Z</time>
        <sat>8</sat>
      </trkpt>
      <trkpt lat="42.641852" lon="-2.070440">
        <ele>572.6</ele>
        <time>2019-08-18T07:30:52Z</time>
        <sat>8</sat>
      </trkpt>
      <trkpt lat="42.641829" lon="-2.070560">
        <ele>571.9</ele>
        <time>2019-08-18T07:30:58Z</time>
        <sat>8</sat>
      </trkpt>
      <trkpt lat="42.641793" lon="-2.070675">
        <ele>571.3</ele>
        <time>2019-08-18T07:31:04Z</time>
        <sat>8</sat>
      </trkpt>
      <trkpt lat="42.641752" lon="-2.070800">
        <ele>570.7</ele>
        <time>2019-08-18T07:31:11Z</time>
        <sat>8</sat>
      </trkpt>
      <trkpt lat="42.641703" lon="-2.070912">
        <ele>570.2</ele>
        <time>2019-08-18T07:31:18Z</time>
        <sat>8</sat>
      </trkpt>
      <trkpt lat="42.641669" lon="-2.071029">
        <ele>569.8</ele>
        <time>2019-08-18T07:31:25Z</time>
        <sat>8</sat>
      </trkpt>
      <trkpt lat="42.641620" lon="-2.071143">
        <ele>569.4</ele>
        <time>2019-08-18T07:31:32Z</time>
        <sat>8</sat>
      </trkpt>
      <trkpt lat="42.641578" lon="-2.071267">
        <ele>569.3</ele>
        <time>2019-08-18T07:31:39Z</time>
        <sat>8</sat>
      </trkpt>
      <trkpt lat="42.641530" lon="-2.071375">
        <ele>569.0</ele>
        <time>2019-08-18T07:31:46Z</time>
        <sat>8</sat>
      </trkpt>
      <trkpt lat="42.641483" lon="-2.071489">
        <ele>569.0</ele>
        <time>2019-08-18T07:31:53Z</time>
        <sat>8</sat>
      </trkpt>
      <trkpt lat="42.641424" lon="-2.071601">
        <ele>568.8</ele>
        <time>2019-08-18T07:32:00Z</time>
        <sat>8</sat>
      </trkpt>
      <trkpt lat="42.641377" lon="-2.071712">
        <ele>568.5</ele>
        <time>2019-08-18T07:32:08Z</time>
        <sat>8</sat>
      </trkpt>
      <trkpt lat="42.641333" lon="-2.071827">
        <ele>568.0</ele>
        <time>2019-08-18T07:32:15Z</time>
        <sat>7</sat>
      </trkpt>
      <trkpt lat="42.641268" lon="-2.071933">
        <ele>567.5</ele>
        <time>2019-08-18T07:32:23Z</time>
        <sat>8</sat>
      </trkpt>
      <trkpt lat="42.641219" lon="-2.072041">
        <ele>566.4</ele>
        <time>2019-08-18T07:32:31Z</time>
        <sat>8</sat>
      </trkpt>
      <trkpt lat="42.641170" lon="-2.072155">
        <ele>565.0</ele>
        <time>2019-08-18T07:32:40Z</time>
        <sat>8</sat>
      </trkpt>
      <trkpt lat="42.641105" lon="-2.072251">
        <ele>564.5</ele>
        <time>2019-08-18T07:32:47Z</time>
        <sat>8</sat>
      </trkpt>
      <trkpt lat="42.641029" lon="-2.072356">
        <ele>564.4</ele>
        <time>2019-08-18T07:32:57Z</time>
        <sat>8</sat>
      </trkpt>
      <trkpt lat="42.640968" lon="-2.072449">
        <ele>564.8</ele>
        <time>2019-08-18T07:33:04Z</time>
        <sat>8</sat>
      </trkpt>
      <trkpt lat="42.640921" lon="-2.072575">
        <ele>565.3</ele>
        <time>2019-08-18T07:33:10Z</time>
        <sat>8</sat>
      </trkpt>
      <trkpt lat="42.640887" lon="-2.072704">
        <ele>566.1</ele>
        <time>2019-08-18T07:33:18Z</time>
        <sat>8</sat>
      </trkpt>
      <trkpt lat="42.640873" lon="-2.072827">
        <ele>567.9</ele>
        <time>2019-08-18T07:33:30Z</time>
        <sat>7</sat>
      </trkpt>
      <trkpt lat="42.640855" lon="-2.072954">
        <ele>568.8</ele>
        <time>2019-08-18T07:33:38Z</time>
        <sat>7</sat>
      </trkpt>
      <trkpt lat="42.640833" lon="-2.073080">
        <ele>568.0</ele>
        <time>2019-08-18T07:33:46Z</time>
        <sat>7</sat>
      </trkpt>
      <trkpt lat="42.640788" lon="-2.073198">
        <ele>566.9</ele>
        <time>2019-08-18T07:33:55Z</time>
        <sat>8</sat>
      </trkpt>
      <trkpt lat="42.640699" lon="-2.073215">
        <ele>569.1</ele>
        <time>2019-08-18T07:34:03Z</time>
        <sat>8</sat>
      </trkpt>
      <trkpt lat="42.640652" lon="-2.073111">
        <ele>570.0</ele>
        <time>2019-08-18T07:34:11Z</time>
        <sat>8</sat>
      </trkpt>
      <trkpt lat="42.640590" lon="-2.073019">
        <ele>570.8</ele>
        <time>2019-08-18T07:34:20Z</time>
        <sat>8</sat>
      </trkpt>
      <trkpt lat="42.640522" lon="-2.072939">
        <ele>572.3</ele>
        <time>2019-08-18T07:34:28Z</time>
        <sat>8</sat>
      </trkpt>
      <trkpt lat="42.640430" lon="-2.072972">
        <ele>575.4</ele>
        <time>2019-08-18T07:35:10Z</time>
        <sat>8</sat>
      </trkpt>
      <trkpt lat="42.640341" lon="-2.072907">
        <ele>576.2</ele>
        <time>2019-08-18T07:35:19Z</time>
        <sat>8</sat>
      </trkpt>
      <trkpt lat="42.640249" lon="-2.072909">
        <ele>577.1</ele>
        <time>2019-08-18T07:35:27Z</time>
        <sat>8</sat>
      </trkpt>
      <trkpt lat="42.640158" lon="-2.072881">
        <ele>577.8</ele>
        <time>2019-08-18T07:35:34Z</time>
        <sat>8</sat>
      </trkpt>
      <trkpt lat="42.639870" lon="-2.072744">
        <ele>578.7</ele>
        <time>2019-08-18T07:35:42Z</time>
        <sat>8</sat>
      </trkpt>
      <trkpt lat="42.639641" lon="-2.072908">
        <ele>579.3</ele>
        <time>2019-08-18T07:35:50Z</time>
        <sat>8</sat>
      </trkpt>
      <trkpt lat="42.639133" lon="-2.073332">
        <ele>579.9</ele>
        <time>2019-08-18T07:35:58Z</time>
        <sat>8</sat>
      </trkpt>
      <trkpt lat="42.639050" lon="-2.073670">
        <ele>581.2</ele>
        <time>2019-08-18T07:36:12Z</time>
        <sat>8</sat>
      </trkpt>
      <trkpt lat="42.638980" lon="-2.074026">
        <ele>585.7</ele>
        <time>2019-08-18T07:42:10Z</time>
      </trkpt>
      <trkpt lat="42.638995" lon="-2.074148">
        <ele>594.4</ele>
        <time>2019-08-18T07:42:45Z</time>
        <sat>7</sat>
      </trkpt>
      <trkpt lat="42.638984" lon="-2.074286">
        <ele>593.5</ele>
        <time>2019-08-18T07:42:53Z</time>
        <sat>7</sat>
      </trkpt>
      <trkpt lat="42.638974" lon="-2.074422">
        <ele>594.4</ele>
        <time>2019-08-18T07:43:01Z</time>
        <sat>7</sat>
      </trkpt>
      <trkpt lat="42.638968" lon="-2.074549">
        <ele>593.1</ele>
        <time>2019-08-18T07:43:09Z</time>
        <sat>7</sat>
      </trkpt>
      <trkpt lat="42.638958" lon="-2.074680">
        <ele>592.5</ele>
        <time>2019-08-18T07:43:17Z</time>
        <sat>7</sat>
      </trkpt>
      <trkpt lat="42.638950" lon="-2.074811">
        <ele>593.7</ele>
        <time>2019-08-18T07:43:25Z</time>
        <sat>7</sat>
      </trkpt>
      <trkpt lat="42.638916" lon="-2.074941">
        <ele>593.3</ele>
        <time>2019-08-18T07:43:33Z</time>
        <sat>7</sat>
      </trkpt>
      <trkpt lat="42.638866" lon="-2.075056">
        <ele>592.3</ele>
        <time>2019-08-18T07:43:40Z</time>
        <sat>7</sat>
      </trkpt>
      <trkpt lat="42.638805" lon="-2.075149">
        <ele>591.2</ele>
        <time>2019-08-18T07:43:47Z</time>
        <sat>7</sat>
      </trkpt>
      <trkpt lat="42.638738" lon="-2.075239">
        <ele>590.7</ele>
        <time>2019-08-18T07:43:54Z</time>
        <sat>7</sat>
      </trkpt>
      <trkpt lat="42.638667" lon="-2.075330">
        <ele>590.3</ele>
        <time>2019-08-18T07:44:01Z</time>
        <sat>7</sat>
      </trkpt>
      <trkpt lat="42.638603" lon="-2.075431">
        <ele>590.1</ele>
        <time>2019-08-18T07:44:09Z</time>
        <sat>7</sat>
      </trkpt>
      <trkpt lat="42.638544" lon="-2.075545">
        <ele>589.3</ele>
        <time>2019-08-18T07:44:17Z</time>
        <sat>7</sat>
      </trkpt>
      <trkpt lat="42.638493" lon="-2.075663">
        <ele>588.2</ele>
        <time>2019-08-18T07:44:25Z</time>
        <sat>7</sat>
      </trkpt>
      <trkpt lat="42.638470" lon="-2.075785">
        <ele>587.5</ele>
        <time>2019-08-18T07:44:32Z</time>
        <sat>7</sat>
      </trkpt>
      <trkpt lat="42.638446" lon="-2.075913">
        <ele>587.0</ele>
        <time>2019-08-18T07:44:39Z</time>
        <sat>7</sat>
      </trkpt>
      <trkpt lat="42.638419" lon="-2.076029">
        <ele>586.3</ele>
        <time>2019-08-18T07:44:46Z</time>
        <sat>7</sat>
      </trkpt>
      <trkpt lat="42.638385" lon="-2.076145">
        <ele>584.7</ele>
        <time>2019-08-18T07:44:54Z</time>
        <sat>7</sat>
      </trkpt>
      <trkpt lat="42.638366" lon="-2.076277">
        <ele>586.4</ele>
        <time>2019-08-18T07:45:06Z</time>
        <sat>7</sat>
      </trkpt>
      <trkpt lat="42.638337" lon="-2.076394">
        <ele>586.8</ele>
        <time>2019-08-18T07:45:20Z</time>
        <sat>6</sat>
      </trkpt>
      <trkpt lat="42.638310" lon="-2.076527">
        <ele>585.9</ele>
        <time>2019-08-18T07:45:29Z</time>
        <sat>6</sat>
      </trkpt>
      <trkpt lat="42.638278" lon="-2.076655">
        <ele>584.3</ele>
        <time>2019-08-18T07:45:43Z</time>
        <sat>6</sat>
      </trkpt>
      <trkpt lat="42.638260" lon="-2.076786">
        <ele>585.5</ele>
        <time>2019-08-18T07:45:50Z</time>
        <sat>6</sat>
      </trkpt>
      <trkpt lat="42.638249" lon="-2.076921">
        <ele>585.6</ele>
        <time>2019-08-18T07:45:57Z</time>
        <sat>6</sat>
      </trkpt>
      <trkpt lat="42.638217" lon="-2.077049">
        <ele>585.6</ele>
        <time>2019-08-18T07:46:04Z</time>
        <sat>6</sat>
      </trkpt>
      <trkpt lat="42.638192" lon="-2.077176">
        <ele>585.6</ele>
        <time>2019-08-18T07:46:11Z</time>
        <sat>6</sat>
      </trkpt>
      <trkpt lat="42.638146" lon="-2.077295">
        <ele>585.6</ele>
        <time>2019-08-18T07:46:18Z</time>
        <sat>6</sat>
      </trkpt>
      <trkpt lat="42.638121" lon="-2.077412">
        <ele>585.7</ele>
        <time>2019-08-18T07:46:25Z</time>
        <sat>6</sat>
      </trkpt>
      <trkpt lat="42.638087" lon="-2.077536">
        <ele>585.5</ele>
        <time>2019-08-18T07:46:32Z</time>
        <sat>6</sat>
      </trkpt>
      <trkpt lat="42.638059" lon="-2.077666">
        <ele>585.0</ele>
        <time>2019-08-18T07:46:39Z</time>
        <sat>6</sat>
      </trkpt>
      <trkpt lat="42.638022" lon="-2.077787">
        <ele>584.3</ele>
        <time>2019-08-18T07:46:46Z</time>
        <sat>6</sat>
      </trkpt>
      <trkpt lat="42.637992" lon="-2.077916">
        <ele>583.6</ele>
        <time>2019-08-18T07:46:53Z</time>
        <sat>7</sat>
      </trkpt>
      <trkpt lat="42.637964" lon="-2.078045">
        <ele>582.9</ele>
        <time>2019-08-18T07:47:00Z</time>
        <sat>7</sat>
      </trkpt>
      <trkpt lat="42.637952" lon="-2.078181">
        <ele>582.4</ele>
        <time>2019-08-18T07:47:07Z</time>
        <sat>7</sat>
      </trkpt>
      <trkpt lat="42.637941" lon="-2.078316">
        <ele>582.5</ele>
        <time>2019-08-18T07:47:14Z</time>
        <sat>7</sat>
      </trkpt>
      <trkpt lat="42.637949" lon="-2.078455">
        <ele>581.1</ele>
        <time>2019-08-18T07:47:22Z</time>
        <sat>7</sat>
      </trkpt>
      <trkpt lat="42.637969" lon="-2.078593">
        <ele>581.0</ele>
        <time>2019-08-18T07:47:30Z</time>
        <sat>7</sat>
      </trkpt>
      <trkpt lat="42.637995" lon="-2.078720">
        <ele>583.2</ele>
        <time>2019-08-18T07:47:38Z</time>
        <sat>7</sat>
      </trkpt>
      <trkpt lat="42.638020" lon="-2.078848">
        <ele>583.6</ele>
        <time>2019-08-18T07:47:46Z</time>
        <sat>7</sat>
      </trkpt>
      <trkpt lat="42.638025" lon="-2.078981">
        <ele>582.0</ele>
        <time>2019-08-18T07:47:53Z</time>
        <sat>6</sat>
      </trkpt>
      <trkpt lat="42.638006" lon="-2.079115">
        <ele>579.6</ele>
        <time>2019-08-18T07:48:09Z</time>
        <sat>6</sat>
      </trkpt>
      <trkpt lat="42.637947" lon="-2.079230">
        <ele>579.0</ele>
        <time>2019-08-18T07:48:17Z</time>
        <sat>6</sat>
      </trkpt>
      <trkpt lat="42.637896" lon="-2.079338">
        <ele>578.4</ele>
        <time>2019-08-18T07:48:24Z</time>
        <sat>7</sat>
      </trkpt>
      <trkpt lat="42.637869" lon="-2.079471">
        <ele>577.8</ele>
        <time>2019-08-18T07:48:31Z</time>
        <sat>7</sat>
      </trkpt>
      <trkpt lat="42.637846" lon="-2.079600">
        <ele>577.8</ele>
        <time>2019-08-18T07:48:38Z</time>
        <sat>7</sat>
      </trkpt>
      <trkpt lat="42.637853" lon="-2.079726">
        <ele>578.0</ele>
        <time>2019-08-18T07:48:45Z</time>
        <sat>7</sat>
      </trkpt>
      <trkpt lat="42.637868" lon="-2.079849">
        <ele>578.3</ele>
        <time>2019-08-18T07:48:52Z</time>
        <sat>6</sat>
      </trkpt>
      <trkpt lat="42.637856" lon="-2.079978">
        <ele>578.7</ele>
        <time>2019-08-18T07:48:59Z</time>
        <sat>7</sat>
      </trkpt>
      <trkpt lat="42.637832" lon="-2.080108">
        <ele>579.2</ele>
        <time>2019-08-18T07:49:06Z</time>
        <sat>7</sat>
      </trkpt>
      <trkpt lat="42.637815" lon="-2.080236">
        <ele>579.2</ele>
        <time>2019-08-18T07:49:14Z</time>
        <sat>6</sat>
      </trkpt>
      <trkpt lat="42.637802" lon="-2.080373">
        <ele>577.3</ele>
        <time>2019-08-18T07:49:22Z</time>
        <sat>6</sat>
      </trkpt>
      <trkpt lat="42.637771" lon="-2.080499">
        <ele>579.0</ele>
        <time>2019-08-18T07:49:29Z</time>
        <sat>6</sat>
      </trkpt>
      <trkpt lat="42.637706" lon="-2.080589">
        <ele>578.7</ele>
        <time>2019-08-18T07:49:36Z</time>
        <sat>6</sat>
      </trkpt>
      <trkpt lat="42.637613" lon="-2.080624">
        <ele>578.0</ele>
        <time>2019-08-18T07:49:44Z</time>
        <sat>6</sat>
      </trkpt>
      <trkpt lat="42.637628" lon="-2.080755">
        <ele>574.9</ele>
        <time>2019-08-18T07:50:03Z</time>
        <sat>6</sat>
      </trkpt>
      <trkpt lat="42.637698" lon="-2.080835">
        <ele>573.2</ele>
        <time>2019-08-18T07:50:11Z</time>
        <sat>6</sat>
      </trkpt>
      <trkpt lat="42.637768" lon="-2.080917">
        <ele>571.1</ele>
        <time>2019-08-18T07:50:20Z</time>
        <sat>6</sat>
      </trkpt>
      <trkpt lat="42.637837" lon="-2.081027">
        <ele>568.0</ele>
        <time>2019-08-18T07:50:30Z</time>
        <sat>5</sat>
      </trkpt>
      <trkpt lat="42.637897" lon="-2.081120">
        <ele>564.7</ele>
        <time>2019-08-18T07:50:58Z</time>
        <sat>6</sat>
      </trkpt>
      <trkpt lat="42.637952" lon="-2.081228">
        <ele>564.6</ele>
        <time>2019-08-18T07:51:30Z</time>
        <sat>6</sat>
      </trkpt>
      <trkpt lat="42.638049" lon="-2.081298">
        <ele>563.0</ele>
        <time>2019-08-18T07:51:40Z</time>
        <sat>5</sat>
      </trkpt>
      <trkpt lat="42.638137" lon="-2.081366">
        <ele>562.0</ele>
        <time>2019-08-18T07:51:48Z</time>
        <sat>5</sat>
      </trkpt>
      <trkpt lat="42.638244" lon="-2.081447">
        <ele>560.4</ele>
        <time>2019-08-18T07:51:58Z</time>
        <sat>6</sat>
      </trkpt>
      <trkpt lat="42.638324" lon="-2.081537">
        <ele>556.7</ele>
        <time>2019-08-18T07:52:07Z</time>
        <sat>6</sat>
      </trkpt>
      <trkpt lat="42.638409" lon="-2.081607">
        <ele>559.0</ele>
        <time>2019-08-18T07:52:14Z</time>
        <sat>5</sat>
      </trkpt>
      <trkpt lat="42.638476" lon="-2.081693">
        <ele>559.0</ele>
        <time>2019-08-18T07:52:21Z</time>
        <sat>5</sat>
      </trkpt>
      <trkpt lat="42.638546" lon="-2.081777">
        <ele>559.6</ele>
        <time>2019-08-18T07:52:28Z</time>
        <sat>6</sat>
      </trkpt>
      <trkpt lat="42.638645" lon="-2.081908">
        <ele>558.0</ele>
        <time>2019-08-18T07:52:38Z</time>
        <sat>5</sat>
      </trkpt>
      <trkpt lat="42.638706" lon="-2.082011">
        <ele>558.2</ele>
        <time>2019-08-18T07:52:48Z</time>
        <sat>6</sat>
      </trkpt>
      <trkpt lat="42.638740" lon="-2.082128">
        <ele>557.8</ele>
        <time>2019-08-18T07:52:55Z</time>
        <sat>6</sat>
      </trkpt>
      <trkpt lat="42.638772" lon="-2.082249">
        <ele>557.5</ele>
        <time>2019-08-18T07:53:02Z</time>
        <sat>6</sat>
      </trkpt>
      <trkpt lat="42.638798" lon="-2.082370">
        <ele>557.1</ele>
        <time>2019-08-18T07:53:09Z</time>
        <sat>7</sat>
      </trkpt>
      <trkpt lat="42.638830" lon="-2.082502">
        <ele>556.6</ele>
        <time>2019-08-18T07:53:17Z</time>
        <sat>7</sat>
      </trkpt>
      <trkpt lat="42.638851" lon="-2.082631">
        <ele>555.9</ele>
        <time>2019-08-18T07:53:24Z</time>
        <sat>6</sat>
      </trkpt>
      <trkpt lat="42.638855" lon="-2.082755">
        <ele>555.3</ele>
        <time>2019-08-18T07:53:31Z</time>
        <sat>7</sat>
      </trkpt>
      <trkpt lat="42.638839" lon="-2.082879">
        <ele>554.7</ele>
        <time>2019-08-18T07:53:38Z</time>
        <sat>6</sat>
      </trkpt>
      <trkpt lat="42.638804" lon="-2.082998">
        <ele>553.7</ele>
        <time>2019-08-18T07:53:45Z</time>
        <sat>6</sat>
      </trkpt>
      <trkpt lat="42.638759" lon="-2.083112">
        <ele>552.6</ele>
        <time>2019-08-18T07:53:53Z</time>
        <sat>6</sat>
      </trkpt>
      <trkpt lat="42.638723" lon="-2.083225">
        <ele>551.4</ele>
        <time>2019-08-18T07:54:01Z</time>
        <sat>6</sat>
      </trkpt>
      <trkpt lat="42.638705" lon="-2.083358">
        <ele>550.2</ele>
        <time>2019-08-18T07:54:09Z</time>
        <sat>6</sat>
      </trkpt>
      <trkpt lat="42.638699" lon="-2.083495">
        <ele>548.6</ele>
        <time>2019-08-18T07:54:17Z</time>
        <sat>6</sat>
      </trkpt>
      <trkpt lat="42.638696" lon="-2.083630">
        <ele>547.4</ele>
        <time>2019-08-18T07:54:25Z</time>
        <sat>6</sat>
      </trkpt>
      <trkpt lat="42.638643" lon="-2.083746">
        <ele>546.2</ele>
        <time>2019-08-18T07:54:34Z</time>
        <sat>6</sat>
      </trkpt>
      <trkpt lat="42.638549" lon="-2.083718">
        <ele>545.7</ele>
        <time>2019-08-18T07:54:42Z</time>
        <sat>7</sat>
      </trkpt>
      <trkpt lat="42.638474" lon="-2.083644">
        <ele>545.8</ele>
        <time>2019-08-18T07:54:49Z</time>
        <sat>6</sat>
      </trkpt>
      <trkpt lat="42.638391" lon="-2.083562">
        <ele>546.4</ele>
        <time>2019-08-18T07:54:57Z</time>
        <sat>6</sat>
      </trkpt>
      <trkpt lat="42.638310" lon="-2.083503">
        <ele>546.9</ele>
        <time>2019-08-18T07:55:04Z</time>
        <sat>6</sat>
      </trkpt>
      <trkpt lat="42.638220" lon="-2.083442">
        <ele>547.9</ele>
        <time>2019-08-18T07:55:12Z</time>
        <sat>6</sat>
      </trkpt>
      <trkpt lat="42.638143" lon="-2.083361">
        <ele>548.8</ele>
        <time>2019-08-18T07:55:20Z</time>
        <sat>6</sat>
      </trkpt>
      <trkpt lat="42.638065" lon="-2.083276">
        <ele>549.8</ele>
        <time>2019-08-18T07:55:28Z</time>
        <sat>7</sat>
      </trkpt>
      <trkpt lat="42.637995" lon="-2.083195">
        <ele>550.7</ele>
        <time>2019-08-18T07:55:35Z</time>
        <sat>7</sat>
      </trkpt>
      <trkpt lat="42.637914" lon="-2.083139">
        <ele>551.6</ele>
        <time>2019-08-18T07:55:42Z</time>
        <sat>7</sat>
      </trkpt>
      <trkpt lat="42.637823" lon="-2.083087">
        <ele>552.5</ele>
        <time>2019-08-18T07:55:50Z</time>
        <sat>7</sat>
      </trkpt>
      <trkpt lat="42.637736" lon="-2.083059">
        <ele>553.5</ele>
        <time>2019-08-18T07:55:59Z</time>
        <sat>7</sat>
      </trkpt>
      <trkpt lat="42.637642" lon="-2.083045">
        <ele>554.0</ele>
        <time>2019-08-18T07:56:06Z</time>
        <sat>6</sat>
      </trkpt>
      <trkpt lat="42.637549" lon="-2.083058">
        <ele>554.6</ele>
        <time>2019-08-18T07:56:13Z</time>
        <sat>6</sat>
      </trkpt>
      <trkpt lat="42.637459" lon="-2.083088">
        <ele>555.2</ele>
        <time>2019-08-18T07:56:20Z</time>
        <sat>6</sat>
      </trkpt>
      <trkpt lat="42.637373" lon="-2.083149">
        <ele>556.0</ele>
        <time>2019-08-18T07:56:45Z</time>
        <sat>6</sat>
      </trkpt>
      <trkpt lat="42.637291" lon="-2.083201">
        <ele>556.0</ele>
        <time>2019-08-18T07:56:57Z</time>
        <sat>6</sat>
      </trkpt>
      <trkpt lat="42.637211" lon="-2.083261">
        <ele>556.1</ele>
        <time>2019-08-18T07:57:03Z</time>
        <sat>6</sat>
      </trkpt>
      <trkpt lat="42.637135" lon="-2.083344">
        <ele>556.2</ele>
        <time>2019-08-18T07:57:10Z</time>
        <sat>6</sat>
      </trkpt>
      <trkpt lat="42.637065" lon="-2.083427">
        <ele>556.4</ele>
        <time>2019-08-18T07:57:16Z</time>
        <sat>6</sat>
      </trkpt>
      <trkpt lat="42.637009" lon="-2.083533">
        <ele>556.5</ele>
        <time>2019-08-18T07:57:23Z</time>
        <sat>6</sat>
      </trkpt>
      <trkpt lat="42.636957" lon="-2.083648">
        <ele>556.6</ele>
        <time>2019-08-18T07:57:31Z</time>
        <sat>6</sat>
      </trkpt>
      <trkpt lat="42.636906" lon="-2.083756">
        <ele>556.6</ele>
        <time>2019-08-18T07:57:38Z</time>
        <sat>6</sat>
      </trkpt>
      <trkpt lat="42.636852" lon="-2.083866">
        <ele>556.4</ele>
        <time>2019-08-18T07:57:45Z</time>
        <sat>6</sat>
      </trkpt>
      <trkpt lat="42.636788" lon="-2.083967">
        <ele>556.4</ele>
        <time>2019-08-18T07:57:52Z</time>
        <sat>7</sat>
      </trkpt>
      <trkpt lat="42.636732" lon="-2.084072">
        <ele>556.5</ele>
        <time>2019-08-18T07:57:59Z</time>
        <sat>7</sat>
      </trkpt>
      <trkpt lat="42.636671" lon="-2.084167">
        <ele>556.5</ele>
        <time>2019-08-18T07:58:05Z</time>
        <sat>6</sat>
      </trkpt>
      <trkpt lat="42.636621" lon="-2.084276">
        <ele>556.7</ele>
        <time>2019-08-18T07:58:13Z</time>
        <sat>6</sat>
      </trkpt>
      <trkpt lat="42.636576" lon="-2.084391">
        <ele>557.0</ele>
        <time>2019-08-18T07:58:20Z</time>
        <sat>7</sat>
      </trkpt>
      <trkpt lat="42.636537" lon="-2.084507">
        <ele>557.3</ele>
        <time>2019-08-18T07:58:27Z</time>
        <sat>7</sat>
      </trkpt>
      <trkpt lat="42.636502" lon="-2.084638">
        <ele>557.6</ele>
        <time>2019-08-18T07:58:35Z</time>
        <sat>7</sat>
      </trkpt>
      <trkpt lat="42.636473" lon="-2.084766">
        <ele>557.9</ele>
        <time>2019-08-18T07:58:43Z</time>
        <sat>7</sat>
      </trkpt>
      <trkpt lat="42.636453" lon="-2.084889">
        <ele>557.9</ele>
        <time>2019-08-18T07:58:51Z</time>
        <sat>6</sat>
      </trkpt>
      <trkpt lat="42.636442" lon="-2.085018">
        <ele>557.8</ele>
        <time>2019-08-18T07:59:27Z</time>
        <sat>7</sat>
      </trkpt>
      <trkpt lat="42.636407" lon="-2.085146">
        <ele>557.7</ele>
        <time>2019-08-18T07:59:35Z</time>
        <sat>7</sat>
      </trkpt>
      <trkpt lat="42.636381" lon="-2.085274">
        <ele>557.7</ele>
        <time>2019-08-18T07:59:42Z</time>
        <sat>7</sat>
      </trkpt>
      <trkpt lat="42.636331" lon="-2.085387">
        <ele>557.9</ele>
        <time>2019-08-18T07:59:49Z</time>
        <sat>7</sat>
      </trkpt>
      <trkpt lat="42.636267" lon="-2.085496">
        <ele>558.4</ele>
        <time>2019-08-18T07:59:57Z</time>
        <sat>6</sat>
      </trkpt>
      <trkpt lat="42.636205" lon="-2.085587">
        <ele>559.0</ele>
        <time>2019-08-18T08:00:04Z</time>
        <sat>7</sat>
      </trkpt>
      <trkpt lat="42.636141" lon="-2.085698">
        <ele>560.3</ele>
        <time>2019-08-18T08:00:12Z</time>
        <sat>7</sat>
      </trkpt>
      <trkpt lat="42.636080" lon="-2.085788">
        <ele>561.9</ele>
        <time>2019-08-18T08:00:20Z</time>
        <sat>7</sat>
      </trkpt>
      <trkpt lat="42.636026" lon="-2.085899">
        <ele>563.5</ele>
        <time>2019-08-18T08:00:29Z</time>
        <sat>7</sat>
      </trkpt>
      <trkpt lat="42.635957" lon="-2.085988">
        <ele>565.1</ele>
        <time>2019-08-18T08:00:37Z</time>
        <sat>7</sat>
      </trkpt>
      <trkpt lat="42.635897" lon="-2.086079">
        <ele>566.5</ele>
        <time>2019-08-18T08:00:45Z</time>
        <sat>7</sat>
      </trkpt>
      <trkpt lat="42.635846" lon="-2.086184">
        <ele>568.2</ele>
        <time>2019-08-18T08:00:53Z</time>
        <sat>7</sat>
      </trkpt>
      <trkpt lat="42.635777" lon="-2.086269">
        <ele>569.8</ele>
        <time>2019-08-18T08:01:01Z</time>
        <sat>7</sat>
      </trkpt>
      <trkpt lat="42.635772" lon="-2.086398">
        <ele>571.4</ele>
        <time>2019-08-18T08:02:25Z</time>
        <sat>7</sat>
      </trkpt>
      <trkpt lat="42.635691" lon="-2.086471">
        <ele>572.9</ele>
        <time>2019-08-18T08:02:42Z</time>
        <sat>7</sat>
      </trkpt>
      <trkpt lat="42.635730" lon="-2.086583">
        <ele>574.3</ele>
        <time>2019-08-18T08:03:07Z</time>
        <sat>7</sat>
      </trkpt>
      <trkpt lat="42.635785" lon="-2.086694">
        <ele>573.8</ele>
        <time>2019-08-18T08:03:15Z</time>
        <sat>7</sat>
      </trkpt>
      <trkpt lat="42.635774" lon="-2.086830">
        <ele>574.8</ele>
        <time>2019-08-18T08:03:25Z</time>
        <sat>7</sat>
      </trkpt>
      <trkpt lat="42.635718" lon="-2.086929">
        <ele>574.9</ele>
        <time>2019-08-18T08:03:32Z</time>
        <sat>7</sat>
      </trkpt>
      <trkpt lat="42.635668" lon="-2.087043">
        <ele>573.1</ele>
        <time>2019-08-18T08:04:58Z</time>
        <sat>7</sat>
      </trkpt>
      <trkpt lat="42.635574" lon="-2.087073">
        <ele>576.1</ele>
        <time>2019-08-18T08:06:06Z</time>
        <sat>7</sat>
      </trkpt>
      <trkpt lat="42.635480" lon="-2.087116">
        <ele>575.8</ele>
        <time>2019-08-18T08:06:14Z</time>
        <sat>7</sat>
      </trkpt>
      <trkpt lat="42.635392" lon="-2.087178">
        <ele>576.8</ele>
        <time>2019-08-18T08:06:21Z</time>
        <sat>7</sat>
      </trkpt>
      <trkpt lat="42.635301" lon="-2.087169">
        <ele>576.6</ele>
        <time>2019-08-18T08:06:28Z</time>
        <sat>7</sat>
      </trkpt>
      <trkpt lat="42.635209" lon="-2.087149">
        <ele>576.2</ele>
        <time>2019-08-18T08:06:35Z</time>
        <sat>7</sat>
      </trkpt>
      <trkpt lat="42.635118" lon="-2.087124">
        <ele>576.9</ele>
        <time>2019-08-18T08:06:48Z</time>
        <sat>7</sat>
      </trkpt>
      <trkpt lat="42.635020" lon="-2.087127">
        <ele>576.9</ele>
        <time>2019-08-18T08:06:55Z</time>
        <sat>7</sat>
      </trkpt>
      <trkpt lat="42.634923" lon="-2.087127">
        <ele>576.5</ele>
        <time>2019-08-18T08:07:03Z</time>
        <sat>7</sat>
      </trkpt>
      <trkpt lat="42.634833" lon="-2.087176">
        <ele>575.7</ele>
        <time>2019-08-18T08:07:10Z</time>
        <sat>7</sat>
      </trkpt>
      <trkpt lat="42.634740" lon="-2.087224">
        <ele>576.1</ele>
        <time>2019-08-18T08:07:18Z</time>
        <sat>7</sat>
      </trkpt>
      <trkpt lat="42.634655" lon="-2.087265">
        <ele>576.4</ele>
        <time>2019-08-18T08:07:25Z</time>
        <sat>7</sat>
      </trkpt>
      <trkpt lat="42.634575" lon="-2.087323">
        <ele>576.2</ele>
        <time>2019-08-18T08:07:32Z</time>
        <sat>7</sat>
      </trkpt>
      <trkpt lat="42.634496" lon="-2.087394">
        <ele>575.4</ele>
        <time>2019-08-18T08:07:50Z</time>
        <sat>7</sat>
      </trkpt>
      <trkpt lat="42.634451" lon="-2.087506">
        <ele>574.8</ele>
        <time>2019-08-18T08:08:00Z</time>
        <sat>7</sat>
      </trkpt>
      <trkpt lat="42.634373" lon="-2.087588">
        <ele>574.5</ele>
        <time>2019-08-18T08:08:09Z</time>
        <sat>7</sat>
      </trkpt>
      <trkpt lat="42.634309" lon="-2.087693">
        <ele>573.8</ele>
        <time>2019-08-18T08:08:18Z</time>
        <sat>7</sat>
      </trkpt>
      <trkpt lat="42.634234" lon="-2.087772">
        <ele>573.0</ele>
        <time>2019-08-18T08:08:25Z</time>
        <sat>7</sat>
      </trkpt>
      <trkpt lat="42.634157" lon="-2.087855">
        <ele>571.0</ele>
        <time>2019-08-18T08:08:50Z</time>
        <sat>7</sat>
      </trkpt>
      <trkpt lat="42.634089" lon="-2.087939">
        <ele>570.1</ele>
        <time>2019-08-18T08:09:04Z</time>
        <sat>7</sat>
      </trkpt>
      <trkpt lat="42.634016" lon="-2.088034">
        <ele>569.5</ele>
        <time>2019-08-18T08:09:12Z</time>
        <sat>7</sat>
      </trkpt>
      <trkpt lat="42.633954" lon="-2.088131">
        <ele>568.6</ele>
        <time>2019-08-18T08:09:19Z</time>
        <sat>7</sat>
      </trkpt>
      <trkpt lat="42.633946" lon="-2.088270">
        <ele>567.2</ele>
        <time>2019-08-18T08:09:27Z</time>
        <sat>7</sat>
      </trkpt>
      <trkpt lat="42.633969" lon="-2.088390">
        <ele>566.2</ele>
        <time>2019-08-18T08:09:34Z</time>
        <sat>7</sat>
      </trkpt>
      <trkpt lat="42.633998" lon="-2.088509">
        <ele>565.4</ele>
        <time>2019-08-18T08:09:41Z</time>
        <sat>7</sat>
      </trkpt>
      <trkpt lat="42.634014" lon="-2.088636">
        <ele>564.7</ele>
        <time>2019-08-18T08:09:48Z</time>
        <sat>7</sat>
      </trkpt>
      <trkpt lat="42.634047" lon="-2.088755">
        <ele>564.0</ele>
        <time>2019-08-18T08:09:55Z</time>
        <sat>7</sat>
      </trkpt>
      <trkpt lat="42.634125" lon="-2.088849">
        <ele>563.5</ele>
        <time>2019-08-18T08:10:02Z</time>
        <sat>7</sat>
      </trkpt>
      <trkpt lat="42.634199" lon="-2.088920">
        <ele>563.2</ele>
        <time>2019-08-18T08:10:08Z</time>
        <sat>7</sat>
      </trkpt>
      <trkpt lat="42.634265" lon="-2.089005">
        <ele>563.0</ele>
        <time>2019-08-18T08:10:15Z</time>
        <sat>7</sat>
      </trkpt>
      <trkpt lat="42.634337" lon="-2.089103">
        <ele>562.7</ele>
        <time>2019-08-18T08:10:22Z</time>
        <sat>7</sat>
      </trkpt>
      <trkpt lat="42.634397" lon="-2.089196">
        <ele>562.7</ele>
        <time>2019-08-18T08:10:29Z</time>
        <sat>7</sat>
      </trkpt>
      <trkpt lat="42.634407" lon="-2.089320">
        <ele>561.6</ele>
        <time>2019-08-18T08:10:38Z</time>
        <sat>7</sat>
      </trkpt>
      <trkpt lat="42.634330" lon="-2.089386">
        <ele>564.0</ele>
        <time>2019-08-18T08:11:40Z</time>
        <sat>7</sat>
      </trkpt>
      <trkpt lat="42.634233" lon="-2.089383">
        <ele>564.7</ele>
        <time>2019-08-18T08:11:48Z</time>
        <sat>7</sat>
      </trkpt>
      <trkpt lat="42.634132" lon="-2.089407">
        <ele>565.5</ele>
        <time>2019-08-18T08:11:56Z</time>
        <sat>7</sat>
      </trkpt>
      <trkpt lat="42.634042" lon="-2.089455">
        <ele>566.2</ele>
        <time>2019-08-18T08:12:03Z</time>
        <sat>7</sat>
      </trkpt>
      <trkpt lat="42.633951" lon="-2.089517">
        <ele>566.9</ele>
        <time>2019-08-18T08:12:10Z</time>
        <sat>7</sat>
      </trkpt>
      <trkpt lat="42.633879" lon="-2.089600">
        <ele>568.0</ele>
        <time>2019-08-18T08:12:17Z</time>
        <sat>7</sat>
      </trkpt>
      <trkpt lat="42.633809" lon="-2.089695">
        <ele>568.9</ele>
        <time>2019-08-18T08:12:24Z</time>
        <sat>7</sat>
      </trkpt>
      <trkpt lat="42.633741" lon="-2.089786">
        <ele>569.6</ele>
        <time>2019-08-18T08:12:31Z</time>
        <sat>7</sat>
      </trkpt>
      <trkpt lat="42.633668" lon="-2.089861">
        <ele>570.5</ele>
        <time>2019-08-18T08:12:38Z</time>
        <sat>7</sat>
      </trkpt>
      <trkpt lat="42.633584" lon="-2.089942">
        <ele>571.7</ele>
        <time>2019-08-18T08:12:46Z</time>
        <sat>7</sat>
      </trkpt>
      <trkpt lat="42.633504" lon="-2.090005">
        <ele>572.6</ele>
        <time>2019-08-18T08:12:53Z</time>
        <sat>7</sat>
      </trkpt>
      <trkpt lat="42.633420" lon="-2.090072">
        <ele>573.6</ele>
        <time>2019-08-18T08:13:00Z</time>
        <sat>7</sat>
      </trkpt>
      <trkpt lat="42.633350" lon="-2.090155">
        <ele>574.5</ele>
        <time>2019-08-18T08:13:07Z</time>
        <sat>7</sat>
      </trkpt>
      <trkpt lat="42.633285" lon="-2.090266">
        <ele>575.5</ele>
        <time>2019-08-18T08:13:16Z</time>
        <sat>7</sat>
      </trkpt>
      <trkpt lat="42.633239" lon="-2.090372">
        <ele>576.3</ele>
        <time>2019-08-18T08:13:23Z</time>
        <sat>7</sat>
      </trkpt>
      <trkpt lat="42.633204" lon="-2.090497">
        <ele>577.8</ele>
        <time>2019-08-18T08:13:31Z</time>
        <sat>7</sat>
      </trkpt>
      <trkpt lat="42.633176" lon="-2.090624">
        <ele>578.9</ele>
        <time>2019-08-18T08:13:39Z</time>
        <sat>7</sat>
      </trkpt>
      <trkpt lat="42.633164" lon="-2.090748">
        <ele>579.6</ele>
        <time>2019-08-18T08:13:46Z</time>
        <sat>6</sat>
      </trkpt>
      <trkpt lat="42.633159" lon="-2.090874">
        <ele>580.2</ele>
        <time>2019-08-18T08:13:53Z</time>
        <sat>6</sat>
      </trkpt>
      <trkpt lat="42.633158" lon="-2.091002">
        <ele>580.8</ele>
        <time>2019-08-18T08:14:00Z</time>
        <sat>7</sat>
      </trkpt>
      <trkpt lat="42.633169" lon="-2.091138">
        <ele>581.5</ele>
        <time>2019-08-18T08:14:08Z</time>
        <sat>7</sat>
      </trkpt>
      <trkpt lat="42.633179" lon="-2.091267">
        <ele>582.1</ele>
        <time>2019-08-18T08:14:15Z</time>
        <sat>7</sat>
      </trkpt>
      <trkpt lat="42.633191" lon="-2.091399">
        <ele>582.5</ele>
        <time>2019-08-18T08:14:22Z</time>
        <sat>7</sat>
      </trkpt>
      <trkpt lat="42.633188" lon="-2.091524">
        <ele>583.0</ele>
        <time>2019-08-18T08:14:29Z</time>
        <sat>7</sat>
      </trkpt>
      <trkpt lat="42.633178" lon="-2.091653">
        <ele>583.4</ele>
        <time>2019-08-18T08:14:36Z</time>
        <sat>6</sat>
      </trkpt>
      <trkpt lat="42.633170" lon="-2.091776">
        <ele>584.2</ele>
        <time>2019-08-18T08:14:43Z</time>
        <sat>6</sat>
      </trkpt>
      <trkpt lat="42.633154" lon="-2.091897">
        <ele>584.6</ele>
        <time>2019-08-18T08:14:50Z</time>
        <sat>7</sat>
      </trkpt>
      <trkpt lat="42.633128" lon="-2.092030">
        <ele>585.5</ele>
        <time>2019-08-18T08:14:58Z</time>
        <sat>7</sat>
      </trkpt>
      <trkpt lat="42.633089" lon="-2.092151">
        <ele>586.2</ele>
        <time>2019-08-18T08:15:06Z</time>
        <sat>7</sat>
      </trkpt>
      <trkpt lat="42.633031" lon="-2.092259">
        <ele>587.2</ele>
        <time>2019-08-18T08:15:14Z</time>
        <sat>7</sat>
      </trkpt>
      <trkpt lat="42.632989" lon="-2.092369">
        <ele>588.2</ele>
        <time>2019-08-18T08:15:21Z</time>
        <sat>7</sat>
      </trkpt>
      <trkpt lat="42.632937" lon="-2.092483">
        <ele>589.7</ele>
        <time>2019-08-18T08:15:29Z</time>
        <sat>7</sat>
      </trkpt>
      <trkpt lat="42.632876" lon="-2.092590">
        <ele>591.3</ele>
        <time>2019-08-18T08:15:38Z</time>
        <sat>7</sat>
      </trkpt>
      <trkpt lat="42.632825" lon="-2.092697">
        <ele>592.9</ele>
        <time>2019-08-18T08:15:46Z</time>
        <sat>7</sat>
      </trkpt>
      <trkpt lat="42.632779" lon="-2.092810">
        <ele>594.5</ele>
        <time>2019-08-18T08:15:55Z</time>
        <sat>7</sat>
      </trkpt>
      <trkpt lat="42.632729" lon="-2.092927">
        <ele>595.9</ele>
        <time>2019-08-18T08:16:03Z</time>
        <sat>7</sat>
      </trkpt>
      <trkpt lat="42.632673" lon="-2.093024">
        <ele>596.7</ele>
        <time>2019-08-18T08:16:10Z</time>
        <sat>7</sat>
      </trkpt>
      <trkpt lat="42.632607" lon="-2.093116">
        <ele>597.6</ele>
        <time>2019-08-18T08:16:18Z</time>
        <sat>7</sat>
      </trkpt>
      <trkpt lat="42.632558" lon="-2.093224">
        <ele>598.9</ele>
        <time>2019-08-18T08:16:27Z</time>
        <sat>6</sat>
      </trkpt>
      <trkpt lat="42.632517" lon="-2.093343">
        <ele>600.3</ele>
        <time>2019-08-18T08:16:35Z</time>
        <sat>6</sat>
      </trkpt>
      <trkpt lat="42.632460" lon="-2.093447">
        <ele>602.0</ele>
        <time>2019-08-18T08:16:44Z</time>
        <sat>6</sat>
      </trkpt>
      <trkpt lat="42.632396" lon="-2.093538">
        <ele>603.7</ele>
        <time>2019-08-18T08:16:53Z</time>
        <sat>7</sat>
      </trkpt>
      <trkpt lat="42.632329" lon="-2.093634">
        <ele>605.5</ele>
        <time>2019-08-18T08:17:02Z</time>
        <sat>8</sat>
      </trkpt>
      <trkpt lat="42.632266" lon="-2.093729">
        <ele>607.3</ele>
        <time>2019-08-18T08:17:11Z</time>
        <sat>8</sat>
      </trkpt>
      <trkpt lat="42.632228" lon="-2.093851">
        <ele>608.5</ele>
        <time>2019-08-18T08:17:19Z</time>
        <sat>7</sat>
      </trkpt>
      <trkpt lat="42.632190" lon="-2.093968">
        <ele>610.0</ele>
        <time>2019-08-18T08:17:29Z</time>
        <sat>7</sat>
      </trkpt>
      <trkpt lat="42.632194" lon="-2.094093">
        <ele>612.8</ele>
        <time>2019-08-18T08:18:07Z</time>
        <sat>8</sat>
      </trkpt>
      <trkpt lat="42.632169" lon="-2.094219">
        <ele>613.3</ele>
        <time>2019-08-18T08:18:20Z</time>
        <sat>8</sat>
      </trkpt>
      <trkpt lat="42.632134" lon="-2.094331">
        <ele>613.8</ele>
        <time>2019-08-18T08:18:34Z</time>
        <sat>8</sat>
      </trkpt>
      <trkpt lat="42.632078" lon="-2.094435">
        <ele>614.8</ele>
        <time>2019-08-18T08:18:47Z</time>
        <sat>7</sat>
      </trkpt>
      <trkpt lat="42.632022" lon="-2.094532">
        <ele>615.5</ele>
        <time>2019-08-18T08:18:57Z</time>
        <sat>8</sat>
      </trkpt>
      <trkpt lat="42.631948" lon="-2.094613">
        <ele>616.1</ele>
        <time>2019-08-18T08:19:06Z</time>
        <sat>8</sat>
      </trkpt>
      <trkpt lat="42.631887" lon="-2.094716">
        <ele>616.9</ele>
        <time>2019-08-18T08:19:14Z</time>
        <sat>8</sat>
      </trkpt>
      <trkpt lat="42.631870" lon="-2.094847">
        <ele>617.7</ele>
        <time>2019-08-18T08:19:22Z</time>
        <sat>7</sat>
      </trkpt>
      <trkpt lat="42.631829" lon="-2.094962">
        <ele>619.0</ele>
        <time>2019-08-18T08:19:38Z</time>
        <sat>8</sat>
      </trkpt>
      <trkpt lat="42.631816" lon="-2.095088">
        <ele>620.5</ele>
        <time>2019-08-18T08:19:57Z</time>
        <sat>8</sat>
      </trkpt>
      <trkpt lat="42.631811" lon="-2.095224">
        <ele>621.3</ele>
        <time>2019-08-18T08:20:07Z</time>
        <sat>7</sat>
      </trkpt>
      <trkpt lat="42.631811" lon="-2.095360">
        <ele>622.2</ele>
        <time>2019-08-18T08:20:20Z</time>
        <sat>7</sat>
      </trkpt>
      <trkpt lat="42.631812" lon="-2.095492">
        <ele>622.9</ele>
        <time>2019-08-18T08:20:28Z</time>
        <sat>8</sat>
      </trkpt>
      <trkpt lat="42.631839" lon="-2.095610">
        <ele>623.7</ele>
        <time>2019-08-18T08:20:36Z</time>
        <sat>8</sat>
      </trkpt>
      <trkpt lat="42.631909" lon="-2.095704">
        <ele>624.9</ele>
        <time>2019-08-18T08:20:45Z</time>
        <sat>8</sat>
      </trkpt>
      <trkpt lat="42.631952" lon="-2.095812">
        <ele>626.8</ele>
        <time>2019-08-18T08:21:16Z</time>
        <sat>8</sat>
      </trkpt>
      <trkpt lat="42.631999" lon="-2.095926">
        <ele>627.1</ele>
        <time>2019-08-18T08:21:23Z</time>
        <sat>8</sat>
      </trkpt>
      <trkpt lat="42.632045" lon="-2.096033">
        <ele>627.7</ele>
        <time>2019-08-18T08:21:30Z</time>
        <sat>8</sat>
      </trkpt>
      <trkpt lat="42.632085" lon="-2.096161">
        <ele>628.6</ele>
        <time>2019-08-18T08:21:38Z</time>
        <sat>8</sat>
      </trkpt>
      <trkpt lat="42.632106" lon="-2.096282">
        <ele>629.4</ele>
        <time>2019-08-18T08:21:45Z</time>
        <sat>8</sat>
      </trkpt>
      <trkpt lat="42.632115" lon="-2.096419">
        <ele>630.3</ele>
        <time>2019-08-18T08:21:53Z</time>
        <sat>6</sat>
      </trkpt>
      <trkpt lat="42.632128" lon="-2.096542">
        <ele>630.9</ele>
        <time>2019-08-18T08:22:00Z</time>
        <sat>7</sat>
      </trkpt>
      <trkpt lat="42.632134" lon="-2.096667">
        <ele>631.5</ele>
        <time>2019-08-18T08:22:07Z</time>
        <sat>8</sat>
      </trkpt>
      <trkpt lat="42.632126" lon="-2.096793">
        <ele>632.1</ele>
        <time>2019-08-18T08:22:14Z</time>
        <sat>7</sat>
      </trkpt>
      <trkpt lat="42.632119" lon="-2.096916">
        <ele>632.6</ele>
        <time>2019-08-18T08:22:21Z</time>
        <sat>7</sat>
      </trkpt>
      <trkpt lat="42.632113" lon="-2.097049">
        <ele>633.4</ele>
        <time>2019-08-18T08:22:29Z</time>
        <sat>7</sat>
      </trkpt>
      <trkpt lat="42.632116" lon="-2.097176">
        <ele>634.4</ele>
        <time>2019-08-18T08:22:36Z</time>
        <sat>7</sat>
      </trkpt>
      <trkpt lat="42.632118" lon="-2.097311">
        <ele>635.7</ele>
        <time>2019-08-18T08:22:44Z</time>
        <sat>8</sat>
      </trkpt>
      <trkpt lat="42.632142" lon="-2.097430">
        <ele>636.7</ele>
        <time>2019-08-18T08:22:51Z</time>
        <sat>7</sat>
      </trkpt>
      <trkpt lat="42.632154" lon="-2.097565">
        <ele>637.9</ele>
        <time>2019-08-18T08:22:59Z</time>
        <sat>8</sat>
      </trkpt>
      <trkpt lat="42.632112" lon="-2.097691">
        <ele>639.1</ele>
        <time>2019-08-18T08:23:07Z</time>
        <sat>7</sat>
      </trkpt>
      <trkpt lat="42.632040" lon="-2.097773">
        <ele>640.2</ele>
        <time>2019-08-18T08:23:15Z</time>
        <sat>8</sat>
      </trkpt>
      <trkpt lat="42.631966" lon="-2.097863">
        <ele>641.4</ele>
        <time>2019-08-18T08:23:23Z</time>
        <sat>8</sat>
      </trkpt>
      <trkpt lat="42.631917" lon="-2.097971">
        <ele>642.3</ele>
        <time>2019-08-18T08:23:31Z</time>
        <sat>8</sat>
      </trkpt>
      <trkpt lat="42.631883" lon="-2.098095">
        <ele>643.0</ele>
        <time>2019-08-18T08:23:39Z</time>
        <sat>8</sat>
      </trkpt>
      <trkpt lat="42.631851" lon="-2.098227">
        <ele>643.6</ele>
        <time>2019-08-18T08:23:47Z</time>
        <sat>8</sat>
      </trkpt>
      <trkpt lat="42.631803" lon="-2.098332">
        <ele>644.1</ele>
        <time>2019-08-18T08:23:54Z</time>
        <sat>8</sat>
      </trkpt>
      <trkpt lat="42.631750" lon="-2.098434">
        <ele>644.6</ele>
        <time>2019-08-18T08:24:02Z</time>
        <sat>8</sat>
      </trkpt>
      <trkpt lat="42.631684" lon="-2.098517">
        <ele>644.9</ele>
        <time>2019-08-18T08:24:09Z</time>
        <sat>8</sat>
      </trkpt>
      <trkpt lat="42.631608" lon="-2.098595">
        <ele>643.3</ele>
        <time>2019-08-18T08:24:20Z</time>
        <sat>8</sat>
      </trkpt>
      <trkpt lat="42.631523" lon="-2.098657">
        <ele>642.4</ele>
        <time>2019-08-18T08:24:27Z</time>
        <sat>8</sat>
      </trkpt>
      <trkpt lat="42.631428" lon="-2.098703">
        <ele>641.8</ele>
        <time>2019-08-18T08:24:35Z</time>
        <sat>8</sat>
      </trkpt>
      <trkpt lat="42.631340" lon="-2.098742">
        <ele>642.1</ele>
        <time>2019-08-18T08:24:43Z</time>
        <sat>8</sat>
      </trkpt>
      <trkpt lat="42.631248" lon="-2.098776">
        <ele>642.2</ele>
        <time>2019-08-18T08:25:02Z</time>
        <sat>8</sat>
      </trkpt>
      <trkpt lat="42.631153" lon="-2.098819">
        <ele>642.9</ele>
        <time>2019-08-18T08:25:11Z</time>
        <sat>8</sat>
      </trkpt>
      <trkpt lat="42.631070" lon="-2.098873">
        <ele>643.7</ele>
        <time>2019-08-18T08:25:19Z</time>
        <sat>8</sat>
      </trkpt>
      <trkpt lat="42.631005" lon="-2.098959">
        <ele>644.7</ele>
        <time>2019-08-18T08:25:27Z</time>
        <sat>8</sat>
      </trkpt>
      <trkpt lat="42.630946" lon="-2.099055">
        <ele>646.3</ele>
        <time>2019-08-18T08:25:36Z</time>
        <sat>8</sat>
      </trkpt>
      <trkpt lat="42.630899" lon="-2.099171">
        <ele>647.8</ele>
        <time>2019-08-18T08:25:44Z</time>
        <sat>8</sat>
      </trkpt>
      <trkpt lat="42.630874" lon="-2.099290">
        <ele>648.6</ele>
        <time>2019-08-18T08:25:52Z</time>
        <sat>8</sat>
      </trkpt>
      <trkpt lat="42.630847" lon="-2.099417">
        <ele>649.5</ele>
        <time>2019-08-18T08:26:00Z</time>
        <sat>7</sat>
      </trkpt>
      <trkpt lat="42.630835" lon="-2.099541">
        <ele>651.5</ele>
        <time>2019-08-18T08:26:07Z</time>
        <sat>7</sat>
      </trkpt>
      <trkpt lat="42.630809" lon="-2.099660">
        <ele>653.4</ele>
        <time>2019-08-18T08:26:17Z</time>
        <sat>8</sat>
      </trkpt>
      <trkpt lat="42.630775" lon="-2.099787">
        <ele>654.4</ele>
        <time>2019-08-18T08:26:27Z</time>
        <sat>7</sat>
      </trkpt>
      <trkpt lat="42.630732" lon="-2.099899">
        <ele>655.4</ele>
        <time>2019-08-18T08:26:43Z</time>
        <sat>8</sat>
      </trkpt>
      <trkpt lat="42.630678" lon="-2.100007">
        <ele>655.9</ele>
        <time>2019-08-18T08:26:50Z</time>
        <sat>8</sat>
      </trkpt>
      <trkpt lat="42.630619" lon="-2.100103">
        <ele>656.2</ele>
        <time>2019-08-18T08:26:57Z</time>
        <sat>8</sat>
      </trkpt>
      <trkpt lat="42.630558" lon="-2.100200">
        <ele>656.6</ele>
        <time>2019-08-18T08:27:09Z</time>
        <sat>8</sat>
      </trkpt>
      <trkpt lat="42.630535" lon="-2.100239">
        <ele>658.8</ele>
        <time>2019-08-18T08:33:18Z</time>
        <sat>8</sat>
      </trkpt>
      <trkpt lat="42.630467" lon="-2.100331">
        <ele>658.4</ele>
        <time>2019-08-18T08:33:34Z</time>
        <sat>7</sat>
      </trkpt>
      <trkpt lat="42.630400" lon="-2.100418">
        <ele>658.6</ele>
        <time>2019-08-18T08:33:42Z</time>
        <sat>8</sat>
      </trkpt>
      <trkpt lat="42.630310" lon="-2.100477">
        <ele>658.8</ele>
        <time>2019-08-18T08:33:51Z</time>
        <sat>8</sat>
      </trkpt>
      <trkpt lat="42.630225" lon="-2.100544">
        <ele>659.0</ele>
        <time>2019-08-18T08:33:58Z</time>
        <sat>8</sat>
      </trkpt>
      <trkpt lat="42.630152" lon="-2.100618">
        <ele>659.2</ele>
        <time>2019-08-18T08:34:06Z</time>
        <sat>8</sat>
      </trkpt>
      <trkpt lat="42.630066" lon="-2.100684">
        <ele>659.2</ele>
        <time>2019-08-18T08:34:13Z</time>
        <sat>8</sat>
      </trkpt>
      <trkpt lat="42.630000" lon="-2.100773">
        <ele>659.3</ele>
        <time>2019-08-18T08:34:20Z</time>
        <sat>8</sat>
      </trkpt>
      <trkpt lat="42.629927" lon="-2.100860">
        <ele>659.4</ele>
        <time>2019-08-18T08:34:27Z</time>
        <sat>8</sat>
      </trkpt>
      <trkpt lat="42.629869" lon="-2.100963">
        <ele>659.1</ele>
        <time>2019-08-18T08:34:34Z</time>
        <sat>8</sat>
      </trkpt>
      <trkpt lat="42.629794" lon="-2.101048">
        <ele>657.9</ele>
        <time>2019-08-18T08:34:41Z</time>
        <sat>8</sat>
      </trkpt>
      <trkpt lat="42.629741" lon="-2.101148">
        <ele>657.9</ele>
        <time>2019-08-18T08:34:48Z</time>
        <sat>8</sat>
      </trkpt>
      <trkpt lat="42.629685" lon="-2.101258">
        <ele>658.3</ele>
        <time>2019-08-18T08:35:02Z</time>
        <sat>8</sat>
      </trkpt>
      <trkpt lat="42.629643" lon="-2.101374">
        <ele>658.4</ele>
        <time>2019-08-18T08:35:09Z</time>
        <sat>8</sat>
      </trkpt>
      <trkpt lat="42.629602" lon="-2.101493">
        <ele>658.3</ele>
        <time>2019-08-18T08:35:16Z</time>
        <sat>8</sat>
      </trkpt>
      <trkpt lat="42.629569" lon="-2.101615">
        <ele>658.1</ele>
        <time>2019-08-18T08:35:23Z</time>
        <sat>7</sat>
      </trkpt>
      <trkpt lat="42.629527" lon="-2.101737">
        <ele>657.9</ele>
        <time>2019-08-18T08:35:30Z</time>
        <sat>8</sat>
      </trkpt>
      <trkpt lat="42.629506" lon="-2.101862">
        <ele>657.8</ele>
        <time>2019-08-18T08:35:37Z</time>
        <sat>7</sat>
      </trkpt>
      <trkpt lat="42.629475" lon="-2.101990">
        <ele>657.8</ele>
        <time>2019-08-18T08:35:44Z</time>
        <sat>7</sat>
      </trkpt>
      <trkpt lat="42.629461" lon="-2.102119">
        <ele>657.5</ele>
        <time>2019-08-18T08:35:51Z</time>
        <sat>7</sat>
      </trkpt>
      <trkpt lat="42.629429" lon="-2.102239">
        <ele>657.8</ele>
        <time>2019-08-18T08:35:58Z</time>
        <sat>6</sat>
      </trkpt>
      <trkpt lat="42.629413" lon="-2.102365">
        <ele>658.3</ele>
        <time>2019-08-18T08:36:05Z</time>
        <sat>7</sat>
      </trkpt>
      <trkpt lat="42.629401" lon="-2.102496">
        <ele>658.8</ele>
        <time>2019-08-18T08:36:12Z</time>
        <sat>7</sat>
      </trkpt>
      <trkpt lat="42.629382" lon="-2.102631">
        <ele>659.3</ele>
        <time>2019-08-18T08:36:20Z</time>
        <sat>7</sat>
      </trkpt>
      <trkpt lat="42.629353" lon="-2.102751">
        <ele>659.2</ele>
        <time>2019-08-18T08:36:30Z</time>
        <sat>6</sat>
      </trkpt>
      <trkpt lat="42.629329" lon="-2.102872">
        <ele>662.4</ele>
        <time>2019-08-18T08:37:28Z</time>
        <sat>8</sat>
      </trkpt>
      <trkpt lat="42.629329" lon="-2.102994">
        <ele>662.4</ele>
        <time>2019-08-18T08:37:36Z</time>
        <sat>8</sat>
      </trkpt>
      <trkpt lat="42.629276" lon="-2.103096">
        <ele>662.8</ele>
        <time>2019-08-18T08:37:44Z</time>
        <sat>8</sat>
      </trkpt>
      <trkpt lat="42.629215" lon="-2.103204">
        <ele>663.6</ele>
        <time>2019-08-18T08:37:53Z</time>
        <sat>8</sat>
      </trkpt>
      <trkpt lat="42.629161" lon="-2.103319">
        <ele>664.2</ele>
        <time>2019-08-18T08:38:00Z</time>
        <sat>8</sat>
      </trkpt>
      <trkpt lat="42.629133" lon="-2.103441">
        <ele>665.1</ele>
        <time>2019-08-18T08:38:08Z</time>
        <sat>7</sat>
      </trkpt>
      <trkpt lat="42.629081" lon="-2.103546">
        <ele>666.6</ele>
        <time>2019-08-18T08:38:31Z</time>
        <sat>8</sat>
      </trkpt>
      <trkpt lat="42.629009" lon="-2.103622">
        <ele>667.4</ele>
        <time>2019-08-18T08:38:48Z</time>
        <sat>8</sat>
      </trkpt>
      <trkpt lat="42.628952" lon="-2.103733">
        <ele>667.3</ele>
        <time>2019-08-18T08:38:56Z</time>
        <sat>6</sat>
      </trkpt>
      <trkpt lat="42.628917" lon="-2.103847">
        <ele>667.4</ele>
        <time>2019-08-18T08:39:04Z</time>
        <sat>8</sat>
      </trkpt>
      <trkpt lat="42.628914" lon="-2.103895">
        <ele>667.7</ele>
        <time>2019-08-18T08:58:40Z</time>
        <sat>7</sat>
      </trkpt>
      <trkpt lat="42.628862" lon="-2.104011">
        <ele>668.2</ele>
        <time>2019-08-18T08:59:21Z</time>
        <sat>7</sat>
      </trkpt>
      <trkpt lat="42.628806" lon="-2.104114">
        <ele>667.5</ele>
        <time>2019-08-18T08:59:33Z</time>
        <sat>7</sat>
      </trkpt>
      <trkpt lat="42.628742" lon="-2.104208">
        <ele>666.4</ele>
        <time>2019-08-18T08:59:56Z</time>
        <sat>8</sat>
      </trkpt>
      <trkpt lat="42.628648" lon="-2.104201">
        <ele>665.8</ele>
        <time>2019-08-18T09:00:08Z</time>
        <sat>7</sat>
      </trkpt>
      <trkpt lat="42.628561" lon="-2.104157">
        <ele>663.6</ele>
        <time>2019-08-18T09:00:41Z</time>
        <sat>8</sat>
      </trkpt>
      <trkpt lat="42.628490" lon="-2.104081">
        <ele>663.2</ele>
        <time>2019-08-18T09:00:50Z</time>
        <sat>8</sat>
      </trkpt>
      <trkpt lat="42.628412" lon="-2.103991">
        <ele>660.0</ele>
        <time>2019-08-18T09:01:13Z</time>
        <sat>8</sat>
      </trkpt>
      <trkpt lat="42.628328" lon="-2.103936">
        <ele>658.1</ele>
        <time>2019-08-18T09:01:20Z</time>
        <sat>8</sat>
      </trkpt>
      <trkpt lat="42.628234" lon="-2.103888">
        <ele>655.2</ele>
        <time>2019-08-18T09:01:29Z</time>
        <sat>8</sat>
      </trkpt>
      <trkpt lat="42.628140" lon="-2.103901">
        <ele>655.9</ele>
        <time>2019-08-18T09:01:37Z</time>
        <sat>8</sat>
      </trkpt>
      <trkpt lat="42.628041" lon="-2.103934">
        <ele>655.3</ele>
        <time>2019-08-18T09:01:45Z</time>
        <sat>8</sat>
      </trkpt>
      <trkpt lat="42.627949" lon="-2.103968">
        <ele>654.3</ele>
        <time>2019-08-18T09:01:53Z</time>
        <sat>8</sat>
      </trkpt>
      <trkpt lat="42.627862" lon="-2.104000">
        <ele>652.9</ele>
        <time>2019-08-18T09:02:08Z</time>
        <sat>8</sat>
      </trkpt>
      <trkpt lat="42.627771" lon="-2.103984">
        <ele>652.6</ele>
        <time>2019-08-18T09:02:16Z</time>
        <sat>8</sat>
      </trkpt>
      <trkpt lat="42.627685" lon="-2.103927">
        <ele>653.4</ele>
        <time>2019-08-18T09:02:24Z</time>
        <sat>8</sat>
      </trkpt>
      <trkpt lat="42.627600" lon="-2.103869">
        <ele>654.2</ele>
        <time>2019-08-18T09:02:34Z</time>
        <sat>8</sat>
      </trkpt>
      <trkpt lat="42.627514" lon="-2.103828">
        <ele>654.1</ele>
        <time>2019-08-18T09:02:43Z</time>
        <sat>8</sat>
      </trkpt>
      <trkpt lat="42.627423" lon="-2.103807">
        <ele>653.5</ele>
        <time>2019-08-18T09:02:52Z</time>
        <sat>8</sat>
      </trkpt>
      <trkpt lat="42.627325" lon="-2.103788">
        <ele>652.3</ele>
        <time>2019-08-18T09:03:01Z</time>
        <sat>8</sat>
      </trkpt>
      <trkpt lat="42.627230" lon="-2.103758">
        <ele>650.0</ele>
        <time>2019-08-18T09:03:11Z</time>
        <sat>8</sat>
      </trkpt>
      <trkpt lat="42.627132" lon="-2.103732">
        <ele>649.3</ele>
        <time>2019-08-18T09:03:19Z</time>
        <sat>8</sat>
      </trkpt>
      <trkpt lat="42.627032" lon="-2.103723">
        <ele>648.3</ele>
        <time>2019-08-18T09:03:27Z</time>
        <sat>8</sat>
      </trkpt>
      <trkpt lat="42.626940" lon="-2.103703">
        <ele>647.1</ele>
        <time>2019-08-18T09:03:35Z</time>
        <sat>8</sat>
      </trkpt>
      <trkpt lat="42.626846" lon="-2.103685">
        <ele>645.7</ele>
        <time>2019-08-18T09:03:43Z</time>
        <sat>8</sat>
      </trkpt>
      <trkpt lat="42.626756" lon="-2.103663">
        <ele>644.2</ele>
        <time>2019-08-18T09:03:51Z</time>
        <sat>8</sat>
      </trkpt>
      <trkpt lat="42.626664" lon="-2.103675">
        <ele>641.7</ele>
        <time>2019-08-18T09:04:30Z</time>
        <sat>7</sat>
      </trkpt>
      <trkpt lat="42.626564" lon="-2.103652">
        <ele>640.9</ele>
        <time>2019-08-18T09:04:40Z</time>
        <sat>7</sat>
      </trkpt>
      <trkpt lat="42.626471" lon="-2.103642">
        <ele>640.1</ele>
        <time>2019-08-18T09:04:49Z</time>
        <sat>7</sat>
      </trkpt>
      <trkpt lat="42.626375" lon="-2.103642">
        <ele>639.7</ele>
        <time>2019-08-18T09:04:58Z</time>
        <sat>6</sat>
      </trkpt>
      <trkpt lat="42.626285" lon="-2.103640">
        <ele>639.0</ele>
        <time>2019-08-18T09:05:07Z</time>
        <sat>7</sat>
      </trkpt>
      <trkpt lat="42.626194" lon="-2.103662">
        <ele>638.2</ele>
        <time>2019-08-18T09:05:14Z</time>
        <sat>7</sat>
      </trkpt>
      <trkpt lat="42.626103" lon="-2.103665">
        <ele>637.7</ele>
        <time>2019-08-18T09:05:21Z</time>
        <sat>7</sat>
      </trkpt>
      <trkpt lat="42.626010" lon="-2.103679">
        <ele>637.1</ele>
        <time>2019-08-18T09:05:29Z</time>
        <sat>7</sat>
      </trkpt>
      <trkpt lat="42.625911" lon="-2.103680">
        <ele>636.3</ele>
        <time>2019-08-18T09:05:38Z</time>
        <sat>7</sat>
      </trkpt>
      <trkpt lat="42.625819" lon="-2.103652">
        <ele>635.9</ele>
        <time>2019-08-18T09:05:45Z</time>
        <sat>7</sat>
      </trkpt>
      <trkpt lat="42.625721" lon="-2.103605">
        <ele>635.0</ele>
        <time>2019-08-18T09:05:53Z</time>
        <sat>7</sat>
      </trkpt>
      <trkpt lat="42.625640" lon="-2.103546">
        <ele>634.0</ele>
        <time>2019-08-18T09:06:01Z</time>
        <sat>7</sat>
      </trkpt>
      <trkpt lat="42.625552" lon="-2.103483">
        <ele>632.6</ele>
        <time>2019-08-18T09:06:10Z</time>
        <sat>7</sat>
      </trkpt>
      <trkpt lat="42.625470" lon="-2.103413">
        <ele>631.5</ele>
        <time>2019-08-18T09:06:18Z</time>
        <sat>7</sat>
      </trkpt>
      <trkpt lat="42.625385" lon="-2.103352">
        <ele>629.9</ele>
        <time>2019-08-18T09:06:26Z</time>
        <sat>7</sat>
      </trkpt>
      <trkpt lat="42.625300" lon="-2.103288">
        <ele>627.7</ele>
        <time>2019-08-18T09:06:34Z</time>
        <sat>7</sat>
      </trkpt>
      <trkpt lat="42.625228" lon="-2.103212">
        <ele>624.0</ele>
        <time>2019-08-18T09:06:42Z</time>
        <sat>6</sat>
      </trkpt>
      <trkpt lat="42.625148" lon="-2.103144">
        <ele>623.0</ele>
        <time>2019-08-18T09:06:50Z</time>
        <sat>6</sat>
      </trkpt>
      <trkpt lat="42.625070" lon="-2.103066">
        <ele>621.5</ele>
        <time>2019-08-18T09:06:58Z</time>
        <sat>6</sat>
      </trkpt>
      <trkpt lat="42.624984" lon="-2.103018">
        <ele>619.7</ele>
        <time>2019-08-18T09:07:07Z</time>
        <sat>7</sat>
      </trkpt>
      <trkpt lat="42.624904" lon="-2.102962">
        <ele>619.0</ele>
        <time>2019-08-18T09:07:15Z</time>
        <sat>7</sat>
      </trkpt>
      <trkpt lat="42.624814" lon="-2.102938">
        <ele>616.9</ele>
        <time>2019-08-18T09:07:24Z</time>
        <sat>7</sat>
      </trkpt>
      <trkpt lat="42.624714" lon="-2.102909">
        <ele>617.0</ele>
        <time>2019-08-18T09:07:44Z</time>
        <sat>7</sat>
      </trkpt>
      <trkpt lat="42.624620" lon="-2.102870">
        <ele>617.0</ele>
        <time>2019-08-18T09:07:53Z</time>
        <sat>7</sat>
      </trkpt>
      <trkpt lat="42.624530" lon="-2.102806">
        <ele>616.1</ele>
        <time>2019-08-18T09:08:01Z</time>
        <sat>7</sat>
      </trkpt>
      <trkpt lat="42.624451" lon="-2.102743">
        <ele>614.9</ele>
        <time>2019-08-18T09:08:09Z</time>
        <sat>7</sat>
      </trkpt>
      <trkpt lat="42.624361" lon="-2.102715">
        <ele>613.9</ele>
        <time>2019-08-18T09:08:16Z</time>
        <sat>7</sat>
      </trkpt>
      <trkpt lat="42.624272" lon="-2.102684">
        <ele>613.1</ele>
        <time>2019-08-18T09:08:23Z</time>
        <sat>7</sat>
      </trkpt>
      <trkpt lat="42.624181" lon="-2.102659">
        <ele>612.3</ele>
        <time>2019-08-18T09:08:30Z</time>
        <sat>7</sat>
      </trkpt>
      <trkpt lat="42.624084" lon="-2.102628">
        <ele>611.2</ele>
        <time>2019-08-18T09:08:38Z</time>
        <sat>7</sat>
      </trkpt>
      <trkpt lat="42.623989" lon="-2.102595">
        <ele>610.3</ele>
        <time>2019-08-18T09:08:46Z</time>
        <sat>7</sat>
      </trkpt>
      <trkpt lat="42.623892" lon="-2.102568">
        <ele>608.8</ele>
        <time>2019-08-18T09:09:06Z</time>
        <sat>7</sat>
      </trkpt>
      <trkpt lat="42.623800" lon="-2.102527">
        <ele>608.1</ele>
        <time>2019-08-18T09:09:13Z</time>
        <sat>7</sat>
      </trkpt>
      <trkpt lat="42.623714" lon="-2.102492">
        <ele>607.3</ele>
        <time>2019-08-18T09:09:20Z</time>
        <sat>7</sat>
      </trkpt>
      <trkpt lat="42.623620" lon="-2.102467">
        <ele>606.5</ele>
        <time>2019-08-18T09:09:27Z</time>
        <sat>7</sat>
      </trkpt>
      <trkpt lat="42.623524" lon="-2.102430">
        <ele>605.5</ele>
        <time>2019-08-18T09:09:35Z</time>
        <sat>6</sat>
      </trkpt>
      <trkpt lat="42.623428" lon="-2.102403">
        <ele>604.6</ele>
        <time>2019-08-18T09:09:42Z</time>
        <sat>7</sat>
      </trkpt>
      <trkpt lat="42.623340" lon="-2.102370">
        <ele>604.0</ele>
        <time>2019-08-18T09:09:49Z</time>
        <sat>7</sat>
      </trkpt>
      <trkpt lat="42.623242" lon="-2.102349">
        <ele>602.9</ele>
        <time>2019-08-18T09:09:56Z</time>
        <sat>7</sat>
      </trkpt>
      <trkpt lat="42.623151" lon="-2.102317">
        <ele>601.9</ele>
        <time>2019-08-18T09:10:03Z</time>
        <sat>7</sat>
      </trkpt>
      <trkpt lat="42.623060" lon="-2.102290">
        <ele>601.1</ele>
        <time>2019-08-18T09:10:10Z</time>
        <sat>7</sat>
      </trkpt>
      <trkpt lat="42.622971" lon="-2.102263">
        <ele>600.3</ele>
        <time>2019-08-18T09:10:17Z</time>
        <sat>7</sat>
      </trkpt>
      <trkpt lat="42.622872" lon="-2.102225">
        <ele>599.4</ele>
        <time>2019-08-18T09:10:25Z</time>
        <sat>7</sat>
      </trkpt>
      <trkpt lat="42.622771" lon="-2.102196">
        <ele>598.6</ele>
        <time>2019-08-18T09:10:33Z</time>
        <sat>7</sat>
      </trkpt>
      <trkpt lat="42.622682" lon="-2.102171">
        <ele>597.9</ele>
        <time>2019-08-18T09:10:40Z</time>
        <sat>7</sat>
      </trkpt>
      <trkpt lat="42.622594" lon="-2.102141">
        <ele>597.2</ele>
        <time>2019-08-18T09:10:47Z</time>
        <sat>7</sat>
      </trkpt>
      <trkpt lat="42.622501" lon="-2.102121">
        <ele>596.7</ele>
        <time>2019-08-18T09:10:54Z</time>
        <sat>7</sat>
      </trkpt>
      <trkpt lat="42.622411" lon="-2.102102">
        <ele>595.9</ele>
        <time>2019-08-18T09:11:01Z</time>
        <sat>7</sat>
      </trkpt>
      <trkpt lat="42.622313" lon="-2.102080">
        <ele>595.1</ele>
        <time>2019-08-18T09:11:08Z</time>
        <sat>7</sat>
      </trkpt>
      <trkpt lat="42.622219" lon="-2.102074">
        <ele>594.2</ele>
        <time>2019-08-18T09:11:15Z</time>
        <sat>7</sat>
      </trkpt>
      <trkpt lat="42.622128" lon="-2.102080">
        <ele>593.6</ele>
        <time>2019-08-18T09:11:22Z</time>
        <sat>7</sat>
      </trkpt>
      <trkpt lat="42.622029" lon="-2.102101">
        <ele>593.0</ele>
        <time>2019-08-18T09:11:30Z</time>
        <sat>7</sat>
      </trkpt>
      <trkpt lat="42.621939" lon="-2.102098">
        <ele>592.7</ele>
        <time>2019-08-18T09:11:37Z</time>
        <sat>7</sat>
      </trkpt>
      <trkpt lat="42.621843" lon="-2.102106">
        <ele>592.2</ele>
        <time>2019-08-18T09:11:44Z</time>
        <sat>7</sat>
      </trkpt>
      <trkpt lat="42.621749" lon="-2.102106">
        <ele>591.3</ele>
        <time>2019-08-18T09:11:52Z</time>
        <sat>7</sat>
      </trkpt>
      <trkpt lat="42.621652" lon="-2.102127">
        <ele>590.3</ele>
        <time>2019-08-18T09:12:00Z</time>
        <sat>7</sat>
      </trkpt>
      <trkpt lat="42.621563" lon="-2.102147">
        <ele>589.0</ele>
        <time>2019-08-18T09:12:07Z</time>
        <sat>7</sat>
      </trkpt>
      <trkpt lat="42.621468" lon="-2.102165">
        <ele>587.1</ele>
        <time>2019-08-18T09:12:15Z</time>
        <sat>7</sat>
      </trkpt>
      <trkpt lat="42.621372" lon="-2.102168">
        <ele>586.6</ele>
        <time>2019-08-18T09:12:22Z</time>
        <sat>6</sat>
      </trkpt>
      <trkpt lat="42.621273" lon="-2.102182">
        <ele>586.6</ele>
        <time>2019-08-18T09:12:29Z</time>
        <sat>7</sat>
      </trkpt>
      <trkpt lat="42.621174" lon="-2.102208">
        <ele>586.8</ele>
        <time>2019-08-18T09:12:36Z</time>
        <sat>7</sat>
      </trkpt>
      <trkpt lat="42.621085" lon="-2.102243">
        <ele>587.0</ele>
        <time>2019-08-18T09:12:43Z</time>
        <sat>6</sat>
      </trkpt>
      <trkpt lat="42.621010" lon="-2.102318">
        <ele>586.8</ele>
        <time>2019-08-18T09:12:49Z</time>
        <sat>7</sat>
      </trkpt>
      <trkpt lat="42.620934" lon="-2.102397">
        <ele>586.8</ele>
        <time>2019-08-18T09:12:57Z</time>
        <sat>7</sat>
      </trkpt>
      <trkpt lat="42.620862" lon="-2.102485">
        <ele>586.5</ele>
        <time>2019-08-18T09:13:07Z</time>
        <sat>7</sat>
      </trkpt>
      <trkpt lat="42.620821" lon="-2.102604">
        <ele>586.2</ele>
        <time>2019-08-18T09:13:19Z</time>
        <sat>7</sat>
      </trkpt>
      <trkpt lat="42.620714" lon="-2.102734">
        <ele>587.2</ele>
        <time>2019-08-18T09:15:00Z</time>
        <sat>8</sat>
      </trkpt>
      <trkpt lat="42.620633" lon="-2.102812">
        <ele>586.9</ele>
        <time>2019-08-18T09:15:07Z</time>
        <sat>8</sat>
      </trkpt>
      <trkpt lat="42.620561" lon="-2.102905">
        <ele>586.2</ele>
        <time>2019-08-18T09:15:14Z</time>
        <sat>8</sat>
      </trkpt>
      <trkpt lat="42.620493" lon="-2.102995">
        <ele>585.8</ele>
        <time>2019-08-18T09:15:22Z</time>
        <sat>8</sat>
      </trkpt>
      <trkpt lat="42.620430" lon="-2.103087">
        <ele>585.5</ele>
        <time>2019-08-18T09:15:29Z</time>
        <sat>8</sat>
      </trkpt>
      <trkpt lat="42.620365" lon="-2.103174">
        <ele>585.2</ele>
        <time>2019-08-18T09:15:36Z</time>
        <sat>8</sat>
      </trkpt>
      <trkpt lat="42.620302" lon="-2.103274">
        <ele>584.9</ele>
        <time>2019-08-18T09:15:43Z</time>
        <sat>8</sat>
      </trkpt>
      <trkpt lat="42.620229" lon="-2.103362">
        <ele>584.4</ele>
        <time>2019-08-18T09:15:50Z</time>
        <sat>8</sat>
      </trkpt>
      <trkpt lat="42.620166" lon="-2.103463">
        <ele>584.0</ele>
        <time>2019-08-18T09:15:57Z</time>
        <sat>8</sat>
      </trkpt>
      <trkpt lat="42.620097" lon="-2.103552">
        <ele>583.6</ele>
        <time>2019-08-18T09:16:04Z</time>
        <sat>8</sat>
      </trkpt>
      <trkpt lat="42.620032" lon="-2.103652">
        <ele>583.2</ele>
        <time>2019-08-18T09:16:11Z</time>
        <sat>8</sat>
      </trkpt>
      <trkpt lat="42.619967" lon="-2.103740">
        <ele>583.0</ele>
        <time>2019-08-18T09:16:18Z</time>
        <sat>8</sat>
      </trkpt>
      <trkpt lat="42.619904" lon="-2.103844">
        <ele>582.7</ele>
        <time>2019-08-18T09:16:26Z</time>
        <sat>8</sat>
      </trkpt>
      <trkpt lat="42.619824" lon="-2.103930">
        <ele>582.5</ele>
        <time>2019-08-18T09:16:34Z</time>
        <sat>8</sat>
      </trkpt>
      <trkpt lat="42.619769" lon="-2.104027">
        <ele>582.3</ele>
        <time>2019-08-18T09:16:40Z</time>
        <sat>8</sat>
      </trkpt>
      <trkpt lat="42.619702" lon="-2.104125">
        <ele>582.2</ele>
        <time>2019-08-18T09:16:47Z</time>
        <sat>8</sat>
      </trkpt>
      <trkpt lat="42.619644" lon="-2.104231">
        <ele>581.7</ele>
        <time>2019-08-18T09:16:55Z</time>
        <sat>8</sat>
      </trkpt>
      <trkpt lat="42.619592" lon="-2.104339">
        <ele>577.6</ele>
        <time>2019-08-18T09:17:10Z</time>
        <sat>8</sat>
      </trkpt>
      <trkpt lat="42.619528" lon="-2.104522">
        <ele>580.3</ele>
        <time>2019-08-18T09:18:24Z</time>
        <sat>8</sat>
      </trkpt>
      <trkpt lat="42.619478" lon="-2.104640">
        <ele>580.0</ele>
        <time>2019-08-18T09:18:35Z</time>
        <sat>8</sat>
      </trkpt>
      <trkpt lat="42.619417" lon="-2.104745">
        <ele>580.1</ele>
        <time>2019-08-18T09:18:42Z</time>
        <sat>8</sat>
      </trkpt>
      <trkpt lat="42.619366" lon="-2.104846">
        <ele>579.8</ele>
        <time>2019-08-18T09:18:47Z</time>
        <sat>8</sat>
      </trkpt>
      <trkpt lat="42.619319" lon="-2.104957">
        <ele>579.6</ele>
        <time>2019-08-18T09:18:54Z</time>
        <sat>8</sat>
      </trkpt>
      <trkpt lat="42.619273" lon="-2.105067">
        <ele>579.3</ele>
        <time>2019-08-18T09:19:01Z</time>
        <sat>8</sat>
      </trkpt>
      <trkpt lat="42.619226" lon="-2.105173">
        <ele>579.0</ele>
        <time>2019-08-18T09:19:08Z</time>
        <sat>8</sat>
      </trkpt>
      <trkpt lat="42.619178" lon="-2.105286">
        <ele>578.5</ele>
        <time>2019-08-18T09:19:15Z</time>
        <sat>8</sat>
      </trkpt>
      <trkpt lat="42.619127" lon="-2.105403">
        <ele>578.1</ele>
        <time>2019-08-18T09:19:23Z</time>
        <sat>8</sat>
      </trkpt>
      <trkpt lat="42.619090" lon="-2.105527">
        <ele>577.8</ele>
        <time>2019-08-18T09:19:30Z</time>
        <sat>8</sat>
      </trkpt>
      <trkpt lat="42.619044" lon="-2.105643">
        <ele>577.2</ele>
        <time>2019-08-18T09:19:37Z</time>
        <sat>8</sat>
      </trkpt>
      <trkpt lat="42.619015" lon="-2.105763">
        <ele>576.8</ele>
        <time>2019-08-18T09:19:44Z</time>
        <sat>7</sat>
      </trkpt>
      <trkpt lat="42.618993" lon="-2.105897">
        <ele>576.4</ele>
        <time>2019-08-18T09:19:51Z</time>
        <sat>8</sat>
      </trkpt>
      <trkpt lat="42.618966" lon="-2.106017">
        <ele>576.1</ele>
        <time>2019-08-18T09:19:58Z</time>
        <sat>8</sat>
      </trkpt>
      <trkpt lat="42.618930" lon="-2.106139">
        <ele>575.2</ele>
        <time>2019-08-18T09:20:05Z</time>
        <sat>8</sat>
      </trkpt>
      <trkpt lat="42.618890" lon="-2.106268">
        <ele>574.9</ele>
        <time>2019-08-18T09:20:13Z</time>
        <sat>8</sat>
      </trkpt>
      <trkpt lat="42.618858" lon="-2.106385">
        <ele>574.6</ele>
        <time>2019-08-18T09:20:20Z</time>
        <sat>7</sat>
      </trkpt>
      <trkpt lat="42.618826" lon="-2.106507">
        <ele>573.3</ele>
        <time>2019-08-18T09:20:27Z</time>
        <sat>8</sat>
      </trkpt>
      <trkpt lat="42.618795" lon="-2.106633">
        <ele>574.0</ele>
        <time>2019-08-18T09:20:34Z</time>
        <sat>8</sat>
      </trkpt>
      <trkpt lat="42.618757" lon="-2.106753">
        <ele>573.8</ele>
        <time>2019-08-18T09:20:41Z</time>
        <sat>8</sat>
      </trkpt>
      <trkpt lat="42.618723" lon="-2.106877">
        <ele>573.3</ele>
        <time>2019-08-18T09:20:48Z</time>
        <sat>8</sat>
      </trkpt>
      <trkpt lat="42.618689" lon="-2.107008">
        <ele>573.0</ele>
        <time>2019-08-18T09:20:56Z</time>
        <sat>8</sat>
      </trkpt>
      <trkpt lat="42.618665" lon="-2.107143">
        <ele>572.5</ele>
        <time>2019-08-18T09:21:04Z</time>
        <sat>8</sat>
      </trkpt>
      <trkpt lat="42.618629" lon="-2.107264">
        <ele>572.3</ele>
        <time>2019-08-18T09:21:11Z</time>
        <sat>8</sat>
      </trkpt>
      <trkpt lat="42.618586" lon="-2.107386">
        <ele>572.1</ele>
        <time>2019-08-18T09:21:18Z</time>
        <sat>8</sat>
      </trkpt>
      <trkpt lat="42.618547" lon="-2.107509">
        <ele>571.8</ele>
        <time>2019-08-18T09:21:25Z</time>
        <sat>8</sat>
      </trkpt>
      <trkpt lat="42.618495" lon="-2.107613">
        <ele>571.6</ele>
        <time>2019-08-18T09:21:32Z</time>
        <sat>8</sat>
      </trkpt>
      <trkpt lat="42.618442" lon="-2.107716">
        <ele>571.1</ele>
        <time>2019-08-18T09:21:39Z</time>
        <sat>8</sat>
      </trkpt>
      <trkpt lat="42.618383" lon="-2.107814">
        <ele>570.7</ele>
        <time>2019-08-18T09:21:46Z</time>
        <sat>8</sat>
      </trkpt>
      <trkpt lat="42.618327" lon="-2.107913">
        <ele>570.2</ele>
        <time>2019-08-18T09:21:53Z</time>
        <sat>8</sat>
      </trkpt>
      <trkpt lat="42.618258" lon="-2.108004">
        <ele>569.8</ele>
        <time>2019-08-18T09:22:00Z</time>
        <sat>8</sat>
      </trkpt>
      <trkpt lat="42.618189" lon="-2.108097">
        <ele>568.8</ele>
        <time>2019-08-18T09:23:01Z</time>
        <sat>8</sat>
      </trkpt>
      <trkpt lat="42.618137" lon="-2.108197">
        <ele>568.1</ele>
        <time>2019-08-18T09:23:18Z</time>
        <sat>8</sat>
      </trkpt>
      <trkpt lat="42.618065" lon="-2.108287">
        <ele>567.8</ele>
        <time>2019-08-18T09:23:25Z</time>
        <sat>8</sat>
      </trkpt>
      <trkpt lat="42.618003" lon="-2.108398">
        <ele>567.7</ele>
        <time>2019-08-18T09:23:33Z</time>
        <sat>8</sat>
      </trkpt>
      <trkpt lat="42.617946" lon="-2.108493">
        <ele>567.7</ele>
        <time>2019-08-18T09:23:40Z</time>
        <sat>8</sat>
      </trkpt>
      <trkpt lat="42.617881" lon="-2.108589">
        <ele>567.5</ele>
        <time>2019-08-18T09:23:47Z</time>
        <sat>8</sat>
      </trkpt>
      <trkpt lat="42.617811" lon="-2.108691">
        <ele>567.4</ele>
        <time>2019-08-18T09:23:54Z</time>
        <sat>8</sat>
      </trkpt>
      <trkpt lat="42.617757" lon="-2.108790">
        <ele>567.2</ele>
        <time>2019-08-18T09:24:01Z</time>
        <sat>8</sat>
      </trkpt>
      <trkpt lat="42.617688" lon="-2.108891">
        <ele>566.9</ele>
        <time>2019-08-18T09:24:08Z</time>
        <sat>8</sat>
      </trkpt>
      <trkpt lat="42.617632" lon="-2.108998">
        <ele>566.4</ele>
        <time>2019-08-18T09:24:15Z</time>
        <sat>8</sat>
      </trkpt>
      <trkpt lat="42.617567" lon="-2.109100">
        <ele>566.0</ele>
        <time>2019-08-18T09:24:22Z</time>
        <sat>8</sat>
      </trkpt>
      <trkpt lat="42.617515" lon="-2.109206">
        <ele>565.8</ele>
        <time>2019-08-18T09:24:29Z</time>
        <sat>8</sat>
      </trkpt>
      <trkpt lat="42.617457" lon="-2.109314">
        <ele>565.5</ele>
        <time>2019-08-18T09:24:36Z</time>
        <sat>8</sat>
      </trkpt>
      <trkpt lat="42.617402" lon="-2.109420">
        <ele>565.4</ele>
        <time>2019-08-18T09:24:43Z</time>
        <sat>8</sat>
      </trkpt>
      <trkpt lat="42.617347" lon="-2.109530">
        <ele>565.3</ele>
        <time>2019-08-18T09:24:50Z</time>
        <sat>8</sat>
      </trkpt>
      <trkpt lat="42.617297" lon="-2.109636">
        <ele>558.6</ele>
        <time>2019-08-18T09:24:57Z</time>
        <sat>8</sat>
      </trkpt>
      <trkpt lat="42.617236" lon="-2.109737">
        <ele>563.6</ele>
        <time>2019-08-18T09:25:04Z</time>
        <sat>7</sat>
      </trkpt>
      <trkpt lat="42.617186" lon="-2.109839">
        <ele>562.8</ele>
        <time>2019-08-18T09:25:12Z</time>
        <sat>8</sat>
      </trkpt>
      <trkpt lat="42.617129" lon="-2.109951">
        <ele>561.1</ele>
        <time>2019-08-18T09:25:20Z</time>
        <sat>8</sat>
      </trkpt>
      <trkpt lat="42.617072" lon="-2.110053">
        <ele>560.1</ele>
        <time>2019-08-18T09:25:27Z</time>
        <sat>7</sat>
      </trkpt>
      <trkpt lat="42.617025" lon="-2.110160">
        <ele>558.4</ele>
        <time>2019-08-18T09:25:35Z</time>
        <sat>8</sat>
      </trkpt>
      <trkpt lat="42.616968" lon="-2.110255">
        <ele>558.4</ele>
        <time>2019-08-18T09:25:41Z</time>
        <sat>8</sat>
      </trkpt>
      <trkpt lat="42.616904" lon="-2.110356">
        <ele>559.3</ele>
        <time>2019-08-18T09:25:49Z</time>
        <sat>8</sat>
      </trkpt>
      <trkpt lat="42.616844" lon="-2.110448">
        <ele>559.7</ele>
        <time>2019-08-18T09:25:55Z</time>
        <sat>8</sat>
      </trkpt>
      <trkpt lat="42.616772" lon="-2.110533">
        <ele>560.1</ele>
        <time>2019-08-18T09:26:02Z</time>
        <sat>8</sat>
      </trkpt>
      <trkpt lat="42.616710" lon="-2.110629">
        <ele>560.5</ele>
        <time>2019-08-18T09:26:09Z</time>
        <sat>8</sat>
      </trkpt>
      <trkpt lat="42.616645" lon="-2.110722">
        <ele>560.6</ele>
        <time>2019-08-18T09:26:16Z</time>
        <sat>8</sat>
      </trkpt>
      <trkpt lat="42.616584" lon="-2.110815">
        <ele>560.5</ele>
        <time>2019-08-18T09:26:23Z</time>
        <sat>8</sat>
      </trkpt>
      <trkpt lat="42.616516" lon="-2.110906">
        <ele>560.5</ele>
        <time>2019-08-18T09:26:30Z</time>
        <sat>8</sat>
      </trkpt>
      <trkpt lat="42.616448" lon="-2.110999">
        <ele>560.3</ele>
        <time>2019-08-18T09:26:37Z</time>
        <sat>8</sat>
      </trkpt>
      <trkpt lat="42.616378" lon="-2.111089">
        <ele>559.8</ele>
        <time>2019-08-18T09:26:44Z</time>
        <sat>8</sat>
      </trkpt>
      <trkpt lat="42.616305" lon="-2.111185">
        <ele>559.9</ele>
        <time>2019-08-18T09:26:52Z</time>
        <sat>7</sat>
      </trkpt>
      <trkpt lat="42.616239" lon="-2.111293">
        <ele>559.5</ele>
        <time>2019-08-18T09:27:00Z</time>
        <sat>8</sat>
      </trkpt>
      <trkpt lat="42.616170" lon="-2.111382">
        <ele>559.7</ele>
        <time>2019-08-18T09:27:07Z</time>
        <sat>8</sat>
      </trkpt>
      <trkpt lat="42.616108" lon="-2.111469">
        <ele>559.4</ele>
        <time>2019-08-18T09:27:14Z</time>
        <sat>8</sat>
      </trkpt>
      <trkpt lat="42.616037" lon="-2.111556">
        <ele>559.3</ele>
        <time>2019-08-18T09:27:21Z</time>
        <sat>8</sat>
      </trkpt>
      <trkpt lat="42.615978" lon="-2.111655">
        <ele>559.1</ele>
        <time>2019-08-18T09:27:28Z</time>
        <sat>8</sat>
      </trkpt>
      <trkpt lat="42.615906" lon="-2.111746">
        <ele>559.0</ele>
        <time>2019-08-18T09:27:35Z</time>
        <sat>8</sat>
      </trkpt>
      <trkpt lat="42.615838" lon="-2.111836">
        <ele>558.9</ele>
        <time>2019-08-18T09:27:42Z</time>
        <sat>8</sat>
      </trkpt>
      <trkpt lat="42.615766" lon="-2.111922">
        <ele>558.7</ele>
        <time>2019-08-18T09:27:49Z</time>
        <sat>8</sat>
      </trkpt>
      <trkpt lat="42.615695" lon="-2.112000">
        <ele>558.6</ele>
        <time>2019-08-18T09:27:56Z</time>
        <sat>8</sat>
      </trkpt>
      <trkpt lat="42.615624" lon="-2.112086">
        <ele>558.4</ele>
        <time>2019-08-18T09:28:03Z</time>
        <sat>8</sat>
      </trkpt>
      <trkpt lat="42.615544" lon="-2.112179">
        <ele>558.1</ele>
        <time>2019-08-18T09:28:11Z</time>
        <sat>9</sat>
      </trkpt>
      <trkpt lat="42.615472" lon="-2.112270">
        <ele>557.9</ele>
        <time>2019-08-18T09:28:18Z</time>
        <sat>9</sat>
      </trkpt>
      <trkpt lat="42.615401" lon="-2.112357">
        <ele>557.7</ele>
        <time>2019-08-18T09:28:25Z</time>
        <sat>8</sat>
      </trkpt>
      <trkpt lat="42.615326" lon="-2.112451">
        <ele>557.4</ele>
        <time>2019-08-18T09:28:33Z</time>
        <sat>8</sat>
      </trkpt>
      <trkpt lat="42.615253" lon="-2.112528">
        <ele>557.4</ele>
        <time>2019-08-18T09:28:40Z</time>
        <sat>9</sat>
      </trkpt>
      <trkpt lat="42.615179" lon="-2.112623">
        <ele>557.1</ele>
        <time>2019-08-18T09:28:48Z</time>
        <sat>8</sat>
      </trkpt>
      <trkpt lat="42.615102" lon="-2.112709">
        <ele>557.1</ele>
        <time>2019-08-18T09:28:56Z</time>
        <sat>8</sat>
      </trkpt>
      <trkpt lat="42.615026" lon="-2.112785">
        <ele>557.1</ele>
        <time>2019-08-18T09:29:03Z</time>
        <sat>8</sat>
      </trkpt>
      <trkpt lat="42.614950" lon="-2.112877">
        <ele>557.0</ele>
        <time>2019-08-18T09:29:11Z</time>
        <sat>8</sat>
      </trkpt>
      <trkpt lat="42.614880" lon="-2.112964">
        <ele>556.8</ele>
        <time>2019-08-18T09:29:18Z</time>
        <sat>7</sat>
      </trkpt>
      <trkpt lat="42.614815" lon="-2.113059">
        <ele>556.7</ele>
        <time>2019-08-18T09:29:26Z</time>
        <sat>7</sat>
      </trkpt>
      <trkpt lat="42.614736" lon="-2.113139">
        <ele>556.6</ele>
        <time>2019-08-18T09:29:33Z</time>
        <sat>8</sat>
      </trkpt>
      <trkpt lat="42.614666" lon="-2.113227">
        <ele>556.6</ele>
        <time>2019-08-18T09:29:40Z</time>
        <sat>7</sat>
      </trkpt>
      <trkpt lat="42.614594" lon="-2.113312">
        <ele>556.6</ele>
        <time>2019-08-18T09:29:47Z</time>
        <sat>7</sat>
      </trkpt>
      <trkpt lat="42.614516" lon="-2.113382">
        <ele>556.5</ele>
        <time>2019-08-18T09:30:01Z</time>
        <sat>8</sat>
      </trkpt>
      <trkpt lat="42.614434" lon="-2.113455">
        <ele>556.5</ele>
        <time>2019-08-18T09:30:09Z</time>
        <sat>8</sat>
      </trkpt>
      <trkpt lat="42.614363" lon="-2.113547">
        <ele>556.5</ele>
        <time>2019-08-18T09:30:17Z</time>
        <sat>8</sat>
      </trkpt>
      <trkpt lat="42.614264" lon="-2.113577">
        <ele>555.0</ele>
        <time>2019-08-18T09:30:36Z</time>
        <sat>8</sat>
      </trkpt>
      <trkpt lat="42.614186" lon="-2.113642">
        <ele>554.4</ele>
        <time>2019-08-18T09:30:43Z</time>
        <sat>8</sat>
      </trkpt>
      <trkpt lat="42.614100" lon="-2.113707">
        <ele>554.0</ele>
        <time>2019-08-18T09:30:50Z</time>
        <sat>8</sat>
      </trkpt>
      <trkpt lat="42.614002" lon="-2.113731">
        <ele>553.5</ele>
        <time>2019-08-18T09:30:57Z</time>
        <sat>8</sat>
      </trkpt>
      <trkpt lat="42.613903" lon="-2.113741">
        <ele>553.1</ele>
        <time>2019-08-18T09:31:04Z</time>
        <sat>8</sat>
      </trkpt>
      <trkpt lat="42.613803" lon="-2.113728">
        <ele>553.0</ele>
        <time>2019-08-18T09:31:11Z</time>
        <sat>8</sat>
      </trkpt>
      <trkpt lat="42.613707" lon="-2.113704">
        <ele>552.9</ele>
        <time>2019-08-18T09:31:18Z</time>
        <sat>8</sat>
      </trkpt>
      <trkpt lat="42.613610" lon="-2.113662">
        <ele>552.6</ele>
        <time>2019-08-18T09:31:25Z</time>
        <sat>7</sat>
      </trkpt>
      <trkpt lat="42.613522" lon="-2.113616">
        <ele>552.3</ele>
        <time>2019-08-18T09:31:32Z</time>
        <sat>8</sat>
      </trkpt>
      <trkpt lat="42.613431" lon="-2.113578">
        <ele>552.0</ele>
        <time>2019-08-18T09:31:41Z</time>
        <sat>8</sat>
      </trkpt>
      <trkpt lat="42.613348" lon="-2.113530">
        <ele>551.8</ele>
        <time>2019-08-18T09:31:48Z</time>
        <sat>8</sat>
      </trkpt>
      <trkpt lat="42.613253" lon="-2.113495">
        <ele>551.6</ele>
        <time>2019-08-18T09:31:55Z</time>
        <sat>9</sat>
      </trkpt>
      <trkpt lat="42.613159" lon="-2.113457">
        <ele>551.3</ele>
        <time>2019-08-18T09:32:03Z</time>
        <sat>8</sat>
      </trkpt>
      <trkpt lat="42.613069" lon="-2.113418">
        <ele>550.9</ele>
        <time>2019-08-18T09:32:11Z</time>
        <sat>7</sat>
      </trkpt>
      <trkpt lat="42.612973" lon="-2.113383">
        <ele>550.5</ele>
        <time>2019-08-18T09:32:19Z</time>
        <sat>8</sat>
      </trkpt>
      <trkpt lat="42.612879" lon="-2.113337">
        <ele>550.2</ele>
        <time>2019-08-18T09:32:26Z</time>
        <sat>8</sat>
      </trkpt>
      <trkpt lat="42.612787" lon="-2.113314">
        <ele>549.8</ele>
        <time>2019-08-18T09:32:33Z</time>
        <sat>7</sat>
      </trkpt>
      <trkpt lat="42.612692" lon="-2.113310">
        <ele>549.4</ele>
        <time>2019-08-18T09:32:40Z</time>
        <sat>7</sat>
      </trkpt>
      <trkpt lat="42.612590" lon="-2.113315">
        <ele>549.0</ele>
        <time>2019-08-18T09:32:48Z</time>
        <sat>8</sat>
      </trkpt>
      <trkpt lat="42.612495" lon="-2.113346">
        <ele>548.5</ele>
        <time>2019-08-18T09:32:55Z</time>
        <sat>8</sat>
      </trkpt>
      <trkpt lat="42.612395" lon="-2.113372">
        <ele>547.9</ele>
        <time>2019-08-18T09:33:03Z</time>
        <sat>7</sat>
      </trkpt>
      <trkpt lat="42.612297" lon="-2.113411">
        <ele>547.4</ele>
        <time>2019-08-18T09:33:11Z</time>
        <sat>9</sat>
      </trkpt>
      <trkpt lat="42.612207" lon="-2.113454">
        <ele>547.1</ele>
        <time>2019-08-18T09:33:18Z</time>
        <sat>9</sat>
      </trkpt>
      <trkpt lat="42.612118" lon="-2.113481">
        <ele>546.7</ele>
        <time>2019-08-18T09:33:25Z</time>
        <sat>9</sat>
      </trkpt>
      <trkpt lat="42.612026" lon="-2.113524">
        <ele>546.4</ele>
        <time>2019-08-18T09:33:32Z</time>
        <sat>8</sat>
      </trkpt>
      <trkpt lat="42.611936" lon="-2.113558">
        <ele>546.1</ele>
        <time>2019-08-18T09:33:39Z</time>
        <sat>7</sat>
      </trkpt>
      <trkpt lat="42.611846" lon="-2.113615">
        <ele>545.9</ele>
        <time>2019-08-18T09:33:46Z</time>
        <sat>7</sat>
      </trkpt>
      <trkpt lat="42.611756" lon="-2.113652">
        <ele>545.7</ele>
        <time>2019-08-18T09:33:53Z</time>
        <sat>7</sat>
      </trkpt>
      <trkpt lat="42.611668" lon="-2.113696">
        <ele>545.5</ele>
        <time>2019-08-18T09:34:00Z</time>
        <sat>8</sat>
      </trkpt>
      <trkpt lat="42.611571" lon="-2.113738">
        <ele>545.5</ele>
        <time>2019-08-18T09:34:08Z</time>
        <sat>8</sat>
      </trkpt>
      <trkpt lat="42.611476" lon="-2.113768">
        <ele>545.6</ele>
        <time>2019-08-18T09:34:15Z</time>
        <sat>8</sat>
      </trkpt>
      <trkpt lat="42.611383" lon="-2.113806">
        <ele>545.9</ele>
        <time>2019-08-18T09:34:22Z</time>
        <sat>8</sat>
      </trkpt>
      <trkpt lat="42.611292" lon="-2.113859">
        <ele>546.5</ele>
        <time>2019-08-18T09:34:29Z</time>
        <sat>9</sat>
      </trkpt>
      <trkpt lat="42.611202" lon="-2.113909">
        <ele>546.8</ele>
        <time>2019-08-18T09:34:36Z</time>
        <sat>9</sat>
      </trkpt>
      <trkpt lat="42.611108" lon="-2.113952">
        <ele>547.2</ele>
        <time>2019-08-18T09:34:43Z</time>
        <sat>8</sat>
      </trkpt>
      <trkpt lat="42.611019" lon="-2.113995">
        <ele>548.2</ele>
        <time>2019-08-18T09:34:50Z</time>
        <sat>9</sat>
      </trkpt>
      <trkpt lat="42.610930" lon="-2.114031">
        <ele>549.0</ele>
        <time>2019-08-18T09:34:57Z</time>
        <sat>8</sat>
      </trkpt>
      <trkpt lat="42.610836" lon="-2.114058">
        <ele>549.6</ele>
        <time>2019-08-18T09:35:04Z</time>
        <sat>9</sat>
      </trkpt>
      <trkpt lat="42.610744" lon="-2.114077">
        <ele>550.0</ele>
        <time>2019-08-18T09:35:11Z</time>
        <sat>9</sat>
      </trkpt>
      <trkpt lat="42.610649" lon="-2.114090">
        <ele>550.3</ele>
        <time>2019-08-18T09:35:23Z</time>
        <sat>8</sat>
      </trkpt>
      <trkpt lat="42.610555" lon="-2.114105">
        <ele>550.7</ele>
        <time>2019-08-18T09:35:54Z</time>
        <sat>8</sat>
      </trkpt>
      <trkpt lat="42.610454" lon="-2.114113">
        <ele>549.6</ele>
        <time>2019-08-18T09:36:09Z</time>
        <sat>9</sat>
      </trkpt>
      <trkpt lat="42.610358" lon="-2.114135">
        <ele>549.0</ele>
        <time>2019-08-18T09:36:17Z</time>
        <sat>9</sat>
      </trkpt>
      <trkpt lat="42.610264" lon="-2.114154">
        <ele>548.3</ele>
        <time>2019-08-18T09:36:24Z</time>
        <sat>9</sat>
      </trkpt>
      <trkpt lat="42.610175" lon="-2.114175">
        <ele>547.3</ele>
        <time>2019-08-18T09:36:31Z</time>
        <sat>9</sat>
      </trkpt>
      <trkpt lat="42.610084" lon="-2.114215">
        <ele>546.4</ele>
        <time>2019-08-18T09:36:38Z</time>
        <sat>9</sat>
      </trkpt>
      <trkpt lat="42.609987" lon="-2.114237">
        <ele>545.3</ele>
        <time>2019-08-18T09:36:53Z</time>
        <sat>9</sat>
      </trkpt>
      <trkpt lat="42.609892" lon="-2.114256">
        <ele>545.3</ele>
        <time>2019-08-18T09:37:00Z</time>
        <sat>9</sat>
      </trkpt>
      <trkpt lat="42.609798" lon="-2.114293">
        <ele>545.6</ele>
        <time>2019-08-18T09:37:07Z</time>
        <sat>9</sat>
      </trkpt>
      <trkpt lat="42.609702" lon="-2.114318">
        <ele>546.1</ele>
        <time>2019-08-18T09:37:14Z</time>
        <sat>9</sat>
      </trkpt>
      <trkpt lat="42.609612" lon="-2.114332">
        <ele>546.8</ele>
        <time>2019-08-18T09:37:21Z</time>
        <sat>9</sat>
      </trkpt>
      <trkpt lat="42.609515" lon="-2.114359">
        <ele>547.6</ele>
        <time>2019-08-18T09:37:28Z</time>
        <sat>8</sat>
      </trkpt>
      <trkpt lat="42.609423" lon="-2.114391">
        <ele>548.3</ele>
        <time>2019-08-18T09:37:35Z</time>
        <sat>9</sat>
      </trkpt>
      <trkpt lat="42.609332" lon="-2.114429">
        <ele>549.1</ele>
        <time>2019-08-18T09:37:42Z</time>
        <sat>9</sat>
      </trkpt>
      <trkpt lat="42.609244" lon="-2.114470">
        <ele>549.8</ele>
        <time>2019-08-18T09:37:49Z</time>
        <sat>9</sat>
      </trkpt>
      <trkpt lat="42.609158" lon="-2.114526">
        <ele>550.5</ele>
        <time>2019-08-18T09:37:56Z</time>
        <sat>9</sat>
      </trkpt>
      <trkpt lat="42.609072" lon="-2.114586">
        <ele>551.0</ele>
        <time>2019-08-18T09:38:03Z</time>
        <sat>9</sat>
      </trkpt>
      <trkpt lat="42.608989" lon="-2.114655">
        <ele>551.7</ele>
        <time>2019-08-18T09:38:10Z</time>
        <sat>9</sat>
      </trkpt>
      <trkpt lat="42.608910" lon="-2.114727">
        <ele>552.2</ele>
        <time>2019-08-18T09:38:17Z</time>
        <sat>9</sat>
      </trkpt>
      <trkpt lat="42.608832" lon="-2.114806">
        <ele>553.0</ele>
        <time>2019-08-18T09:38:24Z</time>
        <sat>9</sat>
      </trkpt>
      <trkpt lat="42.608755" lon="-2.114889">
        <ele>553.6</ele>
        <time>2019-08-18T09:38:31Z</time>
        <sat>9</sat>
      </trkpt>
      <trkpt lat="42.608690" lon="-2.114981">
        <ele>554.2</ele>
        <time>2019-08-18T09:38:38Z</time>
        <sat>9</sat>
      </trkpt>
      <trkpt lat="42.608632" lon="-2.115084">
        <ele>554.4</ele>
        <time>2019-08-18T09:38:45Z</time>
        <sat>9</sat>
      </trkpt>
      <trkpt lat="42.608575" lon="-2.115182">
        <ele>554.2</ele>
        <time>2019-08-18T09:38:52Z</time>
        <sat>9</sat>
      </trkpt>
      <trkpt lat="42.608522" lon="-2.115282">
        <ele>553.8</ele>
        <time>2019-08-18T09:38:59Z</time>
        <sat>9</sat>
      </trkpt>
      <trkpt lat="42.608462" lon="-2.115376">
        <ele>553.2</ele>
        <time>2019-08-18T09:39:06Z</time>
        <sat>9</sat>
      </trkpt>
      <trkpt lat="42.608403" lon="-2.115470">
        <ele>552.8</ele>
        <time>2019-08-18T09:39:13Z</time>
        <sat>9</sat>
      </trkpt>
      <trkpt lat="42.608342" lon="-2.115576">
        <ele>552.5</ele>
        <time>2019-08-18T09:39:20Z</time>
        <sat>9</sat>
      </trkpt>
      <trkpt lat="42.608272" lon="-2.115661">
        <ele>552.0</ele>
        <time>2019-08-18T09:39:27Z</time>
        <sat>9</sat>
      </trkpt>
      <trkpt lat="42.608199" lon="-2.115738">
        <ele>551.5</ele>
        <time>2019-08-18T09:39:34Z</time>
        <sat>9</sat>
      </trkpt>
      <trkpt lat="42.608116" lon="-2.115799">
        <ele>551.1</ele>
        <time>2019-08-18T09:39:41Z</time>
        <sat>9</sat>
      </trkpt>
      <trkpt lat="42.608021" lon="-2.115826">
        <ele>550.9</ele>
        <time>2019-08-18T09:39:48Z</time>
        <sat>9</sat>
      </trkpt>
      <trkpt lat="42.607925" lon="-2.115859">
        <ele>550.9</ele>
        <time>2019-08-18T09:39:55Z</time>
        <sat>9</sat>
      </trkpt>
      <trkpt lat="42.607835" lon="-2.115869">
        <ele>551.3</ele>
        <time>2019-08-18T09:40:02Z</time>
        <sat>9</sat>
      </trkpt>
      <trkpt lat="42.607736" lon="-2.115870">
        <ele>551.8</ele>
        <time>2019-08-18T09:40:09Z</time>
        <sat>9</sat>
      </trkpt>
      <trkpt lat="42.607638" lon="-2.115876">
        <ele>552.5</ele>
        <time>2019-08-18T09:40:16Z</time>
        <sat>9</sat>
      </trkpt>
      <trkpt lat="42.607538" lon="-2.115884">
        <ele>553.1</ele>
        <time>2019-08-18T09:40:23Z</time>
        <sat>9</sat>
      </trkpt>
      <trkpt lat="42.607442" lon="-2.115891">
        <ele>553.7</ele>
        <time>2019-08-18T09:40:30Z</time>
        <sat>9</sat>
      </trkpt>
      <trkpt lat="42.607344" lon="-2.115905">
        <ele>554.3</ele>
        <time>2019-08-18T09:40:37Z</time>
        <sat>9</sat>
      </trkpt>
      <trkpt lat="42.607248" lon="-2.115900">
        <ele>554.8</ele>
        <time>2019-08-18T09:40:44Z</time>
        <sat>9</sat>
      </trkpt>
      <trkpt lat="42.607145" lon="-2.115903">
        <ele>555.2</ele>
        <time>2019-08-18T09:40:52Z</time>
        <sat>9</sat>
      </trkpt>
      <trkpt lat="42.607044" lon="-2.115915">
        <ele>555.3</ele>
        <time>2019-08-18T09:41:00Z</time>
        <sat>9</sat>
      </trkpt>
      <trkpt lat="42.606953" lon="-2.115921">
        <ele>555.1</ele>
        <time>2019-08-18T09:41:07Z</time>
        <sat>9</sat>
      </trkpt>
      <trkpt lat="42.606851" lon="-2.115937">
        <ele>555.0</ele>
        <time>2019-08-18T09:41:15Z</time>
        <sat>9</sat>
      </trkpt>
      <trkpt lat="42.606758" lon="-2.115961">
        <ele>553.9</ele>
        <time>2019-08-18T09:41:55Z</time>
        <sat>9</sat>
      </trkpt>
      <trkpt lat="42.606665" lon="-2.115980">
        <ele>553.7</ele>
        <time>2019-08-18T09:42:02Z</time>
        <sat>9</sat>
      </trkpt>
      <trkpt lat="42.606570" lon="-2.116004">
        <ele>553.1</ele>
        <time>2019-08-18T09:42:10Z</time>
        <sat>8</sat>
      </trkpt>
      <trkpt lat="42.606481" lon="-2.116028">
        <ele>552.5</ele>
        <time>2019-08-18T09:42:17Z</time>
        <sat>9</sat>
      </trkpt>
      <trkpt lat="42.606388" lon="-2.116050">
        <ele>551.8</ele>
        <time>2019-08-18T09:42:24Z</time>
        <sat>9</sat>
      </trkpt>
      <trkpt lat="42.606287" lon="-2.116076">
        <ele>550.9</ele>
        <time>2019-08-18T09:42:32Z</time>
        <sat>9</sat>
      </trkpt>
      <trkpt lat="42.606197" lon="-2.116101">
        <ele>550.0</ele>
        <time>2019-08-18T09:42:39Z</time>
        <sat>9</sat>
      </trkpt>
      <trkpt lat="42.606107" lon="-2.116122">
        <ele>549.4</ele>
        <time>2019-08-18T09:42:46Z</time>
        <sat>9</sat>
      </trkpt>
      <trkpt lat="42.606014" lon="-2.116150">
        <ele>548.7</ele>
        <time>2019-08-18T09:42:53Z</time>
        <sat>9</sat>
      </trkpt>
      <trkpt lat="42.605916" lon="-2.116156">
        <ele>547.0</ele>
        <time>2019-08-18T09:43:31Z</time>
        <sat>9</sat>
      </trkpt>
      <trkpt lat="42.605819" lon="-2.116158">
        <ele>546.7</ele>
        <time>2019-08-18T09:43:39Z</time>
        <sat>9</sat>
      </trkpt>
      <trkpt lat="42.605728" lon="-2.116191">
        <ele>545.9</ele>
        <time>2019-08-18T09:43:46Z</time>
        <sat>9</sat>
      </trkpt>
      <trkpt lat="42.605631" lon="-2.116211">
        <ele>545.7</ele>
        <time>2019-08-18T09:43:54Z</time>
        <sat>9</sat>
      </trkpt>
      <trkpt lat="42.605536" lon="-2.116204">
        <ele>542.7</ele>
        <time>2019-08-18T09:44:02Z</time>
        <sat>9</sat>
      </trkpt>
      <trkpt lat="42.605434" lon="-2.116214">
        <ele>540.9</ele>
        <time>2019-08-18T09:44:10Z</time>
        <sat>9</sat>
      </trkpt>
      <trkpt lat="42.605342" lon="-2.116212">
        <ele>540.9</ele>
        <time>2019-08-18T09:44:17Z</time>
        <sat>9</sat>
      </trkpt>
      <trkpt lat="42.605252" lon="-2.116236">
        <ele>540.2</ele>
        <time>2019-08-18T09:44:25Z</time>
        <sat>8</sat>
      </trkpt>
      <trkpt lat="42.605156" lon="-2.116245">
        <ele>538.9</ele>
        <time>2019-08-18T09:44:33Z</time>
        <sat>9</sat>
      </trkpt>
      <trkpt lat="42.605060" lon="-2.116261">
        <ele>535.9</ele>
        <time>2019-08-18T09:44:41Z</time>
        <sat>9</sat>
      </trkpt>
      <trkpt lat="42.604965" lon="-2.116295">
        <ele>537.8</ele>
        <time>2019-08-18T09:44:49Z</time>
        <sat>7</sat>
      </trkpt>
      <trkpt lat="42.604882" lon="-2.116349">
        <ele>538.9</ele>
        <time>2019-08-18T09:45:01Z</time>
        <sat>8</sat>
      </trkpt>
      <trkpt lat="42.604800" lon="-2.116411">
        <ele>539.1</ele>
        <time>2019-08-18T09:45:07Z</time>
        <sat>9</sat>
      </trkpt>
      <trkpt lat="42.604732" lon="-2.116509">
        <ele>539.0</ele>
        <time>2019-08-18T09:45:14Z</time>
        <sat>9</sat>
      </trkpt>
      <trkpt lat="42.604689" lon="-2.116626">
        <ele>538.7</ele>
        <time>2019-08-18T09:45:21Z</time>
        <sat>9</sat>
      </trkpt>
      <trkpt lat="42.604667" lon="-2.116745">
        <ele>538.1</ele>
        <time>2019-08-18T09:45:28Z</time>
        <sat>9</sat>
      </trkpt>
      <trkpt lat="42.604646" lon="-2.116873">
        <ele>537.6</ele>
        <time>2019-08-18T09:45:35Z</time>
        <sat>9</sat>
      </trkpt>
      <trkpt lat="42.604617" lon="-2.116992">
        <ele>537.0</ele>
        <time>2019-08-18T09:45:42Z</time>
        <sat>9</sat>
      </trkpt>
      <trkpt lat="42.604608" lon="-2.117118">
        <ele>536.4</ele>
        <time>2019-08-18T09:45:49Z</time>
        <sat>9</sat>
      </trkpt>
      <trkpt lat="42.604594" lon="-2.117247">
        <ele>536.1</ele>
        <time>2019-08-18T09:45:56Z</time>
        <sat>9</sat>
      </trkpt>
      <trkpt lat="42.604578" lon="-2.117371">
        <ele>535.7</ele>
        <time>2019-08-18T09:46:03Z</time>
        <sat>9</sat>
      </trkpt>
      <trkpt lat="42.604561" lon="-2.117497">
        <ele>535.3</ele>
        <time>2019-08-18T09:46:10Z</time>
        <sat>9</sat>
      </trkpt>
      <trkpt lat="42.604544" lon="-2.117620">
        <ele>534.9</ele>
        <time>2019-08-18T09:46:17Z</time>
        <sat>9</sat>
      </trkpt>
      <trkpt lat="42.604529" lon="-2.117748">
        <ele>534.5</ele>
        <time>2019-08-18T09:46:24Z</time>
        <sat>9</sat>
      </trkpt>
      <trkpt lat="42.604503" lon="-2.117871">
        <ele>534.3</ele>
        <time>2019-08-18T09:46:31Z</time>
        <sat>9</sat>
      </trkpt>
      <trkpt lat="42.604485" lon="-2.117994">
        <ele>534.0</ele>
        <time>2019-08-18T09:47:22Z</time>
        <sat>9</sat>
      </trkpt>
      <trkpt lat="42.604454" lon="-2.118115">
        <ele>534.6</ele>
        <time>2019-08-18T09:47:32Z</time>
        <sat>8</sat>
      </trkpt>
      <trkpt lat="42.604428" lon="-2.118248">
        <ele>534.4</ele>
        <time>2019-08-18T09:47:39Z</time>
        <sat>8</sat>
      </trkpt>
      <trkpt lat="42.604395" lon="-2.118367">
        <ele>534.6</ele>
        <time>2019-08-18T09:47:46Z</time>
        <sat>8</sat>
      </trkpt>
      <trkpt lat="42.604348" lon="-2.118479">
        <ele>535.3</ele>
        <time>2019-08-18T09:47:53Z</time>
        <sat>8</sat>
      </trkpt>
      <trkpt lat="42.604296" lon="-2.118586">
        <ele>536.0</ele>
        <time>2019-08-18T09:48:00Z</time>
        <sat>8</sat>
      </trkpt>
      <trkpt lat="42.604239" lon="-2.118681">
        <ele>536.7</ele>
        <time>2019-08-18T09:48:07Z</time>
        <sat>8</sat>
      </trkpt>
      <trkpt lat="42.604179" lon="-2.118775">
        <ele>537.4</ele>
        <time>2019-08-18T09:48:14Z</time>
        <sat>8</sat>
      </trkpt>
      <trkpt lat="42.604108" lon="-2.118864">
        <ele>538.3</ele>
        <time>2019-08-18T09:48:21Z</time>
        <sat>9</sat>
      </trkpt>
      <trkpt lat="42.604022" lon="-2.118942">
        <ele>539.3</ele>
        <time>2019-08-18T09:48:29Z</time>
        <sat>9</sat>
      </trkpt>
      <trkpt lat="42.603948" lon="-2.119024">
        <ele>540.1</ele>
        <time>2019-08-18T09:48:36Z</time>
        <sat>9</sat>
      </trkpt>
      <trkpt lat="42.603877" lon="-2.119120">
        <ele>540.9</ele>
        <time>2019-08-18T09:48:44Z</time>
        <sat>8</sat>
      </trkpt>
      <trkpt lat="42.603812" lon="-2.119213">
        <ele>541.8</ele>
        <time>2019-08-18T09:48:51Z</time>
        <sat>9</sat>
      </trkpt>
      <trkpt lat="42.603750" lon="-2.119309">
        <ele>542.7</ele>
        <time>2019-08-18T09:48:58Z</time>
        <sat>8</sat>
      </trkpt>
      <trkpt lat="42.603705" lon="-2.119425">
        <ele>543.3</ele>
        <time>2019-08-18T09:49:05Z</time>
        <sat>8</sat>
      </trkpt>
      <trkpt lat="42.603670" lon="-2.119544">
        <ele>543.8</ele>
        <time>2019-08-18T09:49:12Z</time>
        <sat>9</sat>
      </trkpt>
      <trkpt lat="42.603647" lon="-2.119666">
        <ele>544.3</ele>
        <time>2019-08-18T09:49:19Z</time>
        <sat>9</sat>
      </trkpt>
      <trkpt lat="42.603632" lon="-2.119793">
        <ele>544.8</ele>
        <time>2019-08-18T09:49:26Z</time>
        <sat>9</sat>
      </trkpt>
      <trkpt lat="42.603626" lon="-2.119917">
        <ele>545.1</ele>
        <time>2019-08-18T09:49:33Z</time>
        <sat>9</sat>
      </trkpt>
      <trkpt lat="42.603621" lon="-2.120042">
        <ele>545.4</ele>
        <time>2019-08-18T09:49:40Z</time>
        <sat>8</sat>
      </trkpt>
      <trkpt lat="42.603621" lon="-2.120179">
        <ele>545.6</ele>
        <time>2019-08-18T09:49:50Z</time>
        <sat>9</sat>
      </trkpt>
      <trkpt lat="42.603618" lon="-2.120312">
        <ele>545.8</ele>
        <time>2019-08-18T09:49:57Z</time>
        <sat>8</sat>
      </trkpt>
      <trkpt lat="42.603610" lon="-2.120441">
        <ele>546.1</ele>
        <time>2019-08-18T09:50:04Z</time>
        <sat>8</sat>
      </trkpt>
      <trkpt lat="42.603611" lon="-2.120569">
        <ele>546.3</ele>
        <time>2019-08-18T09:50:11Z</time>
        <sat>9</sat>
      </trkpt>
      <trkpt lat="42.603603" lon="-2.120707">
        <ele>546.5</ele>
        <time>2019-08-18T09:50:18Z</time>
        <sat>8</sat>
      </trkpt>
      <trkpt lat="42.603590" lon="-2.120838">
        <ele>546.7</ele>
        <time>2019-08-18T09:50:25Z</time>
        <sat>9</sat>
      </trkpt>
      <trkpt lat="42.603586" lon="-2.120968">
        <ele>546.9</ele>
        <time>2019-08-18T09:50:32Z</time>
        <sat>9</sat>
      </trkpt>
      <trkpt lat="42.603579" lon="-2.121101">
        <ele>547.2</ele>
        <time>2019-08-18T09:50:39Z</time>
        <sat>9</sat>
      </trkpt>
      <trkpt lat="42.603566" lon="-2.121232">
        <ele>547.4</ele>
        <time>2019-08-18T09:50:46Z</time>
        <sat>8</sat>
      </trkpt>
      <trkpt lat="42.603560" lon="-2.121359">
        <ele>547.4</ele>
        <time>2019-08-18T09:50:53Z</time>
        <sat>9</sat>
      </trkpt>
      <trkpt lat="42.603551" lon="-2.121490">
        <ele>547.8</ele>
        <time>2019-08-18T09:51:00Z</time>
        <sat>9</sat>
      </trkpt>
      <trkpt lat="42.603546" lon="-2.121619">
        <ele>547.8</ele>
        <time>2019-08-18T09:51:07Z</time>
        <sat>8</sat>
      </trkpt>
      <trkpt lat="42.603540" lon="-2.121747">
        <ele>547.7</ele>
        <time>2019-08-18T09:51:14Z</time>
        <sat>8</sat>
      </trkpt>
      <trkpt lat="42.603533" lon="-2.121886">
        <ele>547.3</ele>
        <time>2019-08-18T09:51:22Z</time>
        <sat>8</sat>
      </trkpt>
      <trkpt lat="42.603535" lon="-2.122013">
        <ele>547.0</ele>
        <time>2019-08-18T09:51:29Z</time>
        <sat>8</sat>
      </trkpt>
      <trkpt lat="42.603530" lon="-2.122141">
        <ele>546.8</ele>
        <time>2019-08-18T09:51:36Z</time>
        <sat>8</sat>
      </trkpt>
      <trkpt lat="42.603527" lon="-2.122263">
        <ele>546.5</ele>
        <time>2019-08-18T09:51:43Z</time>
        <sat>8</sat>
      </trkpt>
      <trkpt lat="42.603526" lon="-2.122392">
        <ele>546.3</ele>
        <time>2019-08-18T09:51:50Z</time>
        <sat>8</sat>
      </trkpt>
      <trkpt lat="42.603516" lon="-2.122522">
        <ele>546.2</ele>
        <time>2019-08-18T09:51:57Z</time>
        <sat>8</sat>
      </trkpt>
      <trkpt lat="42.603513" lon="-2.122649">
        <ele>546.2</ele>
        <time>2019-08-18T09:52:04Z</time>
        <sat>9</sat>
      </trkpt>
      <trkpt lat="42.603509" lon="-2.122777">
        <ele>546.2</ele>
        <time>2019-08-18T09:52:11Z</time>
        <sat>9</sat>
      </trkpt>
      <trkpt lat="42.603500" lon="-2.122903">
        <ele>546.4</ele>
        <time>2019-08-18T09:52:18Z</time>
        <sat>9</sat>
      </trkpt>
      <trkpt lat="42.603492" lon="-2.123031">
        <ele>546.7</ele>
        <time>2019-08-18T09:52:25Z</time>
        <sat>8</sat>
      </trkpt>
      <trkpt lat="42.603489" lon="-2.123156">
        <ele>546.9</ele>
        <time>2019-08-18T09:52:32Z</time>
        <sat>8</sat>
      </trkpt>
      <trkpt lat="42.603477" lon="-2.123287">
        <ele>547.2</ele>
        <time>2019-08-18T09:52:39Z</time>
        <sat>9</sat>
      </trkpt>
      <trkpt lat="42.603457" lon="-2.123412">
        <ele>547.3</ele>
        <time>2019-08-18T09:52:46Z</time>
        <sat>8</sat>
      </trkpt>
      <trkpt lat="42.603438" lon="-2.123537">
        <ele>547.2</ele>
        <time>2019-08-18T09:52:53Z</time>
        <sat>8</sat>
      </trkpt>
      <trkpt lat="42.603401" lon="-2.123659">
        <ele>547.4</ele>
        <time>2019-08-18T09:53:00Z</time>
        <sat>9</sat>
      </trkpt>
      <trkpt lat="42.603360" lon="-2.123773">
        <ele>547.4</ele>
        <time>2019-08-18T09:53:07Z</time>
        <sat>9</sat>
      </trkpt>
      <trkpt lat="42.603321" lon="-2.123887">
        <ele>547.1</ele>
        <time>2019-08-18T09:53:14Z</time>
        <sat>9</sat>
      </trkpt>
      <trkpt lat="42.603272" lon="-2.124003">
        <ele>546.8</ele>
        <time>2019-08-18T09:53:21Z</time>
        <sat>8</sat>
      </trkpt>
      <trkpt lat="42.603232" lon="-2.124119">
        <ele>546.5</ele>
        <time>2019-08-18T09:53:28Z</time>
        <sat>9</sat>
      </trkpt>
      <trkpt lat="42.603182" lon="-2.124231">
        <ele>546.5</ele>
        <time>2019-08-18T09:53:35Z</time>
        <sat>8</sat>
      </trkpt>
      <trkpt lat="42.603140" lon="-2.124343">
        <ele>546.4</ele>
        <time>2019-08-18T09:53:42Z</time>
        <sat>8</sat>
      </trkpt>
      <trkpt lat="42.603082" lon="-2.124447">
        <ele>546.5</ele>
        <time>2019-08-18T09:53:49Z</time>
        <sat>8</sat>
      </trkpt>
      <trkpt lat="42.603008" lon="-2.124526">
        <ele>546.5</ele>
        <time>2019-08-18T09:53:56Z</time>
        <sat>8</sat>
      </trkpt>
      <trkpt lat="42.602922" lon="-2.124582">
        <ele>546.6</ele>
        <time>2019-08-18T09:54:03Z</time>
        <sat>9</sat>
      </trkpt>
      <trkpt lat="42.602824" lon="-2.124607">
        <ele>546.6</ele>
        <time>2019-08-18T09:54:10Z</time>
        <sat>9</sat>
      </trkpt>
      <trkpt lat="42.602730" lon="-2.124622">
        <ele>546.8</ele>
        <time>2019-08-18T09:54:17Z</time>
        <sat>9</sat>
      </trkpt>
      <trkpt lat="42.602640" lon="-2.124650">
        <ele>546.8</ele>
        <time>2019-08-18T09:54:24Z</time>
        <sat>9</sat>
      </trkpt>
      <trkpt lat="42.602552" lon="-2.124694">
        <ele>546.9</ele>
        <time>2019-08-18T09:54:31Z</time>
        <sat>9</sat>
      </trkpt>
      <trkpt lat="42.602463" lon="-2.124751">
        <ele>546.7</ele>
        <time>2019-08-18T09:54:39Z</time>
        <sat>9</sat>
      </trkpt>
      <trkpt lat="42.602372" lon="-2.124820">
        <ele>546.8</ele>
        <time>2019-08-18T09:54:47Z</time>
        <sat>9</sat>
      </trkpt>
      <trkpt lat="42.602287" lon="-2.124890">
        <ele>546.4</ele>
        <time>2019-08-18T09:54:54Z</time>
        <sat>9</sat>
      </trkpt>
      <trkpt lat="42.602210" lon="-2.124962">
        <ele>546.1</ele>
        <time>2019-08-18T09:55:01Z</time>
        <sat>9</sat>
      </trkpt>
      <trkpt lat="42.602132" lon="-2.125040">
        <ele>545.6</ele>
        <time>2019-08-18T09:55:08Z</time>
        <sat>9</sat>
      </trkpt>
      <trkpt lat="42.602053" lon="-2.125108">
        <ele>545.2</ele>
        <time>2019-08-18T09:55:15Z</time>
        <sat>9</sat>
      </trkpt>
      <trkpt lat="42.601971" lon="-2.125186">
        <ele>544.8</ele>
        <time>2019-08-18T09:55:22Z</time>
        <sat>8</sat>
      </trkpt>
      <trkpt lat="42.601885" lon="-2.125257">
        <ele>544.4</ele>
        <time>2019-08-18T09:55:30Z</time>
        <sat>8</sat>
      </trkpt>
      <trkpt lat="42.601809" lon="-2.125334">
        <ele>544.3</ele>
        <time>2019-08-18T09:55:37Z</time>
        <sat>9</sat>
      </trkpt>
      <trkpt lat="42.601726" lon="-2.125399">
        <ele>543.9</ele>
        <time>2019-08-18T09:55:44Z</time>
        <sat>9</sat>
      </trkpt>
      <trkpt lat="42.601648" lon="-2.125468">
        <ele>543.7</ele>
        <time>2019-08-18T09:55:51Z</time>
        <sat>8</sat>
      </trkpt>
      <trkpt lat="42.601563" lon="-2.125545">
        <ele>543.3</ele>
        <time>2019-08-18T09:55:58Z</time>
        <sat>9</sat>
      </trkpt>
      <trkpt lat="42.601497" lon="-2.125633">
        <ele>542.8</ele>
        <time>2019-08-18T09:56:04Z</time>
        <sat>8</sat>
      </trkpt>
      <trkpt lat="42.601425" lon="-2.125722">
        <ele>542.1</ele>
        <time>2019-08-18T09:56:11Z</time>
        <sat>8</sat>
      </trkpt>
      <trkpt lat="42.601344" lon="-2.125794">
        <ele>541.4</ele>
        <time>2019-08-18T09:56:18Z</time>
        <sat>9</sat>
      </trkpt>
      <trkpt lat="42.601266" lon="-2.125870">
        <ele>540.7</ele>
        <time>2019-08-18T09:56:24Z</time>
        <sat>9</sat>
      </trkpt>
      <trkpt lat="42.601195" lon="-2.125951">
        <ele>540.1</ele>
        <time>2019-08-18T09:56:30Z</time>
        <sat>8</sat>
      </trkpt>
      <trkpt lat="42.601111" lon="-2.126024">
        <ele>539.5</ele>
        <time>2019-08-18T09:56:37Z</time>
        <sat>8</sat>
      </trkpt>
      <trkpt lat="42.601023" lon="-2.126094">
        <ele>535.8</ele>
        <time>2019-08-18T09:56:44Z</time>
        <sat>9</sat>
      </trkpt>
      <trkpt lat="42.600949" lon="-2.126185">
        <ele>537.6</ele>
        <time>2019-08-18T09:56:52Z</time>
        <sat>9</sat>
      </trkpt>
      <trkpt lat="42.600865" lon="-2.126247">
        <ele>536.6</ele>
        <time>2019-08-18T09:56:59Z</time>
        <sat>9</sat>
      </trkpt>
      <trkpt lat="42.600782" lon="-2.126317">
        <ele>534.3</ele>
        <time>2019-08-18T09:57:06Z</time>
        <sat>9</sat>
      </trkpt>
      <trkpt lat="42.600697" lon="-2.126400">
        <ele>532.0</ele>
        <time>2019-08-18T09:57:14Z</time>
        <sat>7</sat>
      </trkpt>
      <trkpt lat="42.600624" lon="-2.126481">
        <ele>531.9</ele>
        <time>2019-08-18T09:57:20Z</time>
        <sat>8</sat>
      </trkpt>
      <trkpt lat="42.600561" lon="-2.126584">
        <ele>532.2</ele>
        <time>2019-08-18T09:57:27Z</time>
        <sat>8</sat>
      </trkpt>
      <trkpt lat="42.600509" lon="-2.126697">
        <ele>531.6</ele>
        <time>2019-08-18T09:57:34Z</time>
        <sat>8</sat>
      </trkpt>
      <trkpt lat="42.600468" lon="-2.126819">
        <ele>533.3</ele>
        <time>2019-08-18T09:57:41Z</time>
        <sat>9</sat>
      </trkpt>
      <trkpt lat="42.600446" lon="-2.126943">
        <ele>533.3</ele>
        <time>2019-08-18T09:57:48Z</time>
        <sat>9</sat>
      </trkpt>
      <trkpt lat="42.600434" lon="-2.127082">
        <ele>533.0</ele>
        <time>2019-08-18T09:57:56Z</time>
        <sat>9</sat>
      </trkpt>
      <trkpt lat="42.600425" lon="-2.127216">
        <ele>532.8</ele>
        <time>2019-08-18T09:58:03Z</time>
        <sat>8</sat>
      </trkpt>
      <trkpt lat="42.600405" lon="-2.127349">
        <ele>532.5</ele>
        <time>2019-08-18T09:58:10Z</time>
        <sat>9</sat>
      </trkpt>
      <trkpt lat="42.600400" lon="-2.127487">
        <ele>532.3</ele>
        <time>2019-08-18T09:58:17Z</time>
        <sat>8</sat>
      </trkpt>
      <trkpt lat="42.600393" lon="-2.127617">
        <ele>531.9</ele>
        <time>2019-08-18T09:58:24Z</time>
        <sat>8</sat>
      </trkpt>
      <trkpt lat="42.600381" lon="-2.127756">
        <ele>531.8</ele>
        <time>2019-08-18T09:58:31Z</time>
        <sat>8</sat>
      </trkpt>
      <trkpt lat="42.600378" lon="-2.127888">
        <ele>531.7</ele>
        <time>2019-08-18T09:58:38Z</time>
        <sat>8</sat>
      </trkpt>
      <trkpt lat="42.600365" lon="-2.128025">
        <ele>531.6</ele>
        <time>2019-08-18T09:58:45Z</time>
        <sat>8</sat>
      </trkpt>
      <trkpt lat="42.600365" lon="-2.128159">
        <ele>531.4</ele>
        <time>2019-08-18T09:58:52Z</time>
        <sat>8</sat>
      </trkpt>
      <trkpt lat="42.600349" lon="-2.128294">
        <ele>531.6</ele>
        <time>2019-08-18T09:58:59Z</time>
        <sat>8</sat>
      </trkpt>
      <trkpt lat="42.600336" lon="-2.128415">
        <ele>531.4</ele>
        <time>2019-08-18T09:59:05Z</time>
        <sat>9</sat>
      </trkpt>
      <trkpt lat="42.600325" lon="-2.128546">
        <ele>531.4</ele>
        <time>2019-08-18T09:59:12Z</time>
        <sat>9</sat>
      </trkpt>
      <trkpt lat="42.600311" lon="-2.128683">
        <ele>531.3</ele>
        <time>2019-08-18T09:59:19Z</time>
        <sat>9</sat>
      </trkpt>
      <trkpt lat="42.600311" lon="-2.128819">
        <ele>531.3</ele>
        <time>2019-08-18T09:59:26Z</time>
        <sat>9</sat>
      </trkpt>
      <trkpt lat="42.600300" lon="-2.128953">
        <ele>531.2</ele>
        <time>2019-08-18T09:59:33Z</time>
        <sat>9</sat>
      </trkpt>
      <trkpt lat="42.600285" lon="-2.129091">
        <ele>531.1</ele>
        <time>2019-08-18T09:59:40Z</time>
        <sat>9</sat>
      </trkpt>
      <trkpt lat="42.600276" lon="-2.129219">
        <ele>531.0</ele>
        <time>2019-08-18T09:59:47Z</time>
        <sat>9</sat>
      </trkpt>
      <trkpt lat="42.600265" lon="-2.129352">
        <ele>530.6</ele>
        <time>2019-08-18T09:59:54Z</time>
        <sat>8</sat>
      </trkpt>
      <trkpt lat="42.600264" lon="-2.129481">
        <ele>531.1</ele>
        <time>2019-08-18T10:00:01Z</time>
        <sat>8</sat>
      </trkpt>
      <trkpt lat="42.600249" lon="-2.129616">
        <ele>530.9</ele>
        <time>2019-08-18T10:00:08Z</time>
        <sat>8</sat>
      </trkpt>
      <trkpt lat="42.600243" lon="-2.129750">
        <ele>531.1</ele>
        <time>2019-08-18T10:00:15Z</time>
        <sat>8</sat>
      </trkpt>
      <trkpt lat="42.600237" lon="-2.129883">
        <ele>531.0</ele>
        <time>2019-08-18T10:00:22Z</time>
        <sat>8</sat>
      </trkpt>
      <trkpt lat="42.600227" lon="-2.130021">
        <ele>530.7</ele>
        <time>2019-08-18T10:00:29Z</time>
        <sat>8</sat>
      </trkpt>
      <trkpt lat="42.600224" lon="-2.130152">
        <ele>530.6</ele>
        <time>2019-08-18T10:00:36Z</time>
        <sat>8</sat>
      </trkpt>
      <trkpt lat="42.600217" lon="-2.130282">
        <ele>530.5</ele>
        <time>2019-08-18T10:00:43Z</time>
        <sat>9</sat>
      </trkpt>
      <trkpt lat="42.600216" lon="-2.130413">
        <ele>530.3</ele>
        <time>2019-08-18T10:00:50Z</time>
        <sat>8</sat>
      </trkpt>
      <trkpt lat="42.600208" lon="-2.130545">
        <ele>530.2</ele>
        <time>2019-08-18T10:00:57Z</time>
        <sat>9</sat>
      </trkpt>
      <trkpt lat="42.600203" lon="-2.130675">
        <ele>530.0</ele>
        <time>2019-08-18T10:01:04Z</time>
        <sat>9</sat>
      </trkpt>
      <trkpt lat="42.600192" lon="-2.130805">
        <ele>529.8</ele>
        <time>2019-08-18T10:01:11Z</time>
        <sat>9</sat>
      </trkpt>
      <trkpt lat="42.600188" lon="-2.130935">
        <ele>529.7</ele>
        <time>2019-08-18T10:01:18Z</time>
        <sat>8</sat>
      </trkpt>
      <trkpt lat="42.600175" lon="-2.131066">
        <ele>529.4</ele>
        <time>2019-08-18T10:01:25Z</time>
        <sat>8</sat>
      </trkpt>
      <trkpt lat="42.600171" lon="-2.131193">
        <ele>529.2</ele>
        <time>2019-08-18T10:01:32Z</time>
        <sat>8</sat>
      </trkpt>
      <trkpt lat="42.600167" lon="-2.131329">
        <ele>528.9</ele>
        <time>2019-08-18T10:01:39Z</time>
        <sat>8</sat>
      </trkpt>
      <trkpt lat="42.600149" lon="-2.131463">
        <ele>528.9</ele>
        <time>2019-08-18T10:01:46Z</time>
        <sat>9</sat>
      </trkpt>
      <trkpt lat="42.600136" lon="-2.131601">
        <ele>528.8</ele>
        <time>2019-08-18T10:01:53Z</time>
        <sat>9</sat>
      </trkpt>
      <trkpt lat="42.600134" lon="-2.131734">
        <ele>528.9</ele>
        <time>2019-08-18T10:02:00Z</time>
        <sat>9</sat>
      </trkpt>
      <trkpt lat="42.600123" lon="-2.131858">
        <ele>529.1</ele>
        <time>2019-08-18T10:02:06Z</time>
        <sat>8</sat>
      </trkpt>
      <trkpt lat="42.600123" lon="-2.131998">
        <ele>529.4</ele>
        <time>2019-08-18T10:02:13Z</time>
        <sat>8</sat>
      </trkpt>
      <trkpt lat="42.600111" lon="-2.132136">
        <ele>529.9</ele>
        <time>2019-08-18T10:02:20Z</time>
        <sat>8</sat>
      </trkpt>
      <trkpt lat="42.600102" lon="-2.132268">
        <ele>530.4</ele>
        <time>2019-08-18T10:02:27Z</time>
        <sat>9</sat>
      </trkpt>
      <trkpt lat="42.600094" lon="-2.132398">
        <ele>530.9</ele>
        <time>2019-08-18T10:02:34Z</time>
        <sat>9</sat>
      </trkpt>
      <trkpt lat="42.600081" lon="-2.132531">
        <ele>531.5</ele>
        <time>2019-08-18T10:02:41Z</time>
        <sat>8</sat>
      </trkpt>
      <trkpt lat="42.600064" lon="-2.132670">
        <ele>532.0</ele>
        <time>2019-08-18T10:02:48Z</time>
        <sat>9</sat>
      </trkpt>
      <trkpt lat="42.600052" lon="-2.132809">
        <ele>532.7</ele>
        <time>2019-08-18T10:02:55Z</time>
        <sat>8</sat>
      </trkpt>
      <trkpt lat="42.600046" lon="-2.132942">
        <ele>533.3</ele>
        <time>2019-08-18T10:03:02Z</time>
        <sat>8</sat>
      </trkpt>
      <trkpt lat="42.600051" lon="-2.133080">
        <ele>534.1</ele>
        <time>2019-08-18T10:03:09Z</time>
        <sat>9</sat>
      </trkpt>
      <trkpt lat="42.600042" lon="-2.133211">
        <ele>534.7</ele>
        <time>2019-08-18T10:03:16Z</time>
        <sat>8</sat>
      </trkpt>
      <trkpt lat="42.600038" lon="-2.133344">
        <ele>534.9</ele>
        <time>2019-08-18T10:03:23Z</time>
        <sat>8</sat>
      </trkpt>
      <trkpt lat="42.600020" lon="-2.133474">
        <ele>535.5</ele>
        <time>2019-08-18T10:03:30Z</time>
        <sat>9</sat>
      </trkpt>
      <trkpt lat="42.600018" lon="-2.133602">
        <ele>535.5</ele>
        <time>2019-08-18T10:03:37Z</time>
        <sat>8</sat>
      </trkpt>
      <trkpt lat="42.600011" lon="-2.133737">
        <ele>534.9</ele>
        <time>2019-08-18T10:03:58Z</time>
        <sat>8</sat>
      </trkpt>
      <trkpt lat="42.599984" lon="-2.133865">
        <ele>534.7</ele>
        <time>2019-08-18T10:04:05Z</time>
        <sat>9</sat>
      </trkpt>
      <trkpt lat="42.599968" lon="-2.133988">
        <ele>534.3</ele>
        <time>2019-08-18T10:04:11Z</time>
        <sat>8</sat>
      </trkpt>
      <trkpt lat="42.599957" lon="-2.134125">
        <ele>533.5</ele>
        <time>2019-08-18T10:04:18Z</time>
        <sat>8</sat>
      </trkpt>
      <trkpt lat="42.599939" lon="-2.134253">
        <ele>532.8</ele>
        <time>2019-08-18T10:04:25Z</time>
        <sat>8</sat>
      </trkpt>
      <trkpt lat="42.599924" lon="-2.134387">
        <ele>531.9</ele>
        <time>2019-08-18T10:04:32Z</time>
        <sat>8</sat>
      </trkpt>
      <trkpt lat="42.599912" lon="-2.134517">
        <ele>531.2</ele>
        <time>2019-08-18T10:04:39Z</time>
        <sat>9</sat>
      </trkpt>
      <trkpt lat="42.599896" lon="-2.134647">
        <ele>530.1</ele>
        <time>2019-08-18T10:04:46Z</time>
        <sat>9</sat>
      </trkpt>
      <trkpt lat="42.599886" lon="-2.134778">
        <ele>529.3</ele>
        <time>2019-08-18T10:04:53Z</time>
        <sat>8</sat>
      </trkpt>
      <trkpt lat="42.599871" lon="-2.134907">
        <ele>528.4</ele>
        <time>2019-08-18T10:05:00Z</time>
        <sat>8</sat>
      </trkpt>
      <trkpt lat="42.599865" lon="-2.135040">
        <ele>527.7</ele>
        <time>2019-08-18T10:05:07Z</time>
        <sat>9</sat>
      </trkpt>
      <trkpt lat="42.599842" lon="-2.135165">
        <ele>527.0</ele>
        <time>2019-08-18T10:05:14Z</time>
        <sat>9</sat>
      </trkpt>
      <trkpt lat="42.599827" lon="-2.135303">
        <ele>526.3</ele>
        <time>2019-08-18T10:05:21Z</time>
        <sat>8</sat>
      </trkpt>
      <trkpt lat="42.599812" lon="-2.135431">
        <ele>525.4</ele>
        <time>2019-08-18T10:05:28Z</time>
        <sat>8</sat>
      </trkpt>
      <trkpt lat="42.599793" lon="-2.135564">
        <ele>524.8</ele>
        <time>2019-08-18T10:05:35Z</time>
        <sat>9</sat>
      </trkpt>
      <trkpt lat="42.599776" lon="-2.135688">
        <ele>524.2</ele>
        <time>2019-08-18T10:05:42Z</time>
        <sat>8</sat>
      </trkpt>
      <trkpt lat="42.599756" lon="-2.135815">
        <ele>523.6</ele>
        <time>2019-08-18T10:05:49Z</time>
        <sat>8</sat>
      </trkpt>
      <trkpt lat="42.599741" lon="-2.135938">
        <ele>523.1</ele>
        <time>2019-08-18T10:05:56Z</time>
        <sat>8</sat>
      </trkpt>
      <trkpt lat="42.599728" lon="-2.136066">
        <ele>522.5</ele>
        <time>2019-08-18T10:06:03Z</time>
        <sat>8</sat>
      </trkpt>
      <trkpt lat="42.599708" lon="-2.136191">
        <ele>521.7</ele>
        <time>2019-08-18T10:06:10Z</time>
        <sat>9</sat>
      </trkpt>
      <trkpt lat="42.599689" lon="-2.136323">
        <ele>521.1</ele>
        <time>2019-08-18T10:06:17Z</time>
        <sat>9</sat>
      </trkpt>
      <trkpt lat="42.599677" lon="-2.136455">
        <ele>520.5</ele>
        <time>2019-08-18T10:06:24Z</time>
        <sat>9</sat>
      </trkpt>
      <trkpt lat="42.599660" lon="-2.136586">
        <ele>520.0</ele>
        <time>2019-08-18T10:06:31Z</time>
        <sat>9</sat>
      </trkpt>
      <trkpt lat="42.599651" lon="-2.136722">
        <ele>519.6</ele>
        <time>2019-08-18T10:06:38Z</time>
        <sat>9</sat>
      </trkpt>
      <trkpt lat="42.599632" lon="-2.136856">
        <ele>519.4</ele>
        <time>2019-08-18T10:06:45Z</time>
        <sat>9</sat>
      </trkpt>
      <trkpt lat="42.599629" lon="-2.136993">
        <ele>519.3</ele>
        <time>2019-08-18T10:06:52Z</time>
        <sat>9</sat>
      </trkpt>
      <trkpt lat="42.599609" lon="-2.137126">
        <ele>519.3</ele>
        <time>2019-08-18T10:06:59Z</time>
        <sat>8</sat>
      </trkpt>
      <trkpt lat="42.599597" lon="-2.137264">
        <ele>519.3</ele>
        <time>2019-08-18T10:07:06Z</time>
        <sat>8</sat>
      </trkpt>
      <trkpt lat="42.599578" lon="-2.137395">
        <ele>519.3</ele>
        <time>2019-08-18T10:07:13Z</time>
        <sat>8</sat>
      </trkpt>
      <trkpt lat="42.599571" lon="-2.137532">
        <ele>519.2</ele>
        <time>2019-08-18T10:07:20Z</time>
        <sat>8</sat>
      </trkpt>
      <trkpt lat="42.599560" lon="-2.137663">
        <ele>519.2</ele>
        <time>2019-08-18T10:07:27Z</time>
        <sat>8</sat>
      </trkpt>
      <trkpt lat="42.599543" lon="-2.137798">
        <ele>519.1</ele>
        <time>2019-08-18T10:07:34Z</time>
        <sat>8</sat>
      </trkpt>
      <trkpt lat="42.599533" lon="-2.137931">
        <ele>519.2</ele>
        <time>2019-08-18T10:07:41Z</time>
        <sat>8</sat>
      </trkpt>
      <trkpt lat="42.599510" lon="-2.138068">
        <ele>519.2</ele>
        <time>2019-08-18T10:07:48Z</time>
        <sat>8</sat>
      </trkpt>
      <trkpt lat="42.599500" lon="-2.138205">
        <ele>519.1</ele>
        <time>2019-08-18T10:07:55Z</time>
        <sat>9</sat>
      </trkpt>
      <trkpt lat="42.599484" lon="-2.138346">
        <ele>519.0</ele>
        <time>2019-08-18T10:08:02Z</time>
        <sat>9</sat>
      </trkpt>
      <trkpt lat="42.599467" lon="-2.138468">
        <ele>519.2</ele>
        <time>2019-08-18T10:08:09Z</time>
        <sat>9</sat>
      </trkpt>
      <trkpt lat="42.599456" lon="-2.138605">
        <ele>519.2</ele>
        <time>2019-08-18T10:08:16Z</time>
        <sat>9</sat>
      </trkpt>
      <trkpt lat="42.599444" lon="-2.138739">
        <ele>519.2</ele>
        <time>2019-08-18T10:08:23Z</time>
        <sat>9</sat>
      </trkpt>
      <trkpt lat="42.599429" lon="-2.138863">
        <ele>519.2</ele>
        <time>2019-08-18T10:08:29Z</time>
        <sat>9</sat>
      </trkpt>
      <trkpt lat="42.599420" lon="-2.138997">
        <ele>519.5</ele>
        <time>2019-08-18T10:08:36Z</time>
        <sat>10</sat>
      </trkpt>
      <trkpt lat="42.599404" lon="-2.139131">
        <ele>519.7</ele>
        <time>2019-08-18T10:08:43Z</time>
        <sat>9</sat>
      </trkpt>
      <trkpt lat="42.599397" lon="-2.139262">
        <ele>520.0</ele>
        <time>2019-08-18T10:08:50Z</time>
        <sat>9</sat>
      </trkpt>
      <trkpt lat="42.599375" lon="-2.139396">
        <ele>520.1</ele>
        <time>2019-08-18T10:08:57Z</time>
        <sat>10</sat>
      </trkpt>
      <trkpt lat="42.599366" lon="-2.139530">
        <ele>520.2</ele>
        <time>2019-08-18T10:09:04Z</time>
        <sat>10</sat>
      </trkpt>
      <trkpt lat="42.599337" lon="-2.139660">
        <ele>520.4</ele>
        <time>2019-08-18T10:09:11Z</time>
        <sat>10</sat>
      </trkpt>
      <trkpt lat="42.599320" lon="-2.139795">
        <ele>520.4</ele>
        <time>2019-08-18T10:09:18Z</time>
        <sat>10</sat>
      </trkpt>
      <trkpt lat="42.599288" lon="-2.139917">
        <ele>520.5</ele>
        <time>2019-08-18T10:09:25Z</time>
        <sat>10</sat>
      </trkpt>
      <trkpt lat="42.599252" lon="-2.140042">
        <ele>520.4</ele>
        <time>2019-08-18T10:09:32Z</time>
        <sat>10</sat>
      </trkpt>
      <trkpt lat="42.599211" lon="-2.140155">
        <ele>519.7</ele>
        <time>2019-08-18T10:09:39Z</time>
        <sat>10</sat>
      </trkpt>
      <trkpt lat="42.599167" lon="-2.140272">
        <ele>520.4</ele>
        <time>2019-08-18T10:09:49Z</time>
        <sat>10</sat>
      </trkpt>
      <trkpt lat="42.599120" lon="-2.140378">
        <ele>520.1</ele>
        <time>2019-08-18T10:09:56Z</time>
        <sat>10</sat>
      </trkpt>
      <trkpt lat="42.599070" lon="-2.140503">
        <ele>519.6</ele>
        <time>2019-08-18T10:10:03Z</time>
        <sat>10</sat>
      </trkpt>
      <trkpt lat="42.599031" lon="-2.140621">
        <ele>519.3</ele>
        <time>2019-08-18T10:10:10Z</time>
        <sat>9</sat>
      </trkpt>
      <trkpt lat="42.598982" lon="-2.140742">
        <ele>518.9</ele>
        <time>2019-08-18T10:10:17Z</time>
        <sat>10</sat>
      </trkpt>
      <trkpt lat="42.598941" lon="-2.140862">
        <ele>518.5</ele>
        <time>2019-08-18T10:10:24Z</time>
        <sat>10</sat>
      </trkpt>
      <trkpt lat="42.598890" lon="-2.140977">
        <ele>518.2</ele>
        <time>2019-08-18T10:10:31Z</time>
        <sat>10</sat>
      </trkpt>
      <trkpt lat="42.598849" lon="-2.141107">
        <ele>518.1</ele>
        <time>2019-08-18T10:10:38Z</time>
        <sat>10</sat>
      </trkpt>
      <trkpt lat="42.598798" lon="-2.141223">
        <ele>517.9</ele>
        <time>2019-08-18T10:10:45Z</time>
        <sat>10</sat>
      </trkpt>
      <trkpt lat="42.598759" lon="-2.141352">
        <ele>517.7</ele>
        <time>2019-08-18T10:10:52Z</time>
        <sat>10</sat>
      </trkpt>
      <trkpt lat="42.598715" lon="-2.141476">
        <ele>517.6</ele>
        <time>2019-08-18T10:10:59Z</time>
        <sat>9</sat>
      </trkpt>
      <trkpt lat="42.598663" lon="-2.141587">
        <ele>517.5</ele>
        <time>2019-08-18T10:11:06Z</time>
        <sat>9</sat>
      </trkpt>
      <trkpt lat="42.598622" lon="-2.141698">
        <ele>515.9</ele>
        <time>2019-08-18T10:11:13Z</time>
        <sat>9</sat>
      </trkpt>
      <trkpt lat="42.598563" lon="-2.141808">
        <ele>513.9</ele>
        <time>2019-08-18T10:11:20Z</time>
        <sat>10</sat>
      </trkpt>
      <trkpt lat="42.598519" lon="-2.141932">
        <ele>514.5</ele>
        <time>2019-08-18T10:11:27Z</time>
        <sat>10</sat>
      </trkpt>
      <trkpt lat="42.598472" lon="-2.142041">
        <ele>515.0</ele>
        <time>2019-08-18T10:11:33Z</time>
        <sat>10</sat>
      </trkpt>
      <trkpt lat="42.598434" lon="-2.142166">
        <ele>515.6</ele>
        <time>2019-08-18T10:11:40Z</time>
        <sat>10</sat>
      </trkpt>
      <trkpt lat="42.598381" lon="-2.142280">
        <ele>516.2</ele>
        <time>2019-08-18T10:11:47Z</time>
        <sat>10</sat>
      </trkpt>
      <trkpt lat="42.598341" lon="-2.142399">
        <ele>516.7</ele>
        <time>2019-08-18T10:11:54Z</time>
        <sat>10</sat>
      </trkpt>
      <trkpt lat="42.598293" lon="-2.142517">
        <ele>517.3</ele>
        <time>2019-08-18T10:12:01Z</time>
        <sat>10</sat>
      </trkpt>
      <trkpt lat="42.598251" lon="-2.142635">
        <ele>517.6</ele>
        <time>2019-08-18T10:12:08Z</time>
        <sat>10</sat>
      </trkpt>
      <trkpt lat="42.598217" lon="-2.142754">
        <ele>518.1</ele>
        <time>2019-08-18T10:12:15Z</time>
        <sat>10</sat>
      </trkpt>
      <trkpt lat="42.598186" lon="-2.142880">
        <ele>519.0</ele>
        <time>2019-08-18T10:12:35Z</time>
        <sat>9</sat>
      </trkpt>
      <trkpt lat="42.598143" lon="-2.143002">
        <ele>519.3</ele>
        <time>2019-08-18T10:12:42Z</time>
        <sat>10</sat>
      </trkpt>
      <trkpt lat="42.598119" lon="-2.143133">
        <ele>519.3</ele>
        <time>2019-08-18T10:12:49Z</time>
        <sat>9</sat>
      </trkpt>
      <trkpt lat="42.598084" lon="-2.143255">
        <ele>519.5</ele>
        <time>2019-08-18T10:12:56Z</time>
        <sat>9</sat>
      </trkpt>
      <trkpt lat="42.598071" lon="-2.143389">
        <ele>519.5</ele>
        <time>2019-08-18T10:13:03Z</time>
        <sat>10</sat>
      </trkpt>
      <trkpt lat="42.598050" lon="-2.143518">
        <ele>519.5</ele>
        <time>2019-08-18T10:13:10Z</time>
        <sat>9</sat>
      </trkpt>
      <trkpt lat="42.598023" lon="-2.143652">
        <ele>519.3</ele>
        <time>2019-08-18T10:13:17Z</time>
        <sat>10</sat>
      </trkpt>
      <trkpt lat="42.598004" lon="-2.143781">
        <ele>519.3</ele>
        <time>2019-08-18T10:13:24Z</time>
        <sat>10</sat>
      </trkpt>
      <trkpt lat="42.597972" lon="-2.143898">
        <ele>519.3</ele>
        <time>2019-08-18T10:13:30Z</time>
        <sat>10</sat>
      </trkpt>
      <trkpt lat="42.597951" lon="-2.144034">
        <ele>519.3</ele>
        <time>2019-08-18T10:13:37Z</time>
        <sat>10</sat>
      </trkpt>
      <trkpt lat="42.597920" lon="-2.144150">
        <ele>519.7</ele>
        <time>2019-08-18T10:13:43Z</time>
        <sat>10</sat>
      </trkpt>
      <trkpt lat="42.597900" lon="-2.144280">
        <ele>519.8</ele>
        <time>2019-08-18T10:13:50Z</time>
        <sat>10</sat>
      </trkpt>
      <trkpt lat="42.597857" lon="-2.144397">
        <ele>520.0</ele>
        <time>2019-08-18T10:13:57Z</time>
        <sat>10</sat>
      </trkpt>
      <trkpt lat="42.597801" lon="-2.144495">
        <ele>519.9</ele>
        <time>2019-08-18T10:14:04Z</time>
        <sat>10</sat>
      </trkpt>
      <trkpt lat="42.597744" lon="-2.144595">
        <ele>519.6</ele>
        <time>2019-08-18T10:14:18Z</time>
        <sat>9</sat>
      </trkpt>
      <trkpt lat="42.597665" lon="-2.144667">
        <ele>519.3</ele>
        <time>2019-08-18T10:14:25Z</time>
        <sat>10</sat>
      </trkpt>
      <trkpt lat="42.597581" lon="-2.144730">
        <ele>518.9</ele>
        <time>2019-08-18T10:14:32Z</time>
        <sat>10</sat>
      </trkpt>
      <trkpt lat="42.597502" lon="-2.144796">
        <ele>518.2</ele>
        <time>2019-08-18T10:14:39Z</time>
        <sat>10</sat>
      </trkpt>
      <trkpt lat="42.597420" lon="-2.144854">
        <ele>517.8</ele>
        <time>2019-08-18T10:14:46Z</time>
        <sat>10</sat>
      </trkpt>
      <trkpt lat="42.597340" lon="-2.144920">
        <ele>517.2</ele>
        <time>2019-08-18T10:14:53Z</time>
        <sat>10</sat>
      </trkpt>
      <trkpt lat="42.597256" lon="-2.144981">
        <ele>516.5</ele>
        <time>2019-08-18T10:15:00Z</time>
        <sat>10</sat>
      </trkpt>
      <trkpt lat="42.597174" lon="-2.145050">
        <ele>515.8</ele>
        <time>2019-08-18T10:15:07Z</time>
        <sat>9</sat>
      </trkpt>
      <trkpt lat="42.597089" lon="-2.145112">
        <ele>515.3</ele>
        <time>2019-08-18T10:15:14Z</time>
        <sat>9</sat>
      </trkpt>
      <trkpt lat="42.597007" lon="-2.145182">
        <ele>514.7</ele>
        <time>2019-08-18T10:15:21Z</time>
        <sat>10</sat>
      </trkpt>
      <trkpt lat="42.596925" lon="-2.145241">
        <ele>514.4</ele>
        <time>2019-08-18T10:15:28Z</time>
        <sat>10</sat>
      </trkpt>
      <trkpt lat="42.596846" lon="-2.145304">
        <ele>514.1</ele>
        <time>2019-08-18T10:15:34Z</time>
        <sat>9</sat>
      </trkpt>
      <trkpt lat="42.596760" lon="-2.145366">
        <ele>513.9</ele>
        <time>2019-08-18T10:15:41Z</time>
        <sat>10</sat>
      </trkpt>
      <trkpt lat="42.596672" lon="-2.145427">
        <ele>513.7</ele>
        <time>2019-08-18T10:15:48Z</time>
        <sat>10</sat>
      </trkpt>
      <trkpt lat="42.596589" lon="-2.145490">
        <ele>513.7</ele>
        <time>2019-08-18T10:15:55Z</time>
        <sat>10</sat>
      </trkpt>
      <trkpt lat="42.596489" lon="-2.145506">
        <ele>513.9</ele>
        <time>2019-08-18T10:16:10Z</time>
        <sat>10</sat>
      </trkpt>
      <trkpt lat="42.596392" lon="-2.145475">
        <ele>513.7</ele>
        <time>2019-08-18T10:16:17Z</time>
        <sat>10</sat>
      </trkpt>
      <trkpt lat="42.596295" lon="-2.145451">
        <ele>513.3</ele>
        <time>2019-08-18T10:16:24Z</time>
        <sat>10</sat>
      </trkpt>
      <trkpt lat="42.596286" lon="-2.145414">
        <ele>513.3</ele>
        <time>2019-08-18T10:25:09Z</time>
        <sat>10</sat>
      </trkpt>
      <trkpt lat="42.596212" lon="-2.145486">
        <ele>516.1</ele>
        <time>2019-08-18T10:38:49Z</time>
        <sat>12</sat>
      </trkpt>
      <trkpt lat="42.596275" lon="-2.145583">
        <ele>516.1</ele>
        <time>2019-08-18T10:39:00Z</time>
        <sat>12</sat>
      </trkpt>
      <trkpt lat="42.596373" lon="-2.145594">
        <ele>515.4</ele>
        <time>2019-08-18T10:39:36Z</time>
        <sat>11</sat>
      </trkpt>
      <trkpt lat="42.596461" lon="-2.145639">
        <ele>515.1</ele>
        <time>2019-08-18T10:39:44Z</time>
        <sat>10</sat>
      </trkpt>
      <trkpt lat="42.596482" lon="-2.145760">
        <ele>515.5</ele>
        <time>2019-08-18T10:39:53Z</time>
        <sat>11</sat>
      </trkpt>
      <trkpt lat="42.596489" lon="-2.145888">
        <ele>517.1</ele>
        <time>2019-08-18T10:40:04Z</time>
        <sat>11</sat>
      </trkpt>
      <trkpt lat="42.596515" lon="-2.146007">
        <ele>519.2</ele>
        <time>2019-08-18T10:40:24Z</time>
        <sat>10</sat>
      </trkpt>
      <trkpt lat="42.596513" lon="-2.146147">
        <ele>519.5</ele>
        <time>2019-08-18T10:40:31Z</time>
        <sat>10</sat>
      </trkpt>
      <trkpt lat="42.596543" lon="-2.146273">
        <ele>519.8</ele>
        <time>2019-08-18T10:40:38Z</time>
        <sat>11</sat>
      </trkpt>
      <trkpt lat="42.596578" lon="-2.146397">
        <ele>520.2</ele>
        <time>2019-08-18T10:40:45Z</time>
        <sat>11</sat>
      </trkpt>
      <trkpt lat="42.596626" lon="-2.146509">
        <ele>520.6</ele>
        <time>2019-08-18T10:40:52Z</time>
        <sat>11</sat>
      </trkpt>
      <trkpt lat="42.596677" lon="-2.146630">
        <ele>521.4</ele>
        <time>2019-08-18T10:40:59Z</time>
        <sat>10</sat>
      </trkpt>
      <trkpt lat="42.596730" lon="-2.146746">
        <ele>522.0</ele>
        <time>2019-08-18T10:41:06Z</time>
        <sat>11</sat>
      </trkpt>
      <trkpt lat="42.596760" lon="-2.146872">
        <ele>522.9</ele>
        <time>2019-08-18T10:41:14Z</time>
        <sat>11</sat>
      </trkpt>
      <trkpt lat="42.596786" lon="-2.147003">
        <ele>523.2</ele>
        <time>2019-08-18T10:41:22Z</time>
        <sat>12</sat>
      </trkpt>
      <trkpt lat="42.596795" lon="-2.147135">
        <ele>523.1</ele>
        <time>2019-08-18T10:41:30Z</time>
        <sat>11</sat>
      </trkpt>
      <trkpt lat="42.596808" lon="-2.147260">
        <ele>523.0</ele>
        <time>2019-08-18T10:41:37Z</time>
        <sat>10</sat>
      </trkpt>
      <trkpt lat="42.596807" lon="-2.147386">
        <ele>522.8</ele>
        <time>2019-08-18T10:41:44Z</time>
        <sat>11</sat>
      </trkpt>
      <trkpt lat="42.596815" lon="-2.147512">
        <ele>522.6</ele>
        <time>2019-08-18T10:41:51Z</time>
        <sat>11</sat>
      </trkpt>
      <trkpt lat="42.596811" lon="-2.147651">
        <ele>522.7</ele>
        <time>2019-08-18T10:41:59Z</time>
        <sat>12</sat>
      </trkpt>
      <trkpt lat="42.596813" lon="-2.147784">
        <ele>522.5</ele>
        <time>2019-08-18T10:42:06Z</time>
        <sat>11</sat>
      </trkpt>
      <trkpt lat="42.596824" lon="-2.147917">
        <ele>522.3</ele>
        <time>2019-08-18T10:42:13Z</time>
        <sat>11</sat>
      </trkpt>
      <trkpt lat="42.596826" lon="-2.148047">
        <ele>522.2</ele>
        <time>2019-08-18T10:42:20Z</time>
        <sat>12</sat>
      </trkpt>
      <trkpt lat="42.596818" lon="-2.148185">
        <ele>522.2</ele>
        <time>2019-08-18T10:42:27Z</time>
        <sat>12</sat>
      </trkpt>
      <trkpt lat="42.596813" lon="-2.148311">
        <ele>522.0</ele>
        <time>2019-08-18T10:42:34Z</time>
        <sat>12</sat>
      </trkpt>
      <trkpt lat="42.596785" lon="-2.148437">
        <ele>521.9</ele>
        <time>2019-08-18T10:42:41Z</time>
        <sat>12</sat>
      </trkpt>
      <trkpt lat="42.596743" lon="-2.148560">
        <ele>521.8</ele>
        <time>2019-08-18T10:42:48Z</time>
        <sat>12</sat>
      </trkpt>
      <trkpt lat="42.596705" lon="-2.148690">
        <ele>521.9</ele>
        <time>2019-08-18T10:42:55Z</time>
        <sat>11</sat>
      </trkpt>
      <trkpt lat="42.596682" lon="-2.148818">
        <ele>521.8</ele>
        <time>2019-08-18T10:43:25Z</time>
        <sat>11</sat>
      </trkpt>
      <trkpt lat="42.596661" lon="-2.148948">
        <ele>522.0</ele>
        <time>2019-08-18T10:43:32Z</time>
        <sat>11</sat>
      </trkpt>
      <trkpt lat="42.596640" lon="-2.149076">
        <ele>522.2</ele>
        <time>2019-08-18T10:43:39Z</time>
        <sat>11</sat>
      </trkpt>
      <trkpt lat="42.596627" lon="-2.149199">
        <ele>522.2</ele>
        <time>2019-08-18T10:43:46Z</time>
        <sat>11</sat>
      </trkpt>
      <trkpt lat="42.596615" lon="-2.149334">
        <ele>522.4</ele>
        <time>2019-08-18T10:43:53Z</time>
        <sat>11</sat>
      </trkpt>
      <trkpt lat="42.596605" lon="-2.149469">
        <ele>522.6</ele>
        <time>2019-08-18T10:44:00Z</time>
        <sat>11</sat>
      </trkpt>
      <trkpt lat="42.596601" lon="-2.149606">
        <ele>522.8</ele>
        <time>2019-08-18T10:44:07Z</time>
        <sat>11</sat>
      </trkpt>
      <trkpt lat="42.596618" lon="-2.149735">
        <ele>523.5</ele>
        <time>2019-08-18T10:44:23Z</time>
        <sat>11</sat>
      </trkpt>
      <trkpt lat="42.596615" lon="-2.149867">
        <ele>523.6</ele>
        <time>2019-08-18T10:44:30Z</time>
        <sat>11</sat>
      </trkpt>
      <trkpt lat="42.596616" lon="-2.149992">
        <ele>524.0</ele>
        <time>2019-08-18T10:44:37Z</time>
        <sat>11</sat>
      </trkpt>
      <trkpt lat="42.596616" lon="-2.150118">
        <ele>524.4</ele>
        <time>2019-08-18T10:44:44Z</time>
        <sat>11</sat>
      </trkpt>
      <trkpt lat="42.596606" lon="-2.150250">
        <ele>524.8</ele>
        <time>2019-08-18T10:44:51Z</time>
        <sat>12</sat>
      </trkpt>
      <trkpt lat="42.596612" lon="-2.150378">
        <ele>525.2</ele>
        <time>2019-08-18T10:44:59Z</time>
        <sat>12</sat>
      </trkpt>
      <trkpt lat="42.596659" lon="-2.150499">
        <ele>525.1</ele>
        <time>2019-08-18T10:45:28Z</time>
        <sat>12</sat>
      </trkpt>
      <trkpt lat="42.596679" lon="-2.150622">
        <ele>524.7</ele>
        <time>2019-08-18T10:45:35Z</time>
        <sat>12</sat>
      </trkpt>
      <trkpt lat="42.596702" lon="-2.150758">
        <ele>524.7</ele>
        <time>2019-08-18T10:45:42Z</time>
        <sat>11</sat>
      </trkpt>
      <trkpt lat="42.596702" lon="-2.150887">
        <ele>524.7</ele>
        <time>2019-08-18T10:45:49Z</time>
        <sat>12</sat>
      </trkpt>
      <trkpt lat="42.596667" lon="-2.151011">
        <ele>524.8</ele>
        <time>2019-08-18T10:45:56Z</time>
        <sat>12</sat>
      </trkpt>
      <trkpt lat="42.596624" lon="-2.151127">
        <ele>524.8</ele>
        <time>2019-08-18T10:46:03Z</time>
        <sat>11</sat>
      </trkpt>
      <trkpt lat="42.596563" lon="-2.151230">
        <ele>524.4</ele>
        <time>2019-08-18T10:46:34Z</time>
        <sat>11</sat>
      </trkpt>
      <trkpt lat="42.596513" lon="-2.151343">
        <ele>524.5</ele>
        <time>2019-08-18T10:46:41Z</time>
        <sat>12</sat>
      </trkpt>
      <trkpt lat="42.596456" lon="-2.151447">
        <ele>524.5</ele>
        <time>2019-08-18T10:46:48Z</time>
        <sat>11</sat>
      </trkpt>
      <trkpt lat="42.596394" lon="-2.151555">
        <ele>524.4</ele>
        <time>2019-08-18T10:47:05Z</time>
        <sat>12</sat>
      </trkpt>
      <trkpt lat="42.596385" lon="-2.151684">
        <ele>524.5</ele>
        <time>2019-08-18T10:47:12Z</time>
        <sat>12</sat>
      </trkpt>
      <trkpt lat="42.596366" lon="-2.151820">
        <ele>524.7</ele>
        <time>2019-08-18T10:47:19Z</time>
        <sat>12</sat>
      </trkpt>
      <trkpt lat="42.596351" lon="-2.151953">
        <ele>525.2</ele>
        <time>2019-08-18T10:47:26Z</time>
        <sat>12</sat>
      </trkpt>
      <trkpt lat="42.596330" lon="-2.152091">
        <ele>525.5</ele>
        <time>2019-08-18T10:47:33Z</time>
        <sat>11</sat>
      </trkpt>
      <trkpt lat="42.596305" lon="-2.152222">
        <ele>526.1</ele>
        <time>2019-08-18T10:47:40Z</time>
        <sat>11</sat>
      </trkpt>
      <trkpt lat="42.596293" lon="-2.152348">
        <ele>526.7</ele>
        <time>2019-08-18T10:47:47Z</time>
        <sat>11</sat>
      </trkpt>
      <trkpt lat="42.596279" lon="-2.152480">
        <ele>527.3</ele>
        <time>2019-08-18T10:47:54Z</time>
        <sat>11</sat>
      </trkpt>
      <trkpt lat="42.596258" lon="-2.152610">
        <ele>527.9</ele>
        <time>2019-08-18T10:48:01Z</time>
        <sat>11</sat>
      </trkpt>
      <trkpt lat="42.596239" lon="-2.152746">
        <ele>527.2</ele>
        <time>2019-08-18T10:48:09Z</time>
        <sat>11</sat>
      </trkpt>
      <trkpt lat="42.596226" lon="-2.152870">
        <ele>530.1</ele>
        <time>2019-08-18T10:48:20Z</time>
        <sat>11</sat>
      </trkpt>
      <trkpt lat="42.596212" lon="-2.153002">
        <ele>530.4</ele>
        <time>2019-08-18T10:48:27Z</time>
        <sat>11</sat>
      </trkpt>
      <trkpt lat="42.596192" lon="-2.153127">
        <ele>530.7</ele>
        <time>2019-08-18T10:48:34Z</time>
        <sat>11</sat>
      </trkpt>
      <trkpt lat="42.596180" lon="-2.153251">
        <ele>531.2</ele>
        <time>2019-08-18T10:48:41Z</time>
        <sat>11</sat>
      </trkpt>
      <trkpt lat="42.596168" lon="-2.153384">
        <ele>531.8</ele>
        <time>2019-08-18T10:48:48Z</time>
        <sat>11</sat>
      </trkpt>
      <trkpt lat="42.596163" lon="-2.153515">
        <ele>532.3</ele>
        <time>2019-08-18T10:48:55Z</time>
        <sat>11</sat>
      </trkpt>
      <trkpt lat="42.596171" lon="-2.153638">
        <ele>533.1</ele>
        <time>2019-08-18T10:49:04Z</time>
        <sat>11</sat>
      </trkpt>
      <trkpt lat="42.596172" lon="-2.153767">
        <ele>533.5</ele>
        <time>2019-08-18T10:49:11Z</time>
        <sat>11</sat>
      </trkpt>
      <trkpt lat="42.596170" lon="-2.153898">
        <ele>534.0</ele>
        <time>2019-08-18T10:49:18Z</time>
        <sat>12</sat>
      </trkpt>
      <trkpt lat="42.596175" lon="-2.154025">
        <ele>534.7</ele>
        <time>2019-08-18T10:49:25Z</time>
        <sat>12</sat>
      </trkpt>
      <trkpt lat="42.596179" lon="-2.154152">
        <ele>535.3</ele>
        <time>2019-08-18T10:49:32Z</time>
        <sat>11</sat>
      </trkpt>
      <trkpt lat="42.596177" lon="-2.154285">
        <ele>535.8</ele>
        <time>2019-08-18T10:49:39Z</time>
        <sat>12</sat>
      </trkpt>
      <trkpt lat="42.596178" lon="-2.154420">
        <ele>536.3</ele>
        <time>2019-08-18T10:49:46Z</time>
        <sat>12</sat>
      </trkpt>
      <trkpt lat="42.596183" lon="-2.154552">
        <ele>536.8</ele>
        <time>2019-08-18T10:49:53Z</time>
        <sat>12</sat>
      </trkpt>
      <trkpt lat="42.596179" lon="-2.154690">
        <ele>537.3</ele>
        <time>2019-08-18T10:50:00Z</time>
        <sat>12</sat>
      </trkpt>
      <trkpt lat="42.596175" lon="-2.154827">
        <ele>537.8</ele>
        <time>2019-08-18T10:50:07Z</time>
        <sat>12</sat>
      </trkpt>
      <trkpt lat="42.596184" lon="-2.154952">
        <ele>538.5</ele>
        <time>2019-08-18T10:50:14Z</time>
        <sat>12</sat>
      </trkpt>
      <trkpt lat="42.596191" lon="-2.155091">
        <ele>539.1</ele>
        <time>2019-08-18T10:50:21Z</time>
        <sat>12</sat>
      </trkpt>
      <trkpt lat="42.596190" lon="-2.155226">
        <ele>539.8</ele>
        <time>2019-08-18T10:50:28Z</time>
        <sat>12</sat>
      </trkpt>
      <trkpt lat="42.596199" lon="-2.155356">
        <ele>540.6</ele>
        <time>2019-08-18T10:50:35Z</time>
        <sat>12</sat>
      </trkpt>
      <trkpt lat="42.596207" lon="-2.155482">
        <ele>541.1</ele>
        <time>2019-08-18T10:50:42Z</time>
        <sat>12</sat>
      </trkpt>
      <trkpt lat="42.596212" lon="-2.155615">
        <ele>541.7</ele>
        <time>2019-08-18T10:50:49Z</time>
        <sat>12</sat>
      </trkpt>
      <trkpt lat="42.596212" lon="-2.155740">
        <ele>542.3</ele>
        <time>2019-08-18T10:50:56Z</time>
        <sat>12</sat>
      </trkpt>
      <trkpt lat="42.596215" lon="-2.155869">
        <ele>542.9</ele>
        <time>2019-08-18T10:51:03Z</time>
        <sat>11</sat>
      </trkpt>
      <trkpt lat="42.596221" lon="-2.155999">
        <ele>543.7</ele>
        <time>2019-08-18T10:51:10Z</time>
        <sat>12</sat>
      </trkpt>
      <trkpt lat="42.596222" lon="-2.156124">
        <ele>544.6</ele>
        <time>2019-08-18T10:51:17Z</time>
        <sat>12</sat>
      </trkpt>
      <trkpt lat="42.596235" lon="-2.156249">
        <ele>545.4</ele>
        <time>2019-08-18T10:51:37Z</time>
        <sat>12</sat>
      </trkpt>
      <trkpt lat="42.596210" lon="-2.156372">
        <ele>546.9</ele>
        <time>2019-08-18T10:52:23Z</time>
        <sat>12</sat>
      </trkpt>
      <trkpt lat="42.596122" lon="-2.156401">
        <ele>546.5</ele>
        <time>2019-08-18T10:52:30Z</time>
        <sat>11</sat>
      </trkpt>
      <trkpt lat="42.596030" lon="-2.156415">
        <ele>545.2</ele>
        <time>2019-08-18T10:52:49Z</time>
        <sat>12</sat>
      </trkpt>
      <trkpt lat="42.595932" lon="-2.156417">
        <ele>544.7</ele>
        <time>2019-08-18T10:52:57Z</time>
        <sat>12</sat>
      </trkpt>
      <trkpt lat="42.595834" lon="-2.156419">
        <ele>544.1</ele>
        <time>2019-08-18T10:53:05Z</time>
        <sat>11</sat>
      </trkpt>
      <trkpt lat="42.595743" lon="-2.156429">
        <ele>543.5</ele>
        <time>2019-08-18T10:53:12Z</time>
        <sat>11</sat>
      </trkpt>
      <trkpt lat="42.595649" lon="-2.156440">
        <ele>541.4</ele>
        <time>2019-08-18T10:53:19Z</time>
        <sat>11</sat>
      </trkpt>
      <trkpt lat="42.595555" lon="-2.156453">
        <ele>542.4</ele>
        <time>2019-08-18T10:53:31Z</time>
        <sat>12</sat>
      </trkpt>
      <trkpt lat="42.595452" lon="-2.156458">
        <ele>542.3</ele>
        <time>2019-08-18T10:53:39Z</time>
        <sat>11</sat>
      </trkpt>
      <trkpt lat="42.595349" lon="-2.156467">
        <ele>541.9</ele>
        <time>2019-08-18T10:53:47Z</time>
        <sat>12</sat>
      </trkpt>
      <trkpt lat="42.595254" lon="-2.156473">
        <ele>541.2</ele>
        <time>2019-08-18T10:53:54Z</time>
        <sat>11</sat>
      </trkpt>
      <trkpt lat="42.595163" lon="-2.156485">
        <ele>540.7</ele>
        <time>2019-08-18T10:54:01Z</time>
        <sat>11</sat>
      </trkpt>
      <trkpt lat="42.595065" lon="-2.156496">
        <ele>539.8</ele>
        <time>2019-08-18T10:54:08Z</time>
        <sat>11</sat>
      </trkpt>
      <trkpt lat="42.594972" lon="-2.156505">
        <ele>539.5</ele>
        <time>2019-08-18T10:54:15Z</time>
        <sat>11</sat>
      </trkpt>
      <trkpt lat="42.594873" lon="-2.156524">
        <ele>539.1</ele>
        <time>2019-08-18T10:54:22Z</time>
        <sat>11</sat>
      </trkpt>
      <trkpt lat="42.594778" lon="-2.156532">
        <ele>538.8</ele>
        <time>2019-08-18T10:54:29Z</time>
        <sat>10</sat>
      </trkpt>
      <trkpt lat="42.594681" lon="-2.156532">
        <ele>538.6</ele>
        <time>2019-08-18T10:54:36Z</time>
        <sat>11</sat>
      </trkpt>
      <trkpt lat="42.594588" lon="-2.156540">
        <ele>538.5</ele>
        <time>2019-08-18T10:54:43Z</time>
        <sat>11</sat>
      </trkpt>
      <trkpt lat="42.594492" lon="-2.156553">
        <ele>538.4</ele>
        <time>2019-08-18T10:54:50Z</time>
        <sat>11</sat>
      </trkpt>
      <trkpt lat="42.594391" lon="-2.156550">
        <ele>538.5</ele>
        <time>2019-08-18T10:54:57Z</time>
        <sat>11</sat>
      </trkpt>
      <trkpt lat="42.594297" lon="-2.156570">
        <ele>538.7</ele>
        <time>2019-08-18T10:55:04Z</time>
        <sat>11</sat>
      </trkpt>
      <trkpt lat="42.594198" lon="-2.156572">
        <ele>539.1</ele>
        <time>2019-08-18T10:55:11Z</time>
        <sat>11</sat>
      </trkpt>
      <trkpt lat="42.594105" lon="-2.156586">
        <ele>539.5</ele>
        <time>2019-08-18T10:55:18Z</time>
        <sat>11</sat>
      </trkpt>
      <trkpt lat="42.594006" lon="-2.156595">
        <ele>539.6</ele>
        <time>2019-08-18T10:55:25Z</time>
        <sat>11</sat>
      </trkpt>
      <trkpt lat="42.593914" lon="-2.156610">
        <ele>539.8</ele>
        <time>2019-08-18T10:55:32Z</time>
        <sat>10</sat>
      </trkpt>
      <trkpt lat="42.593817" lon="-2.156631">
        <ele>539.8</ele>
        <time>2019-08-18T10:55:39Z</time>
        <sat>11</sat>
      </trkpt>
      <trkpt lat="42.593722" lon="-2.156629">
        <ele>539.6</ele>
        <time>2019-08-18T10:55:46Z</time>
        <sat>11</sat>
      </trkpt>
      <trkpt lat="42.593624" lon="-2.156643">
        <ele>539.5</ele>
        <time>2019-08-18T10:55:53Z</time>
        <sat>11</sat>
      </trkpt>
      <trkpt lat="42.593529" lon="-2.156657">
        <ele>539.6</ele>
        <time>2019-08-18T10:56:00Z</time>
        <sat>11</sat>
      </trkpt>
      <trkpt lat="42.593439" lon="-2.156677">
        <ele>539.5</ele>
        <time>2019-08-18T10:56:07Z</time>
        <sat>11</sat>
      </trkpt>
      <trkpt lat="42.593345" lon="-2.156682">
        <ele>539.7</ele>
        <time>2019-08-18T10:56:19Z</time>
        <sat>11</sat>
      </trkpt>
      <trkpt lat="42.593243" lon="-2.156687">
        <ele>539.4</ele>
        <time>2019-08-18T10:56:27Z</time>
        <sat>11</sat>
      </trkpt>
      <trkpt lat="42.593151" lon="-2.156690">
        <ele>539.6</ele>
        <time>2019-08-18T10:56:34Z</time>
        <sat>11</sat>
      </trkpt>
      <trkpt lat="42.593062" lon="-2.156723">
        <ele>540.2</ele>
        <time>2019-08-18T10:56:54Z</time>
        <sat>11</sat>
      </trkpt>
      <trkpt lat="42.593046" lon="-2.156851">
        <ele>540.5</ele>
        <time>2019-08-18T10:57:09Z</time>
        <sat>11</sat>
      </trkpt>
      <trkpt lat="42.593041" lon="-2.156982">
        <ele>540.3</ele>
        <time>2019-08-18T10:57:16Z</time>
        <sat>11</sat>
      </trkpt>
      <trkpt lat="42.593029" lon="-2.157104">
        <ele>538.7</ele>
        <time>2019-08-18T10:57:23Z</time>
        <sat>11</sat>
      </trkpt>
      <trkpt lat="42.593025" lon="-2.157232">
        <ele>539.9</ele>
        <time>2019-08-18T10:57:31Z</time>
        <sat>11</sat>
      </trkpt>
      <trkpt lat="42.593015" lon="-2.157365">
        <ele>540.1</ele>
        <time>2019-08-18T10:57:44Z</time>
        <sat>11</sat>
      </trkpt>
      <trkpt lat="42.593014" lon="-2.157498">
        <ele>539.7</ele>
        <time>2019-08-18T10:57:56Z</time>
        <sat>11</sat>
      </trkpt>
      <trkpt lat="42.593006" lon="-2.157622">
        <ele>538.6</ele>
        <time>2019-08-18T10:58:03Z</time>
        <sat>11</sat>
      </trkpt>
      <trkpt lat="42.593002" lon="-2.157747">
        <ele>538.0</ele>
        <time>2019-08-18T10:58:10Z</time>
        <sat>11</sat>
      </trkpt>
      <trkpt lat="42.592984" lon="-2.157868">
        <ele>539.1</ele>
        <time>2019-08-18T10:58:17Z</time>
        <sat>11</sat>
      </trkpt>
      <trkpt lat="42.592975" lon="-2.157992">
        <ele>538.9</ele>
        <time>2019-08-18T10:58:24Z</time>
        <sat>11</sat>
      </trkpt>
      <trkpt lat="42.592960" lon="-2.158120">
        <ele>538.4</ele>
        <time>2019-08-18T10:58:31Z</time>
        <sat>11</sat>
      </trkpt>
      <trkpt lat="42.592947" lon="-2.158242">
        <ele>537.8</ele>
        <time>2019-08-18T10:58:38Z</time>
        <sat>11</sat>
      </trkpt>
      <trkpt lat="42.592923" lon="-2.158367">
        <ele>537.7</ele>
        <time>2019-08-18T10:59:17Z</time>
        <sat>10</sat>
      </trkpt>
      <trkpt lat="42.592939" lon="-2.158494">
        <ele>537.6</ele>
        <time>2019-08-18T10:59:36Z</time>
        <sat>12</sat>
      </trkpt>
      <trkpt lat="42.592925" lon="-2.158616">
        <ele>537.6</ele>
        <time>2019-08-18T10:59:43Z</time>
        <sat>11</sat>
      </trkpt>
      <trkpt lat="42.592912" lon="-2.158737">
        <ele>537.5</ele>
        <time>2019-08-18T10:59:50Z</time>
        <sat>11</sat>
      </trkpt>
      <trkpt lat="42.592904" lon="-2.158865">
        <ele>537.3</ele>
        <time>2019-08-18T10:59:57Z</time>
        <sat>12</sat>
      </trkpt>
      <trkpt lat="42.592896" lon="-2.159006">
        <ele>537.1</ele>
        <time>2019-08-18T11:00:05Z</time>
        <sat>11</sat>
      </trkpt>
      <trkpt lat="42.592891" lon="-2.159135">
        <ele>536.7</ele>
        <time>2019-08-18T11:00:12Z</time>
        <sat>11</sat>
      </trkpt>
      <trkpt lat="42.592891" lon="-2.159259">
        <ele>536.4</ele>
        <time>2019-08-18T11:00:19Z</time>
        <sat>11</sat>
      </trkpt>
      <trkpt lat="42.592890" lon="-2.159385">
        <ele>536.1</ele>
        <time>2019-08-18T11:00:26Z</time>
        <sat>10</sat>
      </trkpt>
      <trkpt lat="42.592885" lon="-2.159524">
        <ele>536.0</ele>
        <time>2019-08-18T11:00:34Z</time>
        <sat>11</sat>
      </trkpt>
      <trkpt lat="42.592887" lon="-2.159649">
        <ele>535.8</ele>
        <time>2019-08-18T11:00:41Z</time>
        <sat>11</sat>
      </trkpt>
      <trkpt lat="42.592888" lon="-2.159776">
        <ele>535.8</ele>
        <time>2019-08-18T11:00:48Z</time>
        <sat>11</sat>
      </trkpt>
      <trkpt lat="42.592893" lon="-2.159907">
        <ele>536.4</ele>
        <time>2019-08-18T11:01:03Z</time>
        <sat>11</sat>
      </trkpt>
      <trkpt lat="42.592897" lon="-2.160035">
        <ele>536.6</ele>
        <time>2019-08-18T11:01:11Z</time>
        <sat>11</sat>
      </trkpt>
      <trkpt lat="42.592901" lon="-2.160174">
        <ele>535.8</ele>
        <time>2019-08-18T11:01:19Z</time>
        <sat>11</sat>
      </trkpt>
      <trkpt lat="42.592896" lon="-2.160309">
        <ele>535.2</ele>
        <time>2019-08-18T11:01:27Z</time>
        <sat>11</sat>
      </trkpt>
      <trkpt lat="42.592900" lon="-2.160432">
        <ele>534.8</ele>
        <time>2019-08-18T11:01:34Z</time>
        <sat>11</sat>
      </trkpt>
      <trkpt lat="42.592896" lon="-2.160561">
        <ele>534.4</ele>
        <time>2019-08-18T11:01:41Z</time>
        <sat>11</sat>
      </trkpt>
      <trkpt lat="42.592900" lon="-2.160687">
        <ele>533.3</ele>
        <time>2019-08-18T11:01:48Z</time>
        <sat>10</sat>
      </trkpt>
      <trkpt lat="42.592902" lon="-2.160817">
        <ele>533.8</ele>
        <time>2019-08-18T11:01:55Z</time>
        <sat>11</sat>
      </trkpt>
      <trkpt lat="42.592909" lon="-2.160939">
        <ele>533.6</ele>
        <time>2019-08-18T11:02:02Z</time>
        <sat>11</sat>
      </trkpt>
      <trkpt lat="42.592914" lon="-2.161062">
        <ele>533.5</ele>
        <time>2019-08-18T11:02:09Z</time>
        <sat>11</sat>
      </trkpt>
      <trkpt lat="42.592912" lon="-2.161202">
        <ele>533.4</ele>
        <time>2019-08-18T11:02:17Z</time>
        <sat>11</sat>
      </trkpt>
      <trkpt lat="42.592920" lon="-2.161324">
        <ele>533.3</ele>
        <time>2019-08-18T11:02:27Z</time>
        <sat>12</sat>
      </trkpt>
      <trkpt lat="42.592920" lon="-2.161450">
        <ele>532.9</ele>
        <time>2019-08-18T11:02:48Z</time>
        <sat>11</sat>
      </trkpt>
      <trkpt lat="42.592932" lon="-2.161575">
        <ele>532.7</ele>
        <time>2019-08-18T11:02:56Z</time>
        <sat>11</sat>
      </trkpt>
      <trkpt lat="42.592939" lon="-2.161711">
        <ele>532.3</ele>
        <time>2019-08-18T11:03:10Z</time>
        <sat>10</sat>
      </trkpt>
      <trkpt lat="42.592935" lon="-2.161845">
        <ele>532.1</ele>
        <time>2019-08-18T11:03:18Z</time>
        <sat>11</sat>
      </trkpt>
      <trkpt lat="42.592930" lon="-2.161982">
        <ele>531.9</ele>
        <time>2019-08-18T11:03:26Z</time>
        <sat>11</sat>
      </trkpt>
      <trkpt lat="42.592929" lon="-2.162115">
        <ele>531.6</ele>
        <time>2019-08-18T11:03:38Z</time>
        <sat>11</sat>
      </trkpt>
      <trkpt lat="42.592926" lon="-2.162241">
        <ele>531.7</ele>
        <time>2019-08-18T11:03:45Z</time>
        <sat>11</sat>
      </trkpt>
      <trkpt lat="42.592933" lon="-2.162371">
        <ele>531.4</ele>
        <time>2019-08-18T11:03:57Z</time>
        <sat>12</sat>
      </trkpt>
      <trkpt lat="42.592938" lon="-2.162503">
        <ele>530.4</ele>
        <time>2019-08-18T11:04:52Z</time>
        <sat>11</sat>
      </trkpt>
      <trkpt lat="42.592933" lon="-2.162635">
        <ele>530.1</ele>
        <time>2019-08-18T11:05:03Z</time>
        <sat>11</sat>
      </trkpt>
      <trkpt lat="42.592935" lon="-2.162772">
        <ele>529.9</ele>
        <time>2019-08-18T11:05:11Z</time>
        <sat>11</sat>
      </trkpt>
      <trkpt lat="42.592935" lon="-2.162899">
        <ele>529.5</ele>
        <time>2019-08-18T11:05:18Z</time>
        <sat>11</sat>
      </trkpt>
      <trkpt lat="42.592940" lon="-2.163023">
        <ele>529.2</ele>
        <time>2019-08-18T11:05:25Z</time>
        <sat>11</sat>
      </trkpt>
      <trkpt lat="42.592933" lon="-2.163158">
        <ele>528.9</ele>
        <time>2019-08-18T11:05:32Z</time>
        <sat>10</sat>
      </trkpt>
      <trkpt lat="42.592937" lon="-2.163282">
        <ele>528.9</ele>
        <time>2019-08-18T11:05:39Z</time>
        <sat>11</sat>
      </trkpt>
      <trkpt lat="42.592934" lon="-2.163407">
        <ele>528.9</ele>
        <time>2019-08-18T11:05:46Z</time>
        <sat>11</sat>
      </trkpt>
      <trkpt lat="42.592938" lon="-2.163539">
        <ele>528.8</ele>
        <time>2019-08-18T11:05:54Z</time>
        <sat>11</sat>
      </trkpt>
      <trkpt lat="42.592943" lon="-2.163674">
        <ele>528.5</ele>
        <time>2019-08-18T11:06:02Z</time>
        <sat>11</sat>
      </trkpt>
      <trkpt lat="42.592943" lon="-2.163804">
        <ele>528.4</ele>
        <time>2019-08-18T11:06:09Z</time>
        <sat>11</sat>
      </trkpt>
      <trkpt lat="42.592943" lon="-2.163943">
        <ele>528.4</ele>
        <time>2019-08-18T11:06:17Z</time>
        <sat>11</sat>
      </trkpt>
      <trkpt lat="42.592940" lon="-2.164074">
        <ele>528.3</ele>
        <time>2019-08-18T11:06:24Z</time>
        <sat>12</sat>
      </trkpt>
      <trkpt lat="42.592943" lon="-2.164213">
        <ele>528.1</ele>
        <time>2019-08-18T11:06:32Z</time>
        <sat>12</sat>
      </trkpt>
      <trkpt lat="42.592945" lon="-2.164344">
        <ele>528.1</ele>
        <time>2019-08-18T11:06:39Z</time>
        <sat>12</sat>
      </trkpt>
      <trkpt lat="42.592943" lon="-2.164479">
        <ele>528.0</ele>
        <time>2019-08-18T11:06:47Z</time>
        <sat>12</sat>
      </trkpt>
      <trkpt lat="42.592947" lon="-2.164606">
        <ele>527.7</ele>
        <time>2019-08-18T11:06:54Z</time>
        <sat>12</sat>
      </trkpt>
      <trkpt lat="42.592946" lon="-2.164728">
        <ele>527.4</ele>
        <time>2019-08-18T11:07:01Z</time>
        <sat>12</sat>
      </trkpt>
      <trkpt lat="42.592950" lon="-2.164867">
        <ele>527.0</ele>
        <time>2019-08-18T11:07:09Z</time>
        <sat>12</sat>
      </trkpt>
      <trkpt lat="42.592951" lon="-2.164994">
        <ele>526.6</ele>
        <time>2019-08-18T11:07:16Z</time>
        <sat>12</sat>
      </trkpt>
      <trkpt lat="42.592948" lon="-2.165129">
        <ele>525.5</ele>
        <time>2019-08-18T11:07:43Z</time>
        <sat>11</sat>
      </trkpt>
      <trkpt lat="42.592956" lon="-2.165261">
        <ele>525.3</ele>
        <time>2019-08-18T11:07:51Z</time>
        <sat>11</sat>
      </trkpt>
      <trkpt lat="42.592960" lon="-2.165389">
        <ele>525.0</ele>
        <time>2019-08-18T11:08:05Z</time>
        <sat>11</sat>
      </trkpt>
      <trkpt lat="42.592961" lon="-2.165514">
        <ele>524.7</ele>
        <time>2019-08-18T11:08:17Z</time>
        <sat>11</sat>
      </trkpt>
      <trkpt lat="42.592965" lon="-2.165642">
        <ele>524.4</ele>
        <time>2019-08-18T11:08:24Z</time>
        <sat>11</sat>
      </trkpt>
      <trkpt lat="42.592964" lon="-2.165767">
        <ele>524.1</ele>
        <time>2019-08-18T11:08:31Z</time>
        <sat>12</sat>
      </trkpt>
      <trkpt lat="42.592970" lon="-2.165892">
        <ele>523.1</ele>
        <time>2019-08-18T11:08:38Z</time>
        <sat>12</sat>
      </trkpt>
      <trkpt lat="42.592965" lon="-2.166015">
        <ele>523.2</ele>
        <time>2019-08-18T11:08:45Z</time>
        <sat>12</sat>
      </trkpt>
      <trkpt lat="42.592967" lon="-2.166154">
        <ele>522.9</ele>
        <time>2019-08-18T11:08:53Z</time>
        <sat>11</sat>
      </trkpt>
      <trkpt lat="42.592975" lon="-2.166282">
        <ele>523.3</ele>
        <time>2019-08-18T11:09:00Z</time>
        <sat>12</sat>
      </trkpt>
      <trkpt lat="42.592976" lon="-2.166420">
        <ele>519.8</ele>
        <time>2019-08-18T11:09:08Z</time>
        <sat>12</sat>
      </trkpt>
      <trkpt lat="42.592978" lon="-2.166555">
        <ele>519.9</ele>
        <time>2019-08-18T11:09:16Z</time>
        <sat>11</sat>
      </trkpt>
      <trkpt lat="42.592974" lon="-2.166691">
        <ele>521.1</ele>
        <time>2019-08-18T11:09:25Z</time>
        <sat>12</sat>
      </trkpt>
      <trkpt lat="42.592978" lon="-2.166829">
        <ele>521.0</ele>
        <time>2019-08-18T11:09:33Z</time>
        <sat>11</sat>
      </trkpt>
      <trkpt lat="42.592972" lon="-2.166955">
        <ele>520.6</ele>
        <time>2019-08-18T11:09:40Z</time>
        <sat>12</sat>
      </trkpt>
      <trkpt lat="42.592975" lon="-2.167080">
        <ele>520.1</ele>
        <time>2019-08-18T11:09:47Z</time>
        <sat>12</sat>
      </trkpt>
      <trkpt lat="42.592978" lon="-2.167217">
        <ele>520.2</ele>
        <time>2019-08-18T11:09:55Z</time>
        <sat>11</sat>
      </trkpt>
      <trkpt lat="42.592979" lon="-2.167345">
        <ele>520.6</ele>
        <time>2019-08-18T11:10:02Z</time>
        <sat>12</sat>
      </trkpt>
      <trkpt lat="42.592982" lon="-2.167479">
        <ele>520.8</ele>
        <time>2019-08-18T11:10:10Z</time>
        <sat>11</sat>
      </trkpt>
      <trkpt lat="42.592975" lon="-2.167603">
        <ele>521.5</ele>
        <time>2019-08-18T11:10:17Z</time>
        <sat>12</sat>
      </trkpt>
      <trkpt lat="42.592977" lon="-2.167741">
        <ele>520.9</ele>
        <time>2019-08-18T11:10:25Z</time>
        <sat>12</sat>
      </trkpt>
      <trkpt lat="42.592980" lon="-2.167867">
        <ele>520.2</ele>
        <time>2019-08-18T11:10:32Z</time>
        <sat>12</sat>
      </trkpt>
      <trkpt lat="42.592978" lon="-2.168005">
        <ele>519.3</ele>
        <time>2019-08-18T11:10:41Z</time>
        <sat>12</sat>
      </trkpt>
      <trkpt lat="42.592983" lon="-2.168144">
        <ele>518.9</ele>
        <time>2019-08-18T11:10:49Z</time>
        <sat>12</sat>
      </trkpt>
      <trkpt lat="42.592981" lon="-2.168271">
        <ele>518.7</ele>
        <time>2019-08-18T11:10:56Z</time>
        <sat>12</sat>
      </trkpt>
      <trkpt lat="42.592984" lon="-2.168406">
        <ele>518.3</ele>
        <time>2019-08-18T11:11:04Z</time>
        <sat>12</sat>
      </trkpt>
      <trkpt lat="42.592984" lon="-2.168546">
        <ele>517.7</ele>
        <time>2019-08-18T11:11:15Z</time>
        <sat>11</sat>
      </trkpt>
      <trkpt lat="42.592989" lon="-2.168674">
        <ele>517.6</ele>
        <time>2019-08-18T11:11:22Z</time>
        <sat>11</sat>
      </trkpt>
      <trkpt lat="42.592986" lon="-2.168803">
        <ele>517.4</ele>
        <time>2019-08-18T11:11:29Z</time>
        <sat>11</sat>
      </trkpt>
      <trkpt lat="42.592996" lon="-2.168931">
        <ele>517.9</ele>
        <time>2019-08-18T11:12:09Z</time>
        <sat>12</sat>
      </trkpt>
      <trkpt lat="42.592998" lon="-2.169058">
        <ele>518.0</ele>
        <time>2019-08-18T11:12:16Z</time>
        <sat>12</sat>
      </trkpt>
      <trkpt lat="42.592994" lon="-2.169181">
        <ele>517.9</ele>
        <time>2019-08-18T11:12:23Z</time>
        <sat>12</sat>
      </trkpt>
      <trkpt lat="42.593005" lon="-2.169310">
        <ele>517.7</ele>
        <time>2019-08-18T11:12:30Z</time>
        <sat>12</sat>
      </trkpt>
      <trkpt lat="42.593004" lon="-2.169438">
        <ele>517.5</ele>
        <time>2019-08-18T11:12:37Z</time>
        <sat>12</sat>
      </trkpt>
      <trkpt lat="42.593031" lon="-2.169555">
        <ele>517.3</ele>
        <time>2019-08-18T11:12:44Z</time>
        <sat>12</sat>
      </trkpt>
      <trkpt lat="42.593074" lon="-2.169669">
        <ele>517.0</ele>
        <time>2019-08-18T11:12:51Z</time>
        <sat>12</sat>
      </trkpt>
      <trkpt lat="42.593151" lon="-2.169758">
        <ele>516.8</ele>
        <time>2019-08-18T11:12:59Z</time>
        <sat>12</sat>
      </trkpt>
      <trkpt lat="42.593242" lon="-2.169800">
        <ele>516.7</ele>
        <time>2019-08-18T11:13:06Z</time>
        <sat>12</sat>
      </trkpt>
      <trkpt lat="42.593337" lon="-2.169829">
        <ele>516.5</ele>
        <time>2019-08-18T11:13:13Z</time>
        <sat>12</sat>
      </trkpt>
      <trkpt lat="42.593430" lon="-2.169844">
        <ele>516.3</ele>
        <time>2019-08-18T11:13:20Z</time>
        <sat>12</sat>
      </trkpt>
      <trkpt lat="42.593526" lon="-2.169881">
        <ele>516.3</ele>
        <time>2019-08-18T11:13:27Z</time>
        <sat>12</sat>
      </trkpt>
      <trkpt lat="42.593616" lon="-2.169920">
        <ele>515.7</ele>
        <time>2019-08-18T11:13:35Z</time>
        <sat>12</sat>
      </trkpt>
      <trkpt lat="42.593703" lon="-2.169979">
        <ele>515.0</ele>
        <time>2019-08-18T11:13:54Z</time>
        <sat>12</sat>
      </trkpt>
      <trkpt lat="42.593737" lon="-2.170092">
        <ele>515.1</ele>
        <time>2019-08-18T11:14:03Z</time>
        <sat>11</sat>
      </trkpt>
      <trkpt lat="42.593736" lon="-2.170223">
        <ele>516.5</ele>
        <time>2019-08-18T11:14:22Z</time>
        <sat>11</sat>
      </trkpt>
      <trkpt lat="42.593741" lon="-2.170347">
        <ele>516.3</ele>
        <time>2019-08-18T11:14:29Z</time>
        <sat>12</sat>
      </trkpt>
      <trkpt lat="42.593738" lon="-2.170469">
        <ele>516.0</ele>
        <time>2019-08-18T11:14:36Z</time>
        <sat>12</sat>
      </trkpt>
      <trkpt lat="42.593743" lon="-2.170592">
        <ele>515.7</ele>
        <time>2019-08-18T11:14:43Z</time>
        <sat>12</sat>
      </trkpt>
      <trkpt lat="42.593739" lon="-2.170725">
        <ele>515.4</ele>
        <time>2019-08-18T11:14:51Z</time>
        <sat>12</sat>
      </trkpt>
      <trkpt lat="42.593734" lon="-2.170847">
        <ele>515.2</ele>
        <time>2019-08-18T11:14:58Z</time>
        <sat>11</sat>
      </trkpt>
      <trkpt lat="42.593738" lon="-2.170970">
        <ele>515.0</ele>
        <time>2019-08-18T11:15:05Z</time>
        <sat>12</sat>
      </trkpt>
      <trkpt lat="42.593731" lon="-2.171098">
        <ele>514.9</ele>
        <time>2019-08-18T11:15:12Z</time>
        <sat>12</sat>
      </trkpt>
      <trkpt lat="42.593732" lon="-2.171225">
        <ele>514.5</ele>
        <time>2019-08-18T11:15:19Z</time>
        <sat>12</sat>
      </trkpt>
      <trkpt lat="42.593725" lon="-2.171354">
        <ele>514.3</ele>
        <time>2019-08-18T11:15:26Z</time>
        <sat>12</sat>
      </trkpt>
      <trkpt lat="42.593729" lon="-2.171483">
        <ele>513.4</ele>
        <time>2019-08-18T11:16:14Z</time>
        <sat>12</sat>
      </trkpt>
      <trkpt lat="42.593725" lon="-2.171610">
        <ele>513.2</ele>
        <time>2019-08-18T11:16:22Z</time>
        <sat>12</sat>
      </trkpt>
      <trkpt lat="42.593725" lon="-2.171746">
        <ele>513.1</ele>
        <time>2019-08-18T11:16:30Z</time>
        <sat>12</sat>
      </trkpt>
      <trkpt lat="42.593729" lon="-2.171871">
        <ele>513.0</ele>
        <time>2019-08-18T11:16:37Z</time>
        <sat>12</sat>
      </trkpt>
      <trkpt lat="42.593725" lon="-2.172002">
        <ele>512.7</ele>
        <time>2019-08-18T11:16:44Z</time>
        <sat>12</sat>
      </trkpt>
      <trkpt lat="42.593726" lon="-2.172127">
        <ele>512.5</ele>
        <time>2019-08-18T11:16:51Z</time>
        <sat>12</sat>
      </trkpt>
      <trkpt lat="42.593725" lon="-2.172259">
        <ele>512.4</ele>
        <time>2019-08-18T11:16:58Z</time>
        <sat>11</sat>
      </trkpt>
      <trkpt lat="42.593723" lon="-2.172382">
        <ele>512.4</ele>
        <time>2019-08-18T11:17:05Z</time>
        <sat>12</sat>
      </trkpt>
      <trkpt lat="42.593728" lon="-2.172509">
        <ele>512.1</ele>
        <time>2019-08-18T11:17:12Z</time>
        <sat>12</sat>
      </trkpt>
      <trkpt lat="42.593723" lon="-2.172637">
        <ele>512.0</ele>
        <time>2019-08-18T11:17:19Z</time>
        <sat>11</sat>
      </trkpt>
      <trkpt lat="42.593715" lon="-2.172760">
        <ele>512.0</ele>
        <time>2019-08-18T11:17:26Z</time>
        <sat>12</sat>
      </trkpt>
      <trkpt lat="42.593729" lon="-2.172887">
        <ele>512.7</ele>
        <time>2019-08-18T11:18:16Z</time>
        <sat>12</sat>
      </trkpt>
      <trkpt lat="42.593710" lon="-2.173010">
        <ele>512.7</ele>
        <time>2019-08-18T11:18:23Z</time>
        <sat>12</sat>
      </trkpt>
      <trkpt lat="42.593702" lon="-2.173134">
        <ele>512.5</ele>
        <time>2019-08-18T11:18:30Z</time>
        <sat>12</sat>
      </trkpt>
      <trkpt lat="42.593696" lon="-2.173272">
        <ele>512.2</ele>
        <time>2019-08-18T11:18:38Z</time>
        <sat>12</sat>
      </trkpt>
      <trkpt lat="42.593697" lon="-2.173404">
        <ele>512.0</ele>
        <time>2019-08-18T11:18:47Z</time>
        <sat>12</sat>
      </trkpt>
      <trkpt lat="42.593688" lon="-2.173532">
        <ele>511.9</ele>
        <time>2019-08-18T11:18:54Z</time>
        <sat>12</sat>
      </trkpt>
      <trkpt lat="42.593678" lon="-2.173657">
        <ele>511.8</ele>
        <time>2019-08-18T11:19:01Z</time>
        <sat>12</sat>
      </trkpt>
      <trkpt lat="42.593682" lon="-2.173796">
        <ele>511.8</ele>
        <time>2019-08-18T11:19:09Z</time>
        <sat>11</sat>
      </trkpt>
      <trkpt lat="42.593671" lon="-2.173923">
        <ele>511.6</ele>
        <time>2019-08-18T11:19:16Z</time>
        <sat>11</sat>
      </trkpt>
      <trkpt lat="42.593659" lon="-2.174060">
        <ele>511.5</ele>
        <time>2019-08-18T11:19:24Z</time>
        <sat>12</sat>
      </trkpt>
      <trkpt lat="42.593648" lon="-2.174184">
        <ele>511.3</ele>
        <time>2019-08-18T11:19:31Z</time>
        <sat>12</sat>
      </trkpt>
      <trkpt lat="42.593620" lon="-2.174302">
        <ele>511.0</ele>
        <time>2019-08-18T11:19:38Z</time>
        <sat>12</sat>
      </trkpt>
      <trkpt lat="42.593589" lon="-2.174417">
        <ele>510.8</ele>
        <time>2019-08-18T11:19:45Z</time>
        <sat>12</sat>
      </trkpt>
      <trkpt lat="42.593551" lon="-2.174543">
        <ele>510.3</ele>
        <time>2019-08-18T11:19:53Z</time>
        <sat>12</sat>
      </trkpt>
      <trkpt lat="42.593514" lon="-2.174670">
        <ele>510.5</ele>
        <time>2019-08-18T11:20:01Z</time>
        <sat>12</sat>
      </trkpt>
      <trkpt lat="42.593474" lon="-2.174793">
        <ele>510.4</ele>
        <time>2019-08-18T11:20:09Z</time>
        <sat>12</sat>
      </trkpt>
      <trkpt lat="42.593438" lon="-2.174917">
        <ele>510.2</ele>
        <time>2019-08-18T11:20:17Z</time>
        <sat>12</sat>
      </trkpt>
      <trkpt lat="42.593400" lon="-2.175039">
        <ele>510.0</ele>
        <time>2019-08-18T11:20:25Z</time>
        <sat>12</sat>
      </trkpt>
      <trkpt lat="42.593367" lon="-2.175165">
        <ele>509.8</ele>
        <time>2019-08-18T11:20:33Z</time>
        <sat>12</sat>
      </trkpt>
      <trkpt lat="42.593327" lon="-2.175287">
        <ele>509.6</ele>
        <time>2019-08-18T11:20:41Z</time>
        <sat>12</sat>
      </trkpt>
      <trkpt lat="42.593293" lon="-2.175415">
        <ele>509.5</ele>
        <time>2019-08-18T11:20:49Z</time>
        <sat>12</sat>
      </trkpt>
      <trkpt lat="42.593258" lon="-2.175532">
        <ele>509.4</ele>
        <time>2019-08-18T11:20:56Z</time>
        <sat>11</sat>
      </trkpt>
      <trkpt lat="42.593227" lon="-2.175648">
        <ele>509.2</ele>
        <time>2019-08-18T11:21:03Z</time>
        <sat>12</sat>
      </trkpt>
      <trkpt lat="42.593190" lon="-2.175775">
        <ele>509.0</ele>
        <time>2019-08-18T11:21:11Z</time>
        <sat>12</sat>
      </trkpt>
      <trkpt lat="42.593152" lon="-2.175899">
        <ele>508.7</ele>
        <time>2019-08-18T11:21:19Z</time>
        <sat>12</sat>
      </trkpt>
      <trkpt lat="42.593122" lon="-2.176018">
        <ele>508.3</ele>
        <time>2019-08-18T11:21:26Z</time>
        <sat>12</sat>
      </trkpt>
      <trkpt lat="42.593080" lon="-2.176144">
        <ele>508.1</ele>
        <time>2019-08-18T11:21:34Z</time>
        <sat>12</sat>
      </trkpt>
      <trkpt lat="42.593042" lon="-2.176272">
        <ele>508.1</ele>
        <time>2019-08-18T11:21:42Z</time>
        <sat>12</sat>
      </trkpt>
      <trkpt lat="42.593005" lon="-2.176400">
        <ele>507.9</ele>
        <time>2019-08-18T11:21:50Z</time>
        <sat>12</sat>
      </trkpt>
      <trkpt lat="42.592972" lon="-2.176517">
        <ele>507.7</ele>
        <time>2019-08-18T11:21:57Z</time>
        <sat>12</sat>
      </trkpt>
      <trkpt lat="42.592934" lon="-2.176648">
        <ele>507.4</ele>
        <time>2019-08-18T11:22:05Z</time>
        <sat>12</sat>
      </trkpt>
      <trkpt lat="42.592894" lon="-2.176775">
        <ele>506.2</ele>
        <time>2019-08-18T11:22:13Z</time>
        <sat>12</sat>
      </trkpt>
      <trkpt lat="42.592851" lon="-2.176892">
        <ele>507.0</ele>
        <time>2019-08-18T11:22:20Z</time>
        <sat>12</sat>
      </trkpt>
      <trkpt lat="42.592792" lon="-2.176987">
        <ele>506.6</ele>
        <time>2019-08-18T11:22:27Z</time>
        <sat>12</sat>
      </trkpt>
      <trkpt lat="42.592720" lon="-2.177082">
        <ele>506.0</ele>
        <time>2019-08-18T11:22:38Z</time>
        <sat>12</sat>
      </trkpt>
      <trkpt lat="42.592647" lon="-2.177168">
        <ele>505.0</ele>
        <time>2019-08-18T11:22:45Z</time>
        <sat>11</sat>
      </trkpt>
      <trkpt lat="42.592569" lon="-2.177252">
        <ele>505.9</ele>
        <time>2019-08-18T11:22:52Z</time>
        <sat>12</sat>
      </trkpt>
      <trkpt lat="42.592481" lon="-2.177320">
        <ele>506.4</ele>
        <time>2019-08-18T11:22:59Z</time>
        <sat>12</sat>
      </trkpt>
      <trkpt lat="42.592397" lon="-2.177398">
        <ele>506.6</ele>
        <time>2019-08-18T11:23:06Z</time>
        <sat>12</sat>
      </trkpt>
      <trkpt lat="42.592317" lon="-2.177458">
        <ele>506.8</ele>
        <time>2019-08-18T11:23:13Z</time>
        <sat>12</sat>
      </trkpt>
      <trkpt lat="42.592244" lon="-2.177533">
        <ele>506.8</ele>
        <time>2019-08-18T11:23:20Z</time>
        <sat>12</sat>
      </trkpt>
      <trkpt lat="42.592158" lon="-2.177581">
        <ele>506.9</ele>
        <time>2019-08-18T11:23:27Z</time>
        <sat>12</sat>
      </trkpt>
      <trkpt lat="42.592072" lon="-2.177631">
        <ele>506.8</ele>
        <time>2019-08-18T11:23:51Z</time>
        <sat>12</sat>
      </trkpt>
      <trkpt lat="42.591971" lon="-2.177645">
        <ele>506.5</ele>
        <time>2019-08-18T11:23:59Z</time>
        <sat>12</sat>
      </trkpt>
      <trkpt lat="42.591874" lon="-2.177663">
        <ele>506.2</ele>
        <time>2019-08-18T11:24:07Z</time>
        <sat>12</sat>
      </trkpt>
      <trkpt lat="42.591777" lon="-2.177658">
        <ele>505.9</ele>
        <time>2019-08-18T11:24:14Z</time>
        <sat>12</sat>
      </trkpt>
      <trkpt lat="42.591683" lon="-2.177636">
        <ele>505.8</ele>
        <time>2019-08-18T11:24:21Z</time>
        <sat>11</sat>
      </trkpt>
      <trkpt lat="42.591589" lon="-2.177669">
        <ele>505.8</ele>
        <time>2019-08-18T11:24:28Z</time>
        <sat>11</sat>
      </trkpt>
      <trkpt lat="42.591494" lon="-2.177719">
        <ele>505.4</ele>
        <time>2019-08-18T11:24:35Z</time>
        <sat>11</sat>
      </trkpt>
      <trkpt lat="42.591407" lon="-2.177790">
        <ele>505.4</ele>
        <time>2019-08-18T11:24:42Z</time>
        <sat>11</sat>
      </trkpt>
      <trkpt lat="42.591343" lon="-2.177878">
        <ele>505.4</ele>
        <time>2019-08-18T11:24:49Z</time>
        <sat>11</sat>
      </trkpt>
      <trkpt lat="42.591307" lon="-2.178000">
        <ele>505.1</ele>
        <time>2019-08-18T11:24:56Z</time>
        <sat>10</sat>
      </trkpt>
      <trkpt lat="42.591271" lon="-2.178126">
        <ele>504.9</ele>
        <time>2019-08-18T11:25:03Z</time>
        <sat>10</sat>
      </trkpt>
      <trkpt lat="42.591237" lon="-2.178254">
        <ele>504.9</ele>
        <time>2019-08-18T11:25:10Z</time>
        <sat>10</sat>
      </trkpt>
      <trkpt lat="42.591194" lon="-2.178377">
        <ele>505.1</ele>
        <time>2019-08-18T11:25:17Z</time>
        <sat>10</sat>
      </trkpt>
      <trkpt lat="42.591157" lon="-2.178498">
        <ele>505.5</ele>
        <time>2019-08-18T11:25:24Z</time>
        <sat>10</sat>
      </trkpt>
      <trkpt lat="42.591129" lon="-2.178617">
        <ele>505.8</ele>
        <time>2019-08-18T11:25:31Z</time>
        <sat>10</sat>
      </trkpt>
      <trkpt lat="42.591093" lon="-2.178730">
        <ele>505.9</ele>
        <time>2019-08-18T11:25:38Z</time>
        <sat>10</sat>
      </trkpt>
      <trkpt lat="42.591045" lon="-2.178835">
        <ele>505.9</ele>
        <time>2019-08-18T11:25:45Z</time>
        <sat>10</sat>
      </trkpt>
      <trkpt lat="42.590978" lon="-2.178930">
        <ele>505.5</ele>
        <time>2019-08-18T11:25:52Z</time>
        <sat>11</sat>
      </trkpt>
      <trkpt lat="42.590899" lon="-2.179002">
        <ele>505.3</ele>
        <time>2019-08-18T11:25:59Z</time>
        <sat>11</sat>
      </trkpt>
      <trkpt lat="42.590829" lon="-2.179084">
        <ele>504.9</ele>
        <time>2019-08-18T11:26:06Z</time>
        <sat>11</sat>
      </trkpt>
      <trkpt lat="42.590755" lon="-2.179172">
        <ele>504.6</ele>
        <time>2019-08-18T11:26:13Z</time>
        <sat>11</sat>
      </trkpt>
      <trkpt lat="42.590688" lon="-2.179260">
        <ele>504.4</ele>
        <time>2019-08-18T11:26:20Z</time>
        <sat>11</sat>
      </trkpt>
      <trkpt lat="42.590620" lon="-2.179349">
        <ele>504.2</ele>
        <time>2019-08-18T11:26:27Z</time>
        <sat>11</sat>
      </trkpt>
      <trkpt lat="42.590534" lon="-2.179429">
        <ele>503.9</ele>
        <time>2019-08-18T11:26:35Z</time>
        <sat>11</sat>
      </trkpt>
      <trkpt lat="42.590453" lon="-2.179494">
        <ele>503.5</ele>
        <time>2019-08-18T11:26:42Z</time>
        <sat>11</sat>
      </trkpt>
      <trkpt lat="42.590371" lon="-2.179547">
        <ele>503.2</ele>
        <time>2019-08-18T11:26:49Z</time>
        <sat>11</sat>
      </trkpt>
      <trkpt lat="42.590276" lon="-2.179595">
        <ele>502.7</ele>
        <time>2019-08-18T11:26:57Z</time>
        <sat>11</sat>
      </trkpt>
      <trkpt lat="42.590194" lon="-2.179651">
        <ele>502.1</ele>
        <time>2019-08-18T11:27:04Z</time>
        <sat>11</sat>
      </trkpt>
      <trkpt lat="42.590117" lon="-2.179732">
        <ele>501.6</ele>
        <time>2019-08-18T11:27:11Z</time>
        <sat>11</sat>
      </trkpt>
      <trkpt lat="42.590053" lon="-2.179824">
        <ele>501.1</ele>
        <time>2019-08-18T11:27:18Z</time>
        <sat>11</sat>
      </trkpt>
      <trkpt lat="42.589981" lon="-2.179913">
        <ele>500.7</ele>
        <time>2019-08-18T11:27:25Z</time>
        <sat>10</sat>
      </trkpt>
      <trkpt lat="42.589913" lon="-2.179998">
        <ele>500.4</ele>
        <time>2019-08-18T11:27:32Z</time>
        <sat>10</sat>
      </trkpt>
      <trkpt lat="42.589859" lon="-2.180110">
        <ele>500.2</ele>
        <time>2019-08-18T11:27:40Z</time>
        <sat>10</sat>
      </trkpt>
      <trkpt lat="42.589816" lon="-2.180232">
        <ele>500.1</ele>
        <time>2019-08-18T11:27:48Z</time>
        <sat>10</sat>
      </trkpt>
      <trkpt lat="42.589771" lon="-2.180354">
        <ele>499.8</ele>
        <time>2019-08-18T11:27:56Z</time>
        <sat>10</sat>
      </trkpt>
      <trkpt lat="42.589733" lon="-2.180465">
        <ele>499.7</ele>
        <time>2019-08-18T11:28:10Z</time>
        <sat>10</sat>
      </trkpt>
      <trkpt lat="42.589654" lon="-2.180542">
        <ele>499.8</ele>
        <time>2019-08-18T11:28:54Z</time>
        <sat>10</sat>
      </trkpt>
      <trkpt lat="42.589566" lon="-2.180600">
        <ele>499.6</ele>
        <time>2019-08-18T11:29:02Z</time>
        <sat>10</sat>
      </trkpt>
      <trkpt lat="42.589485" lon="-2.180655">
        <ele>499.5</ele>
        <time>2019-08-18T11:29:09Z</time>
        <sat>11</sat>
      </trkpt>
      <trkpt lat="42.589400" lon="-2.180697">
        <ele>499.4</ele>
        <time>2019-08-18T11:29:16Z</time>
        <sat>10</sat>
      </trkpt>
      <trkpt lat="42.589310" lon="-2.180751">
        <ele>499.4</ele>
        <time>2019-08-18T11:29:23Z</time>
        <sat>10</sat>
      </trkpt>
      <trkpt lat="42.589212" lon="-2.180784">
        <ele>499.4</ele>
        <time>2019-08-18T11:29:30Z</time>
        <sat>10</sat>
      </trkpt>
      <trkpt lat="42.589125" lon="-2.180827">
        <ele>499.4</ele>
        <time>2019-08-18T11:29:37Z</time>
        <sat>10</sat>
      </trkpt>
      <trkpt lat="42.589031" lon="-2.180867">
        <ele>499.4</ele>
        <time>2019-08-18T11:29:44Z</time>
        <sat>10</sat>
      </trkpt>
      <trkpt lat="42.588939" lon="-2.180896">
        <ele>499.3</ele>
        <time>2019-08-18T11:29:51Z</time>
        <sat>10</sat>
      </trkpt>
      <trkpt lat="42.588852" lon="-2.180934">
        <ele>499.2</ele>
        <time>2019-08-18T11:29:58Z</time>
        <sat>10</sat>
      </trkpt>
      <trkpt lat="42.588759" lon="-2.180952">
        <ele>499.0</ele>
        <time>2019-08-18T11:30:05Z</time>
        <sat>10</sat>
      </trkpt>
      <trkpt lat="42.588670" lon="-2.180980">
        <ele>499.0</ele>
        <time>2019-08-18T11:30:12Z</time>
        <sat>10</sat>
      </trkpt>
      <trkpt lat="42.588573" lon="-2.181004">
        <ele>498.9</ele>
        <time>2019-08-18T11:30:19Z</time>
        <sat>10</sat>
      </trkpt>
      <trkpt lat="42.588481" lon="-2.181017">
        <ele>498.8</ele>
        <time>2019-08-18T11:30:26Z</time>
        <sat>10</sat>
      </trkpt>
      <trkpt lat="42.588389" lon="-2.181035">
        <ele>498.6</ele>
        <time>2019-08-18T11:30:33Z</time>
        <sat>10</sat>
      </trkpt>
      <trkpt lat="42.588291" lon="-2.181072">
        <ele>498.6</ele>
        <time>2019-08-18T11:30:40Z</time>
        <sat>10</sat>
      </trkpt>
      <trkpt lat="42.588207" lon="-2.181119">
        <ele>498.4</ele>
        <time>2019-08-18T11:30:47Z</time>
        <sat>10</sat>
      </trkpt>
      <trkpt lat="42.588109" lon="-2.181160">
        <ele>499.3</ele>
        <time>2019-08-18T11:31:08Z</time>
        <sat>10</sat>
      </trkpt>
      <trkpt lat="42.588025" lon="-2.181207">
        <ele>499.2</ele>
        <time>2019-08-18T11:31:15Z</time>
        <sat>10</sat>
      </trkpt>
      <trkpt lat="42.587961" lon="-2.181299">
        <ele>498.7</ele>
        <time>2019-08-18T11:31:22Z</time>
        <sat>10</sat>
      </trkpt>
      <trkpt lat="42.587884" lon="-2.181381">
        <ele>498.4</ele>
        <time>2019-08-18T11:31:29Z</time>
        <sat>10</sat>
      </trkpt>
      <trkpt lat="42.587785" lon="-2.181416">
        <ele>498.4</ele>
        <time>2019-08-18T11:31:37Z</time>
        <sat>10</sat>
      </trkpt>
      <trkpt lat="42.587694" lon="-2.181444">
        <ele>498.1</ele>
        <time>2019-08-18T11:31:47Z</time>
        <sat>10</sat>
      </trkpt>
      <trkpt lat="42.587595" lon="-2.181454">
        <ele>497.4</ele>
        <time>2019-08-18T11:31:58Z</time>
        <sat>10</sat>
      </trkpt>
      <trkpt lat="42.587504" lon="-2.181473">
        <ele>497.3</ele>
        <time>2019-08-18T11:32:05Z</time>
        <sat>10</sat>
      </trkpt>
      <trkpt lat="42.587415" lon="-2.181511">
        <ele>497.6</ele>
        <time>2019-08-18T11:32:12Z</time>
        <sat>10</sat>
      </trkpt>
      <trkpt lat="42.587319" lon="-2.181550">
        <ele>497.9</ele>
        <time>2019-08-18T11:32:19Z</time>
        <sat>10</sat>
      </trkpt>
      <trkpt lat="42.587231" lon="-2.181600">
        <ele>497.9</ele>
        <time>2019-08-18T11:32:26Z</time>
        <sat>10</sat>
      </trkpt>
      <trkpt lat="42.587140" lon="-2.181652">
        <ele>498.0</ele>
        <time>2019-08-18T11:32:33Z</time>
        <sat>10</sat>
      </trkpt>
      <trkpt lat="42.587052" lon="-2.181694">
        <ele>498.0</ele>
        <time>2019-08-18T11:32:40Z</time>
        <sat>10</sat>
      </trkpt>
      <trkpt lat="42.586967" lon="-2.181737">
        <ele>498.2</ele>
        <time>2019-08-18T11:32:46Z</time>
        <sat>10</sat>
      </trkpt>
      <trkpt lat="42.586878" lon="-2.181785">
        <ele>498.3</ele>
        <time>2019-08-18T11:32:53Z</time>
        <sat>10</sat>
      </trkpt>
      <trkpt lat="42.586786" lon="-2.181834">
        <ele>498.4</ele>
        <time>2019-08-18T11:33:00Z</time>
        <sat>9</sat>
      </trkpt>
      <trkpt lat="42.586697" lon="-2.181876">
        <ele>498.7</ele>
        <time>2019-08-18T11:33:07Z</time>
        <sat>10</sat>
      </trkpt>
      <trkpt lat="42.586612" lon="-2.181927">
        <ele>498.8</ele>
        <time>2019-08-18T11:33:14Z</time>
        <sat>10</sat>
      </trkpt>
      <trkpt lat="42.586513" lon="-2.181963">
        <ele>498.9</ele>
        <time>2019-08-18T11:33:21Z</time>
        <sat>10</sat>
      </trkpt>
      <trkpt lat="42.586422" lon="-2.182006">
        <ele>498.9</ele>
        <time>2019-08-18T11:33:28Z</time>
        <sat>10</sat>
      </trkpt>
      <trkpt lat="42.586321" lon="-2.182036">
        <ele>499.0</ele>
        <time>2019-08-18T11:33:35Z</time>
        <sat>10</sat>
      </trkpt>
      <trkpt lat="42.586230" lon="-2.182057">
        <ele>499.1</ele>
        <time>2019-08-18T11:33:42Z</time>
        <sat>10</sat>
      </trkpt>
      <trkpt lat="42.586133" lon="-2.182085">
        <ele>499.2</ele>
        <time>2019-08-18T11:33:49Z</time>
        <sat>10</sat>
      </trkpt>
      <trkpt lat="42.586037" lon="-2.182098">
        <ele>499.4</ele>
        <time>2019-08-18T11:33:56Z</time>
        <sat>10</sat>
      </trkpt>
      <trkpt lat="42.585946" lon="-2.182119">
        <ele>499.4</ele>
        <time>2019-08-18T11:34:03Z</time>
        <sat>11</sat>
      </trkpt>
      <trkpt lat="42.585848" lon="-2.182132">
        <ele>499.4</ele>
        <time>2019-08-18T11:34:10Z</time>
        <sat>11</sat>
      </trkpt>
      <trkpt lat="42.585756" lon="-2.182150">
        <ele>499.5</ele>
        <time>2019-08-18T11:34:17Z</time>
        <sat>11</sat>
      </trkpt>
      <trkpt lat="42.585659" lon="-2.182167">
        <ele>499.5</ele>
        <time>2019-08-18T11:34:24Z</time>
        <sat>11</sat>
      </trkpt>
      <trkpt lat="42.585567" lon="-2.182172">
        <ele>499.5</ele>
        <time>2019-08-18T11:34:31Z</time>
        <sat>11</sat>
      </trkpt>
      <trkpt lat="42.585474" lon="-2.182188">
        <ele>499.6</ele>
        <time>2019-08-18T11:34:38Z</time>
        <sat>10</sat>
      </trkpt>
      <trkpt lat="42.585377" lon="-2.182196">
        <ele>499.6</ele>
        <time>2019-08-18T11:34:45Z</time>
        <sat>11</sat>
      </trkpt>
      <trkpt lat="42.585283" lon="-2.182217">
        <ele>499.8</ele>
        <time>2019-08-18T11:34:52Z</time>
        <sat>11</sat>
      </trkpt>
      <trkpt lat="42.585190" lon="-2.182259">
        <ele>499.9</ele>
        <time>2019-08-18T11:34:59Z</time>
        <sat>11</sat>
      </trkpt>
      <trkpt lat="42.585095" lon="-2.182271">
        <ele>499.8</ele>
        <time>2019-08-18T11:35:06Z</time>
        <sat>10</sat>
      </trkpt>
      <trkpt lat="42.584997" lon="-2.182312">
        <ele>499.3</ele>
        <time>2019-08-18T11:35:14Z</time>
        <sat>11</sat>
      </trkpt>
      <trkpt lat="42.584908" lon="-2.182351">
        <ele>499.7</ele>
        <time>2019-08-18T11:35:21Z</time>
        <sat>11</sat>
      </trkpt>
      <trkpt lat="42.584823" lon="-2.182399">
        <ele>500.4</ele>
        <time>2019-08-18T11:35:28Z</time>
        <sat>10</sat>
      </trkpt>
      <trkpt lat="42.584750" lon="-2.182493">
        <ele>500.5</ele>
        <time>2019-08-18T11:35:35Z</time>
        <sat>11</sat>
      </trkpt>
      <trkpt lat="42.584691" lon="-2.182598">
        <ele>500.6</ele>
        <time>2019-08-18T11:35:42Z</time>
        <sat>11</sat>
      </trkpt>
      <trkpt lat="42.584643" lon="-2.182709">
        <ele>501.0</ele>
        <time>2019-08-18T11:35:49Z</time>
        <sat>11</sat>
      </trkpt>
      <trkpt lat="42.584588" lon="-2.182816">
        <ele>501.5</ele>
        <time>2019-08-18T11:35:56Z</time>
        <sat>11</sat>
      </trkpt>
      <trkpt lat="42.584536" lon="-2.182926">
        <ele>501.9</ele>
        <time>2019-08-18T11:36:03Z</time>
        <sat>11</sat>
      </trkpt>
      <trkpt lat="42.584469" lon="-2.183014">
        <ele>502.3</ele>
        <time>2019-08-18T11:36:10Z</time>
        <sat>11</sat>
      </trkpt>
      <trkpt lat="42.584397" lon="-2.183092">
        <ele>502.7</ele>
        <time>2019-08-18T11:36:17Z</time>
        <sat>11</sat>
      </trkpt>
      <trkpt lat="42.584321" lon="-2.183167">
        <ele>502.8</ele>
        <time>2019-08-18T11:36:24Z</time>
        <sat>11</sat>
      </trkpt>
      <trkpt lat="42.584226" lon="-2.183222">
        <ele>503.0</ele>
        <time>2019-08-18T11:36:32Z</time>
        <sat>11</sat>
      </trkpt>
      <trkpt lat="42.584135" lon="-2.183283">
        <ele>502.9</ele>
        <time>2019-08-18T11:36:40Z</time>
        <sat>11</sat>
      </trkpt>
      <trkpt lat="42.584049" lon="-2.183327">
        <ele>502.6</ele>
        <time>2019-08-18T11:36:47Z</time>
        <sat>11</sat>
      </trkpt>
      <trkpt lat="42.583961" lon="-2.183369">
        <ele>502.3</ele>
        <time>2019-08-18T11:36:54Z</time>
        <sat>11</sat>
      </trkpt>
      <trkpt lat="42.583882" lon="-2.183437">
        <ele>501.9</ele>
        <time>2019-08-18T11:37:01Z</time>
        <sat>11</sat>
      </trkpt>
      <trkpt lat="42.583802" lon="-2.183513">
        <ele>501.4</ele>
        <time>2019-08-18T11:37:08Z</time>
        <sat>11</sat>
      </trkpt>
      <trkpt lat="42.583730" lon="-2.183599">
        <ele>501.2</ele>
        <time>2019-08-18T11:37:15Z</time>
        <sat>11</sat>
      </trkpt>
      <trkpt lat="42.583667" lon="-2.183696">
        <ele>501.0</ele>
        <time>2019-08-18T11:37:22Z</time>
        <sat>11</sat>
      </trkpt>
      <trkpt lat="42.583597" lon="-2.183790">
        <ele>500.8</ele>
        <time>2019-08-18T11:37:29Z</time>
        <sat>11</sat>
      </trkpt>
      <trkpt lat="42.583541" lon="-2.183889">
        <ele>500.6</ele>
        <time>2019-08-18T11:37:36Z</time>
        <sat>11</sat>
      </trkpt>
      <trkpt lat="42.583476" lon="-2.183984">
        <ele>500.3</ele>
        <time>2019-08-18T11:37:43Z</time>
        <sat>11</sat>
      </trkpt>
      <trkpt lat="42.583417" lon="-2.184083">
        <ele>500.3</ele>
        <time>2019-08-18T11:37:50Z</time>
        <sat>11</sat>
      </trkpt>
      <trkpt lat="42.583352" lon="-2.184182">
        <ele>500.2</ele>
        <time>2019-08-18T11:37:57Z</time>
        <sat>11</sat>
      </trkpt>
      <trkpt lat="42.583292" lon="-2.184292">
        <ele>499.3</ele>
        <time>2019-08-18T11:38:07Z</time>
        <sat>10</sat>
      </trkpt>
      <trkpt lat="42.583223" lon="-2.184394">
        <ele>499.8</ele>
        <time>2019-08-18T11:38:26Z</time>
        <sat>11</sat>
      </trkpt>
      <trkpt lat="42.583162" lon="-2.184499">
        <ele>500.6</ele>
        <time>2019-08-18T11:38:33Z</time>
        <sat>11</sat>
      </trkpt>
      <trkpt lat="42.583092" lon="-2.184595">
        <ele>500.2</ele>
        <time>2019-08-18T11:38:40Z</time>
        <sat>11</sat>
      </trkpt>
      <trkpt lat="42.583032" lon="-2.184697">
        <ele>499.7</ele>
        <time>2019-08-18T11:38:47Z</time>
        <sat>11</sat>
      </trkpt>
      <trkpt lat="42.582968" lon="-2.184791">
        <ele>499.5</ele>
        <time>2019-08-18T11:38:54Z</time>
        <sat>11</sat>
      </trkpt>
      <trkpt lat="42.582909" lon="-2.184890">
        <ele>499.4</ele>
        <time>2019-08-18T11:39:01Z</time>
        <sat>11</sat>
      </trkpt>
      <trkpt lat="42.582849" lon="-2.184991">
        <ele>499.3</ele>
        <time>2019-08-18T11:39:08Z</time>
        <sat>11</sat>
      </trkpt>
      <trkpt lat="42.582786" lon="-2.185087">
        <ele>499.3</ele>
        <time>2019-08-18T11:39:15Z</time>
        <sat>11</sat>
      </trkpt>
      <trkpt lat="42.582727" lon="-2.185184">
        <ele>499.4</ele>
        <time>2019-08-18T11:39:22Z</time>
        <sat>11</sat>
      </trkpt>
      <trkpt lat="42.582668" lon="-2.185278">
        <ele>499.4</ele>
        <time>2019-08-18T11:39:29Z</time>
        <sat>11</sat>
      </trkpt>
      <trkpt lat="42.582608" lon="-2.185376">
        <ele>499.5</ele>
        <time>2019-08-18T11:39:38Z</time>
        <sat>11</sat>
      </trkpt>
      <trkpt lat="42.582547" lon="-2.185470">
        <ele>499.5</ele>
        <time>2019-08-18T11:39:45Z</time>
        <sat>11</sat>
      </trkpt>
      <trkpt lat="42.582490" lon="-2.185570">
        <ele>499.6</ele>
        <time>2019-08-18T11:39:52Z</time>
        <sat>11</sat>
      </trkpt>
      <trkpt lat="42.582425" lon="-2.185672">
        <ele>499.7</ele>
        <time>2019-08-18T11:39:59Z</time>
        <sat>11</sat>
      </trkpt>
      <trkpt lat="42.582361" lon="-2.185770">
        <ele>499.8</ele>
        <time>2019-08-18T11:40:06Z</time>
        <sat>11</sat>
      </trkpt>
      <trkpt lat="42.582308" lon="-2.185878">
        <ele>500.0</ele>
        <time>2019-08-18T11:40:17Z</time>
        <sat>11</sat>
      </trkpt>
      <trkpt lat="42.582239" lon="-2.185975">
        <ele>500.0</ele>
        <time>2019-08-18T11:40:26Z</time>
        <sat>11</sat>
      </trkpt>
      <trkpt lat="42.582174" lon="-2.186073">
        <ele>500.3</ele>
        <time>2019-08-18T11:40:33Z</time>
        <sat>11</sat>
      </trkpt>
      <trkpt lat="42.582107" lon="-2.186176">
        <ele>500.3</ele>
        <time>2019-08-18T11:40:40Z</time>
        <sat>11</sat>
      </trkpt>
      <trkpt lat="42.582045" lon="-2.186276">
        <ele>500.5</ele>
        <time>2019-08-18T11:40:47Z</time>
        <sat>11</sat>
      </trkpt>
      <trkpt lat="42.581984" lon="-2.186377">
        <ele>500.7</ele>
        <time>2019-08-18T11:40:54Z</time>
        <sat>11</sat>
      </trkpt>
      <trkpt lat="42.581918" lon="-2.186479">
        <ele>501.0</ele>
        <time>2019-08-18T11:41:01Z</time>
        <sat>11</sat>
      </trkpt>
      <trkpt lat="42.581854" lon="-2.186575">
        <ele>501.6</ele>
        <time>2019-08-18T11:41:08Z</time>
        <sat>10</sat>
      </trkpt>
      <trkpt lat="42.581797" lon="-2.186677">
        <ele>501.8</ele>
        <time>2019-08-18T11:41:15Z</time>
        <sat>10</sat>
      </trkpt>
      <trkpt lat="42.581733" lon="-2.186777">
        <ele>502.1</ele>
        <time>2019-08-18T11:41:22Z</time>
        <sat>10</sat>
      </trkpt>
      <trkpt lat="42.581666" lon="-2.186870">
        <ele>502.4</ele>
        <time>2019-08-18T11:41:29Z</time>
        <sat>10</sat>
      </trkpt>
      <trkpt lat="42.581607" lon="-2.186970">
        <ele>502.8</ele>
        <time>2019-08-18T11:41:36Z</time>
        <sat>10</sat>
      </trkpt>
      <trkpt lat="42.581538" lon="-2.187052">
        <ele>503.3</ele>
        <time>2019-08-18T11:41:43Z</time>
        <sat>10</sat>
      </trkpt>
      <trkpt lat="42.581474" lon="-2.187144">
        <ele>503.7</ele>
        <time>2019-08-18T11:41:50Z</time>
        <sat>10</sat>
      </trkpt>
      <trkpt lat="42.581398" lon="-2.187240">
        <ele>504.2</ele>
        <time>2019-08-18T11:41:58Z</time>
        <sat>10</sat>
      </trkpt>
      <trkpt lat="42.581308" lon="-2.187311">
        <ele>504.0</ele>
        <time>2019-08-18T11:42:06Z</time>
        <sat>7</sat>
      </trkpt>
      <trkpt lat="42.581216" lon="-2.187357">
        <ele>504.9</ele>
        <time>2019-08-18T11:42:14Z</time>
        <sat>9</sat>
      </trkpt>
      <trkpt lat="42.581125" lon="-2.187397">
        <ele>505.2</ele>
        <time>2019-08-18T11:42:22Z</time>
        <sat>8</sat>
      </trkpt>
      <trkpt lat="42.581030" lon="-2.187445">
        <ele>505.2</ele>
        <time>2019-08-18T11:42:30Z</time>
        <sat>10</sat>
      </trkpt>
      <trkpt lat="42.580940" lon="-2.187502">
        <ele>504.9</ele>
        <time>2019-08-18T11:42:38Z</time>
        <sat>9</sat>
      </trkpt>
      <trkpt lat="42.580857" lon="-2.187554">
        <ele>504.1</ele>
        <time>2019-08-18T11:42:51Z</time>
        <sat>10</sat>
      </trkpt>
      <trkpt lat="42.580777" lon="-2.187626">
        <ele>503.5</ele>
        <time>2019-08-18T11:43:00Z</time>
        <sat>10</sat>
      </trkpt>
      <trkpt lat="42.580698" lon="-2.187693">
        <ele>503.0</ele>
        <time>2019-08-18T11:43:08Z</time>
        <sat>11</sat>
      </trkpt>
      <trkpt lat="42.580615" lon="-2.187769">
        <ele>498.9</ele>
        <time>2019-08-18T11:43:17Z</time>
        <sat>9</sat>
      </trkpt>
      <trkpt lat="42.580533" lon="-2.187844">
        <ele>499.6</ele>
        <time>2019-08-18T11:43:33Z</time>
        <sat>9</sat>
      </trkpt>
      <trkpt lat="42.580455" lon="-2.187916">
        <ele>498.6</ele>
        <time>2019-08-18T11:43:46Z</time>
        <sat>9</sat>
      </trkpt>
      <trkpt lat="42.580369" lon="-2.187990">
        <ele>498.1</ele>
        <time>2019-08-18T11:43:55Z</time>
        <sat>9</sat>
      </trkpt>
      <trkpt lat="42.580290" lon="-2.188067">
        <ele>497.5</ele>
        <time>2019-08-18T11:44:03Z</time>
        <sat>9</sat>
      </trkpt>
      <trkpt lat="42.580206" lon="-2.188154">
        <ele>496.7</ele>
        <time>2019-08-18T11:44:13Z</time>
        <sat>9</sat>
      </trkpt>
      <trkpt lat="42.580122" lon="-2.188228">
        <ele>495.2</ele>
        <time>2019-08-18T11:44:20Z</time>
        <sat>10</sat>
      </trkpt>
      <trkpt lat="42.580039" lon="-2.188303">
        <ele>496.6</ele>
        <time>2019-08-18T11:44:28Z</time>
        <sat>10</sat>
      </trkpt>
      <trkpt lat="42.579958" lon="-2.188384">
        <ele>496.3</ele>
        <time>2019-08-18T11:44:36Z</time>
        <sat>8</sat>
      </trkpt>
      <trkpt lat="42.579877" lon="-2.188444">
        <ele>496.1</ele>
        <time>2019-08-18T11:44:44Z</time>
        <sat>10</sat>
      </trkpt>
      <trkpt lat="42.579806" lon="-2.188518">
        <ele>495.4</ele>
        <time>2019-08-18T11:45:06Z</time>
        <sat>10</sat>
      </trkpt>
      <trkpt lat="42.579709" lon="-2.188549">
        <ele>493.8</ele>
        <time>2019-08-18T11:45:45Z</time>
        <sat>10</sat>
      </trkpt>
      <trkpt lat="42.579612" lon="-2.188545">
        <ele>493.1</ele>
        <time>2019-08-18T11:45:53Z</time>
        <sat>10</sat>
      </trkpt>
      <trkpt lat="42.579512" lon="-2.188546">
        <ele>492.0</ele>
        <time>2019-08-18T11:46:01Z</time>
        <sat>10</sat>
      </trkpt>
      <trkpt lat="42.579417" lon="-2.188550">
        <ele>490.8</ele>
        <time>2019-08-18T11:46:09Z</time>
        <sat>10</sat>
      </trkpt>
      <trkpt lat="42.579322" lon="-2.188572">
        <ele>489.7</ele>
        <time>2019-08-18T11:46:17Z</time>
        <sat>9</sat>
      </trkpt>
      <trkpt lat="42.579232" lon="-2.188615">
        <ele>488.6</ele>
        <time>2019-08-18T11:46:25Z</time>
        <sat>10</sat>
      </trkpt>
      <trkpt lat="42.579139" lon="-2.188668">
        <ele>487.2</ele>
        <time>2019-08-18T11:46:33Z</time>
        <sat>11</sat>
      </trkpt>
      <trkpt lat="42.579056" lon="-2.188717">
        <ele>486.3</ele>
        <time>2019-08-18T11:46:40Z</time>
        <sat>10</sat>
      </trkpt>
      <trkpt lat="42.578965" lon="-2.188777">
        <ele>485.4</ele>
        <time>2019-08-18T11:46:48Z</time>
        <sat>10</sat>
      </trkpt>
      <trkpt lat="42.578882" lon="-2.188837">
        <ele>484.6</ele>
        <time>2019-08-18T11:46:55Z</time>
        <sat>10</sat>
      </trkpt>
      <trkpt lat="42.578800" lon="-2.188887">
        <ele>484.0</ele>
        <time>2019-08-18T11:47:02Z</time>
        <sat>10</sat>
      </trkpt>
      <trkpt lat="42.578715" lon="-2.188945">
        <ele>483.5</ele>
        <time>2019-08-18T11:47:09Z</time>
        <sat>10</sat>
      </trkpt>
      <trkpt lat="42.578633" lon="-2.188996">
        <ele>482.8</ele>
        <time>2019-08-18T11:47:16Z</time>
        <sat>11</sat>
      </trkpt>
      <trkpt lat="42.578547" lon="-2.189049">
        <ele>482.1</ele>
        <time>2019-08-18T11:47:23Z</time>
        <sat>11</sat>
      </trkpt>
      <trkpt lat="42.578462" lon="-2.189110">
        <ele>481.4</ele>
        <time>2019-08-18T11:47:30Z</time>
        <sat>11</sat>
      </trkpt>
      <trkpt lat="42.578370" lon="-2.189168">
        <ele>480.8</ele>
        <time>2019-08-18T11:47:38Z</time>
        <sat>9</sat>
      </trkpt>
      <trkpt lat="42.578276" lon="-2.189222">
        <ele>480.5</ele>
        <time>2019-08-18T11:47:46Z</time>
        <sat>9</sat>
      </trkpt>
      <trkpt lat="42.578194" lon="-2.189276">
        <ele>480.1</ele>
        <time>2019-08-18T11:47:53Z</time>
        <sat>10</sat>
      </trkpt>
      <trkpt lat="42.578109" lon="-2.189328">
        <ele>479.7</ele>
        <time>2019-08-18T11:48:00Z</time>
        <sat>10</sat>
      </trkpt>
      <trkpt lat="42.578017" lon="-2.189379">
        <ele>479.0</ele>
        <time>2019-08-18T11:48:08Z</time>
        <sat>10</sat>
      </trkpt>
      <trkpt lat="42.577923" lon="-2.189434">
        <ele>478.4</ele>
        <time>2019-08-18T11:48:16Z</time>
        <sat>11</sat>
      </trkpt>
      <trkpt lat="42.577835" lon="-2.189486">
        <ele>477.7</ele>
        <time>2019-08-18T11:48:23Z</time>
        <sat>11</sat>
      </trkpt>
      <trkpt lat="42.577749" lon="-2.189527">
        <ele>477.1</ele>
        <time>2019-08-18T11:48:30Z</time>
        <sat>11</sat>
      </trkpt>
      <trkpt lat="42.577657" lon="-2.189586">
        <ele>476.7</ele>
        <time>2019-08-18T11:48:38Z</time>
        <sat>11</sat>
      </trkpt>
      <trkpt lat="42.577571" lon="-2.189635">
        <ele>476.4</ele>
        <time>2019-08-18T11:48:45Z</time>
        <sat>11</sat>
      </trkpt>
      <trkpt lat="42.577486" lon="-2.189675">
        <ele>476.2</ele>
        <time>2019-08-18T11:48:52Z</time>
        <sat>11</sat>
      </trkpt>
      <trkpt lat="42.577391" lon="-2.189724">
        <ele>475.9</ele>
        <time>2019-08-18T11:49:00Z</time>
        <sat>11</sat>
      </trkpt>
      <trkpt lat="42.577303" lon="-2.189776">
        <ele>475.6</ele>
        <time>2019-08-18T11:49:07Z</time>
        <sat>12</sat>
      </trkpt>
      <trkpt lat="42.577212" lon="-2.189810">
        <ele>475.3</ele>
        <time>2019-08-18T11:49:16Z</time>
        <sat>12</sat>
      </trkpt>
      <trkpt lat="42.577132" lon="-2.189866">
        <ele>474.9</ele>
        <time>2019-08-18T11:49:23Z</time>
        <sat>11</sat>
      </trkpt>
      <trkpt lat="42.577041" lon="-2.189902">
        <ele>474.7</ele>
        <time>2019-08-18T11:49:31Z</time>
        <sat>11</sat>
      </trkpt>
      <trkpt lat="42.576955" lon="-2.189951">
        <ele>474.2</ele>
        <time>2019-08-18T11:49:50Z</time>
        <sat>12</sat>
      </trkpt>
      <trkpt lat="42.576872" lon="-2.190018">
        <ele>474.0</ele>
        <time>2019-08-18T11:49:58Z</time>
        <sat>10</sat>
      </trkpt>
      <trkpt lat="42.576787" lon="-2.190066">
        <ele>473.8</ele>
        <time>2019-08-18T11:50:05Z</time>
        <sat>11</sat>
      </trkpt>
      <trkpt lat="42.576692" lon="-2.190118">
        <ele>473.5</ele>
        <time>2019-08-18T11:50:13Z</time>
        <sat>11</sat>
      </trkpt>
      <trkpt lat="42.576606" lon="-2.190167">
        <ele>473.2</ele>
        <time>2019-08-18T11:50:20Z</time>
        <sat>12</sat>
      </trkpt>
      <trkpt lat="42.576517" lon="-2.190213">
        <ele>473.0</ele>
        <time>2019-08-18T11:50:27Z</time>
        <sat>11</sat>
      </trkpt>
      <trkpt lat="42.576423" lon="-2.190265">
        <ele>472.6</ele>
        <time>2019-08-18T11:50:35Z</time>
        <sat>11</sat>
      </trkpt>
      <trkpt lat="42.576340" lon="-2.190328">
        <ele>471.7</ele>
        <time>2019-08-18T11:50:42Z</time>
        <sat>11</sat>
      </trkpt>
      <trkpt lat="42.576263" lon="-2.190401">
        <ele>471.3</ele>
        <time>2019-08-18T11:50:50Z</time>
        <sat>11</sat>
      </trkpt>
      <trkpt lat="42.576191" lon="-2.190485">
        <ele>470.5</ele>
        <time>2019-08-18T11:50:58Z</time>
        <sat>12</sat>
      </trkpt>
      <trkpt lat="42.576121" lon="-2.190572">
        <ele>469.8</ele>
        <time>2019-08-18T11:51:05Z</time>
        <sat>12</sat>
      </trkpt>
      <trkpt lat="42.576043" lon="-2.190651">
        <ele>470.1</ele>
        <time>2019-08-18T11:51:12Z</time>
        <sat>12</sat>
      </trkpt>
      <trkpt lat="42.575968" lon="-2.190728">
        <ele>470.2</ele>
        <time>2019-08-18T11:51:19Z</time>
        <sat>12</sat>
      </trkpt>
      <trkpt lat="42.575895" lon="-2.190816">
        <ele>470.2</ele>
        <time>2019-08-18T11:51:26Z</time>
        <sat>12</sat>
      </trkpt>
      <trkpt lat="42.575818" lon="-2.190896">
        <ele>470.2</ele>
        <time>2019-08-18T11:51:33Z</time>
        <sat>12</sat>
      </trkpt>
      <trkpt lat="42.575742" lon="-2.190979">
        <ele>470.3</ele>
        <time>2019-08-18T11:52:12Z</time>
        <sat>12</sat>
      </trkpt>
      <trkpt lat="42.575662" lon="-2.191059">
        <ele>470.3</ele>
        <time>2019-08-18T11:52:21Z</time>
        <sat>12</sat>
      </trkpt>
      <trkpt lat="42.575595" lon="-2.191155">
        <ele>470.2</ele>
        <time>2019-08-18T11:52:28Z</time>
        <sat>12</sat>
      </trkpt>
      <trkpt lat="42.575522" lon="-2.191241">
        <ele>470.0</ele>
        <time>2019-08-18T11:52:35Z</time>
        <sat>12</sat>
      </trkpt>
      <trkpt lat="42.575454" lon="-2.191324">
        <ele>469.8</ele>
        <time>2019-08-18T11:52:42Z</time>
        <sat>12</sat>
      </trkpt>
      <trkpt lat="42.575377" lon="-2.191403">
        <ele>469.8</ele>
        <time>2019-08-18T11:52:49Z</time>
        <sat>12</sat>
      </trkpt>
      <trkpt lat="42.575300" lon="-2.191487">
        <ele>469.1</ele>
        <time>2019-08-18T11:52:57Z</time>
        <sat>11</sat>
      </trkpt>
      <trkpt lat="42.575230" lon="-2.191568">
        <ele>469.5</ele>
        <time>2019-08-18T11:53:05Z</time>
        <sat>11</sat>
      </trkpt>
      <trkpt lat="42.575158" lon="-2.191655">
        <ele>469.9</ele>
        <time>2019-08-18T11:53:13Z</time>
        <sat>12</sat>
      </trkpt>
      <trkpt lat="42.575089" lon="-2.191740">
        <ele>469.7</ele>
        <time>2019-08-18T11:53:20Z</time>
        <sat>12</sat>
      </trkpt>
      <trkpt lat="42.575013" lon="-2.191820">
        <ele>469.6</ele>
        <time>2019-08-18T11:53:27Z</time>
        <sat>12</sat>
      </trkpt>
      <trkpt lat="42.574944" lon="-2.191906">
        <ele>469.4</ele>
        <time>2019-08-18T11:53:34Z</time>
        <sat>12</sat>
      </trkpt>
      <trkpt lat="42.574874" lon="-2.191988">
        <ele>469.3</ele>
        <time>2019-08-18T11:53:41Z</time>
        <sat>12</sat>
      </trkpt>
      <trkpt lat="42.574803" lon="-2.192069">
        <ele>469.2</ele>
        <time>2019-08-18T11:53:48Z</time>
        <sat>12</sat>
      </trkpt>
      <trkpt lat="42.574737" lon="-2.192154">
        <ele>469.1</ele>
        <time>2019-08-18T11:53:55Z</time>
        <sat>12</sat>
      </trkpt>
      <trkpt lat="42.574673" lon="-2.192250">
        <ele>469.1</ele>
        <time>2019-08-18T11:54:02Z</time>
        <sat>12</sat>
      </trkpt>
      <trkpt lat="42.574604" lon="-2.192347">
        <ele>469.0</ele>
        <time>2019-08-18T11:54:10Z</time>
        <sat>12</sat>
      </trkpt>
      <trkpt lat="42.574544" lon="-2.192448">
        <ele>469.0</ele>
        <time>2019-08-18T11:54:18Z</time>
        <sat>12</sat>
      </trkpt>
      <trkpt lat="42.574478" lon="-2.192551">
        <ele>469.2</ele>
        <time>2019-08-18T11:54:38Z</time>
        <sat>12</sat>
      </trkpt>
      <trkpt lat="42.574404" lon="-2.192634">
        <ele>469.2</ele>
        <time>2019-08-18T11:54:55Z</time>
        <sat>12</sat>
      </trkpt>
      <trkpt lat="42.574321" lon="-2.192699">
        <ele>469.1</ele>
        <time>2019-08-18T11:55:03Z</time>
        <sat>12</sat>
      </trkpt>
      <trkpt lat="42.574253" lon="-2.192780">
        <ele>469.0</ele>
        <time>2019-08-18T11:55:10Z</time>
        <sat>12</sat>
      </trkpt>
      <trkpt lat="42.574175" lon="-2.192864">
        <ele>469.0</ele>
        <time>2019-08-18T11:55:17Z</time>
        <sat>12</sat>
      </trkpt>
      <trkpt lat="42.574096" lon="-2.192946">
        <ele>468.8</ele>
        <time>2019-08-18T11:55:25Z</time>
        <sat>12</sat>
      </trkpt>
      <trkpt lat="42.574032" lon="-2.193045">
        <ele>468.9</ele>
        <time>2019-08-18T11:55:32Z</time>
        <sat>12</sat>
      </trkpt>
      <trkpt lat="42.573962" lon="-2.193127">
        <ele>468.9</ele>
        <time>2019-08-18T11:55:39Z</time>
        <sat>12</sat>
      </trkpt>
      <trkpt lat="42.573879" lon="-2.193207">
        <ele>468.9</ele>
        <time>2019-08-18T11:55:47Z</time>
        <sat>12</sat>
      </trkpt>
      <trkpt lat="42.573790" lon="-2.193271">
        <ele>469.0</ele>
        <time>2019-08-18T11:55:55Z</time>
        <sat>12</sat>
      </trkpt>
      <trkpt lat="42.573707" lon="-2.193341">
        <ele>468.2</ele>
        <time>2019-08-18T11:56:04Z</time>
        <sat>11</sat>
      </trkpt>
      <trkpt lat="42.573609" lon="-2.193369">
        <ele>467.8</ele>
        <time>2019-08-18T11:56:11Z</time>
        <sat>10</sat>
      </trkpt>
      <trkpt lat="42.573507" lon="-2.193392">
        <ele>467.7</ele>
        <time>2019-08-18T11:56:19Z</time>
        <sat>11</sat>
      </trkpt>
      <trkpt lat="42.573410" lon="-2.193408">
        <ele>466.8</ele>
        <time>2019-08-18T11:56:26Z</time>
        <sat>11</sat>
      </trkpt>
      <trkpt lat="42.573313" lon="-2.193439">
        <ele>465.6</ele>
        <time>2019-08-18T11:56:34Z</time>
        <sat>11</sat>
      </trkpt>
      <trkpt lat="42.573217" lon="-2.193454">
        <ele>466.0</ele>
        <time>2019-08-18T11:56:42Z</time>
        <sat>11</sat>
      </trkpt>
      <trkpt lat="42.573121" lon="-2.193445">
        <ele>468.1</ele>
        <time>2019-08-18T11:57:03Z</time>
        <sat>12</sat>
      </trkpt>
      <trkpt lat="42.573022" lon="-2.193426">
        <ele>468.2</ele>
        <time>2019-08-18T11:57:12Z</time>
        <sat>12</sat>
      </trkpt>
      <trkpt lat="42.572922" lon="-2.193413">
        <ele>468.1</ele>
        <time>2019-08-18T11:57:21Z</time>
        <sat>12</sat>
      </trkpt>
      <trkpt lat="42.572827" lon="-2.193404">
        <ele>467.9</ele>
        <time>2019-08-18T11:57:31Z</time>
        <sat>11</sat>
      </trkpt>
      <trkpt lat="42.572737" lon="-2.193343">
        <ele>467.5</ele>
        <time>2019-08-18T11:57:40Z</time>
        <sat>12</sat>
      </trkpt>
      <trkpt lat="42.572644" lon="-2.193324">
        <ele>467.3</ele>
        <time>2019-08-18T11:57:52Z</time>
        <sat>12</sat>
      </trkpt>
      <trkpt lat="42.572554" lon="-2.193303">
        <ele>467.0</ele>
        <time>2019-08-18T11:58:01Z</time>
        <sat>12</sat>
      </trkpt>
      <trkpt lat="42.572455" lon="-2.193280">
        <ele>466.7</ele>
        <time>2019-08-18T11:58:11Z</time>
        <sat>10</sat>
      </trkpt>
      <trkpt lat="42.572368" lon="-2.193241">
        <ele>466.4</ele>
        <time>2019-08-18T11:58:18Z</time>
        <sat>11</sat>
      </trkpt>
      <trkpt lat="42.572277" lon="-2.193228">
        <ele>466.2</ele>
        <time>2019-08-18T11:58:33Z</time>
        <sat>11</sat>
      </trkpt>
      <trkpt lat="42.572181" lon="-2.193240">
        <ele>465.7</ele>
        <time>2019-08-18T11:59:06Z</time>
        <sat>11</sat>
      </trkpt>
      <trkpt lat="42.572091" lon="-2.193208">
        <ele>465.7</ele>
        <time>2019-08-18T11:59:30Z</time>
        <sat>11</sat>
      </trkpt>
      <trkpt lat="42.572003" lon="-2.193151">
        <ele>465.6</ele>
        <time>2019-08-18T11:59:40Z</time>
        <sat>11</sat>
      </trkpt>
      <trkpt lat="42.571905" lon="-2.193121">
        <ele>465.6</ele>
        <time>2019-08-18T11:59:52Z</time>
        <sat>12</sat>
      </trkpt>
      <trkpt lat="42.571812" lon="-2.193075">
        <ele>465.5</ele>
        <time>2019-08-18T12:00:00Z</time>
        <sat>10</sat>
      </trkpt>
      <trkpt lat="42.571723" lon="-2.193002">
        <ele>465.4</ele>
        <time>2019-08-18T12:00:07Z</time>
        <sat>11</sat>
      </trkpt>
      <trkpt lat="42.571638" lon="-2.192956">
        <ele>465.2</ele>
        <time>2019-08-18T12:00:14Z</time>
        <sat>11</sat>
      </trkpt>
      <trkpt lat="42.571551" lon="-2.192907">
        <ele>465.0</ele>
        <time>2019-08-18T12:00:21Z</time>
        <sat>11</sat>
      </trkpt>
      <trkpt lat="42.571457" lon="-2.192854">
        <ele>464.8</ele>
        <time>2019-08-18T12:00:28Z</time>
        <sat>11</sat>
      </trkpt>
      <trkpt lat="42.571367" lon="-2.192809">
        <ele>464.7</ele>
        <time>2019-08-18T12:00:34Z</time>
        <sat>11</sat>
      </trkpt>
      <trkpt lat="42.571285" lon="-2.192738">
        <ele>464.5</ele>
        <time>2019-08-18T12:00:44Z</time>
        <sat>11</sat>
      </trkpt>
      <trkpt lat="42.571194" lon="-2.192700">
        <ele>464.3</ele>
        <time>2019-08-18T12:00:55Z</time>
        <sat>12</sat>
      </trkpt>
      <trkpt lat="42.571098" lon="-2.192636">
        <ele>464.2</ele>
        <time>2019-08-18T12:01:02Z</time>
        <sat>11</sat>
      </trkpt>
      <trkpt lat="42.571007" lon="-2.192601">
        <ele>463.9</ele>
        <time>2019-08-18T12:01:10Z</time>
        <sat>11</sat>
      </trkpt>
      <trkpt lat="42.570916" lon="-2.192566">
        <ele>464.2</ele>
        <time>2019-08-18T12:01:19Z</time>
        <sat>11</sat>
      </trkpt>
      <trkpt lat="42.570827" lon="-2.192508">
        <ele>464.5</ele>
        <time>2019-08-18T12:01:25Z</time>
        <sat>11</sat>
      </trkpt>
      <trkpt lat="42.570745" lon="-2.192450">
        <ele>464.5</ele>
        <time>2019-08-18T12:01:30Z</time>
        <sat>11</sat>
      </trkpt>
      <trkpt lat="42.570660" lon="-2.192399">
        <ele>464.9</ele>
        <time>2019-08-18T12:01:38Z</time>
        <sat>11</sat>
      </trkpt>
      <trkpt lat="42.570570" lon="-2.192339">
        <ele>465.3</ele>
        <time>2019-08-18T12:01:45Z</time>
        <sat>11</sat>
      </trkpt>
      <trkpt lat="42.570472" lon="-2.192327">
        <ele>465.5</ele>
        <time>2019-08-18T12:01:51Z</time>
        <sat>11</sat>
      </trkpt>
      <trkpt lat="42.570405" lon="-2.192307">
        <ele>465.9</ele>
        <time>2019-08-18T12:02:10Z</time>
        <sat>10</sat>
      </trkpt>
      <trkpt lat="42.570354" lon="-2.192277">
        <ele>464.8</ele>
        <time>2019-08-18T12:02:50Z</time>
        <sat>12</sat>
      </trkpt>
      <trkpt lat="42.570287" lon="-2.192222">
        <ele>465.4</ele>
        <time>2019-08-18T12:02:59Z</time>
        <sat>11</sat>
      </trkpt>
      <trkpt lat="42.570209" lon="-2.192159">
        <ele>465.8</ele>
        <time>2019-08-18T12:03:07Z</time>
        <sat>10</sat>
      </trkpt>
      <trkpt lat="42.570114" lon="-2.192135">
        <ele>465.6</ele>
        <time>2019-08-18T12:03:16Z</time>
        <sat>11</sat>
      </trkpt>
      <trkpt lat="42.570030" lon="-2.192106">
        <ele>465.3</ele>
        <time>2019-08-18T12:03:25Z</time>
        <sat>11</sat>
      </trkpt>
      <trkpt lat="42.569937" lon="-2.192082">
        <ele>465.0</ele>
        <time>2019-08-18T12:03:32Z</time>
        <sat>11</sat>
      </trkpt>
      <trkpt lat="42.569818" lon="-2.192011">
        <ele>464.8</ele>
        <time>2019-08-18T12:03:38Z</time>
        <sat>10</sat>
      </trkpt>
      <trkpt lat="42.569746" lon="-2.191960">
        <ele>464.6</ele>
        <time>2019-08-18T12:03:45Z</time>
        <sat>11</sat>
      </trkpt>
      <trkpt lat="42.569666" lon="-2.191900">
        <ele>464.2</ele>
        <time>2019-08-18T12:03:57Z</time>
        <sat>9</sat>
      </trkpt>
      <trkpt lat="42.569590" lon="-2.191850">
        <ele>463.6</ele>
        <time>2019-08-18T12:05:01Z</time>
        <sat>10</sat>
      </trkpt>
      <trkpt lat="42.569500" lon="-2.191868">
        <ele>463.3</ele>
        <time>2019-08-18T12:06:05Z</time>
        <sat>11</sat>
      </trkpt>
      <trkpt lat="42.569414" lon="-2.191924">
        <ele>462.9</ele>
        <time>2019-08-18T12:06:37Z</time>
        <sat>6</sat>
      </trkpt>
      <trkpt lat="42.569401" lon="-2.191979">
        <ele>462.0</ele>
        <time>2019-08-18T12:06:50Z</time>
        <sat>3</sat>
      </trkpt>
      <trkpt lat="42.569377" lon="-2.192017">
        <ele>462.0</ele>
        <time>2019-08-18T12:06:50Z</time>
        <sat>3</sat>
      </trkpt>
      <trkpt lat="42.569368" lon="-2.192042">
        <ele>462.0</ele>
        <time>2019-08-18T12:06:50Z</time>
        <sat>3</sat>
      </trkpt>
    </trkseg>
    <trkseg>
      <trkpt lat="42.569377" lon="-2.192065">
        <ele>448.3</ele>
        <time>2019-08-19T05:06:06Z</time>
        <sat>5</sat>
      </trkpt>
      <trkpt lat="42.569337" lon="-2.192168">
        <ele>446.8</ele>
        <time>2019-08-19T05:06:13Z</time>
        <sat>5</sat>
      </trkpt>
      <trkpt lat="42.569264" lon="-2.192283">
        <ele>446.8</ele>
        <time>2019-08-19T05:06:22Z</time>
        <sat>5</sat>
      </trkpt>
      <trkpt lat="42.569193" lon="-2.192340">
        <ele>447.0</ele>
        <time>2019-08-19T05:06:29Z</time>
        <sat>5</sat>
      </trkpt>
      <trkpt lat="42.569181" lon="-2.192371">
        <ele>446.7</ele>
        <time>2019-08-19T05:06:33Z</time>
        <sat>5</sat>
      </trkpt>
      <trkpt lat="42.569169" lon="-2.192445">
        <ele>446.1</ele>
        <time>2019-08-19T05:06:46Z</time>
        <sat>5</sat>
      </trkpt>
      <trkpt lat="42.569133" lon="-2.192525">
        <ele>445.3</ele>
        <time>2019-08-19T05:06:53Z</time>
        <sat>5</sat>
      </trkpt>
      <trkpt lat="42.569117" lon="-2.192535">
        <ele>447.0</ele>
        <time>2019-08-19T05:07:28Z</time>
        <sat>6</sat>
      </trkpt>
      <trkpt lat="42.569091" lon="-2.192573">
        <ele>446.8</ele>
        <time>2019-08-19T05:07:40Z</time>
        <sat>6</sat>
      </trkpt>
      <trkpt lat="42.569041" lon="-2.192800">
        <ele>446.4</ele>
        <time>2019-08-19T05:07:54Z</time>
        <sat>6</sat>
      </trkpt>
      <trkpt lat="42.569025" lon="-2.192860">
        <ele>446.2</ele>
        <time>2019-08-19T05:07:58Z</time>
        <sat>6</sat>
      </trkpt>
      <trkpt lat="42.568984" lon="-2.192939">
        <ele>446.0</ele>
        <time>2019-08-19T05:08:04Z</time>
        <sat>6</sat>
      </trkpt>
      <trkpt lat="42.568959" lon="-2.193046">
        <ele>445.6</ele>
        <time>2019-08-19T05:08:12Z</time>
        <sat>5</sat>
      </trkpt>
      <trkpt lat="42.568948" lon="-2.193115">
        <ele>445.2</ele>
        <time>2019-08-19T05:08:21Z</time>
        <sat>6</sat>
      </trkpt>
      <trkpt lat="42.568951" lon="-2.193174">
        <ele>445.2</ele>
        <time>2019-08-19T05:08:26Z</time>
        <sat>6</sat>
      </trkpt>
      <trkpt lat="42.568896" lon="-2.193226">
        <ele>445.1</ele>
        <time>2019-08-19T05:08:34Z</time>
        <sat>7</sat>
      </trkpt>
      <trkpt lat="42.568890" lon="-2.193270">
        <ele>444.8</ele>
        <time>2019-08-19T05:08:53Z</time>
        <sat>7</sat>
      </trkpt>
      <trkpt lat="42.568873" lon="-2.193336">
        <ele>445.1</ele>
        <time>2019-08-19T05:08:58Z</time>
        <sat>7</sat>
      </trkpt>
      <trkpt lat="42.568862" lon="-2.193410">
        <ele>444.0</ele>
        <time>2019-08-19T05:09:07Z</time>
        <sat>7</sat>
      </trkpt>
      <trkpt lat="42.568846" lon="-2.193466">
        <ele>444.7</ele>
        <time>2019-08-19T05:09:11Z</time>
        <sat>7</sat>
      </trkpt>
      <trkpt lat="42.568800" lon="-2.193610">
        <ele>444.4</ele>
        <time>2019-08-19T05:09:24Z</time>
        <sat>7</sat>
      </trkpt>
      <trkpt lat="42.568762" lon="-2.193713">
        <ele>444.3</ele>
        <time>2019-08-19T05:09:31Z</time>
        <sat>7</sat>
      </trkpt>
      <trkpt lat="42.568745" lon="-2.193792">
        <ele>444.4</ele>
        <time>2019-08-19T05:09:37Z</time>
        <sat>7</sat>
      </trkpt>
      <trkpt lat="42.568704" lon="-2.193914">
        <ele>444.3</ele>
        <time>2019-08-19T05:09:50Z</time>
        <sat>7</sat>
      </trkpt>
      <trkpt lat="42.568699" lon="-2.193980">
        <ele>444.3</ele>
        <time>2019-08-19T05:09:55Z</time>
        <sat>7</sat>
      </trkpt>
      <trkpt lat="42.568658" lon="-2.194131">
        <ele>444.6</ele>
        <time>2019-08-19T05:10:04Z</time>
        <sat>6</sat>
      </trkpt>
      <trkpt lat="42.568618" lon="-2.194237">
        <ele>444.3</ele>
        <time>2019-08-19T05:10:11Z</time>
        <sat>7</sat>
      </trkpt>
      <trkpt lat="42.568532" lon="-2.194573">
        <ele>446.9</ele>
        <time>2019-08-19T05:12:15Z</time>
        <sat>8</sat>
      </trkpt>
      <trkpt lat="42.568519" lon="-2.194597">
        <ele>447.0</ele>
        <time>2019-08-19T05:12:17Z</time>
        <sat>8</sat>
      </trkpt>
      <trkpt lat="42.568498" lon="-2.194710">
        <ele>447.1</ele>
        <time>2019-08-19T05:12:24Z</time>
        <sat>7</sat>
      </trkpt>
      <trkpt lat="42.568470" lon="-2.194782">
        <ele>447.3</ele>
        <time>2019-08-19T05:12:28Z</time>
        <sat>8</sat>
      </trkpt>
      <trkpt lat="42.568454" lon="-2.194950">
        <ele>447.8</ele>
        <time>2019-08-19T05:12:36Z</time>
        <sat>7</sat>
      </trkpt>
      <trkpt lat="42.568417" lon="-2.195059">
        <ele>448.3</ele>
        <time>2019-08-19T05:12:42Z</time>
        <sat>8</sat>
      </trkpt>
      <trkpt lat="42.568397" lon="-2.195184">
        <ele>448.7</ele>
        <time>2019-08-19T05:12:49Z</time>
        <sat>8</sat>
      </trkpt>
      <trkpt lat="42.568367" lon="-2.195297">
        <ele>449.2</ele>
        <time>2019-08-19T05:12:56Z</time>
        <sat>8</sat>
      </trkpt>
      <trkpt lat="42.568346" lon="-2.195443">
        <ele>449.8</ele>
        <time>2019-08-19T05:13:05Z</time>
        <sat>8</sat>
      </trkpt>
      <trkpt lat="42.568318" lon="-2.195549">
        <ele>450.1</ele>
        <time>2019-08-19T05:13:12Z</time>
        <sat>8</sat>
      </trkpt>
      <trkpt lat="42.568280" lon="-2.195626">
        <ele>450.5</ele>
        <time>2019-08-19T05:13:17Z</time>
        <sat>8</sat>
      </trkpt>
      <trkpt lat="42.568275" lon="-2.195748">
        <ele>451.1</ele>
        <time>2019-08-19T05:13:24Z</time>
        <sat>8</sat>
      </trkpt>
      <trkpt lat="42.568246" lon="-2.195869">
        <ele>451.7</ele>
        <time>2019-08-19T05:13:31Z</time>
        <sat>8</sat>
      </trkpt>
      <trkpt lat="42.568218" lon="-2.195950">
        <ele>452.1</ele>
        <time>2019-08-19T05:13:36Z</time>
        <sat>8</sat>
      </trkpt>
      <trkpt lat="42.568157" lon="-2.196035">
        <ele>452.9</ele>
        <time>2019-08-19T05:13:43Z</time>
        <sat>8</sat>
      </trkpt>
      <trkpt lat="42.568143" lon="-2.196106">
        <ele>453.4</ele>
        <time>2019-08-19T05:13:47Z</time>
        <sat>8</sat>
      </trkpt>
      <trkpt lat="42.568113" lon="-2.196162">
        <ele>454.0</ele>
        <time>2019-08-19T05:13:51Z</time>
        <sat>8</sat>
      </trkpt>
      <trkpt lat="42.568094" lon="-2.196233">
        <ele>454.4</ele>
        <time>2019-08-19T05:13:55Z</time>
        <sat>8</sat>
      </trkpt>
      <trkpt lat="42.568038" lon="-2.196407">
        <ele>455.8</ele>
        <time>2019-08-19T05:14:05Z</time>
        <sat>8</sat>
      </trkpt>
      <trkpt lat="42.567939" lon="-2.196862">
        <ele>458.1</ele>
        <time>2019-08-19T05:14:33Z</time>
        <sat>8</sat>
      </trkpt>
      <trkpt lat="42.567917" lon="-2.196971">
        <ele>458.3</ele>
        <time>2019-08-19T05:14:39Z</time>
        <sat>8</sat>
      </trkpt>
      <trkpt lat="42.567885" lon="-2.197052">
        <ele>458.7</ele>
        <time>2019-08-19T05:14:44Z</time>
        <sat>8</sat>
      </trkpt>
      <trkpt lat="42.567864" lon="-2.197139">
        <ele>459.2</ele>
        <time>2019-08-19T05:14:51Z</time>
        <sat>8</sat>
      </trkpt>
      <trkpt lat="42.567868" lon="-2.197167">
        <ele>459.5</ele>
        <time>2019-08-19T05:14:59Z</time>
        <sat>8</sat>
      </trkpt>
      <trkpt lat="42.567828" lon="-2.197278">
        <ele>460.0</ele>
        <time>2019-08-19T05:15:06Z</time>
        <sat>8</sat>
      </trkpt>
      <trkpt lat="42.567760" lon="-2.197441">
        <ele>460.8</ele>
        <time>2019-08-19T05:15:16Z</time>
        <sat>8</sat>
      </trkpt>
      <trkpt lat="42.567729" lon="-2.197563">
        <ele>461.4</ele>
        <time>2019-08-19T05:15:23Z</time>
        <sat>8</sat>
      </trkpt>
      <trkpt lat="42.567697" lon="-2.197636">
        <ele>461.7</ele>
        <time>2019-08-19T05:15:28Z</time>
        <sat>8</sat>
      </trkpt>
      <trkpt lat="42.567641" lon="-2.197830">
        <ele>462.5</ele>
        <time>2019-08-19T05:15:40Z</time>
        <sat>8</sat>
      </trkpt>
      <trkpt lat="42.567628" lon="-2.197859">
        <ele>462.7</ele>
        <time>2019-08-19T05:15:42Z</time>
        <sat>8</sat>
      </trkpt>
      <trkpt lat="42.567572" lon="-2.197953">
        <ele>463.3</ele>
        <time>2019-08-19T05:15:50Z</time>
        <sat>8</sat>
      </trkpt>
      <trkpt lat="42.567517" lon="-2.198084">
        <ele>464.5</ele>
        <time>2019-08-19T05:15:59Z</time>
        <sat>8</sat>
      </trkpt>
      <trkpt lat="42.567499" lon="-2.198240">
        <ele>464.4</ele>
        <time>2019-08-19T05:16:07Z</time>
        <sat>8</sat>
      </trkpt>
      <trkpt lat="42.567459" lon="-2.198372">
        <ele>466.0</ele>
        <time>2019-08-19T05:16:15Z</time>
        <sat>8</sat>
      </trkpt>
      <trkpt lat="42.567405" lon="-2.198520">
        <ele>467.6</ele>
        <time>2019-08-19T05:16:24Z</time>
        <sat>8</sat>
      </trkpt>
      <trkpt lat="42.567364" lon="-2.198614">
        <ele>468.6</ele>
        <time>2019-08-19T05:16:30Z</time>
        <sat>8</sat>
      </trkpt>
      <trkpt lat="42.567334" lon="-2.198643">
        <ele>470.2</ele>
        <time>2019-08-19T05:16:53Z</time>
        <sat>7</sat>
      </trkpt>
      <trkpt lat="42.567293" lon="-2.198705">
        <ele>470.2</ele>
        <time>2019-08-19T05:17:00Z</time>
        <sat>7</sat>
      </trkpt>
      <trkpt lat="42.567254" lon="-2.198810">
        <ele>470.1</ele>
        <time>2019-08-19T05:17:07Z</time>
        <sat>7</sat>
      </trkpt>
      <trkpt lat="42.567225" lon="-2.198982">
        <ele>470.3</ele>
        <time>2019-08-19T05:18:45Z</time>
        <sat>9</sat>
      </trkpt>
      <trkpt lat="42.567201" lon="-2.199136">
        <ele>470.1</ele>
        <time>2019-08-19T05:18:54Z</time>
        <sat>9</sat>
      </trkpt>
      <trkpt lat="42.567200" lon="-2.199228">
        <ele>470.2</ele>
        <time>2019-08-19T05:18:59Z</time>
        <sat>9</sat>
      </trkpt>
      <trkpt lat="42.567160" lon="-2.199384">
        <ele>470.5</ele>
        <time>2019-08-19T05:19:09Z</time>
        <sat>9</sat>
      </trkpt>
      <trkpt lat="42.567169" lon="-2.199382">
        <ele>470.5</ele>
        <time>2019-08-19T05:19:22Z</time>
        <sat>8</sat>
      </trkpt>
      <trkpt lat="42.567161" lon="-2.199398">
        <ele>470.3</ele>
        <time>2019-08-19T05:19:38Z</time>
        <sat>8</sat>
      </trkpt>
      <trkpt lat="42.567145" lon="-2.199381">
        <ele>470.3</ele>
        <time>2019-08-19T05:19:46Z</time>
        <sat>8</sat>
      </trkpt>
      <trkpt lat="42.567140" lon="-2.199349">
        <ele>470.1</ele>
        <time>2019-08-19T05:19:58Z</time>
        <sat>8</sat>
      </trkpt>
      <trkpt lat="42.567149" lon="-2.199358">
        <ele>470.1</ele>
        <time>2019-08-19T05:20:25Z</time>
        <sat>9</sat>
      </trkpt>
      <trkpt lat="42.567150" lon="-2.199392">
        <ele>470.7</ele>
        <time>2019-08-19T05:20:54Z</time>
        <sat>8</sat>
      </trkpt>
      <trkpt lat="42.567161" lon="-2.199401">
        <ele>470.8</ele>
        <time>2019-08-19T05:21:02Z</time>
        <sat>8</sat>
      </trkpt>
      <trkpt lat="42.567161" lon="-2.199397">
        <ele>471.3</ele>
        <time>2019-08-19T05:21:16Z</time>
        <sat>7</sat>
      </trkpt>
      <trkpt lat="42.567145" lon="-2.199383">
        <ele>471.3</ele>
        <time>2019-08-19T05:21:45Z</time>
        <sat>9</sat>
      </trkpt>
      <trkpt lat="42.567153" lon="-2.199392">
        <ele>471.3</ele>
        <time>2019-08-19T05:21:58Z</time>
        <sat>7</sat>
      </trkpt>
      <trkpt lat="42.567132" lon="-2.199372">
        <ele>471.2</ele>
        <time>2019-08-19T05:22:04Z</time>
        <sat>8</sat>
      </trkpt>
      <trkpt lat="42.567169" lon="-2.199405">
        <ele>471.4</ele>
        <time>2019-08-19T05:22:12Z</time>
        <sat>8</sat>
      </trkpt>
      <trkpt lat="42.567172" lon="-2.199476">
        <ele>471.5</ele>
        <time>2019-08-19T05:22:16Z</time>
        <sat>9</sat>
      </trkpt>
      <trkpt lat="42.567160" lon="-2.199552">
        <ele>471.5</ele>
        <time>2019-08-19T05:22:21Z</time>
        <sat>9</sat>
      </trkpt>
      <trkpt lat="42.567148" lon="-2.199584">
        <ele>471.5</ele>
        <time>2019-08-19T05:22:23Z</time>
        <sat>9</sat>
      </trkpt>
      <trkpt lat="42.567132" lon="-2.199662">
        <ele>471.5</ele>
        <time>2019-08-19T05:22:28Z</time>
        <sat>9</sat>
      </trkpt>
      <trkpt lat="42.567118" lon="-2.199780">
        <ele>471.6</ele>
        <time>2019-08-19T05:22:36Z</time>
        <sat>9</sat>
      </trkpt>
      <trkpt lat="42.567133" lon="-2.200000">
        <ele>471.9</ele>
        <time>2019-08-19T05:22:50Z</time>
        <sat>9</sat>
      </trkpt>
      <trkpt lat="42.567137" lon="-2.200115">
        <ele>471.9</ele>
        <time>2019-08-19T05:22:57Z</time>
        <sat>9</sat>
      </trkpt>
      <trkpt lat="42.567134" lon="-2.200295">
        <ele>472.3</ele>
        <time>2019-08-19T05:23:08Z</time>
        <sat>8</sat>
      </trkpt>
      <trkpt lat="42.567115" lon="-2.200497">
        <ele>472.7</ele>
        <time>2019-08-19T05:23:20Z</time>
        <sat>9</sat>
      </trkpt>
      <trkpt lat="42.567112" lon="-2.200553">
        <ele>472.7</ele>
        <time>2019-08-19T05:23:23Z</time>
        <sat>9</sat>
      </trkpt>
      <trkpt lat="42.567089" lon="-2.200677">
        <ele>472.7</ele>
        <time>2019-08-19T05:23:31Z</time>
        <sat>9</sat>
      </trkpt>
      <trkpt lat="42.567076" lon="-2.200890">
        <ele>473.2</ele>
        <time>2019-08-19T05:23:44Z</time>
        <sat>9</sat>
      </trkpt>
      <trkpt lat="42.567063" lon="-2.200954">
        <ele>473.4</ele>
        <time>2019-08-19T05:23:48Z</time>
        <sat>9</sat>
      </trkpt>
      <trkpt lat="42.567054" lon="-2.201036">
        <ele>473.5</ele>
        <time>2019-08-19T05:23:53Z</time>
        <sat>9</sat>
      </trkpt>
      <trkpt lat="42.567032" lon="-2.201116">
        <ele>473.7</ele>
        <time>2019-08-19T05:23:58Z</time>
        <sat>9</sat>
      </trkpt>
      <trkpt lat="42.567027" lon="-2.201183">
        <ele>473.9</ele>
        <time>2019-08-19T05:24:02Z</time>
        <sat>9</sat>
      </trkpt>
      <trkpt lat="42.566984" lon="-2.201434">
        <ele>473.6</ele>
        <time>2019-08-19T05:24:17Z</time>
        <sat>9</sat>
      </trkpt>
      <trkpt lat="42.566978" lon="-2.201497">
        <ele>473.4</ele>
        <time>2019-08-19T05:24:21Z</time>
        <sat>9</sat>
      </trkpt>
      <trkpt lat="42.566952" lon="-2.201617">
        <ele>473.7</ele>
        <time>2019-08-19T05:24:28Z</time>
        <sat>9</sat>
      </trkpt>
      <trkpt lat="42.566937" lon="-2.201735">
        <ele>473.4</ele>
        <time>2019-08-19T05:24:35Z</time>
        <sat>9</sat>
      </trkpt>
      <trkpt lat="42.566924" lon="-2.201787">
        <ele>473.2</ele>
        <time>2019-08-19T05:24:38Z</time>
        <sat>9</sat>
      </trkpt>
      <trkpt lat="42.566884" lon="-2.202029">
        <ele>472.2</ele>
        <time>2019-08-19T05:24:52Z</time>
        <sat>9</sat>
      </trkpt>
      <trkpt lat="42.566877" lon="-2.202095">
        <ele>471.8</ele>
        <time>2019-08-19T05:24:56Z</time>
        <sat>9</sat>
      </trkpt>
      <trkpt lat="42.566838" lon="-2.202313">
        <ele>470.8</ele>
        <time>2019-08-19T05:25:10Z</time>
        <sat>9</sat>
      </trkpt>
      <trkpt lat="42.566829" lon="-2.202392">
        <ele>470.6</ele>
        <time>2019-08-19T05:25:15Z</time>
        <sat>9</sat>
      </trkpt>
      <trkpt lat="42.566783" lon="-2.202579">
        <ele>470.0</ele>
        <time>2019-08-19T05:25:27Z</time>
        <sat>9</sat>
      </trkpt>
      <trkpt lat="42.566734" lon="-2.202741">
        <ele>469.8</ele>
        <time>2019-08-19T05:25:37Z</time>
        <sat>9</sat>
      </trkpt>
      <trkpt lat="42.566704" lon="-2.202899">
        <ele>469.5</ele>
        <time>2019-08-19T05:25:46Z</time>
        <sat>9</sat>
      </trkpt>
      <trkpt lat="42.566673" lon="-2.202984">
        <ele>469.5</ele>
        <time>2019-08-19T05:25:51Z</time>
        <sat>9</sat>
      </trkpt>
      <trkpt lat="42.566631" lon="-2.203192">
        <ele>469.3</ele>
        <time>2019-08-19T05:26:03Z</time>
        <sat>9</sat>
      </trkpt>
      <trkpt lat="42.566619" lon="-2.203277">
        <ele>468.9</ele>
        <time>2019-08-19T05:26:08Z</time>
        <sat>9</sat>
      </trkpt>
      <trkpt lat="42.566615" lon="-2.203361">
        <ele>469.5</ele>
        <time>2019-08-19T05:26:13Z</time>
        <sat>9</sat>
      </trkpt>
      <trkpt lat="42.566600" lon="-2.203427">
        <ele>469.5</ele>
        <time>2019-08-19T05:26:17Z</time>
        <sat>9</sat>
      </trkpt>
      <trkpt lat="42.566592" lon="-2.203513">
        <ele>469.4</ele>
        <time>2019-08-19T05:26:22Z</time>
        <sat>9</sat>
      </trkpt>
      <trkpt lat="42.566578" lon="-2.203557">
        <ele>469.4</ele>
        <time>2019-08-19T05:26:25Z</time>
        <sat>8</sat>
      </trkpt>
      <trkpt lat="42.566559" lon="-2.203646">
        <ele>469.0</ele>
        <time>2019-08-19T05:26:30Z</time>
        <sat>9</sat>
      </trkpt>
      <trkpt lat="42.566556" lon="-2.203740">
        <ele>468.8</ele>
        <time>2019-08-19T05:26:35Z</time>
        <sat>9</sat>
      </trkpt>
      <trkpt lat="42.566546" lon="-2.203807">
        <ele>468.8</ele>
        <time>2019-08-19T05:26:39Z</time>
        <sat>9</sat>
      </trkpt>
      <trkpt lat="42.566539" lon="-2.203907">
        <ele>468.5</ele>
        <time>2019-08-19T05:26:45Z</time>
        <sat>9</sat>
      </trkpt>
      <trkpt lat="42.566546" lon="-2.203960">
        <ele>468.5</ele>
        <time>2019-08-19T05:26:48Z</time>
        <sat>9</sat>
      </trkpt>
      <trkpt lat="42.566534" lon="-2.204062">
        <ele>468.1</ele>
        <time>2019-08-19T05:26:54Z</time>
        <sat>9</sat>
      </trkpt>
      <trkpt lat="42.566530" lon="-2.204186">
        <ele>468.0</ele>
        <time>2019-08-19T05:27:01Z</time>
        <sat>8</sat>
      </trkpt>
      <trkpt lat="42.566521" lon="-2.204251">
        <ele>468.0</ele>
        <time>2019-08-19T05:27:05Z</time>
        <sat>9</sat>
      </trkpt>
      <trkpt lat="42.566521" lon="-2.204461">
        <ele>468.1</ele>
        <time>2019-08-19T05:27:17Z</time>
        <sat>9</sat>
      </trkpt>
      <trkpt lat="42.566515" lon="-2.204496">
        <ele>468.1</ele>
        <time>2019-08-19T05:27:19Z</time>
        <sat>8</sat>
      </trkpt>
      <trkpt lat="42.566513" lon="-2.204622">
        <ele>468.4</ele>
        <time>2019-08-19T05:27:26Z</time>
        <sat>9</sat>
      </trkpt>
      <trkpt lat="42.566501" lon="-2.204694">
        <ele>468.4</ele>
        <time>2019-08-19T05:27:30Z</time>
        <sat>9</sat>
      </trkpt>
      <trkpt lat="42.566499" lon="-2.204825">
        <ele>468.3</ele>
        <time>2019-08-19T05:27:37Z</time>
        <sat>9</sat>
      </trkpt>
      <trkpt lat="42.566489" lon="-2.204897">
        <ele>468.3</ele>
        <time>2019-08-19T05:27:41Z</time>
        <sat>9</sat>
      </trkpt>
      <trkpt lat="42.566496" lon="-2.205047">
        <ele>468.3</ele>
        <time>2019-08-19T05:27:49Z</time>
        <sat>9</sat>
      </trkpt>
      <trkpt lat="42.566478" lon="-2.205196">
        <ele>468.5</ele>
        <time>2019-08-19T05:27:57Z</time>
        <sat>9</sat>
      </trkpt>
      <trkpt lat="42.566476" lon="-2.205235">
        <ele>468.5</ele>
        <time>2019-08-19T05:27:59Z</time>
        <sat>9</sat>
      </trkpt>
      <trkpt lat="42.566480" lon="-2.205342">
        <ele>468.5</ele>
        <time>2019-08-19T05:28:05Z</time>
        <sat>9</sat>
      </trkpt>
      <trkpt lat="42.566446" lon="-2.205603">
        <ele>468.5</ele>
        <time>2019-08-19T05:28:19Z</time>
        <sat>9</sat>
      </trkpt>
      <trkpt lat="42.566420" lon="-2.205728">
        <ele>468.3</ele>
        <time>2019-08-19T05:28:26Z</time>
        <sat>9</sat>
      </trkpt>
      <trkpt lat="42.566409" lon="-2.205837">
        <ele>468.3</ele>
        <time>2019-08-19T05:28:32Z</time>
        <sat>9</sat>
      </trkpt>
      <trkpt lat="42.566376" lon="-2.206063">
        <ele>468.3</ele>
        <time>2019-08-19T05:28:45Z</time>
        <sat>9</sat>
      </trkpt>
      <trkpt lat="42.566353" lon="-2.206187">
        <ele>468.1</ele>
        <time>2019-08-19T05:28:52Z</time>
        <sat>9</sat>
      </trkpt>
      <trkpt lat="42.566337" lon="-2.206352">
        <ele>468.0</ele>
        <time>2019-08-19T05:29:01Z</time>
        <sat>9</sat>
      </trkpt>
      <trkpt lat="42.566300" lon="-2.206602">
        <ele>467.5</ele>
        <time>2019-08-19T05:29:15Z</time>
        <sat>9</sat>
      </trkpt>
      <trkpt lat="42.566272" lon="-2.206732">
        <ele>467.5</ele>
        <time>2019-08-19T05:29:23Z</time>
        <sat>9</sat>
      </trkpt>
      <trkpt lat="42.566252" lon="-2.206876">
        <ele>467.5</ele>
        <time>2019-08-19T05:29:32Z</time>
        <sat>9</sat>
      </trkpt>
      <trkpt lat="42.566248" lon="-2.206944">
        <ele>467.4</ele>
        <time>2019-08-19T05:29:36Z</time>
        <sat>9</sat>
      </trkpt>
      <trkpt lat="42.566232" lon="-2.207022">
        <ele>467.3</ele>
        <time>2019-08-19T05:29:41Z</time>
        <sat>9</sat>
      </trkpt>
      <trkpt lat="42.566213" lon="-2.207174">
        <ele>466.9</ele>
        <time>2019-08-19T05:29:50Z</time>
        <sat>9</sat>
      </trkpt>
      <trkpt lat="42.566195" lon="-2.207315">
        <ele>466.9</ele>
        <time>2019-08-19T05:29:58Z</time>
        <sat>9</sat>
      </trkpt>
      <trkpt lat="42.566167" lon="-2.207428">
        <ele>467.1</ele>
        <time>2019-08-19T05:30:05Z</time>
        <sat>9</sat>
      </trkpt>
      <trkpt lat="42.566160" lon="-2.207493">
        <ele>467.2</ele>
        <time>2019-08-19T05:30:09Z</time>
        <sat>9</sat>
      </trkpt>
      <trkpt lat="42.566144" lon="-2.207558">
        <ele>467.3</ele>
        <time>2019-08-19T05:30:13Z</time>
        <sat>9</sat>
      </trkpt>
      <trkpt lat="42.566140" lon="-2.207629">
        <ele>467.4</ele>
        <time>2019-08-19T05:30:17Z</time>
        <sat>9</sat>
      </trkpt>
      <trkpt lat="42.566127" lon="-2.207692">
        <ele>467.5</ele>
        <time>2019-08-19T05:30:21Z</time>
        <sat>9</sat>
      </trkpt>
      <trkpt lat="42.566121" lon="-2.207766">
        <ele>467.4</ele>
        <time>2019-08-19T05:30:25Z</time>
        <sat>9</sat>
      </trkpt>
      <trkpt lat="42.566096" lon="-2.207960">
        <ele>467.3</ele>
        <time>2019-08-19T05:30:36Z</time>
        <sat>9</sat>
      </trkpt>
      <trkpt lat="42.566092" lon="-2.208053">
        <ele>467.1</ele>
        <time>2019-08-19T05:30:41Z</time>
        <sat>9</sat>
      </trkpt>
      <trkpt lat="42.566069" lon="-2.208166">
        <ele>466.5</ele>
        <time>2019-08-19T05:30:47Z</time>
        <sat>9</sat>
      </trkpt>
      <trkpt lat="42.566061" lon="-2.208386">
        <ele>467.2</ele>
        <time>2019-08-19T05:30:59Z</time>
        <sat>9</sat>
      </trkpt>
      <trkpt lat="42.566061" lon="-2.208458">
        <ele>466.8</ele>
        <time>2019-08-19T05:31:03Z</time>
        <sat>9</sat>
      </trkpt>
      <trkpt lat="42.566043" lon="-2.208652">
        <ele>466.0</ele>
        <time>2019-08-19T05:31:14Z</time>
        <sat>9</sat>
      </trkpt>
      <trkpt lat="42.566034" lon="-2.208716">
        <ele>467.1</ele>
        <time>2019-08-19T05:31:18Z</time>
        <sat>9</sat>
      </trkpt>
      <trkpt lat="42.566041" lon="-2.208828">
        <ele>467.2</ele>
        <time>2019-08-19T05:31:24Z</time>
        <sat>9</sat>
      </trkpt>
      <trkpt lat="42.566036" lon="-2.208981">
        <ele>466.9</ele>
        <time>2019-08-19T05:31:33Z</time>
        <sat>9</sat>
      </trkpt>
      <trkpt lat="42.566039" lon="-2.209057">
        <ele>467.6</ele>
        <time>2019-08-19T05:31:37Z</time>
        <sat>9</sat>
      </trkpt>
      <trkpt lat="42.566023" lon="-2.209209">
        <ele>468.4</ele>
        <time>2019-08-19T05:31:45Z</time>
        <sat>9</sat>
      </trkpt>
      <trkpt lat="42.566019" lon="-2.209359">
        <ele>468.6</ele>
        <time>2019-08-19T05:31:53Z</time>
        <sat>9</sat>
      </trkpt>
      <trkpt lat="42.566004" lon="-2.209452">
        <ele>468.5</ele>
        <time>2019-08-19T05:31:58Z</time>
        <sat>9</sat>
      </trkpt>
      <trkpt lat="42.566005" lon="-2.209584">
        <ele>468.3</ele>
        <time>2019-08-19T05:32:05Z</time>
        <sat>9</sat>
      </trkpt>
      <trkpt lat="42.565996" lon="-2.209713">
        <ele>468.4</ele>
        <time>2019-08-19T05:32:12Z</time>
        <sat>9</sat>
      </trkpt>
      <trkpt lat="42.565985" lon="-2.209976">
        <ele>468.6</ele>
        <time>2019-08-19T05:32:26Z</time>
        <sat>9</sat>
      </trkpt>
      <trkpt lat="42.565986" lon="-2.210091">
        <ele>468.5</ele>
        <time>2019-08-19T05:32:32Z</time>
        <sat>9</sat>
      </trkpt>
      <trkpt lat="42.565976" lon="-2.210158">
        <ele>468.5</ele>
        <time>2019-08-19T05:32:36Z</time>
        <sat>9</sat>
      </trkpt>
      <trkpt lat="42.565965" lon="-2.210405">
        <ele>468.6</ele>
        <time>2019-08-19T05:32:49Z</time>
        <sat>9</sat>
      </trkpt>
      <trkpt lat="42.565957" lon="-2.210480">
        <ele>468.6</ele>
        <time>2019-08-19T05:32:53Z</time>
        <sat>9</sat>
      </trkpt>
      <trkpt lat="42.565955" lon="-2.210609">
        <ele>468.7</ele>
        <time>2019-08-19T05:33:00Z</time>
        <sat>9</sat>
      </trkpt>
      <trkpt lat="42.565935" lon="-2.210759">
        <ele>468.6</ele>
        <time>2019-08-19T05:33:08Z</time>
        <sat>9</sat>
      </trkpt>
      <trkpt lat="42.565932" lon="-2.210924">
        <ele>468.7</ele>
        <time>2019-08-19T05:33:17Z</time>
        <sat>9</sat>
      </trkpt>
      <trkpt lat="42.565919" lon="-2.211018">
        <ele>468.8</ele>
        <time>2019-08-19T05:33:22Z</time>
        <sat>9</sat>
      </trkpt>
      <trkpt lat="42.565917" lon="-2.211149">
        <ele>468.8</ele>
        <time>2019-08-19T05:33:29Z</time>
        <sat>9</sat>
      </trkpt>
      <trkpt lat="42.565901" lon="-2.211277">
        <ele>468.8</ele>
        <time>2019-08-19T05:33:36Z</time>
        <sat>9</sat>
      </trkpt>
      <trkpt lat="42.565897" lon="-2.211426">
        <ele>468.8</ele>
        <time>2019-08-19T05:33:44Z</time>
        <sat>9</sat>
      </trkpt>
      <trkpt lat="42.565881" lon="-2.211557">
        <ele>469.0</ele>
        <time>2019-08-19T05:33:51Z</time>
        <sat>9</sat>
      </trkpt>
      <trkpt lat="42.565878" lon="-2.211684">
        <ele>469.3</ele>
        <time>2019-08-19T05:33:58Z</time>
        <sat>9</sat>
      </trkpt>
      <trkpt lat="42.565863" lon="-2.211833">
        <ele>469.6</ele>
        <time>2019-08-19T05:34:06Z</time>
        <sat>9</sat>
      </trkpt>
      <trkpt lat="42.565849" lon="-2.212054">
        <ele>469.6</ele>
        <time>2019-08-19T05:34:18Z</time>
        <sat>9</sat>
      </trkpt>
      <trkpt lat="42.565848" lon="-2.212181">
        <ele>469.5</ele>
        <time>2019-08-19T05:34:25Z</time>
        <sat>9</sat>
      </trkpt>
      <trkpt lat="42.565829" lon="-2.212394">
        <ele>469.5</ele>
        <time>2019-08-19T05:34:37Z</time>
        <sat>9</sat>
      </trkpt>
      <trkpt lat="42.565815" lon="-2.212624">
        <ele>469.5</ele>
        <time>2019-08-19T05:34:51Z</time>
        <sat>9</sat>
      </trkpt>
      <trkpt lat="42.565805" lon="-2.212708">
        <ele>469.0</ele>
        <time>2019-08-19T05:34:56Z</time>
        <sat>9</sat>
      </trkpt>
      <trkpt lat="42.565802" lon="-2.212772">
        <ele>469.4</ele>
        <time>2019-08-19T05:35:00Z</time>
        <sat>9</sat>
      </trkpt>
      <trkpt lat="42.565805" lon="-2.212920">
        <ele>469.6</ele>
        <time>2019-08-19T05:35:09Z</time>
        <sat>9</sat>
      </trkpt>
      <trkpt lat="42.565799" lon="-2.212988">
        <ele>469.5</ele>
        <time>2019-08-19T05:35:13Z</time>
        <sat>9</sat>
      </trkpt>
      <trkpt lat="42.565786" lon="-2.213224">
        <ele>469.4</ele>
        <time>2019-08-19T05:35:27Z</time>
        <sat>9</sat>
      </trkpt>
      <trkpt lat="42.565777" lon="-2.213447">
        <ele>469.6</ele>
        <time>2019-08-19T05:35:40Z</time>
        <sat>9</sat>
      </trkpt>
      <trkpt lat="42.565779" lon="-2.213548">
        <ele>469.7</ele>
        <time>2019-08-19T05:35:46Z</time>
        <sat>9</sat>
      </trkpt>
      <trkpt lat="42.565766" lon="-2.213713">
        <ele>469.7</ele>
        <time>2019-08-19T05:35:55Z</time>
        <sat>9</sat>
      </trkpt>
      <trkpt lat="42.565767" lon="-2.213804">
        <ele>469.4</ele>
        <time>2019-08-19T05:36:00Z</time>
        <sat>9</sat>
      </trkpt>
      <trkpt lat="42.565741" lon="-2.214014">
        <ele>468.9</ele>
        <time>2019-08-19T05:36:11Z</time>
        <sat>9</sat>
      </trkpt>
      <trkpt lat="42.565744" lon="-2.214073">
        <ele>468.8</ele>
        <time>2019-08-19T05:36:14Z</time>
        <sat>9</sat>
      </trkpt>
      <trkpt lat="42.565717" lon="-2.214302">
        <ele>468.1</ele>
        <time>2019-08-19T05:36:26Z</time>
        <sat>9</sat>
      </trkpt>
      <trkpt lat="42.565717" lon="-2.214456">
        <ele>467.9</ele>
        <time>2019-08-19T05:36:34Z</time>
        <sat>9</sat>
      </trkpt>
      <trkpt lat="42.565695" lon="-2.214646">
        <ele>468.1</ele>
        <time>2019-08-19T05:36:44Z</time>
        <sat>9</sat>
      </trkpt>
      <trkpt lat="42.565692" lon="-2.214780">
        <ele>468.0</ele>
        <time>2019-08-19T05:36:51Z</time>
        <sat>9</sat>
      </trkpt>
      <trkpt lat="42.565673" lon="-2.214930">
        <ele>468.2</ele>
        <time>2019-08-19T05:36:59Z</time>
        <sat>9</sat>
      </trkpt>
      <trkpt lat="42.565668" lon="-2.215059">
        <ele>468.4</ele>
        <time>2019-08-19T05:37:06Z</time>
        <sat>9</sat>
      </trkpt>
      <trkpt lat="42.565651" lon="-2.215153">
        <ele>468.5</ele>
        <time>2019-08-19T05:37:11Z</time>
        <sat>9</sat>
      </trkpt>
      <trkpt lat="42.565641" lon="-2.215283">
        <ele>468.5</ele>
        <time>2019-08-19T05:37:18Z</time>
        <sat>9</sat>
      </trkpt>
      <trkpt lat="42.565619" lon="-2.215447">
        <ele>468.5</ele>
        <time>2019-08-19T05:37:27Z</time>
        <sat>9</sat>
      </trkpt>
      <trkpt lat="42.565615" lon="-2.215555">
        <ele>468.5</ele>
        <time>2019-08-19T05:37:33Z</time>
        <sat>9</sat>
      </trkpt>
      <trkpt lat="42.565598" lon="-2.215682">
        <ele>468.2</ele>
        <time>2019-08-19T05:37:40Z</time>
        <sat>9</sat>
      </trkpt>
      <trkpt lat="42.565596" lon="-2.215736">
        <ele>468.3</ele>
        <time>2019-08-19T05:37:43Z</time>
        <sat>9</sat>
      </trkpt>
      <trkpt lat="42.565580" lon="-2.215862">
        <ele>468.5</ele>
        <time>2019-08-19T05:37:50Z</time>
        <sat>9</sat>
      </trkpt>
      <trkpt lat="42.565565" lon="-2.216062">
        <ele>468.5</ele>
        <time>2019-08-19T05:38:01Z</time>
        <sat>9</sat>
      </trkpt>
      <trkpt lat="42.565550" lon="-2.216155">
        <ele>468.5</ele>
        <time>2019-08-19T05:38:06Z</time>
        <sat>9</sat>
      </trkpt>
      <trkpt lat="42.565546" lon="-2.216246">
        <ele>468.6</ele>
        <time>2019-08-19T05:38:11Z</time>
        <sat>9</sat>
      </trkpt>
      <trkpt lat="42.565524" lon="-2.216375">
        <ele>468.8</ele>
        <time>2019-08-19T05:38:18Z</time>
        <sat>9</sat>
      </trkpt>
      <trkpt lat="42.565518" lon="-2.216466">
        <ele>468.8</ele>
        <time>2019-08-19T05:38:23Z</time>
        <sat>9</sat>
      </trkpt>
      <trkpt lat="42.565494" lon="-2.216622">
        <ele>469.0</ele>
        <time>2019-08-19T05:38:32Z</time>
        <sat>9</sat>
      </trkpt>
      <trkpt lat="42.565491" lon="-2.216687">
        <ele>468.9</ele>
        <time>2019-08-19T05:38:36Z</time>
        <sat>9</sat>
      </trkpt>
      <trkpt lat="42.565480" lon="-2.216752">
        <ele>468.9</ele>
        <time>2019-08-19T05:38:40Z</time>
        <sat>9</sat>
      </trkpt>
      <trkpt lat="42.565476" lon="-2.216832">
        <ele>468.8</ele>
        <time>2019-08-19T05:38:45Z</time>
        <sat>9</sat>
      </trkpt>
      <trkpt lat="42.565466" lon="-2.216900">
        <ele>468.8</ele>
        <time>2019-08-19T05:38:49Z</time>
        <sat>9</sat>
      </trkpt>
      <trkpt lat="42.565445" lon="-2.217139">
        <ele>468.9</ele>
        <time>2019-08-19T05:39:04Z</time>
        <sat>9</sat>
      </trkpt>
      <trkpt lat="42.565434" lon="-2.217224">
        <ele>468.7</ele>
        <time>2019-08-19T05:39:09Z</time>
        <sat>9</sat>
      </trkpt>
      <trkpt lat="42.565429" lon="-2.217348">
        <ele>468.7</ele>
        <time>2019-08-19T05:39:16Z</time>
        <sat>9</sat>
      </trkpt>
      <trkpt lat="42.565419" lon="-2.217420">
        <ele>468.7</ele>
        <time>2019-08-19T05:39:20Z</time>
        <sat>9</sat>
      </trkpt>
      <trkpt lat="42.565420" lon="-2.217496">
        <ele>468.8</ele>
        <time>2019-08-19T05:39:24Z</time>
        <sat>9</sat>
      </trkpt>
      <trkpt lat="42.565401" lon="-2.217717">
        <ele>469.1</ele>
        <time>2019-08-19T05:39:36Z</time>
        <sat>9</sat>
      </trkpt>
      <trkpt lat="42.565403" lon="-2.217790">
        <ele>469.2</ele>
        <time>2019-08-19T05:39:40Z</time>
        <sat>9</sat>
      </trkpt>
      <trkpt lat="42.565382" lon="-2.217991">
        <ele>469.0</ele>
        <time>2019-08-19T05:39:54Z</time>
        <sat>9</sat>
      </trkpt>
      <trkpt lat="42.565383" lon="-2.218084">
        <ele>469.0</ele>
        <time>2019-08-19T05:39:59Z</time>
        <sat>9</sat>
      </trkpt>
      <trkpt lat="42.565359" lon="-2.218295">
        <ele>468.9</ele>
        <time>2019-08-19T05:40:10Z</time>
        <sat>9</sat>
      </trkpt>
      <trkpt lat="42.565361" lon="-2.218428">
        <ele>468.8</ele>
        <time>2019-08-19T05:40:17Z</time>
        <sat>9</sat>
      </trkpt>
      <trkpt lat="42.565351" lon="-2.218503">
        <ele>468.9</ele>
        <time>2019-08-19T05:40:21Z</time>
        <sat>9</sat>
      </trkpt>
      <trkpt lat="42.565334" lon="-2.218767">
        <ele>468.9</ele>
        <time>2019-08-19T05:40:35Z</time>
        <sat>9</sat>
      </trkpt>
      <trkpt lat="42.565321" lon="-2.218859">
        <ele>468.7</ele>
        <time>2019-08-19T05:40:40Z</time>
        <sat>9</sat>
      </trkpt>
      <trkpt lat="42.565319" lon="-2.218932">
        <ele>468.7</ele>
        <time>2019-08-19T05:40:44Z</time>
        <sat>9</sat>
      </trkpt>
      <trkpt lat="42.565305" lon="-2.219085">
        <ele>468.5</ele>
        <time>2019-08-19T05:40:53Z</time>
        <sat>9</sat>
      </trkpt>
      <trkpt lat="42.565293" lon="-2.219185">
        <ele>468.5</ele>
        <time>2019-08-19T05:40:59Z</time>
        <sat>9</sat>
      </trkpt>
      <trkpt lat="42.565290" lon="-2.219292">
        <ele>468.4</ele>
        <time>2019-08-19T05:41:05Z</time>
        <sat>9</sat>
      </trkpt>
      <trkpt lat="42.565273" lon="-2.219478">
        <ele>468.2</ele>
        <time>2019-08-19T05:41:15Z</time>
        <sat>9</sat>
      </trkpt>
      <trkpt lat="42.565271" lon="-2.219588">
        <ele>468.1</ele>
        <time>2019-08-19T05:41:21Z</time>
        <sat>9</sat>
      </trkpt>
      <trkpt lat="42.565254" lon="-2.219737">
        <ele>467.9</ele>
        <time>2019-08-19T05:41:29Z</time>
        <sat>9</sat>
      </trkpt>
      <trkpt lat="42.565251" lon="-2.219853">
        <ele>467.8</ele>
        <time>2019-08-19T05:41:35Z</time>
        <sat>9</sat>
      </trkpt>
      <trkpt lat="42.565234" lon="-2.219999">
        <ele>467.7</ele>
        <time>2019-08-19T05:41:43Z</time>
        <sat>9</sat>
      </trkpt>
      <trkpt lat="42.565229" lon="-2.220126">
        <ele>467.7</ele>
        <time>2019-08-19T05:41:50Z</time>
        <sat>9</sat>
      </trkpt>
      <trkpt lat="42.565213" lon="-2.220313">
        <ele>467.6</ele>
        <time>2019-08-19T05:42:00Z</time>
        <sat>9</sat>
      </trkpt>
      <trkpt lat="42.565215" lon="-2.220423">
        <ele>467.5</ele>
        <time>2019-08-19T05:42:06Z</time>
        <sat>9</sat>
      </trkpt>
      <trkpt lat="42.565197" lon="-2.220578">
        <ele>467.5</ele>
        <time>2019-08-19T05:42:14Z</time>
        <sat>9</sat>
      </trkpt>
      <trkpt lat="42.565185" lon="-2.220814">
        <ele>467.4</ele>
        <time>2019-08-19T05:42:26Z</time>
        <sat>9</sat>
      </trkpt>
      <trkpt lat="42.565158" lon="-2.221069">
        <ele>467.3</ele>
        <time>2019-08-19T05:42:39Z</time>
        <sat>9</sat>
      </trkpt>
      <trkpt lat="42.565148" lon="-2.221319">
        <ele>467.2</ele>
        <time>2019-08-19T05:42:52Z</time>
        <sat>9</sat>
      </trkpt>
      <trkpt lat="42.565136" lon="-2.221398">
        <ele>467.2</ele>
        <time>2019-08-19T05:42:56Z</time>
        <sat>9</sat>
      </trkpt>
      <trkpt lat="42.565125" lon="-2.221631">
        <ele>467.5</ele>
        <time>2019-08-19T05:43:08Z</time>
        <sat>9</sat>
      </trkpt>
      <trkpt lat="42.565117" lon="-2.221725">
        <ele>467.6</ele>
        <time>2019-08-19T05:43:13Z</time>
        <sat>9</sat>
      </trkpt>
      <trkpt lat="42.565111" lon="-2.221764">
        <ele>467.7</ele>
        <time>2019-08-19T05:43:15Z</time>
        <sat>9</sat>
      </trkpt>
      <trkpt lat="42.565093" lon="-2.221998">
        <ele>467.6</ele>
        <time>2019-08-19T05:43:27Z</time>
        <sat>9</sat>
      </trkpt>
      <trkpt lat="42.565094" lon="-2.222035">
        <ele>467.6</ele>
        <time>2019-08-19T05:43:29Z</time>
        <sat>9</sat>
      </trkpt>
      <trkpt lat="42.565066" lon="-2.222293">
        <ele>467.7</ele>
        <time>2019-08-19T05:43:42Z</time>
        <sat>9</sat>
      </trkpt>
      <trkpt lat="42.565066" lon="-2.222509">
        <ele>467.8</ele>
        <time>2019-08-19T05:43:53Z</time>
        <sat>9</sat>
      </trkpt>
      <trkpt lat="42.565039" lon="-2.222748">
        <ele>467.8</ele>
        <time>2019-08-19T05:44:05Z</time>
        <sat>9</sat>
      </trkpt>
      <trkpt lat="42.565037" lon="-2.222911">
        <ele>467.6</ele>
        <time>2019-08-19T05:44:13Z</time>
        <sat>9</sat>
      </trkpt>
      <trkpt lat="42.565007" lon="-2.223160">
        <ele>467.2</ele>
        <time>2019-08-19T05:44:26Z</time>
        <sat>9</sat>
      </trkpt>
      <trkpt lat="42.564995" lon="-2.223395">
        <ele>466.8</ele>
        <time>2019-08-19T05:44:38Z</time>
        <sat>9</sat>
      </trkpt>
      <trkpt lat="42.564967" lon="-2.223566">
        <ele>467.2</ele>
        <time>2019-08-19T05:44:47Z</time>
        <sat>9</sat>
      </trkpt>
      <trkpt lat="42.564949" lon="-2.223665">
        <ele>467.2</ele>
        <time>2019-08-19T05:44:52Z</time>
        <sat>9</sat>
      </trkpt>
      <trkpt lat="42.564934" lon="-2.223822">
        <ele>467.3</ele>
        <time>2019-08-19T05:45:00Z</time>
        <sat>9</sat>
      </trkpt>
      <trkpt lat="42.564919" lon="-2.223931">
        <ele>467.1</ele>
        <time>2019-08-19T05:45:06Z</time>
        <sat>9</sat>
      </trkpt>
      <trkpt lat="42.564876" lon="-2.224147">
        <ele>467.1</ele>
        <time>2019-08-19T05:45:17Z</time>
        <sat>9</sat>
      </trkpt>
      <trkpt lat="42.564864" lon="-2.224259">
        <ele>467.2</ele>
        <time>2019-08-19T05:45:23Z</time>
        <sat>9</sat>
      </trkpt>
      <trkpt lat="42.564848" lon="-2.224330">
        <ele>467.2</ele>
        <time>2019-08-19T05:45:27Z</time>
        <sat>9</sat>
      </trkpt>
      <trkpt lat="42.564817" lon="-2.224503">
        <ele>467.2</ele>
        <time>2019-08-19T05:45:36Z</time>
        <sat>9</sat>
      </trkpt>
      <trkpt lat="42.564805" lon="-2.224654">
        <ele>467.3</ele>
        <time>2019-08-19T05:45:44Z</time>
        <sat>9</sat>
      </trkpt>
      <trkpt lat="42.564769" lon="-2.224838">
        <ele>467.2</ele>
        <time>2019-08-19T05:45:54Z</time>
        <sat>9</sat>
      </trkpt>
      <trkpt lat="42.564756" lon="-2.224967">
        <ele>467.1</ele>
        <time>2019-08-19T05:46:01Z</time>
        <sat>9</sat>
      </trkpt>
      <trkpt lat="42.564717" lon="-2.225134">
        <ele>466.8</ele>
        <time>2019-08-19T05:46:10Z</time>
        <sat>9</sat>
      </trkpt>
      <trkpt lat="42.564693" lon="-2.225331">
        <ele>466.6</ele>
        <time>2019-08-19T05:46:20Z</time>
        <sat>9</sat>
      </trkpt>
      <trkpt lat="42.564646" lon="-2.225550">
        <ele>466.5</ele>
        <time>2019-08-19T05:46:32Z</time>
        <sat>9</sat>
      </trkpt>
      <trkpt lat="42.564624" lon="-2.225721">
        <ele>466.3</ele>
        <time>2019-08-19T05:46:41Z</time>
        <sat>9</sat>
      </trkpt>
      <trkpt lat="42.564582" lon="-2.225925">
        <ele>466.2</ele>
        <time>2019-08-19T05:46:52Z</time>
        <sat>9</sat>
      </trkpt>
      <trkpt lat="42.564550" lon="-2.226149">
        <ele>466.1</ele>
        <time>2019-08-19T05:47:04Z</time>
        <sat>9</sat>
      </trkpt>
      <trkpt lat="42.564532" lon="-2.226224">
        <ele>466.2</ele>
        <time>2019-08-19T05:47:08Z</time>
        <sat>9</sat>
      </trkpt>
      <trkpt lat="42.564496" lon="-2.226334">
        <ele>466.0</ele>
        <time>2019-08-19T05:47:14Z</time>
        <sat>9</sat>
      </trkpt>
      <trkpt lat="42.564487" lon="-2.226427">
        <ele>465.8</ele>
        <time>2019-08-19T05:47:19Z</time>
        <sat>9</sat>
      </trkpt>
      <trkpt lat="42.564447" lon="-2.226628">
        <ele>465.3</ele>
        <time>2019-08-19T05:47:30Z</time>
        <sat>9</sat>
      </trkpt>
      <trkpt lat="42.564424" lon="-2.226806">
        <ele>464.9</ele>
        <time>2019-08-19T05:47:40Z</time>
        <sat>9</sat>
      </trkpt>
      <trkpt lat="42.564403" lon="-2.226896">
        <ele>464.7</ele>
        <time>2019-08-19T05:47:45Z</time>
        <sat>9</sat>
      </trkpt>
      <trkpt lat="42.564366" lon="-2.227149">
        <ele>464.4</ele>
        <time>2019-08-19T05:47:59Z</time>
        <sat>9</sat>
      </trkpt>
      <trkpt lat="42.564324" lon="-2.227351">
        <ele>464.2</ele>
        <time>2019-08-19T05:48:10Z</time>
        <sat>9</sat>
      </trkpt>
      <trkpt lat="42.564316" lon="-2.227447">
        <ele>464.2</ele>
        <time>2019-08-19T05:48:15Z</time>
        <sat>9</sat>
      </trkpt>
      <trkpt lat="42.564279" lon="-2.227634">
        <ele>463.9</ele>
        <time>2019-08-19T05:48:25Z</time>
        <sat>9</sat>
      </trkpt>
      <trkpt lat="42.564257" lon="-2.227730">
        <ele>463.8</ele>
        <time>2019-08-19T05:48:30Z</time>
        <sat>9</sat>
      </trkpt>
      <trkpt lat="42.564244" lon="-2.227845">
        <ele>463.6</ele>
        <time>2019-08-19T05:48:36Z</time>
        <sat>9</sat>
      </trkpt>
      <trkpt lat="42.564199" lon="-2.228064">
        <ele>463.3</ele>
        <time>2019-08-19T05:48:48Z</time>
        <sat>9</sat>
      </trkpt>
      <trkpt lat="42.564185" lon="-2.228142">
        <ele>463.2</ele>
        <time>2019-08-19T05:48:52Z</time>
        <sat>9</sat>
      </trkpt>
      <trkpt lat="42.564166" lon="-2.228306">
        <ele>462.9</ele>
        <time>2019-08-19T05:49:01Z</time>
        <sat>9</sat>
      </trkpt>
      <trkpt lat="42.564120" lon="-2.228513">
        <ele>462.7</ele>
        <time>2019-08-19T05:49:12Z</time>
        <sat>9</sat>
      </trkpt>
      <trkpt lat="42.564117" lon="-2.228572">
        <ele>462.6</ele>
        <time>2019-08-19T05:49:15Z</time>
        <sat>9</sat>
      </trkpt>
      <trkpt lat="42.564072" lon="-2.228790">
        <ele>462.3</ele>
        <time>2019-08-19T05:49:27Z</time>
        <sat>9</sat>
      </trkpt>
      <trkpt lat="42.564039" lon="-2.229030">
        <ele>461.6</ele>
        <time>2019-08-19T05:49:40Z</time>
        <sat>9</sat>
      </trkpt>
      <trkpt lat="42.564026" lon="-2.229167">
        <ele>460.3</ele>
        <time>2019-08-19T05:50:40Z</time>
        <sat>8</sat>
      </trkpt>
      <trkpt lat="42.563983" lon="-2.229311">
        <ele>460.3</ele>
        <time>2019-08-19T05:50:48Z</time>
        <sat>9</sat>
      </trkpt>
      <trkpt lat="42.563951" lon="-2.229528">
        <ele>459.9</ele>
        <time>2019-08-19T05:51:00Z</time>
        <sat>9</sat>
      </trkpt>
      <trkpt lat="42.563917" lon="-2.229627">
        <ele>459.5</ele>
        <time>2019-08-19T05:51:06Z</time>
        <sat>8</sat>
      </trkpt>
      <trkpt lat="42.563910" lon="-2.229700">
        <ele>459.1</ele>
        <time>2019-08-19T05:51:10Z</time>
        <sat>8</sat>
      </trkpt>
      <trkpt lat="42.563892" lon="-2.229789">
        <ele>458.8</ele>
        <time>2019-08-19T05:51:15Z</time>
        <sat>8</sat>
      </trkpt>
      <trkpt lat="42.563851" lon="-2.230022">
        <ele>457.5</ele>
        <time>2019-08-19T05:51:28Z</time>
        <sat>9</sat>
      </trkpt>
      <trkpt lat="42.563821" lon="-2.230242">
        <ele>456.0</ele>
        <time>2019-08-19T05:51:40Z</time>
        <sat>9</sat>
      </trkpt>
      <trkpt lat="42.563800" lon="-2.230332">
        <ele>455.3</ele>
        <time>2019-08-19T05:51:45Z</time>
        <sat>9</sat>
      </trkpt>
      <trkpt lat="42.563782" lon="-2.230501">
        <ele>454.1</ele>
        <time>2019-08-19T05:51:54Z</time>
        <sat>9</sat>
      </trkpt>
      <trkpt lat="42.563749" lon="-2.230700">
        <ele>452.8</ele>
        <time>2019-08-19T05:52:05Z</time>
        <sat>9</sat>
      </trkpt>
      <trkpt lat="42.563731" lon="-2.230851">
        <ele>452.4</ele>
        <time>2019-08-19T05:52:13Z</time>
        <sat>9</sat>
      </trkpt>
      <trkpt lat="42.563712" lon="-2.230934">
        <ele>452.2</ele>
        <time>2019-08-19T05:52:18Z</time>
        <sat>8</sat>
      </trkpt>
      <trkpt lat="42.563673" lon="-2.231084">
        <ele>451.4</ele>
        <time>2019-08-19T05:52:27Z</time>
        <sat>8</sat>
      </trkpt>
      <trkpt lat="42.563645" lon="-2.231264">
        <ele>452.8</ele>
        <time>2019-08-19T05:52:36Z</time>
        <sat>9</sat>
      </trkpt>
      <trkpt lat="42.563631" lon="-2.231403">
        <ele>453.1</ele>
        <time>2019-08-19T05:52:43Z</time>
        <sat>9</sat>
      </trkpt>
      <trkpt lat="42.563604" lon="-2.231518">
        <ele>453.5</ele>
        <time>2019-08-19T05:52:49Z</time>
        <sat>9</sat>
      </trkpt>
      <trkpt lat="42.563595" lon="-2.231593">
        <ele>454.0</ele>
        <time>2019-08-19T05:52:53Z</time>
        <sat>10</sat>
      </trkpt>
      <trkpt lat="42.563571" lon="-2.231685">
        <ele>454.7</ele>
        <time>2019-08-19T05:52:58Z</time>
        <sat>10</sat>
      </trkpt>
      <trkpt lat="42.563568" lon="-2.231740">
        <ele>455.1</ele>
        <time>2019-08-19T05:53:01Z</time>
        <sat>10</sat>
      </trkpt>
      <trkpt lat="42.563537" lon="-2.231872">
        <ele>455.9</ele>
        <time>2019-08-19T05:53:08Z</time>
        <sat>10</sat>
      </trkpt>
      <trkpt lat="42.563530" lon="-2.231947">
        <ele>456.5</ele>
        <time>2019-08-19T05:53:12Z</time>
        <sat>10</sat>
      </trkpt>
      <trkpt lat="42.563500" lon="-2.232060">
        <ele>457.2</ele>
        <time>2019-08-19T05:53:18Z</time>
        <sat>10</sat>
      </trkpt>
      <trkpt lat="42.563488" lon="-2.232176">
        <ele>457.8</ele>
        <time>2019-08-19T05:53:24Z</time>
        <sat>10</sat>
      </trkpt>
      <trkpt lat="42.563470" lon="-2.232250">
        <ele>458.3</ele>
        <time>2019-08-19T05:53:28Z</time>
        <sat>10</sat>
      </trkpt>
      <trkpt lat="42.563438" lon="-2.232475">
        <ele>459.4</ele>
        <time>2019-08-19T05:53:40Z</time>
        <sat>10</sat>
      </trkpt>
      <trkpt lat="42.563413" lon="-2.232598">
        <ele>459.7</ele>
        <time>2019-08-19T05:53:47Z</time>
        <sat>10</sat>
      </trkpt>
      <trkpt lat="42.563371" lon="-2.232846">
        <ele>459.7</ele>
        <time>2019-08-19T05:54:01Z</time>
        <sat>10</sat>
      </trkpt>
      <trkpt lat="42.563354" lon="-2.233005">
        <ele>459.7</ele>
        <time>2019-08-19T05:54:10Z</time>
        <sat>10</sat>
      </trkpt>
      <trkpt lat="42.563337" lon="-2.233078">
        <ele>459.6</ele>
        <time>2019-08-19T05:54:14Z</time>
        <sat>10</sat>
      </trkpt>
      <trkpt lat="42.563308" lon="-2.233236">
        <ele>459.3</ele>
        <time>2019-08-19T05:54:23Z</time>
        <sat>10</sat>
      </trkpt>
      <trkpt lat="42.563284" lon="-2.233342">
        <ele>458.4</ele>
        <time>2019-08-19T05:54:29Z</time>
        <sat>10</sat>
      </trkpt>
      <trkpt lat="42.563270" lon="-2.233481">
        <ele>459.0</ele>
        <time>2019-08-19T05:54:37Z</time>
        <sat>10</sat>
      </trkpt>
      <trkpt lat="42.563232" lon="-2.233697">
        <ele>456.9</ele>
        <time>2019-08-19T05:54:50Z</time>
        <sat>10</sat>
      </trkpt>
      <trkpt lat="42.563219" lon="-2.233748">
        <ele>456.6</ele>
        <time>2019-08-19T05:54:53Z</time>
        <sat>10</sat>
      </trkpt>
      <trkpt lat="42.563211" lon="-2.233835">
        <ele>456.4</ele>
        <time>2019-08-19T05:54:58Z</time>
        <sat>10</sat>
      </trkpt>
      <trkpt lat="42.563162" lon="-2.234120">
        <ele>456.7</ele>
        <time>2019-08-19T05:55:14Z</time>
        <sat>10</sat>
      </trkpt>
      <trkpt lat="42.563129" lon="-2.234244">
        <ele>456.4</ele>
        <time>2019-08-19T05:55:21Z</time>
        <sat>10</sat>
      </trkpt>
      <trkpt lat="42.563118" lon="-2.234374">
        <ele>456.2</ele>
        <time>2019-08-19T05:55:28Z</time>
        <sat>9</sat>
      </trkpt>
      <trkpt lat="42.563093" lon="-2.234488">
        <ele>456.0</ele>
        <time>2019-08-19T05:55:35Z</time>
        <sat>10</sat>
      </trkpt>
      <trkpt lat="42.563087" lon="-2.234543">
        <ele>456.1</ele>
        <time>2019-08-19T05:55:38Z</time>
        <sat>10</sat>
      </trkpt>
      <trkpt lat="42.563043" lon="-2.234749">
        <ele>455.4</ele>
        <time>2019-08-19T05:55:50Z</time>
        <sat>10</sat>
      </trkpt>
      <trkpt lat="42.562986" lon="-2.235004">
        <ele>455.5</ele>
        <time>2019-08-19T05:56:04Z</time>
        <sat>10</sat>
      </trkpt>
      <trkpt lat="42.562978" lon="-2.235075">
        <ele>455.5</ele>
        <time>2019-08-19T05:56:08Z</time>
        <sat>10</sat>
      </trkpt>
      <trkpt lat="42.562934" lon="-2.235268">
        <ele>455.5</ele>
        <time>2019-08-19T05:56:19Z</time>
        <sat>10</sat>
      </trkpt>
      <trkpt lat="42.562928" lon="-2.235320">
        <ele>455.6</ele>
        <time>2019-08-19T05:56:22Z</time>
        <sat>10</sat>
      </trkpt>
      <trkpt lat="42.562898" lon="-2.235444">
        <ele>455.6</ele>
        <time>2019-08-19T05:56:29Z</time>
        <sat>10</sat>
      </trkpt>
      <trkpt lat="42.562878" lon="-2.235601">
        <ele>456.0</ele>
        <time>2019-08-19T05:56:40Z</time>
        <sat>10</sat>
      </trkpt>
      <trkpt lat="42.562898" lon="-2.235662">
        <ele>456.1</ele>
        <time>2019-08-19T05:56:51Z</time>
        <sat>10</sat>
      </trkpt>
      <trkpt lat="42.562946" lon="-2.235698">
        <ele>456.1</ele>
        <time>2019-08-19T05:56:55Z</time>
        <sat>10</sat>
      </trkpt>
      <trkpt lat="42.562995" lon="-2.235765">
        <ele>456.3</ele>
        <time>2019-08-19T05:57:00Z</time>
        <sat>10</sat>
      </trkpt>
      <trkpt lat="42.563023" lon="-2.235833">
        <ele>456.5</ele>
        <time>2019-08-19T05:57:04Z</time>
        <sat>10</sat>
      </trkpt>
      <trkpt lat="42.563042" lon="-2.235981">
        <ele>456.9</ele>
        <time>2019-08-19T05:57:12Z</time>
        <sat>10</sat>
      </trkpt>
      <trkpt lat="42.563085" lon="-2.236178">
        <ele>457.4</ele>
        <time>2019-08-19T05:57:23Z</time>
        <sat>10</sat>
      </trkpt>
      <trkpt lat="42.563112" lon="-2.236240">
        <ele>457.7</ele>
        <time>2019-08-19T05:57:27Z</time>
        <sat>10</sat>
      </trkpt>
      <trkpt lat="42.563181" lon="-2.236367">
        <ele>458.3</ele>
        <time>2019-08-19T05:57:36Z</time>
        <sat>10</sat>
      </trkpt>
      <trkpt lat="42.563222" lon="-2.236423">
        <ele>458.6</ele>
        <time>2019-08-19T05:57:40Z</time>
        <sat>10</sat>
      </trkpt>
      <trkpt lat="42.563291" lon="-2.236482">
        <ele>459.1</ele>
        <time>2019-08-19T05:57:46Z</time>
        <sat>10</sat>
      </trkpt>
      <trkpt lat="42.563335" lon="-2.236532">
        <ele>459.5</ele>
        <time>2019-08-19T05:57:50Z</time>
        <sat>10</sat>
      </trkpt>
      <trkpt lat="42.563407" lon="-2.236588">
        <ele>459.7</ele>
        <time>2019-08-19T05:57:56Z</time>
        <sat>10</sat>
      </trkpt>
      <trkpt lat="42.563448" lon="-2.236639">
        <ele>459.9</ele>
        <time>2019-08-19T05:58:00Z</time>
        <sat>10</sat>
      </trkpt>
      <trkpt lat="42.563507" lon="-2.236733">
        <ele>460.1</ele>
        <time>2019-08-19T05:58:06Z</time>
        <sat>10</sat>
      </trkpt>
      <trkpt lat="42.563544" lon="-2.236850">
        <ele>460.4</ele>
        <time>2019-08-19T05:58:13Z</time>
        <sat>9</sat>
      </trkpt>
      <trkpt lat="42.563561" lon="-2.236993">
        <ele>460.7</ele>
        <time>2019-08-19T05:58:20Z</time>
        <sat>10</sat>
      </trkpt>
      <trkpt lat="42.563576" lon="-2.237094">
        <ele>461.0</ele>
        <time>2019-08-19T05:58:25Z</time>
        <sat>10</sat>
      </trkpt>
      <trkpt lat="42.563573" lon="-2.237293">
        <ele>461.6</ele>
        <time>2019-08-19T05:58:35Z</time>
        <sat>10</sat>
      </trkpt>
      <trkpt lat="42.563574" lon="-2.237333">
        <ele>461.7</ele>
        <time>2019-08-19T05:58:37Z</time>
        <sat>10</sat>
      </trkpt>
      <trkpt lat="42.563591" lon="-2.237465">
        <ele>462.1</ele>
        <time>2019-08-19T05:58:44Z</time>
        <sat>10</sat>
      </trkpt>
      <trkpt lat="42.563602" lon="-2.237644">
        <ele>462.4</ele>
        <time>2019-08-19T05:58:53Z</time>
        <sat>10</sat>
      </trkpt>
      <trkpt lat="42.563614" lon="-2.237817">
        <ele>462.6</ele>
        <time>2019-08-19T05:59:02Z</time>
        <sat>10</sat>
      </trkpt>
      <trkpt lat="42.563612" lon="-2.237934">
        <ele>462.6</ele>
        <time>2019-08-19T05:59:08Z</time>
        <sat>10</sat>
      </trkpt>
      <trkpt lat="42.563608" lon="-2.237974">
        <ele>462.6</ele>
        <time>2019-08-19T05:59:10Z</time>
        <sat>10</sat>
      </trkpt>
      <trkpt lat="42.563616" lon="-2.238109">
        <ele>462.7</ele>
        <time>2019-08-19T05:59:17Z</time>
        <sat>10</sat>
      </trkpt>
      <trkpt lat="42.563610" lon="-2.238298">
        <ele>462.9</ele>
        <time>2019-08-19T05:59:27Z</time>
        <sat>10</sat>
      </trkpt>
      <trkpt lat="42.563619" lon="-2.238391">
        <ele>462.9</ele>
        <time>2019-08-19T05:59:32Z</time>
        <sat>10</sat>
      </trkpt>
      <trkpt lat="42.563614" lon="-2.238489">
        <ele>463.0</ele>
        <time>2019-08-19T05:59:37Z</time>
        <sat>10</sat>
      </trkpt>
      <trkpt lat="42.563623" lon="-2.238623">
        <ele>463.3</ele>
        <time>2019-08-19T05:59:44Z</time>
        <sat>10</sat>
      </trkpt>
      <trkpt lat="42.563632" lon="-2.238852">
        <ele>463.6</ele>
        <time>2019-08-19T05:59:56Z</time>
        <sat>10</sat>
      </trkpt>
      <trkpt lat="42.563648" lon="-2.238944">
        <ele>463.7</ele>
        <time>2019-08-19T06:00:01Z</time>
        <sat>10</sat>
      </trkpt>
      <trkpt lat="42.563665" lon="-2.239115">
        <ele>463.9</ele>
        <time>2019-08-19T06:00:10Z</time>
        <sat>10</sat>
      </trkpt>
      <trkpt lat="42.563672" lon="-2.239251">
        <ele>463.8</ele>
        <time>2019-08-19T06:00:17Z</time>
        <sat>10</sat>
      </trkpt>
      <trkpt lat="42.563650" lon="-2.239506">
        <ele>464.3</ele>
        <time>2019-08-19T06:00:44Z</time>
        <sat>10</sat>
      </trkpt>
      <trkpt lat="42.563657" lon="-2.239580">
        <ele>464.3</ele>
        <time>2019-08-19T06:00:48Z</time>
        <sat>10</sat>
      </trkpt>
      <trkpt lat="42.563651" lon="-2.239761">
        <ele>464.1</ele>
        <time>2019-08-19T06:00:57Z</time>
        <sat>10</sat>
      </trkpt>
      <trkpt lat="42.563679" lon="-2.240070">
        <ele>464.7</ele>
        <time>2019-08-19T06:01:13Z</time>
        <sat>10</sat>
      </trkpt>
      <trkpt lat="42.563688" lon="-2.240109">
        <ele>464.8</ele>
        <time>2019-08-19T06:01:15Z</time>
        <sat>10</sat>
      </trkpt>
      <trkpt lat="42.563701" lon="-2.240216">
        <ele>465.2</ele>
        <time>2019-08-19T06:01:21Z</time>
        <sat>10</sat>
      </trkpt>
      <trkpt lat="42.563704" lon="-2.240331">
        <ele>465.2</ele>
        <time>2019-08-19T06:01:27Z</time>
        <sat>10</sat>
      </trkpt>
      <trkpt lat="42.563736" lon="-2.240474">
        <ele>465.2</ele>
        <time>2019-08-19T06:01:35Z</time>
        <sat>10</sat>
      </trkpt>
      <trkpt lat="42.563738" lon="-2.240539">
        <ele>465.5</ele>
        <time>2019-08-19T06:01:41Z</time>
        <sat>10</sat>
      </trkpt>
      <trkpt lat="42.563782" lon="-2.240788">
        <ele>465.6</ele>
        <time>2019-08-19T06:01:55Z</time>
        <sat>9</sat>
      </trkpt>
      <trkpt lat="42.563794" lon="-2.240928">
        <ele>465.6</ele>
        <time>2019-08-19T06:02:02Z</time>
        <sat>10</sat>
      </trkpt>
      <trkpt lat="42.563807" lon="-2.241019">
        <ele>465.6</ele>
        <time>2019-08-19T06:02:07Z</time>
        <sat>10</sat>
      </trkpt>
      <trkpt lat="42.563809" lon="-2.241154">
        <ele>466.0</ele>
        <time>2019-08-19T06:02:14Z</time>
        <sat>10</sat>
      </trkpt>
      <trkpt lat="42.563823" lon="-2.241304">
        <ele>466.2</ele>
        <time>2019-08-19T06:02:22Z</time>
        <sat>10</sat>
      </trkpt>
      <trkpt lat="42.563826" lon="-2.241503">
        <ele>466.6</ele>
        <time>2019-08-19T06:02:32Z</time>
        <sat>10</sat>
      </trkpt>
      <trkpt lat="42.563830" lon="-2.241599">
        <ele>466.7</ele>
        <time>2019-08-19T06:02:37Z</time>
        <sat>10</sat>
      </trkpt>
      <trkpt lat="42.563826" lon="-2.241900">
        <ele>466.6</ele>
        <time>2019-08-19T06:02:53Z</time>
        <sat>10</sat>
      </trkpt>
      <trkpt lat="42.563817" lon="-2.242033">
        <ele>467.0</ele>
        <time>2019-08-19T06:03:00Z</time>
        <sat>10</sat>
      </trkpt>
      <trkpt lat="42.563819" lon="-2.242128">
        <ele>467.0</ele>
        <time>2019-08-19T06:03:05Z</time>
        <sat>10</sat>
      </trkpt>
      <trkpt lat="42.563801" lon="-2.242320">
        <ele>467.2</ele>
        <time>2019-08-19T06:03:15Z</time>
        <sat>10</sat>
      </trkpt>
      <trkpt lat="42.563807" lon="-2.242400">
        <ele>467.2</ele>
        <time>2019-08-19T06:03:19Z</time>
        <sat>10</sat>
      </trkpt>
      <trkpt lat="42.563797" lon="-2.242627">
        <ele>467.5</ele>
        <time>2019-08-19T06:03:31Z</time>
        <sat>10</sat>
      </trkpt>
      <trkpt lat="42.563802" lon="-2.242756">
        <ele>467.7</ele>
        <time>2019-08-19T06:03:38Z</time>
        <sat>10</sat>
      </trkpt>
      <trkpt lat="42.563787" lon="-2.242906">
        <ele>468.0</ele>
        <time>2019-08-19T06:03:46Z</time>
        <sat>10</sat>
      </trkpt>
      <trkpt lat="42.563789" lon="-2.242998">
        <ele>468.0</ele>
        <time>2019-08-19T06:03:51Z</time>
        <sat>10</sat>
      </trkpt>
      <trkpt lat="42.563783" lon="-2.243065">
        <ele>468.1</ele>
        <time>2019-08-19T06:03:55Z</time>
        <sat>10</sat>
      </trkpt>
      <trkpt lat="42.563770" lon="-2.243134">
        <ele>468.2</ele>
        <time>2019-08-19T06:03:59Z</time>
        <sat>10</sat>
      </trkpt>
      <trkpt lat="42.563765" lon="-2.243270">
        <ele>468.1</ele>
        <time>2019-08-19T06:04:07Z</time>
        <sat>9</sat>
      </trkpt>
      <trkpt lat="42.563737" lon="-2.243411">
        <ele>468.0</ele>
        <time>2019-08-19T06:04:15Z</time>
        <sat>10</sat>
      </trkpt>
      <trkpt lat="42.563730" lon="-2.243545">
        <ele>467.9</ele>
        <time>2019-08-19T06:04:22Z</time>
        <sat>10</sat>
      </trkpt>
      <trkpt lat="42.563704" lon="-2.243675">
        <ele>467.7</ele>
        <time>2019-08-19T06:04:29Z</time>
        <sat>10</sat>
      </trkpt>
      <trkpt lat="42.563684" lon="-2.243884">
        <ele>467.5</ele>
        <time>2019-08-19T06:04:40Z</time>
        <sat>10</sat>
      </trkpt>
      <trkpt lat="42.563643" lon="-2.244075">
        <ele>467.4</ele>
        <time>2019-08-19T06:04:50Z</time>
        <sat>10</sat>
      </trkpt>
      <trkpt lat="42.563630" lon="-2.244200">
        <ele>467.5</ele>
        <time>2019-08-19T06:04:57Z</time>
        <sat>10</sat>
      </trkpt>
      <trkpt lat="42.563610" lon="-2.244291">
        <ele>467.5</ele>
        <time>2019-08-19T06:05:02Z</time>
        <sat>10</sat>
      </trkpt>
      <trkpt lat="42.563600" lon="-2.244412">
        <ele>467.4</ele>
        <time>2019-08-19T06:05:08Z</time>
        <sat>10</sat>
      </trkpt>
      <trkpt lat="42.563599" lon="-2.244523">
        <ele>467.5</ele>
        <time>2019-08-19T06:05:14Z</time>
        <sat>10</sat>
      </trkpt>
      <trkpt lat="42.563585" lon="-2.244634">
        <ele>467.7</ele>
        <time>2019-08-19T06:05:20Z</time>
        <sat>10</sat>
      </trkpt>
      <trkpt lat="42.563603" lon="-2.244640">
        <ele>467.8</ele>
        <time>2019-08-19T06:05:27Z</time>
        <sat>10</sat>
      </trkpt>
      <trkpt lat="42.563592" lon="-2.244658">
        <ele>467.8</ele>
        <time>2019-08-19T06:05:37Z</time>
        <sat>10</sat>
      </trkpt>
      <trkpt lat="42.563542" lon="-2.244903">
        <ele>467.6</ele>
        <time>2019-08-19T06:05:50Z</time>
        <sat>10</sat>
      </trkpt>
      <trkpt lat="42.563532" lon="-2.244943">
        <ele>467.5</ele>
        <time>2019-08-19T06:05:52Z</time>
        <sat>10</sat>
      </trkpt>
      <trkpt lat="42.563508" lon="-2.245136">
        <ele>467.4</ele>
        <time>2019-08-19T06:06:02Z</time>
        <sat>10</sat>
      </trkpt>
      <trkpt lat="42.563486" lon="-2.245229">
        <ele>467.2</ele>
        <time>2019-08-19T06:06:07Z</time>
        <sat>10</sat>
      </trkpt>
      <trkpt lat="42.563464" lon="-2.245381">
        <ele>466.8</ele>
        <time>2019-08-19T06:06:15Z</time>
        <sat>10</sat>
      </trkpt>
      <trkpt lat="42.563452" lon="-2.245588">
        <ele>466.4</ele>
        <time>2019-08-19T06:06:26Z</time>
        <sat>10</sat>
      </trkpt>
      <trkpt lat="42.563452" lon="-2.245628">
        <ele>466.3</ele>
        <time>2019-08-19T06:06:28Z</time>
        <sat>10</sat>
      </trkpt>
      <trkpt lat="42.563464" lon="-2.245796">
        <ele>466.1</ele>
        <time>2019-08-19T06:06:37Z</time>
        <sat>10</sat>
      </trkpt>
      <trkpt lat="42.563490" lon="-2.245991">
        <ele>466.2</ele>
        <time>2019-08-19T06:06:47Z</time>
        <sat>10</sat>
      </trkpt>
      <trkpt lat="42.563518" lon="-2.246080">
        <ele>466.2</ele>
        <time>2019-08-19T06:06:52Z</time>
        <sat>10</sat>
      </trkpt>
      <trkpt lat="42.563534" lon="-2.246249">
        <ele>466.2</ele>
        <time>2019-08-19T06:07:01Z</time>
        <sat>10</sat>
      </trkpt>
      <trkpt lat="42.563561" lon="-2.246341">
        <ele>466.4</ele>
        <time>2019-08-19T06:07:06Z</time>
        <sat>10</sat>
      </trkpt>
      <trkpt lat="42.563582" lon="-2.246551">
        <ele>466.5</ele>
        <time>2019-08-19T06:07:17Z</time>
        <sat>10</sat>
      </trkpt>
      <trkpt lat="42.563614" lon="-2.246735">
        <ele>466.6</ele>
        <time>2019-08-19T06:07:27Z</time>
        <sat>10</sat>
      </trkpt>
      <trkpt lat="42.563636" lon="-2.246988">
        <ele>467.0</ele>
        <time>2019-08-19T06:07:40Z</time>
        <sat>10</sat>
      </trkpt>
      <trkpt lat="42.563634" lon="-2.247090">
        <ele>467.3</ele>
        <time>2019-08-19T06:07:45Z</time>
        <sat>10</sat>
      </trkpt>
      <trkpt lat="42.563642" lon="-2.247186">
        <ele>467.6</ele>
        <time>2019-08-19T06:07:50Z</time>
        <sat>10</sat>
      </trkpt>
      <trkpt lat="42.563643" lon="-2.247341">
        <ele>467.9</ele>
        <time>2019-08-19T06:07:58Z</time>
        <sat>10</sat>
      </trkpt>
      <trkpt lat="42.563653" lon="-2.247397">
        <ele>468.1</ele>
        <time>2019-08-19T06:08:01Z</time>
        <sat>10</sat>
      </trkpt>
      <trkpt lat="42.563667" lon="-2.247619">
        <ele>468.7</ele>
        <time>2019-08-19T06:08:13Z</time>
        <sat>10</sat>
      </trkpt>
      <trkpt lat="42.563714" lon="-2.247844">
        <ele>468.8</ele>
        <time>2019-08-19T06:08:26Z</time>
        <sat>10</sat>
      </trkpt>
      <trkpt lat="42.563774" lon="-2.248092">
        <ele>468.0</ele>
        <time>2019-08-19T06:08:40Z</time>
        <sat>10</sat>
      </trkpt>
      <trkpt lat="42.563813" lon="-2.248219">
        <ele>467.4</ele>
        <time>2019-08-19T06:08:47Z</time>
        <sat>10</sat>
      </trkpt>
      <trkpt lat="42.563856" lon="-2.248402">
        <ele>466.7</ele>
        <time>2019-08-19T06:08:57Z</time>
        <sat>10</sat>
      </trkpt>
      <trkpt lat="42.563916" lon="-2.248517">
        <ele>466.3</ele>
        <time>2019-08-19T06:09:04Z</time>
        <sat>10</sat>
      </trkpt>
      <trkpt lat="42.563997" lon="-2.248693">
        <ele>465.9</ele>
        <time>2019-08-19T06:09:15Z</time>
        <sat>10</sat>
      </trkpt>
      <trkpt lat="42.564085" lon="-2.248800">
        <ele>465.4</ele>
        <time>2019-08-19T06:09:23Z</time>
        <sat>10</sat>
      </trkpt>
      <trkpt lat="42.564143" lon="-2.248889">
        <ele>465.3</ele>
        <time>2019-08-19T06:09:29Z</time>
        <sat>10</sat>
      </trkpt>
      <trkpt lat="42.564229" lon="-2.249054">
        <ele>465.0</ele>
        <time>2019-08-19T06:09:39Z</time>
        <sat>10</sat>
      </trkpt>
      <trkpt lat="42.564266" lon="-2.249136">
        <ele>464.8</ele>
        <time>2019-08-19T06:09:44Z</time>
        <sat>10</sat>
      </trkpt>
      <trkpt lat="42.564286" lon="-2.249211">
        <ele>464.7</ele>
        <time>2019-08-19T06:09:48Z</time>
        <sat>10</sat>
      </trkpt>
      <trkpt lat="42.564302" lon="-2.249326">
        <ele>464.6</ele>
        <time>2019-08-19T06:09:54Z</time>
        <sat>10</sat>
      </trkpt>
      <trkpt lat="42.564321" lon="-2.249401">
        <ele>464.5</ele>
        <time>2019-08-19T06:09:58Z</time>
        <sat>10</sat>
      </trkpt>
      <trkpt lat="42.564332" lon="-2.249506">
        <ele>464.3</ele>
        <time>2019-08-19T06:10:04Z</time>
        <sat>10</sat>
      </trkpt>
      <trkpt lat="42.564329" lon="-2.249582">
        <ele>464.3</ele>
        <time>2019-08-19T06:10:08Z</time>
        <sat>10</sat>
      </trkpt>
      <trkpt lat="42.564308" lon="-2.249781">
        <ele>464.0</ele>
        <time>2019-08-19T06:10:18Z</time>
        <sat>10</sat>
      </trkpt>
      <trkpt lat="42.564309" lon="-2.249842">
        <ele>463.9</ele>
        <time>2019-08-19T06:10:21Z</time>
        <sat>10</sat>
      </trkpt>
      <trkpt lat="42.564288" lon="-2.249990">
        <ele>463.5</ele>
        <time>2019-08-19T06:10:29Z</time>
        <sat>10</sat>
      </trkpt>
      <trkpt lat="42.564255" lon="-2.250145">
        <ele>463.2</ele>
        <time>2019-08-19T06:10:37Z</time>
        <sat>10</sat>
      </trkpt>
      <trkpt lat="42.564239" lon="-2.250265">
        <ele>463.0</ele>
        <time>2019-08-19T06:10:43Z</time>
        <sat>10</sat>
      </trkpt>
      <trkpt lat="42.564210" lon="-2.250413">
        <ele>462.8</ele>
        <time>2019-08-19T06:10:51Z</time>
        <sat>10</sat>
      </trkpt>
      <trkpt lat="42.564186" lon="-2.250464">
        <ele>462.8</ele>
        <time>2019-08-19T06:10:54Z</time>
        <sat>10</sat>
      </trkpt>
      <trkpt lat="42.564146" lon="-2.250572">
        <ele>462.7</ele>
        <time>2019-08-19T06:11:00Z</time>
        <sat>10</sat>
      </trkpt>
      <trkpt lat="42.564117" lon="-2.250748">
        <ele>462.6</ele>
        <time>2019-08-19T06:11:09Z</time>
        <sat>10</sat>
      </trkpt>
      <trkpt lat="42.564065" lon="-2.250960">
        <ele>462.9</ele>
        <time>2019-08-19T06:11:20Z</time>
        <sat>10</sat>
      </trkpt>
      <trkpt lat="42.564060" lon="-2.251041">
        <ele>463.0</ele>
        <time>2019-08-19T06:11:24Z</time>
        <sat>10</sat>
      </trkpt>
      <trkpt lat="42.564063" lon="-2.251133">
        <ele>463.0</ele>
        <time>2019-08-19T06:11:29Z</time>
        <sat>10</sat>
      </trkpt>
      <trkpt lat="42.564049" lon="-2.251272">
        <ele>463.1</ele>
        <time>2019-08-19T06:11:36Z</time>
        <sat>10</sat>
      </trkpt>
      <trkpt lat="42.564047" lon="-2.251367">
        <ele>463.1</ele>
        <time>2019-08-19T06:11:41Z</time>
        <sat>10</sat>
      </trkpt>
      <trkpt lat="42.564054" lon="-2.251443">
        <ele>463.2</ele>
        <time>2019-08-19T06:11:45Z</time>
        <sat>10</sat>
      </trkpt>
      <trkpt lat="42.563973" lon="-2.252462">
        <ele>463.9</ele>
        <time>2019-08-19T06:21:26Z</time>
        <sat>7</sat>
      </trkpt>
      <trkpt lat="42.563938" lon="-2.252568">
        <ele>462.6</ele>
        <time>2019-08-19T06:21:32Z</time>
        <sat>7</sat>
      </trkpt>
      <trkpt lat="42.563894" lon="-2.252750">
        <ele>461.1</ele>
        <time>2019-08-19T06:21:42Z</time>
        <sat>7</sat>
      </trkpt>
      <trkpt lat="42.563841" lon="-2.252956">
        <ele>459.9</ele>
        <time>2019-08-19T06:21:54Z</time>
        <sat>7</sat>
      </trkpt>
      <trkpt lat="42.563838" lon="-2.253014">
        <ele>460.4</ele>
        <time>2019-08-19T06:21:57Z</time>
        <sat>7</sat>
      </trkpt>
      <trkpt lat="42.563826" lon="-2.253106">
        <ele>460.4</ele>
        <time>2019-08-19T06:22:02Z</time>
        <sat>7</sat>
      </trkpt>
      <trkpt lat="42.563785" lon="-2.253324">
        <ele>460.1</ele>
        <time>2019-08-19T06:22:14Z</time>
        <sat>8</sat>
      </trkpt>
      <trkpt lat="42.563715" lon="-2.253552">
        <ele>459.9</ele>
        <time>2019-08-19T06:22:28Z</time>
        <sat>8</sat>
      </trkpt>
      <trkpt lat="42.563684" lon="-2.253631">
        <ele>459.9</ele>
        <time>2019-08-19T06:22:33Z</time>
        <sat>8</sat>
      </trkpt>
      <trkpt lat="42.563662" lon="-2.253725">
        <ele>459.8</ele>
        <time>2019-08-19T06:22:39Z</time>
        <sat>8</sat>
      </trkpt>
      <trkpt lat="42.563621" lon="-2.253853">
        <ele>459.1</ele>
        <time>2019-08-19T06:22:47Z</time>
        <sat>8</sat>
      </trkpt>
      <trkpt lat="42.563571" lon="-2.254092">
        <ele>457.8</ele>
        <time>2019-08-19T06:23:01Z</time>
        <sat>8</sat>
      </trkpt>
      <trkpt lat="42.563571" lon="-2.254164">
        <ele>457.4</ele>
        <time>2019-08-19T06:23:05Z</time>
        <sat>8</sat>
      </trkpt>
      <trkpt lat="42.563583" lon="-2.254251">
        <ele>456.9</ele>
        <time>2019-08-19T06:23:10Z</time>
        <sat>7</sat>
      </trkpt>
      <trkpt lat="42.563599" lon="-2.254318">
        <ele>456.6</ele>
        <time>2019-08-19T06:23:14Z</time>
        <sat>7</sat>
      </trkpt>
      <trkpt lat="42.563629" lon="-2.254382">
        <ele>456.3</ele>
        <time>2019-08-19T06:23:18Z</time>
        <sat>7</sat>
      </trkpt>
      <trkpt lat="42.563692" lon="-2.254501">
        <ele>455.7</ele>
        <time>2019-08-19T06:23:26Z</time>
        <sat>7</sat>
      </trkpt>
      <trkpt lat="42.563779" lon="-2.254715">
        <ele>455.1</ele>
        <time>2019-08-19T06:23:39Z</time>
        <sat>8</sat>
      </trkpt>
      <trkpt lat="42.563789" lon="-2.254783">
        <ele>455.1</ele>
        <time>2019-08-19T06:23:43Z</time>
        <sat>8</sat>
      </trkpt>
      <trkpt lat="42.563765" lon="-2.254993">
        <ele>454.8</ele>
        <time>2019-08-19T06:23:55Z</time>
        <sat>8</sat>
      </trkpt>
      <trkpt lat="42.563739" lon="-2.255052">
        <ele>454.5</ele>
        <time>2019-08-19T06:23:59Z</time>
        <sat>8</sat>
      </trkpt>
      <trkpt lat="42.563702" lon="-2.255165">
        <ele>454.1</ele>
        <time>2019-08-19T06:24:06Z</time>
        <sat>8</sat>
      </trkpt>
      <trkpt lat="42.563621" lon="-2.255317">
        <ele>454.0</ele>
        <time>2019-08-19T06:24:16Z</time>
        <sat>8</sat>
      </trkpt>
      <trkpt lat="42.563581" lon="-2.255410">
        <ele>454.1</ele>
        <time>2019-08-19T06:24:22Z</time>
        <sat>8</sat>
      </trkpt>
      <trkpt lat="42.563514" lon="-2.255503">
        <ele>454.2</ele>
        <time>2019-08-19T06:24:29Z</time>
        <sat>8</sat>
      </trkpt>
      <trkpt lat="42.563488" lon="-2.255556">
        <ele>454.2</ele>
        <time>2019-08-19T06:24:33Z</time>
        <sat>8</sat>
      </trkpt>
      <trkpt lat="42.563452" lon="-2.255616">
        <ele>454.5</ele>
        <time>2019-08-19T06:24:41Z</time>
        <sat>8</sat>
      </trkpt>
      <trkpt lat="42.563426" lon="-2.255682">
        <ele>454.6</ele>
        <time>2019-08-19T06:24:45Z</time>
        <sat>9</sat>
      </trkpt>
      <trkpt lat="42.563290" lon="-2.255838">
        <ele>454.8</ele>
        <time>2019-08-19T06:24:58Z</time>
        <sat>9</sat>
      </trkpt>
      <trkpt lat="42.563231" lon="-2.255887">
        <ele>455.0</ele>
        <time>2019-08-19T06:25:03Z</time>
        <sat>9</sat>
      </trkpt>
      <trkpt lat="42.563153" lon="-2.255938">
        <ele>455.3</ele>
        <time>2019-08-19T06:25:09Z</time>
        <sat>9</sat>
      </trkpt>
      <trkpt lat="42.563110" lon="-2.255984">
        <ele>455.5</ele>
        <time>2019-08-19T06:25:13Z</time>
        <sat>9</sat>
      </trkpt>
      <trkpt lat="42.563046" lon="-2.256020">
        <ele>455.9</ele>
        <time>2019-08-19T06:25:18Z</time>
        <sat>9</sat>
      </trkpt>
      <trkpt lat="42.562942" lon="-2.256155">
        <ele>456.6</ele>
        <time>2019-08-19T06:25:28Z</time>
        <sat>9</sat>
      </trkpt>
      <trkpt lat="42.562921" lon="-2.256206">
        <ele>456.9</ele>
        <time>2019-08-19T06:25:31Z</time>
        <sat>8</sat>
      </trkpt>
      <trkpt lat="42.562882" lon="-2.256263">
        <ele>457.5</ele>
        <time>2019-08-19T06:25:35Z</time>
        <sat>9</sat>
      </trkpt>
      <trkpt lat="42.562833" lon="-2.256389">
        <ele>458.8</ele>
        <time>2019-08-19T06:25:43Z</time>
        <sat>9</sat>
      </trkpt>
      <trkpt lat="42.562841" lon="-2.256411">
        <ele>460.9</ele>
        <time>2019-08-19T06:26:17Z</time>
        <sat>8</sat>
      </trkpt>
      <trkpt lat="42.562834" lon="-2.256412">
        <ele>461.2</ele>
        <time>2019-08-19T06:26:31Z</time>
        <sat>8</sat>
      </trkpt>
      <trkpt lat="42.562836" lon="-2.256381">
        <ele>460.8</ele>
        <time>2019-08-19T06:26:46Z</time>
        <sat>9</sat>
      </trkpt>
      <trkpt lat="42.562827" lon="-2.256439">
        <ele>460.9</ele>
        <time>2019-08-19T06:26:56Z</time>
        <sat>7</sat>
      </trkpt>
      <trkpt lat="42.562795" lon="-2.256548">
        <ele>461.1</ele>
        <time>2019-08-19T06:27:02Z</time>
        <sat>9</sat>
      </trkpt>
      <trkpt lat="42.562803" lon="-2.256676">
        <ele>461.4</ele>
        <time>2019-08-19T06:27:09Z</time>
        <sat>9</sat>
      </trkpt>
      <trkpt lat="42.562829" lon="-2.256765">
        <ele>461.9</ele>
        <time>2019-08-19T06:27:14Z</time>
        <sat>9</sat>
      </trkpt>
      <trkpt lat="42.562874" lon="-2.256981">
        <ele>462.9</ele>
        <time>2019-08-19T06:27:26Z</time>
        <sat>9</sat>
      </trkpt>
      <trkpt lat="42.562880" lon="-2.257037">
        <ele>463.6</ele>
        <time>2019-08-19T06:27:29Z</time>
        <sat>9</sat>
      </trkpt>
      <trkpt lat="42.562905" lon="-2.257144">
        <ele>463.9</ele>
        <time>2019-08-19T06:27:35Z</time>
        <sat>9</sat>
      </trkpt>
      <trkpt lat="42.562887" lon="-2.257274">
        <ele>463.9</ele>
        <time>2019-08-19T06:27:43Z</time>
        <sat>9</sat>
      </trkpt>
      <trkpt lat="42.562853" lon="-2.257328">
        <ele>464.0</ele>
        <time>2019-08-19T06:27:47Z</time>
        <sat>9</sat>
      </trkpt>
      <trkpt lat="42.562804" lon="-2.257389">
        <ele>463.7</ele>
        <time>2019-08-19T06:27:52Z</time>
        <sat>9</sat>
      </trkpt>
      <trkpt lat="42.562677" lon="-2.257500">
        <ele>465.3</ele>
        <time>2019-08-19T06:28:03Z</time>
        <sat>9</sat>
      </trkpt>
      <trkpt lat="42.562578" lon="-2.257605">
        <ele>465.8</ele>
        <time>2019-08-19T06:28:12Z</time>
        <sat>9</sat>
      </trkpt>
      <trkpt lat="42.562430" lon="-2.257730">
        <ele>466.0</ele>
        <time>2019-08-19T06:28:24Z</time>
        <sat>9</sat>
      </trkpt>
      <trkpt lat="42.562408" lon="-2.257756">
        <ele>466.1</ele>
        <time>2019-08-19T06:28:26Z</time>
        <sat>9</sat>
      </trkpt>
      <trkpt lat="42.562249" lon="-2.257889">
        <ele>466.3</ele>
        <time>2019-08-19T06:28:39Z</time>
        <sat>9</sat>
      </trkpt>
      <trkpt lat="42.562147" lon="-2.257999">
        <ele>466.3</ele>
        <time>2019-08-19T06:28:48Z</time>
        <sat>9</sat>
      </trkpt>
      <trkpt lat="42.562056" lon="-2.258066">
        <ele>466.5</ele>
        <time>2019-08-19T06:28:56Z</time>
        <sat>9</sat>
      </trkpt>
      <trkpt lat="42.561946" lon="-2.258161">
        <ele>466.9</ele>
        <time>2019-08-19T06:29:12Z</time>
        <sat>9</sat>
      </trkpt>
      <trkpt lat="42.561877" lon="-2.258236">
        <ele>466.9</ele>
        <time>2019-08-19T06:29:19Z</time>
        <sat>9</sat>
      </trkpt>
      <trkpt lat="42.561777" lon="-2.258309">
        <ele>467.0</ele>
        <time>2019-08-19T06:29:27Z</time>
        <sat>9</sat>
      </trkpt>
      <trkpt lat="42.561664" lon="-2.258416">
        <ele>467.1</ele>
        <time>2019-08-19T06:29:37Z</time>
        <sat>9</sat>
      </trkpt>
      <trkpt lat="42.561527" lon="-2.258527">
        <ele>467.1</ele>
        <time>2019-08-19T06:29:48Z</time>
        <sat>9</sat>
      </trkpt>
      <trkpt lat="42.561464" lon="-2.258598">
        <ele>467.1</ele>
        <time>2019-08-19T06:29:54Z</time>
        <sat>9</sat>
      </trkpt>
      <trkpt lat="42.561393" lon="-2.258655">
        <ele>467.5</ele>
        <time>2019-08-19T06:30:00Z</time>
        <sat>9</sat>
      </trkpt>
      <trkpt lat="42.561370" lon="-2.258685">
        <ele>467.5</ele>
        <time>2019-08-19T06:30:02Z</time>
        <sat>9</sat>
      </trkpt>
      <trkpt lat="42.561324" lon="-2.258765">
        <ele>467.6</ele>
        <time>2019-08-19T06:30:07Z</time>
        <sat>9</sat>
      </trkpt>
      <trkpt lat="42.561263" lon="-2.258849">
        <ele>467.8</ele>
        <time>2019-08-19T06:30:13Z</time>
        <sat>9</sat>
      </trkpt>
      <trkpt lat="42.561108" lon="-2.258975">
        <ele>468.2</ele>
        <time>2019-08-19T06:30:25Z</time>
        <sat>9</sat>
      </trkpt>
      <trkpt lat="42.561043" lon="-2.259043">
        <ele>468.5</ele>
        <time>2019-08-19T06:30:31Z</time>
        <sat>9</sat>
      </trkpt>
      <trkpt lat="42.560950" lon="-2.259111">
        <ele>468.8</ele>
        <time>2019-08-19T06:30:38Z</time>
        <sat>9</sat>
      </trkpt>
      <trkpt lat="42.560819" lon="-2.259248">
        <ele>469.5</ele>
        <time>2019-08-19T06:30:50Z</time>
        <sat>9</sat>
      </trkpt>
      <trkpt lat="42.560716" lon="-2.259352">
        <ele>470.0</ele>
        <time>2019-08-19T06:31:08Z</time>
        <sat>8</sat>
      </trkpt>
      <trkpt lat="42.560584" lon="-2.259516">
        <ele>470.1</ele>
        <time>2019-08-19T06:31:21Z</time>
        <sat>9</sat>
      </trkpt>
      <trkpt lat="42.560537" lon="-2.259588">
        <ele>469.9</ele>
        <time>2019-08-19T06:31:26Z</time>
        <sat>9</sat>
      </trkpt>
      <trkpt lat="42.560411" lon="-2.259745">
        <ele>469.3</ele>
        <time>2019-08-19T06:31:38Z</time>
        <sat>9</sat>
      </trkpt>
      <trkpt lat="42.560298" lon="-2.259905">
        <ele>468.8</ele>
        <time>2019-08-19T06:31:50Z</time>
        <sat>9</sat>
      </trkpt>
      <trkpt lat="42.560234" lon="-2.260008">
        <ele>468.4</ele>
        <time>2019-08-19T06:31:57Z</time>
        <sat>9</sat>
      </trkpt>
      <trkpt lat="42.560150" lon="-2.260112">
        <ele>468.2</ele>
        <time>2019-08-19T06:32:05Z</time>
        <sat>9</sat>
      </trkpt>
      <trkpt lat="42.560028" lon="-2.260295">
        <ele>467.7</ele>
        <time>2019-08-19T06:32:18Z</time>
        <sat>9</sat>
      </trkpt>
      <trkpt lat="42.559955" lon="-2.260386">
        <ele>467.5</ele>
        <time>2019-08-19T06:32:25Z</time>
        <sat>9</sat>
      </trkpt>
      <trkpt lat="42.559883" lon="-2.260504">
        <ele>467.5</ele>
        <time>2019-08-19T06:32:33Z</time>
        <sat>9</sat>
      </trkpt>
      <trkpt lat="42.559807" lon="-2.260595">
        <ele>467.3</ele>
        <time>2019-08-19T06:32:40Z</time>
        <sat>9</sat>
      </trkpt>
      <trkpt lat="42.559716" lon="-2.260734">
        <ele>467.2</ele>
        <time>2019-08-19T06:32:50Z</time>
        <sat>9</sat>
      </trkpt>
      <trkpt lat="42.559651" lon="-2.260808">
        <ele>467.3</ele>
        <time>2019-08-19T06:32:56Z</time>
        <sat>9</sat>
      </trkpt>
      <trkpt lat="42.559589" lon="-2.260906">
        <ele>467.2</ele>
        <time>2019-08-19T06:33:03Z</time>
        <sat>9</sat>
      </trkpt>
      <trkpt lat="42.559501" lon="-2.261020">
        <ele>467.1</ele>
        <time>2019-08-19T06:33:12Z</time>
        <sat>9</sat>
      </trkpt>
      <trkpt lat="42.559429" lon="-2.261136">
        <ele>466.9</ele>
        <time>2019-08-19T06:33:20Z</time>
        <sat>9</sat>
      </trkpt>
      <trkpt lat="42.559329" lon="-2.261266">
        <ele>466.6</ele>
        <time>2019-08-19T06:33:30Z</time>
        <sat>9</sat>
      </trkpt>
      <trkpt lat="42.559210" lon="-2.261454">
        <ele>466.3</ele>
        <time>2019-08-19T06:33:43Z</time>
        <sat>9</sat>
      </trkpt>
      <trkpt lat="42.559151" lon="-2.261561">
        <ele>466.1</ele>
        <time>2019-08-19T06:33:50Z</time>
        <sat>9</sat>
      </trkpt>
      <trkpt lat="42.559139" lon="-2.261593">
        <ele>466.1</ele>
        <time>2019-08-19T06:33:52Z</time>
        <sat>9</sat>
      </trkpt>
      <trkpt lat="42.559053" lon="-2.261738">
        <ele>465.9</ele>
        <time>2019-08-19T06:34:02Z</time>
        <sat>9</sat>
      </trkpt>
      <trkpt lat="42.559025" lon="-2.261801">
        <ele>465.8</ele>
        <time>2019-08-19T06:34:06Z</time>
        <sat>9</sat>
      </trkpt>
      <trkpt lat="42.558966" lon="-2.261906">
        <ele>465.8</ele>
        <time>2019-08-19T06:34:13Z</time>
        <sat>9</sat>
      </trkpt>
      <trkpt lat="42.558865" lon="-2.262048">
        <ele>465.8</ele>
        <time>2019-08-19T06:34:24Z</time>
        <sat>9</sat>
      </trkpt>
      <trkpt lat="42.558784" lon="-2.262207">
        <ele>465.7</ele>
        <time>2019-08-19T06:34:34Z</time>
        <sat>9</sat>
      </trkpt>
      <trkpt lat="42.558737" lon="-2.262343">
        <ele>465.7</ele>
        <time>2019-08-19T06:34:42Z</time>
        <sat>9</sat>
      </trkpt>
      <trkpt lat="42.558652" lon="-2.262521">
        <ele>465.5</ele>
        <time>2019-08-19T06:34:53Z</time>
        <sat>9</sat>
      </trkpt>
      <trkpt lat="42.558596" lon="-2.262670">
        <ele>465.3</ele>
        <time>2019-08-19T06:35:02Z</time>
        <sat>9</sat>
      </trkpt>
      <trkpt lat="42.558521" lon="-2.262817">
        <ele>465.4</ele>
        <time>2019-08-19T06:35:11Z</time>
        <sat>9</sat>
      </trkpt>
      <trkpt lat="42.558480" lon="-2.262940">
        <ele>465.5</ele>
        <time>2019-08-19T06:35:18Z</time>
        <sat>9</sat>
      </trkpt>
      <trkpt lat="42.558382" lon="-2.263144">
        <ele>465.9</ele>
        <time>2019-08-19T06:35:36Z</time>
        <sat>9</sat>
      </trkpt>
      <trkpt lat="42.558348" lon="-2.263232">
        <ele>466.0</ele>
        <time>2019-08-19T06:35:43Z</time>
        <sat>9</sat>
      </trkpt>
      <trkpt lat="42.558298" lon="-2.263335">
        <ele>466.1</ele>
        <time>2019-08-19T06:35:52Z</time>
        <sat>9</sat>
      </trkpt>
      <trkpt lat="42.558219" lon="-2.263503">
        <ele>466.4</ele>
        <time>2019-08-19T06:36:07Z</time>
        <sat>9</sat>
      </trkpt>
      <trkpt lat="42.558177" lon="-2.263595">
        <ele>466.4</ele>
        <time>2019-08-19T06:36:14Z</time>
        <sat>9</sat>
      </trkpt>
      <trkpt lat="42.558112" lon="-2.263758">
        <ele>466.1</ele>
        <time>2019-08-19T06:36:28Z</time>
        <sat>9</sat>
      </trkpt>
      <trkpt lat="42.558040" lon="-2.263901">
        <ele>467.0</ele>
        <time>2019-08-19T06:36:44Z</time>
        <sat>9</sat>
      </trkpt>
      <trkpt lat="42.557986" lon="-2.264016">
        <ele>467.2</ele>
        <time>2019-08-19T06:36:59Z</time>
        <sat>9</sat>
      </trkpt>
      <trkpt lat="42.557974" lon="-2.264060">
        <ele>467.3</ele>
        <time>2019-08-19T06:37:10Z</time>
        <sat>9</sat>
      </trkpt>
      <trkpt lat="42.557909" lon="-2.264195">
        <ele>467.6</ele>
        <time>2019-08-19T06:37:23Z</time>
        <sat>9</sat>
      </trkpt>
      <trkpt lat="42.557841" lon="-2.264376">
        <ele>468.2</ele>
        <time>2019-08-19T06:37:46Z</time>
        <sat>9</sat>
      </trkpt>
      <trkpt lat="42.557805" lon="-2.264461">
        <ele>468.3</ele>
        <time>2019-08-19T06:37:53Z</time>
        <sat>9</sat>
      </trkpt>
      <trkpt lat="42.557706" lon="-2.264669">
        <ele>469.3</ele>
        <time>2019-08-19T06:38:15Z</time>
        <sat>9</sat>
      </trkpt>
      <trkpt lat="42.557676" lon="-2.264752">
        <ele>469.4</ele>
        <time>2019-08-19T06:38:20Z</time>
        <sat>9</sat>
      </trkpt>
      <trkpt lat="42.557641" lon="-2.264813">
        <ele>469.5</ele>
        <time>2019-08-19T06:38:24Z</time>
        <sat>9</sat>
      </trkpt>
      <trkpt lat="42.557580" lon="-2.264899">
        <ele>469.8</ele>
        <time>2019-08-19T06:38:30Z</time>
        <sat>9</sat>
      </trkpt>
      <trkpt lat="42.557523" lon="-2.264959">
        <ele>470.2</ele>
        <time>2019-08-19T06:38:35Z</time>
        <sat>9</sat>
      </trkpt>
      <trkpt lat="42.557423" lon="-2.264995">
        <ele>470.6</ele>
        <time>2019-08-19T06:38:42Z</time>
        <sat>9</sat>
      </trkpt>
      <trkpt lat="42.557354" lon="-2.265003">
        <ele>471.1</ele>
        <time>2019-08-19T06:38:47Z</time>
        <sat>9</sat>
      </trkpt>
      <trkpt lat="42.557278" lon="-2.264985">
        <ele>471.4</ele>
        <time>2019-08-19T06:38:52Z</time>
        <sat>9</sat>
      </trkpt>
      <trkpt lat="42.557177" lon="-2.264975">
        <ele>472.1</ele>
        <time>2019-08-19T06:38:59Z</time>
        <sat>9</sat>
      </trkpt>
      <trkpt lat="42.557065" lon="-2.264933">
        <ele>472.9</ele>
        <time>2019-08-19T06:39:07Z</time>
        <sat>9</sat>
      </trkpt>
      <trkpt lat="42.556952" lon="-2.264920">
        <ele>473.0</ele>
        <time>2019-08-19T06:39:15Z</time>
        <sat>9</sat>
      </trkpt>
      <trkpt lat="42.556862" lon="-2.264894">
        <ele>474.0</ele>
        <time>2019-08-19T06:39:21Z</time>
        <sat>9</sat>
      </trkpt>
      <trkpt lat="42.556676" lon="-2.264874">
        <ele>475.6</ele>
        <time>2019-08-19T06:39:37Z</time>
        <sat>9</sat>
      </trkpt>
      <trkpt lat="42.556647" lon="-2.264874">
        <ele>475.7</ele>
        <time>2019-08-19T06:39:39Z</time>
        <sat>9</sat>
      </trkpt>
      <trkpt lat="42.556616" lon="-2.264885">
        <ele>476.4</ele>
        <time>2019-08-19T06:39:50Z</time>
        <sat>9</sat>
      </trkpt>
      <trkpt lat="42.556537" lon="-2.264892">
        <ele>476.7</ele>
        <time>2019-08-19T06:39:55Z</time>
        <sat>9</sat>
      </trkpt>
      <trkpt lat="42.556478" lon="-2.264912">
        <ele>476.8</ele>
        <time>2019-08-19T06:39:59Z</time>
        <sat>9</sat>
      </trkpt>
      <trkpt lat="42.556401" lon="-2.264978">
        <ele>477.2</ele>
        <time>2019-08-19T06:40:05Z</time>
        <sat>9</sat>
      </trkpt>
      <trkpt lat="42.556236" lon="-2.265110">
        <ele>478.0</ele>
        <time>2019-08-19T06:40:18Z</time>
        <sat>9</sat>
      </trkpt>
      <trkpt lat="42.556126" lon="-2.265269">
        <ele>479.0</ele>
        <time>2019-08-19T06:40:38Z</time>
        <sat>9</sat>
      </trkpt>
      <trkpt lat="42.556067" lon="-2.265335">
        <ele>479.2</ele>
        <time>2019-08-19T06:40:43Z</time>
        <sat>9</sat>
      </trkpt>
      <trkpt lat="42.555955" lon="-2.265452">
        <ele>479.6</ele>
        <time>2019-08-19T06:40:52Z</time>
        <sat>9</sat>
      </trkpt>
      <trkpt lat="42.555905" lon="-2.265528">
        <ele>479.8</ele>
        <time>2019-08-19T06:40:57Z</time>
        <sat>9</sat>
      </trkpt>
      <trkpt lat="42.555775" lon="-2.265665">
        <ele>480.7</ele>
        <time>2019-08-19T06:41:08Z</time>
        <sat>9</sat>
      </trkpt>
      <trkpt lat="42.555741" lon="-2.265727">
        <ele>481.1</ele>
        <time>2019-08-19T06:41:12Z</time>
        <sat>9</sat>
      </trkpt>
      <trkpt lat="42.555709" lon="-2.265764">
        <ele>481.3</ele>
        <time>2019-08-19T06:41:15Z</time>
        <sat>9</sat>
      </trkpt>
      <trkpt lat="42.555643" lon="-2.265848">
        <ele>482.5</ele>
        <time>2019-08-19T06:41:31Z</time>
        <sat>9</sat>
      </trkpt>
      <trkpt lat="42.555574" lon="-2.266024">
        <ele>483.0</ele>
        <time>2019-08-19T06:41:42Z</time>
        <sat>9</sat>
      </trkpt>
      <trkpt lat="42.555525" lon="-2.266074">
        <ele>483.3</ele>
        <time>2019-08-19T06:41:46Z</time>
        <sat>9</sat>
      </trkpt>
      <trkpt lat="42.555505" lon="-2.266122">
        <ele>484.3</ele>
        <time>2019-08-19T06:41:59Z</time>
        <sat>9</sat>
      </trkpt>
      <trkpt lat="42.555465" lon="-2.266146">
        <ele>484.7</ele>
        <time>2019-08-19T06:42:03Z</time>
        <sat>9</sat>
      </trkpt>
      <trkpt lat="42.555317" lon="-2.266283">
        <ele>485.2</ele>
        <time>2019-08-19T06:42:15Z</time>
        <sat>9</sat>
      </trkpt>
      <trkpt lat="42.555234" lon="-2.266306">
        <ele>485.7</ele>
        <time>2019-08-19T06:42:21Z</time>
        <sat>9</sat>
      </trkpt>
      <trkpt lat="42.555151" lon="-2.266342">
        <ele>486.0</ele>
        <time>2019-08-19T06:42:27Z</time>
        <sat>9</sat>
      </trkpt>
      <trkpt lat="42.555037" lon="-2.266365">
        <ele>486.9</ele>
        <time>2019-08-19T06:42:45Z</time>
        <sat>9</sat>
      </trkpt>
      <trkpt lat="42.554957" lon="-2.266396">
        <ele>487.3</ele>
        <time>2019-08-19T06:42:51Z</time>
        <sat>9</sat>
      </trkpt>
      <trkpt lat="42.554798" lon="-2.266428">
        <ele>488.4</ele>
        <time>2019-08-19T06:43:03Z</time>
        <sat>8</sat>
      </trkpt>
      <trkpt lat="42.554752" lon="-2.266428">
        <ele>488.0</ele>
        <time>2019-08-19T06:43:07Z</time>
        <sat>7</sat>
      </trkpt>
      <trkpt lat="42.554598" lon="-2.266449">
        <ele>489.1</ele>
        <time>2019-08-19T06:43:19Z</time>
        <sat>8</sat>
      </trkpt>
      <trkpt lat="42.554514" lon="-2.266474">
        <ele>489.1</ele>
        <time>2019-08-19T06:43:26Z</time>
        <sat>7</sat>
      </trkpt>
      <trkpt lat="42.554445" lon="-2.266471">
        <ele>489.8</ele>
        <time>2019-08-19T06:43:32Z</time>
        <sat>7</sat>
      </trkpt>
      <trkpt lat="42.554380" lon="-2.266479">
        <ele>488.9</ele>
        <time>2019-08-19T06:43:37Z</time>
        <sat>8</sat>
      </trkpt>
      <trkpt lat="42.554344" lon="-2.266477">
        <ele>489.7</ele>
        <time>2019-08-19T06:43:40Z</time>
        <sat>8</sat>
      </trkpt>
      <trkpt lat="42.554275" lon="-2.266453">
        <ele>490.5</ele>
        <time>2019-08-19T06:43:50Z</time>
        <sat>7</sat>
      </trkpt>
      <trkpt lat="42.554235" lon="-2.266547">
        <ele>494.9</ele>
        <time>2019-08-19T06:48:24Z</time>
        <sat>8</sat>
      </trkpt>
      <trkpt lat="42.554214" lon="-2.266509">
        <ele>494.8</ele>
        <time>2019-08-19T06:48:28Z</time>
        <sat>8</sat>
      </trkpt>
      <trkpt lat="42.554136" lon="-2.266442">
        <ele>494.6</ele>
        <time>2019-08-19T06:48:43Z</time>
        <sat>8</sat>
      </trkpt>
      <trkpt lat="42.554078" lon="-2.266365">
        <ele>494.7</ele>
        <time>2019-08-19T06:48:49Z</time>
        <sat>8</sat>
      </trkpt>
      <trkpt lat="42.554003" lon="-2.266317">
        <ele>494.8</ele>
        <time>2019-08-19T06:48:55Z</time>
        <sat>8</sat>
      </trkpt>
      <trkpt lat="42.553963" lon="-2.266298">
        <ele>494.8</ele>
        <time>2019-08-19T06:48:58Z</time>
        <sat>8</sat>
      </trkpt>
      <trkpt lat="42.553920" lon="-2.266250">
        <ele>494.8</ele>
        <time>2019-08-19T06:49:02Z</time>
        <sat>7</sat>
      </trkpt>
      <trkpt lat="42.553867" lon="-2.266203">
        <ele>494.5</ele>
        <time>2019-08-19T06:49:07Z</time>
        <sat>7</sat>
      </trkpt>
      <trkpt lat="42.553811" lon="-2.266141">
        <ele>494.2</ele>
        <time>2019-08-19T06:49:13Z</time>
        <sat>8</sat>
      </trkpt>
      <trkpt lat="42.553732" lon="-2.266091">
        <ele>494.0</ele>
        <time>2019-08-19T06:49:20Z</time>
        <sat>9</sat>
      </trkpt>
      <trkpt lat="42.553634" lon="-2.266017">
        <ele>493.5</ele>
        <time>2019-08-19T06:49:29Z</time>
        <sat>9</sat>
      </trkpt>
      <trkpt lat="42.553593" lon="-2.265940">
        <ele>493.4</ele>
        <time>2019-08-19T06:49:35Z</time>
        <sat>7</sat>
      </trkpt>
      <trkpt lat="42.553578" lon="-2.265892">
        <ele>493.2</ele>
        <time>2019-08-19T06:49:39Z</time>
        <sat>8</sat>
      </trkpt>
      <trkpt lat="42.553573" lon="-2.265922">
        <ele>492.7</ele>
        <time>2019-08-19T06:49:46Z</time>
        <sat>8</sat>
      </trkpt>
      <trkpt lat="42.553512" lon="-2.265930">
        <ele>492.5</ele>
        <time>2019-08-19T06:49:51Z</time>
        <sat>7</sat>
      </trkpt>
      <trkpt lat="42.553468" lon="-2.265945">
        <ele>492.5</ele>
        <time>2019-08-19T06:49:58Z</time>
        <sat>8</sat>
      </trkpt>
      <trkpt lat="42.553409" lon="-2.265941">
        <ele>492.7</ele>
        <time>2019-08-19T06:50:03Z</time>
        <sat>7</sat>
      </trkpt>
      <trkpt lat="42.553322" lon="-2.265905">
        <ele>492.6</ele>
        <time>2019-08-19T06:50:10Z</time>
        <sat>8</sat>
      </trkpt>
      <trkpt lat="42.553203" lon="-2.265944">
        <ele>492.5</ele>
        <time>2019-08-19T06:50:19Z</time>
        <sat>8</sat>
      </trkpt>
      <trkpt lat="42.553089" lon="-2.265966">
        <ele>492.4</ele>
        <time>2019-08-19T06:50:27Z</time>
        <sat>7</sat>
      </trkpt>
      <trkpt lat="42.553021" lon="-2.265963">
        <ele>492.1</ele>
        <time>2019-08-19T06:50:32Z</time>
        <sat>7</sat>
      </trkpt>
      <trkpt lat="42.552910" lon="-2.265932">
        <ele>491.7</ele>
        <time>2019-08-19T06:50:40Z</time>
        <sat>7</sat>
      </trkpt>
      <trkpt lat="42.552870" lon="-2.265936">
        <ele>491.5</ele>
        <time>2019-08-19T06:50:43Z</time>
        <sat>7</sat>
      </trkpt>
      <trkpt lat="42.552775" lon="-2.265993">
        <ele>491.2</ele>
        <time>2019-08-19T06:50:51Z</time>
        <sat>7</sat>
      </trkpt>
      <trkpt lat="42.552721" lon="-2.266054">
        <ele>490.9</ele>
        <time>2019-08-19T06:50:56Z</time>
        <sat>7</sat>
      </trkpt>
      <trkpt lat="42.552611" lon="-2.266156">
        <ele>490.1</ele>
        <time>2019-08-19T06:51:07Z</time>
        <sat>8</sat>
      </trkpt>
      <trkpt lat="42.552487" lon="-2.266282">
        <ele>489.2</ele>
        <time>2019-08-19T06:51:19Z</time>
        <sat>8</sat>
      </trkpt>
      <trkpt lat="42.552455" lon="-2.266338">
        <ele>488.9</ele>
        <time>2019-08-19T06:51:23Z</time>
        <sat>8</sat>
      </trkpt>
      <trkpt lat="42.552356" lon="-2.266443">
        <ele>488.1</ele>
        <time>2019-08-19T06:51:33Z</time>
        <sat>9</sat>
      </trkpt>
      <trkpt lat="42.552286" lon="-2.266517">
        <ele>487.6</ele>
        <time>2019-08-19T06:51:41Z</time>
        <sat>8</sat>
      </trkpt>
      <trkpt lat="42.552170" lon="-2.266597">
        <ele>486.3</ele>
        <time>2019-08-19T06:51:59Z</time>
        <sat>9</sat>
      </trkpt>
      <trkpt lat="42.552101" lon="-2.266621">
        <ele>485.3</ele>
        <time>2019-08-19T06:53:59Z</time>
        <sat>9</sat>
      </trkpt>
      <trkpt lat="42.552035" lon="-2.266620">
        <ele>484.9</ele>
        <time>2019-08-19T06:54:04Z</time>
        <sat>9</sat>
      </trkpt>
      <trkpt lat="42.551949" lon="-2.266563">
        <ele>483.8</ele>
        <time>2019-08-19T06:54:17Z</time>
        <sat>9</sat>
      </trkpt>
      <trkpt lat="42.551938" lon="-2.266569">
        <ele>483.6</ele>
        <time>2019-08-19T06:54:38Z</time>
        <sat>9</sat>
      </trkpt>
      <trkpt lat="42.551812" lon="-2.266634">
        <ele>483.0</ele>
        <time>2019-08-19T06:54:56Z</time>
        <sat>9</sat>
      </trkpt>
      <trkpt lat="42.551743" lon="-2.266681">
        <ele>482.4</ele>
        <time>2019-08-19T06:55:03Z</time>
        <sat>9</sat>
      </trkpt>
      <trkpt lat="42.551575" lon="-2.266746">
        <ele>479.3</ele>
        <time>2019-08-19T06:55:20Z</time>
        <sat>8</sat>
      </trkpt>
      <trkpt lat="42.551539" lon="-2.266775">
        <ele>478.2</ele>
        <time>2019-08-19T06:55:24Z</time>
        <sat>7</sat>
      </trkpt>
      <trkpt lat="42.551464" lon="-2.266807">
        <ele>476.7</ele>
        <time>2019-08-19T06:55:30Z</time>
        <sat>6</sat>
      </trkpt>
      <trkpt lat="42.551389" lon="-2.266851">
        <ele>474.7</ele>
        <time>2019-08-19T06:55:38Z</time>
        <sat>6</sat>
      </trkpt>
      <trkpt lat="42.551360" lon="-2.266861">
        <ele>474.5</ele>
        <time>2019-08-19T06:55:40Z</time>
        <sat>7</sat>
      </trkpt>
      <trkpt lat="42.551295" lon="-2.266903">
        <ele>473.9</ele>
        <time>2019-08-19T06:55:45Z</time>
        <sat>8</sat>
      </trkpt>
      <trkpt lat="42.551235" lon="-2.266915">
        <ele>473.1</ele>
        <time>2019-08-19T06:55:51Z</time>
        <sat>7</sat>
      </trkpt>
      <trkpt lat="42.551191" lon="-2.266942">
        <ele>473.0</ele>
        <time>2019-08-19T06:55:55Z</time>
        <sat>7</sat>
      </trkpt>
      <trkpt lat="42.551075" lon="-2.267034">
        <ele>471.7</ele>
        <time>2019-08-19T06:56:16Z</time>
        <sat>8</sat>
      </trkpt>
      <trkpt lat="42.550957" lon="-2.267154">
        <ele>470.3</ele>
        <time>2019-08-19T06:56:27Z</time>
        <sat>7</sat>
      </trkpt>
      <trkpt lat="42.550857" lon="-2.267275">
        <ele>470.1</ele>
        <time>2019-08-19T06:56:37Z</time>
        <sat>9</sat>
      </trkpt>
      <trkpt lat="42.550803" lon="-2.267365">
        <ele>468.7</ele>
        <time>2019-08-19T06:56:44Z</time>
        <sat>9</sat>
      </trkpt>
      <trkpt lat="42.550760" lon="-2.267474">
        <ele>465.9</ele>
        <time>2019-08-19T06:57:00Z</time>
        <sat>8</sat>
      </trkpt>
      <trkpt lat="42.550711" lon="-2.267542">
        <ele>466.6</ele>
        <time>2019-08-19T06:57:08Z</time>
        <sat>8</sat>
      </trkpt>
      <trkpt lat="42.550634" lon="-2.267659">
        <ele>466.7</ele>
        <time>2019-08-19T06:57:18Z</time>
        <sat>9</sat>
      </trkpt>
      <trkpt lat="42.550605" lon="-2.267716">
        <ele>465.8</ele>
        <time>2019-08-19T06:57:22Z</time>
        <sat>9</sat>
      </trkpt>
      <trkpt lat="42.550546" lon="-2.267797">
        <ele>464.5</ele>
        <time>2019-08-19T06:57:29Z</time>
        <sat>9</sat>
      </trkpt>
      <trkpt lat="42.550516" lon="-2.267894">
        <ele>463.5</ele>
        <time>2019-08-19T06:57:35Z</time>
        <sat>9</sat>
      </trkpt>
      <trkpt lat="42.550495" lon="-2.267999">
        <ele>462.6</ele>
        <time>2019-08-19T06:57:41Z</time>
        <sat>9</sat>
      </trkpt>
      <trkpt lat="42.550466" lon="-2.268071">
        <ele>461.7</ele>
        <time>2019-08-19T06:57:51Z</time>
        <sat>8</sat>
      </trkpt>
      <trkpt lat="42.550461" lon="-2.268129">
        <ele>461.6</ele>
        <time>2019-08-19T06:57:54Z</time>
        <sat>8</sat>
      </trkpt>
      <trkpt lat="42.550462" lon="-2.268161">
        <ele>460.7</ele>
        <time>2019-08-19T06:58:26Z</time>
        <sat>7</sat>
      </trkpt>
      <trkpt lat="42.550444" lon="-2.268214">
        <ele>460.6</ele>
        <time>2019-08-19T06:58:30Z</time>
        <sat>8</sat>
      </trkpt>
      <trkpt lat="42.550426" lon="-2.268324">
        <ele>460.3</ele>
        <time>2019-08-19T06:58:37Z</time>
        <sat>7</sat>
      </trkpt>
      <trkpt lat="42.550411" lon="-2.268369">
        <ele>460.0</ele>
        <time>2019-08-19T06:58:40Z</time>
        <sat>7</sat>
      </trkpt>
      <trkpt lat="42.550397" lon="-2.268451">
        <ele>459.4</ele>
        <time>2019-08-19T06:58:45Z</time>
        <sat>7</sat>
      </trkpt>
      <trkpt lat="42.550393" lon="-2.268621">
        <ele>457.6</ele>
        <time>2019-08-19T06:58:55Z</time>
        <sat>8</sat>
      </trkpt>
      <trkpt lat="42.550398" lon="-2.268679">
        <ele>457.1</ele>
        <time>2019-08-19T06:58:59Z</time>
        <sat>8</sat>
      </trkpt>
      <trkpt lat="42.550409" lon="-2.268740">
        <ele>456.2</ele>
        <time>2019-08-19T06:59:04Z</time>
        <sat>8</sat>
      </trkpt>
      <trkpt lat="42.550424" lon="-2.268780">
        <ele>454.9</ele>
        <time>2019-08-19T06:59:15Z</time>
        <sat>7</sat>
      </trkpt>
      <trkpt lat="42.550442" lon="-2.268851">
        <ele>454.5</ele>
        <time>2019-08-19T06:59:19Z</time>
        <sat>8</sat>
      </trkpt>
      <trkpt lat="42.550440" lon="-2.268927">
        <ele>454.2</ele>
        <time>2019-08-19T06:59:23Z</time>
        <sat>6</sat>
      </trkpt>
      <trkpt lat="42.550462" lon="-2.268985">
        <ele>453.6</ele>
        <time>2019-08-19T06:59:30Z</time>
        <sat>8</sat>
      </trkpt>
      <trkpt lat="42.550458" lon="-2.269053">
        <ele>453.4</ele>
        <time>2019-08-19T06:59:33Z</time>
        <sat>8</sat>
      </trkpt>
      <trkpt lat="42.550462" lon="-2.269169">
        <ele>453.0</ele>
        <time>2019-08-19T06:59:39Z</time>
        <sat>8</sat>
      </trkpt>
      <trkpt lat="42.550416" lon="-2.269236">
        <ele>452.6</ele>
        <time>2019-08-19T06:59:44Z</time>
        <sat>6</sat>
      </trkpt>
      <trkpt lat="42.550494" lon="-2.269339">
        <ele>451.6</ele>
        <time>2019-08-19T07:01:48Z</time>
        <sat>8</sat>
      </trkpt>
      <trkpt lat="42.550591" lon="-2.269493">
        <ele>452.0</ele>
        <time>2019-08-19T07:02:40Z</time>
        <sat>8</sat>
      </trkpt>
      <trkpt lat="42.550578" lon="-2.269527">
        <ele>452.0</ele>
        <time>2019-08-19T07:02:46Z</time>
        <sat>8</sat>
      </trkpt>
      <trkpt lat="42.550628" lon="-2.269613">
        <ele>452.0</ele>
        <time>2019-08-19T07:02:57Z</time>
        <sat>8</sat>
      </trkpt>
      <trkpt lat="42.550740" lon="-2.269759">
        <ele>450.9</ele>
        <time>2019-08-19T07:03:12Z</time>
        <sat>7</sat>
      </trkpt>
      <trkpt lat="42.550795" lon="-2.269819">
        <ele>450.5</ele>
        <time>2019-08-19T07:03:20Z</time>
        <sat>8</sat>
      </trkpt>
      <trkpt lat="42.550846" lon="-2.269928">
        <ele>450.3</ele>
        <time>2019-08-19T07:03:27Z</time>
        <sat>8</sat>
      </trkpt>
      <trkpt lat="42.550870" lon="-2.269949">
        <ele>450.3</ele>
        <time>2019-08-19T07:03:29Z</time>
        <sat>8</sat>
      </trkpt>
      <trkpt lat="42.550874" lon="-2.269982">
        <ele>450.5</ele>
        <time>2019-08-19T07:03:36Z</time>
        <sat>8</sat>
      </trkpt>
      <trkpt lat="42.550986" lon="-2.270143">
        <ele>450.9</ele>
        <time>2019-08-19T07:03:47Z</time>
        <sat>8</sat>
      </trkpt>
      <trkpt lat="42.551036" lon="-2.270241">
        <ele>451.2</ele>
        <time>2019-08-19T07:03:53Z</time>
        <sat>7</sat>
      </trkpt>
      <trkpt lat="42.551098" lon="-2.270311">
        <ele>451.6</ele>
        <time>2019-08-19T07:03:59Z</time>
        <sat>7</sat>
      </trkpt>
      <trkpt lat="42.551193" lon="-2.270410">
        <ele>452.5</ele>
        <time>2019-08-19T07:04:08Z</time>
        <sat>7</sat>
      </trkpt>
      <trkpt lat="42.551228" lon="-2.270415">
        <ele>454.0</ele>
        <time>2019-08-19T07:04:21Z</time>
        <sat>7</sat>
      </trkpt>
      <trkpt lat="42.551311" lon="-2.270612">
        <ele>455.5</ele>
        <time>2019-08-19T07:04:38Z</time>
        <sat>7</sat>
      </trkpt>
      <trkpt lat="42.551368" lon="-2.270737">
        <ele>457.3</ele>
        <time>2019-08-19T07:04:47Z</time>
        <sat>7</sat>
      </trkpt>
      <trkpt lat="42.551436" lon="-2.270776">
        <ele>458.2</ele>
        <time>2019-08-19T07:04:53Z</time>
        <sat>7</sat>
      </trkpt>
      <trkpt lat="42.551505" lon="-2.270772">
        <ele>459.7</ele>
        <time>2019-08-19T07:05:00Z</time>
        <sat>7</sat>
      </trkpt>
      <trkpt lat="42.551575" lon="-2.270748">
        <ele>461.3</ele>
        <time>2019-08-19T07:05:07Z</time>
        <sat>7</sat>
      </trkpt>
      <trkpt lat="42.551622" lon="-2.270785">
        <ele>462.3</ele>
        <time>2019-08-19T07:05:13Z</time>
        <sat>7</sat>
      </trkpt>
      <trkpt lat="42.551692" lon="-2.270856">
        <ele>463.6</ele>
        <time>2019-08-19T07:05:20Z</time>
        <sat>7</sat>
      </trkpt>
      <trkpt lat="42.551743" lon="-2.270893">
        <ele>464.5</ele>
        <time>2019-08-19T07:05:25Z</time>
        <sat>7</sat>
      </trkpt>
      <trkpt lat="42.551779" lon="-2.270930">
        <ele>465.2</ele>
        <time>2019-08-19T07:05:29Z</time>
        <sat>7</sat>
      </trkpt>
      <trkpt lat="42.551813" lon="-2.270986">
        <ele>465.9</ele>
        <time>2019-08-19T07:05:33Z</time>
        <sat>7</sat>
      </trkpt>
      <trkpt lat="42.551824" lon="-2.271038">
        <ele>465.8</ele>
        <time>2019-08-19T07:05:37Z</time>
        <sat>7</sat>
      </trkpt>
      <trkpt lat="42.551824" lon="-2.271061">
        <ele>468.3</ele>
        <time>2019-08-19T07:06:00Z</time>
        <sat>7</sat>
      </trkpt>
      <trkpt lat="42.551940" lon="-2.271155">
        <ele>468.4</ele>
        <time>2019-08-19T07:06:11Z</time>
        <sat>7</sat>
      </trkpt>
      <trkpt lat="42.551979" lon="-2.271206">
        <ele>468.5</ele>
        <time>2019-08-19T07:06:15Z</time>
        <sat>8</sat>
      </trkpt>
      <trkpt lat="42.552048" lon="-2.271375">
        <ele>469.7</ele>
        <time>2019-08-19T07:07:45Z</time>
        <sat>7</sat>
      </trkpt>
      <trkpt lat="42.551994" lon="-2.271429">
        <ele>469.6</ele>
        <time>2019-08-19T07:07:52Z</time>
        <sat>7</sat>
      </trkpt>
      <trkpt lat="42.551966" lon="-2.271514">
        <ele>469.2</ele>
        <time>2019-08-19T07:08:39Z</time>
        <sat>8</sat>
      </trkpt>
      <trkpt lat="42.551961" lon="-2.271632">
        <ele>470.9</ele>
        <time>2019-08-19T07:08:47Z</time>
        <sat>8</sat>
      </trkpt>
      <trkpt lat="42.551940" lon="-2.271687">
        <ele>471.5</ele>
        <time>2019-08-19T07:08:50Z</time>
        <sat>8</sat>
      </trkpt>
      <trkpt lat="42.551903" lon="-2.271743">
        <ele>472.0</ele>
        <time>2019-08-19T07:08:54Z</time>
        <sat>7</sat>
      </trkpt>
      <trkpt lat="42.551882" lon="-2.271843">
        <ele>473.1</ele>
        <time>2019-08-19T07:09:00Z</time>
        <sat>8</sat>
      </trkpt>
      <trkpt lat="42.551864" lon="-2.271890">
        <ele>473.6</ele>
        <time>2019-08-19T07:09:03Z</time>
        <sat>7</sat>
      </trkpt>
      <trkpt lat="42.551857" lon="-2.271980">
        <ele>474.6</ele>
        <time>2019-08-19T07:09:09Z</time>
        <sat>6</sat>
      </trkpt>
      <trkpt lat="42.551906" lon="-2.272102">
        <ele>476.3</ele>
        <time>2019-08-19T07:09:17Z</time>
        <sat>8</sat>
      </trkpt>
      <trkpt lat="42.551958" lon="-2.272172">
        <ele>476.4</ele>
        <time>2019-08-19T07:09:24Z</time>
        <sat>8</sat>
      </trkpt>
      <trkpt lat="42.551941" lon="-2.272299">
        <ele>477.6</ele>
        <time>2019-08-19T07:09:36Z</time>
        <sat>7</sat>
      </trkpt>
      <trkpt lat="42.551956" lon="-2.272344">
        <ele>479.4</ele>
        <time>2019-08-19T07:10:29Z</time>
        <sat>8</sat>
      </trkpt>
      <trkpt lat="42.551934" lon="-2.272418">
        <ele>479.5</ele>
        <time>2019-08-19T07:10:39Z</time>
        <sat>8</sat>
      </trkpt>
      <trkpt lat="42.551881" lon="-2.272532">
        <ele>479.7</ele>
        <time>2019-08-19T07:10:48Z</time>
        <sat>8</sat>
      </trkpt>
      <trkpt lat="42.551863" lon="-2.272623">
        <ele>480.1</ele>
        <time>2019-08-19T07:10:55Z</time>
        <sat>8</sat>
      </trkpt>
      <trkpt lat="42.551788" lon="-2.272796">
        <ele>481.1</ele>
        <time>2019-08-19T07:11:06Z</time>
        <sat>7</sat>
      </trkpt>
      <trkpt lat="42.551758" lon="-2.272870">
        <ele>481.6</ele>
        <time>2019-08-19T07:11:11Z</time>
        <sat>8</sat>
      </trkpt>
      <trkpt lat="42.551703" lon="-2.272974">
        <ele>482.5</ele>
        <time>2019-08-19T07:11:19Z</time>
        <sat>8</sat>
      </trkpt>
      <trkpt lat="42.551635" lon="-2.273145">
        <ele>483.8</ele>
        <time>2019-08-19T07:11:31Z</time>
        <sat>8</sat>
      </trkpt>
      <trkpt lat="42.551577" lon="-2.273345">
        <ele>484.8</ele>
        <time>2019-08-19T07:11:43Z</time>
        <sat>8</sat>
      </trkpt>
      <trkpt lat="42.551516" lon="-2.273461">
        <ele>485.6</ele>
        <time>2019-08-19T07:12:27Z</time>
        <sat>8</sat>
      </trkpt>
      <trkpt lat="42.551497" lon="-2.273547">
        <ele>485.7</ele>
        <time>2019-08-19T07:12:33Z</time>
        <sat>8</sat>
      </trkpt>
      <trkpt lat="42.551486" lon="-2.273647">
        <ele>485.9</ele>
        <time>2019-08-19T07:12:42Z</time>
        <sat>8</sat>
      </trkpt>
      <trkpt lat="42.551457" lon="-2.273735">
        <ele>486.0</ele>
        <time>2019-08-19T07:12:47Z</time>
        <sat>8</sat>
      </trkpt>
      <trkpt lat="42.551449" lon="-2.273804">
        <ele>486.1</ele>
        <time>2019-08-19T07:12:51Z</time>
        <sat>8</sat>
      </trkpt>
      <trkpt lat="42.551404" lon="-2.274019">
        <ele>487.1</ele>
        <time>2019-08-19T07:13:26Z</time>
        <sat>8</sat>
      </trkpt>
      <trkpt lat="42.551358" lon="-2.274197">
        <ele>487.4</ele>
        <time>2019-08-19T07:13:36Z</time>
        <sat>8</sat>
      </trkpt>
      <trkpt lat="42.551323" lon="-2.274307">
        <ele>487.6</ele>
        <time>2019-08-19T07:13:42Z</time>
        <sat>8</sat>
      </trkpt>
      <trkpt lat="42.551309" lon="-2.274378">
        <ele>487.8</ele>
        <time>2019-08-19T07:13:46Z</time>
        <sat>8</sat>
      </trkpt>
      <trkpt lat="42.551255" lon="-2.274500">
        <ele>488.5</ele>
        <time>2019-08-19T07:13:56Z</time>
        <sat>8</sat>
      </trkpt>
      <trkpt lat="42.551262" lon="-2.274505">
        <ele>489.0</ele>
        <time>2019-08-19T07:14:10Z</time>
        <sat>8</sat>
      </trkpt>
      <trkpt lat="42.551188" lon="-2.274683">
        <ele>489.6</ele>
        <time>2019-08-19T07:14:21Z</time>
        <sat>8</sat>
      </trkpt>
      <trkpt lat="42.551160" lon="-2.274729">
        <ele>489.7</ele>
        <time>2019-08-19T07:14:24Z</time>
        <sat>7</sat>
      </trkpt>
      <trkpt lat="42.551132" lon="-2.274805">
        <ele>490.1</ele>
        <time>2019-08-19T07:14:29Z</time>
        <sat>8</sat>
      </trkpt>
      <trkpt lat="42.551054" lon="-2.274949">
        <ele>490.8</ele>
        <time>2019-08-19T07:14:38Z</time>
        <sat>8</sat>
      </trkpt>
      <trkpt lat="42.550957" lon="-2.275130">
        <ele>492.1</ele>
        <time>2019-08-19T07:14:51Z</time>
        <sat>8</sat>
      </trkpt>
      <trkpt lat="42.550909" lon="-2.275191">
        <ele>492.6</ele>
        <time>2019-08-19T07:14:56Z</time>
        <sat>8</sat>
      </trkpt>
      <trkpt lat="42.550801" lon="-2.275371">
        <ele>493.7</ele>
        <time>2019-08-19T07:15:09Z</time>
        <sat>8</sat>
      </trkpt>
      <trkpt lat="42.550708" lon="-2.275491">
        <ele>494.6</ele>
        <time>2019-08-19T07:15:19Z</time>
        <sat>8</sat>
      </trkpt>
      <trkpt lat="42.550658" lon="-2.275571">
        <ele>495.2</ele>
        <time>2019-08-19T07:15:25Z</time>
        <sat>8</sat>
      </trkpt>
      <trkpt lat="42.550614" lon="-2.275661">
        <ele>495.7</ele>
        <time>2019-08-19T07:15:31Z</time>
        <sat>8</sat>
      </trkpt>
      <trkpt lat="42.550492" lon="-2.275878">
        <ele>496.9</ele>
        <time>2019-08-19T07:15:46Z</time>
        <sat>8</sat>
      </trkpt>
      <trkpt lat="42.550413" lon="-2.276000">
        <ele>497.6</ele>
        <time>2019-08-19T07:15:55Z</time>
        <sat>8</sat>
      </trkpt>
      <trkpt lat="42.550305" lon="-2.276210">
        <ele>499.0</ele>
        <time>2019-08-19T07:16:09Z</time>
        <sat>8</sat>
      </trkpt>
      <trkpt lat="42.550268" lon="-2.276258">
        <ele>499.4</ele>
        <time>2019-08-19T07:16:13Z</time>
        <sat>8</sat>
      </trkpt>
      <trkpt lat="42.550236" lon="-2.276336">
        <ele>500.0</ele>
        <time>2019-08-19T07:16:18Z</time>
        <sat>8</sat>
      </trkpt>
      <trkpt lat="42.550184" lon="-2.276425">
        <ele>500.5</ele>
        <time>2019-08-19T07:16:24Z</time>
        <sat>8</sat>
      </trkpt>
      <trkpt lat="42.550161" lon="-2.276487">
        <ele>500.9</ele>
        <time>2019-08-19T07:16:28Z</time>
        <sat>8</sat>
      </trkpt>
      <trkpt lat="42.550119" lon="-2.276558">
        <ele>501.3</ele>
        <time>2019-08-19T07:16:33Z</time>
        <sat>9</sat>
      </trkpt>
      <trkpt lat="42.550092" lon="-2.276622">
        <ele>501.6</ele>
        <time>2019-08-19T07:16:37Z</time>
        <sat>9</sat>
      </trkpt>
      <trkpt lat="42.550013" lon="-2.276749">
        <ele>502.1</ele>
        <time>2019-08-19T07:16:46Z</time>
        <sat>9</sat>
      </trkpt>
      <trkpt lat="42.549934" lon="-2.276853">
        <ele>502.6</ele>
        <time>2019-08-19T07:16:54Z</time>
        <sat>9</sat>
      </trkpt>
      <trkpt lat="42.549874" lon="-2.276918">
        <ele>502.9</ele>
        <time>2019-08-19T07:17:00Z</time>
        <sat>9</sat>
      </trkpt>
      <trkpt lat="42.549777" lon="-2.277045">
        <ele>503.5</ele>
        <time>2019-08-19T07:17:10Z</time>
        <sat>9</sat>
      </trkpt>
      <trkpt lat="42.549712" lon="-2.277120">
        <ele>503.6</ele>
        <time>2019-08-19T07:17:16Z</time>
        <sat>9</sat>
      </trkpt>
      <trkpt lat="42.549671" lon="-2.277231">
        <ele>503.8</ele>
        <time>2019-08-19T07:17:23Z</time>
        <sat>9</sat>
      </trkpt>
      <trkpt lat="42.549644" lon="-2.277356">
        <ele>503.9</ele>
        <time>2019-08-19T07:17:30Z</time>
        <sat>9</sat>
      </trkpt>
      <trkpt lat="42.549643" lon="-2.277467">
        <ele>504.0</ele>
        <time>2019-08-19T07:17:36Z</time>
        <sat>9</sat>
      </trkpt>
      <trkpt lat="42.549630" lon="-2.277667">
        <ele>504.4</ele>
        <time>2019-08-19T07:17:47Z</time>
        <sat>9</sat>
      </trkpt>
      <trkpt lat="42.549611" lon="-2.277992">
        <ele>505.3</ele>
        <time>2019-08-19T07:20:17Z</time>
        <sat>9</sat>
      </trkpt>
      <trkpt lat="42.549604" lon="-2.278175">
        <ele>505.7</ele>
        <time>2019-08-19T07:20:27Z</time>
        <sat>9</sat>
      </trkpt>
      <trkpt lat="42.549591" lon="-2.278250">
        <ele>505.9</ele>
        <time>2019-08-19T07:20:31Z</time>
        <sat>9</sat>
      </trkpt>
      <trkpt lat="42.549585" lon="-2.278374">
        <ele>506.2</ele>
        <time>2019-08-19T07:20:38Z</time>
        <sat>9</sat>
      </trkpt>
      <trkpt lat="42.549568" lon="-2.278503">
        <ele>506.4</ele>
        <time>2019-08-19T07:20:45Z</time>
        <sat>9</sat>
      </trkpt>
      <trkpt lat="42.549559" lon="-2.278747">
        <ele>507.1</ele>
        <time>2019-08-19T07:20:58Z</time>
        <sat>9</sat>
      </trkpt>
      <trkpt lat="42.549548" lon="-2.278801">
        <ele>507.2</ele>
        <time>2019-08-19T07:21:01Z</time>
        <sat>9</sat>
      </trkpt>
      <trkpt lat="42.549543" lon="-2.278915">
        <ele>507.4</ele>
        <time>2019-08-19T07:21:07Z</time>
        <sat>9</sat>
      </trkpt>
      <trkpt lat="42.549522" lon="-2.279037">
        <ele>508.0</ele>
        <time>2019-08-19T07:21:14Z</time>
        <sat>9</sat>
      </trkpt>
      <trkpt lat="42.549514" lon="-2.279253">
        <ele>509.2</ele>
        <time>2019-08-19T07:21:26Z</time>
        <sat>9</sat>
      </trkpt>
      <trkpt lat="42.549483" lon="-2.279481">
        <ele>510.0</ele>
        <time>2019-08-19T07:21:39Z</time>
        <sat>9</sat>
      </trkpt>
      <trkpt lat="42.549465" lon="-2.279699">
        <ele>509.9</ele>
        <time>2019-08-19T07:21:51Z</time>
        <sat>9</sat>
      </trkpt>
      <trkpt lat="42.549435" lon="-2.279938">
        <ele>510.7</ele>
        <time>2019-08-19T07:22:05Z</time>
        <sat>9</sat>
      </trkpt>
      <trkpt lat="42.549427" lon="-2.280025">
        <ele>510.3</ele>
        <time>2019-08-19T07:22:10Z</time>
        <sat>9</sat>
      </trkpt>
      <trkpt lat="42.549404" lon="-2.280135">
        <ele>510.6</ele>
        <time>2019-08-19T07:22:16Z</time>
        <sat>9</sat>
      </trkpt>
      <trkpt lat="42.549395" lon="-2.280262">
        <ele>511.1</ele>
        <time>2019-08-19T07:22:23Z</time>
        <sat>9</sat>
      </trkpt>
      <trkpt lat="42.549369" lon="-2.280409">
        <ele>511.5</ele>
        <time>2019-08-19T07:22:31Z</time>
        <sat>9</sat>
      </trkpt>
      <trkpt lat="42.549329" lon="-2.280581">
        <ele>511.8</ele>
        <time>2019-08-19T07:22:41Z</time>
        <sat>8</sat>
      </trkpt>
      <trkpt lat="42.549313" lon="-2.280669">
        <ele>511.9</ele>
        <time>2019-08-19T07:22:46Z</time>
        <sat>8</sat>
      </trkpt>
      <trkpt lat="42.549267" lon="-2.280850">
        <ele>512.1</ele>
        <time>2019-08-19T07:22:57Z</time>
        <sat>9</sat>
      </trkpt>
      <trkpt lat="42.549228" lon="-2.281004">
        <ele>512.1</ele>
        <time>2019-08-19T07:23:06Z</time>
        <sat>9</sat>
      </trkpt>
      <trkpt lat="42.549196" lon="-2.281221">
        <ele>512.1</ele>
        <time>2019-08-19T07:23:18Z</time>
        <sat>9</sat>
      </trkpt>
      <trkpt lat="42.549195" lon="-2.281329">
        <ele>512.0</ele>
        <time>2019-08-19T07:23:24Z</time>
        <sat>9</sat>
      </trkpt>
      <trkpt lat="42.549191" lon="-2.281364">
        <ele>512.1</ele>
        <time>2019-08-19T07:23:26Z</time>
        <sat>8</sat>
      </trkpt>
      <trkpt lat="42.549187" lon="-2.281544">
        <ele>512.0</ele>
        <time>2019-08-19T07:23:36Z</time>
        <sat>8</sat>
      </trkpt>
      <trkpt lat="42.549172" lon="-2.281674">
        <ele>512.0</ele>
        <time>2019-08-19T07:23:44Z</time>
        <sat>8</sat>
      </trkpt>
      <trkpt lat="42.549154" lon="-2.281765">
        <ele>512.0</ele>
        <time>2019-08-19T07:23:50Z</time>
        <sat>8</sat>
      </trkpt>
      <trkpt lat="42.549112" lon="-2.281911">
        <ele>512.1</ele>
        <time>2019-08-19T07:24:07Z</time>
        <sat>9</sat>
      </trkpt>
      <trkpt lat="42.549095" lon="-2.281956">
        <ele>512.1</ele>
        <time>2019-08-19T07:24:10Z</time>
        <sat>9</sat>
      </trkpt>
      <trkpt lat="42.549072" lon="-2.282059">
        <ele>512.1</ele>
        <time>2019-08-19T07:24:17Z</time>
        <sat>9</sat>
      </trkpt>
      <trkpt lat="42.549023" lon="-2.282248">
        <ele>512.0</ele>
        <time>2019-08-19T07:24:30Z</time>
        <sat>8</sat>
      </trkpt>
      <trkpt lat="42.549008" lon="-2.282327">
        <ele>512.0</ele>
        <time>2019-08-19T07:24:35Z</time>
        <sat>8</sat>
      </trkpt>
      <trkpt lat="42.548951" lon="-2.282478">
        <ele>512.0</ele>
        <time>2019-08-19T07:24:45Z</time>
        <sat>9</sat>
      </trkpt>
      <trkpt lat="42.548925" lon="-2.282534">
        <ele>511.8</ele>
        <time>2019-08-19T07:24:49Z</time>
        <sat>9</sat>
      </trkpt>
      <trkpt lat="42.548902" lon="-2.282608">
        <ele>511.6</ele>
        <time>2019-08-19T07:24:54Z</time>
        <sat>9</sat>
      </trkpt>
      <trkpt lat="42.548876" lon="-2.282659">
        <ele>511.1</ele>
        <time>2019-08-19T07:25:00Z</time>
        <sat>9</sat>
      </trkpt>
      <trkpt lat="42.548852" lon="-2.282689">
        <ele>510.6</ele>
        <time>2019-08-19T07:25:08Z</time>
        <sat>9</sat>
      </trkpt>
      <trkpt lat="42.548861" lon="-2.282693">
        <ele>509.5</ele>
        <time>2019-08-19T07:25:36Z</time>
        <sat>9</sat>
      </trkpt>
      <trkpt lat="42.548829" lon="-2.282756">
        <ele>509.4</ele>
        <time>2019-08-19T07:25:52Z</time>
        <sat>9</sat>
      </trkpt>
      <trkpt lat="42.548732" lon="-2.282873">
        <ele>508.1</ele>
        <time>2019-08-19T07:26:04Z</time>
        <sat>9</sat>
      </trkpt>
      <trkpt lat="42.548632" lon="-2.282945">
        <ele>505.6</ele>
        <time>2019-08-19T07:26:15Z</time>
        <sat>9</sat>
      </trkpt>
      <trkpt lat="42.548581" lon="-2.283007">
        <ele>504.3</ele>
        <time>2019-08-19T07:26:21Z</time>
        <sat>9</sat>
      </trkpt>
      <trkpt lat="42.548563" lon="-2.283048">
        <ele>503.5</ele>
        <time>2019-08-19T07:26:24Z</time>
        <sat>9</sat>
      </trkpt>
      <trkpt lat="42.548533" lon="-2.283150">
        <ele>501.9</ele>
        <time>2019-08-19T07:26:31Z</time>
        <sat>9</sat>
      </trkpt>
      <trkpt lat="42.548511" lon="-2.283270">
        <ele>500.5</ele>
        <time>2019-08-19T07:26:38Z</time>
        <sat>9</sat>
      </trkpt>
      <trkpt lat="42.548465" lon="-2.283498">
        <ele>498.0</ele>
        <time>2019-08-19T07:26:52Z</time>
        <sat>9</sat>
      </trkpt>
      <trkpt lat="42.548455" lon="-2.283580">
        <ele>497.3</ele>
        <time>2019-08-19T07:26:57Z</time>
        <sat>9</sat>
      </trkpt>
      <trkpt lat="42.548472" lon="-2.283689">
        <ele>496.7</ele>
        <time>2019-08-19T07:27:04Z</time>
        <sat>9</sat>
      </trkpt>
      <trkpt lat="42.548456" lon="-2.283810">
        <ele>496.8</ele>
        <time>2019-08-19T07:27:11Z</time>
        <sat>9</sat>
      </trkpt>
      <trkpt lat="42.548446" lon="-2.283838">
        <ele>496.8</ele>
        <time>2019-08-19T07:27:13Z</time>
        <sat>9</sat>
      </trkpt>
      <trkpt lat="42.548345" lon="-2.284039">
        <ele>497.2</ele>
        <time>2019-08-19T07:27:27Z</time>
        <sat>9</sat>
      </trkpt>
      <trkpt lat="42.548267" lon="-2.284207">
        <ele>497.9</ele>
        <time>2019-08-19T07:27:38Z</time>
        <sat>9</sat>
      </trkpt>
      <trkpt lat="42.548200" lon="-2.284326">
        <ele>498.7</ele>
        <time>2019-08-19T07:27:46Z</time>
        <sat>9</sat>
      </trkpt>
      <trkpt lat="42.548167" lon="-2.284362">
        <ele>499.0</ele>
        <time>2019-08-19T07:27:49Z</time>
        <sat>9</sat>
      </trkpt>
      <trkpt lat="42.548109" lon="-2.284458">
        <ele>499.8</ele>
        <time>2019-08-19T07:27:56Z</time>
        <sat>9</sat>
      </trkpt>
      <trkpt lat="42.548042" lon="-2.284538">
        <ele>500.6</ele>
        <time>2019-08-19T07:28:03Z</time>
        <sat>9</sat>
      </trkpt>
      <trkpt lat="42.547918" lon="-2.284636">
        <ele>501.6</ele>
        <time>2019-08-19T07:28:14Z</time>
        <sat>9</sat>
      </trkpt>
      <trkpt lat="42.547871" lon="-2.284666">
        <ele>501.9</ele>
        <time>2019-08-19T07:28:18Z</time>
        <sat>9</sat>
      </trkpt>
      <trkpt lat="42.547815" lon="-2.284729">
        <ele>502.7</ele>
        <time>2019-08-19T07:28:24Z</time>
        <sat>9</sat>
      </trkpt>
      <trkpt lat="42.547782" lon="-2.284793">
        <ele>503.4</ele>
        <time>2019-08-19T07:28:29Z</time>
        <sat>8</sat>
      </trkpt>
      <trkpt lat="42.547694" lon="-2.284946">
        <ele>504.8</ele>
        <time>2019-08-19T07:28:40Z</time>
        <sat>8</sat>
      </trkpt>
      <trkpt lat="42.547621" lon="-2.285038">
        <ele>505.7</ele>
        <time>2019-08-19T07:28:48Z</time>
        <sat>9</sat>
      </trkpt>
      <trkpt lat="42.547558" lon="-2.285110">
        <ele>506.4</ele>
        <time>2019-08-19T07:28:55Z</time>
        <sat>9</sat>
      </trkpt>
      <trkpt lat="42.547449" lon="-2.285203">
        <ele>506.1</ele>
        <time>2019-08-19T07:29:07Z</time>
        <sat>8</sat>
      </trkpt>
      <trkpt lat="42.547341" lon="-2.285318">
        <ele>504.5</ele>
        <time>2019-08-19T07:29:19Z</time>
        <sat>9</sat>
      </trkpt>
      <trkpt lat="42.547267" lon="-2.285406">
        <ele>503.0</ele>
        <time>2019-08-19T07:29:27Z</time>
        <sat>9</sat>
      </trkpt>
      <trkpt lat="42.547235" lon="-2.285457">
        <ele>502.3</ele>
        <time>2019-08-19T07:29:31Z</time>
        <sat>8</sat>
      </trkpt>
      <trkpt lat="42.547191" lon="-2.285567">
        <ele>500.9</ele>
        <time>2019-08-19T07:29:39Z</time>
        <sat>9</sat>
      </trkpt>
      <trkpt lat="42.547182" lon="-2.285667">
        <ele>499.9</ele>
        <time>2019-08-19T07:29:45Z</time>
        <sat>7</sat>
      </trkpt>
      <trkpt lat="42.547179" lon="-2.285828">
        <ele>498.2</ele>
        <time>2019-08-19T07:29:56Z</time>
        <sat>8</sat>
      </trkpt>
      <trkpt lat="42.547189" lon="-2.285915">
        <ele>497.3</ele>
        <time>2019-08-19T07:30:01Z</time>
        <sat>8</sat>
      </trkpt>
      <trkpt lat="42.547193" lon="-2.286063">
        <ele>495.8</ele>
        <time>2019-08-19T07:30:10Z</time>
        <sat>7</sat>
      </trkpt>
      <trkpt lat="42.547183" lon="-2.286181">
        <ele>494.7</ele>
        <time>2019-08-19T07:30:17Z</time>
        <sat>8</sat>
      </trkpt>
      <trkpt lat="42.547139" lon="-2.286351">
        <ele>493.8</ele>
        <time>2019-08-19T07:30:27Z</time>
        <sat>8</sat>
      </trkpt>
      <trkpt lat="42.547032" lon="-2.286555">
        <ele>493.2</ele>
        <time>2019-08-19T07:30:41Z</time>
        <sat>8</sat>
      </trkpt>
      <trkpt lat="42.546926" lon="-2.286717">
        <ele>493.1</ele>
        <time>2019-08-19T07:30:53Z</time>
        <sat>8</sat>
      </trkpt>
      <trkpt lat="42.546876" lon="-2.286824">
        <ele>493.3</ele>
        <time>2019-08-19T07:31:00Z</time>
        <sat>8</sat>
      </trkpt>
      <trkpt lat="42.546839" lon="-2.286935">
        <ele>493.9</ele>
        <time>2019-08-19T07:31:07Z</time>
        <sat>7</sat>
      </trkpt>
      <trkpt lat="42.546802" lon="-2.287099">
        <ele>494.9</ele>
        <time>2019-08-19T07:31:17Z</time>
        <sat>7</sat>
      </trkpt>
      <trkpt lat="42.546752" lon="-2.287251">
        <ele>496.4</ele>
        <time>2019-08-19T07:31:27Z</time>
        <sat>8</sat>
      </trkpt>
      <trkpt lat="42.546678" lon="-2.287378">
        <ele>498.2</ele>
        <time>2019-08-19T07:31:37Z</time>
        <sat>8</sat>
      </trkpt>
      <trkpt lat="42.546598" lon="-2.287443">
        <ele>499.6</ele>
        <time>2019-08-19T07:31:45Z</time>
        <sat>7</sat>
      </trkpt>
      <trkpt lat="42.546539" lon="-2.287473">
        <ele>500.9</ele>
        <time>2019-08-19T07:31:51Z</time>
        <sat>9</sat>
      </trkpt>
      <trkpt lat="42.546496" lon="-2.287485">
        <ele>501.6</ele>
        <time>2019-08-19T07:31:55Z</time>
        <sat>9</sat>
      </trkpt>
      <trkpt lat="42.546333" lon="-2.287523">
        <ele>504.6</ele>
        <time>2019-08-19T07:32:11Z</time>
        <sat>9</sat>
      </trkpt>
      <trkpt lat="42.546215" lon="-2.287519">
        <ele>507.0</ele>
        <time>2019-08-19T07:32:23Z</time>
        <sat>9</sat>
      </trkpt>
      <trkpt lat="42.546130" lon="-2.287508">
        <ele>508.1</ele>
        <time>2019-08-19T07:32:30Z</time>
        <sat>9</sat>
      </trkpt>
      <trkpt lat="42.545962" lon="-2.287494">
        <ele>511.2</ele>
        <time>2019-08-19T07:32:44Z</time>
        <sat>9</sat>
      </trkpt>
      <trkpt lat="42.545887" lon="-2.287492">
        <ele>512.6</ele>
        <time>2019-08-19T07:32:50Z</time>
        <sat>9</sat>
      </trkpt>
      <trkpt lat="42.545742" lon="-2.287501">
        <ele>515.1</ele>
        <time>2019-08-19T07:33:01Z</time>
        <sat>9</sat>
      </trkpt>
      <trkpt lat="42.545641" lon="-2.287478">
        <ele>516.7</ele>
        <time>2019-08-19T07:33:09Z</time>
        <sat>9</sat>
      </trkpt>
      <trkpt lat="42.545594" lon="-2.287482">
        <ele>517.5</ele>
        <time>2019-08-19T07:33:13Z</time>
        <sat>9</sat>
      </trkpt>
      <trkpt lat="42.545535" lon="-2.287465">
        <ele>518.3</ele>
        <time>2019-08-19T07:33:18Z</time>
        <sat>8</sat>
      </trkpt>
      <trkpt lat="42.545467" lon="-2.287429">
        <ele>519.4</ele>
        <time>2019-08-19T07:33:24Z</time>
        <sat>9</sat>
      </trkpt>
      <trkpt lat="42.545435" lon="-2.287400">
        <ele>520.2</ele>
        <time>2019-08-19T07:33:28Z</time>
        <sat>9</sat>
      </trkpt>
      <trkpt lat="42.545374" lon="-2.287390">
        <ele>521.7</ele>
        <time>2019-08-19T07:33:35Z</time>
        <sat>9</sat>
      </trkpt>
      <trkpt lat="42.545312" lon="-2.287409">
        <ele>522.5</ele>
        <time>2019-08-19T07:33:40Z</time>
        <sat>9</sat>
      </trkpt>
      <trkpt lat="42.545176" lon="-2.287510">
        <ele>523.9</ele>
        <time>2019-08-19T07:33:52Z</time>
        <sat>9</sat>
      </trkpt>
      <trkpt lat="42.545160" lon="-2.287514">
        <ele>524.7</ele>
        <time>2019-08-19T07:34:02Z</time>
        <sat>9</sat>
      </trkpt>
      <trkpt lat="42.545097" lon="-2.287575">
        <ele>525.1</ele>
        <time>2019-08-19T07:34:08Z</time>
        <sat>8</sat>
      </trkpt>
      <trkpt lat="42.545022" lon="-2.287633">
        <ele>525.4</ele>
        <time>2019-08-19T07:34:14Z</time>
        <sat>9</sat>
      </trkpt>
      <trkpt lat="42.544983" lon="-2.287683">
        <ele>525.6</ele>
        <time>2019-08-19T07:34:18Z</time>
        <sat>9</sat>
      </trkpt>
      <trkpt lat="42.544930" lon="-2.287719">
        <ele>526.1</ele>
        <time>2019-08-19T07:34:22Z</time>
        <sat>9</sat>
      </trkpt>
      <trkpt lat="42.544869" lon="-2.287793">
        <ele>526.8</ele>
        <time>2019-08-19T07:34:28Z</time>
        <sat>9</sat>
      </trkpt>
      <trkpt lat="42.544814" lon="-2.287903">
        <ele>527.8</ele>
        <time>2019-08-19T07:34:36Z</time>
        <sat>9</sat>
      </trkpt>
      <trkpt lat="42.544775" lon="-2.288022">
        <ele>528.6</ele>
        <time>2019-08-19T07:34:44Z</time>
        <sat>9</sat>
      </trkpt>
      <trkpt lat="42.544742" lon="-2.288140">
        <ele>529.3</ele>
        <time>2019-08-19T07:34:51Z</time>
        <sat>9</sat>
      </trkpt>
      <trkpt lat="42.544701" lon="-2.288348">
        <ele>530.4</ele>
        <time>2019-08-19T07:35:03Z</time>
        <sat>9</sat>
      </trkpt>
      <trkpt lat="42.544683" lon="-2.288449">
        <ele>530.7</ele>
        <time>2019-08-19T07:35:09Z</time>
        <sat>9</sat>
      </trkpt>
      <trkpt lat="42.544675" lon="-2.288574">
        <ele>531.1</ele>
        <time>2019-08-19T07:35:16Z</time>
        <sat>9</sat>
      </trkpt>
      <trkpt lat="42.544661" lon="-2.288646">
        <ele>531.2</ele>
        <time>2019-08-19T07:35:20Z</time>
        <sat>9</sat>
      </trkpt>
      <trkpt lat="42.544655" lon="-2.288716">
        <ele>531.4</ele>
        <time>2019-08-19T07:35:24Z</time>
        <sat>9</sat>
      </trkpt>
      <trkpt lat="42.544638" lon="-2.288820">
        <ele>531.7</ele>
        <time>2019-08-19T07:35:31Z</time>
        <sat>9</sat>
      </trkpt>
      <trkpt lat="42.544603" lon="-2.288937">
        <ele>532.1</ele>
        <time>2019-08-19T07:35:38Z</time>
        <sat>9</sat>
      </trkpt>
      <trkpt lat="42.544577" lon="-2.289071">
        <ele>532.5</ele>
        <time>2019-08-19T07:35:45Z</time>
        <sat>9</sat>
      </trkpt>
      <trkpt lat="42.544550" lon="-2.289244">
        <ele>532.7</ele>
        <time>2019-08-19T07:35:55Z</time>
        <sat>9</sat>
      </trkpt>
      <trkpt lat="42.544537" lon="-2.289418">
        <ele>534.6</ele>
        <time>2019-08-19T07:36:06Z</time>
        <sat>9</sat>
      </trkpt>
      <trkpt lat="42.544505" lon="-2.289535">
        <ele>534.7</ele>
        <time>2019-08-19T07:36:12Z</time>
        <sat>9</sat>
      </trkpt>
      <trkpt lat="42.544499" lon="-2.289587">
        <ele>534.8</ele>
        <time>2019-08-19T07:36:15Z</time>
        <sat>9</sat>
      </trkpt>
      <trkpt lat="42.544477" lon="-2.289697">
        <ele>534.9</ele>
        <time>2019-08-19T07:36:21Z</time>
        <sat>9</sat>
      </trkpt>
      <trkpt lat="42.544469" lon="-2.289768">
        <ele>535.1</ele>
        <time>2019-08-19T07:36:25Z</time>
        <sat>9</sat>
      </trkpt>
      <trkpt lat="42.544438" lon="-2.289908">
        <ele>535.7</ele>
        <time>2019-08-19T07:36:33Z</time>
        <sat>9</sat>
      </trkpt>
      <trkpt lat="42.544410" lon="-2.289987">
        <ele>536.1</ele>
        <time>2019-08-19T07:36:38Z</time>
        <sat>9</sat>
      </trkpt>
      <trkpt lat="42.544391" lon="-2.290083">
        <ele>536.4</ele>
        <time>2019-08-19T07:36:44Z</time>
        <sat>9</sat>
      </trkpt>
      <trkpt lat="42.544384" lon="-2.290197">
        <ele>536.8</ele>
        <time>2019-08-19T07:36:51Z</time>
        <sat>8</sat>
      </trkpt>
      <trkpt lat="42.544369" lon="-2.290375">
        <ele>537.6</ele>
        <time>2019-08-19T07:37:01Z</time>
        <sat>9</sat>
      </trkpt>
      <trkpt lat="42.544368" lon="-2.290460">
        <ele>537.9</ele>
        <time>2019-08-19T07:37:06Z</time>
        <sat>9</sat>
      </trkpt>
      <trkpt lat="42.544358" lon="-2.290551">
        <ele>538.3</ele>
        <time>2019-08-19T07:37:11Z</time>
        <sat>9</sat>
      </trkpt>
      <trkpt lat="42.544356" lon="-2.290617">
        <ele>538.6</ele>
        <time>2019-08-19T07:37:15Z</time>
        <sat>9</sat>
      </trkpt>
      <trkpt lat="42.544343" lon="-2.290710">
        <ele>538.8</ele>
        <time>2019-08-19T07:37:20Z</time>
        <sat>9</sat>
      </trkpt>
      <trkpt lat="42.544342" lon="-2.290765">
        <ele>539.0</ele>
        <time>2019-08-19T07:37:23Z</time>
        <sat>9</sat>
      </trkpt>
      <trkpt lat="42.544327" lon="-2.290850">
        <ele>539.2</ele>
        <time>2019-08-19T07:37:28Z</time>
        <sat>9</sat>
      </trkpt>
      <trkpt lat="42.544328" lon="-2.290923">
        <ele>539.5</ele>
        <time>2019-08-19T07:37:32Z</time>
        <sat>9</sat>
      </trkpt>
      <trkpt lat="42.544309" lon="-2.291005">
        <ele>539.8</ele>
        <time>2019-08-19T07:37:37Z</time>
        <sat>9</sat>
      </trkpt>
      <trkpt lat="42.544286" lon="-2.291217">
        <ele>540.9</ele>
        <time>2019-08-19T07:37:49Z</time>
        <sat>9</sat>
      </trkpt>
      <trkpt lat="42.544273" lon="-2.291307">
        <ele>541.3</ele>
        <time>2019-08-19T07:37:54Z</time>
        <sat>9</sat>
      </trkpt>
      <trkpt lat="42.544238" lon="-2.291471">
        <ele>542.0</ele>
        <time>2019-08-19T07:38:04Z</time>
        <sat>9</sat>
      </trkpt>
      <trkpt lat="42.544172" lon="-2.291704">
        <ele>543.3</ele>
        <time>2019-08-19T07:38:19Z</time>
        <sat>9</sat>
      </trkpt>
      <trkpt lat="42.544137" lon="-2.291780">
        <ele>543.8</ele>
        <time>2019-08-19T07:38:25Z</time>
        <sat>9</sat>
      </trkpt>
      <trkpt lat="42.544117" lon="-2.291839">
        <ele>544.3</ele>
        <time>2019-08-19T07:38:29Z</time>
        <sat>9</sat>
      </trkpt>
      <trkpt lat="42.544090" lon="-2.291901">
        <ele>544.8</ele>
        <time>2019-08-19T07:38:33Z</time>
        <sat>9</sat>
      </trkpt>
      <trkpt lat="42.544039" lon="-2.291994">
        <ele>546.3</ele>
        <time>2019-08-19T07:38:42Z</time>
        <sat>9</sat>
      </trkpt>
      <trkpt lat="42.543967" lon="-2.292191">
        <ele>549.3</ele>
        <time>2019-08-19T07:38:57Z</time>
        <sat>9</sat>
      </trkpt>
      <trkpt lat="42.543936" lon="-2.292233">
        <ele>551.5</ele>
        <time>2019-08-19T07:39:06Z</time>
        <sat>9</sat>
      </trkpt>
      <trkpt lat="42.543838" lon="-2.292397">
        <ele>554.5</ele>
        <time>2019-08-19T07:39:23Z</time>
        <sat>9</sat>
      </trkpt>
      <trkpt lat="42.543835" lon="-2.292438">
        <ele>555.8</ele>
        <time>2019-08-19T07:39:42Z</time>
        <sat>9</sat>
      </trkpt>
      <trkpt lat="42.543817" lon="-2.292462">
        <ele>556.0</ele>
        <time>2019-08-19T07:39:44Z</time>
        <sat>9</sat>
      </trkpt>
      <trkpt lat="42.543754" lon="-2.292570">
        <ele>556.3</ele>
        <time>2019-08-19T07:39:52Z</time>
        <sat>9</sat>
      </trkpt>
      <trkpt lat="42.543720" lon="-2.292656">
        <ele>556.5</ele>
        <time>2019-08-19T07:39:57Z</time>
        <sat>9</sat>
      </trkpt>
      <trkpt lat="42.543668" lon="-2.292744">
        <ele>556.9</ele>
        <time>2019-08-19T07:40:03Z</time>
        <sat>9</sat>
      </trkpt>
      <trkpt lat="42.543644" lon="-2.292805">
        <ele>557.1</ele>
        <time>2019-08-19T07:40:07Z</time>
        <sat>8</sat>
      </trkpt>
      <trkpt lat="42.543606" lon="-2.292862">
        <ele>557.4</ele>
        <time>2019-08-19T07:40:11Z</time>
        <sat>8</sat>
      </trkpt>
      <trkpt lat="42.543523" lon="-2.293018">
        <ele>558.4</ele>
        <time>2019-08-19T07:40:21Z</time>
        <sat>8</sat>
      </trkpt>
      <trkpt lat="42.543503" lon="-2.293123">
        <ele>558.9</ele>
        <time>2019-08-19T07:40:29Z</time>
        <sat>8</sat>
      </trkpt>
      <trkpt lat="42.543571" lon="-2.293211">
        <ele>558.4</ele>
        <time>2019-08-19T07:40:37Z</time>
        <sat>8</sat>
      </trkpt>
      <trkpt lat="42.543616" lon="-2.293306">
        <ele>558.8</ele>
        <time>2019-08-19T07:40:48Z</time>
        <sat>8</sat>
      </trkpt>
      <trkpt lat="42.543621" lon="-2.293375">
        <ele>558.7</ele>
        <time>2019-08-19T07:40:52Z</time>
        <sat>8</sat>
      </trkpt>
      <trkpt lat="42.543581" lon="-2.293549">
        <ele>558.1</ele>
        <time>2019-08-19T07:41:04Z</time>
        <sat>8</sat>
      </trkpt>
      <trkpt lat="42.543503" lon="-2.293620">
        <ele>560.2</ele>
        <time>2019-08-19T07:41:13Z</time>
        <sat>8</sat>
      </trkpt>
      <trkpt lat="42.543439" lon="-2.293697">
        <ele>562.4</ele>
        <time>2019-08-19T07:41:21Z</time>
        <sat>8</sat>
      </trkpt>
      <trkpt lat="42.543388" lon="-2.293808">
        <ele>563.9</ele>
        <time>2019-08-19T07:41:29Z</time>
        <sat>8</sat>
      </trkpt>
      <trkpt lat="42.543361" lon="-2.293891">
        <ele>564.6</ele>
        <time>2019-08-19T07:41:34Z</time>
        <sat>8</sat>
      </trkpt>
      <trkpt lat="42.543359" lon="-2.293942">
        <ele>565.0</ele>
        <time>2019-08-19T07:41:37Z</time>
        <sat>8</sat>
      </trkpt>
      <trkpt lat="42.543343" lon="-2.294031">
        <ele>565.6</ele>
        <time>2019-08-19T07:41:42Z</time>
        <sat>8</sat>
      </trkpt>
      <trkpt lat="42.543341" lon="-2.294122">
        <ele>566.1</ele>
        <time>2019-08-19T07:41:47Z</time>
        <sat>8</sat>
      </trkpt>
      <trkpt lat="42.543317" lon="-2.294248">
        <ele>566.5</ele>
        <time>2019-08-19T07:41:54Z</time>
        <sat>8</sat>
      </trkpt>
      <trkpt lat="42.543312" lon="-2.294300">
        <ele>566.7</ele>
        <time>2019-08-19T07:41:57Z</time>
        <sat>8</sat>
      </trkpt>
      <trkpt lat="42.543271" lon="-2.294474">
        <ele>566.9</ele>
        <time>2019-08-19T07:42:07Z</time>
        <sat>8</sat>
      </trkpt>
      <trkpt lat="42.543230" lon="-2.294588">
        <ele>567.0</ele>
        <time>2019-08-19T07:42:14Z</time>
        <sat>8</sat>
      </trkpt>
      <trkpt lat="42.543218" lon="-2.294651">
        <ele>567.1</ele>
        <time>2019-08-19T07:42:18Z</time>
        <sat>8</sat>
      </trkpt>
      <trkpt lat="42.543179" lon="-2.294740">
        <ele>567.3</ele>
        <time>2019-08-19T07:42:24Z</time>
        <sat>8</sat>
      </trkpt>
      <trkpt lat="42.543165" lon="-2.294798">
        <ele>567.4</ele>
        <time>2019-08-19T07:42:28Z</time>
        <sat>8</sat>
      </trkpt>
      <trkpt lat="42.543098" lon="-2.294954">
        <ele>567.5</ele>
        <time>2019-08-19T07:42:43Z</time>
        <sat>8</sat>
      </trkpt>
      <trkpt lat="42.543064" lon="-2.294998">
        <ele>567.6</ele>
        <time>2019-08-19T07:42:47Z</time>
        <sat>8</sat>
      </trkpt>
      <trkpt lat="42.543037" lon="-2.295020">
        <ele>567.6</ele>
        <time>2019-08-19T07:42:55Z</time>
        <sat>8</sat>
      </trkpt>
      <trkpt lat="42.542996" lon="-2.295112">
        <ele>567.6</ele>
        <time>2019-08-19T07:43:05Z</time>
        <sat>7</sat>
      </trkpt>
      <trkpt lat="42.542955" lon="-2.295182">
        <ele>567.5</ele>
        <time>2019-08-19T07:43:10Z</time>
        <sat>7</sat>
      </trkpt>
      <trkpt lat="42.542940" lon="-2.295235">
        <ele>567.6</ele>
        <time>2019-08-19T07:43:17Z</time>
        <sat>8</sat>
      </trkpt>
      <trkpt lat="42.542887" lon="-2.295387">
        <ele>568.2</ele>
        <time>2019-08-19T07:43:29Z</time>
        <sat>8</sat>
      </trkpt>
      <trkpt lat="42.542888" lon="-2.295495">
        <ele>569.2</ele>
        <time>2019-08-19T07:43:39Z</time>
        <sat>8</sat>
      </trkpt>
      <trkpt lat="42.542874" lon="-2.295530">
        <ele>569.9</ele>
        <time>2019-08-19T07:43:46Z</time>
        <sat>8</sat>
      </trkpt>
      <trkpt lat="42.542857" lon="-2.295586">
        <ele>570.5</ele>
        <time>2019-08-19T07:43:51Z</time>
        <sat>8</sat>
      </trkpt>
      <trkpt lat="42.542763" lon="-2.295766">
        <ele>571.2</ele>
        <time>2019-08-19T07:44:03Z</time>
        <sat>8</sat>
      </trkpt>
      <trkpt lat="42.542728" lon="-2.295868">
        <ele>571.2</ele>
        <time>2019-08-19T07:44:09Z</time>
        <sat>8</sat>
      </trkpt>
      <trkpt lat="42.542664" lon="-2.295987">
        <ele>571.2</ele>
        <time>2019-08-19T07:44:17Z</time>
        <sat>8</sat>
      </trkpt>
      <trkpt lat="42.542639" lon="-2.296055">
        <ele>571.2</ele>
        <time>2019-08-19T07:44:21Z</time>
        <sat>8</sat>
      </trkpt>
      <trkpt lat="42.542572" lon="-2.296161">
        <ele>571.3</ele>
        <time>2019-08-19T07:44:28Z</time>
        <sat>8</sat>
      </trkpt>
      <trkpt lat="42.542526" lon="-2.296275">
        <ele>571.3</ele>
        <time>2019-08-19T07:44:35Z</time>
        <sat>7</sat>
      </trkpt>
      <trkpt lat="42.542428" lon="-2.296461">
        <ele>571.1</ele>
        <time>2019-08-19T07:44:47Z</time>
        <sat>7</sat>
      </trkpt>
      <trkpt lat="42.542400" lon="-2.296499">
        <ele>571.1</ele>
        <time>2019-08-19T07:44:50Z</time>
        <sat>7</sat>
      </trkpt>
      <trkpt lat="42.542297" lon="-2.296612">
        <ele>571.1</ele>
        <time>2019-08-19T07:45:00Z</time>
        <sat>7</sat>
      </trkpt>
      <trkpt lat="42.542186" lon="-2.296704">
        <ele>570.7</ele>
        <time>2019-08-19T07:45:10Z</time>
        <sat>7</sat>
      </trkpt>
      <trkpt lat="42.542117" lon="-2.296780">
        <ele>570.3</ele>
        <time>2019-08-19T07:45:17Z</time>
        <sat>7</sat>
      </trkpt>
      <trkpt lat="42.542059" lon="-2.296830">
        <ele>569.9</ele>
        <time>2019-08-19T07:45:22Z</time>
        <sat>8</sat>
      </trkpt>
      <trkpt lat="42.542011" lon="-2.296857">
        <ele>569.6</ele>
        <time>2019-08-19T07:45:26Z</time>
        <sat>8</sat>
      </trkpt>
      <trkpt lat="42.541963" lon="-2.296906">
        <ele>569.7</ele>
        <time>2019-08-19T07:45:38Z</time>
        <sat>8</sat>
      </trkpt>
      <trkpt lat="42.541934" lon="-2.296989">
        <ele>570.0</ele>
        <time>2019-08-19T07:45:48Z</time>
        <sat>8</sat>
      </trkpt>
      <trkpt lat="42.541895" lon="-2.297110">
        <ele>570.2</ele>
        <time>2019-08-19T07:46:03Z</time>
        <sat>8</sat>
      </trkpt>
      <trkpt lat="42.541892" lon="-2.297145">
        <ele>569.8</ele>
        <time>2019-08-19T08:01:52Z</time>
        <sat>7</sat>
      </trkpt>
      <trkpt lat="42.541739" lon="-2.297827">
        <ele>567.0</ele>
        <time>2019-08-19T08:07:39Z</time>
        <sat>8</sat>
      </trkpt>
      <trkpt lat="42.541733" lon="-2.297872">
        <ele>566.7</ele>
        <time>2019-08-19T08:07:58Z</time>
        <sat>8</sat>
      </trkpt>
      <trkpt lat="42.541746" lon="-2.297921">
        <ele>566.6</ele>
        <time>2019-08-19T08:08:04Z</time>
        <sat>8</sat>
      </trkpt>
      <trkpt lat="42.541802" lon="-2.298098">
        <ele>564.0</ele>
        <time>2019-08-19T08:08:24Z</time>
        <sat>7</sat>
      </trkpt>
      <trkpt lat="42.541853" lon="-2.298205">
        <ele>562.2</ele>
        <time>2019-08-19T08:08:34Z</time>
        <sat>8</sat>
      </trkpt>
      <trkpt lat="42.541874" lon="-2.298283">
        <ele>560.0</ele>
        <time>2019-08-19T08:08:46Z</time>
        <sat>8</sat>
      </trkpt>
      <trkpt lat="42.541955" lon="-2.298334">
        <ele>558.9</ele>
        <time>2019-08-19T08:08:55Z</time>
        <sat>8</sat>
      </trkpt>
      <trkpt lat="42.542019" lon="-2.298431">
        <ele>558.1</ele>
        <time>2019-08-19T08:09:04Z</time>
        <sat>8</sat>
      </trkpt>
      <trkpt lat="42.542045" lon="-2.298496">
        <ele>557.5</ele>
        <time>2019-08-19T08:09:10Z</time>
        <sat>8</sat>
      </trkpt>
      <trkpt lat="42.542066" lon="-2.298536">
        <ele>557.3</ele>
        <time>2019-08-19T08:09:13Z</time>
        <sat>8</sat>
      </trkpt>
      <trkpt lat="42.542119" lon="-2.298615">
        <ele>556.9</ele>
        <time>2019-08-19T08:09:19Z</time>
        <sat>8</sat>
      </trkpt>
      <trkpt lat="42.542114" lon="-2.298678">
        <ele>556.7</ele>
        <time>2019-08-19T08:09:24Z</time>
        <sat>8</sat>
      </trkpt>
      <trkpt lat="42.542088" lon="-2.298761">
        <ele>555.8</ele>
        <time>2019-08-19T08:09:31Z</time>
        <sat>8</sat>
      </trkpt>
      <trkpt lat="42.542119" lon="-2.298908">
        <ele>554.8</ele>
        <time>2019-08-19T08:09:41Z</time>
        <sat>8</sat>
      </trkpt>
      <trkpt lat="42.542161" lon="-2.298989">
        <ele>554.0</ele>
        <time>2019-08-19T08:09:47Z</time>
        <sat>8</sat>
      </trkpt>
      <trkpt lat="42.542197" lon="-2.299031">
        <ele>552.6</ele>
        <time>2019-08-19T08:09:51Z</time>
        <sat>8</sat>
      </trkpt>
      <trkpt lat="42.542233" lon="-2.299112">
        <ele>552.8</ele>
        <time>2019-08-19T08:09:57Z</time>
        <sat>8</sat>
      </trkpt>
      <trkpt lat="42.542325" lon="-2.299289">
        <ele>551.4</ele>
        <time>2019-08-19T08:10:10Z</time>
        <sat>8</sat>
      </trkpt>
      <trkpt lat="42.542387" lon="-2.299410">
        <ele>550.4</ele>
        <time>2019-08-19T08:10:19Z</time>
        <sat>8</sat>
      </trkpt>
      <trkpt lat="42.542450" lon="-2.299564">
        <ele>549.4</ele>
        <time>2019-08-19T08:10:30Z</time>
        <sat>8</sat>
      </trkpt>
      <trkpt lat="42.542462" lon="-2.299631">
        <ele>549.0</ele>
        <time>2019-08-19T08:10:34Z</time>
        <sat>8</sat>
      </trkpt>
      <trkpt lat="42.542454" lon="-2.299716">
        <ele>548.6</ele>
        <time>2019-08-19T08:10:39Z</time>
        <sat>8</sat>
      </trkpt>
      <trkpt lat="42.542395" lon="-2.299861">
        <ele>548.0</ele>
        <time>2019-08-19T08:10:48Z</time>
        <sat>8</sat>
      </trkpt>
      <trkpt lat="42.542356" lon="-2.299916">
        <ele>547.8</ele>
        <time>2019-08-19T08:10:52Z</time>
        <sat>8</sat>
      </trkpt>
      <trkpt lat="42.542278" lon="-2.300002">
        <ele>547.2</ele>
        <time>2019-08-19T08:10:59Z</time>
        <sat>8</sat>
      </trkpt>
      <trkpt lat="42.542204" lon="-2.300049">
        <ele>546.7</ele>
        <time>2019-08-19T08:11:05Z</time>
        <sat>8</sat>
      </trkpt>
      <trkpt lat="42.542054" lon="-2.300083">
        <ele>546.1</ele>
        <time>2019-08-19T08:11:16Z</time>
        <sat>8</sat>
      </trkpt>
      <trkpt lat="42.541944" lon="-2.300078">
        <ele>545.8</ele>
        <time>2019-08-19T08:11:24Z</time>
        <sat>8</sat>
      </trkpt>
      <trkpt lat="42.541877" lon="-2.300085">
        <ele>545.9</ele>
        <time>2019-08-19T08:11:29Z</time>
        <sat>8</sat>
      </trkpt>
      <trkpt lat="42.541724" lon="-2.300075">
        <ele>545.9</ele>
        <time>2019-08-19T08:11:40Z</time>
        <sat>8</sat>
      </trkpt>
      <trkpt lat="42.541642" lon="-2.300058">
        <ele>546.2</ele>
        <time>2019-08-19T08:11:46Z</time>
        <sat>8</sat>
      </trkpt>
      <trkpt lat="42.541602" lon="-2.300101">
        <ele>546.4</ele>
        <time>2019-08-19T08:11:50Z</time>
        <sat>8</sat>
      </trkpt>
      <trkpt lat="42.541510" lon="-2.300140">
        <ele>547.0</ele>
        <time>2019-08-19T08:11:57Z</time>
        <sat>8</sat>
      </trkpt>
      <trkpt lat="42.541531" lon="-2.300249">
        <ele>548.0</ele>
        <time>2019-08-19T08:12:37Z</time>
        <sat>8</sat>
      </trkpt>
      <trkpt lat="42.541599" lon="-2.300399">
        <ele>548.5</ele>
        <time>2019-08-19T08:12:47Z</time>
        <sat>8</sat>
      </trkpt>
      <trkpt lat="42.541632" lon="-2.300500">
        <ele>549.5</ele>
        <time>2019-08-19T08:12:54Z</time>
        <sat>8</sat>
      </trkpt>
      <trkpt lat="42.541647" lon="-2.300564">
        <ele>550.2</ele>
        <time>2019-08-19T08:12:58Z</time>
        <sat>8</sat>
      </trkpt>
      <trkpt lat="42.541720" lon="-2.300695">
        <ele>551.5</ele>
        <time>2019-08-19T08:13:07Z</time>
        <sat>8</sat>
      </trkpt>
      <trkpt lat="42.541781" lon="-2.300772">
        <ele>552.0</ele>
        <time>2019-08-19T08:13:13Z</time>
        <sat>8</sat>
      </trkpt>
      <trkpt lat="42.541835" lon="-2.300879">
        <ele>552.4</ele>
        <time>2019-08-19T08:13:20Z</time>
        <sat>8</sat>
      </trkpt>
      <trkpt lat="42.541858" lon="-2.300942">
        <ele>552.6</ele>
        <time>2019-08-19T08:13:24Z</time>
        <sat>8</sat>
      </trkpt>
      <trkpt lat="42.541872" lon="-2.301008">
        <ele>552.8</ele>
        <time>2019-08-19T08:13:28Z</time>
        <sat>8</sat>
      </trkpt>
      <trkpt lat="42.541872" lon="-2.301101">
        <ele>553.4</ele>
        <time>2019-08-19T08:13:34Z</time>
        <sat>6</sat>
      </trkpt>
      <trkpt lat="42.541891" lon="-2.301256">
        <ele>555.4</ele>
        <time>2019-08-19T08:13:45Z</time>
        <sat>7</sat>
      </trkpt>
      <trkpt lat="42.541895" lon="-2.301343">
        <ele>556.7</ele>
        <time>2019-08-19T08:13:51Z</time>
        <sat>7</sat>
      </trkpt>
      <trkpt lat="42.541891" lon="-2.301421">
        <ele>557.9</ele>
        <time>2019-08-19T08:13:56Z</time>
        <sat>7</sat>
      </trkpt>
      <trkpt lat="42.541855" lon="-2.301522">
        <ele>559.3</ele>
        <time>2019-08-19T08:14:03Z</time>
        <sat>7</sat>
      </trkpt>
      <trkpt lat="42.541847" lon="-2.301645">
        <ele>561.1</ele>
        <time>2019-08-19T08:14:12Z</time>
        <sat>7</sat>
      </trkpt>
      <trkpt lat="42.541811" lon="-2.301658">
        <ele>562.4</ele>
        <time>2019-08-19T08:14:19Z</time>
        <sat>8</sat>
      </trkpt>
      <trkpt lat="42.541772" lon="-2.301659">
        <ele>564.5</ele>
        <time>2019-08-19T08:14:30Z</time>
        <sat>8</sat>
      </trkpt>
      <trkpt lat="42.541695" lon="-2.301594">
        <ele>566.2</ele>
        <time>2019-08-19T08:14:40Z</time>
        <sat>8</sat>
      </trkpt>
      <trkpt lat="42.541635" lon="-2.301562">
        <ele>567.4</ele>
        <time>2019-08-19T08:14:47Z</time>
        <sat>8</sat>
      </trkpt>
      <trkpt lat="42.541590" lon="-2.301650">
        <ele>568.8</ele>
        <time>2019-08-19T08:14:55Z</time>
        <sat>7</sat>
      </trkpt>
      <trkpt lat="42.541564" lon="-2.301762">
        <ele>570.0</ele>
        <time>2019-08-19T08:15:03Z</time>
        <sat>8</sat>
      </trkpt>
      <trkpt lat="42.541549" lon="-2.301809">
        <ele>570.4</ele>
        <time>2019-08-19T08:15:06Z</time>
        <sat>8</sat>
      </trkpt>
      <trkpt lat="42.541529" lon="-2.301900">
        <ele>571.3</ele>
        <time>2019-08-19T08:15:12Z</time>
        <sat>7</sat>
      </trkpt>
      <trkpt lat="42.541475" lon="-2.301979">
        <ele>572.2</ele>
        <time>2019-08-19T08:15:19Z</time>
        <sat>8</sat>
      </trkpt>
      <trkpt lat="42.541453" lon="-2.302027">
        <ele>572.7</ele>
        <time>2019-08-19T08:15:23Z</time>
        <sat>8</sat>
      </trkpt>
      <trkpt lat="42.541395" lon="-2.302124">
        <ele>573.9</ele>
        <time>2019-08-19T08:15:31Z</time>
        <sat>8</sat>
      </trkpt>
      <trkpt lat="42.541348" lon="-2.302185">
        <ele>574.8</ele>
        <time>2019-08-19T08:15:37Z</time>
        <sat>8</sat>
      </trkpt>
      <trkpt lat="42.541321" lon="-2.302237">
        <ele>575.4</ele>
        <time>2019-08-19T08:15:41Z</time>
        <sat>8</sat>
      </trkpt>
      <trkpt lat="42.541261" lon="-2.302426">
        <ele>576.4</ele>
        <time>2019-08-19T08:15:56Z</time>
        <sat>8</sat>
      </trkpt>
      <trkpt lat="42.541230" lon="-2.302618">
        <ele>577.0</ele>
        <time>2019-08-19T08:16:09Z</time>
        <sat>8</sat>
      </trkpt>
      <trkpt lat="42.541209" lon="-2.302700">
        <ele>576.9</ele>
        <time>2019-08-19T08:16:14Z</time>
        <sat>7</sat>
      </trkpt>
      <trkpt lat="42.541200" lon="-2.302857">
        <ele>576.8</ele>
        <time>2019-08-19T08:16:23Z</time>
        <sat>7</sat>
      </trkpt>
      <trkpt lat="42.541200" lon="-2.302945">
        <ele>576.9</ele>
        <time>2019-08-19T08:16:28Z</time>
        <sat>7</sat>
      </trkpt>
      <trkpt lat="42.541186" lon="-2.303070">
        <ele>576.9</ele>
        <time>2019-08-19T08:16:35Z</time>
        <sat>7</sat>
      </trkpt>
      <trkpt lat="42.541199" lon="-2.303241">
        <ele>577.0</ele>
        <time>2019-08-19T08:16:45Z</time>
        <sat>7</sat>
      </trkpt>
      <trkpt lat="42.541199" lon="-2.303344">
        <ele>577.1</ele>
        <time>2019-08-19T08:16:51Z</time>
        <sat>7</sat>
      </trkpt>
      <trkpt lat="42.541206" lon="-2.303379">
        <ele>577.1</ele>
        <time>2019-08-19T08:16:53Z</time>
        <sat>7</sat>
      </trkpt>
      <trkpt lat="42.541214" lon="-2.303499">
        <ele>577.2</ele>
        <time>2019-08-19T08:17:00Z</time>
        <sat>7</sat>
      </trkpt>
      <trkpt lat="42.541222" lon="-2.303532">
        <ele>577.3</ele>
        <time>2019-08-19T08:17:02Z</time>
        <sat>7</sat>
      </trkpt>
      <trkpt lat="42.541228" lon="-2.303635">
        <ele>577.4</ele>
        <time>2019-08-19T08:17:08Z</time>
        <sat>7</sat>
      </trkpt>
      <trkpt lat="42.541237" lon="-2.303685">
        <ele>577.5</ele>
        <time>2019-08-19T08:17:11Z</time>
        <sat>7</sat>
      </trkpt>
      <trkpt lat="42.541239" lon="-2.303773">
        <ele>577.8</ele>
        <time>2019-08-19T08:17:16Z</time>
        <sat>6</sat>
      </trkpt>
      <trkpt lat="42.541247" lon="-2.303837">
        <ele>578.1</ele>
        <time>2019-08-19T08:17:20Z</time>
        <sat>7</sat>
      </trkpt>
      <trkpt lat="42.541244" lon="-2.303909">
        <ele>578.3</ele>
        <time>2019-08-19T08:17:24Z</time>
        <sat>7</sat>
      </trkpt>
      <trkpt lat="42.541258" lon="-2.304026">
        <ele>578.6</ele>
        <time>2019-08-19T08:17:31Z</time>
        <sat>7</sat>
      </trkpt>
      <trkpt lat="42.541267" lon="-2.304213">
        <ele>578.7</ele>
        <time>2019-08-19T08:17:42Z</time>
        <sat>7</sat>
      </trkpt>
      <trkpt lat="42.541275" lon="-2.304266">
        <ele>578.7</ele>
        <time>2019-08-19T08:17:45Z</time>
        <sat>7</sat>
      </trkpt>
      <trkpt lat="42.541278" lon="-2.304349">
        <ele>578.5</ele>
        <time>2019-08-19T08:17:50Z</time>
        <sat>7</sat>
      </trkpt>
      <trkpt lat="42.541293" lon="-2.304408">
        <ele>578.3</ele>
        <time>2019-08-19T08:17:54Z</time>
        <sat>8</sat>
      </trkpt>
      <trkpt lat="42.541303" lon="-2.304509">
        <ele>578.5</ele>
        <time>2019-08-19T08:18:00Z</time>
        <sat>8</sat>
      </trkpt>
      <trkpt lat="42.541318" lon="-2.304557">
        <ele>578.5</ele>
        <time>2019-08-19T08:18:03Z</time>
        <sat>8</sat>
      </trkpt>
      <trkpt lat="42.541345" lon="-2.304756">
        <ele>578.4</ele>
        <time>2019-08-19T08:18:15Z</time>
        <sat>7</sat>
      </trkpt>
      <trkpt lat="42.541344" lon="-2.304927">
        <ele>578.4</ele>
        <time>2019-08-19T08:18:25Z</time>
        <sat>8</sat>
      </trkpt>
      <trkpt lat="42.541344" lon="-2.304993">
        <ele>578.7</ele>
        <time>2019-08-19T08:18:29Z</time>
        <sat>8</sat>
      </trkpt>
      <trkpt lat="42.541329" lon="-2.305096">
        <ele>579.1</ele>
        <time>2019-08-19T08:18:35Z</time>
        <sat>8</sat>
      </trkpt>
      <trkpt lat="42.541305" lon="-2.305204">
        <ele>579.3</ele>
        <time>2019-08-19T08:18:42Z</time>
        <sat>8</sat>
      </trkpt>
      <trkpt lat="42.541236" lon="-2.305340">
        <ele>580.0</ele>
        <time>2019-08-19T08:18:52Z</time>
        <sat>7</sat>
      </trkpt>
      <trkpt lat="42.541201" lon="-2.305392">
        <ele>580.1</ele>
        <time>2019-08-19T08:18:56Z</time>
        <sat>7</sat>
      </trkpt>
      <trkpt lat="42.541152" lon="-2.305486">
        <ele>580.1</ele>
        <time>2019-08-19T08:19:03Z</time>
        <sat>7</sat>
      </trkpt>
      <trkpt lat="42.541112" lon="-2.305605">
        <ele>580.1</ele>
        <time>2019-08-19T08:19:11Z</time>
        <sat>7</sat>
      </trkpt>
      <trkpt lat="42.541086" lon="-2.305716">
        <ele>580.2</ele>
        <time>2019-08-19T08:19:18Z</time>
        <sat>7</sat>
      </trkpt>
      <trkpt lat="42.541094" lon="-2.305811">
        <ele>580.5</ele>
        <time>2019-08-19T08:19:24Z</time>
        <sat>6</sat>
      </trkpt>
      <trkpt lat="42.541133" lon="-2.306027">
        <ele>581.7</ele>
        <time>2019-08-19T08:19:38Z</time>
        <sat>6</sat>
      </trkpt>
      <trkpt lat="42.541140" lon="-2.306107">
        <ele>582.2</ele>
        <time>2019-08-19T08:19:43Z</time>
        <sat>6</sat>
      </trkpt>
      <trkpt lat="42.541136" lon="-2.306172">
        <ele>582.6</ele>
        <time>2019-08-19T08:19:47Z</time>
        <sat>6</sat>
      </trkpt>
      <trkpt lat="42.541097" lon="-2.306231">
        <ele>583.6</ele>
        <time>2019-08-19T08:19:52Z</time>
        <sat>8</sat>
      </trkpt>
      <trkpt lat="42.541005" lon="-2.306257">
        <ele>583.7</ele>
        <time>2019-08-19T08:20:01Z</time>
        <sat>8</sat>
      </trkpt>
      <trkpt lat="42.540846" lon="-2.306222">
        <ele>583.1</ele>
        <time>2019-08-19T08:20:17Z</time>
        <sat>8</sat>
      </trkpt>
      <trkpt lat="42.540757" lon="-2.306214">
        <ele>583.6</ele>
        <time>2019-08-19T08:20:25Z</time>
        <sat>8</sat>
      </trkpt>
      <trkpt lat="42.540616" lon="-2.306196">
        <ele>583.8</ele>
        <time>2019-08-19T08:20:37Z</time>
        <sat>8</sat>
      </trkpt>
      <trkpt lat="42.540573" lon="-2.306233">
        <ele>584.0</ele>
        <time>2019-08-19T08:20:41Z</time>
        <sat>8</sat>
      </trkpt>
      <trkpt lat="42.540523" lon="-2.306239">
        <ele>584.2</ele>
        <time>2019-08-19T08:20:45Z</time>
        <sat>8</sat>
      </trkpt>
      <trkpt lat="42.540437" lon="-2.306228">
        <ele>584.2</ele>
        <time>2019-08-19T08:20:52Z</time>
        <sat>8</sat>
      </trkpt>
      <trkpt lat="42.540363" lon="-2.306266">
        <ele>583.8</ele>
        <time>2019-08-19T08:21:01Z</time>
        <sat>8</sat>
      </trkpt>
      <trkpt lat="42.540326" lon="-2.306345">
        <ele>583.4</ele>
        <time>2019-08-19T08:21:08Z</time>
        <sat>8</sat>
      </trkpt>
      <trkpt lat="42.540313" lon="-2.306441">
        <ele>582.5</ele>
        <time>2019-08-19T08:21:16Z</time>
        <sat>8</sat>
      </trkpt>
      <trkpt lat="42.540364" lon="-2.306688">
        <ele>580.9</ele>
        <time>2019-08-19T08:21:32Z</time>
        <sat>8</sat>
      </trkpt>
      <trkpt lat="42.540408" lon="-2.306871">
        <ele>580.0</ele>
        <time>2019-08-19T08:21:45Z</time>
        <sat>8</sat>
      </trkpt>
      <trkpt lat="42.540445" lon="-2.306974">
        <ele>579.6</ele>
        <time>2019-08-19T08:21:52Z</time>
        <sat>8</sat>
      </trkpt>
      <trkpt lat="42.540485" lon="-2.307058">
        <ele>579.4</ele>
        <time>2019-08-19T08:21:58Z</time>
        <sat>8</sat>
      </trkpt>
      <trkpt lat="42.540546" lon="-2.307127">
        <ele>579.1</ele>
        <time>2019-08-19T08:22:04Z</time>
        <sat>8</sat>
      </trkpt>
      <trkpt lat="42.540650" lon="-2.307270">
        <ele>578.4</ele>
        <time>2019-08-19T08:22:16Z</time>
        <sat>8</sat>
      </trkpt>
      <trkpt lat="42.540699" lon="-2.307340">
        <ele>577.8</ele>
        <time>2019-08-19T08:22:22Z</time>
        <sat>8</sat>
      </trkpt>
      <trkpt lat="42.540844" lon="-2.307510">
        <ele>576.5</ele>
        <time>2019-08-19T08:22:38Z</time>
        <sat>8</sat>
      </trkpt>
      <trkpt lat="42.540890" lon="-2.307590">
        <ele>576.2</ele>
        <time>2019-08-19T08:22:44Z</time>
        <sat>8</sat>
      </trkpt>
      <trkpt lat="42.540913" lon="-2.307797">
        <ele>575.9</ele>
        <time>2019-08-19T08:22:57Z</time>
        <sat>7</sat>
      </trkpt>
      <trkpt lat="42.540924" lon="-2.307846">
        <ele>576.0</ele>
        <time>2019-08-19T08:23:00Z</time>
        <sat>8</sat>
      </trkpt>
      <trkpt lat="42.540948" lon="-2.308056">
        <ele>575.7</ele>
        <time>2019-08-19T08:23:13Z</time>
        <sat>8</sat>
      </trkpt>
      <trkpt lat="42.540942" lon="-2.308132">
        <ele>575.5</ele>
        <time>2019-08-19T08:23:18Z</time>
        <sat>7</sat>
      </trkpt>
      <trkpt lat="42.540947" lon="-2.308129">
        <ele>574.9</ele>
        <time>2019-08-19T08:23:40Z</time>
        <sat>8</sat>
      </trkpt>
      <trkpt lat="42.540961" lon="-2.308290">
        <ele>574.9</ele>
        <time>2019-08-19T08:23:52Z</time>
        <sat>7</sat>
      </trkpt>
      <trkpt lat="42.540981" lon="-2.308423">
        <ele>574.7</ele>
        <time>2019-08-19T08:24:01Z</time>
        <sat>8</sat>
      </trkpt>
      <trkpt lat="42.540961" lon="-2.308614">
        <ele>573.9</ele>
        <time>2019-08-19T08:24:13Z</time>
        <sat>8</sat>
      </trkpt>
      <trkpt lat="42.540944" lon="-2.308833">
        <ele>572.4</ele>
        <time>2019-08-19T08:24:26Z</time>
        <sat>7</sat>
      </trkpt>
      <trkpt lat="42.540899" lon="-2.309115">
        <ele>569.4</ele>
        <time>2019-08-19T08:26:20Z</time>
        <sat>8</sat>
      </trkpt>
      <trkpt lat="42.540860" lon="-2.309212">
        <ele>569.2</ele>
        <time>2019-08-19T08:26:26Z</time>
        <sat>7</sat>
      </trkpt>
      <trkpt lat="42.540796" lon="-2.309425">
        <ele>567.8</ele>
        <time>2019-08-19T08:26:40Z</time>
        <sat>8</sat>
      </trkpt>
      <trkpt lat="42.540775" lon="-2.309536">
        <ele>566.6</ele>
        <time>2019-08-19T08:26:47Z</time>
        <sat>7</sat>
      </trkpt>
      <trkpt lat="42.540724" lon="-2.309754">
        <ele>564.8</ele>
        <time>2019-08-19T08:27:00Z</time>
        <sat>8</sat>
      </trkpt>
      <trkpt lat="42.540683" lon="-2.309920">
        <ele>563.6</ele>
        <time>2019-08-19T08:27:10Z</time>
        <sat>7</sat>
      </trkpt>
      <trkpt lat="42.540663" lon="-2.309983">
        <ele>563.1</ele>
        <time>2019-08-19T08:27:15Z</time>
        <sat>8</sat>
      </trkpt>
      <trkpt lat="42.540646" lon="-2.310089">
        <ele>562.7</ele>
        <time>2019-08-19T08:27:21Z</time>
        <sat>7</sat>
      </trkpt>
      <trkpt lat="42.540624" lon="-2.310345">
        <ele>561.7</ele>
        <time>2019-08-19T08:27:36Z</time>
        <sat>7</sat>
      </trkpt>
      <trkpt lat="42.540595" lon="-2.310387">
        <ele>559.9</ele>
        <time>2019-08-19T08:28:03Z</time>
        <sat>8</sat>
      </trkpt>
      <trkpt lat="42.540509" lon="-2.310411">
        <ele>559.5</ele>
        <time>2019-08-19T08:28:11Z</time>
        <sat>8</sat>
      </trkpt>
      <trkpt lat="42.540460" lon="-2.310439">
        <ele>559.1</ele>
        <time>2019-08-19T08:28:15Z</time>
        <sat>8</sat>
      </trkpt>
      <trkpt lat="42.540299" lon="-2.310512">
        <ele>556.8</ele>
        <time>2019-08-19T08:28:29Z</time>
        <sat>8</sat>
      </trkpt>
      <trkpt lat="42.540254" lon="-2.310529">
        <ele>556.4</ele>
        <time>2019-08-19T08:28:33Z</time>
        <sat>8</sat>
      </trkpt>
      <trkpt lat="42.540185" lon="-2.310572">
        <ele>555.5</ele>
        <time>2019-08-19T08:28:39Z</time>
        <sat>8</sat>
      </trkpt>
      <trkpt lat="42.540036" lon="-2.310729">
        <ele>552.7</ele>
        <time>2019-08-19T08:28:57Z</time>
        <sat>8</sat>
      </trkpt>
      <trkpt lat="42.539972" lon="-2.310763">
        <ele>551.4</ele>
        <time>2019-08-19T08:29:04Z</time>
        <sat>8</sat>
      </trkpt>
      <trkpt lat="42.539902" lon="-2.310784">
        <ele>550.7</ele>
        <time>2019-08-19T08:29:10Z</time>
        <sat>8</sat>
      </trkpt>
      <trkpt lat="42.539836" lon="-2.310845">
        <ele>549.4</ele>
        <time>2019-08-19T08:29:16Z</time>
        <sat>7</sat>
      </trkpt>
      <trkpt lat="42.539803" lon="-2.310933">
        <ele>548.1</ele>
        <time>2019-08-19T08:29:22Z</time>
        <sat>7</sat>
      </trkpt>
      <trkpt lat="42.539780" lon="-2.311148">
        <ele>546.1</ele>
        <time>2019-08-19T08:29:34Z</time>
        <sat>7</sat>
      </trkpt>
      <trkpt lat="42.539760" lon="-2.311233">
        <ele>545.4</ele>
        <time>2019-08-19T08:29:39Z</time>
        <sat>7</sat>
      </trkpt>
      <trkpt lat="42.539752" lon="-2.311304">
        <ele>545.0</ele>
        <time>2019-08-19T08:29:43Z</time>
        <sat>7</sat>
      </trkpt>
      <trkpt lat="42.539735" lon="-2.311369">
        <ele>544.7</ele>
        <time>2019-08-19T08:29:47Z</time>
        <sat>7</sat>
      </trkpt>
      <trkpt lat="42.539723" lon="-2.311588">
        <ele>543.3</ele>
        <time>2019-08-19T08:30:00Z</time>
        <sat>7</sat>
      </trkpt>
      <trkpt lat="42.539732" lon="-2.311784">
        <ele>541.6</ele>
        <time>2019-08-19T08:30:13Z</time>
        <sat>8</sat>
      </trkpt>
      <trkpt lat="42.539747" lon="-2.311864">
        <ele>540.8</ele>
        <time>2019-08-19T08:30:18Z</time>
        <sat>7</sat>
      </trkpt>
      <trkpt lat="42.539750" lon="-2.312004">
        <ele>539.2</ele>
        <time>2019-08-19T08:30:27Z</time>
        <sat>7</sat>
      </trkpt>
      <trkpt lat="42.539737" lon="-2.312084">
        <ele>538.1</ele>
        <time>2019-08-19T08:30:32Z</time>
        <sat>7</sat>
      </trkpt>
      <trkpt lat="42.539719" lon="-2.312129">
        <ele>537.5</ele>
        <time>2019-08-19T08:30:35Z</time>
        <sat>7</sat>
      </trkpt>
      <trkpt lat="42.539667" lon="-2.312205">
        <ele>536.4</ele>
        <time>2019-08-19T08:30:41Z</time>
        <sat>8</sat>
      </trkpt>
      <trkpt lat="42.539593" lon="-2.312290">
        <ele>535.0</ele>
        <time>2019-08-19T08:30:49Z</time>
        <sat>8</sat>
      </trkpt>
      <trkpt lat="42.539536" lon="-2.312323">
        <ele>533.9</ele>
        <time>2019-08-19T08:30:55Z</time>
        <sat>8</sat>
      </trkpt>
      <trkpt lat="42.539519" lon="-2.312358">
        <ele>533.4</ele>
        <time>2019-08-19T08:30:58Z</time>
        <sat>6</sat>
      </trkpt>
      <trkpt lat="42.539548" lon="-2.312443">
        <ele>531.4</ele>
        <time>2019-08-19T08:31:07Z</time>
        <sat>8</sat>
      </trkpt>
      <trkpt lat="42.539529" lon="-2.312476">
        <ele>530.3</ele>
        <time>2019-08-19T08:31:12Z</time>
        <sat>8</sat>
      </trkpt>
      <trkpt lat="42.539473" lon="-2.312469">
        <ele>529.1</ele>
        <time>2019-08-19T08:31:18Z</time>
        <sat>8</sat>
      </trkpt>
      <trkpt lat="42.539444" lon="-2.312485">
        <ele>527.0</ele>
        <time>2019-08-19T08:31:22Z</time>
        <sat>8</sat>
      </trkpt>
      <trkpt lat="42.539328" lon="-2.312516">
        <ele>526.1</ele>
        <time>2019-08-19T08:31:36Z</time>
        <sat>8</sat>
      </trkpt>
      <trkpt lat="42.539273" lon="-2.312496">
        <ele>525.1</ele>
        <time>2019-08-19T08:31:41Z</time>
        <sat>8</sat>
      </trkpt>
      <trkpt lat="42.539136" lon="-2.312622">
        <ele>520.8</ele>
        <time>2019-08-19T08:35:06Z</time>
        <sat>8</sat>
      </trkpt>
      <trkpt lat="42.539117" lon="-2.312704">
        <ele>520.4</ele>
        <time>2019-08-19T08:35:16Z</time>
        <sat>8</sat>
      </trkpt>
      <trkpt lat="42.539104" lon="-2.312829">
        <ele>519.3</ele>
        <time>2019-08-19T08:35:25Z</time>
        <sat>8</sat>
      </trkpt>
      <trkpt lat="42.539151" lon="-2.312961">
        <ele>517.4</ele>
        <time>2019-08-19T08:35:35Z</time>
        <sat>8</sat>
      </trkpt>
      <trkpt lat="42.539235" lon="-2.313062">
        <ele>515.6</ele>
        <time>2019-08-19T08:35:45Z</time>
        <sat>8</sat>
      </trkpt>
      <trkpt lat="42.539396" lon="-2.313207">
        <ele>512.6</ele>
        <time>2019-08-19T08:36:01Z</time>
        <sat>8</sat>
      </trkpt>
      <trkpt lat="42.539523" lon="-2.313240">
        <ele>510.7</ele>
        <time>2019-08-19T08:36:12Z</time>
        <sat>7</sat>
      </trkpt>
      <trkpt lat="42.539605" lon="-2.313239">
        <ele>509.7</ele>
        <time>2019-08-19T08:36:18Z</time>
        <sat>7</sat>
      </trkpt>
      <trkpt lat="42.539661" lon="-2.313256">
        <ele>509.1</ele>
        <time>2019-08-19T08:36:22Z</time>
        <sat>7</sat>
      </trkpt>
      <trkpt lat="42.539688" lon="-2.313275">
        <ele>508.7</ele>
        <time>2019-08-19T08:36:24Z</time>
        <sat>7</sat>
      </trkpt>
      <trkpt lat="42.539837" lon="-2.313423">
        <ele>507.4</ele>
        <time>2019-08-19T08:36:37Z</time>
        <sat>7</sat>
      </trkpt>
      <trkpt lat="42.539866" lon="-2.313542">
        <ele>507.4</ele>
        <time>2019-08-19T08:36:44Z</time>
        <sat>7</sat>
      </trkpt>
      <trkpt lat="42.539856" lon="-2.313637">
        <ele>507.6</ele>
        <time>2019-08-19T08:36:50Z</time>
        <sat>7</sat>
      </trkpt>
      <trkpt lat="42.539813" lon="-2.313693">
        <ele>508.1</ele>
        <time>2019-08-19T08:36:56Z</time>
        <sat>6</sat>
      </trkpt>
      <trkpt lat="42.539660" lon="-2.313781">
        <ele>509.6</ele>
        <time>2019-08-19T08:37:10Z</time>
        <sat>7</sat>
      </trkpt>
      <trkpt lat="42.539578" lon="-2.313797">
        <ele>510.2</ele>
        <time>2019-08-19T08:37:17Z</time>
        <sat>7</sat>
      </trkpt>
      <trkpt lat="42.539431" lon="-2.313792">
        <ele>509.8</ele>
        <time>2019-08-19T08:37:30Z</time>
        <sat>7</sat>
      </trkpt>
      <trkpt lat="42.539297" lon="-2.313831">
        <ele>509.1</ele>
        <time>2019-08-19T08:37:43Z</time>
        <sat>7</sat>
      </trkpt>
      <trkpt lat="42.539237" lon="-2.313843">
        <ele>509.1</ele>
        <time>2019-08-19T08:37:48Z</time>
        <sat>7</sat>
      </trkpt>
      <trkpt lat="42.539086" lon="-2.313882">
        <ele>508.9</ele>
        <time>2019-08-19T08:38:01Z</time>
        <sat>8</sat>
      </trkpt>
      <trkpt lat="42.539024" lon="-2.313881">
        <ele>508.8</ele>
        <time>2019-08-19T08:38:06Z</time>
        <sat>8</sat>
      </trkpt>
      <trkpt lat="42.538934" lon="-2.313895">
        <ele>508.7</ele>
        <time>2019-08-19T08:38:13Z</time>
        <sat>8</sat>
      </trkpt>
      <trkpt lat="42.538820" lon="-2.313890">
        <ele>508.6</ele>
        <time>2019-08-19T08:38:22Z</time>
        <sat>8</sat>
      </trkpt>
      <trkpt lat="42.538699" lon="-2.313894">
        <ele>508.2</ele>
        <time>2019-08-19T08:38:32Z</time>
        <sat>8</sat>
      </trkpt>
      <trkpt lat="42.538598" lon="-2.313913">
        <ele>507.6</ele>
        <time>2019-08-19T08:38:40Z</time>
        <sat>8</sat>
      </trkpt>
      <trkpt lat="42.538550" lon="-2.313940">
        <ele>507.2</ele>
        <time>2019-08-19T08:38:44Z</time>
        <sat>8</sat>
      </trkpt>
      <trkpt lat="42.538430" lon="-2.314065">
        <ele>505.7</ele>
        <time>2019-08-19T08:38:56Z</time>
        <sat>8</sat>
      </trkpt>
      <trkpt lat="42.538411" lon="-2.314093">
        <ele>505.5</ele>
        <time>2019-08-19T08:38:58Z</time>
        <sat>7</sat>
      </trkpt>
      <trkpt lat="42.538315" lon="-2.314290">
        <ele>504.9</ele>
        <time>2019-08-19T08:39:13Z</time>
        <sat>7</sat>
      </trkpt>
      <trkpt lat="42.538207" lon="-2.314423">
        <ele>504.0</ele>
        <time>2019-08-19T08:39:25Z</time>
        <sat>8</sat>
      </trkpt>
      <trkpt lat="42.538125" lon="-2.314493">
        <ele>503.4</ele>
        <time>2019-08-19T08:39:32Z</time>
        <sat>8</sat>
      </trkpt>
      <trkpt lat="42.538095" lon="-2.314527">
        <ele>503.2</ele>
        <time>2019-08-19T08:39:35Z</time>
        <sat>8</sat>
      </trkpt>
      <trkpt lat="42.537951" lon="-2.314637">
        <ele>501.8</ele>
        <time>2019-08-19T08:39:50Z</time>
        <sat>8</sat>
      </trkpt>
      <trkpt lat="42.537878" lon="-2.314684">
        <ele>500.9</ele>
        <time>2019-08-19T08:39:57Z</time>
        <sat>8</sat>
      </trkpt>
      <trkpt lat="42.537831" lon="-2.314700">
        <ele>500.9</ele>
        <time>2019-08-19T08:40:00Z</time>
        <sat>8</sat>
      </trkpt>
      <trkpt lat="42.537758" lon="-2.314713">
        <ele>500.6</ele>
        <time>2019-08-19T08:40:05Z</time>
        <sat>8</sat>
      </trkpt>
      <trkpt lat="42.537630" lon="-2.314707">
        <ele>500.2</ele>
        <time>2019-08-19T08:40:14Z</time>
        <sat>8</sat>
      </trkpt>
      <trkpt lat="42.537544" lon="-2.314737">
        <ele>500.1</ele>
        <time>2019-08-19T08:40:20Z</time>
        <sat>8</sat>
      </trkpt>
      <trkpt lat="42.537489" lon="-2.314793">
        <ele>500.0</ele>
        <time>2019-08-19T08:40:25Z</time>
        <sat>8</sat>
      </trkpt>
      <trkpt lat="42.537455" lon="-2.314846">
        <ele>499.9</ele>
        <time>2019-08-19T08:40:29Z</time>
        <sat>8</sat>
      </trkpt>
      <trkpt lat="42.537414" lon="-2.314969">
        <ele>499.4</ele>
        <time>2019-08-19T08:40:37Z</time>
        <sat>8</sat>
      </trkpt>
      <trkpt lat="42.537361" lon="-2.315081">
        <ele>498.9</ele>
        <time>2019-08-19T08:40:44Z</time>
        <sat>9</sat>
      </trkpt>
      <trkpt lat="42.537326" lon="-2.315216">
        <ele>498.8</ele>
        <time>2019-08-19T08:40:52Z</time>
        <sat>8</sat>
      </trkpt>
      <trkpt lat="42.537283" lon="-2.315325">
        <ele>498.7</ele>
        <time>2019-08-19T08:40:58Z</time>
        <sat>8</sat>
      </trkpt>
      <trkpt lat="42.537238" lon="-2.315521">
        <ele>498.4</ele>
        <time>2019-08-19T08:41:09Z</time>
        <sat>9</sat>
      </trkpt>
      <trkpt lat="42.537233" lon="-2.315588">
        <ele>498.3</ele>
        <time>2019-08-19T08:41:13Z</time>
        <sat>9</sat>
      </trkpt>
      <trkpt lat="42.537210" lon="-2.315781">
        <ele>497.6</ele>
        <time>2019-08-19T08:41:26Z</time>
        <sat>9</sat>
      </trkpt>
      <trkpt lat="42.537211" lon="-2.315838">
        <ele>497.3</ele>
        <time>2019-08-19T08:41:30Z</time>
        <sat>9</sat>
      </trkpt>
      <trkpt lat="42.537191" lon="-2.315912">
        <ele>497.1</ele>
        <time>2019-08-19T08:41:34Z</time>
        <sat>8</sat>
      </trkpt>
      <trkpt lat="42.537185" lon="-2.315975">
        <ele>496.8</ele>
        <time>2019-08-19T08:41:38Z</time>
        <sat>7</sat>
      </trkpt>
      <trkpt lat="42.537166" lon="-2.316072">
        <ele>496.4</ele>
        <time>2019-08-19T08:41:45Z</time>
        <sat>8</sat>
      </trkpt>
      <trkpt lat="42.537168" lon="-2.316123">
        <ele>496.2</ele>
        <time>2019-08-19T08:41:49Z</time>
        <sat>8</sat>
      </trkpt>
      <trkpt lat="42.537143" lon="-2.316219">
        <ele>495.9</ele>
        <time>2019-08-19T08:41:56Z</time>
        <sat>8</sat>
      </trkpt>
      <trkpt lat="42.537142" lon="-2.316272">
        <ele>495.8</ele>
        <time>2019-08-19T08:41:59Z</time>
        <sat>8</sat>
      </trkpt>
      <trkpt lat="42.537122" lon="-2.316378">
        <ele>495.4</ele>
        <time>2019-08-19T08:42:08Z</time>
        <sat>8</sat>
      </trkpt>
      <trkpt lat="42.537099" lon="-2.316451">
        <ele>495.2</ele>
        <time>2019-08-19T08:42:13Z</time>
        <sat>8</sat>
      </trkpt>
      <trkpt lat="42.537042" lon="-2.316586">
        <ele>494.8</ele>
        <time>2019-08-19T08:42:22Z</time>
        <sat>8</sat>
      </trkpt>
      <trkpt lat="42.536945" lon="-2.316760">
        <ele>494.4</ele>
        <time>2019-08-19T08:42:34Z</time>
        <sat>8</sat>
      </trkpt>
      <trkpt lat="42.536883" lon="-2.316852">
        <ele>494.3</ele>
        <time>2019-08-19T08:42:40Z</time>
        <sat>8</sat>
      </trkpt>
      <trkpt lat="42.536859" lon="-2.316905">
        <ele>494.3</ele>
        <time>2019-08-19T08:42:44Z</time>
        <sat>8</sat>
      </trkpt>
      <trkpt lat="42.536810" lon="-2.316969">
        <ele>494.4</ele>
        <time>2019-08-19T08:42:49Z</time>
        <sat>8</sat>
      </trkpt>
      <trkpt lat="42.536794" lon="-2.317009">
        <ele>494.5</ele>
        <time>2019-08-19T08:42:52Z</time>
        <sat>8</sat>
      </trkpt>
      <trkpt lat="42.536725" lon="-2.317102">
        <ele>494.9</ele>
        <time>2019-08-19T08:43:00Z</time>
        <sat>7</sat>
      </trkpt>
      <trkpt lat="42.536660" lon="-2.317156">
        <ele>495.2</ele>
        <time>2019-08-19T08:43:06Z</time>
        <sat>8</sat>
      </trkpt>
      <trkpt lat="42.536599" lon="-2.317238">
        <ele>495.8</ele>
        <time>2019-08-19T08:43:13Z</time>
        <sat>9</sat>
      </trkpt>
      <trkpt lat="42.536501" lon="-2.317386">
        <ele>496.1</ele>
        <time>2019-08-19T08:43:25Z</time>
        <sat>8</sat>
      </trkpt>
      <trkpt lat="42.536471" lon="-2.317435">
        <ele>496.3</ele>
        <time>2019-08-19T08:43:29Z</time>
        <sat>8</sat>
      </trkpt>
      <trkpt lat="42.536423" lon="-2.317497">
        <ele>496.5</ele>
        <time>2019-08-19T08:43:34Z</time>
        <sat>8</sat>
      </trkpt>
      <trkpt lat="42.536416" lon="-2.317539">
        <ele>496.5</ele>
        <time>2019-08-19T08:43:37Z</time>
        <sat>9</sat>
      </trkpt>
      <trkpt lat="42.536290" lon="-2.317689">
        <ele>496.4</ele>
        <time>2019-08-19T08:43:53Z</time>
        <sat>8</sat>
      </trkpt>
      <trkpt lat="42.536234" lon="-2.317819">
        <ele>495.7</ele>
        <time>2019-08-19T08:44:02Z</time>
        <sat>9</sat>
      </trkpt>
      <trkpt lat="42.536212" lon="-2.317899">
        <ele>495.1</ele>
        <time>2019-08-19T08:44:07Z</time>
        <sat>8</sat>
      </trkpt>
      <trkpt lat="42.536175" lon="-2.318068">
        <ele>493.5</ele>
        <time>2019-08-19T08:44:21Z</time>
        <sat>8</sat>
      </trkpt>
      <trkpt lat="42.536118" lon="-2.318235">
        <ele>492.4</ele>
        <time>2019-08-19T08:44:32Z</time>
        <sat>8</sat>
      </trkpt>
      <trkpt lat="42.536099" lon="-2.318272">
        <ele>492.1</ele>
        <time>2019-08-19T08:44:35Z</time>
        <sat>8</sat>
      </trkpt>
      <trkpt lat="42.536036" lon="-2.318372">
        <ele>490.9</ele>
        <time>2019-08-19T08:44:43Z</time>
        <sat>8</sat>
      </trkpt>
      <trkpt lat="42.535917" lon="-2.318514">
        <ele>488.9</ele>
        <time>2019-08-19T08:44:55Z</time>
        <sat>8</sat>
      </trkpt>
      <trkpt lat="42.535788" lon="-2.318649">
        <ele>486.3</ele>
        <time>2019-08-19T08:45:09Z</time>
        <sat>8</sat>
      </trkpt>
      <trkpt lat="42.535665" lon="-2.318747">
        <ele>484.2</ele>
        <time>2019-08-19T08:45:21Z</time>
        <sat>8</sat>
      </trkpt>
      <trkpt lat="42.535603" lon="-2.318792">
        <ele>482.9</ele>
        <time>2019-08-19T08:45:27Z</time>
        <sat>8</sat>
      </trkpt>
      <trkpt lat="42.535489" lon="-2.318848">
        <ele>481.1</ele>
        <time>2019-08-19T08:45:37Z</time>
        <sat>8</sat>
      </trkpt>
      <trkpt lat="42.535354" lon="-2.318889">
        <ele>479.2</ele>
        <time>2019-08-19T08:45:49Z</time>
        <sat>9</sat>
      </trkpt>
      <trkpt lat="42.535265" lon="-2.318903">
        <ele>478.2</ele>
        <time>2019-08-19T08:45:56Z</time>
        <sat>9</sat>
      </trkpt>
      <trkpt lat="42.535186" lon="-2.318928">
        <ele>477.9</ele>
        <time>2019-08-19T08:46:01Z</time>
        <sat>9</sat>
      </trkpt>
      <trkpt lat="42.535157" lon="-2.318942">
        <ele>477.8</ele>
        <time>2019-08-19T08:46:03Z</time>
        <sat>9</sat>
      </trkpt>
      <trkpt lat="42.535023" lon="-2.318965">
        <ele>477.5</ele>
        <time>2019-08-19T08:46:13Z</time>
        <sat>8</sat>
      </trkpt>
      <trkpt lat="42.534960" lon="-2.318979">
        <ele>477.7</ele>
        <time>2019-08-19T08:46:19Z</time>
        <sat>7</sat>
      </trkpt>
      <trkpt lat="42.534828" lon="-2.319091">
        <ele>478.4</ele>
        <time>2019-08-19T08:46:31Z</time>
        <sat>7</sat>
      </trkpt>
      <trkpt lat="42.534799" lon="-2.319128">
        <ele>478.6</ele>
        <time>2019-08-19T08:46:34Z</time>
        <sat>8</sat>
      </trkpt>
      <trkpt lat="42.534739" lon="-2.319169">
        <ele>479.1</ele>
        <time>2019-08-19T08:46:40Z</time>
        <sat>7</sat>
      </trkpt>
      <trkpt lat="42.534693" lon="-2.319210">
        <ele>479.2</ele>
        <time>2019-08-19T08:46:44Z</time>
        <sat>7</sat>
      </trkpt>
      <trkpt lat="42.534564" lon="-2.319302">
        <ele>479.5</ele>
        <time>2019-08-19T08:46:55Z</time>
        <sat>7</sat>
      </trkpt>
      <trkpt lat="42.534486" lon="-2.319354">
        <ele>479.7</ele>
        <time>2019-08-19T08:47:02Z</time>
        <sat>7</sat>
      </trkpt>
      <trkpt lat="42.534406" lon="-2.319421">
        <ele>479.6</ele>
        <time>2019-08-19T08:47:09Z</time>
        <sat>7</sat>
      </trkpt>
      <trkpt lat="42.534344" lon="-2.319462">
        <ele>479.4</ele>
        <time>2019-08-19T08:47:14Z</time>
        <sat>7</sat>
      </trkpt>
      <trkpt lat="42.534270" lon="-2.319529">
        <ele>479.1</ele>
        <time>2019-08-19T08:47:21Z</time>
        <sat>7</sat>
      </trkpt>
      <trkpt lat="42.534198" lon="-2.319573">
        <ele>478.5</ele>
        <time>2019-08-19T08:47:27Z</time>
        <sat>7</sat>
      </trkpt>
      <trkpt lat="42.534110" lon="-2.319663">
        <ele>478.8</ele>
        <time>2019-08-19T08:47:33Z</time>
        <sat>7</sat>
      </trkpt>
      <trkpt lat="42.534074" lon="-2.319690">
        <ele>478.7</ele>
        <time>2019-08-19T08:47:36Z</time>
        <sat>7</sat>
      </trkpt>
      <trkpt lat="42.533922" lon="-2.319829">
        <ele>477.5</ele>
        <time>2019-08-19T08:47:51Z</time>
        <sat>7</sat>
      </trkpt>
      <trkpt lat="42.533822" lon="-2.319971">
        <ele>477.5</ele>
        <time>2019-08-19T08:48:04Z</time>
        <sat>7</sat>
      </trkpt>
      <trkpt lat="42.533747" lon="-2.320055">
        <ele>477.6</ele>
        <time>2019-08-19T08:48:11Z</time>
        <sat>7</sat>
      </trkpt>
      <trkpt lat="42.533675" lon="-2.320168">
        <ele>477.5</ele>
        <time>2019-08-19T08:48:18Z</time>
        <sat>6</sat>
      </trkpt>
      <trkpt lat="42.533601" lon="-2.320297">
        <ele>477.3</ele>
        <time>2019-08-19T08:48:27Z</time>
        <sat>7</sat>
      </trkpt>
      <trkpt lat="42.533577" lon="-2.320350">
        <ele>477.3</ele>
        <time>2019-08-19T08:48:31Z</time>
        <sat>7</sat>
      </trkpt>
      <trkpt lat="42.533532" lon="-2.320407">
        <ele>477.2</ele>
        <time>2019-08-19T08:48:36Z</time>
        <sat>7</sat>
      </trkpt>
      <trkpt lat="42.533513" lon="-2.320441">
        <ele>476.2</ele>
        <time>2019-08-19T08:48:39Z</time>
        <sat>7</sat>
      </trkpt>
      <trkpt lat="42.533461" lon="-2.320508">
        <ele>476.8</ele>
        <time>2019-08-19T08:48:48Z</time>
        <sat>7</sat>
      </trkpt>
      <trkpt lat="42.533387" lon="-2.320577">
        <ele>476.2</ele>
        <time>2019-08-19T08:48:56Z</time>
        <sat>7</sat>
      </trkpt>
      <trkpt lat="42.533314" lon="-2.320665">
        <ele>476.2</ele>
        <time>2019-08-19T08:49:03Z</time>
        <sat>7</sat>
      </trkpt>
      <trkpt lat="42.533258" lon="-2.320706">
        <ele>475.6</ele>
        <time>2019-08-19T08:49:09Z</time>
        <sat>7</sat>
      </trkpt>
      <trkpt lat="42.533148" lon="-2.320827">
        <ele>474.9</ele>
        <time>2019-08-19T08:49:17Z</time>
        <sat>7</sat>
      </trkpt>
      <trkpt lat="42.533078" lon="-2.320908">
        <ele>474.1</ele>
        <time>2019-08-19T08:49:24Z</time>
        <sat>8</sat>
      </trkpt>
      <trkpt lat="42.532945" lon="-2.321025">
        <ele>472.6</ele>
        <time>2019-08-19T08:49:35Z</time>
        <sat>8</sat>
      </trkpt>
      <trkpt lat="42.532865" lon="-2.321075">
        <ele>471.6</ele>
        <time>2019-08-19T08:49:42Z</time>
        <sat>8</sat>
      </trkpt>
      <trkpt lat="42.532817" lon="-2.321131">
        <ele>470.8</ele>
        <time>2019-08-19T08:49:47Z</time>
        <sat>8</sat>
      </trkpt>
      <trkpt lat="42.532777" lon="-2.321212">
        <ele>469.9</ele>
        <time>2019-08-19T08:49:53Z</time>
        <sat>7</sat>
      </trkpt>
      <trkpt lat="42.532664" lon="-2.321346">
        <ele>468.5</ele>
        <time>2019-08-19T08:50:03Z</time>
        <sat>8</sat>
      </trkpt>
      <trkpt lat="42.532523" lon="-2.321514">
        <ele>467.1</ele>
        <time>2019-08-19T08:50:17Z</time>
        <sat>8</sat>
      </trkpt>
      <trkpt lat="42.532425" lon="-2.321632">
        <ele>466.7</ele>
        <time>2019-08-19T08:50:26Z</time>
        <sat>8</sat>
      </trkpt>
      <trkpt lat="42.532294" lon="-2.321765">
        <ele>466.6</ele>
        <time>2019-08-19T08:50:38Z</time>
        <sat>8</sat>
      </trkpt>
      <trkpt lat="42.532155" lon="-2.321883">
        <ele>466.2</ele>
        <time>2019-08-19T08:50:50Z</time>
        <sat>8</sat>
      </trkpt>
      <trkpt lat="42.532127" lon="-2.321903">
        <ele>466.2</ele>
        <time>2019-08-19T08:50:52Z</time>
        <sat>8</sat>
      </trkpt>
      <trkpt lat="42.532054" lon="-2.321974">
        <ele>466.1</ele>
        <time>2019-08-19T08:50:59Z</time>
        <sat>8</sat>
      </trkpt>
      <trkpt lat="42.532001" lon="-2.322080">
        <ele>466.2</ele>
        <time>2019-08-19T08:51:06Z</time>
        <sat>7</sat>
      </trkpt>
      <trkpt lat="42.531992" lon="-2.322107">
        <ele>466.3</ele>
        <time>2019-08-19T08:51:08Z</time>
        <sat>7</sat>
      </trkpt>
      <trkpt lat="42.531970" lon="-2.322240">
        <ele>466.3</ele>
        <time>2019-08-19T08:51:16Z</time>
        <sat>8</sat>
      </trkpt>
      <trkpt lat="42.531934" lon="-2.322264">
        <ele>466.2</ele>
        <time>2019-08-19T08:51:19Z</time>
        <sat>8</sat>
      </trkpt>
      <trkpt lat="42.531856" lon="-2.322268">
        <ele>466.2</ele>
        <time>2019-08-19T08:51:24Z</time>
        <sat>7</sat>
      </trkpt>
      <trkpt lat="42.531680" lon="-2.322304">
        <ele>466.2</ele>
        <time>2019-08-19T08:51:37Z</time>
        <sat>7</sat>
      </trkpt>
      <trkpt lat="42.531599" lon="-2.322336">
        <ele>466.1</ele>
        <time>2019-08-19T08:51:43Z</time>
        <sat>7</sat>
      </trkpt>
      <trkpt lat="42.531555" lon="-2.322367">
        <ele>466.0</ele>
        <time>2019-08-19T08:51:47Z</time>
        <sat>7</sat>
      </trkpt>
      <trkpt lat="42.531428" lon="-2.322410">
        <ele>465.9</ele>
        <time>2019-08-19T08:51:57Z</time>
        <sat>7</sat>
      </trkpt>
      <trkpt lat="42.531358" lon="-2.322428">
        <ele>465.9</ele>
        <time>2019-08-19T08:52:02Z</time>
        <sat>7</sat>
      </trkpt>
      <trkpt lat="42.531244" lon="-2.322480">
        <ele>466.0</ele>
        <time>2019-08-19T08:52:11Z</time>
        <sat>7</sat>
      </trkpt>
      <trkpt lat="42.531139" lon="-2.322526">
        <ele>466.1</ele>
        <time>2019-08-19T08:52:19Z</time>
        <sat>7</sat>
      </trkpt>
      <trkpt lat="42.531004" lon="-2.322570">
        <ele>466.5</ele>
        <time>2019-08-19T08:52:29Z</time>
        <sat>7</sat>
      </trkpt>
      <trkpt lat="42.530933" lon="-2.322577">
        <ele>466.8</ele>
        <time>2019-08-19T08:52:34Z</time>
        <sat>7</sat>
      </trkpt>
      <trkpt lat="42.530751" lon="-2.322607">
        <ele>467.3</ele>
        <time>2019-08-19T08:52:47Z</time>
        <sat>7</sat>
      </trkpt>
      <trkpt lat="42.530639" lon="-2.322656">
        <ele>467.8</ele>
        <time>2019-08-19T08:52:56Z</time>
        <sat>7</sat>
      </trkpt>
      <trkpt lat="42.530529" lon="-2.322759">
        <ele>467.9</ele>
        <time>2019-08-19T08:53:06Z</time>
        <sat>7</sat>
      </trkpt>
      <trkpt lat="42.530392" lon="-2.322844">
        <ele>467.9</ele>
        <time>2019-08-19T08:53:17Z</time>
        <sat>7</sat>
      </trkpt>
      <trkpt lat="42.530317" lon="-2.322859">
        <ele>467.5</ele>
        <time>2019-08-19T08:53:24Z</time>
        <sat>7</sat>
      </trkpt>
      <trkpt lat="42.530268" lon="-2.322886">
        <ele>467.1</ele>
        <time>2019-08-19T08:53:28Z</time>
        <sat>7</sat>
      </trkpt>
      <trkpt lat="42.530106" lon="-2.322924">
        <ele>466.6</ele>
        <time>2019-08-19T08:53:41Z</time>
        <sat>7</sat>
      </trkpt>
      <trkpt lat="42.530038" lon="-2.322930">
        <ele>466.2</ele>
        <time>2019-08-19T08:53:46Z</time>
        <sat>7</sat>
      </trkpt>
      <trkpt lat="42.529976" lon="-2.322946">
        <ele>465.9</ele>
        <time>2019-08-19T08:53:51Z</time>
        <sat>7</sat>
      </trkpt>
      <trkpt lat="42.529796" lon="-2.322969">
        <ele>465.1</ele>
        <time>2019-08-19T08:54:04Z</time>
        <sat>7</sat>
      </trkpt>
      <trkpt lat="42.529752" lon="-2.322968">
        <ele>465.0</ele>
        <time>2019-08-19T08:54:07Z</time>
        <sat>7</sat>
      </trkpt>
      <trkpt lat="42.529570" lon="-2.322980">
        <ele>464.2</ele>
        <time>2019-08-19T08:54:21Z</time>
        <sat>7</sat>
      </trkpt>
      <trkpt lat="42.529509" lon="-2.322991">
        <ele>464.3</ele>
        <time>2019-08-19T08:54:25Z</time>
        <sat>7</sat>
      </trkpt>
      <trkpt lat="42.529456" lon="-2.322983">
        <ele>464.7</ele>
        <time>2019-08-19T08:54:29Z</time>
        <sat>7</sat>
      </trkpt>
      <trkpt lat="42.529397" lon="-2.322983">
        <ele>464.8</ele>
        <time>2019-08-19T08:54:33Z</time>
        <sat>7</sat>
      </trkpt>
      <trkpt lat="42.529331" lon="-2.322993">
        <ele>464.6</ele>
        <time>2019-08-19T08:54:38Z</time>
        <sat>7</sat>
      </trkpt>
      <trkpt lat="42.529290" lon="-2.323014">
        <ele>464.4</ele>
        <time>2019-08-19T08:54:42Z</time>
        <sat>8</sat>
      </trkpt>
      <trkpt lat="42.529170" lon="-2.323096">
        <ele>463.7</ele>
        <time>2019-08-19T08:54:55Z</time>
        <sat>8</sat>
      </trkpt>
      <trkpt lat="42.529136" lon="-2.323120">
        <ele>463.4</ele>
        <time>2019-08-19T08:54:58Z</time>
        <sat>8</sat>
      </trkpt>
      <trkpt lat="42.529109" lon="-2.323176">
        <ele>462.8</ele>
        <time>2019-08-19T08:55:04Z</time>
        <sat>8</sat>
      </trkpt>
      <trkpt lat="42.529048" lon="-2.323227">
        <ele>462.6</ele>
        <time>2019-08-19T08:55:22Z</time>
        <sat>8</sat>
      </trkpt>
      <trkpt lat="42.528944" lon="-2.323312">
        <ele>462.1</ele>
        <time>2019-08-19T08:55:31Z</time>
        <sat>8</sat>
      </trkpt>
      <trkpt lat="42.528907" lon="-2.323333">
        <ele>461.9</ele>
        <time>2019-08-19T08:55:34Z</time>
        <sat>8</sat>
      </trkpt>
      <trkpt lat="42.528855" lon="-2.323378">
        <ele>461.5</ele>
        <time>2019-08-19T08:55:39Z</time>
        <sat>8</sat>
      </trkpt>
      <trkpt lat="42.528819" lon="-2.323400">
        <ele>461.3</ele>
        <time>2019-08-19T08:55:42Z</time>
        <sat>8</sat>
      </trkpt>
      <trkpt lat="42.528742" lon="-2.323447">
        <ele>460.7</ele>
        <time>2019-08-19T08:57:04Z</time>
        <sat>8</sat>
      </trkpt>
      <trkpt lat="42.528692" lon="-2.323476">
        <ele>460.2</ele>
        <time>2019-08-19T08:57:15Z</time>
        <sat>8</sat>
      </trkpt>
      <trkpt lat="42.528649" lon="-2.323483">
        <ele>459.9</ele>
        <time>2019-08-19T08:57:25Z</time>
        <sat>8</sat>
      </trkpt>
      <trkpt lat="42.528597" lon="-2.323514">
        <ele>459.9</ele>
        <time>2019-08-19T08:57:29Z</time>
        <sat>8</sat>
      </trkpt>
      <trkpt lat="42.528528" lon="-2.323579">
        <ele>459.8</ele>
        <time>2019-08-19T08:57:35Z</time>
        <sat>9</sat>
      </trkpt>
      <trkpt lat="42.528403" lon="-2.323661">
        <ele>459.6</ele>
        <time>2019-08-19T08:57:45Z</time>
        <sat>9</sat>
      </trkpt>
      <trkpt lat="42.528327" lon="-2.323728">
        <ele>459.5</ele>
        <time>2019-08-19T08:57:52Z</time>
        <sat>9</sat>
      </trkpt>
      <trkpt lat="42.528282" lon="-2.323758">
        <ele>459.4</ele>
        <time>2019-08-19T08:57:56Z</time>
        <sat>9</sat>
      </trkpt>
      <trkpt lat="42.528135" lon="-2.323882">
        <ele>459.1</ele>
        <time>2019-08-19T08:58:10Z</time>
        <sat>9</sat>
      </trkpt>
      <trkpt lat="42.528112" lon="-2.323897">
        <ele>459.0</ele>
        <time>2019-08-19T08:58:24Z</time>
        <sat>9</sat>
      </trkpt>
      <trkpt lat="42.528012" lon="-2.324009">
        <ele>458.9</ele>
        <time>2019-08-19T08:58:40Z</time>
        <sat>8</sat>
      </trkpt>
      <trkpt lat="42.527957" lon="-2.324084">
        <ele>458.9</ele>
        <time>2019-08-19T08:58:47Z</time>
        <sat>9</sat>
      </trkpt>
      <trkpt lat="42.527858" lon="-2.324206">
        <ele>459.0</ele>
        <time>2019-08-19T08:58:57Z</time>
        <sat>9</sat>
      </trkpt>
      <trkpt lat="42.527806" lon="-2.324288">
        <ele>459.1</ele>
        <time>2019-08-19T08:59:03Z</time>
        <sat>9</sat>
      </trkpt>
      <trkpt lat="42.527766" lon="-2.324335">
        <ele>459.1</ele>
        <time>2019-08-19T08:59:07Z</time>
        <sat>9</sat>
      </trkpt>
      <trkpt lat="42.527651" lon="-2.324505">
        <ele>459.3</ele>
        <time>2019-08-19T08:59:21Z</time>
        <sat>9</sat>
      </trkpt>
      <trkpt lat="42.527607" lon="-2.324567">
        <ele>459.9</ele>
        <time>2019-08-19T08:59:27Z</time>
        <sat>9</sat>
      </trkpt>
      <trkpt lat="42.527512" lon="-2.324725">
        <ele>461.4</ele>
        <time>2019-08-19T08:59:39Z</time>
        <sat>9</sat>
      </trkpt>
      <trkpt lat="42.527466" lon="-2.324776">
        <ele>462.1</ele>
        <time>2019-08-19T08:59:45Z</time>
        <sat>9</sat>
      </trkpt>
      <trkpt lat="42.527362" lon="-2.324864">
        <ele>464.1</ele>
        <time>2019-08-19T08:59:58Z</time>
        <sat>9</sat>
      </trkpt>
      <trkpt lat="42.527333" lon="-2.324876">
        <ele>465.0</ele>
        <time>2019-08-19T09:00:04Z</time>
        <sat>9</sat>
      </trkpt>
      <trkpt lat="42.527298" lon="-2.324905">
        <ele>465.7</ele>
        <time>2019-08-19T09:00:09Z</time>
        <sat>8</sat>
      </trkpt>
      <trkpt lat="42.527246" lon="-2.324936">
        <ele>466.5</ele>
        <time>2019-08-19T09:00:14Z</time>
        <sat>8</sat>
      </trkpt>
      <trkpt lat="42.527208" lon="-2.324982">
        <ele>467.0</ele>
        <time>2019-08-19T09:00:17Z</time>
        <sat>8</sat>
      </trkpt>
      <trkpt lat="42.527185" lon="-2.325051">
        <ele>468.3</ele>
        <time>2019-08-19T09:00:24Z</time>
        <sat>8</sat>
      </trkpt>
      <trkpt lat="42.527130" lon="-2.325130">
        <ele>469.5</ele>
        <time>2019-08-19T09:00:31Z</time>
        <sat>9</sat>
      </trkpt>
      <trkpt lat="42.527075" lon="-2.325229">
        <ele>471.2</ele>
        <time>2019-08-19T09:00:40Z</time>
        <sat>8</sat>
      </trkpt>
      <trkpt lat="42.527034" lon="-2.325283">
        <ele>471.8</ele>
        <time>2019-08-19T09:00:44Z</time>
        <sat>7</sat>
      </trkpt>
      <trkpt lat="42.526936" lon="-2.325392">
        <ele>473.7</ele>
        <time>2019-08-19T09:00:57Z</time>
        <sat>8</sat>
      </trkpt>
      <trkpt lat="42.526786" lon="-2.325542">
        <ele>476.1</ele>
        <time>2019-08-19T09:01:13Z</time>
        <sat>8</sat>
      </trkpt>
      <trkpt lat="42.526715" lon="-2.325586">
        <ele>477.4</ele>
        <time>2019-08-19T09:01:20Z</time>
        <sat>7</sat>
      </trkpt>
      <trkpt lat="42.526603" lon="-2.325721">
        <ele>479.3</ele>
        <time>2019-08-19T09:01:30Z</time>
        <sat>8</sat>
      </trkpt>
      <trkpt lat="42.526537" lon="-2.325846">
        <ele>480.6</ele>
        <time>2019-08-19T09:01:37Z</time>
        <sat>7</sat>
      </trkpt>
      <trkpt lat="42.526493" lon="-2.325901">
        <ele>481.4</ele>
        <time>2019-08-19T09:01:42Z</time>
        <sat>8</sat>
      </trkpt>
      <trkpt lat="42.526310" lon="-2.326080">
        <ele>485.0</ele>
        <time>2019-08-19T09:02:21Z</time>
        <sat>8</sat>
      </trkpt>
      <trkpt lat="42.526298" lon="-2.326131">
        <ele>485.0</ele>
        <time>2019-08-19T09:02:24Z</time>
        <sat>7</sat>
      </trkpt>
      <trkpt lat="42.526271" lon="-2.326207">
        <ele>484.9</ele>
        <time>2019-08-19T09:02:28Z</time>
        <sat>8</sat>
      </trkpt>
      <trkpt lat="42.526234" lon="-2.326411">
        <ele>484.5</ele>
        <time>2019-08-19T09:02:39Z</time>
        <sat>7</sat>
      </trkpt>
      <trkpt lat="42.526207" lon="-2.326489">
        <ele>484.3</ele>
        <time>2019-08-19T09:02:44Z</time>
        <sat>8</sat>
      </trkpt>
      <trkpt lat="42.526198" lon="-2.326560">
        <ele>484.2</ele>
        <time>2019-08-19T09:02:48Z</time>
        <sat>7</sat>
      </trkpt>
      <trkpt lat="42.526166" lon="-2.326670">
        <ele>484.1</ele>
        <time>2019-08-19T09:02:55Z</time>
        <sat>7</sat>
      </trkpt>
      <trkpt lat="42.526160" lon="-2.326720">
        <ele>484.0</ele>
        <time>2019-08-19T09:02:59Z</time>
        <sat>7</sat>
      </trkpt>
      <trkpt lat="42.526127" lon="-2.326826">
        <ele>483.8</ele>
        <time>2019-08-19T09:03:06Z</time>
        <sat>7</sat>
      </trkpt>
      <trkpt lat="42.526119" lon="-2.326876">
        <ele>483.6</ele>
        <time>2019-08-19T09:03:09Z</time>
        <sat>7</sat>
      </trkpt>
      <trkpt lat="42.526116" lon="-2.327073">
        <ele>482.6</ele>
        <time>2019-08-19T09:03:20Z</time>
        <sat>7</sat>
      </trkpt>
      <trkpt lat="42.526137" lon="-2.327285">
        <ele>481.7</ele>
        <time>2019-08-19T09:03:32Z</time>
        <sat>8</sat>
      </trkpt>
      <trkpt lat="42.526190" lon="-2.327487">
        <ele>481.0</ele>
        <time>2019-08-19T09:03:44Z</time>
        <sat>8</sat>
      </trkpt>
      <trkpt lat="42.526220" lon="-2.327579">
        <ele>480.7</ele>
        <time>2019-08-19T09:03:50Z</time>
        <sat>8</sat>
      </trkpt>
      <trkpt lat="42.526213" lon="-2.327639">
        <ele>480.5</ele>
        <time>2019-08-19T09:03:54Z</time>
        <sat>7</sat>
      </trkpt>
      <trkpt lat="42.526167" lon="-2.327684">
        <ele>480.0</ele>
        <time>2019-08-19T09:04:02Z</time>
        <sat>8</sat>
      </trkpt>
      <trkpt lat="42.526130" lon="-2.327745">
        <ele>479.9</ele>
        <time>2019-08-19T09:04:07Z</time>
        <sat>8</sat>
      </trkpt>
      <trkpt lat="42.526159" lon="-2.327859">
        <ele>480.0</ele>
        <time>2019-08-19T09:04:14Z</time>
        <sat>8</sat>
      </trkpt>
      <trkpt lat="42.526232" lon="-2.328027">
        <ele>479.8</ele>
        <time>2019-08-19T09:04:26Z</time>
        <sat>8</sat>
      </trkpt>
      <trkpt lat="42.526249" lon="-2.328088">
        <ele>479.8</ele>
        <time>2019-08-19T09:04:30Z</time>
        <sat>8</sat>
      </trkpt>
      <trkpt lat="42.526248" lon="-2.328190">
        <ele>479.6</ele>
        <time>2019-08-19T09:04:36Z</time>
        <sat>8</sat>
      </trkpt>
      <trkpt lat="42.526219" lon="-2.328264">
        <ele>478.0</ele>
        <time>2019-08-19T09:04:41Z</time>
        <sat>8</sat>
      </trkpt>
      <trkpt lat="42.526136" lon="-2.328382">
        <ele>478.9</ele>
        <time>2019-08-19T09:04:51Z</time>
        <sat>7</sat>
      </trkpt>
      <trkpt lat="42.526083" lon="-2.328494">
        <ele>478.2</ele>
        <time>2019-08-19T09:04:59Z</time>
        <sat>7</sat>
      </trkpt>
      <trkpt lat="42.526076" lon="-2.328524">
        <ele>478.2</ele>
        <time>2019-08-19T09:05:01Z</time>
        <sat>7</sat>
      </trkpt>
      <trkpt lat="42.526018" lon="-2.328680">
        <ele>479.4</ele>
        <time>2019-08-19T09:05:12Z</time>
        <sat>8</sat>
      </trkpt>
      <trkpt lat="42.526007" lon="-2.328734">
        <ele>479.8</ele>
        <time>2019-08-19T09:05:15Z</time>
        <sat>8</sat>
      </trkpt>
      <trkpt lat="42.525993" lon="-2.328858">
        <ele>480.4</ele>
        <time>2019-08-19T09:05:22Z</time>
        <sat>8</sat>
      </trkpt>
      <trkpt lat="42.526015" lon="-2.329107">
        <ele>481.4</ele>
        <time>2019-08-19T09:05:36Z</time>
        <sat>8</sat>
      </trkpt>
      <trkpt lat="42.526046" lon="-2.329349">
        <ele>481.7</ele>
        <time>2019-08-19T09:05:50Z</time>
        <sat>8</sat>
      </trkpt>
      <trkpt lat="42.526041" lon="-2.329580">
        <ele>482.2</ele>
        <time>2019-08-19T09:06:03Z</time>
        <sat>8</sat>
      </trkpt>
      <trkpt lat="42.526015" lon="-2.329685">
        <ele>482.5</ele>
        <time>2019-08-19T09:06:10Z</time>
        <sat>8</sat>
      </trkpt>
      <trkpt lat="42.526007" lon="-2.329748">
        <ele>482.7</ele>
        <time>2019-08-19T09:06:14Z</time>
        <sat>8</sat>
      </trkpt>
      <trkpt lat="42.525937" lon="-2.329957">
        <ele>483.9</ele>
        <time>2019-08-19T09:06:28Z</time>
        <sat>7</sat>
      </trkpt>
      <trkpt lat="42.525883" lon="-2.330136">
        <ele>485.8</ele>
        <time>2019-08-19T09:06:41Z</time>
        <sat>8</sat>
      </trkpt>
      <trkpt lat="42.525844" lon="-2.330224">
        <ele>486.9</ele>
        <time>2019-08-19T09:06:48Z</time>
        <sat>8</sat>
      </trkpt>
      <trkpt lat="42.525821" lon="-2.330261">
        <ele>487.6</ele>
        <time>2019-08-19T09:06:52Z</time>
        <sat>8</sat>
      </trkpt>
      <trkpt lat="42.525734" lon="-2.330306">
        <ele>489.0</ele>
        <time>2019-08-19T09:07:00Z</time>
        <sat>8</sat>
      </trkpt>
      <trkpt lat="42.525657" lon="-2.330312">
        <ele>490.3</ele>
        <time>2019-08-19T09:07:07Z</time>
        <sat>8</sat>
      </trkpt>
      <trkpt lat="42.525606" lon="-2.330305">
        <ele>491.2</ele>
        <time>2019-08-19T09:07:12Z</time>
        <sat>8</sat>
      </trkpt>
      <trkpt lat="42.525569" lon="-2.330336">
        <ele>492.2</ele>
        <time>2019-08-19T09:07:17Z</time>
        <sat>8</sat>
      </trkpt>
      <trkpt lat="42.525456" lon="-2.330438">
        <ele>495.3</ele>
        <time>2019-08-19T09:07:33Z</time>
        <sat>8</sat>
      </trkpt>
      <trkpt lat="42.525407" lon="-2.330459">
        <ele>496.4</ele>
        <time>2019-08-19T09:07:38Z</time>
        <sat>8</sat>
      </trkpt>
      <trkpt lat="42.525350" lon="-2.330506">
        <ele>498.5</ele>
        <time>2019-08-19T09:07:46Z</time>
        <sat>8</sat>
      </trkpt>
      <trkpt lat="42.525308" lon="-2.330553">
        <ele>500.1</ele>
        <time>2019-08-19T09:07:53Z</time>
        <sat>8</sat>
      </trkpt>
      <trkpt lat="42.525234" lon="-2.330606">
        <ele>502.7</ele>
        <time>2019-08-19T09:08:05Z</time>
        <sat>8</sat>
      </trkpt>
      <trkpt lat="42.525154" lon="-2.330637">
        <ele>505.1</ele>
        <time>2019-08-19T09:08:16Z</time>
        <sat>8</sat>
      </trkpt>
      <trkpt lat="42.525090" lon="-2.330729">
        <ele>507.0</ele>
        <time>2019-08-19T09:08:25Z</time>
        <sat>8</sat>
      </trkpt>
      <trkpt lat="42.524816" lon="-2.330856">
        <ele>512.8</ele>
        <time>2019-08-19T09:13:38Z</time>
        <sat>7</sat>
      </trkpt>
      <trkpt lat="42.524689" lon="-2.331020">
        <ele>513.1</ele>
        <time>2019-08-19T09:14:11Z</time>
        <sat>8</sat>
      </trkpt>
      <trkpt lat="42.524652" lon="-2.331211">
        <ele>512.7</ele>
        <time>2019-08-19T09:14:23Z</time>
        <sat>8</sat>
      </trkpt>
      <trkpt lat="42.524628" lon="-2.331283">
        <ele>512.5</ele>
        <time>2019-08-19T09:14:28Z</time>
        <sat>8</sat>
      </trkpt>
      <trkpt lat="42.524571" lon="-2.331435">
        <ele>510.5</ele>
        <time>2019-08-19T09:14:39Z</time>
        <sat>7</sat>
      </trkpt>
      <trkpt lat="42.524558" lon="-2.331563">
        <ele>512.1</ele>
        <time>2019-08-19T09:14:48Z</time>
        <sat>8</sat>
      </trkpt>
      <trkpt lat="42.524530" lon="-2.331662">
        <ele>511.9</ele>
        <time>2019-08-19T09:14:55Z</time>
        <sat>8</sat>
      </trkpt>
      <trkpt lat="42.524531" lon="-2.331735">
        <ele>511.7</ele>
        <time>2019-08-19T09:14:59Z</time>
        <sat>8</sat>
      </trkpt>
      <trkpt lat="42.524491" lon="-2.331885">
        <ele>511.1</ele>
        <time>2019-08-19T09:15:08Z</time>
        <sat>8</sat>
      </trkpt>
      <trkpt lat="42.524473" lon="-2.331958">
        <ele>510.2</ele>
        <time>2019-08-19T09:15:13Z</time>
        <sat>8</sat>
      </trkpt>
      <trkpt lat="42.524429" lon="-2.332153">
        <ele>508.6</ele>
        <time>2019-08-19T09:15:25Z</time>
        <sat>8</sat>
      </trkpt>
      <trkpt lat="42.524391" lon="-2.332366">
        <ele>508.9</ele>
        <time>2019-08-19T09:15:39Z</time>
        <sat>8</sat>
      </trkpt>
      <trkpt lat="42.524387" lon="-2.332425">
        <ele>508.7</ele>
        <time>2019-08-19T09:15:42Z</time>
        <sat>8</sat>
      </trkpt>
      <trkpt lat="42.524353" lon="-2.332547">
        <ele>508.2</ele>
        <time>2019-08-19T09:15:49Z</time>
        <sat>8</sat>
      </trkpt>
      <trkpt lat="42.524327" lon="-2.332699">
        <ele>507.6</ele>
        <time>2019-08-19T09:15:58Z</time>
        <sat>8</sat>
      </trkpt>
      <trkpt lat="42.524307" lon="-2.332766">
        <ele>507.4</ele>
        <time>2019-08-19T09:16:02Z</time>
        <sat>8</sat>
      </trkpt>
      <trkpt lat="42.524299" lon="-2.332825">
        <ele>507.0</ele>
        <time>2019-08-19T09:16:07Z</time>
        <sat>8</sat>
      </trkpt>
      <trkpt lat="42.524278" lon="-2.332895">
        <ele>506.8</ele>
        <time>2019-08-19T09:16:11Z</time>
        <sat>8</sat>
      </trkpt>
      <trkpt lat="42.524258" lon="-2.333017">
        <ele>506.4</ele>
        <time>2019-08-19T09:16:18Z</time>
        <sat>8</sat>
      </trkpt>
      <trkpt lat="42.524227" lon="-2.333184">
        <ele>505.7</ele>
        <time>2019-08-19T09:16:29Z</time>
        <sat>8</sat>
      </trkpt>
      <trkpt lat="42.524214" lon="-2.333236">
        <ele>505.5</ele>
        <time>2019-08-19T09:16:32Z</time>
        <sat>8</sat>
      </trkpt>
      <trkpt lat="42.524200" lon="-2.333345">
        <ele>505.0</ele>
        <time>2019-08-19T09:16:38Z</time>
        <sat>8</sat>
      </trkpt>
      <trkpt lat="42.524165" lon="-2.333527">
        <ele>503.9</ele>
        <time>2019-08-19T09:16:49Z</time>
        <sat>8</sat>
      </trkpt>
      <trkpt lat="42.524153" lon="-2.333629">
        <ele>503.4</ele>
        <time>2019-08-19T09:16:55Z</time>
        <sat>8</sat>
      </trkpt>
      <trkpt lat="42.524119" lon="-2.333805">
        <ele>502.7</ele>
        <time>2019-08-19T09:17:06Z</time>
        <sat>7</sat>
      </trkpt>
      <trkpt lat="42.524059" lon="-2.334024">
        <ele>501.1</ele>
        <time>2019-08-19T09:17:19Z</time>
        <sat>8</sat>
      </trkpt>
      <trkpt lat="42.524031" lon="-2.334145">
        <ele>500.2</ele>
        <time>2019-08-19T09:17:26Z</time>
        <sat>8</sat>
      </trkpt>
      <trkpt lat="42.524013" lon="-2.334333">
        <ele>499.4</ele>
        <time>2019-08-19T09:17:37Z</time>
        <sat>8</sat>
      </trkpt>
      <trkpt lat="42.523992" lon="-2.334429">
        <ele>499.1</ele>
        <time>2019-08-19T09:17:43Z</time>
        <sat>8</sat>
      </trkpt>
      <trkpt lat="42.523960" lon="-2.334522">
        <ele>498.9</ele>
        <time>2019-08-19T09:17:49Z</time>
        <sat>8</sat>
      </trkpt>
      <trkpt lat="42.523949" lon="-2.334594">
        <ele>498.8</ele>
        <time>2019-08-19T09:17:53Z</time>
        <sat>8</sat>
      </trkpt>
      <trkpt lat="42.523893" lon="-2.334787">
        <ele>498.3</ele>
        <time>2019-08-19T09:18:05Z</time>
        <sat>8</sat>
      </trkpt>
      <trkpt lat="42.523839" lon="-2.334942">
        <ele>497.8</ele>
        <time>2019-08-19T09:18:15Z</time>
        <sat>8</sat>
      </trkpt>
      <trkpt lat="42.523789" lon="-2.335104">
        <ele>497.4</ele>
        <time>2019-08-19T09:18:25Z</time>
        <sat>8</sat>
      </trkpt>
      <trkpt lat="42.523754" lon="-2.335209">
        <ele>497.1</ele>
        <time>2019-08-19T09:18:32Z</time>
        <sat>8</sat>
      </trkpt>
      <trkpt lat="42.523732" lon="-2.335298">
        <ele>496.9</ele>
        <time>2019-08-19T09:18:38Z</time>
        <sat>8</sat>
      </trkpt>
      <trkpt lat="42.523685" lon="-2.335452">
        <ele>496.5</ele>
        <time>2019-08-19T09:18:48Z</time>
        <sat>8</sat>
      </trkpt>
      <trkpt lat="42.523654" lon="-2.335532">
        <ele>496.3</ele>
        <time>2019-08-19T09:18:53Z</time>
        <sat>8</sat>
      </trkpt>
      <trkpt lat="42.523620" lon="-2.335651">
        <ele>496.0</ele>
        <time>2019-08-19T09:19:00Z</time>
        <sat>8</sat>
      </trkpt>
      <trkpt lat="42.523584" lon="-2.335742">
        <ele>495.7</ele>
        <time>2019-08-19T09:19:06Z</time>
        <sat>8</sat>
      </trkpt>
      <trkpt lat="42.523564" lon="-2.335824">
        <ele>495.5</ele>
        <time>2019-08-19T09:19:11Z</time>
        <sat>8</sat>
      </trkpt>
      <trkpt lat="42.523532" lon="-2.335913">
        <ele>495.3</ele>
        <time>2019-08-19T09:19:17Z</time>
        <sat>8</sat>
      </trkpt>
      <trkpt lat="42.523501" lon="-2.336035">
        <ele>495.1</ele>
        <time>2019-08-19T09:19:24Z</time>
        <sat>8</sat>
      </trkpt>
      <trkpt lat="42.523418" lon="-2.336252">
        <ele>494.4</ele>
        <time>2019-08-19T09:19:42Z</time>
        <sat>8</sat>
      </trkpt>
      <trkpt lat="42.523374" lon="-2.336329">
        <ele>494.0</ele>
        <time>2019-08-19T09:19:48Z</time>
        <sat>8</sat>
      </trkpt>
      <trkpt lat="42.523356" lon="-2.336391">
        <ele>493.4</ele>
        <time>2019-08-19T09:19:53Z</time>
        <sat>8</sat>
      </trkpt>
      <trkpt lat="42.523271" lon="-2.336610">
        <ele>491.2</ele>
        <time>2019-08-19T09:20:08Z</time>
        <sat>8</sat>
      </trkpt>
      <trkpt lat="42.523257" lon="-2.336637">
        <ele>490.9</ele>
        <time>2019-08-19T09:20:10Z</time>
        <sat>8</sat>
      </trkpt>
      <trkpt lat="42.523182" lon="-2.336834">
        <ele>488.7</ele>
        <time>2019-08-19T09:20:23Z</time>
        <sat>8</sat>
      </trkpt>
      <trkpt lat="42.523138" lon="-2.336918">
        <ele>487.7</ele>
        <time>2019-08-19T09:20:29Z</time>
        <sat>8</sat>
      </trkpt>
      <trkpt lat="42.523076" lon="-2.336994">
        <ele>486.5</ele>
        <time>2019-08-19T09:20:36Z</time>
        <sat>8</sat>
      </trkpt>
      <trkpt lat="42.523001" lon="-2.337056">
        <ele>485.3</ele>
        <time>2019-08-19T09:20:43Z</time>
        <sat>8</sat>
      </trkpt>
      <trkpt lat="42.522942" lon="-2.337072">
        <ele>484.6</ele>
        <time>2019-08-19T09:20:48Z</time>
        <sat>7</sat>
      </trkpt>
      <trkpt lat="42.522852" lon="-2.337133">
        <ele>484.0</ele>
        <time>2019-08-19T09:20:56Z</time>
        <sat>8</sat>
      </trkpt>
      <trkpt lat="42.522825" lon="-2.337184">
        <ele>483.8</ele>
        <time>2019-08-19T09:21:00Z</time>
        <sat>8</sat>
      </trkpt>
      <trkpt lat="42.522786" lon="-2.337294">
        <ele>483.4</ele>
        <time>2019-08-19T09:21:07Z</time>
        <sat>8</sat>
      </trkpt>
      <trkpt lat="42.522770" lon="-2.337362">
        <ele>483.1</ele>
        <time>2019-08-19T09:21:11Z</time>
        <sat>8</sat>
      </trkpt>
      <trkpt lat="42.522712" lon="-2.337536">
        <ele>482.5</ele>
        <time>2019-08-19T09:21:22Z</time>
        <sat>8</sat>
      </trkpt>
      <trkpt lat="42.522662" lon="-2.337766">
        <ele>482.0</ele>
        <time>2019-08-19T09:21:36Z</time>
        <sat>8</sat>
      </trkpt>
      <trkpt lat="42.522645" lon="-2.337804">
        <ele>481.8</ele>
        <time>2019-08-19T09:21:40Z</time>
        <sat>8</sat>
      </trkpt>
      <trkpt lat="42.522644" lon="-2.337837">
        <ele>481.5</ele>
        <time>2019-08-19T09:21:53Z</time>
        <sat>8</sat>
      </trkpt>
      <trkpt lat="42.522590" lon="-2.337923">
        <ele>481.4</ele>
        <time>2019-08-19T09:21:59Z</time>
        <sat>8</sat>
      </trkpt>
      <trkpt lat="42.522560" lon="-2.337989">
        <ele>481.4</ele>
        <time>2019-08-19T09:22:04Z</time>
        <sat>8</sat>
      </trkpt>
      <trkpt lat="42.522506" lon="-2.338069">
        <ele>481.3</ele>
        <time>2019-08-19T09:22:10Z</time>
        <sat>8</sat>
      </trkpt>
      <trkpt lat="42.522479" lon="-2.338141">
        <ele>481.3</ele>
        <time>2019-08-19T09:22:14Z</time>
        <sat>8</sat>
      </trkpt>
      <trkpt lat="42.522418" lon="-2.338274">
        <ele>481.6</ele>
        <time>2019-08-19T09:22:23Z</time>
        <sat>8</sat>
      </trkpt>
      <trkpt lat="42.522380" lon="-2.338364">
        <ele>481.7</ele>
        <time>2019-08-19T09:22:29Z</time>
        <sat>8</sat>
      </trkpt>
      <trkpt lat="42.522279" lon="-2.338571">
        <ele>482.1</ele>
        <time>2019-08-19T09:22:43Z</time>
        <sat>8</sat>
      </trkpt>
      <trkpt lat="42.522249" lon="-2.338624">
        <ele>482.1</ele>
        <time>2019-08-19T09:22:47Z</time>
        <sat>8</sat>
      </trkpt>
      <trkpt lat="42.522188" lon="-2.338755">
        <ele>482.6</ele>
        <time>2019-08-19T09:22:56Z</time>
        <sat>8</sat>
      </trkpt>
      <trkpt lat="42.522153" lon="-2.338820">
        <ele>482.8</ele>
        <time>2019-08-19T09:23:01Z</time>
        <sat>8</sat>
      </trkpt>
      <trkpt lat="42.522126" lon="-2.338888">
        <ele>483.2</ele>
        <time>2019-08-19T09:23:06Z</time>
        <sat>8</sat>
      </trkpt>
      <trkpt lat="42.522015" lon="-2.339088">
        <ele>484.6</ele>
        <time>2019-08-19T09:23:23Z</time>
        <sat>8</sat>
      </trkpt>
      <trkpt lat="42.521984" lon="-2.339166">
        <ele>485.3</ele>
        <time>2019-08-19T09:23:30Z</time>
        <sat>8</sat>
      </trkpt>
      <trkpt lat="42.521982" lon="-2.339229">
        <ele>486.3</ele>
        <time>2019-08-19T09:23:36Z</time>
        <sat>9</sat>
      </trkpt>
      <trkpt lat="42.521896" lon="-2.339355">
        <ele>488.4</ele>
        <time>2019-08-19T09:23:55Z</time>
        <sat>9</sat>
      </trkpt>
      <trkpt lat="42.521849" lon="-2.339430">
        <ele>489.8</ele>
        <time>2019-08-19T09:24:01Z</time>
        <sat>9</sat>
      </trkpt>
      <trkpt lat="42.521826" lon="-2.339485">
        <ele>489.7</ele>
        <time>2019-08-19T09:24:05Z</time>
        <sat>9</sat>
      </trkpt>
      <trkpt lat="42.521750" lon="-2.339578">
        <ele>489.6</ele>
        <time>2019-08-19T09:24:13Z</time>
        <sat>9</sat>
      </trkpt>
      <trkpt lat="42.521681" lon="-2.339684">
        <ele>489.3</ele>
        <time>2019-08-19T09:24:37Z</time>
        <sat>9</sat>
      </trkpt>
      <trkpt lat="42.521574" lon="-2.339821">
        <ele>489.0</ele>
        <time>2019-08-19T09:24:48Z</time>
        <sat>9</sat>
      </trkpt>
      <trkpt lat="42.521540" lon="-2.339876">
        <ele>488.9</ele>
        <time>2019-08-19T09:24:52Z</time>
        <sat>9</sat>
      </trkpt>
      <trkpt lat="42.521476" lon="-2.339950">
        <ele>488.8</ele>
        <time>2019-08-19T09:24:58Z</time>
        <sat>9</sat>
      </trkpt>
      <trkpt lat="42.521415" lon="-2.340042">
        <ele>488.7</ele>
        <time>2019-08-19T09:25:05Z</time>
        <sat>9</sat>
      </trkpt>
      <trkpt lat="42.521362" lon="-2.340102">
        <ele>488.6</ele>
        <time>2019-08-19T09:25:10Z</time>
        <sat>9</sat>
      </trkpt>
      <trkpt lat="42.521281" lon="-2.340221">
        <ele>488.5</ele>
        <time>2019-08-19T09:25:19Z</time>
        <sat>9</sat>
      </trkpt>
      <trkpt lat="42.521218" lon="-2.340297">
        <ele>488.5</ele>
        <time>2019-08-19T09:25:26Z</time>
        <sat>9</sat>
      </trkpt>
      <trkpt lat="42.521172" lon="-2.340367">
        <ele>488.6</ele>
        <time>2019-08-19T09:25:31Z</time>
        <sat>9</sat>
      </trkpt>
      <trkpt lat="42.521059" lon="-2.340574">
        <ele>488.5</ele>
        <time>2019-08-19T09:25:45Z</time>
        <sat>9</sat>
      </trkpt>
      <trkpt lat="42.521007" lon="-2.340702">
        <ele>488.3</ele>
        <time>2019-08-19T09:25:53Z</time>
        <sat>9</sat>
      </trkpt>
      <trkpt lat="42.520928" lon="-2.340877">
        <ele>487.9</ele>
        <time>2019-08-19T09:26:04Z</time>
        <sat>9</sat>
      </trkpt>
      <trkpt lat="42.520846" lon="-2.341051">
        <ele>487.5</ele>
        <time>2019-08-19T09:26:16Z</time>
        <sat>9</sat>
      </trkpt>
      <trkpt lat="42.520818" lon="-2.341136">
        <ele>487.4</ele>
        <time>2019-08-19T09:26:22Z</time>
        <sat>9</sat>
      </trkpt>
      <trkpt lat="42.520781" lon="-2.341218">
        <ele>487.3</ele>
        <time>2019-08-19T09:26:27Z</time>
        <sat>8</sat>
      </trkpt>
      <trkpt lat="42.520743" lon="-2.341331">
        <ele>487.0</ele>
        <time>2019-08-19T09:26:34Z</time>
        <sat>9</sat>
      </trkpt>
      <trkpt lat="42.520704" lon="-2.341415">
        <ele>486.8</ele>
        <time>2019-08-19T09:26:40Z</time>
        <sat>8</sat>
      </trkpt>
      <trkpt lat="42.520630" lon="-2.341609">
        <ele>486.0</ele>
        <time>2019-08-19T09:26:53Z</time>
        <sat>8</sat>
      </trkpt>
      <trkpt lat="42.520610" lon="-2.341691">
        <ele>485.7</ele>
        <time>2019-08-19T09:26:58Z</time>
        <sat>9</sat>
      </trkpt>
      <trkpt lat="42.520553" lon="-2.341811">
        <ele>485.4</ele>
        <time>2019-08-19T09:27:06Z</time>
        <sat>9</sat>
      </trkpt>
      <trkpt lat="42.520495" lon="-2.341944">
        <ele>485.1</ele>
        <time>2019-08-19T09:27:15Z</time>
        <sat>8</sat>
      </trkpt>
      <trkpt lat="42.520461" lon="-2.342041">
        <ele>485.0</ele>
        <time>2019-08-19T09:27:21Z</time>
        <sat>8</sat>
      </trkpt>
      <trkpt lat="42.520404" lon="-2.342168">
        <ele>484.9</ele>
        <time>2019-08-19T09:27:29Z</time>
        <sat>8</sat>
      </trkpt>
      <trkpt lat="42.520369" lon="-2.342264">
        <ele>484.6</ele>
        <time>2019-08-19T09:27:35Z</time>
        <sat>9</sat>
      </trkpt>
      <trkpt lat="42.520338" lon="-2.342323">
        <ele>484.4</ele>
        <time>2019-08-19T09:27:39Z</time>
        <sat>9</sat>
      </trkpt>
      <trkpt lat="42.520251" lon="-2.342530">
        <ele>484.2</ele>
        <time>2019-08-19T09:27:52Z</time>
        <sat>8</sat>
      </trkpt>
      <trkpt lat="42.520217" lon="-2.342630">
        <ele>484.2</ele>
        <time>2019-08-19T09:27:58Z</time>
        <sat>8</sat>
      </trkpt>
      <trkpt lat="42.520129" lon="-2.342846">
        <ele>483.8</ele>
        <time>2019-08-19T09:28:12Z</time>
        <sat>8</sat>
      </trkpt>
      <trkpt lat="42.520085" lon="-2.342938">
        <ele>483.8</ele>
        <time>2019-08-19T09:28:18Z</time>
        <sat>8</sat>
      </trkpt>
      <trkpt lat="42.520060" lon="-2.343017">
        <ele>483.8</ele>
        <time>2019-08-19T09:28:23Z</time>
        <sat>8</sat>
      </trkpt>
      <trkpt lat="42.519979" lon="-2.343207">
        <ele>483.8</ele>
        <time>2019-08-19T09:28:37Z</time>
        <sat>8</sat>
      </trkpt>
      <trkpt lat="42.519987" lon="-2.343183">
        <ele>483.8</ele>
        <time>2019-08-19T09:28:43Z</time>
        <sat>8</sat>
      </trkpt>
      <trkpt lat="42.519969" lon="-2.343253">
        <ele>483.9</ele>
        <time>2019-08-19T09:29:03Z</time>
        <sat>8</sat>
      </trkpt>
      <trkpt lat="42.519877" lon="-2.343449">
        <ele>483.5</ele>
        <time>2019-08-19T09:29:22Z</time>
        <sat>8</sat>
      </trkpt>
      <trkpt lat="42.519843" lon="-2.343547">
        <ele>483.5</ele>
        <time>2019-08-19T09:29:28Z</time>
        <sat>8</sat>
      </trkpt>
      <trkpt lat="42.519813" lon="-2.343611">
        <ele>483.5</ele>
        <time>2019-08-19T09:29:32Z</time>
        <sat>8</sat>
      </trkpt>
      <trkpt lat="42.519774" lon="-2.343725">
        <ele>483.3</ele>
        <time>2019-08-19T09:29:39Z</time>
        <sat>8</sat>
      </trkpt>
      <trkpt lat="42.519715" lon="-2.343887">
        <ele>482.5</ele>
        <time>2019-08-19T09:29:49Z</time>
        <sat>9</sat>
      </trkpt>
      <trkpt lat="42.519654" lon="-2.344116">
        <ele>482.1</ele>
        <time>2019-08-19T09:30:02Z</time>
        <sat>9</sat>
      </trkpt>
      <trkpt lat="42.519640" lon="-2.344204">
        <ele>482.1</ele>
        <time>2019-08-19T09:30:07Z</time>
        <sat>9</sat>
      </trkpt>
      <trkpt lat="42.519594" lon="-2.344358">
        <ele>481.9</ele>
        <time>2019-08-19T09:30:16Z</time>
        <sat>9</sat>
      </trkpt>
      <trkpt lat="42.519571" lon="-2.344481">
        <ele>481.5</ele>
        <time>2019-08-19T09:30:23Z</time>
        <sat>9</sat>
      </trkpt>
      <trkpt lat="42.519542" lon="-2.344583">
        <ele>481.2</ele>
        <time>2019-08-19T09:30:29Z</time>
        <sat>9</sat>
      </trkpt>
      <trkpt lat="42.519519" lon="-2.344708">
        <ele>480.9</ele>
        <time>2019-08-19T09:30:36Z</time>
        <sat>9</sat>
      </trkpt>
      <trkpt lat="42.519459" lon="-2.344945">
        <ele>480.4</ele>
        <time>2019-08-19T09:30:51Z</time>
        <sat>9</sat>
      </trkpt>
      <trkpt lat="42.519439" lon="-2.345071">
        <ele>480.1</ele>
        <time>2019-08-19T09:30:58Z</time>
        <sat>9</sat>
      </trkpt>
      <trkpt lat="42.519377" lon="-2.345316">
        <ele>479.5</ele>
        <time>2019-08-19T09:31:13Z</time>
        <sat>9</sat>
      </trkpt>
      <trkpt lat="42.519361" lon="-2.345363">
        <ele>478.6</ele>
        <time>2019-08-19T09:31:16Z</time>
        <sat>9</sat>
      </trkpt>
      <trkpt lat="42.519345" lon="-2.345497">
        <ele>478.7</ele>
        <time>2019-08-19T09:31:24Z</time>
        <sat>9</sat>
      </trkpt>
      <trkpt lat="42.519335" lon="-2.345529">
        <ele>478.3</ele>
        <time>2019-08-19T09:31:26Z</time>
        <sat>9</sat>
      </trkpt>
      <trkpt lat="42.519322" lon="-2.345603">
        <ele>476.1</ele>
        <time>2019-08-19T09:31:30Z</time>
        <sat>8</sat>
      </trkpt>
      <trkpt lat="42.519257" lon="-2.345852">
        <ele>478.1</ele>
        <time>2019-08-19T09:31:44Z</time>
        <sat>9</sat>
      </trkpt>
      <trkpt lat="42.519245" lon="-2.345921">
        <ele>478.1</ele>
        <time>2019-08-19T09:31:48Z</time>
        <sat>9</sat>
      </trkpt>
      <trkpt lat="42.519228" lon="-2.345986">
        <ele>478.0</ele>
        <time>2019-08-19T09:31:52Z</time>
        <sat>9</sat>
      </trkpt>
      <trkpt lat="42.519212" lon="-2.346096">
        <ele>477.9</ele>
        <time>2019-08-19T09:31:58Z</time>
        <sat>9</sat>
      </trkpt>
      <trkpt lat="42.519182" lon="-2.346215">
        <ele>477.8</ele>
        <time>2019-08-19T09:32:05Z</time>
        <sat>9</sat>
      </trkpt>
      <trkpt lat="42.519138" lon="-2.346409">
        <ele>477.7</ele>
        <time>2019-08-19T09:32:16Z</time>
        <sat>9</sat>
      </trkpt>
      <trkpt lat="42.519119" lon="-2.346514">
        <ele>477.6</ele>
        <time>2019-08-19T09:32:22Z</time>
        <sat>9</sat>
      </trkpt>
      <trkpt lat="42.519085" lon="-2.346645">
        <ele>477.3</ele>
        <time>2019-08-19T09:32:30Z</time>
        <sat>9</sat>
      </trkpt>
      <trkpt lat="42.519069" lon="-2.346727">
        <ele>477.2</ele>
        <time>2019-08-19T09:32:35Z</time>
        <sat>9</sat>
      </trkpt>
      <trkpt lat="42.519052" lon="-2.346776">
        <ele>477.1</ele>
        <time>2019-08-19T09:32:38Z</time>
        <sat>9</sat>
      </trkpt>
      <trkpt lat="42.519036" lon="-2.346861">
        <ele>476.9</ele>
        <time>2019-08-19T09:32:43Z</time>
        <sat>9</sat>
      </trkpt>
      <trkpt lat="42.519004" lon="-2.346973">
        <ele>476.7</ele>
        <time>2019-08-19T09:32:50Z</time>
        <sat>9</sat>
      </trkpt>
      <trkpt lat="42.518969" lon="-2.347146">
        <ele>476.3</ele>
        <time>2019-08-19T09:33:00Z</time>
        <sat>8</sat>
      </trkpt>
      <trkpt lat="42.518942" lon="-2.347295">
        <ele>475.8</ele>
        <time>2019-08-19T09:33:09Z</time>
        <sat>8</sat>
      </trkpt>
      <trkpt lat="42.518909" lon="-2.347396">
        <ele>475.6</ele>
        <time>2019-08-19T09:33:15Z</time>
        <sat>8</sat>
      </trkpt>
      <trkpt lat="42.518851" lon="-2.347648">
        <ele>475.1</ele>
        <time>2019-08-19T09:33:29Z</time>
        <sat>9</sat>
      </trkpt>
      <trkpt lat="42.518837" lon="-2.347738">
        <ele>474.9</ele>
        <time>2019-08-19T09:33:34Z</time>
        <sat>9</sat>
      </trkpt>
      <trkpt lat="42.518809" lon="-2.347839">
        <ele>474.8</ele>
        <time>2019-08-19T09:33:40Z</time>
        <sat>9</sat>
      </trkpt>
      <trkpt lat="42.518791" lon="-2.347979">
        <ele>474.6</ele>
        <time>2019-08-19T09:33:48Z</time>
        <sat>9</sat>
      </trkpt>
      <trkpt lat="42.518779" lon="-2.348014">
        <ele>474.6</ele>
        <time>2019-08-19T09:33:50Z</time>
        <sat>9</sat>
      </trkpt>
      <trkpt lat="42.518717" lon="-2.348277">
        <ele>474.1</ele>
        <time>2019-08-19T09:34:05Z</time>
        <sat>9</sat>
      </trkpt>
      <trkpt lat="42.518700" lon="-2.348384">
        <ele>473.7</ele>
        <time>2019-08-19T09:34:11Z</time>
        <sat>9</sat>
      </trkpt>
      <trkpt lat="42.518667" lon="-2.348506">
        <ele>473.5</ele>
        <time>2019-08-19T09:34:18Z</time>
        <sat>9</sat>
      </trkpt>
      <trkpt lat="42.518645" lon="-2.348635">
        <ele>473.2</ele>
        <time>2019-08-19T09:34:25Z</time>
        <sat>8</sat>
      </trkpt>
      <trkpt lat="42.518614" lon="-2.348757">
        <ele>473.0</ele>
        <time>2019-08-19T09:34:32Z</time>
        <sat>8</sat>
      </trkpt>
      <trkpt lat="42.518603" lon="-2.348826">
        <ele>472.8</ele>
        <time>2019-08-19T09:34:36Z</time>
        <sat>8</sat>
      </trkpt>
      <trkpt lat="42.518567" lon="-2.348960">
        <ele>472.6</ele>
        <time>2019-08-19T09:34:44Z</time>
        <sat>8</sat>
      </trkpt>
      <trkpt lat="42.518553" lon="-2.349047">
        <ele>472.6</ele>
        <time>2019-08-19T09:34:49Z</time>
        <sat>9</sat>
      </trkpt>
      <trkpt lat="42.518524" lon="-2.349153">
        <ele>472.4</ele>
        <time>2019-08-19T09:34:55Z</time>
        <sat>9</sat>
      </trkpt>
      <trkpt lat="42.518498" lon="-2.349293">
        <ele>472.4</ele>
        <time>2019-08-19T09:35:03Z</time>
        <sat>9</sat>
      </trkpt>
      <trkpt lat="42.518467" lon="-2.349372">
        <ele>472.5</ele>
        <time>2019-08-19T09:35:08Z</time>
        <sat>9</sat>
      </trkpt>
      <trkpt lat="42.518418" lon="-2.349568">
        <ele>472.5</ele>
        <time>2019-08-19T09:35:19Z</time>
        <sat>9</sat>
      </trkpt>
      <trkpt lat="42.518399" lon="-2.349690">
        <ele>472.5</ele>
        <time>2019-08-19T09:35:26Z</time>
        <sat>9</sat>
      </trkpt>
      <trkpt lat="42.518376" lon="-2.349758">
        <ele>472.3</ele>
        <time>2019-08-19T09:35:30Z</time>
        <sat>8</sat>
      </trkpt>
      <trkpt lat="42.518350" lon="-2.349872">
        <ele>472.2</ele>
        <time>2019-08-19T09:35:37Z</time>
        <sat>9</sat>
      </trkpt>
      <trkpt lat="42.518296" lon="-2.349980">
        <ele>472.1</ele>
        <time>2019-08-19T09:35:44Z</time>
        <sat>9</sat>
      </trkpt>
      <trkpt lat="42.518270" lon="-2.350097">
        <ele>471.9</ele>
        <time>2019-08-19T09:35:51Z</time>
        <sat>9</sat>
      </trkpt>
      <trkpt lat="42.518226" lon="-2.350267">
        <ele>471.7</ele>
        <time>2019-08-19T09:36:01Z</time>
        <sat>9</sat>
      </trkpt>
      <trkpt lat="42.518177" lon="-2.350401">
        <ele>471.6</ele>
        <time>2019-08-19T09:36:09Z</time>
        <sat>8</sat>
      </trkpt>
      <trkpt lat="42.518176" lon="-2.350431">
        <ele>471.5</ele>
        <time>2019-08-19T09:36:11Z</time>
        <sat>8</sat>
      </trkpt>
      <trkpt lat="42.518133" lon="-2.350565">
        <ele>471.2</ele>
        <time>2019-08-19T09:36:56Z</time>
        <sat>9</sat>
      </trkpt>
      <trkpt lat="42.518115" lon="-2.350597">
        <ele>471.2</ele>
        <time>2019-08-19T09:36:58Z</time>
        <sat>9</sat>
      </trkpt>
      <trkpt lat="42.518044" lon="-2.350763">
        <ele>471.2</ele>
        <time>2019-08-19T09:37:09Z</time>
        <sat>8</sat>
      </trkpt>
      <trkpt lat="42.518042" lon="-2.350771">
        <ele>470.3</ele>
        <time>2019-08-19T09:37:37Z</time>
        <sat>9</sat>
      </trkpt>
      <trkpt lat="42.518003" lon="-2.350828">
        <ele>470.2</ele>
        <time>2019-08-19T09:37:42Z</time>
        <sat>8</sat>
      </trkpt>
      <trkpt lat="42.517954" lon="-2.350925">
        <ele>470.2</ele>
        <time>2019-08-19T09:37:48Z</time>
        <sat>9</sat>
      </trkpt>
      <trkpt lat="42.517925" lon="-2.351010">
        <ele>470.1</ele>
        <time>2019-08-19T09:37:53Z</time>
        <sat>8</sat>
      </trkpt>
      <trkpt lat="42.517837" lon="-2.351209">
        <ele>469.8</ele>
        <time>2019-08-19T09:38:07Z</time>
        <sat>9</sat>
      </trkpt>
      <trkpt lat="42.517786" lon="-2.351298">
        <ele>469.5</ele>
        <time>2019-08-19T09:38:13Z</time>
        <sat>8</sat>
      </trkpt>
      <trkpt lat="42.517759" lon="-2.351359">
        <ele>469.4</ele>
        <time>2019-08-19T09:38:17Z</time>
        <sat>9</sat>
      </trkpt>
      <trkpt lat="42.517728" lon="-2.351414">
        <ele>469.3</ele>
        <time>2019-08-19T09:38:21Z</time>
        <sat>9</sat>
      </trkpt>
      <trkpt lat="42.517691" lon="-2.351546">
        <ele>469.3</ele>
        <time>2019-08-19T09:38:29Z</time>
        <sat>9</sat>
      </trkpt>
      <trkpt lat="42.517670" lon="-2.351702">
        <ele>468.9</ele>
        <time>2019-08-19T09:38:38Z</time>
        <sat>9</sat>
      </trkpt>
      <trkpt lat="42.517649" lon="-2.351881">
        <ele>468.4</ele>
        <time>2019-08-19T09:38:48Z</time>
        <sat>9</sat>
      </trkpt>
      <trkpt lat="42.517629" lon="-2.351966">
        <ele>468.2</ele>
        <time>2019-08-19T09:38:53Z</time>
        <sat>9</sat>
      </trkpt>
      <trkpt lat="42.517622" lon="-2.352038">
        <ele>468.1</ele>
        <time>2019-08-19T09:38:57Z</time>
        <sat>9</sat>
      </trkpt>
      <trkpt lat="42.517573" lon="-2.352235">
        <ele>467.9</ele>
        <time>2019-08-19T09:39:10Z</time>
        <sat>9</sat>
      </trkpt>
      <trkpt lat="42.517525" lon="-2.352440">
        <ele>467.9</ele>
        <time>2019-08-19T09:39:22Z</time>
        <sat>9</sat>
      </trkpt>
      <trkpt lat="42.517495" lon="-2.352673">
        <ele>467.0</ele>
        <time>2019-08-19T09:39:36Z</time>
        <sat>8</sat>
      </trkpt>
      <trkpt lat="42.517493" lon="-2.352714">
        <ele>465.8</ele>
        <time>2019-08-19T09:39:39Z</time>
        <sat>9</sat>
      </trkpt>
      <trkpt lat="42.517479" lon="-2.352813">
        <ele>467.6</ele>
        <time>2019-08-19T09:39:45Z</time>
        <sat>8</sat>
      </trkpt>
      <trkpt lat="42.517479" lon="-2.352888">
        <ele>467.7</ele>
        <time>2019-08-19T09:39:50Z</time>
        <sat>8</sat>
      </trkpt>
      <trkpt lat="42.517461" lon="-2.352995">
        <ele>467.6</ele>
        <time>2019-08-19T09:39:57Z</time>
        <sat>8</sat>
      </trkpt>
      <trkpt lat="42.517457" lon="-2.352995">
        <ele>467.2</ele>
        <time>2019-08-19T09:40:11Z</time>
        <sat>9</sat>
      </trkpt>
      <trkpt lat="42.517471" lon="-2.353012">
        <ele>467.2</ele>
        <time>2019-08-19T09:40:13Z</time>
        <sat>9</sat>
      </trkpt>
      <trkpt lat="42.517467" lon="-2.353137">
        <ele>467.0</ele>
        <time>2019-08-19T09:40:20Z</time>
        <sat>9</sat>
      </trkpt>
      <trkpt lat="42.517443" lon="-2.353357">
        <ele>466.7</ele>
        <time>2019-08-19T09:40:32Z</time>
        <sat>9</sat>
      </trkpt>
      <trkpt lat="42.517407" lon="-2.353575">
        <ele>466.5</ele>
        <time>2019-08-19T09:40:45Z</time>
        <sat>9</sat>
      </trkpt>
      <trkpt lat="42.517397" lon="-2.353642">
        <ele>466.5</ele>
        <time>2019-08-19T09:40:49Z</time>
        <sat>9</sat>
      </trkpt>
      <trkpt lat="42.517373" lon="-2.353725">
        <ele>466.4</ele>
        <time>2019-08-19T09:40:54Z</time>
        <sat>9</sat>
      </trkpt>
      <trkpt lat="42.517358" lon="-2.353827">
        <ele>466.3</ele>
        <time>2019-08-19T09:41:00Z</time>
        <sat>9</sat>
      </trkpt>
      <trkpt lat="42.517322" lon="-2.353990">
        <ele>466.2</ele>
        <time>2019-08-19T09:41:09Z</time>
        <sat>9</sat>
      </trkpt>
      <trkpt lat="42.517316" lon="-2.354089">
        <ele>466.1</ele>
        <time>2019-08-19T09:41:15Z</time>
        <sat>9</sat>
      </trkpt>
      <trkpt lat="42.517292" lon="-2.354221">
        <ele>465.5</ele>
        <time>2019-08-19T09:41:23Z</time>
        <sat>9</sat>
      </trkpt>
      <trkpt lat="42.517245" lon="-2.354442">
        <ele>463.6</ele>
        <time>2019-08-19T09:41:38Z</time>
        <sat>9</sat>
      </trkpt>
      <trkpt lat="42.517233" lon="-2.354555">
        <ele>462.2</ele>
        <time>2019-08-19T09:41:45Z</time>
        <sat>9</sat>
      </trkpt>
      <trkpt lat="42.517201" lon="-2.354787">
        <ele>459.3</ele>
        <time>2019-08-19T09:42:00Z</time>
        <sat>9</sat>
      </trkpt>
      <trkpt lat="42.517167" lon="-2.354943">
        <ele>457.4</ele>
        <time>2019-08-19T09:42:10Z</time>
        <sat>9</sat>
      </trkpt>
      <trkpt lat="42.517133" lon="-2.355065">
        <ele>455.8</ele>
        <time>2019-08-19T09:42:18Z</time>
        <sat>8</sat>
      </trkpt>
      <trkpt lat="42.517101" lon="-2.355272">
        <ele>453.3</ele>
        <time>2019-08-19T09:42:31Z</time>
        <sat>9</sat>
      </trkpt>
      <trkpt lat="42.517104" lon="-2.355490">
        <ele>451.3</ele>
        <time>2019-08-19T09:42:43Z</time>
        <sat>9</sat>
      </trkpt>
      <trkpt lat="42.517124" lon="-2.355690">
        <ele>450.5</ele>
        <time>2019-08-19T09:42:54Z</time>
        <sat>9</sat>
      </trkpt>
      <trkpt lat="42.517135" lon="-2.355759">
        <ele>450.2</ele>
        <time>2019-08-19T09:42:58Z</time>
        <sat>9</sat>
      </trkpt>
      <trkpt lat="42.517133" lon="-2.355864">
        <ele>449.0</ele>
        <time>2019-08-19T09:43:04Z</time>
        <sat>9</sat>
      </trkpt>
      <trkpt lat="42.517167" lon="-2.356087">
        <ele>449.5</ele>
        <time>2019-08-19T09:43:17Z</time>
        <sat>8</sat>
      </trkpt>
      <trkpt lat="42.517142" lon="-2.356156">
        <ele>448.9</ele>
        <time>2019-08-19T09:43:22Z</time>
        <sat>9</sat>
      </trkpt>
      <trkpt lat="42.517073" lon="-2.356224">
        <ele>448.0</ele>
        <time>2019-08-19T09:43:31Z</time>
        <sat>9</sat>
      </trkpt>
      <trkpt lat="42.517000" lon="-2.356313">
        <ele>447.2</ele>
        <time>2019-08-19T09:43:39Z</time>
        <sat>9</sat>
      </trkpt>
      <trkpt lat="42.516967" lon="-2.356345">
        <ele>447.3</ele>
        <time>2019-08-19T09:43:42Z</time>
        <sat>9</sat>
      </trkpt>
      <trkpt lat="42.516916" lon="-2.356423">
        <ele>448.2</ele>
        <time>2019-08-19T09:43:51Z</time>
        <sat>9</sat>
      </trkpt>
      <trkpt lat="42.516878" lon="-2.356494">
        <ele>448.5</ele>
        <time>2019-08-19T09:43:56Z</time>
        <sat>8</sat>
      </trkpt>
      <trkpt lat="42.516851" lon="-2.356535">
        <ele>448.7</ele>
        <time>2019-08-19T09:43:59Z</time>
        <sat>8</sat>
      </trkpt>
      <trkpt lat="42.516778" lon="-2.356685">
        <ele>449.3</ele>
        <time>2019-08-19T09:44:09Z</time>
        <sat>8</sat>
      </trkpt>
      <trkpt lat="42.516755" lon="-2.356747">
        <ele>449.5</ele>
        <time>2019-08-19T09:44:13Z</time>
        <sat>9</sat>
      </trkpt>
      <trkpt lat="42.516695" lon="-2.356973">
        <ele>449.4</ele>
        <time>2019-08-19T09:44:27Z</time>
        <sat>9</sat>
      </trkpt>
      <trkpt lat="42.516670" lon="-2.357033">
        <ele>449.1</ele>
        <time>2019-08-19T09:44:31Z</time>
        <sat>9</sat>
      </trkpt>
      <trkpt lat="42.516603" lon="-2.357222">
        <ele>448.6</ele>
        <time>2019-08-19T09:44:43Z</time>
        <sat>8</sat>
      </trkpt>
      <trkpt lat="42.516546" lon="-2.357417">
        <ele>448.2</ele>
        <time>2019-08-19T09:44:56Z</time>
        <sat>8</sat>
      </trkpt>
      <trkpt lat="42.516526" lon="-2.357518">
        <ele>448.2</ele>
        <time>2019-08-19T09:45:02Z</time>
        <sat>9</sat>
      </trkpt>
      <trkpt lat="42.516496" lon="-2.357617">
        <ele>448.0</ele>
        <time>2019-08-19T09:45:08Z</time>
        <sat>9</sat>
      </trkpt>
      <trkpt lat="42.516480" lon="-2.357705">
        <ele>447.9</ele>
        <time>2019-08-19T09:45:13Z</time>
        <sat>9</sat>
      </trkpt>
      <trkpt lat="42.516449" lon="-2.357806">
        <ele>447.8</ele>
        <time>2019-08-19T09:45:19Z</time>
        <sat>9</sat>
      </trkpt>
      <trkpt lat="42.516398" lon="-2.358008">
        <ele>447.6</ele>
        <time>2019-08-19T09:45:31Z</time>
        <sat>9</sat>
      </trkpt>
      <trkpt lat="42.516356" lon="-2.358198">
        <ele>447.5</ele>
        <time>2019-08-19T09:45:42Z</time>
        <sat>9</sat>
      </trkpt>
      <trkpt lat="42.516344" lon="-2.358282">
        <ele>447.4</ele>
        <time>2019-08-19T09:45:47Z</time>
        <sat>9</sat>
      </trkpt>
      <trkpt lat="42.516317" lon="-2.358417">
        <ele>447.2</ele>
        <time>2019-08-19T09:45:56Z</time>
        <sat>9</sat>
      </trkpt>
      <trkpt lat="42.516304" lon="-2.358509">
        <ele>447.1</ele>
        <time>2019-08-19T09:46:02Z</time>
        <sat>9</sat>
      </trkpt>
      <trkpt lat="42.516284" lon="-2.358660">
        <ele>447.2</ele>
        <time>2019-08-19T09:46:11Z</time>
        <sat>9</sat>
      </trkpt>
      <trkpt lat="42.516254" lon="-2.358771">
        <ele>447.2</ele>
        <time>2019-08-19T09:46:18Z</time>
        <sat>9</sat>
      </trkpt>
      <trkpt lat="42.516242" lon="-2.358893">
        <ele>447.0</ele>
        <time>2019-08-19T09:46:31Z</time>
        <sat>9</sat>
      </trkpt>
      <trkpt lat="42.516205" lon="-2.359096">
        <ele>447.2</ele>
        <time>2019-08-19T09:46:46Z</time>
        <sat>8</sat>
      </trkpt>
      <trkpt lat="42.516202" lon="-2.359166">
        <ele>447.3</ele>
        <time>2019-08-19T09:46:50Z</time>
        <sat>8</sat>
      </trkpt>
      <trkpt lat="42.516216" lon="-2.359247">
        <ele>447.0</ele>
        <time>2019-08-19T09:47:00Z</time>
        <sat>7</sat>
      </trkpt>
      <trkpt lat="42.516211" lon="-2.359326">
        <ele>447.7</ele>
        <time>2019-08-19T09:47:06Z</time>
        <sat>9</sat>
      </trkpt>
      <trkpt lat="42.516194" lon="-2.359476">
        <ele>447.8</ele>
        <time>2019-08-19T09:47:18Z</time>
        <sat>9</sat>
      </trkpt>
      <trkpt lat="42.516194" lon="-2.359565">
        <ele>447.9</ele>
        <time>2019-08-19T09:47:26Z</time>
        <sat>9</sat>
      </trkpt>
      <trkpt lat="42.516152" lon="-2.359767">
        <ele>448.3</ele>
        <time>2019-08-19T09:47:39Z</time>
        <sat>8</sat>
      </trkpt>
      <trkpt lat="42.516154" lon="-2.359890">
        <ele>449.1</ele>
        <time>2019-08-19T09:47:46Z</time>
        <sat>8</sat>
      </trkpt>
      <trkpt lat="42.516156" lon="-2.359908">
        <ele>449.2</ele>
        <time>2019-08-19T09:47:47Z</time>
        <sat>8</sat>
      </trkpt>
      <trkpt lat="42.516163" lon="-2.360148">
        <ele>450.0</ele>
        <time>2019-08-19T09:48:00Z</time>
        <sat>8</sat>
      </trkpt>
      <trkpt lat="42.516148" lon="-2.360280">
        <ele>450.2</ele>
        <time>2019-08-19T09:48:07Z</time>
        <sat>8</sat>
      </trkpt>
      <trkpt lat="42.516149" lon="-2.360314">
        <ele>450.2</ele>
        <time>2019-08-19T09:48:09Z</time>
        <sat>8</sat>
      </trkpt>
      <trkpt lat="42.516126" lon="-2.360422">
        <ele>450.4</ele>
        <time>2019-08-19T09:48:15Z</time>
        <sat>9</sat>
      </trkpt>
      <trkpt lat="42.516087" lon="-2.360675">
        <ele>450.4</ele>
        <time>2019-08-19T09:48:29Z</time>
        <sat>9</sat>
      </trkpt>
      <trkpt lat="42.516082" lon="-2.360745">
        <ele>450.4</ele>
        <time>2019-08-19T09:48:33Z</time>
        <sat>8</sat>
      </trkpt>
      <trkpt lat="42.516055" lon="-2.360853">
        <ele>450.4</ele>
        <time>2019-08-19T09:48:39Z</time>
        <sat>9</sat>
      </trkpt>
      <trkpt lat="42.516040" lon="-2.360960">
        <ele>450.4</ele>
        <time>2019-08-19T09:48:45Z</time>
        <sat>9</sat>
      </trkpt>
      <trkpt lat="42.515994" lon="-2.361088">
        <ele>450.6</ele>
        <time>2019-08-19T09:48:53Z</time>
        <sat>9</sat>
      </trkpt>
      <trkpt lat="42.515964" lon="-2.361189">
        <ele>450.7</ele>
        <time>2019-08-19T09:48:59Z</time>
        <sat>9</sat>
      </trkpt>
      <trkpt lat="42.515918" lon="-2.361435">
        <ele>450.9</ele>
        <time>2019-08-19T09:49:13Z</time>
        <sat>9</sat>
      </trkpt>
      <trkpt lat="42.515910" lon="-2.361508">
        <ele>450.8</ele>
        <time>2019-08-19T09:49:17Z</time>
        <sat>9</sat>
      </trkpt>
      <trkpt lat="42.515869" lon="-2.361664">
        <ele>450.6</ele>
        <time>2019-08-19T09:49:26Z</time>
        <sat>9</sat>
      </trkpt>
      <trkpt lat="42.515839" lon="-2.361841">
        <ele>450.3</ele>
        <time>2019-08-19T09:49:36Z</time>
        <sat>9</sat>
      </trkpt>
      <trkpt lat="42.515828" lon="-2.361949">
        <ele>450.2</ele>
        <time>2019-08-19T09:49:42Z</time>
        <sat>9</sat>
      </trkpt>
      <trkpt lat="42.515840" lon="-2.362016">
        <ele>450.1</ele>
        <time>2019-08-19T09:49:46Z</time>
        <sat>8</sat>
      </trkpt>
      <trkpt lat="42.515881" lon="-2.362071">
        <ele>450.1</ele>
        <time>2019-08-19T09:49:50Z</time>
        <sat>9</sat>
      </trkpt>
      <trkpt lat="42.515923" lon="-2.362161">
        <ele>450.3</ele>
        <time>2019-08-19T09:49:56Z</time>
        <sat>9</sat>
      </trkpt>
      <trkpt lat="42.515935" lon="-2.362279">
        <ele>450.5</ele>
        <time>2019-08-19T09:50:03Z</time>
        <sat>8</sat>
      </trkpt>
      <trkpt lat="42.515885" lon="-2.362491">
        <ele>450.5</ele>
        <time>2019-08-19T09:50:16Z</time>
        <sat>9</sat>
      </trkpt>
      <trkpt lat="42.515862" lon="-2.362620">
        <ele>450.5</ele>
        <time>2019-08-19T09:50:23Z</time>
        <sat>9</sat>
      </trkpt>
      <trkpt lat="42.515833" lon="-2.362736">
        <ele>450.1</ele>
        <time>2019-08-19T09:50:30Z</time>
        <sat>8</sat>
      </trkpt>
      <trkpt lat="42.515812" lon="-2.362871">
        <ele>450.3</ele>
        <time>2019-08-19T09:50:38Z</time>
        <sat>9</sat>
      </trkpt>
      <trkpt lat="42.515776" lon="-2.362983">
        <ele>449.5</ele>
        <time>2019-08-19T09:50:45Z</time>
        <sat>8</sat>
      </trkpt>
      <trkpt lat="42.515742" lon="-2.363056">
        <ele>449.9</ele>
        <time>2019-08-19T09:50:53Z</time>
        <sat>9</sat>
      </trkpt>
      <trkpt lat="42.515713" lon="-2.363167">
        <ele>449.3</ele>
        <time>2019-08-19T09:51:01Z</time>
        <sat>8</sat>
      </trkpt>
      <trkpt lat="42.515618" lon="-2.363404">
        <ele>449.3</ele>
        <time>2019-08-19T09:51:15Z</time>
        <sat>9</sat>
      </trkpt>
      <trkpt lat="42.515614" lon="-2.363481">
        <ele>449.7</ele>
        <time>2019-08-19T09:51:19Z</time>
        <sat>9</sat>
      </trkpt>
      <trkpt lat="42.515594" lon="-2.363557">
        <ele>450.1</ele>
        <time>2019-08-19T09:51:23Z</time>
        <sat>8</sat>
      </trkpt>
      <trkpt lat="42.515580" lon="-2.363634">
        <ele>450.5</ele>
        <time>2019-08-19T09:51:27Z</time>
        <sat>8</sat>
      </trkpt>
      <trkpt lat="42.515576" lon="-2.363726">
        <ele>450.8</ele>
        <time>2019-08-19T09:51:32Z</time>
        <sat>8</sat>
      </trkpt>
      <trkpt lat="42.515615" lon="-2.363790">
        <ele>451.2</ele>
        <time>2019-08-19T09:51:38Z</time>
        <sat>9</sat>
      </trkpt>
      <trkpt lat="42.515664" lon="-2.363818">
        <ele>451.9</ele>
        <time>2019-08-19T09:51:44Z</time>
        <sat>9</sat>
      </trkpt>
      <trkpt lat="42.515715" lon="-2.363882">
        <ele>452.3</ele>
        <time>2019-08-19T09:51:49Z</time>
        <sat>9</sat>
      </trkpt>
      <trkpt lat="42.515703" lon="-2.363881">
        <ele>452.4</ele>
        <time>2019-08-19T09:52:04Z</time>
        <sat>9</sat>
      </trkpt>
      <trkpt lat="42.515708" lon="-2.363865">
        <ele>452.4</ele>
        <time>2019-08-19T09:52:14Z</time>
        <sat>8</sat>
      </trkpt>
      <trkpt lat="42.515690" lon="-2.363985">
        <ele>452.4</ele>
        <time>2019-08-19T09:52:20Z</time>
        <sat>9</sat>
      </trkpt>
      <trkpt lat="42.515667" lon="-2.364063">
        <ele>452.3</ele>
        <time>2019-08-19T09:52:24Z</time>
        <sat>9</sat>
      </trkpt>
      <trkpt lat="42.515650" lon="-2.364171">
        <ele>452.1</ele>
        <time>2019-08-19T09:52:30Z</time>
        <sat>9</sat>
      </trkpt>
      <trkpt lat="42.515596" lon="-2.364356">
        <ele>451.9</ele>
        <time>2019-08-19T09:52:41Z</time>
        <sat>9</sat>
      </trkpt>
      <trkpt lat="42.515559" lon="-2.364501">
        <ele>451.6</ele>
        <time>2019-08-19T09:52:49Z</time>
        <sat>9</sat>
      </trkpt>
      <trkpt lat="42.515522" lon="-2.364683">
        <ele>451.2</ele>
        <time>2019-08-19T09:52:59Z</time>
        <sat>9</sat>
      </trkpt>
      <trkpt lat="42.515516" lon="-2.364778">
        <ele>451.1</ele>
        <time>2019-08-19T09:53:04Z</time>
        <sat>9</sat>
      </trkpt>
      <trkpt lat="42.515526" lon="-2.365047">
        <ele>451.0</ele>
        <time>2019-08-19T09:53:18Z</time>
        <sat>9</sat>
      </trkpt>
      <trkpt lat="42.515518" lon="-2.365146">
        <ele>451.1</ele>
        <time>2019-08-19T09:53:23Z</time>
        <sat>8</sat>
      </trkpt>
      <trkpt lat="42.515528" lon="-2.365299">
        <ele>451.1</ele>
        <time>2019-08-19T09:53:31Z</time>
        <sat>8</sat>
      </trkpt>
      <trkpt lat="42.515522" lon="-2.365489">
        <ele>451.1</ele>
        <time>2019-08-19T09:53:41Z</time>
        <sat>9</sat>
      </trkpt>
      <trkpt lat="42.515525" lon="-2.365731">
        <ele>451.3</ele>
        <time>2019-08-19T09:53:55Z</time>
        <sat>8</sat>
      </trkpt>
      <trkpt lat="42.515536" lon="-2.365921">
        <ele>451.6</ele>
        <time>2019-08-19T09:54:14Z</time>
        <sat>9</sat>
      </trkpt>
      <trkpt lat="42.515530" lon="-2.366015">
        <ele>451.8</ele>
        <time>2019-08-19T09:54:19Z</time>
        <sat>7</sat>
      </trkpt>
      <trkpt lat="42.515543" lon="-2.366141">
        <ele>451.9</ele>
        <time>2019-08-19T09:54:26Z</time>
        <sat>9</sat>
      </trkpt>
      <trkpt lat="42.515530" lon="-2.366266">
        <ele>452.2</ele>
        <time>2019-08-19T09:54:33Z</time>
        <sat>9</sat>
      </trkpt>
      <trkpt lat="42.515534" lon="-2.366340">
        <ele>452.3</ele>
        <time>2019-08-19T09:54:37Z</time>
        <sat>8</sat>
      </trkpt>
      <trkpt lat="42.515521" lon="-2.366485">
        <ele>452.5</ele>
        <time>2019-08-19T09:54:45Z</time>
        <sat>9</sat>
      </trkpt>
      <trkpt lat="42.515511" lon="-2.366730">
        <ele>452.5</ele>
        <time>2019-08-19T09:54:58Z</time>
        <sat>8</sat>
      </trkpt>
      <trkpt lat="42.515515" lon="-2.366839">
        <ele>452.5</ele>
        <time>2019-08-19T09:55:04Z</time>
        <sat>8</sat>
      </trkpt>
      <trkpt lat="42.515509" lon="-2.366948">
        <ele>452.6</ele>
        <time>2019-08-19T09:55:10Z</time>
        <sat>9</sat>
      </trkpt>
      <trkpt lat="42.515512" lon="-2.367024">
        <ele>452.8</ele>
        <time>2019-08-19T09:55:16Z</time>
        <sat>9</sat>
      </trkpt>
      <trkpt lat="42.515496" lon="-2.367092">
        <ele>452.9</ele>
        <time>2019-08-19T10:03:21Z</time>
        <sat>7</sat>
      </trkpt>
      <trkpt lat="42.515490" lon="-2.367158">
        <ele>452.8</ele>
        <time>2019-08-19T10:03:25Z</time>
        <sat>7</sat>
      </trkpt>
      <trkpt lat="42.515473" lon="-2.367237">
        <ele>452.7</ele>
        <time>2019-08-19T10:03:32Z</time>
        <sat>7</sat>
      </trkpt>
      <trkpt lat="42.515473" lon="-2.367303">
        <ele>452.6</ele>
        <time>2019-08-19T10:03:36Z</time>
        <sat>7</sat>
      </trkpt>
      <trkpt lat="42.515445" lon="-2.367387">
        <ele>452.1</ele>
        <time>2019-08-19T10:03:42Z</time>
        <sat>6</sat>
      </trkpt>
      <trkpt lat="42.515417" lon="-2.367733">
        <ele>453.0</ele>
        <time>2019-08-19T10:04:03Z</time>
        <sat>6</sat>
      </trkpt>
      <trkpt lat="42.515395" lon="-2.367858">
        <ele>453.1</ele>
        <time>2019-08-19T10:04:10Z</time>
        <sat>9</sat>
      </trkpt>
      <trkpt lat="42.515375" lon="-2.367914">
        <ele>453.2</ele>
        <time>2019-08-19T10:04:13Z</time>
        <sat>7</sat>
      </trkpt>
      <trkpt lat="42.515395" lon="-2.367977">
        <ele>453.2</ele>
        <time>2019-08-19T10:04:19Z</time>
        <sat>6</sat>
      </trkpt>
      <trkpt lat="42.515395" lon="-2.368095">
        <ele>453.3</ele>
        <time>2019-08-19T10:04:28Z</time>
        <sat>9</sat>
      </trkpt>
      <trkpt lat="42.515349" lon="-2.368277">
        <ele>453.2</ele>
        <time>2019-08-19T10:04:39Z</time>
        <sat>6</sat>
      </trkpt>
      <trkpt lat="42.515309" lon="-2.368464">
        <ele>454.1</ele>
        <time>2019-08-19T10:04:55Z</time>
        <sat>8</sat>
      </trkpt>
      <trkpt lat="42.515288" lon="-2.368544">
        <ele>455.6</ele>
        <time>2019-08-19T10:05:01Z</time>
        <sat>8</sat>
      </trkpt>
      <trkpt lat="42.515256" lon="-2.368619">
        <ele>456.7</ele>
        <time>2019-08-19T10:05:08Z</time>
        <sat>9</sat>
      </trkpt>
      <trkpt lat="42.515228" lon="-2.368789">
        <ele>458.2</ele>
        <time>2019-08-19T10:05:20Z</time>
        <sat>8</sat>
      </trkpt>
      <trkpt lat="42.515186" lon="-2.368840">
        <ele>458.6</ele>
        <time>2019-08-19T10:05:25Z</time>
        <sat>8</sat>
      </trkpt>
      <trkpt lat="42.515108" lon="-2.368892">
        <ele>459.3</ele>
        <time>2019-08-19T10:05:31Z</time>
        <sat>8</sat>
      </trkpt>
      <trkpt lat="42.515092" lon="-2.368929">
        <ele>459.5</ele>
        <time>2019-08-19T10:05:34Z</time>
        <sat>8</sat>
      </trkpt>
      <trkpt lat="42.515109" lon="-2.369051">
        <ele>460.8</ele>
        <time>2019-08-19T10:05:45Z</time>
        <sat>8</sat>
      </trkpt>
      <trkpt lat="42.515172" lon="-2.369124">
        <ele>461.9</ele>
        <time>2019-08-19T10:05:54Z</time>
        <sat>9</sat>
      </trkpt>
      <trkpt lat="42.515219" lon="-2.369166">
        <ele>462.5</ele>
        <time>2019-08-19T10:05:59Z</time>
        <sat>8</sat>
      </trkpt>
      <trkpt lat="42.515235" lon="-2.369230">
        <ele>463.1</ele>
        <time>2019-08-19T10:06:03Z</time>
        <sat>8</sat>
      </trkpt>
      <trkpt lat="42.515283" lon="-2.369327">
        <ele>464.1</ele>
        <time>2019-08-19T10:06:10Z</time>
        <sat>8</sat>
      </trkpt>
      <trkpt lat="42.515336" lon="-2.369372">
        <ele>464.9</ele>
        <time>2019-08-19T10:06:15Z</time>
        <sat>7</sat>
      </trkpt>
      <trkpt lat="42.515381" lon="-2.369445">
        <ele>465.8</ele>
        <time>2019-08-19T10:06:21Z</time>
        <sat>8</sat>
      </trkpt>
      <trkpt lat="42.515375" lon="-2.369502">
        <ele>466.6</ele>
        <time>2019-08-19T10:06:25Z</time>
        <sat>8</sat>
      </trkpt>
      <trkpt lat="42.515374" lon="-2.369548">
        <ele>469.0</ele>
        <time>2019-08-19T10:06:47Z</time>
        <sat>8</sat>
      </trkpt>
      <trkpt lat="42.515348" lon="-2.369628">
        <ele>469.3</ele>
        <time>2019-08-19T10:06:52Z</time>
        <sat>8</sat>
      </trkpt>
      <trkpt lat="42.515339" lon="-2.369705">
        <ele>469.6</ele>
        <time>2019-08-19T10:06:58Z</time>
        <sat>9</sat>
      </trkpt>
      <trkpt lat="42.515318" lon="-2.369825">
        <ele>470.4</ele>
        <time>2019-08-19T10:07:11Z</time>
        <sat>7</sat>
      </trkpt>
      <trkpt lat="42.515307" lon="-2.369874">
        <ele>470.6</ele>
        <time>2019-08-19T10:07:14Z</time>
        <sat>8</sat>
      </trkpt>
      <trkpt lat="42.515308" lon="-2.369977">
        <ele>471.2</ele>
        <time>2019-08-19T10:07:20Z</time>
        <sat>8</sat>
      </trkpt>
      <trkpt lat="42.515273" lon="-2.370071">
        <ele>471.6</ele>
        <time>2019-08-19T10:07:25Z</time>
        <sat>8</sat>
      </trkpt>
      <trkpt lat="42.515236" lon="-2.370090">
        <ele>472.6</ele>
        <time>2019-08-19T10:07:33Z</time>
        <sat>8</sat>
      </trkpt>
      <trkpt lat="42.515167" lon="-2.370081">
        <ele>473.1</ele>
        <time>2019-08-19T10:07:39Z</time>
        <sat>9</sat>
      </trkpt>
      <trkpt lat="42.515070" lon="-2.370108">
        <ele>473.7</ele>
        <time>2019-08-19T10:08:03Z</time>
        <sat>9</sat>
      </trkpt>
      <trkpt lat="42.515049" lon="-2.370159">
        <ele>473.8</ele>
        <time>2019-08-19T10:08:22Z</time>
        <sat>9</sat>
      </trkpt>
      <trkpt lat="42.515037" lon="-2.370234">
        <ele>473.9</ele>
        <time>2019-08-19T10:08:53Z</time>
        <sat>9</sat>
      </trkpt>
      <trkpt lat="42.515052" lon="-2.370284">
        <ele>474.0</ele>
        <time>2019-08-19T10:08:58Z</time>
        <sat>9</sat>
      </trkpt>
      <trkpt lat="42.515054" lon="-2.370323">
        <ele>474.2</ele>
        <time>2019-08-19T10:09:03Z</time>
        <sat>8</sat>
      </trkpt>
      <trkpt lat="42.515029" lon="-2.370406">
        <ele>474.3</ele>
        <time>2019-08-19T10:09:09Z</time>
        <sat>8</sat>
      </trkpt>
      <trkpt lat="42.515040" lon="-2.370474">
        <ele>474.3</ele>
        <time>2019-08-19T10:09:13Z</time>
        <sat>8</sat>
      </trkpt>
      <trkpt lat="42.515025" lon="-2.370520">
        <ele>474.4</ele>
        <time>2019-08-19T10:09:15Z</time>
        <sat>8</sat>
      </trkpt>
      <trkpt lat="42.515016" lon="-2.370699">
        <ele>474.6</ele>
        <time>2019-08-19T10:09:25Z</time>
        <sat>8</sat>
      </trkpt>
      <trkpt lat="42.515007" lon="-2.370781">
        <ele>474.8</ele>
        <time>2019-08-19T10:09:30Z</time>
        <sat>7</sat>
      </trkpt>
      <trkpt lat="42.515022" lon="-2.370898">
        <ele>475.4</ele>
        <time>2019-08-19T10:09:51Z</time>
        <sat>9</sat>
      </trkpt>
      <trkpt lat="42.515026" lon="-2.370920">
        <ele>475.6</ele>
        <time>2019-08-19T10:09:57Z</time>
        <sat>8</sat>
      </trkpt>
      <trkpt lat="42.515036" lon="-2.370979">
        <ele>475.7</ele>
        <time>2019-08-19T10:11:33Z</time>
        <sat>8</sat>
      </trkpt>
      <trkpt lat="42.515037" lon="-2.371106">
        <ele>475.7</ele>
        <time>2019-08-19T10:11:40Z</time>
        <sat>7</sat>
      </trkpt>
      <trkpt lat="42.515012" lon="-2.371307">
        <ele>476.1</ele>
        <time>2019-08-19T10:11:51Z</time>
        <sat>7</sat>
      </trkpt>
      <trkpt lat="42.515021" lon="-2.371432">
        <ele>476.1</ele>
        <time>2019-08-19T10:11:58Z</time>
        <sat>8</sat>
      </trkpt>
      <trkpt lat="42.515012" lon="-2.371502">
        <ele>476.0</ele>
        <time>2019-08-19T10:12:02Z</time>
        <sat>9</sat>
      </trkpt>
      <trkpt lat="42.514984" lon="-2.371764">
        <ele>476.3</ele>
        <time>2019-08-19T10:27:33Z</time>
        <sat>10</sat>
      </trkpt>
      <trkpt lat="42.514945" lon="-2.371884">
        <ele>475.8</ele>
        <time>2019-08-19T10:28:33Z</time>
        <sat>10</sat>
      </trkpt>
      <trkpt lat="42.514950" lon="-2.371905">
        <ele>475.4</ele>
        <time>2019-08-19T10:28:43Z</time>
        <sat>7</sat>
      </trkpt>
      <trkpt lat="42.514943" lon="-2.371976">
        <ele>475.3</ele>
        <time>2019-08-19T10:28:51Z</time>
        <sat>8</sat>
      </trkpt>
      <trkpt lat="42.514911" lon="-2.372110">
        <ele>475.2</ele>
        <time>2019-08-19T10:29:01Z</time>
        <sat>8</sat>
      </trkpt>
      <trkpt lat="42.514903" lon="-2.372196">
        <ele>475.1</ele>
        <time>2019-08-19T10:29:09Z</time>
        <sat>9</sat>
      </trkpt>
      <trkpt lat="42.514910" lon="-2.372241">
        <ele>475.1</ele>
        <time>2019-08-19T10:29:13Z</time>
        <sat>8</sat>
      </trkpt>
      <trkpt lat="42.514908" lon="-2.372299">
        <ele>475.1</ele>
        <time>2019-08-19T10:29:19Z</time>
        <sat>9</sat>
      </trkpt>
      <trkpt lat="42.514898" lon="-2.372484">
        <ele>475.2</ele>
        <time>2019-08-19T10:29:30Z</time>
        <sat>9</sat>
      </trkpt>
      <trkpt lat="42.514885" lon="-2.372607">
        <ele>475.2</ele>
        <time>2019-08-19T10:29:37Z</time>
        <sat>9</sat>
      </trkpt>
      <trkpt lat="42.514886" lon="-2.372703">
        <ele>475.3</ele>
        <time>2019-08-19T10:29:42Z</time>
        <sat>9</sat>
      </trkpt>
      <trkpt lat="42.514877" lon="-2.372740">
        <ele>475.4</ele>
        <time>2019-08-19T10:29:46Z</time>
        <sat>9</sat>
      </trkpt>
      <trkpt lat="42.514804" lon="-2.373051">
        <ele>474.9</ele>
        <time>2019-08-19T10:35:25Z</time>
        <sat>9</sat>
      </trkpt>
      <trkpt lat="42.514780" lon="-2.373272">
        <ele>475.4</ele>
        <time>2019-08-19T10:36:41Z</time>
        <sat>9</sat>
      </trkpt>
      <trkpt lat="42.514776" lon="-2.373312">
        <ele>475.4</ele>
        <time>2019-08-19T10:36:44Z</time>
        <sat>9</sat>
      </trkpt>
      <trkpt lat="42.514788" lon="-2.373427">
        <ele>475.5</ele>
        <time>2019-08-19T10:36:51Z</time>
        <sat>10</sat>
      </trkpt>
      <trkpt lat="42.514833" lon="-2.373524">
        <ele>475.7</ele>
        <time>2019-08-19T10:36:58Z</time>
        <sat>7</sat>
      </trkpt>
      <trkpt lat="42.514914" lon="-2.373563">
        <ele>475.7</ele>
        <time>2019-08-19T10:37:04Z</time>
        <sat>9</sat>
      </trkpt>
      <trkpt lat="42.514971" lon="-2.373666">
        <ele>474.5</ele>
        <time>2019-08-19T10:45:51Z</time>
        <sat>11</sat>
      </trkpt>
      <trkpt lat="42.515095" lon="-2.373692">
        <ele>474.3</ele>
        <time>2019-08-19T10:46:01Z</time>
        <sat>12</sat>
      </trkpt>
      <trkpt lat="42.515127" lon="-2.373729">
        <ele>474.1</ele>
        <time>2019-08-19T10:46:04Z</time>
        <sat>12</sat>
      </trkpt>
      <trkpt lat="42.515137" lon="-2.373803">
        <ele>474.0</ele>
        <time>2019-08-19T10:46:08Z</time>
        <sat>12</sat>
      </trkpt>
      <trkpt lat="42.515153" lon="-2.373872">
        <ele>473.7</ele>
        <time>2019-08-19T10:46:12Z</time>
        <sat>12</sat>
      </trkpt>
      <trkpt lat="42.515177" lon="-2.373944">
        <ele>473.5</ele>
        <time>2019-08-19T10:46:16Z</time>
        <sat>12</sat>
      </trkpt>
      <trkpt lat="42.515199" lon="-2.373993">
        <ele>473.4</ele>
        <time>2019-08-19T10:46:19Z</time>
        <sat>12</sat>
      </trkpt>
      <trkpt lat="42.515209" lon="-2.374125">
        <ele>472.9</ele>
        <time>2019-08-19T10:46:28Z</time>
        <sat>11</sat>
      </trkpt>
      <trkpt lat="42.515223" lon="-2.374190">
        <ele>472.1</ele>
        <time>2019-08-19T10:46:34Z</time>
        <sat>11</sat>
      </trkpt>
      <trkpt lat="42.515264" lon="-2.374284">
        <ele>470.2</ele>
        <time>2019-08-19T10:46:59Z</time>
        <sat>10</sat>
      </trkpt>
      <trkpt lat="42.515319" lon="-2.374348">
        <ele>470.2</ele>
        <time>2019-08-19T10:47:06Z</time>
        <sat>10</sat>
      </trkpt>
      <trkpt lat="42.515405" lon="-2.374392">
        <ele>469.5</ele>
        <time>2019-08-19T10:47:13Z</time>
        <sat>11</sat>
      </trkpt>
      <trkpt lat="42.515441" lon="-2.374425">
        <ele>469.0</ele>
        <time>2019-08-19T10:47:17Z</time>
        <sat>10</sat>
      </trkpt>
      <trkpt lat="42.515470" lon="-2.374504">
        <ele>468.1</ele>
        <time>2019-08-19T10:47:22Z</time>
        <sat>12</sat>
      </trkpt>
      <trkpt lat="42.515506" lon="-2.374564">
        <ele>467.3</ele>
        <time>2019-08-19T10:47:27Z</time>
        <sat>11</sat>
      </trkpt>
      <trkpt lat="42.515510" lon="-2.374623">
        <ele>467.0</ele>
        <time>2019-08-19T10:47:30Z</time>
        <sat>12</sat>
      </trkpt>
      <trkpt lat="42.515487" lon="-2.374708">
        <ele>466.7</ele>
        <time>2019-08-19T10:47:35Z</time>
        <sat>11</sat>
      </trkpt>
      <trkpt lat="42.515460" lon="-2.374732">
        <ele>466.4</ele>
        <time>2019-08-19T10:47:38Z</time>
        <sat>8</sat>
      </trkpt>
      <trkpt lat="42.515408" lon="-2.374735">
        <ele>465.5</ele>
        <time>2019-08-19T10:47:44Z</time>
        <sat>11</sat>
      </trkpt>
      <trkpt lat="42.515305" lon="-2.374766">
        <ele>462.8</ele>
        <time>2019-08-19T10:47:53Z</time>
        <sat>10</sat>
      </trkpt>
      <trkpt lat="42.515228" lon="-2.374767">
        <ele>462.6</ele>
        <time>2019-08-19T10:47:59Z</time>
        <sat>10</sat>
      </trkpt>
      <trkpt lat="42.515157" lon="-2.374779">
        <ele>462.5</ele>
        <time>2019-08-19T10:48:04Z</time>
        <sat>9</sat>
      </trkpt>
      <trkpt lat="42.515125" lon="-2.374810">
        <ele>462.2</ele>
        <time>2019-08-19T10:48:07Z</time>
        <sat>10</sat>
      </trkpt>
      <trkpt lat="42.515124" lon="-2.374909">
        <ele>461.3</ele>
        <time>2019-08-19T10:48:13Z</time>
        <sat>11</sat>
      </trkpt>
      <trkpt lat="42.515127" lon="-2.374949">
        <ele>460.9</ele>
        <time>2019-08-19T10:48:15Z</time>
        <sat>11</sat>
      </trkpt>
      <trkpt lat="42.515128" lon="-2.375070">
        <ele>459.8</ele>
        <time>2019-08-19T10:48:22Z</time>
        <sat>10</sat>
      </trkpt>
      <trkpt lat="42.515135" lon="-2.375127">
        <ele>459.4</ele>
        <time>2019-08-19T10:48:25Z</time>
        <sat>11</sat>
      </trkpt>
      <trkpt lat="42.515135" lon="-2.375329">
        <ele>457.4</ele>
        <time>2019-08-19T10:48:37Z</time>
        <sat>10</sat>
      </trkpt>
      <trkpt lat="42.515138" lon="-2.375385">
        <ele>456.9</ele>
        <time>2019-08-19T10:48:40Z</time>
        <sat>10</sat>
      </trkpt>
      <trkpt lat="42.515160" lon="-2.375623">
        <ele>454.4</ele>
        <time>2019-08-19T10:48:54Z</time>
        <sat>8</sat>
      </trkpt>
      <trkpt lat="42.515130" lon="-2.375758">
        <ele>453.2</ele>
        <time>2019-08-19T10:49:01Z</time>
        <sat>8</sat>
      </trkpt>
      <trkpt lat="42.515082" lon="-2.375869">
        <ele>451.8</ele>
        <time>2019-08-19T10:49:10Z</time>
        <sat>9</sat>
      </trkpt>
      <trkpt lat="42.515028" lon="-2.375914">
        <ele>451.2</ele>
        <time>2019-08-19T10:49:15Z</time>
        <sat>9</sat>
      </trkpt>
      <trkpt lat="42.514926" lon="-2.375949">
        <ele>450.0</ele>
        <time>2019-08-19T10:49:24Z</time>
        <sat>10</sat>
      </trkpt>
      <trkpt lat="42.514833" lon="-2.375958">
        <ele>448.9</ele>
        <time>2019-08-19T10:49:33Z</time>
        <sat>10</sat>
      </trkpt>
      <trkpt lat="42.514864" lon="-2.376088">
        <ele>447.9</ele>
        <time>2019-08-19T10:49:41Z</time>
        <sat>10</sat>
      </trkpt>
      <trkpt lat="42.514872" lon="-2.376208">
        <ele>446.7</ele>
        <time>2019-08-19T10:49:48Z</time>
        <sat>10</sat>
      </trkpt>
      <trkpt lat="42.514870" lon="-2.376316">
        <ele>445.7</ele>
        <time>2019-08-19T10:49:54Z</time>
        <sat>11</sat>
      </trkpt>
      <trkpt lat="42.514832" lon="-2.376508">
        <ele>443.9</ele>
        <time>2019-08-19T10:50:06Z</time>
        <sat>11</sat>
      </trkpt>
      <trkpt lat="42.514770" lon="-2.376625">
        <ele>442.8</ele>
        <time>2019-08-19T10:50:14Z</time>
        <sat>11</sat>
      </trkpt>
      <trkpt lat="42.514744" lon="-2.376694">
        <ele>441.9</ele>
        <time>2019-08-19T10:50:18Z</time>
        <sat>11</sat>
      </trkpt>
      <trkpt lat="42.514712" lon="-2.376745">
        <ele>441.1</ele>
        <time>2019-08-19T10:50:22Z</time>
        <sat>12</sat>
      </trkpt>
      <trkpt lat="42.514658" lon="-2.376806">
        <ele>439.9</ele>
        <time>2019-08-19T10:50:29Z</time>
        <sat>11</sat>
      </trkpt>
      <trkpt lat="42.514625" lon="-2.376862">
        <ele>439.4</ele>
        <time>2019-08-19T10:50:33Z</time>
        <sat>9</sat>
      </trkpt>
      <trkpt lat="42.514586" lon="-2.376901">
        <ele>438.8</ele>
        <time>2019-08-19T10:50:37Z</time>
        <sat>10</sat>
      </trkpt>
      <trkpt lat="42.514550" lon="-2.376952">
        <ele>438.4</ele>
        <time>2019-08-19T10:50:41Z</time>
        <sat>10</sat>
      </trkpt>
      <trkpt lat="42.514490" lon="-2.376995">
        <ele>438.0</ele>
        <time>2019-08-19T10:50:47Z</time>
        <sat>11</sat>
      </trkpt>
      <trkpt lat="42.514432" lon="-2.377064">
        <ele>437.5</ele>
        <time>2019-08-19T10:50:54Z</time>
        <sat>11</sat>
      </trkpt>
      <trkpt lat="42.514376" lon="-2.377105">
        <ele>437.0</ele>
        <time>2019-08-19T10:51:00Z</time>
        <sat>12</sat>
      </trkpt>
      <trkpt lat="42.514304" lon="-2.377185">
        <ele>436.5</ele>
        <time>2019-08-19T10:51:07Z</time>
        <sat>12</sat>
      </trkpt>
      <trkpt lat="42.514205" lon="-2.377233">
        <ele>436.3</ele>
        <time>2019-08-19T10:51:15Z</time>
        <sat>12</sat>
      </trkpt>
      <trkpt lat="42.514139" lon="-2.377234">
        <ele>436.2</ele>
        <time>2019-08-19T10:51:20Z</time>
        <sat>10</sat>
      </trkpt>
      <trkpt lat="42.514057" lon="-2.377249">
        <ele>436.1</ele>
        <time>2019-08-19T10:51:26Z</time>
        <sat>11</sat>
      </trkpt>
      <trkpt lat="42.513914" lon="-2.377286">
        <ele>435.8</ele>
        <time>2019-08-19T10:51:36Z</time>
        <sat>10</sat>
      </trkpt>
      <trkpt lat="42.513785" lon="-2.377312">
        <ele>435.7</ele>
        <time>2019-08-19T10:51:45Z</time>
        <sat>12</sat>
      </trkpt>
      <trkpt lat="42.513709" lon="-2.377307">
        <ele>435.7</ele>
        <time>2019-08-19T10:51:50Z</time>
        <sat>12</sat>
      </trkpt>
      <trkpt lat="42.513611" lon="-2.377320">
        <ele>435.5</ele>
        <time>2019-08-19T10:51:57Z</time>
        <sat>12</sat>
      </trkpt>
      <trkpt lat="42.513525" lon="-2.377313">
        <ele>435.5</ele>
        <time>2019-08-19T10:52:03Z</time>
        <sat>11</sat>
      </trkpt>
      <trkpt lat="42.513430" lon="-2.377317">
        <ele>435.4</ele>
        <time>2019-08-19T10:52:10Z</time>
        <sat>12</sat>
      </trkpt>
      <trkpt lat="42.513355" lon="-2.377345">
        <ele>435.4</ele>
        <time>2019-08-19T10:52:16Z</time>
        <sat>10</sat>
      </trkpt>
      <trkpt lat="42.513323" lon="-2.377383">
        <ele>435.3</ele>
        <time>2019-08-19T10:52:19Z</time>
        <sat>11</sat>
      </trkpt>
      <trkpt lat="42.513266" lon="-2.377426">
        <ele>435.3</ele>
        <time>2019-08-19T10:52:24Z</time>
        <sat>12</sat>
      </trkpt>
      <trkpt lat="42.513182" lon="-2.377458">
        <ele>435.3</ele>
        <time>2019-08-19T10:52:30Z</time>
        <sat>11</sat>
      </trkpt>
      <trkpt lat="42.513142" lon="-2.377483">
        <ele>435.2</ele>
        <time>2019-08-19T10:52:33Z</time>
        <sat>10</sat>
      </trkpt>
      <trkpt lat="42.512962" lon="-2.377549">
        <ele>435.1</ele>
        <time>2019-08-19T10:52:47Z</time>
        <sat>12</sat>
      </trkpt>
      <trkpt lat="42.512868" lon="-2.377552">
        <ele>434.5</ele>
        <time>2019-08-19T10:52:54Z</time>
        <sat>12</sat>
      </trkpt>
      <trkpt lat="42.512822" lon="-2.377568">
        <ele>433.9</ele>
        <time>2019-08-19T10:52:58Z</time>
        <sat>11</sat>
      </trkpt>
      <trkpt lat="42.512784" lon="-2.377652">
        <ele>433.5</ele>
        <time>2019-08-19T10:53:04Z</time>
        <sat>12</sat>
      </trkpt>
      <trkpt lat="42.512771" lon="-2.377795">
        <ele>434.3</ele>
        <time>2019-08-19T10:53:27Z</time>
        <sat>12</sat>
      </trkpt>
      <trkpt lat="42.512786" lon="-2.377905">
        <ele>434.3</ele>
        <time>2019-08-19T10:53:33Z</time>
        <sat>12</sat>
      </trkpt>
      <trkpt lat="42.512785" lon="-2.378011">
        <ele>434.3</ele>
        <time>2019-08-19T10:53:39Z</time>
        <sat>12</sat>
      </trkpt>
      <trkpt lat="42.512800" lon="-2.378160">
        <ele>434.2</ele>
        <time>2019-08-19T10:53:48Z</time>
        <sat>12</sat>
      </trkpt>
      <trkpt lat="42.512832" lon="-2.378371">
        <ele>434.4</ele>
        <time>2019-08-19T10:54:01Z</time>
        <sat>12</sat>
      </trkpt>
      <trkpt lat="42.512852" lon="-2.378583">
        <ele>434.3</ele>
        <time>2019-08-19T10:54:14Z</time>
        <sat>12</sat>
      </trkpt>
      <trkpt lat="42.512858" lon="-2.378706">
        <ele>434.3</ele>
        <time>2019-08-19T10:54:20Z</time>
        <sat>12</sat>
      </trkpt>
      <trkpt lat="42.512867" lon="-2.378764">
        <ele>434.3</ele>
        <time>2019-08-19T10:54:23Z</time>
        <sat>12</sat>
      </trkpt>
      <trkpt lat="42.512880" lon="-2.378965">
        <ele>434.5</ele>
        <time>2019-08-19T10:54:34Z</time>
        <sat>12</sat>
      </trkpt>
      <trkpt lat="42.512874" lon="-2.379016">
        <ele>434.5</ele>
        <time>2019-08-19T10:54:37Z</time>
        <sat>12</sat>
      </trkpt>
      <trkpt lat="42.512832" lon="-2.379132">
        <ele>434.4</ele>
        <time>2019-08-19T10:54:45Z</time>
        <sat>12</sat>
      </trkpt>
      <trkpt lat="42.512764" lon="-2.379187">
        <ele>434.1</ele>
        <time>2019-08-19T10:54:52Z</time>
        <sat>11</sat>
      </trkpt>
      <trkpt lat="42.512713" lon="-2.379189">
        <ele>433.8</ele>
        <time>2019-08-19T10:54:56Z</time>
        <sat>11</sat>
      </trkpt>
      <trkpt lat="42.512624" lon="-2.379248">
        <ele>433.3</ele>
        <time>2019-08-19T10:55:04Z</time>
        <sat>11</sat>
      </trkpt>
      <trkpt lat="42.512573" lon="-2.379270">
        <ele>433.2</ele>
        <time>2019-08-19T10:55:08Z</time>
        <sat>12</sat>
      </trkpt>
      <trkpt lat="42.512520" lon="-2.379270">
        <ele>433.0</ele>
        <time>2019-08-19T10:55:12Z</time>
        <sat>11</sat>
      </trkpt>
      <trkpt lat="42.512424" lon="-2.379247">
        <ele>432.9</ele>
        <time>2019-08-19T10:55:19Z</time>
        <sat>12</sat>
      </trkpt>
      <trkpt lat="42.512312" lon="-2.379194">
        <ele>432.9</ele>
        <time>2019-08-19T10:55:28Z</time>
        <sat>11</sat>
      </trkpt>
      <trkpt lat="42.512229" lon="-2.379160">
        <ele>432.8</ele>
        <time>2019-08-19T10:55:35Z</time>
        <sat>12</sat>
      </trkpt>
      <trkpt lat="42.512147" lon="-2.379161">
        <ele>432.8</ele>
        <time>2019-08-19T10:55:41Z</time>
        <sat>11</sat>
      </trkpt>
      <trkpt lat="42.512051" lon="-2.379201">
        <ele>432.7</ele>
        <time>2019-08-19T10:55:49Z</time>
        <sat>12</sat>
      </trkpt>
      <trkpt lat="42.512029" lon="-2.379226">
        <ele>432.6</ele>
        <time>2019-08-19T10:55:51Z</time>
        <sat>12</sat>
      </trkpt>
      <trkpt lat="42.511950" lon="-2.379294">
        <ele>432.6</ele>
        <time>2019-08-19T10:55:58Z</time>
        <sat>12</sat>
      </trkpt>
      <trkpt lat="42.511815" lon="-2.379426">
        <ele>432.4</ele>
        <time>2019-08-19T10:56:11Z</time>
        <sat>12</sat>
      </trkpt>
      <trkpt lat="42.511660" lon="-2.379509">
        <ele>432.3</ele>
        <time>2019-08-19T10:56:25Z</time>
        <sat>12</sat>
      </trkpt>
      <trkpt lat="42.511611" lon="-2.379545">
        <ele>432.3</ele>
        <time>2019-08-19T10:56:29Z</time>
        <sat>12</sat>
      </trkpt>
      <trkpt lat="42.511542" lon="-2.379610">
        <ele>432.3</ele>
        <time>2019-08-19T10:56:35Z</time>
        <sat>12</sat>
      </trkpt>
      <trkpt lat="42.511487" lon="-2.379618">
        <ele>432.2</ele>
        <time>2019-08-19T10:56:39Z</time>
        <sat>12</sat>
      </trkpt>
      <trkpt lat="42.511421" lon="-2.379573">
        <ele>432.3</ele>
        <time>2019-08-19T10:56:45Z</time>
        <sat>12</sat>
      </trkpt>
      <trkpt lat="42.511402" lon="-2.379545">
        <ele>432.3</ele>
        <time>2019-08-19T10:56:47Z</time>
        <sat>12</sat>
      </trkpt>
      <trkpt lat="42.511263" lon="-2.379413">
        <ele>432.6</ele>
        <time>2019-08-19T10:57:02Z</time>
        <sat>12</sat>
      </trkpt>
      <trkpt lat="42.511218" lon="-2.379381">
        <ele>432.6</ele>
        <time>2019-08-19T10:57:06Z</time>
        <sat>12</sat>
      </trkpt>
      <trkpt lat="42.511154" lon="-2.379363">
        <ele>432.5</ele>
        <time>2019-08-19T10:57:11Z</time>
        <sat>12</sat>
      </trkpt>
      <trkpt lat="42.511005" lon="-2.379376">
        <ele>432.6</ele>
        <time>2019-08-19T10:57:22Z</time>
        <sat>12</sat>
      </trkpt>
      <trkpt lat="42.510928" lon="-2.379396">
        <ele>432.5</ele>
        <time>2019-08-19T10:57:28Z</time>
        <sat>12</sat>
      </trkpt>
      <trkpt lat="42.510833" lon="-2.379399">
        <ele>432.3</ele>
        <time>2019-08-19T10:57:35Z</time>
        <sat>12</sat>
      </trkpt>
      <trkpt lat="42.510669" lon="-2.379398">
        <ele>432.0</ele>
        <time>2019-08-19T10:57:47Z</time>
        <sat>12</sat>
      </trkpt>
      <trkpt lat="42.510587" lon="-2.379417">
        <ele>431.8</ele>
        <time>2019-08-19T10:57:53Z</time>
        <sat>12</sat>
      </trkpt>
      <trkpt lat="42.510460" lon="-2.379425">
        <ele>431.6</ele>
        <time>2019-08-19T10:58:04Z</time>
        <sat>12</sat>
      </trkpt>
      <trkpt lat="42.510381" lon="-2.379451">
        <ele>431.5</ele>
        <time>2019-08-19T10:58:11Z</time>
        <sat>12</sat>
      </trkpt>
      <trkpt lat="42.510323" lon="-2.379483">
        <ele>431.5</ele>
        <time>2019-08-19T10:58:17Z</time>
        <sat>12</sat>
      </trkpt>
      <trkpt lat="42.510198" lon="-2.379584">
        <ele>431.6</ele>
        <time>2019-08-19T10:58:28Z</time>
        <sat>12</sat>
      </trkpt>
      <trkpt lat="42.510176" lon="-2.379611">
        <ele>431.7</ele>
        <time>2019-08-19T10:58:30Z</time>
        <sat>12</sat>
      </trkpt>
      <trkpt lat="42.510069" lon="-2.379758">
        <ele>431.6</ele>
        <time>2019-08-19T10:58:41Z</time>
        <sat>12</sat>
      </trkpt>
      <trkpt lat="42.510016" lon="-2.379866">
        <ele>431.5</ele>
        <time>2019-08-19T10:58:48Z</time>
        <sat>12</sat>
      </trkpt>
      <trkpt lat="42.509968" lon="-2.379949">
        <ele>431.8</ele>
        <time>2019-08-19T10:58:58Z</time>
        <sat>11</sat>
      </trkpt>
      <trkpt lat="42.509976" lon="-2.379972">
        <ele>431.9</ele>
        <time>2019-08-19T10:59:06Z</time>
        <sat>12</sat>
      </trkpt>
      <trkpt lat="42.509954" lon="-2.379996">
        <ele>431.8</ele>
        <time>2019-08-19T10:59:12Z</time>
        <sat>12</sat>
      </trkpt>
      <trkpt lat="42.509944" lon="-2.380092">
        <ele>431.8</ele>
        <time>2019-08-19T10:59:17Z</time>
        <sat>12</sat>
      </trkpt>
      <trkpt lat="42.509902" lon="-2.380313">
        <ele>431.3</ele>
        <time>2019-08-19T10:59:29Z</time>
        <sat>12</sat>
      </trkpt>
      <trkpt lat="42.509875" lon="-2.380480">
        <ele>431.0</ele>
        <time>2019-08-19T10:59:38Z</time>
        <sat>12</sat>
      </trkpt>
      <trkpt lat="42.509844" lon="-2.380611">
        <ele>430.5</ele>
        <time>2019-08-19T10:59:45Z</time>
        <sat>12</sat>
      </trkpt>
      <trkpt lat="42.509831" lon="-2.380706">
        <ele>430.1</ele>
        <time>2019-08-19T10:59:50Z</time>
        <sat>12</sat>
      </trkpt>
      <trkpt lat="42.509789" lon="-2.380901">
        <ele>428.8</ele>
        <time>2019-08-19T11:00:01Z</time>
        <sat>12</sat>
      </trkpt>
      <trkpt lat="42.509773" lon="-2.381093">
        <ele>427.8</ele>
        <time>2019-08-19T11:00:11Z</time>
        <sat>12</sat>
      </trkpt>
      <trkpt lat="42.509751" lon="-2.381332">
        <ele>425.6</ele>
        <time>2019-08-19T11:00:24Z</time>
        <sat>12</sat>
      </trkpt>
      <trkpt lat="42.509717" lon="-2.381429">
        <ele>426.2</ele>
        <time>2019-08-19T11:00:30Z</time>
        <sat>12</sat>
      </trkpt>
      <trkpt lat="42.509609" lon="-2.381581">
        <ele>426.2</ele>
        <time>2019-08-19T11:00:41Z</time>
        <sat>12</sat>
      </trkpt>
      <trkpt lat="42.509531" lon="-2.381652">
        <ele>426.2</ele>
        <time>2019-08-19T11:00:48Z</time>
        <sat>12</sat>
      </trkpt>
      <trkpt lat="42.509417" lon="-2.381788">
        <ele>425.9</ele>
        <time>2019-08-19T11:00:59Z</time>
        <sat>12</sat>
      </trkpt>
      <trkpt lat="42.509267" lon="-2.381949">
        <ele>425.2</ele>
        <time>2019-08-19T11:01:13Z</time>
        <sat>12</sat>
      </trkpt>
      <trkpt lat="42.509229" lon="-2.381975">
        <ele>425.1</ele>
        <time>2019-08-19T11:01:16Z</time>
        <sat>12</sat>
      </trkpt>
      <trkpt lat="42.509150" lon="-2.382052">
        <ele>424.7</ele>
        <time>2019-08-19T11:01:23Z</time>
        <sat>12</sat>
      </trkpt>
      <trkpt lat="42.509086" lon="-2.382092">
        <ele>424.5</ele>
        <time>2019-08-19T11:01:28Z</time>
        <sat>12</sat>
      </trkpt>
      <trkpt lat="42.508986" lon="-2.382175">
        <ele>424.1</ele>
        <time>2019-08-19T11:01:36Z</time>
        <sat>12</sat>
      </trkpt>
      <trkpt lat="42.508907" lon="-2.382250">
        <ele>424.0</ele>
        <time>2019-08-19T11:01:43Z</time>
        <sat>12</sat>
      </trkpt>
      <trkpt lat="42.508843" lon="-2.382291">
        <ele>423.9</ele>
        <time>2019-08-19T11:01:48Z</time>
        <sat>12</sat>
      </trkpt>
      <trkpt lat="42.508765" lon="-2.382369">
        <ele>423.7</ele>
        <time>2019-08-19T11:01:55Z</time>
        <sat>12</sat>
      </trkpt>
      <trkpt lat="42.508658" lon="-2.382452">
        <ele>423.2</ele>
        <time>2019-08-19T11:02:04Z</time>
        <sat>12</sat>
      </trkpt>
      <trkpt lat="42.508582" lon="-2.382531">
        <ele>423.0</ele>
        <time>2019-08-19T11:02:11Z</time>
        <sat>12</sat>
      </trkpt>
      <trkpt lat="42.508528" lon="-2.382561">
        <ele>423.0</ele>
        <time>2019-08-19T11:02:15Z</time>
        <sat>12</sat>
      </trkpt>
      <trkpt lat="42.508490" lon="-2.382591">
        <ele>423.1</ele>
        <time>2019-08-19T11:02:18Z</time>
        <sat>12</sat>
      </trkpt>
      <trkpt lat="42.508444" lon="-2.382644">
        <ele>423.2</ele>
        <time>2019-08-19T11:02:22Z</time>
        <sat>12</sat>
      </trkpt>
      <trkpt lat="42.508331" lon="-2.382739">
        <ele>423.3</ele>
        <time>2019-08-19T11:02:32Z</time>
        <sat>12</sat>
      </trkpt>
      <trkpt lat="42.508301" lon="-2.382776">
        <ele>423.2</ele>
        <time>2019-08-19T11:02:35Z</time>
        <sat>12</sat>
      </trkpt>
      <trkpt lat="42.508154" lon="-2.382888">
        <ele>422.6</ele>
        <time>2019-08-19T11:02:48Z</time>
        <sat>12</sat>
      </trkpt>
      <trkpt lat="42.508053" lon="-2.382959">
        <ele>422.1</ele>
        <time>2019-08-19T11:02:57Z</time>
        <sat>12</sat>
      </trkpt>
      <trkpt lat="42.507963" lon="-2.382988">
        <ele>421.5</ele>
        <time>2019-08-19T11:03:05Z</time>
        <sat>12</sat>
      </trkpt>
      <trkpt lat="42.507909" lon="-2.382958">
        <ele>421.1</ele>
        <time>2019-08-19T11:03:12Z</time>
        <sat>12</sat>
      </trkpt>
      <trkpt lat="42.507813" lon="-2.382996">
        <ele>420.8</ele>
        <time>2019-08-19T11:03:20Z</time>
        <sat>8</sat>
      </trkpt>
      <trkpt lat="42.507794" lon="-2.382955">
        <ele>420.8</ele>
        <time>2019-08-19T11:03:21Z</time>
        <sat>9</sat>
      </trkpt>
      <trkpt lat="42.507734" lon="-2.382957">
        <ele>420.8</ele>
        <time>2019-08-19T11:03:25Z</time>
        <sat>11</sat>
      </trkpt>
      <trkpt lat="42.507692" lon="-2.383001">
        <ele>420.9</ele>
        <time>2019-08-19T11:03:29Z</time>
        <sat>12</sat>
      </trkpt>
      <trkpt lat="42.507603" lon="-2.383116">
        <ele>421.4</ele>
        <time>2019-08-19T11:03:39Z</time>
        <sat>12</sat>
      </trkpt>
      <trkpt lat="42.507521" lon="-2.383268">
        <ele>422.2</ele>
        <time>2019-08-19T11:03:50Z</time>
        <sat>12</sat>
      </trkpt>
      <trkpt lat="42.507485" lon="-2.383315">
        <ele>422.5</ele>
        <time>2019-08-19T11:03:54Z</time>
        <sat>12</sat>
      </trkpt>
      <trkpt lat="42.507425" lon="-2.383429">
        <ele>422.8</ele>
        <time>2019-08-19T11:04:02Z</time>
        <sat>12</sat>
      </trkpt>
      <trkpt lat="42.507375" lon="-2.383490">
        <ele>422.9</ele>
        <time>2019-08-19T11:04:07Z</time>
        <sat>12</sat>
      </trkpt>
      <trkpt lat="42.507255" lon="-2.383643">
        <ele>422.9</ele>
        <time>2019-08-19T11:04:20Z</time>
        <sat>12</sat>
      </trkpt>
      <trkpt lat="42.507166" lon="-2.383722">
        <ele>422.8</ele>
        <time>2019-08-19T11:04:32Z</time>
        <sat>12</sat>
      </trkpt>
      <trkpt lat="42.507095" lon="-2.383755">
        <ele>422.9</ele>
        <time>2019-08-19T11:04:41Z</time>
        <sat>12</sat>
      </trkpt>
      <trkpt lat="42.507080" lon="-2.383751">
        <ele>422.8</ele>
        <time>2019-08-19T11:04:51Z</time>
        <sat>12</sat>
      </trkpt>
      <trkpt lat="42.506955" lon="-2.383804">
        <ele>422.2</ele>
        <time>2019-08-19T11:05:03Z</time>
        <sat>12</sat>
      </trkpt>
      <trkpt lat="42.506881" lon="-2.383846">
        <ele>421.3</ele>
        <time>2019-08-19T11:05:09Z</time>
        <sat>12</sat>
      </trkpt>
      <trkpt lat="42.506784" lon="-2.383865">
        <ele>416.9</ele>
        <time>2019-08-19T11:05:17Z</time>
        <sat>12</sat>
      </trkpt>
      <trkpt lat="42.506685" lon="-2.383892">
        <ele>421.6</ele>
        <time>2019-08-19T11:05:25Z</time>
        <sat>12</sat>
      </trkpt>
      <trkpt lat="42.506643" lon="-2.383912">
        <ele>422.1</ele>
        <time>2019-08-19T11:05:29Z</time>
        <sat>12</sat>
      </trkpt>
      <trkpt lat="42.506619" lon="-2.383915">
        <ele>422.2</ele>
        <time>2019-08-19T11:05:31Z</time>
        <sat>12</sat>
      </trkpt>
      <trkpt lat="42.506538" lon="-2.383941">
        <ele>422.3</ele>
        <time>2019-08-19T11:05:38Z</time>
        <sat>12</sat>
      </trkpt>
      <trkpt lat="42.506463" lon="-2.383954">
        <ele>422.2</ele>
        <time>2019-08-19T11:05:44Z</time>
        <sat>12</sat>
      </trkpt>
      <trkpt lat="42.506367" lon="-2.383972">
        <ele>421.9</ele>
        <time>2019-08-19T11:05:52Z</time>
        <sat>12</sat>
      </trkpt>
      <trkpt lat="42.506266" lon="-2.383967">
        <ele>421.8</ele>
        <time>2019-08-19T11:06:00Z</time>
        <sat>12</sat>
      </trkpt>
      <trkpt lat="42.506128" lon="-2.383974">
        <ele>421.9</ele>
        <time>2019-08-19T11:06:11Z</time>
        <sat>12</sat>
      </trkpt>
      <trkpt lat="42.506042" lon="-2.383999">
        <ele>421.8</ele>
        <time>2019-08-19T11:06:18Z</time>
        <sat>12</sat>
      </trkpt>
      <trkpt lat="42.505989" lon="-2.384005">
        <ele>421.7</ele>
        <time>2019-08-19T11:06:22Z</time>
        <sat>12</sat>
      </trkpt>
      <trkpt lat="42.505865" lon="-2.384034">
        <ele>421.6</ele>
        <time>2019-08-19T11:06:32Z</time>
        <sat>12</sat>
      </trkpt>
      <trkpt lat="42.505714" lon="-2.384086">
        <ele>421.6</ele>
        <time>2019-08-19T11:06:44Z</time>
        <sat>12</sat>
      </trkpt>
      <trkpt lat="42.505644" lon="-2.384131">
        <ele>421.6</ele>
        <time>2019-08-19T11:06:50Z</time>
        <sat>12</sat>
      </trkpt>
      <trkpt lat="42.505597" lon="-2.384151">
        <ele>421.5</ele>
        <time>2019-08-19T11:06:54Z</time>
        <sat>12</sat>
      </trkpt>
      <trkpt lat="42.505428" lon="-2.384251">
        <ele>421.4</ele>
        <time>2019-08-19T11:07:08Z</time>
        <sat>12</sat>
      </trkpt>
      <trkpt lat="42.505331" lon="-2.384325">
        <ele>421.3</ele>
        <time>2019-08-19T11:07:17Z</time>
        <sat>12</sat>
      </trkpt>
      <trkpt lat="42.505288" lon="-2.384420">
        <ele>421.0</ele>
        <time>2019-08-19T11:07:23Z</time>
        <sat>12</sat>
      </trkpt>
      <trkpt lat="42.505269" lon="-2.384485">
        <ele>420.8</ele>
        <time>2019-08-19T11:07:27Z</time>
        <sat>12</sat>
      </trkpt>
      <trkpt lat="42.505218" lon="-2.384647">
        <ele>420.1</ele>
        <time>2019-08-19T11:07:37Z</time>
        <sat>12</sat>
      </trkpt>
      <trkpt lat="42.505179" lon="-2.384726">
        <ele>419.8</ele>
        <time>2019-08-19T11:07:42Z</time>
        <sat>12</sat>
      </trkpt>
      <trkpt lat="42.505100" lon="-2.384846">
        <ele>419.1</ele>
        <time>2019-08-19T11:07:50Z</time>
        <sat>12</sat>
      </trkpt>
      <trkpt lat="42.505046" lon="-2.384913">
        <ele>418.8</ele>
        <time>2019-08-19T11:07:55Z</time>
        <sat>12</sat>
      </trkpt>
      <trkpt lat="42.504939" lon="-2.385005">
        <ele>418.4</ele>
        <time>2019-08-19T11:08:04Z</time>
        <sat>12</sat>
      </trkpt>
      <trkpt lat="42.504872" lon="-2.385081">
        <ele>418.2</ele>
        <time>2019-08-19T11:08:10Z</time>
        <sat>12</sat>
      </trkpt>
      <trkpt lat="42.504812" lon="-2.385125">
        <ele>418.1</ele>
        <time>2019-08-19T11:08:16Z</time>
        <sat>12</sat>
      </trkpt>
      <trkpt lat="42.504764" lon="-2.385201">
        <ele>418.0</ele>
        <time>2019-08-19T11:08:22Z</time>
        <sat>12</sat>
      </trkpt>
      <trkpt lat="42.504644" lon="-2.385340">
        <ele>417.7</ele>
        <time>2019-08-19T11:08:33Z</time>
        <sat>12</sat>
      </trkpt>
      <trkpt lat="42.504576" lon="-2.385437">
        <ele>417.3</ele>
        <time>2019-08-19T11:08:40Z</time>
        <sat>12</sat>
      </trkpt>
      <trkpt lat="42.504518" lon="-2.385492">
        <ele>417.1</ele>
        <time>2019-08-19T11:08:45Z</time>
        <sat>12</sat>
      </trkpt>
      <trkpt lat="42.504488" lon="-2.385503">
        <ele>416.9</ele>
        <time>2019-08-19T11:08:50Z</time>
        <sat>12</sat>
      </trkpt>
      <trkpt lat="42.504407" lon="-2.385613">
        <ele>416.3</ele>
        <time>2019-08-19T11:09:04Z</time>
        <sat>12</sat>
      </trkpt>
      <trkpt lat="42.504321" lon="-2.385698">
        <ele>416.1</ele>
        <time>2019-08-19T11:09:12Z</time>
        <sat>12</sat>
      </trkpt>
      <trkpt lat="42.504218" lon="-2.385831">
        <ele>415.5</ele>
        <time>2019-08-19T11:09:22Z</time>
        <sat>12</sat>
      </trkpt>
      <trkpt lat="42.504206" lon="-2.385841">
        <ele>415.4</ele>
        <time>2019-08-19T11:09:23Z</time>
        <sat>12</sat>
      </trkpt>
      <trkpt lat="42.504118" lon="-2.385939">
        <ele>415.0</ele>
        <time>2019-08-19T11:09:31Z</time>
        <sat>12</sat>
      </trkpt>
      <trkpt lat="42.504051" lon="-2.386031">
        <ele>414.6</ele>
        <time>2019-08-19T11:09:38Z</time>
        <sat>12</sat>
      </trkpt>
      <trkpt lat="42.503983" lon="-2.386104">
        <ele>414.4</ele>
        <time>2019-08-19T11:09:44Z</time>
        <sat>12</sat>
      </trkpt>
      <trkpt lat="42.503893" lon="-2.386226">
        <ele>413.9</ele>
        <time>2019-08-19T11:09:53Z</time>
        <sat>12</sat>
      </trkpt>
      <trkpt lat="42.503872" lon="-2.386250">
        <ele>413.7</ele>
        <time>2019-08-19T11:09:55Z</time>
        <sat>12</sat>
      </trkpt>
      <trkpt lat="42.503755" lon="-2.386359">
        <ele>413.4</ele>
        <time>2019-08-19T11:10:05Z</time>
        <sat>12</sat>
      </trkpt>
      <trkpt lat="42.503695" lon="-2.386405">
        <ele>413.2</ele>
        <time>2019-08-19T11:10:10Z</time>
        <sat>12</sat>
      </trkpt>
      <trkpt lat="42.503535" lon="-2.386477">
        <ele>412.9</ele>
        <time>2019-08-19T11:10:22Z</time>
        <sat>12</sat>
      </trkpt>
      <trkpt lat="42.503450" lon="-2.386575">
        <ele>412.7</ele>
        <time>2019-08-19T11:10:30Z</time>
        <sat>12</sat>
      </trkpt>
      <trkpt lat="42.503374" lon="-2.386689">
        <ele>412.3</ele>
        <time>2019-08-19T11:10:38Z</time>
        <sat>12</sat>
      </trkpt>
      <trkpt lat="42.503313" lon="-2.386802">
        <ele>411.9</ele>
        <time>2019-08-19T11:10:45Z</time>
        <sat>12</sat>
      </trkpt>
      <trkpt lat="42.503247" lon="-2.386872">
        <ele>411.6</ele>
        <time>2019-08-19T11:10:51Z</time>
        <sat>12</sat>
      </trkpt>
      <trkpt lat="42.503126" lon="-2.386933">
        <ele>411.2</ele>
        <time>2019-08-19T11:11:00Z</time>
        <sat>11</sat>
      </trkpt>
      <trkpt lat="42.503090" lon="-2.386937">
        <ele>411.1</ele>
        <time>2019-08-19T11:11:03Z</time>
        <sat>11</sat>
      </trkpt>
      <trkpt lat="42.502980" lon="-2.386964">
        <ele>410.6</ele>
        <time>2019-08-19T11:11:11Z</time>
        <sat>12</sat>
      </trkpt>
      <trkpt lat="42.502834" lon="-2.387027">
        <ele>410.0</ele>
        <time>2019-08-19T11:11:22Z</time>
        <sat>12</sat>
      </trkpt>
      <trkpt lat="42.502768" lon="-2.387064">
        <ele>409.8</ele>
        <time>2019-08-19T11:11:27Z</time>
        <sat>10</sat>
      </trkpt>
      <trkpt lat="42.502721" lon="-2.387104">
        <ele>409.7</ele>
        <time>2019-08-19T11:11:31Z</time>
        <sat>11</sat>
      </trkpt>
      <trkpt lat="42.502614" lon="-2.387161">
        <ele>409.4</ele>
        <time>2019-08-19T11:11:39Z</time>
        <sat>12</sat>
      </trkpt>
      <trkpt lat="42.502577" lon="-2.387209">
        <ele>409.2</ele>
        <time>2019-08-19T11:11:44Z</time>
        <sat>11</sat>
      </trkpt>
      <trkpt lat="42.502430" lon="-2.387273">
        <ele>408.4</ele>
        <time>2019-08-19T11:14:12Z</time>
        <sat>12</sat>
      </trkpt>
      <trkpt lat="42.502359" lon="-2.387296">
        <ele>408.3</ele>
        <time>2019-08-19T11:14:17Z</time>
        <sat>12</sat>
      </trkpt>
      <trkpt lat="42.502271" lon="-2.387351">
        <ele>408.3</ele>
        <time>2019-08-19T11:14:24Z</time>
        <sat>12</sat>
      </trkpt>
      <trkpt lat="42.502197" lon="-2.387384">
        <ele>408.2</ele>
        <time>2019-08-19T11:14:30Z</time>
        <sat>12</sat>
      </trkpt>
      <trkpt lat="42.502127" lon="-2.387442">
        <ele>407.9</ele>
        <time>2019-08-19T11:14:36Z</time>
        <sat>12</sat>
      </trkpt>
      <trkpt lat="42.502070" lon="-2.387514">
        <ele>407.8</ele>
        <time>2019-08-19T11:14:42Z</time>
        <sat>12</sat>
      </trkpt>
      <trkpt lat="42.502011" lon="-2.387623">
        <ele>407.5</ele>
        <time>2019-08-19T11:14:49Z</time>
        <sat>12</sat>
      </trkpt>
      <trkpt lat="42.501989" lon="-2.387693">
        <ele>407.4</ele>
        <time>2019-08-19T11:14:53Z</time>
        <sat>12</sat>
      </trkpt>
      <trkpt lat="42.501947" lon="-2.387792">
        <ele>407.3</ele>
        <time>2019-08-19T11:14:59Z</time>
        <sat>12</sat>
      </trkpt>
      <trkpt lat="42.501874" lon="-2.388016">
        <ele>406.5</ele>
        <time>2019-08-19T11:15:14Z</time>
        <sat>12</sat>
      </trkpt>
      <trkpt lat="42.501876" lon="-2.388018">
        <ele>406.0</ele>
        <time>2019-08-19T11:15:27Z</time>
        <sat>12</sat>
      </trkpt>
      <trkpt lat="42.501888" lon="-2.388012">
        <ele>406.1</ele>
        <time>2019-08-19T11:15:43Z</time>
        <sat>11</sat>
      </trkpt>
      <trkpt lat="42.501613" lon="-2.388144">
        <ele>406.0</ele>
        <time>2019-08-19T11:34:50Z</time>
        <sat>11</sat>
      </trkpt>
      <trkpt lat="42.501454" lon="-2.388173">
        <ele>405.3</ele>
        <time>2019-08-19T11:35:03Z</time>
        <sat>11</sat>
      </trkpt>
      <trkpt lat="42.501333" lon="-2.388193">
        <ele>405.5</ele>
        <time>2019-08-19T11:35:13Z</time>
        <sat>11</sat>
      </trkpt>
      <trkpt lat="42.501288" lon="-2.388188">
        <ele>406.2</ele>
        <time>2019-08-19T11:35:21Z</time>
        <sat>11</sat>
      </trkpt>
      <trkpt lat="42.501283" lon="-2.388179">
        <ele>406.6</ele>
        <time>2019-08-19T11:35:31Z</time>
        <sat>11</sat>
      </trkpt>
      <trkpt lat="42.501272" lon="-2.388179">
        <ele>406.6</ele>
        <time>2019-08-19T11:35:32Z</time>
        <sat>11</sat>
      </trkpt>
      <trkpt lat="42.501174" lon="-2.388163">
        <ele>407.0</ele>
        <time>2019-08-19T11:35:39Z</time>
        <sat>11</sat>
      </trkpt>
      <trkpt lat="42.501119" lon="-2.388171">
        <ele>407.3</ele>
        <time>2019-08-19T11:35:43Z</time>
        <sat>11</sat>
      </trkpt>
      <trkpt lat="42.501076" lon="-2.388165">
        <ele>407.4</ele>
        <time>2019-08-19T11:35:46Z</time>
        <sat>11</sat>
      </trkpt>
      <trkpt lat="42.500902" lon="-2.388131">
        <ele>407.4</ele>
        <time>2019-08-19T11:36:00Z</time>
        <sat>10</sat>
      </trkpt>
      <trkpt lat="42.500848" lon="-2.388129">
        <ele>407.5</ele>
        <time>2019-08-19T11:36:04Z</time>
        <sat>10</sat>
      </trkpt>
      <trkpt lat="42.500746" lon="-2.388084">
        <ele>407.5</ele>
        <time>2019-08-19T11:36:12Z</time>
        <sat>11</sat>
      </trkpt>
      <trkpt lat="42.500594" lon="-2.387987">
        <ele>407.0</ele>
        <time>2019-08-19T11:36:24Z</time>
        <sat>11</sat>
      </trkpt>
      <trkpt lat="42.500530" lon="-2.387952">
        <ele>406.9</ele>
        <time>2019-08-19T11:36:29Z</time>
        <sat>11</sat>
      </trkpt>
      <trkpt lat="42.500474" lon="-2.387942">
        <ele>406.9</ele>
        <time>2019-08-19T11:36:33Z</time>
        <sat>11</sat>
      </trkpt>
      <trkpt lat="42.500396" lon="-2.387955">
        <ele>406.8</ele>
        <time>2019-08-19T11:36:39Z</time>
        <sat>11</sat>
      </trkpt>
      <trkpt lat="42.500318" lon="-2.387980">
        <ele>406.7</ele>
        <time>2019-08-19T11:36:45Z</time>
        <sat>11</sat>
      </trkpt>
      <trkpt lat="42.500241" lon="-2.388018">
        <ele>406.5</ele>
        <time>2019-08-19T11:36:51Z</time>
        <sat>11</sat>
      </trkpt>
      <trkpt lat="42.500177" lon="-2.388040">
        <ele>406.4</ele>
        <time>2019-08-19T11:36:56Z</time>
        <sat>11</sat>
      </trkpt>
      <trkpt lat="42.500100" lon="-2.388084">
        <ele>406.3</ele>
        <time>2019-08-19T11:37:02Z</time>
        <sat>11</sat>
      </trkpt>
      <trkpt lat="42.500046" lon="-2.388139">
        <ele>406.2</ele>
        <time>2019-08-19T11:37:07Z</time>
        <sat>11</sat>
      </trkpt>
      <trkpt lat="42.499897" lon="-2.388242">
        <ele>406.1</ele>
        <time>2019-08-19T11:37:19Z</time>
        <sat>11</sat>
      </trkpt>
      <trkpt lat="42.499824" lon="-2.388303">
        <ele>406.0</ele>
        <time>2019-08-19T11:37:25Z</time>
        <sat>11</sat>
      </trkpt>
      <trkpt lat="42.499704" lon="-2.388379">
        <ele>406.0</ele>
        <time>2019-08-19T11:37:34Z</time>
        <sat>11</sat>
      </trkpt>
      <trkpt lat="42.499661" lon="-2.388420">
        <ele>406.0</ele>
        <time>2019-08-19T11:37:38Z</time>
        <sat>11</sat>
      </trkpt>
      <trkpt lat="42.499598" lon="-2.388455">
        <ele>405.7</ele>
        <time>2019-08-19T11:37:43Z</time>
        <sat>9</sat>
      </trkpt>
      <trkpt lat="42.499526" lon="-2.388527">
        <ele>405.6</ele>
        <time>2019-08-19T11:37:50Z</time>
        <sat>11</sat>
      </trkpt>
      <trkpt lat="42.499366" lon="-2.388639">
        <ele>405.8</ele>
        <time>2019-08-19T11:38:04Z</time>
        <sat>9</sat>
      </trkpt>
      <trkpt lat="42.499249" lon="-2.388679">
        <ele>405.4</ele>
        <time>2019-08-19T11:38:13Z</time>
        <sat>11</sat>
      </trkpt>
      <trkpt lat="42.499198" lon="-2.388701">
        <ele>405.2</ele>
        <time>2019-08-19T11:38:17Z</time>
        <sat>9</sat>
      </trkpt>
      <trkpt lat="42.499102" lon="-2.388720">
        <ele>405.0</ele>
        <time>2019-08-19T11:38:24Z</time>
        <sat>11</sat>
      </trkpt>
      <trkpt lat="42.498984" lon="-2.388757">
        <ele>404.6</ele>
        <time>2019-08-19T11:38:33Z</time>
        <sat>10</sat>
      </trkpt>
      <trkpt lat="42.498892" lon="-2.388774">
        <ele>404.4</ele>
        <time>2019-08-19T11:38:40Z</time>
        <sat>11</sat>
      </trkpt>
      <trkpt lat="42.498802" lon="-2.388807">
        <ele>404.3</ele>
        <time>2019-08-19T11:38:47Z</time>
        <sat>11</sat>
      </trkpt>
      <trkpt lat="42.498619" lon="-2.388851">
        <ele>404.0</ele>
        <time>2019-08-19T11:39:01Z</time>
        <sat>10</sat>
      </trkpt>
      <trkpt lat="42.498429" lon="-2.388894">
        <ele>403.8</ele>
        <time>2019-08-19T11:39:15Z</time>
        <sat>12</sat>
      </trkpt>
      <trkpt lat="42.498402" lon="-2.388898">
        <ele>403.8</ele>
        <time>2019-08-19T11:39:17Z</time>
        <sat>11</sat>
      </trkpt>
      <trkpt lat="42.498229" lon="-2.388922">
        <ele>403.4</ele>
        <time>2019-08-19T11:39:30Z</time>
        <sat>12</sat>
      </trkpt>
      <trkpt lat="42.498041" lon="-2.388891">
        <ele>403.1</ele>
        <time>2019-08-19T11:39:44Z</time>
        <sat>12</sat>
      </trkpt>
      <trkpt lat="42.497961" lon="-2.388861">
        <ele>402.9</ele>
        <time>2019-08-19T11:39:50Z</time>
        <sat>12</sat>
      </trkpt>
      <trkpt lat="42.497817" lon="-2.388818">
        <ele>402.8</ele>
        <time>2019-08-19T11:40:01Z</time>
        <sat>10</sat>
      </trkpt>
      <trkpt lat="42.497769" lon="-2.388808">
        <ele>402.7</ele>
        <time>2019-08-19T11:40:05Z</time>
        <sat>12</sat>
      </trkpt>
      <trkpt lat="42.497700" lon="-2.388829">
        <ele>402.7</ele>
        <time>2019-08-19T11:40:12Z</time>
        <sat>12</sat>
      </trkpt>
      <trkpt lat="42.497619" lon="-2.388880">
        <ele>402.5</ele>
        <time>2019-08-19T11:40:19Z</time>
        <sat>12</sat>
      </trkpt>
      <trkpt lat="42.497514" lon="-2.388858">
        <ele>403.1</ele>
        <time>2019-08-19T11:40:27Z</time>
        <sat>11</sat>
      </trkpt>
      <trkpt lat="42.497402" lon="-2.388809">
        <ele>403.7</ele>
        <time>2019-08-19T11:40:35Z</time>
        <sat>11</sat>
      </trkpt>
      <trkpt lat="42.497316" lon="-2.388785">
        <ele>403.9</ele>
        <time>2019-08-19T11:40:43Z</time>
        <sat>10</sat>
      </trkpt>
      <trkpt lat="42.497185" lon="-2.388730">
        <ele>404.1</ele>
        <time>2019-08-19T11:40:55Z</time>
        <sat>10</sat>
      </trkpt>
      <trkpt lat="42.497152" lon="-2.388728">
        <ele>404.1</ele>
        <time>2019-08-19T11:40:58Z</time>
        <sat>10</sat>
      </trkpt>
      <trkpt lat="42.496999" lon="-2.388677">
        <ele>404.2</ele>
        <time>2019-08-19T11:41:10Z</time>
        <sat>12</sat>
      </trkpt>
      <trkpt lat="42.496911" lon="-2.388634">
        <ele>404.3</ele>
        <time>2019-08-19T11:41:17Z</time>
        <sat>12</sat>
      </trkpt>
      <trkpt lat="42.496836" lon="-2.388609">
        <ele>404.4</ele>
        <time>2019-08-19T11:41:23Z</time>
        <sat>12</sat>
      </trkpt>
      <trkpt lat="42.496749" lon="-2.388606">
        <ele>404.6</ele>
        <time>2019-08-19T11:41:30Z</time>
        <sat>12</sat>
      </trkpt>
      <trkpt lat="42.496600" lon="-2.388534">
        <ele>405.0</ele>
        <time>2019-08-19T11:41:42Z</time>
        <sat>12</sat>
      </trkpt>
      <trkpt lat="42.496575" lon="-2.388527">
        <ele>405.0</ele>
        <time>2019-08-19T11:41:44Z</time>
        <sat>12</sat>
      </trkpt>
      <trkpt lat="42.496422" lon="-2.388526">
        <ele>405.6</ele>
        <time>2019-08-19T11:41:56Z</time>
        <sat>10</sat>
      </trkpt>
      <trkpt lat="42.496333" lon="-2.388547">
        <ele>405.9</ele>
        <time>2019-08-19T11:42:03Z</time>
        <sat>10</sat>
      </trkpt>
      <trkpt lat="42.496236" lon="-2.388577">
        <ele>406.4</ele>
        <time>2019-08-19T11:42:11Z</time>
        <sat>12</sat>
      </trkpt>
      <trkpt lat="42.496172" lon="-2.388613">
        <ele>406.7</ele>
        <time>2019-08-19T11:42:17Z</time>
        <sat>12</sat>
      </trkpt>
      <trkpt lat="42.496111" lon="-2.388670">
        <ele>407.1</ele>
        <time>2019-08-19T11:42:25Z</time>
        <sat>12</sat>
      </trkpt>
      <trkpt lat="42.496069" lon="-2.388722">
        <ele>407.6</ele>
        <time>2019-08-19T11:42:36Z</time>
        <sat>10</sat>
      </trkpt>
      <trkpt lat="42.496011" lon="-2.388884">
        <ele>408.2</ele>
        <time>2019-08-19T11:42:54Z</time>
        <sat>11</sat>
      </trkpt>
      <trkpt lat="42.495981" lon="-2.388999">
        <ele>408.5</ele>
        <time>2019-08-19T11:43:01Z</time>
        <sat>11</sat>
      </trkpt>
      <trkpt lat="42.495975" lon="-2.389051">
        <ele>408.7</ele>
        <time>2019-08-19T11:43:04Z</time>
        <sat>11</sat>
      </trkpt>
      <trkpt lat="42.495957" lon="-2.389124">
        <ele>409.1</ele>
        <time>2019-08-19T11:43:08Z</time>
        <sat>11</sat>
      </trkpt>
      <trkpt lat="42.495968" lon="-2.389177">
        <ele>409.5</ele>
        <time>2019-08-19T11:43:11Z</time>
        <sat>11</sat>
      </trkpt>
      <trkpt lat="42.495970" lon="-2.389267">
        <ele>410.0</ele>
        <time>2019-08-19T11:43:16Z</time>
        <sat>11</sat>
      </trkpt>
      <trkpt lat="42.495948" lon="-2.389508">
        <ele>410.9</ele>
        <time>2019-08-19T11:43:29Z</time>
        <sat>11</sat>
      </trkpt>
      <trkpt lat="42.495927" lon="-2.389569">
        <ele>411.1</ele>
        <time>2019-08-19T11:43:33Z</time>
        <sat>12</sat>
      </trkpt>
      <trkpt lat="42.495918" lon="-2.389680">
        <ele>411.3</ele>
        <time>2019-08-19T11:43:39Z</time>
        <sat>11</sat>
      </trkpt>
      <trkpt lat="42.495902" lon="-2.389887">
        <ele>411.9</ele>
        <time>2019-08-19T11:43:51Z</time>
        <sat>12</sat>
      </trkpt>
      <trkpt lat="42.495893" lon="-2.390151">
        <ele>412.4</ele>
        <time>2019-08-19T11:44:05Z</time>
        <sat>11</sat>
      </trkpt>
      <trkpt lat="42.495901" lon="-2.390237">
        <ele>412.6</ele>
        <time>2019-08-19T11:44:10Z</time>
        <sat>12</sat>
      </trkpt>
      <trkpt lat="42.495897" lon="-2.390333">
        <ele>412.6</ele>
        <time>2019-08-19T11:44:15Z</time>
        <sat>11</sat>
      </trkpt>
      <trkpt lat="42.495915" lon="-2.390472">
        <ele>412.8</ele>
        <time>2019-08-19T11:44:23Z</time>
        <sat>12</sat>
      </trkpt>
      <trkpt lat="42.495919" lon="-2.390595">
        <ele>412.8</ele>
        <time>2019-08-19T11:44:30Z</time>
        <sat>11</sat>
      </trkpt>
      <trkpt lat="42.495928" lon="-2.390646">
        <ele>412.7</ele>
        <time>2019-08-19T11:44:33Z</time>
        <sat>12</sat>
      </trkpt>
      <trkpt lat="42.495940" lon="-2.390840">
        <ele>410.3</ele>
        <time>2019-08-19T11:44:59Z</time>
        <sat>11</sat>
      </trkpt>
      <trkpt lat="42.495952" lon="-2.390910">
        <ele>411.7</ele>
        <time>2019-08-19T11:45:03Z</time>
        <sat>11</sat>
      </trkpt>
      <trkpt lat="42.495958" lon="-2.391045">
        <ele>411.2</ele>
        <time>2019-08-19T11:45:11Z</time>
        <sat>11</sat>
      </trkpt>
      <trkpt lat="42.495983" lon="-2.391126">
        <ele>410.4</ele>
        <time>2019-08-19T11:45:16Z</time>
        <sat>11</sat>
      </trkpt>
      <trkpt lat="42.496024" lon="-2.391342">
        <ele>408.2</ele>
        <time>2019-08-19T11:45:29Z</time>
        <sat>12</sat>
      </trkpt>
      <trkpt lat="42.496048" lon="-2.391443">
        <ele>407.3</ele>
        <time>2019-08-19T11:45:35Z</time>
        <sat>12</sat>
      </trkpt>
      <trkpt lat="42.496039" lon="-2.391577">
        <ele>406.1</ele>
        <time>2019-08-19T11:45:43Z</time>
        <sat>11</sat>
      </trkpt>
      <trkpt lat="42.496042" lon="-2.391651">
        <ele>405.4</ele>
        <time>2019-08-19T11:45:47Z</time>
        <sat>11</sat>
      </trkpt>
      <trkpt lat="42.496037" lon="-2.391775">
        <ele>404.5</ele>
        <time>2019-08-19T11:45:54Z</time>
        <sat>11</sat>
      </trkpt>
      <trkpt lat="42.496001" lon="-2.392030">
        <ele>403.1</ele>
        <time>2019-08-19T11:46:08Z</time>
        <sat>11</sat>
      </trkpt>
      <trkpt lat="42.495966" lon="-2.392179">
        <ele>402.5</ele>
        <time>2019-08-19T11:46:16Z</time>
        <sat>11</sat>
      </trkpt>
      <trkpt lat="42.495954" lon="-2.392274">
        <ele>402.2</ele>
        <time>2019-08-19T11:46:21Z</time>
        <sat>11</sat>
      </trkpt>
      <trkpt lat="42.495913" lon="-2.392452">
        <ele>401.9</ele>
        <time>2019-08-19T11:46:31Z</time>
        <sat>11</sat>
      </trkpt>
      <trkpt lat="42.495894" lon="-2.392690">
        <ele>401.8</ele>
        <time>2019-08-19T11:46:44Z</time>
        <sat>12</sat>
      </trkpt>
      <trkpt lat="42.495933" lon="-2.392932">
        <ele>401.8</ele>
        <time>2019-08-19T11:47:02Z</time>
        <sat>12</sat>
      </trkpt>
      <trkpt lat="42.495936" lon="-2.392989">
        <ele>401.8</ele>
        <time>2019-08-19T11:47:05Z</time>
        <sat>12</sat>
      </trkpt>
      <trkpt lat="42.495930" lon="-2.393250">
        <ele>401.6</ele>
        <time>2019-08-19T11:47:19Z</time>
        <sat>11</sat>
      </trkpt>
      <trkpt lat="42.495917" lon="-2.393360">
        <ele>401.5</ele>
        <time>2019-08-19T11:47:25Z</time>
        <sat>11</sat>
      </trkpt>
      <trkpt lat="42.495917" lon="-2.393412">
        <ele>401.4</ele>
        <time>2019-08-19T11:47:28Z</time>
        <sat>11</sat>
      </trkpt>
      <trkpt lat="42.495895" lon="-2.393557">
        <ele>401.6</ele>
        <time>2019-08-19T11:47:36Z</time>
        <sat>11</sat>
      </trkpt>
      <trkpt lat="42.495893" lon="-2.393612">
        <ele>401.6</ele>
        <time>2019-08-19T11:47:39Z</time>
        <sat>11</sat>
      </trkpt>
      <trkpt lat="42.495861" lon="-2.393822">
        <ele>401.6</ele>
        <time>2019-08-19T11:47:51Z</time>
        <sat>12</sat>
      </trkpt>
      <trkpt lat="42.495833" lon="-2.393905">
        <ele>401.6</ele>
        <time>2019-08-19T11:47:56Z</time>
        <sat>12</sat>
      </trkpt>
      <trkpt lat="42.495828" lon="-2.393975">
        <ele>401.6</ele>
        <time>2019-08-19T11:48:00Z</time>
        <sat>11</sat>
      </trkpt>
      <trkpt lat="42.495772" lon="-2.394203">
        <ele>401.7</ele>
        <time>2019-08-19T11:48:13Z</time>
        <sat>12</sat>
      </trkpt>
      <trkpt lat="42.495720" lon="-2.394336">
        <ele>401.8</ele>
        <time>2019-08-19T11:48:21Z</time>
        <sat>12</sat>
      </trkpt>
      <trkpt lat="42.495705" lon="-2.394366">
        <ele>401.8</ele>
        <time>2019-08-19T11:48:23Z</time>
        <sat>12</sat>
      </trkpt>
      <trkpt lat="42.495639" lon="-2.394461">
        <ele>402.0</ele>
        <time>2019-08-19T11:48:30Z</time>
        <sat>12</sat>
      </trkpt>
      <trkpt lat="42.495568" lon="-2.394613">
        <ele>402.3</ele>
        <time>2019-08-19T11:48:40Z</time>
        <sat>12</sat>
      </trkpt>
      <trkpt lat="42.495567" lon="-2.394683">
        <ele>402.4</ele>
        <time>2019-08-19T11:48:44Z</time>
        <sat>11</sat>
      </trkpt>
      <trkpt lat="42.495553" lon="-2.394756">
        <ele>402.6</ele>
        <time>2019-08-19T11:48:48Z</time>
        <sat>11</sat>
      </trkpt>
      <trkpt lat="42.495545" lon="-2.394860">
        <ele>402.8</ele>
        <time>2019-08-19T11:48:54Z</time>
        <sat>11</sat>
      </trkpt>
      <trkpt lat="42.495567" lon="-2.395102">
        <ele>403.3</ele>
        <time>2019-08-19T11:49:08Z</time>
        <sat>11</sat>
      </trkpt>
      <trkpt lat="42.495558" lon="-2.395206">
        <ele>403.5</ele>
        <time>2019-08-19T11:49:14Z</time>
        <sat>11</sat>
      </trkpt>
      <trkpt lat="42.495524" lon="-2.395362">
        <ele>403.7</ele>
        <time>2019-08-19T11:49:23Z</time>
        <sat>11</sat>
      </trkpt>
      <trkpt lat="42.495516" lon="-2.395469">
        <ele>403.7</ele>
        <time>2019-08-19T11:49:29Z</time>
        <sat>12</sat>
      </trkpt>
      <trkpt lat="42.495502" lon="-2.395540">
        <ele>403.7</ele>
        <time>2019-08-19T11:49:33Z</time>
        <sat>12</sat>
      </trkpt>
      <trkpt lat="42.495465" lon="-2.395801">
        <ele>403.4</ele>
        <time>2019-08-19T11:49:48Z</time>
        <sat>12</sat>
      </trkpt>
      <trkpt lat="42.495420" lon="-2.396003">
        <ele>403.2</ele>
        <time>2019-08-19T11:50:00Z</time>
        <sat>12</sat>
      </trkpt>
      <trkpt lat="42.495400" lon="-2.396073">
        <ele>403.2</ele>
        <time>2019-08-19T11:50:04Z</time>
        <sat>12</sat>
      </trkpt>
      <trkpt lat="42.495368" lon="-2.396264">
        <ele>403.2</ele>
        <time>2019-08-19T11:50:15Z</time>
        <sat>12</sat>
      </trkpt>
      <trkpt lat="42.495378" lon="-2.396438">
        <ele>403.0</ele>
        <time>2019-08-19T11:50:25Z</time>
        <sat>12</sat>
      </trkpt>
      <trkpt lat="42.495373" lon="-2.396615">
        <ele>402.7</ele>
        <time>2019-08-19T11:50:35Z</time>
        <sat>12</sat>
      </trkpt>
      <trkpt lat="42.495359" lon="-2.396690">
        <ele>402.7</ele>
        <time>2019-08-19T11:50:39Z</time>
        <sat>12</sat>
      </trkpt>
      <trkpt lat="42.495358" lon="-2.396799">
        <ele>402.6</ele>
        <time>2019-08-19T11:50:45Z</time>
        <sat>12</sat>
      </trkpt>
      <trkpt lat="42.495348" lon="-2.396891">
        <ele>402.5</ele>
        <time>2019-08-19T11:50:50Z</time>
        <sat>12</sat>
      </trkpt>
      <trkpt lat="42.495348" lon="-2.397008">
        <ele>402.5</ele>
        <time>2019-08-19T11:50:57Z</time>
        <sat>12</sat>
      </trkpt>
      <trkpt lat="42.495328" lon="-2.397242">
        <ele>402.6</ele>
        <time>2019-08-19T11:51:17Z</time>
        <sat>12</sat>
      </trkpt>
      <trkpt lat="42.495315" lon="-2.397338">
        <ele>402.6</ele>
        <time>2019-08-19T11:51:25Z</time>
        <sat>12</sat>
      </trkpt>
      <trkpt lat="42.495273" lon="-2.397535">
        <ele>402.5</ele>
        <time>2019-08-19T11:51:39Z</time>
        <sat>12</sat>
      </trkpt>
      <trkpt lat="42.495253" lon="-2.397637">
        <ele>402.4</ele>
        <time>2019-08-19T11:51:45Z</time>
        <sat>12</sat>
      </trkpt>
      <trkpt lat="42.495214" lon="-2.397841">
        <ele>402.1</ele>
        <time>2019-08-19T11:51:56Z</time>
        <sat>12</sat>
      </trkpt>
      <trkpt lat="42.495201" lon="-2.397997">
        <ele>402.1</ele>
        <time>2019-08-19T11:52:04Z</time>
        <sat>12</sat>
      </trkpt>
      <trkpt lat="42.495161" lon="-2.398175">
        <ele>402.2</ele>
        <time>2019-08-19T11:52:14Z</time>
        <sat>12</sat>
      </trkpt>
      <trkpt lat="42.495143" lon="-2.398267">
        <ele>402.3</ele>
        <time>2019-08-19T11:52:19Z</time>
        <sat>12</sat>
      </trkpt>
      <trkpt lat="42.495123" lon="-2.398337">
        <ele>402.2</ele>
        <time>2019-08-19T11:52:23Z</time>
        <sat>12</sat>
      </trkpt>
      <trkpt lat="42.495129" lon="-2.398412">
        <ele>402.2</ele>
        <time>2019-08-19T11:52:27Z</time>
        <sat>12</sat>
      </trkpt>
      <trkpt lat="42.495136" lon="-2.398452">
        <ele>402.2</ele>
        <time>2019-08-19T11:52:29Z</time>
        <sat>12</sat>
      </trkpt>
      <trkpt lat="42.495123" lon="-2.398545">
        <ele>402.3</ele>
        <time>2019-08-19T11:52:34Z</time>
        <sat>12</sat>
      </trkpt>
      <trkpt lat="42.495077" lon="-2.398723">
        <ele>402.5</ele>
        <time>2019-08-19T11:52:44Z</time>
        <sat>12</sat>
      </trkpt>
      <trkpt lat="42.495069" lon="-2.398779">
        <ele>402.5</ele>
        <time>2019-08-19T11:52:47Z</time>
        <sat>11</sat>
      </trkpt>
      <trkpt lat="42.495008" lon="-2.398969">
        <ele>402.6</ele>
        <time>2019-08-19T11:52:58Z</time>
        <sat>12</sat>
      </trkpt>
      <trkpt lat="42.494986" lon="-2.399073">
        <ele>402.7</ele>
        <time>2019-08-19T11:53:04Z</time>
        <sat>12</sat>
      </trkpt>
      <trkpt lat="42.494952" lon="-2.399175">
        <ele>402.7</ele>
        <time>2019-08-19T11:53:10Z</time>
        <sat>12</sat>
      </trkpt>
      <trkpt lat="42.494938" lon="-2.399243">
        <ele>402.7</ele>
        <time>2019-08-19T11:53:14Z</time>
        <sat>12</sat>
      </trkpt>
      <trkpt lat="42.494864" lon="-2.399426">
        <ele>402.6</ele>
        <time>2019-08-19T11:53:25Z</time>
        <sat>12</sat>
      </trkpt>
      <trkpt lat="42.494843" lon="-2.399492">
        <ele>402.6</ele>
        <time>2019-08-19T11:53:29Z</time>
        <sat>12</sat>
      </trkpt>
      <trkpt lat="42.494806" lon="-2.399576">
        <ele>402.6</ele>
        <time>2019-08-19T11:53:34Z</time>
        <sat>12</sat>
      </trkpt>
      <trkpt lat="42.494780" lon="-2.399681">
        <ele>402.7</ele>
        <time>2019-08-19T11:53:40Z</time>
        <sat>12</sat>
      </trkpt>
      <trkpt lat="42.494717" lon="-2.399822">
        <ele>402.6</ele>
        <time>2019-08-19T11:53:49Z</time>
        <sat>12</sat>
      </trkpt>
      <trkpt lat="42.494659" lon="-2.399948">
        <ele>402.7</ele>
        <time>2019-08-19T11:53:57Z</time>
        <sat>12</sat>
      </trkpt>
      <trkpt lat="42.494596" lon="-2.400019">
        <ele>402.8</ele>
        <time>2019-08-19T11:54:03Z</time>
        <sat>12</sat>
      </trkpt>
      <trkpt lat="42.494524" lon="-2.400148">
        <ele>403.0</ele>
        <time>2019-08-19T11:54:12Z</time>
        <sat>12</sat>
      </trkpt>
      <trkpt lat="42.494496" lon="-2.400209">
        <ele>403.0</ele>
        <time>2019-08-19T11:54:16Z</time>
        <sat>12</sat>
      </trkpt>
      <trkpt lat="42.494444" lon="-2.400298">
        <ele>403.2</ele>
        <time>2019-08-19T11:54:22Z</time>
        <sat>12</sat>
      </trkpt>
      <trkpt lat="42.494418" lon="-2.400358">
        <ele>403.3</ele>
        <time>2019-08-19T11:54:26Z</time>
        <sat>12</sat>
      </trkpt>
      <trkpt lat="42.494364" lon="-2.400444">
        <ele>403.4</ele>
        <time>2019-08-19T11:54:33Z</time>
        <sat>12</sat>
      </trkpt>
      <trkpt lat="42.494320" lon="-2.400549">
        <ele>403.7</ele>
        <time>2019-08-19T11:54:43Z</time>
        <sat>12</sat>
      </trkpt>
      <trkpt lat="42.494304" lon="-2.400576">
        <ele>403.8</ele>
        <time>2019-08-19T11:54:45Z</time>
        <sat>12</sat>
      </trkpt>
      <trkpt lat="42.494251" lon="-2.400642">
        <ele>403.8</ele>
        <time>2019-08-19T11:54:50Z</time>
        <sat>12</sat>
      </trkpt>
      <trkpt lat="42.494215" lon="-2.400717">
        <ele>404.0</ele>
        <time>2019-08-19T11:54:55Z</time>
        <sat>12</sat>
      </trkpt>
      <trkpt lat="42.494177" lon="-2.400769">
        <ele>404.3</ele>
        <time>2019-08-19T11:54:59Z</time>
        <sat>12</sat>
      </trkpt>
      <trkpt lat="42.494103" lon="-2.400943">
        <ele>406.1</ele>
        <time>2019-08-19T11:55:17Z</time>
        <sat>12</sat>
      </trkpt>
      <trkpt lat="42.494092" lon="-2.400987">
        <ele>406.4</ele>
        <time>2019-08-19T11:55:20Z</time>
        <sat>12</sat>
      </trkpt>
      <trkpt lat="42.494031" lon="-2.401162">
        <ele>407.6</ele>
        <time>2019-08-19T11:55:32Z</time>
        <sat>12</sat>
      </trkpt>
      <trkpt lat="42.493977" lon="-2.401362">
        <ele>409.4</ele>
        <time>2019-08-19T11:55:50Z</time>
        <sat>12</sat>
      </trkpt>
      <trkpt lat="42.493921" lon="-2.401552">
        <ele>410.6</ele>
        <time>2019-08-19T11:56:02Z</time>
        <sat>12</sat>
      </trkpt>
      <trkpt lat="42.493878" lon="-2.401656">
        <ele>411.1</ele>
        <time>2019-08-19T11:56:10Z</time>
        <sat>12</sat>
      </trkpt>
      <trkpt lat="42.493875" lon="-2.401752">
        <ele>412.1</ele>
        <time>2019-08-19T11:56:23Z</time>
        <sat>12</sat>
      </trkpt>
      <trkpt lat="42.493899" lon="-2.401826">
        <ele>412.4</ele>
        <time>2019-08-19T11:56:49Z</time>
        <sat>12</sat>
      </trkpt>
      <trkpt lat="42.493914" lon="-2.401895">
        <ele>412.7</ele>
        <time>2019-08-19T11:56:53Z</time>
        <sat>12</sat>
      </trkpt>
      <trkpt lat="42.493946" lon="-2.401982">
        <ele>413.1</ele>
        <time>2019-08-19T11:57:07Z</time>
        <sat>12</sat>
      </trkpt>
      <trkpt lat="42.493970" lon="-2.402080">
        <ele>413.2</ele>
        <time>2019-08-19T11:57:13Z</time>
        <sat>12</sat>
      </trkpt>
      <trkpt lat="42.494053" lon="-2.402304">
        <ele>414.1</ele>
        <time>2019-08-19T11:57:28Z</time>
        <sat>12</sat>
      </trkpt>
      <trkpt lat="42.494088" lon="-2.402356">
        <ele>414.4</ele>
        <time>2019-08-19T11:57:32Z</time>
        <sat>12</sat>
      </trkpt>
      <trkpt lat="42.494120" lon="-2.402435">
        <ele>414.7</ele>
        <time>2019-08-19T11:57:37Z</time>
        <sat>12</sat>
      </trkpt>
      <trkpt lat="42.494201" lon="-2.402591">
        <ele>415.5</ele>
        <time>2019-08-19T11:57:48Z</time>
        <sat>12</sat>
      </trkpt>
      <trkpt lat="42.494272" lon="-2.402788">
        <ele>416.4</ele>
        <time>2019-08-19T11:58:02Z</time>
        <sat>12</sat>
      </trkpt>
      <trkpt lat="42.494275" lon="-2.402913">
        <ele>416.6</ele>
        <time>2019-08-19T11:58:09Z</time>
        <sat>12</sat>
      </trkpt>
      <trkpt lat="42.494239" lon="-2.403079">
        <ele>417.3</ele>
        <time>2019-08-19T11:58:20Z</time>
        <sat>12</sat>
      </trkpt>
      <trkpt lat="42.494243" lon="-2.403198">
        <ele>418.3</ele>
        <time>2019-08-19T11:58:28Z</time>
        <sat>12</sat>
      </trkpt>
      <trkpt lat="42.494217" lon="-2.403318">
        <ele>419.1</ele>
        <time>2019-08-19T11:58:36Z</time>
        <sat>12</sat>
      </trkpt>
      <trkpt lat="42.494193" lon="-2.403378">
        <ele>419.4</ele>
        <time>2019-08-19T11:58:40Z</time>
        <sat>12</sat>
      </trkpt>
      <trkpt lat="42.494152" lon="-2.403515">
        <ele>419.8</ele>
        <time>2019-08-19T11:58:48Z</time>
        <sat>12</sat>
      </trkpt>
      <trkpt lat="42.494121" lon="-2.403573">
        <ele>419.9</ele>
        <time>2019-08-19T11:58:52Z</time>
        <sat>12</sat>
      </trkpt>
      <trkpt lat="42.494053" lon="-2.403744">
        <ele>420.4</ele>
        <time>2019-08-19T11:59:11Z</time>
        <sat>11</sat>
      </trkpt>
      <trkpt lat="42.494012" lon="-2.403827">
        <ele>420.4</ele>
        <time>2019-08-19T11:59:16Z</time>
        <sat>11</sat>
      </trkpt>
      <trkpt lat="42.493988" lon="-2.403895">
        <ele>420.5</ele>
        <time>2019-08-19T11:59:20Z</time>
        <sat>11</sat>
      </trkpt>
      <trkpt lat="42.493970" lon="-2.403983">
        <ele>420.4</ele>
        <time>2019-08-19T11:59:25Z</time>
        <sat>12</sat>
      </trkpt>
      <trkpt lat="42.493968" lon="-2.404036">
        <ele>420.4</ele>
        <time>2019-08-19T11:59:28Z</time>
        <sat>12</sat>
      </trkpt>
      <trkpt lat="42.493983" lon="-2.404134">
        <ele>420.4</ele>
        <time>2019-08-19T11:59:34Z</time>
        <sat>12</sat>
      </trkpt>
      <trkpt lat="42.493969" lon="-2.404234">
        <ele>420.3</ele>
        <time>2019-08-19T11:59:43Z</time>
        <sat>11</sat>
      </trkpt>
      <trkpt lat="42.493937" lon="-2.404275">
        <ele>420.2</ele>
        <time>2019-08-19T11:59:48Z</time>
        <sat>12</sat>
      </trkpt>
      <trkpt lat="42.493902" lon="-2.404333">
        <ele>420.6</ele>
        <time>2019-08-19T11:59:55Z</time>
        <sat>12</sat>
      </trkpt>
      <trkpt lat="42.493929" lon="-2.404403">
        <ele>421.7</ele>
        <time>2019-08-19T12:00:03Z</time>
        <sat>12</sat>
      </trkpt>
      <trkpt lat="42.494000" lon="-2.404485">
        <ele>422.4</ele>
        <time>2019-08-19T12:00:10Z</time>
        <sat>12</sat>
      </trkpt>
      <trkpt lat="42.494040" lon="-2.404547">
        <ele>422.8</ele>
        <time>2019-08-19T12:00:15Z</time>
        <sat>12</sat>
      </trkpt>
      <trkpt lat="42.494016" lon="-2.404614">
        <ele>422.6</ele>
        <time>2019-08-19T12:00:24Z</time>
        <sat>12</sat>
      </trkpt>
      <trkpt lat="42.493960" lon="-2.404695">
        <ele>420.9</ele>
        <time>2019-08-19T12:00:37Z</time>
        <sat>12</sat>
      </trkpt>
      <trkpt lat="42.493855" lon="-2.404883">
        <ele>419.3</ele>
        <time>2019-08-19T12:00:50Z</time>
        <sat>12</sat>
      </trkpt>
      <trkpt lat="42.493802" lon="-2.404984">
        <ele>419.0</ele>
        <time>2019-08-19T12:00:57Z</time>
        <sat>12</sat>
      </trkpt>
      <trkpt lat="42.493764" lon="-2.405032">
        <ele>418.8</ele>
        <time>2019-08-19T12:01:01Z</time>
        <sat>12</sat>
      </trkpt>
      <trkpt lat="42.493715" lon="-2.405113">
        <ele>418.7</ele>
        <time>2019-08-19T12:01:07Z</time>
        <sat>12</sat>
      </trkpt>
      <trkpt lat="42.493686" lon="-2.405146">
        <ele>418.6</ele>
        <time>2019-08-19T12:01:10Z</time>
        <sat>12</sat>
      </trkpt>
      <trkpt lat="42.493650" lon="-2.405213">
        <ele>418.3</ele>
        <time>2019-08-19T12:01:15Z</time>
        <sat>12</sat>
      </trkpt>
      <trkpt lat="42.493625" lon="-2.405271">
        <ele>418.0</ele>
        <time>2019-08-19T12:01:19Z</time>
        <sat>12</sat>
      </trkpt>
      <trkpt lat="42.493588" lon="-2.405322">
        <ele>417.9</ele>
        <time>2019-08-19T12:01:23Z</time>
        <sat>12</sat>
      </trkpt>
      <trkpt lat="42.493483" lon="-2.405512">
        <ele>417.8</ele>
        <time>2019-08-19T12:01:37Z</time>
        <sat>12</sat>
      </trkpt>
      <trkpt lat="42.493425" lon="-2.405638">
        <ele>417.7</ele>
        <time>2019-08-19T12:01:46Z</time>
        <sat>12</sat>
      </trkpt>
      <trkpt lat="42.493349" lon="-2.405786">
        <ele>417.0</ele>
        <time>2019-08-19T12:01:57Z</time>
        <sat>12</sat>
      </trkpt>
      <trkpt lat="42.493319" lon="-2.405864">
        <ele>416.5</ele>
        <time>2019-08-19T12:02:02Z</time>
        <sat>12</sat>
      </trkpt>
      <trkpt lat="42.493302" lon="-2.405950">
        <ele>415.9</ele>
        <time>2019-08-19T12:02:07Z</time>
        <sat>12</sat>
      </trkpt>
      <trkpt lat="42.493298" lon="-2.406073">
        <ele>415.3</ele>
        <time>2019-08-19T12:02:14Z</time>
        <sat>12</sat>
      </trkpt>
      <trkpt lat="42.493228" lon="-2.406266">
        <ele>414.5</ele>
        <time>2019-08-19T12:02:27Z</time>
        <sat>12</sat>
      </trkpt>
      <trkpt lat="42.493210" lon="-2.406304">
        <ele>414.3</ele>
        <time>2019-08-19T12:02:30Z</time>
        <sat>12</sat>
      </trkpt>
      <trkpt lat="42.493183" lon="-2.406413">
        <ele>413.9</ele>
        <time>2019-08-19T12:02:37Z</time>
        <sat>12</sat>
      </trkpt>
      <trkpt lat="42.493163" lon="-2.406461">
        <ele>413.7</ele>
        <time>2019-08-19T12:02:40Z</time>
        <sat>12</sat>
      </trkpt>
      <trkpt lat="42.493135" lon="-2.406607">
        <ele>412.9</ele>
        <time>2019-08-19T12:02:49Z</time>
        <sat>12</sat>
      </trkpt>
      <trkpt lat="42.493104" lon="-2.406690">
        <ele>412.6</ele>
        <time>2019-08-19T12:02:54Z</time>
        <sat>12</sat>
      </trkpt>
      <trkpt lat="42.493089" lon="-2.406762">
        <ele>412.5</ele>
        <time>2019-08-19T12:02:58Z</time>
        <sat>12</sat>
      </trkpt>
      <trkpt lat="42.493033" lon="-2.406952">
        <ele>412.1</ele>
        <time>2019-08-19T12:03:11Z</time>
        <sat>12</sat>
      </trkpt>
      <trkpt lat="42.492995" lon="-2.407110">
        <ele>411.9</ele>
        <time>2019-08-19T12:03:20Z</time>
        <sat>12</sat>
      </trkpt>
      <trkpt lat="42.492942" lon="-2.407302">
        <ele>411.8</ele>
        <time>2019-08-19T12:03:33Z</time>
        <sat>12</sat>
      </trkpt>
      <trkpt lat="42.492917" lon="-2.407432">
        <ele>411.9</ele>
        <time>2019-08-19T12:03:42Z</time>
        <sat>12</sat>
      </trkpt>
      <trkpt lat="42.492849" lon="-2.407607">
        <ele>412.1</ele>
        <time>2019-08-19T12:03:51Z</time>
        <sat>12</sat>
      </trkpt>
      <trkpt lat="42.492821" lon="-2.407707">
        <ele>412.0</ele>
        <time>2019-08-19T12:03:57Z</time>
        <sat>12</sat>
      </trkpt>
      <trkpt lat="42.492799" lon="-2.407743">
        <ele>412.1</ele>
        <time>2019-08-19T12:04:00Z</time>
        <sat>12</sat>
      </trkpt>
      <trkpt lat="42.492780" lon="-2.407838">
        <ele>412.1</ele>
        <time>2019-08-19T12:04:07Z</time>
        <sat>12</sat>
      </trkpt>
      <trkpt lat="42.492761" lon="-2.407885">
        <ele>412.1</ele>
        <time>2019-08-19T12:04:10Z</time>
        <sat>12</sat>
      </trkpt>
      <trkpt lat="42.492732" lon="-2.408018">
        <ele>411.8</ele>
        <time>2019-08-19T12:04:18Z</time>
        <sat>12</sat>
      </trkpt>
      <trkpt lat="42.492708" lon="-2.408089">
        <ele>411.7</ele>
        <time>2019-08-19T12:04:23Z</time>
        <sat>12</sat>
      </trkpt>
      <trkpt lat="42.492685" lon="-2.408199">
        <ele>411.6</ele>
        <time>2019-08-19T12:04:29Z</time>
        <sat>12</sat>
      </trkpt>
      <trkpt lat="42.492614" lon="-2.408420">
        <ele>411.3</ele>
        <time>2019-08-19T12:04:43Z</time>
        <sat>12</sat>
      </trkpt>
      <trkpt lat="42.492591" lon="-2.408523">
        <ele>411.1</ele>
        <time>2019-08-19T12:04:49Z</time>
        <sat>12</sat>
      </trkpt>
      <trkpt lat="42.492562" lon="-2.408588">
        <ele>411.0</ele>
        <time>2019-08-19T12:04:53Z</time>
        <sat>12</sat>
      </trkpt>
      <trkpt lat="42.492510" lon="-2.408819">
        <ele>410.4</ele>
        <time>2019-08-19T12:05:05Z</time>
        <sat>12</sat>
      </trkpt>
      <trkpt lat="42.492462" lon="-2.409005">
        <ele>409.7</ele>
        <time>2019-08-19T12:05:15Z</time>
        <sat>12</sat>
      </trkpt>
      <trkpt lat="42.492419" lon="-2.409127">
        <ele>409.4</ele>
        <time>2019-08-19T12:05:22Z</time>
        <sat>12</sat>
      </trkpt>
      <trkpt lat="42.492395" lon="-2.409289">
        <ele>409.2</ele>
        <time>2019-08-19T12:05:31Z</time>
        <sat>12</sat>
      </trkpt>
      <trkpt lat="42.492346" lon="-2.409488">
        <ele>408.7</ele>
        <time>2019-08-19T12:05:43Z</time>
        <sat>12</sat>
      </trkpt>
      <trkpt lat="42.492298" lon="-2.409599">
        <ele>408.4</ele>
        <time>2019-08-19T12:05:50Z</time>
        <sat>12</sat>
      </trkpt>
      <trkpt lat="42.492248" lon="-2.409794">
        <ele>408.2</ele>
        <time>2019-08-19T12:06:03Z</time>
        <sat>12</sat>
      </trkpt>
      <trkpt lat="42.492226" lon="-2.409897">
        <ele>408.0</ele>
        <time>2019-08-19T12:06:09Z</time>
        <sat>12</sat>
      </trkpt>
      <trkpt lat="42.492193" lon="-2.409986">
        <ele>407.8</ele>
        <time>2019-08-19T12:06:14Z</time>
        <sat>12</sat>
      </trkpt>
      <trkpt lat="42.492152" lon="-2.410137">
        <ele>407.5</ele>
        <time>2019-08-19T12:06:22Z</time>
        <sat>12</sat>
      </trkpt>
      <trkpt lat="42.492112" lon="-2.410227">
        <ele>407.1</ele>
        <time>2019-08-19T12:06:28Z</time>
        <sat>12</sat>
      </trkpt>
      <trkpt lat="42.492093" lon="-2.410328">
        <ele>406.7</ele>
        <time>2019-08-19T12:06:34Z</time>
        <sat>12</sat>
      </trkpt>
      <trkpt lat="42.492047" lon="-2.410456">
        <ele>406.5</ele>
        <time>2019-08-19T12:06:42Z</time>
        <sat>12</sat>
      </trkpt>
      <trkpt lat="42.492036" lon="-2.410525">
        <ele>406.5</ele>
        <time>2019-08-19T12:06:46Z</time>
        <sat>12</sat>
      </trkpt>
      <trkpt lat="42.492007" lon="-2.410617">
        <ele>406.5</ele>
        <time>2019-08-19T12:06:51Z</time>
        <sat>12</sat>
      </trkpt>
      <trkpt lat="42.491986" lon="-2.410731">
        <ele>406.3</ele>
        <time>2019-08-19T12:06:58Z</time>
        <sat>12</sat>
      </trkpt>
      <trkpt lat="42.491948" lon="-2.410858">
        <ele>405.7</ele>
        <time>2019-08-19T12:07:07Z</time>
        <sat>12</sat>
      </trkpt>
      <trkpt lat="42.491881" lon="-2.411052">
        <ele>404.8</ele>
        <time>2019-08-19T12:07:20Z</time>
        <sat>12</sat>
      </trkpt>
      <trkpt lat="42.491875" lon="-2.411122">
        <ele>404.5</ele>
        <time>2019-08-19T12:07:25Z</time>
        <sat>12</sat>
      </trkpt>
      <trkpt lat="42.491811" lon="-2.411343">
        <ele>404.9</ele>
        <time>2019-08-19T12:07:37Z</time>
        <sat>12</sat>
      </trkpt>
      <trkpt lat="42.491777" lon="-2.411430">
        <ele>405.2</ele>
        <time>2019-08-19T12:07:43Z</time>
        <sat>12</sat>
      </trkpt>
      <trkpt lat="42.491737" lon="-2.411616">
        <ele>404.6</ele>
        <time>2019-08-19T12:07:54Z</time>
        <sat>12</sat>
      </trkpt>
      <trkpt lat="42.491716" lon="-2.411692">
        <ele>404.3</ele>
        <time>2019-08-19T12:07:59Z</time>
        <sat>12</sat>
      </trkpt>
      <trkpt lat="42.491651" lon="-2.411886">
        <ele>403.3</ele>
        <time>2019-08-19T12:08:09Z</time>
        <sat>12</sat>
      </trkpt>
      <trkpt lat="42.491621" lon="-2.412012">
        <ele>402.9</ele>
        <time>2019-08-19T12:08:15Z</time>
        <sat>12</sat>
      </trkpt>
      <trkpt lat="42.491598" lon="-2.412070">
        <ele>402.6</ele>
        <time>2019-08-19T12:08:18Z</time>
        <sat>12</sat>
      </trkpt>
      <trkpt lat="42.491543" lon="-2.412257">
        <ele>401.6</ele>
        <time>2019-08-19T12:08:29Z</time>
        <sat>11</sat>
      </trkpt>
      <trkpt lat="42.491495" lon="-2.412446">
        <ele>401.2</ele>
        <time>2019-08-19T12:08:39Z</time>
        <sat>11</sat>
      </trkpt>
      <trkpt lat="42.491472" lon="-2.412656">
        <ele>400.8</ele>
        <time>2019-08-19T12:08:49Z</time>
        <sat>11</sat>
      </trkpt>
      <trkpt lat="42.491445" lon="-2.412843">
        <ele>400.4</ele>
        <time>2019-08-19T12:08:59Z</time>
        <sat>11</sat>
      </trkpt>
      <trkpt lat="42.491387" lon="-2.413025">
        <ele>400.3</ele>
        <time>2019-08-19T12:09:10Z</time>
        <sat>11</sat>
      </trkpt>
      <trkpt lat="42.491361" lon="-2.413093">
        <ele>400.0</ele>
        <time>2019-08-19T12:09:24Z</time>
        <sat>11</sat>
      </trkpt>
      <trkpt lat="42.491335" lon="-2.413223">
        <ele>399.9</ele>
        <time>2019-08-19T12:09:31Z</time>
        <sat>10</sat>
      </trkpt>
      <trkpt lat="42.491265" lon="-2.413453">
        <ele>399.4</ele>
        <time>2019-08-19T12:09:45Z</time>
        <sat>10</sat>
      </trkpt>
      <trkpt lat="42.491239" lon="-2.413568">
        <ele>399.3</ele>
        <time>2019-08-19T12:09:56Z</time>
        <sat>11</sat>
      </trkpt>
      <trkpt lat="42.491230" lon="-2.413683">
        <ele>399.2</ele>
        <time>2019-08-19T12:10:02Z</time>
        <sat>11</sat>
      </trkpt>
      <trkpt lat="42.491242" lon="-2.413811">
        <ele>399.1</ele>
        <time>2019-08-19T12:10:09Z</time>
        <sat>11</sat>
      </trkpt>
      <trkpt lat="42.491230" lon="-2.413923">
        <ele>399.1</ele>
        <time>2019-08-19T12:10:15Z</time>
        <sat>11</sat>
      </trkpt>
      <trkpt lat="42.491205" lon="-2.413990">
        <ele>399.0</ele>
        <time>2019-08-19T12:10:19Z</time>
        <sat>11</sat>
      </trkpt>
      <trkpt lat="42.491147" lon="-2.414065">
        <ele>398.9</ele>
        <time>2019-08-19T12:10:25Z</time>
        <sat>11</sat>
      </trkpt>
      <trkpt lat="42.491077" lon="-2.414201">
        <ele>398.9</ele>
        <time>2019-08-19T12:10:34Z</time>
        <sat>11</sat>
      </trkpt>
      <trkpt lat="42.491025" lon="-2.414267">
        <ele>398.9</ele>
        <time>2019-08-19T12:10:39Z</time>
        <sat>11</sat>
      </trkpt>
      <trkpt lat="42.491001" lon="-2.414316">
        <ele>398.9</ele>
        <time>2019-08-19T12:10:42Z</time>
        <sat>11</sat>
      </trkpt>
      <trkpt lat="42.490972" lon="-2.414395">
        <ele>398.9</ele>
        <time>2019-08-19T12:10:48Z</time>
        <sat>11</sat>
      </trkpt>
      <trkpt lat="42.490964" lon="-2.414459">
        <ele>398.9</ele>
        <time>2019-08-19T12:11:08Z</time>
        <sat>11</sat>
      </trkpt>
      <trkpt lat="42.490940" lon="-2.414569">
        <ele>398.9</ele>
        <time>2019-08-19T12:11:14Z</time>
        <sat>11</sat>
      </trkpt>
      <trkpt lat="42.490874" lon="-2.414779">
        <ele>399.0</ele>
        <time>2019-08-19T12:11:26Z</time>
        <sat>11</sat>
      </trkpt>
      <trkpt lat="42.490855" lon="-2.414852">
        <ele>399.0</ele>
        <time>2019-08-19T12:11:30Z</time>
        <sat>11</sat>
      </trkpt>
      <trkpt lat="42.490811" lon="-2.414991">
        <ele>399.0</ele>
        <time>2019-08-19T12:11:38Z</time>
        <sat>11</sat>
      </trkpt>
      <trkpt lat="42.490794" lon="-2.415101">
        <ele>399.0</ele>
        <time>2019-08-19T12:11:44Z</time>
        <sat>11</sat>
      </trkpt>
      <trkpt lat="42.490769" lon="-2.415172">
        <ele>399.1</ele>
        <time>2019-08-19T12:11:48Z</time>
        <sat>11</sat>
      </trkpt>
      <trkpt lat="42.490706" lon="-2.415397">
        <ele>399.4</ele>
        <time>2019-08-19T12:12:05Z</time>
        <sat>11</sat>
      </trkpt>
      <trkpt lat="42.490681" lon="-2.415446">
        <ele>399.4</ele>
        <time>2019-08-19T12:12:08Z</time>
        <sat>11</sat>
      </trkpt>
      <trkpt lat="42.490644" lon="-2.415502">
        <ele>399.4</ele>
        <time>2019-08-19T12:12:12Z</time>
        <sat>11</sat>
      </trkpt>
      <trkpt lat="42.490598" lon="-2.415555">
        <ele>399.7</ele>
        <time>2019-08-19T12:12:27Z</time>
        <sat>11</sat>
      </trkpt>
      <trkpt lat="42.490565" lon="-2.415645">
        <ele>399.9</ele>
        <time>2019-08-19T12:12:41Z</time>
        <sat>10</sat>
      </trkpt>
      <trkpt lat="42.490557" lon="-2.415689">
        <ele>398.7</ele>
        <time>2019-08-19T12:13:00Z</time>
        <sat>11</sat>
      </trkpt>
      <trkpt lat="42.490535" lon="-2.415752">
        <ele>397.9</ele>
        <time>2019-08-19T12:13:05Z</time>
        <sat>10</sat>
      </trkpt>
      <trkpt lat="42.490522" lon="-2.415923">
        <ele>398.4</ele>
        <time>2019-08-19T12:13:15Z</time>
        <sat>11</sat>
      </trkpt>
      <trkpt lat="42.490509" lon="-2.416007">
        <ele>397.8</ele>
        <time>2019-08-19T12:13:20Z</time>
        <sat>11</sat>
      </trkpt>
      <trkpt lat="42.490504" lon="-2.416096">
        <ele>397.1</ele>
        <time>2019-08-19T12:13:25Z</time>
        <sat>11</sat>
      </trkpt>
      <trkpt lat="42.490475" lon="-2.416216">
        <ele>398.4</ele>
        <time>2019-08-19T12:13:33Z</time>
        <sat>11</sat>
      </trkpt>
      <trkpt lat="42.490460" lon="-2.416386">
        <ele>400.0</ele>
        <time>2019-08-19T12:13:43Z</time>
        <sat>11</sat>
      </trkpt>
      <trkpt lat="42.490441" lon="-2.416470">
        <ele>400.6</ele>
        <time>2019-08-19T12:13:47Z</time>
        <sat>11</sat>
      </trkpt>
      <trkpt lat="42.490399" lon="-2.416556">
        <ele>400.9</ele>
        <time>2019-08-19T12:13:52Z</time>
        <sat>11</sat>
      </trkpt>
      <trkpt lat="42.490374" lon="-2.416628">
        <ele>400.9</ele>
        <time>2019-08-19T12:13:56Z</time>
        <sat>11</sat>
      </trkpt>
      <trkpt lat="42.490357" lon="-2.416728">
        <ele>400.9</ele>
        <time>2019-08-19T12:14:01Z</time>
        <sat>11</sat>
      </trkpt>
      <trkpt lat="42.490333" lon="-2.416818">
        <ele>400.9</ele>
        <time>2019-08-19T12:14:06Z</time>
        <sat>10</sat>
      </trkpt>
      <trkpt lat="42.490305" lon="-2.416887">
        <ele>400.8</ele>
        <time>2019-08-19T12:14:10Z</time>
        <sat>11</sat>
      </trkpt>
      <trkpt lat="42.490269" lon="-2.417033">
        <ele>400.7</ele>
        <time>2019-08-19T12:14:18Z</time>
        <sat>11</sat>
      </trkpt>
      <trkpt lat="42.490232" lon="-2.417128">
        <ele>399.6</ele>
        <time>2019-08-19T12:14:24Z</time>
        <sat>10</sat>
      </trkpt>
      <trkpt lat="42.490223" lon="-2.417177">
        <ele>401.0</ele>
        <time>2019-08-19T12:14:32Z</time>
        <sat>11</sat>
      </trkpt>
      <trkpt lat="42.490188" lon="-2.417266">
        <ele>401.2</ele>
        <time>2019-08-19T12:14:38Z</time>
        <sat>11</sat>
      </trkpt>
      <trkpt lat="42.490139" lon="-2.417438">
        <ele>400.9</ele>
        <time>2019-08-19T12:14:48Z</time>
        <sat>11</sat>
      </trkpt>
      <trkpt lat="42.490079" lon="-2.417595">
        <ele>400.8</ele>
        <time>2019-08-19T12:14:58Z</time>
        <sat>11</sat>
      </trkpt>
      <trkpt lat="42.490047" lon="-2.417720">
        <ele>400.8</ele>
        <time>2019-08-19T12:15:05Z</time>
        <sat>11</sat>
      </trkpt>
      <trkpt lat="42.490027" lon="-2.417769">
        <ele>400.9</ele>
        <time>2019-08-19T12:15:08Z</time>
        <sat>11</sat>
      </trkpt>
      <trkpt lat="42.489989" lon="-2.417967">
        <ele>401.0</ele>
        <time>2019-08-19T12:15:19Z</time>
        <sat>11</sat>
      </trkpt>
      <trkpt lat="42.489954" lon="-2.418084">
        <ele>401.1</ele>
        <time>2019-08-19T12:15:27Z</time>
        <sat>11</sat>
      </trkpt>
      <trkpt lat="42.489943" lon="-2.418160">
        <ele>401.6</ele>
        <time>2019-08-19T12:15:31Z</time>
        <sat>11</sat>
      </trkpt>
      <trkpt lat="42.489905" lon="-2.418267">
        <ele>401.8</ele>
        <time>2019-08-19T12:15:38Z</time>
        <sat>11</sat>
      </trkpt>
      <trkpt lat="42.489852" lon="-2.418346">
        <ele>401.8</ele>
        <time>2019-08-19T12:15:44Z</time>
        <sat>11</sat>
      </trkpt>
      <trkpt lat="42.489793" lon="-2.418390">
        <ele>401.9</ele>
        <time>2019-08-19T12:15:49Z</time>
        <sat>11</sat>
      </trkpt>
      <trkpt lat="42.489727" lon="-2.418393">
        <ele>401.9</ele>
        <time>2019-08-19T12:15:57Z</time>
        <sat>9</sat>
      </trkpt>
      <trkpt lat="42.489683" lon="-2.418375">
        <ele>401.9</ele>
        <time>2019-08-19T12:15:59Z</time>
        <sat>10</sat>
      </trkpt>
      <trkpt lat="42.489605" lon="-2.418398">
        <ele>402.0</ele>
        <time>2019-08-19T12:16:03Z</time>
        <sat>11</sat>
      </trkpt>
      <trkpt lat="42.489558" lon="-2.418458">
        <ele>402.0</ele>
        <time>2019-08-19T12:16:07Z</time>
        <sat>11</sat>
      </trkpt>
      <trkpt lat="42.489488" lon="-2.418521">
        <ele>402.2</ele>
        <time>2019-08-19T12:16:13Z</time>
        <sat>11</sat>
      </trkpt>
      <trkpt lat="42.489435" lon="-2.418600">
        <ele>402.4</ele>
        <time>2019-08-19T12:16:19Z</time>
        <sat>11</sat>
      </trkpt>
      <trkpt lat="42.489336" lon="-2.418685">
        <ele>402.7</ele>
        <time>2019-08-19T12:16:27Z</time>
        <sat>11</sat>
      </trkpt>
      <trkpt lat="42.489300" lon="-2.418704">
        <ele>402.8</ele>
        <time>2019-08-19T12:16:30Z</time>
        <sat>11</sat>
      </trkpt>
      <trkpt lat="42.489262" lon="-2.418768">
        <ele>402.9</ele>
        <time>2019-08-19T12:16:35Z</time>
        <sat>11</sat>
      </trkpt>
      <trkpt lat="42.489215" lon="-2.418816">
        <ele>402.9</ele>
        <time>2019-08-19T12:16:39Z</time>
        <sat>11</sat>
      </trkpt>
      <trkpt lat="42.489176" lon="-2.418908">
        <ele>403.0</ele>
        <time>2019-08-19T12:16:44Z</time>
        <sat>11</sat>
      </trkpt>
      <trkpt lat="42.489167" lon="-2.418971">
        <ele>403.0</ele>
        <time>2019-08-19T12:16:47Z</time>
        <sat>11</sat>
      </trkpt>
      <trkpt lat="42.489142" lon="-2.419032">
        <ele>403.0</ele>
        <time>2019-08-19T12:16:51Z</time>
        <sat>11</sat>
      </trkpt>
      <trkpt lat="42.489130" lon="-2.419111">
        <ele>403.1</ele>
        <time>2019-08-19T12:16:55Z</time>
        <sat>11</sat>
      </trkpt>
      <trkpt lat="42.489114" lon="-2.419170">
        <ele>403.1</ele>
        <time>2019-08-19T12:16:58Z</time>
        <sat>11</sat>
      </trkpt>
      <trkpt lat="42.489124" lon="-2.419206">
        <ele>403.5</ele>
        <time>2019-08-19T12:20:14Z</time>
        <sat>11</sat>
      </trkpt>
      <trkpt lat="42.489143" lon="-2.419311">
        <ele>403.5</ele>
        <time>2019-08-19T12:20:22Z</time>
        <sat>11</sat>
      </trkpt>
      <trkpt lat="42.489140" lon="-2.419407">
        <ele>403.6</ele>
        <time>2019-08-19T12:20:27Z</time>
        <sat>10</sat>
      </trkpt>
      <trkpt lat="42.489152" lon="-2.419538">
        <ele>403.9</ele>
        <time>2019-08-19T12:20:35Z</time>
        <sat>11</sat>
      </trkpt>
      <trkpt lat="42.489149" lon="-2.419687">
        <ele>404.2</ele>
        <time>2019-08-19T12:20:43Z</time>
        <sat>10</sat>
      </trkpt>
      <trkpt lat="42.489162" lon="-2.419840">
        <ele>404.3</ele>
        <time>2019-08-19T12:20:51Z</time>
        <sat>11</sat>
      </trkpt>
      <trkpt lat="42.489156" lon="-2.419916">
        <ele>404.3</ele>
        <time>2019-08-19T12:20:55Z</time>
        <sat>11</sat>
      </trkpt>
      <trkpt lat="42.489137" lon="-2.420006">
        <ele>404.4</ele>
        <time>2019-08-19T12:21:00Z</time>
        <sat>11</sat>
      </trkpt>
      <trkpt lat="42.489085" lon="-2.420083">
        <ele>404.3</ele>
        <time>2019-08-19T12:21:07Z</time>
        <sat>11</sat>
      </trkpt>
      <trkpt lat="42.489000" lon="-2.420139">
        <ele>404.2</ele>
        <time>2019-08-19T12:21:16Z</time>
        <sat>9</sat>
      </trkpt>
      <trkpt lat="42.488938" lon="-2.420163">
        <ele>404.1</ele>
        <time>2019-08-19T12:21:21Z</time>
        <sat>11</sat>
      </trkpt>
      <trkpt lat="42.488888" lon="-2.420252">
        <ele>403.6</ele>
        <time>2019-08-19T12:21:27Z</time>
        <sat>11</sat>
      </trkpt>
      <trkpt lat="42.488861" lon="-2.420343">
        <ele>404.0</ele>
        <time>2019-08-19T12:21:32Z</time>
        <sat>11</sat>
      </trkpt>
      <trkpt lat="42.488853" lon="-2.420452">
        <ele>404.4</ele>
        <time>2019-08-19T12:21:38Z</time>
        <sat>11</sat>
      </trkpt>
      <trkpt lat="42.488833" lon="-2.420669">
        <ele>405.5</ele>
        <time>2019-08-19T12:21:50Z</time>
        <sat>11</sat>
      </trkpt>
      <trkpt lat="42.488821" lon="-2.420742">
        <ele>405.9</ele>
        <time>2019-08-19T12:21:54Z</time>
        <sat>11</sat>
      </trkpt>
      <trkpt lat="42.488802" lon="-2.420954">
        <ele>406.8</ele>
        <time>2019-08-19T12:22:06Z</time>
        <sat>11</sat>
      </trkpt>
      <trkpt lat="42.488785" lon="-2.421031">
        <ele>407.2</ele>
        <time>2019-08-19T12:22:10Z</time>
        <sat>11</sat>
      </trkpt>
      <trkpt lat="42.488784" lon="-2.421083">
        <ele>407.5</ele>
        <time>2019-08-19T12:22:13Z</time>
        <sat>11</sat>
      </trkpt>
      <trkpt lat="42.488745" lon="-2.421285">
        <ele>408.7</ele>
        <time>2019-08-19T12:22:25Z</time>
        <sat>10</sat>
      </trkpt>
      <trkpt lat="42.488734" lon="-2.421334">
        <ele>408.9</ele>
        <time>2019-08-19T12:22:28Z</time>
        <sat>11</sat>
      </trkpt>
      <trkpt lat="42.488716" lon="-2.421509">
        <ele>409.8</ele>
        <time>2019-08-19T12:22:38Z</time>
        <sat>10</sat>
      </trkpt>
      <trkpt lat="42.488703" lon="-2.421598">
        <ele>410.0</ele>
        <time>2019-08-19T12:22:43Z</time>
        <sat>11</sat>
      </trkpt>
      <trkpt lat="42.488652" lon="-2.421747">
        <ele>410.5</ele>
        <time>2019-08-19T12:22:54Z</time>
        <sat>11</sat>
      </trkpt>
      <trkpt lat="42.488605" lon="-2.421932">
        <ele>410.3</ele>
        <time>2019-08-19T12:23:05Z</time>
        <sat>11</sat>
      </trkpt>
      <trkpt lat="42.488579" lon="-2.422052">
        <ele>410.3</ele>
        <time>2019-08-19T12:23:12Z</time>
        <sat>11</sat>
      </trkpt>
      <trkpt lat="42.488523" lon="-2.422214">
        <ele>410.6</ele>
        <time>2019-08-19T12:23:28Z</time>
        <sat>11</sat>
      </trkpt>
      <trkpt lat="42.488493" lon="-2.422295">
        <ele>410.6</ele>
        <time>2019-08-19T12:23:33Z</time>
        <sat>11</sat>
      </trkpt>
      <trkpt lat="42.488438" lon="-2.422419">
        <ele>410.6</ele>
        <time>2019-08-19T12:23:41Z</time>
        <sat>11</sat>
      </trkpt>
      <trkpt lat="42.488419" lon="-2.422490">
        <ele>410.5</ele>
        <time>2019-08-19T12:23:45Z</time>
        <sat>11</sat>
      </trkpt>
      <trkpt lat="42.488326" lon="-2.422690">
        <ele>410.4</ele>
        <time>2019-08-19T12:23:58Z</time>
        <sat>10</sat>
      </trkpt>
      <trkpt lat="42.488289" lon="-2.422745">
        <ele>410.4</ele>
        <time>2019-08-19T12:24:02Z</time>
        <sat>11</sat>
      </trkpt>
      <trkpt lat="42.488233" lon="-2.422868">
        <ele>410.7</ele>
        <time>2019-08-19T12:24:10Z</time>
        <sat>11</sat>
      </trkpt>
      <trkpt lat="42.488224" lon="-2.422882">
        <ele>410.8</ele>
        <time>2019-08-19T12:24:11Z</time>
        <sat>11</sat>
      </trkpt>
      <trkpt lat="42.488127" lon="-2.423090">
        <ele>411.2</ele>
        <time>2019-08-19T12:24:24Z</time>
        <sat>11</sat>
      </trkpt>
      <trkpt lat="42.488037" lon="-2.423274">
        <ele>411.7</ele>
        <time>2019-08-19T12:24:36Z</time>
        <sat>10</sat>
      </trkpt>
      <trkpt lat="42.488013" lon="-2.423336">
        <ele>411.8</ele>
        <time>2019-08-19T12:24:40Z</time>
        <sat>10</sat>
      </trkpt>
      <trkpt lat="42.487968" lon="-2.423408">
        <ele>412.1</ele>
        <time>2019-08-19T12:24:45Z</time>
        <sat>11</sat>
      </trkpt>
      <trkpt lat="42.487941" lon="-2.423469">
        <ele>412.3</ele>
        <time>2019-08-19T12:24:49Z</time>
        <sat>11</sat>
      </trkpt>
      <trkpt lat="42.487905" lon="-2.423526">
        <ele>412.4</ele>
        <time>2019-08-19T12:24:53Z</time>
        <sat>10</sat>
      </trkpt>
      <trkpt lat="42.487879" lon="-2.423585">
        <ele>412.6</ele>
        <time>2019-08-19T12:24:57Z</time>
        <sat>11</sat>
      </trkpt>
      <trkpt lat="42.487822" lon="-2.423673">
        <ele>412.9</ele>
        <time>2019-08-19T12:25:03Z</time>
        <sat>10</sat>
      </trkpt>
      <trkpt lat="42.487734" lon="-2.423846">
        <ele>413.5</ele>
        <time>2019-08-19T12:25:14Z</time>
        <sat>11</sat>
      </trkpt>
      <trkpt lat="42.487718" lon="-2.423894">
        <ele>413.8</ele>
        <time>2019-08-19T12:25:17Z</time>
        <sat>11</sat>
      </trkpt>
      <trkpt lat="42.487611" lon="-2.424095">
        <ele>414.7</ele>
        <time>2019-08-19T12:25:31Z</time>
        <sat>10</sat>
      </trkpt>
      <trkpt lat="42.487567" lon="-2.424202">
        <ele>415.0</ele>
        <time>2019-08-19T12:25:38Z</time>
        <sat>11</sat>
      </trkpt>
      <trkpt lat="42.487527" lon="-2.424274">
        <ele>415.4</ele>
        <time>2019-08-19T12:25:43Z</time>
        <sat>11</sat>
      </trkpt>
      <trkpt lat="42.487503" lon="-2.424337">
        <ele>415.6</ele>
        <time>2019-08-19T12:25:47Z</time>
        <sat>11</sat>
      </trkpt>
      <trkpt lat="42.487467" lon="-2.424394">
        <ele>415.9</ele>
        <time>2019-08-19T12:25:51Z</time>
        <sat>11</sat>
      </trkpt>
      <trkpt lat="42.487427" lon="-2.424478">
        <ele>416.2</ele>
        <time>2019-08-19T12:25:56Z</time>
        <sat>10</sat>
      </trkpt>
      <trkpt lat="42.487367" lon="-2.424558">
        <ele>416.6</ele>
        <time>2019-08-19T12:26:02Z</time>
        <sat>11</sat>
      </trkpt>
      <trkpt lat="42.487329" lon="-2.424620">
        <ele>416.8</ele>
        <time>2019-08-19T12:26:06Z</time>
        <sat>10</sat>
      </trkpt>
      <trkpt lat="42.487312" lon="-2.424671">
        <ele>417.1</ele>
        <time>2019-08-19T12:26:09Z</time>
        <sat>11</sat>
      </trkpt>
      <trkpt lat="42.487265" lon="-2.424749">
        <ele>417.3</ele>
        <time>2019-08-19T12:26:14Z</time>
        <sat>10</sat>
      </trkpt>
      <trkpt lat="42.487223" lon="-2.424860">
        <ele>417.7</ele>
        <time>2019-08-19T12:26:20Z</time>
        <sat>11</sat>
      </trkpt>
      <trkpt lat="42.487163" lon="-2.424970">
        <ele>418.3</ele>
        <time>2019-08-19T12:26:27Z</time>
        <sat>10</sat>
      </trkpt>
      <trkpt lat="42.487126" lon="-2.425056">
        <ele>418.7</ele>
        <time>2019-08-19T12:26:32Z</time>
        <sat>11</sat>
      </trkpt>
      <trkpt lat="42.487060" lon="-2.425180">
        <ele>419.0</ele>
        <time>2019-08-19T12:26:40Z</time>
        <sat>11</sat>
      </trkpt>
      <trkpt lat="42.487036" lon="-2.425243">
        <ele>419.3</ele>
        <time>2019-08-19T12:26:44Z</time>
        <sat>11</sat>
      </trkpt>
      <trkpt lat="42.486993" lon="-2.425325">
        <ele>419.7</ele>
        <time>2019-08-19T12:26:49Z</time>
        <sat>10</sat>
      </trkpt>
      <trkpt lat="42.486912" lon="-2.425528">
        <ele>420.5</ele>
        <time>2019-08-19T12:27:01Z</time>
        <sat>11</sat>
      </trkpt>
      <trkpt lat="42.486805" lon="-2.425699">
        <ele>420.9</ele>
        <time>2019-08-19T12:27:14Z</time>
        <sat>5</sat>
      </trkpt>
      <trkpt lat="42.486623" lon="-2.426021">
        <ele>421.6</ele>
        <time>2019-08-19T12:27:43Z</time>
        <sat>10</sat>
      </trkpt>
      <trkpt lat="42.486553" lon="-2.426227">
        <ele>421.6</ele>
        <time>2019-08-19T12:27:49Z</time>
        <sat>11</sat>
      </trkpt>
      <trkpt lat="42.486514" lon="-2.426271">
        <ele>421.7</ele>
        <time>2019-08-19T12:27:53Z</time>
        <sat>10</sat>
      </trkpt>
      <trkpt lat="42.486465" lon="-2.426389">
        <ele>421.8</ele>
        <time>2019-08-19T12:28:00Z</time>
        <sat>11</sat>
      </trkpt>
      <trkpt lat="42.486352" lon="-2.426616">
        <ele>424.2</ele>
        <time>2019-08-19T12:28:16Z</time>
        <sat>10</sat>
      </trkpt>
      <trkpt lat="42.486282" lon="-2.426750">
        <ele>425.5</ele>
        <time>2019-08-19T12:28:25Z</time>
        <sat>11</sat>
      </trkpt>
      <trkpt lat="42.486213" lon="-2.426891">
        <ele>427.1</ele>
        <time>2019-08-19T12:28:35Z</time>
        <sat>10</sat>
      </trkpt>
      <trkpt lat="42.486110" lon="-2.427089">
        <ele>429.4</ele>
        <time>2019-08-19T12:28:50Z</time>
        <sat>11</sat>
      </trkpt>
      <trkpt lat="42.486097" lon="-2.427135">
        <ele>429.8</ele>
        <time>2019-08-19T12:28:53Z</time>
        <sat>11</sat>
      </trkpt>
      <trkpt lat="42.486064" lon="-2.427214">
        <ele>430.5</ele>
        <time>2019-08-19T12:28:58Z</time>
        <sat>10</sat>
      </trkpt>
      <trkpt lat="42.486039" lon="-2.427258">
        <ele>430.8</ele>
        <time>2019-08-19T12:29:01Z</time>
        <sat>10</sat>
      </trkpt>
      <trkpt lat="42.485975" lon="-2.427463">
        <ele>432.5</ele>
        <time>2019-08-19T12:29:13Z</time>
        <sat>11</sat>
      </trkpt>
      <trkpt lat="42.485921" lon="-2.427620">
        <ele>433.5</ele>
        <time>2019-08-19T12:29:22Z</time>
        <sat>11</sat>
      </trkpt>
      <trkpt lat="42.485884" lon="-2.427676">
        <ele>433.8</ele>
        <time>2019-08-19T12:29:26Z</time>
        <sat>11</sat>
      </trkpt>
      <trkpt lat="42.485856" lon="-2.427741">
        <ele>434.1</ele>
        <time>2019-08-19T12:29:30Z</time>
        <sat>11</sat>
      </trkpt>
      <trkpt lat="42.485740" lon="-2.427970">
        <ele>435.5</ele>
        <time>2019-08-19T12:29:45Z</time>
        <sat>10</sat>
      </trkpt>
      <trkpt lat="42.485720" lon="-2.428036">
        <ele>435.8</ele>
        <time>2019-08-19T12:29:49Z</time>
        <sat>10</sat>
      </trkpt>
      <trkpt lat="42.485678" lon="-2.428132">
        <ele>436.1</ele>
        <time>2019-08-19T12:29:55Z</time>
        <sat>11</sat>
      </trkpt>
      <trkpt lat="42.485655" lon="-2.428220">
        <ele>436.2</ele>
        <time>2019-08-19T12:30:00Z</time>
        <sat>11</sat>
      </trkpt>
      <trkpt lat="42.485611" lon="-2.428338">
        <ele>436.4</ele>
        <time>2019-08-19T12:30:07Z</time>
        <sat>10</sat>
      </trkpt>
      <trkpt lat="42.485593" lon="-2.428408">
        <ele>436.4</ele>
        <time>2019-08-19T12:30:11Z</time>
        <sat>10</sat>
      </trkpt>
      <trkpt lat="42.485554" lon="-2.428521">
        <ele>436.5</ele>
        <time>2019-08-19T12:30:18Z</time>
        <sat>11</sat>
      </trkpt>
      <trkpt lat="42.485538" lon="-2.428605">
        <ele>436.6</ele>
        <time>2019-08-19T12:30:23Z</time>
        <sat>11</sat>
      </trkpt>
      <trkpt lat="42.485506" lon="-2.428708">
        <ele>436.5</ele>
        <time>2019-08-19T12:30:29Z</time>
        <sat>11</sat>
      </trkpt>
      <trkpt lat="42.485495" lon="-2.428776">
        <ele>436.5</ele>
        <time>2019-08-19T12:30:33Z</time>
        <sat>11</sat>
      </trkpt>
      <trkpt lat="42.485466" lon="-2.428861">
        <ele>436.5</ele>
        <time>2019-08-19T12:30:38Z</time>
        <sat>11</sat>
      </trkpt>
      <trkpt lat="42.485454" lon="-2.428951">
        <ele>436.5</ele>
        <time>2019-08-19T12:30:43Z</time>
        <sat>11</sat>
      </trkpt>
      <trkpt lat="42.485425" lon="-2.429054">
        <ele>436.6</ele>
        <time>2019-08-19T12:30:49Z</time>
        <sat>11</sat>
      </trkpt>
      <trkpt lat="42.485407" lon="-2.429161">
        <ele>436.7</ele>
        <time>2019-08-19T12:30:55Z</time>
        <sat>11</sat>
      </trkpt>
      <trkpt lat="42.485380" lon="-2.429264">
        <ele>437.0</ele>
        <time>2019-08-19T12:31:01Z</time>
        <sat>11</sat>
      </trkpt>
      <trkpt lat="42.485374" lon="-2.429334">
        <ele>437.1</ele>
        <time>2019-08-19T12:31:05Z</time>
        <sat>9</sat>
      </trkpt>
      <trkpt lat="42.485348" lon="-2.429422">
        <ele>437.3</ele>
        <time>2019-08-19T12:31:10Z</time>
        <sat>11</sat>
      </trkpt>
      <trkpt lat="42.485333" lon="-2.429511">
        <ele>437.5</ele>
        <time>2019-08-19T12:31:15Z</time>
        <sat>11</sat>
      </trkpt>
      <trkpt lat="42.485304" lon="-2.429594">
        <ele>437.6</ele>
        <time>2019-08-19T12:31:20Z</time>
        <sat>10</sat>
      </trkpt>
      <trkpt lat="42.485274" lon="-2.429750">
        <ele>437.7</ele>
        <time>2019-08-19T12:31:29Z</time>
        <sat>11</sat>
      </trkpt>
      <trkpt lat="42.485238" lon="-2.429889">
        <ele>437.9</ele>
        <time>2019-08-19T12:31:37Z</time>
        <sat>11</sat>
      </trkpt>
      <trkpt lat="42.485203" lon="-2.429990">
        <ele>438.2</ele>
        <time>2019-08-19T12:31:43Z</time>
        <sat>10</sat>
      </trkpt>
      <trkpt lat="42.485173" lon="-2.430125">
        <ele>438.6</ele>
        <time>2019-08-19T12:31:51Z</time>
        <sat>10</sat>
      </trkpt>
      <trkpt lat="42.485150" lon="-2.430193">
        <ele>438.7</ele>
        <time>2019-08-19T12:31:55Z</time>
        <sat>10</sat>
      </trkpt>
      <trkpt lat="42.485138" lon="-2.430260">
        <ele>439.0</ele>
        <time>2019-08-19T12:31:59Z</time>
        <sat>11</sat>
      </trkpt>
      <trkpt lat="42.485115" lon="-2.430326">
        <ele>439.1</ele>
        <time>2019-08-19T12:32:03Z</time>
        <sat>11</sat>
      </trkpt>
      <trkpt lat="42.485106" lon="-2.430396">
        <ele>439.3</ele>
        <time>2019-08-19T12:32:07Z</time>
        <sat>11</sat>
      </trkpt>
      <trkpt lat="42.485073" lon="-2.430513">
        <ele>439.7</ele>
        <time>2019-08-19T12:32:14Z</time>
        <sat>9</sat>
      </trkpt>
      <trkpt lat="42.485041" lon="-2.430677">
        <ele>440.2</ele>
        <time>2019-08-19T12:32:23Z</time>
        <sat>11</sat>
      </trkpt>
      <trkpt lat="42.485009" lon="-2.430796">
        <ele>440.9</ele>
        <time>2019-08-19T12:32:30Z</time>
        <sat>11</sat>
      </trkpt>
      <trkpt lat="42.485000" lon="-2.430868">
        <ele>441.1</ele>
        <time>2019-08-19T12:32:34Z</time>
        <sat>11</sat>
      </trkpt>
      <trkpt lat="42.484968" lon="-2.430975">
        <ele>441.6</ele>
        <time>2019-08-19T12:32:40Z</time>
        <sat>11</sat>
      </trkpt>
      <trkpt lat="42.484959" lon="-2.431031">
        <ele>441.8</ele>
        <time>2019-08-19T12:32:43Z</time>
        <sat>11</sat>
      </trkpt>
      <trkpt lat="42.484915" lon="-2.431149">
        <ele>442.4</ele>
        <time>2019-08-19T12:32:50Z</time>
        <sat>11</sat>
      </trkpt>
      <trkpt lat="42.484896" lon="-2.431247">
        <ele>442.5</ele>
        <time>2019-08-19T12:32:56Z</time>
        <sat>11</sat>
      </trkpt>
      <trkpt lat="42.484831" lon="-2.431406">
        <ele>442.7</ele>
        <time>2019-08-19T12:33:06Z</time>
        <sat>10</sat>
      </trkpt>
      <trkpt lat="42.484798" lon="-2.431471">
        <ele>442.6</ele>
        <time>2019-08-19T12:33:11Z</time>
        <sat>11</sat>
      </trkpt>
      <trkpt lat="42.484689" lon="-2.431633">
        <ele>441.7</ele>
        <time>2019-08-19T12:33:24Z</time>
        <sat>10</sat>
      </trkpt>
      <trkpt lat="42.484665" lon="-2.431677">
        <ele>440.7</ele>
        <time>2019-08-19T12:33:31Z</time>
        <sat>10</sat>
      </trkpt>
      <trkpt lat="42.484606" lon="-2.431747">
        <ele>440.3</ele>
        <time>2019-08-19T12:33:37Z</time>
        <sat>11</sat>
      </trkpt>
      <trkpt lat="42.484501" lon="-2.431907">
        <ele>437.6</ele>
        <time>2019-08-19T12:33:50Z</time>
        <sat>11</sat>
      </trkpt>
      <trkpt lat="42.484451" lon="-2.431957">
        <ele>437.6</ele>
        <time>2019-08-19T12:33:54Z</time>
        <sat>10</sat>
      </trkpt>
      <trkpt lat="42.484412" lon="-2.432012">
        <ele>437.0</ele>
        <time>2019-08-19T12:33:58Z</time>
        <sat>11</sat>
      </trkpt>
      <trkpt lat="42.484340" lon="-2.432096">
        <ele>438.0</ele>
        <time>2019-08-19T12:34:05Z</time>
        <sat>10</sat>
      </trkpt>
      <trkpt lat="42.484297" lon="-2.432166">
        <ele>438.2</ele>
        <time>2019-08-19T12:34:10Z</time>
        <sat>10</sat>
      </trkpt>
      <trkpt lat="42.484220" lon="-2.432264">
        <ele>437.6</ele>
        <time>2019-08-19T12:34:18Z</time>
        <sat>9</sat>
      </trkpt>
      <trkpt lat="42.484140" lon="-2.432390">
        <ele>437.1</ele>
        <time>2019-08-19T12:34:27Z</time>
        <sat>10</sat>
      </trkpt>
      <trkpt lat="42.483997" lon="-2.432560">
        <ele>436.3</ele>
        <time>2019-08-19T12:34:41Z</time>
        <sat>10</sat>
      </trkpt>
      <trkpt lat="42.483870" lon="-2.432700">
        <ele>435.7</ele>
        <time>2019-08-19T12:34:53Z</time>
        <sat>9</sat>
      </trkpt>
      <trkpt lat="42.483753" lon="-2.432824">
        <ele>435.2</ele>
        <time>2019-08-19T12:35:04Z</time>
        <sat>10</sat>
      </trkpt>
      <trkpt lat="42.483677" lon="-2.432894">
        <ele>434.9</ele>
        <time>2019-08-19T12:35:11Z</time>
        <sat>9</sat>
      </trkpt>
      <trkpt lat="42.483553" lon="-2.433033">
        <ele>434.4</ele>
        <time>2019-08-19T12:35:23Z</time>
        <sat>10</sat>
      </trkpt>
      <trkpt lat="42.483502" lon="-2.433098">
        <ele>434.3</ele>
        <time>2019-08-19T12:35:28Z</time>
        <sat>10</sat>
      </trkpt>
      <trkpt lat="42.483346" lon="-2.433269">
        <ele>433.6</ele>
        <time>2019-08-19T12:35:43Z</time>
        <sat>10</sat>
      </trkpt>
      <trkpt lat="42.483272" lon="-2.433327">
        <ele>433.3</ele>
        <time>2019-08-19T12:35:49Z</time>
        <sat>11</sat>
      </trkpt>
      <trkpt lat="42.483238" lon="-2.433362">
        <ele>433.2</ele>
        <time>2019-08-19T12:35:52Z</time>
        <sat>11</sat>
      </trkpt>
      <trkpt lat="42.483174" lon="-2.433445">
        <ele>433.0</ele>
        <time>2019-08-19T12:35:58Z</time>
        <sat>11</sat>
      </trkpt>
      <trkpt lat="42.483042" lon="-2.433560">
        <ele>432.6</ele>
        <time>2019-08-19T12:36:09Z</time>
        <sat>11</sat>
      </trkpt>
      <trkpt lat="42.483001" lon="-2.433609">
        <ele>432.5</ele>
        <time>2019-08-19T12:36:13Z</time>
        <sat>10</sat>
      </trkpt>
      <trkpt lat="42.482885" lon="-2.433717">
        <ele>432.4</ele>
        <time>2019-08-19T12:36:23Z</time>
        <sat>11</sat>
      </trkpt>
      <trkpt lat="42.482828" lon="-2.433798">
        <ele>432.4</ele>
        <time>2019-08-19T12:36:29Z</time>
        <sat>10</sat>
      </trkpt>
      <trkpt lat="42.482744" lon="-2.433881">
        <ele>432.4</ele>
        <time>2019-08-19T12:36:36Z</time>
        <sat>11</sat>
      </trkpt>
      <trkpt lat="42.482648" lon="-2.433994">
        <ele>432.5</ele>
        <time>2019-08-19T12:36:45Z</time>
        <sat>11</sat>
      </trkpt>
      <trkpt lat="42.482556" lon="-2.434109">
        <ele>432.9</ele>
        <time>2019-08-19T12:36:54Z</time>
        <sat>11</sat>
      </trkpt>
      <trkpt lat="42.482404" lon="-2.434262">
        <ele>433.3</ele>
        <time>2019-08-19T12:37:08Z</time>
        <sat>11</sat>
      </trkpt>
      <trkpt lat="42.482290" lon="-2.434353">
        <ele>433.2</ele>
        <time>2019-08-19T12:37:18Z</time>
        <sat>10</sat>
      </trkpt>
      <trkpt lat="42.482150" lon="-2.434444">
        <ele>432.6</ele>
        <time>2019-08-19T12:37:30Z</time>
        <sat>11</sat>
      </trkpt>
      <trkpt lat="42.482018" lon="-2.434543">
        <ele>432.0</ele>
        <time>2019-08-19T12:37:42Z</time>
        <sat>10</sat>
      </trkpt>
      <trkpt lat="42.481952" lon="-2.434586">
        <ele>431.7</ele>
        <time>2019-08-19T12:37:48Z</time>
        <sat>11</sat>
      </trkpt>
      <trkpt lat="42.481927" lon="-2.434596">
        <ele>431.6</ele>
        <time>2019-08-19T12:37:50Z</time>
        <sat>11</sat>
      </trkpt>
      <trkpt lat="42.481848" lon="-2.434648">
        <ele>431.4</ele>
        <time>2019-08-19T12:37:57Z</time>
        <sat>10</sat>
      </trkpt>
      <trkpt lat="42.481783" lon="-2.434673">
        <ele>431.0</ele>
        <time>2019-08-19T12:38:03Z</time>
        <sat>10</sat>
      </trkpt>
      <trkpt lat="42.481617" lon="-2.434770">
        <ele>430.4</ele>
        <time>2019-08-19T12:38:17Z</time>
        <sat>11</sat>
      </trkpt>
      <trkpt lat="42.481524" lon="-2.434831">
        <ele>430.0</ele>
        <time>2019-08-19T12:38:25Z</time>
        <sat>11</sat>
      </trkpt>
      <trkpt lat="42.481422" lon="-2.434880">
        <ele>429.6</ele>
        <time>2019-08-19T12:38:33Z</time>
        <sat>11</sat>
      </trkpt>
      <trkpt lat="42.481274" lon="-2.434961">
        <ele>428.7</ele>
        <time>2019-08-19T12:38:45Z</time>
        <sat>11</sat>
      </trkpt>
      <trkpt lat="42.481187" lon="-2.435007">
        <ele>428.4</ele>
        <time>2019-08-19T12:38:52Z</time>
        <sat>11</sat>
      </trkpt>
      <trkpt lat="42.481051" lon="-2.435073">
        <ele>427.8</ele>
        <time>2019-08-19T12:39:03Z</time>
        <sat>11</sat>
      </trkpt>
      <trkpt lat="42.480953" lon="-2.435111">
        <ele>426.9</ele>
        <time>2019-08-19T12:39:11Z</time>
        <sat>11</sat>
      </trkpt>
      <trkpt lat="42.480904" lon="-2.435137">
        <ele>426.6</ele>
        <time>2019-08-19T12:39:15Z</time>
        <sat>10</sat>
      </trkpt>
      <trkpt lat="42.480828" lon="-2.435162">
        <ele>426.2</ele>
        <time>2019-08-19T12:39:21Z</time>
        <sat>10</sat>
      </trkpt>
      <trkpt lat="42.480754" lon="-2.435210">
        <ele>425.8</ele>
        <time>2019-08-19T12:39:27Z</time>
        <sat>11</sat>
      </trkpt>
      <trkpt lat="42.480657" lon="-2.435252">
        <ele>425.4</ele>
        <time>2019-08-19T12:39:35Z</time>
        <sat>11</sat>
      </trkpt>
      <trkpt lat="42.480574" lon="-2.435298">
        <ele>424.8</ele>
        <time>2019-08-19T12:39:42Z</time>
        <sat>11</sat>
      </trkpt>
      <trkpt lat="42.480487" lon="-2.435330">
        <ele>424.3</ele>
        <time>2019-08-19T12:39:49Z</time>
        <sat>11</sat>
      </trkpt>
      <trkpt lat="42.480322" lon="-2.435412">
        <ele>423.5</ele>
        <time>2019-08-19T12:40:02Z</time>
        <sat>11</sat>
      </trkpt>
      <trkpt lat="42.480140" lon="-2.435508">
        <ele>423.1</ele>
        <time>2019-08-19T12:40:16Z</time>
        <sat>11</sat>
      </trkpt>
      <trkpt lat="42.480043" lon="-2.435577">
        <ele>422.7</ele>
        <time>2019-08-19T12:40:24Z</time>
        <sat>11</sat>
      </trkpt>
      <trkpt lat="42.479944" lon="-2.435639">
        <ele>422.3</ele>
        <time>2019-08-19T12:40:32Z</time>
        <sat>11</sat>
      </trkpt>
      <trkpt lat="42.479857" lon="-2.435707">
        <ele>421.8</ele>
        <time>2019-08-19T12:40:40Z</time>
        <sat>10</sat>
      </trkpt>
      <trkpt lat="42.479860" lon="-2.435745">
        <ele>421.4</ele>
        <time>2019-08-19T12:40:52Z</time>
        <sat>10</sat>
      </trkpt>
      <trkpt lat="42.479818" lon="-2.435745">
        <ele>421.0</ele>
        <time>2019-08-19T12:40:56Z</time>
        <sat>11</sat>
      </trkpt>
      <trkpt lat="42.479693" lon="-2.435820">
        <ele>420.9</ele>
        <time>2019-08-19T12:41:06Z</time>
        <sat>10</sat>
      </trkpt>
      <trkpt lat="42.479513" lon="-2.435942">
        <ele>420.7</ele>
        <time>2019-08-19T12:41:21Z</time>
        <sat>10</sat>
      </trkpt>
      <trkpt lat="42.479363" lon="-2.436049">
        <ele>420.0</ele>
        <time>2019-08-19T12:41:34Z</time>
        <sat>11</sat>
      </trkpt>
      <trkpt lat="42.479310" lon="-2.436093">
        <ele>419.6</ele>
        <time>2019-08-19T12:41:39Z</time>
        <sat>11</sat>
      </trkpt>
      <trkpt lat="42.479226" lon="-2.436142">
        <ele>419.1</ele>
        <time>2019-08-19T12:41:46Z</time>
        <sat>11</sat>
      </trkpt>
      <trkpt lat="42.479201" lon="-2.436166">
        <ele>418.7</ele>
        <time>2019-08-19T12:41:51Z</time>
        <sat>11</sat>
      </trkpt>
      <trkpt lat="42.479105" lon="-2.436238">
        <ele>418.1</ele>
        <time>2019-08-19T12:42:03Z</time>
        <sat>11</sat>
      </trkpt>
      <trkpt lat="42.479015" lon="-2.436323">
        <ele>417.4</ele>
        <time>2019-08-19T12:42:11Z</time>
        <sat>10</sat>
      </trkpt>
      <trkpt lat="42.478903" lon="-2.436394">
        <ele>416.6</ele>
        <time>2019-08-19T12:42:20Z</time>
        <sat>10</sat>
      </trkpt>
      <trkpt lat="42.478799" lon="-2.436480">
        <ele>416.0</ele>
        <time>2019-08-19T12:42:29Z</time>
        <sat>10</sat>
      </trkpt>
      <trkpt lat="42.478724" lon="-2.436529">
        <ele>415.5</ele>
        <time>2019-08-19T12:42:35Z</time>
        <sat>10</sat>
      </trkpt>
      <trkpt lat="42.478655" lon="-2.436590">
        <ele>415.0</ele>
        <time>2019-08-19T12:42:41Z</time>
        <sat>10</sat>
      </trkpt>
      <trkpt lat="42.478569" lon="-2.436642">
        <ele>414.6</ele>
        <time>2019-08-19T12:42:48Z</time>
        <sat>9</sat>
      </trkpt>
      <trkpt lat="42.478479" lon="-2.436724">
        <ele>414.2</ele>
        <time>2019-08-19T12:42:56Z</time>
        <sat>9</sat>
      </trkpt>
      <trkpt lat="42.478405" lon="-2.436775">
        <ele>414.0</ele>
        <time>2019-08-19T12:43:02Z</time>
        <sat>10</sat>
      </trkpt>
      <trkpt lat="42.478336" lon="-2.436839">
        <ele>413.7</ele>
        <time>2019-08-19T12:43:08Z</time>
        <sat>10</sat>
      </trkpt>
      <trkpt lat="42.478266" lon="-2.436884">
        <ele>413.5</ele>
        <time>2019-08-19T12:43:14Z</time>
        <sat>10</sat>
      </trkpt>
      <trkpt lat="42.478183" lon="-2.436954">
        <ele>413.0</ele>
        <time>2019-08-19T12:43:21Z</time>
        <sat>10</sat>
      </trkpt>
      <trkpt lat="42.478061" lon="-2.437033">
        <ele>412.2</ele>
        <time>2019-08-19T12:43:31Z</time>
        <sat>10</sat>
      </trkpt>
      <trkpt lat="42.477989" lon="-2.437091">
        <ele>411.6</ele>
        <time>2019-08-19T12:43:37Z</time>
        <sat>10</sat>
      </trkpt>
      <trkpt lat="42.477965" lon="-2.437106">
        <ele>411.5</ele>
        <time>2019-08-19T12:43:39Z</time>
        <sat>10</sat>
      </trkpt>
      <trkpt lat="42.477898" lon="-2.437160">
        <ele>411.0</ele>
        <time>2019-08-19T12:43:45Z</time>
        <sat>10</sat>
      </trkpt>
      <trkpt lat="42.477866" lon="-2.437196">
        <ele>410.8</ele>
        <time>2019-08-19T12:43:48Z</time>
        <sat>10</sat>
      </trkpt>
      <trkpt lat="42.477715" lon="-2.437267">
        <ele>409.6</ele>
        <time>2019-08-19T12:44:00Z</time>
        <sat>10</sat>
      </trkpt>
      <trkpt lat="42.477627" lon="-2.437296">
        <ele>409.0</ele>
        <time>2019-08-19T12:44:07Z</time>
        <sat>10</sat>
      </trkpt>
      <trkpt lat="42.477469" lon="-2.437357">
        <ele>408.1</ele>
        <time>2019-08-19T12:44:20Z</time>
        <sat>11</sat>
      </trkpt>
      <trkpt lat="42.477304" lon="-2.437442">
        <ele>407.0</ele>
        <time>2019-08-19T12:44:36Z</time>
        <sat>11</sat>
      </trkpt>
      <trkpt lat="42.477248" lon="-2.437462">
        <ele>406.8</ele>
        <time>2019-08-19T12:44:40Z</time>
        <sat>10</sat>
      </trkpt>
      <trkpt lat="42.477201" lon="-2.437487">
        <ele>406.6</ele>
        <time>2019-08-19T12:44:44Z</time>
        <sat>10</sat>
      </trkpt>
      <trkpt lat="42.477076" lon="-2.437544">
        <ele>404.7</ele>
        <time>2019-08-19T12:44:54Z</time>
        <sat>11</sat>
      </trkpt>
      <trkpt lat="42.477009" lon="-2.437603">
        <ele>404.8</ele>
        <time>2019-08-19T12:45:00Z</time>
        <sat>11</sat>
      </trkpt>
      <trkpt lat="42.476991" lon="-2.437627">
        <ele>404.4</ele>
        <time>2019-08-19T12:45:02Z</time>
        <sat>10</sat>
      </trkpt>
      <trkpt lat="42.476900" lon="-2.437715">
        <ele>401.9</ele>
        <time>2019-08-19T12:45:11Z</time>
        <sat>10</sat>
      </trkpt>
      <trkpt lat="42.476817" lon="-2.437823">
        <ele>402.3</ele>
        <time>2019-08-19T12:45:20Z</time>
        <sat>9</sat>
      </trkpt>
      <trkpt lat="42.476771" lon="-2.437935">
        <ele>401.5</ele>
        <time>2019-08-19T12:45:27Z</time>
        <sat>10</sat>
      </trkpt>
      <trkpt lat="42.476722" lon="-2.438021">
        <ele>400.9</ele>
        <time>2019-08-19T12:45:33Z</time>
        <sat>9</sat>
      </trkpt>
      <trkpt lat="42.476652" lon="-2.438194">
        <ele>399.1</ele>
        <time>2019-08-19T12:45:45Z</time>
        <sat>11</sat>
      </trkpt>
      <trkpt lat="42.476633" lon="-2.438286">
        <ele>398.0</ele>
        <time>2019-08-19T12:45:52Z</time>
        <sat>11</sat>
      </trkpt>
      <trkpt lat="42.476586" lon="-2.438424">
        <ele>396.6</ele>
        <time>2019-08-19T12:46:01Z</time>
        <sat>11</sat>
      </trkpt>
      <trkpt lat="42.476530" lon="-2.438530">
        <ele>395.6</ele>
        <time>2019-08-19T12:46:09Z</time>
        <sat>11</sat>
      </trkpt>
      <trkpt lat="42.476494" lon="-2.438623">
        <ele>394.8</ele>
        <time>2019-08-19T12:46:15Z</time>
        <sat>11</sat>
      </trkpt>
      <trkpt lat="42.476426" lon="-2.438738">
        <ele>393.3</ele>
        <time>2019-08-19T12:46:25Z</time>
        <sat>11</sat>
      </trkpt>
      <trkpt lat="42.476365" lon="-2.438833">
        <ele>391.8</ele>
        <time>2019-08-19T12:46:33Z</time>
        <sat>10</sat>
      </trkpt>
      <trkpt lat="42.476308" lon="-2.438978">
        <ele>390.3</ele>
        <time>2019-08-19T12:46:42Z</time>
        <sat>10</sat>
      </trkpt>
      <trkpt lat="42.476266" lon="-2.439058">
        <ele>389.1</ele>
        <time>2019-08-19T12:46:48Z</time>
        <sat>10</sat>
      </trkpt>
      <trkpt lat="42.476246" lon="-2.439086">
        <ele>388.8</ele>
        <time>2019-08-19T12:46:50Z</time>
        <sat>10</sat>
      </trkpt>
      <trkpt lat="42.476172" lon="-2.439143">
        <ele>387.7</ele>
        <time>2019-08-19T12:46:56Z</time>
        <sat>10</sat>
      </trkpt>
      <trkpt lat="42.476088" lon="-2.439173">
        <ele>386.6</ele>
        <time>2019-08-19T12:47:02Z</time>
        <sat>11</sat>
      </trkpt>
      <trkpt lat="42.476035" lon="-2.439180">
        <ele>386.0</ele>
        <time>2019-08-19T12:47:06Z</time>
        <sat>11</sat>
      </trkpt>
      <trkpt lat="42.475968" lon="-2.439177">
        <ele>385.1</ele>
        <time>2019-08-19T12:47:11Z</time>
        <sat>11</sat>
      </trkpt>
      <trkpt lat="42.475881" lon="-2.439191">
        <ele>384.4</ele>
        <time>2019-08-19T12:47:17Z</time>
        <sat>11</sat>
      </trkpt>
      <trkpt lat="42.475753" lon="-2.439187">
        <ele>383.0</ele>
        <time>2019-08-19T12:47:27Z</time>
        <sat>11</sat>
      </trkpt>
      <trkpt lat="42.475610" lon="-2.439224">
        <ele>381.5</ele>
        <time>2019-08-19T12:47:38Z</time>
        <sat>10</sat>
      </trkpt>
      <trkpt lat="42.475522" lon="-2.439269">
        <ele>380.9</ele>
        <time>2019-08-19T12:47:45Z</time>
        <sat>11</sat>
      </trkpt>
      <trkpt lat="42.475444" lon="-2.439297">
        <ele>380.5</ele>
        <time>2019-08-19T12:47:51Z</time>
        <sat>11</sat>
      </trkpt>
      <trkpt lat="42.475348" lon="-2.439364">
        <ele>379.6</ele>
        <time>2019-08-19T12:47:59Z</time>
        <sat>10</sat>
      </trkpt>
      <trkpt lat="42.475264" lon="-2.439393">
        <ele>379.2</ele>
        <time>2019-08-19T12:48:05Z</time>
        <sat>10</sat>
      </trkpt>
      <trkpt lat="42.475123" lon="-2.439452">
        <ele>378.9</ele>
        <time>2019-08-19T12:48:16Z</time>
        <sat>11</sat>
      </trkpt>
      <trkpt lat="42.475054" lon="-2.439462">
        <ele>379.0</ele>
        <time>2019-08-19T12:48:21Z</time>
        <sat>11</sat>
      </trkpt>
      <trkpt lat="42.475002" lon="-2.439482">
        <ele>379.0</ele>
        <time>2019-08-19T12:48:25Z</time>
        <sat>11</sat>
      </trkpt>
      <trkpt lat="42.474894" lon="-2.439496">
        <ele>379.0</ele>
        <time>2019-08-19T12:48:33Z</time>
        <sat>11</sat>
      </trkpt>
      <trkpt lat="42.474829" lon="-2.439518">
        <ele>379.0</ele>
        <time>2019-08-19T12:48:39Z</time>
        <sat>10</sat>
      </trkpt>
      <trkpt lat="42.474782" lon="-2.439514">
        <ele>379.2</ele>
        <time>2019-08-19T12:48:49Z</time>
        <sat>11</sat>
      </trkpt>
      <trkpt lat="42.474740" lon="-2.439539">
        <ele>379.3</ele>
        <time>2019-08-19T12:48:53Z</time>
        <sat>11</sat>
      </trkpt>
      <trkpt lat="42.474579" lon="-2.439548">
        <ele>379.3</ele>
        <time>2019-08-19T12:49:04Z</time>
        <sat>10</sat>
      </trkpt>
      <trkpt lat="42.474495" lon="-2.439562">
        <ele>379.2</ele>
        <time>2019-08-19T12:49:10Z</time>
        <sat>10</sat>
      </trkpt>
      <trkpt lat="42.474368" lon="-2.439559">
        <ele>379.2</ele>
        <time>2019-08-19T12:49:19Z</time>
        <sat>10</sat>
      </trkpt>
      <trkpt lat="42.474274" lon="-2.439575">
        <ele>379.2</ele>
        <time>2019-08-19T12:49:26Z</time>
        <sat>10</sat>
      </trkpt>
      <trkpt lat="42.474176" lon="-2.439576">
        <ele>379.2</ele>
        <time>2019-08-19T12:49:33Z</time>
        <sat>10</sat>
      </trkpt>
      <trkpt lat="42.474065" lon="-2.439601">
        <ele>379.1</ele>
        <time>2019-08-19T12:49:41Z</time>
        <sat>10</sat>
      </trkpt>
      <trkpt lat="42.473950" lon="-2.439608">
        <ele>379.1</ele>
        <time>2019-08-19T12:49:49Z</time>
        <sat>10</sat>
      </trkpt>
      <trkpt lat="42.473882" lon="-2.439634">
        <ele>379.2</ele>
        <time>2019-08-19T12:49:54Z</time>
        <sat>10</sat>
      </trkpt>
      <trkpt lat="42.473784" lon="-2.439653">
        <ele>379.2</ele>
        <time>2019-08-19T12:50:01Z</time>
        <sat>10</sat>
      </trkpt>
      <trkpt lat="42.473744" lon="-2.439670">
        <ele>379.2</ele>
        <time>2019-08-19T12:50:04Z</time>
        <sat>10</sat>
      </trkpt>
      <trkpt lat="42.473693" lon="-2.439702">
        <ele>379.1</ele>
        <time>2019-08-19T12:50:08Z</time>
        <sat>10</sat>
      </trkpt>
      <trkpt lat="42.473601" lon="-2.439740">
        <ele>378.9</ele>
        <time>2019-08-19T12:50:15Z</time>
        <sat>10</sat>
      </trkpt>
      <trkpt lat="42.473549" lon="-2.439770">
        <ele>378.9</ele>
        <time>2019-08-19T12:50:19Z</time>
        <sat>10</sat>
      </trkpt>
      <trkpt lat="42.473411" lon="-2.439885">
        <ele>378.9</ele>
        <time>2019-08-19T12:50:31Z</time>
        <sat>10</sat>
      </trkpt>
      <trkpt lat="42.473299" lon="-2.439990">
        <ele>378.9</ele>
        <time>2019-08-19T12:50:41Z</time>
        <sat>10</sat>
      </trkpt>
      <trkpt lat="42.473174" lon="-2.440079">
        <ele>378.8</ele>
        <time>2019-08-19T12:50:51Z</time>
        <sat>11</sat>
      </trkpt>
      <trkpt lat="42.473103" lon="-2.440119">
        <ele>378.8</ele>
        <time>2019-08-19T12:50:57Z</time>
        <sat>11</sat>
      </trkpt>
      <trkpt lat="42.473065" lon="-2.440134">
        <ele>378.8</ele>
        <time>2019-08-19T12:51:00Z</time>
        <sat>11</sat>
      </trkpt>
      <trkpt lat="42.473010" lon="-2.440172">
        <ele>378.3</ele>
        <time>2019-08-19T12:51:05Z</time>
        <sat>11</sat>
      </trkpt>
      <trkpt lat="42.472883" lon="-2.440229">
        <ele>378.7</ele>
        <time>2019-08-19T12:51:15Z</time>
        <sat>10</sat>
      </trkpt>
      <trkpt lat="42.472834" lon="-2.440287">
        <ele>378.1</ele>
        <time>2019-08-19T12:51:20Z</time>
        <sat>10</sat>
      </trkpt>
      <trkpt lat="42.472771" lon="-2.440334">
        <ele>377.7</ele>
        <time>2019-08-19T12:51:25Z</time>
        <sat>11</sat>
      </trkpt>
      <trkpt lat="42.472724" lon="-2.440346">
        <ele>377.8</ele>
        <time>2019-08-19T12:51:29Z</time>
        <sat>11</sat>
      </trkpt>
      <trkpt lat="42.472678" lon="-2.440330">
        <ele>378.0</ele>
        <time>2019-08-19T12:51:34Z</time>
        <sat>11</sat>
      </trkpt>
      <trkpt lat="42.472611" lon="-2.440258">
        <ele>378.2</ele>
        <time>2019-08-19T12:51:43Z</time>
        <sat>11</sat>
      </trkpt>
      <trkpt lat="42.472566" lon="-2.440230">
        <ele>377.5</ele>
        <time>2019-08-19T12:51:45Z</time>
        <sat>11</sat>
      </trkpt>
      <trkpt lat="42.472501" lon="-2.440250">
        <ele>378.5</ele>
        <time>2019-08-19T12:51:49Z</time>
        <sat>11</sat>
      </trkpt>
      <trkpt lat="42.472440" lon="-2.440342">
        <ele>379.2</ele>
        <time>2019-08-19T12:51:57Z</time>
        <sat>10</sat>
      </trkpt>
      <trkpt lat="42.472341" lon="-2.440440">
        <ele>379.0</ele>
        <time>2019-08-19T12:52:07Z</time>
        <sat>10</sat>
      </trkpt>
      <trkpt lat="42.472232" lon="-2.440580">
        <ele>378.9</ele>
        <time>2019-08-19T12:52:18Z</time>
        <sat>10</sat>
      </trkpt>
      <trkpt lat="42.472133" lon="-2.440674">
        <ele>378.6</ele>
        <time>2019-08-19T12:52:27Z</time>
        <sat>11</sat>
      </trkpt>
      <trkpt lat="42.472064" lon="-2.440761">
        <ele>379.4</ele>
        <time>2019-08-19T12:52:33Z</time>
        <sat>11</sat>
      </trkpt>
      <trkpt lat="42.471962" lon="-2.440872">
        <ele>381.0</ele>
        <time>2019-08-19T12:52:42Z</time>
        <sat>11</sat>
      </trkpt>
      <trkpt lat="42.471940" lon="-2.440901">
        <ele>381.1</ele>
        <time>2019-08-19T12:52:44Z</time>
        <sat>11</sat>
      </trkpt>
      <trkpt lat="42.471898" lon="-2.440977">
        <ele>381.2</ele>
        <time>2019-08-19T12:52:49Z</time>
        <sat>11</sat>
      </trkpt>
      <trkpt lat="42.471851" lon="-2.441046">
        <ele>381.2</ele>
        <time>2019-08-19T12:52:54Z</time>
        <sat>10</sat>
      </trkpt>
      <trkpt lat="42.471822" lon="-2.441150">
        <ele>381.3</ele>
        <time>2019-08-19T12:53:01Z</time>
        <sat>11</sat>
      </trkpt>
      <trkpt lat="42.471798" lon="-2.441215">
        <ele>381.3</ele>
        <time>2019-08-19T12:53:05Z</time>
        <sat>11</sat>
      </trkpt>
      <trkpt lat="42.471737" lon="-2.441311">
        <ele>381.3</ele>
        <time>2019-08-19T12:53:12Z</time>
        <sat>10</sat>
      </trkpt>
      <trkpt lat="42.471664" lon="-2.441475">
        <ele>380.9</ele>
        <time>2019-08-19T12:53:23Z</time>
        <sat>10</sat>
      </trkpt>
      <trkpt lat="42.471601" lon="-2.441584">
        <ele>381.1</ele>
        <time>2019-08-19T12:53:30Z</time>
        <sat>10</sat>
      </trkpt>
      <trkpt lat="42.471551" lon="-2.441692">
        <ele>380.6</ele>
        <time>2019-08-19T12:53:36Z</time>
        <sat>10</sat>
      </trkpt>
      <trkpt lat="42.471493" lon="-2.441761">
        <ele>378.3</ele>
        <time>2019-08-19T12:53:42Z</time>
        <sat>11</sat>
      </trkpt>
      <trkpt lat="42.471453" lon="-2.441825">
        <ele>379.6</ele>
        <time>2019-08-19T12:53:46Z</time>
        <sat>11</sat>
      </trkpt>
      <trkpt lat="42.471391" lon="-2.442043">
        <ele>380.5</ele>
        <time>2019-08-19T12:53:58Z</time>
        <sat>11</sat>
      </trkpt>
      <trkpt lat="42.471379" lon="-2.442076">
        <ele>378.8</ele>
        <time>2019-08-19T12:54:00Z</time>
        <sat>11</sat>
      </trkpt>
      <trkpt lat="42.471356" lon="-2.442182">
        <ele>379.2</ele>
        <time>2019-08-19T12:54:05Z</time>
        <sat>11</sat>
      </trkpt>
      <trkpt lat="42.471352" lon="-2.442226">
        <ele>380.4</ele>
        <time>2019-08-19T12:54:07Z</time>
        <sat>11</sat>
      </trkpt>
      <trkpt lat="42.471336" lon="-2.442301">
        <ele>381.7</ele>
        <time>2019-08-19T12:54:11Z</time>
        <sat>11</sat>
      </trkpt>
      <trkpt lat="42.471296" lon="-2.442445">
        <ele>381.7</ele>
        <time>2019-08-19T12:54:20Z</time>
        <sat>11</sat>
      </trkpt>
      <trkpt lat="42.471272" lon="-2.442562">
        <ele>381.6</ele>
        <time>2019-08-19T12:54:30Z</time>
        <sat>11</sat>
      </trkpt>
      <trkpt lat="42.471208" lon="-2.442772">
        <ele>381.7</ele>
        <time>2019-08-19T12:54:42Z</time>
        <sat>11</sat>
      </trkpt>
      <trkpt lat="42.471197" lon="-2.442847">
        <ele>381.6</ele>
        <time>2019-08-19T12:54:46Z</time>
        <sat>11</sat>
      </trkpt>
      <trkpt lat="42.471181" lon="-2.442896">
        <ele>381.6</ele>
        <time>2019-08-19T12:54:49Z</time>
        <sat>11</sat>
      </trkpt>
      <trkpt lat="42.471147" lon="-2.442978">
        <ele>381.4</ele>
        <time>2019-08-19T12:54:54Z</time>
        <sat>11</sat>
      </trkpt>
      <trkpt lat="42.471118" lon="-2.443166">
        <ele>381.8</ele>
        <time>2019-08-19T12:55:05Z</time>
        <sat>11</sat>
      </trkpt>
      <trkpt lat="42.471096" lon="-2.443225">
        <ele>381.6</ele>
        <time>2019-08-19T12:55:09Z</time>
        <sat>11</sat>
      </trkpt>
      <trkpt lat="42.471082" lon="-2.443300">
        <ele>381.9</ele>
        <time>2019-08-19T12:55:14Z</time>
        <sat>11</sat>
      </trkpt>
      <trkpt lat="42.471057" lon="-2.443353">
        <ele>382.0</ele>
        <time>2019-08-19T12:55:18Z</time>
        <sat>11</sat>
      </trkpt>
      <trkpt lat="42.471023" lon="-2.443493">
        <ele>382.1</ele>
        <time>2019-08-19T12:55:27Z</time>
        <sat>11</sat>
      </trkpt>
      <trkpt lat="42.471013" lon="-2.443593">
        <ele>382.1</ele>
        <time>2019-08-19T12:55:33Z</time>
        <sat>11</sat>
      </trkpt>
      <trkpt lat="42.471014" lon="-2.443643">
        <ele>382.0</ele>
        <time>2019-08-19T12:55:36Z</time>
        <sat>11</sat>
      </trkpt>
      <trkpt lat="42.471009" lon="-2.443748">
        <ele>380.7</ele>
        <time>2019-08-19T12:57:34Z</time>
        <sat>10</sat>
      </trkpt>
      <trkpt lat="42.470962" lon="-2.443846">
        <ele>381.7</ele>
        <time>2019-08-19T12:57:46Z</time>
        <sat>11</sat>
      </trkpt>
      <trkpt lat="42.470952" lon="-2.443887">
        <ele>382.7</ele>
        <time>2019-08-19T12:57:51Z</time>
        <sat>11</sat>
      </trkpt>
      <trkpt lat="42.470924" lon="-2.443960">
        <ele>384.0</ele>
        <time>2019-08-19T12:57:57Z</time>
        <sat>11</sat>
      </trkpt>
      <trkpt lat="42.470793" lon="-2.443975">
        <ele>385.1</ele>
        <time>2019-08-19T12:58:06Z</time>
        <sat>11</sat>
      </trkpt>
      <trkpt lat="42.470729" lon="-2.443957">
        <ele>385.0</ele>
        <time>2019-08-19T12:58:11Z</time>
        <sat>11</sat>
      </trkpt>
      <trkpt lat="42.470646" lon="-2.443911">
        <ele>383.8</ele>
        <time>2019-08-19T12:58:17Z</time>
        <sat>11</sat>
      </trkpt>
      <trkpt lat="42.470555" lon="-2.443877">
        <ele>385.9</ele>
        <time>2019-08-19T12:58:24Z</time>
        <sat>11</sat>
      </trkpt>
      <trkpt lat="42.470497" lon="-2.443846">
        <ele>384.2</ele>
        <time>2019-08-19T12:58:29Z</time>
        <sat>11</sat>
      </trkpt>
      <trkpt lat="42.470340" lon="-2.443777">
        <ele>385.2</ele>
        <time>2019-08-19T12:58:43Z</time>
        <sat>11</sat>
      </trkpt>
      <trkpt lat="42.470295" lon="-2.443763">
        <ele>385.8</ele>
        <time>2019-08-19T12:58:48Z</time>
        <sat>11</sat>
      </trkpt>
      <trkpt lat="42.470151" lon="-2.443687">
        <ele>386.9</ele>
        <time>2019-08-19T12:59:00Z</time>
        <sat>11</sat>
      </trkpt>
      <trkpt lat="42.470047" lon="-2.443706">
        <ele>387.5</ele>
        <time>2019-08-19T12:59:11Z</time>
        <sat>11</sat>
      </trkpt>
      <trkpt lat="42.469995" lon="-2.443729">
        <ele>387.1</ele>
        <time>2019-08-19T12:59:15Z</time>
        <sat>11</sat>
      </trkpt>
      <trkpt lat="42.469926" lon="-2.443708">
        <ele>387.2</ele>
        <time>2019-08-19T12:59:20Z</time>
        <sat>11</sat>
      </trkpt>
      <trkpt lat="42.469783" lon="-2.443629">
        <ele>387.1</ele>
        <time>2019-08-19T12:59:31Z</time>
        <sat>11</sat>
      </trkpt>
      <trkpt lat="42.469702" lon="-2.443600">
        <ele>387.0</ele>
        <time>2019-08-19T12:59:37Z</time>
        <sat>11</sat>
      </trkpt>
      <trkpt lat="42.469557" lon="-2.443525">
        <ele>386.8</ele>
        <time>2019-08-19T12:59:48Z</time>
        <sat>11</sat>
      </trkpt>
      <trkpt lat="42.469502" lon="-2.443508">
        <ele>386.5</ele>
        <time>2019-08-19T12:59:52Z</time>
        <sat>11</sat>
      </trkpt>
      <trkpt lat="42.469402" lon="-2.443449">
        <ele>386.5</ele>
        <time>2019-08-19T13:00:00Z</time>
        <sat>11</sat>
      </trkpt>
      <trkpt lat="42.469237" lon="-2.443361">
        <ele>386.5</ele>
        <time>2019-08-19T13:00:14Z</time>
        <sat>11</sat>
      </trkpt>
      <trkpt lat="42.469177" lon="-2.443340">
        <ele>386.6</ele>
        <time>2019-08-19T13:00:23Z</time>
        <sat>11</sat>
      </trkpt>
      <trkpt lat="42.469104" lon="-2.443301">
        <ele>386.6</ele>
        <time>2019-08-19T13:00:29Z</time>
        <sat>11</sat>
      </trkpt>
      <trkpt lat="42.469029" lon="-2.443279">
        <ele>386.4</ele>
        <time>2019-08-19T13:00:36Z</time>
        <sat>11</sat>
      </trkpt>
      <trkpt lat="42.468978" lon="-2.443366">
        <ele>386.4</ele>
        <time>2019-08-19T13:00:44Z</time>
        <sat>11</sat>
      </trkpt>
      <trkpt lat="42.468925" lon="-2.443404">
        <ele>386.4</ele>
        <time>2019-08-19T13:00:49Z</time>
        <sat>11</sat>
      </trkpt>
      <trkpt lat="42.468879" lon="-2.443419">
        <ele>386.2</ele>
        <time>2019-08-19T13:00:53Z</time>
        <sat>11</sat>
      </trkpt>
      <trkpt lat="42.468852" lon="-2.443422">
        <ele>385.9</ele>
        <time>2019-08-19T13:01:07Z</time>
        <sat>11</sat>
      </trkpt>
      <trkpt lat="42.468840" lon="-2.443423">
        <ele>385.7</ele>
        <time>2019-08-19T13:01:18Z</time>
        <sat>11</sat>
      </trkpt>
      <trkpt lat="42.468833" lon="-2.443423">
        <ele>385.7</ele>
        <time>2019-08-19T13:01:29Z</time>
        <sat>11</sat>
      </trkpt>
      <trkpt lat="42.468827" lon="-2.443424">
        <ele>385.6</ele>
        <time>2019-08-19T13:01:47Z</time>
        <sat>11</sat>
      </trkpt>
      <trkpt lat="42.468820" lon="-2.443424">
        <ele>385.6</ele>
        <time>2019-08-19T13:01:54Z</time>
        <sat>11</sat>
      </trkpt>
      <trkpt lat="42.468806" lon="-2.443425">
        <ele>385.1</ele>
        <time>2019-08-19T13:02:23Z</time>
        <sat>11</sat>
      </trkpt>
    </trkseg>
    <trkseg>
      <trkpt lat="42.468805" lon="-2.443427">
        <ele>382.4</ele>
        <time>2019-08-20T05:09:14Z</time>
        <sat>7</sat>
      </trkpt>
      <trkpt lat="42.468779" lon="-2.443548">
        <ele>382.8</ele>
        <time>2019-08-20T05:09:28Z</time>
        <sat>8</sat>
      </trkpt>
      <trkpt lat="42.468758" lon="-2.443618">
        <ele>382.9</ele>
        <time>2019-08-20T05:09:47Z</time>
        <sat>8</sat>
      </trkpt>
      <trkpt lat="42.468726" lon="-2.443675">
        <ele>383.1</ele>
        <time>2019-08-20T05:09:52Z</time>
        <sat>8</sat>
      </trkpt>
      <trkpt lat="42.468664" lon="-2.443696">
        <ele>383.0</ele>
        <time>2019-08-20T05:09:56Z</time>
        <sat>8</sat>
      </trkpt>
      <trkpt lat="42.468630" lon="-2.443813">
        <ele>383.0</ele>
        <time>2019-08-20T05:10:04Z</time>
        <sat>8</sat>
      </trkpt>
      <trkpt lat="42.468607" lon="-2.443902">
        <ele>383.0</ele>
        <time>2019-08-20T05:10:10Z</time>
        <sat>8</sat>
      </trkpt>
      <trkpt lat="42.468490" lon="-2.444200">
        <ele>383.8</ele>
        <time>2019-08-20T05:11:03Z</time>
        <sat>8</sat>
      </trkpt>
      <trkpt lat="42.468458" lon="-2.444334">
        <ele>383.9</ele>
        <time>2019-08-20T05:11:14Z</time>
        <sat>8</sat>
      </trkpt>
      <trkpt lat="42.468408" lon="-2.444463">
        <ele>384.2</ele>
        <time>2019-08-20T05:11:23Z</time>
        <sat>7</sat>
      </trkpt>
      <trkpt lat="42.468378" lon="-2.444565">
        <ele>384.3</ele>
        <time>2019-08-20T05:11:29Z</time>
        <sat>8</sat>
      </trkpt>
      <trkpt lat="42.468359" lon="-2.444703">
        <ele>384.5</ele>
        <time>2019-08-20T05:11:36Z</time>
        <sat>8</sat>
      </trkpt>
      <trkpt lat="42.468334" lon="-2.444774">
        <ele>384.3</ele>
        <time>2019-08-20T05:11:41Z</time>
        <sat>7</sat>
      </trkpt>
      <trkpt lat="42.468328" lon="-2.444864">
        <ele>384.9</ele>
        <time>2019-08-20T05:11:48Z</time>
        <sat>8</sat>
      </trkpt>
      <trkpt lat="42.468296" lon="-2.444899">
        <ele>384.9</ele>
        <time>2019-08-20T05:11:52Z</time>
        <sat>8</sat>
      </trkpt>
      <trkpt lat="42.468310" lon="-2.444991">
        <ele>384.7</ele>
        <time>2019-08-20T05:11:55Z</time>
        <sat>8</sat>
      </trkpt>
      <trkpt lat="42.468266" lon="-2.445083">
        <ele>384.7</ele>
        <time>2019-08-20T05:12:00Z</time>
        <sat>8</sat>
      </trkpt>
      <trkpt lat="42.468251" lon="-2.445178">
        <ele>384.8</ele>
        <time>2019-08-20T05:12:07Z</time>
        <sat>8</sat>
      </trkpt>
      <trkpt lat="42.468087" lon="-2.445503">
        <ele>385.4</ele>
        <time>2019-08-20T05:12:37Z</time>
        <sat>8</sat>
      </trkpt>
      <trkpt lat="42.468059" lon="-2.445588">
        <ele>385.7</ele>
        <time>2019-08-20T05:12:46Z</time>
        <sat>8</sat>
      </trkpt>
      <trkpt lat="42.467913" lon="-2.445887">
        <ele>388.7</ele>
        <time>2019-08-20T05:17:30Z</time>
        <sat>8</sat>
      </trkpt>
      <trkpt lat="42.467891" lon="-2.445919">
        <ele>388.1</ele>
        <time>2019-08-20T05:17:45Z</time>
        <sat>8</sat>
      </trkpt>
      <trkpt lat="42.467888" lon="-2.445960">
        <ele>388.1</ele>
        <time>2019-08-20T05:17:50Z</time>
        <sat>8</sat>
      </trkpt>
      <trkpt lat="42.467833" lon="-2.446043">
        <ele>388.1</ele>
        <time>2019-08-20T05:17:57Z</time>
        <sat>8</sat>
      </trkpt>
      <trkpt lat="42.467829" lon="-2.446076">
        <ele>388.1</ele>
        <time>2019-08-20T05:17:59Z</time>
        <sat>8</sat>
      </trkpt>
      <trkpt lat="42.467775" lon="-2.446162">
        <ele>388.1</ele>
        <time>2019-08-20T05:18:07Z</time>
        <sat>8</sat>
      </trkpt>
      <trkpt lat="42.467728" lon="-2.446344">
        <ele>387.1</ele>
        <time>2019-08-20T05:18:22Z</time>
        <sat>8</sat>
      </trkpt>
      <trkpt lat="42.467714" lon="-2.446418">
        <ele>386.7</ele>
        <time>2019-08-20T05:18:29Z</time>
        <sat>8</sat>
      </trkpt>
      <trkpt lat="42.467654" lon="-2.446564">
        <ele>386.8</ele>
        <time>2019-08-20T05:18:46Z</time>
        <sat>8</sat>
      </trkpt>
      <trkpt lat="42.467655" lon="-2.446618">
        <ele>386.9</ele>
        <time>2019-08-20T05:18:53Z</time>
        <sat>8</sat>
      </trkpt>
      <trkpt lat="42.467623" lon="-2.446706">
        <ele>386.6</ele>
        <time>2019-08-20T05:19:02Z</time>
        <sat>8</sat>
      </trkpt>
      <trkpt lat="42.467617" lon="-2.446764">
        <ele>385.5</ele>
        <time>2019-08-20T05:19:09Z</time>
        <sat>8</sat>
      </trkpt>
      <trkpt lat="42.467597" lon="-2.446844">
        <ele>386.7</ele>
        <time>2019-08-20T05:19:16Z</time>
        <sat>8</sat>
      </trkpt>
      <trkpt lat="42.467593" lon="-2.447074">
        <ele>387.4</ele>
        <time>2019-08-20T05:20:43Z</time>
        <sat>7</sat>
      </trkpt>
      <trkpt lat="42.467626" lon="-2.447180">
        <ele>386.1</ele>
        <time>2019-08-20T05:22:45Z</time>
        <sat>8</sat>
      </trkpt>
      <trkpt lat="42.467634" lon="-2.447224">
        <ele>386.1</ele>
        <time>2019-08-20T05:23:21Z</time>
        <sat>8</sat>
      </trkpt>
      <trkpt lat="42.467660" lon="-2.447230">
        <ele>385.9</ele>
        <time>2019-08-20T05:23:57Z</time>
        <sat>8</sat>
      </trkpt>
      <trkpt lat="42.467673" lon="-2.447268">
        <ele>385.6</ele>
        <time>2019-08-20T05:24:35Z</time>
        <sat>7</sat>
      </trkpt>
      <trkpt lat="42.467706" lon="-2.447431">
        <ele>385.4</ele>
        <time>2019-08-20T05:25:43Z</time>
        <sat>7</sat>
      </trkpt>
      <trkpt lat="42.467651" lon="-2.447718">
        <ele>389.3</ele>
        <time>2019-08-20T05:26:07Z</time>
        <sat>7</sat>
      </trkpt>
      <trkpt lat="42.467582" lon="-2.447958">
        <ele>389.7</ele>
        <time>2019-08-20T05:26:23Z</time>
        <sat>8</sat>
      </trkpt>
      <trkpt lat="42.467575" lon="-2.448051">
        <ele>390.3</ele>
        <time>2019-08-20T05:26:32Z</time>
        <sat>7</sat>
      </trkpt>
      <trkpt lat="42.467567" lon="-2.448081">
        <ele>390.6</ele>
        <time>2019-08-20T05:26:38Z</time>
        <sat>8</sat>
      </trkpt>
      <trkpt lat="42.467499" lon="-2.448222">
        <ele>391.0</ele>
        <time>2019-08-20T05:26:48Z</time>
        <sat>8</sat>
      </trkpt>
      <trkpt lat="42.467502" lon="-2.448280">
        <ele>391.1</ele>
        <time>2019-08-20T05:26:51Z</time>
        <sat>8</sat>
      </trkpt>
      <trkpt lat="42.467474" lon="-2.448349">
        <ele>391.2</ele>
        <time>2019-08-20T05:26:55Z</time>
        <sat>8</sat>
      </trkpt>
      <trkpt lat="42.467393" lon="-2.448533">
        <ele>391.6</ele>
        <time>2019-08-20T05:27:09Z</time>
        <sat>8</sat>
      </trkpt>
      <trkpt lat="42.467363" lon="-2.448612">
        <ele>391.7</ele>
        <time>2019-08-20T05:27:15Z</time>
        <sat>7</sat>
      </trkpt>
      <trkpt lat="42.467345" lon="-2.448690">
        <ele>391.9</ele>
        <time>2019-08-20T05:27:20Z</time>
        <sat>8</sat>
      </trkpt>
      <trkpt lat="42.467309" lon="-2.448727">
        <ele>392.0</ele>
        <time>2019-08-20T05:27:26Z</time>
        <sat>8</sat>
      </trkpt>
      <trkpt lat="42.467257" lon="-2.448853">
        <ele>392.1</ele>
        <time>2019-08-20T05:27:34Z</time>
        <sat>7</sat>
      </trkpt>
      <trkpt lat="42.467227" lon="-2.448938">
        <ele>392.1</ele>
        <time>2019-08-20T05:27:40Z</time>
        <sat>7</sat>
      </trkpt>
      <trkpt lat="42.467157" lon="-2.449214">
        <ele>392.0</ele>
        <time>2019-08-20T05:27:59Z</time>
        <sat>8</sat>
      </trkpt>
      <trkpt lat="42.467145" lon="-2.449267">
        <ele>392.2</ele>
        <time>2019-08-20T05:28:02Z</time>
        <sat>7</sat>
      </trkpt>
      <trkpt lat="42.467129" lon="-2.449343">
        <ele>391.8</ele>
        <time>2019-08-20T05:28:06Z</time>
        <sat>7</sat>
      </trkpt>
      <trkpt lat="42.467117" lon="-2.449443">
        <ele>392.1</ele>
        <time>2019-08-20T05:28:12Z</time>
        <sat>8</sat>
      </trkpt>
      <trkpt lat="42.467086" lon="-2.449547">
        <ele>392.0</ele>
        <time>2019-08-20T05:28:20Z</time>
        <sat>7</sat>
      </trkpt>
      <trkpt lat="42.467005" lon="-2.449599">
        <ele>393.4</ele>
        <time>2019-08-20T05:28:30Z</time>
        <sat>8</sat>
      </trkpt>
      <trkpt lat="42.466977" lon="-2.449645">
        <ele>393.7</ele>
        <time>2019-08-20T05:28:33Z</time>
        <sat>8</sat>
      </trkpt>
      <trkpt lat="42.466924" lon="-2.449657">
        <ele>393.8</ele>
        <time>2019-08-20T05:28:37Z</time>
        <sat>8</sat>
      </trkpt>
      <trkpt lat="42.466794" lon="-2.449675">
        <ele>393.9</ele>
        <time>2019-08-20T05:28:43Z</time>
        <sat>8</sat>
      </trkpt>
      <trkpt lat="42.466742" lon="-2.449730">
        <ele>393.9</ele>
        <time>2019-08-20T05:28:52Z</time>
        <sat>8</sat>
      </trkpt>
      <trkpt lat="42.466743" lon="-2.449777">
        <ele>393.9</ele>
        <time>2019-08-20T05:28:55Z</time>
        <sat>8</sat>
      </trkpt>
      <trkpt lat="42.466730" lon="-2.449888">
        <ele>393.9</ele>
        <time>2019-08-20T05:29:02Z</time>
        <sat>8</sat>
      </trkpt>
      <trkpt lat="42.466707" lon="-2.449946">
        <ele>394.0</ele>
        <time>2019-08-20T05:29:07Z</time>
        <sat>8</sat>
      </trkpt>
      <trkpt lat="42.466701" lon="-2.450032">
        <ele>394.1</ele>
        <time>2019-08-20T05:29:13Z</time>
        <sat>8</sat>
      </trkpt>
      <trkpt lat="42.466619" lon="-2.450161">
        <ele>394.7</ele>
        <time>2019-08-20T05:30:19Z</time>
        <sat>8</sat>
      </trkpt>
      <trkpt lat="42.466589" lon="-2.450180">
        <ele>394.7</ele>
        <time>2019-08-20T05:30:21Z</time>
        <sat>8</sat>
      </trkpt>
      <trkpt lat="42.466554" lon="-2.450193">
        <ele>394.7</ele>
        <time>2019-08-20T05:30:26Z</time>
        <sat>8</sat>
      </trkpt>
      <trkpt lat="42.466523" lon="-2.450231">
        <ele>394.7</ele>
        <time>2019-08-20T05:30:35Z</time>
        <sat>7</sat>
      </trkpt>
      <trkpt lat="42.466509" lon="-2.450290">
        <ele>394.8</ele>
        <time>2019-08-20T05:30:43Z</time>
        <sat>8</sat>
      </trkpt>
      <trkpt lat="42.466508" lon="-2.450376">
        <ele>394.8</ele>
        <time>2019-08-20T05:30:51Z</time>
        <sat>8</sat>
      </trkpt>
      <trkpt lat="42.466449" lon="-2.450390">
        <ele>394.8</ele>
        <time>2019-08-20T05:31:01Z</time>
        <sat>8</sat>
      </trkpt>
      <trkpt lat="42.466385" lon="-2.450384">
        <ele>394.3</ele>
        <time>2019-08-20T05:31:18Z</time>
        <sat>8</sat>
      </trkpt>
      <trkpt lat="42.466353" lon="-2.450418">
        <ele>394.1</ele>
        <time>2019-08-20T05:31:36Z</time>
        <sat>8</sat>
      </trkpt>
      <trkpt lat="42.466329" lon="-2.450480">
        <ele>393.0</ele>
        <time>2019-08-20T05:36:43Z</time>
        <sat>6</sat>
      </trkpt>
      <trkpt lat="42.466257" lon="-2.450524">
        <ele>393.4</ele>
        <time>2019-08-20T05:36:48Z</time>
        <sat>7</sat>
      </trkpt>
      <trkpt lat="42.466172" lon="-2.450621">
        <ele>393.5</ele>
        <time>2019-08-20T05:36:57Z</time>
        <sat>7</sat>
      </trkpt>
      <trkpt lat="42.466178" lon="-2.450684">
        <ele>393.5</ele>
        <time>2019-08-20T05:37:02Z</time>
        <sat>7</sat>
      </trkpt>
      <trkpt lat="42.466113" lon="-2.450760">
        <ele>393.4</ele>
        <time>2019-08-20T05:37:12Z</time>
        <sat>7</sat>
      </trkpt>
      <trkpt lat="42.466042" lon="-2.450781">
        <ele>393.4</ele>
        <time>2019-08-20T05:37:19Z</time>
        <sat>7</sat>
      </trkpt>
      <trkpt lat="42.466021" lon="-2.450875">
        <ele>393.3</ele>
        <time>2019-08-20T05:37:27Z</time>
        <sat>7</sat>
      </trkpt>
      <trkpt lat="42.465979" lon="-2.450922">
        <ele>393.2</ele>
        <time>2019-08-20T05:37:31Z</time>
        <sat>7</sat>
      </trkpt>
      <trkpt lat="42.465967" lon="-2.450995">
        <ele>393.1</ele>
        <time>2019-08-20T05:37:35Z</time>
        <sat>8</sat>
      </trkpt>
      <trkpt lat="42.465990" lon="-2.451049">
        <ele>392.6</ele>
        <time>2019-08-20T05:37:38Z</time>
        <sat>8</sat>
      </trkpt>
      <trkpt lat="42.466044" lon="-2.451093">
        <ele>392.8</ele>
        <time>2019-08-20T05:37:41Z</time>
        <sat>8</sat>
      </trkpt>
      <trkpt lat="42.466086" lon="-2.451140">
        <ele>393.2</ele>
        <time>2019-08-20T05:37:44Z</time>
        <sat>8</sat>
      </trkpt>
      <trkpt lat="42.466148" lon="-2.451305">
        <ele>391.3</ele>
        <time>2019-08-20T05:37:53Z</time>
        <sat>8</sat>
      </trkpt>
      <trkpt lat="42.466162" lon="-2.451469">
        <ele>393.2</ele>
        <time>2019-08-20T05:38:03Z</time>
        <sat>8</sat>
      </trkpt>
      <trkpt lat="42.466127" lon="-2.451559">
        <ele>393.4</ele>
        <time>2019-08-20T05:38:09Z</time>
        <sat>7</sat>
      </trkpt>
      <trkpt lat="42.466115" lon="-2.451651">
        <ele>393.4</ele>
        <time>2019-08-20T05:38:15Z</time>
        <sat>7</sat>
      </trkpt>
      <trkpt lat="42.466115" lon="-2.451772">
        <ele>393.2</ele>
        <time>2019-08-20T05:38:27Z</time>
        <sat>7</sat>
      </trkpt>
      <trkpt lat="42.466108" lon="-2.451803">
        <ele>393.2</ele>
        <time>2019-08-20T05:38:35Z</time>
        <sat>8</sat>
      </trkpt>
      <trkpt lat="42.466113" lon="-2.451895">
        <ele>393.1</ele>
        <time>2019-08-20T05:38:41Z</time>
        <sat>7</sat>
      </trkpt>
      <trkpt lat="42.466066" lon="-2.452079">
        <ele>392.6</ele>
        <time>2019-08-20T05:38:53Z</time>
        <sat>7</sat>
      </trkpt>
      <trkpt lat="42.466004" lon="-2.452156">
        <ele>393.4</ele>
        <time>2019-08-20T05:38:58Z</time>
        <sat>7</sat>
      </trkpt>
      <trkpt lat="42.465968" lon="-2.452253">
        <ele>393.8</ele>
        <time>2019-08-20T05:39:04Z</time>
        <sat>8</sat>
      </trkpt>
      <trkpt lat="42.465919" lon="-2.452416">
        <ele>393.6</ele>
        <time>2019-08-20T05:39:15Z</time>
        <sat>8</sat>
      </trkpt>
      <trkpt lat="42.465888" lon="-2.452469">
        <ele>393.4</ele>
        <time>2019-08-20T05:39:18Z</time>
        <sat>8</sat>
      </trkpt>
      <trkpt lat="42.465814" lon="-2.452530">
        <ele>393.3</ele>
        <time>2019-08-20T05:39:22Z</time>
        <sat>9</sat>
      </trkpt>
      <trkpt lat="42.465778" lon="-2.452629">
        <ele>393.3</ele>
        <time>2019-08-20T05:39:29Z</time>
        <sat>8</sat>
      </trkpt>
      <trkpt lat="42.465751" lon="-2.452684">
        <ele>393.5</ele>
        <time>2019-08-20T05:39:32Z</time>
        <sat>9</sat>
      </trkpt>
      <trkpt lat="42.465692" lon="-2.452746">
        <ele>393.5</ele>
        <time>2019-08-20T05:39:36Z</time>
        <sat>7</sat>
      </trkpt>
      <trkpt lat="42.465639" lon="-2.452777">
        <ele>393.6</ele>
        <time>2019-08-20T05:39:38Z</time>
        <sat>8</sat>
      </trkpt>
      <trkpt lat="42.465563" lon="-2.452935">
        <ele>393.8</ele>
        <time>2019-08-20T05:39:47Z</time>
        <sat>8</sat>
      </trkpt>
      <trkpt lat="42.465498" lon="-2.453081">
        <ele>393.8</ele>
        <time>2019-08-20T05:39:55Z</time>
        <sat>6</sat>
      </trkpt>
      <trkpt lat="42.465503" lon="-2.453146">
        <ele>393.8</ele>
        <time>2019-08-20T05:39:59Z</time>
        <sat>8</sat>
      </trkpt>
      <trkpt lat="42.465481" lon="-2.453253">
        <ele>393.7</ele>
        <time>2019-08-20T05:40:07Z</time>
        <sat>8</sat>
      </trkpt>
      <trkpt lat="42.465516" lon="-2.453330">
        <ele>393.5</ele>
        <time>2019-08-20T05:40:10Z</time>
        <sat>9</sat>
      </trkpt>
      <trkpt lat="42.465518" lon="-2.453372">
        <ele>393.4</ele>
        <time>2019-08-20T05:40:12Z</time>
        <sat>9</sat>
      </trkpt>
      <trkpt lat="42.465465" lon="-2.453448">
        <ele>393.5</ele>
        <time>2019-08-20T05:40:16Z</time>
        <sat>8</sat>
      </trkpt>
      <trkpt lat="42.465450" lon="-2.453531">
        <ele>393.8</ele>
        <time>2019-08-20T05:40:21Z</time>
        <sat>9</sat>
      </trkpt>
      <trkpt lat="42.465414" lon="-2.453559">
        <ele>393.9</ele>
        <time>2019-08-20T05:40:24Z</time>
        <sat>9</sat>
      </trkpt>
      <trkpt lat="42.465363" lon="-2.453612">
        <ele>394.0</ele>
        <time>2019-08-20T05:40:27Z</time>
        <sat>9</sat>
      </trkpt>
      <trkpt lat="42.465312" lon="-2.453640">
        <ele>394.0</ele>
        <time>2019-08-20T05:40:29Z</time>
        <sat>8</sat>
      </trkpt>
      <trkpt lat="42.465260" lon="-2.453695">
        <ele>394.0</ele>
        <time>2019-08-20T05:40:32Z</time>
        <sat>9</sat>
      </trkpt>
      <trkpt lat="42.465208" lon="-2.453802">
        <ele>394.2</ele>
        <time>2019-08-20T05:40:38Z</time>
        <sat>8</sat>
      </trkpt>
      <trkpt lat="42.465179" lon="-2.453848">
        <ele>394.3</ele>
        <time>2019-08-20T05:40:40Z</time>
        <sat>8</sat>
      </trkpt>
      <trkpt lat="42.465152" lon="-2.453947">
        <ele>394.3</ele>
        <time>2019-08-20T05:40:46Z</time>
        <sat>9</sat>
      </trkpt>
      <trkpt lat="42.465281" lon="-2.454367">
        <ele>394.9</ele>
        <time>2019-08-20T05:41:39Z</time>
        <sat>8</sat>
      </trkpt>
      <trkpt lat="42.465350" lon="-2.454406">
        <ele>394.9</ele>
        <time>2019-08-20T05:41:42Z</time>
        <sat>9</sat>
      </trkpt>
      <trkpt lat="42.465388" lon="-2.454544">
        <ele>394.9</ele>
        <time>2019-08-20T05:41:51Z</time>
        <sat>8</sat>
      </trkpt>
      <trkpt lat="42.465445" lon="-2.454666">
        <ele>394.9</ele>
        <time>2019-08-20T05:42:00Z</time>
        <sat>9</sat>
      </trkpt>
      <trkpt lat="42.465482" lon="-2.454721">
        <ele>394.9</ele>
        <time>2019-08-20T05:42:04Z</time>
        <sat>8</sat>
      </trkpt>
      <trkpt lat="42.465515" lon="-2.454734">
        <ele>394.9</ele>
        <time>2019-08-20T05:42:05Z</time>
        <sat>8</sat>
      </trkpt>
      <trkpt lat="42.465529" lon="-2.454817">
        <ele>394.8</ele>
        <time>2019-08-20T05:42:10Z</time>
        <sat>9</sat>
      </trkpt>
      <trkpt lat="42.465520" lon="-2.454884">
        <ele>394.8</ele>
        <time>2019-08-20T05:42:14Z</time>
        <sat>8</sat>
      </trkpt>
      <trkpt lat="42.465489" lon="-2.454947">
        <ele>394.9</ele>
        <time>2019-08-20T05:42:18Z</time>
        <sat>8</sat>
      </trkpt>
      <trkpt lat="42.465444" lon="-2.455010">
        <ele>394.8</ele>
        <time>2019-08-20T05:42:24Z</time>
        <sat>8</sat>
      </trkpt>
      <trkpt lat="42.465404" lon="-2.455098">
        <ele>391.6</ele>
        <time>2019-08-20T05:42:31Z</time>
        <sat>9</sat>
      </trkpt>
      <trkpt lat="42.465348" lon="-2.455153">
        <ele>392.6</ele>
        <time>2019-08-20T05:42:33Z</time>
        <sat>8</sat>
      </trkpt>
      <trkpt lat="42.465338" lon="-2.455207">
        <ele>393.4</ele>
        <time>2019-08-20T05:42:35Z</time>
        <sat>8</sat>
      </trkpt>
      <trkpt lat="42.465271" lon="-2.455281">
        <ele>394.4</ele>
        <time>2019-08-20T05:42:39Z</time>
        <sat>7</sat>
      </trkpt>
      <trkpt lat="42.465179" lon="-2.455452">
        <ele>395.4</ele>
        <time>2019-08-20T05:42:50Z</time>
        <sat>9</sat>
      </trkpt>
      <trkpt lat="42.465056" lon="-2.455520">
        <ele>395.6</ele>
        <time>2019-08-20T05:42:54Z</time>
        <sat>8</sat>
      </trkpt>
      <trkpt lat="42.464956" lon="-2.455706">
        <ele>395.5</ele>
        <time>2019-08-20T05:43:05Z</time>
        <sat>7</sat>
      </trkpt>
      <trkpt lat="42.464932" lon="-2.455797">
        <ele>395.4</ele>
        <time>2019-08-20T05:43:11Z</time>
        <sat>8</sat>
      </trkpt>
      <trkpt lat="42.464942" lon="-2.455866">
        <ele>395.3</ele>
        <time>2019-08-20T05:43:15Z</time>
        <sat>8</sat>
      </trkpt>
      <trkpt lat="42.464929" lon="-2.455979">
        <ele>395.1</ele>
        <time>2019-08-20T05:43:22Z</time>
        <sat>8</sat>
      </trkpt>
      <trkpt lat="42.464929" lon="-2.456029">
        <ele>395.1</ele>
        <time>2019-08-20T05:43:25Z</time>
        <sat>8</sat>
      </trkpt>
      <trkpt lat="42.464921" lon="-2.456158">
        <ele>395.0</ele>
        <time>2019-08-20T05:43:34Z</time>
        <sat>9</sat>
      </trkpt>
      <trkpt lat="42.464886" lon="-2.456316">
        <ele>395.0</ele>
        <time>2019-08-20T05:43:44Z</time>
        <sat>8</sat>
      </trkpt>
      <trkpt lat="42.464875" lon="-2.456426">
        <ele>395.0</ele>
        <time>2019-08-20T05:43:51Z</time>
        <sat>9</sat>
      </trkpt>
      <trkpt lat="42.464854" lon="-2.456605">
        <ele>394.8</ele>
        <time>2019-08-20T05:44:02Z</time>
        <sat>8</sat>
      </trkpt>
      <trkpt lat="42.464846" lon="-2.456675">
        <ele>394.7</ele>
        <time>2019-08-20T05:44:06Z</time>
        <sat>8</sat>
      </trkpt>
      <trkpt lat="42.464853" lon="-2.456712">
        <ele>394.7</ele>
        <time>2019-08-20T05:44:08Z</time>
        <sat>8</sat>
      </trkpt>
      <trkpt lat="42.464851" lon="-2.456807">
        <ele>394.6</ele>
        <time>2019-08-20T05:44:14Z</time>
        <sat>9</sat>
      </trkpt>
      <trkpt lat="42.464788" lon="-2.456893">
        <ele>394.4</ele>
        <time>2019-08-20T05:44:20Z</time>
        <sat>8</sat>
      </trkpt>
      <trkpt lat="42.464779" lon="-2.456982">
        <ele>394.4</ele>
        <time>2019-08-20T05:44:25Z</time>
        <sat>9</sat>
      </trkpt>
      <trkpt lat="42.464758" lon="-2.457031">
        <ele>394.4</ele>
        <time>2019-08-20T05:44:28Z</time>
        <sat>9</sat>
      </trkpt>
      <trkpt lat="42.464736" lon="-2.457121">
        <ele>394.4</ele>
        <time>2019-08-20T05:44:33Z</time>
        <sat>9</sat>
      </trkpt>
      <trkpt lat="42.464725" lon="-2.457260">
        <ele>394.4</ele>
        <time>2019-08-20T05:44:41Z</time>
        <sat>9</sat>
      </trkpt>
      <trkpt lat="42.464695" lon="-2.457340">
        <ele>394.4</ele>
        <time>2019-08-20T05:44:46Z</time>
        <sat>8</sat>
      </trkpt>
      <trkpt lat="42.464695" lon="-2.457377">
        <ele>394.4</ele>
        <time>2019-08-20T05:44:48Z</time>
        <sat>5</sat>
      </trkpt>
      <trkpt lat="42.464681" lon="-2.457469">
        <ele>394.5</ele>
        <time>2019-08-20T05:44:54Z</time>
        <sat>7</sat>
      </trkpt>
      <trkpt lat="42.464634" lon="-2.457632">
        <ele>394.5</ele>
        <time>2019-08-20T05:45:03Z</time>
        <sat>9</sat>
      </trkpt>
      <trkpt lat="42.464601" lon="-2.457669">
        <ele>394.4</ele>
        <time>2019-08-20T05:45:06Z</time>
        <sat>9</sat>
      </trkpt>
      <trkpt lat="42.464489" lon="-2.457768">
        <ele>394.5</ele>
        <time>2019-08-20T05:45:14Z</time>
        <sat>9</sat>
      </trkpt>
      <trkpt lat="42.464471" lon="-2.457798">
        <ele>394.4</ele>
        <time>2019-08-20T05:45:16Z</time>
        <sat>9</sat>
      </trkpt>
      <trkpt lat="42.464444" lon="-2.457885">
        <ele>394.4</ele>
        <time>2019-08-20T05:45:21Z</time>
        <sat>9</sat>
      </trkpt>
      <trkpt lat="42.464447" lon="-2.457974">
        <ele>394.4</ele>
        <time>2019-08-20T05:45:26Z</time>
        <sat>9</sat>
      </trkpt>
      <trkpt lat="42.464437" lon="-2.458048">
        <ele>394.5</ele>
        <time>2019-08-20T05:45:30Z</time>
        <sat>9</sat>
      </trkpt>
      <trkpt lat="42.464435" lon="-2.458165">
        <ele>394.5</ele>
        <time>2019-08-20T05:45:37Z</time>
        <sat>9</sat>
      </trkpt>
      <trkpt lat="42.464413" lon="-2.458271">
        <ele>394.5</ele>
        <time>2019-08-20T05:45:43Z</time>
        <sat>9</sat>
      </trkpt>
      <trkpt lat="42.464405" lon="-2.458383">
        <ele>394.5</ele>
        <time>2019-08-20T05:45:49Z</time>
        <sat>9</sat>
      </trkpt>
      <trkpt lat="42.464390" lon="-2.458450">
        <ele>394.6</ele>
        <time>2019-08-20T05:45:53Z</time>
        <sat>9</sat>
      </trkpt>
      <trkpt lat="42.464371" lon="-2.458681">
        <ele>394.6</ele>
        <time>2019-08-20T05:46:07Z</time>
        <sat>8</sat>
      </trkpt>
      <trkpt lat="42.464321" lon="-2.458902">
        <ele>394.6</ele>
        <time>2019-08-20T05:46:20Z</time>
        <sat>8</sat>
      </trkpt>
      <trkpt lat="42.464311" lon="-2.459012">
        <ele>394.7</ele>
        <time>2019-08-20T05:46:27Z</time>
        <sat>7</sat>
      </trkpt>
      <trkpt lat="42.464218" lon="-2.459123">
        <ele>394.6</ele>
        <time>2019-08-20T05:46:37Z</time>
        <sat>7</sat>
      </trkpt>
      <trkpt lat="42.464128" lon="-2.459192">
        <ele>394.6</ele>
        <time>2019-08-20T05:46:43Z</time>
        <sat>8</sat>
      </trkpt>
      <trkpt lat="42.464104" lon="-2.459229">
        <ele>394.6</ele>
        <time>2019-08-20T05:46:47Z</time>
        <sat>7</sat>
      </trkpt>
      <trkpt lat="42.464098" lon="-2.459382">
        <ele>394.5</ele>
        <time>2019-08-20T05:46:57Z</time>
        <sat>7</sat>
      </trkpt>
      <trkpt lat="42.464046" lon="-2.459508">
        <ele>394.5</ele>
        <time>2019-08-20T05:47:06Z</time>
        <sat>7</sat>
      </trkpt>
      <trkpt lat="42.464031" lon="-2.459606">
        <ele>394.4</ele>
        <time>2019-08-20T05:47:13Z</time>
        <sat>8</sat>
      </trkpt>
      <trkpt lat="42.463981" lon="-2.459818">
        <ele>394.4</ele>
        <time>2019-08-20T05:47:27Z</time>
        <sat>6</sat>
      </trkpt>
      <trkpt lat="42.463945" lon="-2.459903">
        <ele>394.4</ele>
        <time>2019-08-20T05:47:32Z</time>
        <sat>6</sat>
      </trkpt>
      <trkpt lat="42.463931" lon="-2.459974">
        <ele>394.4</ele>
        <time>2019-08-20T05:47:36Z</time>
        <sat>8</sat>
      </trkpt>
      <trkpt lat="42.463868" lon="-2.460125">
        <ele>394.3</ele>
        <time>2019-08-20T05:47:46Z</time>
        <sat>6</sat>
      </trkpt>
      <trkpt lat="42.463859" lon="-2.460195">
        <ele>394.3</ele>
        <time>2019-08-20T05:47:50Z</time>
        <sat>6</sat>
      </trkpt>
      <trkpt lat="42.463842" lon="-2.460263">
        <ele>394.4</ele>
        <time>2019-08-20T05:47:54Z</time>
        <sat>7</sat>
      </trkpt>
      <trkpt lat="42.463827" lon="-2.460439">
        <ele>394.6</ele>
        <time>2019-08-20T05:48:05Z</time>
        <sat>7</sat>
      </trkpt>
      <trkpt lat="42.463813" lon="-2.460498">
        <ele>394.6</ele>
        <time>2019-08-20T05:48:09Z</time>
        <sat>6</sat>
      </trkpt>
      <trkpt lat="42.463749" lon="-2.460577">
        <ele>394.7</ele>
        <time>2019-08-20T05:48:15Z</time>
        <sat>9</sat>
      </trkpt>
      <trkpt lat="42.463728" lon="-2.460657">
        <ele>394.7</ele>
        <time>2019-08-20T05:48:21Z</time>
        <sat>8</sat>
      </trkpt>
      <trkpt lat="42.463733" lon="-2.460622">
        <ele>394.7</ele>
        <time>2019-08-20T05:48:34Z</time>
        <sat>8</sat>
      </trkpt>
      <trkpt lat="42.463731" lon="-2.460639">
        <ele>394.7</ele>
        <time>2019-08-20T05:48:41Z</time>
        <sat>9</sat>
      </trkpt>
      <trkpt lat="42.463720" lon="-2.460652">
        <ele>394.7</ele>
        <time>2019-08-20T05:48:52Z</time>
        <sat>9</sat>
      </trkpt>
      <trkpt lat="42.463732" lon="-2.460645">
        <ele>394.5</ele>
        <time>2019-08-20T05:49:09Z</time>
        <sat>9</sat>
      </trkpt>
      <trkpt lat="42.463722" lon="-2.460833">
        <ele>394.4</ele>
        <time>2019-08-20T05:49:29Z</time>
        <sat>7</sat>
      </trkpt>
      <trkpt lat="42.463697" lon="-2.460970">
        <ele>394.5</ele>
        <time>2019-08-20T05:49:37Z</time>
        <sat>8</sat>
      </trkpt>
      <trkpt lat="42.463698" lon="-2.461033">
        <ele>394.5</ele>
        <time>2019-08-20T05:49:41Z</time>
        <sat>8</sat>
      </trkpt>
      <trkpt lat="42.463671" lon="-2.461149">
        <ele>394.5</ele>
        <time>2019-08-20T05:49:48Z</time>
        <sat>7</sat>
      </trkpt>
      <trkpt lat="42.463660" lon="-2.461335">
        <ele>394.6</ele>
        <time>2019-08-20T05:49:59Z</time>
        <sat>9</sat>
      </trkpt>
      <trkpt lat="42.463630" lon="-2.461517">
        <ele>394.6</ele>
        <time>2019-08-20T05:50:10Z</time>
        <sat>9</sat>
      </trkpt>
      <trkpt lat="42.463632" lon="-2.461624">
        <ele>394.6</ele>
        <time>2019-08-20T05:50:16Z</time>
        <sat>7</sat>
      </trkpt>
      <trkpt lat="42.463625" lon="-2.461697">
        <ele>394.7</ele>
        <time>2019-08-20T05:50:20Z</time>
        <sat>9</sat>
      </trkpt>
      <trkpt lat="42.463594" lon="-2.461766">
        <ele>394.8</ele>
        <time>2019-08-20T05:50:25Z</time>
        <sat>8</sat>
      </trkpt>
      <trkpt lat="42.463564" lon="-2.461918">
        <ele>394.9</ele>
        <time>2019-08-20T05:50:37Z</time>
        <sat>9</sat>
      </trkpt>
      <trkpt lat="42.463498" lon="-2.461905">
        <ele>395.2</ele>
        <time>2019-08-20T05:50:40Z</time>
        <sat>9</sat>
      </trkpt>
      <trkpt lat="42.463396" lon="-2.461828">
        <ele>395.5</ele>
        <time>2019-08-20T05:50:47Z</time>
        <sat>9</sat>
      </trkpt>
      <trkpt lat="42.463338" lon="-2.461798">
        <ele>395.6</ele>
        <time>2019-08-20T05:50:52Z</time>
        <sat>9</sat>
      </trkpt>
      <trkpt lat="42.463292" lon="-2.461814">
        <ele>395.6</ele>
        <time>2019-08-20T05:50:56Z</time>
        <sat>8</sat>
      </trkpt>
      <trkpt lat="42.463235" lon="-2.462016">
        <ele>395.6</ele>
        <time>2019-08-20T05:51:06Z</time>
        <sat>9</sat>
      </trkpt>
      <trkpt lat="42.463220" lon="-2.462099">
        <ele>395.6</ele>
        <time>2019-08-20T05:51:11Z</time>
        <sat>9</sat>
      </trkpt>
      <trkpt lat="42.463147" lon="-2.462071">
        <ele>395.8</ele>
        <time>2019-08-20T05:51:17Z</time>
        <sat>9</sat>
      </trkpt>
      <trkpt lat="42.463109" lon="-2.462070">
        <ele>395.9</ele>
        <time>2019-08-20T05:51:20Z</time>
        <sat>9</sat>
      </trkpt>
      <trkpt lat="42.462969" lon="-2.462039">
        <ele>395.9</ele>
        <time>2019-08-20T05:51:30Z</time>
        <sat>9</sat>
      </trkpt>
      <trkpt lat="42.462894" lon="-2.461998">
        <ele>395.9</ele>
        <time>2019-08-20T05:51:37Z</time>
        <sat>9</sat>
      </trkpt>
      <trkpt lat="42.462836" lon="-2.461993">
        <ele>395.9</ele>
        <time>2019-08-20T05:51:42Z</time>
        <sat>9</sat>
      </trkpt>
      <trkpt lat="42.462726" lon="-2.461961">
        <ele>395.9</ele>
        <time>2019-08-20T05:51:50Z</time>
        <sat>9</sat>
      </trkpt>
      <trkpt lat="42.462615" lon="-2.461914">
        <ele>395.9</ele>
        <time>2019-08-20T05:51:58Z</time>
        <sat>9</sat>
      </trkpt>
      <trkpt lat="42.462487" lon="-2.461909">
        <ele>395.3</ele>
        <time>2019-08-20T05:52:41Z</time>
        <sat>7</sat>
      </trkpt>
      <trkpt lat="42.462357" lon="-2.461851">
        <ele>395.4</ele>
        <time>2019-08-20T05:52:51Z</time>
        <sat>9</sat>
      </trkpt>
      <trkpt lat="42.462281" lon="-2.461794">
        <ele>395.6</ele>
        <time>2019-08-20T05:52:58Z</time>
        <sat>9</sat>
      </trkpt>
      <trkpt lat="42.462255" lon="-2.461765">
        <ele>395.6</ele>
        <time>2019-08-20T05:53:00Z</time>
        <sat>9</sat>
      </trkpt>
      <trkpt lat="42.462126" lon="-2.461703">
        <ele>395.7</ele>
        <time>2019-08-20T05:53:08Z</time>
        <sat>9</sat>
      </trkpt>
      <trkpt lat="42.461999" lon="-2.461602">
        <ele>395.6</ele>
        <time>2019-08-20T05:53:18Z</time>
        <sat>9</sat>
      </trkpt>
      <trkpt lat="42.461941" lon="-2.461550">
        <ele>395.7</ele>
        <time>2019-08-20T05:53:26Z</time>
        <sat>9</sat>
      </trkpt>
      <trkpt lat="42.461790" lon="-2.461489">
        <ele>395.7</ele>
        <time>2019-08-20T05:53:48Z</time>
        <sat>9</sat>
      </trkpt>
      <trkpt lat="42.461756" lon="-2.461463">
        <ele>395.8</ele>
        <time>2019-08-20T05:53:52Z</time>
        <sat>9</sat>
      </trkpt>
      <trkpt lat="42.461702" lon="-2.461446">
        <ele>395.8</ele>
        <time>2019-08-20T05:53:57Z</time>
        <sat>8</sat>
      </trkpt>
      <trkpt lat="42.461656" lon="-2.461420">
        <ele>395.8</ele>
        <time>2019-08-20T05:54:01Z</time>
        <sat>9</sat>
      </trkpt>
      <trkpt lat="42.461513" lon="-2.461397">
        <ele>395.8</ele>
        <time>2019-08-20T05:54:08Z</time>
        <sat>7</sat>
      </trkpt>
      <trkpt lat="42.461447" lon="-2.461371">
        <ele>395.8</ele>
        <time>2019-08-20T05:54:12Z</time>
        <sat>7</sat>
      </trkpt>
      <trkpt lat="42.461374" lon="-2.461312">
        <ele>395.9</ele>
        <time>2019-08-20T05:54:18Z</time>
        <sat>7</sat>
      </trkpt>
      <trkpt lat="42.461291" lon="-2.461205">
        <ele>395.9</ele>
        <time>2019-08-20T05:54:28Z</time>
        <sat>7</sat>
      </trkpt>
      <trkpt lat="42.461239" lon="-2.461189">
        <ele>395.9</ele>
        <time>2019-08-20T05:54:33Z</time>
        <sat>7</sat>
      </trkpt>
      <trkpt lat="42.461164" lon="-2.461253">
        <ele>395.9</ele>
        <time>2019-08-20T05:54:40Z</time>
        <sat>6</sat>
      </trkpt>
      <trkpt lat="42.461075" lon="-2.461410">
        <ele>396.0</ele>
        <time>2019-08-20T05:54:51Z</time>
        <sat>8</sat>
      </trkpt>
      <trkpt lat="42.461012" lon="-2.461480">
        <ele>396.2</ele>
        <time>2019-08-20T05:54:57Z</time>
        <sat>8</sat>
      </trkpt>
      <trkpt lat="42.460926" lon="-2.461597">
        <ele>396.4</ele>
        <time>2019-08-20T05:55:06Z</time>
        <sat>8</sat>
      </trkpt>
      <trkpt lat="42.460885" lon="-2.461634">
        <ele>396.5</ele>
        <time>2019-08-20T05:55:09Z</time>
        <sat>8</sat>
      </trkpt>
      <trkpt lat="42.460839" lon="-2.461711">
        <ele>396.5</ele>
        <time>2019-08-20T05:55:13Z</time>
        <sat>7</sat>
      </trkpt>
      <trkpt lat="42.460727" lon="-2.461839">
        <ele>396.9</ele>
        <time>2019-08-20T05:55:23Z</time>
        <sat>8</sat>
      </trkpt>
      <trkpt lat="42.460652" lon="-2.461901">
        <ele>397.1</ele>
        <time>2019-08-20T05:55:29Z</time>
        <sat>9</sat>
      </trkpt>
      <trkpt lat="42.460536" lon="-2.462047">
        <ele>397.4</ele>
        <time>2019-08-20T05:55:40Z</time>
        <sat>9</sat>
      </trkpt>
      <trkpt lat="42.460462" lon="-2.462058">
        <ele>397.6</ele>
        <time>2019-08-20T05:55:46Z</time>
        <sat>9</sat>
      </trkpt>
      <trkpt lat="42.460416" lon="-2.462017">
        <ele>398.1</ele>
        <time>2019-08-20T05:55:52Z</time>
        <sat>8</sat>
      </trkpt>
      <trkpt lat="42.460387" lon="-2.462033">
        <ele>398.2</ele>
        <time>2019-08-20T05:56:04Z</time>
        <sat>8</sat>
      </trkpt>
      <trkpt lat="42.460285" lon="-2.462175">
        <ele>396.8</ele>
        <time>2019-08-20T05:56:38Z</time>
        <sat>8</sat>
      </trkpt>
      <trkpt lat="42.460210" lon="-2.462255">
        <ele>399.9</ele>
        <time>2019-08-20T05:56:58Z</time>
        <sat>8</sat>
      </trkpt>
      <trkpt lat="42.460158" lon="-2.462336">
        <ele>400.2</ele>
        <time>2019-08-20T05:57:07Z</time>
        <sat>9</sat>
      </trkpt>
      <trkpt lat="42.460134" lon="-2.462425">
        <ele>400.2</ele>
        <time>2019-08-20T05:57:13Z</time>
        <sat>9</sat>
      </trkpt>
      <trkpt lat="42.460112" lon="-2.462563">
        <ele>399.7</ele>
        <time>2019-08-20T05:57:23Z</time>
        <sat>8</sat>
      </trkpt>
      <trkpt lat="42.460081" lon="-2.462725">
        <ele>399.9</ele>
        <time>2019-08-20T05:57:34Z</time>
        <sat>9</sat>
      </trkpt>
      <trkpt lat="42.460067" lon="-2.462840">
        <ele>397.2</ele>
        <time>2019-08-20T05:57:42Z</time>
        <sat>9</sat>
      </trkpt>
      <trkpt lat="42.460003" lon="-2.463080">
        <ele>405.0</ele>
        <time>2019-08-20T05:57:56Z</time>
        <sat>9</sat>
      </trkpt>
      <trkpt lat="42.459998" lon="-2.463129">
        <ele>405.0</ele>
        <time>2019-08-20T05:57:59Z</time>
        <sat>9</sat>
      </trkpt>
      <trkpt lat="42.459973" lon="-2.463210">
        <ele>405.2</ele>
        <time>2019-08-20T05:58:04Z</time>
        <sat>9</sat>
      </trkpt>
      <trkpt lat="42.459947" lon="-2.463339">
        <ele>405.5</ele>
        <time>2019-08-20T05:58:12Z</time>
        <sat>9</sat>
      </trkpt>
      <trkpt lat="42.459942" lon="-2.463387">
        <ele>405.6</ele>
        <time>2019-08-20T05:58:15Z</time>
        <sat>9</sat>
      </trkpt>
      <trkpt lat="42.459890" lon="-2.463590">
        <ele>405.9</ele>
        <time>2019-08-20T05:58:28Z</time>
        <sat>9</sat>
      </trkpt>
      <trkpt lat="42.459877" lon="-2.463659">
        <ele>406.1</ele>
        <time>2019-08-20T05:58:32Z</time>
        <sat>9</sat>
      </trkpt>
      <trkpt lat="42.459836" lon="-2.463844">
        <ele>406.3</ele>
        <time>2019-08-20T05:58:43Z</time>
        <sat>9</sat>
      </trkpt>
      <trkpt lat="42.459818" lon="-2.463909">
        <ele>406.4</ele>
        <time>2019-08-20T05:58:47Z</time>
        <sat>9</sat>
      </trkpt>
      <trkpt lat="42.459787" lon="-2.464053">
        <ele>406.6</ele>
        <time>2019-08-20T05:58:56Z</time>
        <sat>9</sat>
      </trkpt>
      <trkpt lat="42.459741" lon="-2.464261">
        <ele>406.8</ele>
        <time>2019-08-20T05:59:09Z</time>
        <sat>9</sat>
      </trkpt>
      <trkpt lat="42.459694" lon="-2.464447">
        <ele>407.1</ele>
        <time>2019-08-20T05:59:21Z</time>
        <sat>9</sat>
      </trkpt>
      <trkpt lat="42.459666" lon="-2.464578">
        <ele>407.4</ele>
        <time>2019-08-20T05:59:29Z</time>
        <sat>9</sat>
      </trkpt>
      <trkpt lat="42.459659" lon="-2.464649">
        <ele>407.6</ele>
        <time>2019-08-20T05:59:33Z</time>
        <sat>10</sat>
      </trkpt>
      <trkpt lat="42.459638" lon="-2.464706">
        <ele>407.7</ele>
        <time>2019-08-20T05:59:37Z</time>
        <sat>10</sat>
      </trkpt>
      <trkpt lat="42.459625" lon="-2.464788">
        <ele>407.8</ele>
        <time>2019-08-20T05:59:42Z</time>
        <sat>10</sat>
      </trkpt>
      <trkpt lat="42.459581" lon="-2.464953">
        <ele>408.2</ele>
        <time>2019-08-20T05:59:52Z</time>
        <sat>10</sat>
      </trkpt>
      <trkpt lat="42.459568" lon="-2.464985">
        <ele>408.2</ele>
        <time>2019-08-20T05:59:54Z</time>
        <sat>10</sat>
      </trkpt>
      <trkpt lat="42.459546" lon="-2.465090">
        <ele>408.4</ele>
        <time>2019-08-20T06:00:00Z</time>
        <sat>10</sat>
      </trkpt>
      <trkpt lat="42.459530" lon="-2.465139">
        <ele>408.5</ele>
        <time>2019-08-20T06:00:03Z</time>
        <sat>10</sat>
      </trkpt>
      <trkpt lat="42.459485" lon="-2.465349">
        <ele>409.0</ele>
        <time>2019-08-20T06:00:16Z</time>
        <sat>10</sat>
      </trkpt>
      <trkpt lat="42.459460" lon="-2.465407">
        <ele>409.2</ele>
        <time>2019-08-20T06:00:20Z</time>
        <sat>10</sat>
      </trkpt>
      <trkpt lat="42.459419" lon="-2.465580">
        <ele>409.7</ele>
        <time>2019-08-20T06:00:31Z</time>
        <sat>10</sat>
      </trkpt>
      <trkpt lat="42.459396" lon="-2.465682">
        <ele>410.1</ele>
        <time>2019-08-20T06:00:38Z</time>
        <sat>10</sat>
      </trkpt>
      <trkpt lat="42.459388" lon="-2.465796">
        <ele>410.4</ele>
        <time>2019-08-20T06:00:45Z</time>
        <sat>10</sat>
      </trkpt>
      <trkpt lat="42.459355" lon="-2.465933">
        <ele>410.6</ele>
        <time>2019-08-20T06:00:53Z</time>
        <sat>10</sat>
      </trkpt>
      <trkpt lat="42.459313" lon="-2.466142">
        <ele>410.8</ele>
        <time>2019-08-20T06:01:05Z</time>
        <sat>10</sat>
      </trkpt>
      <trkpt lat="42.459312" lon="-2.466172">
        <ele>410.7</ele>
        <time>2019-08-20T06:01:07Z</time>
        <sat>9</sat>
      </trkpt>
      <trkpt lat="42.459269" lon="-2.466371">
        <ele>410.7</ele>
        <time>2019-08-20T06:01:20Z</time>
        <sat>10</sat>
      </trkpt>
      <trkpt lat="42.459203" lon="-2.466561">
        <ele>410.8</ele>
        <time>2019-08-20T06:02:02Z</time>
        <sat>10</sat>
      </trkpt>
      <trkpt lat="42.459158" lon="-2.466736">
        <ele>410.8</ele>
        <time>2019-08-20T06:02:13Z</time>
        <sat>10</sat>
      </trkpt>
      <trkpt lat="42.459138" lon="-2.466891">
        <ele>410.8</ele>
        <time>2019-08-20T06:02:22Z</time>
        <sat>9</sat>
      </trkpt>
      <trkpt lat="42.459146" lon="-2.467053">
        <ele>410.8</ele>
        <time>2019-08-20T06:02:31Z</time>
        <sat>8</sat>
      </trkpt>
      <trkpt lat="42.459147" lon="-2.467193">
        <ele>410.8</ele>
        <time>2019-08-20T06:02:39Z</time>
        <sat>10</sat>
      </trkpt>
      <trkpt lat="42.459140" lon="-2.467321">
        <ele>411.0</ele>
        <time>2019-08-20T06:02:50Z</time>
        <sat>10</sat>
      </trkpt>
      <trkpt lat="42.459132" lon="-2.467388">
        <ele>411.0</ele>
        <time>2019-08-20T06:02:54Z</time>
        <sat>10</sat>
      </trkpt>
      <trkpt lat="42.459133" lon="-2.467475">
        <ele>411.0</ele>
        <time>2019-08-20T06:02:59Z</time>
        <sat>10</sat>
      </trkpt>
      <trkpt lat="42.459124" lon="-2.467524">
        <ele>411.0</ele>
        <time>2019-08-20T06:03:02Z</time>
        <sat>10</sat>
      </trkpt>
      <trkpt lat="42.459122" lon="-2.467626">
        <ele>411.0</ele>
        <time>2019-08-20T06:03:08Z</time>
        <sat>10</sat>
      </trkpt>
      <trkpt lat="42.459107" lon="-2.467734">
        <ele>411.3</ele>
        <time>2019-08-20T06:03:15Z</time>
        <sat>10</sat>
      </trkpt>
      <trkpt lat="42.459064" lon="-2.467785">
        <ele>411.5</ele>
        <time>2019-08-20T06:03:20Z</time>
        <sat>10</sat>
      </trkpt>
      <trkpt lat="42.459043" lon="-2.467824">
        <ele>411.6</ele>
        <time>2019-08-20T06:03:23Z</time>
        <sat>10</sat>
      </trkpt>
      <trkpt lat="42.458939" lon="-2.467932">
        <ele>412.2</ele>
        <time>2019-08-20T06:03:34Z</time>
        <sat>10</sat>
      </trkpt>
      <trkpt lat="42.458904" lon="-2.467955">
        <ele>412.4</ele>
        <time>2019-08-20T06:03:37Z</time>
        <sat>10</sat>
      </trkpt>
      <trkpt lat="42.458845" lon="-2.467981">
        <ele>412.7</ele>
        <time>2019-08-20T06:03:42Z</time>
        <sat>10</sat>
      </trkpt>
      <trkpt lat="42.458735" lon="-2.467999">
        <ele>413.1</ele>
        <time>2019-08-20T06:03:51Z</time>
        <sat>10</sat>
      </trkpt>
      <trkpt lat="42.458687" lon="-2.468012">
        <ele>413.2</ele>
        <time>2019-08-20T06:03:55Z</time>
        <sat>10</sat>
      </trkpt>
      <trkpt lat="42.458579" lon="-2.468018">
        <ele>413.6</ele>
        <time>2019-08-20T06:04:03Z</time>
        <sat>10</sat>
      </trkpt>
      <trkpt lat="42.458476" lon="-2.468008">
        <ele>413.8</ele>
        <time>2019-08-20T06:04:11Z</time>
        <sat>10</sat>
      </trkpt>
      <trkpt lat="42.458385" lon="-2.468020">
        <ele>413.9</ele>
        <time>2019-08-20T06:04:18Z</time>
        <sat>10</sat>
      </trkpt>
      <trkpt lat="42.458307" lon="-2.468053">
        <ele>414.1</ele>
        <time>2019-08-20T06:04:25Z</time>
        <sat>10</sat>
      </trkpt>
      <trkpt lat="42.458246" lon="-2.468128">
        <ele>414.3</ele>
        <time>2019-08-20T06:04:32Z</time>
        <sat>10</sat>
      </trkpt>
      <trkpt lat="42.458226" lon="-2.468217">
        <ele>414.5</ele>
        <time>2019-08-20T06:04:38Z</time>
        <sat>10</sat>
      </trkpt>
      <trkpt lat="42.458223" lon="-2.468286">
        <ele>414.5</ele>
        <time>2019-08-20T06:04:42Z</time>
        <sat>10</sat>
      </trkpt>
      <trkpt lat="42.458231" lon="-2.468412">
        <ele>414.4</ele>
        <time>2019-08-20T06:04:49Z</time>
        <sat>10</sat>
      </trkpt>
      <trkpt lat="42.458256" lon="-2.468583">
        <ele>414.4</ele>
        <time>2019-08-20T06:04:59Z</time>
        <sat>10</sat>
      </trkpt>
      <trkpt lat="42.458265" lon="-2.468687">
        <ele>414.5</ele>
        <time>2019-08-20T06:05:06Z</time>
        <sat>10</sat>
      </trkpt>
      <trkpt lat="42.458271" lon="-2.468836">
        <ele>414.9</ele>
        <time>2019-08-20T06:05:15Z</time>
        <sat>10</sat>
      </trkpt>
      <trkpt lat="42.458281" lon="-2.468876">
        <ele>415.0</ele>
        <time>2019-08-20T06:05:17Z</time>
        <sat>10</sat>
      </trkpt>
      <trkpt lat="42.458303" lon="-2.469105">
        <ele>415.3</ele>
        <time>2019-08-20T06:05:30Z</time>
        <sat>10</sat>
      </trkpt>
      <trkpt lat="42.458306" lon="-2.469244">
        <ele>415.3</ele>
        <time>2019-08-20T06:05:38Z</time>
        <sat>10</sat>
      </trkpt>
      <trkpt lat="42.458324" lon="-2.469465">
        <ele>415.1</ele>
        <time>2019-08-20T06:05:51Z</time>
        <sat>9</sat>
      </trkpt>
      <trkpt lat="42.458323" lon="-2.469493">
        <ele>415.1</ele>
        <time>2019-08-20T06:05:53Z</time>
        <sat>9</sat>
      </trkpt>
      <trkpt lat="42.458331" lon="-2.469594">
        <ele>415.0</ele>
        <time>2019-08-20T06:06:01Z</time>
        <sat>9</sat>
      </trkpt>
      <trkpt lat="42.458325" lon="-2.469849">
        <ele>414.7</ele>
        <time>2019-08-20T06:06:17Z</time>
        <sat>10</sat>
      </trkpt>
      <trkpt lat="42.458316" lon="-2.469927">
        <ele>414.7</ele>
        <time>2019-08-20T06:06:22Z</time>
        <sat>10</sat>
      </trkpt>
      <trkpt lat="42.458293" lon="-2.470095">
        <ele>414.6</ele>
        <time>2019-08-20T06:06:33Z</time>
        <sat>10</sat>
      </trkpt>
      <trkpt lat="42.458291" lon="-2.470140">
        <ele>414.6</ele>
        <time>2019-08-20T06:06:36Z</time>
        <sat>10</sat>
      </trkpt>
      <trkpt lat="42.458252" lon="-2.470266">
        <ele>414.5</ele>
        <time>2019-08-20T06:06:45Z</time>
        <sat>10</sat>
      </trkpt>
      <trkpt lat="42.458216" lon="-2.470430">
        <ele>414.5</ele>
        <time>2019-08-20T06:06:56Z</time>
        <sat>10</sat>
      </trkpt>
      <trkpt lat="42.458180" lon="-2.470496">
        <ele>414.4</ele>
        <time>2019-08-20T06:07:01Z</time>
        <sat>10</sat>
      </trkpt>
      <trkpt lat="42.458142" lon="-2.470599">
        <ele>414.4</ele>
        <time>2019-08-20T06:07:08Z</time>
        <sat>10</sat>
      </trkpt>
      <trkpt lat="42.458060" lon="-2.470743">
        <ele>414.5</ele>
        <time>2019-08-20T06:07:19Z</time>
        <sat>10</sat>
      </trkpt>
      <trkpt lat="42.458001" lon="-2.470850">
        <ele>414.6</ele>
        <time>2019-08-20T06:07:27Z</time>
        <sat>10</sat>
      </trkpt>
      <trkpt lat="42.457935" lon="-2.470983">
        <ele>414.8</ele>
        <time>2019-08-20T06:07:37Z</time>
        <sat>10</sat>
      </trkpt>
      <trkpt lat="42.457867" lon="-2.471145">
        <ele>414.8</ele>
        <time>2019-08-20T06:07:48Z</time>
        <sat>10</sat>
      </trkpt>
      <trkpt lat="42.457843" lon="-2.471227">
        <ele>414.8</ele>
        <time>2019-08-20T06:07:53Z</time>
        <sat>10</sat>
      </trkpt>
      <trkpt lat="42.457826" lon="-2.471258">
        <ele>414.8</ele>
        <time>2019-08-20T06:07:55Z</time>
        <sat>10</sat>
      </trkpt>
      <trkpt lat="42.457796" lon="-2.471340">
        <ele>414.9</ele>
        <time>2019-08-20T06:08:00Z</time>
        <sat>10</sat>
      </trkpt>
      <trkpt lat="42.457743" lon="-2.471505">
        <ele>415.0</ele>
        <time>2019-08-20T06:08:10Z</time>
        <sat>10</sat>
      </trkpt>
      <trkpt lat="42.457737" lon="-2.471555">
        <ele>414.8</ele>
        <time>2019-08-20T06:08:15Z</time>
        <sat>9</sat>
      </trkpt>
      <trkpt lat="42.457632" lon="-2.471847">
        <ele>413.4</ele>
        <time>2019-08-20T06:11:08Z</time>
        <sat>8</sat>
      </trkpt>
      <trkpt lat="42.457606" lon="-2.471921">
        <ele>413.1</ele>
        <time>2019-08-20T06:11:13Z</time>
        <sat>8</sat>
      </trkpt>
      <trkpt lat="42.457478" lon="-2.472061">
        <ele>411.6</ele>
        <time>2019-08-20T06:11:28Z</time>
        <sat>8</sat>
      </trkpt>
      <trkpt lat="42.457452" lon="-2.472191">
        <ele>411.1</ele>
        <time>2019-08-20T06:11:35Z</time>
        <sat>8</sat>
      </trkpt>
      <trkpt lat="42.457418" lon="-2.472360">
        <ele>410.9</ele>
        <time>2019-08-20T06:11:44Z</time>
        <sat>8</sat>
      </trkpt>
      <trkpt lat="42.457388" lon="-2.472414">
        <ele>410.8</ele>
        <time>2019-08-20T06:11:48Z</time>
        <sat>8</sat>
      </trkpt>
      <trkpt lat="42.457385" lon="-2.472478">
        <ele>410.8</ele>
        <time>2019-08-20T06:11:51Z</time>
        <sat>8</sat>
      </trkpt>
      <trkpt lat="42.457352" lon="-2.472551">
        <ele>410.8</ele>
        <time>2019-08-20T06:11:56Z</time>
        <sat>8</sat>
      </trkpt>
      <trkpt lat="42.457365" lon="-2.472621">
        <ele>410.9</ele>
        <time>2019-08-20T06:12:00Z</time>
        <sat>7</sat>
      </trkpt>
      <trkpt lat="42.457406" lon="-2.472696">
        <ele>410.9</ele>
        <time>2019-08-20T06:12:05Z</time>
        <sat>7</sat>
      </trkpt>
      <trkpt lat="42.457455" lon="-2.472749">
        <ele>411.0</ele>
        <time>2019-08-20T06:12:10Z</time>
        <sat>8</sat>
      </trkpt>
      <trkpt lat="42.457458" lon="-2.472825">
        <ele>411.2</ele>
        <time>2019-08-20T06:12:15Z</time>
        <sat>8</sat>
      </trkpt>
      <trkpt lat="42.457419" lon="-2.472898">
        <ele>411.2</ele>
        <time>2019-08-20T06:12:20Z</time>
        <sat>7</sat>
      </trkpt>
      <trkpt lat="42.457298" lon="-2.472927">
        <ele>411.2</ele>
        <time>2019-08-20T06:12:30Z</time>
        <sat>7</sat>
      </trkpt>
      <trkpt lat="42.457210" lon="-2.472989">
        <ele>411.1</ele>
        <time>2019-08-20T06:12:38Z</time>
        <sat>7</sat>
      </trkpt>
      <trkpt lat="42.457146" lon="-2.473047">
        <ele>411.0</ele>
        <time>2019-08-20T06:12:44Z</time>
        <sat>8</sat>
      </trkpt>
      <trkpt lat="42.457120" lon="-2.473058">
        <ele>411.0</ele>
        <time>2019-08-20T06:12:46Z</time>
        <sat>8</sat>
      </trkpt>
      <trkpt lat="42.456992" lon="-2.473015">
        <ele>411.0</ele>
        <time>2019-08-20T06:12:56Z</time>
        <sat>8</sat>
      </trkpt>
      <trkpt lat="42.456835" lon="-2.472971">
        <ele>411.2</ele>
        <time>2019-08-20T06:13:08Z</time>
        <sat>8</sat>
      </trkpt>
      <trkpt lat="42.456780" lon="-2.472991">
        <ele>411.6</ele>
        <time>2019-08-20T06:13:21Z</time>
        <sat>8</sat>
      </trkpt>
      <trkpt lat="42.456733" lon="-2.473047">
        <ele>411.4</ele>
        <time>2019-08-20T06:13:27Z</time>
        <sat>8</sat>
      </trkpt>
      <trkpt lat="42.456707" lon="-2.473098">
        <ele>411.3</ele>
        <time>2019-08-20T06:13:31Z</time>
        <sat>8</sat>
      </trkpt>
      <trkpt lat="42.456667" lon="-2.473156">
        <ele>411.4</ele>
        <time>2019-08-20T06:13:35Z</time>
        <sat>7</sat>
      </trkpt>
      <trkpt lat="42.456646" lon="-2.473214">
        <ele>411.6</ele>
        <time>2019-08-20T06:13:39Z</time>
        <sat>7</sat>
      </trkpt>
      <trkpt lat="42.456597" lon="-2.473301">
        <ele>412.0</ele>
        <time>2019-08-20T06:13:45Z</time>
        <sat>8</sat>
      </trkpt>
      <trkpt lat="42.456547" lon="-2.473441">
        <ele>412.5</ele>
        <time>2019-08-20T06:13:55Z</time>
        <sat>7</sat>
      </trkpt>
      <trkpt lat="42.456494" lon="-2.473607">
        <ele>413.1</ele>
        <time>2019-08-20T06:14:05Z</time>
        <sat>8</sat>
      </trkpt>
      <trkpt lat="42.456473" lon="-2.473717">
        <ele>413.6</ele>
        <time>2019-08-20T06:14:11Z</time>
        <sat>8</sat>
      </trkpt>
      <trkpt lat="42.456470" lon="-2.473783">
        <ele>413.9</ele>
        <time>2019-08-20T06:14:15Z</time>
        <sat>8</sat>
      </trkpt>
      <trkpt lat="42.456439" lon="-2.473959">
        <ele>413.5</ele>
        <time>2019-08-20T06:14:26Z</time>
        <sat>8</sat>
      </trkpt>
      <trkpt lat="42.456425" lon="-2.474123">
        <ele>415.1</ele>
        <time>2019-08-20T06:14:40Z</time>
        <sat>7</sat>
      </trkpt>
      <trkpt lat="42.456415" lon="-2.474188">
        <ele>416.9</ele>
        <time>2019-08-20T06:14:43Z</time>
        <sat>7</sat>
      </trkpt>
      <trkpt lat="42.456414" lon="-2.474356">
        <ele>418.2</ele>
        <time>2019-08-20T06:14:52Z</time>
        <sat>8</sat>
      </trkpt>
      <trkpt lat="42.456408" lon="-2.474441">
        <ele>417.7</ele>
        <time>2019-08-20T06:14:57Z</time>
        <sat>8</sat>
      </trkpt>
      <trkpt lat="42.456417" lon="-2.474549">
        <ele>417.4</ele>
        <time>2019-08-20T06:15:03Z</time>
        <sat>8</sat>
      </trkpt>
      <trkpt lat="42.456410" lon="-2.474638">
        <ele>417.4</ele>
        <time>2019-08-20T06:15:08Z</time>
        <sat>8</sat>
      </trkpt>
      <trkpt lat="42.456391" lon="-2.474708">
        <ele>417.3</ele>
        <time>2019-08-20T06:15:12Z</time>
        <sat>8</sat>
      </trkpt>
      <trkpt lat="42.456382" lon="-2.474780">
        <ele>417.3</ele>
        <time>2019-08-20T06:15:16Z</time>
        <sat>8</sat>
      </trkpt>
      <trkpt lat="42.456364" lon="-2.474847">
        <ele>417.3</ele>
        <time>2019-08-20T06:15:20Z</time>
        <sat>8</sat>
      </trkpt>
      <trkpt lat="42.456295" lon="-2.475051">
        <ele>417.2</ele>
        <time>2019-08-20T06:15:33Z</time>
        <sat>8</sat>
      </trkpt>
      <trkpt lat="42.456249" lon="-2.475171">
        <ele>417.1</ele>
        <time>2019-08-20T06:15:41Z</time>
        <sat>8</sat>
      </trkpt>
      <trkpt lat="42.456207" lon="-2.475325">
        <ele>416.8</ele>
        <time>2019-08-20T06:15:57Z</time>
        <sat>8</sat>
      </trkpt>
      <trkpt lat="42.456212" lon="-2.475321">
        <ele>416.7</ele>
        <time>2019-08-20T06:16:28Z</time>
        <sat>8</sat>
      </trkpt>
      <trkpt lat="42.456147" lon="-2.475439">
        <ele>416.4</ele>
        <time>2019-08-20T06:16:51Z</time>
        <sat>8</sat>
      </trkpt>
      <trkpt lat="42.456104" lon="-2.475571">
        <ele>416.2</ele>
        <time>2019-08-20T06:17:00Z</time>
        <sat>8</sat>
      </trkpt>
      <trkpt lat="42.456117" lon="-2.475627">
        <ele>415.9</ele>
        <time>2019-08-20T06:17:31Z</time>
        <sat>8</sat>
      </trkpt>
      <trkpt lat="42.456087" lon="-2.475839">
        <ele>415.7</ele>
        <time>2019-08-20T06:17:44Z</time>
        <sat>8</sat>
      </trkpt>
      <trkpt lat="42.456078" lon="-2.475889">
        <ele>415.7</ele>
        <time>2019-08-20T06:17:47Z</time>
        <sat>7</sat>
      </trkpt>
      <trkpt lat="42.456060" lon="-2.476061">
        <ele>415.8</ele>
        <time>2019-08-20T06:17:57Z</time>
        <sat>8</sat>
      </trkpt>
      <trkpt lat="42.456060" lon="-2.476148">
        <ele>415.7</ele>
        <time>2019-08-20T06:18:02Z</time>
        <sat>7</sat>
      </trkpt>
      <trkpt lat="42.456052" lon="-2.476213">
        <ele>415.6</ele>
        <time>2019-08-20T06:18:06Z</time>
        <sat>8</sat>
      </trkpt>
      <trkpt lat="42.456017" lon="-2.476381">
        <ele>414.8</ele>
        <time>2019-08-20T06:18:17Z</time>
        <sat>7</sat>
      </trkpt>
      <trkpt lat="42.456006" lon="-2.476469">
        <ele>414.2</ele>
        <time>2019-08-20T06:18:22Z</time>
        <sat>7</sat>
      </trkpt>
      <trkpt lat="42.455974" lon="-2.476579">
        <ele>413.6</ele>
        <time>2019-08-20T06:18:29Z</time>
        <sat>7</sat>
      </trkpt>
      <trkpt lat="42.455908" lon="-2.476753">
        <ele>410.0</ele>
        <time>2019-08-20T06:18:42Z</time>
        <sat>7</sat>
      </trkpt>
      <trkpt lat="42.455921" lon="-2.476854">
        <ele>409.9</ele>
        <time>2019-08-20T06:18:48Z</time>
        <sat>7</sat>
      </trkpt>
      <trkpt lat="42.455882" lon="-2.476946">
        <ele>411.1</ele>
        <time>2019-08-20T06:18:53Z</time>
        <sat>7</sat>
      </trkpt>
      <trkpt lat="42.455879" lon="-2.477076">
        <ele>410.5</ele>
        <time>2019-08-20T06:19:00Z</time>
        <sat>7</sat>
      </trkpt>
      <trkpt lat="42.455871" lon="-2.477126">
        <ele>410.2</ele>
        <time>2019-08-20T06:19:03Z</time>
        <sat>7</sat>
      </trkpt>
      <trkpt lat="42.455820" lon="-2.477310">
        <ele>408.9</ele>
        <time>2019-08-20T06:19:15Z</time>
        <sat>7</sat>
      </trkpt>
      <trkpt lat="42.455781" lon="-2.477410">
        <ele>408.4</ele>
        <time>2019-08-20T06:19:22Z</time>
        <sat>7</sat>
      </trkpt>
      <trkpt lat="42.455731" lon="-2.477464">
        <ele>408.0</ele>
        <time>2019-08-20T06:19:29Z</time>
        <sat>7</sat>
      </trkpt>
      <trkpt lat="42.455660" lon="-2.477466">
        <ele>407.7</ele>
        <time>2019-08-20T06:19:35Z</time>
        <sat>5</sat>
      </trkpt>
      <trkpt lat="42.455546" lon="-2.477479">
        <ele>407.0</ele>
        <time>2019-08-20T06:19:52Z</time>
        <sat>4</sat>
      </trkpt>
      <trkpt lat="42.455431" lon="-2.477427">
        <ele>407.0</ele>
        <time>2019-08-20T06:19:56Z</time>
        <sat>8</sat>
      </trkpt>
      <trkpt lat="42.455372" lon="-2.477451">
        <ele>407.0</ele>
        <time>2019-08-20T06:19:58Z</time>
        <sat>7</sat>
      </trkpt>
      <trkpt lat="42.455332" lon="-2.477531">
        <ele>407.0</ele>
        <time>2019-08-20T06:20:03Z</time>
        <sat>8</sat>
      </trkpt>
      <trkpt lat="42.455326" lon="-2.477601">
        <ele>407.2</ele>
        <time>2019-08-20T06:20:07Z</time>
        <sat>8</sat>
      </trkpt>
      <trkpt lat="42.455304" lon="-2.477829">
        <ele>408.1</ele>
        <time>2019-08-20T06:20:20Z</time>
        <sat>8</sat>
      </trkpt>
      <trkpt lat="42.455296" lon="-2.477863">
        <ele>408.2</ele>
        <time>2019-08-20T06:20:22Z</time>
        <sat>8</sat>
      </trkpt>
      <trkpt lat="42.455263" lon="-2.478017">
        <ele>408.8</ele>
        <time>2019-08-20T06:20:31Z</time>
        <sat>8</sat>
      </trkpt>
      <trkpt lat="42.455244" lon="-2.478136">
        <ele>408.9</ele>
        <time>2019-08-20T06:20:38Z</time>
        <sat>8</sat>
      </trkpt>
      <trkpt lat="42.455224" lon="-2.478195">
        <ele>409.1</ele>
        <time>2019-08-20T06:20:42Z</time>
        <sat>8</sat>
      </trkpt>
      <trkpt lat="42.455209" lon="-2.478281">
        <ele>409.1</ele>
        <time>2019-08-20T06:20:47Z</time>
        <sat>8</sat>
      </trkpt>
      <trkpt lat="42.455193" lon="-2.478337">
        <ele>409.3</ele>
        <time>2019-08-20T06:20:50Z</time>
        <sat>8</sat>
      </trkpt>
      <trkpt lat="42.455152" lon="-2.478596">
        <ele>409.6</ele>
        <time>2019-08-20T06:21:05Z</time>
        <sat>8</sat>
      </trkpt>
      <trkpt lat="42.455152" lon="-2.478634">
        <ele>409.6</ele>
        <time>2019-08-20T06:21:07Z</time>
        <sat>7</sat>
      </trkpt>
      <trkpt lat="42.455126" lon="-2.478765">
        <ele>409.6</ele>
        <time>2019-08-20T06:21:15Z</time>
        <sat>8</sat>
      </trkpt>
      <trkpt lat="42.455123" lon="-2.478833">
        <ele>409.6</ele>
        <time>2019-08-20T06:21:19Z</time>
        <sat>8</sat>
      </trkpt>
      <trkpt lat="42.455105" lon="-2.478899">
        <ele>409.6</ele>
        <time>2019-08-20T06:21:23Z</time>
        <sat>8</sat>
      </trkpt>
      <trkpt lat="42.455077" lon="-2.479124">
        <ele>409.7</ele>
        <time>2019-08-20T06:21:36Z</time>
        <sat>8</sat>
      </trkpt>
      <trkpt lat="42.455056" lon="-2.479231">
        <ele>409.8</ele>
        <time>2019-08-20T06:21:43Z</time>
        <sat>8</sat>
      </trkpt>
      <trkpt lat="42.455045" lon="-2.479363">
        <ele>409.8</ele>
        <time>2019-08-20T06:21:51Z</time>
        <sat>8</sat>
      </trkpt>
      <trkpt lat="42.455028" lon="-2.479464">
        <ele>409.8</ele>
        <time>2019-08-20T06:21:57Z</time>
        <sat>8</sat>
      </trkpt>
      <trkpt lat="42.455026" lon="-2.479500">
        <ele>409.9</ele>
        <time>2019-08-20T06:21:59Z</time>
        <sat>8</sat>
      </trkpt>
      <trkpt lat="42.454981" lon="-2.479690">
        <ele>409.9</ele>
        <time>2019-08-20T06:22:10Z</time>
        <sat>8</sat>
      </trkpt>
      <trkpt lat="42.454964" lon="-2.479734">
        <ele>409.9</ele>
        <time>2019-08-20T06:22:13Z</time>
        <sat>8</sat>
      </trkpt>
      <trkpt lat="42.454873" lon="-2.479905">
        <ele>409.8</ele>
        <time>2019-08-20T06:22:25Z</time>
        <sat>8</sat>
      </trkpt>
      <trkpt lat="42.454827" lon="-2.480006">
        <ele>409.8</ele>
        <time>2019-08-20T06:22:32Z</time>
        <sat>9</sat>
      </trkpt>
      <trkpt lat="42.454765" lon="-2.480106">
        <ele>409.9</ele>
        <time>2019-08-20T06:22:39Z</time>
        <sat>9</sat>
      </trkpt>
      <trkpt lat="42.454757" lon="-2.480132">
        <ele>410.0</ele>
        <time>2019-08-20T06:22:41Z</time>
        <sat>9</sat>
      </trkpt>
      <trkpt lat="42.454710" lon="-2.480219">
        <ele>409.9</ele>
        <time>2019-08-20T06:22:47Z</time>
        <sat>9</sat>
      </trkpt>
      <trkpt lat="42.454687" lon="-2.480284">
        <ele>409.9</ele>
        <time>2019-08-20T06:22:51Z</time>
        <sat>9</sat>
      </trkpt>
      <trkpt lat="42.454656" lon="-2.480340">
        <ele>409.9</ele>
        <time>2019-08-20T06:22:55Z</time>
        <sat>9</sat>
      </trkpt>
      <trkpt lat="42.454607" lon="-2.480461">
        <ele>409.9</ele>
        <time>2019-08-20T06:23:03Z</time>
        <sat>9</sat>
      </trkpt>
      <trkpt lat="42.454542" lon="-2.480591">
        <ele>409.8</ele>
        <time>2019-08-20T06:23:12Z</time>
        <sat>9</sat>
      </trkpt>
      <trkpt lat="42.454453" lon="-2.480766">
        <ele>409.8</ele>
        <time>2019-08-20T06:23:24Z</time>
        <sat>9</sat>
      </trkpt>
      <trkpt lat="42.454398" lon="-2.480862">
        <ele>409.9</ele>
        <time>2019-08-20T06:23:31Z</time>
        <sat>9</sat>
      </trkpt>
      <trkpt lat="42.454383" lon="-2.480913">
        <ele>409.9</ele>
        <time>2019-08-20T06:23:34Z</time>
        <sat>9</sat>
      </trkpt>
      <trkpt lat="42.454307" lon="-2.481049">
        <ele>409.9</ele>
        <time>2019-08-20T06:23:44Z</time>
        <sat>9</sat>
      </trkpt>
      <trkpt lat="42.454244" lon="-2.481180">
        <ele>410.0</ele>
        <time>2019-08-20T06:23:53Z</time>
        <sat>9</sat>
      </trkpt>
      <trkpt lat="42.454219" lon="-2.481245">
        <ele>409.9</ele>
        <time>2019-08-20T06:23:57Z</time>
        <sat>9</sat>
      </trkpt>
      <trkpt lat="42.454181" lon="-2.481316">
        <ele>410.0</ele>
        <time>2019-08-20T06:24:02Z</time>
        <sat>9</sat>
      </trkpt>
      <trkpt lat="42.454114" lon="-2.481483">
        <ele>410.1</ele>
        <time>2019-08-20T06:24:13Z</time>
        <sat>9</sat>
      </trkpt>
      <trkpt lat="42.454082" lon="-2.481579">
        <ele>410.2</ele>
        <time>2019-08-20T06:24:19Z</time>
        <sat>8</sat>
      </trkpt>
      <trkpt lat="42.454012" lon="-2.481738">
        <ele>410.3</ele>
        <time>2019-08-20T06:24:30Z</time>
        <sat>8</sat>
      </trkpt>
      <trkpt lat="42.453932" lon="-2.481959">
        <ele>410.5</ele>
        <time>2019-08-20T06:24:44Z</time>
        <sat>9</sat>
      </trkpt>
      <trkpt lat="42.453869" lon="-2.482131">
        <ele>410.5</ele>
        <time>2019-08-20T06:24:55Z</time>
        <sat>9</sat>
      </trkpt>
      <trkpt lat="42.453806" lon="-2.482322">
        <ele>410.2</ele>
        <time>2019-08-20T06:25:07Z</time>
        <sat>8</sat>
      </trkpt>
      <trkpt lat="42.453778" lon="-2.482415">
        <ele>410.2</ele>
        <time>2019-08-20T06:25:14Z</time>
        <sat>9</sat>
      </trkpt>
      <trkpt lat="42.453720" lon="-2.482583">
        <ele>410.3</ele>
        <time>2019-08-20T06:25:25Z</time>
        <sat>9</sat>
      </trkpt>
      <trkpt lat="42.453701" lon="-2.482651">
        <ele>410.4</ele>
        <time>2019-08-20T06:25:29Z</time>
        <sat>8</sat>
      </trkpt>
      <trkpt lat="42.453664" lon="-2.482725">
        <ele>410.4</ele>
        <time>2019-08-20T06:25:34Z</time>
        <sat>9</sat>
      </trkpt>
      <trkpt lat="42.453618" lon="-2.482869">
        <ele>410.5</ele>
        <time>2019-08-20T06:25:43Z</time>
        <sat>9</sat>
      </trkpt>
      <trkpt lat="42.453565" lon="-2.483030">
        <ele>410.5</ele>
        <time>2019-08-20T06:25:53Z</time>
        <sat>9</sat>
      </trkpt>
      <trkpt lat="42.453506" lon="-2.483256">
        <ele>410.6</ele>
        <time>2019-08-20T06:26:07Z</time>
        <sat>9</sat>
      </trkpt>
      <trkpt lat="42.453466" lon="-2.483491">
        <ele>410.7</ele>
        <time>2019-08-20T06:26:21Z</time>
        <sat>9</sat>
      </trkpt>
      <trkpt lat="42.453440" lon="-2.483668">
        <ele>410.7</ele>
        <time>2019-08-20T06:26:31Z</time>
        <sat>9</sat>
      </trkpt>
      <trkpt lat="42.453416" lon="-2.483764">
        <ele>410.7</ele>
        <time>2019-08-20T06:26:37Z</time>
        <sat>9</sat>
      </trkpt>
      <trkpt lat="42.453390" lon="-2.483935">
        <ele>410.7</ele>
        <time>2019-08-20T06:26:47Z</time>
        <sat>9</sat>
      </trkpt>
      <trkpt lat="42.453384" lon="-2.484023">
        <ele>410.7</ele>
        <time>2019-08-20T06:26:52Z</time>
        <sat>9</sat>
      </trkpt>
      <trkpt lat="42.453344" lon="-2.484223">
        <ele>410.8</ele>
        <time>2019-08-20T06:27:04Z</time>
        <sat>9</sat>
      </trkpt>
      <trkpt lat="42.453300" lon="-2.484486">
        <ele>410.8</ele>
        <time>2019-08-20T06:27:20Z</time>
        <sat>8</sat>
      </trkpt>
      <trkpt lat="42.453274" lon="-2.484694">
        <ele>410.9</ele>
        <time>2019-08-20T06:27:32Z</time>
        <sat>9</sat>
      </trkpt>
      <trkpt lat="42.453244" lon="-2.484859">
        <ele>410.9</ele>
        <time>2019-08-20T06:27:42Z</time>
        <sat>9</sat>
      </trkpt>
      <trkpt lat="42.453242" lon="-2.484898">
        <ele>410.9</ele>
        <time>2019-08-20T06:27:44Z</time>
        <sat>9</sat>
      </trkpt>
      <trkpt lat="42.453221" lon="-2.485062">
        <ele>411.2</ele>
        <time>2019-08-20T06:27:53Z</time>
        <sat>9</sat>
      </trkpt>
      <trkpt lat="42.453202" lon="-2.485161">
        <ele>411.4</ele>
        <time>2019-08-20T06:27:59Z</time>
        <sat>8</sat>
      </trkpt>
      <trkpt lat="42.453182" lon="-2.485324">
        <ele>411.3</ele>
        <time>2019-08-20T06:28:08Z</time>
        <sat>9</sat>
      </trkpt>
      <trkpt lat="42.453166" lon="-2.485428">
        <ele>411.2</ele>
        <time>2019-08-20T06:28:14Z</time>
        <sat>9</sat>
      </trkpt>
      <trkpt lat="42.453147" lon="-2.485645">
        <ele>411.3</ele>
        <time>2019-08-20T06:28:26Z</time>
        <sat>9</sat>
      </trkpt>
      <trkpt lat="42.453144" lon="-2.485716">
        <ele>411.3</ele>
        <time>2019-08-20T06:28:30Z</time>
        <sat>9</sat>
      </trkpt>
      <trkpt lat="42.453124" lon="-2.485922">
        <ele>411.5</ele>
        <time>2019-08-20T06:28:42Z</time>
        <sat>9</sat>
      </trkpt>
      <trkpt lat="42.453108" lon="-2.486028">
        <ele>411.5</ele>
        <time>2019-08-20T06:28:48Z</time>
        <sat>9</sat>
      </trkpt>
      <trkpt lat="42.453110" lon="-2.486114">
        <ele>411.5</ele>
        <time>2019-08-20T06:28:53Z</time>
        <sat>9</sat>
      </trkpt>
      <trkpt lat="42.453094" lon="-2.486271">
        <ele>411.7</ele>
        <time>2019-08-20T06:29:02Z</time>
        <sat>9</sat>
      </trkpt>
      <trkpt lat="42.453042" lon="-2.486476">
        <ele>411.5</ele>
        <time>2019-08-20T06:29:15Z</time>
        <sat>9</sat>
      </trkpt>
      <trkpt lat="42.453017" lon="-2.486706">
        <ele>411.8</ele>
        <time>2019-08-20T06:29:28Z</time>
        <sat>8</sat>
      </trkpt>
      <trkpt lat="42.452973" lon="-2.486886">
        <ele>411.9</ele>
        <time>2019-08-20T06:29:39Z</time>
        <sat>9</sat>
      </trkpt>
      <trkpt lat="42.452880" lon="-2.487124">
        <ele>412.2</ele>
        <time>2019-08-20T06:29:55Z</time>
        <sat>9</sat>
      </trkpt>
      <trkpt lat="42.452860" lon="-2.487153">
        <ele>412.2</ele>
        <time>2019-08-20T06:29:57Z</time>
        <sat>7</sat>
      </trkpt>
      <trkpt lat="42.452820" lon="-2.487250">
        <ele>412.1</ele>
        <time>2019-08-20T06:30:04Z</time>
        <sat>7</sat>
      </trkpt>
      <trkpt lat="42.452786" lon="-2.487307">
        <ele>412.2</ele>
        <time>2019-08-20T06:30:08Z</time>
        <sat>8</sat>
      </trkpt>
      <trkpt lat="42.452739" lon="-2.487423">
        <ele>412.4</ele>
        <time>2019-08-20T06:30:16Z</time>
        <sat>9</sat>
      </trkpt>
      <trkpt lat="42.452707" lon="-2.487518">
        <ele>412.4</ele>
        <time>2019-08-20T06:30:22Z</time>
        <sat>7</sat>
      </trkpt>
      <trkpt lat="42.452645" lon="-2.487635">
        <ele>412.6</ele>
        <time>2019-08-20T06:30:30Z</time>
        <sat>9</sat>
      </trkpt>
      <trkpt lat="42.452587" lon="-2.487818">
        <ele>412.6</ele>
        <time>2019-08-20T06:30:42Z</time>
        <sat>9</sat>
      </trkpt>
      <trkpt lat="42.452494" lon="-2.488030">
        <ele>412.8</ele>
        <time>2019-08-20T06:30:56Z</time>
        <sat>8</sat>
      </trkpt>
      <trkpt lat="42.452437" lon="-2.488205">
        <ele>412.9</ele>
        <time>2019-08-20T06:31:07Z</time>
        <sat>9</sat>
      </trkpt>
      <trkpt lat="42.452416" lon="-2.488285">
        <ele>412.9</ele>
        <time>2019-08-20T06:31:12Z</time>
        <sat>9</sat>
      </trkpt>
      <trkpt lat="42.452379" lon="-2.488369">
        <ele>412.9</ele>
        <time>2019-08-20T06:31:18Z</time>
        <sat>9</sat>
      </trkpt>
      <trkpt lat="42.452355" lon="-2.488472">
        <ele>413.0</ele>
        <time>2019-08-20T06:31:24Z</time>
        <sat>9</sat>
      </trkpt>
      <trkpt lat="42.452308" lon="-2.488566">
        <ele>413.1</ele>
        <time>2019-08-20T06:31:30Z</time>
        <sat>9</sat>
      </trkpt>
      <trkpt lat="42.452248" lon="-2.488741">
        <ele>413.2</ele>
        <time>2019-08-20T06:31:41Z</time>
        <sat>9</sat>
      </trkpt>
      <trkpt lat="42.452217" lon="-2.488795">
        <ele>413.3</ele>
        <time>2019-08-20T06:31:46Z</time>
        <sat>9</sat>
      </trkpt>
      <trkpt lat="42.452179" lon="-2.488902">
        <ele>413.3</ele>
        <time>2019-08-20T06:31:55Z</time>
        <sat>8</sat>
      </trkpt>
      <trkpt lat="42.452109" lon="-2.489086">
        <ele>413.3</ele>
        <time>2019-08-20T06:32:08Z</time>
        <sat>9</sat>
      </trkpt>
      <trkpt lat="42.452064" lon="-2.489177">
        <ele>413.4</ele>
        <time>2019-08-20T06:32:14Z</time>
        <sat>9</sat>
      </trkpt>
      <trkpt lat="42.451997" lon="-2.489391">
        <ele>413.5</ele>
        <time>2019-08-20T06:32:28Z</time>
        <sat>9</sat>
      </trkpt>
      <trkpt lat="42.451975" lon="-2.489435">
        <ele>413.5</ele>
        <time>2019-08-20T06:32:31Z</time>
        <sat>9</sat>
      </trkpt>
      <trkpt lat="42.451908" lon="-2.489621">
        <ele>413.8</ele>
        <time>2019-08-20T06:32:43Z</time>
        <sat>9</sat>
      </trkpt>
      <trkpt lat="42.451881" lon="-2.489677">
        <ele>413.9</ele>
        <time>2019-08-20T06:32:47Z</time>
        <sat>9</sat>
      </trkpt>
      <trkpt lat="42.451794" lon="-2.489905">
        <ele>414.0</ele>
        <time>2019-08-20T06:33:02Z</time>
        <sat>9</sat>
      </trkpt>
      <trkpt lat="42.451723" lon="-2.490083">
        <ele>414.3</ele>
        <time>2019-08-20T06:33:14Z</time>
        <sat>9</sat>
      </trkpt>
      <trkpt lat="42.451666" lon="-2.490234">
        <ele>414.5</ele>
        <time>2019-08-20T06:33:24Z</time>
        <sat>9</sat>
      </trkpt>
      <trkpt lat="42.451634" lon="-2.490398">
        <ele>414.9</ele>
        <time>2019-08-20T06:33:34Z</time>
        <sat>9</sat>
      </trkpt>
      <trkpt lat="42.451588" lon="-2.490622">
        <ele>415.2</ele>
        <time>2019-08-20T06:33:47Z</time>
        <sat>9</sat>
      </trkpt>
      <trkpt lat="42.451574" lon="-2.490669">
        <ele>415.2</ele>
        <time>2019-08-20T06:33:50Z</time>
        <sat>9</sat>
      </trkpt>
      <trkpt lat="42.451553" lon="-2.490789">
        <ele>415.3</ele>
        <time>2019-08-20T06:33:57Z</time>
        <sat>9</sat>
      </trkpt>
      <trkpt lat="42.451543" lon="-2.490821">
        <ele>415.4</ele>
        <time>2019-08-20T06:33:59Z</time>
        <sat>9</sat>
      </trkpt>
      <trkpt lat="42.451521" lon="-2.490939">
        <ele>415.5</ele>
        <time>2019-08-20T06:34:06Z</time>
        <sat>9</sat>
      </trkpt>
      <trkpt lat="42.451484" lon="-2.491088">
        <ele>415.6</ele>
        <time>2019-08-20T06:34:15Z</time>
        <sat>9</sat>
      </trkpt>
      <trkpt lat="42.451438" lon="-2.491266">
        <ele>415.6</ele>
        <time>2019-08-20T06:34:26Z</time>
        <sat>9</sat>
      </trkpt>
      <trkpt lat="42.451418" lon="-2.491329">
        <ele>415.7</ele>
        <time>2019-08-20T06:34:30Z</time>
        <sat>9</sat>
      </trkpt>
      <trkpt lat="42.451359" lon="-2.491549">
        <ele>415.9</ele>
        <time>2019-08-20T06:34:44Z</time>
        <sat>9</sat>
      </trkpt>
      <trkpt lat="42.451335" lon="-2.491628">
        <ele>415.8</ele>
        <time>2019-08-20T06:34:49Z</time>
        <sat>9</sat>
      </trkpt>
      <trkpt lat="42.451323" lon="-2.491694">
        <ele>416.1</ele>
        <time>2019-08-20T06:34:53Z</time>
        <sat>9</sat>
      </trkpt>
      <trkpt lat="42.451296" lon="-2.491770">
        <ele>416.2</ele>
        <time>2019-08-20T06:34:58Z</time>
        <sat>9</sat>
      </trkpt>
      <trkpt lat="42.451279" lon="-2.491845">
        <ele>416.3</ele>
        <time>2019-08-20T06:35:03Z</time>
        <sat>9</sat>
      </trkpt>
      <trkpt lat="42.451230" lon="-2.492024">
        <ele>416.3</ele>
        <time>2019-08-20T06:35:14Z</time>
        <sat>9</sat>
      </trkpt>
      <trkpt lat="42.451224" lon="-2.492041">
        <ele>416.3</ele>
        <time>2019-08-20T06:35:15Z</time>
        <sat>9</sat>
      </trkpt>
      <trkpt lat="42.451194" lon="-2.492172">
        <ele>416.4</ele>
        <time>2019-08-20T06:35:23Z</time>
        <sat>8</sat>
      </trkpt>
      <trkpt lat="42.451175" lon="-2.492217">
        <ele>416.5</ele>
        <time>2019-08-20T06:35:26Z</time>
        <sat>9</sat>
      </trkpt>
      <trkpt lat="42.451135" lon="-2.492360">
        <ele>416.7</ele>
        <time>2019-08-20T06:35:35Z</time>
        <sat>8</sat>
      </trkpt>
      <trkpt lat="42.451077" lon="-2.492567">
        <ele>416.8</ele>
        <time>2019-08-20T06:35:48Z</time>
        <sat>9</sat>
      </trkpt>
      <trkpt lat="42.451048" lon="-2.492748">
        <ele>417.0</ele>
        <time>2019-08-20T06:35:59Z</time>
        <sat>9</sat>
      </trkpt>
      <trkpt lat="42.451026" lon="-2.492795">
        <ele>417.1</ele>
        <time>2019-08-20T06:36:02Z</time>
        <sat>9</sat>
      </trkpt>
      <trkpt lat="42.450981" lon="-2.492975">
        <ele>417.5</ele>
        <time>2019-08-20T06:36:13Z</time>
        <sat>9</sat>
      </trkpt>
      <trkpt lat="42.450960" lon="-2.493055">
        <ele>417.5</ele>
        <time>2019-08-20T06:36:18Z</time>
        <sat>9</sat>
      </trkpt>
      <trkpt lat="42.450926" lon="-2.493133">
        <ele>417.6</ele>
        <time>2019-08-20T06:36:23Z</time>
        <sat>9</sat>
      </trkpt>
      <trkpt lat="42.450908" lon="-2.493224">
        <ele>417.5</ele>
        <time>2019-08-20T06:36:28Z</time>
        <sat>9</sat>
      </trkpt>
      <trkpt lat="42.450861" lon="-2.493429">
        <ele>417.9</ele>
        <time>2019-08-20T06:36:42Z</time>
        <sat>9</sat>
      </trkpt>
      <trkpt lat="42.450835" lon="-2.493500">
        <ele>418.0</ele>
        <time>2019-08-20T06:36:48Z</time>
        <sat>9</sat>
      </trkpt>
      <trkpt lat="42.450819" lon="-2.493568">
        <ele>418.0</ele>
        <time>2019-08-20T06:36:53Z</time>
        <sat>9</sat>
      </trkpt>
      <trkpt lat="42.450793" lon="-2.493636">
        <ele>418.0</ele>
        <time>2019-08-20T06:36:57Z</time>
        <sat>9</sat>
      </trkpt>
      <trkpt lat="42.450783" lon="-2.493690">
        <ele>418.0</ele>
        <time>2019-08-20T06:37:00Z</time>
        <sat>9</sat>
      </trkpt>
      <trkpt lat="42.450737" lon="-2.493816">
        <ele>418.2</ele>
        <time>2019-08-20T06:37:08Z</time>
        <sat>9</sat>
      </trkpt>
      <trkpt lat="42.450699" lon="-2.493940">
        <ele>418.3</ele>
        <time>2019-08-20T06:37:18Z</time>
        <sat>9</sat>
      </trkpt>
      <trkpt lat="42.450664" lon="-2.494076">
        <ele>418.3</ele>
        <time>2019-08-20T06:37:26Z</time>
        <sat>9</sat>
      </trkpt>
      <trkpt lat="42.450641" lon="-2.494123">
        <ele>418.3</ele>
        <time>2019-08-20T06:37:29Z</time>
        <sat>9</sat>
      </trkpt>
      <trkpt lat="42.450625" lon="-2.494191">
        <ele>418.4</ele>
        <time>2019-08-20T06:37:33Z</time>
        <sat>9</sat>
      </trkpt>
      <trkpt lat="42.450577" lon="-2.494320">
        <ele>418.5</ele>
        <time>2019-08-20T06:37:41Z</time>
        <sat>9</sat>
      </trkpt>
      <trkpt lat="42.450554" lon="-2.494418">
        <ele>418.5</ele>
        <time>2019-08-20T06:37:47Z</time>
        <sat>9</sat>
      </trkpt>
      <trkpt lat="42.450511" lon="-2.494567">
        <ele>418.7</ele>
        <time>2019-08-20T06:37:56Z</time>
        <sat>9</sat>
      </trkpt>
      <trkpt lat="42.450435" lon="-2.494792">
        <ele>419.3</ele>
        <time>2019-08-20T06:38:10Z</time>
        <sat>9</sat>
      </trkpt>
      <trkpt lat="42.450414" lon="-2.494899">
        <ele>419.4</ele>
        <time>2019-08-20T06:38:16Z</time>
        <sat>9</sat>
      </trkpt>
      <trkpt lat="42.450388" lon="-2.494962">
        <ele>419.6</ele>
        <time>2019-08-20T06:38:20Z</time>
        <sat>9</sat>
      </trkpt>
      <trkpt lat="42.450348" lon="-2.495011">
        <ele>419.8</ele>
        <time>2019-08-20T06:38:24Z</time>
        <sat>9</sat>
      </trkpt>
      <trkpt lat="42.450307" lon="-2.495019">
        <ele>420.1</ele>
        <time>2019-08-20T06:38:27Z</time>
        <sat>8</sat>
      </trkpt>
      <trkpt lat="42.450255" lon="-2.494998">
        <ele>420.3</ele>
        <time>2019-08-20T06:38:31Z</time>
        <sat>9</sat>
      </trkpt>
      <trkpt lat="42.450176" lon="-2.494924">
        <ele>421.0</ele>
        <time>2019-08-20T06:38:39Z</time>
        <sat>9</sat>
      </trkpt>
      <trkpt lat="42.450129" lon="-2.494910">
        <ele>421.2</ele>
        <time>2019-08-20T06:38:43Z</time>
        <sat>9</sat>
      </trkpt>
      <trkpt lat="42.450057" lon="-2.494943">
        <ele>421.4</ele>
        <time>2019-08-20T06:38:49Z</time>
        <sat>9</sat>
      </trkpt>
      <trkpt lat="42.450022" lon="-2.494994">
        <ele>421.5</ele>
        <time>2019-08-20T06:38:53Z</time>
        <sat>9</sat>
      </trkpt>
      <trkpt lat="42.449995" lon="-2.495050">
        <ele>421.6</ele>
        <time>2019-08-20T06:38:57Z</time>
        <sat>9</sat>
      </trkpt>
      <trkpt lat="42.449964" lon="-2.495147">
        <ele>422.0</ele>
        <time>2019-08-20T06:39:03Z</time>
        <sat>9</sat>
      </trkpt>
      <trkpt lat="42.449945" lon="-2.495321">
        <ele>422.7</ele>
        <time>2019-08-20T06:39:13Z</time>
        <sat>8</sat>
      </trkpt>
      <trkpt lat="42.449942" lon="-2.495485">
        <ele>423.2</ele>
        <time>2019-08-20T06:39:22Z</time>
        <sat>9</sat>
      </trkpt>
      <trkpt lat="42.449954" lon="-2.495695">
        <ele>423.8</ele>
        <time>2019-08-20T06:39:34Z</time>
        <sat>9</sat>
      </trkpt>
      <trkpt lat="42.449979" lon="-2.495949">
        <ele>424.4</ele>
        <time>2019-08-20T06:39:49Z</time>
        <sat>9</sat>
      </trkpt>
      <trkpt lat="42.449978" lon="-2.496181">
        <ele>425.0</ele>
        <time>2019-08-20T06:40:02Z</time>
        <sat>9</sat>
      </trkpt>
      <trkpt lat="42.449981" lon="-2.496215">
        <ele>425.1</ele>
        <time>2019-08-20T06:40:04Z</time>
        <sat>9</sat>
      </trkpt>
      <trkpt lat="42.449978" lon="-2.496391">
        <ele>425.5</ele>
        <time>2019-08-20T06:40:14Z</time>
        <sat>9</sat>
      </trkpt>
      <trkpt lat="42.449945" lon="-2.496563">
        <ele>425.9</ele>
        <time>2019-08-20T06:40:24Z</time>
        <sat>9</sat>
      </trkpt>
      <trkpt lat="42.449933" lon="-2.496612">
        <ele>426.1</ele>
        <time>2019-08-20T06:40:27Z</time>
        <sat>9</sat>
      </trkpt>
      <trkpt lat="42.449916" lon="-2.496806">
        <ele>426.7</ele>
        <time>2019-08-20T06:40:38Z</time>
        <sat>9</sat>
      </trkpt>
      <trkpt lat="42.449922" lon="-2.497011">
        <ele>427.4</ele>
        <time>2019-08-20T06:40:49Z</time>
        <sat>9</sat>
      </trkpt>
      <trkpt lat="42.449917" lon="-2.497235">
        <ele>428.0</ele>
        <time>2019-08-20T06:41:02Z</time>
        <sat>9</sat>
      </trkpt>
      <trkpt lat="42.449904" lon="-2.497323">
        <ele>428.2</ele>
        <time>2019-08-20T06:41:07Z</time>
        <sat>9</sat>
      </trkpt>
      <trkpt lat="42.449883" lon="-2.497553">
        <ele>429.0</ele>
        <time>2019-08-20T06:41:20Z</time>
        <sat>9</sat>
      </trkpt>
      <trkpt lat="42.449820" lon="-2.497717">
        <ele>429.7</ele>
        <time>2019-08-20T06:41:31Z</time>
        <sat>9</sat>
      </trkpt>
      <trkpt lat="42.449781" lon="-2.497771">
        <ele>429.9</ele>
        <time>2019-08-20T06:41:35Z</time>
        <sat>9</sat>
      </trkpt>
      <trkpt lat="42.449729" lon="-2.497825">
        <ele>430.3</ele>
        <time>2019-08-20T06:41:41Z</time>
        <sat>9</sat>
      </trkpt>
      <trkpt lat="42.449656" lon="-2.497876">
        <ele>430.7</ele>
        <time>2019-08-20T06:41:47Z</time>
        <sat>9</sat>
      </trkpt>
      <trkpt lat="42.449520" lon="-2.497997">
        <ele>431.3</ele>
        <time>2019-08-20T06:42:00Z</time>
        <sat>9</sat>
      </trkpt>
      <trkpt lat="42.449489" lon="-2.498014">
        <ele>431.4</ele>
        <time>2019-08-20T06:42:03Z</time>
        <sat>9</sat>
      </trkpt>
      <trkpt lat="42.449430" lon="-2.498069">
        <ele>431.6</ele>
        <time>2019-08-20T06:42:09Z</time>
        <sat>9</sat>
      </trkpt>
      <trkpt lat="42.449308" lon="-2.498171">
        <ele>431.7</ele>
        <time>2019-08-20T06:42:20Z</time>
        <sat>9</sat>
      </trkpt>
      <trkpt lat="42.449184" lon="-2.498219">
        <ele>431.7</ele>
        <time>2019-08-20T06:42:30Z</time>
        <sat>9</sat>
      </trkpt>
      <trkpt lat="42.449073" lon="-2.498232">
        <ele>431.4</ele>
        <time>2019-08-20T06:42:39Z</time>
        <sat>8</sat>
      </trkpt>
      <trkpt lat="42.449025" lon="-2.498223">
        <ele>431.2</ele>
        <time>2019-08-20T06:42:43Z</time>
        <sat>9</sat>
      </trkpt>
      <trkpt lat="42.448884" lon="-2.498223">
        <ele>429.8</ele>
        <time>2019-08-20T06:42:55Z</time>
        <sat>9</sat>
      </trkpt>
      <trkpt lat="42.448804" lon="-2.498269">
        <ele>429.8</ele>
        <time>2019-08-20T06:43:03Z</time>
        <sat>9</sat>
      </trkpt>
      <trkpt lat="42.448783" lon="-2.498337">
        <ele>429.7</ele>
        <time>2019-08-20T06:43:08Z</time>
        <sat>9</sat>
      </trkpt>
      <trkpt lat="42.448790" lon="-2.498454">
        <ele>429.5</ele>
        <time>2019-08-20T06:43:15Z</time>
        <sat>8</sat>
      </trkpt>
      <trkpt lat="42.448767" lon="-2.498600">
        <ele>429.2</ele>
        <time>2019-08-20T06:43:24Z</time>
        <sat>9</sat>
      </trkpt>
      <trkpt lat="42.448724" lon="-2.498704">
        <ele>428.9</ele>
        <time>2019-08-20T06:43:31Z</time>
        <sat>9</sat>
      </trkpt>
      <trkpt lat="42.448662" lon="-2.498829">
        <ele>428.4</ele>
        <time>2019-08-20T06:43:40Z</time>
        <sat>9</sat>
      </trkpt>
      <trkpt lat="42.448606" lon="-2.498915">
        <ele>428.3</ele>
        <time>2019-08-20T06:43:47Z</time>
        <sat>9</sat>
      </trkpt>
      <trkpt lat="42.448567" lon="-2.498959">
        <ele>428.2</ele>
        <time>2019-08-20T06:43:51Z</time>
        <sat>9</sat>
      </trkpt>
      <trkpt lat="42.448444" lon="-2.499043">
        <ele>428.0</ele>
        <time>2019-08-20T06:44:03Z</time>
        <sat>9</sat>
      </trkpt>
      <trkpt lat="42.448400" lon="-2.499078">
        <ele>428.0</ele>
        <time>2019-08-20T06:44:07Z</time>
        <sat>9</sat>
      </trkpt>
      <trkpt lat="42.448336" lon="-2.499152">
        <ele>428.0</ele>
        <time>2019-08-20T06:44:13Z</time>
        <sat>9</sat>
      </trkpt>
      <trkpt lat="42.448300" lon="-2.499251">
        <ele>427.8</ele>
        <time>2019-08-20T06:44:19Z</time>
        <sat>9</sat>
      </trkpt>
      <trkpt lat="42.448263" lon="-2.499375">
        <ele>427.5</ele>
        <time>2019-08-20T06:44:28Z</time>
        <sat>9</sat>
      </trkpt>
      <trkpt lat="42.448203" lon="-2.499556">
        <ele>426.9</ele>
        <time>2019-08-20T06:44:40Z</time>
        <sat>9</sat>
      </trkpt>
      <trkpt lat="42.448129" lon="-2.499726">
        <ele>426.1</ele>
        <time>2019-08-20T06:44:52Z</time>
        <sat>10</sat>
      </trkpt>
      <trkpt lat="42.448102" lon="-2.499763">
        <ele>425.9</ele>
        <time>2019-08-20T06:44:55Z</time>
        <sat>10</sat>
      </trkpt>
      <trkpt lat="42.448037" lon="-2.499820">
        <ele>425.7</ele>
        <time>2019-08-20T06:45:02Z</time>
        <sat>10</sat>
      </trkpt>
      <trkpt lat="42.448049" lon="-2.499827">
        <ele>425.8</ele>
        <time>2019-08-20T06:45:16Z</time>
        <sat>9</sat>
      </trkpt>
      <trkpt lat="42.448051" lon="-2.499840">
        <ele>425.6</ele>
        <time>2019-08-20T06:45:47Z</time>
        <sat>10</sat>
      </trkpt>
      <trkpt lat="42.447905" lon="-2.499911">
        <ele>425.9</ele>
        <time>2019-08-20T06:46:06Z</time>
        <sat>10</sat>
      </trkpt>
      <trkpt lat="42.447872" lon="-2.499897">
        <ele>426.9</ele>
        <time>2019-08-20T06:46:28Z</time>
        <sat>8</sat>
      </trkpt>
      <trkpt lat="42.447806" lon="-2.499922">
        <ele>426.9</ele>
        <time>2019-08-20T06:46:35Z</time>
        <sat>8</sat>
      </trkpt>
      <trkpt lat="42.447717" lon="-2.499898">
        <ele>427.2</ele>
        <time>2019-08-20T06:46:58Z</time>
        <sat>8</sat>
      </trkpt>
      <trkpt lat="42.447677" lon="-2.499897">
        <ele>427.4</ele>
        <time>2019-08-20T06:47:01Z</time>
        <sat>8</sat>
      </trkpt>
      <trkpt lat="42.447624" lon="-2.499925">
        <ele>427.7</ele>
        <time>2019-08-20T06:47:06Z</time>
        <sat>9</sat>
      </trkpt>
      <trkpt lat="42.447570" lon="-2.499994">
        <ele>428.4</ele>
        <time>2019-08-20T06:47:12Z</time>
        <sat>9</sat>
      </trkpt>
      <trkpt lat="42.447479" lon="-2.500191">
        <ele>429.9</ele>
        <time>2019-08-20T06:47:25Z</time>
        <sat>9</sat>
      </trkpt>
      <trkpt lat="42.447399" lon="-2.500302">
        <ele>430.9</ele>
        <time>2019-08-20T06:47:34Z</time>
        <sat>9</sat>
      </trkpt>
      <trkpt lat="42.447312" lon="-2.500388">
        <ele>431.6</ele>
        <time>2019-08-20T06:47:42Z</time>
        <sat>9</sat>
      </trkpt>
      <trkpt lat="42.447240" lon="-2.500432">
        <ele>432.2</ele>
        <time>2019-08-20T06:47:48Z</time>
        <sat>8</sat>
      </trkpt>
      <trkpt lat="42.447113" lon="-2.500523">
        <ele>434.1</ele>
        <time>2019-08-20T06:50:14Z</time>
        <sat>9</sat>
      </trkpt>
      <trkpt lat="42.447133" lon="-2.500543">
        <ele>433.6</ele>
        <time>2019-08-20T06:50:54Z</time>
        <sat>9</sat>
      </trkpt>
      <trkpt lat="42.447150" lon="-2.500704">
        <ele>433.9</ele>
        <time>2019-08-20T06:51:35Z</time>
        <sat>9</sat>
      </trkpt>
      <trkpt lat="42.447226" lon="-2.500899">
        <ele>433.8</ele>
        <time>2019-08-20T06:51:49Z</time>
        <sat>9</sat>
      </trkpt>
      <trkpt lat="42.447283" lon="-2.501052">
        <ele>433.8</ele>
        <time>2019-08-20T06:51:59Z</time>
        <sat>9</sat>
      </trkpt>
      <trkpt lat="42.447356" lon="-2.501254">
        <ele>433.7</ele>
        <time>2019-08-20T06:52:13Z</time>
        <sat>9</sat>
      </trkpt>
      <trkpt lat="42.447360" lon="-2.501269">
        <ele>433.8</ele>
        <time>2019-08-20T06:52:14Z</time>
        <sat>9</sat>
      </trkpt>
      <trkpt lat="42.447440" lon="-2.501492">
        <ele>433.9</ele>
        <time>2019-08-20T06:52:31Z</time>
        <sat>9</sat>
      </trkpt>
      <trkpt lat="42.447452" lon="-2.501539">
        <ele>433.9</ele>
        <time>2019-08-20T06:52:34Z</time>
        <sat>9</sat>
      </trkpt>
      <trkpt lat="42.447536" lon="-2.501755">
        <ele>433.8</ele>
        <time>2019-08-20T06:52:50Z</time>
        <sat>8</sat>
      </trkpt>
      <trkpt lat="42.447558" lon="-2.501822">
        <ele>432.6</ele>
        <time>2019-08-20T06:53:04Z</time>
        <sat>8</sat>
      </trkpt>
      <trkpt lat="42.447612" lon="-2.501921">
        <ele>433.8</ele>
        <time>2019-08-20T06:53:19Z</time>
        <sat>9</sat>
      </trkpt>
      <trkpt lat="42.447626" lon="-2.501981">
        <ele>434.0</ele>
        <time>2019-08-20T06:53:23Z</time>
        <sat>9</sat>
      </trkpt>
      <trkpt lat="42.447668" lon="-2.502077">
        <ele>434.1</ele>
        <time>2019-08-20T06:53:30Z</time>
        <sat>9</sat>
      </trkpt>
      <trkpt lat="42.447726" lon="-2.502237">
        <ele>434.0</ele>
        <time>2019-08-20T06:53:41Z</time>
        <sat>9</sat>
      </trkpt>
      <trkpt lat="42.447754" lon="-2.502321">
        <ele>434.1</ele>
        <time>2019-08-20T06:53:47Z</time>
        <sat>9</sat>
      </trkpt>
      <trkpt lat="42.447773" lon="-2.502362">
        <ele>434.1</ele>
        <time>2019-08-20T06:53:50Z</time>
        <sat>9</sat>
      </trkpt>
      <trkpt lat="42.447832" lon="-2.502539">
        <ele>434.2</ele>
        <time>2019-08-20T06:54:02Z</time>
        <sat>9</sat>
      </trkpt>
      <trkpt lat="42.447894" lon="-2.502714">
        <ele>434.0</ele>
        <time>2019-08-20T06:54:14Z</time>
        <sat>9</sat>
      </trkpt>
      <trkpt lat="42.447904" lon="-2.502790">
        <ele>434.0</ele>
        <time>2019-08-20T06:54:19Z</time>
        <sat>9</sat>
      </trkpt>
      <trkpt lat="42.447934" lon="-2.502843">
        <ele>434.0</ele>
        <time>2019-08-20T06:54:23Z</time>
        <sat>9</sat>
      </trkpt>
      <trkpt lat="42.447954" lon="-2.502921">
        <ele>434.1</ele>
        <time>2019-08-20T06:54:28Z</time>
        <sat>9</sat>
      </trkpt>
      <trkpt lat="42.448000" lon="-2.503062">
        <ele>434.2</ele>
        <time>2019-08-20T06:54:42Z</time>
        <sat>8</sat>
      </trkpt>
      <trkpt lat="42.448049" lon="-2.503145">
        <ele>434.2</ele>
        <time>2019-08-20T06:54:49Z</time>
        <sat>8</sat>
      </trkpt>
      <trkpt lat="42.448071" lon="-2.503233">
        <ele>434.0</ele>
        <time>2019-08-20T06:54:55Z</time>
        <sat>8</sat>
      </trkpt>
      <trkpt lat="42.448099" lon="-2.503292">
        <ele>434.0</ele>
        <time>2019-08-20T06:54:59Z</time>
        <sat>8</sat>
      </trkpt>
      <trkpt lat="42.448155" lon="-2.503474">
        <ele>433.9</ele>
        <time>2019-08-20T06:55:11Z</time>
        <sat>9</sat>
      </trkpt>
      <trkpt lat="42.448109" lon="-2.503573">
        <ele>433.9</ele>
        <time>2019-08-20T06:55:20Z</time>
        <sat>7</sat>
      </trkpt>
      <trkpt lat="42.448098" lon="-2.503620">
        <ele>433.7</ele>
        <time>2019-08-20T06:55:24Z</time>
        <sat>8</sat>
      </trkpt>
      <trkpt lat="42.448114" lon="-2.503703">
        <ele>433.8</ele>
        <time>2019-08-20T06:55:31Z</time>
        <sat>9</sat>
      </trkpt>
      <trkpt lat="42.448112" lon="-2.503762">
        <ele>434.6</ele>
        <time>2019-08-20T06:55:52Z</time>
        <sat>9</sat>
      </trkpt>
      <trkpt lat="42.448127" lon="-2.503836">
        <ele>434.6</ele>
        <time>2019-08-20T06:55:58Z</time>
        <sat>9</sat>
      </trkpt>
      <trkpt lat="42.448101" lon="-2.503934">
        <ele>434.6</ele>
        <time>2019-08-20T06:56:14Z</time>
        <sat>9</sat>
      </trkpt>
      <trkpt lat="42.448101" lon="-2.503976">
        <ele>434.8</ele>
        <time>2019-08-20T06:56:21Z</time>
        <sat>9</sat>
      </trkpt>
      <trkpt lat="42.448091" lon="-2.504138">
        <ele>435.1</ele>
        <time>2019-08-20T06:56:32Z</time>
        <sat>8</sat>
      </trkpt>
      <trkpt lat="42.448064" lon="-2.504284">
        <ele>435.6</ele>
        <time>2019-08-20T06:56:41Z</time>
        <sat>8</sat>
      </trkpt>
      <trkpt lat="42.448032" lon="-2.504362">
        <ele>436.3</ele>
        <time>2019-08-20T06:56:47Z</time>
        <sat>8</sat>
      </trkpt>
      <trkpt lat="42.447993" lon="-2.504399">
        <ele>437.0</ele>
        <time>2019-08-20T06:56:52Z</time>
        <sat>8</sat>
      </trkpt>
      <trkpt lat="42.447947" lon="-2.504398">
        <ele>437.6</ele>
        <time>2019-08-20T06:56:56Z</time>
        <sat>7</sat>
      </trkpt>
      <trkpt lat="42.447803" lon="-2.504407">
        <ele>438.6</ele>
        <time>2019-08-20T06:57:08Z</time>
        <sat>9</sat>
      </trkpt>
      <trkpt lat="42.447741" lon="-2.504461">
        <ele>438.8</ele>
        <time>2019-08-20T06:57:30Z</time>
        <sat>8</sat>
      </trkpt>
      <trkpt lat="42.447697" lon="-2.504514">
        <ele>438.9</ele>
        <time>2019-08-20T06:57:36Z</time>
        <sat>7</sat>
      </trkpt>
      <trkpt lat="42.447670" lon="-2.504568">
        <ele>438.9</ele>
        <time>2019-08-20T06:57:40Z</time>
        <sat>9</sat>
      </trkpt>
      <trkpt lat="42.447612" lon="-2.504756">
        <ele>439.3</ele>
        <time>2019-08-20T06:57:53Z</time>
        <sat>9</sat>
      </trkpt>
      <trkpt lat="42.447518" lon="-2.504876">
        <ele>439.5</ele>
        <time>2019-08-20T06:58:04Z</time>
        <sat>7</sat>
      </trkpt>
      <trkpt lat="42.447488" lon="-2.504890">
        <ele>439.5</ele>
        <time>2019-08-20T06:58:07Z</time>
        <sat>8</sat>
      </trkpt>
      <trkpt lat="42.447404" lon="-2.504905">
        <ele>439.5</ele>
        <time>2019-08-20T06:58:14Z</time>
        <sat>7</sat>
      </trkpt>
      <trkpt lat="42.447369" lon="-2.504929">
        <ele>439.6</ele>
        <time>2019-08-20T06:58:18Z</time>
        <sat>7</sat>
      </trkpt>
      <trkpt lat="42.447236" lon="-2.504999">
        <ele>439.6</ele>
        <time>2019-08-20T06:58:31Z</time>
        <sat>8</sat>
      </trkpt>
      <trkpt lat="42.447110" lon="-2.505083">
        <ele>437.9</ele>
        <time>2019-08-20T07:07:54Z</time>
        <sat>8</sat>
      </trkpt>
      <trkpt lat="42.446927" lon="-2.505152">
        <ele>437.9</ele>
        <time>2019-08-20T07:12:01Z</time>
        <sat>7</sat>
      </trkpt>
      <trkpt lat="42.446850" lon="-2.505210">
        <ele>437.9</ele>
        <time>2019-08-20T07:12:07Z</time>
        <sat>8</sat>
      </trkpt>
      <trkpt lat="42.446823" lon="-2.505243">
        <ele>437.9</ele>
        <time>2019-08-20T07:12:10Z</time>
        <sat>8</sat>
      </trkpt>
      <trkpt lat="42.446765" lon="-2.505394">
        <ele>437.9</ele>
        <time>2019-08-20T07:12:21Z</time>
        <sat>7</sat>
      </trkpt>
      <trkpt lat="42.446723" lon="-2.505585">
        <ele>436.4</ele>
        <time>2019-08-20T07:12:35Z</time>
        <sat>7</sat>
      </trkpt>
      <trkpt lat="42.446701" lon="-2.505761">
        <ele>435.3</ele>
        <time>2019-08-20T07:12:46Z</time>
        <sat>8</sat>
      </trkpt>
      <trkpt lat="42.446706" lon="-2.505899">
        <ele>434.9</ele>
        <time>2019-08-20T07:12:54Z</time>
        <sat>8</sat>
      </trkpt>
      <trkpt lat="42.446718" lon="-2.505960">
        <ele>434.6</ele>
        <time>2019-08-20T07:12:58Z</time>
        <sat>7</sat>
      </trkpt>
      <trkpt lat="42.446718" lon="-2.506024">
        <ele>434.5</ele>
        <time>2019-08-20T07:13:02Z</time>
        <sat>8</sat>
      </trkpt>
      <trkpt lat="42.446729" lon="-2.506102">
        <ele>434.4</ele>
        <time>2019-08-20T07:13:07Z</time>
        <sat>7</sat>
      </trkpt>
      <trkpt lat="42.446724" lon="-2.506320">
        <ele>434.0</ele>
        <time>2019-08-20T07:13:21Z</time>
        <sat>7</sat>
      </trkpt>
      <trkpt lat="42.446722" lon="-2.506477">
        <ele>433.8</ele>
        <time>2019-08-20T07:13:32Z</time>
        <sat>7</sat>
      </trkpt>
      <trkpt lat="42.446749" lon="-2.506621">
        <ele>433.6</ele>
        <time>2019-08-20T07:13:41Z</time>
        <sat>9</sat>
      </trkpt>
      <trkpt lat="42.446800" lon="-2.506799">
        <ele>433.6</ele>
        <time>2019-08-20T07:13:52Z</time>
        <sat>7</sat>
      </trkpt>
      <trkpt lat="42.446857" lon="-2.506985">
        <ele>433.8</ele>
        <time>2019-08-20T07:14:06Z</time>
        <sat>8</sat>
      </trkpt>
      <trkpt lat="42.446900" lon="-2.507121">
        <ele>433.7</ele>
        <time>2019-08-20T07:14:15Z</time>
        <sat>7</sat>
      </trkpt>
      <trkpt lat="42.446920" lon="-2.507167">
        <ele>433.6</ele>
        <time>2019-08-20T07:14:18Z</time>
        <sat>8</sat>
      </trkpt>
      <trkpt lat="42.446983" lon="-2.507359">
        <ele>433.6</ele>
        <time>2019-08-20T07:14:31Z</time>
        <sat>9</sat>
      </trkpt>
      <trkpt lat="42.447022" lon="-2.507453">
        <ele>433.7</ele>
        <time>2019-08-20T07:14:37Z</time>
        <sat>9</sat>
      </trkpt>
      <trkpt lat="42.447046" lon="-2.507568">
        <ele>434.0</ele>
        <time>2019-08-20T07:14:44Z</time>
        <sat>8</sat>
      </trkpt>
      <trkpt lat="42.447089" lon="-2.507713">
        <ele>434.5</ele>
        <time>2019-08-20T07:14:53Z</time>
        <sat>9</sat>
      </trkpt>
      <trkpt lat="42.447124" lon="-2.507891">
        <ele>434.7</ele>
        <time>2019-08-20T07:15:04Z</time>
        <sat>9</sat>
      </trkpt>
      <trkpt lat="42.447137" lon="-2.507998">
        <ele>434.9</ele>
        <time>2019-08-20T07:15:11Z</time>
        <sat>8</sat>
      </trkpt>
      <trkpt lat="42.447134" lon="-2.508042">
        <ele>435.0</ele>
        <time>2019-08-20T07:15:14Z</time>
        <sat>8</sat>
      </trkpt>
      <trkpt lat="42.447109" lon="-2.508082">
        <ele>435.2</ele>
        <time>2019-08-20T07:15:27Z</time>
        <sat>9</sat>
      </trkpt>
      <trkpt lat="42.447074" lon="-2.508328">
        <ele>435.3</ele>
        <time>2019-08-20T07:15:42Z</time>
        <sat>9</sat>
      </trkpt>
      <trkpt lat="42.447025" lon="-2.508555">
        <ele>435.3</ele>
        <time>2019-08-20T07:15:55Z</time>
        <sat>9</sat>
      </trkpt>
      <trkpt lat="42.447013" lon="-2.508595">
        <ele>435.3</ele>
        <time>2019-08-20T07:15:58Z</time>
        <sat>8</sat>
      </trkpt>
      <trkpt lat="42.446939" lon="-2.508750">
        <ele>435.1</ele>
        <time>2019-08-20T07:16:08Z</time>
        <sat>9</sat>
      </trkpt>
      <trkpt lat="42.446857" lon="-2.508927">
        <ele>435.1</ele>
        <time>2019-08-20T07:16:20Z</time>
        <sat>8</sat>
      </trkpt>
      <trkpt lat="42.446788" lon="-2.509036">
        <ele>435.2</ele>
        <time>2019-08-20T07:16:28Z</time>
        <sat>8</sat>
      </trkpt>
      <trkpt lat="42.446731" lon="-2.509154">
        <ele>435.0</ele>
        <time>2019-08-20T07:16:36Z</time>
        <sat>8</sat>
      </trkpt>
      <trkpt lat="42.446682" lon="-2.509218">
        <ele>434.8</ele>
        <time>2019-08-20T07:16:41Z</time>
        <sat>8</sat>
      </trkpt>
      <trkpt lat="42.446593" lon="-2.509380">
        <ele>434.3</ele>
        <time>2019-08-20T07:16:52Z</time>
        <sat>9</sat>
      </trkpt>
      <trkpt lat="42.446552" lon="-2.509493">
        <ele>434.4</ele>
        <time>2019-08-20T07:16:59Z</time>
        <sat>9</sat>
      </trkpt>
      <trkpt lat="42.446519" lon="-2.509563">
        <ele>434.6</ele>
        <time>2019-08-20T07:17:04Z</time>
        <sat>9</sat>
      </trkpt>
      <trkpt lat="42.446501" lon="-2.509630">
        <ele>434.7</ele>
        <time>2019-08-20T07:17:08Z</time>
        <sat>9</sat>
      </trkpt>
      <trkpt lat="42.446457" lon="-2.509741">
        <ele>435.0</ele>
        <time>2019-08-20T07:17:15Z</time>
        <sat>9</sat>
      </trkpt>
      <trkpt lat="42.446442" lon="-2.509803">
        <ele>435.1</ele>
        <time>2019-08-20T07:17:20Z</time>
        <sat>9</sat>
      </trkpt>
      <trkpt lat="42.446404" lon="-2.509904">
        <ele>435.3</ele>
        <time>2019-08-20T07:17:26Z</time>
        <sat>9</sat>
      </trkpt>
      <trkpt lat="42.446372" lon="-2.509964">
        <ele>435.4</ele>
        <time>2019-08-20T07:17:30Z</time>
        <sat>9</sat>
      </trkpt>
      <trkpt lat="42.446350" lon="-2.510029">
        <ele>435.6</ele>
        <time>2019-08-20T07:17:34Z</time>
        <sat>9</sat>
      </trkpt>
      <trkpt lat="42.446315" lon="-2.510080">
        <ele>435.8</ele>
        <time>2019-08-20T07:17:38Z</time>
        <sat>9</sat>
      </trkpt>
      <trkpt lat="42.446224" lon="-2.510247">
        <ele>436.8</ele>
        <time>2019-08-20T07:17:52Z</time>
        <sat>9</sat>
      </trkpt>
      <trkpt lat="42.446170" lon="-2.510366">
        <ele>436.9</ele>
        <time>2019-08-20T07:18:00Z</time>
        <sat>9</sat>
      </trkpt>
      <trkpt lat="42.446148" lon="-2.510447">
        <ele>436.8</ele>
        <time>2019-08-20T07:18:05Z</time>
        <sat>9</sat>
      </trkpt>
      <trkpt lat="42.446095" lon="-2.510604">
        <ele>436.7</ele>
        <time>2019-08-20T07:18:15Z</time>
        <sat>9</sat>
      </trkpt>
      <trkpt lat="42.446073" lon="-2.510700">
        <ele>436.6</ele>
        <time>2019-08-20T07:18:21Z</time>
        <sat>9</sat>
      </trkpt>
      <trkpt lat="42.445994" lon="-2.510840">
        <ele>436.2</ele>
        <time>2019-08-20T07:18:31Z</time>
        <sat>9</sat>
      </trkpt>
      <trkpt lat="42.445943" lon="-2.510905">
        <ele>436.7</ele>
        <time>2019-08-20T07:18:43Z</time>
        <sat>9</sat>
      </trkpt>
      <trkpt lat="42.445872" lon="-2.511030">
        <ele>436.5</ele>
        <time>2019-08-20T07:18:52Z</time>
        <sat>9</sat>
      </trkpt>
      <trkpt lat="42.445799" lon="-2.511113">
        <ele>436.3</ele>
        <time>2019-08-20T07:18:59Z</time>
        <sat>9</sat>
      </trkpt>
      <trkpt lat="42.445784" lon="-2.511143">
        <ele>436.3</ele>
        <time>2019-08-20T07:19:01Z</time>
        <sat>9</sat>
      </trkpt>
      <trkpt lat="42.445685" lon="-2.511311">
        <ele>436.1</ele>
        <time>2019-08-20T07:19:15Z</time>
        <sat>9</sat>
      </trkpt>
      <trkpt lat="42.445644" lon="-2.511371">
        <ele>435.9</ele>
        <time>2019-08-20T07:19:21Z</time>
        <sat>9</sat>
      </trkpt>
      <trkpt lat="42.445560" lon="-2.511574">
        <ele>435.5</ele>
        <time>2019-08-20T07:19:33Z</time>
        <sat>9</sat>
      </trkpt>
      <trkpt lat="42.445511" lon="-2.511706">
        <ele>435.4</ele>
        <time>2019-08-20T07:19:41Z</time>
        <sat>9</sat>
      </trkpt>
      <trkpt lat="42.445475" lon="-2.511784">
        <ele>435.3</ele>
        <time>2019-08-20T07:19:46Z</time>
        <sat>9</sat>
      </trkpt>
      <trkpt lat="42.445410" lon="-2.511945">
        <ele>435.0</ele>
        <time>2019-08-20T07:19:56Z</time>
        <sat>9</sat>
      </trkpt>
      <trkpt lat="42.445392" lon="-2.512029">
        <ele>434.7</ele>
        <time>2019-08-20T07:20:01Z</time>
        <sat>9</sat>
      </trkpt>
      <trkpt lat="42.445335" lon="-2.512138">
        <ele>434.8</ele>
        <time>2019-08-20T07:20:08Z</time>
        <sat>9</sat>
      </trkpt>
      <trkpt lat="42.445275" lon="-2.512259">
        <ele>434.9</ele>
        <time>2019-08-20T07:20:16Z</time>
        <sat>9</sat>
      </trkpt>
      <trkpt lat="42.445238" lon="-2.512310">
        <ele>435.0</ele>
        <time>2019-08-20T07:20:20Z</time>
        <sat>9</sat>
      </trkpt>
      <trkpt lat="42.445220" lon="-2.512366">
        <ele>432.7</ele>
        <time>2019-08-20T07:20:24Z</time>
        <sat>9</sat>
      </trkpt>
      <trkpt lat="42.445144" lon="-2.512494">
        <ele>436.0</ele>
        <time>2019-08-20T07:20:33Z</time>
        <sat>9</sat>
      </trkpt>
      <trkpt lat="42.445131" lon="-2.512524">
        <ele>436.0</ele>
        <time>2019-08-20T07:20:35Z</time>
        <sat>9</sat>
      </trkpt>
      <trkpt lat="42.445069" lon="-2.512626">
        <ele>435.7</ele>
        <time>2019-08-20T07:20:42Z</time>
        <sat>8</sat>
      </trkpt>
      <trkpt lat="42.444973" lon="-2.512854">
        <ele>435.6</ele>
        <time>2019-08-20T07:20:57Z</time>
        <sat>9</sat>
      </trkpt>
      <trkpt lat="42.444960" lon="-2.512938">
        <ele>435.5</ele>
        <time>2019-08-20T07:21:02Z</time>
        <sat>9</sat>
      </trkpt>
      <trkpt lat="42.444937" lon="-2.513058">
        <ele>435.4</ele>
        <time>2019-08-20T07:21:09Z</time>
        <sat>9</sat>
      </trkpt>
      <trkpt lat="42.444918" lon="-2.513103">
        <ele>435.5</ele>
        <time>2019-08-20T07:21:12Z</time>
        <sat>9</sat>
      </trkpt>
      <trkpt lat="42.444851" lon="-2.513221">
        <ele>435.7</ele>
        <time>2019-08-20T07:21:20Z</time>
        <sat>9</sat>
      </trkpt>
      <trkpt lat="42.444712" lon="-2.513332">
        <ele>435.8</ele>
        <time>2019-08-20T07:21:32Z</time>
        <sat>9</sat>
      </trkpt>
      <trkpt lat="42.444597" lon="-2.513374">
        <ele>435.7</ele>
        <time>2019-08-20T07:21:41Z</time>
        <sat>9</sat>
      </trkpt>
      <trkpt lat="42.444548" lon="-2.513375">
        <ele>435.7</ele>
        <time>2019-08-20T07:21:45Z</time>
        <sat>9</sat>
      </trkpt>
      <trkpt lat="42.444486" lon="-2.513342">
        <ele>435.8</ele>
        <time>2019-08-20T07:21:50Z</time>
        <sat>9</sat>
      </trkpt>
      <trkpt lat="42.444438" lon="-2.513284">
        <ele>435.8</ele>
        <time>2019-08-20T07:21:55Z</time>
        <sat>9</sat>
      </trkpt>
      <trkpt lat="42.444371" lon="-2.513073">
        <ele>435.7</ele>
        <time>2019-08-20T07:22:09Z</time>
        <sat>9</sat>
      </trkpt>
      <trkpt lat="42.444357" lon="-2.512986">
        <ele>435.6</ele>
        <time>2019-08-20T07:22:14Z</time>
        <sat>9</sat>
      </trkpt>
      <trkpt lat="42.444330" lon="-2.512847">
        <ele>435.4</ele>
        <time>2019-08-20T07:22:22Z</time>
        <sat>9</sat>
      </trkpt>
      <trkpt lat="42.444282" lon="-2.512672">
        <ele>434.9</ele>
        <time>2019-08-20T07:22:33Z</time>
        <sat>9</sat>
      </trkpt>
      <trkpt lat="42.444247" lon="-2.512580">
        <ele>434.7</ele>
        <time>2019-08-20T07:22:39Z</time>
        <sat>9</sat>
      </trkpt>
      <trkpt lat="42.444199" lon="-2.512421">
        <ele>434.5</ele>
        <time>2019-08-20T07:22:49Z</time>
        <sat>9</sat>
      </trkpt>
      <trkpt lat="42.444142" lon="-2.512215">
        <ele>433.9</ele>
        <time>2019-08-20T07:23:02Z</time>
        <sat>9</sat>
      </trkpt>
      <trkpt lat="42.444104" lon="-2.512156">
        <ele>433.8</ele>
        <time>2019-08-20T07:23:06Z</time>
        <sat>9</sat>
      </trkpt>
      <trkpt lat="42.444033" lon="-2.512104">
        <ele>433.8</ele>
        <time>2019-08-20T07:23:12Z</time>
        <sat>9</sat>
      </trkpt>
      <trkpt lat="42.443973" lon="-2.512099">
        <ele>434.0</ele>
        <time>2019-08-20T07:23:17Z</time>
        <sat>9</sat>
      </trkpt>
      <trkpt lat="42.443939" lon="-2.512103">
        <ele>434.2</ele>
        <time>2019-08-20T07:23:20Z</time>
        <sat>9</sat>
      </trkpt>
      <trkpt lat="42.443845" lon="-2.512240">
        <ele>434.9</ele>
        <time>2019-08-20T07:23:32Z</time>
        <sat>9</sat>
      </trkpt>
      <trkpt lat="42.443824" lon="-2.512288">
        <ele>435.0</ele>
        <time>2019-08-20T07:23:35Z</time>
        <sat>9</sat>
      </trkpt>
      <trkpt lat="42.443770" lon="-2.512364">
        <ele>435.1</ele>
        <time>2019-08-20T07:23:41Z</time>
        <sat>9</sat>
      </trkpt>
      <trkpt lat="42.443657" lon="-2.512553">
        <ele>435.0</ele>
        <time>2019-08-20T07:23:54Z</time>
        <sat>9</sat>
      </trkpt>
      <trkpt lat="42.443616" lon="-2.512643">
        <ele>434.9</ele>
        <time>2019-08-20T07:24:00Z</time>
        <sat>9</sat>
      </trkpt>
      <trkpt lat="42.443573" lon="-2.512709">
        <ele>434.7</ele>
        <time>2019-08-20T07:24:05Z</time>
        <sat>9</sat>
      </trkpt>
      <trkpt lat="42.443472" lon="-2.512884">
        <ele>434.9</ele>
        <time>2019-08-20T07:24:18Z</time>
        <sat>9</sat>
      </trkpt>
      <trkpt lat="42.443379" lon="-2.513079">
        <ele>434.9</ele>
        <time>2019-08-20T07:24:31Z</time>
        <sat>9</sat>
      </trkpt>
      <trkpt lat="42.443340" lon="-2.513146">
        <ele>434.9</ele>
        <time>2019-08-20T07:24:36Z</time>
        <sat>9</sat>
      </trkpt>
      <trkpt lat="42.443260" lon="-2.513210">
        <ele>435.1</ele>
        <time>2019-08-20T07:24:43Z</time>
        <sat>9</sat>
      </trkpt>
      <trkpt lat="42.443102" lon="-2.513236">
        <ele>435.5</ele>
        <time>2019-08-20T07:24:55Z</time>
        <sat>9</sat>
      </trkpt>
      <trkpt lat="42.442957" lon="-2.513286">
        <ele>436.6</ele>
        <time>2019-08-20T07:25:07Z</time>
        <sat>9</sat>
      </trkpt>
      <trkpt lat="42.442852" lon="-2.513304">
        <ele>437.5</ele>
        <time>2019-08-20T07:25:15Z</time>
        <sat>9</sat>
      </trkpt>
      <trkpt lat="42.442743" lon="-2.513277">
        <ele>438.1</ele>
        <time>2019-08-20T07:25:24Z</time>
        <sat>9</sat>
      </trkpt>
      <trkpt lat="42.442676" lon="-2.513233">
        <ele>438.4</ele>
        <time>2019-08-20T07:25:37Z</time>
        <sat>9</sat>
      </trkpt>
      <trkpt lat="42.442613" lon="-2.513245">
        <ele>438.3</ele>
        <time>2019-08-20T07:26:01Z</time>
        <sat>8</sat>
      </trkpt>
      <trkpt lat="42.442538" lon="-2.513238">
        <ele>438.2</ele>
        <time>2019-08-20T07:26:08Z</time>
        <sat>8</sat>
      </trkpt>
      <trkpt lat="42.442427" lon="-2.513218">
        <ele>437.7</ele>
        <time>2019-08-20T07:26:17Z</time>
        <sat>8</sat>
      </trkpt>
      <trkpt lat="42.442374" lon="-2.513228">
        <ele>437.7</ele>
        <time>2019-08-20T07:26:21Z</time>
        <sat>8</sat>
      </trkpt>
      <trkpt lat="42.442310" lon="-2.513222">
        <ele>437.6</ele>
        <time>2019-08-20T07:26:26Z</time>
        <sat>8</sat>
      </trkpt>
      <trkpt lat="42.442166" lon="-2.513228">
        <ele>437.5</ele>
        <time>2019-08-20T07:26:37Z</time>
        <sat>9</sat>
      </trkpt>
      <trkpt lat="42.442012" lon="-2.513266">
        <ele>437.3</ele>
        <time>2019-08-20T07:26:49Z</time>
        <sat>8</sat>
      </trkpt>
      <trkpt lat="42.441882" lon="-2.513337">
        <ele>437.3</ele>
        <time>2019-08-20T07:27:00Z</time>
        <sat>9</sat>
      </trkpt>
      <trkpt lat="42.441835" lon="-2.513371">
        <ele>437.2</ele>
        <time>2019-08-20T07:27:04Z</time>
        <sat>9</sat>
      </trkpt>
      <trkpt lat="42.441784" lon="-2.513396">
        <ele>437.1</ele>
        <time>2019-08-20T07:27:08Z</time>
        <sat>9</sat>
      </trkpt>
      <trkpt lat="42.441711" lon="-2.513415">
        <ele>437.0</ele>
        <time>2019-08-20T07:27:14Z</time>
        <sat>8</sat>
      </trkpt>
      <trkpt lat="42.441584" lon="-2.513415">
        <ele>437.0</ele>
        <time>2019-08-20T07:27:24Z</time>
        <sat>9</sat>
      </trkpt>
      <trkpt lat="42.441521" lon="-2.513481">
        <ele>436.5</ele>
        <time>2019-08-20T07:28:27Z</time>
        <sat>9</sat>
      </trkpt>
      <trkpt lat="42.441471" lon="-2.513506">
        <ele>435.8</ele>
        <time>2019-08-20T07:31:12Z</time>
        <sat>9</sat>
      </trkpt>
      <trkpt lat="42.441450" lon="-2.513503">
        <ele>435.9</ele>
        <time>2019-08-20T07:31:30Z</time>
        <sat>9</sat>
      </trkpt>
      <trkpt lat="42.441330" lon="-2.513478">
        <ele>436.0</ele>
        <time>2019-08-20T07:34:50Z</time>
        <sat>7</sat>
      </trkpt>
      <trkpt lat="42.441340" lon="-2.513565">
        <ele>436.4</ele>
        <time>2019-08-20T07:35:03Z</time>
        <sat>7</sat>
      </trkpt>
      <trkpt lat="42.441330" lon="-2.513658">
        <ele>436.4</ele>
        <time>2019-08-20T07:35:09Z</time>
        <sat>8</sat>
      </trkpt>
      <trkpt lat="42.441341" lon="-2.513751">
        <ele>436.5</ele>
        <time>2019-08-20T07:35:17Z</time>
        <sat>8</sat>
      </trkpt>
      <trkpt lat="42.441406" lon="-2.513958">
        <ele>437.2</ele>
        <time>2019-08-20T07:35:30Z</time>
        <sat>8</sat>
      </trkpt>
      <trkpt lat="42.441428" lon="-2.514088">
        <ele>437.6</ele>
        <time>2019-08-20T07:35:37Z</time>
        <sat>8</sat>
      </trkpt>
      <trkpt lat="42.441476" lon="-2.514299">
        <ele>437.9</ele>
        <time>2019-08-20T07:35:49Z</time>
        <sat>8</sat>
      </trkpt>
      <trkpt lat="42.441486" lon="-2.514336">
        <ele>437.9</ele>
        <time>2019-08-20T07:35:51Z</time>
        <sat>8</sat>
      </trkpt>
      <trkpt lat="42.441544" lon="-2.514509">
        <ele>438.3</ele>
        <time>2019-08-20T07:36:02Z</time>
        <sat>8</sat>
      </trkpt>
      <trkpt lat="42.441568" lon="-2.514652">
        <ele>438.7</ele>
        <time>2019-08-20T07:36:10Z</time>
        <sat>8</sat>
      </trkpt>
      <trkpt lat="42.441561" lon="-2.514716">
        <ele>438.9</ele>
        <time>2019-08-20T07:36:14Z</time>
        <sat>8</sat>
      </trkpt>
      <trkpt lat="42.441515" lon="-2.514838">
        <ele>440.0</ele>
        <time>2019-08-20T07:37:59Z</time>
        <sat>8</sat>
      </trkpt>
      <trkpt lat="42.441448" lon="-2.514797">
        <ele>439.6</ele>
        <time>2019-08-20T07:38:09Z</time>
        <sat>8</sat>
      </trkpt>
      <trkpt lat="42.441389" lon="-2.514800">
        <ele>439.4</ele>
        <time>2019-08-20T07:38:15Z</time>
        <sat>8</sat>
      </trkpt>
      <trkpt lat="42.441334" lon="-2.514790">
        <ele>439.4</ele>
        <time>2019-08-20T07:38:19Z</time>
        <sat>8</sat>
      </trkpt>
      <trkpt lat="42.441225" lon="-2.514805">
        <ele>439.4</ele>
        <time>2019-08-20T07:38:27Z</time>
        <sat>8</sat>
      </trkpt>
      <trkpt lat="42.441138" lon="-2.514805">
        <ele>439.3</ele>
        <time>2019-08-20T07:38:33Z</time>
        <sat>8</sat>
      </trkpt>
      <trkpt lat="42.441020" lon="-2.514818">
        <ele>439.4</ele>
        <time>2019-08-20T07:38:42Z</time>
        <sat>8</sat>
      </trkpt>
      <trkpt lat="42.440950" lon="-2.514807">
        <ele>439.4</ele>
        <time>2019-08-20T07:38:47Z</time>
        <sat>8</sat>
      </trkpt>
      <trkpt lat="42.440842" lon="-2.514824">
        <ele>439.5</ele>
        <time>2019-08-20T07:38:55Z</time>
        <sat>8</sat>
      </trkpt>
      <trkpt lat="42.440722" lon="-2.514817">
        <ele>439.6</ele>
        <time>2019-08-20T07:39:04Z</time>
        <sat>8</sat>
      </trkpt>
      <trkpt lat="42.440642" lon="-2.514831">
        <ele>439.7</ele>
        <time>2019-08-20T07:39:10Z</time>
        <sat>8</sat>
      </trkpt>
      <trkpt lat="42.440560" lon="-2.514826">
        <ele>439.8</ele>
        <time>2019-08-20T07:39:16Z</time>
        <sat>8</sat>
      </trkpt>
      <trkpt lat="42.440392" lon="-2.514857">
        <ele>440.3</ele>
        <time>2019-08-20T07:39:29Z</time>
        <sat>7</sat>
      </trkpt>
      <trkpt lat="42.440287" lon="-2.514887">
        <ele>440.4</ele>
        <time>2019-08-20T07:39:37Z</time>
        <sat>8</sat>
      </trkpt>
      <trkpt lat="42.440109" lon="-2.514915">
        <ele>440.4</ele>
        <time>2019-08-20T07:39:50Z</time>
        <sat>8</sat>
      </trkpt>
      <trkpt lat="42.440012" lon="-2.514924">
        <ele>440.5</ele>
        <time>2019-08-20T07:39:57Z</time>
        <sat>8</sat>
      </trkpt>
      <trkpt lat="42.439958" lon="-2.514941">
        <ele>440.5</ele>
        <time>2019-08-20T07:40:01Z</time>
        <sat>8</sat>
      </trkpt>
      <trkpt lat="42.439838" lon="-2.514959">
        <ele>440.5</ele>
        <time>2019-08-20T07:40:10Z</time>
        <sat>7</sat>
      </trkpt>
      <trkpt lat="42.439668" lon="-2.515041">
        <ele>440.4</ele>
        <time>2019-08-20T07:40:24Z</time>
        <sat>8</sat>
      </trkpt>
      <trkpt lat="42.439555" lon="-2.515103">
        <ele>440.6</ele>
        <time>2019-08-20T07:40:33Z</time>
        <sat>8</sat>
      </trkpt>
      <trkpt lat="42.439448" lon="-2.515183">
        <ele>440.6</ele>
        <time>2019-08-20T07:40:42Z</time>
        <sat>8</sat>
      </trkpt>
      <trkpt lat="42.439436" lon="-2.515190">
        <ele>440.6</ele>
        <time>2019-08-20T07:40:43Z</time>
        <sat>8</sat>
      </trkpt>
      <trkpt lat="42.439274" lon="-2.515296">
        <ele>440.8</ele>
        <time>2019-08-20T07:40:56Z</time>
        <sat>7</sat>
      </trkpt>
      <trkpt lat="42.439185" lon="-2.515319">
        <ele>440.9</ele>
        <time>2019-08-20T07:41:03Z</time>
        <sat>8</sat>
      </trkpt>
      <trkpt lat="42.439105" lon="-2.515321">
        <ele>440.9</ele>
        <time>2019-08-20T07:41:09Z</time>
        <sat>8</sat>
      </trkpt>
      <trkpt lat="42.438959" lon="-2.515297">
        <ele>441.0</ele>
        <time>2019-08-20T07:41:20Z</time>
        <sat>8</sat>
      </trkpt>
      <trkpt lat="42.438923" lon="-2.515280">
        <ele>441.0</ele>
        <time>2019-08-20T07:41:23Z</time>
        <sat>8</sat>
      </trkpt>
      <trkpt lat="42.438852" lon="-2.515220">
        <ele>441.1</ele>
        <time>2019-08-20T07:41:29Z</time>
        <sat>8</sat>
      </trkpt>
      <trkpt lat="42.438812" lon="-2.515198">
        <ele>441.1</ele>
        <time>2019-08-20T07:41:32Z</time>
        <sat>8</sat>
      </trkpt>
      <trkpt lat="42.438738" lon="-2.515102">
        <ele>441.4</ele>
        <time>2019-08-20T07:41:40Z</time>
        <sat>8</sat>
      </trkpt>
      <trkpt lat="42.438712" lon="-2.515081">
        <ele>441.6</ele>
        <time>2019-08-20T07:41:57Z</time>
        <sat>8</sat>
      </trkpt>
      <trkpt lat="42.438655" lon="-2.514983">
        <ele>442.4</ele>
        <time>2019-08-20T07:42:04Z</time>
        <sat>8</sat>
      </trkpt>
      <trkpt lat="42.438601" lon="-2.514920">
        <ele>442.5</ele>
        <time>2019-08-20T07:42:09Z</time>
        <sat>8</sat>
      </trkpt>
      <trkpt lat="42.438573" lon="-2.514863">
        <ele>442.6</ele>
        <time>2019-08-20T07:42:13Z</time>
        <sat>8</sat>
      </trkpt>
      <trkpt lat="42.438433" lon="-2.514721">
        <ele>443.3</ele>
        <time>2019-08-20T07:42:26Z</time>
        <sat>8</sat>
      </trkpt>
      <trkpt lat="42.438375" lon="-2.514660">
        <ele>443.7</ele>
        <time>2019-08-20T07:42:31Z</time>
        <sat>8</sat>
      </trkpt>
      <trkpt lat="42.438322" lon="-2.514640">
        <ele>444.3</ele>
        <time>2019-08-20T07:42:35Z</time>
        <sat>8</sat>
      </trkpt>
      <trkpt lat="42.438152" lon="-2.514523">
        <ele>446.0</ele>
        <time>2019-08-20T07:42:49Z</time>
        <sat>8</sat>
      </trkpt>
      <trkpt lat="42.438017" lon="-2.514431">
        <ele>447.3</ele>
        <time>2019-08-20T07:43:00Z</time>
        <sat>8</sat>
      </trkpt>
      <trkpt lat="42.437904" lon="-2.514373">
        <ele>448.1</ele>
        <time>2019-08-20T07:43:09Z</time>
        <sat>8</sat>
      </trkpt>
      <trkpt lat="42.437836" lon="-2.514374">
        <ele>448.9</ele>
        <time>2019-08-20T07:43:15Z</time>
        <sat>8</sat>
      </trkpt>
      <trkpt lat="42.437765" lon="-2.514427">
        <ele>449.4</ele>
        <time>2019-08-20T07:43:21Z</time>
        <sat>8</sat>
      </trkpt>
      <trkpt lat="42.437730" lon="-2.514476">
        <ele>449.7</ele>
        <time>2019-08-20T07:43:25Z</time>
        <sat>8</sat>
      </trkpt>
      <trkpt lat="42.437678" lon="-2.514531">
        <ele>450.8</ele>
        <time>2019-08-20T07:43:38Z</time>
        <sat>8</sat>
      </trkpt>
      <trkpt lat="42.437647" lon="-2.514616">
        <ele>451.4</ele>
        <time>2019-08-20T07:43:55Z</time>
        <sat>8</sat>
      </trkpt>
      <trkpt lat="42.437590" lon="-2.514705">
        <ele>451.9</ele>
        <time>2019-08-20T07:44:03Z</time>
        <sat>8</sat>
      </trkpt>
      <trkpt lat="42.437538" lon="-2.514837">
        <ele>452.6</ele>
        <time>2019-08-20T07:44:12Z</time>
        <sat>8</sat>
      </trkpt>
      <trkpt lat="42.437505" lon="-2.514899">
        <ele>453.0</ele>
        <time>2019-08-20T07:44:16Z</time>
        <sat>8</sat>
      </trkpt>
      <trkpt lat="42.437449" lon="-2.515047">
        <ele>454.4</ele>
        <time>2019-08-20T07:44:26Z</time>
        <sat>8</sat>
      </trkpt>
      <trkpt lat="42.437438" lon="-2.515084">
        <ele>454.7</ele>
        <time>2019-08-20T07:44:28Z</time>
        <sat>8</sat>
      </trkpt>
      <trkpt lat="42.437424" lon="-2.515202">
        <ele>455.0</ele>
        <time>2019-08-20T07:44:34Z</time>
        <sat>7</sat>
      </trkpt>
      <trkpt lat="42.437348" lon="-2.515309">
        <ele>457.0</ele>
        <time>2019-08-20T07:45:36Z</time>
        <sat>8</sat>
      </trkpt>
      <trkpt lat="42.437261" lon="-2.515463">
        <ele>456.9</ele>
        <time>2019-08-20T07:45:49Z</time>
        <sat>8</sat>
      </trkpt>
      <trkpt lat="42.437226" lon="-2.515482">
        <ele>458.9</ele>
        <time>2019-08-20T07:45:55Z</time>
        <sat>8</sat>
      </trkpt>
      <trkpt lat="42.437158" lon="-2.515546">
        <ele>460.1</ele>
        <time>2019-08-20T07:46:01Z</time>
        <sat>8</sat>
      </trkpt>
      <trkpt lat="42.437135" lon="-2.515577">
        <ele>460.3</ele>
        <time>2019-08-20T07:46:03Z</time>
        <sat>8</sat>
      </trkpt>
      <trkpt lat="42.437006" lon="-2.515694">
        <ele>461.7</ele>
        <time>2019-08-20T07:46:16Z</time>
        <sat>8</sat>
      </trkpt>
      <trkpt lat="42.436981" lon="-2.515726">
        <ele>462.8</ele>
        <time>2019-08-20T07:48:06Z</time>
        <sat>8</sat>
      </trkpt>
      <trkpt lat="42.436955" lon="-2.515751">
        <ele>463.4</ele>
        <time>2019-08-20T07:48:11Z</time>
        <sat>8</sat>
      </trkpt>
      <trkpt lat="42.436808" lon="-2.515848">
        <ele>465.1</ele>
        <time>2019-08-20T07:48:29Z</time>
        <sat>8</sat>
      </trkpt>
      <trkpt lat="42.436700" lon="-2.515989">
        <ele>466.2</ele>
        <time>2019-08-20T07:48:41Z</time>
        <sat>8</sat>
      </trkpt>
      <trkpt lat="42.436678" lon="-2.516034">
        <ele>466.7</ele>
        <time>2019-08-20T07:48:44Z</time>
        <sat>8</sat>
      </trkpt>
      <trkpt lat="42.436591" lon="-2.516166">
        <ele>468.0</ele>
        <time>2019-08-20T07:48:54Z</time>
        <sat>8</sat>
      </trkpt>
      <trkpt lat="42.436556" lon="-2.516262">
        <ele>469.1</ele>
        <time>2019-08-20T07:49:00Z</time>
        <sat>8</sat>
      </trkpt>
      <trkpt lat="42.436567" lon="-2.516363">
        <ele>470.0</ele>
        <time>2019-08-20T07:49:06Z</time>
        <sat>8</sat>
      </trkpt>
      <trkpt lat="42.436594" lon="-2.516427">
        <ele>470.6</ele>
        <time>2019-08-20T07:49:10Z</time>
        <sat>8</sat>
      </trkpt>
      <trkpt lat="42.436627" lon="-2.516463">
        <ele>471.0</ele>
        <time>2019-08-20T07:49:13Z</time>
        <sat>8</sat>
      </trkpt>
      <trkpt lat="42.436710" lon="-2.516570">
        <ele>472.0</ele>
        <time>2019-08-20T07:49:21Z</time>
        <sat>8</sat>
      </trkpt>
      <trkpt lat="42.436810" lon="-2.516722">
        <ele>473.2</ele>
        <time>2019-08-20T07:49:32Z</time>
        <sat>8</sat>
      </trkpt>
      <trkpt lat="42.436843" lon="-2.516800">
        <ele>473.7</ele>
        <time>2019-08-20T07:49:37Z</time>
        <sat>8</sat>
      </trkpt>
      <trkpt lat="42.436906" lon="-2.516891">
        <ele>474.3</ele>
        <time>2019-08-20T07:49:53Z</time>
        <sat>8</sat>
      </trkpt>
      <trkpt lat="42.437011" lon="-2.517040">
        <ele>474.1</ele>
        <time>2019-08-20T07:50:04Z</time>
        <sat>8</sat>
      </trkpt>
      <trkpt lat="42.437082" lon="-2.517128">
        <ele>474.1</ele>
        <time>2019-08-20T07:50:11Z</time>
        <sat>8</sat>
      </trkpt>
      <trkpt lat="42.437168" lon="-2.517249">
        <ele>474.1</ele>
        <time>2019-08-20T07:50:20Z</time>
        <sat>8</sat>
      </trkpt>
      <trkpt lat="42.437226" lon="-2.517285">
        <ele>473.9</ele>
        <time>2019-08-20T07:50:25Z</time>
        <sat>8</sat>
      </trkpt>
      <trkpt lat="42.437360" lon="-2.517443">
        <ele>474.3</ele>
        <time>2019-08-20T07:50:48Z</time>
        <sat>8</sat>
      </trkpt>
      <trkpt lat="42.437488" lon="-2.517647">
        <ele>474.4</ele>
        <time>2019-08-20T07:51:02Z</time>
        <sat>8</sat>
      </trkpt>
      <trkpt lat="42.437575" lon="-2.517791">
        <ele>474.3</ele>
        <time>2019-08-20T07:51:12Z</time>
        <sat>8</sat>
      </trkpt>
      <trkpt lat="42.437609" lon="-2.517843">
        <ele>474.3</ele>
        <time>2019-08-20T07:51:16Z</time>
        <sat>8</sat>
      </trkpt>
      <trkpt lat="42.437695" lon="-2.518013">
        <ele>474.5</ele>
        <time>2019-08-20T07:51:27Z</time>
        <sat>8</sat>
      </trkpt>
      <trkpt lat="42.437739" lon="-2.518144">
        <ele>474.7</ele>
        <time>2019-08-20T07:51:35Z</time>
        <sat>8</sat>
      </trkpt>
      <trkpt lat="42.437804" lon="-2.518322">
        <ele>475.0</ele>
        <time>2019-08-20T07:51:46Z</time>
        <sat>8</sat>
      </trkpt>
      <trkpt lat="42.437824" lon="-2.518366">
        <ele>475.1</ele>
        <time>2019-08-20T07:51:49Z</time>
        <sat>8</sat>
      </trkpt>
      <trkpt lat="42.437845" lon="-2.518449">
        <ele>475.3</ele>
        <time>2019-08-20T07:51:54Z</time>
        <sat>8</sat>
      </trkpt>
      <trkpt lat="42.437860" lon="-2.518481">
        <ele>475.4</ele>
        <time>2019-08-20T07:51:56Z</time>
        <sat>8</sat>
      </trkpt>
      <trkpt lat="42.437886" lon="-2.518577">
        <ele>475.8</ele>
        <time>2019-08-20T07:52:02Z</time>
        <sat>7</sat>
      </trkpt>
      <trkpt lat="42.437935" lon="-2.518734">
        <ele>477.1</ele>
        <time>2019-08-20T07:52:12Z</time>
        <sat>8</sat>
      </trkpt>
      <trkpt lat="42.437981" lon="-2.518913">
        <ele>478.1</ele>
        <time>2019-08-20T07:52:23Z</time>
        <sat>7</sat>
      </trkpt>
      <trkpt lat="42.438051" lon="-2.519089">
        <ele>478.9</ele>
        <time>2019-08-20T07:52:36Z</time>
        <sat>8</sat>
      </trkpt>
      <trkpt lat="42.438097" lon="-2.519177">
        <ele>479.1</ele>
        <time>2019-08-20T07:52:42Z</time>
        <sat>8</sat>
      </trkpt>
      <trkpt lat="42.438157" lon="-2.519311">
        <ele>479.6</ele>
        <time>2019-08-20T07:52:51Z</time>
        <sat>8</sat>
      </trkpt>
      <trkpt lat="42.438226" lon="-2.519465">
        <ele>480.5</ele>
        <time>2019-08-20T07:53:02Z</time>
        <sat>8</sat>
      </trkpt>
      <trkpt lat="42.438282" lon="-2.519592">
        <ele>481.5</ele>
        <time>2019-08-20T07:53:11Z</time>
        <sat>8</sat>
      </trkpt>
      <trkpt lat="42.438368" lon="-2.519722">
        <ele>483.0</ele>
        <time>2019-08-20T07:53:22Z</time>
        <sat>7</sat>
      </trkpt>
      <trkpt lat="42.438494" lon="-2.519870">
        <ele>484.5</ele>
        <time>2019-08-20T07:53:35Z</time>
        <sat>8</sat>
      </trkpt>
      <trkpt lat="42.438513" lon="-2.519915">
        <ele>484.8</ele>
        <time>2019-08-20T07:53:38Z</time>
        <sat>8</sat>
      </trkpt>
      <trkpt lat="42.438552" lon="-2.519968">
        <ele>485.1</ele>
        <time>2019-08-20T07:53:42Z</time>
        <sat>8</sat>
      </trkpt>
      <trkpt lat="42.438592" lon="-2.520071">
        <ele>485.5</ele>
        <time>2019-08-20T07:53:49Z</time>
        <sat>8</sat>
      </trkpt>
      <trkpt lat="42.438620" lon="-2.520117">
        <ele>485.6</ele>
        <time>2019-08-20T07:53:52Z</time>
        <sat>7</sat>
      </trkpt>
      <trkpt lat="42.438694" lon="-2.520318">
        <ele>486.1</ele>
        <time>2019-08-20T07:54:05Z</time>
        <sat>8</sat>
      </trkpt>
      <trkpt lat="42.438756" lon="-2.520505">
        <ele>486.5</ele>
        <time>2019-08-20T07:54:17Z</time>
        <sat>7</sat>
      </trkpt>
      <trkpt lat="42.438807" lon="-2.520626">
        <ele>486.9</ele>
        <time>2019-08-20T07:54:26Z</time>
        <sat>7</sat>
      </trkpt>
      <trkpt lat="42.438841" lon="-2.520749">
        <ele>487.3</ele>
        <time>2019-08-20T07:54:35Z</time>
        <sat>7</sat>
      </trkpt>
      <trkpt lat="42.438871" lon="-2.520814">
        <ele>487.6</ele>
        <time>2019-08-20T07:54:40Z</time>
        <sat>6</sat>
      </trkpt>
      <trkpt lat="42.438922" lon="-2.520911">
        <ele>488.2</ele>
        <time>2019-08-20T07:54:48Z</time>
        <sat>7</sat>
      </trkpt>
      <trkpt lat="42.438985" lon="-2.521022">
        <ele>489.0</ele>
        <time>2019-08-20T07:54:57Z</time>
        <sat>8</sat>
      </trkpt>
      <trkpt lat="42.439037" lon="-2.521091">
        <ele>489.6</ele>
        <time>2019-08-20T07:55:04Z</time>
        <sat>8</sat>
      </trkpt>
      <trkpt lat="42.439111" lon="-2.521209">
        <ele>490.8</ele>
        <time>2019-08-20T07:55:14Z</time>
        <sat>7</sat>
      </trkpt>
      <trkpt lat="42.439154" lon="-2.521313">
        <ele>491.4</ele>
        <time>2019-08-20T07:55:21Z</time>
        <sat>7</sat>
      </trkpt>
      <trkpt lat="42.439173" lon="-2.521339">
        <ele>491.6</ele>
        <time>2019-08-20T07:55:23Z</time>
        <sat>8</sat>
      </trkpt>
      <trkpt lat="42.439192" lon="-2.521428">
        <ele>492.0</ele>
        <time>2019-08-20T07:55:28Z</time>
        <sat>8</sat>
      </trkpt>
      <trkpt lat="42.439213" lon="-2.521489">
        <ele>492.2</ele>
        <time>2019-08-20T07:55:32Z</time>
        <sat>8</sat>
      </trkpt>
      <trkpt lat="42.439266" lon="-2.521669">
        <ele>492.9</ele>
        <time>2019-08-20T07:55:44Z</time>
        <sat>8</sat>
      </trkpt>
      <trkpt lat="42.439316" lon="-2.521790">
        <ele>493.4</ele>
        <time>2019-08-20T07:55:52Z</time>
        <sat>8</sat>
      </trkpt>
      <trkpt lat="42.439354" lon="-2.521921">
        <ele>494.2</ele>
        <time>2019-08-20T07:56:00Z</time>
        <sat>8</sat>
      </trkpt>
      <trkpt lat="42.439403" lon="-2.522110">
        <ele>495.4</ele>
        <time>2019-08-20T07:56:12Z</time>
        <sat>8</sat>
      </trkpt>
      <trkpt lat="42.439438" lon="-2.522287">
        <ele>496.5</ele>
        <time>2019-08-20T07:56:23Z</time>
        <sat>8</sat>
      </trkpt>
      <trkpt lat="42.439448" lon="-2.522393">
        <ele>497.2</ele>
        <time>2019-08-20T07:56:30Z</time>
        <sat>7</sat>
      </trkpt>
      <trkpt lat="42.439484" lon="-2.522506">
        <ele>497.9</ele>
        <time>2019-08-20T07:56:38Z</time>
        <sat>8</sat>
      </trkpt>
      <trkpt lat="42.439554" lon="-2.522651">
        <ele>498.6</ele>
        <time>2019-08-20T07:56:55Z</time>
        <sat>8</sat>
      </trkpt>
      <trkpt lat="42.439596" lon="-2.522761">
        <ele>498.9</ele>
        <time>2019-08-20T07:57:14Z</time>
        <sat>7</sat>
      </trkpt>
      <trkpt lat="42.439629" lon="-2.522816">
        <ele>498.9</ele>
        <time>2019-08-20T07:57:18Z</time>
        <sat>7</sat>
      </trkpt>
      <trkpt lat="42.439648" lon="-2.522869">
        <ele>499.0</ele>
        <time>2019-08-20T07:57:21Z</time>
        <sat>7</sat>
      </trkpt>
      <trkpt lat="42.439742" lon="-2.522983">
        <ele>499.7</ele>
        <time>2019-08-20T07:57:31Z</time>
        <sat>7</sat>
      </trkpt>
      <trkpt lat="42.439878" lon="-2.523185">
        <ele>501.3</ele>
        <time>2019-08-20T07:57:47Z</time>
        <sat>7</sat>
      </trkpt>
      <trkpt lat="42.439919" lon="-2.523279">
        <ele>501.9</ele>
        <time>2019-08-20T07:57:53Z</time>
        <sat>7</sat>
      </trkpt>
      <trkpt lat="42.439955" lon="-2.523339">
        <ele>502.0</ele>
        <time>2019-08-20T07:57:57Z</time>
        <sat>7</sat>
      </trkpt>
      <trkpt lat="42.439989" lon="-2.523455">
        <ele>502.5</ele>
        <time>2019-08-20T07:58:04Z</time>
        <sat>7</sat>
      </trkpt>
      <trkpt lat="42.440063" lon="-2.523645">
        <ele>503.0</ele>
        <time>2019-08-20T07:58:16Z</time>
        <sat>7</sat>
      </trkpt>
      <trkpt lat="42.440076" lon="-2.523694">
        <ele>503.2</ele>
        <time>2019-08-20T07:58:19Z</time>
        <sat>7</sat>
      </trkpt>
      <trkpt lat="42.440098" lon="-2.523899">
        <ele>503.6</ele>
        <time>2019-08-20T07:58:31Z</time>
        <sat>7</sat>
      </trkpt>
      <trkpt lat="42.440088" lon="-2.523985">
        <ele>503.7</ele>
        <time>2019-08-20T07:58:36Z</time>
        <sat>7</sat>
      </trkpt>
      <trkpt lat="42.440046" lon="-2.524173">
        <ele>503.6</ele>
        <time>2019-08-20T07:58:47Z</time>
        <sat>7</sat>
      </trkpt>
      <trkpt lat="42.440042" lon="-2.524224">
        <ele>503.6</ele>
        <time>2019-08-20T07:58:50Z</time>
        <sat>7</sat>
      </trkpt>
      <trkpt lat="42.439994" lon="-2.524470">
        <ele>504.7</ele>
        <time>2019-08-20T07:59:05Z</time>
        <sat>7</sat>
      </trkpt>
      <trkpt lat="42.439980" lon="-2.524555">
        <ele>505.8</ele>
        <time>2019-08-20T07:59:10Z</time>
        <sat>7</sat>
      </trkpt>
      <trkpt lat="42.439964" lon="-2.524609">
        <ele>506.4</ele>
        <time>2019-08-20T07:59:13Z</time>
        <sat>7</sat>
      </trkpt>
      <trkpt lat="42.439956" lon="-2.524697">
        <ele>507.4</ele>
        <time>2019-08-20T07:59:18Z</time>
        <sat>7</sat>
      </trkpt>
      <trkpt lat="42.439920" lon="-2.524909">
        <ele>509.3</ele>
        <time>2019-08-20T07:59:30Z</time>
        <sat>7</sat>
      </trkpt>
      <trkpt lat="42.439894" lon="-2.525079">
        <ele>510.5</ele>
        <time>2019-08-20T07:59:42Z</time>
        <sat>7</sat>
      </trkpt>
      <trkpt lat="42.439894" lon="-2.525171">
        <ele>510.8</ele>
        <time>2019-08-20T07:59:47Z</time>
        <sat>7</sat>
      </trkpt>
      <trkpt lat="42.439877" lon="-2.525295">
        <ele>510.8</ele>
        <time>2019-08-20T07:59:54Z</time>
        <sat>7</sat>
      </trkpt>
      <trkpt lat="42.439876" lon="-2.525403">
        <ele>510.8</ele>
        <time>2019-08-20T08:00:00Z</time>
        <sat>7</sat>
      </trkpt>
      <trkpt lat="42.439865" lon="-2.525476">
        <ele>510.7</ele>
        <time>2019-08-20T08:00:04Z</time>
        <sat>7</sat>
      </trkpt>
      <trkpt lat="42.439864" lon="-2.525605">
        <ele>510.7</ele>
        <time>2019-08-20T08:00:11Z</time>
        <sat>7</sat>
      </trkpt>
      <trkpt lat="42.439848" lon="-2.525747">
        <ele>510.6</ele>
        <time>2019-08-20T08:00:19Z</time>
        <sat>7</sat>
      </trkpt>
      <trkpt lat="42.439848" lon="-2.525850">
        <ele>510.5</ele>
        <time>2019-08-20T08:00:25Z</time>
        <sat>7</sat>
      </trkpt>
      <trkpt lat="42.439833" lon="-2.525976">
        <ele>510.4</ele>
        <time>2019-08-20T08:00:32Z</time>
        <sat>7</sat>
      </trkpt>
      <trkpt lat="42.439821" lon="-2.526204">
        <ele>510.2</ele>
        <time>2019-08-20T08:00:45Z</time>
        <sat>7</sat>
      </trkpt>
      <trkpt lat="42.439821" lon="-2.526272">
        <ele>510.0</ele>
        <time>2019-08-20T08:00:49Z</time>
        <sat>7</sat>
      </trkpt>
      <trkpt lat="42.439813" lon="-2.526334">
        <ele>509.7</ele>
        <time>2019-08-20T08:00:53Z</time>
        <sat>7</sat>
      </trkpt>
      <trkpt lat="42.439814" lon="-2.526470">
        <ele>509.4</ele>
        <time>2019-08-20T08:01:01Z</time>
        <sat>7</sat>
      </trkpt>
      <trkpt lat="42.439799" lon="-2.526642">
        <ele>509.3</ele>
        <time>2019-08-20T08:01:11Z</time>
        <sat>7</sat>
      </trkpt>
      <trkpt lat="42.439788" lon="-2.526702">
        <ele>509.3</ele>
        <time>2019-08-20T08:01:15Z</time>
        <sat>7</sat>
      </trkpt>
      <trkpt lat="42.439789" lon="-2.526896">
        <ele>509.0</ele>
        <time>2019-08-20T08:01:32Z</time>
        <sat>7</sat>
      </trkpt>
      <trkpt lat="42.439784" lon="-2.527039">
        <ele>508.7</ele>
        <time>2019-08-20T08:01:41Z</time>
        <sat>7</sat>
      </trkpt>
      <trkpt lat="42.439784" lon="-2.527171">
        <ele>508.1</ele>
        <time>2019-08-20T08:01:49Z</time>
        <sat>7</sat>
      </trkpt>
      <trkpt lat="42.439773" lon="-2.527254">
        <ele>507.7</ele>
        <time>2019-08-20T08:01:54Z</time>
        <sat>7</sat>
      </trkpt>
      <trkpt lat="42.439771" lon="-2.527357">
        <ele>506.9</ele>
        <time>2019-08-20T08:02:00Z</time>
        <sat>7</sat>
      </trkpt>
      <trkpt lat="42.439767" lon="-2.527387">
        <ele>506.6</ele>
        <time>2019-08-20T08:02:02Z</time>
        <sat>7</sat>
      </trkpt>
      <trkpt lat="42.439760" lon="-2.527530">
        <ele>505.3</ele>
        <time>2019-08-20T08:02:10Z</time>
        <sat>7</sat>
      </trkpt>
      <trkpt lat="42.439737" lon="-2.527773">
        <ele>503.5</ele>
        <time>2019-08-20T08:02:24Z</time>
        <sat>7</sat>
      </trkpt>
      <trkpt lat="42.439718" lon="-2.527861">
        <ele>503.2</ele>
        <time>2019-08-20T08:02:29Z</time>
        <sat>6</sat>
      </trkpt>
      <trkpt lat="42.439698" lon="-2.528019">
        <ele>502.6</ele>
        <time>2019-08-20T08:02:38Z</time>
        <sat>7</sat>
      </trkpt>
      <trkpt lat="42.439670" lon="-2.528220">
        <ele>502.1</ele>
        <time>2019-08-20T08:02:49Z</time>
        <sat>7</sat>
      </trkpt>
      <trkpt lat="42.439644" lon="-2.528325">
        <ele>502.0</ele>
        <time>2019-08-20T08:02:55Z</time>
        <sat>7</sat>
      </trkpt>
      <trkpt lat="42.439628" lon="-2.528449">
        <ele>502.0</ele>
        <time>2019-08-20T08:03:02Z</time>
        <sat>6</sat>
      </trkpt>
      <trkpt lat="42.439585" lon="-2.528647">
        <ele>502.2</ele>
        <time>2019-08-20T08:03:17Z</time>
        <sat>7</sat>
      </trkpt>
      <trkpt lat="42.439566" lon="-2.528814">
        <ele>502.0</ele>
        <time>2019-08-20T08:03:27Z</time>
        <sat>7</sat>
      </trkpt>
      <trkpt lat="42.439573" lon="-2.528938">
        <ele>501.4</ele>
        <time>2019-08-20T08:03:34Z</time>
        <sat>7</sat>
      </trkpt>
      <trkpt lat="42.439553" lon="-2.529164">
        <ele>499.7</ele>
        <time>2019-08-20T08:03:47Z</time>
        <sat>7</sat>
      </trkpt>
      <trkpt lat="42.439502" lon="-2.529393">
        <ele>498.5</ele>
        <time>2019-08-20T08:04:00Z</time>
        <sat>7</sat>
      </trkpt>
      <trkpt lat="42.439457" lon="-2.529600">
        <ele>498.0</ele>
        <time>2019-08-20T08:04:12Z</time>
        <sat>7</sat>
      </trkpt>
      <trkpt lat="42.439411" lon="-2.529788">
        <ele>497.2</ele>
        <time>2019-08-20T08:04:23Z</time>
        <sat>7</sat>
      </trkpt>
      <trkpt lat="42.439369" lon="-2.529965">
        <ele>496.7</ele>
        <time>2019-08-20T08:04:34Z</time>
        <sat>7</sat>
      </trkpt>
      <trkpt lat="42.439348" lon="-2.530185">
        <ele>495.9</ele>
        <time>2019-08-20T08:04:47Z</time>
        <sat>7</sat>
      </trkpt>
      <trkpt lat="42.439315" lon="-2.530401">
        <ele>495.1</ele>
        <time>2019-08-20T08:05:00Z</time>
        <sat>7</sat>
      </trkpt>
      <trkpt lat="42.439277" lon="-2.530561">
        <ele>494.6</ele>
        <time>2019-08-20T08:05:10Z</time>
        <sat>7</sat>
      </trkpt>
      <trkpt lat="42.439262" lon="-2.530641">
        <ele>494.3</ele>
        <time>2019-08-20T08:05:15Z</time>
        <sat>6</sat>
      </trkpt>
      <trkpt lat="42.439242" lon="-2.530880">
        <ele>493.6</ele>
        <time>2019-08-20T08:05:31Z</time>
        <sat>6</sat>
      </trkpt>
      <trkpt lat="42.439227" lon="-2.530935">
        <ele>493.4</ele>
        <time>2019-08-20T08:05:34Z</time>
        <sat>6</sat>
      </trkpt>
      <trkpt lat="42.439172" lon="-2.531059">
        <ele>493.3</ele>
        <time>2019-08-20T08:05:52Z</time>
        <sat>6</sat>
      </trkpt>
      <trkpt lat="42.439151" lon="-2.531168">
        <ele>493.0</ele>
        <time>2019-08-20T08:06:06Z</time>
        <sat>5</sat>
      </trkpt>
      <trkpt lat="42.439152" lon="-2.531217">
        <ele>493.3</ele>
        <time>2019-08-20T08:06:09Z</time>
        <sat>6</sat>
      </trkpt>
      <trkpt lat="42.439124" lon="-2.531316">
        <ele>493.2</ele>
        <time>2019-08-20T08:06:15Z</time>
        <sat>6</sat>
      </trkpt>
      <trkpt lat="42.439111" lon="-2.531334">
        <ele>493.2</ele>
        <time>2019-08-20T08:06:16Z</time>
        <sat>6</sat>
      </trkpt>
      <trkpt lat="42.439051" lon="-2.531543">
        <ele>492.8</ele>
        <time>2019-08-20T08:06:30Z</time>
        <sat>7</sat>
      </trkpt>
      <trkpt lat="42.439037" lon="-2.531547">
        <ele>492.8</ele>
        <time>2019-08-20T08:06:40Z</time>
        <sat>7</sat>
      </trkpt>
      <trkpt lat="42.438992" lon="-2.531665">
        <ele>492.9</ele>
        <time>2019-08-20T08:07:05Z</time>
        <sat>7</sat>
      </trkpt>
      <trkpt lat="42.438934" lon="-2.531835">
        <ele>492.8</ele>
        <time>2019-08-20T08:07:16Z</time>
        <sat>7</sat>
      </trkpt>
      <trkpt lat="42.438900" lon="-2.531998">
        <ele>492.9</ele>
        <time>2019-08-20T08:07:25Z</time>
        <sat>7</sat>
      </trkpt>
      <trkpt lat="42.438874" lon="-2.532147">
        <ele>492.9</ele>
        <time>2019-08-20T08:07:33Z</time>
        <sat>7</sat>
      </trkpt>
      <trkpt lat="42.438861" lon="-2.532265">
        <ele>492.8</ele>
        <time>2019-08-20T08:07:40Z</time>
        <sat>7</sat>
      </trkpt>
      <trkpt lat="42.438852" lon="-2.532426">
        <ele>492.3</ele>
        <time>2019-08-20T08:07:50Z</time>
        <sat>7</sat>
      </trkpt>
      <trkpt lat="42.438836" lon="-2.532510">
        <ele>492.2</ele>
        <time>2019-08-20T08:07:55Z</time>
        <sat>7</sat>
      </trkpt>
      <trkpt lat="42.438839" lon="-2.532555">
        <ele>492.2</ele>
        <time>2019-08-20T08:07:58Z</time>
        <sat>7</sat>
      </trkpt>
      <trkpt lat="42.438829" lon="-2.532667">
        <ele>492.2</ele>
        <time>2019-08-20T08:08:05Z</time>
        <sat>7</sat>
      </trkpt>
      <trkpt lat="42.438817" lon="-2.532850">
        <ele>491.8</ele>
        <time>2019-08-20T08:08:16Z</time>
        <sat>6</sat>
      </trkpt>
      <trkpt lat="42.438815" lon="-2.533064">
        <ele>491.6</ele>
        <time>2019-08-20T08:08:28Z</time>
        <sat>7</sat>
      </trkpt>
      <trkpt lat="42.438819" lon="-2.533152">
        <ele>491.5</ele>
        <time>2019-08-20T08:08:33Z</time>
        <sat>7</sat>
      </trkpt>
      <trkpt lat="42.438810" lon="-2.533206">
        <ele>491.4</ele>
        <time>2019-08-20T08:08:36Z</time>
        <sat>7</sat>
      </trkpt>
      <trkpt lat="42.438790" lon="-2.533411">
        <ele>490.9</ele>
        <time>2019-08-20T08:08:49Z</time>
        <sat>6</sat>
      </trkpt>
      <trkpt lat="42.438769" lon="-2.533523">
        <ele>490.5</ele>
        <time>2019-08-20T08:08:56Z</time>
        <sat>7</sat>
      </trkpt>
      <trkpt lat="42.438754" lon="-2.533666">
        <ele>490.1</ele>
        <time>2019-08-20T08:09:04Z</time>
        <sat>7</sat>
      </trkpt>
      <trkpt lat="42.438741" lon="-2.533731">
        <ele>490.0</ele>
        <time>2019-08-20T08:09:08Z</time>
        <sat>7</sat>
      </trkpt>
      <trkpt lat="42.438738" lon="-2.533828">
        <ele>489.9</ele>
        <time>2019-08-20T08:09:14Z</time>
        <sat>7</sat>
      </trkpt>
      <trkpt lat="42.438699" lon="-2.534008">
        <ele>489.8</ele>
        <time>2019-08-20T08:09:24Z</time>
        <sat>7</sat>
      </trkpt>
      <trkpt lat="42.438697" lon="-2.534072">
        <ele>489.8</ele>
        <time>2019-08-20T08:09:28Z</time>
        <sat>7</sat>
      </trkpt>
      <trkpt lat="42.438677" lon="-2.534146">
        <ele>490.0</ele>
        <time>2019-08-20T08:09:32Z</time>
        <sat>7</sat>
      </trkpt>
      <trkpt lat="42.438671" lon="-2.534235">
        <ele>490.1</ele>
        <time>2019-08-20T08:09:37Z</time>
        <sat>7</sat>
      </trkpt>
      <trkpt lat="42.438640" lon="-2.534345">
        <ele>490.5</ele>
        <time>2019-08-20T08:09:43Z</time>
        <sat>7</sat>
      </trkpt>
      <trkpt lat="42.438639" lon="-2.534414">
        <ele>490.8</ele>
        <time>2019-08-20T08:09:47Z</time>
        <sat>7</sat>
      </trkpt>
      <trkpt lat="42.438466" lon="-2.535592">
        <ele>488.7</ele>
        <time>2019-08-20T08:10:56Z</time>
        <sat>6</sat>
      </trkpt>
      <trkpt lat="42.438436" lon="-2.535688">
        <ele>488.4</ele>
        <time>2019-08-20T08:11:02Z</time>
        <sat>6</sat>
      </trkpt>
      <trkpt lat="42.438407" lon="-2.535739">
        <ele>488.2</ele>
        <time>2019-08-20T08:11:05Z</time>
        <sat>6</sat>
      </trkpt>
      <trkpt lat="42.438389" lon="-2.535802">
        <ele>488.2</ele>
        <time>2019-08-20T08:11:09Z</time>
        <sat>6</sat>
      </trkpt>
      <trkpt lat="42.438367" lon="-2.535854">
        <ele>488.0</ele>
        <time>2019-08-20T08:11:13Z</time>
        <sat>6</sat>
      </trkpt>
      <trkpt lat="42.438344" lon="-2.535941">
        <ele>487.8</ele>
        <time>2019-08-20T08:11:18Z</time>
        <sat>6</sat>
      </trkpt>
      <trkpt lat="42.438299" lon="-2.536043">
        <ele>487.5</ele>
        <time>2019-08-20T08:11:24Z</time>
        <sat>7</sat>
      </trkpt>
      <trkpt lat="42.438243" lon="-2.536214">
        <ele>487.0</ele>
        <time>2019-08-20T08:11:35Z</time>
        <sat>7</sat>
      </trkpt>
      <trkpt lat="42.438212" lon="-2.536197">
        <ele>486.6</ele>
        <time>2019-08-20T08:11:55Z</time>
        <sat>7</sat>
      </trkpt>
      <trkpt lat="42.438227" lon="-2.536292">
        <ele>486.8</ele>
        <time>2019-08-20T08:12:23Z</time>
        <sat>6</sat>
      </trkpt>
      <trkpt lat="42.438199" lon="-2.536408">
        <ele>486.7</ele>
        <time>2019-08-20T08:12:30Z</time>
        <sat>6</sat>
      </trkpt>
      <trkpt lat="42.438131" lon="-2.536561">
        <ele>486.4</ele>
        <time>2019-08-20T08:12:40Z</time>
        <sat>6</sat>
      </trkpt>
      <trkpt lat="42.438092" lon="-2.536679">
        <ele>486.2</ele>
        <time>2019-08-20T08:12:48Z</time>
        <sat>6</sat>
      </trkpt>
      <trkpt lat="42.438073" lon="-2.536713">
        <ele>486.2</ele>
        <time>2019-08-20T08:12:50Z</time>
        <sat>6</sat>
      </trkpt>
      <trkpt lat="42.438044" lon="-2.536840">
        <ele>485.7</ele>
        <time>2019-08-20T08:12:57Z</time>
        <sat>6</sat>
      </trkpt>
      <trkpt lat="42.437981" lon="-2.537017">
        <ele>485.9</ele>
        <time>2019-08-20T08:13:07Z</time>
        <sat>6</sat>
      </trkpt>
      <trkpt lat="42.437957" lon="-2.537139">
        <ele>485.9</ele>
        <time>2019-08-20T08:13:15Z</time>
        <sat>6</sat>
      </trkpt>
      <trkpt lat="42.437954" lon="-2.537203">
        <ele>485.9</ele>
        <time>2019-08-20T08:13:19Z</time>
        <sat>6</sat>
      </trkpt>
      <trkpt lat="42.437967" lon="-2.537238">
        <ele>485.6</ele>
        <time>2019-08-20T08:13:31Z</time>
        <sat>6</sat>
      </trkpt>
      <trkpt lat="42.438014" lon="-2.537315">
        <ele>485.7</ele>
        <time>2019-08-20T08:13:36Z</time>
        <sat>7</sat>
      </trkpt>
      <trkpt lat="42.438018" lon="-2.537398">
        <ele>485.7</ele>
        <time>2019-08-20T08:13:41Z</time>
        <sat>7</sat>
      </trkpt>
      <trkpt lat="42.437997" lon="-2.537485">
        <ele>485.7</ele>
        <time>2019-08-20T08:13:46Z</time>
        <sat>7</sat>
      </trkpt>
      <trkpt lat="42.437962" lon="-2.537578">
        <ele>485.6</ele>
        <time>2019-08-20T08:13:52Z</time>
        <sat>7</sat>
      </trkpt>
      <trkpt lat="42.437916" lon="-2.537646">
        <ele>486.0</ele>
        <time>2019-08-20T08:14:22Z</time>
        <sat>7</sat>
      </trkpt>
      <trkpt lat="42.437897" lon="-2.537688">
        <ele>486.1</ele>
        <time>2019-08-20T08:14:25Z</time>
        <sat>7</sat>
      </trkpt>
      <trkpt lat="42.437859" lon="-2.537850">
        <ele>486.3</ele>
        <time>2019-08-20T08:14:35Z</time>
        <sat>7</sat>
      </trkpt>
      <trkpt lat="42.437821" lon="-2.537953">
        <ele>486.3</ele>
        <time>2019-08-20T08:14:41Z</time>
        <sat>8</sat>
      </trkpt>
      <trkpt lat="42.437785" lon="-2.538115">
        <ele>486.3</ele>
        <time>2019-08-20T08:14:50Z</time>
        <sat>7</sat>
      </trkpt>
      <trkpt lat="42.437733" lon="-2.538268">
        <ele>486.6</ele>
        <time>2019-08-20T08:14:59Z</time>
        <sat>8</sat>
      </trkpt>
      <trkpt lat="42.437717" lon="-2.538360">
        <ele>486.6</ele>
        <time>2019-08-20T08:15:04Z</time>
        <sat>8</sat>
      </trkpt>
      <trkpt lat="42.437669" lon="-2.538556">
        <ele>486.9</ele>
        <time>2019-08-20T08:15:15Z</time>
        <sat>7</sat>
      </trkpt>
      <trkpt lat="42.437660" lon="-2.538631">
        <ele>487.1</ele>
        <time>2019-08-20T08:15:34Z</time>
        <sat>6</sat>
      </trkpt>
      <trkpt lat="42.437639" lon="-2.538699">
        <ele>487.1</ele>
        <time>2019-08-20T08:15:38Z</time>
        <sat>7</sat>
      </trkpt>
      <trkpt lat="42.437617" lon="-2.538869">
        <ele>487.3</ele>
        <time>2019-08-20T08:15:48Z</time>
        <sat>7</sat>
      </trkpt>
      <trkpt lat="42.437581" lon="-2.539009">
        <ele>487.2</ele>
        <time>2019-08-20T08:15:56Z</time>
        <sat>7</sat>
      </trkpt>
      <trkpt lat="42.437549" lon="-2.539198">
        <ele>487.4</ele>
        <time>2019-08-20T08:16:06Z</time>
        <sat>7</sat>
      </trkpt>
      <trkpt lat="42.437525" lon="-2.539268">
        <ele>487.3</ele>
        <time>2019-08-20T08:16:10Z</time>
        <sat>7</sat>
      </trkpt>
      <trkpt lat="42.437497" lon="-2.539399">
        <ele>487.2</ele>
        <time>2019-08-20T08:16:17Z</time>
        <sat>7</sat>
      </trkpt>
      <trkpt lat="42.437463" lon="-2.539497">
        <ele>486.9</ele>
        <time>2019-08-20T08:16:23Z</time>
        <sat>8</sat>
      </trkpt>
      <trkpt lat="42.437386" lon="-2.539680">
        <ele>486.6</ele>
        <time>2019-08-20T08:16:35Z</time>
        <sat>7</sat>
      </trkpt>
      <trkpt lat="42.437304" lon="-2.539825">
        <ele>486.0</ele>
        <time>2019-08-20T08:16:46Z</time>
        <sat>8</sat>
      </trkpt>
      <trkpt lat="42.437264" lon="-2.539882">
        <ele>485.6</ele>
        <time>2019-08-20T08:16:51Z</time>
        <sat>8</sat>
      </trkpt>
      <trkpt lat="42.437168" lon="-2.540023">
        <ele>484.2</ele>
        <time>2019-08-20T08:17:21Z</time>
        <sat>8</sat>
      </trkpt>
      <trkpt lat="42.437099" lon="-2.540146">
        <ele>483.8</ele>
        <time>2019-08-20T08:17:31Z</time>
        <sat>7</sat>
      </trkpt>
      <trkpt lat="42.437062" lon="-2.540235">
        <ele>482.3</ele>
        <time>2019-08-20T08:18:22Z</time>
        <sat>8</sat>
      </trkpt>
      <trkpt lat="42.437037" lon="-2.540261">
        <ele>482.1</ele>
        <time>2019-08-20T08:18:44Z</time>
        <sat>8</sat>
      </trkpt>
      <trkpt lat="42.436967" lon="-2.540502">
        <ele>481.1</ele>
        <time>2019-08-20T08:19:01Z</time>
        <sat>7</sat>
      </trkpt>
      <trkpt lat="42.436956" lon="-2.540533">
        <ele>481.0</ele>
        <time>2019-08-20T08:19:03Z</time>
        <sat>7</sat>
      </trkpt>
      <trkpt lat="42.436914" lon="-2.540691">
        <ele>480.2</ele>
        <time>2019-08-20T08:19:14Z</time>
        <sat>7</sat>
      </trkpt>
      <trkpt lat="42.436852" lon="-2.540882">
        <ele>479.0</ele>
        <time>2019-08-20T08:19:31Z</time>
        <sat>7</sat>
      </trkpt>
      <trkpt lat="42.436845" lon="-2.540938">
        <ele>478.8</ele>
        <time>2019-08-20T08:19:35Z</time>
        <sat>6</sat>
      </trkpt>
      <trkpt lat="42.436865" lon="-2.540954">
        <ele>478.1</ele>
        <time>2019-08-20T08:19:51Z</time>
        <sat>8</sat>
      </trkpt>
      <trkpt lat="42.436851" lon="-2.540964">
        <ele>477.3</ele>
        <time>2019-08-20T08:19:58Z</time>
        <sat>7</sat>
      </trkpt>
      <trkpt lat="42.436834" lon="-2.541181">
        <ele>477.6</ele>
        <time>2019-08-20T08:20:10Z</time>
        <sat>7</sat>
      </trkpt>
      <trkpt lat="42.436798" lon="-2.541382">
        <ele>476.8</ele>
        <time>2019-08-20T08:20:21Z</time>
        <sat>7</sat>
      </trkpt>
      <trkpt lat="42.436741" lon="-2.541563">
        <ele>475.8</ele>
        <time>2019-08-20T08:20:32Z</time>
        <sat>7</sat>
      </trkpt>
      <trkpt lat="42.436725" lon="-2.541634">
        <ele>475.5</ele>
        <time>2019-08-20T08:20:36Z</time>
        <sat>7</sat>
      </trkpt>
      <trkpt lat="42.436678" lon="-2.541781">
        <ele>475.2</ele>
        <time>2019-08-20T08:20:45Z</time>
        <sat>7</sat>
      </trkpt>
      <trkpt lat="42.436614" lon="-2.541988">
        <ele>474.6</ele>
        <time>2019-08-20T08:20:58Z</time>
        <sat>8</sat>
      </trkpt>
      <trkpt lat="42.436603" lon="-2.542042">
        <ele>473.7</ele>
        <time>2019-08-20T08:21:22Z</time>
        <sat>7</sat>
      </trkpt>
      <trkpt lat="42.436531" lon="-2.542253">
        <ele>472.8</ele>
        <time>2019-08-20T08:21:38Z</time>
        <sat>7</sat>
      </trkpt>
      <trkpt lat="42.436501" lon="-2.542411">
        <ele>471.4</ele>
        <time>2019-08-20T08:21:50Z</time>
        <sat>7</sat>
      </trkpt>
      <trkpt lat="42.436486" lon="-2.542500">
        <ele>470.9</ele>
        <time>2019-08-20T08:21:56Z</time>
        <sat>7</sat>
      </trkpt>
      <trkpt lat="42.436439" lon="-2.542584">
        <ele>470.4</ele>
        <time>2019-08-20T08:22:02Z</time>
        <sat>7</sat>
      </trkpt>
      <trkpt lat="42.436388" lon="-2.542718">
        <ele>469.6</ele>
        <time>2019-08-20T08:22:11Z</time>
        <sat>7</sat>
      </trkpt>
      <trkpt lat="42.436344" lon="-2.542894">
        <ele>468.4</ele>
        <time>2019-08-20T08:22:22Z</time>
        <sat>7</sat>
      </trkpt>
      <trkpt lat="42.436337" lon="-2.543014">
        <ele>467.5</ele>
        <time>2019-08-20T08:22:29Z</time>
        <sat>7</sat>
      </trkpt>
      <trkpt lat="42.436298" lon="-2.543209">
        <ele>466.3</ele>
        <time>2019-08-20T08:22:42Z</time>
        <sat>7</sat>
      </trkpt>
      <trkpt lat="42.436302" lon="-2.543319">
        <ele>465.9</ele>
        <time>2019-08-20T08:22:48Z</time>
        <sat>8</sat>
      </trkpt>
      <trkpt lat="42.436291" lon="-2.543442">
        <ele>465.5</ele>
        <time>2019-08-20T08:22:55Z</time>
        <sat>7</sat>
      </trkpt>
      <trkpt lat="42.436262" lon="-2.543688">
        <ele>464.3</ele>
        <time>2019-08-20T08:23:09Z</time>
        <sat>7</sat>
      </trkpt>
      <trkpt lat="42.436242" lon="-2.543791">
        <ele>463.8</ele>
        <time>2019-08-20T08:23:15Z</time>
        <sat>8</sat>
      </trkpt>
      <trkpt lat="42.436238" lon="-2.543881">
        <ele>463.5</ele>
        <time>2019-08-20T08:23:20Z</time>
        <sat>8</sat>
      </trkpt>
      <trkpt lat="42.436229" lon="-2.543930">
        <ele>463.4</ele>
        <time>2019-08-20T08:23:23Z</time>
        <sat>7</sat>
      </trkpt>
      <trkpt lat="42.436207" lon="-2.544162">
        <ele>462.9</ele>
        <time>2019-08-20T08:23:36Z</time>
        <sat>7</sat>
      </trkpt>
      <trkpt lat="42.436184" lon="-2.544289">
        <ele>462.7</ele>
        <time>2019-08-20T08:23:43Z</time>
        <sat>7</sat>
      </trkpt>
      <trkpt lat="42.436180" lon="-2.544381">
        <ele>462.6</ele>
        <time>2019-08-20T08:23:48Z</time>
        <sat>7</sat>
      </trkpt>
      <trkpt lat="42.436160" lon="-2.544484">
        <ele>462.4</ele>
        <time>2019-08-20T08:23:54Z</time>
        <sat>7</sat>
      </trkpt>
      <trkpt lat="42.436136" lon="-2.544716">
        <ele>462.2</ele>
        <time>2019-08-20T08:24:07Z</time>
        <sat>7</sat>
      </trkpt>
      <trkpt lat="42.436131" lon="-2.544809">
        <ele>462.2</ele>
        <time>2019-08-20T08:24:12Z</time>
        <sat>7</sat>
      </trkpt>
      <trkpt lat="42.436107" lon="-2.544981">
        <ele>462.1</ele>
        <time>2019-08-20T08:24:22Z</time>
        <sat>8</sat>
      </trkpt>
      <trkpt lat="42.436103" lon="-2.545048">
        <ele>462.2</ele>
        <time>2019-08-20T08:24:26Z</time>
        <sat>7</sat>
      </trkpt>
      <trkpt lat="42.436078" lon="-2.545238">
        <ele>461.9</ele>
        <time>2019-08-20T08:24:37Z</time>
        <sat>7</sat>
      </trkpt>
      <trkpt lat="42.436057" lon="-2.545298">
        <ele>461.8</ele>
        <time>2019-08-20T08:24:41Z</time>
        <sat>7</sat>
      </trkpt>
      <trkpt lat="42.436054" lon="-2.545384">
        <ele>461.7</ele>
        <time>2019-08-20T08:24:47Z</time>
        <sat>8</sat>
      </trkpt>
      <trkpt lat="42.436019" lon="-2.545578">
        <ele>461.5</ele>
        <time>2019-08-20T08:24:58Z</time>
        <sat>7</sat>
      </trkpt>
      <trkpt lat="42.435991" lon="-2.545684">
        <ele>461.4</ele>
        <time>2019-08-20T08:25:04Z</time>
        <sat>7</sat>
      </trkpt>
      <trkpt lat="42.435962" lon="-2.545748">
        <ele>461.3</ele>
        <time>2019-08-20T08:25:08Z</time>
        <sat>7</sat>
      </trkpt>
      <trkpt lat="42.435925" lon="-2.545971">
        <ele>461.1</ele>
        <time>2019-08-20T08:25:21Z</time>
        <sat>7</sat>
      </trkpt>
      <trkpt lat="42.435893" lon="-2.546110">
        <ele>461.0</ele>
        <time>2019-08-20T08:25:29Z</time>
        <sat>7</sat>
      </trkpt>
      <trkpt lat="42.435872" lon="-2.546344">
        <ele>460.8</ele>
        <time>2019-08-20T08:25:42Z</time>
        <sat>7</sat>
      </trkpt>
      <trkpt lat="42.435865" lon="-2.546446">
        <ele>460.8</ele>
        <time>2019-08-20T08:25:48Z</time>
        <sat>7</sat>
      </trkpt>
      <trkpt lat="42.435848" lon="-2.546681">
        <ele>460.8</ele>
        <time>2019-08-20T08:26:01Z</time>
        <sat>7</sat>
      </trkpt>
      <trkpt lat="42.435827" lon="-2.546872">
        <ele>460.6</ele>
        <time>2019-08-20T08:26:12Z</time>
        <sat>7</sat>
      </trkpt>
      <trkpt lat="42.435801" lon="-2.547036">
        <ele>460.5</ele>
        <time>2019-08-20T08:26:21Z</time>
        <sat>7</sat>
      </trkpt>
      <trkpt lat="42.435769" lon="-2.547283">
        <ele>460.3</ele>
        <time>2019-08-20T08:26:35Z</time>
        <sat>7</sat>
      </trkpt>
      <trkpt lat="42.435725" lon="-2.547491">
        <ele>460.0</ele>
        <time>2019-08-20T08:26:47Z</time>
        <sat>7</sat>
      </trkpt>
      <trkpt lat="42.435696" lon="-2.547607">
        <ele>459.9</ele>
        <time>2019-08-20T08:26:54Z</time>
        <sat>8</sat>
      </trkpt>
      <trkpt lat="42.435671" lon="-2.547788">
        <ele>459.7</ele>
        <time>2019-08-20T08:27:05Z</time>
        <sat>8</sat>
      </trkpt>
      <trkpt lat="42.435606" lon="-2.547975">
        <ele>459.1</ele>
        <time>2019-08-20T08:27:16Z</time>
        <sat>7</sat>
      </trkpt>
      <trkpt lat="42.435578" lon="-2.548142">
        <ele>459.0</ele>
        <time>2019-08-20T08:27:26Z</time>
        <sat>7</sat>
      </trkpt>
      <trkpt lat="42.435577" lon="-2.548334">
        <ele>459.0</ele>
        <time>2019-08-20T08:27:37Z</time>
        <sat>8</sat>
      </trkpt>
      <trkpt lat="42.435608" lon="-2.548545">
        <ele>459.0</ele>
        <time>2019-08-20T08:27:50Z</time>
        <sat>7</sat>
      </trkpt>
      <trkpt lat="42.435637" lon="-2.548650">
        <ele>459.0</ele>
        <time>2019-08-20T08:27:57Z</time>
        <sat>8</sat>
      </trkpt>
      <trkpt lat="42.435638" lon="-2.548764">
        <ele>459.1</ele>
        <time>2019-08-20T08:28:04Z</time>
        <sat>8</sat>
      </trkpt>
      <trkpt lat="42.435681" lon="-2.548936">
        <ele>459.8</ele>
        <time>2019-08-20T08:28:15Z</time>
        <sat>8</sat>
      </trkpt>
      <trkpt lat="42.435720" lon="-2.549019">
        <ele>460.2</ele>
        <time>2019-08-20T08:28:21Z</time>
        <sat>8</sat>
      </trkpt>
      <trkpt lat="42.435749" lon="-2.549106">
        <ele>460.5</ele>
        <time>2019-08-20T08:28:27Z</time>
        <sat>8</sat>
      </trkpt>
      <trkpt lat="42.435780" lon="-2.549161">
        <ele>460.7</ele>
        <time>2019-08-20T08:28:31Z</time>
        <sat>8</sat>
      </trkpt>
      <trkpt lat="42.435844" lon="-2.549268">
        <ele>461.3</ele>
        <time>2019-08-20T08:28:39Z</time>
        <sat>8</sat>
      </trkpt>
      <trkpt lat="42.435871" lon="-2.549338">
        <ele>461.8</ele>
        <time>2019-08-20T08:28:44Z</time>
        <sat>8</sat>
      </trkpt>
      <trkpt lat="42.435904" lon="-2.549394">
        <ele>462.1</ele>
        <time>2019-08-20T08:28:48Z</time>
        <sat>8</sat>
      </trkpt>
      <trkpt lat="42.435928" lon="-2.549471">
        <ele>462.7</ele>
        <time>2019-08-20T08:28:53Z</time>
        <sat>8</sat>
      </trkpt>
      <trkpt lat="42.435942" lon="-2.549553">
        <ele>463.3</ele>
        <time>2019-08-20T08:28:58Z</time>
        <sat>7</sat>
      </trkpt>
      <trkpt lat="42.435936" lon="-2.549624">
        <ele>463.7</ele>
        <time>2019-08-20T08:29:02Z</time>
        <sat>7</sat>
      </trkpt>
      <trkpt lat="42.435939" lon="-2.549679">
        <ele>464.0</ele>
        <time>2019-08-20T08:29:05Z</time>
        <sat>7</sat>
      </trkpt>
      <trkpt lat="42.435924" lon="-2.549743">
        <ele>464.3</ele>
        <time>2019-08-20T08:29:09Z</time>
        <sat>7</sat>
      </trkpt>
      <trkpt lat="42.435890" lon="-2.549798">
        <ele>464.5</ele>
        <time>2019-08-20T08:29:13Z</time>
        <sat>6</sat>
      </trkpt>
      <trkpt lat="42.435786" lon="-2.549946">
        <ele>465.1</ele>
        <time>2019-08-20T08:29:25Z</time>
        <sat>8</sat>
      </trkpt>
      <trkpt lat="42.435668" lon="-2.550087">
        <ele>465.6</ele>
        <time>2019-08-20T08:29:37Z</time>
        <sat>8</sat>
      </trkpt>
      <trkpt lat="42.435659" lon="-2.550105">
        <ele>465.9</ele>
        <time>2019-08-20T08:29:52Z</time>
        <sat>9</sat>
      </trkpt>
      <trkpt lat="42.435606" lon="-2.550171">
        <ele>465.8</ele>
        <time>2019-08-20T08:30:03Z</time>
        <sat>9</sat>
      </trkpt>
      <trkpt lat="42.435494" lon="-2.550296">
        <ele>465.8</ele>
        <time>2019-08-20T08:30:14Z</time>
        <sat>8</sat>
      </trkpt>
      <trkpt lat="42.435430" lon="-2.550374">
        <ele>465.6</ele>
        <time>2019-08-20T08:30:21Z</time>
        <sat>9</sat>
      </trkpt>
      <trkpt lat="42.435317" lon="-2.550474">
        <ele>465.0</ele>
        <time>2019-08-20T08:30:32Z</time>
        <sat>8</sat>
      </trkpt>
      <trkpt lat="42.435198" lon="-2.550623">
        <ele>463.8</ele>
        <time>2019-08-20T08:30:44Z</time>
        <sat>9</sat>
      </trkpt>
      <trkpt lat="42.435165" lon="-2.550676">
        <ele>463.4</ele>
        <time>2019-08-20T08:30:48Z</time>
        <sat>9</sat>
      </trkpt>
      <trkpt lat="42.435066" lon="-2.550820">
        <ele>461.8</ele>
        <time>2019-08-20T08:31:00Z</time>
        <sat>9</sat>
      </trkpt>
      <trkpt lat="42.435008" lon="-2.550890">
        <ele>460.6</ele>
        <time>2019-08-20T08:31:12Z</time>
        <sat>7</sat>
      </trkpt>
      <trkpt lat="42.434968" lon="-2.551003">
        <ele>459.2</ele>
        <time>2019-08-20T08:32:08Z</time>
        <sat>7</sat>
      </trkpt>
      <trkpt lat="42.434918" lon="-2.551190">
        <ele>458.8</ele>
        <time>2019-08-20T08:32:21Z</time>
        <sat>8</sat>
      </trkpt>
      <trkpt lat="42.434834" lon="-2.551402">
        <ele>457.9</ele>
        <time>2019-08-20T08:36:44Z</time>
        <sat>9</sat>
      </trkpt>
      <trkpt lat="42.434792" lon="-2.551580">
        <ele>457.9</ele>
        <time>2019-08-20T08:36:55Z</time>
        <sat>9</sat>
      </trkpt>
      <trkpt lat="42.434778" lon="-2.551707">
        <ele>458.1</ele>
        <time>2019-08-20T08:37:38Z</time>
        <sat>9</sat>
      </trkpt>
      <trkpt lat="42.434751" lon="-2.551790">
        <ele>458.2</ele>
        <time>2019-08-20T08:37:45Z</time>
        <sat>9</sat>
      </trkpt>
      <trkpt lat="42.434692" lon="-2.552024">
        <ele>457.7</ele>
        <time>2019-08-20T08:37:59Z</time>
        <sat>9</sat>
      </trkpt>
      <trkpt lat="42.434648" lon="-2.552179">
        <ele>458.1</ele>
        <time>2019-08-20T08:38:09Z</time>
        <sat>9</sat>
      </trkpt>
      <trkpt lat="42.434633" lon="-2.552259">
        <ele>458.0</ele>
        <time>2019-08-20T08:38:14Z</time>
        <sat>9</sat>
      </trkpt>
      <trkpt lat="42.434580" lon="-2.552497">
        <ele>456.8</ele>
        <time>2019-08-20T08:38:28Z</time>
        <sat>9</sat>
      </trkpt>
      <trkpt lat="42.434550" lon="-2.552576">
        <ele>458.5</ele>
        <time>2019-08-20T08:38:33Z</time>
        <sat>9</sat>
      </trkpt>
      <trkpt lat="42.434527" lon="-2.552687">
        <ele>459.1</ele>
        <time>2019-08-20T08:38:40Z</time>
        <sat>9</sat>
      </trkpt>
      <trkpt lat="42.434495" lon="-2.552765">
        <ele>458.3</ele>
        <time>2019-08-20T08:38:45Z</time>
        <sat>9</sat>
      </trkpt>
      <trkpt lat="42.434476" lon="-2.552846">
        <ele>458.0</ele>
        <time>2019-08-20T08:38:50Z</time>
        <sat>9</sat>
      </trkpt>
      <trkpt lat="42.434411" lon="-2.553035">
        <ele>458.0</ele>
        <time>2019-08-20T08:39:01Z</time>
        <sat>9</sat>
      </trkpt>
      <trkpt lat="42.434377" lon="-2.553129">
        <ele>458.2</ele>
        <time>2019-08-20T08:39:07Z</time>
        <sat>9</sat>
      </trkpt>
      <trkpt lat="42.434300" lon="-2.553301">
        <ele>457.1</ele>
        <time>2019-08-20T08:39:18Z</time>
        <sat>9</sat>
      </trkpt>
      <trkpt lat="42.434274" lon="-2.553390">
        <ele>456.7</ele>
        <time>2019-08-20T08:39:24Z</time>
        <sat>9</sat>
      </trkpt>
      <trkpt lat="42.434255" lon="-2.553502">
        <ele>455.8</ele>
        <time>2019-08-20T08:39:32Z</time>
        <sat>9</sat>
      </trkpt>
      <trkpt lat="42.434210" lon="-2.553624">
        <ele>457.3</ele>
        <time>2019-08-20T08:39:39Z</time>
        <sat>8</sat>
      </trkpt>
      <trkpt lat="42.434185" lon="-2.553710">
        <ele>457.7</ele>
        <time>2019-08-20T08:39:44Z</time>
        <sat>9</sat>
      </trkpt>
      <trkpt lat="42.434172" lon="-2.553794">
        <ele>458.0</ele>
        <time>2019-08-20T08:39:49Z</time>
        <sat>9</sat>
      </trkpt>
      <trkpt lat="42.434128" lon="-2.553934">
        <ele>458.2</ele>
        <time>2019-08-20T08:39:57Z</time>
        <sat>9</sat>
      </trkpt>
      <trkpt lat="42.434106" lon="-2.554034">
        <ele>458.3</ele>
        <time>2019-08-20T08:40:03Z</time>
        <sat>9</sat>
      </trkpt>
      <trkpt lat="42.434050" lon="-2.554217">
        <ele>458.6</ele>
        <time>2019-08-20T08:40:14Z</time>
        <sat>9</sat>
      </trkpt>
      <trkpt lat="42.434015" lon="-2.554308">
        <ele>458.6</ele>
        <time>2019-08-20T08:40:21Z</time>
        <sat>9</sat>
      </trkpt>
      <trkpt lat="42.434000" lon="-2.554375">
        <ele>458.6</ele>
        <time>2019-08-20T08:40:25Z</time>
        <sat>9</sat>
      </trkpt>
      <trkpt lat="42.433950" lon="-2.554528">
        <ele>458.8</ele>
        <time>2019-08-20T08:41:23Z</time>
        <sat>9</sat>
      </trkpt>
      <trkpt lat="42.433921" lon="-2.554593">
        <ele>458.9</ele>
        <time>2019-08-20T08:41:27Z</time>
        <sat>9</sat>
      </trkpt>
      <trkpt lat="42.433900" lon="-2.554672">
        <ele>458.9</ele>
        <time>2019-08-20T08:41:32Z</time>
        <sat>9</sat>
      </trkpt>
      <trkpt lat="42.433869" lon="-2.554749">
        <ele>458.9</ele>
        <time>2019-08-20T08:41:37Z</time>
        <sat>9</sat>
      </trkpt>
      <trkpt lat="42.433808" lon="-2.554925">
        <ele>458.9</ele>
        <time>2019-08-20T08:41:48Z</time>
        <sat>9</sat>
      </trkpt>
      <trkpt lat="42.433772" lon="-2.555057">
        <ele>459.0</ele>
        <time>2019-08-20T08:41:56Z</time>
        <sat>9</sat>
      </trkpt>
      <trkpt lat="42.433732" lon="-2.555242">
        <ele>459.0</ele>
        <time>2019-08-20T08:42:07Z</time>
        <sat>9</sat>
      </trkpt>
      <trkpt lat="42.433689" lon="-2.555523">
        <ele>458.8</ele>
        <time>2019-08-20T08:45:51Z</time>
        <sat>8</sat>
      </trkpt>
      <trkpt lat="42.433673" lon="-2.555593">
        <ele>458.8</ele>
        <time>2019-08-20T08:45:55Z</time>
        <sat>8</sat>
      </trkpt>
      <trkpt lat="42.433609" lon="-2.555811">
        <ele>458.8</ele>
        <time>2019-08-20T08:46:08Z</time>
        <sat>8</sat>
      </trkpt>
      <trkpt lat="42.433585" lon="-2.555865">
        <ele>458.9</ele>
        <time>2019-08-20T08:46:12Z</time>
        <sat>8</sat>
      </trkpt>
      <trkpt lat="42.433556" lon="-2.555986">
        <ele>459.1</ele>
        <time>2019-08-20T08:46:19Z</time>
        <sat>8</sat>
      </trkpt>
      <trkpt lat="42.433499" lon="-2.556184">
        <ele>459.5</ele>
        <time>2019-08-20T08:46:31Z</time>
        <sat>8</sat>
      </trkpt>
      <trkpt lat="42.433459" lon="-2.556289">
        <ele>459.7</ele>
        <time>2019-08-20T08:46:37Z</time>
        <sat>8</sat>
      </trkpt>
      <trkpt lat="42.433403" lon="-2.556480">
        <ele>459.6</ele>
        <time>2019-08-20T08:46:49Z</time>
        <sat>8</sat>
      </trkpt>
      <trkpt lat="42.433384" lon="-2.556564">
        <ele>459.6</ele>
        <time>2019-08-20T08:46:54Z</time>
        <sat>8</sat>
      </trkpt>
      <trkpt lat="42.433329" lon="-2.556768">
        <ele>459.9</ele>
        <time>2019-08-20T08:47:06Z</time>
        <sat>7</sat>
      </trkpt>
      <trkpt lat="42.433264" lon="-2.556951">
        <ele>459.9</ele>
        <time>2019-08-20T08:47:17Z</time>
        <sat>8</sat>
      </trkpt>
      <trkpt lat="42.433257" lon="-2.556986">
        <ele>459.9</ele>
        <time>2019-08-20T08:47:19Z</time>
        <sat>8</sat>
      </trkpt>
      <trkpt lat="42.433216" lon="-2.557107">
        <ele>460.3</ele>
        <time>2019-08-20T08:47:26Z</time>
        <sat>8</sat>
      </trkpt>
      <trkpt lat="42.433208" lon="-2.557160">
        <ele>460.3</ele>
        <time>2019-08-20T08:47:29Z</time>
        <sat>8</sat>
      </trkpt>
      <trkpt lat="42.433156" lon="-2.557376">
        <ele>460.5</ele>
        <time>2019-08-20T08:47:42Z</time>
        <sat>8</sat>
      </trkpt>
      <trkpt lat="42.433139" lon="-2.557424">
        <ele>460.5</ele>
        <time>2019-08-20T08:47:45Z</time>
        <sat>8</sat>
      </trkpt>
      <trkpt lat="42.433102" lon="-2.557582">
        <ele>460.8</ele>
        <time>2019-08-20T08:47:54Z</time>
        <sat>8</sat>
      </trkpt>
      <trkpt lat="42.433080" lon="-2.557647">
        <ele>460.9</ele>
        <time>2019-08-20T08:47:58Z</time>
        <sat>8</sat>
      </trkpt>
      <trkpt lat="42.433065" lon="-2.557726">
        <ele>461.1</ele>
        <time>2019-08-20T08:48:03Z</time>
        <sat>8</sat>
      </trkpt>
      <trkpt lat="42.433030" lon="-2.557803">
        <ele>461.2</ele>
        <time>2019-08-20T08:48:07Z</time>
        <sat>8</sat>
      </trkpt>
      <trkpt lat="42.432982" lon="-2.558010">
        <ele>461.9</ele>
        <time>2019-08-20T08:48:19Z</time>
        <sat>8</sat>
      </trkpt>
      <trkpt lat="42.432950" lon="-2.558111">
        <ele>462.4</ele>
        <time>2019-08-20T08:48:25Z</time>
        <sat>8</sat>
      </trkpt>
      <trkpt lat="42.432903" lon="-2.558322">
        <ele>463.8</ele>
        <time>2019-08-20T08:48:38Z</time>
        <sat>8</sat>
      </trkpt>
      <trkpt lat="42.432843" lon="-2.558522">
        <ele>465.4</ele>
        <time>2019-08-20T08:48:51Z</time>
        <sat>9</sat>
      </trkpt>
      <trkpt lat="42.432819" lon="-2.558559">
        <ele>465.7</ele>
        <time>2019-08-20T08:48:57Z</time>
        <sat>7</sat>
      </trkpt>
      <trkpt lat="42.432791" lon="-2.558615">
        <ele>466.1</ele>
        <time>2019-08-20T08:49:05Z</time>
        <sat>8</sat>
      </trkpt>
      <trkpt lat="42.432779" lon="-2.558680">
        <ele>466.2</ele>
        <time>2019-08-20T08:49:09Z</time>
        <sat>8</sat>
      </trkpt>
      <trkpt lat="42.432748" lon="-2.558749">
        <ele>466.5</ele>
        <time>2019-08-20T08:49:14Z</time>
        <sat>7</sat>
      </trkpt>
      <trkpt lat="42.432624" lon="-2.559018">
        <ele>468.4</ele>
        <time>2019-08-20T08:49:57Z</time>
        <sat>8</sat>
      </trkpt>
      <trkpt lat="42.432602" lon="-2.559117">
        <ele>469.4</ele>
        <time>2019-08-20T08:50:03Z</time>
        <sat>8</sat>
      </trkpt>
      <trkpt lat="42.432631" lon="-2.559209">
        <ele>470.3</ele>
        <time>2019-08-20T08:50:09Z</time>
        <sat>8</sat>
      </trkpt>
      <trkpt lat="42.432647" lon="-2.559302">
        <ele>472.3</ele>
        <time>2019-08-20T08:50:25Z</time>
        <sat>6</sat>
      </trkpt>
      <trkpt lat="42.432615" lon="-2.559334">
        <ele>472.9</ele>
        <time>2019-08-20T08:50:39Z</time>
        <sat>6</sat>
      </trkpt>
      <trkpt lat="42.432551" lon="-2.559297">
        <ele>473.7</ele>
        <time>2019-08-20T08:50:49Z</time>
        <sat>7</sat>
      </trkpt>
      <trkpt lat="42.432487" lon="-2.559277">
        <ele>475.2</ele>
        <time>2019-08-20T08:50:57Z</time>
        <sat>7</sat>
      </trkpt>
      <trkpt lat="42.432403" lon="-2.559280">
        <ele>477.5</ele>
        <time>2019-08-20T08:51:11Z</time>
        <sat>8</sat>
      </trkpt>
      <trkpt lat="42.432330" lon="-2.559310">
        <ele>477.9</ele>
        <time>2019-08-20T08:51:16Z</time>
        <sat>8</sat>
      </trkpt>
      <trkpt lat="42.432265" lon="-2.559318">
        <ele>478.1</ele>
        <time>2019-08-20T08:51:22Z</time>
        <sat>9</sat>
      </trkpt>
      <trkpt lat="42.432220" lon="-2.559315">
        <ele>478.2</ele>
        <time>2019-08-20T08:51:27Z</time>
        <sat>8</sat>
      </trkpt>
      <trkpt lat="42.432174" lon="-2.559326">
        <ele>478.3</ele>
        <time>2019-08-20T08:51:35Z</time>
        <sat>9</sat>
      </trkpt>
      <trkpt lat="42.432143" lon="-2.559301">
        <ele>478.3</ele>
        <time>2019-08-20T08:51:39Z</time>
        <sat>8</sat>
      </trkpt>
      <trkpt lat="42.432010" lon="-2.559268">
        <ele>478.5</ele>
        <time>2019-08-20T08:51:54Z</time>
        <sat>7</sat>
      </trkpt>
      <trkpt lat="42.431992" lon="-2.559275">
        <ele>478.8</ele>
        <time>2019-08-20T08:52:11Z</time>
        <sat>6</sat>
      </trkpt>
      <trkpt lat="42.431934" lon="-2.559243">
        <ele>487.1</ele>
        <time>2019-08-20T09:09:23Z</time>
        <sat>8</sat>
      </trkpt>
      <trkpt lat="42.431872" lon="-2.559247">
        <ele>487.1</ele>
        <time>2019-08-20T09:09:30Z</time>
        <sat>8</sat>
      </trkpt>
      <trkpt lat="42.431769" lon="-2.559357">
        <ele>487.6</ele>
        <time>2019-08-20T09:09:43Z</time>
        <sat>7</sat>
      </trkpt>
      <trkpt lat="42.431731" lon="-2.559393">
        <ele>488.8</ele>
        <time>2019-08-20T09:09:54Z</time>
        <sat>7</sat>
      </trkpt>
      <trkpt lat="42.431646" lon="-2.559438">
        <ele>489.4</ele>
        <time>2019-08-20T09:10:02Z</time>
        <sat>7</sat>
      </trkpt>
      <trkpt lat="42.431519" lon="-2.559479">
        <ele>491.1</ele>
        <time>2019-08-20T09:10:14Z</time>
        <sat>7</sat>
      </trkpt>
      <trkpt lat="42.431469" lon="-2.559472">
        <ele>492.5</ele>
        <time>2019-08-20T09:10:24Z</time>
        <sat>8</sat>
      </trkpt>
      <trkpt lat="42.431464" lon="-2.559483">
        <ele>493.7</ele>
        <time>2019-08-20T09:10:51Z</time>
        <sat>8</sat>
      </trkpt>
      <trkpt lat="42.431322" lon="-2.559452">
        <ele>494.5</ele>
        <time>2019-08-20T09:11:06Z</time>
        <sat>8</sat>
      </trkpt>
      <trkpt lat="42.431261" lon="-2.559463">
        <ele>495.4</ele>
        <time>2019-08-20T09:11:12Z</time>
        <sat>7</sat>
      </trkpt>
      <trkpt lat="42.431200" lon="-2.559456">
        <ele>496.6</ele>
        <time>2019-08-20T09:11:21Z</time>
        <sat>7</sat>
      </trkpt>
      <trkpt lat="42.431164" lon="-2.559425">
        <ele>497.0</ele>
        <time>2019-08-20T09:11:25Z</time>
        <sat>7</sat>
      </trkpt>
      <trkpt lat="42.431122" lon="-2.559440">
        <ele>497.5</ele>
        <time>2019-08-20T09:11:29Z</time>
        <sat>7</sat>
      </trkpt>
      <trkpt lat="42.431048" lon="-2.559448">
        <ele>498.5</ele>
        <time>2019-08-20T09:11:37Z</time>
        <sat>7</sat>
      </trkpt>
      <trkpt lat="42.430996" lon="-2.559442">
        <ele>499.1</ele>
        <time>2019-08-20T09:11:42Z</time>
        <sat>8</sat>
      </trkpt>
      <trkpt lat="42.430889" lon="-2.559462">
        <ele>500.4</ele>
        <time>2019-08-20T09:11:53Z</time>
        <sat>7</sat>
      </trkpt>
      <trkpt lat="42.430782" lon="-2.559503">
        <ele>501.9</ele>
        <time>2019-08-20T09:12:04Z</time>
        <sat>7</sat>
      </trkpt>
      <trkpt lat="42.430738" lon="-2.559500">
        <ele>502.4</ele>
        <time>2019-08-20T09:12:08Z</time>
        <sat>6</sat>
      </trkpt>
      <trkpt lat="42.430691" lon="-2.559525">
        <ele>503.1</ele>
        <time>2019-08-20T09:12:12Z</time>
        <sat>7</sat>
      </trkpt>
      <trkpt lat="42.430636" lon="-2.559581">
        <ele>503.7</ele>
        <time>2019-08-20T09:12:17Z</time>
        <sat>7</sat>
      </trkpt>
      <trkpt lat="42.430600" lon="-2.559582">
        <ele>504.2</ele>
        <time>2019-08-20T09:12:21Z</time>
        <sat>6</sat>
      </trkpt>
      <trkpt lat="42.430402" lon="-2.559609">
        <ele>505.9</ele>
        <time>2019-08-20T09:12:38Z</time>
        <sat>7</sat>
      </trkpt>
      <trkpt lat="42.430325" lon="-2.559617">
        <ele>506.5</ele>
        <time>2019-08-20T09:12:44Z</time>
        <sat>8</sat>
      </trkpt>
      <trkpt lat="42.430221" lon="-2.559603">
        <ele>507.6</ele>
        <time>2019-08-20T09:13:25Z</time>
        <sat>8</sat>
      </trkpt>
      <trkpt lat="42.430150" lon="-2.559630">
        <ele>507.9</ele>
        <time>2019-08-20T09:13:32Z</time>
        <sat>8</sat>
      </trkpt>
      <trkpt lat="42.430088" lon="-2.559696">
        <ele>507.7</ele>
        <time>2019-08-20T09:13:38Z</time>
        <sat>7</sat>
      </trkpt>
      <trkpt lat="42.430055" lon="-2.559745">
        <ele>508.1</ele>
        <time>2019-08-20T09:13:43Z</time>
        <sat>7</sat>
      </trkpt>
      <trkpt lat="42.429995" lon="-2.559788">
        <ele>508.7</ele>
        <time>2019-08-20T09:13:50Z</time>
        <sat>7</sat>
      </trkpt>
      <trkpt lat="42.429945" lon="-2.559871">
        <ele>509.0</ele>
        <time>2019-08-20T09:13:56Z</time>
        <sat>7</sat>
      </trkpt>
      <trkpt lat="42.429847" lon="-2.559960">
        <ele>509.2</ele>
        <time>2019-08-20T09:14:05Z</time>
        <sat>7</sat>
      </trkpt>
      <trkpt lat="42.429805" lon="-2.560006">
        <ele>509.4</ele>
        <time>2019-08-20T09:14:10Z</time>
        <sat>7</sat>
      </trkpt>
      <trkpt lat="42.429744" lon="-2.560136">
        <ele>509.7</ele>
        <time>2019-08-20T09:14:21Z</time>
        <sat>7</sat>
      </trkpt>
      <trkpt lat="42.429703" lon="-2.560317">
        <ele>510.0</ele>
        <time>2019-08-20T09:14:31Z</time>
        <sat>7</sat>
      </trkpt>
      <trkpt lat="42.429662" lon="-2.560397">
        <ele>510.1</ele>
        <time>2019-08-20T09:14:37Z</time>
        <sat>7</sat>
      </trkpt>
      <trkpt lat="42.429641" lon="-2.560428">
        <ele>510.0</ele>
        <time>2019-08-20T09:14:40Z</time>
        <sat>8</sat>
      </trkpt>
      <trkpt lat="42.429641" lon="-2.560455">
        <ele>509.9</ele>
        <time>2019-08-20T09:14:47Z</time>
        <sat>8</sat>
      </trkpt>
      <trkpt lat="42.429622" lon="-2.560491">
        <ele>509.7</ele>
        <time>2019-08-20T09:14:54Z</time>
        <sat>7</sat>
      </trkpt>
      <trkpt lat="42.429611" lon="-2.560589">
        <ele>509.6</ele>
        <time>2019-08-20T09:15:01Z</time>
        <sat>6</sat>
      </trkpt>
      <trkpt lat="42.429552" lon="-2.560782">
        <ele>509.8</ele>
        <time>2019-08-20T09:15:10Z</time>
        <sat>7</sat>
      </trkpt>
      <trkpt lat="42.429519" lon="-2.560882">
        <ele>509.8</ele>
        <time>2019-08-20T09:15:13Z</time>
        <sat>7</sat>
      </trkpt>
      <trkpt lat="42.429497" lon="-2.561093">
        <ele>510.3</ele>
        <time>2019-08-20T09:15:49Z</time>
        <sat>6</sat>
      </trkpt>
      <trkpt lat="42.429458" lon="-2.561161">
        <ele>510.4</ele>
        <time>2019-08-20T09:15:55Z</time>
        <sat>7</sat>
      </trkpt>
      <trkpt lat="42.429420" lon="-2.561409">
        <ele>510.5</ele>
        <time>2019-08-20T09:16:41Z</time>
        <sat>7</sat>
      </trkpt>
      <trkpt lat="42.429417" lon="-2.561457">
        <ele>510.0</ele>
        <time>2019-08-20T09:16:49Z</time>
        <sat>8</sat>
      </trkpt>
      <trkpt lat="42.429407" lon="-2.561605">
        <ele>512.9</ele>
        <time>2019-08-20T09:47:33Z</time>
        <sat>8</sat>
      </trkpt>
      <trkpt lat="42.429470" lon="-2.562072">
        <ele>515.1</ele>
        <time>2019-08-20T09:48:41Z</time>
        <sat>6</sat>
      </trkpt>
      <trkpt lat="42.429531" lon="-2.562098">
        <ele>515.5</ele>
        <time>2019-08-20T09:48:45Z</time>
        <sat>7</sat>
      </trkpt>
      <trkpt lat="42.429560" lon="-2.562135">
        <ele>515.7</ele>
        <time>2019-08-20T09:48:48Z</time>
        <sat>8</sat>
      </trkpt>
      <trkpt lat="42.429578" lon="-2.562205">
        <ele>516.0</ele>
        <time>2019-08-20T09:48:52Z</time>
        <sat>8</sat>
      </trkpt>
      <trkpt lat="42.429590" lon="-2.562236">
        <ele>516.1</ele>
        <time>2019-08-20T09:48:54Z</time>
        <sat>6</sat>
      </trkpt>
      <trkpt lat="42.429622" lon="-2.562286">
        <ele>517.1</ele>
        <time>2019-08-20T09:49:05Z</time>
        <sat>7</sat>
      </trkpt>
      <trkpt lat="42.429672" lon="-2.562278">
        <ele>517.7</ele>
        <time>2019-08-20T09:49:18Z</time>
        <sat>6</sat>
      </trkpt>
      <trkpt lat="42.429727" lon="-2.562336">
        <ele>517.9</ele>
        <time>2019-08-20T09:49:28Z</time>
        <sat>5</sat>
      </trkpt>
      <trkpt lat="42.429728" lon="-2.562365">
        <ele>518.0</ele>
        <time>2019-08-20T09:49:34Z</time>
        <sat>7</sat>
      </trkpt>
      <trkpt lat="42.429757" lon="-2.562401">
        <ele>518.0</ele>
        <time>2019-08-20T09:49:40Z</time>
        <sat>6</sat>
      </trkpt>
      <trkpt lat="42.429841" lon="-2.562442">
        <ele>518.2</ele>
        <time>2019-08-20T09:49:49Z</time>
        <sat>6</sat>
      </trkpt>
      <trkpt lat="42.429920" lon="-2.562531">
        <ele>518.7</ele>
        <time>2019-08-20T09:49:59Z</time>
        <sat>7</sat>
      </trkpt>
      <trkpt lat="42.429989" lon="-2.562551">
        <ele>519.1</ele>
        <time>2019-08-20T09:50:05Z</time>
        <sat>7</sat>
      </trkpt>
      <trkpt lat="42.430220" lon="-2.562713">
        <ele>519.8</ele>
        <time>2019-08-20T09:50:56Z</time>
        <sat>7</sat>
      </trkpt>
      <trkpt lat="42.430294" lon="-2.562759">
        <ele>519.9</ele>
        <time>2019-08-20T09:51:03Z</time>
        <sat>7</sat>
      </trkpt>
      <trkpt lat="42.430343" lon="-2.562838">
        <ele>519.9</ele>
        <time>2019-08-20T09:51:07Z</time>
        <sat>7</sat>
      </trkpt>
      <trkpt lat="42.430381" lon="-2.562884">
        <ele>519.8</ele>
        <time>2019-08-20T09:51:11Z</time>
        <sat>7</sat>
      </trkpt>
      <trkpt lat="42.430515" lon="-2.562875">
        <ele>519.3</ele>
        <time>2019-08-20T09:51:20Z</time>
        <sat>7</sat>
      </trkpt>
      <trkpt lat="42.430634" lon="-2.562958">
        <ele>518.7</ele>
        <time>2019-08-20T09:51:42Z</time>
        <sat>7</sat>
      </trkpt>
      <trkpt lat="42.430807" lon="-2.563061">
        <ele>517.9</ele>
        <time>2019-08-20T09:52:15Z</time>
        <sat>7</sat>
      </trkpt>
      <trkpt lat="42.430821" lon="-2.563124">
        <ele>517.6</ele>
        <time>2019-08-20T09:52:22Z</time>
        <sat>8</sat>
      </trkpt>
      <trkpt lat="42.430797" lon="-2.563210">
        <ele>517.1</ele>
        <time>2019-08-20T09:52:29Z</time>
        <sat>8</sat>
      </trkpt>
      <trkpt lat="42.430798" lon="-2.563371">
        <ele>515.1</ele>
        <time>2019-08-20T09:52:40Z</time>
        <sat>8</sat>
      </trkpt>
      <trkpt lat="42.430787" lon="-2.563419">
        <ele>511.6</ele>
        <time>2019-08-20T09:52:47Z</time>
        <sat>8</sat>
      </trkpt>
      <trkpt lat="42.430808" lon="-2.563535">
        <ele>514.5</ele>
        <time>2019-08-20T09:52:56Z</time>
        <sat>8</sat>
      </trkpt>
      <trkpt lat="42.430810" lon="-2.563730">
        <ele>512.8</ele>
        <time>2019-08-20T09:53:08Z</time>
        <sat>8</sat>
      </trkpt>
      <trkpt lat="42.430800" lon="-2.563803">
        <ele>512.4</ele>
        <time>2019-08-20T09:53:11Z</time>
        <sat>8</sat>
      </trkpt>
      <trkpt lat="42.430771" lon="-2.564085">
        <ele>509.9</ele>
        <time>2019-08-20T09:53:28Z</time>
        <sat>8</sat>
      </trkpt>
      <trkpt lat="42.430775" lon="-2.564163">
        <ele>509.3</ele>
        <time>2019-08-20T09:53:32Z</time>
        <sat>8</sat>
      </trkpt>
      <trkpt lat="42.430750" lon="-2.564276">
        <ele>508.6</ele>
        <time>2019-08-20T09:53:38Z</time>
        <sat>7</sat>
      </trkpt>
      <trkpt lat="42.430733" lon="-2.564448">
        <ele>506.9</ele>
        <time>2019-08-20T09:53:49Z</time>
        <sat>8</sat>
      </trkpt>
      <trkpt lat="42.430704" lon="-2.564599">
        <ele>506.3</ele>
        <time>2019-08-20T09:53:57Z</time>
        <sat>7</sat>
      </trkpt>
      <trkpt lat="42.430639" lon="-2.564745">
        <ele>505.6</ele>
        <time>2019-08-20T09:54:10Z</time>
        <sat>8</sat>
      </trkpt>
      <trkpt lat="42.430602" lon="-2.564952">
        <ele>505.0</ele>
        <time>2019-08-20T09:54:23Z</time>
        <sat>8</sat>
      </trkpt>
      <trkpt lat="42.430606" lon="-2.564980">
        <ele>504.9</ele>
        <time>2019-08-20T09:54:25Z</time>
        <sat>9</sat>
      </trkpt>
      <trkpt lat="42.430598" lon="-2.565120">
        <ele>504.4</ele>
        <time>2019-08-20T09:54:35Z</time>
        <sat>7</sat>
      </trkpt>
      <trkpt lat="42.430598" lon="-2.565212">
        <ele>504.2</ele>
        <time>2019-08-20T09:54:40Z</time>
        <sat>8</sat>
      </trkpt>
      <trkpt lat="42.430550" lon="-2.565296">
        <ele>504.1</ele>
        <time>2019-08-20T09:54:45Z</time>
        <sat>7</sat>
      </trkpt>
      <trkpt lat="42.430502" lon="-2.565511">
        <ele>503.9</ele>
        <time>2019-08-20T09:54:58Z</time>
        <sat>8</sat>
      </trkpt>
      <trkpt lat="42.430504" lon="-2.565559">
        <ele>503.9</ele>
        <time>2019-08-20T09:55:05Z</time>
        <sat>8</sat>
      </trkpt>
      <trkpt lat="42.430507" lon="-2.565555">
        <ele>504.3</ele>
        <time>2019-08-20T09:55:42Z</time>
        <sat>7</sat>
      </trkpt>
      <trkpt lat="42.430518" lon="-2.565583">
        <ele>503.8</ele>
        <time>2019-08-20T09:55:51Z</time>
        <sat>7</sat>
      </trkpt>
      <trkpt lat="42.430492" lon="-2.565658">
        <ele>503.8</ele>
        <time>2019-08-20T09:55:55Z</time>
        <sat>7</sat>
      </trkpt>
      <trkpt lat="42.430428" lon="-2.565726">
        <ele>503.8</ele>
        <time>2019-08-20T09:55:59Z</time>
        <sat>7</sat>
      </trkpt>
      <trkpt lat="42.430395" lon="-2.565839">
        <ele>504.0</ele>
        <time>2019-08-20T09:56:06Z</time>
        <sat>7</sat>
      </trkpt>
      <trkpt lat="42.430384" lon="-2.565959">
        <ele>504.0</ele>
        <time>2019-08-20T09:56:13Z</time>
        <sat>8</sat>
      </trkpt>
      <trkpt lat="42.430367" lon="-2.566039">
        <ele>502.9</ele>
        <time>2019-08-20T09:56:18Z</time>
        <sat>8</sat>
      </trkpt>
      <trkpt lat="42.430370" lon="-2.566090">
        <ele>503.6</ele>
        <time>2019-08-20T09:56:21Z</time>
        <sat>9</sat>
      </trkpt>
      <trkpt lat="42.430359" lon="-2.566175">
        <ele>503.9</ele>
        <time>2019-08-20T09:56:27Z</time>
        <sat>9</sat>
      </trkpt>
      <trkpt lat="42.430363" lon="-2.566253">
        <ele>503.6</ele>
        <time>2019-08-20T09:56:33Z</time>
        <sat>9</sat>
      </trkpt>
      <trkpt lat="42.430333" lon="-2.566419">
        <ele>503.1</ele>
        <time>2019-08-20T09:56:43Z</time>
        <sat>9</sat>
      </trkpt>
      <trkpt lat="42.430296" lon="-2.566496">
        <ele>503.1</ele>
        <time>2019-08-20T09:56:47Z</time>
        <sat>9</sat>
      </trkpt>
      <trkpt lat="42.430291" lon="-2.566562">
        <ele>503.2</ele>
        <time>2019-08-20T09:56:51Z</time>
        <sat>8</sat>
      </trkpt>
      <trkpt lat="42.430272" lon="-2.566661">
        <ele>503.5</ele>
        <time>2019-08-20T09:56:57Z</time>
        <sat>8</sat>
      </trkpt>
      <trkpt lat="42.430252" lon="-2.566806">
        <ele>503.7</ele>
        <time>2019-08-20T09:57:06Z</time>
        <sat>9</sat>
      </trkpt>
      <trkpt lat="42.430246" lon="-2.566913">
        <ele>503.8</ele>
        <time>2019-08-20T09:57:13Z</time>
        <sat>7</sat>
      </trkpt>
      <trkpt lat="42.430253" lon="-2.566957">
        <ele>503.8</ele>
        <time>2019-08-20T09:57:17Z</time>
        <sat>8</sat>
      </trkpt>
      <trkpt lat="42.430229" lon="-2.567061">
        <ele>503.7</ele>
        <time>2019-08-20T09:57:24Z</time>
        <sat>8</sat>
      </trkpt>
      <trkpt lat="42.430206" lon="-2.567277">
        <ele>503.3</ele>
        <time>2019-08-20T09:57:36Z</time>
        <sat>8</sat>
      </trkpt>
      <trkpt lat="42.430208" lon="-2.567355">
        <ele>503.2</ele>
        <time>2019-08-20T09:57:41Z</time>
        <sat>7</sat>
      </trkpt>
      <trkpt lat="42.430200" lon="-2.567415">
        <ele>503.4</ele>
        <time>2019-08-20T09:57:44Z</time>
        <sat>8</sat>
      </trkpt>
      <trkpt lat="42.430172" lon="-2.567486">
        <ele>498.3</ele>
        <time>2019-08-20T09:57:48Z</time>
        <sat>8</sat>
      </trkpt>
      <trkpt lat="42.430172" lon="-2.567553">
        <ele>502.2</ele>
        <time>2019-08-20T09:57:51Z</time>
        <sat>8</sat>
      </trkpt>
      <trkpt lat="42.430135" lon="-2.567640">
        <ele>504.7</ele>
        <time>2019-08-20T09:57:55Z</time>
        <sat>8</sat>
      </trkpt>
      <trkpt lat="42.430114" lon="-2.567734">
        <ele>505.8</ele>
        <time>2019-08-20T09:58:00Z</time>
        <sat>9</sat>
      </trkpt>
      <trkpt lat="42.430115" lon="-2.567770">
        <ele>506.0</ele>
        <time>2019-08-20T09:58:03Z</time>
        <sat>8</sat>
      </trkpt>
      <trkpt lat="42.430064" lon="-2.567992">
        <ele>506.8</ele>
        <time>2019-08-20T09:58:16Z</time>
        <sat>9</sat>
      </trkpt>
      <trkpt lat="42.430004" lon="-2.568216">
        <ele>506.0</ele>
        <time>2019-08-20T09:58:30Z</time>
        <sat>9</sat>
      </trkpt>
      <trkpt lat="42.429963" lon="-2.568285">
        <ele>506.0</ele>
        <time>2019-08-20T09:58:35Z</time>
        <sat>9</sat>
      </trkpt>
      <trkpt lat="42.429940" lon="-2.568366">
        <ele>505.9</ele>
        <time>2019-08-20T09:58:40Z</time>
        <sat>9</sat>
      </trkpt>
      <trkpt lat="42.429872" lon="-2.568541">
        <ele>505.9</ele>
        <time>2019-08-20T09:58:51Z</time>
        <sat>9</sat>
      </trkpt>
      <trkpt lat="42.429851" lon="-2.568580">
        <ele>505.9</ele>
        <time>2019-08-20T09:58:54Z</time>
        <sat>9</sat>
      </trkpt>
      <trkpt lat="42.429824" lon="-2.568677">
        <ele>505.9</ele>
        <time>2019-08-20T09:59:00Z</time>
        <sat>9</sat>
      </trkpt>
      <trkpt lat="42.429767" lon="-2.568787">
        <ele>506.3</ele>
        <time>2019-08-20T09:59:08Z</time>
        <sat>9</sat>
      </trkpt>
      <trkpt lat="42.429692" lon="-2.568948">
        <ele>506.5</ele>
        <time>2019-08-20T09:59:25Z</time>
        <sat>9</sat>
      </trkpt>
      <trkpt lat="42.429588" lon="-2.569172">
        <ele>506.7</ele>
        <time>2019-08-20T09:59:53Z</time>
        <sat>10</sat>
      </trkpt>
      <trkpt lat="42.429533" lon="-2.569294">
        <ele>506.9</ele>
        <time>2019-08-20T10:00:08Z</time>
        <sat>10</sat>
      </trkpt>
      <trkpt lat="42.429521" lon="-2.569302">
        <ele>507.0</ele>
        <time>2019-08-20T10:00:22Z</time>
        <sat>10</sat>
      </trkpt>
      <trkpt lat="42.429520" lon="-2.569337">
        <ele>506.7</ele>
        <time>2019-08-20T10:00:34Z</time>
        <sat>10</sat>
      </trkpt>
      <trkpt lat="42.429424" lon="-2.569525">
        <ele>506.7</ele>
        <time>2019-08-20T10:00:47Z</time>
        <sat>10</sat>
      </trkpt>
      <trkpt lat="42.429379" lon="-2.569634">
        <ele>506.9</ele>
        <time>2019-08-20T10:00:54Z</time>
        <sat>10</sat>
      </trkpt>
      <trkpt lat="42.429305" lon="-2.569787">
        <ele>507.0</ele>
        <time>2019-08-20T10:01:04Z</time>
        <sat>10</sat>
      </trkpt>
      <trkpt lat="42.429239" lon="-2.569924">
        <ele>506.9</ele>
        <time>2019-08-20T10:01:13Z</time>
        <sat>10</sat>
      </trkpt>
      <trkpt lat="42.429217" lon="-2.569987">
        <ele>506.9</ele>
        <time>2019-08-20T10:01:17Z</time>
        <sat>10</sat>
      </trkpt>
      <trkpt lat="42.429125" lon="-2.570173">
        <ele>507.1</ele>
        <time>2019-08-20T10:01:29Z</time>
        <sat>10</sat>
      </trkpt>
      <trkpt lat="42.429076" lon="-2.570259">
        <ele>507.3</ele>
        <time>2019-08-20T10:01:35Z</time>
        <sat>10</sat>
      </trkpt>
      <trkpt lat="42.429006" lon="-2.570407">
        <ele>507.4</ele>
        <time>2019-08-20T10:01:45Z</time>
        <sat>10</sat>
      </trkpt>
      <trkpt lat="42.428981" lon="-2.570473">
        <ele>507.4</ele>
        <time>2019-08-20T10:01:49Z</time>
        <sat>10</sat>
      </trkpt>
      <trkpt lat="42.428935" lon="-2.570557">
        <ele>507.6</ele>
        <time>2019-08-20T10:01:55Z</time>
        <sat>10</sat>
      </trkpt>
      <trkpt lat="42.428917" lon="-2.570603">
        <ele>507.6</ele>
        <time>2019-08-20T10:01:58Z</time>
        <sat>10</sat>
      </trkpt>
      <trkpt lat="42.428851" lon="-2.570713">
        <ele>507.8</ele>
        <time>2019-08-20T10:02:06Z</time>
        <sat>10</sat>
      </trkpt>
      <trkpt lat="42.428814" lon="-2.570812">
        <ele>507.8</ele>
        <time>2019-08-20T10:02:12Z</time>
        <sat>10</sat>
      </trkpt>
      <trkpt lat="42.428719" lon="-2.571013">
        <ele>507.9</ele>
        <time>2019-08-20T10:02:25Z</time>
        <sat>10</sat>
      </trkpt>
      <trkpt lat="42.428694" lon="-2.571055">
        <ele>507.9</ele>
        <time>2019-08-20T10:02:28Z</time>
        <sat>10</sat>
      </trkpt>
      <trkpt lat="42.428662" lon="-2.571136">
        <ele>508.1</ele>
        <time>2019-08-20T10:02:33Z</time>
        <sat>10</sat>
      </trkpt>
      <trkpt lat="42.428623" lon="-2.571203">
        <ele>508.3</ele>
        <time>2019-08-20T10:02:38Z</time>
        <sat>10</sat>
      </trkpt>
      <trkpt lat="42.428593" lon="-2.571283">
        <ele>508.4</ele>
        <time>2019-08-20T10:02:43Z</time>
        <sat>10</sat>
      </trkpt>
      <trkpt lat="42.428540" lon="-2.571382">
        <ele>508.6</ele>
        <time>2019-08-20T10:02:50Z</time>
        <sat>10</sat>
      </trkpt>
      <trkpt lat="42.428523" lon="-2.571430">
        <ele>508.6</ele>
        <time>2019-08-20T10:02:53Z</time>
        <sat>10</sat>
      </trkpt>
      <trkpt lat="42.428468" lon="-2.571528">
        <ele>508.7</ele>
        <time>2019-08-20T10:03:00Z</time>
        <sat>10</sat>
      </trkpt>
      <trkpt lat="42.428443" lon="-2.571593">
        <ele>508.8</ele>
        <time>2019-08-20T10:03:04Z</time>
        <sat>10</sat>
      </trkpt>
      <trkpt lat="42.428372" lon="-2.571739">
        <ele>509.0</ele>
        <time>2019-08-20T10:03:14Z</time>
        <sat>10</sat>
      </trkpt>
      <trkpt lat="42.428324" lon="-2.571822">
        <ele>509.1</ele>
        <time>2019-08-20T10:03:20Z</time>
        <sat>10</sat>
      </trkpt>
      <trkpt lat="42.428301" lon="-2.571887">
        <ele>509.1</ele>
        <time>2019-08-20T10:03:24Z</time>
        <sat>10</sat>
      </trkpt>
      <trkpt lat="42.428209" lon="-2.572045">
        <ele>508.9</ele>
        <time>2019-08-20T10:03:39Z</time>
        <sat>10</sat>
      </trkpt>
      <trkpt lat="42.428186" lon="-2.572119">
        <ele>508.9</ele>
        <time>2019-08-20T10:03:44Z</time>
        <sat>10</sat>
      </trkpt>
      <trkpt lat="42.428124" lon="-2.572241">
        <ele>509.1</ele>
        <time>2019-08-20T10:03:53Z</time>
        <sat>10</sat>
      </trkpt>
      <trkpt lat="42.428063" lon="-2.572345">
        <ele>509.0</ele>
        <time>2019-08-20T10:04:00Z</time>
        <sat>10</sat>
      </trkpt>
      <trkpt lat="42.428026" lon="-2.572442">
        <ele>509.0</ele>
        <time>2019-08-20T10:04:06Z</time>
        <sat>10</sat>
      </trkpt>
      <trkpt lat="42.427970" lon="-2.572559">
        <ele>509.1</ele>
        <time>2019-08-20T10:04:14Z</time>
        <sat>10</sat>
      </trkpt>
      <trkpt lat="42.427965" lon="-2.572566">
        <ele>509.1</ele>
        <time>2019-08-20T10:04:24Z</time>
        <sat>10</sat>
      </trkpt>
      <trkpt lat="42.427946" lon="-2.572631">
        <ele>509.2</ele>
        <time>2019-08-20T10:04:28Z</time>
        <sat>10</sat>
      </trkpt>
      <trkpt lat="42.427852" lon="-2.572827">
        <ele>509.4</ele>
        <time>2019-08-20T10:04:41Z</time>
        <sat>10</sat>
      </trkpt>
      <trkpt lat="42.427819" lon="-2.572887">
        <ele>509.3</ele>
        <time>2019-08-20T10:04:45Z</time>
        <sat>10</sat>
      </trkpt>
      <trkpt lat="42.427717" lon="-2.573099">
        <ele>509.4</ele>
        <time>2019-08-20T10:04:59Z</time>
        <sat>10</sat>
      </trkpt>
      <trkpt lat="42.427686" lon="-2.573178">
        <ele>509.6</ele>
        <time>2019-08-20T10:05:04Z</time>
        <sat>10</sat>
      </trkpt>
      <trkpt lat="42.427667" lon="-2.573206">
        <ele>509.8</ele>
        <time>2019-08-20T10:05:06Z</time>
        <sat>10</sat>
      </trkpt>
      <trkpt lat="42.427619" lon="-2.573311">
        <ele>510.0</ele>
        <time>2019-08-20T10:05:13Z</time>
        <sat>10</sat>
      </trkpt>
      <trkpt lat="42.427587" lon="-2.573361">
        <ele>510.2</ele>
        <time>2019-08-20T10:05:17Z</time>
        <sat>10</sat>
      </trkpt>
      <trkpt lat="42.427554" lon="-2.573393">
        <ele>510.4</ele>
        <time>2019-08-20T10:05:27Z</time>
        <sat>10</sat>
      </trkpt>
      <trkpt lat="42.427432" lon="-2.573646">
        <ele>511.5</ele>
        <time>2019-08-20T10:09:42Z</time>
        <sat>10</sat>
      </trkpt>
      <trkpt lat="42.427417" lon="-2.573689">
        <ele>511.5</ele>
        <time>2019-08-20T10:09:46Z</time>
        <sat>10</sat>
      </trkpt>
      <trkpt lat="42.427321" lon="-2.573829">
        <ele>511.4</ele>
        <time>2019-08-20T10:09:58Z</time>
        <sat>10</sat>
      </trkpt>
      <trkpt lat="42.427248" lon="-2.573955">
        <ele>511.7</ele>
        <time>2019-08-20T10:10:08Z</time>
        <sat>10</sat>
      </trkpt>
      <trkpt lat="42.427206" lon="-2.574055">
        <ele>512.0</ele>
        <time>2019-08-20T10:10:15Z</time>
        <sat>10</sat>
      </trkpt>
      <trkpt lat="42.427191" lon="-2.574080">
        <ele>512.1</ele>
        <time>2019-08-20T10:10:17Z</time>
        <sat>10</sat>
      </trkpt>
      <trkpt lat="42.427109" lon="-2.574258">
        <ele>512.5</ele>
        <time>2019-08-20T10:10:30Z</time>
        <sat>10</sat>
      </trkpt>
      <trkpt lat="42.427018" lon="-2.574450">
        <ele>513.0</ele>
        <time>2019-08-20T10:10:44Z</time>
        <sat>10</sat>
      </trkpt>
      <trkpt lat="42.426948" lon="-2.574587">
        <ele>513.2</ele>
        <time>2019-08-20T10:10:54Z</time>
        <sat>10</sat>
      </trkpt>
      <trkpt lat="42.426872" lon="-2.574760">
        <ele>513.6</ele>
        <time>2019-08-20T10:11:07Z</time>
        <sat>10</sat>
      </trkpt>
      <trkpt lat="42.426887" lon="-2.574761">
        <ele>514.0</ele>
        <time>2019-08-20T10:11:16Z</time>
        <sat>8</sat>
      </trkpt>
      <trkpt lat="42.426800" lon="-2.574883">
        <ele>514.3</ele>
        <time>2019-08-20T10:11:47Z</time>
        <sat>10</sat>
      </trkpt>
      <trkpt lat="42.426748" lon="-2.575002">
        <ele>514.2</ele>
        <time>2019-08-20T10:11:55Z</time>
        <sat>10</sat>
      </trkpt>
      <trkpt lat="42.426664" lon="-2.575191">
        <ele>514.6</ele>
        <time>2019-08-20T10:12:07Z</time>
        <sat>10</sat>
      </trkpt>
      <trkpt lat="42.426653" lon="-2.575225">
        <ele>514.6</ele>
        <time>2019-08-20T10:12:09Z</time>
        <sat>10</sat>
      </trkpt>
      <trkpt lat="42.426604" lon="-2.575325">
        <ele>514.8</ele>
        <time>2019-08-20T10:12:16Z</time>
        <sat>10</sat>
      </trkpt>
      <trkpt lat="42.426553" lon="-2.575446">
        <ele>515.4</ele>
        <time>2019-08-20T10:12:24Z</time>
        <sat>10</sat>
      </trkpt>
      <trkpt lat="42.426484" lon="-2.575649">
        <ele>515.9</ele>
        <time>2019-08-20T10:12:37Z</time>
        <sat>10</sat>
      </trkpt>
      <trkpt lat="42.426454" lon="-2.575709">
        <ele>516.1</ele>
        <time>2019-08-20T10:12:41Z</time>
        <sat>10</sat>
      </trkpt>
      <trkpt lat="42.426431" lon="-2.575777">
        <ele>516.2</ele>
        <time>2019-08-20T10:12:45Z</time>
        <sat>10</sat>
      </trkpt>
      <trkpt lat="42.426380" lon="-2.575884">
        <ele>516.4</ele>
        <time>2019-08-20T10:12:52Z</time>
        <sat>10</sat>
      </trkpt>
      <trkpt lat="42.426369" lon="-2.575918">
        <ele>516.4</ele>
        <time>2019-08-20T10:12:54Z</time>
        <sat>10</sat>
      </trkpt>
      <trkpt lat="42.426298" lon="-2.576085">
        <ele>516.8</ele>
        <time>2019-08-20T10:13:05Z</time>
        <sat>10</sat>
      </trkpt>
      <trkpt lat="42.426253" lon="-2.576176">
        <ele>517.0</ele>
        <time>2019-08-20T10:13:11Z</time>
        <sat>10</sat>
      </trkpt>
      <trkpt lat="42.426244" lon="-2.576208">
        <ele>517.0</ele>
        <time>2019-08-20T10:13:13Z</time>
        <sat>10</sat>
      </trkpt>
      <trkpt lat="42.426201" lon="-2.576297">
        <ele>517.2</ele>
        <time>2019-08-20T10:13:19Z</time>
        <sat>10</sat>
      </trkpt>
      <trkpt lat="42.426180" lon="-2.576361">
        <ele>517.3</ele>
        <time>2019-08-20T10:13:23Z</time>
        <sat>10</sat>
      </trkpt>
      <trkpt lat="42.426142" lon="-2.576436">
        <ele>517.5</ele>
        <time>2019-08-20T10:13:28Z</time>
        <sat>10</sat>
      </trkpt>
      <trkpt lat="42.426119" lon="-2.576499">
        <ele>517.7</ele>
        <time>2019-08-20T10:13:32Z</time>
        <sat>10</sat>
      </trkpt>
      <trkpt lat="42.426088" lon="-2.576559">
        <ele>517.8</ele>
        <time>2019-08-20T10:13:36Z</time>
        <sat>10</sat>
      </trkpt>
      <trkpt lat="42.426067" lon="-2.576620">
        <ele>517.9</ele>
        <time>2019-08-20T10:13:40Z</time>
        <sat>10</sat>
      </trkpt>
      <trkpt lat="42.426037" lon="-2.576678">
        <ele>518.1</ele>
        <time>2019-08-20T10:13:44Z</time>
        <sat>10</sat>
      </trkpt>
      <trkpt lat="42.425965" lon="-2.576854">
        <ele>518.7</ele>
        <time>2019-08-20T10:13:56Z</time>
        <sat>10</sat>
      </trkpt>
      <trkpt lat="42.425904" lon="-2.576964">
        <ele>519.1</ele>
        <time>2019-08-20T10:14:04Z</time>
        <sat>10</sat>
      </trkpt>
      <trkpt lat="42.425843" lon="-2.577042">
        <ele>519.1</ele>
        <time>2019-08-20T10:14:11Z</time>
        <sat>10</sat>
      </trkpt>
      <trkpt lat="42.425762" lon="-2.577109">
        <ele>519.2</ele>
        <time>2019-08-20T10:14:19Z</time>
        <sat>10</sat>
      </trkpt>
      <trkpt lat="42.425639" lon="-2.577243">
        <ele>519.7</ele>
        <time>2019-08-20T10:14:41Z</time>
        <sat>10</sat>
      </trkpt>
      <trkpt lat="42.425584" lon="-2.577342">
        <ele>519.9</ele>
        <time>2019-08-20T10:14:48Z</time>
        <sat>10</sat>
      </trkpt>
      <trkpt lat="42.425488" lon="-2.577461">
        <ele>520.0</ele>
        <time>2019-08-20T10:14:58Z</time>
        <sat>9</sat>
      </trkpt>
      <trkpt lat="42.425418" lon="-2.577528">
        <ele>520.4</ele>
        <time>2019-08-20T10:15:05Z</time>
        <sat>9</sat>
      </trkpt>
      <trkpt lat="42.425374" lon="-2.577555">
        <ele>520.6</ele>
        <time>2019-08-20T10:15:09Z</time>
        <sat>9</sat>
      </trkpt>
      <trkpt lat="42.425234" lon="-2.577688">
        <ele>521.5</ele>
        <time>2019-08-20T10:15:24Z</time>
        <sat>10</sat>
      </trkpt>
      <trkpt lat="42.425093" lon="-2.577810">
        <ele>522.1</ele>
        <time>2019-08-20T10:15:37Z</time>
        <sat>10</sat>
      </trkpt>
      <trkpt lat="42.424972" lon="-2.577923">
        <ele>522.8</ele>
        <time>2019-08-20T10:15:48Z</time>
        <sat>10</sat>
      </trkpt>
      <trkpt lat="42.424879" lon="-2.578018">
        <ele>523.3</ele>
        <time>2019-08-20T10:15:57Z</time>
        <sat>10</sat>
      </trkpt>
      <trkpt lat="42.424835" lon="-2.578077">
        <ele>523.6</ele>
        <time>2019-08-20T10:16:02Z</time>
        <sat>10</sat>
      </trkpt>
      <trkpt lat="42.424722" lon="-2.578214">
        <ele>524.0</ele>
        <time>2019-08-20T10:16:14Z</time>
        <sat>10</sat>
      </trkpt>
      <trkpt lat="42.424629" lon="-2.578330">
        <ele>524.4</ele>
        <time>2019-08-20T10:16:24Z</time>
        <sat>10</sat>
      </trkpt>
      <trkpt lat="42.424446" lon="-2.578422">
        <ele>525.2</ele>
        <time>2019-08-20T10:16:39Z</time>
        <sat>9</sat>
      </trkpt>
      <trkpt lat="42.424411" lon="-2.578448">
        <ele>525.3</ele>
        <time>2019-08-20T10:16:42Z</time>
        <sat>9</sat>
      </trkpt>
      <trkpt lat="42.424325" lon="-2.578489">
        <ele>525.7</ele>
        <time>2019-08-20T10:16:49Z</time>
        <sat>9</sat>
      </trkpt>
      <trkpt lat="42.424303" lon="-2.578507">
        <ele>525.9</ele>
        <time>2019-08-20T10:16:51Z</time>
        <sat>10</sat>
      </trkpt>
      <trkpt lat="42.424125" lon="-2.578609">
        <ele>526.7</ele>
        <time>2019-08-20T10:17:06Z</time>
        <sat>10</sat>
      </trkpt>
      <trkpt lat="42.424080" lon="-2.578646">
        <ele>527.0</ele>
        <time>2019-08-20T10:17:10Z</time>
        <sat>10</sat>
      </trkpt>
      <trkpt lat="42.423949" lon="-2.578728">
        <ele>527.8</ele>
        <time>2019-08-20T10:17:21Z</time>
        <sat>10</sat>
      </trkpt>
      <trkpt lat="42.423793" lon="-2.578852">
        <ele>529.0</ele>
        <time>2019-08-20T10:17:57Z</time>
        <sat>12</sat>
      </trkpt>
      <trkpt lat="42.423748" lon="-2.578877">
        <ele>529.1</ele>
        <time>2019-08-20T10:18:01Z</time>
        <sat>12</sat>
      </trkpt>
      <trkpt lat="42.423600" lon="-2.578966">
        <ele>529.5</ele>
        <time>2019-08-20T10:18:14Z</time>
        <sat>12</sat>
      </trkpt>
      <trkpt lat="42.423450" lon="-2.579065">
        <ele>529.9</ele>
        <time>2019-08-20T10:18:27Z</time>
        <sat>11</sat>
      </trkpt>
      <trkpt lat="42.423418" lon="-2.579097">
        <ele>530.0</ele>
        <time>2019-08-20T10:18:30Z</time>
        <sat>12</sat>
      </trkpt>
      <trkpt lat="42.423368" lon="-2.579127">
        <ele>530.1</ele>
        <time>2019-08-20T10:18:34Z</time>
        <sat>12</sat>
      </trkpt>
      <trkpt lat="42.423337" lon="-2.579161">
        <ele>530.2</ele>
        <time>2019-08-20T10:18:37Z</time>
        <sat>11</sat>
      </trkpt>
      <trkpt lat="42.423268" lon="-2.579206">
        <ele>530.3</ele>
        <time>2019-08-20T10:18:43Z</time>
        <sat>12</sat>
      </trkpt>
      <trkpt lat="42.423166" lon="-2.579294">
        <ele>531.0</ele>
        <time>2019-08-20T10:18:52Z</time>
        <sat>12</sat>
      </trkpt>
      <trkpt lat="42.423085" lon="-2.579385">
        <ele>531.5</ele>
        <time>2019-08-20T10:19:00Z</time>
        <sat>12</sat>
      </trkpt>
      <trkpt lat="42.423056" lon="-2.579428">
        <ele>531.7</ele>
        <time>2019-08-20T10:19:03Z</time>
        <sat>11</sat>
      </trkpt>
      <trkpt lat="42.423013" lon="-2.579466">
        <ele>532.0</ele>
        <time>2019-08-20T10:19:07Z</time>
        <sat>12</sat>
      </trkpt>
      <trkpt lat="42.422982" lon="-2.579508">
        <ele>532.2</ele>
        <time>2019-08-20T10:19:11Z</time>
        <sat>12</sat>
      </trkpt>
      <trkpt lat="42.422941" lon="-2.579546">
        <ele>532.6</ele>
        <time>2019-08-20T10:19:15Z</time>
        <sat>11</sat>
      </trkpt>
      <trkpt lat="42.422895" lon="-2.579576">
        <ele>532.9</ele>
        <time>2019-08-20T10:19:19Z</time>
        <sat>12</sat>
      </trkpt>
      <trkpt lat="42.422784" lon="-2.579632">
        <ele>533.7</ele>
        <time>2019-08-20T10:19:44Z</time>
        <sat>12</sat>
      </trkpt>
      <trkpt lat="42.422692" lon="-2.579650">
        <ele>533.8</ele>
        <time>2019-08-20T10:19:52Z</time>
        <sat>12</sat>
      </trkpt>
      <trkpt lat="42.422671" lon="-2.579664">
        <ele>533.8</ele>
        <time>2019-08-20T10:19:54Z</time>
        <sat>12</sat>
      </trkpt>
      <trkpt lat="42.422526" lon="-2.579732">
        <ele>534.1</ele>
        <time>2019-08-20T10:20:06Z</time>
        <sat>12</sat>
      </trkpt>
      <trkpt lat="42.422414" lon="-2.579806">
        <ele>534.4</ele>
        <time>2019-08-20T10:20:16Z</time>
        <sat>12</sat>
      </trkpt>
      <trkpt lat="42.422329" lon="-2.579870">
        <ele>534.1</ele>
        <time>2019-08-20T10:20:24Z</time>
        <sat>12</sat>
      </trkpt>
      <trkpt lat="42.422183" lon="-2.580018">
        <ele>534.4</ele>
        <time>2019-08-20T10:20:39Z</time>
        <sat>12</sat>
      </trkpt>
      <trkpt lat="42.422168" lon="-2.580044">
        <ele>534.3</ele>
        <time>2019-08-20T10:20:41Z</time>
        <sat>12</sat>
      </trkpt>
      <trkpt lat="42.422037" lon="-2.580188">
        <ele>535.9</ele>
        <time>2019-08-20T10:20:54Z</time>
        <sat>12</sat>
      </trkpt>
      <trkpt lat="42.422019" lon="-2.580213">
        <ele>536.1</ele>
        <time>2019-08-20T10:20:56Z</time>
        <sat>12</sat>
      </trkpt>
      <trkpt lat="42.421870" lon="-2.580352">
        <ele>537.9</ele>
        <time>2019-08-20T10:21:13Z</time>
        <sat>12</sat>
      </trkpt>
      <trkpt lat="42.421771" lon="-2.580447">
        <ele>538.3</ele>
        <time>2019-08-20T10:21:22Z</time>
        <sat>12</sat>
      </trkpt>
      <trkpt lat="42.421729" lon="-2.580512">
        <ele>538.5</ele>
        <time>2019-08-20T10:21:41Z</time>
        <sat>12</sat>
      </trkpt>
      <trkpt lat="42.421689" lon="-2.580607">
        <ele>538.6</ele>
        <time>2019-08-20T10:21:47Z</time>
        <sat>12</sat>
      </trkpt>
      <trkpt lat="42.421655" lon="-2.580664">
        <ele>538.6</ele>
        <time>2019-08-20T10:21:51Z</time>
        <sat>12</sat>
      </trkpt>
      <trkpt lat="42.421625" lon="-2.580700">
        <ele>538.7</ele>
        <time>2019-08-20T10:21:54Z</time>
        <sat>12</sat>
      </trkpt>
      <trkpt lat="42.421519" lon="-2.580806">
        <ele>539.1</ele>
        <time>2019-08-20T10:22:04Z</time>
        <sat>12</sat>
      </trkpt>
      <trkpt lat="42.421437" lon="-2.580921">
        <ele>539.7</ele>
        <time>2019-08-20T10:22:13Z</time>
        <sat>12</sat>
      </trkpt>
      <trkpt lat="42.421366" lon="-2.581104">
        <ele>540.3</ele>
        <time>2019-08-20T10:22:25Z</time>
        <sat>12</sat>
      </trkpt>
      <trkpt lat="42.421315" lon="-2.581192">
        <ele>541.1</ele>
        <time>2019-08-20T10:22:35Z</time>
        <sat>12</sat>
      </trkpt>
      <trkpt lat="42.421190" lon="-2.581377">
        <ele>541.7</ele>
        <time>2019-08-20T10:22:49Z</time>
        <sat>12</sat>
      </trkpt>
      <trkpt lat="42.421175" lon="-2.581406">
        <ele>541.8</ele>
        <time>2019-08-20T10:22:51Z</time>
        <sat>12</sat>
      </trkpt>
      <trkpt lat="42.421107" lon="-2.581494">
        <ele>542.0</ele>
        <time>2019-08-20T10:22:58Z</time>
        <sat>12</sat>
      </trkpt>
      <trkpt lat="42.421092" lon="-2.581522">
        <ele>542.2</ele>
        <time>2019-08-20T10:23:00Z</time>
        <sat>12</sat>
      </trkpt>
      <trkpt lat="42.421041" lon="-2.581581">
        <ele>542.4</ele>
        <time>2019-08-20T10:23:05Z</time>
        <sat>12</sat>
      </trkpt>
      <trkpt lat="42.421019" lon="-2.581624">
        <ele>542.5</ele>
        <time>2019-08-20T10:23:08Z</time>
        <sat>12</sat>
      </trkpt>
      <trkpt lat="42.420978" lon="-2.581668">
        <ele>542.7</ele>
        <time>2019-08-20T10:23:12Z</time>
        <sat>12</sat>
      </trkpt>
      <trkpt lat="42.420943" lon="-2.581723">
        <ele>542.8</ele>
        <time>2019-08-20T10:23:16Z</time>
        <sat>12</sat>
      </trkpt>
      <trkpt lat="42.420829" lon="-2.581847">
        <ele>543.1</ele>
        <time>2019-08-20T10:23:27Z</time>
        <sat>12</sat>
      </trkpt>
      <trkpt lat="42.420781" lon="-2.581880">
        <ele>543.3</ele>
        <time>2019-08-20T10:23:31Z</time>
        <sat>12</sat>
      </trkpt>
      <trkpt lat="42.420752" lon="-2.581925">
        <ele>543.5</ele>
        <time>2019-08-20T10:23:35Z</time>
        <sat>12</sat>
      </trkpt>
      <trkpt lat="42.420706" lon="-2.581972">
        <ele>543.8</ele>
        <time>2019-08-20T10:23:40Z</time>
        <sat>12</sat>
      </trkpt>
      <trkpt lat="42.420606" lon="-2.582105">
        <ele>544.4</ele>
        <time>2019-08-20T10:23:51Z</time>
        <sat>12</sat>
      </trkpt>
      <trkpt lat="42.420563" lon="-2.582147">
        <ele>544.9</ele>
        <time>2019-08-20T10:23:56Z</time>
        <sat>12</sat>
      </trkpt>
      <trkpt lat="42.420505" lon="-2.582200">
        <ele>545.4</ele>
        <time>2019-08-20T10:28:38Z</time>
        <sat>11</sat>
      </trkpt>
      <trkpt lat="42.420446" lon="-2.582236">
        <ele>545.7</ele>
        <time>2019-08-20T10:28:43Z</time>
        <sat>10</sat>
      </trkpt>
      <trkpt lat="42.420359" lon="-2.582300">
        <ele>546.1</ele>
        <time>2019-08-20T10:28:51Z</time>
        <sat>12</sat>
      </trkpt>
      <trkpt lat="42.420314" lon="-2.582339">
        <ele>545.1</ele>
        <time>2019-08-20T10:28:56Z</time>
        <sat>12</sat>
      </trkpt>
      <trkpt lat="42.420251" lon="-2.582373">
        <ele>547.1</ele>
        <time>2019-08-20T10:29:08Z</time>
        <sat>12</sat>
      </trkpt>
      <trkpt lat="42.420112" lon="-2.582481">
        <ele>547.1</ele>
        <time>2019-08-20T10:29:20Z</time>
        <sat>12</sat>
      </trkpt>
      <trkpt lat="42.419982" lon="-2.582590">
        <ele>547.5</ele>
        <time>2019-08-20T10:29:32Z</time>
        <sat>11</sat>
      </trkpt>
      <trkpt lat="42.419869" lon="-2.582671">
        <ele>547.9</ele>
        <time>2019-08-20T10:29:42Z</time>
        <sat>12</sat>
      </trkpt>
      <trkpt lat="42.419723" lon="-2.582792">
        <ele>548.7</ele>
        <time>2019-08-20T10:29:55Z</time>
        <sat>12</sat>
      </trkpt>
      <trkpt lat="42.419705" lon="-2.582819">
        <ele>548.8</ele>
        <time>2019-08-20T10:29:57Z</time>
        <sat>12</sat>
      </trkpt>
      <trkpt lat="42.419635" lon="-2.582896">
        <ele>549.1</ele>
        <time>2019-08-20T10:30:04Z</time>
        <sat>12</sat>
      </trkpt>
      <trkpt lat="42.419601" lon="-2.582951">
        <ele>549.3</ele>
        <time>2019-08-20T10:30:10Z</time>
        <sat>12</sat>
      </trkpt>
      <trkpt lat="42.419566" lon="-2.583045">
        <ele>549.5</ele>
        <time>2019-08-20T10:30:16Z</time>
        <sat>12</sat>
      </trkpt>
      <trkpt lat="42.419550" lon="-2.583076">
        <ele>549.5</ele>
        <time>2019-08-20T10:30:18Z</time>
        <sat>12</sat>
      </trkpt>
      <trkpt lat="42.419499" lon="-2.583263">
        <ele>549.9</ele>
        <time>2019-08-20T10:30:29Z</time>
        <sat>12</sat>
      </trkpt>
      <trkpt lat="42.419480" lon="-2.583344">
        <ele>550.0</ele>
        <time>2019-08-20T10:30:34Z</time>
        <sat>12</sat>
      </trkpt>
      <trkpt lat="42.419420" lon="-2.583475">
        <ele>549.5</ele>
        <time>2019-08-20T10:30:43Z</time>
        <sat>12</sat>
      </trkpt>
      <trkpt lat="42.419332" lon="-2.583615">
        <ele>550.9</ele>
        <time>2019-08-20T10:31:01Z</time>
        <sat>12</sat>
      </trkpt>
      <trkpt lat="42.419209" lon="-2.583752">
        <ele>551.2</ele>
        <time>2019-08-20T10:31:14Z</time>
        <sat>12</sat>
      </trkpt>
      <trkpt lat="42.419195" lon="-2.583776">
        <ele>551.2</ele>
        <time>2019-08-20T10:31:16Z</time>
        <sat>12</sat>
      </trkpt>
      <trkpt lat="42.419141" lon="-2.583843">
        <ele>551.7</ele>
        <time>2019-08-20T10:31:25Z</time>
        <sat>12</sat>
      </trkpt>
      <trkpt lat="42.419088" lon="-2.583961">
        <ele>552.0</ele>
        <time>2019-08-20T10:31:33Z</time>
        <sat>11</sat>
      </trkpt>
      <trkpt lat="42.419055" lon="-2.584009">
        <ele>552.8</ele>
        <time>2019-08-20T10:31:50Z</time>
        <sat>10</sat>
      </trkpt>
      <trkpt lat="42.419023" lon="-2.584111">
        <ele>554.0</ele>
        <time>2019-08-20T10:31:56Z</time>
        <sat>12</sat>
      </trkpt>
      <trkpt lat="42.418965" lon="-2.584232">
        <ele>553.7</ele>
        <time>2019-08-20T10:32:04Z</time>
        <sat>12</sat>
      </trkpt>
      <trkpt lat="42.418913" lon="-2.584313">
        <ele>553.6</ele>
        <time>2019-08-20T10:32:10Z</time>
        <sat>12</sat>
      </trkpt>
      <trkpt lat="42.418885" lon="-2.584374">
        <ele>553.6</ele>
        <time>2019-08-20T10:32:14Z</time>
        <sat>12</sat>
      </trkpt>
      <trkpt lat="42.418843" lon="-2.584421">
        <ele>553.7</ele>
        <time>2019-08-20T10:32:18Z</time>
        <sat>12</sat>
      </trkpt>
      <trkpt lat="42.418785" lon="-2.584517">
        <ele>553.9</ele>
        <time>2019-08-20T10:32:25Z</time>
        <sat>12</sat>
      </trkpt>
      <trkpt lat="42.418706" lon="-2.584615">
        <ele>554.3</ele>
        <time>2019-08-20T10:32:33Z</time>
        <sat>12</sat>
      </trkpt>
      <trkpt lat="42.418573" lon="-2.584688">
        <ele>554.9</ele>
        <time>2019-08-20T10:32:44Z</time>
        <sat>12</sat>
      </trkpt>
      <trkpt lat="42.418499" lon="-2.584760">
        <ele>555.2</ele>
        <time>2019-08-20T10:32:51Z</time>
        <sat>11</sat>
      </trkpt>
      <trkpt lat="42.418463" lon="-2.584782">
        <ele>555.4</ele>
        <time>2019-08-20T10:32:54Z</time>
        <sat>11</sat>
      </trkpt>
      <trkpt lat="42.418341" lon="-2.584887">
        <ele>555.8</ele>
        <time>2019-08-20T10:33:05Z</time>
        <sat>12</sat>
      </trkpt>
      <trkpt lat="42.418212" lon="-2.585029">
        <ele>556.6</ele>
        <time>2019-08-20T10:33:18Z</time>
        <sat>12</sat>
      </trkpt>
      <trkpt lat="42.418083" lon="-2.585138">
        <ele>557.4</ele>
        <time>2019-08-20T10:33:30Z</time>
        <sat>12</sat>
      </trkpt>
      <trkpt lat="42.418047" lon="-2.585181">
        <ele>557.5</ele>
        <time>2019-08-20T10:33:34Z</time>
        <sat>12</sat>
      </trkpt>
      <trkpt lat="42.417905" lon="-2.585309">
        <ele>558.2</ele>
        <time>2019-08-20T10:33:47Z</time>
        <sat>12</sat>
      </trkpt>
      <trkpt lat="42.417784" lon="-2.585434">
        <ele>559.1</ele>
        <time>2019-08-20T10:34:02Z</time>
        <sat>11</sat>
      </trkpt>
      <trkpt lat="42.417746" lon="-2.585482">
        <ele>559.2</ele>
        <time>2019-08-20T10:34:06Z</time>
        <sat>12</sat>
      </trkpt>
      <trkpt lat="42.417702" lon="-2.585521">
        <ele>559.3</ele>
        <time>2019-08-20T10:34:10Z</time>
        <sat>12</sat>
      </trkpt>
      <trkpt lat="42.417665" lon="-2.585568">
        <ele>559.5</ele>
        <time>2019-08-20T10:34:14Z</time>
        <sat>12</sat>
      </trkpt>
      <trkpt lat="42.417611" lon="-2.585618">
        <ele>559.6</ele>
        <time>2019-08-20T10:34:19Z</time>
        <sat>11</sat>
      </trkpt>
      <trkpt lat="42.417574" lon="-2.585665">
        <ele>559.7</ele>
        <time>2019-08-20T10:34:23Z</time>
        <sat>11</sat>
      </trkpt>
      <trkpt lat="42.417517" lon="-2.585714">
        <ele>560.0</ele>
        <time>2019-08-20T10:34:28Z</time>
        <sat>11</sat>
      </trkpt>
      <trkpt lat="42.417479" lon="-2.585759">
        <ele>560.1</ele>
        <time>2019-08-20T10:34:32Z</time>
        <sat>10</sat>
      </trkpt>
      <trkpt lat="42.417357" lon="-2.585865">
        <ele>560.7</ele>
        <time>2019-08-20T10:34:43Z</time>
        <sat>11</sat>
      </trkpt>
      <trkpt lat="42.417282" lon="-2.585933">
        <ele>560.9</ele>
        <time>2019-08-20T10:34:50Z</time>
        <sat>11</sat>
      </trkpt>
      <trkpt lat="42.417256" lon="-2.585949">
        <ele>561.0</ele>
        <time>2019-08-20T10:34:52Z</time>
        <sat>12</sat>
      </trkpt>
      <trkpt lat="42.417146" lon="-2.586046">
        <ele>561.4</ele>
        <time>2019-08-20T10:35:02Z</time>
        <sat>12</sat>
      </trkpt>
      <trkpt lat="42.417004" lon="-2.586190">
        <ele>561.2</ele>
        <time>2019-08-20T10:35:26Z</time>
        <sat>11</sat>
      </trkpt>
      <trkpt lat="42.416867" lon="-2.586340">
        <ele>562.2</ele>
        <time>2019-08-20T10:35:40Z</time>
        <sat>12</sat>
      </trkpt>
      <trkpt lat="42.416777" lon="-2.586446">
        <ele>563.4</ele>
        <time>2019-08-20T10:35:53Z</time>
        <sat>12</sat>
      </trkpt>
      <trkpt lat="42.416682" lon="-2.586577">
        <ele>564.1</ele>
        <time>2019-08-20T10:36:04Z</time>
        <sat>12</sat>
      </trkpt>
      <trkpt lat="42.416587" lon="-2.586715">
        <ele>564.7</ele>
        <time>2019-08-20T10:36:18Z</time>
        <sat>12</sat>
      </trkpt>
      <trkpt lat="42.416524" lon="-2.586798">
        <ele>564.9</ele>
        <time>2019-08-20T10:36:25Z</time>
        <sat>12</sat>
      </trkpt>
      <trkpt lat="42.416491" lon="-2.586831">
        <ele>565.0</ele>
        <time>2019-08-20T10:36:28Z</time>
        <sat>10</sat>
      </trkpt>
      <trkpt lat="42.416387" lon="-2.586947">
        <ele>565.8</ele>
        <time>2019-08-20T10:36:44Z</time>
        <sat>11</sat>
      </trkpt>
      <trkpt lat="42.416336" lon="-2.586990">
        <ele>566.2</ele>
        <time>2019-08-20T10:36:49Z</time>
        <sat>10</sat>
      </trkpt>
      <trkpt lat="42.416318" lon="-2.587015">
        <ele>566.3</ele>
        <time>2019-08-20T10:36:51Z</time>
        <sat>12</sat>
      </trkpt>
      <trkpt lat="42.416241" lon="-2.587076">
        <ele>566.6</ele>
        <time>2019-08-20T10:36:58Z</time>
        <sat>12</sat>
      </trkpt>
      <trkpt lat="42.416212" lon="-2.587109">
        <ele>566.7</ele>
        <time>2019-08-20T10:37:01Z</time>
        <sat>12</sat>
      </trkpt>
      <trkpt lat="42.416150" lon="-2.587142">
        <ele>566.9</ele>
        <time>2019-08-20T10:37:06Z</time>
        <sat>10</sat>
      </trkpt>
      <trkpt lat="42.416121" lon="-2.587169">
        <ele>567.0</ele>
        <time>2019-08-20T10:37:09Z</time>
        <sat>12</sat>
      </trkpt>
      <trkpt lat="42.415961" lon="-2.587252">
        <ele>567.4</ele>
        <time>2019-08-20T10:37:27Z</time>
        <sat>10</sat>
      </trkpt>
      <trkpt lat="42.415926" lon="-2.587278">
        <ele>567.5</ele>
        <time>2019-08-20T10:37:30Z</time>
        <sat>10</sat>
      </trkpt>
      <trkpt lat="42.415839" lon="-2.587318">
        <ele>567.7</ele>
        <time>2019-08-20T10:37:37Z</time>
        <sat>10</sat>
      </trkpt>
      <trkpt lat="42.415817" lon="-2.587336">
        <ele>567.8</ele>
        <time>2019-08-20T10:37:39Z</time>
        <sat>10</sat>
      </trkpt>
      <trkpt lat="42.415752" lon="-2.587358">
        <ele>568.1</ele>
        <time>2019-08-20T10:37:44Z</time>
        <sat>10</sat>
      </trkpt>
      <trkpt lat="42.415718" lon="-2.587377">
        <ele>568.3</ele>
        <time>2019-08-20T10:37:47Z</time>
        <sat>10</sat>
      </trkpt>
      <trkpt lat="42.415652" lon="-2.587395">
        <ele>568.7</ele>
        <time>2019-08-20T10:37:52Z</time>
        <sat>10</sat>
      </trkpt>
      <trkpt lat="42.415628" lon="-2.587409">
        <ele>568.8</ele>
        <time>2019-08-20T10:37:54Z</time>
        <sat>11</sat>
      </trkpt>
      <trkpt lat="42.415550" lon="-2.587436">
        <ele>569.0</ele>
        <time>2019-08-20T10:38:00Z</time>
        <sat>10</sat>
      </trkpt>
      <trkpt lat="42.415501" lon="-2.587467">
        <ele>569.3</ele>
        <time>2019-08-20T10:38:04Z</time>
        <sat>10</sat>
      </trkpt>
      <trkpt lat="42.415451" lon="-2.587484">
        <ele>569.6</ele>
        <time>2019-08-20T10:38:08Z</time>
        <sat>11</sat>
      </trkpt>
      <trkpt lat="42.415407" lon="-2.587514">
        <ele>569.9</ele>
        <time>2019-08-20T10:38:12Z</time>
        <sat>11</sat>
      </trkpt>
      <trkpt lat="42.415285" lon="-2.587562">
        <ele>570.4</ele>
        <time>2019-08-20T10:38:22Z</time>
        <sat>10</sat>
      </trkpt>
      <trkpt lat="42.415145" lon="-2.587618">
        <ele>570.7</ele>
        <time>2019-08-20T10:38:33Z</time>
        <sat>10</sat>
      </trkpt>
      <trkpt lat="42.415084" lon="-2.587663">
        <ele>571.1</ele>
        <time>2019-08-20T10:38:39Z</time>
        <sat>11</sat>
      </trkpt>
      <trkpt lat="42.415052" lon="-2.587727">
        <ele>571.3</ele>
        <time>2019-08-20T10:38:44Z</time>
        <sat>12</sat>
      </trkpt>
      <trkpt lat="42.415044" lon="-2.587789">
        <ele>571.5</ele>
        <time>2019-08-20T10:38:48Z</time>
        <sat>12</sat>
      </trkpt>
      <trkpt lat="42.415100" lon="-2.588021">
        <ele>572.0</ele>
        <time>2019-08-20T10:39:02Z</time>
        <sat>11</sat>
      </trkpt>
      <trkpt lat="42.415099" lon="-2.588227">
        <ele>572.2</ele>
        <time>2019-08-20T10:39:14Z</time>
        <sat>12</sat>
      </trkpt>
      <trkpt lat="42.415120" lon="-2.588286">
        <ele>572.2</ele>
        <time>2019-08-20T10:39:20Z</time>
        <sat>11</sat>
      </trkpt>
      <trkpt lat="42.415109" lon="-2.588268">
        <ele>571.3</ele>
        <time>2019-08-20T10:40:19Z</time>
        <sat>12</sat>
      </trkpt>
      <trkpt lat="42.415124" lon="-2.588316">
        <ele>572.1</ele>
        <time>2019-08-20T10:40:37Z</time>
        <sat>12</sat>
      </trkpt>
      <trkpt lat="42.415141" lon="-2.588472">
        <ele>570.1</ele>
        <time>2019-08-20T10:40:47Z</time>
        <sat>12</sat>
      </trkpt>
      <trkpt lat="42.415139" lon="-2.588544">
        <ele>570.9</ele>
        <time>2019-08-20T10:40:52Z</time>
        <sat>12</sat>
      </trkpt>
      <trkpt lat="42.415159" lon="-2.588651">
        <ele>572.0</ele>
        <time>2019-08-20T10:40:59Z</time>
        <sat>12</sat>
      </trkpt>
      <trkpt lat="42.415157" lon="-2.588728">
        <ele>573.1</ele>
        <time>2019-08-20T10:41:03Z</time>
        <sat>12</sat>
      </trkpt>
      <trkpt lat="42.415163" lon="-2.588914">
        <ele>573.4</ele>
        <time>2019-08-20T10:41:13Z</time>
        <sat>12</sat>
      </trkpt>
      <trkpt lat="42.415169" lon="-2.588965">
        <ele>573.3</ele>
        <time>2019-08-20T10:41:16Z</time>
        <sat>12</sat>
      </trkpt>
      <trkpt lat="42.415151" lon="-2.589035">
        <ele>573.1</ele>
        <time>2019-08-20T10:41:20Z</time>
        <sat>12</sat>
      </trkpt>
      <trkpt lat="42.415142" lon="-2.589105">
        <ele>573.1</ele>
        <time>2019-08-20T10:41:24Z</time>
        <sat>12</sat>
      </trkpt>
      <trkpt lat="42.415123" lon="-2.589174">
        <ele>573.2</ele>
        <time>2019-08-20T10:41:28Z</time>
        <sat>12</sat>
      </trkpt>
      <trkpt lat="42.415116" lon="-2.589262">
        <ele>572.5</ele>
        <time>2019-08-20T10:41:33Z</time>
        <sat>12</sat>
      </trkpt>
      <trkpt lat="42.415100" lon="-2.589325">
        <ele>572.9</ele>
        <time>2019-08-20T10:41:37Z</time>
        <sat>12</sat>
      </trkpt>
      <trkpt lat="42.415093" lon="-2.589385">
        <ele>573.6</ele>
        <time>2019-08-20T10:41:41Z</time>
        <sat>12</sat>
      </trkpt>
      <trkpt lat="42.415058" lon="-2.589597">
        <ele>575.2</ele>
        <time>2019-08-20T10:41:54Z</time>
        <sat>12</sat>
      </trkpt>
      <trkpt lat="42.415056" lon="-2.589651">
        <ele>575.3</ele>
        <time>2019-08-20T10:41:57Z</time>
        <sat>12</sat>
      </trkpt>
      <trkpt lat="42.415044" lon="-2.589721">
        <ele>575.4</ele>
        <time>2019-08-20T10:42:01Z</time>
        <sat>12</sat>
      </trkpt>
      <trkpt lat="42.415042" lon="-2.589902">
        <ele>575.6</ele>
        <time>2019-08-20T10:42:11Z</time>
        <sat>11</sat>
      </trkpt>
      <trkpt lat="42.415048" lon="-2.589969">
        <ele>575.8</ele>
        <time>2019-08-20T10:42:15Z</time>
        <sat>11</sat>
      </trkpt>
      <trkpt lat="42.415045" lon="-2.590136">
        <ele>576.3</ele>
        <time>2019-08-20T10:42:24Z</time>
        <sat>11</sat>
      </trkpt>
      <trkpt lat="42.415031" lon="-2.590225">
        <ele>576.5</ele>
        <time>2019-08-20T10:42:29Z</time>
        <sat>12</sat>
      </trkpt>
      <trkpt lat="42.415033" lon="-2.590275">
        <ele>576.6</ele>
        <time>2019-08-20T10:42:32Z</time>
        <sat>12</sat>
      </trkpt>
      <trkpt lat="42.415013" lon="-2.590399">
        <ele>577.0</ele>
        <time>2019-08-20T10:42:39Z</time>
        <sat>12</sat>
      </trkpt>
      <trkpt lat="42.415010" lon="-2.590472">
        <ele>577.2</ele>
        <time>2019-08-20T10:42:43Z</time>
        <sat>11</sat>
      </trkpt>
      <trkpt lat="42.415000" lon="-2.590529">
        <ele>577.3</ele>
        <time>2019-08-20T10:42:46Z</time>
        <sat>12</sat>
      </trkpt>
      <trkpt lat="42.414999" lon="-2.590615">
        <ele>577.7</ele>
        <time>2019-08-20T10:42:51Z</time>
        <sat>12</sat>
      </trkpt>
      <trkpt lat="42.414986" lon="-2.590670">
        <ele>577.9</ele>
        <time>2019-08-20T10:42:54Z</time>
        <sat>12</sat>
      </trkpt>
      <trkpt lat="42.414982" lon="-2.590761">
        <ele>578.3</ele>
        <time>2019-08-20T10:42:59Z</time>
        <sat>12</sat>
      </trkpt>
      <trkpt lat="42.414963" lon="-2.590883">
        <ele>577.5</ele>
        <time>2019-08-20T10:43:06Z</time>
        <sat>12</sat>
      </trkpt>
      <trkpt lat="42.414949" lon="-2.591045">
        <ele>578.6</ele>
        <time>2019-08-20T10:43:15Z</time>
        <sat>12</sat>
      </trkpt>
      <trkpt lat="42.414939" lon="-2.591295">
        <ele>580.3</ele>
        <time>2019-08-20T10:43:29Z</time>
        <sat>12</sat>
      </trkpt>
      <trkpt lat="42.414929" lon="-2.591435">
        <ele>580.1</ele>
        <time>2019-08-20T10:43:37Z</time>
        <sat>12</sat>
      </trkpt>
      <trkpt lat="42.414916" lon="-2.591611">
        <ele>580.0</ele>
        <time>2019-08-20T10:43:47Z</time>
        <sat>12</sat>
      </trkpt>
      <trkpt lat="42.414918" lon="-2.591659">
        <ele>580.2</ele>
        <time>2019-08-20T10:43:50Z</time>
        <sat>12</sat>
      </trkpt>
      <trkpt lat="42.414893" lon="-2.591895">
        <ele>580.5</ele>
        <time>2019-08-20T10:44:03Z</time>
        <sat>12</sat>
      </trkpt>
      <trkpt lat="42.414893" lon="-2.591970">
        <ele>580.7</ele>
        <time>2019-08-20T10:44:07Z</time>
        <sat>12</sat>
      </trkpt>
      <trkpt lat="42.414874" lon="-2.592148">
        <ele>581.1</ele>
        <time>2019-08-20T10:44:22Z</time>
        <sat>12</sat>
      </trkpt>
      <trkpt lat="42.414866" lon="-2.592159">
        <ele>581.5</ele>
        <time>2019-08-20T10:44:32Z</time>
        <sat>12</sat>
      </trkpt>
      <trkpt lat="42.414855" lon="-2.592264">
        <ele>582.2</ele>
        <time>2019-08-20T10:45:03Z</time>
        <sat>12</sat>
      </trkpt>
      <trkpt lat="42.414835" lon="-2.592324">
        <ele>582.0</ele>
        <time>2019-08-20T10:45:17Z</time>
        <sat>12</sat>
      </trkpt>
      <trkpt lat="42.414825" lon="-2.592427">
        <ele>582.3</ele>
        <time>2019-08-20T10:45:24Z</time>
        <sat>12</sat>
      </trkpt>
      <trkpt lat="42.414799" lon="-2.592487">
        <ele>582.5</ele>
        <time>2019-08-20T10:45:28Z</time>
        <sat>12</sat>
      </trkpt>
      <trkpt lat="42.414759" lon="-2.592508">
        <ele>582.6</ele>
        <time>2019-08-20T10:45:33Z</time>
        <sat>11</sat>
      </trkpt>
      <trkpt lat="42.414761" lon="-2.592528">
        <ele>582.7</ele>
        <time>2019-08-20T10:45:44Z</time>
        <sat>11</sat>
      </trkpt>
      <trkpt lat="42.414752" lon="-2.592619">
        <ele>582.9</ele>
        <time>2019-08-20T10:45:50Z</time>
        <sat>12</sat>
      </trkpt>
      <trkpt lat="42.414716" lon="-2.592798">
        <ele>582.6</ele>
        <time>2019-08-20T10:46:01Z</time>
        <sat>12</sat>
      </trkpt>
      <trkpt lat="42.414689" lon="-2.592896">
        <ele>582.3</ele>
        <time>2019-08-20T10:46:07Z</time>
        <sat>12</sat>
      </trkpt>
      <trkpt lat="42.414657" lon="-2.593129">
        <ele>582.0</ele>
        <time>2019-08-20T10:46:20Z</time>
        <sat>11</sat>
      </trkpt>
      <trkpt lat="42.414650" lon="-2.593324">
        <ele>581.6</ele>
        <time>2019-08-20T10:46:31Z</time>
        <sat>12</sat>
      </trkpt>
      <trkpt lat="42.414653" lon="-2.593452">
        <ele>581.3</ele>
        <time>2019-08-20T10:46:38Z</time>
        <sat>12</sat>
      </trkpt>
      <trkpt lat="42.414643" lon="-2.593594">
        <ele>581.2</ele>
        <time>2019-08-20T10:46:46Z</time>
        <sat>12</sat>
      </trkpt>
      <trkpt lat="42.414638" lon="-2.593751">
        <ele>581.2</ele>
        <time>2019-08-20T10:46:55Z</time>
        <sat>12</sat>
      </trkpt>
      <trkpt lat="42.414641" lon="-2.593998">
        <ele>580.6</ele>
        <time>2019-08-20T10:47:10Z</time>
        <sat>12</sat>
      </trkpt>
      <trkpt lat="42.414649" lon="-2.594094">
        <ele>580.3</ele>
        <time>2019-08-20T10:47:16Z</time>
        <sat>12</sat>
      </trkpt>
      <trkpt lat="42.414677" lon="-2.594172">
        <ele>580.1</ele>
        <time>2019-08-20T10:47:21Z</time>
        <sat>12</sat>
      </trkpt>
      <trkpt lat="42.414704" lon="-2.594288">
        <ele>579.7</ele>
        <time>2019-08-20T10:47:28Z</time>
        <sat>12</sat>
      </trkpt>
      <trkpt lat="42.414757" lon="-2.594435">
        <ele>579.2</ele>
        <time>2019-08-20T10:47:38Z</time>
        <sat>12</sat>
      </trkpt>
      <trkpt lat="42.414828" lon="-2.594606">
        <ele>578.6</ele>
        <time>2019-08-20T10:47:50Z</time>
        <sat>11</sat>
      </trkpt>
      <trkpt lat="42.414897" lon="-2.594726">
        <ele>577.6</ele>
        <time>2019-08-20T10:48:03Z</time>
        <sat>11</sat>
      </trkpt>
      <trkpt lat="42.415000" lon="-2.594880">
        <ele>577.1</ele>
        <time>2019-08-20T10:48:16Z</time>
        <sat>11</sat>
      </trkpt>
      <trkpt lat="42.415053" lon="-2.594934">
        <ele>577.0</ele>
        <time>2019-08-20T10:48:21Z</time>
        <sat>11</sat>
      </trkpt>
      <trkpt lat="42.415107" lon="-2.595035">
        <ele>576.6</ele>
        <time>2019-08-20T10:48:28Z</time>
        <sat>12</sat>
      </trkpt>
      <trkpt lat="42.415214" lon="-2.595191">
        <ele>575.5</ele>
        <time>2019-08-20T10:48:41Z</time>
        <sat>11</sat>
      </trkpt>
      <trkpt lat="42.415302" lon="-2.595329">
        <ele>574.1</ele>
        <time>2019-08-20T10:48:52Z</time>
        <sat>11</sat>
      </trkpt>
      <trkpt lat="42.415322" lon="-2.595367">
        <ele>573.7</ele>
        <time>2019-08-20T10:48:55Z</time>
        <sat>12</sat>
      </trkpt>
      <trkpt lat="42.415433" lon="-2.595515">
        <ele>571.1</ele>
        <time>2019-08-20T10:49:08Z</time>
        <sat>11</sat>
      </trkpt>
      <trkpt lat="42.415536" lon="-2.595629">
        <ele>569.2</ele>
        <time>2019-08-20T10:49:19Z</time>
        <sat>12</sat>
      </trkpt>
      <trkpt lat="42.415651" lon="-2.595774">
        <ele>567.4</ele>
        <time>2019-08-20T10:49:31Z</time>
        <sat>12</sat>
      </trkpt>
      <trkpt lat="42.415705" lon="-2.595860">
        <ele>566.9</ele>
        <time>2019-08-20T10:49:37Z</time>
        <sat>12</sat>
      </trkpt>
      <trkpt lat="42.415736" lon="-2.595940">
        <ele>566.6</ele>
        <time>2019-08-20T10:49:42Z</time>
        <sat>12</sat>
      </trkpt>
      <trkpt lat="42.415819" lon="-2.596110">
        <ele>566.6</ele>
        <time>2019-08-20T10:49:53Z</time>
        <sat>12</sat>
      </trkpt>
      <trkpt lat="42.415852" lon="-2.596167">
        <ele>566.6</ele>
        <time>2019-08-20T10:49:57Z</time>
        <sat>12</sat>
      </trkpt>
      <trkpt lat="42.415877" lon="-2.596232">
        <ele>566.7</ele>
        <time>2019-08-20T10:50:01Z</time>
        <sat>12</sat>
      </trkpt>
      <trkpt lat="42.415961" lon="-2.596407">
        <ele>567.3</ele>
        <time>2019-08-20T10:50:13Z</time>
        <sat>12</sat>
      </trkpt>
      <trkpt lat="42.416033" lon="-2.596564">
        <ele>568.5</ele>
        <time>2019-08-20T10:50:23Z</time>
        <sat>11</sat>
      </trkpt>
      <trkpt lat="42.416057" lon="-2.596609">
        <ele>568.8</ele>
        <time>2019-08-20T10:50:26Z</time>
        <sat>12</sat>
      </trkpt>
      <trkpt lat="42.416083" lon="-2.596692">
        <ele>569.4</ele>
        <time>2019-08-20T10:50:31Z</time>
        <sat>12</sat>
      </trkpt>
      <trkpt lat="42.416097" lon="-2.596724">
        <ele>569.7</ele>
        <time>2019-08-20T10:50:33Z</time>
        <sat>12</sat>
      </trkpt>
      <trkpt lat="42.416153" lon="-2.596957">
        <ele>571.2</ele>
        <time>2019-08-20T10:50:47Z</time>
        <sat>12</sat>
      </trkpt>
      <trkpt lat="42.416221" lon="-2.597187">
        <ele>571.7</ele>
        <time>2019-08-20T10:51:01Z</time>
        <sat>12</sat>
      </trkpt>
      <trkpt lat="42.416286" lon="-2.597396">
        <ele>571.7</ele>
        <time>2019-08-20T10:51:14Z</time>
        <sat>12</sat>
      </trkpt>
      <trkpt lat="42.416316" lon="-2.597471">
        <ele>571.8</ele>
        <time>2019-08-20T10:51:19Z</time>
        <sat>12</sat>
      </trkpt>
      <trkpt lat="42.416328" lon="-2.597522">
        <ele>571.8</ele>
        <time>2019-08-20T10:51:22Z</time>
        <sat>12</sat>
      </trkpt>
      <trkpt lat="42.416364" lon="-2.597615">
        <ele>571.7</ele>
        <time>2019-08-20T10:51:28Z</time>
        <sat>12</sat>
      </trkpt>
      <trkpt lat="42.416409" lon="-2.597774">
        <ele>571.0</ele>
        <time>2019-08-20T10:51:39Z</time>
        <sat>12</sat>
      </trkpt>
      <trkpt lat="42.416443" lon="-2.597976">
        <ele>568.8</ele>
        <time>2019-08-20T10:51:52Z</time>
        <sat>11</sat>
      </trkpt>
      <trkpt lat="42.416447" lon="-2.598015">
        <ele>568.3</ele>
        <time>2019-08-20T10:51:55Z</time>
        <sat>12</sat>
      </trkpt>
      <trkpt lat="42.416471" lon="-2.598108">
        <ele>566.3</ele>
        <time>2019-08-20T10:52:07Z</time>
        <sat>12</sat>
      </trkpt>
      <trkpt lat="42.416488" lon="-2.598122">
        <ele>565.1</ele>
        <time>2019-08-20T10:52:20Z</time>
        <sat>12</sat>
      </trkpt>
      <trkpt lat="42.416563" lon="-2.598139">
        <ele>564.8</ele>
        <time>2019-08-20T10:52:31Z</time>
        <sat>12</sat>
      </trkpt>
      <trkpt lat="42.416602" lon="-2.598129">
        <ele>564.3</ele>
        <time>2019-08-20T10:52:41Z</time>
        <sat>12</sat>
      </trkpt>
      <trkpt lat="42.416722" lon="-2.598057">
        <ele>563.7</ele>
        <time>2019-08-20T10:52:56Z</time>
        <sat>12</sat>
      </trkpt>
      <trkpt lat="42.416876" lon="-2.598015">
        <ele>563.1</ele>
        <time>2019-08-20T10:53:08Z</time>
        <sat>12</sat>
      </trkpt>
      <trkpt lat="42.416952" lon="-2.598040">
        <ele>562.9</ele>
        <time>2019-08-20T10:53:14Z</time>
        <sat>12</sat>
      </trkpt>
      <trkpt lat="42.417025" lon="-2.598106">
        <ele>562.5</ele>
        <time>2019-08-20T10:53:21Z</time>
        <sat>12</sat>
      </trkpt>
      <trkpt lat="42.417090" lon="-2.598186">
        <ele>562.5</ele>
        <time>2019-08-20T10:53:28Z</time>
        <sat>12</sat>
      </trkpt>
      <trkpt lat="42.417114" lon="-2.598260">
        <ele>562.6</ele>
        <time>2019-08-20T10:53:33Z</time>
        <sat>12</sat>
      </trkpt>
      <trkpt lat="42.417113" lon="-2.598308">
        <ele>562.6</ele>
        <time>2019-08-20T10:53:36Z</time>
        <sat>12</sat>
      </trkpt>
      <trkpt lat="42.417082" lon="-2.598406">
        <ele>562.8</ele>
        <time>2019-08-20T10:53:42Z</time>
        <sat>12</sat>
      </trkpt>
      <trkpt lat="42.417003" lon="-2.598548">
        <ele>563.3</ele>
        <time>2019-08-20T10:53:53Z</time>
        <sat>12</sat>
      </trkpt>
      <trkpt lat="42.417006" lon="-2.598559">
        <ele>563.9</ele>
        <time>2019-08-20T10:54:17Z</time>
        <sat>12</sat>
      </trkpt>
      <trkpt lat="42.416921" lon="-2.598742">
        <ele>563.9</ele>
        <time>2019-08-20T10:54:29Z</time>
        <sat>12</sat>
      </trkpt>
      <trkpt lat="42.416863" lon="-2.598848">
        <ele>564.2</ele>
        <time>2019-08-20T10:54:37Z</time>
        <sat>12</sat>
      </trkpt>
      <trkpt lat="42.416788" lon="-2.599007">
        <ele>564.3</ele>
        <time>2019-08-20T10:54:48Z</time>
        <sat>12</sat>
      </trkpt>
      <trkpt lat="42.416715" lon="-2.599167">
        <ele>563.6</ele>
        <time>2019-08-20T10:55:02Z</time>
        <sat>12</sat>
      </trkpt>
      <trkpt lat="42.416683" lon="-2.599228">
        <ele>563.8</ele>
        <time>2019-08-20T10:55:06Z</time>
        <sat>12</sat>
      </trkpt>
      <trkpt lat="42.416609" lon="-2.599402">
        <ele>564.0</ele>
        <time>2019-08-20T10:55:18Z</time>
        <sat>12</sat>
      </trkpt>
      <trkpt lat="42.416572" lon="-2.599461">
        <ele>563.7</ele>
        <time>2019-08-20T10:55:22Z</time>
        <sat>12</sat>
      </trkpt>
      <trkpt lat="42.416474" lon="-2.599671">
        <ele>566.6</ele>
        <time>2019-08-20T10:55:35Z</time>
        <sat>12</sat>
      </trkpt>
      <trkpt lat="42.416408" lon="-2.599823">
        <ele>567.4</ele>
        <time>2019-08-20T10:55:45Z</time>
        <sat>12</sat>
      </trkpt>
      <trkpt lat="42.416323" lon="-2.599981">
        <ele>567.8</ele>
        <time>2019-08-20T10:55:57Z</time>
        <sat>12</sat>
      </trkpt>
      <trkpt lat="42.416287" lon="-2.600070">
        <ele>568.0</ele>
        <time>2019-08-20T10:56:03Z</time>
        <sat>12</sat>
      </trkpt>
      <trkpt lat="42.416223" lon="-2.600190">
        <ele>568.6</ele>
        <time>2019-08-20T10:56:16Z</time>
        <sat>12</sat>
      </trkpt>
      <trkpt lat="42.416187" lon="-2.600295">
        <ele>568.8</ele>
        <time>2019-08-20T10:56:23Z</time>
        <sat>12</sat>
      </trkpt>
      <trkpt lat="42.416154" lon="-2.600351">
        <ele>569.1</ele>
        <time>2019-08-20T10:56:27Z</time>
        <sat>12</sat>
      </trkpt>
      <trkpt lat="42.416130" lon="-2.600410">
        <ele>569.3</ele>
        <time>2019-08-20T10:56:31Z</time>
        <sat>12</sat>
      </trkpt>
      <trkpt lat="42.416050" lon="-2.600580">
        <ele>569.5</ele>
        <time>2019-08-20T10:56:42Z</time>
        <sat>12</sat>
      </trkpt>
      <trkpt lat="42.416007" lon="-2.600713">
        <ele>569.8</ele>
        <time>2019-08-20T10:56:50Z</time>
        <sat>12</sat>
      </trkpt>
      <trkpt lat="42.415961" lon="-2.600807">
        <ele>570.2</ele>
        <time>2019-08-20T10:56:56Z</time>
        <sat>12</sat>
      </trkpt>
      <trkpt lat="42.415892" lon="-2.600993">
        <ele>570.7</ele>
        <time>2019-08-20T10:57:07Z</time>
        <sat>12</sat>
      </trkpt>
      <trkpt lat="42.415872" lon="-2.601075">
        <ele>570.8</ele>
        <time>2019-08-20T10:57:12Z</time>
        <sat>12</sat>
      </trkpt>
      <trkpt lat="42.415823" lon="-2.601193">
        <ele>571.1</ele>
        <time>2019-08-20T10:57:19Z</time>
        <sat>12</sat>
      </trkpt>
      <trkpt lat="42.415810" lon="-2.601247">
        <ele>571.2</ele>
        <time>2019-08-20T10:57:22Z</time>
        <sat>12</sat>
      </trkpt>
      <trkpt lat="42.415767" lon="-2.601341">
        <ele>571.3</ele>
        <time>2019-08-20T10:57:28Z</time>
        <sat>12</sat>
      </trkpt>
      <trkpt lat="42.415747" lon="-2.601410">
        <ele>571.3</ele>
        <time>2019-08-20T10:57:32Z</time>
        <sat>12</sat>
      </trkpt>
      <trkpt lat="42.415692" lon="-2.601545">
        <ele>571.6</ele>
        <time>2019-08-20T10:57:40Z</time>
        <sat>12</sat>
      </trkpt>
      <trkpt lat="42.415668" lon="-2.601629">
        <ele>571.8</ele>
        <time>2019-08-20T10:57:45Z</time>
        <sat>12</sat>
      </trkpt>
      <trkpt lat="42.415633" lon="-2.601704">
        <ele>571.9</ele>
        <time>2019-08-20T10:57:50Z</time>
        <sat>12</sat>
      </trkpt>
      <trkpt lat="42.415585" lon="-2.601883">
        <ele>572.5</ele>
        <time>2019-08-20T10:58:03Z</time>
        <sat>12</sat>
      </trkpt>
      <trkpt lat="42.415490" lon="-2.602111">
        <ele>572.4</ele>
        <time>2019-08-20T10:58:18Z</time>
        <sat>12</sat>
      </trkpt>
      <trkpt lat="42.415438" lon="-2.602220">
        <ele>572.6</ele>
        <time>2019-08-20T10:59:17Z</time>
        <sat>12</sat>
      </trkpt>
      <trkpt lat="42.415427" lon="-2.602307">
        <ele>572.6</ele>
        <time>2019-08-20T10:59:22Z</time>
        <sat>11</sat>
      </trkpt>
      <trkpt lat="42.415365" lon="-2.602440">
        <ele>572.7</ele>
        <time>2019-08-20T10:59:30Z</time>
        <sat>12</sat>
      </trkpt>
      <trkpt lat="42.415348" lon="-2.602506">
        <ele>572.8</ele>
        <time>2019-08-20T10:59:34Z</time>
        <sat>12</sat>
      </trkpt>
      <trkpt lat="42.415297" lon="-2.602618">
        <ele>573.0</ele>
        <time>2019-08-20T10:59:41Z</time>
        <sat>12</sat>
      </trkpt>
      <trkpt lat="42.415232" lon="-2.602784">
        <ele>573.2</ele>
        <time>2019-08-20T10:59:51Z</time>
        <sat>12</sat>
      </trkpt>
      <trkpt lat="42.415218" lon="-2.602837">
        <ele>573.3</ele>
        <time>2019-08-20T10:59:54Z</time>
        <sat>11</sat>
      </trkpt>
      <trkpt lat="42.415162" lon="-2.602984">
        <ele>573.6</ele>
        <time>2019-08-20T11:00:03Z</time>
        <sat>12</sat>
      </trkpt>
      <trkpt lat="42.415092" lon="-2.603159">
        <ele>573.7</ele>
        <time>2019-08-20T11:00:14Z</time>
        <sat>12</sat>
      </trkpt>
      <trkpt lat="42.415084" lon="-2.603195">
        <ele>573.7</ele>
        <time>2019-08-20T11:00:16Z</time>
        <sat>11</sat>
      </trkpt>
      <trkpt lat="42.415045" lon="-2.603291">
        <ele>573.9</ele>
        <time>2019-08-20T11:00:22Z</time>
        <sat>12</sat>
      </trkpt>
      <trkpt lat="42.414963" lon="-2.603475">
        <ele>574.0</ele>
        <time>2019-08-20T11:00:34Z</time>
        <sat>12</sat>
      </trkpt>
      <trkpt lat="42.414916" lon="-2.603608">
        <ele>574.0</ele>
        <time>2019-08-20T11:00:42Z</time>
        <sat>12</sat>
      </trkpt>
      <trkpt lat="42.414895" lon="-2.603730">
        <ele>574.3</ele>
        <time>2019-08-20T11:00:49Z</time>
        <sat>12</sat>
      </trkpt>
      <trkpt lat="42.414868" lon="-2.603797">
        <ele>574.6</ele>
        <time>2019-08-20T11:00:53Z</time>
        <sat>12</sat>
      </trkpt>
      <trkpt lat="42.414810" lon="-2.603977">
        <ele>575.3</ele>
        <time>2019-08-20T11:01:04Z</time>
        <sat>12</sat>
      </trkpt>
      <trkpt lat="42.414756" lon="-2.604177">
        <ele>575.8</ele>
        <time>2019-08-20T11:01:16Z</time>
        <sat>12</sat>
      </trkpt>
      <trkpt lat="42.414716" lon="-2.604272">
        <ele>576.1</ele>
        <time>2019-08-20T11:01:22Z</time>
        <sat>12</sat>
      </trkpt>
      <trkpt lat="42.414695" lon="-2.604353">
        <ele>576.3</ele>
        <time>2019-08-20T11:01:27Z</time>
        <sat>12</sat>
      </trkpt>
      <trkpt lat="42.414624" lon="-2.604524">
        <ele>576.7</ele>
        <time>2019-08-20T11:01:38Z</time>
        <sat>12</sat>
      </trkpt>
      <trkpt lat="42.414586" lon="-2.604576">
        <ele>576.7</ele>
        <time>2019-08-20T11:01:42Z</time>
        <sat>12</sat>
      </trkpt>
      <trkpt lat="42.414534" lon="-2.604723">
        <ele>576.9</ele>
        <time>2019-08-20T11:01:51Z</time>
        <sat>12</sat>
      </trkpt>
      <trkpt lat="42.414507" lon="-2.604825">
        <ele>577.1</ele>
        <time>2019-08-20T11:01:57Z</time>
        <sat>12</sat>
      </trkpt>
      <trkpt lat="42.414459" lon="-2.604936">
        <ele>577.1</ele>
        <time>2019-08-20T11:02:04Z</time>
        <sat>12</sat>
      </trkpt>
      <trkpt lat="42.414435" lon="-2.605018">
        <ele>577.1</ele>
        <time>2019-08-20T11:02:09Z</time>
        <sat>12</sat>
      </trkpt>
      <trkpt lat="42.414386" lon="-2.605129">
        <ele>577.2</ele>
        <time>2019-08-20T11:02:16Z</time>
        <sat>12</sat>
      </trkpt>
      <trkpt lat="42.414361" lon="-2.605213">
        <ele>577.3</ele>
        <time>2019-08-20T11:02:21Z</time>
        <sat>12</sat>
      </trkpt>
      <trkpt lat="42.414339" lon="-2.605263">
        <ele>577.4</ele>
        <time>2019-08-20T11:02:24Z</time>
        <sat>12</sat>
      </trkpt>
      <trkpt lat="42.414313" lon="-2.605363">
        <ele>577.5</ele>
        <time>2019-08-20T11:02:30Z</time>
        <sat>12</sat>
      </trkpt>
      <trkpt lat="42.414296" lon="-2.605395">
        <ele>577.6</ele>
        <time>2019-08-20T11:02:32Z</time>
        <sat>12</sat>
      </trkpt>
      <trkpt lat="42.414219" lon="-2.605594">
        <ele>577.8</ele>
        <time>2019-08-20T11:02:44Z</time>
        <sat>12</sat>
      </trkpt>
      <trkpt lat="42.414153" lon="-2.605745">
        <ele>577.9</ele>
        <time>2019-08-20T11:02:54Z</time>
        <sat>12</sat>
      </trkpt>
      <trkpt lat="42.414137" lon="-2.605810">
        <ele>578.1</ele>
        <time>2019-08-20T11:02:58Z</time>
        <sat>12</sat>
      </trkpt>
      <trkpt lat="42.414057" lon="-2.606021">
        <ele>578.6</ele>
        <time>2019-08-20T11:03:11Z</time>
        <sat>12</sat>
      </trkpt>
      <trkpt lat="42.414037" lon="-2.606087">
        <ele>578.7</ele>
        <time>2019-08-20T11:03:15Z</time>
        <sat>12</sat>
      </trkpt>
      <trkpt lat="42.414001" lon="-2.606166">
        <ele>578.9</ele>
        <time>2019-08-20T11:03:20Z</time>
        <sat>11</sat>
      </trkpt>
      <trkpt lat="42.413982" lon="-2.606231">
        <ele>579.1</ele>
        <time>2019-08-20T11:03:24Z</time>
        <sat>12</sat>
      </trkpt>
      <trkpt lat="42.413892" lon="-2.606463">
        <ele>579.4</ele>
        <time>2019-08-20T11:03:38Z</time>
        <sat>12</sat>
      </trkpt>
      <trkpt lat="42.413829" lon="-2.606702">
        <ele>580.2</ele>
        <time>2019-08-20T11:03:53Z</time>
        <sat>11</sat>
      </trkpt>
      <trkpt lat="42.413796" lon="-2.606793">
        <ele>580.5</ele>
        <time>2019-08-20T11:04:00Z</time>
        <sat>12</sat>
      </trkpt>
      <trkpt lat="42.413771" lon="-2.606835">
        <ele>580.5</ele>
        <time>2019-08-20T11:04:03Z</time>
        <sat>12</sat>
      </trkpt>
      <trkpt lat="42.413714" lon="-2.606991">
        <ele>580.8</ele>
        <time>2019-08-20T11:04:29Z</time>
        <sat>12</sat>
      </trkpt>
      <trkpt lat="42.413685" lon="-2.607052">
        <ele>581.8</ele>
        <time>2019-08-20T11:04:33Z</time>
        <sat>12</sat>
      </trkpt>
      <trkpt lat="42.413656" lon="-2.607151">
        <ele>582.0</ele>
        <time>2019-08-20T11:04:39Z</time>
        <sat>12</sat>
      </trkpt>
      <trkpt lat="42.413615" lon="-2.607245">
        <ele>581.8</ele>
        <time>2019-08-20T11:04:45Z</time>
        <sat>12</sat>
      </trkpt>
      <trkpt lat="42.413605" lon="-2.607279">
        <ele>581.8</ele>
        <time>2019-08-20T11:04:47Z</time>
        <sat>12</sat>
      </trkpt>
      <trkpt lat="42.413528" lon="-2.607486">
        <ele>581.5</ele>
        <time>2019-08-20T11:05:00Z</time>
        <sat>12</sat>
      </trkpt>
      <trkpt lat="42.413505" lon="-2.607523">
        <ele>581.7</ele>
        <time>2019-08-20T11:05:05Z</time>
        <sat>12</sat>
      </trkpt>
      <trkpt lat="42.413473" lon="-2.607625">
        <ele>581.9</ele>
        <time>2019-08-20T11:05:11Z</time>
        <sat>12</sat>
      </trkpt>
      <trkpt lat="42.413414" lon="-2.607771">
        <ele>582.3</ele>
        <time>2019-08-20T11:05:20Z</time>
        <sat>12</sat>
      </trkpt>
      <trkpt lat="42.413394" lon="-2.607851">
        <ele>582.4</ele>
        <time>2019-08-20T11:05:25Z</time>
        <sat>12</sat>
      </trkpt>
      <trkpt lat="42.413327" lon="-2.608027">
        <ele>582.6</ele>
        <time>2019-08-20T11:05:36Z</time>
        <sat>12</sat>
      </trkpt>
      <trkpt lat="42.413308" lon="-2.608096">
        <ele>582.8</ele>
        <time>2019-08-20T11:05:40Z</time>
        <sat>12</sat>
      </trkpt>
      <trkpt lat="42.413285" lon="-2.608141">
        <ele>582.9</ele>
        <time>2019-08-20T11:05:43Z</time>
        <sat>12</sat>
      </trkpt>
      <trkpt lat="42.413221" lon="-2.608328">
        <ele>583.3</ele>
        <time>2019-08-20T11:05:55Z</time>
        <sat>12</sat>
      </trkpt>
      <trkpt lat="42.413205" lon="-2.608398">
        <ele>583.3</ele>
        <time>2019-08-20T11:05:59Z</time>
        <sat>12</sat>
      </trkpt>
      <trkpt lat="42.413173" lon="-2.608463">
        <ele>583.4</ele>
        <time>2019-08-20T11:06:03Z</time>
        <sat>11</sat>
      </trkpt>
      <trkpt lat="42.413122" lon="-2.608623">
        <ele>583.7</ele>
        <time>2019-08-20T11:06:13Z</time>
        <sat>12</sat>
      </trkpt>
      <trkpt lat="42.413062" lon="-2.608800">
        <ele>584.2</ele>
        <time>2019-08-20T11:06:24Z</time>
        <sat>12</sat>
      </trkpt>
      <trkpt lat="42.413054" lon="-2.608852">
        <ele>584.2</ele>
        <time>2019-08-20T11:06:27Z</time>
        <sat>12</sat>
      </trkpt>
      <trkpt lat="42.412976" lon="-2.609081">
        <ele>585.0</ele>
        <time>2019-08-20T11:06:41Z</time>
        <sat>12</sat>
      </trkpt>
      <trkpt lat="42.412948" lon="-2.609198">
        <ele>585.2</ele>
        <time>2019-08-20T11:06:48Z</time>
        <sat>11</sat>
      </trkpt>
      <trkpt lat="42.412889" lon="-2.609399">
        <ele>585.6</ele>
        <time>2019-08-20T11:07:00Z</time>
        <sat>11</sat>
      </trkpt>
      <trkpt lat="42.412835" lon="-2.609601">
        <ele>586.0</ele>
        <time>2019-08-20T11:07:12Z</time>
        <sat>12</sat>
      </trkpt>
      <trkpt lat="42.412830" lon="-2.609638">
        <ele>586.1</ele>
        <time>2019-08-20T11:07:14Z</time>
        <sat>12</sat>
      </trkpt>
      <trkpt lat="42.412795" lon="-2.609751">
        <ele>586.5</ele>
        <time>2019-08-20T11:07:21Z</time>
        <sat>10</sat>
      </trkpt>
      <trkpt lat="42.412785" lon="-2.609806">
        <ele>586.7</ele>
        <time>2019-08-20T11:07:24Z</time>
        <sat>11</sat>
      </trkpt>
      <trkpt lat="42.412735" lon="-2.609976">
        <ele>587.0</ele>
        <time>2019-08-20T11:07:35Z</time>
        <sat>12</sat>
      </trkpt>
      <trkpt lat="42.412726" lon="-2.610030">
        <ele>587.2</ele>
        <time>2019-08-20T11:07:38Z</time>
        <sat>10</sat>
      </trkpt>
      <trkpt lat="42.412699" lon="-2.610117">
        <ele>587.6</ele>
        <time>2019-08-20T11:07:43Z</time>
        <sat>11</sat>
      </trkpt>
      <trkpt lat="42.412666" lon="-2.610296">
        <ele>588.2</ele>
        <time>2019-08-20T11:07:53Z</time>
        <sat>11</sat>
      </trkpt>
      <trkpt lat="42.412642" lon="-2.610378">
        <ele>588.6</ele>
        <time>2019-08-20T11:07:58Z</time>
        <sat>11</sat>
      </trkpt>
      <trkpt lat="42.412607" lon="-2.610559">
        <ele>589.4</ele>
        <time>2019-08-20T11:08:09Z</time>
        <sat>10</sat>
      </trkpt>
      <trkpt lat="42.412589" lon="-2.610624">
        <ele>589.8</ele>
        <time>2019-08-20T11:08:13Z</time>
        <sat>11</sat>
      </trkpt>
      <trkpt lat="42.412587" lon="-2.610691">
        <ele>590.0</ele>
        <time>2019-08-20T11:08:17Z</time>
        <sat>10</sat>
      </trkpt>
      <trkpt lat="42.412550" lon="-2.610851">
        <ele>590.6</ele>
        <time>2019-08-20T11:08:27Z</time>
        <sat>11</sat>
      </trkpt>
      <trkpt lat="42.412537" lon="-2.610940">
        <ele>590.7</ele>
        <time>2019-08-20T11:08:32Z</time>
        <sat>12</sat>
      </trkpt>
      <trkpt lat="42.412488" lon="-2.611134">
        <ele>590.9</ele>
        <time>2019-08-20T11:08:44Z</time>
        <sat>11</sat>
      </trkpt>
      <trkpt lat="42.412466" lon="-2.611234">
        <ele>591.2</ele>
        <time>2019-08-20T11:08:53Z</time>
        <sat>12</sat>
      </trkpt>
      <trkpt lat="42.412461" lon="-2.611311">
        <ele>591.2</ele>
        <time>2019-08-20T11:09:02Z</time>
        <sat>12</sat>
      </trkpt>
      <trkpt lat="42.412443" lon="-2.611400">
        <ele>591.2</ele>
        <time>2019-08-20T11:09:08Z</time>
        <sat>11</sat>
      </trkpt>
      <trkpt lat="42.412421" lon="-2.611606">
        <ele>592.1</ele>
        <time>2019-08-20T11:09:33Z</time>
        <sat>11</sat>
      </trkpt>
      <trkpt lat="42.412399" lon="-2.611745">
        <ele>592.4</ele>
        <time>2019-08-20T11:10:03Z</time>
        <sat>12</sat>
      </trkpt>
      <trkpt lat="42.412380" lon="-2.611810">
        <ele>592.5</ele>
        <time>2019-08-20T11:10:07Z</time>
        <sat>12</sat>
      </trkpt>
      <trkpt lat="42.412375" lon="-2.611903">
        <ele>592.5</ele>
        <time>2019-08-20T11:10:12Z</time>
        <sat>12</sat>
      </trkpt>
      <trkpt lat="42.412342" lon="-2.612053">
        <ele>592.8</ele>
        <time>2019-08-20T11:10:22Z</time>
        <sat>11</sat>
      </trkpt>
      <trkpt lat="42.412322" lon="-2.612240">
        <ele>593.1</ele>
        <time>2019-08-20T11:10:43Z</time>
        <sat>10</sat>
      </trkpt>
      <trkpt lat="42.412300" lon="-2.612345">
        <ele>593.4</ele>
        <time>2019-08-20T11:10:53Z</time>
        <sat>11</sat>
      </trkpt>
      <trkpt lat="42.412273" lon="-2.612537">
        <ele>593.5</ele>
        <time>2019-08-20T11:11:04Z</time>
        <sat>10</sat>
      </trkpt>
      <trkpt lat="42.412270" lon="-2.612607">
        <ele>593.6</ele>
        <time>2019-08-20T11:11:08Z</time>
        <sat>11</sat>
      </trkpt>
      <trkpt lat="42.412248" lon="-2.612733">
        <ele>593.7</ele>
        <time>2019-08-20T11:11:15Z</time>
        <sat>11</sat>
      </trkpt>
      <trkpt lat="42.412247" lon="-2.612793">
        <ele>593.7</ele>
        <time>2019-08-20T11:11:18Z</time>
        <sat>11</sat>
      </trkpt>
      <trkpt lat="42.412227" lon="-2.612959">
        <ele>594.6</ele>
        <time>2019-08-20T11:11:49Z</time>
        <sat>11</sat>
      </trkpt>
      <trkpt lat="42.412204" lon="-2.613162">
        <ele>594.8</ele>
        <time>2019-08-20T11:12:00Z</time>
        <sat>10</sat>
      </trkpt>
      <trkpt lat="42.412201" lon="-2.613268">
        <ele>594.9</ele>
        <time>2019-08-20T11:12:06Z</time>
        <sat>10</sat>
      </trkpt>
      <trkpt lat="42.412191" lon="-2.613324">
        <ele>595.1</ele>
        <time>2019-08-20T11:12:09Z</time>
        <sat>12</sat>
      </trkpt>
      <trkpt lat="42.412196" lon="-2.613419">
        <ele>595.2</ele>
        <time>2019-08-20T11:12:14Z</time>
        <sat>12</sat>
      </trkpt>
      <trkpt lat="42.412185" lon="-2.613542">
        <ele>595.6</ele>
        <time>2019-08-20T11:12:21Z</time>
        <sat>12</sat>
      </trkpt>
      <trkpt lat="42.412189" lon="-2.613612">
        <ele>595.6</ele>
        <time>2019-08-20T11:12:25Z</time>
        <sat>12</sat>
      </trkpt>
      <trkpt lat="42.412184" lon="-2.613790">
        <ele>596.1</ele>
        <time>2019-08-20T11:12:35Z</time>
        <sat>12</sat>
      </trkpt>
      <trkpt lat="42.412186" lon="-2.614003">
        <ele>596.7</ele>
        <time>2019-08-20T11:12:56Z</time>
        <sat>12</sat>
      </trkpt>
      <trkpt lat="42.412176" lon="-2.614093">
        <ele>596.8</ele>
        <time>2019-08-20T11:13:02Z</time>
        <sat>12</sat>
      </trkpt>
      <trkpt lat="42.412109" lon="-2.614132">
        <ele>597.5</ele>
        <time>2019-08-20T11:13:44Z</time>
        <sat>12</sat>
      </trkpt>
      <trkpt lat="42.412069" lon="-2.614120">
        <ele>597.7</ele>
        <time>2019-08-20T11:13:52Z</time>
        <sat>12</sat>
      </trkpt>
      <trkpt lat="42.412012" lon="-2.614148">
        <ele>598.0</ele>
        <time>2019-08-20T11:15:19Z</time>
        <sat>12</sat>
      </trkpt>
      <trkpt lat="42.411946" lon="-2.614147">
        <ele>598.0</ele>
        <time>2019-08-20T11:15:24Z</time>
        <sat>12</sat>
      </trkpt>
      <trkpt lat="42.411893" lon="-2.614158">
        <ele>598.0</ele>
        <time>2019-08-20T11:15:28Z</time>
        <sat>12</sat>
      </trkpt>
      <trkpt lat="42.411769" lon="-2.614153">
        <ele>598.0</ele>
        <time>2019-08-20T11:15:37Z</time>
        <sat>12</sat>
      </trkpt>
      <trkpt lat="42.411583" lon="-2.614216">
        <ele>598.2</ele>
        <time>2019-08-20T11:15:51Z</time>
        <sat>12</sat>
      </trkpt>
      <trkpt lat="42.411507" lon="-2.614281">
        <ele>598.5</ele>
        <time>2019-08-20T11:15:58Z</time>
        <sat>12</sat>
      </trkpt>
      <trkpt lat="42.411459" lon="-2.614353">
        <ele>598.3</ele>
        <time>2019-08-20T11:16:04Z</time>
        <sat>12</sat>
      </trkpt>
      <trkpt lat="42.411388" lon="-2.614528">
        <ele>598.8</ele>
        <time>2019-08-20T11:16:17Z</time>
        <sat>12</sat>
      </trkpt>
      <trkpt lat="42.411384" lon="-2.614550">
        <ele>600.7</ele>
        <time>2019-08-20T11:16:42Z</time>
        <sat>12</sat>
      </trkpt>
      <trkpt lat="42.411336" lon="-2.614783">
        <ele>600.7</ele>
        <time>2019-08-20T11:16:55Z</time>
        <sat>12</sat>
      </trkpt>
      <trkpt lat="42.411328" lon="-2.614847">
        <ele>601.0</ele>
        <time>2019-08-20T11:16:59Z</time>
        <sat>12</sat>
      </trkpt>
      <trkpt lat="42.411307" lon="-2.614920">
        <ele>601.1</ele>
        <time>2019-08-20T11:17:03Z</time>
        <sat>12</sat>
      </trkpt>
      <trkpt lat="42.411239" lon="-2.615090">
        <ele>600.9</ele>
        <time>2019-08-20T11:17:14Z</time>
        <sat>12</sat>
      </trkpt>
      <trkpt lat="42.411191" lon="-2.615197">
        <ele>601.0</ele>
        <time>2019-08-20T11:17:21Z</time>
        <sat>11</sat>
      </trkpt>
      <trkpt lat="42.411112" lon="-2.615401">
        <ele>602.2</ele>
        <time>2019-08-20T11:17:37Z</time>
        <sat>12</sat>
      </trkpt>
      <trkpt lat="42.411055" lon="-2.615565">
        <ele>602.7</ele>
        <time>2019-08-20T11:17:47Z</time>
        <sat>12</sat>
      </trkpt>
      <trkpt lat="42.411020" lon="-2.615698">
        <ele>602.9</ele>
        <time>2019-08-20T11:17:55Z</time>
        <sat>12</sat>
      </trkpt>
      <trkpt lat="42.410961" lon="-2.615862">
        <ele>603.7</ele>
        <time>2019-08-20T11:18:04Z</time>
        <sat>12</sat>
      </trkpt>
      <trkpt lat="42.410895" lon="-2.616005">
        <ele>604.6</ele>
        <time>2019-08-20T11:18:13Z</time>
        <sat>12</sat>
      </trkpt>
      <trkpt lat="42.410794" lon="-2.616203">
        <ele>605.4</ele>
        <time>2019-08-20T11:18:26Z</time>
        <sat>12</sat>
      </trkpt>
      <trkpt lat="42.410757" lon="-2.616258">
        <ele>605.5</ele>
        <time>2019-08-20T11:18:30Z</time>
        <sat>12</sat>
      </trkpt>
      <trkpt lat="42.410642" lon="-2.616456">
        <ele>605.9</ele>
        <time>2019-08-20T11:18:44Z</time>
        <sat>12</sat>
      </trkpt>
      <trkpt lat="42.410606" lon="-2.616549">
        <ele>605.9</ele>
        <time>2019-08-20T11:18:50Z</time>
        <sat>12</sat>
      </trkpt>
      <trkpt lat="42.410472" lon="-2.616728">
        <ele>606.1</ele>
        <time>2019-08-20T11:19:04Z</time>
        <sat>11</sat>
      </trkpt>
      <trkpt lat="42.410384" lon="-2.616879">
        <ele>605.6</ele>
        <time>2019-08-20T11:19:15Z</time>
        <sat>11</sat>
      </trkpt>
      <trkpt lat="42.410352" lon="-2.616940">
        <ele>605.5</ele>
        <time>2019-08-20T11:19:19Z</time>
        <sat>12</sat>
      </trkpt>
      <trkpt lat="42.410247" lon="-2.617106">
        <ele>605.9</ele>
        <time>2019-08-20T11:19:31Z</time>
        <sat>11</sat>
      </trkpt>
      <trkpt lat="42.410222" lon="-2.617158">
        <ele>605.9</ele>
        <time>2019-08-20T11:19:35Z</time>
        <sat>11</sat>
      </trkpt>
      <trkpt lat="42.410175" lon="-2.617229">
        <ele>606.1</ele>
        <time>2019-08-20T11:19:40Z</time>
        <sat>11</sat>
      </trkpt>
      <trkpt lat="42.410125" lon="-2.617333">
        <ele>606.1</ele>
        <time>2019-08-20T11:19:47Z</time>
        <sat>11</sat>
      </trkpt>
      <trkpt lat="42.410064" lon="-2.617564">
        <ele>606.5</ele>
        <time>2019-08-20T11:20:00Z</time>
        <sat>11</sat>
      </trkpt>
      <trkpt lat="42.410032" lon="-2.617769">
        <ele>607.1</ele>
        <time>2019-08-20T11:20:11Z</time>
        <sat>12</sat>
      </trkpt>
      <trkpt lat="42.410023" lon="-2.617900">
        <ele>607.3</ele>
        <time>2019-08-20T11:20:18Z</time>
        <sat>12</sat>
      </trkpt>
      <trkpt lat="42.409999" lon="-2.618083">
        <ele>607.4</ele>
        <time>2019-08-20T11:20:28Z</time>
        <sat>12</sat>
      </trkpt>
      <trkpt lat="42.409959" lon="-2.618285">
        <ele>607.6</ele>
        <time>2019-08-20T11:20:39Z</time>
        <sat>12</sat>
      </trkpt>
      <trkpt lat="42.409899" lon="-2.618519">
        <ele>608.2</ele>
        <time>2019-08-20T11:20:52Z</time>
        <sat>12</sat>
      </trkpt>
      <trkpt lat="42.409865" lon="-2.618637">
        <ele>608.5</ele>
        <time>2019-08-20T11:20:59Z</time>
        <sat>11</sat>
      </trkpt>
      <trkpt lat="42.409790" lon="-2.618781">
        <ele>609.0</ele>
        <time>2019-08-20T11:21:09Z</time>
        <sat>10</sat>
      </trkpt>
      <trkpt lat="42.409707" lon="-2.618861">
        <ele>609.2</ele>
        <time>2019-08-20T11:21:17Z</time>
        <sat>9</sat>
      </trkpt>
      <trkpt lat="42.409634" lon="-2.618907">
        <ele>609.4</ele>
        <time>2019-08-20T11:21:23Z</time>
        <sat>11</sat>
      </trkpt>
      <trkpt lat="42.409515" lon="-2.619009">
        <ele>609.8</ele>
        <time>2019-08-20T11:21:34Z</time>
        <sat>9</sat>
      </trkpt>
      <trkpt lat="42.409442" lon="-2.619107">
        <ele>610.1</ele>
        <time>2019-08-20T11:21:42Z</time>
        <sat>10</sat>
      </trkpt>
      <trkpt lat="42.409377" lon="-2.619225">
        <ele>610.9</ele>
        <time>2019-08-20T11:21:50Z</time>
        <sat>10</sat>
      </trkpt>
      <trkpt lat="42.409334" lon="-2.619323">
        <ele>612.0</ele>
        <time>2019-08-20T11:21:56Z</time>
        <sat>12</sat>
      </trkpt>
      <trkpt lat="42.409289" lon="-2.619455">
        <ele>612.8</ele>
        <time>2019-08-20T11:22:04Z</time>
        <sat>11</sat>
      </trkpt>
      <trkpt lat="42.409189" lon="-2.619658">
        <ele>613.4</ele>
        <time>2019-08-20T11:22:20Z</time>
        <sat>10</sat>
      </trkpt>
      <trkpt lat="42.409161" lon="-2.619758">
        <ele>613.6</ele>
        <time>2019-08-20T11:22:26Z</time>
        <sat>11</sat>
      </trkpt>
      <trkpt lat="42.409135" lon="-2.619796">
        <ele>613.5</ele>
        <time>2019-08-20T11:22:29Z</time>
        <sat>12</sat>
      </trkpt>
      <trkpt lat="42.409064" lon="-2.619944">
        <ele>613.7</ele>
        <time>2019-08-20T11:22:39Z</time>
        <sat>11</sat>
      </trkpt>
      <trkpt lat="42.408968" lon="-2.620106">
        <ele>613.7</ele>
        <time>2019-08-20T11:22:50Z</time>
        <sat>12</sat>
      </trkpt>
      <trkpt lat="42.408870" lon="-2.620245">
        <ele>614.0</ele>
        <time>2019-08-20T11:23:00Z</time>
        <sat>12</sat>
      </trkpt>
      <trkpt lat="42.408786" lon="-2.620370">
        <ele>614.4</ele>
        <time>2019-08-20T11:23:09Z</time>
        <sat>12</sat>
      </trkpt>
      <trkpt lat="42.408737" lon="-2.620474">
        <ele>614.4</ele>
        <time>2019-08-20T11:23:16Z</time>
        <sat>12</sat>
      </trkpt>
      <trkpt lat="42.408702" lon="-2.620614">
        <ele>614.5</ele>
        <time>2019-08-20T11:23:24Z</time>
        <sat>11</sat>
      </trkpt>
      <trkpt lat="42.408689" lon="-2.620644">
        <ele>614.7</ele>
        <time>2019-08-20T11:23:26Z</time>
        <sat>12</sat>
      </trkpt>
      <trkpt lat="42.408668" lon="-2.620789">
        <ele>615.0</ele>
        <time>2019-08-20T11:23:34Z</time>
        <sat>11</sat>
      </trkpt>
      <trkpt lat="42.408647" lon="-2.621023">
        <ele>615.5</ele>
        <time>2019-08-20T11:23:47Z</time>
        <sat>11</sat>
      </trkpt>
      <trkpt lat="42.408635" lon="-2.621116">
        <ele>615.7</ele>
        <time>2019-08-20T11:23:52Z</time>
        <sat>10</sat>
      </trkpt>
      <trkpt lat="42.408605" lon="-2.621239">
        <ele>616.0</ele>
        <time>2019-08-20T11:23:59Z</time>
        <sat>10</sat>
      </trkpt>
      <trkpt lat="42.408516" lon="-2.621435">
        <ele>616.4</ele>
        <time>2019-08-20T11:24:12Z</time>
        <sat>11</sat>
      </trkpt>
      <trkpt lat="42.408459" lon="-2.621514">
        <ele>616.5</ele>
        <time>2019-08-20T11:24:18Z</time>
        <sat>10</sat>
      </trkpt>
      <trkpt lat="42.408330" lon="-2.621634">
        <ele>616.9</ele>
        <time>2019-08-20T11:24:30Z</time>
        <sat>10</sat>
      </trkpt>
      <trkpt lat="42.408202" lon="-2.621767">
        <ele>616.9</ele>
        <time>2019-08-20T11:24:42Z</time>
        <sat>10</sat>
      </trkpt>
      <trkpt lat="42.408106" lon="-2.621946">
        <ele>617.6</ele>
        <time>2019-08-20T11:24:54Z</time>
        <sat>11</sat>
      </trkpt>
      <trkpt lat="42.408081" lon="-2.622033">
        <ele>617.8</ele>
        <time>2019-08-20T11:24:59Z</time>
        <sat>11</sat>
      </trkpt>
      <trkpt lat="42.408022" lon="-2.622180">
        <ele>617.4</ele>
        <time>2019-08-20T11:25:08Z</time>
        <sat>11</sat>
      </trkpt>
      <trkpt lat="42.407993" lon="-2.622235">
        <ele>617.4</ele>
        <time>2019-08-20T11:25:12Z</time>
        <sat>10</sat>
      </trkpt>
      <trkpt lat="42.407893" lon="-2.622404">
        <ele>617.5</ele>
        <time>2019-08-20T11:25:24Z</time>
        <sat>11</sat>
      </trkpt>
      <trkpt lat="42.407804" lon="-2.622520">
        <ele>617.4</ele>
        <time>2019-08-20T11:25:33Z</time>
        <sat>9</sat>
      </trkpt>
      <trkpt lat="42.407647" lon="-2.622630">
        <ele>617.4</ele>
        <time>2019-08-20T11:25:46Z</time>
        <sat>11</sat>
      </trkpt>
      <trkpt lat="42.407464" lon="-2.622731">
        <ele>617.9</ele>
        <time>2019-08-20T11:26:00Z</time>
        <sat>11</sat>
      </trkpt>
      <trkpt lat="42.407355" lon="-2.622802">
        <ele>618.4</ele>
        <time>2019-08-20T11:26:09Z</time>
        <sat>11</sat>
      </trkpt>
      <trkpt lat="42.407292" lon="-2.622850">
        <ele>619.0</ele>
        <time>2019-08-20T11:26:15Z</time>
        <sat>11</sat>
      </trkpt>
      <trkpt lat="42.407167" lon="-2.622950">
        <ele>619.7</ele>
        <time>2019-08-20T11:26:26Z</time>
        <sat>10</sat>
      </trkpt>
      <trkpt lat="42.407035" lon="-2.623056">
        <ele>620.2</ele>
        <time>2019-08-20T11:26:37Z</time>
        <sat>11</sat>
      </trkpt>
      <trkpt lat="42.407002" lon="-2.623088">
        <ele>620.4</ele>
        <time>2019-08-20T11:26:40Z</time>
        <sat>11</sat>
      </trkpt>
      <trkpt lat="42.406871" lon="-2.623203">
        <ele>621.3</ele>
        <time>2019-08-20T11:26:52Z</time>
        <sat>11</sat>
      </trkpt>
      <trkpt lat="42.406746" lon="-2.623285">
        <ele>621.8</ele>
        <time>2019-08-20T11:27:02Z</time>
        <sat>10</sat>
      </trkpt>
      <trkpt lat="42.406675" lon="-2.623315">
        <ele>622.2</ele>
        <time>2019-08-20T11:27:07Z</time>
        <sat>11</sat>
      </trkpt>
      <trkpt lat="42.406611" lon="-2.623357">
        <ele>622.6</ele>
        <time>2019-08-20T11:27:12Z</time>
        <sat>11</sat>
      </trkpt>
      <trkpt lat="42.406469" lon="-2.623474">
        <ele>622.9</ele>
        <time>2019-08-20T11:27:24Z</time>
        <sat>10</sat>
      </trkpt>
      <trkpt lat="42.406401" lon="-2.623561">
        <ele>623.5</ele>
        <time>2019-08-20T11:27:31Z</time>
        <sat>11</sat>
      </trkpt>
      <trkpt lat="42.406355" lon="-2.623602">
        <ele>623.7</ele>
        <time>2019-08-20T11:27:35Z</time>
        <sat>11</sat>
      </trkpt>
      <trkpt lat="42.406263" lon="-2.623711">
        <ele>624.0</ele>
        <time>2019-08-20T11:27:44Z</time>
        <sat>11</sat>
      </trkpt>
      <trkpt lat="42.406212" lon="-2.623782">
        <ele>624.3</ele>
        <time>2019-08-20T11:27:50Z</time>
        <sat>11</sat>
      </trkpt>
      <trkpt lat="42.406186" lon="-2.623806">
        <ele>624.4</ele>
        <time>2019-08-20T11:27:52Z</time>
        <sat>11</sat>
      </trkpt>
      <trkpt lat="42.406103" lon="-2.623919">
        <ele>625.0</ele>
        <time>2019-08-20T11:28:01Z</time>
        <sat>11</sat>
      </trkpt>
      <trkpt lat="42.406051" lon="-2.623954">
        <ele>625.2</ele>
        <time>2019-08-20T11:28:05Z</time>
        <sat>11</sat>
      </trkpt>
      <trkpt lat="42.405969" lon="-2.624045">
        <ele>625.6</ele>
        <time>2019-08-20T11:28:13Z</time>
        <sat>11</sat>
      </trkpt>
      <trkpt lat="42.405960" lon="-2.624061">
        <ele>625.7</ele>
        <time>2019-08-20T11:28:14Z</time>
        <sat>11</sat>
      </trkpt>
      <trkpt lat="42.405842" lon="-2.624186">
        <ele>626.4</ele>
        <time>2019-08-20T11:28:25Z</time>
        <sat>11</sat>
      </trkpt>
      <trkpt lat="42.405732" lon="-2.624341">
        <ele>625.9</ele>
        <time>2019-08-20T11:28:38Z</time>
        <sat>11</sat>
      </trkpt>
      <trkpt lat="42.405649" lon="-2.624509">
        <ele>626.2</ele>
        <time>2019-08-20T11:28:50Z</time>
        <sat>11</sat>
      </trkpt>
      <trkpt lat="42.405503" lon="-2.624738">
        <ele>626.1</ele>
        <time>2019-08-20T11:29:24Z</time>
        <sat>10</sat>
      </trkpt>
      <trkpt lat="42.405463" lon="-2.625233">
        <ele>632.3</ele>
        <time>2019-08-20T11:51:18Z</time>
        <sat>12</sat>
      </trkpt>
      <trkpt lat="42.405526" lon="-2.625304">
        <ele>632.3</ele>
        <time>2019-08-20T11:51:26Z</time>
        <sat>11</sat>
      </trkpt>
      <trkpt lat="42.405572" lon="-2.625402">
        <ele>632.5</ele>
        <time>2019-08-20T11:51:34Z</time>
        <sat>11</sat>
      </trkpt>
      <trkpt lat="42.405675" lon="-2.625583">
        <ele>631.2</ele>
        <time>2019-08-20T11:51:49Z</time>
        <sat>10</sat>
      </trkpt>
      <trkpt lat="42.405694" lon="-2.625627">
        <ele>631.1</ele>
        <time>2019-08-20T11:51:53Z</time>
        <sat>11</sat>
      </trkpt>
      <trkpt lat="42.405718" lon="-2.625708">
        <ele>631.1</ele>
        <time>2019-08-20T11:51:59Z</time>
        <sat>11</sat>
      </trkpt>
      <trkpt lat="42.405761" lon="-2.625790">
        <ele>631.1</ele>
        <time>2019-08-20T11:52:05Z</time>
        <sat>12</sat>
      </trkpt>
      <trkpt lat="42.405800" lon="-2.625840">
        <ele>630.7</ele>
        <time>2019-08-20T11:52:09Z</time>
        <sat>12</sat>
      </trkpt>
      <trkpt lat="42.405845" lon="-2.625936">
        <ele>630.4</ele>
        <time>2019-08-20T11:52:17Z</time>
        <sat>11</sat>
      </trkpt>
      <trkpt lat="42.405859" lon="-2.625989">
        <ele>631.8</ele>
        <time>2019-08-20T11:52:25Z</time>
        <sat>11</sat>
      </trkpt>
      <trkpt lat="42.405886" lon="-2.626051">
        <ele>632.4</ele>
        <time>2019-08-20T11:52:35Z</time>
        <sat>12</sat>
      </trkpt>
      <trkpt lat="42.405949" lon="-2.626101">
        <ele>633.3</ele>
        <time>2019-08-20T11:53:43Z</time>
        <sat>12</sat>
      </trkpt>
      <trkpt lat="42.405941" lon="-2.626110">
        <ele>632.8</ele>
        <time>2019-08-20T11:54:01Z</time>
        <sat>12</sat>
      </trkpt>
      <trkpt lat="42.405957" lon="-2.626199">
        <ele>632.9</ele>
        <time>2019-08-20T11:54:07Z</time>
        <sat>11</sat>
      </trkpt>
      <trkpt lat="42.406015" lon="-2.626316">
        <ele>633.1</ele>
        <time>2019-08-20T11:54:24Z</time>
        <sat>11</sat>
      </trkpt>
      <trkpt lat="42.406095" lon="-2.626452">
        <ele>633.6</ele>
        <time>2019-08-20T11:54:34Z</time>
        <sat>12</sat>
      </trkpt>
      <trkpt lat="42.406201" lon="-2.626616">
        <ele>633.4</ele>
        <time>2019-08-20T11:54:47Z</time>
        <sat>11</sat>
      </trkpt>
      <trkpt lat="42.406316" lon="-2.626750">
        <ele>630.6</ele>
        <time>2019-08-20T11:55:00Z</time>
        <sat>11</sat>
      </trkpt>
      <trkpt lat="42.406367" lon="-2.626794">
        <ele>627.7</ele>
        <time>2019-08-20T11:55:05Z</time>
        <sat>11</sat>
      </trkpt>
      <trkpt lat="42.406402" lon="-2.626841">
        <ele>626.7</ele>
        <time>2019-08-20T11:55:09Z</time>
        <sat>11</sat>
      </trkpt>
      <trkpt lat="42.406444" lon="-2.626880">
        <ele>626.9</ele>
        <time>2019-08-20T11:55:13Z</time>
        <sat>11</sat>
      </trkpt>
      <trkpt lat="42.406475" lon="-2.626924">
        <ele>628.0</ele>
        <time>2019-08-20T11:55:17Z</time>
        <sat>11</sat>
      </trkpt>
      <trkpt lat="42.406565" lon="-2.627003">
        <ele>628.8</ele>
        <time>2019-08-20T11:55:26Z</time>
        <sat>10</sat>
      </trkpt>
      <trkpt lat="42.406617" lon="-2.627038">
        <ele>627.8</ele>
        <time>2019-08-20T11:55:31Z</time>
        <sat>10</sat>
      </trkpt>
      <trkpt lat="42.406713" lon="-2.627114">
        <ele>627.0</ele>
        <time>2019-08-20T11:55:42Z</time>
        <sat>11</sat>
      </trkpt>
      <trkpt lat="42.406794" lon="-2.627159">
        <ele>626.5</ele>
        <time>2019-08-20T11:55:55Z</time>
        <sat>11</sat>
      </trkpt>
      <trkpt lat="42.406821" lon="-2.627184">
        <ele>622.2</ele>
        <time>2019-08-20T11:56:02Z</time>
        <sat>11</sat>
      </trkpt>
      <trkpt lat="42.406932" lon="-2.627239">
        <ele>622.7</ele>
        <time>2019-08-20T11:56:12Z</time>
        <sat>11</sat>
      </trkpt>
      <trkpt lat="42.407048" lon="-2.627303">
        <ele>626.0</ele>
        <time>2019-08-20T11:56:22Z</time>
        <sat>12</sat>
      </trkpt>
      <trkpt lat="42.407137" lon="-2.627365">
        <ele>626.0</ele>
        <time>2019-08-20T11:56:30Z</time>
        <sat>11</sat>
      </trkpt>
      <trkpt lat="42.407197" lon="-2.627416">
        <ele>626.0</ele>
        <time>2019-08-20T11:56:36Z</time>
        <sat>11</sat>
      </trkpt>
      <trkpt lat="42.407235" lon="-2.627432">
        <ele>626.0</ele>
        <time>2019-08-20T11:56:39Z</time>
        <sat>10</sat>
      </trkpt>
      <trkpt lat="42.407362" lon="-2.627545">
        <ele>625.5</ele>
        <time>2019-08-20T11:56:51Z</time>
        <sat>11</sat>
      </trkpt>
      <trkpt lat="42.407425" lon="-2.627619">
        <ele>625.2</ele>
        <time>2019-08-20T11:56:58Z</time>
        <sat>11</sat>
      </trkpt>
      <trkpt lat="42.407487" lon="-2.627662">
        <ele>625.1</ele>
        <time>2019-08-20T11:57:04Z</time>
        <sat>11</sat>
      </trkpt>
      <trkpt lat="42.407528" lon="-2.627704">
        <ele>624.9</ele>
        <time>2019-08-20T11:57:08Z</time>
        <sat>10</sat>
      </trkpt>
      <trkpt lat="42.407606" lon="-2.627744">
        <ele>624.3</ele>
        <time>2019-08-20T11:57:14Z</time>
        <sat>11</sat>
      </trkpt>
      <trkpt lat="42.407660" lon="-2.627791">
        <ele>624.2</ele>
        <time>2019-08-20T11:57:19Z</time>
        <sat>11</sat>
      </trkpt>
      <trkpt lat="42.407786" lon="-2.627921">
        <ele>623.5</ele>
        <time>2019-08-20T11:57:31Z</time>
        <sat>11</sat>
      </trkpt>
      <trkpt lat="42.407810" lon="-2.627938">
        <ele>623.5</ele>
        <time>2019-08-20T11:57:33Z</time>
        <sat>11</sat>
      </trkpt>
      <trkpt lat="42.407918" lon="-2.628066">
        <ele>622.9</ele>
        <time>2019-08-20T11:57:44Z</time>
        <sat>11</sat>
      </trkpt>
      <trkpt lat="42.407941" lon="-2.628083">
        <ele>622.9</ele>
        <time>2019-08-20T11:57:46Z</time>
        <sat>11</sat>
      </trkpt>
      <trkpt lat="42.408058" lon="-2.628233">
        <ele>622.8</ele>
        <time>2019-08-20T11:57:58Z</time>
        <sat>11</sat>
      </trkpt>
      <trkpt lat="42.408162" lon="-2.628387">
        <ele>622.6</ele>
        <time>2019-08-20T11:58:10Z</time>
        <sat>11</sat>
      </trkpt>
      <trkpt lat="42.408182" lon="-2.628432">
        <ele>622.6</ele>
        <time>2019-08-20T11:58:13Z</time>
        <sat>11</sat>
      </trkpt>
      <trkpt lat="42.408209" lon="-2.628536">
        <ele>622.6</ele>
        <time>2019-08-20T11:58:19Z</time>
        <sat>11</sat>
      </trkpt>
      <trkpt lat="42.408200" lon="-2.628699">
        <ele>622.5</ele>
        <time>2019-08-20T11:58:28Z</time>
        <sat>12</sat>
      </trkpt>
      <trkpt lat="42.408202" lon="-2.628771">
        <ele>622.5</ele>
        <time>2019-08-20T11:58:32Z</time>
        <sat>12</sat>
      </trkpt>
      <trkpt lat="42.408189" lon="-2.628842">
        <ele>622.7</ele>
        <time>2019-08-20T11:58:36Z</time>
        <sat>12</sat>
      </trkpt>
      <trkpt lat="42.408178" lon="-2.628987">
        <ele>622.9</ele>
        <time>2019-08-20T11:58:44Z</time>
        <sat>12</sat>
      </trkpt>
      <trkpt lat="42.408165" lon="-2.629054">
        <ele>623.0</ele>
        <time>2019-08-20T11:58:48Z</time>
        <sat>12</sat>
      </trkpt>
      <trkpt lat="42.408155" lon="-2.629227">
        <ele>623.0</ele>
        <time>2019-08-20T11:58:58Z</time>
        <sat>12</sat>
      </trkpt>
      <trkpt lat="42.408179" lon="-2.629367">
        <ele>623.2</ele>
        <time>2019-08-20T11:59:06Z</time>
        <sat>12</sat>
      </trkpt>
      <trkpt lat="42.408236" lon="-2.629607">
        <ele>623.5</ele>
        <time>2019-08-20T11:59:20Z</time>
        <sat>12</sat>
      </trkpt>
      <trkpt lat="42.408279" lon="-2.629785">
        <ele>623.6</ele>
        <time>2019-08-20T11:59:30Z</time>
        <sat>12</sat>
      </trkpt>
      <trkpt lat="42.408291" lon="-2.629819">
        <ele>623.8</ele>
        <time>2019-08-20T11:59:32Z</time>
        <sat>12</sat>
      </trkpt>
      <trkpt lat="42.408321" lon="-2.630032">
        <ele>624.6</ele>
        <time>2019-08-20T11:59:44Z</time>
        <sat>12</sat>
      </trkpt>
      <trkpt lat="42.408330" lon="-2.630131">
        <ele>625.1</ele>
        <time>2019-08-20T11:59:50Z</time>
        <sat>12</sat>
      </trkpt>
      <trkpt lat="42.408362" lon="-2.630368">
        <ele>625.8</ele>
        <time>2019-08-20T12:00:03Z</time>
        <sat>12</sat>
      </trkpt>
      <trkpt lat="42.408385" lon="-2.630546">
        <ele>626.3</ele>
        <time>2019-08-20T12:00:13Z</time>
        <sat>12</sat>
      </trkpt>
      <trkpt lat="42.408390" lon="-2.630641">
        <ele>626.4</ele>
        <time>2019-08-20T12:00:18Z</time>
        <sat>12</sat>
      </trkpt>
      <trkpt lat="42.408405" lon="-2.630709">
        <ele>626.4</ele>
        <time>2019-08-20T12:00:22Z</time>
        <sat>12</sat>
      </trkpt>
      <trkpt lat="42.408435" lon="-2.630923">
        <ele>626.6</ele>
        <time>2019-08-20T12:00:34Z</time>
        <sat>12</sat>
      </trkpt>
      <trkpt lat="42.408462" lon="-2.631030">
        <ele>626.6</ele>
        <time>2019-08-20T12:00:40Z</time>
        <sat>12</sat>
      </trkpt>
      <trkpt lat="42.408471" lon="-2.631142">
        <ele>627.0</ele>
        <time>2019-08-20T12:00:46Z</time>
        <sat>12</sat>
      </trkpt>
      <trkpt lat="42.408501" lon="-2.631279">
        <ele>627.6</ele>
        <time>2019-08-20T12:00:54Z</time>
        <sat>12</sat>
      </trkpt>
      <trkpt lat="42.408541" lon="-2.631367">
        <ele>627.9</ele>
        <time>2019-08-20T12:01:00Z</time>
        <sat>12</sat>
      </trkpt>
      <trkpt lat="42.408669" lon="-2.631523">
        <ele>628.4</ele>
        <time>2019-08-20T12:01:13Z</time>
        <sat>12</sat>
      </trkpt>
      <trkpt lat="42.408763" lon="-2.631604">
        <ele>629.1</ele>
        <time>2019-08-20T12:01:21Z</time>
        <sat>12</sat>
      </trkpt>
      <trkpt lat="42.408888" lon="-2.631694">
        <ele>629.1</ele>
        <time>2019-08-20T12:01:32Z</time>
        <sat>11</sat>
      </trkpt>
      <trkpt lat="42.409026" lon="-2.631815">
        <ele>628.4</ele>
        <time>2019-08-20T12:01:45Z</time>
        <sat>11</sat>
      </trkpt>
      <trkpt lat="42.409141" lon="-2.631945">
        <ele>627.9</ele>
        <time>2019-08-20T12:01:57Z</time>
        <sat>12</sat>
      </trkpt>
      <trkpt lat="42.409176" lon="-2.631998">
        <ele>627.6</ele>
        <time>2019-08-20T12:02:01Z</time>
        <sat>12</sat>
      </trkpt>
      <trkpt lat="42.409299" lon="-2.632166">
        <ele>627.4</ele>
        <time>2019-08-20T12:02:14Z</time>
        <sat>12</sat>
      </trkpt>
      <trkpt lat="42.409414" lon="-2.632296">
        <ele>627.4</ele>
        <time>2019-08-20T12:02:25Z</time>
        <sat>12</sat>
      </trkpt>
      <trkpt lat="42.409541" lon="-2.632410">
        <ele>627.5</ele>
        <time>2019-08-20T12:02:36Z</time>
        <sat>12</sat>
      </trkpt>
      <trkpt lat="42.409649" lon="-2.632490">
        <ele>627.8</ele>
        <time>2019-08-20T12:02:45Z</time>
        <sat>12</sat>
      </trkpt>
      <trkpt lat="42.409697" lon="-2.632512">
        <ele>627.9</ele>
        <time>2019-08-20T12:02:49Z</time>
        <sat>12</sat>
      </trkpt>
      <trkpt lat="42.409770" lon="-2.632571">
        <ele>628.0</ele>
        <time>2019-08-20T12:02:55Z</time>
        <sat>11</sat>
      </trkpt>
      <trkpt lat="42.409808" lon="-2.632592">
        <ele>628.0</ele>
        <time>2019-08-20T12:02:58Z</time>
        <sat>11</sat>
      </trkpt>
      <trkpt lat="42.409879" lon="-2.632690">
        <ele>628.0</ele>
        <time>2019-08-20T12:03:06Z</time>
        <sat>12</sat>
      </trkpt>
      <trkpt lat="42.409962" lon="-2.632846">
        <ele>627.4</ele>
        <time>2019-08-20T12:03:17Z</time>
        <sat>12</sat>
      </trkpt>
      <trkpt lat="42.410060" lon="-2.633039">
        <ele>626.9</ele>
        <time>2019-08-20T12:03:30Z</time>
        <sat>11</sat>
      </trkpt>
      <trkpt lat="42.410078" lon="-2.633067">
        <ele>626.9</ele>
        <time>2019-08-20T12:03:32Z</time>
        <sat>11</sat>
      </trkpt>
      <trkpt lat="42.410120" lon="-2.633159">
        <ele>626.8</ele>
        <time>2019-08-20T12:03:38Z</time>
        <sat>11</sat>
      </trkpt>
      <trkpt lat="42.410171" lon="-2.633222">
        <ele>626.9</ele>
        <time>2019-08-20T12:03:43Z</time>
        <sat>11</sat>
      </trkpt>
      <trkpt lat="42.410206" lon="-2.633300">
        <ele>626.9</ele>
        <time>2019-08-20T12:03:48Z</time>
        <sat>11</sat>
      </trkpt>
      <trkpt lat="42.410304" lon="-2.633443">
        <ele>627.2</ele>
        <time>2019-08-20T12:03:59Z</time>
        <sat>10</sat>
      </trkpt>
      <trkpt lat="42.410404" lon="-2.633538">
        <ele>627.3</ele>
        <time>2019-08-20T12:04:08Z</time>
        <sat>11</sat>
      </trkpt>
      <trkpt lat="42.410507" lon="-2.633625">
        <ele>627.9</ele>
        <time>2019-08-20T12:04:17Z</time>
        <sat>11</sat>
      </trkpt>
      <trkpt lat="42.410556" lon="-2.633654">
        <ele>628.0</ele>
        <time>2019-08-20T12:04:21Z</time>
        <sat>10</sat>
      </trkpt>
      <trkpt lat="42.410611" lon="-2.633710">
        <ele>628.9</ele>
        <time>2019-08-20T12:04:26Z</time>
        <sat>10</sat>
      </trkpt>
      <trkpt lat="42.410763" lon="-2.633838">
        <ele>630.6</ele>
        <time>2019-08-20T12:04:40Z</time>
        <sat>10</sat>
      </trkpt>
      <trkpt lat="42.410848" lon="-2.633896">
        <ele>631.9</ele>
        <time>2019-08-20T12:04:48Z</time>
        <sat>10</sat>
      </trkpt>
      <trkpt lat="42.410895" lon="-2.633939">
        <ele>632.0</ele>
        <time>2019-08-20T12:04:52Z</time>
        <sat>10</sat>
      </trkpt>
      <trkpt lat="42.410942" lon="-2.633965">
        <ele>632.4</ele>
        <time>2019-08-20T12:04:56Z</time>
        <sat>11</sat>
      </trkpt>
      <trkpt lat="42.411060" lon="-2.634069">
        <ele>632.7</ele>
        <time>2019-08-20T12:05:07Z</time>
        <sat>11</sat>
      </trkpt>
      <trkpt lat="42.411095" lon="-2.634118">
        <ele>632.7</ele>
        <time>2019-08-20T12:05:11Z</time>
        <sat>11</sat>
      </trkpt>
      <trkpt lat="42.411155" lon="-2.634215">
        <ele>632.8</ele>
        <time>2019-08-20T12:05:19Z</time>
        <sat>11</sat>
      </trkpt>
      <trkpt lat="42.411208" lon="-2.634359">
        <ele>632.3</ele>
        <time>2019-08-20T12:05:28Z</time>
        <sat>11</sat>
      </trkpt>
      <trkpt lat="42.411237" lon="-2.634476">
        <ele>632.2</ele>
        <time>2019-08-20T12:05:35Z</time>
        <sat>11</sat>
      </trkpt>
      <trkpt lat="42.411273" lon="-2.634660">
        <ele>631.8</ele>
        <time>2019-08-20T12:05:46Z</time>
        <sat>10</sat>
      </trkpt>
      <trkpt lat="42.411317" lon="-2.634716">
        <ele>631.3</ele>
        <time>2019-08-20T12:05:55Z</time>
        <sat>11</sat>
      </trkpt>
      <trkpt lat="42.411340" lon="-2.634798">
        <ele>630.6</ele>
        <time>2019-08-20T12:06:44Z</time>
        <sat>11</sat>
      </trkpt>
      <trkpt lat="42.411365" lon="-2.634977">
        <ele>630.6</ele>
        <time>2019-08-20T12:06:54Z</time>
        <sat>11</sat>
      </trkpt>
      <trkpt lat="42.411366" lon="-2.635015">
        <ele>630.6</ele>
        <time>2019-08-20T12:06:56Z</time>
        <sat>11</sat>
      </trkpt>
      <trkpt lat="42.411391" lon="-2.635243">
        <ele>630.7</ele>
        <time>2019-08-20T12:07:12Z</time>
        <sat>11</sat>
      </trkpt>
      <trkpt lat="42.411405" lon="-2.635439">
        <ele>630.8</ele>
        <time>2019-08-20T12:07:23Z</time>
        <sat>10</sat>
      </trkpt>
      <trkpt lat="42.411403" lon="-2.635512">
        <ele>631.0</ele>
        <time>2019-08-20T12:07:27Z</time>
        <sat>11</sat>
      </trkpt>
      <trkpt lat="42.411415" lon="-2.635621">
        <ele>631.1</ele>
        <time>2019-08-20T12:07:33Z</time>
        <sat>11</sat>
      </trkpt>
      <trkpt lat="42.411414" lon="-2.635695">
        <ele>631.2</ele>
        <time>2019-08-20T12:07:37Z</time>
        <sat>10</sat>
      </trkpt>
      <trkpt lat="42.411432" lon="-2.635819">
        <ele>631.6</ele>
        <time>2019-08-20T12:07:44Z</time>
        <sat>11</sat>
      </trkpt>
      <trkpt lat="42.411433" lon="-2.635895">
        <ele>631.7</ele>
        <time>2019-08-20T12:07:48Z</time>
        <sat>10</sat>
      </trkpt>
      <trkpt lat="42.411450" lon="-2.636058">
        <ele>631.8</ele>
        <time>2019-08-20T12:07:58Z</time>
        <sat>11</sat>
      </trkpt>
      <trkpt lat="42.411467" lon="-2.636174">
        <ele>631.8</ele>
        <time>2019-08-20T12:08:05Z</time>
        <sat>11</sat>
      </trkpt>
      <trkpt lat="42.411470" lon="-2.636287">
        <ele>632.3</ele>
        <time>2019-08-20T12:08:11Z</time>
        <sat>11</sat>
      </trkpt>
      <trkpt lat="42.411480" lon="-2.636342">
        <ele>632.4</ele>
        <time>2019-08-20T12:08:14Z</time>
        <sat>11</sat>
      </trkpt>
      <trkpt lat="42.411499" lon="-2.636555">
        <ele>633.0</ele>
        <time>2019-08-20T12:08:26Z</time>
        <sat>11</sat>
      </trkpt>
      <trkpt lat="42.411506" lon="-2.636703">
        <ele>633.2</ele>
        <time>2019-08-20T12:08:34Z</time>
        <sat>11</sat>
      </trkpt>
      <trkpt lat="42.411499" lon="-2.636864">
        <ele>633.6</ele>
        <time>2019-08-20T12:08:43Z</time>
        <sat>11</sat>
      </trkpt>
      <trkpt lat="42.411479" lon="-2.636972">
        <ele>633.7</ele>
        <time>2019-08-20T12:08:49Z</time>
        <sat>11</sat>
      </trkpt>
      <trkpt lat="42.411476" lon="-2.637024">
        <ele>634.0</ele>
        <time>2019-08-20T12:08:52Z</time>
        <sat>11</sat>
      </trkpt>
      <trkpt lat="42.411444" lon="-2.637178">
        <ele>634.2</ele>
        <time>2019-08-20T12:09:01Z</time>
        <sat>11</sat>
      </trkpt>
      <trkpt lat="42.411443" lon="-2.637310">
        <ele>635.9</ele>
        <time>2019-08-20T12:09:09Z</time>
        <sat>11</sat>
      </trkpt>
      <trkpt lat="42.411436" lon="-2.637543">
        <ele>637.6</ele>
        <time>2019-08-20T12:09:23Z</time>
        <sat>11</sat>
      </trkpt>
      <trkpt lat="42.411431" lon="-2.637614">
        <ele>638.0</ele>
        <time>2019-08-20T12:09:27Z</time>
        <sat>11</sat>
      </trkpt>
      <trkpt lat="42.411441" lon="-2.637752">
        <ele>638.5</ele>
        <time>2019-08-20T12:09:35Z</time>
        <sat>10</sat>
      </trkpt>
      <trkpt lat="42.411451" lon="-2.637803">
        <ele>638.8</ele>
        <time>2019-08-20T12:09:38Z</time>
        <sat>10</sat>
      </trkpt>
      <trkpt lat="42.411455" lon="-2.637875">
        <ele>639.0</ele>
        <time>2019-08-20T12:09:42Z</time>
        <sat>11</sat>
      </trkpt>
      <trkpt lat="42.411489" lon="-2.638084">
        <ele>639.6</ele>
        <time>2019-08-20T12:09:54Z</time>
        <sat>11</sat>
      </trkpt>
      <trkpt lat="42.411495" lon="-2.638268">
        <ele>640.0</ele>
        <time>2019-08-20T12:10:04Z</time>
        <sat>10</sat>
      </trkpt>
      <trkpt lat="42.411488" lon="-2.638408">
        <ele>640.6</ele>
        <time>2019-08-20T12:10:12Z</time>
        <sat>10</sat>
      </trkpt>
      <trkpt lat="42.411471" lon="-2.638528">
        <ele>641.0</ele>
        <time>2019-08-20T12:10:19Z</time>
        <sat>9</sat>
      </trkpt>
      <trkpt lat="42.411444" lon="-2.638614">
        <ele>641.7</ele>
        <time>2019-08-20T12:10:24Z</time>
        <sat>11</sat>
      </trkpt>
      <trkpt lat="42.411392" lon="-2.638852">
        <ele>642.6</ele>
        <time>2019-08-20T12:10:38Z</time>
        <sat>11</sat>
      </trkpt>
      <trkpt lat="42.411388" lon="-2.638920">
        <ele>642.7</ele>
        <time>2019-08-20T12:10:42Z</time>
        <sat>11</sat>
      </trkpt>
      <trkpt lat="42.411371" lon="-2.638989">
        <ele>642.8</ele>
        <time>2019-08-20T12:10:46Z</time>
        <sat>11</sat>
      </trkpt>
      <trkpt lat="42.411352" lon="-2.639227">
        <ele>643.4</ele>
        <time>2019-08-20T12:11:00Z</time>
        <sat>11</sat>
      </trkpt>
      <trkpt lat="42.411347" lon="-2.639413">
        <ele>644.7</ele>
        <time>2019-08-20T12:11:11Z</time>
        <sat>11</sat>
      </trkpt>
      <trkpt lat="42.411347" lon="-2.639480">
        <ele>644.8</ele>
        <time>2019-08-20T12:11:15Z</time>
        <sat>11</sat>
      </trkpt>
      <trkpt lat="42.411335" lon="-2.639549">
        <ele>645.2</ele>
        <time>2019-08-20T12:11:19Z</time>
        <sat>11</sat>
      </trkpt>
      <trkpt lat="42.411313" lon="-2.639763">
        <ele>645.9</ele>
        <time>2019-08-20T12:11:32Z</time>
        <sat>11</sat>
      </trkpt>
      <trkpt lat="42.411312" lon="-2.639828">
        <ele>646.1</ele>
        <time>2019-08-20T12:11:36Z</time>
        <sat>11</sat>
      </trkpt>
      <trkpt lat="42.411288" lon="-2.639920">
        <ele>646.3</ele>
        <time>2019-08-20T12:11:43Z</time>
        <sat>11</sat>
      </trkpt>
      <trkpt lat="42.411299" lon="-2.639927">
        <ele>647.0</ele>
        <time>2019-08-20T12:12:36Z</time>
        <sat>11</sat>
      </trkpt>
      <trkpt lat="42.411306" lon="-2.639936">
        <ele>644.3</ele>
        <time>2019-08-20T12:13:21Z</time>
        <sat>10</sat>
      </trkpt>
      <trkpt lat="42.411321" lon="-2.640050">
        <ele>642.9</ele>
        <time>2019-08-20T12:13:31Z</time>
        <sat>10</sat>
      </trkpt>
      <trkpt lat="42.411317" lon="-2.640252">
        <ele>646.6</ele>
        <time>2019-08-20T12:13:43Z</time>
        <sat>10</sat>
      </trkpt>
      <trkpt lat="42.411335" lon="-2.640464">
        <ele>645.4</ele>
        <time>2019-08-20T12:13:55Z</time>
        <sat>11</sat>
      </trkpt>
      <trkpt lat="42.411333" lon="-2.640519">
        <ele>645.2</ele>
        <time>2019-08-20T12:13:58Z</time>
        <sat>11</sat>
      </trkpt>
      <trkpt lat="42.411350" lon="-2.640604">
        <ele>645.1</ele>
        <time>2019-08-20T12:14:03Z</time>
        <sat>11</sat>
      </trkpt>
      <trkpt lat="42.411351" lon="-2.640676">
        <ele>645.1</ele>
        <time>2019-08-20T12:14:07Z</time>
        <sat>11</sat>
      </trkpt>
      <trkpt lat="42.411365" lon="-2.640778">
        <ele>645.0</ele>
        <time>2019-08-20T12:14:13Z</time>
        <sat>11</sat>
      </trkpt>
      <trkpt lat="42.411364" lon="-2.640934">
        <ele>646.8</ele>
        <time>2019-08-20T12:14:22Z</time>
        <sat>11</sat>
      </trkpt>
      <trkpt lat="42.411368" lon="-2.641039">
        <ele>647.1</ele>
        <time>2019-08-20T12:14:28Z</time>
        <sat>11</sat>
      </trkpt>
      <trkpt lat="42.411361" lon="-2.641111">
        <ele>648.0</ele>
        <time>2019-08-20T12:14:32Z</time>
        <sat>11</sat>
      </trkpt>
      <trkpt lat="42.411362" lon="-2.641164">
        <ele>648.8</ele>
        <time>2019-08-20T12:14:35Z</time>
        <sat>11</sat>
      </trkpt>
      <trkpt lat="42.411348" lon="-2.641299">
        <ele>649.5</ele>
        <time>2019-08-20T12:14:44Z</time>
        <sat>11</sat>
      </trkpt>
      <trkpt lat="42.411351" lon="-2.641329">
        <ele>649.9</ele>
        <time>2019-08-20T12:14:46Z</time>
        <sat>11</sat>
      </trkpt>
      <trkpt lat="42.411327" lon="-2.641419">
        <ele>651.1</ele>
        <time>2019-08-20T12:14:54Z</time>
        <sat>11</sat>
      </trkpt>
      <trkpt lat="42.411321" lon="-2.641553">
        <ele>651.8</ele>
        <time>2019-08-20T12:15:02Z</time>
        <sat>11</sat>
      </trkpt>
      <trkpt lat="42.411325" lon="-2.641616">
        <ele>652.4</ele>
        <time>2019-08-20T12:15:06Z</time>
        <sat>11</sat>
      </trkpt>
      <trkpt lat="42.411350" lon="-2.641674">
        <ele>652.6</ele>
        <time>2019-08-20T12:15:10Z</time>
        <sat>11</sat>
      </trkpt>
      <trkpt lat="42.411364" lon="-2.641773">
        <ele>653.4</ele>
        <time>2019-08-20T12:15:17Z</time>
        <sat>11</sat>
      </trkpt>
      <trkpt lat="42.411421" lon="-2.641953">
        <ele>654.1</ele>
        <time>2019-08-20T12:15:29Z</time>
        <sat>11</sat>
      </trkpt>
      <trkpt lat="42.411512" lon="-2.642066">
        <ele>655.8</ele>
        <time>2019-08-20T12:15:40Z</time>
        <sat>10</sat>
      </trkpt>
      <trkpt lat="42.411572" lon="-2.642166">
        <ele>656.9</ele>
        <time>2019-08-20T12:15:48Z</time>
        <sat>11</sat>
      </trkpt>
      <trkpt lat="42.411591" lon="-2.642235">
        <ele>657.4</ele>
        <time>2019-08-20T12:15:53Z</time>
        <sat>11</sat>
      </trkpt>
      <trkpt lat="42.411647" lon="-2.642304">
        <ele>658.2</ele>
        <time>2019-08-20T12:16:00Z</time>
        <sat>10</sat>
      </trkpt>
      <trkpt lat="42.411734" lon="-2.642489">
        <ele>661.1</ele>
        <time>2019-08-20T12:16:16Z</time>
        <sat>11</sat>
      </trkpt>
      <trkpt lat="42.411761" lon="-2.642521">
        <ele>661.9</ele>
        <time>2019-08-20T12:16:27Z</time>
        <sat>11</sat>
      </trkpt>
      <trkpt lat="42.411866" lon="-2.642617">
        <ele>663.2</ele>
        <time>2019-08-20T12:16:42Z</time>
        <sat>10</sat>
      </trkpt>
      <trkpt lat="42.411980" lon="-2.642721">
        <ele>665.6</ele>
        <time>2019-08-20T12:16:54Z</time>
        <sat>11</sat>
      </trkpt>
      <trkpt lat="42.412009" lon="-2.642724">
        <ele>666.2</ele>
        <time>2019-08-20T12:17:01Z</time>
        <sat>10</sat>
      </trkpt>
      <trkpt lat="42.412042" lon="-2.642806">
        <ele>666.8</ele>
        <time>2019-08-20T12:17:13Z</time>
        <sat>10</sat>
      </trkpt>
      <trkpt lat="42.412051" lon="-2.642894">
        <ele>667.5</ele>
        <time>2019-08-20T12:17:19Z</time>
        <sat>11</sat>
      </trkpt>
      <trkpt lat="42.412065" lon="-2.642957">
        <ele>667.7</ele>
        <time>2019-08-20T12:17:23Z</time>
        <sat>11</sat>
      </trkpt>
      <trkpt lat="42.412143" lon="-2.643086">
        <ele>668.0</ele>
        <time>2019-08-20T12:17:33Z</time>
        <sat>11</sat>
      </trkpt>
      <trkpt lat="42.412220" lon="-2.643196">
        <ele>668.2</ele>
        <time>2019-08-20T12:17:42Z</time>
        <sat>11</sat>
      </trkpt>
      <trkpt lat="42.412252" lon="-2.643239">
        <ele>668.2</ele>
        <time>2019-08-20T12:17:51Z</time>
        <sat>11</sat>
      </trkpt>
      <trkpt lat="42.412277" lon="-2.643285">
        <ele>668.2</ele>
        <time>2019-08-20T12:17:55Z</time>
        <sat>11</sat>
      </trkpt>
      <trkpt lat="42.412307" lon="-2.643398">
        <ele>667.8</ele>
        <time>2019-08-20T12:18:02Z</time>
        <sat>10</sat>
      </trkpt>
      <trkpt lat="42.412392" lon="-2.643593">
        <ele>667.7</ele>
        <time>2019-08-20T12:18:15Z</time>
        <sat>11</sat>
      </trkpt>
      <trkpt lat="42.412461" lon="-2.643765">
        <ele>667.5</ele>
        <time>2019-08-20T12:18:39Z</time>
        <sat>11</sat>
      </trkpt>
      <trkpt lat="42.412471" lon="-2.643864">
        <ele>667.3</ele>
        <time>2019-08-20T12:18:46Z</time>
        <sat>11</sat>
      </trkpt>
      <trkpt lat="42.412456" lon="-2.643975">
        <ele>667.3</ele>
        <time>2019-08-20T12:18:55Z</time>
        <sat>10</sat>
      </trkpt>
      <trkpt lat="42.412436" lon="-2.644034">
        <ele>667.0</ele>
        <time>2019-08-20T12:18:59Z</time>
        <sat>9</sat>
      </trkpt>
      <trkpt lat="42.412397" lon="-2.644241">
        <ele>666.2</ele>
        <time>2019-08-20T12:19:15Z</time>
        <sat>10</sat>
      </trkpt>
      <trkpt lat="42.412380" lon="-2.644363">
        <ele>665.3</ele>
        <time>2019-08-20T12:19:34Z</time>
        <sat>11</sat>
      </trkpt>
      <trkpt lat="42.412368" lon="-2.644503">
        <ele>664.9</ele>
        <time>2019-08-20T12:19:54Z</time>
        <sat>11</sat>
      </trkpt>
      <trkpt lat="42.412367" lon="-2.644578">
        <ele>664.9</ele>
        <time>2019-08-20T12:19:59Z</time>
        <sat>11</sat>
      </trkpt>
      <trkpt lat="42.412399" lon="-2.644797">
        <ele>664.4</ele>
        <time>2019-08-20T12:20:13Z</time>
        <sat>11</sat>
      </trkpt>
      <trkpt lat="42.412410" lon="-2.644951">
        <ele>663.7</ele>
        <time>2019-08-20T12:20:22Z</time>
        <sat>11</sat>
      </trkpt>
      <trkpt lat="42.412410" lon="-2.645035">
        <ele>663.5</ele>
        <time>2019-08-20T12:20:27Z</time>
        <sat>11</sat>
      </trkpt>
      <trkpt lat="42.412419" lon="-2.645082">
        <ele>663.5</ele>
        <time>2019-08-20T12:20:30Z</time>
        <sat>11</sat>
      </trkpt>
      <trkpt lat="42.412419" lon="-2.645185">
        <ele>663.1</ele>
        <time>2019-08-20T12:20:36Z</time>
        <sat>11</sat>
      </trkpt>
      <trkpt lat="42.412440" lon="-2.645429">
        <ele>662.6</ele>
        <time>2019-08-20T12:20:51Z</time>
        <sat>11</sat>
      </trkpt>
      <trkpt lat="42.412461" lon="-2.645518">
        <ele>662.5</ele>
        <time>2019-08-20T12:20:58Z</time>
        <sat>11</sat>
      </trkpt>
      <trkpt lat="42.412466" lon="-2.645582">
        <ele>662.4</ele>
        <time>2019-08-20T12:21:02Z</time>
        <sat>11</sat>
      </trkpt>
      <trkpt lat="42.412470" lon="-2.645623">
        <ele>662.3</ele>
        <time>2019-08-20T12:27:31Z</time>
        <sat>11</sat>
      </trkpt>
      <trkpt lat="42.412474" lon="-2.645691">
        <ele>662.2</ele>
        <time>2019-08-20T12:27:35Z</time>
        <sat>10</sat>
      </trkpt>
      <trkpt lat="42.412453" lon="-2.645943">
        <ele>661.4</ele>
        <time>2019-08-20T12:27:50Z</time>
        <sat>11</sat>
      </trkpt>
      <trkpt lat="42.412465" lon="-2.646194">
        <ele>659.0</ele>
        <time>2019-08-20T12:28:04Z</time>
        <sat>11</sat>
      </trkpt>
      <trkpt lat="42.412464" lon="-2.646329">
        <ele>657.1</ele>
        <time>2019-08-20T12:28:12Z</time>
        <sat>11</sat>
      </trkpt>
      <trkpt lat="42.412472" lon="-2.646441">
        <ele>656.6</ele>
        <time>2019-08-20T12:28:18Z</time>
        <sat>11</sat>
      </trkpt>
      <trkpt lat="42.412471" lon="-2.646638">
        <ele>655.1</ele>
        <time>2019-08-20T12:28:29Z</time>
        <sat>11</sat>
      </trkpt>
      <trkpt lat="42.412487" lon="-2.646839">
        <ele>654.4</ele>
        <time>2019-08-20T12:28:40Z</time>
        <sat>11</sat>
      </trkpt>
      <trkpt lat="42.412503" lon="-2.646947">
        <ele>653.9</ele>
        <time>2019-08-20T12:28:46Z</time>
        <sat>11</sat>
      </trkpt>
      <trkpt lat="42.412525" lon="-2.647019">
        <ele>653.8</ele>
        <time>2019-08-20T12:28:50Z</time>
        <sat>11</sat>
      </trkpt>
      <trkpt lat="42.412543" lon="-2.647127">
        <ele>653.4</ele>
        <time>2019-08-20T12:28:56Z</time>
        <sat>11</sat>
      </trkpt>
      <trkpt lat="42.412565" lon="-2.647303">
        <ele>652.9</ele>
        <time>2019-08-20T12:29:06Z</time>
        <sat>11</sat>
      </trkpt>
      <trkpt lat="42.412567" lon="-2.647434">
        <ele>652.7</ele>
        <time>2019-08-20T12:29:13Z</time>
        <sat>11</sat>
      </trkpt>
      <trkpt lat="42.412585" lon="-2.647602">
        <ele>652.6</ele>
        <time>2019-08-20T12:29:22Z</time>
        <sat>11</sat>
      </trkpt>
      <trkpt lat="42.412581" lon="-2.647750">
        <ele>652.5</ele>
        <time>2019-08-20T12:29:30Z</time>
        <sat>11</sat>
      </trkpt>
      <trkpt lat="42.412596" lon="-2.647933">
        <ele>652.5</ele>
        <time>2019-08-20T12:29:40Z</time>
        <sat>11</sat>
      </trkpt>
      <trkpt lat="42.412627" lon="-2.648073">
        <ele>651.9</ele>
        <time>2019-08-20T12:29:48Z</time>
        <sat>11</sat>
      </trkpt>
      <trkpt lat="42.412636" lon="-2.648155">
        <ele>651.8</ele>
        <time>2019-08-20T12:29:53Z</time>
        <sat>11</sat>
      </trkpt>
      <trkpt lat="42.412680" lon="-2.648309">
        <ele>651.3</ele>
        <time>2019-08-20T12:30:03Z</time>
        <sat>11</sat>
      </trkpt>
      <trkpt lat="42.412697" lon="-2.648335">
        <ele>650.9</ele>
        <time>2019-08-20T12:30:20Z</time>
        <sat>11</sat>
      </trkpt>
      <trkpt lat="42.412681" lon="-2.648357">
        <ele>650.4</ele>
        <time>2019-08-20T12:30:32Z</time>
        <sat>9</sat>
      </trkpt>
      <trkpt lat="42.412683" lon="-2.648464">
        <ele>650.1</ele>
        <time>2019-08-20T12:30:39Z</time>
        <sat>11</sat>
      </trkpt>
      <trkpt lat="42.412644" lon="-2.648585">
        <ele>648.8</ele>
        <time>2019-08-20T12:31:08Z</time>
        <sat>11</sat>
      </trkpt>
      <trkpt lat="42.412567" lon="-2.648626">
        <ele>648.5</ele>
        <time>2019-08-20T12:31:15Z</time>
        <sat>9</sat>
      </trkpt>
      <trkpt lat="42.412508" lon="-2.648677">
        <ele>647.4</ele>
        <time>2019-08-20T12:31:21Z</time>
        <sat>9</sat>
      </trkpt>
      <trkpt lat="42.412392" lon="-2.648851">
        <ele>645.3</ele>
        <time>2019-08-20T12:31:36Z</time>
        <sat>11</sat>
      </trkpt>
      <trkpt lat="42.412321" lon="-2.648992">
        <ele>644.0</ele>
        <time>2019-08-20T12:31:47Z</time>
        <sat>11</sat>
      </trkpt>
      <trkpt lat="42.412249" lon="-2.649148">
        <ele>642.1</ele>
        <time>2019-08-20T12:31:58Z</time>
        <sat>11</sat>
      </trkpt>
      <trkpt lat="42.412168" lon="-2.649289">
        <ele>640.1</ele>
        <time>2019-08-20T12:32:09Z</time>
        <sat>10</sat>
      </trkpt>
      <trkpt lat="42.412121" lon="-2.649340">
        <ele>639.3</ele>
        <time>2019-08-20T12:32:14Z</time>
        <sat>10</sat>
      </trkpt>
      <trkpt lat="42.412031" lon="-2.649453">
        <ele>637.5</ele>
        <time>2019-08-20T12:32:24Z</time>
        <sat>10</sat>
      </trkpt>
      <trkpt lat="42.411928" lon="-2.649528">
        <ele>636.2</ele>
        <time>2019-08-20T12:32:33Z</time>
        <sat>11</sat>
      </trkpt>
      <trkpt lat="42.411857" lon="-2.649564">
        <ele>635.2</ele>
        <time>2019-08-20T12:32:39Z</time>
        <sat>9</sat>
      </trkpt>
      <trkpt lat="42.411812" lon="-2.649598">
        <ele>634.3</ele>
        <time>2019-08-20T12:32:43Z</time>
        <sat>8</sat>
      </trkpt>
      <trkpt lat="42.411709" lon="-2.649704">
        <ele>633.6</ele>
        <time>2019-08-20T12:32:53Z</time>
        <sat>11</sat>
      </trkpt>
      <trkpt lat="42.411667" lon="-2.649758">
        <ele>632.8</ele>
        <time>2019-08-20T12:32:57Z</time>
        <sat>11</sat>
      </trkpt>
      <trkpt lat="42.411621" lon="-2.649797">
        <ele>632.3</ele>
        <time>2019-08-20T12:33:02Z</time>
        <sat>11</sat>
      </trkpt>
      <trkpt lat="42.411573" lon="-2.649817">
        <ele>632.2</ele>
        <time>2019-08-20T12:33:06Z</time>
        <sat>11</sat>
      </trkpt>
      <trkpt lat="42.411505" lon="-2.649864">
        <ele>631.9</ele>
        <time>2019-08-20T12:33:12Z</time>
        <sat>11</sat>
      </trkpt>
      <trkpt lat="42.411467" lon="-2.649908">
        <ele>631.7</ele>
        <time>2019-08-20T12:33:22Z</time>
        <sat>11</sat>
      </trkpt>
      <trkpt lat="42.411418" lon="-2.649948">
        <ele>631.3</ele>
        <time>2019-08-20T12:33:27Z</time>
        <sat>11</sat>
      </trkpt>
      <trkpt lat="42.411377" lon="-2.649971">
        <ele>630.9</ele>
        <time>2019-08-20T12:33:31Z</time>
        <sat>11</sat>
      </trkpt>
      <trkpt lat="42.411307" lon="-2.650041">
        <ele>630.7</ele>
        <time>2019-08-20T12:33:37Z</time>
        <sat>11</sat>
      </trkpt>
      <trkpt lat="42.411183" lon="-2.650208">
        <ele>629.2</ele>
        <time>2019-08-20T12:33:50Z</time>
        <sat>11</sat>
      </trkpt>
      <trkpt lat="42.411133" lon="-2.650306">
        <ele>628.8</ele>
        <time>2019-08-20T12:33:57Z</time>
        <sat>11</sat>
      </trkpt>
      <trkpt lat="42.411107" lon="-2.650386">
        <ele>628.1</ele>
        <time>2019-08-20T12:34:02Z</time>
        <sat>11</sat>
      </trkpt>
      <trkpt lat="42.411096" lon="-2.650454">
        <ele>627.9</ele>
        <time>2019-08-20T12:34:06Z</time>
        <sat>11</sat>
      </trkpt>
      <trkpt lat="42.411101" lon="-2.650523">
        <ele>627.8</ele>
        <time>2019-08-20T12:34:10Z</time>
        <sat>11</sat>
      </trkpt>
      <trkpt lat="42.411144" lon="-2.650590">
        <ele>626.9</ele>
        <time>2019-08-20T12:34:15Z</time>
        <sat>10</sat>
      </trkpt>
      <trkpt lat="42.411242" lon="-2.650667">
        <ele>626.1</ele>
        <time>2019-08-20T12:34:24Z</time>
        <sat>8</sat>
      </trkpt>
      <trkpt lat="42.411246" lon="-2.650874">
        <ele>625.4</ele>
        <time>2019-08-20T12:34:34Z</time>
        <sat>11</sat>
      </trkpt>
      <trkpt lat="42.411237" lon="-2.650928">
        <ele>625.2</ele>
        <time>2019-08-20T12:34:37Z</time>
        <sat>11</sat>
      </trkpt>
      <trkpt lat="42.411167" lon="-2.651059">
        <ele>624.7</ele>
        <time>2019-08-20T12:34:46Z</time>
        <sat>9</sat>
      </trkpt>
      <trkpt lat="42.411149" lon="-2.651101">
        <ele>624.4</ele>
        <time>2019-08-20T12:34:49Z</time>
        <sat>10</sat>
      </trkpt>
      <trkpt lat="42.411084" lon="-2.651187">
        <ele>624.1</ele>
        <time>2019-08-20T12:34:56Z</time>
        <sat>11</sat>
      </trkpt>
      <trkpt lat="42.411035" lon="-2.651326">
        <ele>623.4</ele>
        <time>2019-08-20T12:35:05Z</time>
        <sat>11</sat>
      </trkpt>
      <trkpt lat="42.411006" lon="-2.651524">
        <ele>623.0</ele>
        <time>2019-08-20T12:35:16Z</time>
        <sat>11</sat>
      </trkpt>
      <trkpt lat="42.410983" lon="-2.651612">
        <ele>622.5</ele>
        <time>2019-08-20T12:35:21Z</time>
        <sat>11</sat>
      </trkpt>
      <trkpt lat="42.410971" lon="-2.651704">
        <ele>622.4</ele>
        <time>2019-08-20T12:35:26Z</time>
        <sat>11</sat>
      </trkpt>
      <trkpt lat="42.410935" lon="-2.651863">
        <ele>622.5</ele>
        <time>2019-08-20T12:35:35Z</time>
        <sat>11</sat>
      </trkpt>
      <trkpt lat="42.410918" lon="-2.652032">
        <ele>622.6</ele>
        <time>2019-08-20T12:35:44Z</time>
        <sat>11</sat>
      </trkpt>
      <trkpt lat="42.410930" lon="-2.652213">
        <ele>623.6</ele>
        <time>2019-08-20T12:35:54Z</time>
        <sat>11</sat>
      </trkpt>
      <trkpt lat="42.410954" lon="-2.652420">
        <ele>624.2</ele>
        <time>2019-08-20T12:36:06Z</time>
        <sat>11</sat>
      </trkpt>
      <trkpt lat="42.410964" lon="-2.652563">
        <ele>624.7</ele>
        <time>2019-08-20T12:36:14Z</time>
        <sat>11</sat>
      </trkpt>
      <trkpt lat="42.410963" lon="-2.652802">
        <ele>625.0</ele>
        <time>2019-08-20T12:36:27Z</time>
        <sat>11</sat>
      </trkpt>
      <trkpt lat="42.410955" lon="-2.652962">
        <ele>625.1</ele>
        <time>2019-08-20T12:36:36Z</time>
        <sat>11</sat>
      </trkpt>
      <trkpt lat="42.410919" lon="-2.653182">
        <ele>624.5</ele>
        <time>2019-08-20T12:36:49Z</time>
        <sat>11</sat>
      </trkpt>
      <trkpt lat="42.410861" lon="-2.653361">
        <ele>622.9</ele>
        <time>2019-08-20T12:37:00Z</time>
        <sat>11</sat>
      </trkpt>
      <trkpt lat="42.410817" lon="-2.653470">
        <ele>622.6</ele>
        <time>2019-08-20T12:37:07Z</time>
        <sat>11</sat>
      </trkpt>
      <trkpt lat="42.410796" lon="-2.653552">
        <ele>622.1</ele>
        <time>2019-08-20T12:37:12Z</time>
        <sat>11</sat>
      </trkpt>
      <trkpt lat="42.410764" lon="-2.653628">
        <ele>621.9</ele>
        <time>2019-08-20T12:37:17Z</time>
        <sat>10</sat>
      </trkpt>
      <trkpt lat="42.410700" lon="-2.653840">
        <ele>621.1</ele>
        <time>2019-08-20T12:37:30Z</time>
        <sat>11</sat>
      </trkpt>
      <trkpt lat="42.410691" lon="-2.653913">
        <ele>621.0</ele>
        <time>2019-08-20T12:37:34Z</time>
        <sat>9</sat>
      </trkpt>
      <trkpt lat="42.410681" lon="-2.654112">
        <ele>620.6</ele>
        <time>2019-08-20T12:37:45Z</time>
        <sat>11</sat>
      </trkpt>
      <trkpt lat="42.410684" lon="-2.654243">
        <ele>620.4</ele>
        <time>2019-08-20T12:37:52Z</time>
        <sat>11</sat>
      </trkpt>
      <trkpt lat="42.410679" lon="-2.654339">
        <ele>620.4</ele>
        <time>2019-08-20T12:37:57Z</time>
        <sat>11</sat>
      </trkpt>
      <trkpt lat="42.410682" lon="-2.654584">
        <ele>620.5</ele>
        <time>2019-08-20T12:38:10Z</time>
        <sat>11</sat>
      </trkpt>
      <trkpt lat="42.410692" lon="-2.654818">
        <ele>619.7</ele>
        <time>2019-08-20T12:38:24Z</time>
        <sat>9</sat>
      </trkpt>
      <trkpt lat="42.410691" lon="-2.654922">
        <ele>619.2</ele>
        <time>2019-08-20T12:38:30Z</time>
        <sat>11</sat>
      </trkpt>
      <trkpt lat="42.410705" lon="-2.655050">
        <ele>618.7</ele>
        <time>2019-08-20T12:38:37Z</time>
        <sat>11</sat>
      </trkpt>
      <trkpt lat="42.410703" lon="-2.655177">
        <ele>618.5</ele>
        <time>2019-08-20T12:38:44Z</time>
        <sat>11</sat>
      </trkpt>
      <trkpt lat="42.410737" lon="-2.655453">
        <ele>617.9</ele>
        <time>2019-08-20T12:38:59Z</time>
        <sat>11</sat>
      </trkpt>
      <trkpt lat="42.410748" lon="-2.655505">
        <ele>618.0</ele>
        <time>2019-08-20T12:39:02Z</time>
        <sat>11</sat>
      </trkpt>
      <trkpt lat="42.410747" lon="-2.655597">
        <ele>618.0</ele>
        <time>2019-08-20T12:39:07Z</time>
        <sat>11</sat>
      </trkpt>
      <trkpt lat="42.410762" lon="-2.655661">
        <ele>618.0</ele>
        <time>2019-08-20T12:39:11Z</time>
        <sat>11</sat>
      </trkpt>
      <trkpt lat="42.410792" lon="-2.655905">
        <ele>617.2</ele>
        <time>2019-08-20T12:39:25Z</time>
        <sat>11</sat>
      </trkpt>
      <trkpt lat="42.410801" lon="-2.656053">
        <ele>617.2</ele>
        <time>2019-08-20T12:39:33Z</time>
        <sat>11</sat>
      </trkpt>
      <trkpt lat="42.410812" lon="-2.656121">
        <ele>617.4</ele>
        <time>2019-08-20T12:39:37Z</time>
        <sat>11</sat>
      </trkpt>
      <trkpt lat="42.410816" lon="-2.656194">
        <ele>617.4</ele>
        <time>2019-08-20T12:39:41Z</time>
        <sat>11</sat>
      </trkpt>
      <trkpt lat="42.410848" lon="-2.656354">
        <ele>618.1</ele>
        <time>2019-08-20T12:39:51Z</time>
        <sat>11</sat>
      </trkpt>
      <trkpt lat="42.410853" lon="-2.656446">
        <ele>618.4</ele>
        <time>2019-08-20T12:39:56Z</time>
        <sat>11</sat>
      </trkpt>
      <trkpt lat="42.410867" lon="-2.656521">
        <ele>618.5</ele>
        <time>2019-08-20T12:40:00Z</time>
        <sat>11</sat>
      </trkpt>
      <trkpt lat="42.410877" lon="-2.656702">
        <ele>618.3</ele>
        <time>2019-08-20T12:40:10Z</time>
        <sat>11</sat>
      </trkpt>
      <trkpt lat="42.410902" lon="-2.656948">
        <ele>617.8</ele>
        <time>2019-08-20T12:40:24Z</time>
        <sat>11</sat>
      </trkpt>
      <trkpt lat="42.410910" lon="-2.657094">
        <ele>617.7</ele>
        <time>2019-08-20T12:40:32Z</time>
        <sat>11</sat>
      </trkpt>
      <trkpt lat="42.410929" lon="-2.657201">
        <ele>617.5</ele>
        <time>2019-08-20T12:40:38Z</time>
        <sat>11</sat>
      </trkpt>
      <trkpt lat="42.410962" lon="-2.657468">
        <ele>617.2</ele>
        <time>2019-08-20T12:40:53Z</time>
        <sat>11</sat>
      </trkpt>
      <trkpt lat="42.410992" lon="-2.657721">
        <ele>616.9</ele>
        <time>2019-08-20T12:41:07Z</time>
        <sat>11</sat>
      </trkpt>
      <trkpt lat="42.410996" lon="-2.657799">
        <ele>616.8</ele>
        <time>2019-08-20T12:41:11Z</time>
        <sat>11</sat>
      </trkpt>
      <trkpt lat="42.411037" lon="-2.658032">
        <ele>616.8</ele>
        <time>2019-08-20T12:41:24Z</time>
        <sat>10</sat>
      </trkpt>
      <trkpt lat="42.411078" lon="-2.658275">
        <ele>616.6</ele>
        <time>2019-08-20T12:41:38Z</time>
        <sat>11</sat>
      </trkpt>
      <trkpt lat="42.411091" lon="-2.658323">
        <ele>616.6</ele>
        <time>2019-08-20T12:41:41Z</time>
        <sat>11</sat>
      </trkpt>
      <trkpt lat="42.411104" lon="-2.658430">
        <ele>616.5</ele>
        <time>2019-08-20T12:41:47Z</time>
        <sat>11</sat>
      </trkpt>
      <trkpt lat="42.411136" lon="-2.658643">
        <ele>616.4</ele>
        <time>2019-08-20T12:41:59Z</time>
        <sat>11</sat>
      </trkpt>
      <trkpt lat="42.411144" lon="-2.658678">
        <ele>616.3</ele>
        <time>2019-08-20T12:42:01Z</time>
        <sat>11</sat>
      </trkpt>
      <trkpt lat="42.411175" lon="-2.658898">
        <ele>616.0</ele>
        <time>2019-08-20T12:42:14Z</time>
        <sat>11</sat>
      </trkpt>
      <trkpt lat="42.411180" lon="-2.659010">
        <ele>615.8</ele>
        <time>2019-08-20T12:42:20Z</time>
        <sat>11</sat>
      </trkpt>
      <trkpt lat="42.411204" lon="-2.659189">
        <ele>615.4</ele>
        <time>2019-08-20T12:42:30Z</time>
        <sat>11</sat>
      </trkpt>
      <trkpt lat="42.411241" lon="-2.659416">
        <ele>615.1</ele>
        <time>2019-08-20T12:42:43Z</time>
        <sat>11</sat>
      </trkpt>
      <trkpt lat="42.411244" lon="-2.659451">
        <ele>615.0</ele>
        <time>2019-08-20T12:42:45Z</time>
        <sat>11</sat>
      </trkpt>
      <trkpt lat="42.411262" lon="-2.659538">
        <ele>614.9</ele>
        <time>2019-08-20T12:42:50Z</time>
        <sat>11</sat>
      </trkpt>
      <trkpt lat="42.411278" lon="-2.659665">
        <ele>614.9</ele>
        <time>2019-08-20T12:42:57Z</time>
        <sat>11</sat>
      </trkpt>
      <trkpt lat="42.411287" lon="-2.659698">
        <ele>614.8</ele>
        <time>2019-08-20T12:42:59Z</time>
        <sat>11</sat>
      </trkpt>
      <trkpt lat="42.411319" lon="-2.659943">
        <ele>614.6</ele>
        <time>2019-08-20T12:43:13Z</time>
        <sat>11</sat>
      </trkpt>
      <trkpt lat="42.411319" lon="-2.660014">
        <ele>614.4</ele>
        <time>2019-08-20T12:43:17Z</time>
        <sat>11</sat>
      </trkpt>
      <trkpt lat="42.411332" lon="-2.660119">
        <ele>614.2</ele>
        <time>2019-08-20T12:43:23Z</time>
        <sat>11</sat>
      </trkpt>
      <trkpt lat="42.411329" lon="-2.660245">
        <ele>614.1</ele>
        <time>2019-08-20T12:43:30Z</time>
        <sat>11</sat>
      </trkpt>
      <trkpt lat="42.411340" lon="-2.660352">
        <ele>613.9</ele>
        <time>2019-08-20T12:43:36Z</time>
        <sat>11</sat>
      </trkpt>
      <trkpt lat="42.411339" lon="-2.660481">
        <ele>613.8</ele>
        <time>2019-08-20T12:43:43Z</time>
        <sat>11</sat>
      </trkpt>
      <trkpt lat="42.411353" lon="-2.660554">
        <ele>613.8</ele>
        <time>2019-08-20T12:43:47Z</time>
        <sat>11</sat>
      </trkpt>
      <trkpt lat="42.411356" lon="-2.660683">
        <ele>613.8</ele>
        <time>2019-08-20T12:43:54Z</time>
        <sat>11</sat>
      </trkpt>
      <trkpt lat="42.411367" lon="-2.660755">
        <ele>613.7</ele>
        <time>2019-08-20T12:43:58Z</time>
        <sat>11</sat>
      </trkpt>
      <trkpt lat="42.411374" lon="-2.660897">
        <ele>613.6</ele>
        <time>2019-08-20T12:44:06Z</time>
        <sat>11</sat>
      </trkpt>
      <trkpt lat="42.411389" lon="-2.660984">
        <ele>613.6</ele>
        <time>2019-08-20T12:44:11Z</time>
        <sat>11</sat>
      </trkpt>
      <trkpt lat="42.411391" lon="-2.661057">
        <ele>613.6</ele>
        <time>2019-08-20T12:44:15Z</time>
        <sat>11</sat>
      </trkpt>
      <trkpt lat="42.411415" lon="-2.661232">
        <ele>613.5</ele>
        <time>2019-08-20T12:44:25Z</time>
        <sat>11</sat>
      </trkpt>
      <trkpt lat="42.411424" lon="-2.661396">
        <ele>613.5</ele>
        <time>2019-08-20T12:44:34Z</time>
        <sat>11</sat>
      </trkpt>
      <trkpt lat="42.411424" lon="-2.661617">
        <ele>613.2</ele>
        <time>2019-08-20T12:44:46Z</time>
        <sat>11</sat>
      </trkpt>
      <trkpt lat="42.411416" lon="-2.661716">
        <ele>613.2</ele>
        <time>2019-08-20T12:44:51Z</time>
        <sat>11</sat>
      </trkpt>
      <trkpt lat="42.411424" lon="-2.661788">
        <ele>613.3</ele>
        <time>2019-08-20T12:44:55Z</time>
        <sat>11</sat>
      </trkpt>
      <trkpt lat="42.411421" lon="-2.661858">
        <ele>613.3</ele>
        <time>2019-08-20T12:44:59Z</time>
        <sat>11</sat>
      </trkpt>
      <trkpt lat="42.411443" lon="-2.661980">
        <ele>613.3</ele>
        <time>2019-08-20T12:45:06Z</time>
        <sat>11</sat>
      </trkpt>
      <trkpt lat="42.411443" lon="-2.662107">
        <ele>613.4</ele>
        <time>2019-08-20T12:45:13Z</time>
        <sat>11</sat>
      </trkpt>
      <trkpt lat="42.411449" lon="-2.662178">
        <ele>613.4</ele>
        <time>2019-08-20T12:45:17Z</time>
        <sat>11</sat>
      </trkpt>
      <trkpt lat="42.411430" lon="-2.662379">
        <ele>613.6</ele>
        <time>2019-08-20T12:45:28Z</time>
        <sat>11</sat>
      </trkpt>
      <trkpt lat="42.411376" lon="-2.662589">
        <ele>614.3</ele>
        <time>2019-08-20T12:45:40Z</time>
        <sat>11</sat>
      </trkpt>
      <trkpt lat="42.411370" lon="-2.662627">
        <ele>614.5</ele>
        <time>2019-08-20T12:45:42Z</time>
        <sat>11</sat>
      </trkpt>
      <trkpt lat="42.411381" lon="-2.662772">
        <ele>614.8</ele>
        <time>2019-08-20T12:45:50Z</time>
        <sat>11</sat>
      </trkpt>
      <trkpt lat="42.411393" lon="-2.662879">
        <ele>615.1</ele>
        <time>2019-08-20T12:45:56Z</time>
        <sat>11</sat>
      </trkpt>
      <trkpt lat="42.411393" lon="-2.662992">
        <ele>615.4</ele>
        <time>2019-08-20T12:46:02Z</time>
        <sat>11</sat>
      </trkpt>
      <trkpt lat="42.411407" lon="-2.663064">
        <ele>615.4</ele>
        <time>2019-08-20T12:46:06Z</time>
        <sat>11</sat>
      </trkpt>
      <trkpt lat="42.411410" lon="-2.663151">
        <ele>615.5</ele>
        <time>2019-08-20T12:46:11Z</time>
        <sat>11</sat>
      </trkpt>
      <trkpt lat="42.411439" lon="-2.663357">
        <ele>615.5</ele>
        <time>2019-08-20T12:46:23Z</time>
        <sat>11</sat>
      </trkpt>
      <trkpt lat="42.411474" lon="-2.663533">
        <ele>614.7</ele>
        <time>2019-08-20T12:46:34Z</time>
        <sat>11</sat>
      </trkpt>
      <trkpt lat="42.411531" lon="-2.663698">
        <ele>613.7</ele>
        <time>2019-08-20T12:46:45Z</time>
        <sat>11</sat>
      </trkpt>
      <trkpt lat="42.411621" lon="-2.663874">
        <ele>612.8</ele>
        <time>2019-08-20T12:46:58Z</time>
        <sat>11</sat>
      </trkpt>
      <trkpt lat="42.411680" lon="-2.664027">
        <ele>611.6</ele>
        <time>2019-08-20T12:47:10Z</time>
        <sat>11</sat>
      </trkpt>
      <trkpt lat="42.411694" lon="-2.664291">
        <ele>610.5</ele>
        <time>2019-08-20T12:47:25Z</time>
        <sat>11</sat>
      </trkpt>
      <trkpt lat="42.411700" lon="-2.664416">
        <ele>610.2</ele>
        <time>2019-08-20T12:47:32Z</time>
        <sat>11</sat>
      </trkpt>
      <trkpt lat="42.411731" lon="-2.664639">
        <ele>609.2</ele>
        <time>2019-08-20T12:47:54Z</time>
        <sat>11</sat>
      </trkpt>
      <trkpt lat="42.411738" lon="-2.664802">
        <ele>608.9</ele>
        <time>2019-08-20T12:48:03Z</time>
        <sat>11</sat>
      </trkpt>
      <trkpt lat="42.411754" lon="-2.664893">
        <ele>608.5</ele>
        <time>2019-08-20T12:48:08Z</time>
        <sat>11</sat>
      </trkpt>
      <trkpt lat="42.411762" lon="-2.665033">
        <ele>608.4</ele>
        <time>2019-08-20T12:48:16Z</time>
        <sat>11</sat>
      </trkpt>
      <trkpt lat="42.411782" lon="-2.665214">
        <ele>607.2</ele>
        <time>2019-08-20T12:48:26Z</time>
        <sat>11</sat>
      </trkpt>
      <trkpt lat="42.411794" lon="-2.665308">
        <ele>606.2</ele>
        <time>2019-08-20T12:48:41Z</time>
        <sat>11</sat>
      </trkpt>
      <trkpt lat="42.411825" lon="-2.665556">
        <ele>605.5</ele>
        <time>2019-08-20T12:48:55Z</time>
        <sat>11</sat>
      </trkpt>
      <trkpt lat="42.411837" lon="-2.665685">
        <ele>605.3</ele>
        <time>2019-08-20T12:49:02Z</time>
        <sat>11</sat>
      </trkpt>
      <trkpt lat="42.411852" lon="-2.665740">
        <ele>605.2</ele>
        <time>2019-08-20T12:49:05Z</time>
        <sat>11</sat>
      </trkpt>
      <trkpt lat="42.411878" lon="-2.665878">
        <ele>604.6</ele>
        <time>2019-08-20T12:49:13Z</time>
        <sat>11</sat>
      </trkpt>
      <trkpt lat="42.411907" lon="-2.665987">
        <ele>604.5</ele>
        <time>2019-08-20T12:49:19Z</time>
        <sat>11</sat>
      </trkpt>
      <trkpt lat="42.411935" lon="-2.666165">
        <ele>603.5</ele>
        <time>2019-08-20T12:49:29Z</time>
        <sat>11</sat>
      </trkpt>
      <trkpt lat="42.411968" lon="-2.666359">
        <ele>603.0</ele>
        <time>2019-08-20T12:49:40Z</time>
        <sat>11</sat>
      </trkpt>
      <trkpt lat="42.411986" lon="-2.666428">
        <ele>602.8</ele>
        <time>2019-08-20T12:49:44Z</time>
        <sat>11</sat>
      </trkpt>
      <trkpt lat="42.412008" lon="-2.666562">
        <ele>602.7</ele>
        <time>2019-08-20T12:49:52Z</time>
        <sat>11</sat>
      </trkpt>
      <trkpt lat="42.412037" lon="-2.666686">
        <ele>602.1</ele>
        <time>2019-08-20T12:49:59Z</time>
        <sat>11</sat>
      </trkpt>
      <trkpt lat="42.412078" lon="-2.666895">
        <ele>601.8</ele>
        <time>2019-08-20T12:50:11Z</time>
        <sat>11</sat>
      </trkpt>
      <trkpt lat="42.412120" lon="-2.667126">
        <ele>601.5</ele>
        <time>2019-08-20T12:50:24Z</time>
        <sat>11</sat>
      </trkpt>
      <trkpt lat="42.412149" lon="-2.667328">
        <ele>601.1</ele>
        <time>2019-08-20T12:50:35Z</time>
        <sat>11</sat>
      </trkpt>
      <trkpt lat="42.412175" lon="-2.667543">
        <ele>600.7</ele>
        <time>2019-08-20T12:50:47Z</time>
        <sat>11</sat>
      </trkpt>
      <trkpt lat="42.412196" lon="-2.667605">
        <ele>600.6</ele>
        <time>2019-08-20T12:50:51Z</time>
        <sat>11</sat>
      </trkpt>
      <trkpt lat="42.412229" lon="-2.667779">
        <ele>600.5</ele>
        <time>2019-08-20T12:51:01Z</time>
        <sat>11</sat>
      </trkpt>
      <trkpt lat="42.412291" lon="-2.667822">
        <ele>600.4</ele>
        <time>2019-08-20T12:51:09Z</time>
        <sat>11</sat>
      </trkpt>
      <trkpt lat="42.412270" lon="-2.667839">
        <ele>599.3</ele>
        <time>2019-08-20T12:51:49Z</time>
        <sat>11</sat>
      </trkpt>
      <trkpt lat="42.412268" lon="-2.667870">
        <ele>599.3</ele>
        <time>2019-08-20T12:51:51Z</time>
        <sat>11</sat>
      </trkpt>
      <trkpt lat="42.412292" lon="-2.668003">
        <ele>599.2</ele>
        <time>2019-08-20T12:51:59Z</time>
        <sat>11</sat>
      </trkpt>
      <trkpt lat="42.412304" lon="-2.668038">
        <ele>599.2</ele>
        <time>2019-08-20T12:52:01Z</time>
        <sat>10</sat>
      </trkpt>
      <trkpt lat="42.412335" lon="-2.668229">
        <ele>599.1</ele>
        <time>2019-08-20T12:52:12Z</time>
        <sat>11</sat>
      </trkpt>
      <trkpt lat="42.412377" lon="-2.668392">
        <ele>599.0</ele>
        <time>2019-08-20T12:52:21Z</time>
        <sat>11</sat>
      </trkpt>
      <trkpt lat="42.412376" lon="-2.668466">
        <ele>598.9</ele>
        <time>2019-08-20T12:52:25Z</time>
        <sat>11</sat>
      </trkpt>
      <trkpt lat="42.412405" lon="-2.668570">
        <ele>598.9</ele>
        <time>2019-08-20T12:52:31Z</time>
        <sat>11</sat>
      </trkpt>
      <trkpt lat="42.412440" lon="-2.668729">
        <ele>598.9</ele>
        <time>2019-08-20T12:52:40Z</time>
        <sat>11</sat>
      </trkpt>
      <trkpt lat="42.412484" lon="-2.668882">
        <ele>598.9</ele>
        <time>2019-08-20T12:52:49Z</time>
        <sat>11</sat>
      </trkpt>
      <trkpt lat="42.412510" lon="-2.668942">
        <ele>598.7</ele>
        <time>2019-08-20T12:52:54Z</time>
        <sat>11</sat>
      </trkpt>
      <trkpt lat="42.412525" lon="-2.669010">
        <ele>598.7</ele>
        <time>2019-08-20T12:53:18Z</time>
        <sat>11</sat>
      </trkpt>
      <trkpt lat="42.412581" lon="-2.669173">
        <ele>598.4</ele>
        <time>2019-08-20T12:53:28Z</time>
        <sat>11</sat>
      </trkpt>
      <trkpt lat="42.412620" lon="-2.669337">
        <ele>598.2</ele>
        <time>2019-08-20T12:53:37Z</time>
        <sat>11</sat>
      </trkpt>
      <trkpt lat="42.412696" lon="-2.669532">
        <ele>597.7</ele>
        <time>2019-08-20T12:53:50Z</time>
        <sat>11</sat>
      </trkpt>
      <trkpt lat="42.412701" lon="-2.669568">
        <ele>597.7</ele>
        <time>2019-08-20T12:53:52Z</time>
        <sat>11</sat>
      </trkpt>
      <trkpt lat="42.412739" lon="-2.669723">
        <ele>597.5</ele>
        <time>2019-08-20T12:54:08Z</time>
        <sat>11</sat>
      </trkpt>
      <trkpt lat="42.412785" lon="-2.669839">
        <ele>597.5</ele>
        <time>2019-08-20T12:54:15Z</time>
        <sat>11</sat>
      </trkpt>
      <trkpt lat="42.412818" lon="-2.669977">
        <ele>597.5</ele>
        <time>2019-08-20T12:54:23Z</time>
        <sat>11</sat>
      </trkpt>
      <trkpt lat="42.412836" lon="-2.670027">
        <ele>597.3</ele>
        <time>2019-08-20T12:54:26Z</time>
        <sat>11</sat>
      </trkpt>
      <trkpt lat="42.412881" lon="-2.670182">
        <ele>597.1</ele>
        <time>2019-08-20T12:54:36Z</time>
        <sat>11</sat>
      </trkpt>
      <trkpt lat="42.412914" lon="-2.670319">
        <ele>597.0</ele>
        <time>2019-08-20T12:54:44Z</time>
        <sat>11</sat>
      </trkpt>
      <trkpt lat="42.412940" lon="-2.670379">
        <ele>596.9</ele>
        <time>2019-08-20T12:54:48Z</time>
        <sat>11</sat>
      </trkpt>
      <trkpt lat="42.412957" lon="-2.670447">
        <ele>596.9</ele>
        <time>2019-08-20T12:54:52Z</time>
        <sat>11</sat>
      </trkpt>
      <trkpt lat="42.412998" lon="-2.670551">
        <ele>596.6</ele>
        <time>2019-08-20T12:54:58Z</time>
        <sat>11</sat>
      </trkpt>
      <trkpt lat="42.413040" lon="-2.670701">
        <ele>596.2</ele>
        <time>2019-08-20T12:55:07Z</time>
        <sat>11</sat>
      </trkpt>
      <trkpt lat="42.413081" lon="-2.670791">
        <ele>595.7</ele>
        <time>2019-08-20T12:55:13Z</time>
        <sat>11</sat>
      </trkpt>
      <trkpt lat="42.413106" lon="-2.670898">
        <ele>595.0</ele>
        <time>2019-08-20T12:55:19Z</time>
        <sat>11</sat>
      </trkpt>
      <trkpt lat="42.413143" lon="-2.670991">
        <ele>594.8</ele>
        <time>2019-08-20T12:55:25Z</time>
        <sat>11</sat>
      </trkpt>
      <trkpt lat="42.413221" lon="-2.671204">
        <ele>593.9</ele>
        <time>2019-08-20T12:55:39Z</time>
        <sat>11</sat>
      </trkpt>
      <trkpt lat="42.413216" lon="-2.671216">
        <ele>593.6</ele>
        <time>2019-08-20T12:55:53Z</time>
        <sat>11</sat>
      </trkpt>
      <trkpt lat="42.413262" lon="-2.671331">
        <ele>593.3</ele>
        <time>2019-08-20T12:56:00Z</time>
        <sat>11</sat>
      </trkpt>
      <trkpt lat="42.413287" lon="-2.671429">
        <ele>592.5</ele>
        <time>2019-08-20T12:56:06Z</time>
        <sat>11</sat>
      </trkpt>
      <trkpt lat="42.413293" lon="-2.671497">
        <ele>592.3</ele>
        <time>2019-08-20T12:56:10Z</time>
        <sat>11</sat>
      </trkpt>
      <trkpt lat="42.413309" lon="-2.671586">
        <ele>592.2</ele>
        <time>2019-08-20T12:56:15Z</time>
        <sat>11</sat>
      </trkpt>
      <trkpt lat="42.413327" lon="-2.671743">
        <ele>591.5</ele>
        <time>2019-08-20T12:56:24Z</time>
        <sat>11</sat>
      </trkpt>
      <trkpt lat="42.413364" lon="-2.671948">
        <ele>590.5</ele>
        <time>2019-08-20T12:56:36Z</time>
        <sat>11</sat>
      </trkpt>
      <trkpt lat="42.413384" lon="-2.672038">
        <ele>590.2</ele>
        <time>2019-08-20T12:56:41Z</time>
        <sat>11</sat>
      </trkpt>
      <trkpt lat="42.413407" lon="-2.672267">
        <ele>589.0</ele>
        <time>2019-08-20T12:56:54Z</time>
        <sat>10</sat>
      </trkpt>
      <trkpt lat="42.413408" lon="-2.672488">
        <ele>588.1</ele>
        <time>2019-08-20T12:57:07Z</time>
        <sat>11</sat>
      </trkpt>
      <trkpt lat="42.413400" lon="-2.672536">
        <ele>587.9</ele>
        <time>2019-08-20T12:57:10Z</time>
        <sat>11</sat>
      </trkpt>
      <trkpt lat="42.413392" lon="-2.672710">
        <ele>586.2</ele>
        <time>2019-08-20T12:57:30Z</time>
        <sat>11</sat>
      </trkpt>
      <trkpt lat="42.413402" lon="-2.672778">
        <ele>586.1</ele>
        <time>2019-08-20T12:57:34Z</time>
        <sat>11</sat>
      </trkpt>
      <trkpt lat="42.413438" lon="-2.672879">
        <ele>584.2</ele>
        <time>2019-08-20T12:57:40Z</time>
        <sat>11</sat>
      </trkpt>
      <trkpt lat="42.413473" lon="-2.673068">
        <ele>583.2</ele>
        <time>2019-08-20T12:57:51Z</time>
        <sat>11</sat>
      </trkpt>
      <trkpt lat="42.413491" lon="-2.673122">
        <ele>582.5</ele>
        <time>2019-08-20T12:57:54Z</time>
        <sat>10</sat>
      </trkpt>
      <trkpt lat="42.413525" lon="-2.673261">
        <ele>581.8</ele>
        <time>2019-08-20T12:58:02Z</time>
        <sat>11</sat>
      </trkpt>
      <trkpt lat="42.413587" lon="-2.673432">
        <ele>581.0</ele>
        <time>2019-08-20T12:58:20Z</time>
        <sat>11</sat>
      </trkpt>
      <trkpt lat="42.413623" lon="-2.673618">
        <ele>580.2</ele>
        <time>2019-08-20T12:58:31Z</time>
        <sat>11</sat>
      </trkpt>
      <trkpt lat="42.413661" lon="-2.673854">
        <ele>579.8</ele>
        <time>2019-08-20T12:58:44Z</time>
        <sat>11</sat>
      </trkpt>
      <trkpt lat="42.413652" lon="-2.674000">
        <ele>579.7</ele>
        <time>2019-08-20T12:58:52Z</time>
        <sat>11</sat>
      </trkpt>
      <trkpt lat="42.413654" lon="-2.674035">
        <ele>579.7</ele>
        <time>2019-08-20T12:58:54Z</time>
        <sat>11</sat>
      </trkpt>
      <trkpt lat="42.413640" lon="-2.674162">
        <ele>579.7</ele>
        <time>2019-08-20T12:59:01Z</time>
        <sat>11</sat>
      </trkpt>
      <trkpt lat="42.413647" lon="-2.674216">
        <ele>579.7</ele>
        <time>2019-08-20T12:59:04Z</time>
        <sat>11</sat>
      </trkpt>
      <trkpt lat="42.413637" lon="-2.674328">
        <ele>579.7</ele>
        <time>2019-08-20T12:59:10Z</time>
        <sat>11</sat>
      </trkpt>
      <trkpt lat="42.413658" lon="-2.674525">
        <ele>580.1</ele>
        <time>2019-08-20T12:59:21Z</time>
        <sat>11</sat>
      </trkpt>
      <trkpt lat="42.413675" lon="-2.674574">
        <ele>580.1</ele>
        <time>2019-08-20T12:59:24Z</time>
        <sat>11</sat>
      </trkpt>
      <trkpt lat="42.413681" lon="-2.674665">
        <ele>580.4</ele>
        <time>2019-08-20T12:59:29Z</time>
        <sat>11</sat>
      </trkpt>
      <trkpt lat="42.413745" lon="-2.674861">
        <ele>580.6</ele>
        <time>2019-08-20T12:59:41Z</time>
        <sat>11</sat>
      </trkpt>
      <trkpt lat="42.413765" lon="-2.674908">
        <ele>580.9</ele>
        <time>2019-08-20T12:59:44Z</time>
        <sat>11</sat>
      </trkpt>
      <trkpt lat="42.413787" lon="-2.675002">
        <ele>581.2</ele>
        <time>2019-08-20T12:59:49Z</time>
        <sat>11</sat>
      </trkpt>
      <trkpt lat="42.413825" lon="-2.675096">
        <ele>581.4</ele>
        <time>2019-08-20T12:59:55Z</time>
        <sat>11</sat>
      </trkpt>
      <trkpt lat="42.413844" lon="-2.675170">
        <ele>581.5</ele>
        <time>2019-08-20T12:59:59Z</time>
        <sat>11</sat>
      </trkpt>
      <trkpt lat="42.413873" lon="-2.675229">
        <ele>581.8</ele>
        <time>2019-08-20T13:00:03Z</time>
        <sat>11</sat>
      </trkpt>
      <trkpt lat="42.413898" lon="-2.675334">
        <ele>582.0</ele>
        <time>2019-08-20T13:00:09Z</time>
        <sat>11</sat>
      </trkpt>
      <trkpt lat="42.413941" lon="-2.675422">
        <ele>582.2</ele>
        <time>2019-08-20T13:00:15Z</time>
        <sat>10</sat>
      </trkpt>
      <trkpt lat="42.413964" lon="-2.675528">
        <ele>582.4</ele>
        <time>2019-08-20T13:00:21Z</time>
        <sat>11</sat>
      </trkpt>
      <trkpt lat="42.413996" lon="-2.675608">
        <ele>582.9</ele>
        <time>2019-08-20T13:00:34Z</time>
        <sat>11</sat>
      </trkpt>
      <trkpt lat="42.414058" lon="-2.675704">
        <ele>583.1</ele>
        <time>2019-08-20T13:00:41Z</time>
        <sat>11</sat>
      </trkpt>
      <trkpt lat="42.414081" lon="-2.675766">
        <ele>583.1</ele>
        <time>2019-08-20T13:00:45Z</time>
        <sat>11</sat>
      </trkpt>
      <trkpt lat="42.414158" lon="-2.675913">
        <ele>583.5</ele>
        <time>2019-08-20T13:00:55Z</time>
        <sat>11</sat>
      </trkpt>
      <trkpt lat="42.414192" lon="-2.675972">
        <ele>583.5</ele>
        <time>2019-08-20T13:00:59Z</time>
        <sat>11</sat>
      </trkpt>
      <trkpt lat="42.414289" lon="-2.676162">
        <ele>583.7</ele>
        <time>2019-08-20T13:01:17Z</time>
        <sat>11</sat>
      </trkpt>
      <trkpt lat="42.414357" lon="-2.676251">
        <ele>583.9</ele>
        <time>2019-08-20T13:01:24Z</time>
        <sat>11</sat>
      </trkpt>
      <trkpt lat="42.414399" lon="-2.676342">
        <ele>584.0</ele>
        <time>2019-08-20T13:01:32Z</time>
        <sat>10</sat>
      </trkpt>
      <trkpt lat="42.414406" lon="-2.676355">
        <ele>584.8</ele>
        <time>2019-08-20T13:03:22Z</time>
        <sat>11</sat>
      </trkpt>
      <trkpt lat="42.414475" lon="-2.676453">
        <ele>584.2</ele>
        <time>2019-08-20T13:03:29Z</time>
        <sat>11</sat>
      </trkpt>
      <trkpt lat="42.414579" lon="-2.676636">
        <ele>584.2</ele>
        <time>2019-08-20T13:03:41Z</time>
        <sat>11</sat>
      </trkpt>
      <trkpt lat="42.414630" lon="-2.676743">
        <ele>584.2</ele>
        <time>2019-08-20T13:03:48Z</time>
        <sat>11</sat>
      </trkpt>
      <trkpt lat="42.414672" lon="-2.676804">
        <ele>584.8</ele>
        <time>2019-08-20T13:03:53Z</time>
        <sat>11</sat>
      </trkpt>
      <trkpt lat="42.414724" lon="-2.676937">
        <ele>585.0</ele>
        <time>2019-08-20T13:04:01Z</time>
        <sat>11</sat>
      </trkpt>
      <trkpt lat="42.414752" lon="-2.676997">
        <ele>585.3</ele>
        <time>2019-08-20T13:04:05Z</time>
        <sat>11</sat>
      </trkpt>
      <trkpt lat="42.414786" lon="-2.677115">
        <ele>585.6</ele>
        <time>2019-08-20T13:04:12Z</time>
        <sat>11</sat>
      </trkpt>
      <trkpt lat="42.414806" lon="-2.677160">
        <ele>585.6</ele>
        <time>2019-08-20T13:04:15Z</time>
        <sat>11</sat>
      </trkpt>
      <trkpt lat="42.414843" lon="-2.677281">
        <ele>585.9</ele>
        <time>2019-08-20T13:04:22Z</time>
        <sat>11</sat>
      </trkpt>
      <trkpt lat="42.414908" lon="-2.677364">
        <ele>586.0</ele>
        <time>2019-08-20T13:04:29Z</time>
        <sat>11</sat>
      </trkpt>
      <trkpt lat="42.414929" lon="-2.677437">
        <ele>586.0</ele>
        <time>2019-08-20T13:04:33Z</time>
        <sat>11</sat>
      </trkpt>
      <trkpt lat="42.414933" lon="-2.677478">
        <ele>586.3</ele>
        <time>2019-08-20T13:04:35Z</time>
        <sat>10</sat>
      </trkpt>
      <trkpt lat="42.414965" lon="-2.677588">
        <ele>586.8</ele>
        <time>2019-08-20T13:04:41Z</time>
        <sat>11</sat>
      </trkpt>
      <trkpt lat="42.414965" lon="-2.677710">
        <ele>586.9</ele>
        <time>2019-08-20T13:04:47Z</time>
        <sat>11</sat>
      </trkpt>
      <trkpt lat="42.414983" lon="-2.677793">
        <ele>587.5</ele>
        <time>2019-08-20T13:04:52Z</time>
        <sat>11</sat>
      </trkpt>
      <trkpt lat="42.414983" lon="-2.677829">
        <ele>587.6</ele>
        <time>2019-08-20T13:04:54Z</time>
        <sat>11</sat>
      </trkpt>
      <trkpt lat="42.415006" lon="-2.678032">
        <ele>587.9</ele>
        <time>2019-08-20T13:05:05Z</time>
        <sat>11</sat>
      </trkpt>
      <trkpt lat="42.414998" lon="-2.678126">
        <ele>587.9</ele>
        <time>2019-08-20T13:05:10Z</time>
        <sat>10</sat>
      </trkpt>
      <trkpt lat="42.415003" lon="-2.678177">
        <ele>587.9</ele>
        <time>2019-08-20T13:05:13Z</time>
        <sat>11</sat>
      </trkpt>
      <trkpt lat="42.414977" lon="-2.678348">
        <ele>586.8</ele>
        <time>2019-08-20T13:05:29Z</time>
        <sat>10</sat>
      </trkpt>
      <trkpt lat="42.414967" lon="-2.678428">
        <ele>588.4</ele>
        <time>2019-08-20T13:05:56Z</time>
        <sat>11</sat>
      </trkpt>
      <trkpt lat="42.414918" lon="-2.678578">
        <ele>588.2</ele>
        <time>2019-08-20T13:06:05Z</time>
        <sat>11</sat>
      </trkpt>
      <trkpt lat="42.414881" lon="-2.678752">
        <ele>587.9</ele>
        <time>2019-08-20T13:06:15Z</time>
        <sat>10</sat>
      </trkpt>
      <trkpt lat="42.414857" lon="-2.678957">
        <ele>587.2</ele>
        <time>2019-08-20T13:06:26Z</time>
        <sat>10</sat>
      </trkpt>
      <trkpt lat="42.414833" lon="-2.679125">
        <ele>586.9</ele>
        <time>2019-08-20T13:06:35Z</time>
        <sat>10</sat>
      </trkpt>
      <trkpt lat="42.414832" lon="-2.679191">
        <ele>586.8</ele>
        <time>2019-08-20T13:06:39Z</time>
        <sat>11</sat>
      </trkpt>
      <trkpt lat="42.414800" lon="-2.679323">
        <ele>586.7</ele>
        <time>2019-08-20T13:06:47Z</time>
        <sat>11</sat>
      </trkpt>
      <trkpt lat="42.414775" lon="-2.679452">
        <ele>586.1</ele>
        <time>2019-08-20T13:06:55Z</time>
        <sat>11</sat>
      </trkpt>
      <trkpt lat="42.414732" lon="-2.679622">
        <ele>585.8</ele>
        <time>2019-08-20T13:07:06Z</time>
        <sat>11</sat>
      </trkpt>
      <trkpt lat="42.414724" lon="-2.679708">
        <ele>585.6</ele>
        <time>2019-08-20T13:07:11Z</time>
        <sat>11</sat>
      </trkpt>
      <trkpt lat="42.414674" lon="-2.679935">
        <ele>585.0</ele>
        <time>2019-08-20T13:07:25Z</time>
        <sat>10</sat>
      </trkpt>
      <trkpt lat="42.414651" lon="-2.680001">
        <ele>585.0</ele>
        <time>2019-08-20T13:07:29Z</time>
        <sat>10</sat>
      </trkpt>
      <trkpt lat="42.414593" lon="-2.680209">
        <ele>584.1</ele>
        <time>2019-08-20T13:07:41Z</time>
        <sat>10</sat>
      </trkpt>
      <trkpt lat="42.414577" lon="-2.680284">
        <ele>584.0</ele>
        <time>2019-08-20T13:07:45Z</time>
        <sat>11</sat>
      </trkpt>
      <trkpt lat="42.414521" lon="-2.680452">
        <ele>583.4</ele>
        <time>2019-08-20T13:07:55Z</time>
        <sat>11</sat>
      </trkpt>
      <trkpt lat="42.414479" lon="-2.680664">
        <ele>582.9</ele>
        <time>2019-08-20T13:08:07Z</time>
        <sat>11</sat>
      </trkpt>
      <trkpt lat="42.414470" lon="-2.680759">
        <ele>582.7</ele>
        <time>2019-08-20T13:08:12Z</time>
        <sat>11</sat>
      </trkpt>
      <trkpt lat="42.414447" lon="-2.680956">
        <ele>582.3</ele>
        <time>2019-08-20T13:08:23Z</time>
        <sat>11</sat>
      </trkpt>
      <trkpt lat="42.414440" lon="-2.681099">
        <ele>582.2</ele>
        <time>2019-08-20T13:08:31Z</time>
        <sat>11</sat>
      </trkpt>
      <trkpt lat="42.414443" lon="-2.681136">
        <ele>582.1</ele>
        <time>2019-08-20T13:08:33Z</time>
        <sat>11</sat>
      </trkpt>
      <trkpt lat="42.414422" lon="-2.681371">
        <ele>581.3</ele>
        <time>2019-08-20T13:08:46Z</time>
        <sat>11</sat>
      </trkpt>
      <trkpt lat="42.414419" lon="-2.681503">
        <ele>581.1</ele>
        <time>2019-08-20T13:08:53Z</time>
        <sat>11</sat>
      </trkpt>
      <trkpt lat="42.414402" lon="-2.681614">
        <ele>581.0</ele>
        <time>2019-08-20T13:08:59Z</time>
        <sat>11</sat>
      </trkpt>
      <trkpt lat="42.414401" lon="-2.681669">
        <ele>580.9</ele>
        <time>2019-08-20T13:09:02Z</time>
        <sat>10</sat>
      </trkpt>
      <trkpt lat="42.414382" lon="-2.681866">
        <ele>580.5</ele>
        <time>2019-08-20T13:09:13Z</time>
        <sat>10</sat>
      </trkpt>
      <trkpt lat="42.414382" lon="-2.681976">
        <ele>580.4</ele>
        <time>2019-08-20T13:09:19Z</time>
        <sat>10</sat>
      </trkpt>
      <trkpt lat="42.414370" lon="-2.682085">
        <ele>580.1</ele>
        <time>2019-08-20T13:09:25Z</time>
        <sat>10</sat>
      </trkpt>
      <trkpt lat="42.414356" lon="-2.682306">
        <ele>579.8</ele>
        <time>2019-08-20T13:09:37Z</time>
        <sat>10</sat>
      </trkpt>
      <trkpt lat="42.414355" lon="-2.682467">
        <ele>579.6</ele>
        <time>2019-08-20T13:09:46Z</time>
        <sat>10</sat>
      </trkpt>
      <trkpt lat="42.414349" lon="-2.682649">
        <ele>578.6</ele>
        <time>2019-08-20T13:09:56Z</time>
        <sat>10</sat>
      </trkpt>
      <trkpt lat="42.414335" lon="-2.682773">
        <ele>578.4</ele>
        <time>2019-08-20T13:10:03Z</time>
        <sat>10</sat>
      </trkpt>
      <trkpt lat="42.414336" lon="-2.682825">
        <ele>578.2</ele>
        <time>2019-08-20T13:10:06Z</time>
        <sat>9</sat>
      </trkpt>
      <trkpt lat="42.414316" lon="-2.682981">
        <ele>578.1</ele>
        <time>2019-08-20T13:10:15Z</time>
        <sat>10</sat>
      </trkpt>
      <trkpt lat="42.414307" lon="-2.683112">
        <ele>577.8</ele>
        <time>2019-08-20T13:10:22Z</time>
        <sat>9</sat>
      </trkpt>
      <trkpt lat="42.414299" lon="-2.683147">
        <ele>577.6</ele>
        <time>2019-08-20T13:10:24Z</time>
        <sat>9</sat>
      </trkpt>
      <trkpt lat="42.414262" lon="-2.683338">
        <ele>577.2</ele>
        <time>2019-08-20T13:10:35Z</time>
        <sat>8</sat>
      </trkpt>
      <trkpt lat="42.414205" lon="-2.683499">
        <ele>576.6</ele>
        <time>2019-08-20T13:10:45Z</time>
        <sat>9</sat>
      </trkpt>
      <trkpt lat="42.414137" lon="-2.683671">
        <ele>576.3</ele>
        <time>2019-08-20T13:10:56Z</time>
        <sat>9</sat>
      </trkpt>
      <trkpt lat="42.414123" lon="-2.683738">
        <ele>576.2</ele>
        <time>2019-08-20T13:11:00Z</time>
        <sat>10</sat>
      </trkpt>
      <trkpt lat="42.414057" lon="-2.683947">
        <ele>575.5</ele>
        <time>2019-08-20T13:11:13Z</time>
        <sat>10</sat>
      </trkpt>
      <trkpt lat="42.414022" lon="-2.684040">
        <ele>575.5</ele>
        <time>2019-08-20T13:11:19Z</time>
        <sat>9</sat>
      </trkpt>
      <trkpt lat="42.414008" lon="-2.684111">
        <ele>575.1</ele>
        <time>2019-08-20T13:11:23Z</time>
        <sat>10</sat>
      </trkpt>
      <trkpt lat="42.413941" lon="-2.684267">
        <ele>574.9</ele>
        <time>2019-08-20T13:11:33Z</time>
        <sat>9</sat>
      </trkpt>
      <trkpt lat="42.413901" lon="-2.684382">
        <ele>574.4</ele>
        <time>2019-08-20T13:11:40Z</time>
        <sat>10</sat>
      </trkpt>
      <trkpt lat="42.413883" lon="-2.684471">
        <ele>574.2</ele>
        <time>2019-08-20T13:11:45Z</time>
        <sat>10</sat>
      </trkpt>
      <trkpt lat="42.413849" lon="-2.684564">
        <ele>573.8</ele>
        <time>2019-08-20T13:11:51Z</time>
        <sat>9</sat>
      </trkpt>
      <trkpt lat="42.413822" lon="-2.684680">
        <ele>573.4</ele>
        <time>2019-08-20T13:11:58Z</time>
        <sat>10</sat>
      </trkpt>
      <trkpt lat="42.413784" lon="-2.684778">
        <ele>573.4</ele>
        <time>2019-08-20T13:12:04Z</time>
        <sat>9</sat>
      </trkpt>
      <trkpt lat="42.413775" lon="-2.684829">
        <ele>573.4</ele>
        <time>2019-08-20T13:12:07Z</time>
        <sat>10</sat>
      </trkpt>
      <trkpt lat="42.413725" lon="-2.684958">
        <ele>573.3</ele>
        <time>2019-08-20T13:12:15Z</time>
        <sat>9</sat>
      </trkpt>
      <trkpt lat="42.413704" lon="-2.685062">
        <ele>573.2</ele>
        <time>2019-08-20T13:12:21Z</time>
        <sat>9</sat>
      </trkpt>
      <trkpt lat="42.413667" lon="-2.685200">
        <ele>573.0</ele>
        <time>2019-08-20T13:12:29Z</time>
        <sat>10</sat>
      </trkpt>
      <trkpt lat="42.413654" lon="-2.685307">
        <ele>572.3</ele>
        <time>2019-08-20T13:12:35Z</time>
        <sat>10</sat>
      </trkpt>
      <trkpt lat="42.413629" lon="-2.685413">
        <ele>571.4</ele>
        <time>2019-08-20T13:12:41Z</time>
        <sat>10</sat>
      </trkpt>
      <trkpt lat="42.413627" lon="-2.685484">
        <ele>571.2</ele>
        <time>2019-08-20T13:12:45Z</time>
        <sat>10</sat>
      </trkpt>
      <trkpt lat="42.413609" lon="-2.685658">
        <ele>571.7</ele>
        <time>2019-08-20T13:12:55Z</time>
        <sat>9</sat>
      </trkpt>
      <trkpt lat="42.413608" lon="-2.685712">
        <ele>571.8</ele>
        <time>2019-08-20T13:12:58Z</time>
        <sat>10</sat>
      </trkpt>
      <trkpt lat="42.413572" lon="-2.685871">
        <ele>571.7</ele>
        <time>2019-08-20T13:13:07Z</time>
        <sat>10</sat>
      </trkpt>
      <trkpt lat="42.413567" lon="-2.685924">
        <ele>571.7</ele>
        <time>2019-08-20T13:13:10Z</time>
        <sat>9</sat>
      </trkpt>
      <trkpt lat="42.413502" lon="-2.686133">
        <ele>571.4</ele>
        <time>2019-08-20T13:13:23Z</time>
        <sat>9</sat>
      </trkpt>
      <trkpt lat="42.413447" lon="-2.686176">
        <ele>571.4</ele>
        <time>2019-08-20T13:13:28Z</time>
        <sat>9</sat>
      </trkpt>
      <trkpt lat="42.413388" lon="-2.686287">
        <ele>571.6</ele>
        <time>2019-08-20T13:13:37Z</time>
        <sat>9</sat>
      </trkpt>
      <trkpt lat="42.413357" lon="-2.686367">
        <ele>571.7</ele>
        <time>2019-08-20T13:13:45Z</time>
        <sat>10</sat>
      </trkpt>
      <trkpt lat="42.413385" lon="-2.686776">
        <ele>569.9</ele>
        <time>2019-08-20T13:17:40Z</time>
        <sat>10</sat>
      </trkpt>
      <trkpt lat="42.413376" lon="-2.686907">
        <ele>570.1</ele>
        <time>2019-08-20T13:17:53Z</time>
        <sat>10</sat>
      </trkpt>
      <trkpt lat="42.413374" lon="-2.687036">
        <ele>570.0</ele>
        <time>2019-08-20T13:18:00Z</time>
        <sat>9</sat>
      </trkpt>
      <trkpt lat="42.413365" lon="-2.687071">
        <ele>570.0</ele>
        <time>2019-08-20T13:18:02Z</time>
        <sat>10</sat>
      </trkpt>
      <trkpt lat="42.413351" lon="-2.687217">
        <ele>569.8</ele>
        <time>2019-08-20T13:18:10Z</time>
        <sat>11</sat>
      </trkpt>
      <trkpt lat="42.413357" lon="-2.687288">
        <ele>569.8</ele>
        <time>2019-08-20T13:18:14Z</time>
        <sat>11</sat>
      </trkpt>
      <trkpt lat="42.413348" lon="-2.687380">
        <ele>569.5</ele>
        <time>2019-08-20T13:18:19Z</time>
        <sat>11</sat>
      </trkpt>
      <trkpt lat="42.413354" lon="-2.687484">
        <ele>569.2</ele>
        <time>2019-08-20T13:18:25Z</time>
        <sat>10</sat>
      </trkpt>
      <trkpt lat="42.413345" lon="-2.687594">
        <ele>569.1</ele>
        <time>2019-08-20T13:18:31Z</time>
        <sat>10</sat>
      </trkpt>
      <trkpt lat="42.413352" lon="-2.687744">
        <ele>569.1</ele>
        <time>2019-08-20T13:18:39Z</time>
        <sat>11</sat>
      </trkpt>
      <trkpt lat="42.413365" lon="-2.687911">
        <ele>569.0</ele>
        <time>2019-08-20T13:18:48Z</time>
        <sat>11</sat>
      </trkpt>
      <trkpt lat="42.413380" lon="-2.687977">
        <ele>568.8</ele>
        <time>2019-08-20T13:18:52Z</time>
        <sat>10</sat>
      </trkpt>
      <trkpt lat="42.413378" lon="-2.688057">
        <ele>568.8</ele>
        <time>2019-08-20T13:18:56Z</time>
        <sat>11</sat>
      </trkpt>
      <trkpt lat="42.413392" lon="-2.688170">
        <ele>568.7</ele>
        <time>2019-08-20T13:19:02Z</time>
        <sat>11</sat>
      </trkpt>
      <trkpt lat="42.413411" lon="-2.688373">
        <ele>568.3</ele>
        <time>2019-08-20T13:19:13Z</time>
        <sat>10</sat>
      </trkpt>
      <trkpt lat="42.413435" lon="-2.688616">
        <ele>568.1</ele>
        <time>2019-08-20T13:19:27Z</time>
        <sat>11</sat>
      </trkpt>
      <trkpt lat="42.413439" lon="-2.688777">
        <ele>567.8</ele>
        <time>2019-08-20T13:19:36Z</time>
        <sat>11</sat>
      </trkpt>
      <trkpt lat="42.413446" lon="-2.688843">
        <ele>567.7</ele>
        <time>2019-08-20T13:19:40Z</time>
        <sat>11</sat>
      </trkpt>
      <trkpt lat="42.413441" lon="-2.688915">
        <ele>567.6</ele>
        <time>2019-08-20T13:19:44Z</time>
        <sat>11</sat>
      </trkpt>
      <trkpt lat="42.413446" lon="-2.689116">
        <ele>567.5</ele>
        <time>2019-08-20T13:19:55Z</time>
        <sat>11</sat>
      </trkpt>
      <trkpt lat="42.413438" lon="-2.689317">
        <ele>567.2</ele>
        <time>2019-08-20T13:20:06Z</time>
        <sat>11</sat>
      </trkpt>
      <trkpt lat="42.413427" lon="-2.689404">
        <ele>567.2</ele>
        <time>2019-08-20T13:20:11Z</time>
        <sat>10</sat>
      </trkpt>
      <trkpt lat="42.413427" lon="-2.689476">
        <ele>567.2</ele>
        <time>2019-08-20T13:20:15Z</time>
        <sat>11</sat>
      </trkpt>
      <trkpt lat="42.413412" lon="-2.689601">
        <ele>567.0</ele>
        <time>2019-08-20T13:20:22Z</time>
        <sat>11</sat>
      </trkpt>
      <trkpt lat="42.413412" lon="-2.689713">
        <ele>566.9</ele>
        <time>2019-08-20T13:20:28Z</time>
        <sat>11</sat>
      </trkpt>
      <trkpt lat="42.413385" lon="-2.689855">
        <ele>566.9</ele>
        <time>2019-08-20T13:20:36Z</time>
        <sat>11</sat>
      </trkpt>
      <trkpt lat="42.413383" lon="-2.689926">
        <ele>566.9</ele>
        <time>2019-08-20T13:20:40Z</time>
        <sat>10</sat>
      </trkpt>
      <trkpt lat="42.413394" lon="-2.690036">
        <ele>566.8</ele>
        <time>2019-08-20T13:20:46Z</time>
        <sat>10</sat>
      </trkpt>
      <trkpt lat="42.413382" lon="-2.690255">
        <ele>566.7</ele>
        <time>2019-08-20T13:20:58Z</time>
        <sat>10</sat>
      </trkpt>
      <trkpt lat="42.413374" lon="-2.690326">
        <ele>566.5</ele>
        <time>2019-08-20T13:21:02Z</time>
        <sat>11</sat>
      </trkpt>
      <trkpt lat="42.413376" lon="-2.690418">
        <ele>566.3</ele>
        <time>2019-08-20T13:21:07Z</time>
        <sat>11</sat>
      </trkpt>
      <trkpt lat="42.413359" lon="-2.690595">
        <ele>566.2</ele>
        <time>2019-08-20T13:21:17Z</time>
        <sat>10</sat>
      </trkpt>
      <trkpt lat="42.413358" lon="-2.690661">
        <ele>566.2</ele>
        <time>2019-08-20T13:21:21Z</time>
        <sat>11</sat>
      </trkpt>
      <trkpt lat="42.413340" lon="-2.690733">
        <ele>566.2</ele>
        <time>2019-08-20T13:21:25Z</time>
        <sat>10</sat>
      </trkpt>
      <trkpt lat="42.413329" lon="-2.690844">
        <ele>565.9</ele>
        <time>2019-08-20T13:21:31Z</time>
        <sat>11</sat>
      </trkpt>
      <trkpt lat="42.413297" lon="-2.690978">
        <ele>565.6</ele>
        <time>2019-08-20T13:21:39Z</time>
        <sat>11</sat>
      </trkpt>
      <trkpt lat="42.413275" lon="-2.691114">
        <ele>565.2</ele>
        <time>2019-08-20T13:21:47Z</time>
        <sat>11</sat>
      </trkpt>
      <trkpt lat="42.413264" lon="-2.691221">
        <ele>565.1</ele>
        <time>2019-08-20T13:21:53Z</time>
        <sat>11</sat>
      </trkpt>
      <trkpt lat="42.413246" lon="-2.691306">
        <ele>565.0</ele>
        <time>2019-08-20T13:21:58Z</time>
        <sat>11</sat>
      </trkpt>
      <trkpt lat="42.413249" lon="-2.691414">
        <ele>564.5</ele>
        <time>2019-08-20T13:22:04Z</time>
        <sat>11</sat>
      </trkpt>
      <trkpt lat="42.413243" lon="-2.691557">
        <ele>564.3</ele>
        <time>2019-08-20T13:22:12Z</time>
        <sat>11</sat>
      </trkpt>
      <trkpt lat="42.413251" lon="-2.691649">
        <ele>564.0</ele>
        <time>2019-08-20T13:22:17Z</time>
        <sat>11</sat>
      </trkpt>
      <trkpt lat="42.413241" lon="-2.691750">
        <ele>563.9</ele>
        <time>2019-08-20T13:22:23Z</time>
        <sat>11</sat>
      </trkpt>
      <trkpt lat="42.413254" lon="-2.691856">
        <ele>563.7</ele>
        <time>2019-08-20T13:22:29Z</time>
        <sat>9</sat>
      </trkpt>
      <trkpt lat="42.413244" lon="-2.691946">
        <ele>563.7</ele>
        <time>2019-08-20T13:22:34Z</time>
        <sat>11</sat>
      </trkpt>
      <trkpt lat="42.413258" lon="-2.692069">
        <ele>563.6</ele>
        <time>2019-08-20T13:22:41Z</time>
        <sat>11</sat>
      </trkpt>
      <trkpt lat="42.413257" lon="-2.692134">
        <ele>563.2</ele>
        <time>2019-08-20T13:22:45Z</time>
        <sat>11</sat>
      </trkpt>
      <trkpt lat="42.413284" lon="-2.692249">
        <ele>562.9</ele>
        <time>2019-08-20T13:22:52Z</time>
        <sat>10</sat>
      </trkpt>
      <trkpt lat="42.413328" lon="-2.692459">
        <ele>561.0</ele>
        <time>2019-08-20T13:23:04Z</time>
        <sat>11</sat>
      </trkpt>
      <trkpt lat="42.413378" lon="-2.692535">
        <ele>560.6</ele>
        <time>2019-08-20T13:23:10Z</time>
        <sat>11</sat>
      </trkpt>
      <trkpt lat="42.413397" lon="-2.692537">
        <ele>559.5</ele>
        <time>2019-08-20T13:23:58Z</time>
        <sat>10</sat>
      </trkpt>
      <trkpt lat="42.413368" lon="-2.692594">
        <ele>559.3</ele>
        <time>2019-08-20T13:24:02Z</time>
        <sat>11</sat>
      </trkpt>
      <trkpt lat="42.413364" lon="-2.692660">
        <ele>559.3</ele>
        <time>2019-08-20T13:24:06Z</time>
        <sat>11</sat>
      </trkpt>
      <trkpt lat="42.413416" lon="-2.692907">
        <ele>558.1</ele>
        <time>2019-08-20T13:24:20Z</time>
        <sat>11</sat>
      </trkpt>
      <trkpt lat="42.413460" lon="-2.693112">
        <ele>557.5</ele>
        <time>2019-08-20T13:24:33Z</time>
        <sat>11</sat>
      </trkpt>
      <trkpt lat="42.413488" lon="-2.693291">
        <ele>557.2</ele>
        <time>2019-08-20T13:24:43Z</time>
        <sat>11</sat>
      </trkpt>
      <trkpt lat="42.413503" lon="-2.693343">
        <ele>556.7</ele>
        <time>2019-08-20T13:24:46Z</time>
        <sat>10</sat>
      </trkpt>
      <trkpt lat="42.413540" lon="-2.693566">
        <ele>555.9</ele>
        <time>2019-08-20T13:24:59Z</time>
        <sat>10</sat>
      </trkpt>
      <trkpt lat="42.413555" lon="-2.693707">
        <ele>554.9</ele>
        <time>2019-08-20T13:25:07Z</time>
        <sat>11</sat>
      </trkpt>
      <trkpt lat="42.413598" lon="-2.693918">
        <ele>554.2</ele>
        <time>2019-08-20T13:25:19Z</time>
        <sat>11</sat>
      </trkpt>
      <trkpt lat="42.413679" lon="-2.694102">
        <ele>553.7</ele>
        <time>2019-08-20T13:25:31Z</time>
        <sat>10</sat>
      </trkpt>
      <trkpt lat="42.413767" lon="-2.694277">
        <ele>552.7</ele>
        <time>2019-08-20T13:25:44Z</time>
        <sat>12</sat>
      </trkpt>
      <trkpt lat="42.413823" lon="-2.694348">
        <ele>552.1</ele>
        <time>2019-08-20T13:25:50Z</time>
        <sat>12</sat>
      </trkpt>
      <trkpt lat="42.413909" lon="-2.694487">
        <ele>551.6</ele>
        <time>2019-08-20T13:26:00Z</time>
        <sat>11</sat>
      </trkpt>
      <trkpt lat="42.413923" lon="-2.694518">
        <ele>551.6</ele>
        <time>2019-08-20T13:26:03Z</time>
        <sat>12</sat>
      </trkpt>
      <trkpt lat="42.413984" lon="-2.694587">
        <ele>550.8</ele>
        <time>2019-08-20T13:26:09Z</time>
        <sat>11</sat>
      </trkpt>
      <trkpt lat="42.414031" lon="-2.694670">
        <ele>550.5</ele>
        <time>2019-08-20T13:26:15Z</time>
        <sat>11</sat>
      </trkpt>
      <trkpt lat="42.414076" lon="-2.694767">
        <ele>549.5</ele>
        <time>2019-08-20T13:26:27Z</time>
        <sat>10</sat>
      </trkpt>
      <trkpt lat="42.414135" lon="-2.694838">
        <ele>549.4</ele>
        <time>2019-08-20T13:26:33Z</time>
        <sat>11</sat>
      </trkpt>
      <trkpt lat="42.414171" lon="-2.694924">
        <ele>548.7</ele>
        <time>2019-08-20T13:26:41Z</time>
        <sat>10</sat>
      </trkpt>
      <trkpt lat="42.414149" lon="-2.694999">
        <ele>548.5</ele>
        <time>2019-08-20T13:26:46Z</time>
        <sat>11</sat>
      </trkpt>
      <trkpt lat="42.414136" lon="-2.695127">
        <ele>548.2</ele>
        <time>2019-08-20T13:26:53Z</time>
        <sat>10</sat>
      </trkpt>
      <trkpt lat="42.414161" lon="-2.695304">
        <ele>547.9</ele>
        <time>2019-08-20T13:27:03Z</time>
        <sat>10</sat>
      </trkpt>
      <trkpt lat="42.414165" lon="-2.695398">
        <ele>547.6</ele>
        <time>2019-08-20T13:27:08Z</time>
        <sat>10</sat>
      </trkpt>
      <trkpt lat="42.414187" lon="-2.695561">
        <ele>546.6</ele>
        <time>2019-08-20T13:27:17Z</time>
        <sat>10</sat>
      </trkpt>
      <trkpt lat="42.414188" lon="-2.695634">
        <ele>546.5</ele>
        <time>2019-08-20T13:27:21Z</time>
        <sat>10</sat>
      </trkpt>
      <trkpt lat="42.414209" lon="-2.695845">
        <ele>545.8</ele>
        <time>2019-08-20T13:27:33Z</time>
        <sat>10</sat>
      </trkpt>
      <trkpt lat="42.414230" lon="-2.695965">
        <ele>545.6</ele>
        <time>2019-08-20T13:27:40Z</time>
        <sat>10</sat>
      </trkpt>
      <trkpt lat="42.414233" lon="-2.696032">
        <ele>545.1</ele>
        <time>2019-08-20T13:27:44Z</time>
        <sat>10</sat>
      </trkpt>
      <trkpt lat="42.414253" lon="-2.696119">
        <ele>544.8</ele>
        <time>2019-08-20T13:27:49Z</time>
        <sat>10</sat>
      </trkpt>
      <trkpt lat="42.414255" lon="-2.696156">
        <ele>544.8</ele>
        <time>2019-08-20T13:27:51Z</time>
        <sat>10</sat>
      </trkpt>
      <trkpt lat="42.414231" lon="-2.696334">
        <ele>544.7</ele>
        <time>2019-08-20T13:28:01Z</time>
        <sat>10</sat>
      </trkpt>
      <trkpt lat="42.414192" lon="-2.696430">
        <ele>544.6</ele>
        <time>2019-08-20T13:28:07Z</time>
        <sat>10</sat>
      </trkpt>
      <trkpt lat="42.414186" lon="-2.696483">
        <ele>544.6</ele>
        <time>2019-08-20T13:28:10Z</time>
        <sat>10</sat>
      </trkpt>
      <trkpt lat="42.414158" lon="-2.696543">
        <ele>544.8</ele>
        <time>2019-08-20T13:28:14Z</time>
        <sat>10</sat>
      </trkpt>
      <trkpt lat="42.414149" lon="-2.696580">
        <ele>544.9</ele>
        <time>2019-08-20T13:28:16Z</time>
        <sat>10</sat>
      </trkpt>
      <trkpt lat="42.414140" lon="-2.696656">
        <ele>545.0</ele>
        <time>2019-08-20T13:28:20Z</time>
        <sat>10</sat>
      </trkpt>
      <trkpt lat="42.414114" lon="-2.696798">
        <ele>545.0</ele>
        <time>2019-08-20T13:28:28Z</time>
        <sat>10</sat>
      </trkpt>
      <trkpt lat="42.414105" lon="-2.696976">
        <ele>545.4</ele>
        <time>2019-08-20T13:28:38Z</time>
        <sat>10</sat>
      </trkpt>
      <trkpt lat="42.414108" lon="-2.697047">
        <ele>545.4</ele>
        <time>2019-08-20T13:28:42Z</time>
        <sat>9</sat>
      </trkpt>
      <trkpt lat="42.414128" lon="-2.697193">
        <ele>545.3</ele>
        <time>2019-08-20T13:28:50Z</time>
        <sat>10</sat>
      </trkpt>
      <trkpt lat="42.414163" lon="-2.697292">
        <ele>545.2</ele>
        <time>2019-08-20T13:28:56Z</time>
        <sat>10</sat>
      </trkpt>
      <trkpt lat="42.414188" lon="-2.697403">
        <ele>545.1</ele>
        <time>2019-08-20T13:29:02Z</time>
        <sat>10</sat>
      </trkpt>
      <trkpt lat="42.414277" lon="-2.697624">
        <ele>545.0</ele>
        <time>2019-08-20T13:29:16Z</time>
        <sat>11</sat>
      </trkpt>
      <trkpt lat="42.414286" lon="-2.697639">
        <ele>544.9</ele>
        <time>2019-08-20T13:29:17Z</time>
        <sat>11</sat>
      </trkpt>
      <trkpt lat="42.414321" lon="-2.697767">
        <ele>544.7</ele>
        <time>2019-08-20T13:29:25Z</time>
        <sat>11</sat>
      </trkpt>
      <trkpt lat="42.414407" lon="-2.697989">
        <ele>544.3</ele>
        <time>2019-08-20T13:29:39Z</time>
        <sat>11</sat>
      </trkpt>
      <trkpt lat="42.414433" lon="-2.698071">
        <ele>544.2</ele>
        <time>2019-08-20T13:29:45Z</time>
        <sat>10</sat>
      </trkpt>
      <trkpt lat="42.414485" lon="-2.698182">
        <ele>543.9</ele>
        <time>2019-08-20T13:29:54Z</time>
        <sat>11</sat>
      </trkpt>
      <trkpt lat="42.414468" lon="-2.698193">
        <ele>543.6</ele>
        <time>2019-08-20T13:30:31Z</time>
        <sat>12</sat>
      </trkpt>
      <trkpt lat="42.414482" lon="-2.698220">
        <ele>544.1</ele>
        <time>2019-08-20T13:31:00Z</time>
        <sat>11</sat>
      </trkpt>
      <trkpt lat="42.414480" lon="-2.698229">
        <ele>544.1</ele>
        <time>2019-08-20T13:31:10Z</time>
        <sat>12</sat>
      </trkpt>
      <trkpt lat="42.414449" lon="-2.698258">
        <ele>543.8</ele>
        <time>2019-08-20T13:31:21Z</time>
        <sat>12</sat>
      </trkpt>
      <trkpt lat="42.414388" lon="-2.698387">
        <ele>542.3</ele>
        <time>2019-08-20T13:31:39Z</time>
        <sat>11</sat>
      </trkpt>
      <trkpt lat="42.414379" lon="-2.698398">
        <ele>542.2</ele>
        <time>2019-08-20T13:31:53Z</time>
        <sat>11</sat>
      </trkpt>
      <trkpt lat="42.414355" lon="-2.698445">
        <ele>542.3</ele>
        <time>2019-08-20T13:32:10Z</time>
        <sat>12</sat>
      </trkpt>
      <trkpt lat="42.414326" lon="-2.698532">
        <ele>541.6</ele>
        <time>2019-08-20T13:32:18Z</time>
        <sat>12</sat>
      </trkpt>
      <trkpt lat="42.414411" lon="-2.698592">
        <ele>541.2</ele>
        <time>2019-08-20T13:32:26Z</time>
        <sat>12</sat>
      </trkpt>
      <trkpt lat="42.414456" lon="-2.698651">
        <ele>541.4</ele>
        <time>2019-08-20T13:32:31Z</time>
        <sat>10</sat>
      </trkpt>
      <trkpt lat="42.414493" lon="-2.698732">
        <ele>541.6</ele>
        <time>2019-08-20T13:32:38Z</time>
        <sat>11</sat>
      </trkpt>
      <trkpt lat="42.414612" lon="-2.698828">
        <ele>541.7</ele>
        <time>2019-08-20T13:32:48Z</time>
        <sat>11</sat>
      </trkpt>
      <trkpt lat="42.414646" lon="-2.698862">
        <ele>541.7</ele>
        <time>2019-08-20T13:32:52Z</time>
        <sat>11</sat>
      </trkpt>
      <trkpt lat="42.414720" lon="-2.698891">
        <ele>541.3</ele>
        <time>2019-08-20T13:33:03Z</time>
        <sat>9</sat>
      </trkpt>
      <trkpt lat="42.414860" lon="-2.698998">
        <ele>540.5</ele>
        <time>2019-08-20T13:33:18Z</time>
        <sat>12</sat>
      </trkpt>
      <trkpt lat="42.414915" lon="-2.699056">
        <ele>540.2</ele>
        <time>2019-08-20T13:33:26Z</time>
        <sat>11</sat>
      </trkpt>
      <trkpt lat="42.414960" lon="-2.699077">
        <ele>540.1</ele>
        <time>2019-08-20T13:33:30Z</time>
        <sat>12</sat>
      </trkpt>
      <trkpt lat="42.415013" lon="-2.699117">
        <ele>540.3</ele>
        <time>2019-08-20T13:33:35Z</time>
        <sat>12</sat>
      </trkpt>
      <trkpt lat="42.415126" lon="-2.699190">
        <ele>540.5</ele>
        <time>2019-08-20T13:33:49Z</time>
        <sat>12</sat>
      </trkpt>
      <trkpt lat="42.415252" lon="-2.699292">
        <ele>540.3</ele>
        <time>2019-08-20T13:34:00Z</time>
        <sat>12</sat>
      </trkpt>
      <trkpt lat="42.415308" lon="-2.699351">
        <ele>540.1</ele>
        <time>2019-08-20T13:34:06Z</time>
        <sat>11</sat>
      </trkpt>
      <trkpt lat="42.415376" lon="-2.699397">
        <ele>539.8</ele>
        <time>2019-08-20T13:34:12Z</time>
        <sat>10</sat>
      </trkpt>
      <trkpt lat="42.415485" lon="-2.699463">
        <ele>539.7</ele>
        <time>2019-08-20T13:34:22Z</time>
        <sat>12</sat>
      </trkpt>
      <trkpt lat="42.415556" lon="-2.699467">
        <ele>539.8</ele>
        <time>2019-08-20T13:34:27Z</time>
        <sat>12</sat>
      </trkpt>
      <trkpt lat="42.415600" lon="-2.699490">
        <ele>539.8</ele>
        <time>2019-08-20T13:34:31Z</time>
        <sat>12</sat>
      </trkpt>
      <trkpt lat="42.415764" lon="-2.699552">
        <ele>539.8</ele>
        <time>2019-08-20T13:34:43Z</time>
        <sat>11</sat>
      </trkpt>
      <trkpt lat="42.415822" lon="-2.699578">
        <ele>539.8</ele>
        <time>2019-08-20T13:35:28Z</time>
        <sat>12</sat>
      </trkpt>
      <trkpt lat="42.415854" lon="-2.699664">
        <ele>539.8</ele>
        <time>2019-08-20T13:36:05Z</time>
        <sat>10</sat>
      </trkpt>
      <trkpt lat="42.415867" lon="-2.699794">
        <ele>539.8</ele>
        <time>2019-08-20T13:36:12Z</time>
        <sat>11</sat>
      </trkpt>
      <trkpt lat="42.415861" lon="-2.699914">
        <ele>540.0</ele>
        <time>2019-08-20T13:36:19Z</time>
        <sat>11</sat>
      </trkpt>
      <trkpt lat="42.415838" lon="-2.700012">
        <ele>540.0</ele>
        <time>2019-08-20T13:36:25Z</time>
        <sat>11</sat>
      </trkpt>
      <trkpt lat="42.415851" lon="-2.700108">
        <ele>539.8</ele>
        <time>2019-08-20T13:36:32Z</time>
        <sat>11</sat>
      </trkpt>
      <trkpt lat="42.415730" lon="-2.700235">
        <ele>539.4</ele>
        <time>2019-08-20T13:36:46Z</time>
        <sat>10</sat>
      </trkpt>
      <trkpt lat="42.415693" lon="-2.700327">
        <ele>539.0</ele>
        <time>2019-08-20T13:36:53Z</time>
        <sat>11</sat>
      </trkpt>
      <trkpt lat="42.415671" lon="-2.700498">
        <ele>538.5</ele>
        <time>2019-08-20T13:37:03Z</time>
        <sat>11</sat>
      </trkpt>
      <trkpt lat="42.415661" lon="-2.700606">
        <ele>538.3</ele>
        <time>2019-08-20T13:37:09Z</time>
        <sat>11</sat>
      </trkpt>
      <trkpt lat="42.415655" lon="-2.700821">
        <ele>538.1</ele>
        <time>2019-08-20T13:37:22Z</time>
        <sat>11</sat>
      </trkpt>
      <trkpt lat="42.415643" lon="-2.701051">
        <ele>537.9</ele>
        <time>2019-08-20T13:37:35Z</time>
        <sat>11</sat>
      </trkpt>
      <trkpt lat="42.415630" lon="-2.701194">
        <ele>537.7</ele>
        <time>2019-08-20T13:37:43Z</time>
        <sat>11</sat>
      </trkpt>
      <trkpt lat="42.415614" lon="-2.701261">
        <ele>537.7</ele>
        <time>2019-08-20T13:37:47Z</time>
        <sat>11</sat>
      </trkpt>
      <trkpt lat="42.415584" lon="-2.701469">
        <ele>537.7</ele>
        <time>2019-08-20T13:37:59Z</time>
        <sat>11</sat>
      </trkpt>
      <trkpt lat="42.415581" lon="-2.701535">
        <ele>537.7</ele>
        <time>2019-08-20T13:38:03Z</time>
        <sat>11</sat>
      </trkpt>
      <trkpt lat="42.415560" lon="-2.701692">
        <ele>537.5</ele>
        <time>2019-08-20T13:38:12Z</time>
        <sat>11</sat>
      </trkpt>
      <trkpt lat="42.415519" lon="-2.701906">
        <ele>537.3</ele>
        <time>2019-08-20T13:38:25Z</time>
        <sat>11</sat>
      </trkpt>
      <trkpt lat="42.415498" lon="-2.701977">
        <ele>537.2</ele>
        <time>2019-08-20T13:38:30Z</time>
        <sat>11</sat>
      </trkpt>
      <trkpt lat="42.415487" lon="-2.702042">
        <ele>537.2</ele>
        <time>2019-08-20T13:38:34Z</time>
        <sat>11</sat>
      </trkpt>
      <trkpt lat="42.415446" lon="-2.702226">
        <ele>536.9</ele>
        <time>2019-08-20T13:38:46Z</time>
        <sat>11</sat>
      </trkpt>
      <trkpt lat="42.415416" lon="-2.702318">
        <ele>536.8</ele>
        <time>2019-08-20T13:38:52Z</time>
        <sat>11</sat>
      </trkpt>
      <trkpt lat="42.415380" lon="-2.702468">
        <ele>536.8</ele>
        <time>2019-08-20T13:39:01Z</time>
        <sat>11</sat>
      </trkpt>
      <trkpt lat="42.415401" lon="-2.702674">
        <ele>536.8</ele>
        <time>2019-08-20T13:39:13Z</time>
        <sat>11</sat>
      </trkpt>
      <trkpt lat="42.415426" lon="-2.702772">
        <ele>536.8</ele>
        <time>2019-08-20T13:39:19Z</time>
        <sat>11</sat>
      </trkpt>
      <trkpt lat="42.415443" lon="-2.702926">
        <ele>537.0</ele>
        <time>2019-08-20T13:39:28Z</time>
        <sat>11</sat>
      </trkpt>
      <trkpt lat="42.415449" lon="-2.703018">
        <ele>537.1</ele>
        <time>2019-08-20T13:39:33Z</time>
        <sat>11</sat>
      </trkpt>
      <trkpt lat="42.415472" lon="-2.703117">
        <ele>537.2</ele>
        <time>2019-08-20T13:39:39Z</time>
        <sat>11</sat>
      </trkpt>
      <trkpt lat="42.415505" lon="-2.703357">
        <ele>536.9</ele>
        <time>2019-08-20T13:39:54Z</time>
        <sat>11</sat>
      </trkpt>
      <trkpt lat="42.415527" lon="-2.703466">
        <ele>537.8</ele>
        <time>2019-08-20T13:40:04Z</time>
        <sat>11</sat>
      </trkpt>
      <trkpt lat="42.415561" lon="-2.703673">
        <ele>537.2</ele>
        <time>2019-08-20T13:40:19Z</time>
        <sat>11</sat>
      </trkpt>
      <trkpt lat="42.415601" lon="-2.703914">
        <ele>536.9</ele>
        <time>2019-08-20T13:40:32Z</time>
        <sat>11</sat>
      </trkpt>
      <trkpt lat="42.415608" lon="-2.704004">
        <ele>536.9</ele>
        <time>2019-08-20T13:40:37Z</time>
        <sat>11</sat>
      </trkpt>
      <trkpt lat="42.415606" lon="-2.704042">
        <ele>536.8</ele>
        <time>2019-08-20T13:40:39Z</time>
        <sat>11</sat>
      </trkpt>
      <trkpt lat="42.415622" lon="-2.704260">
        <ele>536.8</ele>
        <time>2019-08-20T13:40:51Z</time>
        <sat>11</sat>
      </trkpt>
      <trkpt lat="42.415638" lon="-2.704329">
        <ele>536.8</ele>
        <time>2019-08-20T13:40:55Z</time>
        <sat>11</sat>
      </trkpt>
      <trkpt lat="42.415646" lon="-2.704439">
        <ele>536.8</ele>
        <time>2019-08-20T13:41:01Z</time>
        <sat>11</sat>
      </trkpt>
      <trkpt lat="42.415679" lon="-2.704618">
        <ele>536.8</ele>
        <time>2019-08-20T13:41:11Z</time>
        <sat>11</sat>
      </trkpt>
      <trkpt lat="42.415698" lon="-2.704684">
        <ele>536.8</ele>
        <time>2019-08-20T13:41:15Z</time>
        <sat>11</sat>
      </trkpt>
      <trkpt lat="42.415711" lon="-2.704863">
        <ele>536.8</ele>
        <time>2019-08-20T13:41:25Z</time>
        <sat>11</sat>
      </trkpt>
      <trkpt lat="42.415725" lon="-2.704932">
        <ele>536.8</ele>
        <time>2019-08-20T13:41:29Z</time>
        <sat>11</sat>
      </trkpt>
      <trkpt lat="42.415746" lon="-2.705108">
        <ele>536.8</ele>
        <time>2019-08-20T13:41:39Z</time>
        <sat>11</sat>
      </trkpt>
      <trkpt lat="42.415743" lon="-2.705218">
        <ele>536.8</ele>
        <time>2019-08-20T13:41:45Z</time>
        <sat>11</sat>
      </trkpt>
      <trkpt lat="42.415751" lon="-2.705403">
        <ele>537.0</ele>
        <time>2019-08-20T13:41:55Z</time>
        <sat>11</sat>
      </trkpt>
      <trkpt lat="42.415763" lon="-2.705565">
        <ele>537.0</ele>
        <time>2019-08-20T13:42:04Z</time>
        <sat>10</sat>
      </trkpt>
      <trkpt lat="42.415774" lon="-2.705781">
        <ele>537.1</ele>
        <time>2019-08-20T13:42:16Z</time>
        <sat>12</sat>
      </trkpt>
      <trkpt lat="42.415770" lon="-2.705835">
        <ele>537.1</ele>
        <time>2019-08-20T13:42:19Z</time>
        <sat>12</sat>
      </trkpt>
      <trkpt lat="42.415784" lon="-2.705925">
        <ele>537.2</ele>
        <time>2019-08-20T13:42:24Z</time>
        <sat>12</sat>
      </trkpt>
      <trkpt lat="42.415801" lon="-2.706177">
        <ele>537.2</ele>
        <time>2019-08-20T13:42:38Z</time>
        <sat>11</sat>
      </trkpt>
      <trkpt lat="42.415801" lon="-2.706251">
        <ele>537.2</ele>
        <time>2019-08-20T13:42:42Z</time>
        <sat>11</sat>
      </trkpt>
      <trkpt lat="42.415812" lon="-2.706318">
        <ele>537.2</ele>
        <time>2019-08-20T13:42:46Z</time>
        <sat>12</sat>
      </trkpt>
      <trkpt lat="42.415820" lon="-2.706547">
        <ele>537.2</ele>
        <time>2019-08-20T13:42:59Z</time>
        <sat>11</sat>
      </trkpt>
      <trkpt lat="42.415819" lon="-2.706637">
        <ele>537.2</ele>
        <time>2019-08-20T13:43:04Z</time>
        <sat>12</sat>
      </trkpt>
      <trkpt lat="42.415826" lon="-2.706689">
        <ele>537.2</ele>
        <time>2019-08-20T13:43:07Z</time>
        <sat>12</sat>
      </trkpt>
      <trkpt lat="42.415823" lon="-2.706879">
        <ele>537.2</ele>
        <time>2019-08-20T13:43:18Z</time>
        <sat>11</sat>
      </trkpt>
      <trkpt lat="42.415816" lon="-2.706942">
        <ele>537.2</ele>
        <time>2019-08-20T13:43:22Z</time>
        <sat>11</sat>
      </trkpt>
      <trkpt lat="42.415824" lon="-2.707010">
        <ele>537.2</ele>
        <time>2019-08-20T13:43:26Z</time>
        <sat>11</sat>
      </trkpt>
      <trkpt lat="42.415824" lon="-2.707096">
        <ele>537.2</ele>
        <time>2019-08-20T13:43:31Z</time>
        <sat>11</sat>
      </trkpt>
      <trkpt lat="42.415834" lon="-2.707305">
        <ele>537.3</ele>
        <time>2019-08-20T13:43:43Z</time>
        <sat>12</sat>
      </trkpt>
      <trkpt lat="42.415846" lon="-2.707375">
        <ele>537.3</ele>
        <time>2019-08-20T13:43:47Z</time>
        <sat>12</sat>
      </trkpt>
      <trkpt lat="42.415853" lon="-2.707497">
        <ele>537.3</ele>
        <time>2019-08-20T13:43:54Z</time>
        <sat>12</sat>
      </trkpt>
      <trkpt lat="42.415875" lon="-2.707696">
        <ele>537.2</ele>
        <time>2019-08-20T13:44:05Z</time>
        <sat>11</sat>
      </trkpt>
      <trkpt lat="42.415895" lon="-2.707801">
        <ele>537.1</ele>
        <time>2019-08-20T13:44:11Z</time>
        <sat>11</sat>
      </trkpt>
      <trkpt lat="42.415908" lon="-2.707951">
        <ele>536.9</ele>
        <time>2019-08-20T13:44:19Z</time>
        <sat>12</sat>
      </trkpt>
      <trkpt lat="42.415926" lon="-2.708130">
        <ele>536.7</ele>
        <time>2019-08-20T13:44:29Z</time>
        <sat>11</sat>
      </trkpt>
      <trkpt lat="42.415943" lon="-2.708200">
        <ele>536.7</ele>
        <time>2019-08-20T13:44:33Z</time>
        <sat>11</sat>
      </trkpt>
      <trkpt lat="42.415955" lon="-2.708344">
        <ele>536.7</ele>
        <time>2019-08-20T13:44:41Z</time>
        <sat>12</sat>
      </trkpt>
      <trkpt lat="42.415967" lon="-2.708396">
        <ele>536.5</ele>
        <time>2019-08-20T13:44:44Z</time>
        <sat>11</sat>
      </trkpt>
      <trkpt lat="42.415994" lon="-2.708606">
        <ele>536.4</ele>
        <time>2019-08-20T13:44:56Z</time>
        <sat>11</sat>
      </trkpt>
      <trkpt lat="42.416002" lon="-2.708694">
        <ele>535.8</ele>
        <time>2019-08-20T13:45:01Z</time>
        <sat>11</sat>
      </trkpt>
      <trkpt lat="42.416026" lon="-2.708869">
        <ele>535.3</ele>
        <time>2019-08-20T13:45:12Z</time>
        <sat>11</sat>
      </trkpt>
      <trkpt lat="42.416047" lon="-2.709004">
        <ele>536.1</ele>
        <time>2019-08-20T13:45:20Z</time>
        <sat>10</sat>
      </trkpt>
      <trkpt lat="42.416083" lon="-2.709203">
        <ele>536.2</ele>
        <time>2019-08-20T13:45:31Z</time>
        <sat>11</sat>
      </trkpt>
      <trkpt lat="42.416093" lon="-2.709295">
        <ele>536.1</ele>
        <time>2019-08-20T13:45:36Z</time>
        <sat>11</sat>
      </trkpt>
      <trkpt lat="42.416120" lon="-2.709414">
        <ele>536.1</ele>
        <time>2019-08-20T13:45:43Z</time>
        <sat>11</sat>
      </trkpt>
      <trkpt lat="42.416131" lon="-2.709527">
        <ele>536.0</ele>
        <time>2019-08-20T13:45:49Z</time>
        <sat>11</sat>
      </trkpt>
      <trkpt lat="42.416126" lon="-2.709613">
        <ele>536.0</ele>
        <time>2019-08-20T13:45:54Z</time>
        <sat>10</sat>
      </trkpt>
      <trkpt lat="42.416102" lon="-2.709680">
        <ele>536.0</ele>
        <time>2019-08-20T13:45:58Z</time>
        <sat>10</sat>
      </trkpt>
      <trkpt lat="42.416071" lon="-2.709884">
        <ele>535.4</ele>
        <time>2019-08-20T13:46:10Z</time>
        <sat>10</sat>
      </trkpt>
      <trkpt lat="42.416088" lon="-2.709949">
        <ele>535.3</ele>
        <time>2019-08-20T13:46:14Z</time>
        <sat>11</sat>
      </trkpt>
      <trkpt lat="42.416175" lon="-2.710095">
        <ele>535.0</ele>
        <time>2019-08-20T13:46:26Z</time>
        <sat>10</sat>
      </trkpt>
      <trkpt lat="42.416226" lon="-2.710194">
        <ele>534.8</ele>
        <time>2019-08-20T13:46:33Z</time>
        <sat>10</sat>
      </trkpt>
      <trkpt lat="42.416256" lon="-2.710333">
        <ele>534.5</ele>
        <time>2019-08-20T13:46:41Z</time>
        <sat>11</sat>
      </trkpt>
      <trkpt lat="42.416264" lon="-2.710418">
        <ele>534.4</ele>
        <time>2019-08-20T13:46:46Z</time>
        <sat>11</sat>
      </trkpt>
      <trkpt lat="42.416296" lon="-2.710514">
        <ele>534.2</ele>
        <time>2019-08-20T13:46:52Z</time>
        <sat>11</sat>
      </trkpt>
      <trkpt lat="42.416308" lon="-2.710621">
        <ele>534.2</ele>
        <time>2019-08-20T13:46:58Z</time>
        <sat>11</sat>
      </trkpt>
      <trkpt lat="42.416329" lon="-2.710690">
        <ele>534.0</ele>
        <time>2019-08-20T13:47:02Z</time>
        <sat>11</sat>
      </trkpt>
      <trkpt lat="42.416362" lon="-2.710896">
        <ele>533.7</ele>
        <time>2019-08-20T13:47:14Z</time>
        <sat>11</sat>
      </trkpt>
      <trkpt lat="42.416375" lon="-2.711004">
        <ele>533.6</ele>
        <time>2019-08-20T13:47:20Z</time>
        <sat>11</sat>
      </trkpt>
      <trkpt lat="42.416392" lon="-2.711069">
        <ele>533.6</ele>
        <time>2019-08-20T13:47:24Z</time>
        <sat>11</sat>
      </trkpt>
      <trkpt lat="42.416406" lon="-2.711189">
        <ele>533.6</ele>
        <time>2019-08-20T13:47:31Z</time>
        <sat>11</sat>
      </trkpt>
      <trkpt lat="42.416418" lon="-2.711239">
        <ele>533.4</ele>
        <time>2019-08-20T13:47:34Z</time>
        <sat>11</sat>
      </trkpt>
      <trkpt lat="42.416432" lon="-2.711333">
        <ele>533.4</ele>
        <time>2019-08-20T13:47:52Z</time>
        <sat>11</sat>
      </trkpt>
      <trkpt lat="42.416476" lon="-2.711504">
        <ele>533.4</ele>
        <time>2019-08-20T13:48:02Z</time>
        <sat>11</sat>
      </trkpt>
      <trkpt lat="42.416494" lon="-2.711591">
        <ele>533.2</ele>
        <time>2019-08-20T13:48:07Z</time>
        <sat>10</sat>
      </trkpt>
      <trkpt lat="42.416503" lon="-2.711691">
        <ele>533.1</ele>
        <time>2019-08-20T13:48:12Z</time>
        <sat>11</sat>
      </trkpt>
      <trkpt lat="42.416514" lon="-2.711746">
        <ele>533.1</ele>
        <time>2019-08-20T13:48:15Z</time>
        <sat>11</sat>
      </trkpt>
      <trkpt lat="42.416531" lon="-2.711931">
        <ele>532.5</ele>
        <time>2019-08-20T13:48:25Z</time>
        <sat>11</sat>
      </trkpt>
      <trkpt lat="42.416537" lon="-2.712038">
        <ele>532.4</ele>
        <time>2019-08-20T13:48:31Z</time>
        <sat>10</sat>
      </trkpt>
      <trkpt lat="42.416570" lon="-2.712272">
        <ele>532.4</ele>
        <time>2019-08-20T13:48:45Z</time>
        <sat>11</sat>
      </trkpt>
      <trkpt lat="42.416600" lon="-2.712357">
        <ele>532.1</ele>
        <time>2019-08-20T13:48:50Z</time>
        <sat>11</sat>
      </trkpt>
      <trkpt lat="42.416645" lon="-2.712562">
        <ele>531.9</ele>
        <time>2019-08-20T13:49:02Z</time>
        <sat>11</sat>
      </trkpt>
      <trkpt lat="42.416657" lon="-2.712651">
        <ele>531.7</ele>
        <time>2019-08-20T13:49:07Z</time>
        <sat>11</sat>
      </trkpt>
      <trkpt lat="42.416681" lon="-2.712746">
        <ele>531.7</ele>
        <time>2019-08-20T13:49:13Z</time>
        <sat>11</sat>
      </trkpt>
      <trkpt lat="42.416740" lon="-2.712972">
        <ele>530.2</ele>
        <time>2019-08-20T13:50:26Z</time>
        <sat>11</sat>
      </trkpt>
      <trkpt lat="42.416750" lon="-2.713066">
        <ele>530.1</ele>
        <time>2019-08-20T13:50:32Z</time>
        <sat>11</sat>
      </trkpt>
      <trkpt lat="42.416784" lon="-2.713172">
        <ele>530.8</ele>
        <time>2019-08-20T13:50:39Z</time>
        <sat>10</sat>
      </trkpt>
      <trkpt lat="42.416820" lon="-2.713394">
        <ele>530.8</ele>
        <time>2019-08-20T13:50:53Z</time>
        <sat>11</sat>
      </trkpt>
      <trkpt lat="42.416884" lon="-2.713594">
        <ele>530.6</ele>
        <time>2019-08-20T13:51:05Z</time>
        <sat>11</sat>
      </trkpt>
      <trkpt lat="42.416927" lon="-2.713789">
        <ele>530.5</ele>
        <time>2019-08-20T13:51:17Z</time>
        <sat>11</sat>
      </trkpt>
      <trkpt lat="42.416939" lon="-2.713873">
        <ele>530.2</ele>
        <time>2019-08-20T13:51:22Z</time>
        <sat>11</sat>
      </trkpt>
      <trkpt lat="42.416980" lon="-2.714025">
        <ele>529.9</ele>
        <time>2019-08-20T13:51:34Z</time>
        <sat>11</sat>
      </trkpt>
      <trkpt lat="42.417017" lon="-2.714186">
        <ele>529.8</ele>
        <time>2019-08-20T13:51:44Z</time>
        <sat>11</sat>
      </trkpt>
      <trkpt lat="42.417065" lon="-2.714344">
        <ele>529.4</ele>
        <time>2019-08-20T13:51:54Z</time>
        <sat>11</sat>
      </trkpt>
      <trkpt lat="42.417090" lon="-2.714443">
        <ele>529.2</ele>
        <time>2019-08-20T13:52:00Z</time>
        <sat>11</sat>
      </trkpt>
      <trkpt lat="42.417111" lon="-2.714493">
        <ele>529.2</ele>
        <time>2019-08-20T13:52:03Z</time>
        <sat>10</sat>
      </trkpt>
      <trkpt lat="42.417150" lon="-2.714658">
        <ele>529.0</ele>
        <time>2019-08-20T13:52:13Z</time>
        <sat>11</sat>
      </trkpt>
      <trkpt lat="42.417158" lon="-2.714707">
        <ele>529.0</ele>
        <time>2019-08-20T13:52:16Z</time>
        <sat>11</sat>
      </trkpt>
      <trkpt lat="42.417212" lon="-2.714876">
        <ele>528.6</ele>
        <time>2019-08-20T13:52:27Z</time>
        <sat>11</sat>
      </trkpt>
      <trkpt lat="42.417233" lon="-2.714920">
        <ele>528.6</ele>
        <time>2019-08-20T13:52:30Z</time>
        <sat>10</sat>
      </trkpt>
      <trkpt lat="42.417281" lon="-2.714968">
        <ele>528.5</ele>
        <time>2019-08-20T13:52:36Z</time>
        <sat>11</sat>
      </trkpt>
      <trkpt lat="42.417363" lon="-2.715020">
        <ele>528.5</ele>
        <time>2019-08-20T13:52:42Z</time>
        <sat>11</sat>
      </trkpt>
      <trkpt lat="42.417486" lon="-2.715124">
        <ele>528.1</ele>
        <time>2019-08-20T13:52:53Z</time>
        <sat>11</sat>
      </trkpt>
      <trkpt lat="42.417544" lon="-2.715189">
        <ele>528.0</ele>
        <time>2019-08-20T13:52:59Z</time>
        <sat>10</sat>
      </trkpt>
      <trkpt lat="42.417646" lon="-2.715280">
        <ele>527.7</ele>
        <time>2019-08-20T13:53:09Z</time>
        <sat>11</sat>
      </trkpt>
      <trkpt lat="42.417721" lon="-2.715377">
        <ele>527.6</ele>
        <time>2019-08-20T13:53:18Z</time>
        <sat>11</sat>
      </trkpt>
      <trkpt lat="42.417702" lon="-2.715502">
        <ele>527.7</ele>
        <time>2019-08-20T13:53:40Z</time>
        <sat>10</sat>
      </trkpt>
      <trkpt lat="42.417686" lon="-2.715565">
        <ele>527.7</ele>
        <time>2019-08-20T13:53:44Z</time>
        <sat>10</sat>
      </trkpt>
      <trkpt lat="42.417647" lon="-2.715666">
        <ele>527.3</ele>
        <time>2019-08-20T13:53:51Z</time>
        <sat>11</sat>
      </trkpt>
      <trkpt lat="42.417593" lon="-2.715902">
        <ele>526.8</ele>
        <time>2019-08-20T13:54:05Z</time>
        <sat>11</sat>
      </trkpt>
      <trkpt lat="42.417582" lon="-2.716002">
        <ele>526.5</ele>
        <time>2019-08-20T13:54:12Z</time>
        <sat>11</sat>
      </trkpt>
      <trkpt lat="42.417611" lon="-2.716085">
        <ele>526.5</ele>
        <time>2019-08-20T13:54:17Z</time>
        <sat>11</sat>
      </trkpt>
      <trkpt lat="42.417630" lon="-2.716175">
        <ele>526.3</ele>
        <time>2019-08-20T13:54:22Z</time>
        <sat>11</sat>
      </trkpt>
      <trkpt lat="42.417696" lon="-2.716365">
        <ele>526.0</ele>
        <time>2019-08-20T13:54:34Z</time>
        <sat>11</sat>
      </trkpt>
      <trkpt lat="42.417761" lon="-2.716534">
        <ele>525.8</ele>
        <time>2019-08-20T13:54:45Z</time>
        <sat>11</sat>
      </trkpt>
      <trkpt lat="42.417788" lon="-2.716596">
        <ele>525.7</ele>
        <time>2019-08-20T13:54:49Z</time>
        <sat>11</sat>
      </trkpt>
      <trkpt lat="42.417809" lon="-2.716697">
        <ele>525.5</ele>
        <time>2019-08-20T13:54:55Z</time>
        <sat>11</sat>
      </trkpt>
      <trkpt lat="42.417831" lon="-2.716741">
        <ele>525.4</ele>
        <time>2019-08-20T13:54:58Z</time>
        <sat>11</sat>
      </trkpt>
      <trkpt lat="42.417845" lon="-2.716815">
        <ele>525.4</ele>
        <time>2019-08-20T13:55:03Z</time>
        <sat>11</sat>
      </trkpt>
      <trkpt lat="42.417845" lon="-2.716886">
        <ele>525.2</ele>
        <time>2019-08-20T13:55:27Z</time>
        <sat>11</sat>
      </trkpt>
      <trkpt lat="42.417858" lon="-2.716952">
        <ele>525.1</ele>
        <time>2019-08-20T13:55:31Z</time>
        <sat>11</sat>
      </trkpt>
      <trkpt lat="42.417890" lon="-2.716999">
        <ele>525.1</ele>
        <time>2019-08-20T13:55:35Z</time>
        <sat>11</sat>
      </trkpt>
      <trkpt lat="42.417926" lon="-2.717116">
        <ele>525.1</ele>
        <time>2019-08-20T13:55:43Z</time>
        <sat>11</sat>
      </trkpt>
      <trkpt lat="42.417934" lon="-2.717214">
        <ele>524.9</ele>
        <time>2019-08-20T13:55:49Z</time>
        <sat>11</sat>
      </trkpt>
      <trkpt lat="42.417966" lon="-2.717446">
        <ele>524.1</ele>
        <time>2019-08-20T13:56:03Z</time>
        <sat>11</sat>
      </trkpt>
      <trkpt lat="42.417972" lon="-2.717569">
        <ele>523.5</ele>
        <time>2019-08-20T13:56:11Z</time>
        <sat>11</sat>
      </trkpt>
      <trkpt lat="42.417995" lon="-2.717813">
        <ele>523.1</ele>
        <time>2019-08-20T13:56:26Z</time>
        <sat>11</sat>
      </trkpt>
      <trkpt lat="42.418054" lon="-2.717989">
        <ele>522.4</ele>
        <time>2019-08-20T13:56:37Z</time>
        <sat>10</sat>
      </trkpt>
      <trkpt lat="42.418137" lon="-2.718196">
        <ele>521.8</ele>
        <time>2019-08-20T13:56:50Z</time>
        <sat>11</sat>
      </trkpt>
      <trkpt lat="42.418227" lon="-2.718406">
        <ele>521.3</ele>
        <time>2019-08-20T13:57:04Z</time>
        <sat>11</sat>
      </trkpt>
      <trkpt lat="42.418240" lon="-2.718456">
        <ele>521.1</ele>
        <time>2019-08-20T13:57:07Z</time>
        <sat>11</sat>
      </trkpt>
      <trkpt lat="42.418277" lon="-2.718543">
        <ele>521.0</ele>
        <time>2019-08-20T13:57:12Z</time>
        <sat>11</sat>
      </trkpt>
      <trkpt lat="42.418341" lon="-2.718688">
        <ele>520.6</ele>
        <time>2019-08-20T13:57:22Z</time>
        <sat>11</sat>
      </trkpt>
      <trkpt lat="42.418398" lon="-2.718833">
        <ele>520.2</ele>
        <time>2019-08-20T13:57:34Z</time>
        <sat>11</sat>
      </trkpt>
      <trkpt lat="42.418458" lon="-2.719072">
        <ele>519.6</ele>
        <time>2019-08-20T13:57:48Z</time>
        <sat>11</sat>
      </trkpt>
      <trkpt lat="42.418468" lon="-2.719147">
        <ele>520.4</ele>
        <time>2019-08-20T13:57:53Z</time>
        <sat>11</sat>
      </trkpt>
      <trkpt lat="42.418499" lon="-2.719323">
        <ele>520.8</ele>
        <time>2019-08-20T13:58:04Z</time>
        <sat>11</sat>
      </trkpt>
      <trkpt lat="42.418505" lon="-2.719449">
        <ele>520.7</ele>
        <time>2019-08-20T13:58:11Z</time>
        <sat>11</sat>
      </trkpt>
      <trkpt lat="42.418529" lon="-2.719605">
        <ele>520.6</ele>
        <time>2019-08-20T13:58:20Z</time>
        <sat>11</sat>
      </trkpt>
      <trkpt lat="42.418545" lon="-2.719793">
        <ele>520.4</ele>
        <time>2019-08-20T13:58:31Z</time>
        <sat>11</sat>
      </trkpt>
      <trkpt lat="42.418565" lon="-2.720034">
        <ele>519.8</ele>
        <time>2019-08-20T13:58:46Z</time>
        <sat>11</sat>
      </trkpt>
      <trkpt lat="42.418584" lon="-2.720223">
        <ele>519.3</ele>
        <time>2019-08-20T13:58:57Z</time>
        <sat>11</sat>
      </trkpt>
      <trkpt lat="42.418596" lon="-2.720472">
        <ele>518.9</ele>
        <time>2019-08-20T13:59:11Z</time>
        <sat>11</sat>
      </trkpt>
      <trkpt lat="42.418605" lon="-2.720702">
        <ele>518.4</ele>
        <time>2019-08-20T13:59:24Z</time>
        <sat>11</sat>
      </trkpt>
      <trkpt lat="42.418613" lon="-2.720922">
        <ele>518.0</ele>
        <time>2019-08-20T13:59:37Z</time>
        <sat>12</sat>
      </trkpt>
      <trkpt lat="42.418603" lon="-2.721060">
        <ele>517.8</ele>
        <time>2019-08-20T13:59:45Z</time>
        <sat>12</sat>
      </trkpt>
      <trkpt lat="42.418616" lon="-2.721192">
        <ele>517.7</ele>
        <time>2019-08-20T13:59:52Z</time>
        <sat>11</sat>
      </trkpt>
      <trkpt lat="42.418612" lon="-2.721392">
        <ele>517.6</ele>
        <time>2019-08-20T14:00:03Z</time>
        <sat>11</sat>
      </trkpt>
      <trkpt lat="42.418593" lon="-2.721585">
        <ele>517.0</ele>
        <time>2019-08-20T14:00:14Z</time>
        <sat>11</sat>
      </trkpt>
      <trkpt lat="42.418578" lon="-2.721670">
        <ele>516.9</ele>
        <time>2019-08-20T14:00:19Z</time>
        <sat>11</sat>
      </trkpt>
      <trkpt lat="42.418556" lon="-2.721919">
        <ele>516.0</ele>
        <time>2019-08-20T14:00:33Z</time>
        <sat>10</sat>
      </trkpt>
      <trkpt lat="42.418565" lon="-2.721976">
        <ele>516.8</ele>
        <time>2019-08-20T14:00:36Z</time>
        <sat>10</sat>
      </trkpt>
      <trkpt lat="42.418544" lon="-2.722148">
        <ele>516.7</ele>
        <time>2019-08-20T14:00:46Z</time>
        <sat>10</sat>
      </trkpt>
      <trkpt lat="42.418539" lon="-2.722329">
        <ele>516.6</ele>
        <time>2019-08-20T14:00:58Z</time>
        <sat>10</sat>
      </trkpt>
      <trkpt lat="42.418526" lon="-2.722363">
        <ele>516.6</ele>
        <time>2019-08-20T14:01:00Z</time>
        <sat>11</sat>
      </trkpt>
      <trkpt lat="42.418515" lon="-2.722452">
        <ele>516.6</ele>
        <time>2019-08-20T14:01:05Z</time>
        <sat>10</sat>
      </trkpt>
      <trkpt lat="42.418522" lon="-2.722516">
        <ele>516.6</ele>
        <time>2019-08-20T14:01:09Z</time>
        <sat>10</sat>
      </trkpt>
      <trkpt lat="42.418512" lon="-2.722677">
        <ele>516.5</ele>
        <time>2019-08-20T14:01:18Z</time>
        <sat>12</sat>
      </trkpt>
      <trkpt lat="42.418496" lon="-2.722928">
        <ele>516.3</ele>
        <time>2019-08-20T14:01:31Z</time>
        <sat>11</sat>
      </trkpt>
      <trkpt lat="42.418479" lon="-2.723029">
        <ele>516.3</ele>
        <time>2019-08-20T14:01:37Z</time>
        <sat>11</sat>
      </trkpt>
      <trkpt lat="42.418478" lon="-2.723200">
        <ele>515.9</ele>
        <time>2019-08-20T14:01:46Z</time>
        <sat>11</sat>
      </trkpt>
      <trkpt lat="42.418467" lon="-2.723407">
        <ele>515.4</ele>
        <time>2019-08-20T14:01:57Z</time>
        <sat>10</sat>
      </trkpt>
      <trkpt lat="42.418454" lon="-2.723551">
        <ele>515.2</ele>
        <time>2019-08-20T14:02:05Z</time>
        <sat>11</sat>
      </trkpt>
      <trkpt lat="42.418427" lon="-2.723722">
        <ele>515.1</ele>
        <time>2019-08-20T14:02:15Z</time>
        <sat>10</sat>
      </trkpt>
      <trkpt lat="42.418405" lon="-2.723888">
        <ele>514.8</ele>
        <time>2019-08-20T14:02:25Z</time>
        <sat>10</sat>
      </trkpt>
      <trkpt lat="42.418403" lon="-2.723974">
        <ele>514.8</ele>
        <time>2019-08-20T14:02:30Z</time>
        <sat>11</sat>
      </trkpt>
      <trkpt lat="42.418385" lon="-2.724018">
        <ele>514.7</ele>
        <time>2019-08-20T14:02:33Z</time>
        <sat>9</sat>
      </trkpt>
      <trkpt lat="42.418379" lon="-2.724114">
        <ele>514.7</ele>
        <time>2019-08-20T14:02:38Z</time>
        <sat>10</sat>
      </trkpt>
      <trkpt lat="42.418391" lon="-2.724241">
        <ele>514.6</ele>
        <time>2019-08-20T14:02:47Z</time>
        <sat>11</sat>
      </trkpt>
      <trkpt lat="42.418392" lon="-2.724315">
        <ele>514.3</ele>
        <time>2019-08-20T14:02:51Z</time>
        <sat>10</sat>
      </trkpt>
      <trkpt lat="42.418364" lon="-2.724481">
        <ele>514.0</ele>
        <time>2019-08-20T14:03:01Z</time>
        <sat>9</sat>
      </trkpt>
      <trkpt lat="42.418359" lon="-2.724597">
        <ele>513.8</ele>
        <time>2019-08-20T14:03:07Z</time>
        <sat>11</sat>
      </trkpt>
      <trkpt lat="42.418347" lon="-2.724659">
        <ele>513.8</ele>
        <time>2019-08-20T14:03:11Z</time>
        <sat>11</sat>
      </trkpt>
      <trkpt lat="42.418349" lon="-2.724750">
        <ele>513.7</ele>
        <time>2019-08-20T14:03:16Z</time>
        <sat>10</sat>
      </trkpt>
      <trkpt lat="42.418342" lon="-2.724814">
        <ele>513.7</ele>
        <time>2019-08-20T14:03:20Z</time>
        <sat>11</sat>
      </trkpt>
      <trkpt lat="42.418301" lon="-2.724922">
        <ele>513.6</ele>
        <time>2019-08-20T14:03:27Z</time>
        <sat>10</sat>
      </trkpt>
      <trkpt lat="42.418292" lon="-2.725005">
        <ele>513.6</ele>
        <time>2019-08-20T14:03:32Z</time>
        <sat>10</sat>
      </trkpt>
      <trkpt lat="42.418277" lon="-2.725592">
        <ele>513.2</ele>
        <time>2019-08-20T14:04:06Z</time>
        <sat>11</sat>
      </trkpt>
      <trkpt lat="42.418300" lon="-2.725773">
        <ele>513.1</ele>
        <time>2019-08-20T14:04:16Z</time>
        <sat>11</sat>
      </trkpt>
      <trkpt lat="42.418307" lon="-2.725901">
        <ele>513.0</ele>
        <time>2019-08-20T14:04:23Z</time>
        <sat>11</sat>
      </trkpt>
      <trkpt lat="42.418294" lon="-2.725978">
        <ele>512.8</ele>
        <time>2019-08-20T14:04:27Z</time>
        <sat>11</sat>
      </trkpt>
      <trkpt lat="42.418276" lon="-2.726129">
        <ele>512.6</ele>
        <time>2019-08-20T14:04:37Z</time>
        <sat>11</sat>
      </trkpt>
      <trkpt lat="42.418211" lon="-2.726454">
        <ele>512.0</ele>
        <time>2019-08-20T14:04:57Z</time>
        <sat>11</sat>
      </trkpt>
      <trkpt lat="42.418208" lon="-2.726508">
        <ele>512.1</ele>
        <time>2019-08-20T14:05:00Z</time>
        <sat>11</sat>
      </trkpt>
      <trkpt lat="42.418196" lon="-2.726722">
        <ele>512.0</ele>
        <time>2019-08-20T14:05:17Z</time>
        <sat>9</sat>
      </trkpt>
      <trkpt lat="42.418214" lon="-2.726884">
        <ele>511.7</ele>
        <time>2019-08-20T14:05:26Z</time>
        <sat>10</sat>
      </trkpt>
      <trkpt lat="42.418180" lon="-2.727091">
        <ele>510.7</ele>
        <time>2019-08-20T14:05:39Z</time>
        <sat>12</sat>
      </trkpt>
      <trkpt lat="42.418151" lon="-2.727155">
        <ele>510.2</ele>
        <time>2019-08-20T14:05:44Z</time>
        <sat>12</sat>
      </trkpt>
      <trkpt lat="42.418140" lon="-2.727208">
        <ele>510.0</ele>
        <time>2019-08-20T14:05:47Z</time>
        <sat>11</sat>
      </trkpt>
      <trkpt lat="42.418124" lon="-2.727386">
        <ele>509.5</ele>
        <time>2019-08-20T14:05:58Z</time>
        <sat>9</sat>
      </trkpt>
      <trkpt lat="42.418092" lon="-2.727453">
        <ele>509.3</ele>
        <time>2019-08-20T14:06:05Z</time>
        <sat>10</sat>
      </trkpt>
      <trkpt lat="42.418078" lon="-2.727528">
        <ele>509.3</ele>
        <time>2019-08-20T14:06:10Z</time>
        <sat>10</sat>
      </trkpt>
      <trkpt lat="42.418007" lon="-2.727662">
        <ele>507.4</ele>
        <time>2019-08-20T14:06:21Z</time>
        <sat>11</sat>
      </trkpt>
      <trkpt lat="42.417972" lon="-2.727790">
        <ele>506.9</ele>
        <time>2019-08-20T14:06:29Z</time>
        <sat>11</sat>
      </trkpt>
      <trkpt lat="42.417981" lon="-2.727912">
        <ele>506.5</ele>
        <time>2019-08-20T14:06:37Z</time>
        <sat>11</sat>
      </trkpt>
      <trkpt lat="42.417947" lon="-2.727993">
        <ele>505.3</ele>
        <time>2019-08-20T14:06:47Z</time>
        <sat>11</sat>
      </trkpt>
      <trkpt lat="42.417955" lon="-2.728072">
        <ele>505.0</ele>
        <time>2019-08-20T14:06:53Z</time>
        <sat>12</sat>
      </trkpt>
      <trkpt lat="42.417950" lon="-2.728146">
        <ele>504.3</ele>
        <time>2019-08-20T14:06:58Z</time>
        <sat>11</sat>
      </trkpt>
      <trkpt lat="42.417928" lon="-2.728219">
        <ele>503.9</ele>
        <time>2019-08-20T14:07:00Z</time>
        <sat>12</sat>
      </trkpt>
      <trkpt lat="42.417923" lon="-2.728356">
        <ele>503.4</ele>
        <time>2019-08-20T14:07:05Z</time>
        <sat>11</sat>
      </trkpt>
      <trkpt lat="42.417910" lon="-2.728412">
        <ele>503.3</ele>
        <time>2019-08-20T14:07:08Z</time>
        <sat>11</sat>
      </trkpt>
      <trkpt lat="42.417780" lon="-2.728830">
        <ele>500.6</ele>
        <time>2019-08-20T14:07:43Z</time>
        <sat>12</sat>
      </trkpt>
      <trkpt lat="42.417769" lon="-2.728902">
        <ele>500.2</ele>
        <time>2019-08-20T14:07:47Z</time>
        <sat>12</sat>
      </trkpt>
      <trkpt lat="42.417749" lon="-2.728950">
        <ele>500.0</ele>
        <time>2019-08-20T14:07:51Z</time>
        <sat>11</sat>
      </trkpt>
      <trkpt lat="42.417719" lon="-2.729066">
        <ele>499.8</ele>
        <time>2019-08-20T14:07:59Z</time>
        <sat>12</sat>
      </trkpt>
      <trkpt lat="42.417697" lon="-2.729106">
        <ele>499.7</ele>
        <time>2019-08-20T14:08:02Z</time>
        <sat>12</sat>
      </trkpt>
      <trkpt lat="42.417682" lon="-2.729187">
        <ele>499.6</ele>
        <time>2019-08-20T14:08:09Z</time>
        <sat>12</sat>
      </trkpt>
      <trkpt lat="42.417611" lon="-2.729375">
        <ele>499.4</ele>
        <time>2019-08-20T14:08:21Z</time>
        <sat>10</sat>
      </trkpt>
      <trkpt lat="42.417562" lon="-2.729438">
        <ele>499.4</ele>
        <time>2019-08-20T14:08:25Z</time>
        <sat>12</sat>
      </trkpt>
      <trkpt lat="42.417493" lon="-2.729492">
        <ele>499.4</ele>
        <time>2019-08-20T14:08:35Z</time>
        <sat>12</sat>
      </trkpt>
      <trkpt lat="42.417454" lon="-2.729564">
        <ele>499.4</ele>
        <time>2019-08-20T14:08:44Z</time>
        <sat>12</sat>
      </trkpt>
      <trkpt lat="42.417384" lon="-2.729695">
        <ele>499.3</ele>
        <time>2019-08-20T14:09:00Z</time>
        <sat>11</sat>
      </trkpt>
      <trkpt lat="42.417332" lon="-2.729775">
        <ele>499.2</ele>
        <time>2019-08-20T14:09:11Z</time>
        <sat>11</sat>
      </trkpt>
      <trkpt lat="42.417308" lon="-2.729839">
        <ele>499.2</ele>
        <time>2019-08-20T14:09:15Z</time>
        <sat>12</sat>
      </trkpt>
      <trkpt lat="42.417271" lon="-2.729898">
        <ele>499.2</ele>
        <time>2019-08-20T14:09:19Z</time>
        <sat>11</sat>
      </trkpt>
      <trkpt lat="42.417237" lon="-2.729979">
        <ele>499.2</ele>
        <time>2019-08-20T14:09:28Z</time>
        <sat>11</sat>
      </trkpt>
      <trkpt lat="42.417183" lon="-2.730055">
        <ele>499.2</ele>
        <time>2019-08-20T14:09:34Z</time>
        <sat>11</sat>
      </trkpt>
      <trkpt lat="42.417110" lon="-2.730244">
        <ele>499.1</ele>
        <time>2019-08-20T14:10:02Z</time>
        <sat>10</sat>
      </trkpt>
      <trkpt lat="42.417095" lon="-2.730248">
        <ele>499.1</ele>
        <time>2019-08-20T14:10:10Z</time>
        <sat>12</sat>
      </trkpt>
      <trkpt lat="42.417070" lon="-2.730296">
        <ele>498.9</ele>
        <time>2019-08-20T14:10:14Z</time>
        <sat>12</sat>
      </trkpt>
      <trkpt lat="42.417057" lon="-2.730364">
        <ele>498.6</ele>
        <time>2019-08-20T14:10:18Z</time>
        <sat>11</sat>
      </trkpt>
      <trkpt lat="42.417017" lon="-2.730465">
        <ele>498.4</ele>
        <time>2019-08-20T14:10:25Z</time>
        <sat>11</sat>
      </trkpt>
      <trkpt lat="42.417003" lon="-2.730577">
        <ele>498.0</ele>
        <time>2019-08-20T14:10:31Z</time>
        <sat>11</sat>
      </trkpt>
      <trkpt lat="42.417011" lon="-2.730631">
        <ele>497.8</ele>
        <time>2019-08-20T14:10:34Z</time>
        <sat>11</sat>
      </trkpt>
      <trkpt lat="42.416986" lon="-2.730697">
        <ele>497.7</ele>
        <time>2019-08-20T14:10:38Z</time>
        <sat>12</sat>
      </trkpt>
      <trkpt lat="42.416955" lon="-2.730905">
        <ele>497.0</ele>
        <time>2019-08-20T14:10:51Z</time>
        <sat>11</sat>
      </trkpt>
      <trkpt lat="42.416931" lon="-2.730980">
        <ele>497.0</ele>
        <time>2019-08-20T14:10:56Z</time>
        <sat>12</sat>
      </trkpt>
      <trkpt lat="42.416904" lon="-2.731032">
        <ele>496.8</ele>
        <time>2019-08-20T14:11:01Z</time>
        <sat>12</sat>
      </trkpt>
      <trkpt lat="42.416921" lon="-2.731112">
        <ele>496.6</ele>
        <time>2019-08-20T14:11:07Z</time>
        <sat>12</sat>
      </trkpt>
      <trkpt lat="42.416977" lon="-2.731198">
        <ele>496.6</ele>
        <time>2019-08-20T14:11:12Z</time>
        <sat>11</sat>
      </trkpt>
      <trkpt lat="42.417011" lon="-2.731278">
        <ele>496.5</ele>
        <time>2019-08-20T14:11:16Z</time>
        <sat>11</sat>
      </trkpt>
      <trkpt lat="42.417027" lon="-2.731341">
        <ele>496.5</ele>
        <time>2019-08-20T14:11:19Z</time>
        <sat>11</sat>
      </trkpt>
      <trkpt lat="42.417052" lon="-2.731408">
        <ele>496.5</ele>
        <time>2019-08-20T14:11:23Z</time>
        <sat>9</sat>
      </trkpt>
      <trkpt lat="42.417114" lon="-2.731542">
        <ele>496.5</ele>
        <time>2019-08-20T14:11:32Z</time>
        <sat>9</sat>
      </trkpt>
      <trkpt lat="42.417164" lon="-2.731624">
        <ele>496.5</ele>
        <time>2019-08-20T14:11:39Z</time>
        <sat>12</sat>
      </trkpt>
      <trkpt lat="42.417171" lon="-2.731694">
        <ele>496.6</ele>
        <time>2019-08-20T14:11:44Z</time>
        <sat>11</sat>
      </trkpt>
      <trkpt lat="42.417195" lon="-2.731817">
        <ele>496.9</ele>
        <time>2019-08-20T14:11:54Z</time>
        <sat>11</sat>
      </trkpt>
      <trkpt lat="42.417319" lon="-2.731966">
        <ele>497.3</ele>
        <time>2019-08-20T14:12:02Z</time>
        <sat>9</sat>
      </trkpt>
      <trkpt lat="42.417355" lon="-2.732034">
        <ele>497.8</ele>
        <time>2019-08-20T14:12:13Z</time>
        <sat>12</sat>
      </trkpt>
      <trkpt lat="42.417361" lon="-2.732046">
        <ele>497.9</ele>
        <time>2019-08-20T14:12:31Z</time>
        <sat>10</sat>
      </trkpt>
      <trkpt lat="42.417363" lon="-2.732055">
        <ele>497.9</ele>
        <time>2019-08-20T14:12:41Z</time>
        <sat>11</sat>
      </trkpt>
      <trkpt lat="42.417384" lon="-2.732205">
        <ele>498.2</ele>
        <time>2019-08-20T14:12:50Z</time>
        <sat>11</sat>
      </trkpt>
      <trkpt lat="42.417384" lon="-2.732256">
        <ele>498.2</ele>
        <time>2019-08-20T14:12:53Z</time>
        <sat>12</sat>
      </trkpt>
      <trkpt lat="42.417408" lon="-2.732350">
        <ele>498.3</ele>
        <time>2019-08-20T14:13:08Z</time>
        <sat>12</sat>
      </trkpt>
      <trkpt lat="42.417424" lon="-2.732483">
        <ele>498.2</ele>
        <time>2019-08-20T14:13:16Z</time>
        <sat>11</sat>
      </trkpt>
      <trkpt lat="42.417424" lon="-2.732646">
        <ele>498.1</ele>
        <time>2019-08-20T14:13:32Z</time>
        <sat>11</sat>
      </trkpt>
      <trkpt lat="42.417436" lon="-2.732708">
        <ele>498.1</ele>
        <time>2019-08-20T14:13:37Z</time>
        <sat>11</sat>
      </trkpt>
      <trkpt lat="42.417440" lon="-2.732779">
        <ele>498.1</ele>
        <time>2019-08-20T14:13:41Z</time>
        <sat>12</sat>
      </trkpt>
      <trkpt lat="42.417467" lon="-2.732965">
        <ele>498.2</ele>
        <time>2019-08-20T14:13:58Z</time>
        <sat>11</sat>
      </trkpt>
      <trkpt lat="42.417474" lon="-2.733024">
        <ele>498.2</ele>
        <time>2019-08-20T14:14:54Z</time>
        <sat>10</sat>
      </trkpt>
      <trkpt lat="42.417477" lon="-2.733067">
        <ele>498.2</ele>
        <time>2019-08-20T14:15:01Z</time>
        <sat>11</sat>
      </trkpt>
      <trkpt lat="42.417477" lon="-2.733113">
        <ele>497.9</ele>
        <time>2019-08-20T14:15:07Z</time>
        <sat>9</sat>
      </trkpt>
      <trkpt lat="42.417481" lon="-2.733152">
        <ele>497.8</ele>
        <time>2019-08-20T14:15:16Z</time>
        <sat>10</sat>
      </trkpt>
      <trkpt lat="42.417497" lon="-2.733197">
        <ele>497.5</ele>
        <time>2019-08-20T14:15:21Z</time>
        <sat>9</sat>
      </trkpt>
    </trkseg>
    <trkseg>
      <trkpt lat="42.417498" lon="-2.733210">
        <ele>491.3</ele>
        <time>2019-08-21T05:21:20Z</time>
        <sat>5</sat>
      </trkpt>
      <trkpt lat="42.417513" lon="-2.733262">
        <ele>491.2</ele>
        <time>2019-08-21T05:21:24Z</time>
        <sat>5</sat>
      </trkpt>
      <trkpt lat="42.417570" lon="-2.733333">
        <ele>489.8</ele>
        <time>2019-08-21T05:21:33Z</time>
        <sat>6</sat>
      </trkpt>
      <trkpt lat="42.417619" lon="-2.733357">
        <ele>491.3</ele>
        <time>2019-08-21T05:21:39Z</time>
        <sat>5</sat>
      </trkpt>
      <trkpt lat="42.417704" lon="-2.733381">
        <ele>490.7</ele>
        <time>2019-08-21T05:21:52Z</time>
        <sat>5</sat>
      </trkpt>
      <trkpt lat="42.417831" lon="-2.733406">
        <ele>489.7</ele>
        <time>2019-08-21T05:22:02Z</time>
        <sat>5</sat>
      </trkpt>
      <trkpt lat="42.417894" lon="-2.733467">
        <ele>490.0</ele>
        <time>2019-08-21T05:22:09Z</time>
        <sat>4</sat>
      </trkpt>
      <trkpt lat="42.417923" lon="-2.733508">
        <ele>490.0</ele>
        <time>2019-08-21T05:22:13Z</time>
        <sat>5</sat>
      </trkpt>
      <trkpt lat="42.418025" lon="-2.733695">
        <ele>490.4</ele>
        <time>2019-08-21T05:22:32Z</time>
        <sat>6</sat>
      </trkpt>
      <trkpt lat="42.418065" lon="-2.733700">
        <ele>490.0</ele>
        <time>2019-08-21T05:22:40Z</time>
        <sat>5</sat>
      </trkpt>
      <trkpt lat="42.418169" lon="-2.733825">
        <ele>490.3</ele>
        <time>2019-08-21T05:22:50Z</time>
        <sat>6</sat>
      </trkpt>
      <trkpt lat="42.418169" lon="-2.733930">
        <ele>490.2</ele>
        <time>2019-08-21T05:23:05Z</time>
        <sat>6</sat>
      </trkpt>
      <trkpt lat="42.418166" lon="-2.733989">
        <ele>489.8</ele>
        <time>2019-08-21T05:23:43Z</time>
        <sat>6</sat>
      </trkpt>
      <trkpt lat="42.418097" lon="-2.734033">
        <ele>489.9</ele>
        <time>2019-08-21T05:23:49Z</time>
        <sat>6</sat>
      </trkpt>
      <trkpt lat="42.418096" lon="-2.734097">
        <ele>489.9</ele>
        <time>2019-08-21T05:23:51Z</time>
        <sat>6</sat>
      </trkpt>
      <trkpt lat="42.418069" lon="-2.734169">
        <ele>489.9</ele>
        <time>2019-08-21T05:23:58Z</time>
        <sat>6</sat>
      </trkpt>
      <trkpt lat="42.418102" lon="-2.734247">
        <ele>489.0</ele>
        <time>2019-08-21T05:24:05Z</time>
        <sat>5</sat>
      </trkpt>
      <trkpt lat="42.418140" lon="-2.734283">
        <ele>489.0</ele>
        <time>2019-08-21T05:24:09Z</time>
        <sat>5</sat>
      </trkpt>
      <trkpt lat="42.418228" lon="-2.734319">
        <ele>489.0</ele>
        <time>2019-08-21T05:24:13Z</time>
        <sat>5</sat>
      </trkpt>
      <trkpt lat="42.418250" lon="-2.734366">
        <ele>489.6</ele>
        <time>2019-08-21T05:24:16Z</time>
        <sat>6</sat>
      </trkpt>
      <trkpt lat="42.418266" lon="-2.734448">
        <ele>489.7</ele>
        <time>2019-08-21T05:24:21Z</time>
        <sat>6</sat>
      </trkpt>
      <trkpt lat="42.418336" lon="-2.734663">
        <ele>489.5</ele>
        <time>2019-08-21T05:24:34Z</time>
        <sat>6</sat>
      </trkpt>
      <trkpt lat="42.418287" lon="-2.734710">
        <ele>489.5</ele>
        <time>2019-08-21T05:24:42Z</time>
        <sat>5</sat>
      </trkpt>
      <trkpt lat="42.418228" lon="-2.734797">
        <ele>489.5</ele>
        <time>2019-08-21T05:24:48Z</time>
        <sat>6</sat>
      </trkpt>
      <trkpt lat="42.418215" lon="-2.734813">
        <ele>489.7</ele>
        <time>2019-08-21T05:24:58Z</time>
        <sat>6</sat>
      </trkpt>
      <trkpt lat="42.418143" lon="-2.734844">
        <ele>490.0</ele>
        <time>2019-08-21T05:25:06Z</time>
        <sat>6</sat>
      </trkpt>
      <trkpt lat="42.418052" lon="-2.734853">
        <ele>490.1</ele>
        <time>2019-08-21T05:25:11Z</time>
        <sat>5</sat>
      </trkpt>
      <trkpt lat="42.417881" lon="-2.734902">
        <ele>490.4</ele>
        <time>2019-08-21T05:25:20Z</time>
        <sat>6</sat>
      </trkpt>
      <trkpt lat="42.417729" lon="-2.734918">
        <ele>490.5</ele>
        <time>2019-08-21T05:25:26Z</time>
        <sat>6</sat>
      </trkpt>
      <trkpt lat="42.417597" lon="-2.734953">
        <ele>491.0</ele>
        <time>2019-08-21T05:25:44Z</time>
        <sat>6</sat>
      </trkpt>
      <trkpt lat="42.417548" lon="-2.735005">
        <ele>491.1</ele>
        <time>2019-08-21T05:25:50Z</time>
        <sat>6</sat>
      </trkpt>
      <trkpt lat="42.417415" lon="-2.735059">
        <ele>492.0</ele>
        <time>2019-08-21T05:27:25Z</time>
        <sat>8</sat>
      </trkpt>
      <trkpt lat="42.417357" lon="-2.735144">
        <ele>491.5</ele>
        <time>2019-08-21T05:27:35Z</time>
        <sat>8</sat>
      </trkpt>
      <trkpt lat="42.417316" lon="-2.735188">
        <ele>491.6</ele>
        <time>2019-08-21T05:27:42Z</time>
        <sat>8</sat>
      </trkpt>
      <trkpt lat="42.417274" lon="-2.735224">
        <ele>492.5</ele>
        <time>2019-08-21T05:27:46Z</time>
        <sat>8</sat>
      </trkpt>
      <trkpt lat="42.417130" lon="-2.735293">
        <ele>492.7</ele>
        <time>2019-08-21T05:27:56Z</time>
        <sat>7</sat>
      </trkpt>
      <trkpt lat="42.416966" lon="-2.735320">
        <ele>492.9</ele>
        <time>2019-08-21T05:28:23Z</time>
        <sat>7</sat>
      </trkpt>
      <trkpt lat="42.416892" lon="-2.735307">
        <ele>493.0</ele>
        <time>2019-08-21T05:28:29Z</time>
        <sat>7</sat>
      </trkpt>
      <trkpt lat="42.416822" lon="-2.735307">
        <ele>493.0</ele>
        <time>2019-08-21T05:28:34Z</time>
        <sat>7</sat>
      </trkpt>
      <trkpt lat="42.416755" lon="-2.735285">
        <ele>493.1</ele>
        <time>2019-08-21T05:28:39Z</time>
        <sat>7</sat>
      </trkpt>
      <trkpt lat="42.416586" lon="-2.735250">
        <ele>493.4</ele>
        <time>2019-08-21T05:29:50Z</time>
        <sat>8</sat>
      </trkpt>
      <trkpt lat="42.416520" lon="-2.735272">
        <ele>493.4</ele>
        <time>2019-08-21T05:29:57Z</time>
        <sat>7</sat>
      </trkpt>
      <trkpt lat="42.416397" lon="-2.735286">
        <ele>493.6</ele>
        <time>2019-08-21T05:30:06Z</time>
        <sat>6</sat>
      </trkpt>
      <trkpt lat="42.416331" lon="-2.735315">
        <ele>493.7</ele>
        <time>2019-08-21T05:30:11Z</time>
        <sat>6</sat>
      </trkpt>
      <trkpt lat="42.416287" lon="-2.735315">
        <ele>493.8</ele>
        <time>2019-08-21T05:30:13Z</time>
        <sat>8</sat>
      </trkpt>
      <trkpt lat="42.416038" lon="-2.735327">
        <ele>494.1</ele>
        <time>2019-08-21T05:30:28Z</time>
        <sat>7</sat>
      </trkpt>
      <trkpt lat="42.415862" lon="-2.735354">
        <ele>494.1</ele>
        <time>2019-08-21T05:31:33Z</time>
        <sat>8</sat>
      </trkpt>
      <trkpt lat="42.415848" lon="-2.735455">
        <ele>494.6</ele>
        <time>2019-08-21T05:31:40Z</time>
        <sat>8</sat>
      </trkpt>
      <trkpt lat="42.415821" lon="-2.735552">
        <ele>495.0</ele>
        <time>2019-08-21T05:31:47Z</time>
        <sat>8</sat>
      </trkpt>
      <trkpt lat="42.415786" lon="-2.735747">
        <ele>496.2</ele>
        <time>2019-08-21T05:32:05Z</time>
        <sat>8</sat>
      </trkpt>
      <trkpt lat="42.415793" lon="-2.735797">
        <ele>496.4</ele>
        <time>2019-08-21T05:32:10Z</time>
        <sat>7</sat>
      </trkpt>
      <trkpt lat="42.415795" lon="-2.736548">
        <ele>499.9</ele>
        <time>2019-08-21T05:33:34Z</time>
        <sat>6</sat>
      </trkpt>
      <trkpt lat="42.415800" lon="-2.736752">
        <ele>500.6</ele>
        <time>2019-08-21T05:33:44Z</time>
        <sat>7</sat>
      </trkpt>
      <trkpt lat="42.415794" lon="-2.736811">
        <ele>500.8</ele>
        <time>2019-08-21T05:33:47Z</time>
        <sat>7</sat>
      </trkpt>
      <trkpt lat="42.415825" lon="-2.736903">
        <ele>501.2</ele>
        <time>2019-08-21T05:33:53Z</time>
        <sat>8</sat>
      </trkpt>
      <trkpt lat="42.415860" lon="-2.736980">
        <ele>501.4</ele>
        <time>2019-08-21T05:33:57Z</time>
        <sat>7</sat>
      </trkpt>
      <trkpt lat="42.415872" lon="-2.737033">
        <ele>501.7</ele>
        <time>2019-08-21T05:34:00Z</time>
        <sat>8</sat>
      </trkpt>
      <trkpt lat="42.415908" lon="-2.737127">
        <ele>502.2</ele>
        <time>2019-08-21T05:34:05Z</time>
        <sat>7</sat>
      </trkpt>
      <trkpt lat="42.415946" lon="-2.737294">
        <ele>502.8</ele>
        <time>2019-08-21T05:34:15Z</time>
        <sat>8</sat>
      </trkpt>
      <trkpt lat="42.415981" lon="-2.737384">
        <ele>503.4</ele>
        <time>2019-08-21T05:34:20Z</time>
        <sat>7</sat>
      </trkpt>
      <trkpt lat="42.415986" lon="-2.737466">
        <ele>503.9</ele>
        <time>2019-08-21T05:34:25Z</time>
        <sat>7</sat>
      </trkpt>
      <trkpt lat="42.415959" lon="-2.737592">
        <ele>504.5</ele>
        <time>2019-08-21T05:34:31Z</time>
        <sat>7</sat>
      </trkpt>
      <trkpt lat="42.415957" lon="-2.737678">
        <ele>504.9</ele>
        <time>2019-08-21T05:34:35Z</time>
        <sat>8</sat>
      </trkpt>
      <trkpt lat="42.415930" lon="-2.737743">
        <ele>505.3</ele>
        <time>2019-08-21T05:34:39Z</time>
        <sat>8</sat>
      </trkpt>
      <trkpt lat="42.415838" lon="-2.737970">
        <ele>506.5</ele>
        <time>2019-08-21T05:35:04Z</time>
        <sat>8</sat>
      </trkpt>
      <trkpt lat="42.415791" lon="-2.738015">
        <ele>506.6</ele>
        <time>2019-08-21T05:35:08Z</time>
        <sat>8</sat>
      </trkpt>
      <trkpt lat="42.415731" lon="-2.738043">
        <ele>506.9</ele>
        <time>2019-08-21T05:35:12Z</time>
        <sat>8</sat>
      </trkpt>
      <trkpt lat="42.415709" lon="-2.738120">
        <ele>507.2</ele>
        <time>2019-08-21T05:35:16Z</time>
        <sat>8</sat>
      </trkpt>
      <trkpt lat="42.415658" lon="-2.738209">
        <ele>508.0</ele>
        <time>2019-08-21T05:35:22Z</time>
        <sat>8</sat>
      </trkpt>
      <trkpt lat="42.415624" lon="-2.738294">
        <ele>508.6</ele>
        <time>2019-08-21T05:35:27Z</time>
        <sat>8</sat>
      </trkpt>
      <trkpt lat="42.415595" lon="-2.738329">
        <ele>508.9</ele>
        <time>2019-08-21T05:35:30Z</time>
        <sat>8</sat>
      </trkpt>
      <trkpt lat="42.415573" lon="-2.738399">
        <ele>509.5</ele>
        <time>2019-08-21T05:35:34Z</time>
        <sat>8</sat>
      </trkpt>
      <trkpt lat="42.415558" lon="-2.738466">
        <ele>509.8</ele>
        <time>2019-08-21T05:35:38Z</time>
        <sat>7</sat>
      </trkpt>
      <trkpt lat="42.415505" lon="-2.738618">
        <ele>510.7</ele>
        <time>2019-08-21T05:35:48Z</time>
        <sat>7</sat>
      </trkpt>
      <trkpt lat="42.415492" lon="-2.738705">
        <ele>511.1</ele>
        <time>2019-08-21T05:35:53Z</time>
        <sat>7</sat>
      </trkpt>
      <trkpt lat="42.415513" lon="-2.738797">
        <ele>511.4</ele>
        <time>2019-08-21T05:35:59Z</time>
        <sat>7</sat>
      </trkpt>
      <trkpt lat="42.415480" lon="-2.738918">
        <ele>511.7</ele>
        <time>2019-08-21T05:36:07Z</time>
        <sat>8</sat>
      </trkpt>
      <trkpt lat="42.415464" lon="-2.739058">
        <ele>512.0</ele>
        <time>2019-08-21T05:36:14Z</time>
        <sat>8</sat>
      </trkpt>
      <trkpt lat="42.415454" lon="-2.739110">
        <ele>512.2</ele>
        <time>2019-08-21T05:36:17Z</time>
        <sat>8</sat>
      </trkpt>
      <trkpt lat="42.415454" lon="-2.739187">
        <ele>512.5</ele>
        <time>2019-08-21T05:36:21Z</time>
        <sat>8</sat>
      </trkpt>
      <trkpt lat="42.415460" lon="-2.739253">
        <ele>512.7</ele>
        <time>2019-08-21T05:36:24Z</time>
        <sat>8</sat>
      </trkpt>
      <trkpt lat="42.415459" lon="-2.739405">
        <ele>513.3</ele>
        <time>2019-08-21T05:36:32Z</time>
        <sat>8</sat>
      </trkpt>
      <trkpt lat="42.415420" lon="-2.739537">
        <ele>513.8</ele>
        <time>2019-08-21T05:36:40Z</time>
        <sat>9</sat>
      </trkpt>
      <trkpt lat="42.415406" lon="-2.739573">
        <ele>514.1</ele>
        <time>2019-08-21T05:36:48Z</time>
        <sat>9</sat>
      </trkpt>
      <trkpt lat="42.415341" lon="-2.739698">
        <ele>514.7</ele>
        <time>2019-08-21T05:36:57Z</time>
        <sat>9</sat>
      </trkpt>
      <trkpt lat="42.415318" lon="-2.739750">
        <ele>514.8</ele>
        <time>2019-08-21T05:37:01Z</time>
        <sat>9</sat>
      </trkpt>
      <trkpt lat="42.415233" lon="-2.739893">
        <ele>515.5</ele>
        <time>2019-08-21T05:37:16Z</time>
        <sat>9</sat>
      </trkpt>
      <trkpt lat="42.415194" lon="-2.739949">
        <ele>515.8</ele>
        <time>2019-08-21T05:37:20Z</time>
        <sat>9</sat>
      </trkpt>
      <trkpt lat="42.415147" lon="-2.740062">
        <ele>516.5</ele>
        <time>2019-08-21T05:37:27Z</time>
        <sat>9</sat>
      </trkpt>
      <trkpt lat="42.415085" lon="-2.740140">
        <ele>517.5</ele>
        <time>2019-08-21T05:37:33Z</time>
        <sat>9</sat>
      </trkpt>
      <trkpt lat="42.415047" lon="-2.740171">
        <ele>517.8</ele>
        <time>2019-08-21T05:37:36Z</time>
        <sat>9</sat>
      </trkpt>
      <trkpt lat="42.414996" lon="-2.740264">
        <ele>519.0</ele>
        <time>2019-08-21T05:37:43Z</time>
        <sat>9</sat>
      </trkpt>
      <trkpt lat="42.414974" lon="-2.740338">
        <ele>520.1</ele>
        <time>2019-08-21T05:37:48Z</time>
        <sat>9</sat>
      </trkpt>
      <trkpt lat="42.414936" lon="-2.740406">
        <ele>521.0</ele>
        <time>2019-08-21T05:37:54Z</time>
        <sat>9</sat>
      </trkpt>
      <trkpt lat="42.414843" lon="-2.740527">
        <ele>522.8</ele>
        <time>2019-08-21T05:38:05Z</time>
        <sat>9</sat>
      </trkpt>
      <trkpt lat="42.414805" lon="-2.740590">
        <ele>524.2</ele>
        <time>2019-08-21T05:38:18Z</time>
        <sat>9</sat>
      </trkpt>
      <trkpt lat="42.414716" lon="-2.740744">
        <ele>524.9</ele>
        <time>2019-08-21T05:38:29Z</time>
        <sat>9</sat>
      </trkpt>
      <trkpt lat="42.414631" lon="-2.740917">
        <ele>526.4</ele>
        <time>2019-08-21T05:38:41Z</time>
        <sat>9</sat>
      </trkpt>
      <trkpt lat="42.414550" lon="-2.741090">
        <ele>528.2</ele>
        <time>2019-08-21T05:38:53Z</time>
        <sat>9</sat>
      </trkpt>
      <trkpt lat="42.414499" lon="-2.741305">
        <ele>530.3</ele>
        <time>2019-08-21T05:39:10Z</time>
        <sat>9</sat>
      </trkpt>
      <trkpt lat="42.414473" lon="-2.741382">
        <ele>530.9</ele>
        <time>2019-08-21T05:39:15Z</time>
        <sat>9</sat>
      </trkpt>
      <trkpt lat="42.414459" lon="-2.741497">
        <ele>531.9</ele>
        <time>2019-08-21T05:39:22Z</time>
        <sat>9</sat>
      </trkpt>
      <trkpt lat="42.414407" lon="-2.741620">
        <ele>533.2</ele>
        <time>2019-08-21T05:39:31Z</time>
        <sat>9</sat>
      </trkpt>
      <trkpt lat="42.414369" lon="-2.741737">
        <ele>534.4</ele>
        <time>2019-08-21T05:39:39Z</time>
        <sat>9</sat>
      </trkpt>
      <trkpt lat="42.414340" lon="-2.741811">
        <ele>535.0</ele>
        <time>2019-08-21T05:39:44Z</time>
        <sat>9</sat>
      </trkpt>
      <trkpt lat="42.414312" lon="-2.741866">
        <ele>535.4</ele>
        <time>2019-08-21T05:39:48Z</time>
        <sat>9</sat>
      </trkpt>
      <trkpt lat="42.414289" lon="-2.741887">
        <ele>536.2</ele>
        <time>2019-08-21T05:39:56Z</time>
        <sat>9</sat>
      </trkpt>
      <trkpt lat="42.414248" lon="-2.741996">
        <ele>536.9</ele>
        <time>2019-08-21T05:40:03Z</time>
        <sat>9</sat>
      </trkpt>
      <trkpt lat="42.414217" lon="-2.742062">
        <ele>537.3</ele>
        <time>2019-08-21T05:40:07Z</time>
        <sat>9</sat>
      </trkpt>
      <trkpt lat="42.414181" lon="-2.742169">
        <ele>538.0</ele>
        <time>2019-08-21T05:40:14Z</time>
        <sat>9</sat>
      </trkpt>
      <trkpt lat="42.414148" lon="-2.742247">
        <ele>538.6</ele>
        <time>2019-08-21T05:40:19Z</time>
        <sat>9</sat>
      </trkpt>
      <trkpt lat="42.414128" lon="-2.742323">
        <ele>539.3</ele>
        <time>2019-08-21T05:40:24Z</time>
        <sat>9</sat>
      </trkpt>
      <trkpt lat="42.414080" lon="-2.742480">
        <ele>540.4</ele>
        <time>2019-08-21T05:40:34Z</time>
        <sat>9</sat>
      </trkpt>
      <trkpt lat="42.414068" lon="-2.742597">
        <ele>541.2</ele>
        <time>2019-08-21T05:40:41Z</time>
        <sat>9</sat>
      </trkpt>
      <trkpt lat="42.414065" lon="-2.742664">
        <ele>541.8</ele>
        <time>2019-08-21T05:40:45Z</time>
        <sat>8</sat>
      </trkpt>
      <trkpt lat="42.414044" lon="-2.742877">
        <ele>543.5</ele>
        <time>2019-08-21T05:40:58Z</time>
        <sat>9</sat>
      </trkpt>
      <trkpt lat="42.414049" lon="-2.742998">
        <ele>544.6</ele>
        <time>2019-08-21T05:41:05Z</time>
        <sat>9</sat>
      </trkpt>
      <trkpt lat="42.414083" lon="-2.743114">
        <ele>545.8</ele>
        <time>2019-08-21T05:41:13Z</time>
        <sat>9</sat>
      </trkpt>
      <trkpt lat="42.414137" lon="-2.743212">
        <ele>546.7</ele>
        <time>2019-08-21T05:41:20Z</time>
        <sat>8</sat>
      </trkpt>
      <trkpt lat="42.414213" lon="-2.743324">
        <ele>547.6</ele>
        <time>2019-08-21T05:41:28Z</time>
        <sat>7</sat>
      </trkpt>
      <trkpt lat="42.414240" lon="-2.743411">
        <ele>548.3</ele>
        <time>2019-08-21T05:41:34Z</time>
        <sat>8</sat>
      </trkpt>
      <trkpt lat="42.414247" lon="-2.743475">
        <ele>548.7</ele>
        <time>2019-08-21T05:41:38Z</time>
        <sat>8</sat>
      </trkpt>
      <trkpt lat="42.414269" lon="-2.743569">
        <ele>549.0</ele>
        <time>2019-08-21T05:41:44Z</time>
        <sat>7</sat>
      </trkpt>
      <trkpt lat="42.414294" lon="-2.743816">
        <ele>549.9</ele>
        <time>2019-08-21T05:41:59Z</time>
        <sat>8</sat>
      </trkpt>
      <trkpt lat="42.414299" lon="-2.743938">
        <ele>550.1</ele>
        <time>2019-08-21T05:42:06Z</time>
        <sat>8</sat>
      </trkpt>
      <trkpt lat="42.414310" lon="-2.744031">
        <ele>550.3</ele>
        <time>2019-08-21T05:42:11Z</time>
        <sat>8</sat>
      </trkpt>
      <trkpt lat="42.414306" lon="-2.744142">
        <ele>550.5</ele>
        <time>2019-08-21T05:42:17Z</time>
        <sat>9</sat>
      </trkpt>
      <trkpt lat="42.414312" lon="-2.744239">
        <ele>550.6</ele>
        <time>2019-08-21T05:42:22Z</time>
        <sat>9</sat>
      </trkpt>
      <trkpt lat="42.414298" lon="-2.744347">
        <ele>550.9</ele>
        <time>2019-08-21T05:42:28Z</time>
        <sat>8</sat>
      </trkpt>
      <trkpt lat="42.414302" lon="-2.744543">
        <ele>551.2</ele>
        <time>2019-08-21T05:42:39Z</time>
        <sat>8</sat>
      </trkpt>
      <trkpt lat="42.414313" lon="-2.744616">
        <ele>551.3</ele>
        <time>2019-08-21T05:42:43Z</time>
        <sat>8</sat>
      </trkpt>
      <trkpt lat="42.414313" lon="-2.744718">
        <ele>551.9</ele>
        <time>2019-08-21T05:42:52Z</time>
        <sat>8</sat>
      </trkpt>
      <trkpt lat="42.414336" lon="-2.744789">
        <ele>552.2</ele>
        <time>2019-08-21T05:42:56Z</time>
        <sat>8</sat>
      </trkpt>
      <trkpt lat="42.414353" lon="-2.744880">
        <ele>552.6</ele>
        <time>2019-08-21T05:43:01Z</time>
        <sat>8</sat>
      </trkpt>
      <trkpt lat="42.414381" lon="-2.744963">
        <ele>552.9</ele>
        <time>2019-08-21T05:43:06Z</time>
        <sat>8</sat>
      </trkpt>
      <trkpt lat="42.414388" lon="-2.745017">
        <ele>553.1</ele>
        <time>2019-08-21T05:43:09Z</time>
        <sat>8</sat>
      </trkpt>
      <trkpt lat="42.414438" lon="-2.745134">
        <ele>553.7</ele>
        <time>2019-08-21T05:43:16Z</time>
        <sat>8</sat>
      </trkpt>
      <trkpt lat="42.414481" lon="-2.745294">
        <ele>554.8</ele>
        <time>2019-08-21T05:43:25Z</time>
        <sat>9</sat>
      </trkpt>
      <trkpt lat="42.414470" lon="-2.745366">
        <ele>555.2</ele>
        <time>2019-08-21T05:43:29Z</time>
        <sat>9</sat>
      </trkpt>
      <trkpt lat="42.414464" lon="-2.745449">
        <ele>555.9</ele>
        <time>2019-08-21T05:43:34Z</time>
        <sat>10</sat>
      </trkpt>
      <trkpt lat="42.414445" lon="-2.745505">
        <ele>556.4</ele>
        <time>2019-08-21T05:43:38Z</time>
        <sat>10</sat>
      </trkpt>
      <trkpt lat="42.414441" lon="-2.745579">
        <ele>556.8</ele>
        <time>2019-08-21T05:43:47Z</time>
        <sat>10</sat>
      </trkpt>
      <trkpt lat="42.414444" lon="-2.745623">
        <ele>556.8</ele>
        <time>2019-08-21T05:43:50Z</time>
        <sat>10</sat>
      </trkpt>
      <trkpt lat="42.414449" lon="-2.745649">
        <ele>556.3</ele>
        <time>2019-08-21T05:44:02Z</time>
        <sat>10</sat>
      </trkpt>
      <trkpt lat="42.414538" lon="-2.745865">
        <ele>554.8</ele>
        <time>2019-08-21T05:44:24Z</time>
        <sat>7</sat>
      </trkpt>
      <trkpt lat="42.414577" lon="-2.745939">
        <ele>554.1</ele>
        <time>2019-08-21T05:44:31Z</time>
        <sat>8</sat>
      </trkpt>
      <trkpt lat="42.414620" lon="-2.746041">
        <ele>553.7</ele>
        <time>2019-08-21T05:44:39Z</time>
        <sat>9</sat>
      </trkpt>
      <trkpt lat="42.414656" lon="-2.746163">
        <ele>553.1</ele>
        <time>2019-08-21T05:44:48Z</time>
        <sat>9</sat>
      </trkpt>
      <trkpt lat="42.414681" lon="-2.746225">
        <ele>552.6</ele>
        <time>2019-08-21T05:44:53Z</time>
        <sat>7</sat>
      </trkpt>
      <trkpt lat="42.414715" lon="-2.746343">
        <ele>551.7</ele>
        <time>2019-08-21T05:45:01Z</time>
        <sat>7</sat>
      </trkpt>
      <trkpt lat="42.414754" lon="-2.746433">
        <ele>550.8</ele>
        <time>2019-08-21T05:45:07Z</time>
        <sat>7</sat>
      </trkpt>
      <trkpt lat="42.414767" lon="-2.746537">
        <ele>550.0</ele>
        <time>2019-08-21T05:45:13Z</time>
        <sat>8</sat>
      </trkpt>
      <trkpt lat="42.414782" lon="-2.746610">
        <ele>549.5</ele>
        <time>2019-08-21T05:45:17Z</time>
        <sat>9</sat>
      </trkpt>
      <trkpt lat="42.414793" lon="-2.746751">
        <ele>548.7</ele>
        <time>2019-08-21T05:45:25Z</time>
        <sat>9</sat>
      </trkpt>
      <trkpt lat="42.414814" lon="-2.746826">
        <ele>548.5</ele>
        <time>2019-08-21T05:45:29Z</time>
        <sat>9</sat>
      </trkpt>
      <trkpt lat="42.414848" lon="-2.746998">
        <ele>547.7</ele>
        <time>2019-08-21T05:45:39Z</time>
        <sat>9</sat>
      </trkpt>
      <trkpt lat="42.414882" lon="-2.747096">
        <ele>547.3</ele>
        <time>2019-08-21T05:45:45Z</time>
        <sat>8</sat>
      </trkpt>
      <trkpt lat="42.414937" lon="-2.747295">
        <ele>546.8</ele>
        <time>2019-08-21T05:45:57Z</time>
        <sat>9</sat>
      </trkpt>
      <trkpt lat="42.414957" lon="-2.747400">
        <ele>546.7</ele>
        <time>2019-08-21T05:46:03Z</time>
        <sat>10</sat>
      </trkpt>
      <trkpt lat="42.414986" lon="-2.747479">
        <ele>546.6</ele>
        <time>2019-08-21T05:46:08Z</time>
        <sat>10</sat>
      </trkpt>
      <trkpt lat="42.415004" lon="-2.747543">
        <ele>546.7</ele>
        <time>2019-08-21T05:46:12Z</time>
        <sat>10</sat>
      </trkpt>
      <trkpt lat="42.415036" lon="-2.747621">
        <ele>546.6</ele>
        <time>2019-08-21T05:46:17Z</time>
        <sat>9</sat>
      </trkpt>
      <trkpt lat="42.415066" lon="-2.747674">
        <ele>546.5</ele>
        <time>2019-08-21T05:46:21Z</time>
        <sat>9</sat>
      </trkpt>
      <trkpt lat="42.415106" lon="-2.747768">
        <ele>546.4</ele>
        <time>2019-08-21T05:46:27Z</time>
        <sat>9</sat>
      </trkpt>
      <trkpt lat="42.415143" lon="-2.747836">
        <ele>546.2</ele>
        <time>2019-08-21T05:46:32Z</time>
        <sat>8</sat>
      </trkpt>
      <trkpt lat="42.415168" lon="-2.747900">
        <ele>546.3</ele>
        <time>2019-08-21T05:46:36Z</time>
        <sat>9</sat>
      </trkpt>
      <trkpt lat="42.415210" lon="-2.747970">
        <ele>546.2</ele>
        <time>2019-08-21T05:46:41Z</time>
        <sat>9</sat>
      </trkpt>
      <trkpt lat="42.415233" lon="-2.748031">
        <ele>546.3</ele>
        <time>2019-08-21T05:46:45Z</time>
        <sat>10</sat>
      </trkpt>
      <trkpt lat="42.415279" lon="-2.748196">
        <ele>546.5</ele>
        <time>2019-08-21T05:46:55Z</time>
        <sat>10</sat>
      </trkpt>
      <trkpt lat="42.415288" lon="-2.748266">
        <ele>546.7</ele>
        <time>2019-08-21T05:46:59Z</time>
        <sat>10</sat>
      </trkpt>
      <trkpt lat="42.415310" lon="-2.748350">
        <ele>546.7</ele>
        <time>2019-08-21T05:47:04Z</time>
        <sat>10</sat>
      </trkpt>
      <trkpt lat="42.415319" lon="-2.748456">
        <ele>546.8</ele>
        <time>2019-08-21T05:47:10Z</time>
        <sat>9</sat>
      </trkpt>
      <trkpt lat="42.415332" lon="-2.748526">
        <ele>547.0</ele>
        <time>2019-08-21T05:47:14Z</time>
        <sat>9</sat>
      </trkpt>
      <trkpt lat="42.415334" lon="-2.748616">
        <ele>547.3</ele>
        <time>2019-08-21T05:47:19Z</time>
        <sat>9</sat>
      </trkpt>
      <trkpt lat="42.415345" lon="-2.748689">
        <ele>547.5</ele>
        <time>2019-08-21T05:47:23Z</time>
        <sat>9</sat>
      </trkpt>
      <trkpt lat="42.415345" lon="-2.748798">
        <ele>547.8</ele>
        <time>2019-08-21T05:47:29Z</time>
        <sat>10</sat>
      </trkpt>
      <trkpt lat="42.415355" lon="-2.748869">
        <ele>548.1</ele>
        <time>2019-08-21T05:47:33Z</time>
        <sat>10</sat>
      </trkpt>
      <trkpt lat="42.415350" lon="-2.748989">
        <ele>548.5</ele>
        <time>2019-08-21T05:47:40Z</time>
        <sat>10</sat>
      </trkpt>
      <trkpt lat="42.415360" lon="-2.749078">
        <ele>548.6</ele>
        <time>2019-08-21T05:47:45Z</time>
        <sat>10</sat>
      </trkpt>
      <trkpt lat="42.415361" lon="-2.749317">
        <ele>547.1</ele>
        <time>2019-08-21T05:48:06Z</time>
        <sat>9</sat>
      </trkpt>
      <trkpt lat="42.415390" lon="-2.749355">
        <ele>546.9</ele>
        <time>2019-08-21T05:48:13Z</time>
        <sat>7</sat>
      </trkpt>
      <trkpt lat="42.415411" lon="-2.749468">
        <ele>546.6</ele>
        <time>2019-08-21T05:48:20Z</time>
        <sat>9</sat>
      </trkpt>
      <trkpt lat="42.415414" lon="-2.749504">
        <ele>546.4</ele>
        <time>2019-08-21T05:48:22Z</time>
        <sat>9</sat>
      </trkpt>
      <trkpt lat="42.415465" lon="-2.749785">
        <ele>545.5</ele>
        <time>2019-08-21T05:48:38Z</time>
        <sat>8</sat>
      </trkpt>
      <trkpt lat="42.415496" lon="-2.749918">
        <ele>544.9</ele>
        <time>2019-08-21T05:48:46Z</time>
        <sat>8</sat>
      </trkpt>
      <trkpt lat="42.415517" lon="-2.750073">
        <ele>544.0</ele>
        <time>2019-08-21T05:48:55Z</time>
        <sat>9</sat>
      </trkpt>
      <trkpt lat="42.415545" lon="-2.750248">
        <ele>542.9</ele>
        <time>2019-08-21T05:49:07Z</time>
        <sat>8</sat>
      </trkpt>
      <trkpt lat="42.415580" lon="-2.750411">
        <ele>541.8</ele>
        <time>2019-08-21T05:49:16Z</time>
        <sat>8</sat>
      </trkpt>
      <trkpt lat="42.415591" lon="-2.750513">
        <ele>541.3</ele>
        <time>2019-08-21T05:49:22Z</time>
        <sat>8</sat>
      </trkpt>
      <trkpt lat="42.415625" lon="-2.750635">
        <ele>540.4</ele>
        <time>2019-08-21T05:49:29Z</time>
        <sat>8</sat>
      </trkpt>
      <trkpt lat="42.415673" lon="-2.750736">
        <ele>539.9</ele>
        <time>2019-08-21T05:49:36Z</time>
        <sat>8</sat>
      </trkpt>
      <trkpt lat="42.415718" lon="-2.750801">
        <ele>539.6</ele>
        <time>2019-08-21T05:49:41Z</time>
        <sat>8</sat>
      </trkpt>
      <trkpt lat="42.415831" lon="-2.750950">
        <ele>538.4</ele>
        <time>2019-08-21T05:49:53Z</time>
        <sat>7</sat>
      </trkpt>
      <trkpt lat="42.415885" lon="-2.751048">
        <ele>537.7</ele>
        <time>2019-08-21T05:50:00Z</time>
        <sat>8</sat>
      </trkpt>
      <trkpt lat="42.416002" lon="-2.751204">
        <ele>536.0</ele>
        <time>2019-08-21T05:50:13Z</time>
        <sat>7</sat>
      </trkpt>
      <trkpt lat="42.416114" lon="-2.751340">
        <ele>534.4</ele>
        <time>2019-08-21T05:50:25Z</time>
        <sat>7</sat>
      </trkpt>
      <trkpt lat="42.416239" lon="-2.751469">
        <ele>533.3</ele>
        <time>2019-08-21T05:50:37Z</time>
        <sat>6</sat>
      </trkpt>
      <trkpt lat="42.416263" lon="-2.751492">
        <ele>533.1</ele>
        <time>2019-08-21T05:50:39Z</time>
        <sat>6</sat>
      </trkpt>
      <trkpt lat="42.416315" lon="-2.751583">
        <ele>532.4</ele>
        <time>2019-08-21T05:50:46Z</time>
        <sat>6</sat>
      </trkpt>
      <trkpt lat="42.416338" lon="-2.751639">
        <ele>531.8</ele>
        <time>2019-08-21T05:50:50Z</time>
        <sat>7</sat>
      </trkpt>
      <trkpt lat="42.416347" lon="-2.751731">
        <ele>531.1</ele>
        <time>2019-08-21T05:50:56Z</time>
        <sat>8</sat>
      </trkpt>
      <trkpt lat="42.416342" lon="-2.751849">
        <ele>530.5</ele>
        <time>2019-08-21T05:51:03Z</time>
        <sat>9</sat>
      </trkpt>
      <trkpt lat="42.416328" lon="-2.751956">
        <ele>529.7</ele>
        <time>2019-08-21T05:51:09Z</time>
        <sat>9</sat>
      </trkpt>
      <trkpt lat="42.416321" lon="-2.752125">
        <ele>528.4</ele>
        <time>2019-08-21T05:51:36Z</time>
        <sat>9</sat>
      </trkpt>
      <trkpt lat="42.416307" lon="-2.752297">
        <ele>527.9</ele>
        <time>2019-08-21T05:51:46Z</time>
        <sat>10</sat>
      </trkpt>
      <trkpt lat="42.416309" lon="-2.752440">
        <ele>527.3</ele>
        <time>2019-08-21T05:51:54Z</time>
        <sat>9</sat>
      </trkpt>
      <trkpt lat="42.416323" lon="-2.752639">
        <ele>526.2</ele>
        <time>2019-08-21T05:52:05Z</time>
        <sat>9</sat>
      </trkpt>
      <trkpt lat="42.416312" lon="-2.752779">
        <ele>525.3</ele>
        <time>2019-08-21T05:52:13Z</time>
        <sat>9</sat>
      </trkpt>
      <trkpt lat="42.416314" lon="-2.752905">
        <ele>524.5</ele>
        <time>2019-08-21T05:52:20Z</time>
        <sat>9</sat>
      </trkpt>
      <trkpt lat="42.416308" lon="-2.752973">
        <ele>524.1</ele>
        <time>2019-08-21T05:52:24Z</time>
        <sat>9</sat>
      </trkpt>
      <trkpt lat="42.416305" lon="-2.753103">
        <ele>523.3</ele>
        <time>2019-08-21T05:52:31Z</time>
        <sat>9</sat>
      </trkpt>
      <trkpt lat="42.416309" lon="-2.753138">
        <ele>523.1</ele>
        <time>2019-08-21T05:52:33Z</time>
        <sat>9</sat>
      </trkpt>
      <trkpt lat="42.416301" lon="-2.753250">
        <ele>522.6</ele>
        <time>2019-08-21T05:52:39Z</time>
        <sat>9</sat>
      </trkpt>
      <trkpt lat="42.416296" lon="-2.753397">
        <ele>522.0</ele>
        <time>2019-08-21T05:52:47Z</time>
        <sat>10</sat>
      </trkpt>
      <trkpt lat="42.416278" lon="-2.753522">
        <ele>521.5</ele>
        <time>2019-08-21T05:52:54Z</time>
        <sat>10</sat>
      </trkpt>
      <trkpt lat="42.416275" lon="-2.753616">
        <ele>521.2</ele>
        <time>2019-08-21T05:52:59Z</time>
        <sat>10</sat>
      </trkpt>
      <trkpt lat="42.416256" lon="-2.753700">
        <ele>521.0</ele>
        <time>2019-08-21T05:53:04Z</time>
        <sat>10</sat>
      </trkpt>
      <trkpt lat="42.416255" lon="-2.753753">
        <ele>520.9</ele>
        <time>2019-08-21T05:53:07Z</time>
        <sat>10</sat>
      </trkpt>
      <trkpt lat="42.416245" lon="-2.753839">
        <ele>520.8</ele>
        <time>2019-08-21T05:53:12Z</time>
        <sat>10</sat>
      </trkpt>
      <trkpt lat="42.416225" lon="-2.753923">
        <ele>520.7</ele>
        <time>2019-08-21T05:53:17Z</time>
        <sat>10</sat>
      </trkpt>
      <trkpt lat="42.416206" lon="-2.754163">
        <ele>520.4</ele>
        <time>2019-08-21T05:53:31Z</time>
        <sat>10</sat>
      </trkpt>
      <trkpt lat="42.416180" lon="-2.754282">
        <ele>520.4</ele>
        <time>2019-08-21T05:53:38Z</time>
        <sat>10</sat>
      </trkpt>
      <trkpt lat="42.416166" lon="-2.754312">
        <ele>520.4</ele>
        <time>2019-08-21T05:53:40Z</time>
        <sat>10</sat>
      </trkpt>
      <trkpt lat="42.416159" lon="-2.754420">
        <ele>520.2</ele>
        <time>2019-08-21T05:53:46Z</time>
        <sat>10</sat>
      </trkpt>
      <trkpt lat="42.416129" lon="-2.754658">
        <ele>520.1</ele>
        <time>2019-08-21T05:54:00Z</time>
        <sat>10</sat>
      </trkpt>
      <trkpt lat="42.416135" lon="-2.754711">
        <ele>520.1</ele>
        <time>2019-08-21T05:54:03Z</time>
        <sat>10</sat>
      </trkpt>
      <trkpt lat="42.416163" lon="-2.754830">
        <ele>520.2</ele>
        <time>2019-08-21T05:54:10Z</time>
        <sat>10</sat>
      </trkpt>
      <trkpt lat="42.416174" lon="-2.755009">
        <ele>520.2</ele>
        <time>2019-08-21T05:54:20Z</time>
        <sat>10</sat>
      </trkpt>
      <trkpt lat="42.416184" lon="-2.755097">
        <ele>520.2</ele>
        <time>2019-08-21T05:54:25Z</time>
        <sat>10</sat>
      </trkpt>
      <trkpt lat="42.416176" lon="-2.755171">
        <ele>520.2</ele>
        <time>2019-08-21T05:54:29Z</time>
        <sat>10</sat>
      </trkpt>
      <trkpt lat="42.416176" lon="-2.755246">
        <ele>520.2</ele>
        <time>2019-08-21T05:54:33Z</time>
        <sat>10</sat>
      </trkpt>
      <trkpt lat="42.416182" lon="-2.755320">
        <ele>520.2</ele>
        <time>2019-08-21T05:54:37Z</time>
        <sat>10</sat>
      </trkpt>
      <trkpt lat="42.416174" lon="-2.755429">
        <ele>520.3</ele>
        <time>2019-08-21T05:54:43Z</time>
        <sat>10</sat>
      </trkpt>
      <trkpt lat="42.416174" lon="-2.755573">
        <ele>520.2</ele>
        <time>2019-08-21T05:54:51Z</time>
        <sat>10</sat>
      </trkpt>
      <trkpt lat="42.416167" lon="-2.755644">
        <ele>520.3</ele>
        <time>2019-08-21T05:54:55Z</time>
        <sat>10</sat>
      </trkpt>
      <trkpt lat="42.416178" lon="-2.755762">
        <ele>520.4</ele>
        <time>2019-08-21T05:55:04Z</time>
        <sat>10</sat>
      </trkpt>
      <trkpt lat="42.416164" lon="-2.755882">
        <ele>520.4</ele>
        <time>2019-08-21T05:55:30Z</time>
        <sat>10</sat>
      </trkpt>
      <trkpt lat="42.416160" lon="-2.756018">
        <ele>520.4</ele>
        <time>2019-08-21T05:55:37Z</time>
        <sat>10</sat>
      </trkpt>
      <trkpt lat="42.416139" lon="-2.756217">
        <ele>520.4</ele>
        <time>2019-08-21T05:55:48Z</time>
        <sat>10</sat>
      </trkpt>
      <trkpt lat="42.416121" lon="-2.756489">
        <ele>520.6</ele>
        <time>2019-08-21T05:56:03Z</time>
        <sat>10</sat>
      </trkpt>
      <trkpt lat="42.416109" lon="-2.756561">
        <ele>520.6</ele>
        <time>2019-08-21T05:56:07Z</time>
        <sat>10</sat>
      </trkpt>
      <trkpt lat="42.416110" lon="-2.756632">
        <ele>520.7</ele>
        <time>2019-08-21T05:56:11Z</time>
        <sat>10</sat>
      </trkpt>
      <trkpt lat="42.416080" lon="-2.756845">
        <ele>520.8</ele>
        <time>2019-08-21T05:56:23Z</time>
        <sat>10</sat>
      </trkpt>
      <trkpt lat="42.416057" lon="-2.757109">
        <ele>521.1</ele>
        <time>2019-08-21T05:56:37Z</time>
        <sat>10</sat>
      </trkpt>
      <trkpt lat="42.416058" lon="-2.757183">
        <ele>521.2</ele>
        <time>2019-08-21T05:56:41Z</time>
        <sat>10</sat>
      </trkpt>
      <trkpt lat="42.416042" lon="-2.757294">
        <ele>521.5</ele>
        <time>2019-08-21T05:56:47Z</time>
        <sat>10</sat>
      </trkpt>
      <trkpt lat="42.416042" lon="-2.757405">
        <ele>521.8</ele>
        <time>2019-08-21T05:56:53Z</time>
        <sat>10</sat>
      </trkpt>
      <trkpt lat="42.416022" lon="-2.757555">
        <ele>522.2</ele>
        <time>2019-08-21T05:57:01Z</time>
        <sat>10</sat>
      </trkpt>
      <trkpt lat="42.416023" lon="-2.757612">
        <ele>522.4</ele>
        <time>2019-08-21T05:57:04Z</time>
        <sat>10</sat>
      </trkpt>
      <trkpt lat="42.416012" lon="-2.757725">
        <ele>522.8</ele>
        <time>2019-08-21T05:57:10Z</time>
        <sat>10</sat>
      </trkpt>
      <trkpt lat="42.416015" lon="-2.757821">
        <ele>523.1</ele>
        <time>2019-08-21T05:57:15Z</time>
        <sat>10</sat>
      </trkpt>
      <trkpt lat="42.416013" lon="-2.758002">
        <ele>523.6</ele>
        <time>2019-08-21T05:57:25Z</time>
        <sat>10</sat>
      </trkpt>
      <trkpt lat="42.416008" lon="-2.758154">
        <ele>524.1</ele>
        <time>2019-08-21T05:57:33Z</time>
        <sat>10</sat>
      </trkpt>
      <trkpt lat="42.415994" lon="-2.758328">
        <ele>524.3</ele>
        <time>2019-08-21T05:57:43Z</time>
        <sat>10</sat>
      </trkpt>
      <trkpt lat="42.415988" lon="-2.758542">
        <ele>525.4</ele>
        <time>2019-08-21T05:57:56Z</time>
        <sat>10</sat>
      </trkpt>
      <trkpt lat="42.415988" lon="-2.758608">
        <ele>524.4</ele>
        <time>2019-08-21T05:58:00Z</time>
        <sat>10</sat>
      </trkpt>
      <trkpt lat="42.415973" lon="-2.758722">
        <ele>527.8</ele>
        <time>2019-08-21T05:58:06Z</time>
        <sat>10</sat>
      </trkpt>
      <trkpt lat="42.415976" lon="-2.758779">
        <ele>528.5</ele>
        <time>2019-08-21T05:58:09Z</time>
        <sat>10</sat>
      </trkpt>
      <trkpt lat="42.415963" lon="-2.758891">
        <ele>529.2</ele>
        <time>2019-08-21T05:58:15Z</time>
        <sat>10</sat>
      </trkpt>
      <trkpt lat="42.415978" lon="-2.759145">
        <ele>530.5</ele>
        <time>2019-08-21T05:58:30Z</time>
        <sat>10</sat>
      </trkpt>
      <trkpt lat="42.415994" lon="-2.759222">
        <ele>531.2</ele>
        <time>2019-08-21T05:58:39Z</time>
        <sat>10</sat>
      </trkpt>
      <trkpt lat="42.416106" lon="-2.759403">
        <ele>532.1</ele>
        <time>2019-08-21T05:58:52Z</time>
        <sat>10</sat>
      </trkpt>
      <trkpt lat="42.416166" lon="-2.759591">
        <ele>533.0</ele>
        <time>2019-08-21T05:59:03Z</time>
        <sat>10</sat>
      </trkpt>
      <trkpt lat="42.416217" lon="-2.759703">
        <ele>533.5</ele>
        <time>2019-08-21T05:59:10Z</time>
        <sat>10</sat>
      </trkpt>
      <trkpt lat="42.416242" lon="-2.759790">
        <ele>533.8</ele>
        <time>2019-08-21T05:59:15Z</time>
        <sat>10</sat>
      </trkpt>
      <trkpt lat="42.416341" lon="-2.759966">
        <ele>535.1</ele>
        <time>2019-08-21T05:59:27Z</time>
        <sat>10</sat>
      </trkpt>
      <trkpt lat="42.416371" lon="-2.760029">
        <ele>535.5</ele>
        <time>2019-08-21T05:59:31Z</time>
        <sat>10</sat>
      </trkpt>
      <trkpt lat="42.416394" lon="-2.760140">
        <ele>535.9</ele>
        <time>2019-08-21T05:59:37Z</time>
        <sat>10</sat>
      </trkpt>
      <trkpt lat="42.416421" lon="-2.760225">
        <ele>536.3</ele>
        <time>2019-08-21T05:59:42Z</time>
        <sat>10</sat>
      </trkpt>
      <trkpt lat="42.416434" lon="-2.760355">
        <ele>536.8</ele>
        <time>2019-08-21T05:59:49Z</time>
        <sat>10</sat>
      </trkpt>
      <trkpt lat="42.416458" lon="-2.760460">
        <ele>537.0</ele>
        <time>2019-08-21T05:59:55Z</time>
        <sat>10</sat>
      </trkpt>
      <trkpt lat="42.416472" lon="-2.760589">
        <ele>537.4</ele>
        <time>2019-08-21T06:00:02Z</time>
        <sat>10</sat>
      </trkpt>
      <trkpt lat="42.416490" lon="-2.760654">
        <ele>537.6</ele>
        <time>2019-08-21T06:00:06Z</time>
        <sat>10</sat>
      </trkpt>
      <trkpt lat="42.416514" lon="-2.760850">
        <ele>538.4</ele>
        <time>2019-08-21T06:00:19Z</time>
        <sat>10</sat>
      </trkpt>
      <trkpt lat="42.416535" lon="-2.760912">
        <ele>538.6</ele>
        <time>2019-08-21T06:00:23Z</time>
        <sat>10</sat>
      </trkpt>
      <trkpt lat="42.416559" lon="-2.761018">
        <ele>538.9</ele>
        <time>2019-08-21T06:00:29Z</time>
        <sat>10</sat>
      </trkpt>
      <trkpt lat="42.416592" lon="-2.761117">
        <ele>539.2</ele>
        <time>2019-08-21T06:00:35Z</time>
        <sat>10</sat>
      </trkpt>
      <trkpt lat="42.416615" lon="-2.761226">
        <ele>539.8</ele>
        <time>2019-08-21T06:00:41Z</time>
        <sat>10</sat>
      </trkpt>
      <trkpt lat="42.416638" lon="-2.761292">
        <ele>539.9</ele>
        <time>2019-08-21T06:00:45Z</time>
        <sat>10</sat>
      </trkpt>
      <trkpt lat="42.416662" lon="-2.761415">
        <ele>540.4</ele>
        <time>2019-08-21T06:00:52Z</time>
        <sat>10</sat>
      </trkpt>
      <trkpt lat="42.416684" lon="-2.761478">
        <ele>540.5</ele>
        <time>2019-08-21T06:00:56Z</time>
        <sat>10</sat>
      </trkpt>
      <trkpt lat="42.416702" lon="-2.761621">
        <ele>541.0</ele>
        <time>2019-08-21T06:01:04Z</time>
        <sat>10</sat>
      </trkpt>
      <trkpt lat="42.416722" lon="-2.761668">
        <ele>541.1</ele>
        <time>2019-08-21T06:01:07Z</time>
        <sat>10</sat>
      </trkpt>
      <trkpt lat="42.416740" lon="-2.761812">
        <ele>541.3</ele>
        <time>2019-08-21T06:01:15Z</time>
        <sat>10</sat>
      </trkpt>
      <trkpt lat="42.416773" lon="-2.762006">
        <ele>541.7</ele>
        <time>2019-08-21T06:01:26Z</time>
        <sat>10</sat>
      </trkpt>
      <trkpt lat="42.416802" lon="-2.762131">
        <ele>541.9</ele>
        <time>2019-08-21T06:01:33Z</time>
        <sat>10</sat>
      </trkpt>
      <trkpt lat="42.416812" lon="-2.762222">
        <ele>542.2</ele>
        <time>2019-08-21T06:01:38Z</time>
        <sat>10</sat>
      </trkpt>
      <trkpt lat="42.416864" lon="-2.762454">
        <ele>542.8</ele>
        <time>2019-08-21T06:01:51Z</time>
        <sat>10</sat>
      </trkpt>
      <trkpt lat="42.416894" lon="-2.762555">
        <ele>542.9</ele>
        <time>2019-08-21T06:01:57Z</time>
        <sat>10</sat>
      </trkpt>
      <trkpt lat="42.416911" lon="-2.762683">
        <ele>543.2</ele>
        <time>2019-08-21T06:02:04Z</time>
        <sat>10</sat>
      </trkpt>
      <trkpt lat="42.416929" lon="-2.762767">
        <ele>543.3</ele>
        <time>2019-08-21T06:02:09Z</time>
        <sat>10</sat>
      </trkpt>
      <trkpt lat="42.416944" lon="-2.762898">
        <ele>543.6</ele>
        <time>2019-08-21T06:02:16Z</time>
        <sat>10</sat>
      </trkpt>
      <trkpt lat="42.416964" lon="-2.762967">
        <ele>543.7</ele>
        <time>2019-08-21T06:02:20Z</time>
        <sat>10</sat>
      </trkpt>
      <trkpt lat="42.416984" lon="-2.763097">
        <ele>543.9</ele>
        <time>2019-08-21T06:02:27Z</time>
        <sat>10</sat>
      </trkpt>
      <trkpt lat="42.417019" lon="-2.763197">
        <ele>544.1</ele>
        <time>2019-08-21T06:02:33Z</time>
        <sat>10</sat>
      </trkpt>
      <trkpt lat="42.417068" lon="-2.763460">
        <ele>544.8</ele>
        <time>2019-08-21T06:02:48Z</time>
        <sat>10</sat>
      </trkpt>
      <trkpt lat="42.417135" lon="-2.763661">
        <ele>545.1</ele>
        <time>2019-08-21T06:03:09Z</time>
        <sat>9</sat>
      </trkpt>
      <trkpt lat="42.417132" lon="-2.763673">
        <ele>545.0</ele>
        <time>2019-08-21T06:03:23Z</time>
        <sat>8</sat>
      </trkpt>
      <trkpt lat="42.417130" lon="-2.763661">
        <ele>545.0</ele>
        <time>2019-08-21T06:03:32Z</time>
        <sat>9</sat>
      </trkpt>
      <trkpt lat="42.417137" lon="-2.763841">
        <ele>545.2</ele>
        <time>2019-08-21T06:03:47Z</time>
        <sat>9</sat>
      </trkpt>
      <trkpt lat="42.417183" lon="-2.764074">
        <ele>545.5</ele>
        <time>2019-08-21T06:04:00Z</time>
        <sat>9</sat>
      </trkpt>
      <trkpt lat="42.417199" lon="-2.764206">
        <ele>545.6</ele>
        <time>2019-08-21T06:04:07Z</time>
        <sat>9</sat>
      </trkpt>
      <trkpt lat="42.417220" lon="-2.764275">
        <ele>545.7</ele>
        <time>2019-08-21T06:04:11Z</time>
        <sat>9</sat>
      </trkpt>
      <trkpt lat="42.417231" lon="-2.764335">
        <ele>545.8</ele>
        <time>2019-08-21T06:04:16Z</time>
        <sat>9</sat>
      </trkpt>
      <trkpt lat="42.417282" lon="-2.764554">
        <ele>546.3</ele>
        <time>2019-08-21T06:04:29Z</time>
        <sat>9</sat>
      </trkpt>
      <trkpt lat="42.417295" lon="-2.764586">
        <ele>546.3</ele>
        <time>2019-08-21T06:04:31Z</time>
        <sat>9</sat>
      </trkpt>
      <trkpt lat="42.417314" lon="-2.764708">
        <ele>546.6</ele>
        <time>2019-08-21T06:04:38Z</time>
        <sat>9</sat>
      </trkpt>
      <trkpt lat="42.417326" lon="-2.764757">
        <ele>546.8</ele>
        <time>2019-08-21T06:04:41Z</time>
        <sat>9</sat>
      </trkpt>
      <trkpt lat="42.417365" lon="-2.764985">
        <ele>547.4</ele>
        <time>2019-08-21T06:04:54Z</time>
        <sat>9</sat>
      </trkpt>
      <trkpt lat="42.417372" lon="-2.765075">
        <ele>547.6</ele>
        <time>2019-08-21T06:04:59Z</time>
        <sat>9</sat>
      </trkpt>
      <trkpt lat="42.417390" lon="-2.765159">
        <ele>547.8</ele>
        <time>2019-08-21T06:05:04Z</time>
        <sat>9</sat>
      </trkpt>
      <trkpt lat="42.417396" lon="-2.765234">
        <ele>548.1</ele>
        <time>2019-08-21T06:05:08Z</time>
        <sat>9</sat>
      </trkpt>
      <trkpt lat="42.417419" lon="-2.765340">
        <ele>548.5</ele>
        <time>2019-08-21T06:05:14Z</time>
        <sat>8</sat>
      </trkpt>
      <trkpt lat="42.417432" lon="-2.765502">
        <ele>549.0</ele>
        <time>2019-08-21T06:05:23Z</time>
        <sat>8</sat>
      </trkpt>
      <trkpt lat="42.417458" lon="-2.765738">
        <ele>549.7</ele>
        <time>2019-08-21T06:05:38Z</time>
        <sat>8</sat>
      </trkpt>
      <trkpt lat="42.417481" lon="-2.765915">
        <ele>550.2</ele>
        <time>2019-08-21T06:05:50Z</time>
        <sat>8</sat>
      </trkpt>
      <trkpt lat="42.417488" lon="-2.766048">
        <ele>550.5</ele>
        <time>2019-08-21T06:05:57Z</time>
        <sat>8</sat>
      </trkpt>
      <trkpt lat="42.417510" lon="-2.766156">
        <ele>550.8</ele>
        <time>2019-08-21T06:06:03Z</time>
        <sat>8</sat>
      </trkpt>
      <trkpt lat="42.417507" lon="-2.766289">
        <ele>551.0</ele>
        <time>2019-08-21T06:06:10Z</time>
        <sat>8</sat>
      </trkpt>
      <trkpt lat="42.417514" lon="-2.766398">
        <ele>551.4</ele>
        <time>2019-08-21T06:06:16Z</time>
        <sat>8</sat>
      </trkpt>
      <trkpt lat="42.417510" lon="-2.766477">
        <ele>551.6</ele>
        <time>2019-08-21T06:06:20Z</time>
        <sat>8</sat>
      </trkpt>
      <trkpt lat="42.417527" lon="-2.766592">
        <ele>551.9</ele>
        <time>2019-08-21T06:06:26Z</time>
        <sat>8</sat>
      </trkpt>
      <trkpt lat="42.417536" lon="-2.766625">
        <ele>551.9</ele>
        <time>2019-08-21T06:06:28Z</time>
        <sat>8</sat>
      </trkpt>
      <trkpt lat="42.417564" lon="-2.766810">
        <ele>552.2</ele>
        <time>2019-08-21T06:06:38Z</time>
        <sat>8</sat>
      </trkpt>
      <trkpt lat="42.417585" lon="-2.766881">
        <ele>552.4</ele>
        <time>2019-08-21T06:06:42Z</time>
        <sat>8</sat>
      </trkpt>
      <trkpt lat="42.417607" lon="-2.767029">
        <ele>552.8</ele>
        <time>2019-08-21T06:06:50Z</time>
        <sat>8</sat>
      </trkpt>
      <trkpt lat="42.417628" lon="-2.767115">
        <ele>553.1</ele>
        <time>2019-08-21T06:06:55Z</time>
        <sat>8</sat>
      </trkpt>
      <trkpt lat="42.417646" lon="-2.767264">
        <ele>553.5</ele>
        <time>2019-08-21T06:07:03Z</time>
        <sat>8</sat>
      </trkpt>
      <trkpt lat="42.417678" lon="-2.767458">
        <ele>554.2</ele>
        <time>2019-08-21T06:07:14Z</time>
        <sat>8</sat>
      </trkpt>
      <trkpt lat="42.417688" lon="-2.767506">
        <ele>554.3</ele>
        <time>2019-08-21T06:07:17Z</time>
        <sat>8</sat>
      </trkpt>
      <trkpt lat="42.417701" lon="-2.767634">
        <ele>554.7</ele>
        <time>2019-08-21T06:07:24Z</time>
        <sat>8</sat>
      </trkpt>
      <trkpt lat="42.417723" lon="-2.767724">
        <ele>554.8</ele>
        <time>2019-08-21T06:07:29Z</time>
        <sat>8</sat>
      </trkpt>
      <trkpt lat="42.417736" lon="-2.767862">
        <ele>555.0</ele>
        <time>2019-08-21T06:07:37Z</time>
        <sat>8</sat>
      </trkpt>
      <trkpt lat="42.417750" lon="-2.767934">
        <ele>555.0</ele>
        <time>2019-08-21T06:07:41Z</time>
        <sat>8</sat>
      </trkpt>
      <trkpt lat="42.417752" lon="-2.768019">
        <ele>553.6</ele>
        <time>2019-08-21T06:07:46Z</time>
        <sat>8</sat>
      </trkpt>
      <trkpt lat="42.417770" lon="-2.768238">
        <ele>555.5</ele>
        <time>2019-08-21T06:07:59Z</time>
        <sat>8</sat>
      </trkpt>
      <trkpt lat="42.417781" lon="-2.768323">
        <ele>555.5</ele>
        <time>2019-08-21T06:08:04Z</time>
        <sat>8</sat>
      </trkpt>
      <trkpt lat="42.417777" lon="-2.768428">
        <ele>555.3</ele>
        <time>2019-08-21T06:08:10Z</time>
        <sat>8</sat>
      </trkpt>
      <trkpt lat="42.417790" lon="-2.768515">
        <ele>555.3</ele>
        <time>2019-08-21T06:08:16Z</time>
        <sat>8</sat>
      </trkpt>
      <trkpt lat="42.417803" lon="-2.768775">
        <ele>555.3</ele>
        <time>2019-08-21T06:08:31Z</time>
        <sat>8</sat>
      </trkpt>
      <trkpt lat="42.417803" lon="-2.768811">
        <ele>555.3</ele>
        <time>2019-08-21T06:08:33Z</time>
        <sat>8</sat>
      </trkpt>
      <trkpt lat="42.417814" lon="-2.769079">
        <ele>555.4</ele>
        <time>2019-08-21T06:08:48Z</time>
        <sat>8</sat>
      </trkpt>
      <trkpt lat="42.417828" lon="-2.769218">
        <ele>555.3</ele>
        <time>2019-08-21T06:08:56Z</time>
        <sat>8</sat>
      </trkpt>
      <trkpt lat="42.417834" lon="-2.769372">
        <ele>555.2</ele>
        <time>2019-08-21T06:09:05Z</time>
        <sat>8</sat>
      </trkpt>
      <trkpt lat="42.417833" lon="-2.769439">
        <ele>555.0</ele>
        <time>2019-08-21T06:09:09Z</time>
        <sat>8</sat>
      </trkpt>
      <trkpt lat="42.417850" lon="-2.769658">
        <ele>554.6</ele>
        <time>2019-08-21T06:09:22Z</time>
        <sat>8</sat>
      </trkpt>
      <trkpt lat="42.417861" lon="-2.769726">
        <ele>554.5</ele>
        <time>2019-08-21T06:09:26Z</time>
        <sat>8</sat>
      </trkpt>
      <trkpt lat="42.417882" lon="-2.769966">
        <ele>554.1</ele>
        <time>2019-08-21T06:09:40Z</time>
        <sat>8</sat>
      </trkpt>
      <trkpt lat="42.417899" lon="-2.770051">
        <ele>554.0</ele>
        <time>2019-08-21T06:09:45Z</time>
        <sat>8</sat>
      </trkpt>
      <trkpt lat="42.417909" lon="-2.770169">
        <ele>553.9</ele>
        <time>2019-08-21T06:09:52Z</time>
        <sat>7</sat>
      </trkpt>
      <trkpt lat="42.417947" lon="-2.770314">
        <ele>553.5</ele>
        <time>2019-08-21T06:10:01Z</time>
        <sat>7</sat>
      </trkpt>
      <trkpt lat="42.417951" lon="-2.770383">
        <ele>553.3</ele>
        <time>2019-08-21T06:10:05Z</time>
        <sat>7</sat>
      </trkpt>
      <trkpt lat="42.417977" lon="-2.770482">
        <ele>553.0</ele>
        <time>2019-08-21T06:10:11Z</time>
        <sat>7</sat>
      </trkpt>
      <trkpt lat="42.418023" lon="-2.770696">
        <ele>552.5</ele>
        <time>2019-08-21T06:10:24Z</time>
        <sat>7</sat>
      </trkpt>
      <trkpt lat="42.418029" lon="-2.770748">
        <ele>552.4</ele>
        <time>2019-08-21T06:10:27Z</time>
        <sat>7</sat>
      </trkpt>
      <trkpt lat="42.418063" lon="-2.770934">
        <ele>551.9</ele>
        <time>2019-08-21T06:10:38Z</time>
        <sat>7</sat>
      </trkpt>
      <trkpt lat="42.418102" lon="-2.771132">
        <ele>551.2</ele>
        <time>2019-08-21T06:10:50Z</time>
        <sat>7</sat>
      </trkpt>
      <trkpt lat="42.418151" lon="-2.771338">
        <ele>550.7</ele>
        <time>2019-08-21T06:11:02Z</time>
        <sat>7</sat>
      </trkpt>
      <trkpt lat="42.418203" lon="-2.771533">
        <ele>550.2</ele>
        <time>2019-08-21T06:11:14Z</time>
        <sat>7</sat>
      </trkpt>
      <trkpt lat="42.418235" lon="-2.771627">
        <ele>549.9</ele>
        <time>2019-08-21T06:11:20Z</time>
        <sat>7</sat>
      </trkpt>
      <trkpt lat="42.418247" lon="-2.771695">
        <ele>549.8</ele>
        <time>2019-08-21T06:11:24Z</time>
        <sat>7</sat>
      </trkpt>
      <trkpt lat="42.418264" lon="-2.771757">
        <ele>549.7</ele>
        <time>2019-08-21T06:11:30Z</time>
        <sat>8</sat>
      </trkpt>
      <trkpt lat="42.418292" lon="-2.771836">
        <ele>549.6</ele>
        <time>2019-08-21T06:11:35Z</time>
        <sat>8</sat>
      </trkpt>
      <trkpt lat="42.418309" lon="-2.771919">
        <ele>549.6</ele>
        <time>2019-08-21T06:11:40Z</time>
        <sat>8</sat>
      </trkpt>
      <trkpt lat="42.418335" lon="-2.771981">
        <ele>549.4</ele>
        <time>2019-08-21T06:11:44Z</time>
        <sat>8</sat>
      </trkpt>
      <trkpt lat="42.418361" lon="-2.772092">
        <ele>549.3</ele>
        <time>2019-08-21T06:11:51Z</time>
        <sat>8</sat>
      </trkpt>
      <trkpt lat="42.418410" lon="-2.772256">
        <ele>549.2</ele>
        <time>2019-08-21T06:12:01Z</time>
        <sat>8</sat>
      </trkpt>
      <trkpt lat="42.418455" lon="-2.772367">
        <ele>549.0</ele>
        <time>2019-08-21T06:12:08Z</time>
        <sat>8</sat>
      </trkpt>
      <trkpt lat="42.418469" lon="-2.772414">
        <ele>548.9</ele>
        <time>2019-08-21T06:12:11Z</time>
        <sat>8</sat>
      </trkpt>
      <trkpt lat="42.418493" lon="-2.772538">
        <ele>548.8</ele>
        <time>2019-08-21T06:12:18Z</time>
        <sat>8</sat>
      </trkpt>
      <trkpt lat="42.418511" lon="-2.772604">
        <ele>548.7</ele>
        <time>2019-08-21T06:12:22Z</time>
        <sat>8</sat>
      </trkpt>
      <trkpt lat="42.418533" lon="-2.772725">
        <ele>548.5</ele>
        <time>2019-08-21T06:12:29Z</time>
        <sat>8</sat>
      </trkpt>
      <trkpt lat="42.418575" lon="-2.772873">
        <ele>548.3</ele>
        <time>2019-08-21T06:12:38Z</time>
        <sat>8</sat>
      </trkpt>
      <trkpt lat="42.418609" lon="-2.773031">
        <ele>548.2</ele>
        <time>2019-08-21T06:12:47Z</time>
        <sat>8</sat>
      </trkpt>
      <trkpt lat="42.418631" lon="-2.773152">
        <ele>548.2</ele>
        <time>2019-08-21T06:12:54Z</time>
        <sat>8</sat>
      </trkpt>
      <trkpt lat="42.418676" lon="-2.773302">
        <ele>548.1</ele>
        <time>2019-08-21T06:13:03Z</time>
        <sat>9</sat>
      </trkpt>
      <trkpt lat="42.418722" lon="-2.773502">
        <ele>547.9</ele>
        <time>2019-08-21T06:13:15Z</time>
        <sat>9</sat>
      </trkpt>
      <trkpt lat="42.418749" lon="-2.773589">
        <ele>547.8</ele>
        <time>2019-08-21T06:13:20Z</time>
        <sat>9</sat>
      </trkpt>
      <trkpt lat="42.418770" lon="-2.773637">
        <ele>547.8</ele>
        <time>2019-08-21T06:13:23Z</time>
        <sat>9</sat>
      </trkpt>
      <trkpt lat="42.418829" lon="-2.773845">
        <ele>547.8</ele>
        <time>2019-08-21T06:13:36Z</time>
        <sat>9</sat>
      </trkpt>
      <trkpt lat="42.418829" lon="-2.773985">
        <ele>547.6</ele>
        <time>2019-08-21T06:13:44Z</time>
        <sat>9</sat>
      </trkpt>
      <trkpt lat="42.418888" lon="-2.774143">
        <ele>548.0</ele>
        <time>2019-08-21T06:14:05Z</time>
        <sat>9</sat>
      </trkpt>
      <trkpt lat="42.418914" lon="-2.774261">
        <ele>547.9</ele>
        <time>2019-08-21T06:14:12Z</time>
        <sat>9</sat>
      </trkpt>
      <trkpt lat="42.418943" lon="-2.774337">
        <ele>547.9</ele>
        <time>2019-08-21T06:14:17Z</time>
        <sat>7</sat>
      </trkpt>
      <trkpt lat="42.418993" lon="-2.774518">
        <ele>548.1</ele>
        <time>2019-08-21T06:14:28Z</time>
        <sat>8</sat>
      </trkpt>
      <trkpt lat="42.419007" lon="-2.774586">
        <ele>548.3</ele>
        <time>2019-08-21T06:14:32Z</time>
        <sat>8</sat>
      </trkpt>
      <trkpt lat="42.419043" lon="-2.774700">
        <ele>548.3</ele>
        <time>2019-08-21T06:14:39Z</time>
        <sat>8</sat>
      </trkpt>
      <trkpt lat="42.419051" lon="-2.774752">
        <ele>548.3</ele>
        <time>2019-08-21T06:14:42Z</time>
        <sat>8</sat>
      </trkpt>
      <trkpt lat="42.419085" lon="-2.774878">
        <ele>548.2</ele>
        <time>2019-08-21T06:14:49Z</time>
        <sat>8</sat>
      </trkpt>
      <trkpt lat="42.419118" lon="-2.774959">
        <ele>548.3</ele>
        <time>2019-08-21T06:14:54Z</time>
        <sat>8</sat>
      </trkpt>
      <trkpt lat="42.419157" lon="-2.775096">
        <ele>548.3</ele>
        <time>2019-08-21T06:15:02Z</time>
        <sat>8</sat>
      </trkpt>
      <trkpt lat="42.419186" lon="-2.775180">
        <ele>548.4</ele>
        <time>2019-08-21T06:15:07Z</time>
        <sat>8</sat>
      </trkpt>
      <trkpt lat="42.419220" lon="-2.775319">
        <ele>548.6</ele>
        <time>2019-08-21T06:15:15Z</time>
        <sat>8</sat>
      </trkpt>
      <trkpt lat="42.419249" lon="-2.775402">
        <ele>548.7</ele>
        <time>2019-08-21T06:15:20Z</time>
        <sat>7</sat>
      </trkpt>
      <trkpt lat="42.419260" lon="-2.775474">
        <ele>548.7</ele>
        <time>2019-08-21T06:15:24Z</time>
        <sat>8</sat>
      </trkpt>
      <trkpt lat="42.419301" lon="-2.775590">
        <ele>548.9</ele>
        <time>2019-08-21T06:15:31Z</time>
        <sat>8</sat>
      </trkpt>
      <trkpt lat="42.419312" lon="-2.775662">
        <ele>549.1</ele>
        <time>2019-08-21T06:15:35Z</time>
        <sat>8</sat>
      </trkpt>
      <trkpt lat="42.419358" lon="-2.775752">
        <ele>549.3</ele>
        <time>2019-08-21T06:15:41Z</time>
        <sat>8</sat>
      </trkpt>
      <trkpt lat="42.419405" lon="-2.775961">
        <ele>549.8</ele>
        <time>2019-08-21T06:15:53Z</time>
        <sat>7</sat>
      </trkpt>
      <trkpt lat="42.419422" lon="-2.776069">
        <ele>550.1</ele>
        <time>2019-08-21T06:15:59Z</time>
        <sat>8</sat>
      </trkpt>
      <trkpt lat="42.419445" lon="-2.776150">
        <ele>550.1</ele>
        <time>2019-08-21T06:16:04Z</time>
        <sat>8</sat>
      </trkpt>
      <trkpt lat="42.419461" lon="-2.776261">
        <ele>550.4</ele>
        <time>2019-08-21T06:16:10Z</time>
        <sat>8</sat>
      </trkpt>
      <trkpt lat="42.419485" lon="-2.776364">
        <ele>550.7</ele>
        <time>2019-08-21T06:16:16Z</time>
        <sat>8</sat>
      </trkpt>
      <trkpt lat="42.419492" lon="-2.776419">
        <ele>551.0</ele>
        <time>2019-08-21T06:16:19Z</time>
        <sat>8</sat>
      </trkpt>
      <trkpt lat="42.419521" lon="-2.776537">
        <ele>551.2</ele>
        <time>2019-08-21T06:16:26Z</time>
        <sat>8</sat>
      </trkpt>
      <trkpt lat="42.419529" lon="-2.776610">
        <ele>551.4</ele>
        <time>2019-08-21T06:16:30Z</time>
        <sat>8</sat>
      </trkpt>
      <trkpt lat="42.419555" lon="-2.776714">
        <ele>551.6</ele>
        <time>2019-08-21T06:16:36Z</time>
        <sat>7</sat>
      </trkpt>
      <trkpt lat="42.419570" lon="-2.776839">
        <ele>551.8</ele>
        <time>2019-08-21T06:16:43Z</time>
        <sat>7</sat>
      </trkpt>
      <trkpt lat="42.419588" lon="-2.776906">
        <ele>552.0</ele>
        <time>2019-08-21T06:16:47Z</time>
        <sat>8</sat>
      </trkpt>
      <trkpt lat="42.419621" lon="-2.777099">
        <ele>552.5</ele>
        <time>2019-08-21T06:16:58Z</time>
        <sat>7</sat>
      </trkpt>
      <trkpt lat="42.419649" lon="-2.777220">
        <ele>552.4</ele>
        <time>2019-08-21T06:17:05Z</time>
        <sat>8</sat>
      </trkpt>
      <trkpt lat="42.419659" lon="-2.777293">
        <ele>552.4</ele>
        <time>2019-08-21T06:17:09Z</time>
        <sat>8</sat>
      </trkpt>
      <trkpt lat="42.419686" lon="-2.777416">
        <ele>552.4</ele>
        <time>2019-08-21T06:17:16Z</time>
        <sat>9</sat>
      </trkpt>
      <trkpt lat="42.419723" lon="-2.777631">
        <ele>552.8</ele>
        <time>2019-08-21T06:17:28Z</time>
        <sat>9</sat>
      </trkpt>
      <trkpt lat="42.419733" lon="-2.777757">
        <ele>551.8</ele>
        <time>2019-08-21T06:17:35Z</time>
        <sat>9</sat>
      </trkpt>
      <trkpt lat="42.419752" lon="-2.777858">
        <ele>552.7</ele>
        <time>2019-08-21T06:17:40Z</time>
        <sat>9</sat>
      </trkpt>
      <trkpt lat="42.419764" lon="-2.777891">
        <ele>552.9</ele>
        <time>2019-08-21T06:17:42Z</time>
        <sat>9</sat>
      </trkpt>
      <trkpt lat="42.419799" lon="-2.778131">
        <ele>552.9</ele>
        <time>2019-08-21T06:17:56Z</time>
        <sat>9</sat>
      </trkpt>
      <trkpt lat="42.419801" lon="-2.778219">
        <ele>553.3</ele>
        <time>2019-08-21T06:18:08Z</time>
        <sat>9</sat>
      </trkpt>
      <trkpt lat="42.419813" lon="-2.778227">
        <ele>553.1</ele>
        <time>2019-08-21T06:18:20Z</time>
        <sat>9</sat>
      </trkpt>
      <trkpt lat="42.419811" lon="-2.778427">
        <ele>553.0</ele>
        <time>2019-08-21T06:18:50Z</time>
        <sat>9</sat>
      </trkpt>
      <trkpt lat="42.419826" lon="-2.778574">
        <ele>552.9</ele>
        <time>2019-08-21T06:18:58Z</time>
        <sat>9</sat>
      </trkpt>
      <trkpt lat="42.419835" lon="-2.778795">
        <ele>552.5</ele>
        <time>2019-08-21T06:19:10Z</time>
        <sat>9</sat>
      </trkpt>
      <trkpt lat="42.419850" lon="-2.778918">
        <ele>552.5</ele>
        <time>2019-08-21T06:19:17Z</time>
        <sat>9</sat>
      </trkpt>
      <trkpt lat="42.419853" lon="-2.779012">
        <ele>552.5</ele>
        <time>2019-08-21T06:19:22Z</time>
        <sat>9</sat>
      </trkpt>
      <trkpt lat="42.419874" lon="-2.779189">
        <ele>552.3</ele>
        <time>2019-08-21T06:19:32Z</time>
        <sat>9</sat>
      </trkpt>
      <trkpt lat="42.419898" lon="-2.779430">
        <ele>552.2</ele>
        <time>2019-08-21T06:19:46Z</time>
        <sat>8</sat>
      </trkpt>
      <trkpt lat="42.419904" lon="-2.779538">
        <ele>552.4</ele>
        <time>2019-08-21T06:19:52Z</time>
        <sat>9</sat>
      </trkpt>
      <trkpt lat="42.419913" lon="-2.779610">
        <ele>552.4</ele>
        <time>2019-08-21T06:19:56Z</time>
        <sat>9</sat>
      </trkpt>
      <trkpt lat="42.419936" lon="-2.779710">
        <ele>552.4</ele>
        <time>2019-08-21T06:20:02Z</time>
        <sat>9</sat>
      </trkpt>
      <trkpt lat="42.419947" lon="-2.779795">
        <ele>552.3</ele>
        <time>2019-08-21T06:20:07Z</time>
        <sat>9</sat>
      </trkpt>
      <trkpt lat="42.420003" lon="-2.780035">
        <ele>552.3</ele>
        <time>2019-08-21T06:20:21Z</time>
        <sat>8</sat>
      </trkpt>
      <trkpt lat="42.420039" lon="-2.780146">
        <ele>552.2</ele>
        <time>2019-08-21T06:20:28Z</time>
        <sat>9</sat>
      </trkpt>
      <trkpt lat="42.420080" lon="-2.780327">
        <ele>552.1</ele>
        <time>2019-08-21T06:20:38Z</time>
        <sat>9</sat>
      </trkpt>
      <trkpt lat="42.420092" lon="-2.780360">
        <ele>552.2</ele>
        <time>2019-08-21T06:20:40Z</time>
        <sat>9</sat>
      </trkpt>
      <trkpt lat="42.420138" lon="-2.780572">
        <ele>552.2</ele>
        <time>2019-08-21T06:20:52Z</time>
        <sat>9</sat>
      </trkpt>
      <trkpt lat="42.420168" lon="-2.780676">
        <ele>552.2</ele>
        <time>2019-08-21T06:20:58Z</time>
        <sat>9</sat>
      </trkpt>
      <trkpt lat="42.420197" lon="-2.780911">
        <ele>551.9</ele>
        <time>2019-08-21T06:21:11Z</time>
        <sat>9</sat>
      </trkpt>
      <trkpt lat="42.420196" lon="-2.781106">
        <ele>552.0</ele>
        <time>2019-08-21T06:21:22Z</time>
        <sat>9</sat>
      </trkpt>
      <trkpt lat="42.420199" lon="-2.781197">
        <ele>552.0</ele>
        <time>2019-08-21T06:21:27Z</time>
        <sat>9</sat>
      </trkpt>
      <trkpt lat="42.420189" lon="-2.781353">
        <ele>551.9</ele>
        <time>2019-08-21T06:21:36Z</time>
        <sat>9</sat>
      </trkpt>
      <trkpt lat="42.420192" lon="-2.781480">
        <ele>551.5</ele>
        <time>2019-08-21T06:21:43Z</time>
        <sat>9</sat>
      </trkpt>
      <trkpt lat="42.420183" lon="-2.781568">
        <ele>551.4</ele>
        <time>2019-08-21T06:21:48Z</time>
        <sat>9</sat>
      </trkpt>
      <trkpt lat="42.420185" lon="-2.781729">
        <ele>551.2</ele>
        <time>2019-08-21T06:21:57Z</time>
        <sat>9</sat>
      </trkpt>
      <trkpt lat="42.420179" lon="-2.781815">
        <ele>551.0</ele>
        <time>2019-08-21T06:22:02Z</time>
        <sat>9</sat>
      </trkpt>
      <trkpt lat="42.420178" lon="-2.782085">
        <ele>550.1</ele>
        <time>2019-08-21T06:22:17Z</time>
        <sat>9</sat>
      </trkpt>
      <trkpt lat="42.420189" lon="-2.782235">
        <ele>549.6</ele>
        <time>2019-08-21T06:22:25Z</time>
        <sat>9</sat>
      </trkpt>
      <trkpt lat="42.420185" lon="-2.782308">
        <ele>549.4</ele>
        <time>2019-08-21T06:22:29Z</time>
        <sat>9</sat>
      </trkpt>
      <trkpt lat="42.420193" lon="-2.782525">
        <ele>548.8</ele>
        <time>2019-08-21T06:22:41Z</time>
        <sat>8</sat>
      </trkpt>
      <trkpt lat="42.420190" lon="-2.782575">
        <ele>548.7</ele>
        <time>2019-08-21T06:22:44Z</time>
        <sat>8</sat>
      </trkpt>
      <trkpt lat="42.420198" lon="-2.782666">
        <ele>548.6</ele>
        <time>2019-08-21T06:22:49Z</time>
        <sat>8</sat>
      </trkpt>
      <trkpt lat="42.420196" lon="-2.782788">
        <ele>546.9</ele>
        <time>2019-08-21T06:22:56Z</time>
        <sat>8</sat>
      </trkpt>
      <trkpt lat="42.420218" lon="-2.783026">
        <ele>547.2</ele>
        <time>2019-08-21T06:23:26Z</time>
        <sat>8</sat>
      </trkpt>
      <trkpt lat="42.420221" lon="-2.783046">
        <ele>547.2</ele>
        <time>2019-08-21T06:23:28Z</time>
        <sat>8</sat>
      </trkpt>
      <trkpt lat="42.420219" lon="-2.783172">
        <ele>547.1</ele>
        <time>2019-08-21T06:23:35Z</time>
        <sat>8</sat>
      </trkpt>
      <trkpt lat="42.420246" lon="-2.783392">
        <ele>546.2</ele>
        <time>2019-08-21T06:23:47Z</time>
        <sat>8</sat>
      </trkpt>
      <trkpt lat="42.420256" lon="-2.783515">
        <ele>545.7</ele>
        <time>2019-08-21T06:23:54Z</time>
        <sat>8</sat>
      </trkpt>
      <trkpt lat="42.420278" lon="-2.783636">
        <ele>545.4</ele>
        <time>2019-08-21T06:24:01Z</time>
        <sat>8</sat>
      </trkpt>
      <trkpt lat="42.420289" lon="-2.783740">
        <ele>545.1</ele>
        <time>2019-08-21T06:24:07Z</time>
        <sat>8</sat>
      </trkpt>
      <trkpt lat="42.420307" lon="-2.783806">
        <ele>544.4</ele>
        <time>2019-08-21T06:24:33Z</time>
        <sat>7</sat>
      </trkpt>
      <trkpt lat="42.420326" lon="-2.783983">
        <ele>544.2</ele>
        <time>2019-08-21T06:24:43Z</time>
        <sat>7</sat>
      </trkpt>
      <trkpt lat="42.420349" lon="-2.784093">
        <ele>544.1</ele>
        <time>2019-08-21T06:24:49Z</time>
        <sat>9</sat>
      </trkpt>
      <trkpt lat="42.420380" lon="-2.784366">
        <ele>541.3</ele>
        <time>2019-08-21T06:25:04Z</time>
        <sat>9</sat>
      </trkpt>
      <trkpt lat="42.420397" lon="-2.784468">
        <ele>543.5</ele>
        <time>2019-08-21T06:25:10Z</time>
        <sat>9</sat>
      </trkpt>
      <trkpt lat="42.420401" lon="-2.784551">
        <ele>543.9</ele>
        <time>2019-08-21T06:25:15Z</time>
        <sat>8</sat>
      </trkpt>
      <trkpt lat="42.420439" lon="-2.784790">
        <ele>543.1</ele>
        <time>2019-08-21T06:25:28Z</time>
        <sat>9</sat>
      </trkpt>
      <trkpt lat="42.420448" lon="-2.784901">
        <ele>543.1</ele>
        <time>2019-08-21T06:25:34Z</time>
        <sat>9</sat>
      </trkpt>
      <trkpt lat="42.420483" lon="-2.785167">
        <ele>542.8</ele>
        <time>2019-08-21T06:25:48Z</time>
        <sat>9</sat>
      </trkpt>
      <trkpt lat="42.420485" lon="-2.785243">
        <ele>542.8</ele>
        <time>2019-08-21T06:25:52Z</time>
        <sat>9</sat>
      </trkpt>
      <trkpt lat="42.420510" lon="-2.785424">
        <ele>542.9</ele>
        <time>2019-08-21T06:26:02Z</time>
        <sat>9</sat>
      </trkpt>
      <trkpt lat="42.420532" lon="-2.785679">
        <ele>543.3</ele>
        <time>2019-08-21T06:26:16Z</time>
        <sat>9</sat>
      </trkpt>
      <trkpt lat="42.420530" lon="-2.785717">
        <ele>543.3</ele>
        <time>2019-08-21T06:26:18Z</time>
        <sat>9</sat>
      </trkpt>
      <trkpt lat="42.420538" lon="-2.785848">
        <ele>543.4</ele>
        <time>2019-08-21T06:26:25Z</time>
        <sat>9</sat>
      </trkpt>
      <trkpt lat="42.420552" lon="-2.785926">
        <ele>543.5</ele>
        <time>2019-08-21T06:26:29Z</time>
        <sat>9</sat>
      </trkpt>
      <trkpt lat="42.420563" lon="-2.786153">
        <ele>543.9</ele>
        <time>2019-08-21T06:26:41Z</time>
        <sat>9</sat>
      </trkpt>
      <trkpt lat="42.420582" lon="-2.786297">
        <ele>544.3</ele>
        <time>2019-08-21T06:26:49Z</time>
        <sat>8</sat>
      </trkpt>
      <trkpt lat="42.420590" lon="-2.786430">
        <ele>544.7</ele>
        <time>2019-08-21T06:26:56Z</time>
        <sat>8</sat>
      </trkpt>
      <trkpt lat="42.420609" lon="-2.786559">
        <ele>544.9</ele>
        <time>2019-08-21T06:27:03Z</time>
        <sat>9</sat>
      </trkpt>
      <trkpt lat="42.420611" lon="-2.786692">
        <ele>545.1</ele>
        <time>2019-08-21T06:27:10Z</time>
        <sat>9</sat>
      </trkpt>
      <trkpt lat="42.420625" lon="-2.786802">
        <ele>545.3</ele>
        <time>2019-08-21T06:27:16Z</time>
        <sat>9</sat>
      </trkpt>
      <trkpt lat="42.420628" lon="-2.786894">
        <ele>545.5</ele>
        <time>2019-08-21T06:27:21Z</time>
        <sat>8</sat>
      </trkpt>
      <trkpt lat="42.420647" lon="-2.787042">
        <ele>545.7</ele>
        <time>2019-08-21T06:27:29Z</time>
        <sat>9</sat>
      </trkpt>
      <trkpt lat="42.420652" lon="-2.787171">
        <ele>546.0</ele>
        <time>2019-08-21T06:27:36Z</time>
        <sat>9</sat>
      </trkpt>
      <trkpt lat="42.420670" lon="-2.787316">
        <ele>546.2</ele>
        <time>2019-08-21T06:27:44Z</time>
        <sat>8</sat>
      </trkpt>
      <trkpt lat="42.420675" lon="-2.787449">
        <ele>546.8</ele>
        <time>2019-08-21T06:27:51Z</time>
        <sat>9</sat>
      </trkpt>
      <trkpt lat="42.420686" lon="-2.787522">
        <ele>546.9</ele>
        <time>2019-08-21T06:27:55Z</time>
        <sat>8</sat>
      </trkpt>
      <trkpt lat="42.420688" lon="-2.787671">
        <ele>547.3</ele>
        <time>2019-08-21T06:28:03Z</time>
        <sat>8</sat>
      </trkpt>
      <trkpt lat="42.420692" lon="-2.787807">
        <ele>547.5</ele>
        <time>2019-08-21T06:28:10Z</time>
        <sat>8</sat>
      </trkpt>
      <trkpt lat="42.420695" lon="-2.787826">
        <ele>547.5</ele>
        <time>2019-08-21T06:28:11Z</time>
        <sat>8</sat>
      </trkpt>
      <trkpt lat="42.420698" lon="-2.787957">
        <ele>548.1</ele>
        <time>2019-08-21T06:28:18Z</time>
        <sat>8</sat>
      </trkpt>
      <trkpt lat="42.420694" lon="-2.787989">
        <ele>547.6</ele>
        <time>2019-08-21T06:28:20Z</time>
        <sat>8</sat>
      </trkpt>
      <trkpt lat="42.420710" lon="-2.788103">
        <ele>547.9</ele>
        <time>2019-08-21T06:28:26Z</time>
        <sat>8</sat>
      </trkpt>
      <trkpt lat="42.420713" lon="-2.788215">
        <ele>548.4</ele>
        <time>2019-08-21T06:28:32Z</time>
        <sat>8</sat>
      </trkpt>
      <trkpt lat="42.420708" lon="-2.788294">
        <ele>548.7</ele>
        <time>2019-08-21T06:28:36Z</time>
        <sat>9</sat>
      </trkpt>
      <trkpt lat="42.420717" lon="-2.788391">
        <ele>548.9</ele>
        <time>2019-08-21T06:28:41Z</time>
        <sat>9</sat>
      </trkpt>
      <trkpt lat="42.420713" lon="-2.788629">
        <ele>549.7</ele>
        <time>2019-08-21T06:28:54Z</time>
        <sat>9</sat>
      </trkpt>
      <trkpt lat="42.420721" lon="-2.788721">
        <ele>549.7</ele>
        <time>2019-08-21T06:28:59Z</time>
        <sat>9</sat>
      </trkpt>
      <trkpt lat="42.420717" lon="-2.788817">
        <ele>550.1</ele>
        <time>2019-08-21T06:29:04Z</time>
        <sat>9</sat>
      </trkpt>
      <trkpt lat="42.420724" lon="-2.788901">
        <ele>550.3</ele>
        <time>2019-08-21T06:29:13Z</time>
        <sat>9</sat>
      </trkpt>
      <trkpt lat="42.420723" lon="-2.788977">
        <ele>550.6</ele>
        <time>2019-08-21T06:29:19Z</time>
        <sat>9</sat>
      </trkpt>
      <trkpt lat="42.420750" lon="-2.789113">
        <ele>550.8</ele>
        <time>2019-08-21T06:29:26Z</time>
        <sat>9</sat>
      </trkpt>
      <trkpt lat="42.420785" lon="-2.789198">
        <ele>551.1</ele>
        <time>2019-08-21T06:29:31Z</time>
        <sat>9</sat>
      </trkpt>
      <trkpt lat="42.420821" lon="-2.789310">
        <ele>551.3</ele>
        <time>2019-08-21T06:29:38Z</time>
        <sat>9</sat>
      </trkpt>
      <trkpt lat="42.420868" lon="-2.789385">
        <ele>551.3</ele>
        <time>2019-08-21T06:29:43Z</time>
        <sat>9</sat>
      </trkpt>
      <trkpt lat="42.420918" lon="-2.789490">
        <ele>551.4</ele>
        <time>2019-08-21T06:29:50Z</time>
        <sat>9</sat>
      </trkpt>
      <trkpt lat="42.420985" lon="-2.789705">
        <ele>550.8</ele>
        <time>2019-08-21T06:30:02Z</time>
        <sat>9</sat>
      </trkpt>
      <trkpt lat="42.421023" lon="-2.789783">
        <ele>551.2</ele>
        <time>2019-08-21T06:30:07Z</time>
        <sat>9</sat>
      </trkpt>
      <trkpt lat="42.421118" lon="-2.790006">
        <ele>551.0</ele>
        <time>2019-08-21T06:30:21Z</time>
        <sat>9</sat>
      </trkpt>
      <trkpt lat="42.421149" lon="-2.790067">
        <ele>550.9</ele>
        <time>2019-08-21T06:30:25Z</time>
        <sat>9</sat>
      </trkpt>
      <trkpt lat="42.421197" lon="-2.790198">
        <ele>550.6</ele>
        <time>2019-08-21T06:30:33Z</time>
        <sat>9</sat>
      </trkpt>
      <trkpt lat="42.421279" lon="-2.790377">
        <ele>550.5</ele>
        <time>2019-08-21T06:30:44Z</time>
        <sat>9</sat>
      </trkpt>
      <trkpt lat="42.421359" lon="-2.790581">
        <ele>550.1</ele>
        <time>2019-08-21T06:31:11Z</time>
        <sat>9</sat>
      </trkpt>
      <trkpt lat="42.421426" lon="-2.790751">
        <ele>550.0</ele>
        <time>2019-08-21T06:31:30Z</time>
        <sat>9</sat>
      </trkpt>
      <trkpt lat="42.421510" lon="-2.790928">
        <ele>549.8</ele>
        <time>2019-08-21T06:31:41Z</time>
        <sat>9</sat>
      </trkpt>
      <trkpt lat="42.421547" lon="-2.791027">
        <ele>549.7</ele>
        <time>2019-08-21T06:31:47Z</time>
        <sat>9</sat>
      </trkpt>
      <trkpt lat="42.421565" lon="-2.791101">
        <ele>549.7</ele>
        <time>2019-08-21T06:31:51Z</time>
        <sat>9</sat>
      </trkpt>
      <trkpt lat="42.421644" lon="-2.791318">
        <ele>549.0</ele>
        <time>2019-08-21T06:32:04Z</time>
        <sat>9</sat>
      </trkpt>
      <trkpt lat="42.421657" lon="-2.791368">
        <ele>549.4</ele>
        <time>2019-08-21T06:32:07Z</time>
        <sat>9</sat>
      </trkpt>
      <trkpt lat="42.421703" lon="-2.791513">
        <ele>549.5</ele>
        <time>2019-08-21T06:32:15Z</time>
        <sat>9</sat>
      </trkpt>
      <trkpt lat="42.421847" lon="-2.791897">
        <ele>548.2</ele>
        <time>2019-08-21T06:33:46Z</time>
        <sat>9</sat>
      </trkpt>
      <trkpt lat="42.421858" lon="-2.791956">
        <ele>548.8</ele>
        <time>2019-08-21T06:33:51Z</time>
        <sat>9</sat>
      </trkpt>
      <trkpt lat="42.421884" lon="-2.792037">
        <ele>548.9</ele>
        <time>2019-08-21T06:33:56Z</time>
        <sat>9</sat>
      </trkpt>
      <trkpt lat="42.421895" lon="-2.792096">
        <ele>549.0</ele>
        <time>2019-08-21T06:33:59Z</time>
        <sat>9</sat>
      </trkpt>
      <trkpt lat="42.421960" lon="-2.792246">
        <ele>548.9</ele>
        <time>2019-08-21T06:34:08Z</time>
        <sat>9</sat>
      </trkpt>
      <trkpt lat="42.422000" lon="-2.792393">
        <ele>548.7</ele>
        <time>2019-08-21T06:34:16Z</time>
        <sat>9</sat>
      </trkpt>
      <trkpt lat="42.422017" lon="-2.792502">
        <ele>548.6</ele>
        <time>2019-08-21T06:34:22Z</time>
        <sat>9</sat>
      </trkpt>
      <trkpt lat="42.422066" lon="-2.792619">
        <ele>548.7</ele>
        <time>2019-08-21T06:34:29Z</time>
        <sat>9</sat>
      </trkpt>
      <trkpt lat="42.422087" lon="-2.792708">
        <ele>548.7</ele>
        <time>2019-08-21T06:34:34Z</time>
        <sat>9</sat>
      </trkpt>
      <trkpt lat="42.422171" lon="-2.792930">
        <ele>548.5</ele>
        <time>2019-08-21T06:34:47Z</time>
        <sat>9</sat>
      </trkpt>
      <trkpt lat="42.422213" lon="-2.793081">
        <ele>548.4</ele>
        <time>2019-08-21T06:34:56Z</time>
        <sat>9</sat>
      </trkpt>
      <trkpt lat="42.422238" lon="-2.793112">
        <ele>548.2</ele>
        <time>2019-08-21T06:35:15Z</time>
        <sat>9</sat>
      </trkpt>
      <trkpt lat="42.422284" lon="-2.793241">
        <ele>548.4</ele>
        <time>2019-08-21T06:35:23Z</time>
        <sat>9</sat>
      </trkpt>
      <trkpt lat="42.422293" lon="-2.793293">
        <ele>548.5</ele>
        <time>2019-08-21T06:35:26Z</time>
        <sat>9</sat>
      </trkpt>
      <trkpt lat="42.422336" lon="-2.793509">
        <ele>548.4</ele>
        <time>2019-08-21T06:35:37Z</time>
        <sat>9</sat>
      </trkpt>
      <trkpt lat="42.422369" lon="-2.793651">
        <ele>548.1</ele>
        <time>2019-08-21T06:35:45Z</time>
        <sat>9</sat>
      </trkpt>
      <trkpt lat="42.422403" lon="-2.793854">
        <ele>548.0</ele>
        <time>2019-08-21T06:35:56Z</time>
        <sat>9</sat>
      </trkpt>
      <trkpt lat="42.422419" lon="-2.793924">
        <ele>547.9</ele>
        <time>2019-08-21T06:36:00Z</time>
        <sat>9</sat>
      </trkpt>
      <trkpt lat="42.422447" lon="-2.794002">
        <ele>547.8</ele>
        <time>2019-08-21T06:36:05Z</time>
        <sat>8</sat>
      </trkpt>
      <trkpt lat="42.422447" lon="-2.794058">
        <ele>547.8</ele>
        <time>2019-08-21T06:36:08Z</time>
        <sat>9</sat>
      </trkpt>
      <trkpt lat="42.422461" lon="-2.794166">
        <ele>544.2</ele>
        <time>2019-08-21T06:36:14Z</time>
        <sat>9</sat>
      </trkpt>
      <trkpt lat="42.422491" lon="-2.794298">
        <ele>547.8</ele>
        <time>2019-08-21T06:36:21Z</time>
        <sat>9</sat>
      </trkpt>
      <trkpt lat="42.422531" lon="-2.794529">
        <ele>548.1</ele>
        <time>2019-08-21T06:36:34Z</time>
        <sat>9</sat>
      </trkpt>
      <trkpt lat="42.422573" lon="-2.794705">
        <ele>547.8</ele>
        <time>2019-08-21T06:36:44Z</time>
        <sat>9</sat>
      </trkpt>
      <trkpt lat="42.422596" lon="-2.794875">
        <ele>547.8</ele>
        <time>2019-08-21T06:36:53Z</time>
        <sat>9</sat>
      </trkpt>
      <trkpt lat="42.422621" lon="-2.794965">
        <ele>547.8</ele>
        <time>2019-08-21T06:36:58Z</time>
        <sat>9</sat>
      </trkpt>
      <trkpt lat="42.422661" lon="-2.795226">
        <ele>547.9</ele>
        <time>2019-08-21T06:37:12Z</time>
        <sat>9</sat>
      </trkpt>
      <trkpt lat="42.422696" lon="-2.795365">
        <ele>548.0</ele>
        <time>2019-08-21T06:37:20Z</time>
        <sat>9</sat>
      </trkpt>
      <trkpt lat="42.422708" lon="-2.795472">
        <ele>548.1</ele>
        <time>2019-08-21T06:37:26Z</time>
        <sat>9</sat>
      </trkpt>
      <trkpt lat="42.422730" lon="-2.795581">
        <ele>548.1</ele>
        <time>2019-08-21T06:37:32Z</time>
        <sat>9</sat>
      </trkpt>
      <trkpt lat="42.422740" lon="-2.795711">
        <ele>548.2</ele>
        <time>2019-08-21T06:37:39Z</time>
        <sat>9</sat>
      </trkpt>
      <trkpt lat="42.422778" lon="-2.795908">
        <ele>548.3</ele>
        <time>2019-08-21T06:37:50Z</time>
        <sat>9</sat>
      </trkpt>
      <trkpt lat="42.422784" lon="-2.795985">
        <ele>548.5</ele>
        <time>2019-08-21T06:37:54Z</time>
        <sat>9</sat>
      </trkpt>
      <trkpt lat="42.422804" lon="-2.796102">
        <ele>548.6</ele>
        <time>2019-08-21T06:38:00Z</time>
        <sat>9</sat>
      </trkpt>
      <trkpt lat="42.422841" lon="-2.796268">
        <ele>548.9</ele>
        <time>2019-08-21T06:38:09Z</time>
        <sat>9</sat>
      </trkpt>
      <trkpt lat="42.422843" lon="-2.796307">
        <ele>548.9</ele>
        <time>2019-08-21T06:38:11Z</time>
        <sat>9</sat>
      </trkpt>
      <trkpt lat="42.422856" lon="-2.796404">
        <ele>549.1</ele>
        <time>2019-08-21T06:38:16Z</time>
        <sat>9</sat>
      </trkpt>
      <trkpt lat="42.422870" lon="-2.796472">
        <ele>549.6</ele>
        <time>2019-08-21T06:38:20Z</time>
        <sat>9</sat>
      </trkpt>
      <trkpt lat="42.422891" lon="-2.796498">
        <ele>550.4</ele>
        <time>2019-08-21T06:38:30Z</time>
        <sat>7</sat>
      </trkpt>
      <trkpt lat="42.422905" lon="-2.796557">
        <ele>550.3</ele>
        <time>2019-08-21T06:38:50Z</time>
        <sat>8</sat>
      </trkpt>
      <trkpt lat="42.422911" lon="-2.796637">
        <ele>550.3</ele>
        <time>2019-08-21T06:38:54Z</time>
        <sat>8</sat>
      </trkpt>
      <trkpt lat="42.422933" lon="-2.796746">
        <ele>550.4</ele>
        <time>2019-08-21T06:39:00Z</time>
        <sat>8</sat>
      </trkpt>
      <trkpt lat="42.422962" lon="-2.796921">
        <ele>551.0</ele>
        <time>2019-08-21T06:39:09Z</time>
        <sat>9</sat>
      </trkpt>
      <trkpt lat="42.422986" lon="-2.797121">
        <ele>552.1</ele>
        <time>2019-08-21T06:39:41Z</time>
        <sat>9</sat>
      </trkpt>
      <trkpt lat="42.422990" lon="-2.797199">
        <ele>551.8</ele>
        <time>2019-08-21T06:39:45Z</time>
        <sat>9</sat>
      </trkpt>
      <trkpt lat="42.423013" lon="-2.797272">
        <ele>552.4</ele>
        <time>2019-08-21T06:39:49Z</time>
        <sat>9</sat>
      </trkpt>
      <trkpt lat="42.423020" lon="-2.797308">
        <ele>552.5</ele>
        <time>2019-08-21T06:39:51Z</time>
        <sat>9</sat>
      </trkpt>
      <trkpt lat="42.423036" lon="-2.797446">
        <ele>552.8</ele>
        <time>2019-08-21T06:39:58Z</time>
        <sat>9</sat>
      </trkpt>
      <trkpt lat="42.423060" lon="-2.797555">
        <ele>552.8</ele>
        <time>2019-08-21T06:40:04Z</time>
        <sat>10</sat>
      </trkpt>
      <trkpt lat="42.423083" lon="-2.797631">
        <ele>552.9</ele>
        <time>2019-08-21T06:40:08Z</time>
        <sat>9</sat>
      </trkpt>
      <trkpt lat="42.423111" lon="-2.797841">
        <ele>553.1</ele>
        <time>2019-08-21T06:40:19Z</time>
        <sat>9</sat>
      </trkpt>
      <trkpt lat="42.423139" lon="-2.797915">
        <ele>553.2</ele>
        <time>2019-08-21T06:40:23Z</time>
        <sat>9</sat>
      </trkpt>
      <trkpt lat="42.423172" lon="-2.798095">
        <ele>553.5</ele>
        <time>2019-08-21T06:40:33Z</time>
        <sat>9</sat>
      </trkpt>
      <trkpt lat="42.423198" lon="-2.798180">
        <ele>553.6</ele>
        <time>2019-08-21T06:40:38Z</time>
        <sat>9</sat>
      </trkpt>
      <trkpt lat="42.423220" lon="-2.798336">
        <ele>554.1</ele>
        <time>2019-08-21T06:40:46Z</time>
        <sat>9</sat>
      </trkpt>
      <trkpt lat="42.423256" lon="-2.798425">
        <ele>554.5</ele>
        <time>2019-08-21T06:40:51Z</time>
        <sat>10</sat>
      </trkpt>
      <trkpt lat="42.423269" lon="-2.798498">
        <ele>554.7</ele>
        <time>2019-08-21T06:40:55Z</time>
        <sat>9</sat>
      </trkpt>
      <trkpt lat="42.423290" lon="-2.798557">
        <ele>555.0</ele>
        <time>2019-08-21T06:41:00Z</time>
        <sat>9</sat>
      </trkpt>
      <trkpt lat="42.423287" lon="-2.798564">
        <ele>555.0</ele>
        <time>2019-08-21T06:41:10Z</time>
        <sat>9</sat>
      </trkpt>
      <trkpt lat="42.423320" lon="-2.798715">
        <ele>555.4</ele>
        <time>2019-08-21T06:41:24Z</time>
        <sat>9</sat>
      </trkpt>
      <trkpt lat="42.423418" lon="-2.798932">
        <ele>552.6</ele>
        <time>2019-08-21T06:41:39Z</time>
        <sat>10</sat>
      </trkpt>
      <trkpt lat="42.423453" lon="-2.799030">
        <ele>555.4</ele>
        <time>2019-08-21T06:41:45Z</time>
        <sat>10</sat>
      </trkpt>
      <trkpt lat="42.423553" lon="-2.799219">
        <ele>554.5</ele>
        <time>2019-08-21T06:41:57Z</time>
        <sat>10</sat>
      </trkpt>
      <trkpt lat="42.423565" lon="-2.799263">
        <ele>553.7</ele>
        <time>2019-08-21T06:42:06Z</time>
        <sat>9</sat>
      </trkpt>
      <trkpt lat="42.423557" lon="-2.799217">
        <ele>553.4</ele>
        <time>2019-08-21T06:42:13Z</time>
        <sat>8</sat>
      </trkpt>
      <trkpt lat="42.423570" lon="-2.799273">
        <ele>553.4</ele>
        <time>2019-08-21T06:42:20Z</time>
        <sat>8</sat>
      </trkpt>
      <trkpt lat="42.423618" lon="-2.799368">
        <ele>553.6</ele>
        <time>2019-08-21T06:42:26Z</time>
        <sat>8</sat>
      </trkpt>
      <trkpt lat="42.423653" lon="-2.799473">
        <ele>553.3</ele>
        <time>2019-08-21T06:42:32Z</time>
        <sat>9</sat>
      </trkpt>
      <trkpt lat="42.423664" lon="-2.799544">
        <ele>553.2</ele>
        <time>2019-08-21T06:42:36Z</time>
        <sat>8</sat>
      </trkpt>
      <trkpt lat="42.423683" lon="-2.799610">
        <ele>553.1</ele>
        <time>2019-08-21T06:42:40Z</time>
        <sat>8</sat>
      </trkpt>
      <trkpt lat="42.423800" lon="-2.799767">
        <ele>553.2</ele>
        <time>2019-08-21T07:13:06Z</time>
        <sat>7</sat>
      </trkpt>
      <trkpt lat="42.423817" lon="-2.799838">
        <ele>553.0</ele>
        <time>2019-08-21T07:13:11Z</time>
        <sat>7</sat>
      </trkpt>
      <trkpt lat="42.423861" lon="-2.799918">
        <ele>552.3</ele>
        <time>2019-08-21T07:13:18Z</time>
        <sat>8</sat>
      </trkpt>
      <trkpt lat="42.423889" lon="-2.799987">
        <ele>551.8</ele>
        <time>2019-08-21T07:13:24Z</time>
        <sat>7</sat>
      </trkpt>
      <trkpt lat="42.423911" lon="-2.800075">
        <ele>552.3</ele>
        <time>2019-08-21T07:13:29Z</time>
        <sat>7</sat>
      </trkpt>
      <trkpt lat="42.423960" lon="-2.800241">
        <ele>553.3</ele>
        <time>2019-08-21T07:13:39Z</time>
        <sat>7</sat>
      </trkpt>
      <trkpt lat="42.423979" lon="-2.800293">
        <ele>553.3</ele>
        <time>2019-08-21T07:13:43Z</time>
        <sat>7</sat>
      </trkpt>
      <trkpt lat="42.424014" lon="-2.800418">
        <ele>552.4</ele>
        <time>2019-08-21T07:13:52Z</time>
        <sat>7</sat>
      </trkpt>
      <trkpt lat="42.424078" lon="-2.800689">
        <ele>551.1</ele>
        <time>2019-08-21T07:14:17Z</time>
        <sat>7</sat>
      </trkpt>
      <trkpt lat="42.424100" lon="-2.800787">
        <ele>551.8</ele>
        <time>2019-08-21T07:14:36Z</time>
        <sat>7</sat>
      </trkpt>
      <trkpt lat="42.424193" lon="-2.800936">
        <ele>551.0</ele>
        <time>2019-08-21T07:14:48Z</time>
        <sat>8</sat>
      </trkpt>
      <trkpt lat="42.424250" lon="-2.801019">
        <ele>550.8</ele>
        <time>2019-08-21T07:14:55Z</time>
        <sat>8</sat>
      </trkpt>
      <trkpt lat="42.424284" lon="-2.801088">
        <ele>550.2</ele>
        <time>2019-08-21T07:15:04Z</time>
        <sat>7</sat>
      </trkpt>
      <trkpt lat="42.424352" lon="-2.801291">
        <ele>549.3</ele>
        <time>2019-08-21T07:15:22Z</time>
        <sat>7</sat>
      </trkpt>
      <trkpt lat="42.424376" lon="-2.801330">
        <ele>548.9</ele>
        <time>2019-08-21T07:15:25Z</time>
        <sat>7</sat>
      </trkpt>
      <trkpt lat="42.424423" lon="-2.801467">
        <ele>548.1</ele>
        <time>2019-08-21T07:15:33Z</time>
        <sat>7</sat>
      </trkpt>
      <trkpt lat="42.424480" lon="-2.801642">
        <ele>546.9</ele>
        <time>2019-08-21T07:15:44Z</time>
        <sat>7</sat>
      </trkpt>
      <trkpt lat="42.424504" lon="-2.801708">
        <ele>546.9</ele>
        <time>2019-08-21T07:15:48Z</time>
        <sat>7</sat>
      </trkpt>
      <trkpt lat="42.424532" lon="-2.801758">
        <ele>546.5</ele>
        <time>2019-08-21T07:15:52Z</time>
        <sat>7</sat>
      </trkpt>
      <trkpt lat="42.424556" lon="-2.801819">
        <ele>546.2</ele>
        <time>2019-08-21T07:15:56Z</time>
        <sat>7</sat>
      </trkpt>
      <trkpt lat="42.424591" lon="-2.802003">
        <ele>545.3</ele>
        <time>2019-08-21T07:16:06Z</time>
        <sat>8</sat>
      </trkpt>
      <trkpt lat="42.424604" lon="-2.802147">
        <ele>544.4</ele>
        <time>2019-08-21T07:16:14Z</time>
        <sat>8</sat>
      </trkpt>
      <trkpt lat="42.424624" lon="-2.802291">
        <ele>542.9</ele>
        <time>2019-08-21T07:16:22Z</time>
        <sat>8</sat>
      </trkpt>
      <trkpt lat="42.424715" lon="-2.802486">
        <ele>544.3</ele>
        <time>2019-08-21T07:16:36Z</time>
        <sat>8</sat>
      </trkpt>
      <trkpt lat="42.424812" lon="-2.802655">
        <ele>543.7</ele>
        <time>2019-08-21T07:16:49Z</time>
        <sat>7</sat>
      </trkpt>
      <trkpt lat="42.424919" lon="-2.802752">
        <ele>543.5</ele>
        <time>2019-08-21T07:16:59Z</time>
        <sat>8</sat>
      </trkpt>
      <trkpt lat="42.425060" lon="-2.802858">
        <ele>542.9</ele>
        <time>2019-08-21T07:17:12Z</time>
        <sat>8</sat>
      </trkpt>
      <trkpt lat="42.425108" lon="-2.802914">
        <ele>542.9</ele>
        <time>2019-08-21T07:17:17Z</time>
        <sat>8</sat>
      </trkpt>
      <trkpt lat="42.425167" lon="-2.802969">
        <ele>543.0</ele>
        <time>2019-08-21T07:17:23Z</time>
        <sat>8</sat>
      </trkpt>
      <trkpt lat="42.425203" lon="-2.803011">
        <ele>543.0</ele>
        <time>2019-08-21T07:17:27Z</time>
        <sat>8</sat>
      </trkpt>
      <trkpt lat="42.425328" lon="-2.803128">
        <ele>542.7</ele>
        <time>2019-08-21T07:17:39Z</time>
        <sat>8</sat>
      </trkpt>
      <trkpt lat="42.425368" lon="-2.803164">
        <ele>542.4</ele>
        <time>2019-08-21T07:17:43Z</time>
        <sat>7</sat>
      </trkpt>
      <trkpt lat="42.425419" lon="-2.803230">
        <ele>542.2</ele>
        <time>2019-08-21T07:17:49Z</time>
        <sat>7</sat>
      </trkpt>
      <trkpt lat="42.425471" lon="-2.803256">
        <ele>542.1</ele>
        <time>2019-08-21T07:17:53Z</time>
        <sat>8</sat>
      </trkpt>
      <trkpt lat="42.425594" lon="-2.803376">
        <ele>541.9</ele>
        <time>2019-08-21T07:18:05Z</time>
        <sat>8</sat>
      </trkpt>
      <trkpt lat="42.425644" lon="-2.803442">
        <ele>542.0</ele>
        <time>2019-08-21T07:18:12Z</time>
        <sat>8</sat>
      </trkpt>
      <trkpt lat="42.425695" lon="-2.803488">
        <ele>542.0</ele>
        <time>2019-08-21T07:18:16Z</time>
        <sat>8</sat>
      </trkpt>
      <trkpt lat="42.425722" lon="-2.803634">
        <ele>541.8</ele>
        <time>2019-08-21T07:18:25Z</time>
        <sat>8</sat>
      </trkpt>
      <trkpt lat="42.425749" lon="-2.803672">
        <ele>541.9</ele>
        <time>2019-08-21T07:18:28Z</time>
        <sat>8</sat>
      </trkpt>
      <trkpt lat="42.425787" lon="-2.803784">
        <ele>541.8</ele>
        <time>2019-08-21T07:18:35Z</time>
        <sat>8</sat>
      </trkpt>
      <trkpt lat="42.425813" lon="-2.803985">
        <ele>542.0</ele>
        <time>2019-08-21T07:18:47Z</time>
        <sat>8</sat>
      </trkpt>
      <trkpt lat="42.425844" lon="-2.804109">
        <ele>542.1</ele>
        <time>2019-08-21T07:18:55Z</time>
        <sat>8</sat>
      </trkpt>
      <trkpt lat="42.425866" lon="-2.804304">
        <ele>542.0</ele>
        <time>2019-08-21T07:19:06Z</time>
        <sat>8</sat>
      </trkpt>
      <trkpt lat="42.425900" lon="-2.804554">
        <ele>542.2</ele>
        <time>2019-08-21T07:19:20Z</time>
        <sat>8</sat>
      </trkpt>
      <trkpt lat="42.425912" lon="-2.804622">
        <ele>542.2</ele>
        <time>2019-08-21T07:19:24Z</time>
        <sat>8</sat>
      </trkpt>
      <trkpt lat="42.425916" lon="-2.804708">
        <ele>542.3</ele>
        <time>2019-08-21T07:19:29Z</time>
        <sat>8</sat>
      </trkpt>
      <trkpt lat="42.425936" lon="-2.804823">
        <ele>542.4</ele>
        <time>2019-08-21T07:19:36Z</time>
        <sat>8</sat>
      </trkpt>
      <trkpt lat="42.425960" lon="-2.805093">
        <ele>542.6</ele>
        <time>2019-08-21T07:19:51Z</time>
        <sat>8</sat>
      </trkpt>
      <trkpt lat="42.425978" lon="-2.805270">
        <ele>542.6</ele>
        <time>2019-08-21T07:20:01Z</time>
        <sat>8</sat>
      </trkpt>
      <trkpt lat="42.425985" lon="-2.805393">
        <ele>542.9</ele>
        <time>2019-08-21T07:20:08Z</time>
        <sat>8</sat>
      </trkpt>
      <trkpt lat="42.426007" lon="-2.805515">
        <ele>542.9</ele>
        <time>2019-08-21T07:20:15Z</time>
        <sat>8</sat>
      </trkpt>
      <trkpt lat="42.426008" lon="-2.805589">
        <ele>542.2</ele>
        <time>2019-08-21T07:20:19Z</time>
        <sat>8</sat>
      </trkpt>
      <trkpt lat="42.426030" lon="-2.805729">
        <ele>543.5</ele>
        <time>2019-08-21T07:20:27Z</time>
        <sat>7</sat>
      </trkpt>
      <trkpt lat="42.426037" lon="-2.805858">
        <ele>543.5</ele>
        <time>2019-08-21T07:20:34Z</time>
        <sat>7</sat>
      </trkpt>
      <trkpt lat="42.426049" lon="-2.805915">
        <ele>543.6</ele>
        <time>2019-08-21T07:20:37Z</time>
        <sat>8</sat>
      </trkpt>
      <trkpt lat="42.426069" lon="-2.806131">
        <ele>543.5</ele>
        <time>2019-08-21T07:20:49Z</time>
        <sat>8</sat>
      </trkpt>
      <trkpt lat="42.426082" lon="-2.806202">
        <ele>543.5</ele>
        <time>2019-08-21T07:20:53Z</time>
        <sat>8</sat>
      </trkpt>
      <trkpt lat="42.426084" lon="-2.806275">
        <ele>543.6</ele>
        <time>2019-08-21T07:20:57Z</time>
        <sat>8</sat>
      </trkpt>
      <trkpt lat="42.426110" lon="-2.806528">
        <ele>543.9</ele>
        <time>2019-08-21T07:21:11Z</time>
        <sat>8</sat>
      </trkpt>
      <trkpt lat="42.426132" lon="-2.806713">
        <ele>544.2</ele>
        <time>2019-08-21T07:21:22Z</time>
        <sat>8</sat>
      </trkpt>
      <trkpt lat="42.426148" lon="-2.806798">
        <ele>544.2</ele>
        <time>2019-08-21T07:21:27Z</time>
        <sat>8</sat>
      </trkpt>
      <trkpt lat="42.426151" lon="-2.806866">
        <ele>544.3</ele>
        <time>2019-08-21T07:21:31Z</time>
        <sat>8</sat>
      </trkpt>
      <trkpt lat="42.426170" lon="-2.806978">
        <ele>544.3</ele>
        <time>2019-08-21T07:21:38Z</time>
        <sat>8</sat>
      </trkpt>
      <trkpt lat="42.426199" lon="-2.807193">
        <ele>544.9</ele>
        <time>2019-08-21T07:21:50Z</time>
        <sat>8</sat>
      </trkpt>
      <trkpt lat="42.426222" lon="-2.807413">
        <ele>544.7</ele>
        <time>2019-08-21T07:22:03Z</time>
        <sat>8</sat>
      </trkpt>
      <trkpt lat="42.426273" lon="-2.807648">
        <ele>544.9</ele>
        <time>2019-08-21T07:22:17Z</time>
        <sat>8</sat>
      </trkpt>
      <trkpt lat="42.426309" lon="-2.807785">
        <ele>544.9</ele>
        <time>2019-08-21T07:22:25Z</time>
        <sat>8</sat>
      </trkpt>
      <trkpt lat="42.426344" lon="-2.807883">
        <ele>545.0</ele>
        <time>2019-08-21T07:22:31Z</time>
        <sat>8</sat>
      </trkpt>
      <trkpt lat="42.426367" lon="-2.808001">
        <ele>545.2</ele>
        <time>2019-08-21T07:22:38Z</time>
        <sat>8</sat>
      </trkpt>
      <trkpt lat="42.426386" lon="-2.808062">
        <ele>545.2</ele>
        <time>2019-08-21T07:22:42Z</time>
        <sat>8</sat>
      </trkpt>
      <trkpt lat="42.426409" lon="-2.808160">
        <ele>545.3</ele>
        <time>2019-08-21T07:22:48Z</time>
        <sat>8</sat>
      </trkpt>
      <trkpt lat="42.426463" lon="-2.808347">
        <ele>545.7</ele>
        <time>2019-08-21T07:23:00Z</time>
        <sat>8</sat>
      </trkpt>
      <trkpt lat="42.426479" lon="-2.808432">
        <ele>545.9</ele>
        <time>2019-08-21T07:23:05Z</time>
        <sat>8</sat>
      </trkpt>
      <trkpt lat="42.426503" lon="-2.808498">
        <ele>545.8</ele>
        <time>2019-08-21T07:23:09Z</time>
        <sat>8</sat>
      </trkpt>
      <trkpt lat="42.426553" lon="-2.808685">
        <ele>546.5</ele>
        <time>2019-08-21T07:23:21Z</time>
        <sat>8</sat>
      </trkpt>
      <trkpt lat="42.426581" lon="-2.808765">
        <ele>546.8</ele>
        <time>2019-08-21T07:23:26Z</time>
        <sat>7</sat>
      </trkpt>
      <trkpt lat="42.426604" lon="-2.808857">
        <ele>547.0</ele>
        <time>2019-08-21T07:23:32Z</time>
        <sat>7</sat>
      </trkpt>
      <trkpt lat="42.426653" lon="-2.809022">
        <ele>547.2</ele>
        <time>2019-08-21T07:23:43Z</time>
        <sat>8</sat>
      </trkpt>
      <trkpt lat="42.426676" lon="-2.809109">
        <ele>547.6</ele>
        <time>2019-08-21T07:23:49Z</time>
        <sat>7</sat>
      </trkpt>
      <trkpt lat="42.426729" lon="-2.809295">
        <ele>548.4</ele>
        <time>2019-08-21T07:24:02Z</time>
        <sat>7</sat>
      </trkpt>
      <trkpt lat="42.426794" lon="-2.809524">
        <ele>549.1</ele>
        <time>2019-08-21T07:24:17Z</time>
        <sat>8</sat>
      </trkpt>
      <trkpt lat="42.426817" lon="-2.809584">
        <ele>549.3</ele>
        <time>2019-08-21T07:24:21Z</time>
        <sat>8</sat>
      </trkpt>
      <trkpt lat="42.426834" lon="-2.809650">
        <ele>549.4</ele>
        <time>2019-08-21T07:24:25Z</time>
        <sat>7</sat>
      </trkpt>
      <trkpt lat="42.426856" lon="-2.809711">
        <ele>549.6</ele>
        <time>2019-08-21T07:24:29Z</time>
        <sat>7</sat>
      </trkpt>
      <trkpt lat="42.426917" lon="-2.809936">
        <ele>550.6</ele>
        <time>2019-08-21T07:24:44Z</time>
        <sat>7</sat>
      </trkpt>
      <trkpt lat="42.426978" lon="-2.810133">
        <ele>551.5</ele>
        <time>2019-08-21T07:24:57Z</time>
        <sat>8</sat>
      </trkpt>
      <trkpt lat="42.427039" lon="-2.810318">
        <ele>552.2</ele>
        <time>2019-08-21T07:25:09Z</time>
        <sat>8</sat>
      </trkpt>
      <trkpt lat="42.427099" lon="-2.810543">
        <ele>552.8</ele>
        <time>2019-08-21T07:25:23Z</time>
        <sat>8</sat>
      </trkpt>
      <trkpt lat="42.427129" lon="-2.810653">
        <ele>553.2</ele>
        <time>2019-08-21T07:25:30Z</time>
        <sat>8</sat>
      </trkpt>
      <trkpt lat="42.427142" lon="-2.810684">
        <ele>553.3</ele>
        <time>2019-08-21T07:25:32Z</time>
        <sat>8</sat>
      </trkpt>
      <trkpt lat="42.427218" lon="-2.810902">
        <ele>553.9</ele>
        <time>2019-08-21T07:25:46Z</time>
        <sat>8</sat>
      </trkpt>
      <trkpt lat="42.427295" lon="-2.811082">
        <ele>554.3</ele>
        <time>2019-08-21T07:25:58Z</time>
        <sat>8</sat>
      </trkpt>
      <trkpt lat="42.427312" lon="-2.811108">
        <ele>554.4</ele>
        <time>2019-08-21T07:26:00Z</time>
        <sat>8</sat>
      </trkpt>
      <trkpt lat="42.427347" lon="-2.811198">
        <ele>554.6</ele>
        <time>2019-08-21T07:26:06Z</time>
        <sat>8</sat>
      </trkpt>
      <trkpt lat="42.427375" lon="-2.811252">
        <ele>554.7</ele>
        <time>2019-08-21T07:26:10Z</time>
        <sat>8</sat>
      </trkpt>
      <trkpt lat="42.427456" lon="-2.811442">
        <ele>555.2</ele>
        <time>2019-08-21T07:26:23Z</time>
        <sat>8</sat>
      </trkpt>
      <trkpt lat="42.427490" lon="-2.811500">
        <ele>555.4</ele>
        <time>2019-08-21T07:26:27Z</time>
        <sat>8</sat>
      </trkpt>
      <trkpt lat="42.427569" lon="-2.811669">
        <ele>555.8</ele>
        <time>2019-08-21T07:26:39Z</time>
        <sat>8</sat>
      </trkpt>
      <trkpt lat="42.427646" lon="-2.811843">
        <ele>556.2</ele>
        <time>2019-08-21T07:26:51Z</time>
        <sat>8</sat>
      </trkpt>
      <trkpt lat="42.427727" lon="-2.812006">
        <ele>556.9</ele>
        <time>2019-08-21T07:27:03Z</time>
        <sat>8</sat>
      </trkpt>
      <trkpt lat="42.427822" lon="-2.812218">
        <ele>557.3</ele>
        <time>2019-08-21T07:27:18Z</time>
        <sat>8</sat>
      </trkpt>
      <trkpt lat="42.427847" lon="-2.812279">
        <ele>557.5</ele>
        <time>2019-08-21T07:27:22Z</time>
        <sat>8</sat>
      </trkpt>
      <trkpt lat="42.427886" lon="-2.812349">
        <ele>557.7</ele>
        <time>2019-08-21T07:27:27Z</time>
        <sat>8</sat>
      </trkpt>
      <trkpt lat="42.427962" lon="-2.812524">
        <ele>558.3</ele>
        <time>2019-08-21T07:27:39Z</time>
        <sat>8</sat>
      </trkpt>
      <trkpt lat="42.427983" lon="-2.812600">
        <ele>558.7</ele>
        <time>2019-08-21T07:27:44Z</time>
        <sat>8</sat>
      </trkpt>
      <trkpt lat="42.428066" lon="-2.812769">
        <ele>559.0</ele>
        <time>2019-08-21T07:27:56Z</time>
        <sat>8</sat>
      </trkpt>
      <trkpt lat="42.428088" lon="-2.812834">
        <ele>559.3</ele>
        <time>2019-08-21T07:28:00Z</time>
        <sat>8</sat>
      </trkpt>
      <trkpt lat="42.428118" lon="-2.812893">
        <ele>559.4</ele>
        <time>2019-08-21T07:28:04Z</time>
        <sat>8</sat>
      </trkpt>
      <trkpt lat="42.428142" lon="-2.812972">
        <ele>559.5</ele>
        <time>2019-08-21T07:28:09Z</time>
        <sat>8</sat>
      </trkpt>
      <trkpt lat="42.428205" lon="-2.813170">
        <ele>560.4</ele>
        <time>2019-08-21T07:28:22Z</time>
        <sat>8</sat>
      </trkpt>
      <trkpt lat="42.428235" lon="-2.813230">
        <ele>560.6</ele>
        <time>2019-08-21T07:28:26Z</time>
        <sat>8</sat>
      </trkpt>
      <trkpt lat="42.428290" lon="-2.813399">
        <ele>561.3</ele>
        <time>2019-08-21T07:28:37Z</time>
        <sat>8</sat>
      </trkpt>
      <trkpt lat="42.428324" lon="-2.813471">
        <ele>561.7</ele>
        <time>2019-08-21T07:28:42Z</time>
        <sat>8</sat>
      </trkpt>
      <trkpt lat="42.428353" lon="-2.813573">
        <ele>562.1</ele>
        <time>2019-08-21T07:28:50Z</time>
        <sat>8</sat>
      </trkpt>
      <trkpt lat="42.428375" lon="-2.813629">
        <ele>562.3</ele>
        <time>2019-08-21T07:28:54Z</time>
        <sat>8</sat>
      </trkpt>
      <trkpt lat="42.428429" lon="-2.813800">
        <ele>562.7</ele>
        <time>2019-08-21T07:29:05Z</time>
        <sat>8</sat>
      </trkpt>
      <trkpt lat="42.428463" lon="-2.813890">
        <ele>562.9</ele>
        <time>2019-08-21T07:29:11Z</time>
        <sat>8</sat>
      </trkpt>
      <trkpt lat="42.428499" lon="-2.814014">
        <ele>562.7</ele>
        <time>2019-08-21T07:29:19Z</time>
        <sat>8</sat>
      </trkpt>
      <trkpt lat="42.428552" lon="-2.814232">
        <ele>564.0</ele>
        <time>2019-08-21T07:29:33Z</time>
        <sat>8</sat>
      </trkpt>
      <trkpt lat="42.428578" lon="-2.814362">
        <ele>564.0</ele>
        <time>2019-08-21T07:29:41Z</time>
        <sat>8</sat>
      </trkpt>
      <trkpt lat="42.428613" lon="-2.814549">
        <ele>564.3</ele>
        <time>2019-08-21T07:29:52Z</time>
        <sat>7</sat>
      </trkpt>
      <trkpt lat="42.428624" lon="-2.814635">
        <ele>564.5</ele>
        <time>2019-08-21T07:29:57Z</time>
        <sat>7</sat>
      </trkpt>
      <trkpt lat="42.428661" lon="-2.814775">
        <ele>564.7</ele>
        <time>2019-08-21T07:30:06Z</time>
        <sat>7</sat>
      </trkpt>
      <trkpt lat="42.428675" lon="-2.814855">
        <ele>564.9</ele>
        <time>2019-08-21T07:30:11Z</time>
        <sat>7</sat>
      </trkpt>
      <trkpt lat="42.428717" lon="-2.815039">
        <ele>565.1</ele>
        <time>2019-08-21T07:30:22Z</time>
        <sat>7</sat>
      </trkpt>
      <trkpt lat="42.428784" lon="-2.815265">
        <ele>565.5</ele>
        <time>2019-08-21T07:30:36Z</time>
        <sat>7</sat>
      </trkpt>
      <trkpt lat="42.428830" lon="-2.815348">
        <ele>566.3</ele>
        <time>2019-08-21T07:30:46Z</time>
        <sat>7</sat>
      </trkpt>
      <trkpt lat="42.428841" lon="-2.815335">
        <ele>566.6</ele>
        <time>2019-08-21T07:30:54Z</time>
        <sat>7</sat>
      </trkpt>
      <trkpt lat="42.428839" lon="-2.815334">
        <ele>566.6</ele>
        <time>2019-08-21T07:31:07Z</time>
        <sat>7</sat>
      </trkpt>
      <trkpt lat="42.428886" lon="-2.815440">
        <ele>566.6</ele>
        <time>2019-08-21T07:31:38Z</time>
        <sat>7</sat>
      </trkpt>
      <trkpt lat="42.428918" lon="-2.815496">
        <ele>566.7</ele>
        <time>2019-08-21T07:31:52Z</time>
        <sat>7</sat>
      </trkpt>
      <trkpt lat="42.428956" lon="-2.815590">
        <ele>567.0</ele>
        <time>2019-08-21T07:32:27Z</time>
        <sat>7</sat>
      </trkpt>
      <trkpt lat="42.428980" lon="-2.815688">
        <ele>567.2</ele>
        <time>2019-08-21T07:32:34Z</time>
        <sat>7</sat>
      </trkpt>
      <trkpt lat="42.429026" lon="-2.815758">
        <ele>567.4</ele>
        <time>2019-08-21T07:32:42Z</time>
        <sat>7</sat>
      </trkpt>
      <trkpt lat="42.429077" lon="-2.815902">
        <ele>567.6</ele>
        <time>2019-08-21T07:32:56Z</time>
        <sat>7</sat>
      </trkpt>
      <trkpt lat="42.429098" lon="-2.816016">
        <ele>568.2</ele>
        <time>2019-08-21T07:33:41Z</time>
        <sat>7</sat>
      </trkpt>
      <trkpt lat="42.429152" lon="-2.816167">
        <ele>568.2</ele>
        <time>2019-08-21T07:33:53Z</time>
        <sat>8</sat>
      </trkpt>
      <trkpt lat="42.429180" lon="-2.816284">
        <ele>568.3</ele>
        <time>2019-08-21T07:34:01Z</time>
        <sat>8</sat>
      </trkpt>
      <trkpt lat="42.429240" lon="-2.816490">
        <ele>568.5</ele>
        <time>2019-08-21T07:34:14Z</time>
        <sat>8</sat>
      </trkpt>
      <trkpt lat="42.429261" lon="-2.816538">
        <ele>568.6</ele>
        <time>2019-08-21T07:34:17Z</time>
        <sat>8</sat>
      </trkpt>
      <trkpt lat="42.429294" lon="-2.816663">
        <ele>568.9</ele>
        <time>2019-08-21T07:34:24Z</time>
        <sat>8</sat>
      </trkpt>
      <trkpt lat="42.429349" lon="-2.816806">
        <ele>569.4</ele>
        <time>2019-08-21T07:34:33Z</time>
        <sat>8</sat>
      </trkpt>
      <trkpt lat="42.429416" lon="-2.817032">
        <ele>567.9</ele>
        <time>2019-08-21T07:34:46Z</time>
        <sat>8</sat>
      </trkpt>
      <trkpt lat="42.429487" lon="-2.817222">
        <ele>569.1</ele>
        <time>2019-08-21T07:34:58Z</time>
        <sat>8</sat>
      </trkpt>
      <trkpt lat="42.429530" lon="-2.817379">
        <ele>570.6</ele>
        <time>2019-08-21T07:35:07Z</time>
        <sat>8</sat>
      </trkpt>
      <trkpt lat="42.429577" lon="-2.817481">
        <ele>571.4</ele>
        <time>2019-08-21T07:35:14Z</time>
        <sat>8</sat>
      </trkpt>
      <trkpt lat="42.429625" lon="-2.817546">
        <ele>571.9</ele>
        <time>2019-08-21T07:35:19Z</time>
        <sat>8</sat>
      </trkpt>
      <trkpt lat="42.429646" lon="-2.817588">
        <ele>572.1</ele>
        <time>2019-08-21T07:35:22Z</time>
        <sat>8</sat>
      </trkpt>
      <trkpt lat="42.429702" lon="-2.817656">
        <ele>572.6</ele>
        <time>2019-08-21T07:35:28Z</time>
        <sat>8</sat>
      </trkpt>
      <trkpt lat="42.429722" lon="-2.817725">
        <ele>572.9</ele>
        <time>2019-08-21T07:35:32Z</time>
        <sat>8</sat>
      </trkpt>
      <trkpt lat="42.429763" lon="-2.817798">
        <ele>573.2</ele>
        <time>2019-08-21T07:35:37Z</time>
        <sat>8</sat>
      </trkpt>
      <trkpt lat="42.429806" lon="-2.817894">
        <ele>573.1</ele>
        <time>2019-08-21T07:35:44Z</time>
        <sat>8</sat>
      </trkpt>
      <trkpt lat="42.429883" lon="-2.817996">
        <ele>574.3</ele>
        <time>2019-08-21T07:35:52Z</time>
        <sat>8</sat>
      </trkpt>
      <trkpt lat="42.429928" lon="-2.818042">
        <ele>574.6</ele>
        <time>2019-08-21T07:35:56Z</time>
        <sat>8</sat>
      </trkpt>
      <trkpt lat="42.429988" lon="-2.818121">
        <ele>574.7</ele>
        <time>2019-08-21T07:36:02Z</time>
        <sat>8</sat>
      </trkpt>
      <trkpt lat="42.430100" lon="-2.818260">
        <ele>575.1</ele>
        <time>2019-08-21T07:36:13Z</time>
        <sat>8</sat>
      </trkpt>
      <trkpt lat="42.430226" lon="-2.818411">
        <ele>575.5</ele>
        <time>2019-08-21T07:36:26Z</time>
        <sat>8</sat>
      </trkpt>
      <trkpt lat="42.430274" lon="-2.818485">
        <ele>575.6</ele>
        <time>2019-08-21T07:36:32Z</time>
        <sat>8</sat>
      </trkpt>
      <trkpt lat="42.430311" lon="-2.818515">
        <ele>575.7</ele>
        <time>2019-08-21T07:36:37Z</time>
        <sat>8</sat>
      </trkpt>
      <trkpt lat="42.430311" lon="-2.818496">
        <ele>575.7</ele>
        <time>2019-08-21T07:36:46Z</time>
        <sat>7</sat>
      </trkpt>
      <trkpt lat="42.430416" lon="-2.818630">
        <ele>575.2</ele>
        <time>2019-08-21T07:37:13Z</time>
        <sat>8</sat>
      </trkpt>
      <trkpt lat="42.430452" lon="-2.818661">
        <ele>575.0</ele>
        <time>2019-08-21T07:37:16Z</time>
        <sat>8</sat>
      </trkpt>
      <trkpt lat="42.430588" lon="-2.818787">
        <ele>574.3</ele>
        <time>2019-08-21T07:37:28Z</time>
        <sat>7</sat>
      </trkpt>
      <trkpt lat="42.430735" lon="-2.818891">
        <ele>573.3</ele>
        <time>2019-08-21T07:37:40Z</time>
        <sat>7</sat>
      </trkpt>
      <trkpt lat="42.430776" lon="-2.818936">
        <ele>572.9</ele>
        <time>2019-08-21T07:37:44Z</time>
        <sat>7</sat>
      </trkpt>
      <trkpt lat="42.430823" lon="-2.818976">
        <ele>572.6</ele>
        <time>2019-08-21T07:37:48Z</time>
        <sat>7</sat>
      </trkpt>
      <trkpt lat="42.430874" lon="-2.819010">
        <ele>572.3</ele>
        <time>2019-08-21T07:37:52Z</time>
        <sat>7</sat>
      </trkpt>
      <trkpt lat="42.430976" lon="-2.819106">
        <ele>571.6</ele>
        <time>2019-08-21T07:38:01Z</time>
        <sat>7</sat>
      </trkpt>
      <trkpt lat="42.431131" lon="-2.819220">
        <ele>570.3</ele>
        <time>2019-08-21T07:38:14Z</time>
        <sat>8</sat>
      </trkpt>
      <trkpt lat="42.431242" lon="-2.819311">
        <ele>569.1</ele>
        <time>2019-08-21T07:38:23Z</time>
        <sat>8</sat>
      </trkpt>
      <trkpt lat="42.431325" lon="-2.819385">
        <ele>567.8</ele>
        <time>2019-08-21T07:38:30Z</time>
        <sat>8</sat>
      </trkpt>
      <trkpt lat="42.431441" lon="-2.819520">
        <ele>565.8</ele>
        <time>2019-08-21T07:38:41Z</time>
        <sat>8</sat>
      </trkpt>
      <trkpt lat="42.431523" lon="-2.819638">
        <ele>564.0</ele>
        <time>2019-08-21T07:38:50Z</time>
        <sat>8</sat>
      </trkpt>
      <trkpt lat="42.431544" lon="-2.819663">
        <ele>563.7</ele>
        <time>2019-08-21T07:38:52Z</time>
        <sat>8</sat>
      </trkpt>
      <trkpt lat="42.431664" lon="-2.819833">
        <ele>561.5</ele>
        <time>2019-08-21T07:39:05Z</time>
        <sat>8</sat>
      </trkpt>
      <trkpt lat="42.431715" lon="-2.819918">
        <ele>560.6</ele>
        <time>2019-08-21T07:39:11Z</time>
        <sat>8</sat>
      </trkpt>
      <trkpt lat="42.431778" lon="-2.820003">
        <ele>559.9</ele>
        <time>2019-08-21T07:39:18Z</time>
        <sat>8</sat>
      </trkpt>
      <trkpt lat="42.431829" lon="-2.820038">
        <ele>559.5</ele>
        <time>2019-08-21T07:39:22Z</time>
        <sat>8</sat>
      </trkpt>
      <trkpt lat="42.431887" lon="-2.820088">
        <ele>558.9</ele>
        <time>2019-08-21T07:39:27Z</time>
        <sat>8</sat>
      </trkpt>
      <trkpt lat="42.431923" lon="-2.820140">
        <ele>558.5</ele>
        <time>2019-08-21T07:39:31Z</time>
        <sat>8</sat>
      </trkpt>
      <trkpt lat="42.431980" lon="-2.820199">
        <ele>557.9</ele>
        <time>2019-08-21T07:39:36Z</time>
        <sat>8</sat>
      </trkpt>
      <trkpt lat="42.432043" lon="-2.820323">
        <ele>557.3</ele>
        <time>2019-08-21T07:39:44Z</time>
        <sat>8</sat>
      </trkpt>
      <trkpt lat="42.432142" lon="-2.820465">
        <ele>556.5</ele>
        <time>2019-08-21T07:39:54Z</time>
        <sat>8</sat>
      </trkpt>
      <trkpt lat="42.432197" lon="-2.820571">
        <ele>556.0</ele>
        <time>2019-08-21T07:40:01Z</time>
        <sat>8</sat>
      </trkpt>
      <trkpt lat="42.432283" lon="-2.820721">
        <ele>555.3</ele>
        <time>2019-08-21T07:40:11Z</time>
        <sat>8</sat>
      </trkpt>
      <trkpt lat="42.432361" lon="-2.820873">
        <ele>554.7</ele>
        <time>2019-08-21T07:40:21Z</time>
        <sat>8</sat>
      </trkpt>
      <trkpt lat="42.432419" lon="-2.821013">
        <ele>554.0</ele>
        <time>2019-08-21T07:40:30Z</time>
        <sat>8</sat>
      </trkpt>
      <trkpt lat="42.432457" lon="-2.821070">
        <ele>553.7</ele>
        <time>2019-08-21T07:40:34Z</time>
        <sat>8</sat>
      </trkpt>
      <trkpt lat="42.432484" lon="-2.821123">
        <ele>553.4</ele>
        <time>2019-08-21T07:40:38Z</time>
        <sat>8</sat>
      </trkpt>
      <trkpt lat="42.432538" lon="-2.821147">
        <ele>553.1</ele>
        <time>2019-08-21T07:40:43Z</time>
        <sat>8</sat>
      </trkpt>
      <trkpt lat="42.432583" lon="-2.821105">
        <ele>552.9</ele>
        <time>2019-08-21T07:40:47Z</time>
        <sat>8</sat>
      </trkpt>
      <trkpt lat="42.432644" lon="-2.821063">
        <ele>552.7</ele>
        <time>2019-08-21T07:40:52Z</time>
        <sat>8</sat>
      </trkpt>
      <trkpt lat="42.432757" lon="-2.820999">
        <ele>552.0</ele>
        <time>2019-08-21T07:41:01Z</time>
        <sat>8</sat>
      </trkpt>
      <trkpt lat="42.432872" lon="-2.820937">
        <ele>551.7</ele>
        <time>2019-08-21T07:41:10Z</time>
        <sat>8</sat>
      </trkpt>
      <trkpt lat="42.432943" lon="-2.820879">
        <ele>551.3</ele>
        <time>2019-08-21T07:41:16Z</time>
        <sat>8</sat>
      </trkpt>
      <trkpt lat="42.433098" lon="-2.820784">
        <ele>551.0</ele>
        <time>2019-08-21T07:41:28Z</time>
        <sat>8</sat>
      </trkpt>
      <trkpt lat="42.433147" lon="-2.820743">
        <ele>550.9</ele>
        <time>2019-08-21T07:41:32Z</time>
        <sat>8</sat>
      </trkpt>
      <trkpt lat="42.433228" lon="-2.820725">
        <ele>550.8</ele>
        <time>2019-08-21T07:41:38Z</time>
        <sat>8</sat>
      </trkpt>
      <trkpt lat="42.433309" lon="-2.820795">
        <ele>550.7</ele>
        <time>2019-08-21T07:41:45Z</time>
        <sat>8</sat>
      </trkpt>
      <trkpt lat="42.433324" lon="-2.820867">
        <ele>550.7</ele>
        <time>2019-08-21T07:41:49Z</time>
        <sat>8</sat>
      </trkpt>
      <trkpt lat="42.433334" lon="-2.821004">
        <ele>550.6</ele>
        <time>2019-08-21T07:41:56Z</time>
        <sat>8</sat>
      </trkpt>
      <trkpt lat="42.433356" lon="-2.821131">
        <ele>550.6</ele>
        <time>2019-08-21T07:42:03Z</time>
        <sat>8</sat>
      </trkpt>
      <trkpt lat="42.433366" lon="-2.821262">
        <ele>549.2</ele>
        <time>2019-08-21T07:42:10Z</time>
        <sat>7</sat>
      </trkpt>
      <trkpt lat="42.433394" lon="-2.821390">
        <ele>551.2</ele>
        <time>2019-08-21T07:42:17Z</time>
        <sat>7</sat>
      </trkpt>
      <trkpt lat="42.433397" lon="-2.821458">
        <ele>550.3</ele>
        <time>2019-08-21T07:42:21Z</time>
        <sat>8</sat>
      </trkpt>
      <trkpt lat="42.433407" lon="-2.821542">
        <ele>550.5</ele>
        <time>2019-08-21T07:42:26Z</time>
        <sat>7</sat>
      </trkpt>
      <trkpt lat="42.433430" lon="-2.821658">
        <ele>551.2</ele>
        <time>2019-08-21T07:42:33Z</time>
        <sat>8</sat>
      </trkpt>
      <trkpt lat="42.433436" lon="-2.821745">
        <ele>551.3</ele>
        <time>2019-08-21T07:42:38Z</time>
        <sat>8</sat>
      </trkpt>
      <trkpt lat="42.433456" lon="-2.821843">
        <ele>551.4</ele>
        <time>2019-08-21T07:42:44Z</time>
        <sat>8</sat>
      </trkpt>
      <trkpt lat="42.433485" lon="-2.822047">
        <ele>551.4</ele>
        <time>2019-08-21T07:42:56Z</time>
        <sat>8</sat>
      </trkpt>
      <trkpt lat="42.433495" lon="-2.822154">
        <ele>551.3</ele>
        <time>2019-08-21T07:43:02Z</time>
        <sat>8</sat>
      </trkpt>
      <trkpt lat="42.433526" lon="-2.822307">
        <ele>551.4</ele>
        <time>2019-08-21T07:43:11Z</time>
        <sat>8</sat>
      </trkpt>
      <trkpt lat="42.433534" lon="-2.822400">
        <ele>551.4</ele>
        <time>2019-08-21T07:43:16Z</time>
        <sat>8</sat>
      </trkpt>
      <trkpt lat="42.433563" lon="-2.822523">
        <ele>551.4</ele>
        <time>2019-08-21T07:43:23Z</time>
        <sat>8</sat>
      </trkpt>
      <trkpt lat="42.433572" lon="-2.822613">
        <ele>551.4</ele>
        <time>2019-08-21T07:43:28Z</time>
        <sat>7</sat>
      </trkpt>
      <trkpt lat="42.433596" lon="-2.822735">
        <ele>551.5</ele>
        <time>2019-08-21T07:43:35Z</time>
        <sat>8</sat>
      </trkpt>
      <trkpt lat="42.433599" lon="-2.822786">
        <ele>551.6</ele>
        <time>2019-08-21T07:43:38Z</time>
        <sat>8</sat>
      </trkpt>
      <trkpt lat="42.433622" lon="-2.822942">
        <ele>551.9</ele>
        <time>2019-08-21T07:43:47Z</time>
        <sat>8</sat>
      </trkpt>
      <trkpt lat="42.433630" lon="-2.823045">
        <ele>552.0</ele>
        <time>2019-08-21T07:43:53Z</time>
        <sat>8</sat>
      </trkpt>
      <trkpt lat="42.433644" lon="-2.823128">
        <ele>552.1</ele>
        <time>2019-08-21T07:43:58Z</time>
        <sat>8</sat>
      </trkpt>
      <trkpt lat="42.433667" lon="-2.823366">
        <ele>552.5</ele>
        <time>2019-08-21T07:44:12Z</time>
        <sat>8</sat>
      </trkpt>
      <trkpt lat="42.433679" lon="-2.823526">
        <ele>552.6</ele>
        <time>2019-08-21T07:44:21Z</time>
        <sat>7</sat>
      </trkpt>
      <trkpt lat="42.433681" lon="-2.823640">
        <ele>552.6</ele>
        <time>2019-08-21T07:44:28Z</time>
        <sat>8</sat>
      </trkpt>
      <trkpt lat="42.433687" lon="-2.823814">
        <ele>552.7</ele>
        <time>2019-08-21T07:44:38Z</time>
        <sat>7</sat>
      </trkpt>
      <trkpt lat="42.433706" lon="-2.823973">
        <ele>552.7</ele>
        <time>2019-08-21T07:44:47Z</time>
        <sat>8</sat>
      </trkpt>
      <trkpt lat="42.433707" lon="-2.824100">
        <ele>552.7</ele>
        <time>2019-08-21T07:44:54Z</time>
        <sat>8</sat>
      </trkpt>
      <trkpt lat="42.433723" lon="-2.824174">
        <ele>552.7</ele>
        <time>2019-08-21T07:44:58Z</time>
        <sat>7</sat>
      </trkpt>
      <trkpt lat="42.433737" lon="-2.824370">
        <ele>552.3</ele>
        <time>2019-08-21T07:45:08Z</time>
        <sat>7</sat>
      </trkpt>
      <trkpt lat="42.433766" lon="-2.824622">
        <ele>553.1</ele>
        <time>2019-08-21T07:45:21Z</time>
        <sat>8</sat>
      </trkpt>
      <trkpt lat="42.433767" lon="-2.824756">
        <ele>552.8</ele>
        <time>2019-08-21T07:45:28Z</time>
        <sat>6</sat>
      </trkpt>
      <trkpt lat="42.433780" lon="-2.824846">
        <ele>552.3</ele>
        <time>2019-08-21T07:45:33Z</time>
        <sat>7</sat>
      </trkpt>
      <trkpt lat="42.433782" lon="-2.824945">
        <ele>553.0</ele>
        <time>2019-08-21T07:45:38Z</time>
        <sat>7</sat>
      </trkpt>
      <trkpt lat="42.433806" lon="-2.825156">
        <ele>553.9</ele>
        <time>2019-08-21T07:45:49Z</time>
        <sat>7</sat>
      </trkpt>
      <trkpt lat="42.433825" lon="-2.825227">
        <ele>552.9</ele>
        <time>2019-08-21T07:45:53Z</time>
        <sat>6</sat>
      </trkpt>
      <trkpt lat="42.433827" lon="-2.825300">
        <ele>553.8</ele>
        <time>2019-08-21T07:45:57Z</time>
        <sat>7</sat>
      </trkpt>
      <trkpt lat="42.433843" lon="-2.825483">
        <ele>554.9</ele>
        <time>2019-08-21T07:46:11Z</time>
        <sat>8</sat>
      </trkpt>
      <trkpt lat="42.433855" lon="-2.825518">
        <ele>555.0</ele>
        <time>2019-08-21T07:46:15Z</time>
        <sat>8</sat>
      </trkpt>
      <trkpt lat="42.433856" lon="-2.825519">
        <ele>555.0</ele>
        <time>2019-08-21T07:46:27Z</time>
        <sat>6</sat>
      </trkpt>
      <trkpt lat="42.433855" lon="-2.825607">
        <ele>555.2</ele>
        <time>2019-08-21T07:46:32Z</time>
        <sat>7</sat>
      </trkpt>
      <trkpt lat="42.433862" lon="-2.825703">
        <ele>555.1</ele>
        <time>2019-08-21T07:46:37Z</time>
        <sat>6</sat>
      </trkpt>
      <trkpt lat="42.433856" lon="-2.825782">
        <ele>555.2</ele>
        <time>2019-08-21T07:46:41Z</time>
        <sat>6</sat>
      </trkpt>
      <trkpt lat="42.433866" lon="-2.825918">
        <ele>555.3</ele>
        <time>2019-08-21T07:46:48Z</time>
        <sat>8</sat>
      </trkpt>
      <trkpt lat="42.433879" lon="-2.825976">
        <ele>555.3</ele>
        <time>2019-08-21T07:46:51Z</time>
        <sat>7</sat>
      </trkpt>
      <trkpt lat="42.433893" lon="-2.826203">
        <ele>555.1</ele>
        <time>2019-08-21T07:47:03Z</time>
        <sat>6</sat>
      </trkpt>
      <trkpt lat="42.433904" lon="-2.826297">
        <ele>555.1</ele>
        <time>2019-08-21T07:47:08Z</time>
        <sat>7</sat>
      </trkpt>
      <trkpt lat="42.433915" lon="-2.826513">
        <ele>555.3</ele>
        <time>2019-08-21T07:47:19Z</time>
        <sat>7</sat>
      </trkpt>
      <trkpt lat="42.433927" lon="-2.826586">
        <ele>555.5</ele>
        <time>2019-08-21T07:47:23Z</time>
        <sat>7</sat>
      </trkpt>
      <trkpt lat="42.433926" lon="-2.826739">
        <ele>555.8</ele>
        <time>2019-08-21T07:47:31Z</time>
        <sat>6</sat>
      </trkpt>
      <trkpt lat="42.433943" lon="-2.826888">
        <ele>555.9</ele>
        <time>2019-08-21T07:47:39Z</time>
        <sat>7</sat>
      </trkpt>
      <trkpt lat="42.433956" lon="-2.827105">
        <ele>556.0</ele>
        <time>2019-08-21T07:47:51Z</time>
        <sat>7</sat>
      </trkpt>
      <trkpt lat="42.433969" lon="-2.827192">
        <ele>556.0</ele>
        <time>2019-08-21T07:47:56Z</time>
        <sat>8</sat>
      </trkpt>
      <trkpt lat="42.433975" lon="-2.827378">
        <ele>556.0</ele>
        <time>2019-08-21T07:48:06Z</time>
        <sat>8</sat>
      </trkpt>
      <trkpt lat="42.433996" lon="-2.827507">
        <ele>556.0</ele>
        <time>2019-08-21T07:48:13Z</time>
        <sat>8</sat>
      </trkpt>
      <trkpt lat="42.434007" lon="-2.827657">
        <ele>555.8</ele>
        <time>2019-08-21T07:48:21Z</time>
        <sat>8</sat>
      </trkpt>
      <trkpt lat="42.434023" lon="-2.827768">
        <ele>555.8</ele>
        <time>2019-08-21T07:48:27Z</time>
        <sat>8</sat>
      </trkpt>
      <trkpt lat="42.434027" lon="-2.827841">
        <ele>555.9</ele>
        <time>2019-08-21T07:48:31Z</time>
        <sat>8</sat>
      </trkpt>
      <trkpt lat="42.434057" lon="-2.828022">
        <ele>555.8</ele>
        <time>2019-08-21T07:48:41Z</time>
        <sat>8</sat>
      </trkpt>
      <trkpt lat="42.434067" lon="-2.828153">
        <ele>555.8</ele>
        <time>2019-08-21T07:48:48Z</time>
        <sat>8</sat>
      </trkpt>
      <trkpt lat="42.434107" lon="-2.828391">
        <ele>556.0</ele>
        <time>2019-08-21T07:49:01Z</time>
        <sat>8</sat>
      </trkpt>
      <trkpt lat="42.434113" lon="-2.828465">
        <ele>556.0</ele>
        <time>2019-08-21T07:49:05Z</time>
        <sat>8</sat>
      </trkpt>
      <trkpt lat="42.434142" lon="-2.828614">
        <ele>556.0</ele>
        <time>2019-08-21T07:49:13Z</time>
        <sat>8</sat>
      </trkpt>
      <trkpt lat="42.434150" lon="-2.828766">
        <ele>556.1</ele>
        <time>2019-08-21T07:49:21Z</time>
        <sat>8</sat>
      </trkpt>
      <trkpt lat="42.434158" lon="-2.828822">
        <ele>556.1</ele>
        <time>2019-08-21T07:49:24Z</time>
        <sat>8</sat>
      </trkpt>
      <trkpt lat="42.434152" lon="-2.829047">
        <ele>556.2</ele>
        <time>2019-08-21T07:49:36Z</time>
        <sat>7</sat>
      </trkpt>
      <trkpt lat="42.434159" lon="-2.829195">
        <ele>556.3</ele>
        <time>2019-08-21T07:49:44Z</time>
        <sat>7</sat>
      </trkpt>
      <trkpt lat="42.434146" lon="-2.829329">
        <ele>556.6</ele>
        <time>2019-08-21T07:49:51Z</time>
        <sat>8</sat>
      </trkpt>
      <trkpt lat="42.434147" lon="-2.829436">
        <ele>556.6</ele>
        <time>2019-08-21T07:49:57Z</time>
        <sat>7</sat>
      </trkpt>
      <trkpt lat="42.434134" lon="-2.829550">
        <ele>556.9</ele>
        <time>2019-08-21T07:50:03Z</time>
        <sat>8</sat>
      </trkpt>
      <trkpt lat="42.434134" lon="-2.829682">
        <ele>557.2</ele>
        <time>2019-08-21T07:50:10Z</time>
        <sat>7</sat>
      </trkpt>
      <trkpt lat="42.434125" lon="-2.829796">
        <ele>557.4</ele>
        <time>2019-08-21T07:50:16Z</time>
        <sat>8</sat>
      </trkpt>
      <trkpt lat="42.434111" lon="-2.829850">
        <ele>557.4</ele>
        <time>2019-08-21T07:50:19Z</time>
        <sat>8</sat>
      </trkpt>
      <trkpt lat="42.434112" lon="-2.830019">
        <ele>557.4</ele>
        <time>2019-08-21T07:50:28Z</time>
        <sat>8</sat>
      </trkpt>
      <trkpt lat="42.434110" lon="-2.830117">
        <ele>557.4</ele>
        <time>2019-08-21T07:50:33Z</time>
        <sat>8</sat>
      </trkpt>
      <trkpt lat="42.434126" lon="-2.830348">
        <ele>557.9</ele>
        <time>2019-08-21T07:50:46Z</time>
        <sat>8</sat>
      </trkpt>
      <trkpt lat="42.434148" lon="-2.830465">
        <ele>557.9</ele>
        <time>2019-08-21T07:50:52Z</time>
        <sat>8</sat>
      </trkpt>
      <trkpt lat="42.434153" lon="-2.830578">
        <ele>558.1</ele>
        <time>2019-08-21T07:50:58Z</time>
        <sat>8</sat>
      </trkpt>
      <trkpt lat="42.434166" lon="-2.830693">
        <ele>558.2</ele>
        <time>2019-08-21T07:51:04Z</time>
        <sat>8</sat>
      </trkpt>
      <trkpt lat="42.434193" lon="-2.830818">
        <ele>558.3</ele>
        <time>2019-08-21T07:51:11Z</time>
        <sat>8</sat>
      </trkpt>
      <trkpt lat="42.434205" lon="-2.830931">
        <ele>558.4</ele>
        <time>2019-08-21T07:51:18Z</time>
        <sat>8</sat>
      </trkpt>
      <trkpt lat="42.434236" lon="-2.831078">
        <ele>558.6</ele>
        <time>2019-08-21T07:51:26Z</time>
        <sat>8</sat>
      </trkpt>
      <trkpt lat="42.434239" lon="-2.831168">
        <ele>558.6</ele>
        <time>2019-08-21T07:51:31Z</time>
        <sat>7</sat>
      </trkpt>
      <trkpt lat="42.434247" lon="-2.831431">
        <ele>558.7</ele>
        <time>2019-08-21T07:51:45Z</time>
        <sat>7</sat>
      </trkpt>
      <trkpt lat="42.434240" lon="-2.831510">
        <ele>558.6</ele>
        <time>2019-08-21T07:51:49Z</time>
        <sat>7</sat>
      </trkpt>
      <trkpt lat="42.434255" lon="-2.831772">
        <ele>558.9</ele>
        <time>2019-08-21T07:52:03Z</time>
        <sat>8</sat>
      </trkpt>
      <trkpt lat="42.434247" lon="-2.831849">
        <ele>559.0</ele>
        <time>2019-08-21T07:52:07Z</time>
        <sat>8</sat>
      </trkpt>
      <trkpt lat="42.434248" lon="-2.831959">
        <ele>559.0</ele>
        <time>2019-08-21T07:52:13Z</time>
        <sat>8</sat>
      </trkpt>
      <trkpt lat="42.434229" lon="-2.832093">
        <ele>559.0</ele>
        <time>2019-08-21T07:52:20Z</time>
        <sat>7</sat>
      </trkpt>
      <trkpt lat="42.434233" lon="-2.832240">
        <ele>559.1</ele>
        <time>2019-08-21T07:52:28Z</time>
        <sat>7</sat>
      </trkpt>
      <trkpt lat="42.434219" lon="-2.832387">
        <ele>559.3</ele>
        <time>2019-08-21T07:52:36Z</time>
        <sat>7</sat>
      </trkpt>
      <trkpt lat="42.434222" lon="-2.832460">
        <ele>559.3</ele>
        <time>2019-08-21T07:52:40Z</time>
        <sat>7</sat>
      </trkpt>
      <trkpt lat="42.434202" lon="-2.832591">
        <ele>559.4</ele>
        <time>2019-08-21T07:52:47Z</time>
        <sat>7</sat>
      </trkpt>
      <trkpt lat="42.434191" lon="-2.832722">
        <ele>559.6</ele>
        <time>2019-08-21T07:52:54Z</time>
        <sat>7</sat>
      </trkpt>
      <trkpt lat="42.434172" lon="-2.832810">
        <ele>559.7</ele>
        <time>2019-08-21T07:52:59Z</time>
        <sat>7</sat>
      </trkpt>
      <trkpt lat="42.434117" lon="-2.832979">
        <ele>559.9</ele>
        <time>2019-08-21T07:53:09Z</time>
        <sat>7</sat>
      </trkpt>
      <trkpt lat="42.434053" lon="-2.833080">
        <ele>560.4</ele>
        <time>2019-08-21T07:53:16Z</time>
        <sat>7</sat>
      </trkpt>
      <trkpt lat="42.434029" lon="-2.833143">
        <ele>560.5</ele>
        <time>2019-08-21T07:53:20Z</time>
        <sat>7</sat>
      </trkpt>
      <trkpt lat="42.433960" lon="-2.833271">
        <ele>561.5</ele>
        <time>2019-08-21T07:53:29Z</time>
        <sat>7</sat>
      </trkpt>
      <trkpt lat="42.433920" lon="-2.833318">
        <ele>561.9</ele>
        <time>2019-08-21T07:53:33Z</time>
        <sat>7</sat>
      </trkpt>
      <trkpt lat="42.433880" lon="-2.833399">
        <ele>562.3</ele>
        <time>2019-08-21T07:53:38Z</time>
        <sat>7</sat>
      </trkpt>
      <trkpt lat="42.433779" lon="-2.833572">
        <ele>562.6</ele>
        <time>2019-08-21T07:53:50Z</time>
        <sat>7</sat>
      </trkpt>
      <trkpt lat="42.433732" lon="-2.833668">
        <ele>562.3</ele>
        <time>2019-08-21T07:53:56Z</time>
        <sat>7</sat>
      </trkpt>
      <trkpt lat="42.433657" lon="-2.833793">
        <ele>562.3</ele>
        <time>2019-08-21T07:54:04Z</time>
        <sat>7</sat>
      </trkpt>
      <trkpt lat="42.433627" lon="-2.833877">
        <ele>562.0</ele>
        <time>2019-08-21T07:54:09Z</time>
        <sat>7</sat>
      </trkpt>
      <trkpt lat="42.433618" lon="-2.833943">
        <ele>561.9</ele>
        <time>2019-08-21T07:54:13Z</time>
        <sat>7</sat>
      </trkpt>
      <trkpt lat="42.433601" lon="-2.834015">
        <ele>562.0</ele>
        <time>2019-08-21T07:54:17Z</time>
        <sat>7</sat>
      </trkpt>
      <trkpt lat="42.433597" lon="-2.834139">
        <ele>562.1</ele>
        <time>2019-08-21T07:54:25Z</time>
        <sat>7</sat>
      </trkpt>
      <trkpt lat="42.433584" lon="-2.834257">
        <ele>562.0</ele>
        <time>2019-08-21T07:54:32Z</time>
        <sat>7</sat>
      </trkpt>
      <trkpt lat="42.433588" lon="-2.834399">
        <ele>561.9</ele>
        <time>2019-08-21T07:54:41Z</time>
        <sat>7</sat>
      </trkpt>
      <trkpt lat="42.433573" lon="-2.834519">
        <ele>561.9</ele>
        <time>2019-08-21T07:54:48Z</time>
        <sat>7</sat>
      </trkpt>
      <trkpt lat="42.433577" lon="-2.834661">
        <ele>561.9</ele>
        <time>2019-08-21T07:54:56Z</time>
        <sat>7</sat>
      </trkpt>
      <trkpt lat="42.433562" lon="-2.834833">
        <ele>561.9</ele>
        <time>2019-08-21T07:55:05Z</time>
        <sat>7</sat>
      </trkpt>
      <trkpt lat="42.433567" lon="-2.834962">
        <ele>562.0</ele>
        <time>2019-08-21T07:55:12Z</time>
        <sat>7</sat>
      </trkpt>
      <trkpt lat="42.433560" lon="-2.835126">
        <ele>562.2</ele>
        <time>2019-08-21T07:55:22Z</time>
        <sat>7</sat>
      </trkpt>
      <trkpt lat="42.433553" lon="-2.835197">
        <ele>562.2</ele>
        <time>2019-08-21T07:55:26Z</time>
        <sat>7</sat>
      </trkpt>
      <trkpt lat="42.433556" lon="-2.835291">
        <ele>562.2</ele>
        <time>2019-08-21T07:55:31Z</time>
        <sat>7</sat>
      </trkpt>
      <trkpt lat="42.433547" lon="-2.835430">
        <ele>562.2</ele>
        <time>2019-08-21T07:55:39Z</time>
        <sat>7</sat>
      </trkpt>
      <trkpt lat="42.433544" lon="-2.835699">
        <ele>562.2</ele>
        <time>2019-08-21T07:55:54Z</time>
        <sat>7</sat>
      </trkpt>
      <trkpt lat="42.433546" lon="-2.835730">
        <ele>562.2</ele>
        <time>2019-08-21T07:55:56Z</time>
        <sat>7</sat>
      </trkpt>
      <trkpt lat="42.433541" lon="-2.835945">
        <ele>562.2</ele>
        <time>2019-08-21T07:56:08Z</time>
        <sat>7</sat>
      </trkpt>
      <trkpt lat="42.433536" lon="-2.836016">
        <ele>562.4</ele>
        <time>2019-08-21T07:56:12Z</time>
        <sat>7</sat>
      </trkpt>
      <trkpt lat="42.433538" lon="-2.836127">
        <ele>562.3</ele>
        <time>2019-08-21T07:56:18Z</time>
        <sat>7</sat>
      </trkpt>
      <trkpt lat="42.433549" lon="-2.836214">
        <ele>562.3</ele>
        <time>2019-08-21T07:56:23Z</time>
        <sat>7</sat>
      </trkpt>
      <trkpt lat="42.433549" lon="-2.836317">
        <ele>562.4</ele>
        <time>2019-08-21T07:56:29Z</time>
        <sat>7</sat>
      </trkpt>
      <trkpt lat="42.433562" lon="-2.836426">
        <ele>562.4</ele>
        <time>2019-08-21T07:56:35Z</time>
        <sat>7</sat>
      </trkpt>
      <trkpt lat="42.433556" lon="-2.836500">
        <ele>562.4</ele>
        <time>2019-08-21T07:56:39Z</time>
        <sat>7</sat>
      </trkpt>
      <trkpt lat="42.433558" lon="-2.836571">
        <ele>562.6</ele>
        <time>2019-08-21T07:56:43Z</time>
        <sat>7</sat>
      </trkpt>
      <trkpt lat="42.433572" lon="-2.836659">
        <ele>562.7</ele>
        <time>2019-08-21T07:56:48Z</time>
        <sat>7</sat>
      </trkpt>
      <trkpt lat="42.433571" lon="-2.836811">
        <ele>562.7</ele>
        <time>2019-08-21T07:56:56Z</time>
        <sat>7</sat>
      </trkpt>
      <trkpt lat="42.433580" lon="-2.836914">
        <ele>562.8</ele>
        <time>2019-08-21T07:57:02Z</time>
        <sat>7</sat>
      </trkpt>
      <trkpt lat="42.433586" lon="-2.837077">
        <ele>562.9</ele>
        <time>2019-08-21T07:57:11Z</time>
        <sat>7</sat>
      </trkpt>
      <trkpt lat="42.433599" lon="-2.837206">
        <ele>562.9</ele>
        <time>2019-08-21T07:57:18Z</time>
        <sat>7</sat>
      </trkpt>
      <trkpt lat="42.433594" lon="-2.837369">
        <ele>562.4</ele>
        <time>2019-08-21T07:57:27Z</time>
        <sat>7</sat>
      </trkpt>
      <trkpt lat="42.433605" lon="-2.837498">
        <ele>563.5</ele>
        <time>2019-08-21T07:57:34Z</time>
        <sat>6</sat>
      </trkpt>
      <trkpt lat="42.433604" lon="-2.837625">
        <ele>563.5</ele>
        <time>2019-08-21T07:57:41Z</time>
        <sat>7</sat>
      </trkpt>
      <trkpt lat="42.433608" lon="-2.837842">
        <ele>563.7</ele>
        <time>2019-08-21T07:57:53Z</time>
        <sat>7</sat>
      </trkpt>
      <trkpt lat="42.433618" lon="-2.837908">
        <ele>563.6</ele>
        <time>2019-08-21T07:57:57Z</time>
        <sat>7</sat>
      </trkpt>
      <trkpt lat="42.433619" lon="-2.838096">
        <ele>563.7</ele>
        <time>2019-08-21T07:58:07Z</time>
        <sat>7</sat>
      </trkpt>
      <trkpt lat="42.433635" lon="-2.838316">
        <ele>564.0</ele>
        <time>2019-08-21T07:58:19Z</time>
        <sat>7</sat>
      </trkpt>
      <trkpt lat="42.433652" lon="-2.838478">
        <ele>564.1</ele>
        <time>2019-08-21T07:58:28Z</time>
        <sat>7</sat>
      </trkpt>
      <trkpt lat="42.433656" lon="-2.838737">
        <ele>564.3</ele>
        <time>2019-08-21T07:58:41Z</time>
        <sat>6</sat>
      </trkpt>
      <trkpt lat="42.433669" lon="-2.838834">
        <ele>564.6</ele>
        <time>2019-08-21T07:58:46Z</time>
        <sat>7</sat>
      </trkpt>
      <trkpt lat="42.433679" lon="-2.838870">
        <ele>564.7</ele>
        <time>2019-08-21T07:58:48Z</time>
        <sat>7</sat>
      </trkpt>
      <trkpt lat="42.433698" lon="-2.839002">
        <ele>565.1</ele>
        <time>2019-08-21T07:58:55Z</time>
        <sat>7</sat>
      </trkpt>
      <trkpt lat="42.433730" lon="-2.839136">
        <ele>565.2</ele>
        <time>2019-08-21T07:59:02Z</time>
        <sat>7</sat>
      </trkpt>
      <trkpt lat="42.433771" lon="-2.839236">
        <ele>565.3</ele>
        <time>2019-08-21T07:59:08Z</time>
        <sat>7</sat>
      </trkpt>
      <trkpt lat="42.433786" lon="-2.839287">
        <ele>565.3</ele>
        <time>2019-08-21T07:59:11Z</time>
        <sat>7</sat>
      </trkpt>
      <trkpt lat="42.433836" lon="-2.839431">
        <ele>565.7</ele>
        <time>2019-08-21T07:59:19Z</time>
        <sat>7</sat>
      </trkpt>
      <trkpt lat="42.433878" lon="-2.839515">
        <ele>565.8</ele>
        <time>2019-08-21T07:59:24Z</time>
        <sat>7</sat>
      </trkpt>
      <trkpt lat="42.433903" lon="-2.839580">
        <ele>565.8</ele>
        <time>2019-08-21T07:59:28Z</time>
        <sat>7</sat>
      </trkpt>
      <trkpt lat="42.433969" lon="-2.839779">
        <ele>566.1</ele>
        <time>2019-08-21T07:59:39Z</time>
        <sat>7</sat>
      </trkpt>
      <trkpt lat="42.433993" lon="-2.839830">
        <ele>566.1</ele>
        <time>2019-08-21T07:59:42Z</time>
        <sat>7</sat>
      </trkpt>
      <trkpt lat="42.434021" lon="-2.839939">
        <ele>566.2</ele>
        <time>2019-08-21T07:59:48Z</time>
        <sat>7</sat>
      </trkpt>
      <trkpt lat="42.434042" lon="-2.839994">
        <ele>566.3</ele>
        <time>2019-08-21T07:59:51Z</time>
        <sat>7</sat>
      </trkpt>
      <trkpt lat="42.434064" lon="-2.840149">
        <ele>566.4</ele>
        <time>2019-08-21T07:59:59Z</time>
        <sat>6</sat>
      </trkpt>
      <trkpt lat="42.434052" lon="-2.840279">
        <ele>563.6</ele>
        <time>2019-08-21T08:00:06Z</time>
        <sat>6</sat>
      </trkpt>
      <trkpt lat="42.434029" lon="-2.840410">
        <ele>564.4</ele>
        <time>2019-08-21T08:00:13Z</time>
        <sat>7</sat>
      </trkpt>
      <trkpt lat="42.434000" lon="-2.840630">
        <ele>566.5</ele>
        <time>2019-08-21T08:00:25Z</time>
        <sat>6</sat>
      </trkpt>
      <trkpt lat="42.433986" lon="-2.840802">
        <ele>566.9</ele>
        <time>2019-08-21T08:00:34Z</time>
        <sat>6</sat>
      </trkpt>
      <trkpt lat="42.433986" lon="-2.841009">
        <ele>568.8</ele>
        <time>2019-08-21T08:00:45Z</time>
        <sat>7</sat>
      </trkpt>
      <trkpt lat="42.433978" lon="-2.841127">
        <ele>568.4</ele>
        <time>2019-08-21T08:00:51Z</time>
        <sat>7</sat>
      </trkpt>
      <trkpt lat="42.433958" lon="-2.841177">
        <ele>568.1</ele>
        <time>2019-08-21T08:00:54Z</time>
        <sat>7</sat>
      </trkpt>
      <trkpt lat="42.433896" lon="-2.841230">
        <ele>567.8</ele>
        <time>2019-08-21T08:00:59Z</time>
        <sat>7</sat>
      </trkpt>
      <trkpt lat="42.433730" lon="-2.841315">
        <ele>567.8</ele>
        <time>2019-08-21T08:01:12Z</time>
        <sat>7</sat>
      </trkpt>
      <trkpt lat="42.433696" lon="-2.841346">
        <ele>567.9</ele>
        <time>2019-08-21T08:01:15Z</time>
        <sat>7</sat>
      </trkpt>
      <trkpt lat="42.433598" lon="-2.841549">
        <ele>568.0</ele>
        <time>2019-08-21T08:01:28Z</time>
        <sat>8</sat>
      </trkpt>
      <trkpt lat="42.433556" lon="-2.841687">
        <ele>568.0</ele>
        <time>2019-08-21T08:01:36Z</time>
        <sat>8</sat>
      </trkpt>
      <trkpt lat="42.433512" lon="-2.841786">
        <ele>568.1</ele>
        <time>2019-08-21T08:01:42Z</time>
        <sat>8</sat>
      </trkpt>
      <trkpt lat="42.433476" lon="-2.841910">
        <ele>568.3</ele>
        <time>2019-08-21T08:01:49Z</time>
        <sat>8</sat>
      </trkpt>
      <trkpt lat="42.433447" lon="-2.841975">
        <ele>568.4</ele>
        <time>2019-08-21T08:01:53Z</time>
        <sat>8</sat>
      </trkpt>
      <trkpt lat="42.433418" lon="-2.842060">
        <ele>568.5</ele>
        <time>2019-08-21T08:01:58Z</time>
        <sat>8</sat>
      </trkpt>
      <trkpt lat="42.433391" lon="-2.842182">
        <ele>568.5</ele>
        <time>2019-08-21T08:02:05Z</time>
        <sat>8</sat>
      </trkpt>
      <trkpt lat="42.433372" lon="-2.842233">
        <ele>568.6</ele>
        <time>2019-08-21T08:02:08Z</time>
        <sat>8</sat>
      </trkpt>
      <trkpt lat="42.433350" lon="-2.842323">
        <ele>568.7</ele>
        <time>2019-08-21T08:02:13Z</time>
        <sat>8</sat>
      </trkpt>
      <trkpt lat="42.433329" lon="-2.842470">
        <ele>568.8</ele>
        <time>2019-08-21T08:02:21Z</time>
        <sat>8</sat>
      </trkpt>
      <trkpt lat="42.433297" lon="-2.842597">
        <ele>569.0</ele>
        <time>2019-08-21T08:02:28Z</time>
        <sat>8</sat>
      </trkpt>
      <trkpt lat="42.433285" lon="-2.842710">
        <ele>568.9</ele>
        <time>2019-08-21T08:02:34Z</time>
        <sat>8</sat>
      </trkpt>
      <trkpt lat="42.433251" lon="-2.842876">
        <ele>569.4</ele>
        <time>2019-08-21T08:02:44Z</time>
        <sat>8</sat>
      </trkpt>
      <trkpt lat="42.433242" lon="-2.842948">
        <ele>569.2</ele>
        <time>2019-08-21T08:02:48Z</time>
        <sat>8</sat>
      </trkpt>
      <trkpt lat="42.433203" lon="-2.843190">
        <ele>568.2</ele>
        <time>2019-08-21T08:03:02Z</time>
        <sat>7</sat>
      </trkpt>
      <trkpt lat="42.433153" lon="-2.843376">
        <ele>569.0</ele>
        <time>2019-08-21T08:03:12Z</time>
        <sat>8</sat>
      </trkpt>
      <trkpt lat="42.433142" lon="-2.843450">
        <ele>569.2</ele>
        <time>2019-08-21T08:03:16Z</time>
        <sat>8</sat>
      </trkpt>
      <trkpt lat="42.433090" lon="-2.843649">
        <ele>569.6</ele>
        <time>2019-08-21T08:03:27Z</time>
        <sat>8</sat>
      </trkpt>
      <trkpt lat="42.433079" lon="-2.843726">
        <ele>569.7</ele>
        <time>2019-08-21T08:03:31Z</time>
        <sat>8</sat>
      </trkpt>
      <trkpt lat="42.433045" lon="-2.843850">
        <ele>570.0</ele>
        <time>2019-08-21T08:03:38Z</time>
        <sat>8</sat>
      </trkpt>
      <trkpt lat="42.433010" lon="-2.844072">
        <ele>570.1</ele>
        <time>2019-08-21T08:03:50Z</time>
        <sat>7</sat>
      </trkpt>
      <trkpt lat="42.432971" lon="-2.844217">
        <ele>570.3</ele>
        <time>2019-08-21T08:03:58Z</time>
        <sat>8</sat>
      </trkpt>
      <trkpt lat="42.432955" lon="-2.844329">
        <ele>570.2</ele>
        <time>2019-08-21T08:04:04Z</time>
        <sat>7</sat>
      </trkpt>
      <trkpt lat="42.432933" lon="-2.844401">
        <ele>570.5</ele>
        <time>2019-08-21T08:04:08Z</time>
        <sat>7</sat>
      </trkpt>
      <trkpt lat="42.432917" lon="-2.844475">
        <ele>570.7</ele>
        <time>2019-08-21T08:04:12Z</time>
        <sat>8</sat>
      </trkpt>
      <trkpt lat="42.432907" lon="-2.844568">
        <ele>570.9</ele>
        <time>2019-08-21T08:04:17Z</time>
        <sat>8</sat>
      </trkpt>
      <trkpt lat="42.432876" lon="-2.844690">
        <ele>571.0</ele>
        <time>2019-08-21T08:04:24Z</time>
        <sat>8</sat>
      </trkpt>
      <trkpt lat="42.432840" lon="-2.844891">
        <ele>571.3</ele>
        <time>2019-08-21T08:04:35Z</time>
        <sat>8</sat>
      </trkpt>
      <trkpt lat="42.432809" lon="-2.845020">
        <ele>571.5</ele>
        <time>2019-08-21T08:04:42Z</time>
        <sat>7</sat>
      </trkpt>
      <trkpt lat="42.432794" lon="-2.845131">
        <ele>571.5</ele>
        <time>2019-08-21T08:04:48Z</time>
        <sat>8</sat>
      </trkpt>
      <trkpt lat="42.432764" lon="-2.845240">
        <ele>571.9</ele>
        <time>2019-08-21T08:04:54Z</time>
        <sat>8</sat>
      </trkpt>
      <trkpt lat="42.432748" lon="-2.845371">
        <ele>572.2</ele>
        <time>2019-08-21T08:05:01Z</time>
        <sat>8</sat>
      </trkpt>
      <trkpt lat="42.432735" lon="-2.845424">
        <ele>572.2</ele>
        <time>2019-08-21T08:05:04Z</time>
        <sat>7</sat>
      </trkpt>
      <trkpt lat="42.432715" lon="-2.845539">
        <ele>572.5</ele>
        <time>2019-08-21T08:05:10Z</time>
        <sat>8</sat>
      </trkpt>
      <trkpt lat="42.432703" lon="-2.845652">
        <ele>572.6</ele>
        <time>2019-08-21T08:05:16Z</time>
        <sat>7</sat>
      </trkpt>
      <trkpt lat="42.432678" lon="-2.845798">
        <ele>572.9</ele>
        <time>2019-08-21T08:05:24Z</time>
        <sat>8</sat>
      </trkpt>
      <trkpt lat="42.432676" lon="-2.845887">
        <ele>573.1</ele>
        <time>2019-08-21T08:05:29Z</time>
        <sat>7</sat>
      </trkpt>
      <trkpt lat="42.432669" lon="-2.846045">
        <ele>573.4</ele>
        <time>2019-08-21T08:05:37Z</time>
        <sat>7</sat>
      </trkpt>
      <trkpt lat="42.432665" lon="-2.846079">
        <ele>573.4</ele>
        <time>2019-08-21T08:05:39Z</time>
        <sat>7</sat>
      </trkpt>
      <trkpt lat="42.432685" lon="-2.846200">
        <ele>573.8</ele>
        <time>2019-08-21T08:05:46Z</time>
        <sat>7</sat>
      </trkpt>
      <trkpt lat="42.432705" lon="-2.846431">
        <ele>574.0</ele>
        <time>2019-08-21T08:05:58Z</time>
        <sat>7</sat>
      </trkpt>
      <trkpt lat="42.432721" lon="-2.846501">
        <ele>574.0</ele>
        <time>2019-08-21T08:06:02Z</time>
        <sat>7</sat>
      </trkpt>
      <trkpt lat="42.432738" lon="-2.846649">
        <ele>574.0</ele>
        <time>2019-08-21T08:06:10Z</time>
        <sat>7</sat>
      </trkpt>
      <trkpt lat="42.432772" lon="-2.846773">
        <ele>574.2</ele>
        <time>2019-08-21T08:06:17Z</time>
        <sat>7</sat>
      </trkpt>
      <trkpt lat="42.432803" lon="-2.847016">
        <ele>574.6</ele>
        <time>2019-08-21T08:06:30Z</time>
        <sat>7</sat>
      </trkpt>
      <trkpt lat="42.432822" lon="-2.847087">
        <ele>574.7</ele>
        <time>2019-08-21T08:06:34Z</time>
        <sat>7</sat>
      </trkpt>
      <trkpt lat="42.432850" lon="-2.847246">
        <ele>574.9</ele>
        <time>2019-08-21T08:06:42Z</time>
        <sat>8</sat>
      </trkpt>
      <trkpt lat="42.432894" lon="-2.847421">
        <ele>575.2</ele>
        <time>2019-08-21T08:06:52Z</time>
        <sat>7</sat>
      </trkpt>
      <trkpt lat="42.432941" lon="-2.847635">
        <ele>575.5</ele>
        <time>2019-08-21T08:07:03Z</time>
        <sat>8</sat>
      </trkpt>
      <trkpt lat="42.432950" lon="-2.847684">
        <ele>575.6</ele>
        <time>2019-08-21T08:07:06Z</time>
        <sat>7</sat>
      </trkpt>
      <trkpt lat="42.432966" lon="-2.847877">
        <ele>575.8</ele>
        <time>2019-08-21T08:07:16Z</time>
        <sat>7</sat>
      </trkpt>
      <trkpt lat="42.432981" lon="-2.847968">
        <ele>575.8</ele>
        <time>2019-08-21T08:07:21Z</time>
        <sat>7</sat>
      </trkpt>
      <trkpt lat="42.432984" lon="-2.848158">
        <ele>576.0</ele>
        <time>2019-08-21T08:07:31Z</time>
        <sat>7</sat>
      </trkpt>
      <trkpt lat="42.432997" lon="-2.848275">
        <ele>575.9</ele>
        <time>2019-08-21T08:07:38Z</time>
        <sat>7</sat>
      </trkpt>
      <trkpt lat="42.433008" lon="-2.848320">
        <ele>576.1</ele>
        <time>2019-08-21T08:07:55Z</time>
        <sat>8</sat>
      </trkpt>
      <trkpt lat="42.432977" lon="-2.848399">
        <ele>576.2</ele>
        <time>2019-08-21T08:08:00Z</time>
        <sat>7</sat>
      </trkpt>
      <trkpt lat="42.432924" lon="-2.848517">
        <ele>576.3</ele>
        <time>2019-08-21T08:08:07Z</time>
        <sat>8</sat>
      </trkpt>
      <trkpt lat="42.432800" lon="-2.848742">
        <ele>576.3</ele>
        <time>2019-08-21T08:08:21Z</time>
        <sat>8</sat>
      </trkpt>
      <trkpt lat="42.432664" lon="-2.848902">
        <ele>576.6</ele>
        <time>2019-08-21T08:08:33Z</time>
        <sat>8</sat>
      </trkpt>
      <trkpt lat="42.432634" lon="-2.848965">
        <ele>576.8</ele>
        <time>2019-08-21T08:08:37Z</time>
        <sat>8</sat>
      </trkpt>
      <trkpt lat="42.432656" lon="-2.848960">
        <ele>576.9</ele>
        <time>2019-08-21T08:08:50Z</time>
        <sat>8</sat>
      </trkpt>
      <trkpt lat="42.432620" lon="-2.848985">
        <ele>576.8</ele>
        <time>2019-08-21T08:08:53Z</time>
        <sat>8</sat>
      </trkpt>
      <trkpt lat="42.432521" lon="-2.849106">
        <ele>576.9</ele>
        <time>2019-08-21T08:09:02Z</time>
        <sat>8</sat>
      </trkpt>
      <trkpt lat="42.432469" lon="-2.849148">
        <ele>576.9</ele>
        <time>2019-08-21T08:09:06Z</time>
        <sat>8</sat>
      </trkpt>
      <trkpt lat="42.432391" lon="-2.849325">
        <ele>577.5</ele>
        <time>2019-08-21T08:09:29Z</time>
        <sat>8</sat>
      </trkpt>
      <trkpt lat="42.432331" lon="-2.849499">
        <ele>577.3</ele>
        <time>2019-08-21T08:09:41Z</time>
        <sat>8</sat>
      </trkpt>
      <trkpt lat="42.432298" lon="-2.849642">
        <ele>577.3</ele>
        <time>2019-08-21T08:09:49Z</time>
        <sat>7</sat>
      </trkpt>
      <trkpt lat="42.432278" lon="-2.849674">
        <ele>577.5</ele>
        <time>2019-08-21T08:09:59Z</time>
        <sat>8</sat>
      </trkpt>
      <trkpt lat="42.432275" lon="-2.849688">
        <ele>577.3</ele>
        <time>2019-08-21T08:10:16Z</time>
        <sat>8</sat>
      </trkpt>
      <trkpt lat="42.432232" lon="-2.849810">
        <ele>577.2</ele>
        <time>2019-08-21T08:10:23Z</time>
        <sat>7</sat>
      </trkpt>
      <trkpt lat="42.432213" lon="-2.849907">
        <ele>577.5</ele>
        <time>2019-08-21T08:10:28Z</time>
        <sat>8</sat>
      </trkpt>
      <trkpt lat="42.432192" lon="-2.849976">
        <ele>577.4</ele>
        <time>2019-08-21T08:10:32Z</time>
        <sat>8</sat>
      </trkpt>
      <trkpt lat="42.432146" lon="-2.850080">
        <ele>577.5</ele>
        <time>2019-08-21T08:10:39Z</time>
        <sat>7</sat>
      </trkpt>
      <trkpt lat="42.432099" lon="-2.850246">
        <ele>577.7</ele>
        <time>2019-08-21T08:10:48Z</time>
        <sat>8</sat>
      </trkpt>
      <trkpt lat="42.432043" lon="-2.850396">
        <ele>577.8</ele>
        <time>2019-08-21T08:10:57Z</time>
        <sat>8</sat>
      </trkpt>
      <trkpt lat="42.431982" lon="-2.850606">
        <ele>578.0</ele>
        <time>2019-08-21T08:11:09Z</time>
        <sat>7</sat>
      </trkpt>
      <trkpt lat="42.431963" lon="-2.850680">
        <ele>577.6</ele>
        <time>2019-08-21T08:11:13Z</time>
        <sat>7</sat>
      </trkpt>
      <trkpt lat="42.431912" lon="-2.850865">
        <ele>578.7</ele>
        <time>2019-08-21T08:11:24Z</time>
        <sat>8</sat>
      </trkpt>
      <trkpt lat="42.431886" lon="-2.850980">
        <ele>578.5</ele>
        <time>2019-08-21T08:11:31Z</time>
        <sat>8</sat>
      </trkpt>
      <trkpt lat="42.431824" lon="-2.851191">
        <ele>578.2</ele>
        <time>2019-08-21T08:11:43Z</time>
        <sat>7</sat>
      </trkpt>
      <trkpt lat="42.431791" lon="-2.851292">
        <ele>578.9</ele>
        <time>2019-08-21T08:11:49Z</time>
        <sat>7</sat>
      </trkpt>
      <trkpt lat="42.431779" lon="-2.851359">
        <ele>579.3</ele>
        <time>2019-08-21T08:11:53Z</time>
        <sat>7</sat>
      </trkpt>
      <trkpt lat="42.431751" lon="-2.851445">
        <ele>580.5</ele>
        <time>2019-08-21T08:12:31Z</time>
        <sat>6</sat>
      </trkpt>
      <trkpt lat="42.431725" lon="-2.851535">
        <ele>580.5</ele>
        <time>2019-08-21T08:12:36Z</time>
        <sat>8</sat>
      </trkpt>
      <trkpt lat="42.431712" lon="-2.851627">
        <ele>580.4</ele>
        <time>2019-08-21T08:12:41Z</time>
        <sat>7</sat>
      </trkpt>
      <trkpt lat="42.431653" lon="-2.851803">
        <ele>580.5</ele>
        <time>2019-08-21T08:12:51Z</time>
        <sat>7</sat>
      </trkpt>
      <trkpt lat="42.431622" lon="-2.851944">
        <ele>580.7</ele>
        <time>2019-08-21T08:12:59Z</time>
        <sat>7</sat>
      </trkpt>
      <trkpt lat="42.431592" lon="-2.852012">
        <ele>580.8</ele>
        <time>2019-08-21T08:13:03Z</time>
        <sat>7</sat>
      </trkpt>
      <trkpt lat="42.431567" lon="-2.852142">
        <ele>581.0</ele>
        <time>2019-08-21T08:13:10Z</time>
        <sat>7</sat>
      </trkpt>
      <trkpt lat="42.431514" lon="-2.852304">
        <ele>581.2</ele>
        <time>2019-08-21T08:13:19Z</time>
        <sat>7</sat>
      </trkpt>
      <trkpt lat="42.431503" lon="-2.852391">
        <ele>581.3</ele>
        <time>2019-08-21T08:13:24Z</time>
        <sat>7</sat>
      </trkpt>
      <trkpt lat="42.431441" lon="-2.852609">
        <ele>581.6</ele>
        <time>2019-08-21T08:13:36Z</time>
        <sat>7</sat>
      </trkpt>
      <trkpt lat="42.431428" lon="-2.852678">
        <ele>581.6</ele>
        <time>2019-08-21T08:13:40Z</time>
        <sat>7</sat>
      </trkpt>
      <trkpt lat="42.431379" lon="-2.852823">
        <ele>581.8</ele>
        <time>2019-08-21T08:13:48Z</time>
        <sat>7</sat>
      </trkpt>
      <trkpt lat="42.431357" lon="-2.852928">
        <ele>582.0</ele>
        <time>2019-08-21T08:13:54Z</time>
        <sat>8</sat>
      </trkpt>
      <trkpt lat="42.431274" lon="-2.853156">
        <ele>582.4</ele>
        <time>2019-08-21T08:14:07Z</time>
        <sat>8</sat>
      </trkpt>
      <trkpt lat="42.431217" lon="-2.853270">
        <ele>582.7</ele>
        <time>2019-08-21T08:14:24Z</time>
        <sat>7</sat>
      </trkpt>
      <trkpt lat="42.431179" lon="-2.853374">
        <ele>583.2</ele>
        <time>2019-08-21T08:14:30Z</time>
        <sat>8</sat>
      </trkpt>
      <trkpt lat="42.431102" lon="-2.853514">
        <ele>583.3</ele>
        <time>2019-08-21T08:14:39Z</time>
        <sat>7</sat>
      </trkpt>
      <trkpt lat="42.431057" lon="-2.853592">
        <ele>583.3</ele>
        <time>2019-08-21T08:14:44Z</time>
        <sat>8</sat>
      </trkpt>
      <trkpt lat="42.431014" lon="-2.853693">
        <ele>583.3</ele>
        <time>2019-08-21T08:14:50Z</time>
        <sat>8</sat>
      </trkpt>
      <trkpt lat="42.430922" lon="-2.853848">
        <ele>583.4</ele>
        <time>2019-08-21T08:15:00Z</time>
        <sat>8</sat>
      </trkpt>
      <trkpt lat="42.430894" lon="-2.853914">
        <ele>583.4</ele>
        <time>2019-08-21T08:15:04Z</time>
        <sat>8</sat>
      </trkpt>
      <trkpt lat="42.430800" lon="-2.854078">
        <ele>583.6</ele>
        <time>2019-08-21T08:15:15Z</time>
        <sat>8</sat>
      </trkpt>
      <trkpt lat="42.430765" lon="-2.854159">
        <ele>583.7</ele>
        <time>2019-08-21T08:15:20Z</time>
        <sat>8</sat>
      </trkpt>
      <trkpt lat="42.430693" lon="-2.854278">
        <ele>580.9</ele>
        <time>2019-08-21T08:15:28Z</time>
        <sat>8</sat>
      </trkpt>
      <trkpt lat="42.430653" lon="-2.854376">
        <ele>583.0</ele>
        <time>2019-08-21T08:15:34Z</time>
        <sat>8</sat>
      </trkpt>
      <trkpt lat="42.430588" lon="-2.854488">
        <ele>584.0</ele>
        <time>2019-08-21T08:15:42Z</time>
        <sat>7</sat>
      </trkpt>
      <trkpt lat="42.430585" lon="-2.854520">
        <ele>584.1</ele>
        <time>2019-08-21T08:15:55Z</time>
        <sat>7</sat>
      </trkpt>
      <trkpt lat="42.430495" lon="-2.854673">
        <ele>584.3</ele>
        <time>2019-08-21T08:16:05Z</time>
        <sat>8</sat>
      </trkpt>
      <trkpt lat="42.430453" lon="-2.854776">
        <ele>584.4</ele>
        <time>2019-08-21T08:16:11Z</time>
        <sat>8</sat>
      </trkpt>
      <trkpt lat="42.430384" lon="-2.854895">
        <ele>584.7</ele>
        <time>2019-08-21T08:16:19Z</time>
        <sat>8</sat>
      </trkpt>
      <trkpt lat="42.430357" lon="-2.854975">
        <ele>584.8</ele>
        <time>2019-08-21T08:16:24Z</time>
        <sat>8</sat>
      </trkpt>
      <trkpt lat="42.430299" lon="-2.855059">
        <ele>585.1</ele>
        <time>2019-08-21T08:16:30Z</time>
        <sat>7</sat>
      </trkpt>
      <trkpt lat="42.430252" lon="-2.855168">
        <ele>585.6</ele>
        <time>2019-08-21T08:16:37Z</time>
        <sat>8</sat>
      </trkpt>
      <trkpt lat="42.430231" lon="-2.855194">
        <ele>585.7</ele>
        <time>2019-08-21T08:16:39Z</time>
        <sat>7</sat>
      </trkpt>
      <trkpt lat="42.430179" lon="-2.855282">
        <ele>586.0</ele>
        <time>2019-08-21T08:16:45Z</time>
        <sat>7</sat>
      </trkpt>
      <trkpt lat="42.430134" lon="-2.855381">
        <ele>586.4</ele>
        <time>2019-08-21T08:16:51Z</time>
        <sat>8</sat>
      </trkpt>
      <trkpt lat="42.430074" lon="-2.855474">
        <ele>586.7</ele>
        <time>2019-08-21T08:16:57Z</time>
        <sat>7</sat>
      </trkpt>
      <trkpt lat="42.430016" lon="-2.855605">
        <ele>586.9</ele>
        <time>2019-08-21T08:17:05Z</time>
        <sat>8</sat>
      </trkpt>
      <trkpt lat="42.429939" lon="-2.855738">
        <ele>587.2</ele>
        <time>2019-08-21T08:17:14Z</time>
        <sat>8</sat>
      </trkpt>
      <trkpt lat="42.429897" lon="-2.855825">
        <ele>587.3</ele>
        <time>2019-08-21T08:17:20Z</time>
        <sat>7</sat>
      </trkpt>
      <trkpt lat="42.429795" lon="-2.856008">
        <ele>587.5</ele>
        <time>2019-08-21T08:17:32Z</time>
        <sat>8</sat>
      </trkpt>
      <trkpt lat="42.429684" lon="-2.856179">
        <ele>587.8</ele>
        <time>2019-08-21T08:17:44Z</time>
        <sat>8</sat>
      </trkpt>
      <trkpt lat="42.429632" lon="-2.856295">
        <ele>588.0</ele>
        <time>2019-08-21T08:17:51Z</time>
        <sat>8</sat>
      </trkpt>
      <trkpt lat="42.429574" lon="-2.856385">
        <ele>588.3</ele>
        <time>2019-08-21T08:17:57Z</time>
        <sat>8</sat>
      </trkpt>
      <trkpt lat="42.429525" lon="-2.856494">
        <ele>588.6</ele>
        <time>2019-08-21T08:18:04Z</time>
        <sat>8</sat>
      </trkpt>
      <trkpt lat="42.429451" lon="-2.856604">
        <ele>588.6</ele>
        <time>2019-08-21T08:18:12Z</time>
        <sat>8</sat>
      </trkpt>
      <trkpt lat="42.429423" lon="-2.856668">
        <ele>588.7</ele>
        <time>2019-08-21T08:18:16Z</time>
        <sat>8</sat>
      </trkpt>
      <trkpt lat="42.429340" lon="-2.856800">
        <ele>588.9</ele>
        <time>2019-08-21T08:18:25Z</time>
        <sat>8</sat>
      </trkpt>
      <trkpt lat="42.429286" lon="-2.856908">
        <ele>589.1</ele>
        <time>2019-08-21T08:18:32Z</time>
        <sat>8</sat>
      </trkpt>
      <trkpt lat="42.429238" lon="-2.856978">
        <ele>589.3</ele>
        <time>2019-08-21T08:18:37Z</time>
        <sat>8</sat>
      </trkpt>
      <trkpt lat="42.429151" lon="-2.857131">
        <ele>589.4</ele>
        <time>2019-08-21T08:18:47Z</time>
        <sat>8</sat>
      </trkpt>
      <trkpt lat="42.429112" lon="-2.857188">
        <ele>589.9</ele>
        <time>2019-08-21T08:18:51Z</time>
        <sat>7</sat>
      </trkpt>
      <trkpt lat="42.429017" lon="-2.857358">
        <ele>590.5</ele>
        <time>2019-08-21T08:19:03Z</time>
        <sat>8</sat>
      </trkpt>
      <trkpt lat="42.428977" lon="-2.857428">
        <ele>590.8</ele>
        <time>2019-08-21T08:19:08Z</time>
        <sat>8</sat>
      </trkpt>
      <trkpt lat="42.428937" lon="-2.857514">
        <ele>590.5</ele>
        <time>2019-08-21T08:19:14Z</time>
        <sat>8</sat>
      </trkpt>
      <trkpt lat="42.428885" lon="-2.857580">
        <ele>589.4</ele>
        <time>2019-08-21T08:19:19Z</time>
        <sat>8</sat>
      </trkpt>
      <trkpt lat="42.428831" lon="-2.857691">
        <ele>588.5</ele>
        <time>2019-08-21T08:19:26Z</time>
        <sat>7</sat>
      </trkpt>
      <trkpt lat="42.428738" lon="-2.857833">
        <ele>590.8</ele>
        <time>2019-08-21T08:19:36Z</time>
        <sat>7</sat>
      </trkpt>
      <trkpt lat="42.428695" lon="-2.857923">
        <ele>591.1</ele>
        <time>2019-08-21T08:19:42Z</time>
        <sat>7</sat>
      </trkpt>
      <trkpt lat="42.428621" lon="-2.858040">
        <ele>591.3</ele>
        <time>2019-08-21T08:19:50Z</time>
        <sat>8</sat>
      </trkpt>
      <trkpt lat="42.428572" lon="-2.858162">
        <ele>591.5</ele>
        <time>2019-08-21T08:19:57Z</time>
        <sat>7</sat>
      </trkpt>
      <trkpt lat="42.428548" lon="-2.858210">
        <ele>591.6</ele>
        <time>2019-08-21T08:20:00Z</time>
        <sat>8</sat>
      </trkpt>
      <trkpt lat="42.428533" lon="-2.858267">
        <ele>591.8</ele>
        <time>2019-08-21T08:20:08Z</time>
        <sat>8</sat>
      </trkpt>
      <trkpt lat="42.428468" lon="-2.858381">
        <ele>592.1</ele>
        <time>2019-08-21T08:20:25Z</time>
        <sat>7</sat>
      </trkpt>
      <trkpt lat="42.428449" lon="-2.858406">
        <ele>592.1</ele>
        <time>2019-08-21T08:20:28Z</time>
        <sat>7</sat>
      </trkpt>
      <trkpt lat="42.428432" lon="-2.858455">
        <ele>592.3</ele>
        <time>2019-08-21T08:20:35Z</time>
        <sat>7</sat>
      </trkpt>
      <trkpt lat="42.428447" lon="-2.858427">
        <ele>592.4</ele>
        <time>2019-08-21T08:20:40Z</time>
        <sat>8</sat>
      </trkpt>
      <trkpt lat="42.428451" lon="-2.858445">
        <ele>592.5</ele>
        <time>2019-08-21T08:20:56Z</time>
        <sat>8</sat>
      </trkpt>
      <trkpt lat="42.428419" lon="-2.858496">
        <ele>592.6</ele>
        <time>2019-08-21T08:21:00Z</time>
        <sat>7</sat>
      </trkpt>
      <trkpt lat="42.428367" lon="-2.858552">
        <ele>592.7</ele>
        <time>2019-08-21T08:21:04Z</time>
        <sat>7</sat>
      </trkpt>
      <trkpt lat="42.428335" lon="-2.858597">
        <ele>592.5</ele>
        <time>2019-08-21T08:21:07Z</time>
        <sat>8</sat>
      </trkpt>
      <trkpt lat="42.428297" lon="-2.858668">
        <ele>592.6</ele>
        <time>2019-08-21T08:21:11Z</time>
        <sat>8</sat>
      </trkpt>
      <trkpt lat="42.428267" lon="-2.858737">
        <ele>592.8</ele>
        <time>2019-08-21T08:21:15Z</time>
        <sat>8</sat>
      </trkpt>
      <trkpt lat="42.428235" lon="-2.858774">
        <ele>592.9</ele>
        <time>2019-08-21T08:21:18Z</time>
        <sat>8</sat>
      </trkpt>
      <trkpt lat="42.428146" lon="-2.858909">
        <ele>593.3</ele>
        <time>2019-08-21T08:21:27Z</time>
        <sat>8</sat>
      </trkpt>
      <trkpt lat="42.428065" lon="-2.859069">
        <ele>593.7</ele>
        <time>2019-08-21T08:21:37Z</time>
        <sat>6</sat>
      </trkpt>
      <trkpt lat="42.428019" lon="-2.859131">
        <ele>593.9</ele>
        <time>2019-08-21T08:21:41Z</time>
        <sat>7</sat>
      </trkpt>
      <trkpt lat="42.427991" lon="-2.859180">
        <ele>593.9</ele>
        <time>2019-08-21T08:21:44Z</time>
        <sat>8</sat>
      </trkpt>
      <trkpt lat="42.427946" lon="-2.859283">
        <ele>594.3</ele>
        <time>2019-08-21T08:21:51Z</time>
        <sat>8</sat>
      </trkpt>
      <trkpt lat="42.427887" lon="-2.859371">
        <ele>594.7</ele>
        <time>2019-08-21T08:21:57Z</time>
        <sat>8</sat>
      </trkpt>
      <trkpt lat="42.427846" lon="-2.859449">
        <ele>594.8</ele>
        <time>2019-08-21T08:22:02Z</time>
        <sat>6</sat>
      </trkpt>
      <trkpt lat="42.427817" lon="-2.859492">
        <ele>594.2</ele>
        <time>2019-08-21T08:22:05Z</time>
        <sat>8</sat>
      </trkpt>
      <trkpt lat="42.427782" lon="-2.859585">
        <ele>592.7</ele>
        <time>2019-08-21T08:22:11Z</time>
        <sat>7</sat>
      </trkpt>
      <trkpt lat="42.427760" lon="-2.859620">
        <ele>596.1</ele>
        <time>2019-08-21T08:22:22Z</time>
        <sat>8</sat>
      </trkpt>
      <trkpt lat="42.427732" lon="-2.859656">
        <ele>596.0</ele>
        <time>2019-08-21T08:22:27Z</time>
        <sat>7</sat>
      </trkpt>
      <trkpt lat="42.427628" lon="-2.859882">
        <ele>595.7</ele>
        <time>2019-08-21T08:22:40Z</time>
        <sat>8</sat>
      </trkpt>
      <trkpt lat="42.427496" lon="-2.860089">
        <ele>596.2</ele>
        <time>2019-08-21T08:22:53Z</time>
        <sat>8</sat>
      </trkpt>
      <trkpt lat="42.427448" lon="-2.860159">
        <ele>596.2</ele>
        <time>2019-08-21T08:22:58Z</time>
        <sat>8</sat>
      </trkpt>
      <trkpt lat="42.427440" lon="-2.860157">
        <ele>596.8</ele>
        <time>2019-08-21T08:23:11Z</time>
        <sat>7</sat>
      </trkpt>
      <trkpt lat="42.427432" lon="-2.860186">
        <ele>597.3</ele>
        <time>2019-08-21T08:23:22Z</time>
        <sat>7</sat>
      </trkpt>
      <trkpt lat="42.427413" lon="-2.860281">
        <ele>597.6</ele>
        <time>2019-08-21T08:23:35Z</time>
        <sat>7</sat>
      </trkpt>
      <trkpt lat="42.427428" lon="-2.860414">
        <ele>597.4</ele>
        <time>2019-08-21T08:23:56Z</time>
        <sat>8</sat>
      </trkpt>
      <trkpt lat="42.427430" lon="-2.860511">
        <ele>597.4</ele>
        <time>2019-08-21T08:24:01Z</time>
        <sat>8</sat>
      </trkpt>
      <trkpt lat="42.427425" lon="-2.860581">
        <ele>597.5</ele>
        <time>2019-08-21T08:24:05Z</time>
        <sat>8</sat>
      </trkpt>
      <trkpt lat="42.427412" lon="-2.860652">
        <ele>597.7</ele>
        <time>2019-08-21T08:24:09Z</time>
        <sat>8</sat>
      </trkpt>
      <trkpt lat="42.427406" lon="-2.860747">
        <ele>597.8</ele>
        <time>2019-08-21T08:24:14Z</time>
        <sat>7</sat>
      </trkpt>
      <trkpt lat="42.427385" lon="-2.860875">
        <ele>598.3</ele>
        <time>2019-08-21T08:24:21Z</time>
        <sat>7</sat>
      </trkpt>
      <trkpt lat="42.427378" lon="-2.860996">
        <ele>598.5</ele>
        <time>2019-08-21T08:24:28Z</time>
        <sat>7</sat>
      </trkpt>
      <trkpt lat="42.427362" lon="-2.861221">
        <ele>598.9</ele>
        <time>2019-08-21T08:24:46Z</time>
        <sat>8</sat>
      </trkpt>
      <trkpt lat="42.427357" lon="-2.861367">
        <ele>599.0</ele>
        <time>2019-08-21T08:24:54Z</time>
        <sat>8</sat>
      </trkpt>
      <trkpt lat="42.427339" lon="-2.861498">
        <ele>599.3</ele>
        <time>2019-08-21T08:25:01Z</time>
        <sat>9</sat>
      </trkpt>
      <trkpt lat="42.427333" lon="-2.861607">
        <ele>599.5</ele>
        <time>2019-08-21T08:25:07Z</time>
        <sat>8</sat>
      </trkpt>
      <trkpt lat="42.427312" lon="-2.861711">
        <ele>599.9</ele>
        <time>2019-08-21T08:25:13Z</time>
        <sat>8</sat>
      </trkpt>
      <trkpt lat="42.427316" lon="-2.861803">
        <ele>600.1</ele>
        <time>2019-08-21T08:25:18Z</time>
        <sat>8</sat>
      </trkpt>
      <trkpt lat="42.427301" lon="-2.861909">
        <ele>600.3</ele>
        <time>2019-08-21T08:25:24Z</time>
        <sat>8</sat>
      </trkpt>
      <trkpt lat="42.427299" lon="-2.862057">
        <ele>600.5</ele>
        <time>2019-08-21T08:25:31Z</time>
        <sat>9</sat>
      </trkpt>
      <trkpt lat="42.427288" lon="-2.862184">
        <ele>599.5</ele>
        <time>2019-08-21T08:25:38Z</time>
        <sat>7</sat>
      </trkpt>
      <trkpt lat="42.427278" lon="-2.862410">
        <ele>601.4</ele>
        <time>2019-08-21T08:25:50Z</time>
        <sat>8</sat>
      </trkpt>
      <trkpt lat="42.427262" lon="-2.862610">
        <ele>602.0</ele>
        <time>2019-08-21T08:26:01Z</time>
        <sat>8</sat>
      </trkpt>
      <trkpt lat="42.427250" lon="-2.862700">
        <ele>602.5</ele>
        <time>2019-08-21T08:26:06Z</time>
        <sat>9</sat>
      </trkpt>
      <trkpt lat="42.427230" lon="-2.862950">
        <ele>603.1</ele>
        <time>2019-08-21T08:26:20Z</time>
        <sat>8</sat>
      </trkpt>
      <trkpt lat="42.427210" lon="-2.863182">
        <ele>603.8</ele>
        <time>2019-08-21T08:26:33Z</time>
        <sat>8</sat>
      </trkpt>
      <trkpt lat="42.427213" lon="-2.863277">
        <ele>604.0</ele>
        <time>2019-08-21T08:26:38Z</time>
        <sat>8</sat>
      </trkpt>
      <trkpt lat="42.427193" lon="-2.863426">
        <ele>604.4</ele>
        <time>2019-08-21T08:26:46Z</time>
        <sat>8</sat>
      </trkpt>
      <trkpt lat="42.427190" lon="-2.863541">
        <ele>604.6</ele>
        <time>2019-08-21T08:26:52Z</time>
        <sat>8</sat>
      </trkpt>
      <trkpt lat="42.427174" lon="-2.863674">
        <ele>604.9</ele>
        <time>2019-08-21T08:26:59Z</time>
        <sat>8</sat>
      </trkpt>
      <trkpt lat="42.427172" lon="-2.863809">
        <ele>605.2</ele>
        <time>2019-08-21T08:27:06Z</time>
        <sat>8</sat>
      </trkpt>
      <trkpt lat="42.427157" lon="-2.863918">
        <ele>605.5</ele>
        <time>2019-08-21T08:27:12Z</time>
        <sat>8</sat>
      </trkpt>
      <trkpt lat="42.427132" lon="-2.864025">
        <ele>606.0</ele>
        <time>2019-08-21T08:27:18Z</time>
        <sat>7</sat>
      </trkpt>
      <trkpt lat="42.427111" lon="-2.864215">
        <ele>606.8</ele>
        <time>2019-08-21T08:27:28Z</time>
        <sat>8</sat>
      </trkpt>
      <trkpt lat="42.427109" lon="-2.864371">
        <ele>607.1</ele>
        <time>2019-08-21T08:27:36Z</time>
        <sat>8</sat>
      </trkpt>
      <trkpt lat="42.427101" lon="-2.864448">
        <ele>607.3</ele>
        <time>2019-08-21T08:27:40Z</time>
        <sat>8</sat>
      </trkpt>
      <trkpt lat="42.427093" lon="-2.864485">
        <ele>607.4</ele>
        <time>2019-08-21T08:27:42Z</time>
        <sat>8</sat>
      </trkpt>
      <trkpt lat="42.427086" lon="-2.864630">
        <ele>607.8</ele>
        <time>2019-08-21T08:27:50Z</time>
        <sat>9</sat>
      </trkpt>
      <trkpt lat="42.427068" lon="-2.864742">
        <ele>608.2</ele>
        <time>2019-08-21T08:27:56Z</time>
        <sat>8</sat>
      </trkpt>
      <trkpt lat="42.427068" lon="-2.864873">
        <ele>608.7</ele>
        <time>2019-08-21T08:28:14Z</time>
        <sat>8</sat>
      </trkpt>
      <trkpt lat="42.427030" lon="-2.865051">
        <ele>608.8</ele>
        <time>2019-08-21T08:28:23Z</time>
        <sat>8</sat>
      </trkpt>
      <trkpt lat="42.426995" lon="-2.865179">
        <ele>609.3</ele>
        <time>2019-08-21T08:28:30Z</time>
        <sat>9</sat>
      </trkpt>
      <trkpt lat="42.426952" lon="-2.865281">
        <ele>609.3</ele>
        <time>2019-08-21T08:28:36Z</time>
        <sat>8</sat>
      </trkpt>
      <trkpt lat="42.426926" lon="-2.865386">
        <ele>608.7</ele>
        <time>2019-08-21T08:28:42Z</time>
        <sat>9</sat>
      </trkpt>
      <trkpt lat="42.426903" lon="-2.865435">
        <ele>608.1</ele>
        <time>2019-08-21T08:28:45Z</time>
        <sat>9</sat>
      </trkpt>
      <trkpt lat="42.426842" lon="-2.865641">
        <ele>609.0</ele>
        <time>2019-08-21T08:28:57Z</time>
        <sat>8</sat>
      </trkpt>
      <trkpt lat="42.426821" lon="-2.865743">
        <ele>609.3</ele>
        <time>2019-08-21T08:29:03Z</time>
        <sat>8</sat>
      </trkpt>
      <trkpt lat="42.426780" lon="-2.865878">
        <ele>610.1</ele>
        <time>2019-08-21T08:29:11Z</time>
        <sat>8</sat>
      </trkpt>
      <trkpt lat="42.426762" lon="-2.865968">
        <ele>610.5</ele>
        <time>2019-08-21T08:29:16Z</time>
        <sat>8</sat>
      </trkpt>
      <trkpt lat="42.426717" lon="-2.866107">
        <ele>611.0</ele>
        <time>2019-08-21T08:29:24Z</time>
        <sat>8</sat>
      </trkpt>
      <trkpt lat="42.426708" lon="-2.866161">
        <ele>611.1</ele>
        <time>2019-08-21T08:29:27Z</time>
        <sat>8</sat>
      </trkpt>
      <trkpt lat="42.426668" lon="-2.866280">
        <ele>611.6</ele>
        <time>2019-08-21T08:29:34Z</time>
        <sat>8</sat>
      </trkpt>
      <trkpt lat="42.426656" lon="-2.866352">
        <ele>611.8</ele>
        <time>2019-08-21T08:29:38Z</time>
        <sat>8</sat>
      </trkpt>
      <trkpt lat="42.426616" lon="-2.866467">
        <ele>612.1</ele>
        <time>2019-08-21T08:29:45Z</time>
        <sat>8</sat>
      </trkpt>
      <trkpt lat="42.426597" lon="-2.866549">
        <ele>612.3</ele>
        <time>2019-08-21T08:29:50Z</time>
        <sat>8</sat>
      </trkpt>
      <trkpt lat="42.426542" lon="-2.866723">
        <ele>612.7</ele>
        <time>2019-08-21T08:30:00Z</time>
        <sat>9</sat>
      </trkpt>
      <trkpt lat="42.426460" lon="-2.866971">
        <ele>613.2</ele>
        <time>2019-08-21T08:30:15Z</time>
        <sat>9</sat>
      </trkpt>
      <trkpt lat="42.426422" lon="-2.867057">
        <ele>614.1</ele>
        <time>2019-08-21T08:30:37Z</time>
        <sat>9</sat>
      </trkpt>
      <trkpt lat="42.426292" lon="-2.867605">
        <ele>612.7</ele>
        <time>2019-08-21T08:33:27Z</time>
        <sat>9</sat>
      </trkpt>
      <trkpt lat="42.426295" lon="-2.867612">
        <ele>612.6</ele>
        <time>2019-08-21T08:33:36Z</time>
        <sat>9</sat>
      </trkpt>
      <trkpt lat="42.426249" lon="-2.867752">
        <ele>613.4</ele>
        <time>2019-08-21T08:34:20Z</time>
        <sat>9</sat>
      </trkpt>
      <trkpt lat="42.426234" lon="-2.867813">
        <ele>613.7</ele>
        <time>2019-08-21T08:34:24Z</time>
        <sat>9</sat>
      </trkpt>
      <trkpt lat="42.426167" lon="-2.868020">
        <ele>615.1</ele>
        <time>2019-08-21T08:34:38Z</time>
        <sat>9</sat>
      </trkpt>
      <trkpt lat="42.426151" lon="-2.868110">
        <ele>615.9</ele>
        <time>2019-08-21T08:35:12Z</time>
        <sat>9</sat>
      </trkpt>
      <trkpt lat="42.426115" lon="-2.868235">
        <ele>616.0</ele>
        <time>2019-08-21T08:35:19Z</time>
        <sat>9</sat>
      </trkpt>
      <trkpt lat="42.426103" lon="-2.868297">
        <ele>616.1</ele>
        <time>2019-08-21T08:35:25Z</time>
        <sat>9</sat>
      </trkpt>
      <trkpt lat="42.426086" lon="-2.868345">
        <ele>616.5</ele>
        <time>2019-08-21T08:35:28Z</time>
        <sat>9</sat>
      </trkpt>
      <trkpt lat="42.426071" lon="-2.868425">
        <ele>617.2</ele>
        <time>2019-08-21T08:35:33Z</time>
        <sat>9</sat>
      </trkpt>
      <trkpt lat="42.426026" lon="-2.868546">
        <ele>618.1</ele>
        <time>2019-08-21T08:35:40Z</time>
        <sat>9</sat>
      </trkpt>
      <trkpt lat="42.426008" lon="-2.868635">
        <ele>618.4</ele>
        <time>2019-08-21T08:35:45Z</time>
        <sat>9</sat>
      </trkpt>
      <trkpt lat="42.425966" lon="-2.868754">
        <ele>619.1</ele>
        <time>2019-08-21T08:35:52Z</time>
        <sat>9</sat>
      </trkpt>
      <trkpt lat="42.425940" lon="-2.868877">
        <ele>619.6</ele>
        <time>2019-08-21T08:35:59Z</time>
        <sat>9</sat>
      </trkpt>
      <trkpt lat="42.425910" lon="-2.868963">
        <ele>620.0</ele>
        <time>2019-08-21T08:36:04Z</time>
        <sat>9</sat>
      </trkpt>
      <trkpt lat="42.425881" lon="-2.869084">
        <ele>620.5</ele>
        <time>2019-08-21T08:36:11Z</time>
        <sat>9</sat>
      </trkpt>
      <trkpt lat="42.425842" lon="-2.869185">
        <ele>621.0</ele>
        <time>2019-08-21T08:36:18Z</time>
        <sat>9</sat>
      </trkpt>
      <trkpt lat="42.425824" lon="-2.869199">
        <ele>621.4</ele>
        <time>2019-08-21T08:36:21Z</time>
        <sat>9</sat>
      </trkpt>
      <trkpt lat="42.425811" lon="-2.869213">
        <ele>622.2</ele>
        <time>2019-08-21T08:36:44Z</time>
        <sat>9</sat>
      </trkpt>
      <trkpt lat="42.425815" lon="-2.869269">
        <ele>622.3</ele>
        <time>2019-08-21T08:36:48Z</time>
        <sat>9</sat>
      </trkpt>
      <trkpt lat="42.425800" lon="-2.869357">
        <ele>622.3</ele>
        <time>2019-08-21T08:36:53Z</time>
        <sat>8</sat>
      </trkpt>
      <trkpt lat="42.425756" lon="-2.869448">
        <ele>622.6</ele>
        <time>2019-08-21T08:37:00Z</time>
        <sat>9</sat>
      </trkpt>
      <trkpt lat="42.425750" lon="-2.869527">
        <ele>622.9</ele>
        <time>2019-08-21T08:37:04Z</time>
        <sat>9</sat>
      </trkpt>
      <trkpt lat="42.425739" lon="-2.869582">
        <ele>623.1</ele>
        <time>2019-08-21T08:37:07Z</time>
        <sat>9</sat>
      </trkpt>
      <trkpt lat="42.425702" lon="-2.869667">
        <ele>623.6</ele>
        <time>2019-08-21T08:37:12Z</time>
        <sat>9</sat>
      </trkpt>
      <trkpt lat="42.425677" lon="-2.869773">
        <ele>624.2</ele>
        <time>2019-08-21T08:37:18Z</time>
        <sat>9</sat>
      </trkpt>
      <trkpt lat="42.425647" lon="-2.869845">
        <ele>624.8</ele>
        <time>2019-08-21T08:37:22Z</time>
        <sat>9</sat>
      </trkpt>
      <trkpt lat="42.425621" lon="-2.869950">
        <ele>625.6</ele>
        <time>2019-08-21T08:37:28Z</time>
        <sat>9</sat>
      </trkpt>
      <trkpt lat="42.425595" lon="-2.870017">
        <ele>626.1</ele>
        <time>2019-08-21T08:37:32Z</time>
        <sat>9</sat>
      </trkpt>
      <trkpt lat="42.425583" lon="-2.870081">
        <ele>626.6</ele>
        <time>2019-08-21T08:37:36Z</time>
        <sat>9</sat>
      </trkpt>
      <trkpt lat="42.425554" lon="-2.870151">
        <ele>627.2</ele>
        <time>2019-08-21T08:37:40Z</time>
        <sat>9</sat>
      </trkpt>
      <trkpt lat="42.425546" lon="-2.870206">
        <ele>627.8</ele>
        <time>2019-08-21T08:37:43Z</time>
        <sat>9</sat>
      </trkpt>
      <trkpt lat="42.425483" lon="-2.870410">
        <ele>629.6</ele>
        <time>2019-08-21T08:37:55Z</time>
        <sat>9</sat>
      </trkpt>
      <trkpt lat="42.425467" lon="-2.870478">
        <ele>630.3</ele>
        <time>2019-08-21T08:37:59Z</time>
        <sat>9</sat>
      </trkpt>
      <trkpt lat="42.425443" lon="-2.870544">
        <ele>630.9</ele>
        <time>2019-08-21T08:38:03Z</time>
        <sat>9</sat>
      </trkpt>
      <trkpt lat="42.425430" lon="-2.870609">
        <ele>631.5</ele>
        <time>2019-08-21T08:38:07Z</time>
        <sat>9</sat>
      </trkpt>
      <trkpt lat="42.425395" lon="-2.870724">
        <ele>632.7</ele>
        <time>2019-08-21T08:38:14Z</time>
        <sat>9</sat>
      </trkpt>
      <trkpt lat="42.425339" lon="-2.870938">
        <ele>634.7</ele>
        <time>2019-08-21T08:38:27Z</time>
        <sat>9</sat>
      </trkpt>
      <trkpt lat="42.425294" lon="-2.871168">
        <ele>636.7</ele>
        <time>2019-08-21T08:38:41Z</time>
        <sat>9</sat>
      </trkpt>
      <trkpt lat="42.425259" lon="-2.871274">
        <ele>637.8</ele>
        <time>2019-08-21T08:38:49Z</time>
        <sat>9</sat>
      </trkpt>
      <trkpt lat="42.425246" lon="-2.871295">
        <ele>639.1</ele>
        <time>2019-08-21T08:38:59Z</time>
        <sat>9</sat>
      </trkpt>
      <trkpt lat="42.425233" lon="-2.871455">
        <ele>639.6</ele>
        <time>2019-08-21T08:39:12Z</time>
        <sat>8</sat>
      </trkpt>
      <trkpt lat="42.425231" lon="-2.871494">
        <ele>639.7</ele>
        <time>2019-08-21T08:39:14Z</time>
        <sat>9</sat>
      </trkpt>
      <trkpt lat="42.425213" lon="-2.871592">
        <ele>640.2</ele>
        <time>2019-08-21T08:39:19Z</time>
        <sat>9</sat>
      </trkpt>
      <trkpt lat="42.425210" lon="-2.871705">
        <ele>640.9</ele>
        <time>2019-08-21T08:39:25Z</time>
        <sat>9</sat>
      </trkpt>
      <trkpt lat="42.425195" lon="-2.871783">
        <ele>641.2</ele>
        <time>2019-08-21T08:39:29Z</time>
        <sat>9</sat>
      </trkpt>
      <trkpt lat="42.425191" lon="-2.871874">
        <ele>641.6</ele>
        <time>2019-08-21T08:39:34Z</time>
        <sat>9</sat>
      </trkpt>
      <trkpt lat="42.425177" lon="-2.871948">
        <ele>642.1</ele>
        <time>2019-08-21T08:39:38Z</time>
        <sat>9</sat>
      </trkpt>
      <trkpt lat="42.425164" lon="-2.872170">
        <ele>643.8</ele>
        <time>2019-08-21T08:39:50Z</time>
        <sat>9</sat>
      </trkpt>
      <trkpt lat="42.425141" lon="-2.872278">
        <ele>644.6</ele>
        <time>2019-08-21T08:39:56Z</time>
        <sat>9</sat>
      </trkpt>
      <trkpt lat="42.425141" lon="-2.872352">
        <ele>645.1</ele>
        <time>2019-08-21T08:40:00Z</time>
        <sat>9</sat>
      </trkpt>
      <trkpt lat="42.425122" lon="-2.872447">
        <ele>645.8</ele>
        <time>2019-08-21T08:40:05Z</time>
        <sat>9</sat>
      </trkpt>
      <trkpt lat="42.425107" lon="-2.872656">
        <ele>647.2</ele>
        <time>2019-08-21T08:40:16Z</time>
        <sat>9</sat>
      </trkpt>
      <trkpt lat="42.425089" lon="-2.872898">
        <ele>648.9</ele>
        <time>2019-08-21T08:40:29Z</time>
        <sat>9</sat>
      </trkpt>
      <trkpt lat="42.425075" lon="-2.873009">
        <ele>649.6</ele>
        <time>2019-08-21T08:40:35Z</time>
        <sat>9</sat>
      </trkpt>
      <trkpt lat="42.425074" lon="-2.873064">
        <ele>650.1</ele>
        <time>2019-08-21T08:40:38Z</time>
        <sat>9</sat>
      </trkpt>
      <trkpt lat="42.425026" lon="-2.873321">
        <ele>652.1</ele>
        <time>2019-08-21T08:40:52Z</time>
        <sat>8</sat>
      </trkpt>
      <trkpt lat="42.425022" lon="-2.873376">
        <ele>652.6</ele>
        <time>2019-08-21T08:40:55Z</time>
        <sat>8</sat>
      </trkpt>
      <trkpt lat="42.424998" lon="-2.873480">
        <ele>653.5</ele>
        <time>2019-08-21T08:41:01Z</time>
        <sat>8</sat>
      </trkpt>
      <trkpt lat="42.424995" lon="-2.873519">
        <ele>653.8</ele>
        <time>2019-08-21T08:41:03Z</time>
        <sat>8</sat>
      </trkpt>
      <trkpt lat="42.424967" lon="-2.873637">
        <ele>654.7</ele>
        <time>2019-08-21T08:41:10Z</time>
        <sat>8</sat>
      </trkpt>
      <trkpt lat="42.424920" lon="-2.873754">
        <ele>655.7</ele>
        <time>2019-08-21T08:41:18Z</time>
        <sat>8</sat>
      </trkpt>
      <trkpt lat="42.424915" lon="-2.873847">
        <ele>656.5</ele>
        <time>2019-08-21T08:41:24Z</time>
        <sat>8</sat>
      </trkpt>
      <trkpt lat="42.424887" lon="-2.873970">
        <ele>657.2</ele>
        <time>2019-08-21T08:41:31Z</time>
        <sat>8</sat>
      </trkpt>
      <trkpt lat="42.424877" lon="-2.874041">
        <ele>657.7</ele>
        <time>2019-08-21T08:41:35Z</time>
        <sat>8</sat>
      </trkpt>
      <trkpt lat="42.424850" lon="-2.874117">
        <ele>658.3</ele>
        <time>2019-08-21T08:41:40Z</time>
        <sat>8</sat>
      </trkpt>
      <trkpt lat="42.424839" lon="-2.874171">
        <ele>658.6</ele>
        <time>2019-08-21T08:41:43Z</time>
        <sat>8</sat>
      </trkpt>
      <trkpt lat="42.424795" lon="-2.874363">
        <ele>659.8</ele>
        <time>2019-08-21T08:41:54Z</time>
        <sat>8</sat>
      </trkpt>
      <trkpt lat="42.424768" lon="-2.874447">
        <ele>660.5</ele>
        <time>2019-08-21T08:41:59Z</time>
        <sat>8</sat>
      </trkpt>
      <trkpt lat="42.424717" lon="-2.874647">
        <ele>661.4</ele>
        <time>2019-08-21T08:42:13Z</time>
        <sat>8</sat>
      </trkpt>
      <trkpt lat="42.424687" lon="-2.874848">
        <ele>662.3</ele>
        <time>2019-08-21T08:42:25Z</time>
        <sat>8</sat>
      </trkpt>
      <trkpt lat="42.424672" lon="-2.874898">
        <ele>662.6</ele>
        <time>2019-08-21T08:42:28Z</time>
        <sat>8</sat>
      </trkpt>
      <trkpt lat="42.424657" lon="-2.874988">
        <ele>663.0</ele>
        <time>2019-08-21T08:42:33Z</time>
        <sat>8</sat>
      </trkpt>
      <trkpt lat="42.424638" lon="-2.875044">
        <ele>663.3</ele>
        <time>2019-08-21T08:42:36Z</time>
        <sat>8</sat>
      </trkpt>
      <trkpt lat="42.424589" lon="-2.875293">
        <ele>664.9</ele>
        <time>2019-08-21T08:42:50Z</time>
        <sat>8</sat>
      </trkpt>
      <trkpt lat="42.424560" lon="-2.875378">
        <ele>665.5</ele>
        <time>2019-08-21T08:42:55Z</time>
        <sat>7</sat>
      </trkpt>
      <trkpt lat="42.424554" lon="-2.875439">
        <ele>666.1</ele>
        <time>2019-08-21T08:42:59Z</time>
        <sat>8</sat>
      </trkpt>
      <trkpt lat="42.424518" lon="-2.875545">
        <ele>666.8</ele>
        <time>2019-08-21T08:43:05Z</time>
        <sat>8</sat>
      </trkpt>
      <trkpt lat="42.424518" lon="-2.875581">
        <ele>667.0</ele>
        <time>2019-08-21T08:43:07Z</time>
        <sat>8</sat>
      </trkpt>
      <trkpt lat="42.424482" lon="-2.875699">
        <ele>667.9</ele>
        <time>2019-08-21T08:43:14Z</time>
        <sat>8</sat>
      </trkpt>
      <trkpt lat="42.424466" lon="-2.875793">
        <ele>668.5</ele>
        <time>2019-08-21T08:43:21Z</time>
        <sat>7</sat>
      </trkpt>
      <trkpt lat="42.424450" lon="-2.875798">
        <ele>669.3</ele>
        <time>2019-08-21T08:43:34Z</time>
        <sat>7</sat>
      </trkpt>
      <trkpt lat="42.424438" lon="-2.875824">
        <ele>669.3</ele>
        <time>2019-08-21T08:43:36Z</time>
        <sat>7</sat>
      </trkpt>
      <trkpt lat="42.424412" lon="-2.875931">
        <ele>669.5</ele>
        <time>2019-08-21T08:43:42Z</time>
        <sat>8</sat>
      </trkpt>
      <trkpt lat="42.424397" lon="-2.876034">
        <ele>669.7</ele>
        <time>2019-08-21T08:43:48Z</time>
        <sat>7</sat>
      </trkpt>
      <trkpt lat="42.424369" lon="-2.876101">
        <ele>670.1</ele>
        <time>2019-08-21T08:43:52Z</time>
        <sat>7</sat>
      </trkpt>
      <trkpt lat="42.424352" lon="-2.876189">
        <ele>670.5</ele>
        <time>2019-08-21T08:43:57Z</time>
        <sat>8</sat>
      </trkpt>
      <trkpt lat="42.424313" lon="-2.876324">
        <ele>671.1</ele>
        <time>2019-08-21T08:44:05Z</time>
        <sat>8</sat>
      </trkpt>
      <trkpt lat="42.424301" lon="-2.876409">
        <ele>671.6</ele>
        <time>2019-08-21T08:44:10Z</time>
        <sat>8</sat>
      </trkpt>
      <trkpt lat="42.424261" lon="-2.876531">
        <ele>672.3</ele>
        <time>2019-08-21T08:44:17Z</time>
        <sat>8</sat>
      </trkpt>
      <trkpt lat="42.424221" lon="-2.876605">
        <ele>672.9</ele>
        <time>2019-08-21T08:44:22Z</time>
        <sat>8</sat>
      </trkpt>
      <trkpt lat="42.424203" lon="-2.876671">
        <ele>673.4</ele>
        <time>2019-08-21T08:44:26Z</time>
        <sat>8</sat>
      </trkpt>
      <trkpt lat="42.424116" lon="-2.876852">
        <ele>675.0</ele>
        <time>2019-08-21T08:44:38Z</time>
        <sat>8</sat>
      </trkpt>
      <trkpt lat="42.424025" lon="-2.877037">
        <ele>676.8</ele>
        <time>2019-08-21T08:44:51Z</time>
        <sat>8</sat>
      </trkpt>
      <trkpt lat="42.423948" lon="-2.877164">
        <ele>678.2</ele>
        <time>2019-08-21T08:45:00Z</time>
        <sat>7</sat>
      </trkpt>
      <trkpt lat="42.423903" lon="-2.877247">
        <ele>679.1</ele>
        <time>2019-08-21T08:45:06Z</time>
        <sat>7</sat>
      </trkpt>
      <trkpt lat="42.423826" lon="-2.877377">
        <ele>680.9</ele>
        <time>2019-08-21T08:45:16Z</time>
        <sat>8</sat>
      </trkpt>
      <trkpt lat="42.423802" lon="-2.877435">
        <ele>681.6</ele>
        <time>2019-08-21T08:45:20Z</time>
        <sat>8</sat>
      </trkpt>
      <trkpt lat="42.423713" lon="-2.877578">
        <ele>683.2</ele>
        <time>2019-08-21T08:45:30Z</time>
        <sat>8</sat>
      </trkpt>
      <trkpt lat="42.423614" lon="-2.877762">
        <ele>685.3</ele>
        <time>2019-08-21T08:45:43Z</time>
        <sat>9</sat>
      </trkpt>
      <trkpt lat="42.423599" lon="-2.877801">
        <ele>685.9</ele>
        <time>2019-08-21T08:45:46Z</time>
        <sat>9</sat>
      </trkpt>
      <trkpt lat="42.423560" lon="-2.877866">
        <ele>686.6</ele>
        <time>2019-08-21T08:45:50Z</time>
        <sat>9</sat>
      </trkpt>
      <trkpt lat="42.423481" lon="-2.878003">
        <ele>688.3</ele>
        <time>2019-08-21T08:46:00Z</time>
        <sat>9</sat>
      </trkpt>
      <trkpt lat="42.423427" lon="-2.878086">
        <ele>689.3</ele>
        <time>2019-08-21T08:46:06Z</time>
        <sat>8</sat>
      </trkpt>
      <trkpt lat="42.423324" lon="-2.878249">
        <ele>691.1</ele>
        <time>2019-08-21T08:46:19Z</time>
        <sat>8</sat>
      </trkpt>
      <trkpt lat="42.423215" lon="-2.878386">
        <ele>692.7</ele>
        <time>2019-08-21T08:46:30Z</time>
        <sat>8</sat>
      </trkpt>
      <trkpt lat="42.423138" lon="-2.878497">
        <ele>692.0</ele>
        <time>2019-08-21T08:46:41Z</time>
        <sat>8</sat>
      </trkpt>
      <trkpt lat="42.423151" lon="-2.878504">
        <ele>695.6</ele>
        <time>2019-08-21T08:46:56Z</time>
        <sat>9</sat>
      </trkpt>
      <trkpt lat="42.423123" lon="-2.878521">
        <ele>695.7</ele>
        <time>2019-08-21T08:46:59Z</time>
        <sat>9</sat>
      </trkpt>
      <trkpt lat="42.423038" lon="-2.878646">
        <ele>695.8</ele>
        <time>2019-08-21T08:47:08Z</time>
        <sat>9</sat>
      </trkpt>
      <trkpt lat="42.422981" lon="-2.878707">
        <ele>696.2</ele>
        <time>2019-08-21T08:47:13Z</time>
        <sat>9</sat>
      </trkpt>
      <trkpt lat="42.422950" lon="-2.878763">
        <ele>696.5</ele>
        <time>2019-08-21T08:47:17Z</time>
        <sat>9</sat>
      </trkpt>
      <trkpt lat="42.422895" lon="-2.878822">
        <ele>697.0</ele>
        <time>2019-08-21T08:47:22Z</time>
        <sat>9</sat>
      </trkpt>
      <trkpt lat="42.422865" lon="-2.878874">
        <ele>697.5</ele>
        <time>2019-08-21T08:47:26Z</time>
        <sat>9</sat>
      </trkpt>
      <trkpt lat="42.422791" lon="-2.878949">
        <ele>698.0</ele>
        <time>2019-08-21T08:47:33Z</time>
        <sat>9</sat>
      </trkpt>
      <trkpt lat="42.422703" lon="-2.879098">
        <ele>698.9</ele>
        <time>2019-08-21T08:47:43Z</time>
        <sat>8</sat>
      </trkpt>
      <trkpt lat="42.422674" lon="-2.879161">
        <ele>699.2</ele>
        <time>2019-08-21T08:47:47Z</time>
        <sat>8</sat>
      </trkpt>
      <trkpt lat="42.422615" lon="-2.879243">
        <ele>699.5</ele>
        <time>2019-08-21T08:47:53Z</time>
        <sat>8</sat>
      </trkpt>
      <trkpt lat="42.422559" lon="-2.879347">
        <ele>699.8</ele>
        <time>2019-08-21T08:48:00Z</time>
        <sat>8</sat>
      </trkpt>
      <trkpt lat="42.422492" lon="-2.879439">
        <ele>699.7</ele>
        <time>2019-08-21T08:48:07Z</time>
        <sat>9</sat>
      </trkpt>
      <trkpt lat="42.422469" lon="-2.879482">
        <ele>699.6</ele>
        <time>2019-08-21T08:48:10Z</time>
        <sat>9</sat>
      </trkpt>
      <trkpt lat="42.422423" lon="-2.879543">
        <ele>700.2</ele>
        <time>2019-08-21T08:48:15Z</time>
        <sat>8</sat>
      </trkpt>
      <trkpt lat="42.422392" lon="-2.879604">
        <ele>700.7</ele>
        <time>2019-08-21T08:48:19Z</time>
        <sat>8</sat>
      </trkpt>
      <trkpt lat="42.422291" lon="-2.879767">
        <ele>702.0</ele>
        <time>2019-08-21T08:48:31Z</time>
        <sat>8</sat>
      </trkpt>
      <trkpt lat="42.422264" lon="-2.879805">
        <ele>702.0</ele>
        <time>2019-08-21T08:48:34Z</time>
        <sat>8</sat>
      </trkpt>
      <trkpt lat="42.422225" lon="-2.879873">
        <ele>702.2</ele>
        <time>2019-08-21T08:48:39Z</time>
        <sat>8</sat>
      </trkpt>
      <trkpt lat="42.422105" lon="-2.880078">
        <ele>702.7</ele>
        <time>2019-08-21T08:48:54Z</time>
        <sat>9</sat>
      </trkpt>
      <trkpt lat="42.421999" lon="-2.880252">
        <ele>703.4</ele>
        <time>2019-08-21T08:49:07Z</time>
        <sat>9</sat>
      </trkpt>
      <trkpt lat="42.421968" lon="-2.880347">
        <ele>703.7</ele>
        <time>2019-08-21T08:49:13Z</time>
        <sat>9</sat>
      </trkpt>
      <trkpt lat="42.421939" lon="-2.880390">
        <ele>703.8</ele>
        <time>2019-08-21T08:49:16Z</time>
        <sat>9</sat>
      </trkpt>
      <trkpt lat="42.421895" lon="-2.880481">
        <ele>704.0</ele>
        <time>2019-08-21T08:49:22Z</time>
        <sat>9</sat>
      </trkpt>
      <trkpt lat="42.421832" lon="-2.880549">
        <ele>704.1</ele>
        <time>2019-08-21T08:49:28Z</time>
        <sat>9</sat>
      </trkpt>
      <trkpt lat="42.421771" lon="-2.880662">
        <ele>704.4</ele>
        <time>2019-08-21T08:49:36Z</time>
        <sat>9</sat>
      </trkpt>
      <trkpt lat="42.421722" lon="-2.880728">
        <ele>704.7</ele>
        <time>2019-08-21T08:49:41Z</time>
        <sat>9</sat>
      </trkpt>
      <trkpt lat="42.421708" lon="-2.880772">
        <ele>705.3</ele>
        <time>2019-08-21T08:50:03Z</time>
        <sat>9</sat>
      </trkpt>
      <trkpt lat="42.421680" lon="-2.880813">
        <ele>705.3</ele>
        <time>2019-08-21T08:50:06Z</time>
        <sat>9</sat>
      </trkpt>
      <trkpt lat="42.421634" lon="-2.880900">
        <ele>705.6</ele>
        <time>2019-08-21T08:50:12Z</time>
        <sat>9</sat>
      </trkpt>
      <trkpt lat="42.421576" lon="-2.880977">
        <ele>705.6</ele>
        <time>2019-08-21T08:50:18Z</time>
        <sat>9</sat>
      </trkpt>
      <trkpt lat="42.421546" lon="-2.881037">
        <ele>705.7</ele>
        <time>2019-08-21T08:50:22Z</time>
        <sat>9</sat>
      </trkpt>
      <trkpt lat="42.421490" lon="-2.881121">
        <ele>706.2</ele>
        <time>2019-08-21T08:50:28Z</time>
        <sat>9</sat>
      </trkpt>
      <trkpt lat="42.421442" lon="-2.881217">
        <ele>706.4</ele>
        <time>2019-08-21T08:50:34Z</time>
        <sat>8</sat>
      </trkpt>
      <trkpt lat="42.421379" lon="-2.881303">
        <ele>706.7</ele>
        <time>2019-08-21T08:50:41Z</time>
        <sat>9</sat>
      </trkpt>
      <trkpt lat="42.421349" lon="-2.881365">
        <ele>706.8</ele>
        <time>2019-08-21T08:50:45Z</time>
        <sat>8</sat>
      </trkpt>
      <trkpt lat="42.421270" lon="-2.881469">
        <ele>707.6</ele>
        <time>2019-08-21T08:50:53Z</time>
        <sat>8</sat>
      </trkpt>
      <trkpt lat="42.421221" lon="-2.881561">
        <ele>708.1</ele>
        <time>2019-08-21T08:50:59Z</time>
        <sat>7</sat>
      </trkpt>
      <trkpt lat="42.421155" lon="-2.881662">
        <ele>708.0</ele>
        <time>2019-08-21T08:51:06Z</time>
        <sat>8</sat>
      </trkpt>
      <trkpt lat="42.421077" lon="-2.881803">
        <ele>708.1</ele>
        <time>2019-08-21T08:51:16Z</time>
        <sat>8</sat>
      </trkpt>
      <trkpt lat="42.421057" lon="-2.881830">
        <ele>707.3</ele>
        <time>2019-08-21T08:51:18Z</time>
        <sat>8</sat>
      </trkpt>
      <trkpt lat="42.420967" lon="-2.881965">
        <ele>708.4</ele>
        <time>2019-08-21T08:51:28Z</time>
        <sat>8</sat>
      </trkpt>
      <trkpt lat="42.420924" lon="-2.882054">
        <ele>708.6</ele>
        <time>2019-08-21T08:51:34Z</time>
        <sat>8</sat>
      </trkpt>
      <trkpt lat="42.420885" lon="-2.882102">
        <ele>708.9</ele>
        <time>2019-08-21T08:51:38Z</time>
        <sat>8</sat>
      </trkpt>
      <trkpt lat="42.420841" lon="-2.882191">
        <ele>709.1</ele>
        <time>2019-08-21T08:51:44Z</time>
        <sat>8</sat>
      </trkpt>
      <trkpt lat="42.420811" lon="-2.882230">
        <ele>709.1</ele>
        <time>2019-08-21T08:51:47Z</time>
        <sat>8</sat>
      </trkpt>
      <trkpt lat="42.420766" lon="-2.882324">
        <ele>709.2</ele>
        <time>2019-08-21T08:51:53Z</time>
        <sat>9</sat>
      </trkpt>
      <trkpt lat="42.420697" lon="-2.882431">
        <ele>709.3</ele>
        <time>2019-08-21T08:52:01Z</time>
        <sat>8</sat>
      </trkpt>
      <trkpt lat="42.420678" lon="-2.882478">
        <ele>709.3</ele>
        <time>2019-08-21T08:52:04Z</time>
        <sat>8</sat>
      </trkpt>
      <trkpt lat="42.420542" lon="-2.882694">
        <ele>709.8</ele>
        <time>2019-08-21T08:52:20Z</time>
        <sat>7</sat>
      </trkpt>
      <trkpt lat="42.420488" lon="-2.882805">
        <ele>710.2</ele>
        <time>2019-08-21T08:52:29Z</time>
        <sat>9</sat>
      </trkpt>
      <trkpt lat="42.420435" lon="-2.882911">
        <ele>710.7</ele>
        <time>2019-08-21T08:53:02Z</time>
        <sat>8</sat>
      </trkpt>
      <trkpt lat="42.420355" lon="-2.883055">
        <ele>711.0</ele>
        <time>2019-08-21T08:53:12Z</time>
        <sat>6</sat>
      </trkpt>
      <trkpt lat="42.420271" lon="-2.883180">
        <ele>711.1</ele>
        <time>2019-08-21T08:53:21Z</time>
        <sat>7</sat>
      </trkpt>
      <trkpt lat="42.420226" lon="-2.883272">
        <ele>711.2</ele>
        <time>2019-08-21T08:53:27Z</time>
        <sat>7</sat>
      </trkpt>
      <trkpt lat="42.420155" lon="-2.883380">
        <ele>711.3</ele>
        <time>2019-08-21T08:53:35Z</time>
        <sat>7</sat>
      </trkpt>
      <trkpt lat="42.420112" lon="-2.883465">
        <ele>711.4</ele>
        <time>2019-08-21T08:53:41Z</time>
        <sat>7</sat>
      </trkpt>
      <trkpt lat="42.420045" lon="-2.883560">
        <ele>711.6</ele>
        <time>2019-08-21T08:53:48Z</time>
        <sat>7</sat>
      </trkpt>
      <trkpt lat="42.420008" lon="-2.883640">
        <ele>711.7</ele>
        <time>2019-08-21T08:53:53Z</time>
        <sat>7</sat>
      </trkpt>
      <trkpt lat="42.419948" lon="-2.883716">
        <ele>711.7</ele>
        <time>2019-08-21T08:53:59Z</time>
        <sat>7</sat>
      </trkpt>
      <trkpt lat="42.419827" lon="-2.883944">
        <ele>712.4</ele>
        <time>2019-08-21T08:54:15Z</time>
        <sat>7</sat>
      </trkpt>
      <trkpt lat="42.419782" lon="-2.884015">
        <ele>712.6</ele>
        <time>2019-08-21T08:54:20Z</time>
        <sat>7</sat>
      </trkpt>
      <trkpt lat="42.419739" lon="-2.884106">
        <ele>713.1</ele>
        <time>2019-08-21T08:54:26Z</time>
        <sat>7</sat>
      </trkpt>
      <trkpt lat="42.419660" lon="-2.884218">
        <ele>713.6</ele>
        <time>2019-08-21T08:54:34Z</time>
        <sat>7</sat>
      </trkpt>
      <trkpt lat="42.419629" lon="-2.884286">
        <ele>713.8</ele>
        <time>2019-08-21T08:54:38Z</time>
        <sat>7</sat>
      </trkpt>
      <trkpt lat="42.419552" lon="-2.884395">
        <ele>714.1</ele>
        <time>2019-08-21T08:54:46Z</time>
        <sat>7</sat>
      </trkpt>
      <trkpt lat="42.419500" lon="-2.884495">
        <ele>714.4</ele>
        <time>2019-08-21T08:54:52Z</time>
        <sat>7</sat>
      </trkpt>
      <trkpt lat="42.419442" lon="-2.884580">
        <ele>714.8</ele>
        <time>2019-08-21T08:54:58Z</time>
        <sat>7</sat>
      </trkpt>
      <trkpt lat="42.419412" lon="-2.884642">
        <ele>715.0</ele>
        <time>2019-08-21T08:55:02Z</time>
        <sat>7</sat>
      </trkpt>
      <trkpt lat="42.419354" lon="-2.884724">
        <ele>715.4</ele>
        <time>2019-08-21T08:55:08Z</time>
        <sat>7</sat>
      </trkpt>
      <trkpt lat="42.419325" lon="-2.884784">
        <ele>715.6</ele>
        <time>2019-08-21T08:55:12Z</time>
        <sat>7</sat>
      </trkpt>
      <trkpt lat="42.419287" lon="-2.884843">
        <ele>715.9</ele>
        <time>2019-08-21T08:55:16Z</time>
        <sat>6</sat>
      </trkpt>
      <trkpt lat="42.419255" lon="-2.884882">
        <ele>716.0</ele>
        <time>2019-08-21T08:55:19Z</time>
        <sat>6</sat>
      </trkpt>
      <trkpt lat="42.419212" lon="-2.884954">
        <ele>716.4</ele>
        <time>2019-08-21T08:55:24Z</time>
        <sat>7</sat>
      </trkpt>
      <trkpt lat="42.419180" lon="-2.885042">
        <ele>716.9</ele>
        <time>2019-08-21T08:55:54Z</time>
        <sat>8</sat>
      </trkpt>
      <trkpt lat="42.419141" lon="-2.885090">
        <ele>717.2</ele>
        <time>2019-08-21T08:55:58Z</time>
        <sat>8</sat>
      </trkpt>
      <trkpt lat="42.419026" lon="-2.885261">
        <ele>717.6</ele>
        <time>2019-08-21T08:56:11Z</time>
        <sat>7</sat>
      </trkpt>
      <trkpt lat="42.418998" lon="-2.885330">
        <ele>717.8</ele>
        <time>2019-08-21T08:56:15Z</time>
        <sat>8</sat>
      </trkpt>
      <trkpt lat="42.418889" lon="-2.885491">
        <ele>718.4</ele>
        <time>2019-08-21T08:56:26Z</time>
        <sat>8</sat>
      </trkpt>
      <trkpt lat="42.418843" lon="-2.885583">
        <ele>718.8</ele>
        <time>2019-08-21T08:56:32Z</time>
        <sat>8</sat>
      </trkpt>
      <trkpt lat="42.418789" lon="-2.885647">
        <ele>719.2</ele>
        <time>2019-08-21T08:56:37Z</time>
        <sat>8</sat>
      </trkpt>
      <trkpt lat="42.418758" lon="-2.885712">
        <ele>719.5</ele>
        <time>2019-08-21T08:56:41Z</time>
        <sat>8</sat>
      </trkpt>
      <trkpt lat="42.418669" lon="-2.885824">
        <ele>720.3</ele>
        <time>2019-08-21T08:56:50Z</time>
        <sat>8</sat>
      </trkpt>
      <trkpt lat="42.418642" lon="-2.885846">
        <ele>721.5</ele>
        <time>2019-08-21T08:57:03Z</time>
        <sat>8</sat>
      </trkpt>
      <trkpt lat="42.418603" lon="-2.885860">
        <ele>721.6</ele>
        <time>2019-08-21T08:57:06Z</time>
        <sat>7</sat>
      </trkpt>
      <trkpt lat="42.418466" lon="-2.885817">
        <ele>721.9</ele>
        <time>2019-08-21T08:57:16Z</time>
        <sat>8</sat>
      </trkpt>
      <trkpt lat="42.418389" lon="-2.885814">
        <ele>721.9</ele>
        <time>2019-08-21T08:57:21Z</time>
        <sat>8</sat>
      </trkpt>
      <trkpt lat="42.418360" lon="-2.885833">
        <ele>721.9</ele>
        <time>2019-08-21T08:57:23Z</time>
        <sat>8</sat>
      </trkpt>
      <trkpt lat="42.418311" lon="-2.885929">
        <ele>722.0</ele>
        <time>2019-08-21T08:57:29Z</time>
        <sat>8</sat>
      </trkpt>
      <trkpt lat="42.418253" lon="-2.885997">
        <ele>722.1</ele>
        <time>2019-08-21T08:57:34Z</time>
        <sat>8</sat>
      </trkpt>
      <trkpt lat="42.418183" lon="-2.886108">
        <ele>722.4</ele>
        <time>2019-08-21T08:57:41Z</time>
        <sat>8</sat>
      </trkpt>
      <trkpt lat="42.418151" lon="-2.886170">
        <ele>722.6</ele>
        <time>2019-08-21T08:57:45Z</time>
        <sat>8</sat>
      </trkpt>
      <trkpt lat="42.418076" lon="-2.886256">
        <ele>722.9</ele>
        <time>2019-08-21T08:57:52Z</time>
        <sat>8</sat>
      </trkpt>
      <trkpt lat="42.418020" lon="-2.886306">
        <ele>723.1</ele>
        <time>2019-08-21T08:57:57Z</time>
        <sat>8</sat>
      </trkpt>
      <trkpt lat="42.417913" lon="-2.886367">
        <ele>723.5</ele>
        <time>2019-08-21T08:58:05Z</time>
        <sat>7</sat>
      </trkpt>
      <trkpt lat="42.417885" lon="-2.886405">
        <ele>723.7</ele>
        <time>2019-08-21T08:58:09Z</time>
        <sat>8</sat>
      </trkpt>
      <trkpt lat="42.417850" lon="-2.886472">
        <ele>723.8</ele>
        <time>2019-08-21T08:58:14Z</time>
        <sat>8</sat>
      </trkpt>
      <trkpt lat="42.417777" lon="-2.886562">
        <ele>724.1</ele>
        <time>2019-08-21T08:58:21Z</time>
        <sat>8</sat>
      </trkpt>
      <trkpt lat="42.417735" lon="-2.886644">
        <ele>724.4</ele>
        <time>2019-08-21T08:58:26Z</time>
        <sat>8</sat>
      </trkpt>
      <trkpt lat="42.417643" lon="-2.886788">
        <ele>724.6</ele>
        <time>2019-08-21T08:58:36Z</time>
        <sat>8</sat>
      </trkpt>
      <trkpt lat="42.417621" lon="-2.886835">
        <ele>724.7</ele>
        <time>2019-08-21T08:58:39Z</time>
        <sat>8</sat>
      </trkpt>
      <trkpt lat="42.417510" lon="-2.886994">
        <ele>725.2</ele>
        <time>2019-08-21T08:58:50Z</time>
        <sat>8</sat>
      </trkpt>
      <trkpt lat="42.417480" lon="-2.887060">
        <ele>725.3</ele>
        <time>2019-08-21T08:58:54Z</time>
        <sat>8</sat>
      </trkpt>
      <trkpt lat="42.417414" lon="-2.887154">
        <ele>725.8</ele>
        <time>2019-08-21T08:59:01Z</time>
        <sat>8</sat>
      </trkpt>
      <trkpt lat="42.417382" lon="-2.887219">
        <ele>726.0</ele>
        <time>2019-08-21T08:59:05Z</time>
        <sat>8</sat>
      </trkpt>
      <trkpt lat="42.417358" lon="-2.887300">
        <ele>725.8</ele>
        <time>2019-08-21T08:59:10Z</time>
        <sat>8</sat>
      </trkpt>
      <trkpt lat="42.417312" lon="-2.887376">
        <ele>726.6</ele>
        <time>2019-08-21T08:59:15Z</time>
        <sat>8</sat>
      </trkpt>
      <trkpt lat="42.417279" lon="-2.887413">
        <ele>726.5</ele>
        <time>2019-08-21T08:59:18Z</time>
        <sat>8</sat>
      </trkpt>
      <trkpt lat="42.417223" lon="-2.887521">
        <ele>726.1</ele>
        <time>2019-08-21T08:59:25Z</time>
        <sat>8</sat>
      </trkpt>
      <trkpt lat="42.417169" lon="-2.887591">
        <ele>726.0</ele>
        <time>2019-08-21T08:59:30Z</time>
        <sat>8</sat>
      </trkpt>
      <trkpt lat="42.417123" lon="-2.887670">
        <ele>725.8</ele>
        <time>2019-08-21T08:59:37Z</time>
        <sat>8</sat>
      </trkpt>
      <trkpt lat="42.417038" lon="-2.887808">
        <ele>725.9</ele>
        <time>2019-08-21T08:59:47Z</time>
        <sat>8</sat>
      </trkpt>
      <trkpt lat="42.416970" lon="-2.887906">
        <ele>725.6</ele>
        <time>2019-08-21T08:59:55Z</time>
        <sat>8</sat>
      </trkpt>
      <trkpt lat="42.416944" lon="-2.887957">
        <ele>727.7</ele>
        <time>2019-08-21T09:00:04Z</time>
        <sat>8</sat>
      </trkpt>
      <trkpt lat="42.416818" lon="-2.888128">
        <ele>728.7</ele>
        <time>2019-08-21T09:00:17Z</time>
        <sat>8</sat>
      </trkpt>
      <trkpt lat="42.416787" lon="-2.888187">
        <ele>728.8</ele>
        <time>2019-08-21T09:00:21Z</time>
        <sat>8</sat>
      </trkpt>
      <trkpt lat="42.416760" lon="-2.888250">
        <ele>729.0</ele>
        <time>2019-08-21T09:00:25Z</time>
        <sat>8</sat>
      </trkpt>
      <trkpt lat="42.416692" lon="-2.888343">
        <ele>729.1</ele>
        <time>2019-08-21T09:00:32Z</time>
        <sat>7</sat>
      </trkpt>
      <trkpt lat="42.416607" lon="-2.888490">
        <ele>729.6</ele>
        <time>2019-08-21T09:00:43Z</time>
        <sat>8</sat>
      </trkpt>
      <trkpt lat="42.416567" lon="-2.888554">
        <ele>729.9</ele>
        <time>2019-08-21T09:00:47Z</time>
        <sat>8</sat>
      </trkpt>
      <trkpt lat="42.416545" lon="-2.888582">
        <ele>729.9</ele>
        <time>2019-08-21T09:00:49Z</time>
        <sat>8</sat>
      </trkpt>
      <trkpt lat="42.416498" lon="-2.888673">
        <ele>730.0</ele>
        <time>2019-08-21T09:00:55Z</time>
        <sat>8</sat>
      </trkpt>
      <trkpt lat="42.416402" lon="-2.888797">
        <ele>730.4</ele>
        <time>2019-08-21T09:01:05Z</time>
        <sat>8</sat>
      </trkpt>
      <trkpt lat="42.416344" lon="-2.888900">
        <ele>730.7</ele>
        <time>2019-08-21T09:01:13Z</time>
        <sat>8</sat>
      </trkpt>
      <trkpt lat="42.416302" lon="-2.888959">
        <ele>730.9</ele>
        <time>2019-08-21T09:01:17Z</time>
        <sat>8</sat>
      </trkpt>
      <trkpt lat="42.416269" lon="-2.889018">
        <ele>730.9</ele>
        <time>2019-08-21T09:01:21Z</time>
        <sat>8</sat>
      </trkpt>
      <trkpt lat="42.416175" lon="-2.889148">
        <ele>731.5</ele>
        <time>2019-08-21T09:01:32Z</time>
        <sat>8</sat>
      </trkpt>
      <trkpt lat="42.416094" lon="-2.889294">
        <ele>731.8</ele>
        <time>2019-08-21T09:01:40Z</time>
        <sat>8</sat>
      </trkpt>
      <trkpt lat="42.416062" lon="-2.889338">
        <ele>731.9</ele>
        <time>2019-08-21T09:01:43Z</time>
        <sat>8</sat>
      </trkpt>
      <trkpt lat="42.416004" lon="-2.889442">
        <ele>732.0</ele>
        <time>2019-08-21T09:01:50Z</time>
        <sat>8</sat>
      </trkpt>
      <trkpt lat="42.415914" lon="-2.889575">
        <ele>732.3</ele>
        <time>2019-08-21T09:02:00Z</time>
        <sat>8</sat>
      </trkpt>
      <trkpt lat="42.415855" lon="-2.889681">
        <ele>732.5</ele>
        <time>2019-08-21T09:02:07Z</time>
        <sat>8</sat>
      </trkpt>
      <trkpt lat="42.415807" lon="-2.889744">
        <ele>732.6</ele>
        <time>2019-08-21T09:02:12Z</time>
        <sat>8</sat>
      </trkpt>
      <trkpt lat="42.415767" lon="-2.889826">
        <ele>732.8</ele>
        <time>2019-08-21T09:02:17Z</time>
        <sat>8</sat>
      </trkpt>
      <trkpt lat="42.415711" lon="-2.889997">
        <ele>733.2</ele>
        <time>2019-08-21T09:02:27Z</time>
        <sat>8</sat>
      </trkpt>
      <trkpt lat="42.415701" lon="-2.890074">
        <ele>733.1</ele>
        <time>2019-08-21T09:02:31Z</time>
        <sat>8</sat>
      </trkpt>
      <trkpt lat="42.415670" lon="-2.890177">
        <ele>733.2</ele>
        <time>2019-08-21T09:02:37Z</time>
        <sat>8</sat>
      </trkpt>
      <trkpt lat="42.415673" lon="-2.890413">
        <ele>733.2</ele>
        <time>2019-08-21T09:02:50Z</time>
        <sat>8</sat>
      </trkpt>
      <trkpt lat="42.415688" lon="-2.890628">
        <ele>733.2</ele>
        <time>2019-08-21T09:03:02Z</time>
        <sat>8</sat>
      </trkpt>
      <trkpt lat="42.415686" lon="-2.890718">
        <ele>733.2</ele>
        <time>2019-08-21T09:03:07Z</time>
        <sat>8</sat>
      </trkpt>
      <trkpt lat="42.415697" lon="-2.890963">
        <ele>733.0</ele>
        <time>2019-08-21T09:03:20Z</time>
        <sat>8</sat>
      </trkpt>
      <trkpt lat="42.415711" lon="-2.891092">
        <ele>732.9</ele>
        <time>2019-08-21T09:03:27Z</time>
        <sat>8</sat>
      </trkpt>
      <trkpt lat="42.415708" lon="-2.891287">
        <ele>733.1</ele>
        <time>2019-08-21T09:03:38Z</time>
        <sat>8</sat>
      </trkpt>
      <trkpt lat="42.415712" lon="-2.891302">
        <ele>733.0</ele>
        <time>2019-08-21T09:03:39Z</time>
        <sat>8</sat>
      </trkpt>
      <trkpt lat="42.415715" lon="-2.891430">
        <ele>733.0</ele>
        <time>2019-08-21T09:03:46Z</time>
        <sat>8</sat>
      </trkpt>
      <trkpt lat="42.415724" lon="-2.891606">
        <ele>732.7</ele>
        <time>2019-08-21T09:03:56Z</time>
        <sat>8</sat>
      </trkpt>
      <trkpt lat="42.415735" lon="-2.891683">
        <ele>732.7</ele>
        <time>2019-08-21T09:04:00Z</time>
        <sat>8</sat>
      </trkpt>
      <trkpt lat="42.415739" lon="-2.891829">
        <ele>732.7</ele>
        <time>2019-08-21T09:04:08Z</time>
        <sat>8</sat>
      </trkpt>
      <trkpt lat="42.415732" lon="-2.891924">
        <ele>732.6</ele>
        <time>2019-08-21T09:04:13Z</time>
        <sat>8</sat>
      </trkpt>
      <trkpt lat="42.415751" lon="-2.892124">
        <ele>732.5</ele>
        <time>2019-08-21T09:04:24Z</time>
        <sat>8</sat>
      </trkpt>
      <trkpt lat="42.415762" lon="-2.892294">
        <ele>732.4</ele>
        <time>2019-08-21T09:04:33Z</time>
        <sat>8</sat>
      </trkpt>
      <trkpt lat="42.415758" lon="-2.892364">
        <ele>732.4</ele>
        <time>2019-08-21T09:04:37Z</time>
        <sat>8</sat>
      </trkpt>
      <trkpt lat="42.415713" lon="-2.892436">
        <ele>732.4</ele>
        <time>2019-08-21T09:04:42Z</time>
        <sat>8</sat>
      </trkpt>
      <trkpt lat="42.415663" lon="-2.892457">
        <ele>732.5</ele>
        <time>2019-08-21T09:04:46Z</time>
        <sat>7</sat>
      </trkpt>
      <trkpt lat="42.415615" lon="-2.892443">
        <ele>732.7</ele>
        <time>2019-08-21T09:04:50Z</time>
        <sat>8</sat>
      </trkpt>
      <trkpt lat="42.415456" lon="-2.892466">
        <ele>733.0</ele>
        <time>2019-08-21T09:05:01Z</time>
        <sat>8</sat>
      </trkpt>
      <trkpt lat="42.415386" lon="-2.892451">
        <ele>733.5</ele>
        <time>2019-08-21T09:05:06Z</time>
        <sat>8</sat>
      </trkpt>
      <trkpt lat="42.415331" lon="-2.892464">
        <ele>733.8</ele>
        <time>2019-08-21T09:05:10Z</time>
        <sat>8</sat>
      </trkpt>
      <trkpt lat="42.415229" lon="-2.892467">
        <ele>734.2</ele>
        <time>2019-08-21T09:05:17Z</time>
        <sat>8</sat>
      </trkpt>
      <trkpt lat="42.415140" lon="-2.892481">
        <ele>734.7</ele>
        <time>2019-08-21T09:05:23Z</time>
        <sat>8</sat>
      </trkpt>
      <trkpt lat="42.415038" lon="-2.892479">
        <ele>735.2</ele>
        <time>2019-08-21T09:05:30Z</time>
        <sat>8</sat>
      </trkpt>
      <trkpt lat="42.414983" lon="-2.892489">
        <ele>735.4</ele>
        <time>2019-08-21T09:05:34Z</time>
        <sat>8</sat>
      </trkpt>
      <trkpt lat="42.414933" lon="-2.892486">
        <ele>735.8</ele>
        <time>2019-08-21T09:05:38Z</time>
        <sat>8</sat>
      </trkpt>
      <trkpt lat="42.414865" lon="-2.892495">
        <ele>736.2</ele>
        <time>2019-08-21T09:05:43Z</time>
        <sat>8</sat>
      </trkpt>
      <trkpt lat="42.414788" lon="-2.892525">
        <ele>736.8</ele>
        <time>2019-08-21T09:05:49Z</time>
        <sat>8</sat>
      </trkpt>
      <trkpt lat="42.414723" lon="-2.892527">
        <ele>737.1</ele>
        <time>2019-08-21T09:05:54Z</time>
        <sat>8</sat>
      </trkpt>
      <trkpt lat="42.414668" lon="-2.892538">
        <ele>737.3</ele>
        <time>2019-08-21T09:05:58Z</time>
        <sat>8</sat>
      </trkpt>
      <trkpt lat="42.414596" lon="-2.892537">
        <ele>737.6</ele>
        <time>2019-08-21T09:06:03Z</time>
        <sat>8</sat>
      </trkpt>
      <trkpt lat="42.414534" lon="-2.892564">
        <ele>738.0</ele>
        <time>2019-08-21T09:06:09Z</time>
        <sat>8</sat>
      </trkpt>
      <trkpt lat="42.414458" lon="-2.892639">
        <ele>738.4</ele>
        <time>2019-08-21T09:06:16Z</time>
        <sat>8</sat>
      </trkpt>
      <trkpt lat="42.414440" lon="-2.892702">
        <ele>738.7</ele>
        <time>2019-08-21T09:06:20Z</time>
        <sat>8</sat>
      </trkpt>
      <trkpt lat="42.414429" lon="-2.892793">
        <ele>739.0</ele>
        <time>2019-08-21T09:06:25Z</time>
        <sat>8</sat>
      </trkpt>
      <trkpt lat="42.414441" lon="-2.892911">
        <ele>739.2</ele>
        <time>2019-08-21T09:06:31Z</time>
        <sat>8</sat>
      </trkpt>
      <trkpt lat="42.414431" lon="-2.893182">
        <ele>739.5</ele>
        <time>2019-08-21T09:06:46Z</time>
        <sat>8</sat>
      </trkpt>
      <trkpt lat="42.414444" lon="-2.893310">
        <ele>739.6</ele>
        <time>2019-08-21T09:06:53Z</time>
        <sat>8</sat>
      </trkpt>
      <trkpt lat="42.414425" lon="-2.893442">
        <ele>739.9</ele>
        <time>2019-08-21T09:07:00Z</time>
        <sat>7</sat>
      </trkpt>
      <trkpt lat="42.414401" lon="-2.893549">
        <ele>740.1</ele>
        <time>2019-08-21T09:07:06Z</time>
        <sat>8</sat>
      </trkpt>
      <trkpt lat="42.414360" lon="-2.893644">
        <ele>740.3</ele>
        <time>2019-08-21T09:07:12Z</time>
        <sat>8</sat>
      </trkpt>
      <trkpt lat="42.414304" lon="-2.893791">
        <ele>740.5</ele>
        <time>2019-08-21T09:07:21Z</time>
        <sat>8</sat>
      </trkpt>
      <trkpt lat="42.414244" lon="-2.893890">
        <ele>740.7</ele>
        <time>2019-08-21T09:07:28Z</time>
        <sat>8</sat>
      </trkpt>
      <trkpt lat="42.414214" lon="-2.893954">
        <ele>740.8</ele>
        <time>2019-08-21T09:07:32Z</time>
        <sat>8</sat>
      </trkpt>
      <trkpt lat="42.414132" lon="-2.894055">
        <ele>741.2</ele>
        <time>2019-08-21T09:07:40Z</time>
        <sat>8</sat>
      </trkpt>
      <trkpt lat="42.414068" lon="-2.894169">
        <ele>741.6</ele>
        <time>2019-08-21T09:07:48Z</time>
        <sat>8</sat>
      </trkpt>
      <trkpt lat="42.414026" lon="-2.894220">
        <ele>741.9</ele>
        <time>2019-08-21T09:07:52Z</time>
        <sat>8</sat>
      </trkpt>
      <trkpt lat="42.413970" lon="-2.894319">
        <ele>742.3</ele>
        <time>2019-08-21T09:07:59Z</time>
        <sat>8</sat>
      </trkpt>
      <trkpt lat="42.413919" lon="-2.894383">
        <ele>742.4</ele>
        <time>2019-08-21T09:08:04Z</time>
        <sat>8</sat>
      </trkpt>
      <trkpt lat="42.413880" lon="-2.894462">
        <ele>742.6</ele>
        <time>2019-08-21T09:08:09Z</time>
        <sat>8</sat>
      </trkpt>
      <trkpt lat="42.413797" lon="-2.894555">
        <ele>742.9</ele>
        <time>2019-08-21T09:08:17Z</time>
        <sat>8</sat>
      </trkpt>
      <trkpt lat="42.413708" lon="-2.894704">
        <ele>743.5</ele>
        <time>2019-08-21T09:08:27Z</time>
        <sat>8</sat>
      </trkpt>
      <trkpt lat="42.413657" lon="-2.894806">
        <ele>744.0</ele>
        <time>2019-08-21T09:08:34Z</time>
        <sat>8</sat>
      </trkpt>
      <trkpt lat="42.413561" lon="-2.894932">
        <ele>744.1</ele>
        <time>2019-08-21T09:08:44Z</time>
        <sat>8</sat>
      </trkpt>
      <trkpt lat="42.413537" lon="-2.894995">
        <ele>744.0</ele>
        <time>2019-08-21T09:08:48Z</time>
        <sat>8</sat>
      </trkpt>
      <trkpt lat="42.413477" lon="-2.895067">
        <ele>743.8</ele>
        <time>2019-08-21T09:08:59Z</time>
        <sat>7</sat>
      </trkpt>
      <trkpt lat="42.413419" lon="-2.895088">
        <ele>743.4</ele>
        <time>2019-08-21T09:09:16Z</time>
        <sat>8</sat>
      </trkpt>
      <trkpt lat="42.413342" lon="-2.895114">
        <ele>743.1</ele>
        <time>2019-08-21T09:09:23Z</time>
        <sat>8</sat>
      </trkpt>
      <trkpt lat="42.413325" lon="-2.895161">
        <ele>742.8</ele>
        <time>2019-08-21T09:09:33Z</time>
        <sat>8</sat>
      </trkpt>
      <trkpt lat="42.413137" lon="-2.895243">
        <ele>742.1</ele>
        <time>2019-08-21T09:09:49Z</time>
        <sat>8</sat>
      </trkpt>
      <trkpt lat="42.413111" lon="-2.895260">
        <ele>742.0</ele>
        <time>2019-08-21T09:09:51Z</time>
        <sat>8</sat>
      </trkpt>
      <trkpt lat="42.413050" lon="-2.895355">
        <ele>741.8</ele>
        <time>2019-08-21T09:09:58Z</time>
        <sat>8</sat>
      </trkpt>
      <trkpt lat="42.413021" lon="-2.895420">
        <ele>741.7</ele>
        <time>2019-08-21T09:10:02Z</time>
        <sat>8</sat>
      </trkpt>
      <trkpt lat="42.412959" lon="-2.895590">
        <ele>741.6</ele>
        <time>2019-08-21T09:10:12Z</time>
        <sat>8</sat>
      </trkpt>
      <trkpt lat="42.412883" lon="-2.895807">
        <ele>742.1</ele>
        <time>2019-08-21T09:10:25Z</time>
        <sat>8</sat>
      </trkpt>
      <trkpt lat="42.412800" lon="-2.896005">
        <ele>743.1</ele>
        <time>2019-08-21T09:10:39Z</time>
        <sat>8</sat>
      </trkpt>
      <trkpt lat="42.412799" lon="-2.896104">
        <ele>743.6</ele>
        <time>2019-08-21T09:10:47Z</time>
        <sat>8</sat>
      </trkpt>
      <trkpt lat="42.412790" lon="-2.896140">
        <ele>744.1</ele>
        <time>2019-08-21T09:10:56Z</time>
        <sat>8</sat>
      </trkpt>
      <trkpt lat="42.412842" lon="-2.896139">
        <ele>744.4</ele>
        <time>2019-08-21T09:11:01Z</time>
        <sat>8</sat>
      </trkpt>
      <trkpt lat="42.412887" lon="-2.896158">
        <ele>744.6</ele>
        <time>2019-08-21T09:11:05Z</time>
        <sat>8</sat>
      </trkpt>
      <trkpt lat="42.412942" lon="-2.896170">
        <ele>744.5</ele>
        <time>2019-08-21T09:11:09Z</time>
        <sat>8</sat>
      </trkpt>
      <trkpt lat="42.413096" lon="-2.896233">
        <ele>744.0</ele>
        <time>2019-08-21T09:11:21Z</time>
        <sat>8</sat>
      </trkpt>
      <trkpt lat="42.413173" lon="-2.896231">
        <ele>743.8</ele>
        <time>2019-08-21T09:11:27Z</time>
        <sat>8</sat>
      </trkpt>
      <trkpt lat="42.413323" lon="-2.896271">
        <ele>743.2</ele>
        <time>2019-08-21T09:11:38Z</time>
        <sat>8</sat>
      </trkpt>
      <trkpt lat="42.413454" lon="-2.896375">
        <ele>742.7</ele>
        <time>2019-08-21T09:11:50Z</time>
        <sat>8</sat>
      </trkpt>
      <trkpt lat="42.413536" lon="-2.896386">
        <ele>742.4</ele>
        <time>2019-08-21T09:11:56Z</time>
        <sat>8</sat>
      </trkpt>
      <trkpt lat="42.413603" lon="-2.896421">
        <ele>742.1</ele>
        <time>2019-08-21T09:12:01Z</time>
        <sat>8</sat>
      </trkpt>
      <trkpt lat="42.413672" lon="-2.896446">
        <ele>741.6</ele>
        <time>2019-08-21T09:12:06Z</time>
        <sat>8</sat>
      </trkpt>
      <trkpt lat="42.413708" lon="-2.896476">
        <ele>741.4</ele>
        <time>2019-08-21T09:12:09Z</time>
        <sat>8</sat>
      </trkpt>
      <trkpt lat="42.413774" lon="-2.896518">
        <ele>741.2</ele>
        <time>2019-08-21T09:12:14Z</time>
        <sat>8</sat>
      </trkpt>
      <trkpt lat="42.413833" lon="-2.896595">
        <ele>740.7</ele>
        <time>2019-08-21T09:12:20Z</time>
        <sat>8</sat>
      </trkpt>
      <trkpt lat="42.413889" lon="-2.896795">
        <ele>740.0</ele>
        <time>2019-08-21T09:12:31Z</time>
        <sat>8</sat>
      </trkpt>
      <trkpt lat="42.413935" lon="-2.896874">
        <ele>739.7</ele>
        <time>2019-08-21T09:12:36Z</time>
        <sat>8</sat>
      </trkpt>
      <trkpt lat="42.413994" lon="-2.896949">
        <ele>739.2</ele>
        <time>2019-08-21T09:12:42Z</time>
        <sat>8</sat>
      </trkpt>
      <trkpt lat="42.414057" lon="-2.896991">
        <ele>738.5</ele>
        <time>2019-08-21T09:12:47Z</time>
        <sat>8</sat>
      </trkpt>
      <trkpt lat="42.414198" lon="-2.897034">
        <ele>737.1</ele>
        <time>2019-08-21T09:12:57Z</time>
        <sat>8</sat>
      </trkpt>
      <trkpt lat="42.414272" lon="-2.897092">
        <ele>736.0</ele>
        <time>2019-08-21T09:13:03Z</time>
        <sat>8</sat>
      </trkpt>
      <trkpt lat="42.414311" lon="-2.897192">
        <ele>735.3</ele>
        <time>2019-08-21T09:13:09Z</time>
        <sat>8</sat>
      </trkpt>
      <trkpt lat="42.414383" lon="-2.897415">
        <ele>733.5</ele>
        <time>2019-08-21T09:13:21Z</time>
        <sat>8</sat>
      </trkpt>
      <trkpt lat="42.414462" lon="-2.897608">
        <ele>732.5</ele>
        <time>2019-08-21T09:13:32Z</time>
        <sat>7</sat>
      </trkpt>
      <trkpt lat="42.414507" lon="-2.897796">
        <ele>731.7</ele>
        <time>2019-08-21T09:13:42Z</time>
        <sat>7</sat>
      </trkpt>
      <trkpt lat="42.414544" lon="-2.897904">
        <ele>731.2</ele>
        <time>2019-08-21T09:13:48Z</time>
        <sat>8</sat>
      </trkpt>
      <trkpt lat="42.414575" lon="-2.897971">
        <ele>730.9</ele>
        <time>2019-08-21T09:13:52Z</time>
        <sat>8</sat>
      </trkpt>
      <trkpt lat="42.414662" lon="-2.898131">
        <ele>730.5</ele>
        <time>2019-08-21T09:14:02Z</time>
        <sat>8</sat>
      </trkpt>
      <trkpt lat="42.414692" lon="-2.898220">
        <ele>730.4</ele>
        <time>2019-08-21T09:14:07Z</time>
        <sat>8</sat>
      </trkpt>
      <trkpt lat="42.414736" lon="-2.898276">
        <ele>729.6</ele>
        <time>2019-08-21T09:15:43Z</time>
        <sat>9</sat>
      </trkpt>
      <trkpt lat="42.414774" lon="-2.898334">
        <ele>729.6</ele>
        <time>2019-08-21T09:15:47Z</time>
        <sat>9</sat>
      </trkpt>
      <trkpt lat="42.414927" lon="-2.898516">
        <ele>729.5</ele>
        <time>2019-08-21T09:16:02Z</time>
        <sat>9</sat>
      </trkpt>
      <trkpt lat="42.414988" lon="-2.898563">
        <ele>729.4</ele>
        <time>2019-08-21T09:16:07Z</time>
        <sat>9</sat>
      </trkpt>
      <trkpt lat="42.415035" lon="-2.898588">
        <ele>729.3</ele>
        <time>2019-08-21T09:16:11Z</time>
        <sat>9</sat>
      </trkpt>
      <trkpt lat="42.415105" lon="-2.898644">
        <ele>729.1</ele>
        <time>2019-08-21T09:16:17Z</time>
        <sat>9</sat>
      </trkpt>
      <trkpt lat="42.415190" lon="-2.898698">
        <ele>728.8</ele>
        <time>2019-08-21T09:16:24Z</time>
        <sat>9</sat>
      </trkpt>
      <trkpt lat="42.415251" lon="-2.898794">
        <ele>728.6</ele>
        <time>2019-08-21T09:16:31Z</time>
        <sat>9</sat>
      </trkpt>
      <trkpt lat="42.415275" lon="-2.898912">
        <ele>728.6</ele>
        <time>2019-08-21T09:16:38Z</time>
        <sat>9</sat>
      </trkpt>
      <trkpt lat="42.415304" lon="-2.899143">
        <ele>728.4</ele>
        <time>2019-08-21T09:16:52Z</time>
        <sat>9</sat>
      </trkpt>
      <trkpt lat="42.415305" lon="-2.899218">
        <ele>728.4</ele>
        <time>2019-08-21T09:16:56Z</time>
        <sat>9</sat>
      </trkpt>
      <trkpt lat="42.415328" lon="-2.899331">
        <ele>728.4</ele>
        <time>2019-08-21T09:17:02Z</time>
        <sat>9</sat>
      </trkpt>
      <trkpt lat="42.415346" lon="-2.899511">
        <ele>728.6</ele>
        <time>2019-08-21T09:17:12Z</time>
        <sat>9</sat>
      </trkpt>
      <trkpt lat="42.415385" lon="-2.899752">
        <ele>728.8</ele>
        <time>2019-08-21T09:17:26Z</time>
        <sat>9</sat>
      </trkpt>
      <trkpt lat="42.415418" lon="-2.899916">
        <ele>728.8</ele>
        <time>2019-08-21T09:17:35Z</time>
        <sat>9</sat>
      </trkpt>
      <trkpt lat="42.415439" lon="-2.900084">
        <ele>729.0</ele>
        <time>2019-08-21T09:17:44Z</time>
        <sat>9</sat>
      </trkpt>
      <trkpt lat="42.415454" lon="-2.900137">
        <ele>729.0</ele>
        <time>2019-08-21T09:17:47Z</time>
        <sat>9</sat>
      </trkpt>
      <trkpt lat="42.415486" lon="-2.900373">
        <ele>729.0</ele>
        <time>2019-08-21T09:18:00Z</time>
        <sat>9</sat>
      </trkpt>
      <trkpt lat="42.415507" lon="-2.900491">
        <ele>729.0</ele>
        <time>2019-08-21T09:18:07Z</time>
        <sat>9</sat>
      </trkpt>
      <trkpt lat="42.415511" lon="-2.900568">
        <ele>728.9</ele>
        <time>2019-08-21T09:18:11Z</time>
        <sat>9</sat>
      </trkpt>
      <trkpt lat="42.415501" lon="-2.900648">
        <ele>728.9</ele>
        <time>2019-08-21T09:18:15Z</time>
        <sat>9</sat>
      </trkpt>
      <trkpt lat="42.415501" lon="-2.900722">
        <ele>729.0</ele>
        <time>2019-08-21T09:18:19Z</time>
        <sat>9</sat>
      </trkpt>
      <trkpt lat="42.415522" lon="-2.900964">
        <ele>729.0</ele>
        <time>2019-08-21T09:18:32Z</time>
        <sat>9</sat>
      </trkpt>
      <trkpt lat="42.415547" lon="-2.901135">
        <ele>728.9</ele>
        <time>2019-08-21T09:18:41Z</time>
        <sat>9</sat>
      </trkpt>
      <trkpt lat="42.415568" lon="-2.901246">
        <ele>728.9</ele>
        <time>2019-08-21T09:18:47Z</time>
        <sat>9</sat>
      </trkpt>
      <trkpt lat="42.415581" lon="-2.901378">
        <ele>728.9</ele>
        <time>2019-08-21T09:18:54Z</time>
        <sat>8</sat>
      </trkpt>
      <trkpt lat="42.415593" lon="-2.901433">
        <ele>728.9</ele>
        <time>2019-08-21T09:18:57Z</time>
        <sat>9</sat>
      </trkpt>
      <trkpt lat="42.415613" lon="-2.901596">
        <ele>728.7</ele>
        <time>2019-08-21T09:19:06Z</time>
        <sat>8</sat>
      </trkpt>
      <trkpt lat="42.415629" lon="-2.901686">
        <ele>728.7</ele>
        <time>2019-08-21T09:19:11Z</time>
        <sat>9</sat>
      </trkpt>
      <trkpt lat="42.415651" lon="-2.901917">
        <ele>728.6</ele>
        <time>2019-08-21T09:19:24Z</time>
        <sat>9</sat>
      </trkpt>
      <trkpt lat="42.415691" lon="-2.902189">
        <ele>729.0</ele>
        <time>2019-08-21T09:19:39Z</time>
        <sat>9</sat>
      </trkpt>
      <trkpt lat="42.415708" lon="-2.902278">
        <ele>728.8</ele>
        <time>2019-08-21T09:19:44Z</time>
        <sat>9</sat>
      </trkpt>
      <trkpt lat="42.415721" lon="-2.902428">
        <ele>728.6</ele>
        <time>2019-08-21T09:19:52Z</time>
        <sat>9</sat>
      </trkpt>
      <trkpt lat="42.415745" lon="-2.902575">
        <ele>728.4</ele>
        <time>2019-08-21T09:20:00Z</time>
        <sat>9</sat>
      </trkpt>
      <trkpt lat="42.415754" lon="-2.902726">
        <ele>728.3</ele>
        <time>2019-08-21T09:20:08Z</time>
        <sat>9</sat>
      </trkpt>
      <trkpt lat="42.415776" lon="-2.902835">
        <ele>728.2</ele>
        <time>2019-08-21T09:20:14Z</time>
        <sat>9</sat>
      </trkpt>
      <trkpt lat="42.415791" lon="-2.902999">
        <ele>728.2</ele>
        <time>2019-08-21T09:20:23Z</time>
        <sat>9</sat>
      </trkpt>
      <trkpt lat="42.415814" lon="-2.903106">
        <ele>728.2</ele>
        <time>2019-08-21T09:20:29Z</time>
        <sat>9</sat>
      </trkpt>
      <trkpt lat="42.415827" lon="-2.903238">
        <ele>728.3</ele>
        <time>2019-08-21T09:20:36Z</time>
        <sat>9</sat>
      </trkpt>
      <trkpt lat="42.415845" lon="-2.903327">
        <ele>728.4</ele>
        <time>2019-08-21T09:20:41Z</time>
        <sat>9</sat>
      </trkpt>
      <trkpt lat="42.415853" lon="-2.903440">
        <ele>728.7</ele>
        <time>2019-08-21T09:20:47Z</time>
        <sat>9</sat>
      </trkpt>
      <trkpt lat="42.415868" lon="-2.903510">
        <ele>728.8</ele>
        <time>2019-08-21T09:20:51Z</time>
        <sat>9</sat>
      </trkpt>
      <trkpt lat="42.415874" lon="-2.903601">
        <ele>729.1</ele>
        <time>2019-08-21T09:20:56Z</time>
        <sat>9</sat>
      </trkpt>
      <trkpt lat="42.415888" lon="-2.903669">
        <ele>729.3</ele>
        <time>2019-08-21T09:21:00Z</time>
        <sat>9</sat>
      </trkpt>
      <trkpt lat="42.415916" lon="-2.903878">
        <ele>730.3</ele>
        <time>2019-08-21T09:21:12Z</time>
        <sat>9</sat>
      </trkpt>
      <trkpt lat="42.415943" lon="-2.903968">
        <ele>730.8</ele>
        <time>2019-08-21T09:21:18Z</time>
        <sat>9</sat>
      </trkpt>
      <trkpt lat="42.415958" lon="-2.904055">
        <ele>731.3</ele>
        <time>2019-08-21T09:21:23Z</time>
        <sat>9</sat>
      </trkpt>
      <trkpt lat="42.415950" lon="-2.904146">
        <ele>732.0</ele>
        <time>2019-08-21T09:21:28Z</time>
        <sat>9</sat>
      </trkpt>
      <trkpt lat="42.415980" lon="-2.904366">
        <ele>733.7</ele>
        <time>2019-08-21T09:21:41Z</time>
        <sat>9</sat>
      </trkpt>
      <trkpt lat="42.415994" lon="-2.904433">
        <ele>734.3</ele>
        <time>2019-08-21T09:21:45Z</time>
        <sat>9</sat>
      </trkpt>
      <trkpt lat="42.416012" lon="-2.904639">
        <ele>735.6</ele>
        <time>2019-08-21T09:21:57Z</time>
        <sat>8</sat>
      </trkpt>
      <trkpt lat="42.416030" lon="-2.904740">
        <ele>735.8</ele>
        <time>2019-08-21T09:22:03Z</time>
        <sat>9</sat>
      </trkpt>
      <trkpt lat="42.416059" lon="-2.904947">
        <ele>736.1</ele>
        <time>2019-08-21T09:22:15Z</time>
        <sat>9</sat>
      </trkpt>
      <trkpt lat="42.416062" lon="-2.905037">
        <ele>736.2</ele>
        <time>2019-08-21T09:22:20Z</time>
        <sat>9</sat>
      </trkpt>
      <trkpt lat="42.416099" lon="-2.905150">
        <ele>736.0</ele>
        <time>2019-08-21T09:22:28Z</time>
        <sat>9</sat>
      </trkpt>
      <trkpt lat="42.416144" lon="-2.905342">
        <ele>735.2</ele>
        <time>2019-08-21T09:22:46Z</time>
        <sat>9</sat>
      </trkpt>
      <trkpt lat="42.416190" lon="-2.905447">
        <ele>733.7</ele>
        <time>2019-08-21T09:23:01Z</time>
        <sat>9</sat>
      </trkpt>
      <trkpt lat="42.416220" lon="-2.905586">
        <ele>733.0</ele>
        <time>2019-08-21T09:23:09Z</time>
        <sat>9</sat>
      </trkpt>
      <trkpt lat="42.416302" lon="-2.905834">
        <ele>730.8</ele>
        <time>2019-08-21T09:23:24Z</time>
        <sat>9</sat>
      </trkpt>
      <trkpt lat="42.416352" lon="-2.905965">
        <ele>729.7</ele>
        <time>2019-08-21T09:23:32Z</time>
        <sat>9</sat>
      </trkpt>
      <trkpt lat="42.416413" lon="-2.906160">
        <ele>727.6</ele>
        <time>2019-08-21T09:23:44Z</time>
        <sat>9</sat>
      </trkpt>
      <trkpt lat="42.416447" lon="-2.906240">
        <ele>726.7</ele>
        <time>2019-08-21T09:23:49Z</time>
        <sat>8</sat>
      </trkpt>
      <trkpt lat="42.416486" lon="-2.906365">
        <ele>725.5</ele>
        <time>2019-08-21T09:23:57Z</time>
        <sat>9</sat>
      </trkpt>
      <trkpt lat="42.416548" lon="-2.906521">
        <ele>724.1</ele>
        <time>2019-08-21T09:24:07Z</time>
        <sat>9</sat>
      </trkpt>
      <trkpt lat="42.416580" lon="-2.906628">
        <ele>722.7</ele>
        <time>2019-08-21T09:24:14Z</time>
        <sat>9</sat>
      </trkpt>
      <trkpt lat="42.416633" lon="-2.906769">
        <ele>721.3</ele>
        <time>2019-08-21T09:24:23Z</time>
        <sat>9</sat>
      </trkpt>
      <trkpt lat="42.416657" lon="-2.906862">
        <ele>720.3</ele>
        <time>2019-08-21T09:24:29Z</time>
        <sat>9</sat>
      </trkpt>
      <trkpt lat="42.416707" lon="-2.906994">
        <ele>719.3</ele>
        <time>2019-08-21T09:24:38Z</time>
        <sat>9</sat>
      </trkpt>
      <trkpt lat="42.416767" lon="-2.907161">
        <ele>718.2</ele>
        <time>2019-08-21T09:24:49Z</time>
        <sat>9</sat>
      </trkpt>
      <trkpt lat="42.416793" lon="-2.907253">
        <ele>717.6</ele>
        <time>2019-08-21T09:24:55Z</time>
        <sat>9</sat>
      </trkpt>
      <trkpt lat="42.416824" lon="-2.907329">
        <ele>717.3</ele>
        <time>2019-08-21T09:25:00Z</time>
        <sat>9</sat>
      </trkpt>
      <trkpt lat="42.416858" lon="-2.907438">
        <ele>716.8</ele>
        <time>2019-08-21T09:25:07Z</time>
        <sat>9</sat>
      </trkpt>
      <trkpt lat="42.416879" lon="-2.907484">
        <ele>716.6</ele>
        <time>2019-08-21T09:25:10Z</time>
        <sat>9</sat>
      </trkpt>
      <trkpt lat="42.416939" lon="-2.907653">
        <ele>716.0</ele>
        <time>2019-08-21T09:25:21Z</time>
        <sat>9</sat>
      </trkpt>
      <trkpt lat="42.416967" lon="-2.907707">
        <ele>715.9</ele>
        <time>2019-08-21T09:25:25Z</time>
        <sat>9</sat>
      </trkpt>
      <trkpt lat="42.416987" lon="-2.907774">
        <ele>715.6</ele>
        <time>2019-08-21T09:25:29Z</time>
        <sat>9</sat>
      </trkpt>
      <trkpt lat="42.417054" lon="-2.907948">
        <ele>715.1</ele>
        <time>2019-08-21T09:25:40Z</time>
        <sat>9</sat>
      </trkpt>
      <trkpt lat="42.417087" lon="-2.908071">
        <ele>714.8</ele>
        <time>2019-08-21T09:25:47Z</time>
        <sat>9</sat>
      </trkpt>
      <trkpt lat="42.417154" lon="-2.908270">
        <ele>714.5</ele>
        <time>2019-08-21T09:25:59Z</time>
        <sat>9</sat>
      </trkpt>
      <trkpt lat="42.417192" lon="-2.908367">
        <ele>714.3</ele>
        <time>2019-08-21T09:26:05Z</time>
        <sat>8</sat>
      </trkpt>
      <trkpt lat="42.417213" lon="-2.908465">
        <ele>714.1</ele>
        <time>2019-08-21T09:26:11Z</time>
        <sat>9</sat>
      </trkpt>
      <trkpt lat="42.417252" lon="-2.908567">
        <ele>714.0</ele>
        <time>2019-08-21T09:26:17Z</time>
        <sat>9</sat>
      </trkpt>
      <trkpt lat="42.417350" lon="-2.908806">
        <ele>714.0</ele>
        <time>2019-08-21T09:26:32Z</time>
        <sat>9</sat>
      </trkpt>
      <trkpt lat="42.417372" lon="-2.908894">
        <ele>714.2</ele>
        <time>2019-08-21T09:26:37Z</time>
        <sat>9</sat>
      </trkpt>
      <trkpt lat="42.417398" lon="-2.908956">
        <ele>714.3</ele>
        <time>2019-08-21T09:26:41Z</time>
        <sat>9</sat>
      </trkpt>
      <trkpt lat="42.417428" lon="-2.909058">
        <ele>714.5</ele>
        <time>2019-08-21T09:26:47Z</time>
        <sat>9</sat>
      </trkpt>
      <trkpt lat="42.417450" lon="-2.909106">
        <ele>714.7</ele>
        <time>2019-08-21T09:26:50Z</time>
        <sat>9</sat>
      </trkpt>
      <trkpt lat="42.417479" lon="-2.909206">
        <ele>715.0</ele>
        <time>2019-08-21T09:26:56Z</time>
        <sat>9</sat>
      </trkpt>
      <trkpt lat="42.417507" lon="-2.909269">
        <ele>715.3</ele>
        <time>2019-08-21T09:27:00Z</time>
        <sat>9</sat>
      </trkpt>
      <trkpt lat="42.417542" lon="-2.909386">
        <ele>715.8</ele>
        <time>2019-08-21T09:27:07Z</time>
        <sat>9</sat>
      </trkpt>
      <trkpt lat="42.417568" lon="-2.909447">
        <ele>715.9</ele>
        <time>2019-08-21T09:27:11Z</time>
        <sat>9</sat>
      </trkpt>
      <trkpt lat="42.417602" lon="-2.909564">
        <ele>716.4</ele>
        <time>2019-08-21T09:27:18Z</time>
        <sat>9</sat>
      </trkpt>
      <trkpt lat="42.417636" lon="-2.909642">
        <ele>716.6</ele>
        <time>2019-08-21T09:27:23Z</time>
        <sat>9</sat>
      </trkpt>
      <trkpt lat="42.417662" lon="-2.909735">
        <ele>716.9</ele>
        <time>2019-08-21T09:27:28Z</time>
        <sat>9</sat>
      </trkpt>
      <trkpt lat="42.417695" lon="-2.909820">
        <ele>717.1</ele>
        <time>2019-08-21T09:27:33Z</time>
        <sat>9</sat>
      </trkpt>
      <trkpt lat="42.417726" lon="-2.909927">
        <ele>717.4</ele>
        <time>2019-08-21T09:27:39Z</time>
        <sat>9</sat>
      </trkpt>
      <trkpt lat="42.417760" lon="-2.910001">
        <ele>717.6</ele>
        <time>2019-08-21T09:27:44Z</time>
        <sat>9</sat>
      </trkpt>
      <trkpt lat="42.417773" lon="-2.910058">
        <ele>717.7</ele>
        <time>2019-08-21T09:27:47Z</time>
        <sat>9</sat>
      </trkpt>
      <trkpt lat="42.417796" lon="-2.910128">
        <ele>717.9</ele>
        <time>2019-08-21T09:27:51Z</time>
        <sat>9</sat>
      </trkpt>
      <trkpt lat="42.417838" lon="-2.910221">
        <ele>718.1</ele>
        <time>2019-08-21T09:27:57Z</time>
        <sat>9</sat>
      </trkpt>
      <trkpt lat="42.417875" lon="-2.910349">
        <ele>718.5</ele>
        <time>2019-08-21T09:28:04Z</time>
        <sat>9</sat>
      </trkpt>
      <trkpt lat="42.417896" lon="-2.910397">
        <ele>718.6</ele>
        <time>2019-08-21T09:28:07Z</time>
        <sat>9</sat>
      </trkpt>
      <trkpt lat="42.417930" lon="-2.910546">
        <ele>718.9</ele>
        <time>2019-08-21T09:28:15Z</time>
        <sat>9</sat>
      </trkpt>
      <trkpt lat="42.417961" lon="-2.910632">
        <ele>719.0</ele>
        <time>2019-08-21T09:28:20Z</time>
        <sat>9</sat>
      </trkpt>
      <trkpt lat="42.418028" lon="-2.910879">
        <ele>720.4</ele>
        <time>2019-08-21T09:28:34Z</time>
        <sat>9</sat>
      </trkpt>
      <trkpt lat="42.418066" lon="-2.910955">
        <ele>721.3</ele>
        <time>2019-08-21T09:28:46Z</time>
        <sat>9</sat>
      </trkpt>
      <trkpt lat="42.418070" lon="-2.910990">
        <ele>721.8</ele>
        <time>2019-08-21T09:28:56Z</time>
        <sat>9</sat>
      </trkpt>
      <trkpt lat="42.418066" lon="-2.910993">
        <ele>721.4</ele>
        <time>2019-08-21T09:29:11Z</time>
        <sat>9</sat>
      </trkpt>
      <trkpt lat="42.418073" lon="-2.910983">
        <ele>721.6</ele>
        <time>2019-08-21T09:29:21Z</time>
        <sat>9</sat>
      </trkpt>
      <trkpt lat="42.418067" lon="-2.910984">
        <ele>721.0</ele>
        <time>2019-08-21T09:29:44Z</time>
        <sat>9</sat>
      </trkpt>
      <trkpt lat="42.418075" lon="-2.910969">
        <ele>721.7</ele>
        <time>2019-08-21T09:30:18Z</time>
        <sat>9</sat>
      </trkpt>
      <trkpt lat="42.418086" lon="-2.910969">
        <ele>721.9</ele>
        <time>2019-08-21T09:30:41Z</time>
        <sat>9</sat>
      </trkpt>
      <trkpt lat="42.418072" lon="-2.910969">
        <ele>722.0</ele>
        <time>2019-08-21T09:30:57Z</time>
        <sat>9</sat>
      </trkpt>
      <trkpt lat="42.418102" lon="-2.910964">
        <ele>721.9</ele>
        <time>2019-08-21T09:31:12Z</time>
        <sat>9</sat>
      </trkpt>
      <trkpt lat="42.418163" lon="-2.911062">
        <ele>721.9</ele>
        <time>2019-08-21T09:31:21Z</time>
        <sat>8</sat>
      </trkpt>
      <trkpt lat="42.418208" lon="-2.911165">
        <ele>719.9</ele>
        <time>2019-08-21T09:31:28Z</time>
        <sat>9</sat>
      </trkpt>
      <trkpt lat="42.418263" lon="-2.911261">
        <ele>721.7</ele>
        <time>2019-08-21T09:31:35Z</time>
        <sat>8</sat>
      </trkpt>
      <trkpt lat="42.418289" lon="-2.911290">
        <ele>721.3</ele>
        <time>2019-08-21T09:31:57Z</time>
        <sat>8</sat>
      </trkpt>
      <trkpt lat="42.418321" lon="-2.911315">
        <ele>721.3</ele>
        <time>2019-08-21T09:32:00Z</time>
        <sat>9</sat>
      </trkpt>
      <trkpt lat="42.418376" lon="-2.911439">
        <ele>721.0</ele>
        <time>2019-08-21T09:32:08Z</time>
        <sat>9</sat>
      </trkpt>
      <trkpt lat="42.418442" lon="-2.911549">
        <ele>720.5</ele>
        <time>2019-08-21T09:32:16Z</time>
        <sat>9</sat>
      </trkpt>
      <trkpt lat="42.418497" lon="-2.911651">
        <ele>720.0</ele>
        <time>2019-08-21T09:32:23Z</time>
        <sat>9</sat>
      </trkpt>
      <trkpt lat="42.418550" lon="-2.911730">
        <ele>719.6</ele>
        <time>2019-08-21T09:32:29Z</time>
        <sat>9</sat>
      </trkpt>
      <trkpt lat="42.418571" lon="-2.911772">
        <ele>719.4</ele>
        <time>2019-08-21T09:32:32Z</time>
        <sat>9</sat>
      </trkpt>
      <trkpt lat="42.418649" lon="-2.911899">
        <ele>718.7</ele>
        <time>2019-08-21T09:32:41Z</time>
        <sat>9</sat>
      </trkpt>
      <trkpt lat="42.418745" lon="-2.912061">
        <ele>717.8</ele>
        <time>2019-08-21T09:32:52Z</time>
        <sat>8</sat>
      </trkpt>
      <trkpt lat="42.418862" lon="-2.912241">
        <ele>717.5</ele>
        <time>2019-08-21T09:33:05Z</time>
        <sat>9</sat>
      </trkpt>
      <trkpt lat="42.418901" lon="-2.912294">
        <ele>717.2</ele>
        <time>2019-08-21T09:33:09Z</time>
        <sat>8</sat>
      </trkpt>
      <trkpt lat="42.418936" lon="-2.912352">
        <ele>717.2</ele>
        <time>2019-08-21T09:33:13Z</time>
        <sat>9</sat>
      </trkpt>
      <trkpt lat="42.418971" lon="-2.912436">
        <ele>717.1</ele>
        <time>2019-08-21T09:33:18Z</time>
        <sat>9</sat>
      </trkpt>
      <trkpt lat="42.419027" lon="-2.912519">
        <ele>717.0</ele>
        <time>2019-08-21T09:33:24Z</time>
        <sat>9</sat>
      </trkpt>
      <trkpt lat="42.419107" lon="-2.912676">
        <ele>717.0</ele>
        <time>2019-08-21T09:33:34Z</time>
        <sat>9</sat>
      </trkpt>
      <trkpt lat="42.419153" lon="-2.912744">
        <ele>717.1</ele>
        <time>2019-08-21T09:33:39Z</time>
        <sat>9</sat>
      </trkpt>
      <trkpt lat="42.419212" lon="-2.912850">
        <ele>717.3</ele>
        <time>2019-08-21T09:33:46Z</time>
        <sat>8</sat>
      </trkpt>
      <trkpt lat="42.419279" lon="-2.912945">
        <ele>717.5</ele>
        <time>2019-08-21T09:33:53Z</time>
        <sat>8</sat>
      </trkpt>
      <trkpt lat="42.419332" lon="-2.913058">
        <ele>717.6</ele>
        <time>2019-08-21T09:34:00Z</time>
        <sat>8</sat>
      </trkpt>
      <trkpt lat="42.419354" lon="-2.913084">
        <ele>717.7</ele>
        <time>2019-08-21T09:34:02Z</time>
        <sat>8</sat>
      </trkpt>
      <trkpt lat="42.419461" lon="-2.913254">
        <ele>718.2</ele>
        <time>2019-08-21T09:34:14Z</time>
        <sat>8</sat>
      </trkpt>
      <trkpt lat="42.419492" lon="-2.913313">
        <ele>718.4</ele>
        <time>2019-08-21T09:34:18Z</time>
        <sat>9</sat>
      </trkpt>
      <trkpt lat="42.419530" lon="-2.913365">
        <ele>718.6</ele>
        <time>2019-08-21T09:34:22Z</time>
        <sat>8</sat>
      </trkpt>
      <trkpt lat="42.419570" lon="-2.913442">
        <ele>718.9</ele>
        <time>2019-08-21T09:34:27Z</time>
        <sat>8</sat>
      </trkpt>
      <trkpt lat="42.419598" lon="-2.913478">
        <ele>719.1</ele>
        <time>2019-08-21T09:34:30Z</time>
        <sat>8</sat>
      </trkpt>
      <trkpt lat="42.419654" lon="-2.913585">
        <ele>719.7</ele>
        <time>2019-08-21T09:34:37Z</time>
        <sat>8</sat>
      </trkpt>
      <trkpt lat="42.419760" lon="-2.913768">
        <ele>720.8</ele>
        <time>2019-08-21T09:34:50Z</time>
        <sat>8</sat>
      </trkpt>
      <trkpt lat="42.419787" lon="-2.913837">
        <ele>721.2</ele>
        <time>2019-08-21T09:34:54Z</time>
        <sat>8</sat>
      </trkpt>
      <trkpt lat="42.419825" lon="-2.913887">
        <ele>721.4</ele>
        <time>2019-08-21T09:34:58Z</time>
        <sat>8</sat>
      </trkpt>
      <trkpt lat="42.419885" lon="-2.913995">
        <ele>722.2</ele>
        <time>2019-08-21T09:35:05Z</time>
        <sat>9</sat>
      </trkpt>
      <trkpt lat="42.419924" lon="-2.914043">
        <ele>722.6</ele>
        <time>2019-08-21T09:35:09Z</time>
        <sat>9</sat>
      </trkpt>
      <trkpt lat="42.420027" lon="-2.914221">
        <ele>723.6</ele>
        <time>2019-08-21T09:35:21Z</time>
        <sat>9</sat>
      </trkpt>
      <trkpt lat="42.420068" lon="-2.914268">
        <ele>724.0</ele>
        <time>2019-08-21T09:35:25Z</time>
        <sat>9</sat>
      </trkpt>
      <trkpt lat="42.420098" lon="-2.914330">
        <ele>724.4</ele>
        <time>2019-08-21T09:35:29Z</time>
        <sat>9</sat>
      </trkpt>
      <trkpt lat="42.420148" lon="-2.914388">
        <ele>725.0</ele>
        <time>2019-08-21T09:35:34Z</time>
        <sat>9</sat>
      </trkpt>
      <trkpt lat="42.420224" lon="-2.914539">
        <ele>726.4</ele>
        <time>2019-08-21T09:35:44Z</time>
        <sat>8</sat>
      </trkpt>
      <trkpt lat="42.420262" lon="-2.914585">
        <ele>726.9</ele>
        <time>2019-08-21T09:35:48Z</time>
        <sat>8</sat>
      </trkpt>
      <trkpt lat="42.420290" lon="-2.914644">
        <ele>727.3</ele>
        <time>2019-08-21T09:35:52Z</time>
        <sat>9</sat>
      </trkpt>
      <trkpt lat="42.420330" lon="-2.914696">
        <ele>727.4</ele>
        <time>2019-08-21T09:35:56Z</time>
        <sat>8</sat>
      </trkpt>
      <trkpt lat="42.420396" lon="-2.914814">
        <ele>728.2</ele>
        <time>2019-08-21T09:36:04Z</time>
        <sat>9</sat>
      </trkpt>
      <trkpt lat="42.420509" lon="-2.914981">
        <ele>729.2</ele>
        <time>2019-08-21T09:36:16Z</time>
        <sat>9</sat>
      </trkpt>
      <trkpt lat="42.420546" lon="-2.915054">
        <ele>729.4</ele>
        <time>2019-08-21T09:36:21Z</time>
        <sat>9</sat>
      </trkpt>
      <trkpt lat="42.420584" lon="-2.915106">
        <ele>729.6</ele>
        <time>2019-08-21T09:36:25Z</time>
        <sat>9</sat>
      </trkpt>
      <trkpt lat="42.420624" lon="-2.915185">
        <ele>729.8</ele>
        <time>2019-08-21T09:36:30Z</time>
        <sat>9</sat>
      </trkpt>
      <trkpt lat="42.420681" lon="-2.915264">
        <ele>730.4</ele>
        <time>2019-08-21T09:36:36Z</time>
        <sat>9</sat>
      </trkpt>
      <trkpt lat="42.420710" lon="-2.915331">
        <ele>730.5</ele>
        <time>2019-08-21T09:36:40Z</time>
        <sat>8</sat>
      </trkpt>
      <trkpt lat="42.420754" lon="-2.915394">
        <ele>730.7</ele>
        <time>2019-08-21T09:36:45Z</time>
        <sat>8</sat>
      </trkpt>
      <trkpt lat="42.420784" lon="-2.915458">
        <ele>730.8</ele>
        <time>2019-08-21T09:36:49Z</time>
        <sat>8</sat>
      </trkpt>
      <trkpt lat="42.420819" lon="-2.915508">
        <ele>731.1</ele>
        <time>2019-08-21T09:36:53Z</time>
        <sat>9</sat>
      </trkpt>
      <trkpt lat="42.420925" lon="-2.915703">
        <ele>731.6</ele>
        <time>2019-08-21T09:37:06Z</time>
        <sat>8</sat>
      </trkpt>
      <trkpt lat="42.420973" lon="-2.915765">
        <ele>731.8</ele>
        <time>2019-08-21T09:37:11Z</time>
        <sat>8</sat>
      </trkpt>
      <trkpt lat="42.421025" lon="-2.915874">
        <ele>732.4</ele>
        <time>2019-08-21T09:37:18Z</time>
        <sat>8</sat>
      </trkpt>
      <trkpt lat="42.421086" lon="-2.915979">
        <ele>732.8</ele>
        <time>2019-08-21T09:37:25Z</time>
        <sat>9</sat>
      </trkpt>
      <trkpt lat="42.421125" lon="-2.916028">
        <ele>733.1</ele>
        <time>2019-08-21T09:37:29Z</time>
        <sat>9</sat>
      </trkpt>
      <trkpt lat="42.421213" lon="-2.916162">
        <ele>733.7</ele>
        <time>2019-08-21T09:37:39Z</time>
        <sat>9</sat>
      </trkpt>
      <trkpt lat="42.421289" lon="-2.916314">
        <ele>734.6</ele>
        <time>2019-08-21T09:37:49Z</time>
        <sat>9</sat>
      </trkpt>
      <trkpt lat="42.421339" lon="-2.916374">
        <ele>735.1</ele>
        <time>2019-08-21T09:37:54Z</time>
        <sat>9</sat>
      </trkpt>
      <trkpt lat="42.421368" lon="-2.916437">
        <ele>735.4</ele>
        <time>2019-08-21T09:37:58Z</time>
        <sat>9</sat>
      </trkpt>
      <trkpt lat="42.421429" lon="-2.916528">
        <ele>735.8</ele>
        <time>2019-08-21T09:38:05Z</time>
        <sat>9</sat>
      </trkpt>
      <trkpt lat="42.421475" lon="-2.916621">
        <ele>736.0</ele>
        <time>2019-08-21T09:38:11Z</time>
        <sat>9</sat>
      </trkpt>
      <trkpt lat="42.421532" lon="-2.916715">
        <ele>736.3</ele>
        <time>2019-08-21T09:38:18Z</time>
        <sat>9</sat>
      </trkpt>
      <trkpt lat="42.421584" lon="-2.916784">
        <ele>736.6</ele>
        <time>2019-08-21T09:38:27Z</time>
        <sat>9</sat>
      </trkpt>
      <trkpt lat="42.421616" lon="-2.916815">
        <ele>736.8</ele>
        <time>2019-08-21T09:38:38Z</time>
        <sat>9</sat>
      </trkpt>
      <trkpt lat="42.421646" lon="-2.916875">
        <ele>736.9</ele>
        <time>2019-08-21T09:38:42Z</time>
        <sat>9</sat>
      </trkpt>
      <trkpt lat="42.421759" lon="-2.917060">
        <ele>737.0</ele>
        <time>2019-08-21T09:38:55Z</time>
        <sat>9</sat>
      </trkpt>
      <trkpt lat="42.421779" lon="-2.917086">
        <ele>737.1</ele>
        <time>2019-08-21T09:39:10Z</time>
        <sat>9</sat>
      </trkpt>
      <trkpt lat="42.421904" lon="-2.917291">
        <ele>737.1</ele>
        <time>2019-08-21T09:39:24Z</time>
        <sat>9</sat>
      </trkpt>
      <trkpt lat="42.421966" lon="-2.917402">
        <ele>736.8</ele>
        <time>2019-08-21T09:39:31Z</time>
        <sat>9</sat>
      </trkpt>
      <trkpt lat="42.422035" lon="-2.917495">
        <ele>736.4</ele>
        <time>2019-08-21T09:39:38Z</time>
        <sat>9</sat>
      </trkpt>
      <trkpt lat="42.422096" lon="-2.917619">
        <ele>736.1</ele>
        <time>2019-08-21T09:39:46Z</time>
        <sat>9</sat>
      </trkpt>
      <trkpt lat="42.422196" lon="-2.917793">
        <ele>735.4</ele>
        <time>2019-08-21T09:39:58Z</time>
        <sat>9</sat>
      </trkpt>
      <trkpt lat="42.422269" lon="-2.917908">
        <ele>735.0</ele>
        <time>2019-08-21T09:40:06Z</time>
        <sat>9</sat>
      </trkpt>
      <trkpt lat="42.422340" lon="-2.918043">
        <ele>734.3</ele>
        <time>2019-08-21T09:40:15Z</time>
        <sat>9</sat>
      </trkpt>
      <trkpt lat="42.422455" lon="-2.918240">
        <ele>733.3</ele>
        <time>2019-08-21T09:40:29Z</time>
        <sat>9</sat>
      </trkpt>
      <trkpt lat="42.422509" lon="-2.918320">
        <ele>732.9</ele>
        <time>2019-08-21T09:40:35Z</time>
        <sat>9</sat>
      </trkpt>
      <trkpt lat="42.422540" lon="-2.918377">
        <ele>732.5</ele>
        <time>2019-08-21T09:40:39Z</time>
        <sat>9</sat>
      </trkpt>
      <trkpt lat="42.422579" lon="-2.918433">
        <ele>732.2</ele>
        <time>2019-08-21T09:40:43Z</time>
        <sat>9</sat>
      </trkpt>
      <trkpt lat="42.422626" lon="-2.918515">
        <ele>731.8</ele>
        <time>2019-08-21T09:40:49Z</time>
        <sat>9</sat>
      </trkpt>
      <trkpt lat="42.422638" lon="-2.918569">
        <ele>731.6</ele>
        <time>2019-08-21T09:40:52Z</time>
        <sat>9</sat>
      </trkpt>
      <trkpt lat="42.422691" lon="-2.918648">
        <ele>731.3</ele>
        <time>2019-08-21T09:40:58Z</time>
        <sat>9</sat>
      </trkpt>
      <trkpt lat="42.422798" lon="-2.918812">
        <ele>730.7</ele>
        <time>2019-08-21T09:41:10Z</time>
        <sat>9</sat>
      </trkpt>
      <trkpt lat="42.422823" lon="-2.918847">
        <ele>730.6</ele>
        <time>2019-08-21T09:41:13Z</time>
        <sat>9</sat>
      </trkpt>
      <trkpt lat="42.422865" lon="-2.918928">
        <ele>730.2</ele>
        <time>2019-08-21T09:41:19Z</time>
        <sat>9</sat>
      </trkpt>
      <trkpt lat="42.422901" lon="-2.918978">
        <ele>730.0</ele>
        <time>2019-08-21T09:41:23Z</time>
        <sat>9</sat>
      </trkpt>
      <trkpt lat="42.422956" lon="-2.919078">
        <ele>729.7</ele>
        <time>2019-08-21T09:41:30Z</time>
        <sat>9</sat>
      </trkpt>
      <trkpt lat="42.423036" lon="-2.919195">
        <ele>729.1</ele>
        <time>2019-08-21T09:41:39Z</time>
        <sat>9</sat>
      </trkpt>
      <trkpt lat="42.423070" lon="-2.919266">
        <ele>728.7</ele>
        <time>2019-08-21T09:41:44Z</time>
        <sat>9</sat>
      </trkpt>
      <trkpt lat="42.423128" lon="-2.919332">
        <ele>728.2</ele>
        <time>2019-08-21T09:41:50Z</time>
        <sat>9</sat>
      </trkpt>
      <trkpt lat="42.423170" lon="-2.919363">
        <ele>727.8</ele>
        <time>2019-08-21T09:41:54Z</time>
        <sat>9</sat>
      </trkpt>
      <trkpt lat="42.423293" lon="-2.919502">
        <ele>726.3</ele>
        <time>2019-08-21T09:42:06Z</time>
        <sat>9</sat>
      </trkpt>
      <trkpt lat="42.423375" lon="-2.919609">
        <ele>725.0</ele>
        <time>2019-08-21T09:42:15Z</time>
        <sat>9</sat>
      </trkpt>
      <trkpt lat="42.423454" lon="-2.919688">
        <ele>723.8</ele>
        <time>2019-08-21T09:42:23Z</time>
        <sat>9</sat>
      </trkpt>
      <trkpt lat="42.423538" lon="-2.919786">
        <ele>722.0</ele>
        <time>2019-08-21T09:42:57Z</time>
        <sat>9</sat>
      </trkpt>
      <trkpt lat="42.423612" lon="-2.919864">
        <ele>721.0</ele>
        <time>2019-08-21T09:43:04Z</time>
        <sat>9</sat>
      </trkpt>
      <trkpt lat="42.423717" lon="-2.919982">
        <ele>719.6</ele>
        <time>2019-08-21T09:43:14Z</time>
        <sat>9</sat>
      </trkpt>
      <trkpt lat="42.423785" lon="-2.920046">
        <ele>718.6</ele>
        <time>2019-08-21T09:43:20Z</time>
        <sat>9</sat>
      </trkpt>
      <trkpt lat="42.423830" lon="-2.920107">
        <ele>717.8</ele>
        <time>2019-08-21T09:43:25Z</time>
        <sat>9</sat>
      </trkpt>
      <trkpt lat="42.423960" lon="-2.920252">
        <ele>715.6</ele>
        <time>2019-08-21T09:43:38Z</time>
        <sat>9</sat>
      </trkpt>
      <trkpt lat="42.424039" lon="-2.920345">
        <ele>714.2</ele>
        <time>2019-08-21T09:43:46Z</time>
        <sat>9</sat>
      </trkpt>
      <trkpt lat="42.424051" lon="-2.920355">
        <ele>714.0</ele>
        <time>2019-08-21T09:43:47Z</time>
        <sat>9</sat>
      </trkpt>
      <trkpt lat="42.424131" lon="-2.920441">
        <ele>712.6</ele>
        <time>2019-08-21T09:43:55Z</time>
        <sat>9</sat>
      </trkpt>
      <trkpt lat="42.424175" lon="-2.920541">
        <ele>711.2</ele>
        <time>2019-08-21T09:44:02Z</time>
        <sat>9</sat>
      </trkpt>
      <trkpt lat="42.424215" lon="-2.920569">
        <ele>710.1</ele>
        <time>2019-08-21T09:44:14Z</time>
        <sat>9</sat>
      </trkpt>
      <trkpt lat="42.424286" lon="-2.920645">
        <ele>709.1</ele>
        <time>2019-08-21T09:44:21Z</time>
        <sat>9</sat>
      </trkpt>
      <trkpt lat="42.424426" lon="-2.920813">
        <ele>707.0</ele>
        <time>2019-08-21T09:44:35Z</time>
        <sat>9</sat>
      </trkpt>
      <trkpt lat="42.424533" lon="-2.920930">
        <ele>705.0</ele>
        <time>2019-08-21T09:44:46Z</time>
        <sat>9</sat>
      </trkpt>
      <trkpt lat="42.424595" lon="-2.920952">
        <ele>703.0</ele>
        <time>2019-08-21T09:45:03Z</time>
        <sat>8</sat>
      </trkpt>
      <trkpt lat="42.424619" lon="-2.920976">
        <ele>702.9</ele>
        <time>2019-08-21T09:45:10Z</time>
        <sat>9</sat>
      </trkpt>
      <trkpt lat="42.424687" lon="-2.921075">
        <ele>702.3</ele>
        <time>2019-08-21T09:45:18Z</time>
        <sat>9</sat>
      </trkpt>
      <trkpt lat="42.424772" lon="-2.921168">
        <ele>701.3</ele>
        <time>2019-08-21T09:45:26Z</time>
        <sat>9</sat>
      </trkpt>
      <trkpt lat="42.424888" lon="-2.921312">
        <ele>699.3</ele>
        <time>2019-08-21T09:45:38Z</time>
        <sat>9</sat>
      </trkpt>
      <trkpt lat="42.424978" lon="-2.921405">
        <ele>697.7</ele>
        <time>2019-08-21T09:45:46Z</time>
        <sat>9</sat>
      </trkpt>
      <trkpt lat="42.425099" lon="-2.921549">
        <ele>695.8</ele>
        <time>2019-08-21T09:45:58Z</time>
        <sat>9</sat>
      </trkpt>
      <trkpt lat="42.425153" lon="-2.921633">
        <ele>694.9</ele>
        <time>2019-08-21T09:46:04Z</time>
        <sat>9</sat>
      </trkpt>
      <trkpt lat="42.425224" lon="-2.921717">
        <ele>694.0</ele>
        <time>2019-08-21T09:46:11Z</time>
        <sat>9</sat>
      </trkpt>
      <trkpt lat="42.425328" lon="-2.921833">
        <ele>692.5</ele>
        <time>2019-08-21T09:46:21Z</time>
        <sat>9</sat>
      </trkpt>
      <trkpt lat="42.425396" lon="-2.921915">
        <ele>691.5</ele>
        <time>2019-08-21T09:46:28Z</time>
        <sat>9</sat>
      </trkpt>
      <trkpt lat="42.425505" lon="-2.922031">
        <ele>690.1</ele>
        <time>2019-08-21T09:46:38Z</time>
        <sat>9</sat>
      </trkpt>
      <trkpt lat="42.425575" lon="-2.922118">
        <ele>689.4</ele>
        <time>2019-08-21T09:46:45Z</time>
        <sat>9</sat>
      </trkpt>
      <trkpt lat="42.425630" lon="-2.922172">
        <ele>688.8</ele>
        <time>2019-08-21T09:46:50Z</time>
        <sat>9</sat>
      </trkpt>
      <trkpt lat="42.425719" lon="-2.922283">
        <ele>688.0</ele>
        <time>2019-08-21T09:46:59Z</time>
        <sat>9</sat>
      </trkpt>
      <trkpt lat="42.425785" lon="-2.922349">
        <ele>687.5</ele>
        <time>2019-08-21T09:47:05Z</time>
        <sat>9</sat>
      </trkpt>
      <trkpt lat="42.425888" lon="-2.922473">
        <ele>686.8</ele>
        <time>2019-08-21T09:47:15Z</time>
        <sat>9</sat>
      </trkpt>
      <trkpt lat="42.425934" lon="-2.922515">
        <ele>686.7</ele>
        <time>2019-08-21T09:47:19Z</time>
        <sat>9</sat>
      </trkpt>
      <trkpt lat="42.426032" lon="-2.922642">
        <ele>686.1</ele>
        <time>2019-08-21T09:47:29Z</time>
        <sat>9</sat>
      </trkpt>
      <trkpt lat="42.426089" lon="-2.922697">
        <ele>685.9</ele>
        <time>2019-08-21T09:47:34Z</time>
        <sat>9</sat>
      </trkpt>
      <trkpt lat="42.426190" lon="-2.922818">
        <ele>684.5</ele>
        <time>2019-08-21T09:47:44Z</time>
        <sat>9</sat>
      </trkpt>
      <trkpt lat="42.426298" lon="-2.922938">
        <ele>682.0</ele>
        <time>2019-08-21T09:47:55Z</time>
        <sat>9</sat>
      </trkpt>
      <trkpt lat="42.426332" lon="-2.922985">
        <ele>682.8</ele>
        <time>2019-08-21T09:47:59Z</time>
        <sat>9</sat>
      </trkpt>
      <trkpt lat="42.426404" lon="-2.923064">
        <ele>683.1</ele>
        <time>2019-08-21T09:48:06Z</time>
        <sat>8</sat>
      </trkpt>
      <trkpt lat="42.426454" lon="-2.923131">
        <ele>682.5</ele>
        <time>2019-08-21T09:48:12Z</time>
        <sat>9</sat>
      </trkpt>
      <trkpt lat="42.426574" lon="-2.923263">
        <ele>681.8</ele>
        <time>2019-08-21T09:48:24Z</time>
        <sat>9</sat>
      </trkpt>
      <trkpt lat="42.426637" lon="-2.923326">
        <ele>680.7</ele>
        <time>2019-08-21T09:48:30Z</time>
        <sat>9</sat>
      </trkpt>
      <trkpt lat="42.426758" lon="-2.923464">
        <ele>681.2</ele>
        <time>2019-08-21T09:48:41Z</time>
        <sat>9</sat>
      </trkpt>
      <trkpt lat="42.426780" lon="-2.923450">
        <ele>681.2</ele>
        <time>2019-08-21T09:48:46Z</time>
        <sat>9</sat>
      </trkpt>
      <trkpt lat="42.426789" lon="-2.923458">
        <ele>681.2</ele>
        <time>2019-08-21T09:49:00Z</time>
        <sat>9</sat>
      </trkpt>
      <trkpt lat="42.426877" lon="-2.923569">
        <ele>681.1</ele>
        <time>2019-08-21T09:49:10Z</time>
        <sat>9</sat>
      </trkpt>
      <trkpt lat="42.426967" lon="-2.923663">
        <ele>680.9</ele>
        <time>2019-08-21T09:49:18Z</time>
        <sat>9</sat>
      </trkpt>
      <trkpt lat="42.427035" lon="-2.923757">
        <ele>680.6</ele>
        <time>2019-08-21T09:49:25Z</time>
        <sat>9</sat>
      </trkpt>
      <trkpt lat="42.427106" lon="-2.923830">
        <ele>680.6</ele>
        <time>2019-08-21T09:49:31Z</time>
        <sat>9</sat>
      </trkpt>
      <trkpt lat="42.427131" lon="-2.923863">
        <ele>679.6</ele>
        <time>2019-08-21T09:49:43Z</time>
        <sat>9</sat>
      </trkpt>
      <trkpt lat="42.427257" lon="-2.924040">
        <ele>679.4</ele>
        <time>2019-08-21T09:49:56Z</time>
        <sat>9</sat>
      </trkpt>
      <trkpt lat="42.427382" lon="-2.924168">
        <ele>679.1</ele>
        <time>2019-08-21T09:50:07Z</time>
        <sat>9</sat>
      </trkpt>
      <trkpt lat="42.427479" lon="-2.924284">
        <ele>679.0</ele>
        <time>2019-08-21T09:50:16Z</time>
        <sat>9</sat>
      </trkpt>
      <trkpt lat="42.427557" lon="-2.924362">
        <ele>678.7</ele>
        <time>2019-08-21T09:50:23Z</time>
        <sat>9</sat>
      </trkpt>
      <trkpt lat="42.427658" lon="-2.924492">
        <ele>678.2</ele>
        <time>2019-08-21T09:50:33Z</time>
        <sat>9</sat>
      </trkpt>
      <trkpt lat="42.427745" lon="-2.924584">
        <ele>677.8</ele>
        <time>2019-08-21T09:50:41Z</time>
        <sat>9</sat>
      </trkpt>
      <trkpt lat="42.427764" lon="-2.924612">
        <ele>677.7</ele>
        <time>2019-08-21T09:50:43Z</time>
        <sat>9</sat>
      </trkpt>
      <trkpt lat="42.427827" lon="-2.924687">
        <ele>677.2</ele>
        <time>2019-08-21T09:50:49Z</time>
        <sat>9</sat>
      </trkpt>
      <trkpt lat="42.427907" lon="-2.924765">
        <ele>676.6</ele>
        <time>2019-08-21T09:50:56Z</time>
        <sat>9</sat>
      </trkpt>
      <trkpt lat="42.428002" lon="-2.924891">
        <ele>676.3</ele>
        <time>2019-08-21T09:51:05Z</time>
        <sat>9</sat>
      </trkpt>
      <trkpt lat="42.428112" lon="-2.924994">
        <ele>675.9</ele>
        <time>2019-08-21T09:51:14Z</time>
        <sat>9</sat>
      </trkpt>
      <trkpt lat="42.428166" lon="-2.925062">
        <ele>675.8</ele>
        <time>2019-08-21T09:51:19Z</time>
        <sat>9</sat>
      </trkpt>
      <trkpt lat="42.428219" lon="-2.925102">
        <ele>675.8</ele>
        <time>2019-08-21T09:51:23Z</time>
        <sat>9</sat>
      </trkpt>
      <trkpt lat="42.428347" lon="-2.925235">
        <ele>676.0</ele>
        <time>2019-08-21T09:51:34Z</time>
        <sat>9</sat>
      </trkpt>
      <trkpt lat="42.428480" lon="-2.925405">
        <ele>676.4</ele>
        <time>2019-08-21T09:51:46Z</time>
        <sat>9</sat>
      </trkpt>
      <trkpt lat="42.428554" lon="-2.925471">
        <ele>676.8</ele>
        <time>2019-08-21T09:51:52Z</time>
        <sat>9</sat>
      </trkpt>
      <trkpt lat="42.428674" lon="-2.925627">
        <ele>677.2</ele>
        <time>2019-08-21T09:52:03Z</time>
        <sat>9</sat>
      </trkpt>
      <trkpt lat="42.428746" lon="-2.925689">
        <ele>677.4</ele>
        <time>2019-08-21T09:52:09Z</time>
        <sat>9</sat>
      </trkpt>
      <trkpt lat="42.428889" lon="-2.925880">
        <ele>677.9</ele>
        <time>2019-08-21T09:52:23Z</time>
        <sat>9</sat>
      </trkpt>
      <trkpt lat="42.428989" lon="-2.925996">
        <ele>676.4</ele>
        <time>2019-08-21T09:52:33Z</time>
        <sat>9</sat>
      </trkpt>
      <trkpt lat="42.429091" lon="-2.926102">
        <ele>678.8</ele>
        <time>2019-08-21T09:52:42Z</time>
        <sat>9</sat>
      </trkpt>
      <trkpt lat="42.429238" lon="-2.926248">
        <ele>678.5</ele>
        <time>2019-08-21T09:52:56Z</time>
        <sat>9</sat>
      </trkpt>
      <trkpt lat="42.429345" lon="-2.926386">
        <ele>678.3</ele>
        <time>2019-08-21T09:53:06Z</time>
        <sat>9</sat>
      </trkpt>
      <trkpt lat="42.429465" lon="-2.926516">
        <ele>678.2</ele>
        <time>2019-08-21T09:53:17Z</time>
        <sat>9</sat>
      </trkpt>
      <trkpt lat="42.429514" lon="-2.926578">
        <ele>678.1</ele>
        <time>2019-08-21T09:53:22Z</time>
        <sat>9</sat>
      </trkpt>
      <trkpt lat="42.429631" lon="-2.926710">
        <ele>677.6</ele>
        <time>2019-08-21T09:53:33Z</time>
        <sat>9</sat>
      </trkpt>
      <trkpt lat="42.429727" lon="-2.926829">
        <ele>677.3</ele>
        <time>2019-08-21T09:53:42Z</time>
        <sat>9</sat>
      </trkpt>
      <trkpt lat="42.429840" lon="-2.926939">
        <ele>677.0</ele>
        <time>2019-08-21T09:53:52Z</time>
        <sat>9</sat>
      </trkpt>
      <trkpt lat="42.429902" lon="-2.927020">
        <ele>677.0</ele>
        <time>2019-08-21T09:53:58Z</time>
        <sat>9</sat>
      </trkpt>
      <trkpt lat="42.429995" lon="-2.927113">
        <ele>677.0</ele>
        <time>2019-08-21T09:54:06Z</time>
        <sat>9</sat>
      </trkpt>
      <trkpt lat="42.430128" lon="-2.927277">
        <ele>676.5</ele>
        <time>2019-08-21T09:54:19Z</time>
        <sat>9</sat>
      </trkpt>
      <trkpt lat="42.430150" lon="-2.927298">
        <ele>676.4</ele>
        <time>2019-08-21T09:54:21Z</time>
        <sat>9</sat>
      </trkpt>
      <trkpt lat="42.430294" lon="-2.927463">
        <ele>675.5</ele>
        <time>2019-08-21T09:54:36Z</time>
        <sat>10</sat>
      </trkpt>
      <trkpt lat="42.430342" lon="-2.927522">
        <ele>675.0</ele>
        <time>2019-08-21T09:54:41Z</time>
        <sat>10</sat>
      </trkpt>
      <trkpt lat="42.430435" lon="-2.927623">
        <ele>674.0</ele>
        <time>2019-08-21T09:54:50Z</time>
        <sat>10</sat>
      </trkpt>
      <trkpt lat="42.430504" lon="-2.927709">
        <ele>673.2</ele>
        <time>2019-08-21T09:54:57Z</time>
        <sat>10</sat>
      </trkpt>
      <trkpt lat="42.430546" lon="-2.927775">
        <ele>672.7</ele>
        <time>2019-08-21T09:55:02Z</time>
        <sat>10</sat>
      </trkpt>
      <trkpt lat="42.430692" lon="-2.927940">
        <ele>670.9</ele>
        <time>2019-08-21T09:55:16Z</time>
        <sat>10</sat>
      </trkpt>
      <trkpt lat="42.430758" lon="-2.928028">
        <ele>670.3</ele>
        <time>2019-08-21T09:55:23Z</time>
        <sat>10</sat>
      </trkpt>
      <trkpt lat="42.430877" lon="-2.928168">
        <ele>669.3</ele>
        <time>2019-08-21T09:55:35Z</time>
        <sat>10</sat>
      </trkpt>
      <trkpt lat="42.431009" lon="-2.928319">
        <ele>667.6</ele>
        <time>2019-08-21T09:55:48Z</time>
        <sat>10</sat>
      </trkpt>
      <trkpt lat="42.431101" lon="-2.928410">
        <ele>666.5</ele>
        <time>2019-08-21T09:55:56Z</time>
        <sat>10</sat>
      </trkpt>
      <trkpt lat="42.431219" lon="-2.928552">
        <ele>665.0</ele>
        <time>2019-08-21T09:56:08Z</time>
        <sat>10</sat>
      </trkpt>
      <trkpt lat="42.431280" lon="-2.928617">
        <ele>664.1</ele>
        <time>2019-08-21T09:56:14Z</time>
        <sat>10</sat>
      </trkpt>
      <trkpt lat="42.431414" lon="-2.928744">
        <ele>662.9</ele>
        <time>2019-08-21T09:56:26Z</time>
        <sat>10</sat>
      </trkpt>
      <trkpt lat="42.431471" lon="-2.928813">
        <ele>662.1</ele>
        <time>2019-08-21T09:56:32Z</time>
        <sat>10</sat>
      </trkpt>
      <trkpt lat="42.431622" lon="-2.928981">
        <ele>659.8</ele>
        <time>2019-08-21T09:56:47Z</time>
        <sat>10</sat>
      </trkpt>
      <trkpt lat="42.431697" lon="-2.929057">
        <ele>658.5</ele>
        <time>2019-08-21T09:56:54Z</time>
        <sat>10</sat>
      </trkpt>
      <trkpt lat="42.431812" lon="-2.929196">
        <ele>656.6</ele>
        <time>2019-08-21T09:57:07Z</time>
        <sat>10</sat>
      </trkpt>
      <trkpt lat="42.431969" lon="-2.929375">
        <ele>654.8</ele>
        <time>2019-08-21T09:57:22Z</time>
        <sat>10</sat>
      </trkpt>
      <trkpt lat="42.432099" lon="-2.929518">
        <ele>653.7</ele>
        <time>2019-08-21T09:57:34Z</time>
        <sat>10</sat>
      </trkpt>
      <trkpt lat="42.432190" lon="-2.929607">
        <ele>653.0</ele>
        <time>2019-08-21T09:57:42Z</time>
        <sat>10</sat>
      </trkpt>
      <trkpt lat="42.432269" lon="-2.929711">
        <ele>652.7</ele>
        <time>2019-08-21T09:57:50Z</time>
        <sat>10</sat>
      </trkpt>
      <trkpt lat="42.432325" lon="-2.929766">
        <ele>652.5</ele>
        <time>2019-08-21T09:57:55Z</time>
        <sat>10</sat>
      </trkpt>
      <trkpt lat="42.432404" lon="-2.929868">
        <ele>652.2</ele>
        <time>2019-08-21T09:58:03Z</time>
        <sat>10</sat>
      </trkpt>
      <trkpt lat="42.432527" lon="-2.929995">
        <ele>651.9</ele>
        <time>2019-08-21T09:58:14Z</time>
        <sat>10</sat>
      </trkpt>
      <trkpt lat="42.432645" lon="-2.930138">
        <ele>651.6</ele>
        <time>2019-08-21T09:58:25Z</time>
        <sat>10</sat>
      </trkpt>
      <trkpt lat="42.432680" lon="-2.930167">
        <ele>651.5</ele>
        <time>2019-08-21T09:58:28Z</time>
        <sat>10</sat>
      </trkpt>
      <trkpt lat="42.432791" lon="-2.930303">
        <ele>651.4</ele>
        <time>2019-08-21T09:58:39Z</time>
        <sat>10</sat>
      </trkpt>
      <trkpt lat="42.432866" lon="-2.930381">
        <ele>651.3</ele>
        <time>2019-08-21T09:58:46Z</time>
        <sat>10</sat>
      </trkpt>
      <trkpt lat="42.432917" lon="-2.930447">
        <ele>651.3</ele>
        <time>2019-08-21T09:58:51Z</time>
        <sat>10</sat>
      </trkpt>
      <trkpt lat="42.432994" lon="-2.930526">
        <ele>651.1</ele>
        <time>2019-08-21T09:58:58Z</time>
        <sat>10</sat>
      </trkpt>
      <trkpt lat="42.433076" lon="-2.930631">
        <ele>651.0</ele>
        <time>2019-08-21T09:59:06Z</time>
        <sat>10</sat>
      </trkpt>
      <trkpt lat="42.433143" lon="-2.930697">
        <ele>650.9</ele>
        <time>2019-08-21T09:59:12Z</time>
        <sat>10</sat>
      </trkpt>
      <trkpt lat="42.433236" lon="-2.930812">
        <ele>650.7</ele>
        <time>2019-08-21T09:59:21Z</time>
        <sat>10</sat>
      </trkpt>
      <trkpt lat="42.433291" lon="-2.930869">
        <ele>650.4</ele>
        <time>2019-08-21T09:59:26Z</time>
        <sat>10</sat>
      </trkpt>
      <trkpt lat="42.433392" lon="-2.930987">
        <ele>649.8</ele>
        <time>2019-08-21T09:59:36Z</time>
        <sat>10</sat>
      </trkpt>
      <trkpt lat="42.433435" lon="-2.931030">
        <ele>649.6</ele>
        <time>2019-08-21T09:59:40Z</time>
        <sat>10</sat>
      </trkpt>
      <trkpt lat="42.433568" lon="-2.931186">
        <ele>648.1</ele>
        <time>2019-08-21T09:59:54Z</time>
        <sat>10</sat>
      </trkpt>
      <trkpt lat="42.433602" lon="-2.931233">
        <ele>647.6</ele>
        <time>2019-08-21T09:59:58Z</time>
        <sat>10</sat>
      </trkpt>
      <trkpt lat="42.433674" lon="-2.931308">
        <ele>646.6</ele>
        <time>2019-08-21T10:00:05Z</time>
        <sat>10</sat>
      </trkpt>
      <trkpt lat="42.433762" lon="-2.931412">
        <ele>645.4</ele>
        <time>2019-08-21T10:00:14Z</time>
        <sat>10</sat>
      </trkpt>
      <trkpt lat="42.433843" lon="-2.931490">
        <ele>644.4</ele>
        <time>2019-08-21T10:00:21Z</time>
        <sat>9</sat>
      </trkpt>
      <trkpt lat="42.433939" lon="-2.931598">
        <ele>643.4</ele>
        <time>2019-08-21T10:00:30Z</time>
        <sat>10</sat>
      </trkpt>
      <trkpt lat="42.433999" lon="-2.931643">
        <ele>643.1</ele>
        <time>2019-08-21T10:00:35Z</time>
        <sat>10</sat>
      </trkpt>
      <trkpt lat="42.434153" lon="-2.931817">
        <ele>642.1</ele>
        <time>2019-08-21T10:00:50Z</time>
        <sat>10</sat>
      </trkpt>
      <trkpt lat="42.434222" lon="-2.931907">
        <ele>641.8</ele>
        <time>2019-08-21T10:00:57Z</time>
        <sat>10</sat>
      </trkpt>
      <trkpt lat="42.434281" lon="-2.931958">
        <ele>641.6</ele>
        <time>2019-08-21T10:01:02Z</time>
        <sat>10</sat>
      </trkpt>
      <trkpt lat="42.434397" lon="-2.932093">
        <ele>641.2</ele>
        <time>2019-08-21T10:01:13Z</time>
        <sat>10</sat>
      </trkpt>
      <trkpt lat="42.434446" lon="-2.932131">
        <ele>641.2</ele>
        <time>2019-08-21T10:01:17Z</time>
        <sat>10</sat>
      </trkpt>
      <trkpt lat="42.434568" lon="-2.932260">
        <ele>641.1</ele>
        <time>2019-08-21T10:01:28Z</time>
        <sat>10</sat>
      </trkpt>
      <trkpt lat="42.434630" lon="-2.932308">
        <ele>640.9</ele>
        <time>2019-08-21T10:01:33Z</time>
        <sat>10</sat>
      </trkpt>
      <trkpt lat="42.434752" lon="-2.932432">
        <ele>640.7</ele>
        <time>2019-08-21T10:01:44Z</time>
        <sat>10</sat>
      </trkpt>
      <trkpt lat="42.434837" lon="-2.932504">
        <ele>640.6</ele>
        <time>2019-08-21T10:01:51Z</time>
        <sat>10</sat>
      </trkpt>
      <trkpt lat="42.434935" lon="-2.932618">
        <ele>640.3</ele>
        <time>2019-08-21T10:02:00Z</time>
        <sat>10</sat>
      </trkpt>
      <trkpt lat="42.435019" lon="-2.932692">
        <ele>640.4</ele>
        <time>2019-08-21T10:02:07Z</time>
        <sat>10</sat>
      </trkpt>
      <trkpt lat="42.435104" lon="-2.932794">
        <ele>640.2</ele>
        <time>2019-08-21T10:02:15Z</time>
        <sat>10</sat>
      </trkpt>
      <trkpt lat="42.435246" lon="-2.932929">
        <ele>640.0</ele>
        <time>2019-08-21T10:02:27Z</time>
        <sat>10</sat>
      </trkpt>
      <trkpt lat="42.435340" lon="-2.933044">
        <ele>640.1</ele>
        <time>2019-08-21T10:02:36Z</time>
        <sat>10</sat>
      </trkpt>
      <trkpt lat="42.435413" lon="-2.933106">
        <ele>640.2</ele>
        <time>2019-08-21T10:02:42Z</time>
        <sat>10</sat>
      </trkpt>
      <trkpt lat="42.435554" lon="-2.933257">
        <ele>640.2</ele>
        <time>2019-08-21T10:02:55Z</time>
        <sat>10</sat>
      </trkpt>
      <trkpt lat="42.435575" lon="-2.933276">
        <ele>640.2</ele>
        <time>2019-08-21T10:02:57Z</time>
        <sat>10</sat>
      </trkpt>
      <trkpt lat="42.435721" lon="-2.933440">
        <ele>640.5</ele>
        <time>2019-08-21T10:03:16Z</time>
        <sat>10</sat>
      </trkpt>
      <trkpt lat="42.435859" lon="-2.933603">
        <ele>640.5</ele>
        <time>2019-08-21T10:03:30Z</time>
        <sat>10</sat>
      </trkpt>
      <trkpt lat="42.435977" lon="-2.933752">
        <ele>640.7</ele>
        <time>2019-08-21T10:03:42Z</time>
        <sat>10</sat>
      </trkpt>
      <trkpt lat="42.436016" lon="-2.933793">
        <ele>640.7</ele>
        <time>2019-08-21T10:03:46Z</time>
        <sat>10</sat>
      </trkpt>
      <trkpt lat="42.436143" lon="-2.933972">
        <ele>640.7</ele>
        <time>2019-08-21T10:04:00Z</time>
        <sat>10</sat>
      </trkpt>
      <trkpt lat="42.436247" lon="-2.934135">
        <ele>640.7</ele>
        <time>2019-08-21T10:04:12Z</time>
        <sat>10</sat>
      </trkpt>
      <trkpt lat="42.436308" lon="-2.934239">
        <ele>640.8</ele>
        <time>2019-08-21T10:04:20Z</time>
        <sat>10</sat>
      </trkpt>
      <trkpt lat="42.436341" lon="-2.934309">
        <ele>640.8</ele>
        <time>2019-08-21T10:04:25Z</time>
        <sat>10</sat>
      </trkpt>
      <trkpt lat="42.436431" lon="-2.934465">
        <ele>640.8</ele>
        <time>2019-08-21T10:04:36Z</time>
        <sat>10</sat>
      </trkpt>
      <trkpt lat="42.436479" lon="-2.934579">
        <ele>640.7</ele>
        <time>2019-08-21T10:04:43Z</time>
        <sat>10</sat>
      </trkpt>
      <trkpt lat="42.436512" lon="-2.934639">
        <ele>640.7</ele>
        <time>2019-08-21T10:04:47Z</time>
        <sat>9</sat>
      </trkpt>
      <trkpt lat="42.436545" lon="-2.934735">
        <ele>640.8</ele>
        <time>2019-08-21T10:04:53Z</time>
        <sat>10</sat>
      </trkpt>
      <trkpt lat="42.436598" lon="-2.934867">
        <ele>641.0</ele>
        <time>2019-08-21T10:05:02Z</time>
        <sat>9</sat>
      </trkpt>
      <trkpt lat="42.436627" lon="-2.934970">
        <ele>641.2</ele>
        <time>2019-08-21T10:05:08Z</time>
        <sat>10</sat>
      </trkpt>
      <trkpt lat="42.436653" lon="-2.935025">
        <ele>641.3</ele>
        <time>2019-08-21T10:05:12Z</time>
        <sat>10</sat>
      </trkpt>
      <trkpt lat="42.436684" lon="-2.935148">
        <ele>641.4</ele>
        <time>2019-08-21T10:05:19Z</time>
        <sat>9</sat>
      </trkpt>
      <trkpt lat="42.436738" lon="-2.935303">
        <ele>641.3</ele>
        <time>2019-08-21T10:05:29Z</time>
        <sat>10</sat>
      </trkpt>
      <trkpt lat="42.436775" lon="-2.935396">
        <ele>641.4</ele>
        <time>2019-08-21T10:05:35Z</time>
        <sat>10</sat>
      </trkpt>
      <trkpt lat="42.436799" lon="-2.935496">
        <ele>641.5</ele>
        <time>2019-08-21T10:05:41Z</time>
        <sat>10</sat>
      </trkpt>
      <trkpt lat="42.436854" lon="-2.935681">
        <ele>641.6</ele>
        <time>2019-08-21T10:05:52Z</time>
        <sat>9</sat>
      </trkpt>
      <trkpt lat="42.436900" lon="-2.935809">
        <ele>641.6</ele>
        <time>2019-08-21T10:06:00Z</time>
        <sat>10</sat>
      </trkpt>
      <trkpt lat="42.436943" lon="-2.935964">
        <ele>641.7</ele>
        <time>2019-08-21T10:06:09Z</time>
        <sat>10</sat>
      </trkpt>
      <trkpt lat="42.436959" lon="-2.936038">
        <ele>641.6</ele>
        <time>2019-08-21T10:06:15Z</time>
        <sat>10</sat>
      </trkpt>
      <trkpt lat="42.436968" lon="-2.936108">
        <ele>641.8</ele>
        <time>2019-08-21T10:06:19Z</time>
        <sat>9</sat>
      </trkpt>
      <trkpt lat="42.437027" lon="-2.936320">
        <ele>641.9</ele>
        <time>2019-08-21T10:06:33Z</time>
        <sat>10</sat>
      </trkpt>
      <trkpt lat="42.437065" lon="-2.936443">
        <ele>642.0</ele>
        <time>2019-08-21T10:06:40Z</time>
        <sat>10</sat>
      </trkpt>
      <trkpt lat="42.437107" lon="-2.936628">
        <ele>642.0</ele>
        <time>2019-08-21T10:06:51Z</time>
        <sat>9</sat>
      </trkpt>
      <trkpt lat="42.437136" lon="-2.936724">
        <ele>641.9</ele>
        <time>2019-08-21T10:06:57Z</time>
        <sat>9</sat>
      </trkpt>
      <trkpt lat="42.437199" lon="-2.936959">
        <ele>642.0</ele>
        <time>2019-08-21T10:07:11Z</time>
        <sat>9</sat>
      </trkpt>
      <trkpt lat="42.437220" lon="-2.937039">
        <ele>641.9</ele>
        <time>2019-08-21T10:07:16Z</time>
        <sat>9</sat>
      </trkpt>
      <trkpt lat="42.437237" lon="-2.937087">
        <ele>642.0</ele>
        <time>2019-08-21T10:07:19Z</time>
        <sat>9</sat>
      </trkpt>
      <trkpt lat="42.437258" lon="-2.937174">
        <ele>642.1</ele>
        <time>2019-08-21T10:07:24Z</time>
        <sat>10</sat>
      </trkpt>
      <trkpt lat="42.437322" lon="-2.937343">
        <ele>642.2</ele>
        <time>2019-08-21T10:07:35Z</time>
        <sat>10</sat>
      </trkpt>
      <trkpt lat="42.437347" lon="-2.937443">
        <ele>642.2</ele>
        <time>2019-08-21T10:07:41Z</time>
        <sat>9</sat>
      </trkpt>
      <trkpt lat="42.437397" lon="-2.937624">
        <ele>642.3</ele>
        <time>2019-08-21T10:07:52Z</time>
        <sat>10</sat>
      </trkpt>
      <trkpt lat="42.437425" lon="-2.937761">
        <ele>642.6</ele>
        <time>2019-08-21T10:08:03Z</time>
        <sat>9</sat>
      </trkpt>
      <trkpt lat="42.437441" lon="-2.937847">
        <ele>642.6</ele>
        <time>2019-08-21T10:08:08Z</time>
        <sat>9</sat>
      </trkpt>
      <trkpt lat="42.437457" lon="-2.937894">
        <ele>642.6</ele>
        <time>2019-08-21T10:08:11Z</time>
        <sat>9</sat>
      </trkpt>
      <trkpt lat="42.437481" lon="-2.938026">
        <ele>642.6</ele>
        <time>2019-08-21T10:08:19Z</time>
        <sat>8</sat>
      </trkpt>
      <trkpt lat="42.437516" lon="-2.938124">
        <ele>642.6</ele>
        <time>2019-08-21T10:08:25Z</time>
        <sat>9</sat>
      </trkpt>
      <trkpt lat="42.437572" lon="-2.938340">
        <ele>642.5</ele>
        <time>2019-08-21T10:08:38Z</time>
        <sat>8</sat>
      </trkpt>
      <trkpt lat="42.437581" lon="-2.938405">
        <ele>642.5</ele>
        <time>2019-08-21T10:08:42Z</time>
        <sat>10</sat>
      </trkpt>
      <trkpt lat="42.437612" lon="-2.938522">
        <ele>642.4</ele>
        <time>2019-08-21T10:08:49Z</time>
        <sat>9</sat>
      </trkpt>
      <trkpt lat="42.437674" lon="-2.938697">
        <ele>642.4</ele>
        <time>2019-08-21T10:09:00Z</time>
        <sat>9</sat>
      </trkpt>
      <trkpt lat="42.437752" lon="-2.938844">
        <ele>642.2</ele>
        <time>2019-08-21T10:09:10Z</time>
        <sat>9</sat>
      </trkpt>
      <trkpt lat="42.437865" lon="-2.939010">
        <ele>642.0</ele>
        <time>2019-08-21T10:09:22Z</time>
        <sat>10</sat>
      </trkpt>
      <trkpt lat="42.437920" lon="-2.939072">
        <ele>641.9</ele>
        <time>2019-08-21T10:09:27Z</time>
        <sat>10</sat>
      </trkpt>
      <trkpt lat="42.437980" lon="-2.939154">
        <ele>641.5</ele>
        <time>2019-08-21T10:09:53Z</time>
        <sat>9</sat>
      </trkpt>
      <trkpt lat="42.438011" lon="-2.939187">
        <ele>641.8</ele>
        <time>2019-08-21T10:09:57Z</time>
        <sat>10</sat>
      </trkpt>
      <trkpt lat="42.438129" lon="-2.939324">
        <ele>641.7</ele>
        <time>2019-08-21T10:10:08Z</time>
        <sat>10</sat>
      </trkpt>
      <trkpt lat="42.438211" lon="-2.939399">
        <ele>641.6</ele>
        <time>2019-08-21T10:10:15Z</time>
        <sat>10</sat>
      </trkpt>
      <trkpt lat="42.438231" lon="-2.939441">
        <ele>641.7</ele>
        <time>2019-08-21T10:10:18Z</time>
        <sat>10</sat>
      </trkpt>
      <trkpt lat="42.438267" lon="-2.939501">
        <ele>641.8</ele>
        <time>2019-08-21T10:10:23Z</time>
        <sat>9</sat>
      </trkpt>
      <trkpt lat="42.438276" lon="-2.939539">
        <ele>642.0</ele>
        <time>2019-08-21T10:10:30Z</time>
        <sat>9</sat>
      </trkpt>
      <trkpt lat="42.438257" lon="-2.939663">
        <ele>642.1</ele>
        <time>2019-08-21T10:10:36Z</time>
        <sat>8</sat>
      </trkpt>
      <trkpt lat="42.438254" lon="-2.939758">
        <ele>642.2</ele>
        <time>2019-08-21T10:10:41Z</time>
        <sat>8</sat>
      </trkpt>
      <trkpt lat="42.438294" lon="-2.939942">
        <ele>642.1</ele>
        <time>2019-08-21T10:10:51Z</time>
        <sat>9</sat>
      </trkpt>
      <trkpt lat="42.438342" lon="-2.940129">
        <ele>642.0</ele>
        <time>2019-08-21T10:11:01Z</time>
        <sat>9</sat>
      </trkpt>
      <trkpt lat="42.438355" lon="-2.940201">
        <ele>642.0</ele>
        <time>2019-08-21T10:11:05Z</time>
        <sat>8</sat>
      </trkpt>
      <trkpt lat="42.438364" lon="-2.940318">
        <ele>642.1</ele>
        <time>2019-08-21T10:11:11Z</time>
        <sat>8</sat>
      </trkpt>
      <trkpt lat="42.438385" lon="-2.940406">
        <ele>642.3</ele>
        <time>2019-08-21T10:11:16Z</time>
        <sat>8</sat>
      </trkpt>
      <trkpt lat="42.438419" lon="-2.940507">
        <ele>642.4</ele>
        <time>2019-08-21T10:11:22Z</time>
        <sat>9</sat>
      </trkpt>
      <trkpt lat="42.438425" lon="-2.940565">
        <ele>642.5</ele>
        <time>2019-08-21T10:11:25Z</time>
        <sat>8</sat>
      </trkpt>
      <trkpt lat="42.438456" lon="-2.940695">
        <ele>642.5</ele>
        <time>2019-08-21T10:11:32Z</time>
        <sat>8</sat>
      </trkpt>
      <trkpt lat="42.438496" lon="-2.940898">
        <ele>642.4</ele>
        <time>2019-08-21T10:11:43Z</time>
        <sat>8</sat>
      </trkpt>
      <trkpt lat="42.438533" lon="-2.941024">
        <ele>642.5</ele>
        <time>2019-08-21T10:11:50Z</time>
        <sat>8</sat>
      </trkpt>
      <trkpt lat="42.438542" lon="-2.941151">
        <ele>642.5</ele>
        <time>2019-08-21T10:11:57Z</time>
        <sat>8</sat>
      </trkpt>
      <trkpt lat="42.438569" lon="-2.941333">
        <ele>642.6</ele>
        <time>2019-08-21T10:12:07Z</time>
        <sat>8</sat>
      </trkpt>
      <trkpt lat="42.438625" lon="-2.941567">
        <ele>642.7</ele>
        <time>2019-08-21T10:12:20Z</time>
        <sat>8</sat>
      </trkpt>
      <trkpt lat="42.438641" lon="-2.941622">
        <ele>642.7</ele>
        <time>2019-08-21T10:12:23Z</time>
        <sat>9</sat>
      </trkpt>
      <trkpt lat="42.438654" lon="-2.941727">
        <ele>642.8</ele>
        <time>2019-08-21T10:12:29Z</time>
        <sat>10</sat>
      </trkpt>
      <trkpt lat="42.438676" lon="-2.941946">
        <ele>643.2</ele>
        <time>2019-08-21T10:12:41Z</time>
        <sat>9</sat>
      </trkpt>
      <trkpt lat="42.438712" lon="-2.942121">
        <ele>643.3</ele>
        <time>2019-08-21T10:12:51Z</time>
        <sat>9</sat>
      </trkpt>
      <trkpt lat="42.438719" lon="-2.942199">
        <ele>643.1</ele>
        <time>2019-08-21T10:12:55Z</time>
        <sat>9</sat>
      </trkpt>
      <trkpt lat="42.438760" lon="-2.942356">
        <ele>643.1</ele>
        <time>2019-08-21T10:13:04Z</time>
        <sat>10</sat>
      </trkpt>
      <trkpt lat="42.438809" lon="-2.942587">
        <ele>643.0</ele>
        <time>2019-08-21T10:13:17Z</time>
        <sat>9</sat>
      </trkpt>
      <trkpt lat="42.438820" lon="-2.942696">
        <ele>643.0</ele>
        <time>2019-08-21T10:13:23Z</time>
        <sat>9</sat>
      </trkpt>
      <trkpt lat="42.438828" lon="-2.942732">
        <ele>643.1</ele>
        <time>2019-08-21T10:13:25Z</time>
        <sat>9</sat>
      </trkpt>
      <trkpt lat="42.438844" lon="-2.942860">
        <ele>643.3</ele>
        <time>2019-08-21T10:13:33Z</time>
        <sat>10</sat>
      </trkpt>
      <trkpt lat="42.438845" lon="-2.942805">
        <ele>643.4</ele>
        <time>2019-08-21T10:13:38Z</time>
        <sat>11</sat>
      </trkpt>
      <trkpt lat="42.438863" lon="-2.942946">
        <ele>643.5</ele>
        <time>2019-08-21T10:13:50Z</time>
        <sat>10</sat>
      </trkpt>
      <trkpt lat="42.438892" lon="-2.943050">
        <ele>643.3</ele>
        <time>2019-08-21T10:13:56Z</time>
        <sat>10</sat>
      </trkpt>
      <trkpt lat="42.438900" lon="-2.943123">
        <ele>643.4</ele>
        <time>2019-08-21T10:14:00Z</time>
        <sat>11</sat>
      </trkpt>
      <trkpt lat="42.438917" lon="-2.943197">
        <ele>643.4</ele>
        <time>2019-08-21T10:14:04Z</time>
        <sat>10</sat>
      </trkpt>
      <trkpt lat="42.438917" lon="-2.943276">
        <ele>643.4</ele>
        <time>2019-08-21T10:14:08Z</time>
        <sat>11</sat>
      </trkpt>
      <trkpt lat="42.438946" lon="-2.943361">
        <ele>643.5</ele>
        <time>2019-08-21T10:14:13Z</time>
        <sat>11</sat>
      </trkpt>
      <trkpt lat="42.438968" lon="-2.943555">
        <ele>643.5</ele>
        <time>2019-08-21T10:14:23Z</time>
        <sat>11</sat>
      </trkpt>
      <trkpt lat="42.438994" lon="-2.943663">
        <ele>643.6</ele>
        <time>2019-08-21T10:14:29Z</time>
        <sat>10</sat>
      </trkpt>
      <trkpt lat="42.439004" lon="-2.943771">
        <ele>643.7</ele>
        <time>2019-08-21T10:14:35Z</time>
        <sat>11</sat>
      </trkpt>
      <trkpt lat="42.439023" lon="-2.943876">
        <ele>643.7</ele>
        <time>2019-08-21T10:14:41Z</time>
        <sat>11</sat>
      </trkpt>
      <trkpt lat="42.439066" lon="-2.943992">
        <ele>643.7</ele>
        <time>2019-08-21T10:14:48Z</time>
        <sat>11</sat>
      </trkpt>
      <trkpt lat="42.439104" lon="-2.944128">
        <ele>641.0</ele>
        <time>2019-08-21T10:14:56Z</time>
        <sat>11</sat>
      </trkpt>
      <trkpt lat="42.439136" lon="-2.944268">
        <ele>644.2</ele>
        <time>2019-08-21T10:15:05Z</time>
        <sat>11</sat>
      </trkpt>
      <trkpt lat="42.439143" lon="-2.944376">
        <ele>644.4</ele>
        <time>2019-08-21T10:15:11Z</time>
        <sat>9</sat>
      </trkpt>
      <trkpt lat="42.439158" lon="-2.944448">
        <ele>644.0</ele>
        <time>2019-08-21T10:15:15Z</time>
        <sat>10</sat>
      </trkpt>
      <trkpt lat="42.439217" lon="-2.944693">
        <ele>643.9</ele>
        <time>2019-08-21T10:15:29Z</time>
        <sat>9</sat>
      </trkpt>
      <trkpt lat="42.439228" lon="-2.944766">
        <ele>643.9</ele>
        <time>2019-08-21T10:15:34Z</time>
        <sat>10</sat>
      </trkpt>
      <trkpt lat="42.439318" lon="-2.944794">
        <ele>643.8</ele>
        <time>2019-08-21T10:15:40Z</time>
        <sat>10</sat>
      </trkpt>
      <trkpt lat="42.439346" lon="-2.944886">
        <ele>643.7</ele>
        <time>2019-08-21T10:15:46Z</time>
        <sat>9</sat>
      </trkpt>
      <trkpt lat="42.439459" lon="-2.945320">
        <ele>643.7</ele>
        <time>2019-08-21T10:16:18Z</time>
        <sat>11</sat>
      </trkpt>
      <trkpt lat="42.439499" lon="-2.945398">
        <ele>643.6</ele>
        <time>2019-08-21T10:16:21Z</time>
        <sat>10</sat>
      </trkpt>
      <trkpt lat="42.439505" lon="-2.945445">
        <ele>643.6</ele>
        <time>2019-08-21T10:16:24Z</time>
        <sat>11</sat>
      </trkpt>
      <trkpt lat="42.439542" lon="-2.945571">
        <ele>643.6</ele>
        <time>2019-08-21T10:16:31Z</time>
        <sat>10</sat>
      </trkpt>
      <trkpt lat="42.439570" lon="-2.945763">
        <ele>643.7</ele>
        <time>2019-08-21T10:16:41Z</time>
        <sat>10</sat>
      </trkpt>
      <trkpt lat="42.439588" lon="-2.945816">
        <ele>643.7</ele>
        <time>2019-08-21T10:16:44Z</time>
        <sat>9</sat>
      </trkpt>
      <trkpt lat="42.439623" lon="-2.946050">
        <ele>643.7</ele>
        <time>2019-08-21T10:16:56Z</time>
        <sat>9</sat>
      </trkpt>
      <trkpt lat="42.439646" lon="-2.946122">
        <ele>643.7</ele>
        <time>2019-08-21T10:17:00Z</time>
        <sat>10</sat>
      </trkpt>
      <trkpt lat="42.439690" lon="-2.946310">
        <ele>643.8</ele>
        <time>2019-08-21T10:17:12Z</time>
        <sat>9</sat>
      </trkpt>
      <trkpt lat="42.439724" lon="-2.946423">
        <ele>643.9</ele>
        <time>2019-08-21T10:17:19Z</time>
        <sat>10</sat>
      </trkpt>
      <trkpt lat="42.439738" lon="-2.946495">
        <ele>643.9</ele>
        <time>2019-08-21T10:17:23Z</time>
        <sat>10</sat>
      </trkpt>
      <trkpt lat="42.439770" lon="-2.946585">
        <ele>644.0</ele>
        <time>2019-08-21T10:17:29Z</time>
        <sat>11</sat>
      </trkpt>
      <trkpt lat="42.439777" lon="-2.946633">
        <ele>644.0</ele>
        <time>2019-08-21T10:17:31Z</time>
        <sat>11</sat>
      </trkpt>
      <trkpt lat="42.439797" lon="-2.946709">
        <ele>644.0</ele>
        <time>2019-08-21T10:17:35Z</time>
        <sat>11</sat>
      </trkpt>
      <trkpt lat="42.439803" lon="-2.946763">
        <ele>643.9</ele>
        <time>2019-08-21T10:17:38Z</time>
        <sat>10</sat>
      </trkpt>
      <trkpt lat="42.439838" lon="-2.946858">
        <ele>643.9</ele>
        <time>2019-08-21T10:17:44Z</time>
        <sat>11</sat>
      </trkpt>
      <trkpt lat="42.439895" lon="-2.947105">
        <ele>643.7</ele>
        <time>2019-08-21T10:17:57Z</time>
        <sat>10</sat>
      </trkpt>
      <trkpt lat="42.439907" lon="-2.947140">
        <ele>643.6</ele>
        <time>2019-08-21T10:17:59Z</time>
        <sat>11</sat>
      </trkpt>
      <trkpt lat="42.439929" lon="-2.947250">
        <ele>643.2</ele>
        <time>2019-08-21T10:18:05Z</time>
        <sat>10</sat>
      </trkpt>
      <trkpt lat="42.439984" lon="-2.947761">
        <ele>642.2</ele>
        <time>2019-08-21T10:18:47Z</time>
        <sat>11</sat>
      </trkpt>
      <trkpt lat="42.440036" lon="-2.947977">
        <ele>645.3</ele>
        <time>2019-08-21T10:18:59Z</time>
        <sat>10</sat>
      </trkpt>
      <trkpt lat="42.440076" lon="-2.948093">
        <ele>644.8</ele>
        <time>2019-08-21T10:19:06Z</time>
        <sat>10</sat>
      </trkpt>
      <trkpt lat="42.440089" lon="-2.948212">
        <ele>644.1</ele>
        <time>2019-08-21T10:19:13Z</time>
        <sat>10</sat>
      </trkpt>
      <trkpt lat="42.440125" lon="-2.948323">
        <ele>643.3</ele>
        <time>2019-08-21T10:19:20Z</time>
        <sat>11</sat>
      </trkpt>
      <trkpt lat="42.440163" lon="-2.948387">
        <ele>643.3</ele>
        <time>2019-08-21T10:19:25Z</time>
        <sat>10</sat>
      </trkpt>
      <trkpt lat="42.440180" lon="-2.948473">
        <ele>643.1</ele>
        <time>2019-08-21T10:19:30Z</time>
        <sat>10</sat>
      </trkpt>
      <trkpt lat="42.440185" lon="-2.948544">
        <ele>642.4</ele>
        <time>2019-08-21T10:19:35Z</time>
        <sat>10</sat>
      </trkpt>
      <trkpt lat="42.440210" lon="-2.948593">
        <ele>641.5</ele>
        <time>2019-08-21T10:19:39Z</time>
        <sat>9</sat>
      </trkpt>
      <trkpt lat="42.440210" lon="-2.948631">
        <ele>640.0</ele>
        <time>2019-08-21T10:19:44Z</time>
        <sat>8</sat>
      </trkpt>
      <trkpt lat="42.440228" lon="-2.948696">
        <ele>642.9</ele>
        <time>2019-08-21T10:19:52Z</time>
        <sat>9</sat>
      </trkpt>
      <trkpt lat="42.440227" lon="-2.948780">
        <ele>641.5</ele>
        <time>2019-08-21T10:19:55Z</time>
        <sat>9</sat>
      </trkpt>
      <trkpt lat="42.440319" lon="-2.949316">
        <ele>643.7</ele>
        <time>2019-08-21T10:20:33Z</time>
        <sat>9</sat>
      </trkpt>
      <trkpt lat="42.440362" lon="-2.949401">
        <ele>642.6</ele>
        <time>2019-08-21T10:20:41Z</time>
        <sat>10</sat>
      </trkpt>
      <trkpt lat="42.440403" lon="-2.949443">
        <ele>643.3</ele>
        <time>2019-08-21T10:20:43Z</time>
        <sat>10</sat>
      </trkpt>
      <trkpt lat="42.440540" lon="-2.949864">
        <ele>643.5</ele>
        <time>2019-08-21T10:21:05Z</time>
        <sat>9</sat>
      </trkpt>
      <trkpt lat="42.440555" lon="-2.949985">
        <ele>644.1</ele>
        <time>2019-08-21T10:21:11Z</time>
        <sat>9</sat>
      </trkpt>
      <trkpt lat="42.440595" lon="-2.950371">
        <ele>643.5</ele>
        <time>2019-08-21T10:21:33Z</time>
        <sat>8</sat>
      </trkpt>
      <trkpt lat="42.440600" lon="-2.950461">
        <ele>644.4</ele>
        <time>2019-08-21T10:21:37Z</time>
        <sat>7</sat>
      </trkpt>
      <trkpt lat="42.440625" lon="-2.950520">
        <ele>644.5</ele>
        <time>2019-08-21T10:21:43Z</time>
        <sat>8</sat>
      </trkpt>
      <trkpt lat="42.440633" lon="-2.950561">
        <ele>643.5</ele>
        <time>2019-08-21T10:21:52Z</time>
        <sat>7</sat>
      </trkpt>
      <trkpt lat="42.440682" lon="-2.951085">
        <ele>644.2</ele>
        <time>2019-08-21T10:22:22Z</time>
        <sat>9</sat>
      </trkpt>
      <trkpt lat="42.440645" lon="-2.951157">
        <ele>645.1</ele>
        <time>2019-08-21T10:22:25Z</time>
        <sat>10</sat>
      </trkpt>
      <trkpt lat="42.440628" lon="-2.951249">
        <ele>644.5</ele>
        <time>2019-08-21T10:22:29Z</time>
        <sat>7</sat>
      </trkpt>
      <trkpt lat="42.440638" lon="-2.951315">
        <ele>643.6</ele>
        <time>2019-08-21T10:22:33Z</time>
        <sat>8</sat>
      </trkpt>
      <trkpt lat="42.440653" lon="-2.951342">
        <ele>644.8</ele>
        <time>2019-08-21T10:22:39Z</time>
        <sat>7</sat>
      </trkpt>
      <trkpt lat="42.440659" lon="-2.951487">
        <ele>645.5</ele>
        <time>2019-08-21T10:22:51Z</time>
        <sat>9</sat>
      </trkpt>
      <trkpt lat="42.440724" lon="-2.951751">
        <ele>644.6</ele>
        <time>2019-08-21T10:23:20Z</time>
        <sat>8</sat>
      </trkpt>
      <trkpt lat="42.440757" lon="-2.951941">
        <ele>645.0</ele>
        <time>2019-08-21T10:23:30Z</time>
        <sat>8</sat>
      </trkpt>
      <trkpt lat="42.440754" lon="-2.952054">
        <ele>645.0</ele>
        <time>2019-08-21T10:23:34Z</time>
        <sat>6</sat>
      </trkpt>
      <trkpt lat="42.440769" lon="-2.952173">
        <ele>646.5</ele>
        <time>2019-08-21T10:23:41Z</time>
        <sat>8</sat>
      </trkpt>
      <trkpt lat="42.440777" lon="-2.952240">
        <ele>645.0</ele>
        <time>2019-08-21T10:23:46Z</time>
        <sat>7</sat>
      </trkpt>
      <trkpt lat="42.440787" lon="-2.952319">
        <ele>644.2</ele>
        <time>2019-08-21T10:23:58Z</time>
        <sat>6</sat>
      </trkpt>
      <trkpt lat="42.440806" lon="-2.952432">
        <ele>645.4</ele>
        <time>2019-08-21T10:24:05Z</time>
        <sat>9</sat>
      </trkpt>
      <trkpt lat="42.440823" lon="-2.952550">
        <ele>644.7</ele>
        <time>2019-08-21T10:24:09Z</time>
        <sat>10</sat>
      </trkpt>
    </trkseg>
    <trkseg>
      <trkpt lat="42.440836" lon="-2.952640">
        <ele>641.4</ele>
        <time>2019-08-22T05:08:31Z</time>
        <sat>4</sat>
      </trkpt>
      <trkpt lat="42.440860" lon="-2.952750">
        <ele>641.0</ele>
        <time>2019-08-22T05:08:43Z</time>
        <sat>5</sat>
      </trkpt>
      <trkpt lat="42.440866" lon="-2.952839">
        <ele>640.7</ele>
        <time>2019-08-22T05:08:48Z</time>
        <sat>5</sat>
      </trkpt>
      <trkpt lat="42.440885" lon="-2.952967">
        <ele>640.8</ele>
        <time>2019-08-22T05:08:51Z</time>
        <sat>5</sat>
      </trkpt>
      <trkpt lat="42.440914" lon="-2.953131">
        <ele>640.8</ele>
        <time>2019-08-22T05:08:57Z</time>
        <sat>5</sat>
      </trkpt>
      <trkpt lat="42.440877" lon="-2.953472">
        <ele>641.2</ele>
        <time>2019-08-22T05:09:41Z</time>
        <sat>5</sat>
      </trkpt>
      <trkpt lat="42.440851" lon="-2.953740">
        <ele>641.8</ele>
        <time>2019-08-22T05:10:06Z</time>
        <sat>6</sat>
      </trkpt>
      <trkpt lat="42.440910" lon="-2.953888">
        <ele>642.4</ele>
        <time>2019-08-22T05:10:19Z</time>
        <sat>6</sat>
      </trkpt>
      <trkpt lat="42.440953" lon="-2.954277">
        <ele>642.9</ele>
        <time>2019-08-22T05:11:17Z</time>
        <sat>7</sat>
      </trkpt>
      <trkpt lat="42.440957" lon="-2.954561">
        <ele>641.6</ele>
        <time>2019-08-22T05:11:36Z</time>
        <sat>7</sat>
      </trkpt>
      <trkpt lat="42.440980" lon="-2.954986">
        <ele>641.8</ele>
        <time>2019-08-22T05:11:59Z</time>
        <sat>8</sat>
      </trkpt>
      <trkpt lat="42.441007" lon="-2.955429">
        <ele>642.2</ele>
        <time>2019-08-22T05:12:29Z</time>
        <sat>7</sat>
      </trkpt>
      <trkpt lat="42.441009" lon="-2.955671">
        <ele>642.3</ele>
        <time>2019-08-22T05:12:42Z</time>
        <sat>8</sat>
      </trkpt>
      <trkpt lat="42.441049" lon="-2.955862">
        <ele>642.2</ele>
        <time>2019-08-22T05:12:54Z</time>
        <sat>7</sat>
      </trkpt>
      <trkpt lat="42.441062" lon="-2.956164">
        <ele>642.1</ele>
        <time>2019-08-22T05:13:15Z</time>
        <sat>8</sat>
      </trkpt>
      <trkpt lat="42.441077" lon="-2.956378">
        <ele>642.1</ele>
        <time>2019-08-22T05:13:26Z</time>
        <sat>8</sat>
      </trkpt>
      <trkpt lat="42.441104" lon="-2.956578">
        <ele>642.1</ele>
        <time>2019-08-22T05:13:39Z</time>
        <sat>7</sat>
      </trkpt>
      <trkpt lat="42.441110" lon="-2.956820">
        <ele>642.1</ele>
        <time>2019-08-22T05:13:54Z</time>
        <sat>8</sat>
      </trkpt>
      <trkpt lat="42.441163" lon="-2.956952">
        <ele>642.4</ele>
        <time>2019-08-22T05:14:01Z</time>
        <sat>8</sat>
      </trkpt>
      <trkpt lat="42.441085" lon="-2.957153">
        <ele>643.0</ele>
        <time>2019-08-22T05:14:09Z</time>
        <sat>8</sat>
      </trkpt>
      <trkpt lat="42.441037" lon="-2.957231">
        <ele>643.5</ele>
        <time>2019-08-22T05:14:15Z</time>
        <sat>8</sat>
      </trkpt>
      <trkpt lat="42.441041" lon="-2.957324">
        <ele>643.5</ele>
        <time>2019-08-22T05:14:23Z</time>
        <sat>8</sat>
      </trkpt>
      <trkpt lat="42.441056" lon="-2.957384">
        <ele>643.6</ele>
        <time>2019-08-22T05:14:29Z</time>
        <sat>7</sat>
      </trkpt>
      <trkpt lat="42.441058" lon="-2.957524">
        <ele>643.8</ele>
        <time>2019-08-22T05:14:43Z</time>
        <sat>7</sat>
      </trkpt>
      <trkpt lat="42.441071" lon="-2.957803">
        <ele>643.9</ele>
        <time>2019-08-22T05:15:09Z</time>
        <sat>7</sat>
      </trkpt>
      <trkpt lat="42.441093" lon="-2.958049">
        <ele>643.7</ele>
        <time>2019-08-22T05:15:21Z</time>
        <sat>7</sat>
      </trkpt>
      <trkpt lat="42.441102" lon="-2.958148">
        <ele>643.7</ele>
        <time>2019-08-22T05:15:26Z</time>
        <sat>8</sat>
      </trkpt>
      <trkpt lat="42.441121" lon="-2.958299">
        <ele>643.6</ele>
        <time>2019-08-22T05:15:35Z</time>
        <sat>8</sat>
      </trkpt>
      <trkpt lat="42.441125" lon="-2.958370">
        <ele>643.6</ele>
        <time>2019-08-22T05:15:40Z</time>
        <sat>7</sat>
      </trkpt>
      <trkpt lat="42.441148" lon="-2.958462">
        <ele>643.6</ele>
        <time>2019-08-22T05:15:47Z</time>
        <sat>8</sat>
      </trkpt>
      <trkpt lat="42.441218" lon="-2.958588">
        <ele>643.5</ele>
        <time>2019-08-22T05:15:56Z</time>
        <sat>8</sat>
      </trkpt>
      <trkpt lat="42.441265" lon="-2.958647">
        <ele>643.5</ele>
        <time>2019-08-22T05:16:02Z</time>
        <sat>7</sat>
      </trkpt>
      <trkpt lat="42.441307" lon="-2.958791">
        <ele>643.5</ele>
        <time>2019-08-22T05:16:10Z</time>
        <sat>7</sat>
      </trkpt>
      <trkpt lat="42.441359" lon="-2.959021">
        <ele>643.9</ele>
        <time>2019-08-22T05:16:21Z</time>
        <sat>8</sat>
      </trkpt>
      <trkpt lat="42.441425" lon="-2.959170">
        <ele>644.0</ele>
        <time>2019-08-22T05:16:30Z</time>
        <sat>7</sat>
      </trkpt>
      <trkpt lat="42.441469" lon="-2.959345">
        <ele>644.2</ele>
        <time>2019-08-22T05:16:39Z</time>
        <sat>7</sat>
      </trkpt>
      <trkpt lat="42.441512" lon="-2.959425">
        <ele>644.2</ele>
        <time>2019-08-22T05:16:45Z</time>
        <sat>8</sat>
      </trkpt>
      <trkpt lat="42.441577" lon="-2.959635">
        <ele>644.5</ele>
        <time>2019-08-22T05:16:57Z</time>
        <sat>8</sat>
      </trkpt>
      <trkpt lat="42.441612" lon="-2.959708">
        <ele>644.8</ele>
        <time>2019-08-22T05:17:02Z</time>
        <sat>7</sat>
      </trkpt>
      <trkpt lat="42.441651" lon="-2.959874">
        <ele>645.0</ele>
        <time>2019-08-22T05:17:10Z</time>
        <sat>7</sat>
      </trkpt>
      <trkpt lat="42.441719" lon="-2.960000">
        <ele>645.1</ele>
        <time>2019-08-22T05:17:18Z</time>
        <sat>8</sat>
      </trkpt>
      <trkpt lat="42.441734" lon="-2.960067">
        <ele>645.1</ele>
        <time>2019-08-22T05:17:21Z</time>
        <sat>7</sat>
      </trkpt>
      <trkpt lat="42.441769" lon="-2.960136">
        <ele>645.2</ele>
        <time>2019-08-22T05:17:25Z</time>
        <sat>7</sat>
      </trkpt>
      <trkpt lat="42.441858" lon="-2.960399">
        <ele>645.6</ele>
        <time>2019-08-22T05:19:08Z</time>
        <sat>9</sat>
      </trkpt>
      <trkpt lat="42.441880" lon="-2.960510">
        <ele>645.8</ele>
        <time>2019-08-22T05:19:15Z</time>
        <sat>9</sat>
      </trkpt>
      <trkpt lat="42.441926" lon="-2.960706">
        <ele>646.0</ele>
        <time>2019-08-22T05:19:25Z</time>
        <sat>9</sat>
      </trkpt>
      <trkpt lat="42.441936" lon="-2.960796">
        <ele>646.0</ele>
        <time>2019-08-22T05:19:29Z</time>
        <sat>9</sat>
      </trkpt>
      <trkpt lat="42.441956" lon="-2.960858">
        <ele>646.1</ele>
        <time>2019-08-22T05:19:33Z</time>
        <sat>9</sat>
      </trkpt>
      <trkpt lat="42.442002" lon="-2.960951">
        <ele>646.2</ele>
        <time>2019-08-22T05:19:39Z</time>
        <sat>9</sat>
      </trkpt>
      <trkpt lat="42.442019" lon="-2.961023">
        <ele>646.3</ele>
        <time>2019-08-22T05:19:43Z</time>
        <sat>9</sat>
      </trkpt>
      <trkpt lat="42.442028" lon="-2.961112">
        <ele>646.3</ele>
        <time>2019-08-22T05:19:47Z</time>
        <sat>9</sat>
      </trkpt>
      <trkpt lat="42.442054" lon="-2.961168">
        <ele>646.3</ele>
        <time>2019-08-22T05:19:50Z</time>
        <sat>9</sat>
      </trkpt>
      <trkpt lat="42.442084" lon="-2.961216">
        <ele>646.4</ele>
        <time>2019-08-22T05:19:53Z</time>
        <sat>9</sat>
      </trkpt>
      <trkpt lat="42.442117" lon="-2.961325">
        <ele>646.4</ele>
        <time>2019-08-22T05:20:00Z</time>
        <sat>9</sat>
      </trkpt>
      <trkpt lat="42.442140" lon="-2.961453">
        <ele>646.4</ele>
        <time>2019-08-22T05:20:06Z</time>
        <sat>9</sat>
      </trkpt>
      <trkpt lat="42.442205" lon="-2.961594">
        <ele>646.4</ele>
        <time>2019-08-22T05:20:16Z</time>
        <sat>9</sat>
      </trkpt>
      <trkpt lat="42.442224" lon="-2.961714">
        <ele>646.4</ele>
        <time>2019-08-22T05:20:22Z</time>
        <sat>9</sat>
      </trkpt>
      <trkpt lat="42.442247" lon="-2.961773">
        <ele>646.3</ele>
        <time>2019-08-22T05:20:26Z</time>
        <sat>9</sat>
      </trkpt>
      <trkpt lat="42.442290" lon="-2.961843">
        <ele>646.3</ele>
        <time>2019-08-22T05:20:31Z</time>
        <sat>9</sat>
      </trkpt>
      <trkpt lat="42.442306" lon="-2.961915">
        <ele>646.3</ele>
        <time>2019-08-22T05:20:35Z</time>
        <sat>9</sat>
      </trkpt>
      <trkpt lat="42.442313" lon="-2.962001">
        <ele>646.2</ele>
        <time>2019-08-22T05:20:39Z</time>
        <sat>9</sat>
      </trkpt>
      <trkpt lat="42.442375" lon="-2.962163">
        <ele>646.3</ele>
        <time>2019-08-22T05:21:06Z</time>
        <sat>9</sat>
      </trkpt>
      <trkpt lat="42.442426" lon="-2.962211">
        <ele>645.9</ele>
        <time>2019-08-22T05:21:15Z</time>
        <sat>9</sat>
      </trkpt>
      <trkpt lat="42.442434" lon="-2.962209">
        <ele>645.6</ele>
        <time>2019-08-22T05:21:31Z</time>
        <sat>9</sat>
      </trkpt>
      <trkpt lat="42.442522" lon="-2.962256">
        <ele>644.8</ele>
        <time>2019-08-22T05:21:50Z</time>
        <sat>9</sat>
      </trkpt>
      <trkpt lat="42.442564" lon="-2.962308">
        <ele>644.1</ele>
        <time>2019-08-22T05:21:54Z</time>
        <sat>9</sat>
      </trkpt>
      <trkpt lat="42.442585" lon="-2.962358">
        <ele>643.5</ele>
        <time>2019-08-22T05:21:57Z</time>
        <sat>9</sat>
      </trkpt>
      <trkpt lat="42.442597" lon="-2.962453">
        <ele>642.4</ele>
        <time>2019-08-22T05:22:03Z</time>
        <sat>9</sat>
      </trkpt>
      <trkpt lat="42.442652" lon="-2.962596">
        <ele>641.9</ele>
        <time>2019-08-22T05:22:12Z</time>
        <sat>9</sat>
      </trkpt>
      <trkpt lat="42.442699" lon="-2.962765">
        <ele>642.2</ele>
        <time>2019-08-22T05:22:22Z</time>
        <sat>9</sat>
      </trkpt>
      <trkpt lat="42.442767" lon="-2.962918">
        <ele>641.8</ele>
        <time>2019-08-22T05:22:32Z</time>
        <sat>9</sat>
      </trkpt>
      <trkpt lat="42.442865" lon="-2.963093">
        <ele>641.6</ele>
        <time>2019-08-22T05:22:48Z</time>
        <sat>9</sat>
      </trkpt>
      <trkpt lat="42.442877" lon="-2.963138">
        <ele>641.7</ele>
        <time>2019-08-22T05:22:51Z</time>
        <sat>9</sat>
      </trkpt>
      <trkpt lat="42.442987" lon="-2.963313">
        <ele>641.8</ele>
        <time>2019-08-22T05:23:03Z</time>
        <sat>9</sat>
      </trkpt>
      <trkpt lat="42.443067" lon="-2.963474">
        <ele>642.2</ele>
        <time>2019-08-22T05:23:13Z</time>
        <sat>9</sat>
      </trkpt>
      <trkpt lat="42.443139" lon="-2.963565">
        <ele>642.3</ele>
        <time>2019-08-22T05:23:20Z</time>
        <sat>9</sat>
      </trkpt>
      <trkpt lat="42.443222" lon="-2.963710">
        <ele>642.3</ele>
        <time>2019-08-22T05:23:30Z</time>
        <sat>9</sat>
      </trkpt>
      <trkpt lat="42.443252" lon="-2.963744">
        <ele>642.3</ele>
        <time>2019-08-22T05:23:33Z</time>
        <sat>9</sat>
      </trkpt>
      <trkpt lat="42.443352" lon="-2.963898">
        <ele>642.5</ele>
        <time>2019-08-22T05:23:44Z</time>
        <sat>9</sat>
      </trkpt>
      <trkpt lat="42.443409" lon="-2.963956">
        <ele>642.5</ele>
        <time>2019-08-22T05:23:49Z</time>
        <sat>9</sat>
      </trkpt>
      <trkpt lat="42.443511" lon="-2.964097">
        <ele>642.6</ele>
        <time>2019-08-22T05:24:00Z</time>
        <sat>9</sat>
      </trkpt>
      <trkpt lat="42.443557" lon="-2.964132">
        <ele>642.7</ele>
        <time>2019-08-22T05:24:04Z</time>
        <sat>9</sat>
      </trkpt>
      <trkpt lat="42.443645" lon="-2.964264">
        <ele>642.8</ele>
        <time>2019-08-22T05:24:14Z</time>
        <sat>9</sat>
      </trkpt>
      <trkpt lat="42.443697" lon="-2.964315">
        <ele>642.8</ele>
        <time>2019-08-22T05:24:19Z</time>
        <sat>9</sat>
      </trkpt>
      <trkpt lat="42.443773" lon="-2.964444">
        <ele>642.8</ele>
        <time>2019-08-22T05:24:28Z</time>
        <sat>9</sat>
      </trkpt>
      <trkpt lat="42.443832" lon="-2.964529">
        <ele>642.8</ele>
        <time>2019-08-22T05:24:34Z</time>
        <sat>9</sat>
      </trkpt>
      <trkpt lat="42.443872" lon="-2.964661">
        <ele>642.6</ele>
        <time>2019-08-22T05:24:42Z</time>
        <sat>9</sat>
      </trkpt>
      <trkpt lat="42.443926" lon="-2.964749">
        <ele>642.7</ele>
        <time>2019-08-22T05:24:48Z</time>
        <sat>9</sat>
      </trkpt>
      <trkpt lat="42.443949" lon="-2.964761">
        <ele>643.1</ele>
        <time>2019-08-22T05:24:58Z</time>
        <sat>9</sat>
      </trkpt>
      <trkpt lat="42.443944" lon="-2.964882">
        <ele>643.4</ele>
        <time>2019-08-22T05:25:09Z</time>
        <sat>9</sat>
      </trkpt>
      <trkpt lat="42.443968" lon="-2.964942">
        <ele>643.5</ele>
        <time>2019-08-22T05:25:13Z</time>
        <sat>8</sat>
      </trkpt>
      <trkpt lat="42.444013" lon="-2.964978">
        <ele>643.5</ele>
        <time>2019-08-22T05:25:17Z</time>
        <sat>9</sat>
      </trkpt>
      <trkpt lat="42.444143" lon="-2.965118">
        <ele>643.1</ele>
        <time>2019-08-22T05:25:29Z</time>
        <sat>9</sat>
      </trkpt>
      <trkpt lat="42.444219" lon="-2.965174">
        <ele>643.1</ele>
        <time>2019-08-22T05:25:35Z</time>
        <sat>9</sat>
      </trkpt>
      <trkpt lat="42.444247" lon="-2.965216">
        <ele>643.1</ele>
        <time>2019-08-22T05:25:38Z</time>
        <sat>9</sat>
      </trkpt>
      <trkpt lat="42.444275" lon="-2.965338">
        <ele>643.1</ele>
        <time>2019-08-22T05:25:45Z</time>
        <sat>9</sat>
      </trkpt>
      <trkpt lat="42.444301" lon="-2.965403">
        <ele>643.0</ele>
        <time>2019-08-22T05:25:49Z</time>
        <sat>9</sat>
      </trkpt>
      <trkpt lat="42.444337" lon="-2.965458">
        <ele>643.0</ele>
        <time>2019-08-22T05:25:53Z</time>
        <sat>9</sat>
      </trkpt>
      <trkpt lat="42.444411" lon="-2.965632">
        <ele>642.9</ele>
        <time>2019-08-22T05:26:04Z</time>
        <sat>9</sat>
      </trkpt>
      <trkpt lat="42.444443" lon="-2.965691">
        <ele>642.8</ele>
        <time>2019-08-22T05:26:08Z</time>
        <sat>9</sat>
      </trkpt>
      <trkpt lat="42.444491" lon="-2.965822">
        <ele>642.6</ele>
        <time>2019-08-22T05:26:16Z</time>
        <sat>9</sat>
      </trkpt>
      <trkpt lat="42.444510" lon="-2.965893">
        <ele>642.4</ele>
        <time>2019-08-22T05:26:20Z</time>
        <sat>9</sat>
      </trkpt>
      <trkpt lat="42.444549" lon="-2.965987">
        <ele>642.3</ele>
        <time>2019-08-22T05:26:26Z</time>
        <sat>9</sat>
      </trkpt>
      <trkpt lat="42.444601" lon="-2.966097">
        <ele>642.1</ele>
        <time>2019-08-22T05:27:44Z</time>
        <sat>8</sat>
      </trkpt>
      <trkpt lat="42.444633" lon="-2.966206">
        <ele>641.8</ele>
        <time>2019-08-22T05:27:50Z</time>
        <sat>9</sat>
      </trkpt>
      <trkpt lat="42.444673" lon="-2.966389">
        <ele>641.2</ele>
        <time>2019-08-22T05:28:01Z</time>
        <sat>9</sat>
      </trkpt>
      <trkpt lat="42.444688" lon="-2.966424">
        <ele>641.5</ele>
        <time>2019-08-22T05:28:05Z</time>
        <sat>9</sat>
      </trkpt>
      <trkpt lat="42.444710" lon="-2.966490">
        <ele>641.6</ele>
        <time>2019-08-22T05:28:40Z</time>
        <sat>9</sat>
      </trkpt>
      <trkpt lat="42.444733" lon="-2.966586">
        <ele>641.5</ele>
        <time>2019-08-22T05:28:46Z</time>
        <sat>9</sat>
      </trkpt>
      <trkpt lat="42.444761" lon="-2.966646">
        <ele>641.5</ele>
        <time>2019-08-22T05:28:50Z</time>
        <sat>9</sat>
      </trkpt>
      <trkpt lat="42.444806" lon="-2.966837">
        <ele>641.2</ele>
        <time>2019-08-22T05:29:01Z</time>
        <sat>9</sat>
      </trkpt>
      <trkpt lat="42.444842" lon="-2.966936">
        <ele>641.1</ele>
        <time>2019-08-22T05:29:07Z</time>
        <sat>9</sat>
      </trkpt>
      <trkpt lat="42.444882" lon="-2.967124">
        <ele>641.0</ele>
        <time>2019-08-22T05:29:18Z</time>
        <sat>9</sat>
      </trkpt>
      <trkpt lat="42.444909" lon="-2.967210">
        <ele>641.0</ele>
        <time>2019-08-22T05:29:23Z</time>
        <sat>9</sat>
      </trkpt>
      <trkpt lat="42.444916" lon="-2.967306">
        <ele>640.9</ele>
        <time>2019-08-22T05:29:28Z</time>
        <sat>9</sat>
      </trkpt>
      <trkpt lat="42.444950" lon="-2.967508">
        <ele>640.7</ele>
        <time>2019-08-22T05:29:39Z</time>
        <sat>9</sat>
      </trkpt>
      <trkpt lat="42.444974" lon="-2.967711">
        <ele>640.4</ele>
        <time>2019-08-22T05:29:50Z</time>
        <sat>9</sat>
      </trkpt>
      <trkpt lat="42.445014" lon="-2.967868">
        <ele>640.1</ele>
        <time>2019-08-22T05:29:59Z</time>
        <sat>9</sat>
      </trkpt>
      <trkpt lat="42.445012" lon="-2.967943">
        <ele>640.1</ele>
        <time>2019-08-22T05:30:03Z</time>
        <sat>9</sat>
      </trkpt>
      <trkpt lat="42.445056" lon="-2.968116">
        <ele>639.7</ele>
        <time>2019-08-22T05:30:13Z</time>
        <sat>9</sat>
      </trkpt>
      <trkpt lat="42.445078" lon="-2.968296">
        <ele>639.5</ele>
        <time>2019-08-22T05:30:23Z</time>
        <sat>9</sat>
      </trkpt>
      <trkpt lat="42.445121" lon="-2.968540">
        <ele>639.3</ele>
        <time>2019-08-22T05:30:37Z</time>
        <sat>9</sat>
      </trkpt>
      <trkpt lat="42.445160" lon="-2.968699">
        <ele>639.2</ele>
        <time>2019-08-22T05:30:46Z</time>
        <sat>9</sat>
      </trkpt>
      <trkpt lat="42.445181" lon="-2.968827">
        <ele>639.1</ele>
        <time>2019-08-22T05:30:53Z</time>
        <sat>9</sat>
      </trkpt>
      <trkpt lat="42.445216" lon="-2.968944">
        <ele>638.9</ele>
        <time>2019-08-22T05:31:00Z</time>
        <sat>9</sat>
      </trkpt>
      <trkpt lat="42.445235" lon="-2.969051">
        <ele>638.8</ele>
        <time>2019-08-22T05:31:06Z</time>
        <sat>9</sat>
      </trkpt>
      <trkpt lat="42.445280" lon="-2.969181">
        <ele>638.6</ele>
        <time>2019-08-22T05:31:14Z</time>
        <sat>9</sat>
      </trkpt>
      <trkpt lat="42.445302" lon="-2.969285">
        <ele>638.4</ele>
        <time>2019-08-22T05:31:20Z</time>
        <sat>9</sat>
      </trkpt>
      <trkpt lat="42.445334" lon="-2.969382">
        <ele>638.2</ele>
        <time>2019-08-22T05:31:26Z</time>
        <sat>9</sat>
      </trkpt>
      <trkpt lat="42.445374" lon="-2.969526">
        <ele>637.8</ele>
        <time>2019-08-22T05:31:57Z</time>
        <sat>9</sat>
      </trkpt>
      <trkpt lat="42.445411" lon="-2.969776">
        <ele>637.7</ele>
        <time>2019-08-22T05:32:10Z</time>
        <sat>9</sat>
      </trkpt>
      <trkpt lat="42.445459" lon="-2.969940">
        <ele>637.4</ele>
        <time>2019-08-22T05:32:19Z</time>
        <sat>9</sat>
      </trkpt>
      <trkpt lat="42.445484" lon="-2.970066">
        <ele>637.2</ele>
        <time>2019-08-22T05:32:26Z</time>
        <sat>9</sat>
      </trkpt>
      <trkpt lat="42.445506" lon="-2.970123">
        <ele>637.0</ele>
        <time>2019-08-22T05:32:31Z</time>
        <sat>9</sat>
      </trkpt>
      <trkpt lat="42.445550" lon="-2.970348">
        <ele>636.2</ele>
        <time>2019-08-22T05:32:56Z</time>
        <sat>9</sat>
      </trkpt>
      <trkpt lat="42.445577" lon="-2.970450">
        <ele>636.0</ele>
        <time>2019-08-22T05:33:02Z</time>
        <sat>9</sat>
      </trkpt>
      <trkpt lat="42.445590" lon="-2.970480">
        <ele>636.0</ele>
        <time>2019-08-22T05:33:04Z</time>
        <sat>9</sat>
      </trkpt>
      <trkpt lat="42.445610" lon="-2.970572">
        <ele>635.9</ele>
        <time>2019-08-22T05:33:09Z</time>
        <sat>9</sat>
      </trkpt>
      <trkpt lat="42.445646" lon="-2.970766">
        <ele>635.6</ele>
        <time>2019-08-22T05:33:19Z</time>
        <sat>9</sat>
      </trkpt>
      <trkpt lat="42.445696" lon="-2.970928">
        <ele>635.4</ele>
        <time>2019-08-22T05:33:28Z</time>
        <sat>9</sat>
      </trkpt>
      <trkpt lat="42.445747" lon="-2.971195">
        <ele>635.2</ele>
        <time>2019-08-22T05:33:42Z</time>
        <sat>9</sat>
      </trkpt>
      <trkpt lat="42.445795" lon="-2.971374">
        <ele>635.0</ele>
        <time>2019-08-22T05:33:52Z</time>
        <sat>9</sat>
      </trkpt>
      <trkpt lat="42.445820" lon="-2.971558">
        <ele>634.9</ele>
        <time>2019-08-22T05:34:02Z</time>
        <sat>9</sat>
      </trkpt>
      <trkpt lat="42.445847" lon="-2.971662">
        <ele>634.4</ele>
        <time>2019-08-22T05:34:09Z</time>
        <sat>9</sat>
      </trkpt>
      <trkpt lat="42.445852" lon="-2.971731">
        <ele>634.6</ele>
        <time>2019-08-22T05:34:13Z</time>
        <sat>9</sat>
      </trkpt>
      <trkpt lat="42.445819" lon="-2.971782">
        <ele>634.6</ele>
        <time>2019-08-22T05:34:30Z</time>
        <sat>8</sat>
      </trkpt>
      <trkpt lat="42.445723" lon="-2.971821">
        <ele>634.5</ele>
        <time>2019-08-22T05:34:37Z</time>
        <sat>9</sat>
      </trkpt>
      <trkpt lat="42.445709" lon="-2.971822">
        <ele>634.5</ele>
        <time>2019-08-22T05:34:52Z</time>
        <sat>9</sat>
      </trkpt>
      <trkpt lat="42.445642" lon="-2.971851">
        <ele>634.5</ele>
        <time>2019-08-22T05:34:57Z</time>
        <sat>9</sat>
      </trkpt>
      <trkpt lat="42.445530" lon="-2.971879">
        <ele>634.5</ele>
        <time>2019-08-22T05:35:05Z</time>
        <sat>9</sat>
      </trkpt>
      <trkpt lat="42.445449" lon="-2.971936">
        <ele>634.6</ele>
        <time>2019-08-22T05:35:12Z</time>
        <sat>9</sat>
      </trkpt>
      <trkpt lat="42.445405" lon="-2.971986">
        <ele>634.8</ele>
        <time>2019-08-22T05:35:16Z</time>
        <sat>8</sat>
      </trkpt>
      <trkpt lat="42.445327" lon="-2.972161">
        <ele>635.4</ele>
        <time>2019-08-22T05:35:27Z</time>
        <sat>9</sat>
      </trkpt>
      <trkpt lat="42.445321" lon="-2.972234">
        <ele>635.2</ele>
        <time>2019-08-22T05:35:31Z</time>
        <sat>9</sat>
      </trkpt>
      <trkpt lat="42.445333" lon="-2.972289">
        <ele>635.1</ele>
        <time>2019-08-22T05:35:34Z</time>
        <sat>9</sat>
      </trkpt>
      <trkpt lat="42.445388" lon="-2.972407">
        <ele>634.6</ele>
        <time>2019-08-22T05:35:41Z</time>
        <sat>9</sat>
      </trkpt>
      <trkpt lat="42.445411" lon="-2.972478">
        <ele>634.3</ele>
        <time>2019-08-22T05:35:45Z</time>
        <sat>8</sat>
      </trkpt>
      <trkpt lat="42.445459" lon="-2.972702">
        <ele>634.1</ele>
        <time>2019-08-22T05:35:57Z</time>
        <sat>9</sat>
      </trkpt>
      <trkpt lat="42.445526" lon="-2.972877">
        <ele>634.1</ele>
        <time>2019-08-22T05:36:07Z</time>
        <sat>9</sat>
      </trkpt>
      <trkpt lat="42.445592" lon="-2.973118">
        <ele>634.2</ele>
        <time>2019-08-22T05:36:20Z</time>
        <sat>9</sat>
      </trkpt>
      <trkpt lat="42.445670" lon="-2.973326">
        <ele>634.3</ele>
        <time>2019-08-22T05:36:32Z</time>
        <sat>8</sat>
      </trkpt>
      <trkpt lat="42.445731" lon="-2.973523">
        <ele>634.3</ele>
        <time>2019-08-22T05:36:43Z</time>
        <sat>9</sat>
      </trkpt>
      <trkpt lat="42.445768" lon="-2.973622">
        <ele>634.4</ele>
        <time>2019-08-22T05:36:49Z</time>
        <sat>9</sat>
      </trkpt>
      <trkpt lat="42.445783" lon="-2.973697">
        <ele>634.4</ele>
        <time>2019-08-22T05:36:53Z</time>
        <sat>8</sat>
      </trkpt>
      <trkpt lat="42.445855" lon="-2.973917">
        <ele>634.4</ele>
        <time>2019-08-22T05:37:06Z</time>
        <sat>9</sat>
      </trkpt>
      <trkpt lat="42.445895" lon="-2.974083">
        <ele>634.4</ele>
        <time>2019-08-22T05:37:15Z</time>
        <sat>8</sat>
      </trkpt>
      <trkpt lat="42.445940" lon="-2.974201">
        <ele>634.4</ele>
        <time>2019-08-22T05:37:22Z</time>
        <sat>9</sat>
      </trkpt>
      <trkpt lat="42.445964" lon="-2.974324">
        <ele>634.5</ele>
        <time>2019-08-22T05:37:29Z</time>
        <sat>8</sat>
      </trkpt>
      <trkpt lat="42.445975" lon="-2.974359">
        <ele>634.5</ele>
        <time>2019-08-22T05:37:31Z</time>
        <sat>8</sat>
      </trkpt>
      <trkpt lat="42.446054" lon="-2.974561">
        <ele>634.5</ele>
        <time>2019-08-22T05:37:43Z</time>
        <sat>8</sat>
      </trkpt>
      <trkpt lat="42.446087" lon="-2.974696">
        <ele>634.5</ele>
        <time>2019-08-22T05:37:50Z</time>
        <sat>9</sat>
      </trkpt>
      <trkpt lat="42.446125" lon="-2.974792">
        <ele>634.6</ele>
        <time>2019-08-22T05:37:56Z</time>
        <sat>8</sat>
      </trkpt>
      <trkpt lat="42.446204" lon="-2.975018">
        <ele>634.8</ele>
        <time>2019-08-22T05:38:09Z</time>
        <sat>9</sat>
      </trkpt>
      <trkpt lat="42.446252" lon="-2.975128">
        <ele>634.9</ele>
        <time>2019-08-22T05:38:16Z</time>
        <sat>9</sat>
      </trkpt>
      <trkpt lat="42.446286" lon="-2.975255">
        <ele>634.9</ele>
        <time>2019-08-22T05:38:23Z</time>
        <sat>9</sat>
      </trkpt>
      <trkpt lat="42.446341" lon="-2.975408">
        <ele>634.9</ele>
        <time>2019-08-22T05:38:32Z</time>
        <sat>8</sat>
      </trkpt>
      <trkpt lat="42.446393" lon="-2.975604">
        <ele>635.1</ele>
        <time>2019-08-22T05:38:43Z</time>
        <sat>8</sat>
      </trkpt>
      <trkpt lat="42.446434" lon="-2.975697">
        <ele>635.1</ele>
        <time>2019-08-22T05:38:49Z</time>
        <sat>10</sat>
      </trkpt>
      <trkpt lat="42.446470" lon="-2.975841">
        <ele>635.2</ele>
        <time>2019-08-22T05:38:57Z</time>
        <sat>10</sat>
      </trkpt>
      <trkpt lat="42.446519" lon="-2.975976">
        <ele>635.3</ele>
        <time>2019-08-22T05:39:05Z</time>
        <sat>10</sat>
      </trkpt>
      <trkpt lat="42.446538" lon="-2.976065">
        <ele>635.3</ele>
        <time>2019-08-22T05:39:10Z</time>
        <sat>10</sat>
      </trkpt>
      <trkpt lat="42.446611" lon="-2.976268">
        <ele>635.5</ele>
        <time>2019-08-22T05:39:22Z</time>
        <sat>10</sat>
      </trkpt>
      <trkpt lat="42.446657" lon="-2.976449">
        <ele>635.5</ele>
        <time>2019-08-22T05:39:32Z</time>
        <sat>10</sat>
      </trkpt>
      <trkpt lat="42.446698" lon="-2.976549">
        <ele>635.5</ele>
        <time>2019-08-22T05:39:38Z</time>
        <sat>10</sat>
      </trkpt>
      <trkpt lat="42.446758" lon="-2.976750">
        <ele>635.8</ele>
        <time>2019-08-22T05:39:50Z</time>
        <sat>10</sat>
      </trkpt>
      <trkpt lat="42.446798" lon="-2.976843">
        <ele>635.9</ele>
        <time>2019-08-22T05:39:56Z</time>
        <sat>10</sat>
      </trkpt>
      <trkpt lat="42.446826" lon="-2.976976">
        <ele>636.1</ele>
        <time>2019-08-22T05:40:03Z</time>
        <sat>10</sat>
      </trkpt>
      <trkpt lat="42.446875" lon="-2.977108">
        <ele>636.1</ele>
        <time>2019-08-22T05:40:11Z</time>
        <sat>10</sat>
      </trkpt>
      <trkpt lat="42.446917" lon="-2.977270">
        <ele>636.3</ele>
        <time>2019-08-22T05:40:20Z</time>
        <sat>10</sat>
      </trkpt>
      <trkpt lat="42.446950" lon="-2.977356">
        <ele>636.3</ele>
        <time>2019-08-22T05:40:25Z</time>
        <sat>10</sat>
      </trkpt>
      <trkpt lat="42.446999" lon="-2.977551">
        <ele>636.4</ele>
        <time>2019-08-22T05:40:36Z</time>
        <sat>10</sat>
      </trkpt>
      <trkpt lat="42.447030" lon="-2.977634">
        <ele>636.5</ele>
        <time>2019-08-22T05:40:41Z</time>
        <sat>10</sat>
      </trkpt>
      <trkpt lat="42.447082" lon="-2.977831">
        <ele>636.8</ele>
        <time>2019-08-22T05:40:52Z</time>
        <sat>10</sat>
      </trkpt>
      <trkpt lat="42.447131" lon="-2.977962">
        <ele>636.6</ele>
        <time>2019-08-22T05:41:00Z</time>
        <sat>10</sat>
      </trkpt>
      <trkpt lat="42.447191" lon="-2.978185">
        <ele>636.6</ele>
        <time>2019-08-22T05:41:15Z</time>
        <sat>9</sat>
      </trkpt>
      <trkpt lat="42.447260" lon="-2.978438">
        <ele>636.6</ele>
        <time>2019-08-22T05:41:30Z</time>
        <sat>9</sat>
      </trkpt>
      <trkpt lat="42.447298" lon="-2.978537">
        <ele>637.8</ele>
        <time>2019-08-22T05:41:36Z</time>
        <sat>10</sat>
      </trkpt>
      <trkpt lat="42.447323" lon="-2.978698">
        <ele>638.5</ele>
        <time>2019-08-22T05:41:45Z</time>
        <sat>10</sat>
      </trkpt>
      <trkpt lat="42.447352" lon="-2.978785">
        <ele>638.5</ele>
        <time>2019-08-22T05:41:50Z</time>
        <sat>10</sat>
      </trkpt>
      <trkpt lat="42.447376" lon="-2.978937">
        <ele>638.3</ele>
        <time>2019-08-22T05:41:58Z</time>
        <sat>10</sat>
      </trkpt>
      <trkpt lat="42.447431" lon="-2.979076">
        <ele>638.3</ele>
        <time>2019-08-22T05:42:07Z</time>
        <sat>10</sat>
      </trkpt>
      <trkpt lat="42.447444" lon="-2.979152">
        <ele>638.3</ele>
        <time>2019-08-22T05:42:11Z</time>
        <sat>10</sat>
      </trkpt>
      <trkpt lat="42.447447" lon="-2.979222">
        <ele>638.3</ele>
        <time>2019-08-22T05:42:14Z</time>
        <sat>9</sat>
      </trkpt>
      <trkpt lat="42.447503" lon="-2.979380">
        <ele>638.5</ele>
        <time>2019-08-22T05:42:24Z</time>
        <sat>9</sat>
      </trkpt>
      <trkpt lat="42.447510" lon="-2.979492">
        <ele>638.6</ele>
        <time>2019-08-22T05:42:29Z</time>
        <sat>9</sat>
      </trkpt>
      <trkpt lat="42.447532" lon="-2.979600">
        <ele>638.4</ele>
        <time>2019-08-22T05:42:35Z</time>
        <sat>9</sat>
      </trkpt>
      <trkpt lat="42.447565" lon="-2.979695">
        <ele>638.5</ele>
        <time>2019-08-22T05:42:41Z</time>
        <sat>10</sat>
      </trkpt>
      <trkpt lat="42.447589" lon="-2.979855">
        <ele>638.5</ele>
        <time>2019-08-22T05:42:49Z</time>
        <sat>10</sat>
      </trkpt>
      <trkpt lat="42.447625" lon="-2.979960">
        <ele>638.5</ele>
        <time>2019-08-22T05:42:56Z</time>
        <sat>10</sat>
      </trkpt>
      <trkpt lat="42.447639" lon="-2.980060">
        <ele>638.7</ele>
        <time>2019-08-22T05:43:01Z</time>
        <sat>9</sat>
      </trkpt>
      <trkpt lat="42.447648" lon="-2.980096">
        <ele>638.7</ele>
        <time>2019-08-22T05:43:03Z</time>
        <sat>10</sat>
      </trkpt>
      <trkpt lat="42.447777" lon="-2.980244">
        <ele>639.0</ele>
        <time>2019-08-22T05:43:16Z</time>
        <sat>9</sat>
      </trkpt>
      <trkpt lat="42.447854" lon="-2.980413">
        <ele>639.1</ele>
        <time>2019-08-22T05:43:27Z</time>
        <sat>10</sat>
      </trkpt>
      <trkpt lat="42.447878" lon="-2.980520">
        <ele>639.2</ele>
        <time>2019-08-22T05:43:33Z</time>
        <sat>10</sat>
      </trkpt>
      <trkpt lat="42.447913" lon="-2.980622">
        <ele>639.4</ele>
        <time>2019-08-22T05:43:40Z</time>
        <sat>10</sat>
      </trkpt>
      <trkpt lat="42.447917" lon="-2.980697">
        <ele>639.6</ele>
        <time>2019-08-22T05:43:44Z</time>
        <sat>9</sat>
      </trkpt>
      <trkpt lat="42.447961" lon="-2.980796">
        <ele>639.9</ele>
        <time>2019-08-22T05:43:51Z</time>
        <sat>10</sat>
      </trkpt>
      <trkpt lat="42.447975" lon="-2.980897">
        <ele>640.0</ele>
        <time>2019-08-22T05:43:56Z</time>
        <sat>10</sat>
      </trkpt>
      <trkpt lat="42.448013" lon="-2.981006">
        <ele>640.2</ele>
        <time>2019-08-22T05:44:02Z</time>
        <sat>10</sat>
      </trkpt>
      <trkpt lat="42.447993" lon="-2.981180">
        <ele>640.6</ele>
        <time>2019-08-22T05:44:10Z</time>
        <sat>10</sat>
      </trkpt>
      <trkpt lat="42.448018" lon="-2.981301">
        <ele>640.7</ele>
        <time>2019-08-22T05:44:17Z</time>
        <sat>8</sat>
      </trkpt>
      <trkpt lat="42.448013" lon="-2.981378">
        <ele>640.8</ele>
        <time>2019-08-22T05:44:21Z</time>
        <sat>9</sat>
      </trkpt>
      <trkpt lat="42.448032" lon="-2.981479">
        <ele>640.9</ele>
        <time>2019-08-22T05:44:27Z</time>
        <sat>9</sat>
      </trkpt>
      <trkpt lat="42.448054" lon="-2.981536">
        <ele>640.9</ele>
        <time>2019-08-22T05:44:31Z</time>
        <sat>10</sat>
      </trkpt>
      <trkpt lat="42.448055" lon="-2.981635">
        <ele>640.9</ele>
        <time>2019-08-22T05:44:36Z</time>
        <sat>10</sat>
      </trkpt>
      <trkpt lat="42.448101" lon="-2.981772">
        <ele>640.9</ele>
        <time>2019-08-22T05:44:45Z</time>
        <sat>10</sat>
      </trkpt>
      <trkpt lat="42.448108" lon="-2.981882">
        <ele>641.2</ele>
        <time>2019-08-22T05:44:51Z</time>
        <sat>10</sat>
      </trkpt>
      <trkpt lat="42.448129" lon="-2.981949">
        <ele>641.3</ele>
        <time>2019-08-22T05:44:59Z</time>
        <sat>10</sat>
      </trkpt>
      <trkpt lat="42.448157" lon="-2.981986">
        <ele>641.4</ele>
        <time>2019-08-22T05:45:09Z</time>
        <sat>10</sat>
      </trkpt>
      <trkpt lat="42.448184" lon="-2.982063">
        <ele>641.5</ele>
        <time>2019-08-22T05:45:14Z</time>
        <sat>9</sat>
      </trkpt>
      <trkpt lat="42.448244" lon="-2.982321">
        <ele>641.4</ele>
        <time>2019-08-22T05:45:29Z</time>
        <sat>10</sat>
      </trkpt>
      <trkpt lat="42.448260" lon="-2.982458">
        <ele>641.6</ele>
        <time>2019-08-22T05:45:36Z</time>
        <sat>10</sat>
      </trkpt>
      <trkpt lat="42.448275" lon="-2.982530">
        <ele>641.7</ele>
        <time>2019-08-22T05:45:40Z</time>
        <sat>10</sat>
      </trkpt>
      <trkpt lat="42.448316" lon="-2.982646">
        <ele>641.9</ele>
        <time>2019-08-22T05:45:47Z</time>
        <sat>10</sat>
      </trkpt>
      <trkpt lat="42.448351" lon="-2.982831">
        <ele>642.2</ele>
        <time>2019-08-22T05:45:57Z</time>
        <sat>10</sat>
      </trkpt>
      <trkpt lat="42.448397" lon="-2.982967">
        <ele>642.3</ele>
        <time>2019-08-22T05:46:05Z</time>
        <sat>10</sat>
      </trkpt>
      <trkpt lat="42.448428" lon="-2.983149">
        <ele>642.6</ele>
        <time>2019-08-22T05:46:15Z</time>
        <sat>10</sat>
      </trkpt>
      <trkpt lat="42.448460" lon="-2.983227">
        <ele>642.7</ele>
        <time>2019-08-22T05:46:20Z</time>
        <sat>10</sat>
      </trkpt>
      <trkpt lat="42.448487" lon="-2.983371">
        <ele>642.9</ele>
        <time>2019-08-22T05:46:28Z</time>
        <sat>10</sat>
      </trkpt>
      <trkpt lat="42.448523" lon="-2.983489">
        <ele>643.2</ele>
        <time>2019-08-22T05:46:35Z</time>
        <sat>9</sat>
      </trkpt>
      <trkpt lat="42.448555" lon="-2.983647">
        <ele>643.4</ele>
        <time>2019-08-22T05:46:44Z</time>
        <sat>10</sat>
      </trkpt>
      <trkpt lat="42.448568" lon="-2.983702">
        <ele>643.9</ele>
        <time>2019-08-22T05:47:05Z</time>
        <sat>9</sat>
      </trkpt>
      <trkpt lat="42.448617" lon="-2.983785">
        <ele>644.0</ele>
        <time>2019-08-22T05:47:11Z</time>
        <sat>10</sat>
      </trkpt>
      <trkpt lat="42.448666" lon="-2.983970">
        <ele>644.2</ele>
        <time>2019-08-22T05:47:21Z</time>
        <sat>10</sat>
      </trkpt>
      <trkpt lat="42.448698" lon="-2.984049">
        <ele>644.2</ele>
        <time>2019-08-22T05:47:26Z</time>
        <sat>10</sat>
      </trkpt>
      <trkpt lat="42.448740" lon="-2.984209">
        <ele>644.5</ele>
        <time>2019-08-22T05:47:35Z</time>
        <sat>10</sat>
      </trkpt>
      <trkpt lat="42.448778" lon="-2.984305">
        <ele>644.6</ele>
        <time>2019-08-22T05:47:41Z</time>
        <sat>10</sat>
      </trkpt>
      <trkpt lat="42.448808" lon="-2.984431">
        <ele>644.8</ele>
        <time>2019-08-22T05:47:48Z</time>
        <sat>10</sat>
      </trkpt>
      <trkpt lat="42.448849" lon="-2.984527">
        <ele>644.8</ele>
        <time>2019-08-22T05:47:54Z</time>
        <sat>10</sat>
      </trkpt>
      <trkpt lat="42.448910" lon="-2.984740">
        <ele>645.1</ele>
        <time>2019-08-22T05:48:06Z</time>
        <sat>10</sat>
      </trkpt>
      <trkpt lat="42.448954" lon="-2.984882">
        <ele>645.2</ele>
        <time>2019-08-22T05:48:14Z</time>
        <sat>10</sat>
      </trkpt>
      <trkpt lat="42.448961" lon="-2.984925">
        <ele>645.3</ele>
        <time>2019-08-22T05:48:16Z</time>
        <sat>10</sat>
      </trkpt>
      <trkpt lat="42.448997" lon="-2.985033">
        <ele>645.5</ele>
        <time>2019-08-22T05:48:22Z</time>
        <sat>10</sat>
      </trkpt>
      <trkpt lat="42.449067" lon="-2.985199">
        <ele>645.8</ele>
        <time>2019-08-22T05:48:32Z</time>
        <sat>10</sat>
      </trkpt>
      <trkpt lat="42.449123" lon="-2.985394">
        <ele>646.1</ele>
        <time>2019-08-22T05:48:43Z</time>
        <sat>10</sat>
      </trkpt>
      <trkpt lat="42.449139" lon="-2.985422">
        <ele>646.2</ele>
        <time>2019-08-22T05:48:45Z</time>
        <sat>10</sat>
      </trkpt>
      <trkpt lat="42.449194" lon="-2.985636">
        <ele>646.6</ele>
        <time>2019-08-22T05:48:57Z</time>
        <sat>9</sat>
      </trkpt>
      <trkpt lat="42.449227" lon="-2.985715">
        <ele>646.7</ele>
        <time>2019-08-22T05:49:02Z</time>
        <sat>9</sat>
      </trkpt>
      <trkpt lat="42.449253" lon="-2.985805">
        <ele>646.9</ele>
        <time>2019-08-22T05:49:07Z</time>
        <sat>10</sat>
      </trkpt>
      <trkpt lat="42.449289" lon="-2.985864">
        <ele>647.0</ele>
        <time>2019-08-22T05:49:11Z</time>
        <sat>9</sat>
      </trkpt>
      <trkpt lat="42.449381" lon="-2.985886">
        <ele>647.7</ele>
        <time>2019-08-22T05:49:43Z</time>
        <sat>9</sat>
      </trkpt>
      <trkpt lat="42.449453" lon="-2.985855">
        <ele>647.7</ele>
        <time>2019-08-22T05:49:48Z</time>
        <sat>9</sat>
      </trkpt>
      <trkpt lat="42.449538" lon="-2.985862">
        <ele>647.7</ele>
        <time>2019-08-22T05:49:54Z</time>
        <sat>9</sat>
      </trkpt>
      <trkpt lat="42.449574" lon="-2.985901">
        <ele>647.7</ele>
        <time>2019-08-22T05:49:57Z</time>
        <sat>8</sat>
      </trkpt>
      <trkpt lat="42.449638" lon="-2.986024">
        <ele>647.6</ele>
        <time>2019-08-22T05:50:05Z</time>
        <sat>10</sat>
      </trkpt>
      <trkpt lat="42.449656" lon="-2.986167">
        <ele>647.6</ele>
        <time>2019-08-22T05:50:12Z</time>
        <sat>10</sat>
      </trkpt>
      <trkpt lat="42.449669" lon="-2.986228">
        <ele>647.7</ele>
        <time>2019-08-22T05:50:15Z</time>
        <sat>10</sat>
      </trkpt>
      <trkpt lat="42.449750" lon="-2.986431">
        <ele>647.8</ele>
        <time>2019-08-22T05:50:28Z</time>
        <sat>10</sat>
      </trkpt>
      <trkpt lat="42.449763" lon="-2.986512">
        <ele>647.9</ele>
        <time>2019-08-22T05:50:32Z</time>
        <sat>10</sat>
      </trkpt>
      <trkpt lat="42.449825" lon="-2.986722">
        <ele>648.2</ele>
        <time>2019-08-22T05:50:44Z</time>
        <sat>10</sat>
      </trkpt>
      <trkpt lat="42.449829" lon="-2.986783">
        <ele>648.2</ele>
        <time>2019-08-22T05:50:47Z</time>
        <sat>10</sat>
      </trkpt>
      <trkpt lat="42.449840" lon="-2.986846">
        <ele>648.2</ele>
        <time>2019-08-22T05:50:50Z</time>
        <sat>10</sat>
      </trkpt>
      <trkpt lat="42.449875" lon="-2.986924">
        <ele>648.3</ele>
        <time>2019-08-22T05:50:55Z</time>
        <sat>10</sat>
      </trkpt>
      <trkpt lat="42.449895" lon="-2.987014">
        <ele>648.4</ele>
        <time>2019-08-22T05:51:00Z</time>
        <sat>10</sat>
      </trkpt>
      <trkpt lat="42.449901" lon="-2.987081">
        <ele>648.5</ele>
        <time>2019-08-22T05:51:03Z</time>
        <sat>10</sat>
      </trkpt>
      <trkpt lat="42.449922" lon="-2.987148">
        <ele>648.6</ele>
        <time>2019-08-22T05:51:07Z</time>
        <sat>10</sat>
      </trkpt>
      <trkpt lat="42.449945" lon="-2.987194">
        <ele>648.7</ele>
        <time>2019-08-22T05:51:10Z</time>
        <sat>10</sat>
      </trkpt>
      <trkpt lat="42.449980" lon="-2.987384">
        <ele>649.0</ele>
        <time>2019-08-22T05:51:20Z</time>
        <sat>10</sat>
      </trkpt>
      <trkpt lat="42.450012" lon="-2.987459">
        <ele>649.3</ele>
        <time>2019-08-22T05:51:25Z</time>
        <sat>10</sat>
      </trkpt>
      <trkpt lat="42.450024" lon="-2.987540">
        <ele>649.5</ele>
        <time>2019-08-22T05:51:29Z</time>
        <sat>10</sat>
      </trkpt>
      <trkpt lat="42.450066" lon="-2.987648">
        <ele>649.7</ele>
        <time>2019-08-22T05:51:36Z</time>
        <sat>10</sat>
      </trkpt>
      <trkpt lat="42.450065" lon="-2.987832">
        <ele>650.4</ele>
        <time>2019-08-22T05:51:45Z</time>
        <sat>10</sat>
      </trkpt>
      <trkpt lat="42.450092" lon="-2.987921">
        <ele>650.6</ele>
        <time>2019-08-22T05:51:50Z</time>
        <sat>10</sat>
      </trkpt>
      <trkpt lat="42.450084" lon="-2.988118">
        <ele>651.1</ele>
        <time>2019-08-22T05:52:00Z</time>
        <sat>10</sat>
      </trkpt>
      <trkpt lat="42.450107" lon="-2.988210">
        <ele>651.6</ele>
        <time>2019-08-22T05:52:15Z</time>
        <sat>10</sat>
      </trkpt>
      <trkpt lat="42.450111" lon="-2.988282">
        <ele>651.7</ele>
        <time>2019-08-22T05:52:18Z</time>
        <sat>9</sat>
      </trkpt>
      <trkpt lat="42.450142" lon="-2.988359">
        <ele>651.8</ele>
        <time>2019-08-22T05:52:23Z</time>
        <sat>10</sat>
      </trkpt>
      <trkpt lat="42.450149" lon="-2.988408">
        <ele>652.0</ele>
        <time>2019-08-22T05:52:26Z</time>
        <sat>10</sat>
      </trkpt>
      <trkpt lat="42.450151" lon="-2.988523">
        <ele>652.5</ele>
        <time>2019-08-22T05:52:31Z</time>
        <sat>10</sat>
      </trkpt>
      <trkpt lat="42.450175" lon="-2.988602">
        <ele>653.1</ele>
        <time>2019-08-22T05:52:36Z</time>
        <sat>9</sat>
      </trkpt>
      <trkpt lat="42.450163" lon="-2.988663">
        <ele>653.5</ele>
        <time>2019-08-22T05:52:40Z</time>
        <sat>10</sat>
      </trkpt>
      <trkpt lat="42.450168" lon="-2.988779">
        <ele>654.7</ele>
        <time>2019-08-22T05:53:03Z</time>
        <sat>10</sat>
      </trkpt>
      <trkpt lat="42.450183" lon="-2.988859">
        <ele>655.0</ele>
        <time>2019-08-22T05:53:08Z</time>
        <sat>10</sat>
      </trkpt>
      <trkpt lat="42.450182" lon="-2.988943">
        <ele>655.4</ele>
        <time>2019-08-22T05:53:12Z</time>
        <sat>10</sat>
      </trkpt>
      <trkpt lat="42.450199" lon="-2.989029">
        <ele>656.0</ele>
        <time>2019-08-22T05:53:17Z</time>
        <sat>10</sat>
      </trkpt>
      <trkpt lat="42.450202" lon="-2.989137">
        <ele>656.8</ele>
        <time>2019-08-22T05:53:22Z</time>
        <sat>10</sat>
      </trkpt>
      <trkpt lat="42.450218" lon="-2.989204">
        <ele>657.3</ele>
        <time>2019-08-22T05:53:26Z</time>
        <sat>9</sat>
      </trkpt>
      <trkpt lat="42.450214" lon="-2.989289">
        <ele>657.9</ele>
        <time>2019-08-22T05:53:30Z</time>
        <sat>9</sat>
      </trkpt>
      <trkpt lat="42.450225" lon="-2.989365">
        <ele>658.4</ele>
        <time>2019-08-22T05:53:34Z</time>
        <sat>10</sat>
      </trkpt>
      <trkpt lat="42.450247" lon="-2.989448">
        <ele>658.9</ele>
        <time>2019-08-22T05:53:39Z</time>
        <sat>10</sat>
      </trkpt>
      <trkpt lat="42.450243" lon="-2.989518">
        <ele>659.3</ele>
        <time>2019-08-22T05:53:42Z</time>
        <sat>10</sat>
      </trkpt>
      <trkpt lat="42.450261" lon="-2.989590">
        <ele>659.8</ele>
        <time>2019-08-22T05:53:46Z</time>
        <sat>10</sat>
      </trkpt>
      <trkpt lat="42.450262" lon="-2.989691">
        <ele>660.6</ele>
        <time>2019-08-22T05:53:51Z</time>
        <sat>10</sat>
      </trkpt>
      <trkpt lat="42.450278" lon="-2.989766">
        <ele>661.1</ele>
        <time>2019-08-22T05:53:55Z</time>
        <sat>10</sat>
      </trkpt>
      <trkpt lat="42.450285" lon="-2.989926">
        <ele>662.1</ele>
        <time>2019-08-22T05:54:03Z</time>
        <sat>10</sat>
      </trkpt>
      <trkpt lat="42.450307" lon="-2.989992">
        <ele>662.7</ele>
        <time>2019-08-22T05:54:07Z</time>
        <sat>10</sat>
      </trkpt>
      <trkpt lat="42.450300" lon="-2.990050">
        <ele>663.1</ele>
        <time>2019-08-22T05:54:10Z</time>
        <sat>10</sat>
      </trkpt>
      <trkpt lat="42.450316" lon="-2.990160">
        <ele>663.9</ele>
        <time>2019-08-22T05:54:16Z</time>
        <sat>9</sat>
      </trkpt>
      <trkpt lat="42.450316" lon="-2.990326">
        <ele>665.0</ele>
        <time>2019-08-22T05:54:24Z</time>
        <sat>10</sat>
      </trkpt>
      <trkpt lat="42.450336" lon="-2.990410">
        <ele>665.8</ele>
        <time>2019-08-22T05:54:29Z</time>
        <sat>10</sat>
      </trkpt>
      <trkpt lat="42.450357" lon="-2.990524">
        <ele>667.6</ele>
        <time>2019-08-22T05:54:57Z</time>
        <sat>10</sat>
      </trkpt>
      <trkpt lat="42.450382" lon="-2.990715">
        <ele>667.8</ele>
        <time>2019-08-22T05:55:08Z</time>
        <sat>10</sat>
      </trkpt>
      <trkpt lat="42.450395" lon="-2.990762">
        <ele>668.0</ele>
        <time>2019-08-22T05:55:11Z</time>
        <sat>10</sat>
      </trkpt>
      <trkpt lat="42.450408" lon="-2.990903">
        <ele>668.3</ele>
        <time>2019-08-22T05:55:18Z</time>
        <sat>10</sat>
      </trkpt>
      <trkpt lat="42.450436" lon="-2.990959">
        <ele>668.5</ele>
        <time>2019-08-22T05:55:22Z</time>
        <sat>10</sat>
      </trkpt>
      <trkpt lat="42.450448" lon="-2.991048">
        <ele>668.7</ele>
        <time>2019-08-22T05:55:27Z</time>
        <sat>10</sat>
      </trkpt>
      <trkpt lat="42.450451" lon="-2.991160">
        <ele>669.0</ele>
        <time>2019-08-22T05:55:32Z</time>
        <sat>10</sat>
      </trkpt>
      <trkpt lat="42.450479" lon="-2.991262">
        <ele>669.3</ele>
        <time>2019-08-22T05:55:38Z</time>
        <sat>10</sat>
      </trkpt>
      <trkpt lat="42.450485" lon="-2.991413">
        <ele>669.5</ele>
        <time>2019-08-22T05:55:45Z</time>
        <sat>10</sat>
      </trkpt>
      <trkpt lat="42.450521" lon="-2.991525">
        <ele>669.8</ele>
        <time>2019-08-22T05:55:52Z</time>
        <sat>9</sat>
      </trkpt>
      <trkpt lat="42.450553" lon="-2.991740">
        <ele>670.3</ele>
        <time>2019-08-22T05:56:03Z</time>
        <sat>9</sat>
      </trkpt>
      <trkpt lat="42.450576" lon="-2.991807">
        <ele>670.4</ele>
        <time>2019-08-22T05:56:07Z</time>
        <sat>9</sat>
      </trkpt>
      <trkpt lat="42.450580" lon="-2.991929">
        <ele>670.6</ele>
        <time>2019-08-22T05:56:13Z</time>
        <sat>9</sat>
      </trkpt>
      <trkpt lat="42.450600" lon="-2.992042">
        <ele>670.7</ele>
        <time>2019-08-22T05:56:19Z</time>
        <sat>9</sat>
      </trkpt>
      <trkpt lat="42.450626" lon="-2.992123">
        <ele>670.8</ele>
        <time>2019-08-22T05:56:24Z</time>
        <sat>9</sat>
      </trkpt>
      <trkpt lat="42.450622" lon="-2.992317">
        <ele>671.2</ele>
        <time>2019-08-22T05:56:33Z</time>
        <sat>10</sat>
      </trkpt>
      <trkpt lat="42.450658" lon="-2.992451">
        <ele>671.4</ele>
        <time>2019-08-22T05:56:41Z</time>
        <sat>10</sat>
      </trkpt>
      <trkpt lat="42.450661" lon="-2.992507">
        <ele>671.4</ele>
        <time>2019-08-22T05:56:44Z</time>
        <sat>10</sat>
      </trkpt>
      <trkpt lat="42.450655" lon="-2.992595">
        <ele>671.6</ele>
        <time>2019-08-22T05:56:48Z</time>
        <sat>10</sat>
      </trkpt>
      <trkpt lat="42.450687" lon="-2.992734">
        <ele>671.8</ele>
        <time>2019-08-22T05:56:56Z</time>
        <sat>10</sat>
      </trkpt>
      <trkpt lat="42.450694" lon="-2.992959">
        <ele>672.0</ele>
        <time>2019-08-22T05:57:07Z</time>
        <sat>10</sat>
      </trkpt>
      <trkpt lat="42.450725" lon="-2.993067">
        <ele>672.0</ele>
        <time>2019-08-22T05:57:14Z</time>
        <sat>10</sat>
      </trkpt>
      <trkpt lat="42.450727" lon="-2.993232">
        <ele>672.1</ele>
        <time>2019-08-22T05:57:22Z</time>
        <sat>10</sat>
      </trkpt>
      <trkpt lat="42.450771" lon="-2.993361">
        <ele>672.0</ele>
        <time>2019-08-22T05:57:30Z</time>
        <sat>10</sat>
      </trkpt>
      <trkpt lat="42.450779" lon="-2.993572">
        <ele>672.1</ele>
        <time>2019-08-22T05:57:40Z</time>
        <sat>10</sat>
      </trkpt>
      <trkpt lat="42.450808" lon="-2.993668">
        <ele>672.2</ele>
        <time>2019-08-22T05:57:46Z</time>
        <sat>10</sat>
      </trkpt>
      <trkpt lat="42.450813" lon="-2.993704">
        <ele>672.2</ele>
        <time>2019-08-22T05:57:48Z</time>
        <sat>10</sat>
      </trkpt>
      <trkpt lat="42.450814" lon="-2.993809">
        <ele>672.3</ele>
        <time>2019-08-22T05:57:53Z</time>
        <sat>10</sat>
      </trkpt>
      <trkpt lat="42.450830" lon="-2.993905">
        <ele>672.3</ele>
        <time>2019-08-22T05:57:58Z</time>
        <sat>10</sat>
      </trkpt>
      <trkpt lat="42.450866" lon="-2.993999">
        <ele>672.2</ele>
        <time>2019-08-22T05:58:04Z</time>
        <sat>10</sat>
      </trkpt>
      <trkpt lat="42.450881" lon="-2.994188">
        <ele>672.3</ele>
        <time>2019-08-22T05:58:13Z</time>
        <sat>9</sat>
      </trkpt>
      <trkpt lat="42.450929" lon="-2.994313">
        <ele>672.4</ele>
        <time>2019-08-22T05:58:21Z</time>
        <sat>9</sat>
      </trkpt>
      <trkpt lat="42.450945" lon="-2.994390">
        <ele>672.4</ele>
        <time>2019-08-22T05:58:26Z</time>
        <sat>9</sat>
      </trkpt>
      <trkpt lat="42.450973" lon="-2.994596">
        <ele>671.9</ele>
        <time>2019-08-22T05:58:37Z</time>
        <sat>8</sat>
      </trkpt>
      <trkpt lat="42.450974" lon="-2.994633">
        <ele>671.9</ele>
        <time>2019-08-22T05:58:39Z</time>
        <sat>8</sat>
      </trkpt>
      <trkpt lat="42.451014" lon="-2.994866">
        <ele>672.4</ele>
        <time>2019-08-22T05:58:51Z</time>
        <sat>8</sat>
      </trkpt>
      <trkpt lat="42.451014" lon="-2.994980">
        <ele>672.2</ele>
        <time>2019-08-22T05:58:57Z</time>
        <sat>8</sat>
      </trkpt>
      <trkpt lat="42.451046" lon="-2.995179">
        <ele>671.3</ele>
        <time>2019-08-22T05:59:56Z</time>
        <sat>8</sat>
      </trkpt>
      <trkpt lat="42.451080" lon="-2.995370">
        <ele>671.2</ele>
        <time>2019-08-22T06:00:07Z</time>
        <sat>8</sat>
      </trkpt>
      <trkpt lat="42.451097" lon="-2.995521">
        <ele>671.2</ele>
        <time>2019-08-22T06:00:15Z</time>
        <sat>8</sat>
      </trkpt>
      <trkpt lat="42.451113" lon="-2.995641">
        <ele>671.0</ele>
        <time>2019-08-22T06:00:21Z</time>
        <sat>9</sat>
      </trkpt>
      <trkpt lat="42.451146" lon="-2.995724">
        <ele>670.9</ele>
        <time>2019-08-22T06:00:26Z</time>
        <sat>9</sat>
      </trkpt>
      <trkpt lat="42.451165" lon="-2.995814">
        <ele>670.8</ele>
        <time>2019-08-22T06:00:31Z</time>
        <sat>9</sat>
      </trkpt>
      <trkpt lat="42.451180" lon="-2.995997">
        <ele>670.8</ele>
        <time>2019-08-22T06:00:40Z</time>
        <sat>9</sat>
      </trkpt>
      <trkpt lat="42.451238" lon="-2.996224">
        <ele>670.9</ele>
        <time>2019-08-22T06:00:53Z</time>
        <sat>9</sat>
      </trkpt>
      <trkpt lat="42.451242" lon="-2.996326">
        <ele>671.1</ele>
        <time>2019-08-22T06:00:58Z</time>
        <sat>9</sat>
      </trkpt>
      <trkpt lat="42.451263" lon="-2.996466">
        <ele>671.1</ele>
        <time>2019-08-22T06:01:05Z</time>
        <sat>9</sat>
      </trkpt>
      <trkpt lat="42.451306" lon="-2.996647">
        <ele>670.9</ele>
        <time>2019-08-22T06:01:15Z</time>
        <sat>8</sat>
      </trkpt>
      <trkpt lat="42.451344" lon="-2.996890">
        <ele>670.8</ele>
        <time>2019-08-22T06:01:28Z</time>
        <sat>8</sat>
      </trkpt>
      <trkpt lat="42.451359" lon="-2.996944">
        <ele>670.7</ele>
        <time>2019-08-22T06:01:31Z</time>
        <sat>8</sat>
      </trkpt>
      <trkpt lat="42.451387" lon="-2.997165">
        <ele>670.4</ele>
        <time>2019-08-22T06:01:43Z</time>
        <sat>8</sat>
      </trkpt>
      <trkpt lat="42.451410" lon="-2.997299">
        <ele>670.2</ele>
        <time>2019-08-22T06:01:50Z</time>
        <sat>8</sat>
      </trkpt>
      <trkpt lat="42.451426" lon="-2.997351">
        <ele>670.1</ele>
        <time>2019-08-22T06:01:53Z</time>
        <sat>8</sat>
      </trkpt>
      <trkpt lat="42.451454" lon="-2.997579">
        <ele>669.6</ele>
        <time>2019-08-22T06:02:05Z</time>
        <sat>8</sat>
      </trkpt>
      <trkpt lat="42.451477" lon="-2.997707">
        <ele>669.3</ele>
        <time>2019-08-22T06:02:12Z</time>
        <sat>8</sat>
      </trkpt>
      <trkpt lat="42.451501" lon="-2.997940">
        <ele>669.0</ele>
        <time>2019-08-22T06:02:24Z</time>
        <sat>8</sat>
      </trkpt>
      <trkpt lat="42.451535" lon="-2.998105">
        <ele>668.9</ele>
        <time>2019-08-22T06:02:33Z</time>
        <sat>8</sat>
      </trkpt>
      <trkpt lat="42.451555" lon="-2.998324">
        <ele>668.7</ele>
        <time>2019-08-22T06:02:44Z</time>
        <sat>8</sat>
      </trkpt>
      <trkpt lat="42.451589" lon="-2.998503">
        <ele>668.5</ele>
        <time>2019-08-22T06:02:54Z</time>
        <sat>8</sat>
      </trkpt>
      <trkpt lat="42.451602" lon="-2.998719">
        <ele>668.6</ele>
        <time>2019-08-22T06:03:05Z</time>
        <sat>8</sat>
      </trkpt>
      <trkpt lat="42.451637" lon="-2.998981">
        <ele>668.4</ele>
        <time>2019-08-22T06:03:19Z</time>
        <sat>8</sat>
      </trkpt>
      <trkpt lat="42.451654" lon="-2.999200">
        <ele>668.4</ele>
        <time>2019-08-22T06:03:30Z</time>
        <sat>8</sat>
      </trkpt>
      <trkpt lat="42.451684" lon="-2.999363">
        <ele>668.3</ele>
        <time>2019-08-22T06:03:39Z</time>
        <sat>8</sat>
      </trkpt>
      <trkpt lat="42.451694" lon="-2.999481">
        <ele>668.3</ele>
        <time>2019-08-22T06:03:45Z</time>
        <sat>8</sat>
      </trkpt>
      <trkpt lat="42.451682" lon="-2.999561">
        <ele>668.3</ele>
        <time>2019-08-22T06:03:49Z</time>
        <sat>8</sat>
      </trkpt>
      <trkpt lat="42.451718" lon="-2.999821">
        <ele>667.9</ele>
        <time>2019-08-22T06:04:03Z</time>
        <sat>8</sat>
      </trkpt>
      <trkpt lat="42.451718" lon="-2.999838">
        <ele>667.9</ele>
        <time>2019-08-22T06:04:04Z</time>
        <sat>8</sat>
      </trkpt>
      <trkpt lat="42.451745" lon="-3.000048">
        <ele>668.1</ele>
        <time>2019-08-22T06:04:16Z</time>
        <sat>8</sat>
      </trkpt>
      <trkpt lat="42.451752" lon="-3.000159">
        <ele>667.9</ele>
        <time>2019-08-22T06:04:26Z</time>
        <sat>8</sat>
      </trkpt>
      <trkpt lat="42.451783" lon="-3.000349">
        <ele>667.6</ele>
        <time>2019-08-22T06:04:50Z</time>
        <sat>8</sat>
      </trkpt>
      <trkpt lat="42.451798" lon="-3.000543">
        <ele>667.4</ele>
        <time>2019-08-22T06:05:01Z</time>
        <sat>8</sat>
      </trkpt>
      <trkpt lat="42.451821" lon="-3.000687">
        <ele>667.1</ele>
        <time>2019-08-22T06:05:09Z</time>
        <sat>8</sat>
      </trkpt>
      <trkpt lat="42.451832" lon="-3.000838">
        <ele>666.7</ele>
        <time>2019-08-22T06:05:17Z</time>
        <sat>8</sat>
      </trkpt>
      <trkpt lat="42.451851" lon="-3.000929">
        <ele>666.4</ele>
        <time>2019-08-22T06:05:22Z</time>
        <sat>8</sat>
      </trkpt>
      <trkpt lat="42.451860" lon="-3.001076">
        <ele>666.2</ele>
        <time>2019-08-22T06:05:30Z</time>
        <sat>8</sat>
      </trkpt>
      <trkpt lat="42.451892" lon="-3.001217">
        <ele>665.4</ele>
        <time>2019-08-22T06:06:01Z</time>
        <sat>8</sat>
      </trkpt>
      <trkpt lat="42.451900" lon="-3.001282">
        <ele>665.4</ele>
        <time>2019-08-22T06:06:05Z</time>
        <sat>8</sat>
      </trkpt>
      <trkpt lat="42.451920" lon="-3.001365">
        <ele>665.2</ele>
        <time>2019-08-22T06:06:10Z</time>
        <sat>8</sat>
      </trkpt>
      <trkpt lat="42.451928" lon="-3.001637">
        <ele>664.5</ele>
        <time>2019-08-22T06:06:24Z</time>
        <sat>7</sat>
      </trkpt>
      <trkpt lat="42.451947" lon="-3.001784">
        <ele>664.2</ele>
        <time>2019-08-22T06:06:32Z</time>
        <sat>7</sat>
      </trkpt>
      <trkpt lat="42.451949" lon="-3.002025">
        <ele>663.8</ele>
        <time>2019-08-22T06:06:44Z</time>
        <sat>8</sat>
      </trkpt>
      <trkpt lat="42.451952" lon="-3.002123">
        <ele>663.7</ele>
        <time>2019-08-22T06:06:49Z</time>
        <sat>7</sat>
      </trkpt>
      <trkpt lat="42.451964" lon="-3.002208">
        <ele>663.6</ele>
        <time>2019-08-22T06:06:54Z</time>
        <sat>8</sat>
      </trkpt>
      <trkpt lat="42.451960" lon="-3.002349">
        <ele>663.7</ele>
        <time>2019-08-22T06:07:01Z</time>
        <sat>7</sat>
      </trkpt>
      <trkpt lat="42.451968" lon="-3.002427">
        <ele>663.7</ele>
        <time>2019-08-22T06:07:05Z</time>
        <sat>8</sat>
      </trkpt>
      <trkpt lat="42.451986" lon="-3.002494">
        <ele>663.7</ele>
        <time>2019-08-22T06:07:09Z</time>
        <sat>7</sat>
      </trkpt>
      <trkpt lat="42.452002" lon="-3.002596">
        <ele>663.7</ele>
        <time>2019-08-22T06:07:15Z</time>
        <sat>7</sat>
      </trkpt>
      <trkpt lat="42.451992" lon="-3.002709">
        <ele>663.6</ele>
        <time>2019-08-22T06:07:20Z</time>
        <sat>8</sat>
      </trkpt>
      <trkpt lat="42.451995" lon="-3.002815">
        <ele>663.6</ele>
        <time>2019-08-22T06:07:25Z</time>
        <sat>8</sat>
      </trkpt>
      <trkpt lat="42.452020" lon="-3.002956">
        <ele>663.6</ele>
        <time>2019-08-22T06:07:33Z</time>
        <sat>7</sat>
      </trkpt>
      <trkpt lat="42.452022" lon="-3.003101">
        <ele>663.7</ele>
        <time>2019-08-22T06:07:40Z</time>
        <sat>7</sat>
      </trkpt>
      <trkpt lat="42.452014" lon="-3.003174">
        <ele>663.7</ele>
        <time>2019-08-22T06:07:43Z</time>
        <sat>8</sat>
      </trkpt>
      <trkpt lat="42.452014" lon="-3.003241">
        <ele>663.7</ele>
        <time>2019-08-22T06:07:46Z</time>
        <sat>8</sat>
      </trkpt>
      <trkpt lat="42.452021" lon="-3.003302">
        <ele>663.7</ele>
        <time>2019-08-22T06:07:49Z</time>
        <sat>8</sat>
      </trkpt>
      <trkpt lat="42.452046" lon="-3.003395">
        <ele>663.6</ele>
        <time>2019-08-22T06:07:55Z</time>
        <sat>8</sat>
      </trkpt>
      <trkpt lat="42.452045" lon="-3.003552">
        <ele>663.5</ele>
        <time>2019-08-22T06:08:03Z</time>
        <sat>8</sat>
      </trkpt>
      <trkpt lat="42.452036" lon="-3.003617">
        <ele>663.5</ele>
        <time>2019-08-22T06:08:06Z</time>
        <sat>7</sat>
      </trkpt>
      <trkpt lat="42.452036" lon="-3.003728">
        <ele>663.5</ele>
        <time>2019-08-22T06:08:11Z</time>
        <sat>8</sat>
      </trkpt>
      <trkpt lat="42.452059" lon="-3.003821">
        <ele>663.6</ele>
        <time>2019-08-22T06:08:17Z</time>
        <sat>8</sat>
      </trkpt>
      <trkpt lat="42.452052" lon="-3.004027">
        <ele>663.7</ele>
        <time>2019-08-22T06:08:27Z</time>
        <sat>8</sat>
      </trkpt>
      <trkpt lat="42.452051" lon="-3.004111">
        <ele>663.6</ele>
        <time>2019-08-22T06:08:31Z</time>
        <sat>9</sat>
      </trkpt>
      <trkpt lat="42.452067" lon="-3.004238">
        <ele>663.5</ele>
        <time>2019-08-22T06:08:39Z</time>
        <sat>8</sat>
      </trkpt>
      <trkpt lat="42.452058" lon="-3.004328">
        <ele>663.6</ele>
        <time>2019-08-22T06:08:46Z</time>
        <sat>8</sat>
      </trkpt>
      <trkpt lat="42.452060" lon="-3.004473">
        <ele>663.6</ele>
        <time>2019-08-22T06:08:53Z</time>
        <sat>8</sat>
      </trkpt>
      <trkpt lat="42.452085" lon="-3.004610">
        <ele>663.6</ele>
        <time>2019-08-22T06:09:01Z</time>
        <sat>8</sat>
      </trkpt>
      <trkpt lat="42.452075" lon="-3.004770">
        <ele>663.6</ele>
        <time>2019-08-22T06:09:09Z</time>
        <sat>8</sat>
      </trkpt>
      <trkpt lat="42.452075" lon="-3.004863">
        <ele>663.6</ele>
        <time>2019-08-22T06:09:13Z</time>
        <sat>8</sat>
      </trkpt>
      <trkpt lat="42.452142" lon="-3.005006">
        <ele>663.7</ele>
        <time>2019-08-22T06:09:25Z</time>
        <sat>7</sat>
      </trkpt>
      <trkpt lat="42.452173" lon="-3.005054">
        <ele>663.8</ele>
        <time>2019-08-22T06:09:28Z</time>
        <sat>7</sat>
      </trkpt>
      <trkpt lat="42.452255" lon="-3.005108">
        <ele>664.1</ele>
        <time>2019-08-22T06:09:35Z</time>
        <sat>7</sat>
      </trkpt>
      <trkpt lat="42.452287" lon="-3.005185">
        <ele>664.2</ele>
        <time>2019-08-22T06:09:39Z</time>
        <sat>8</sat>
      </trkpt>
      <trkpt lat="42.452315" lon="-3.005310">
        <ele>664.4</ele>
        <time>2019-08-22T06:09:49Z</time>
        <sat>8</sat>
      </trkpt>
      <trkpt lat="42.452330" lon="-3.005468">
        <ele>664.5</ele>
        <time>2019-08-22T06:10:29Z</time>
        <sat>5</sat>
      </trkpt>
      <trkpt lat="42.452341" lon="-3.005544">
        <ele>664.5</ele>
        <time>2019-08-22T06:10:33Z</time>
        <sat>6</sat>
      </trkpt>
      <trkpt lat="42.452310" lon="-3.005673">
        <ele>664.6</ele>
        <time>2019-08-22T06:10:41Z</time>
        <sat>7</sat>
      </trkpt>
      <trkpt lat="42.452200" lon="-3.005787">
        <ele>664.2</ele>
        <time>2019-08-22T06:10:51Z</time>
        <sat>7</sat>
      </trkpt>
      <trkpt lat="42.452164" lon="-3.005819">
        <ele>664.1</ele>
        <time>2019-08-22T06:10:54Z</time>
        <sat>7</sat>
      </trkpt>
      <trkpt lat="42.452125" lon="-3.005876">
        <ele>663.9</ele>
        <time>2019-08-22T06:10:58Z</time>
        <sat>7</sat>
      </trkpt>
      <trkpt lat="42.452110" lon="-3.005977">
        <ele>663.8</ele>
        <time>2019-08-22T06:11:04Z</time>
        <sat>7</sat>
      </trkpt>
      <trkpt lat="42.452118" lon="-3.006096">
        <ele>663.8</ele>
        <time>2019-08-22T06:11:10Z</time>
        <sat>7</sat>
      </trkpt>
      <trkpt lat="42.452111" lon="-3.006163">
        <ele>663.9</ele>
        <time>2019-08-22T06:11:13Z</time>
        <sat>7</sat>
      </trkpt>
      <trkpt lat="42.452115" lon="-3.006235">
        <ele>663.9</ele>
        <time>2019-08-22T06:11:16Z</time>
        <sat>7</sat>
      </trkpt>
      <trkpt lat="42.452156" lon="-3.006403">
        <ele>664.0</ele>
        <time>2019-08-22T06:11:26Z</time>
        <sat>7</sat>
      </trkpt>
      <trkpt lat="42.452150" lon="-3.006513">
        <ele>664.0</ele>
        <time>2019-08-22T06:11:31Z</time>
        <sat>7</sat>
      </trkpt>
      <trkpt lat="42.452168" lon="-3.006630">
        <ele>664.1</ele>
        <time>2019-08-22T06:11:37Z</time>
        <sat>7</sat>
      </trkpt>
      <trkpt lat="42.452193" lon="-3.006718">
        <ele>664.3</ele>
        <time>2019-08-22T06:11:42Z</time>
        <sat>7</sat>
      </trkpt>
      <trkpt lat="42.452192" lon="-3.006914">
        <ele>664.4</ele>
        <time>2019-08-22T06:11:51Z</time>
        <sat>7</sat>
      </trkpt>
      <trkpt lat="42.452215" lon="-3.007034">
        <ele>664.6</ele>
        <time>2019-08-22T06:11:58Z</time>
        <sat>7</sat>
      </trkpt>
      <trkpt lat="42.452216" lon="-3.007184">
        <ele>664.9</ele>
        <time>2019-08-22T06:12:05Z</time>
        <sat>7</sat>
      </trkpt>
      <trkpt lat="42.452236" lon="-3.007266">
        <ele>665.0</ele>
        <time>2019-08-22T06:12:10Z</time>
        <sat>7</sat>
      </trkpt>
      <trkpt lat="42.452227" lon="-3.007362">
        <ele>665.3</ele>
        <time>2019-08-22T06:12:15Z</time>
        <sat>7</sat>
      </trkpt>
      <trkpt lat="42.452237" lon="-3.007442">
        <ele>665.7</ele>
        <time>2019-08-22T06:12:19Z</time>
        <sat>7</sat>
      </trkpt>
      <trkpt lat="42.452255" lon="-3.007489">
        <ele>665.9</ele>
        <time>2019-08-22T06:12:22Z</time>
        <sat>6</sat>
      </trkpt>
      <trkpt lat="42.452266" lon="-3.007559">
        <ele>666.1</ele>
        <time>2019-08-22T06:12:26Z</time>
        <sat>7</sat>
      </trkpt>
      <trkpt lat="42.452266" lon="-3.007658">
        <ele>666.5</ele>
        <time>2019-08-22T06:12:31Z</time>
        <sat>7</sat>
      </trkpt>
      <trkpt lat="42.452282" lon="-3.007767">
        <ele>666.8</ele>
        <time>2019-08-22T06:12:37Z</time>
        <sat>6</sat>
      </trkpt>
      <trkpt lat="42.452282" lon="-3.007873">
        <ele>667.1</ele>
        <time>2019-08-22T06:12:42Z</time>
        <sat>7</sat>
      </trkpt>
      <trkpt lat="42.452300" lon="-3.007939">
        <ele>667.4</ele>
        <time>2019-08-22T06:12:46Z</time>
        <sat>7</sat>
      </trkpt>
      <trkpt lat="42.452316" lon="-3.008055">
        <ele>667.9</ele>
        <time>2019-08-22T06:12:52Z</time>
        <sat>7</sat>
      </trkpt>
      <trkpt lat="42.452340" lon="-3.008152">
        <ele>668.1</ele>
        <time>2019-08-22T06:12:58Z</time>
        <sat>7</sat>
      </trkpt>
      <trkpt lat="42.452341" lon="-3.008273">
        <ele>668.5</ele>
        <time>2019-08-22T06:13:04Z</time>
        <sat>7</sat>
      </trkpt>
      <trkpt lat="42.452357" lon="-3.008339">
        <ele>668.6</ele>
        <time>2019-08-22T06:13:08Z</time>
        <sat>7</sat>
      </trkpt>
      <trkpt lat="42.452362" lon="-3.008487">
        <ele>669.1</ele>
        <time>2019-08-22T06:13:15Z</time>
        <sat>7</sat>
      </trkpt>
      <trkpt lat="42.452392" lon="-3.008565">
        <ele>669.5</ele>
        <time>2019-08-22T06:13:20Z</time>
        <sat>7</sat>
      </trkpt>
      <trkpt lat="42.452396" lon="-3.008601">
        <ele>669.6</ele>
        <time>2019-08-22T06:13:22Z</time>
        <sat>7</sat>
      </trkpt>
      <trkpt lat="42.452393" lon="-3.008714">
        <ele>670.0</ele>
        <time>2019-08-22T06:13:27Z</time>
        <sat>7</sat>
      </trkpt>
      <trkpt lat="42.452421" lon="-3.008793">
        <ele>670.3</ele>
        <time>2019-08-22T06:13:32Z</time>
        <sat>7</sat>
      </trkpt>
      <trkpt lat="42.452426" lon="-3.008829">
        <ele>670.4</ele>
        <time>2019-08-22T06:13:34Z</time>
        <sat>7</sat>
      </trkpt>
      <trkpt lat="42.452425" lon="-3.008932">
        <ele>670.7</ele>
        <time>2019-08-22T06:13:39Z</time>
        <sat>7</sat>
      </trkpt>
      <trkpt lat="42.452445" lon="-3.009014">
        <ele>671.2</ele>
        <time>2019-08-22T06:13:45Z</time>
        <sat>7</sat>
      </trkpt>
      <trkpt lat="42.452451" lon="-3.009141">
        <ele>671.6</ele>
        <time>2019-08-22T06:13:51Z</time>
        <sat>7</sat>
      </trkpt>
      <trkpt lat="42.452473" lon="-3.009224">
        <ele>672.0</ele>
        <time>2019-08-22T06:13:56Z</time>
        <sat>7</sat>
      </trkpt>
      <trkpt lat="42.452475" lon="-3.009347">
        <ele>672.5</ele>
        <time>2019-08-22T06:14:02Z</time>
        <sat>7</sat>
      </trkpt>
      <trkpt lat="42.452494" lon="-3.009446">
        <ele>672.9</ele>
        <time>2019-08-22T06:14:08Z</time>
        <sat>6</sat>
      </trkpt>
      <trkpt lat="42.452493" lon="-3.009533">
        <ele>673.3</ele>
        <time>2019-08-22T06:14:12Z</time>
        <sat>7</sat>
      </trkpt>
      <trkpt lat="42.452497" lon="-3.009570">
        <ele>673.4</ele>
        <time>2019-08-22T06:14:14Z</time>
        <sat>7</sat>
      </trkpt>
      <trkpt lat="42.452519" lon="-3.009668">
        <ele>673.7</ele>
        <time>2019-08-22T06:14:20Z</time>
        <sat>8</sat>
      </trkpt>
      <trkpt lat="42.452517" lon="-3.009797">
        <ele>674.0</ele>
        <time>2019-08-22T06:14:26Z</time>
        <sat>8</sat>
      </trkpt>
      <trkpt lat="42.452547" lon="-3.009874">
        <ele>674.3</ele>
        <time>2019-08-22T06:14:31Z</time>
        <sat>8</sat>
      </trkpt>
      <trkpt lat="42.452552" lon="-3.010056">
        <ele>674.6</ele>
        <time>2019-08-22T06:14:40Z</time>
        <sat>8</sat>
      </trkpt>
      <trkpt lat="42.452572" lon="-3.010151">
        <ele>674.8</ele>
        <time>2019-08-22T06:14:46Z</time>
        <sat>9</sat>
      </trkpt>
      <trkpt lat="42.452578" lon="-3.010291">
        <ele>675.1</ele>
        <time>2019-08-22T06:14:53Z</time>
        <sat>9</sat>
      </trkpt>
      <trkpt lat="42.452596" lon="-3.010354">
        <ele>675.3</ele>
        <time>2019-08-22T06:14:57Z</time>
        <sat>9</sat>
      </trkpt>
      <trkpt lat="42.452609" lon="-3.010562">
        <ele>676.0</ele>
        <time>2019-08-22T06:15:08Z</time>
        <sat>9</sat>
      </trkpt>
      <trkpt lat="42.452615" lon="-3.010601">
        <ele>676.1</ele>
        <time>2019-08-22T06:15:10Z</time>
        <sat>9</sat>
      </trkpt>
      <trkpt lat="42.452619" lon="-3.010725">
        <ele>676.5</ele>
        <time>2019-08-22T06:15:17Z</time>
        <sat>9</sat>
      </trkpt>
      <trkpt lat="42.452634" lon="-3.010867">
        <ele>677.5</ele>
        <time>2019-08-22T06:15:25Z</time>
        <sat>9</sat>
      </trkpt>
      <trkpt lat="42.452657" lon="-3.011005">
        <ele>678.1</ele>
        <time>2019-08-22T06:15:33Z</time>
        <sat>9</sat>
      </trkpt>
      <trkpt lat="42.452638" lon="-3.011095">
        <ele>678.3</ele>
        <time>2019-08-22T06:15:38Z</time>
        <sat>9</sat>
      </trkpt>
      <trkpt lat="42.452637" lon="-3.011214">
        <ele>678.5</ele>
        <time>2019-08-22T06:15:44Z</time>
        <sat>9</sat>
      </trkpt>
      <trkpt lat="42.452669" lon="-3.011278">
        <ele>678.1</ele>
        <time>2019-08-22T06:18:03Z</time>
        <sat>9</sat>
      </trkpt>
      <trkpt lat="42.452697" lon="-3.011399">
        <ele>678.3</ele>
        <time>2019-08-22T06:18:10Z</time>
        <sat>9</sat>
      </trkpt>
      <trkpt lat="42.452700" lon="-3.011437">
        <ele>678.3</ele>
        <time>2019-08-22T06:18:12Z</time>
        <sat>9</sat>
      </trkpt>
      <trkpt lat="42.452685" lon="-3.011551">
        <ele>678.6</ele>
        <time>2019-08-22T06:18:17Z</time>
        <sat>9</sat>
      </trkpt>
      <trkpt lat="42.452688" lon="-3.011608">
        <ele>678.7</ele>
        <time>2019-08-22T06:18:20Z</time>
        <sat>9</sat>
      </trkpt>
      <trkpt lat="42.452710" lon="-3.011692">
        <ele>678.8</ele>
        <time>2019-08-22T06:18:25Z</time>
        <sat>9</sat>
      </trkpt>
      <trkpt lat="42.452706" lon="-3.011791">
        <ele>679.0</ele>
        <time>2019-08-22T06:18:30Z</time>
        <sat>9</sat>
      </trkpt>
      <trkpt lat="42.452734" lon="-3.011964">
        <ele>679.2</ele>
        <time>2019-08-22T06:18:40Z</time>
        <sat>9</sat>
      </trkpt>
      <trkpt lat="42.452726" lon="-3.012051">
        <ele>679.3</ele>
        <time>2019-08-22T06:18:44Z</time>
        <sat>9</sat>
      </trkpt>
      <trkpt lat="42.452761" lon="-3.012224">
        <ele>679.6</ele>
        <time>2019-08-22T06:18:54Z</time>
        <sat>9</sat>
      </trkpt>
      <trkpt lat="42.452757" lon="-3.012306">
        <ele>679.7</ele>
        <time>2019-08-22T06:18:58Z</time>
        <sat>9</sat>
      </trkpt>
      <trkpt lat="42.452761" lon="-3.012358">
        <ele>679.7</ele>
        <time>2019-08-22T06:19:01Z</time>
        <sat>9</sat>
      </trkpt>
      <trkpt lat="42.452782" lon="-3.012425">
        <ele>679.8</ele>
        <time>2019-08-22T06:19:05Z</time>
        <sat>8</sat>
      </trkpt>
      <trkpt lat="42.452779" lon="-3.012544">
        <ele>680.0</ele>
        <time>2019-08-22T06:19:11Z</time>
        <sat>9</sat>
      </trkpt>
      <trkpt lat="42.452798" lon="-3.012709">
        <ele>680.2</ele>
        <time>2019-08-22T06:19:20Z</time>
        <sat>9</sat>
      </trkpt>
      <trkpt lat="42.452788" lon="-3.012831">
        <ele>680.3</ele>
        <time>2019-08-22T06:19:26Z</time>
        <sat>9</sat>
      </trkpt>
      <trkpt lat="42.452809" lon="-3.012935">
        <ele>680.4</ele>
        <time>2019-08-22T06:19:32Z</time>
        <sat>9</sat>
      </trkpt>
      <trkpt lat="42.452795" lon="-3.013047">
        <ele>680.5</ele>
        <time>2019-08-22T06:19:38Z</time>
        <sat>9</sat>
      </trkpt>
      <trkpt lat="42.452798" lon="-3.013117">
        <ele>680.5</ele>
        <time>2019-08-22T06:19:42Z</time>
        <sat>9</sat>
      </trkpt>
      <trkpt lat="42.452822" lon="-3.013208">
        <ele>680.5</ele>
        <time>2019-08-22T06:19:47Z</time>
        <sat>9</sat>
      </trkpt>
      <trkpt lat="42.452823" lon="-3.013337">
        <ele>680.8</ele>
        <time>2019-08-22T06:19:54Z</time>
        <sat>8</sat>
      </trkpt>
      <trkpt lat="42.452843" lon="-3.013477">
        <ele>681.0</ele>
        <time>2019-08-22T06:20:02Z</time>
        <sat>9</sat>
      </trkpt>
      <trkpt lat="42.452836" lon="-3.013542">
        <ele>681.1</ele>
        <time>2019-08-22T06:20:05Z</time>
        <sat>9</sat>
      </trkpt>
      <trkpt lat="42.452836" lon="-3.013611">
        <ele>681.3</ele>
        <time>2019-08-22T06:20:08Z</time>
        <sat>9</sat>
      </trkpt>
      <trkpt lat="42.452864" lon="-3.013717">
        <ele>681.4</ele>
        <time>2019-08-22T06:20:14Z</time>
        <sat>9</sat>
      </trkpt>
      <trkpt lat="42.452874" lon="-3.013881">
        <ele>681.8</ele>
        <time>2019-08-22T06:20:23Z</time>
        <sat>8</sat>
      </trkpt>
      <trkpt lat="42.452904" lon="-3.013947">
        <ele>681.9</ele>
        <time>2019-08-22T06:20:27Z</time>
        <sat>9</sat>
      </trkpt>
      <trkpt lat="42.452914" lon="-3.014037">
        <ele>682.0</ele>
        <time>2019-08-22T06:20:32Z</time>
        <sat>9</sat>
      </trkpt>
      <trkpt lat="42.452905" lon="-3.014123">
        <ele>682.2</ele>
        <time>2019-08-22T06:20:36Z</time>
        <sat>9</sat>
      </trkpt>
      <trkpt lat="42.452922" lon="-3.014261">
        <ele>682.4</ele>
        <time>2019-08-22T06:20:44Z</time>
        <sat>9</sat>
      </trkpt>
      <trkpt lat="42.452920" lon="-3.014394">
        <ele>682.6</ele>
        <time>2019-08-22T06:20:50Z</time>
        <sat>9</sat>
      </trkpt>
      <trkpt lat="42.452926" lon="-3.014429">
        <ele>682.6</ele>
        <time>2019-08-22T06:20:52Z</time>
        <sat>9</sat>
      </trkpt>
      <trkpt lat="42.452957" lon="-3.014524">
        <ele>682.8</ele>
        <time>2019-08-22T06:20:58Z</time>
        <sat>9</sat>
      </trkpt>
      <trkpt lat="42.452962" lon="-3.014563">
        <ele>683.0</ele>
        <time>2019-08-22T06:21:00Z</time>
        <sat>9</sat>
      </trkpt>
      <trkpt lat="42.452959" lon="-3.014653">
        <ele>683.2</ele>
        <time>2019-08-22T06:21:04Z</time>
        <sat>9</sat>
      </trkpt>
      <trkpt lat="42.452965" lon="-3.014714">
        <ele>683.3</ele>
        <time>2019-08-22T06:21:07Z</time>
        <sat>9</sat>
      </trkpt>
      <trkpt lat="42.452991" lon="-3.014813">
        <ele>683.5</ele>
        <time>2019-08-22T06:21:13Z</time>
        <sat>9</sat>
      </trkpt>
      <trkpt lat="42.452989" lon="-3.014960">
        <ele>683.8</ele>
        <time>2019-08-22T06:21:20Z</time>
        <sat>9</sat>
      </trkpt>
      <trkpt lat="42.453016" lon="-3.015128">
        <ele>684.3</ele>
        <time>2019-08-22T06:21:30Z</time>
        <sat>9</sat>
      </trkpt>
      <trkpt lat="42.453012" lon="-3.015259">
        <ele>684.6</ele>
        <time>2019-08-22T06:21:36Z</time>
        <sat>9</sat>
      </trkpt>
      <trkpt lat="42.453049" lon="-3.015390">
        <ele>684.8</ele>
        <time>2019-08-22T06:21:44Z</time>
        <sat>9</sat>
      </trkpt>
      <trkpt lat="42.453052" lon="-3.015450">
        <ele>685.0</ele>
        <time>2019-08-22T06:21:47Z</time>
        <sat>9</sat>
      </trkpt>
      <trkpt lat="42.453033" lon="-3.015596">
        <ele>685.2</ele>
        <time>2019-08-22T06:21:54Z</time>
        <sat>9</sat>
      </trkpt>
      <trkpt lat="42.453054" lon="-3.015688">
        <ele>685.2</ele>
        <time>2019-08-22T06:22:00Z</time>
        <sat>9</sat>
      </trkpt>
      <trkpt lat="42.453052" lon="-3.015852">
        <ele>685.5</ele>
        <time>2019-08-22T06:22:08Z</time>
        <sat>8</sat>
      </trkpt>
      <trkpt lat="42.453079" lon="-3.015956">
        <ele>685.7</ele>
        <time>2019-08-22T06:22:14Z</time>
        <sat>8</sat>
      </trkpt>
      <trkpt lat="42.453065" lon="-3.016132">
        <ele>686.3</ele>
        <time>2019-08-22T06:22:23Z</time>
        <sat>9</sat>
      </trkpt>
      <trkpt lat="42.453046" lon="-3.016239">
        <ele>686.9</ele>
        <time>2019-08-22T06:22:28Z</time>
        <sat>9</sat>
      </trkpt>
      <trkpt lat="42.453052" lon="-3.016311">
        <ele>687.3</ele>
        <time>2019-08-22T06:22:32Z</time>
        <sat>9</sat>
      </trkpt>
      <trkpt lat="42.453045" lon="-3.016461">
        <ele>688.5</ele>
        <time>2019-08-22T06:22:40Z</time>
        <sat>9</sat>
      </trkpt>
      <trkpt lat="42.453018" lon="-3.016572">
        <ele>689.4</ele>
        <time>2019-08-22T06:22:46Z</time>
        <sat>9</sat>
      </trkpt>
      <trkpt lat="42.453014" lon="-3.016635">
        <ele>689.9</ele>
        <time>2019-08-22T06:22:50Z</time>
        <sat>9</sat>
      </trkpt>
      <trkpt lat="42.452986" lon="-3.016711">
        <ele>690.5</ele>
        <time>2019-08-22T06:22:54Z</time>
        <sat>9</sat>
      </trkpt>
      <trkpt lat="42.452986" lon="-3.016804">
        <ele>691.3</ele>
        <time>2019-08-22T06:22:59Z</time>
        <sat>9</sat>
      </trkpt>
      <trkpt lat="42.452968" lon="-3.016887">
        <ele>691.8</ele>
        <time>2019-08-22T06:23:03Z</time>
        <sat>9</sat>
      </trkpt>
      <trkpt lat="42.452973" lon="-3.016973">
        <ele>692.5</ele>
        <time>2019-08-22T06:23:08Z</time>
        <sat>9</sat>
      </trkpt>
      <trkpt lat="42.452962" lon="-3.017050">
        <ele>693.0</ele>
        <time>2019-08-22T06:23:12Z</time>
        <sat>9</sat>
      </trkpt>
      <trkpt lat="42.452972" lon="-3.017156">
        <ele>693.2</ele>
        <time>2019-08-22T06:23:18Z</time>
        <sat>9</sat>
      </trkpt>
      <trkpt lat="42.452961" lon="-3.017259">
        <ele>694.5</ele>
        <time>2019-08-22T06:23:24Z</time>
        <sat>9</sat>
      </trkpt>
      <trkpt lat="42.452938" lon="-3.017338">
        <ele>694.9</ele>
        <time>2019-08-22T06:23:29Z</time>
        <sat>9</sat>
      </trkpt>
      <trkpt lat="42.452845" lon="-3.017483">
        <ele>693.8</ele>
        <time>2019-08-22T06:23:40Z</time>
        <sat>9</sat>
      </trkpt>
      <trkpt lat="42.452778" lon="-3.017600">
        <ele>692.5</ele>
        <time>2019-08-22T06:23:49Z</time>
        <sat>9</sat>
      </trkpt>
      <trkpt lat="42.452756" lon="-3.017646">
        <ele>693.3</ele>
        <time>2019-08-22T06:23:52Z</time>
        <sat>9</sat>
      </trkpt>
      <trkpt lat="42.452695" lon="-3.017834">
        <ele>692.1</ele>
        <time>2019-08-22T06:24:04Z</time>
        <sat>9</sat>
      </trkpt>
      <trkpt lat="42.452656" lon="-3.018031">
        <ele>689.8</ele>
        <time>2019-08-22T06:24:17Z</time>
        <sat>9</sat>
      </trkpt>
      <trkpt lat="42.452634" lon="-3.018104">
        <ele>691.5</ele>
        <time>2019-08-22T06:24:21Z</time>
        <sat>9</sat>
      </trkpt>
      <trkpt lat="42.452614" lon="-3.018256">
        <ele>691.5</ele>
        <time>2019-08-22T06:24:29Z</time>
        <sat>9</sat>
      </trkpt>
      <trkpt lat="42.452610" lon="-3.018346">
        <ele>691.1</ele>
        <time>2019-08-22T06:24:34Z</time>
        <sat>9</sat>
      </trkpt>
      <trkpt lat="42.452547" lon="-3.018550">
        <ele>691.1</ele>
        <time>2019-08-22T06:24:45Z</time>
        <sat>9</sat>
      </trkpt>
      <trkpt lat="42.452548" lon="-3.018634">
        <ele>691.2</ele>
        <time>2019-08-22T06:24:50Z</time>
        <sat>9</sat>
      </trkpt>
      <trkpt lat="42.452532" lon="-3.018741">
        <ele>691.4</ele>
        <time>2019-08-22T06:24:56Z</time>
        <sat>9</sat>
      </trkpt>
      <trkpt lat="42.452521" lon="-3.018777">
        <ele>691.5</ele>
        <time>2019-08-22T06:24:58Z</time>
        <sat>9</sat>
      </trkpt>
      <trkpt lat="42.452516" lon="-3.018916">
        <ele>692.0</ele>
        <time>2019-08-22T06:25:16Z</time>
        <sat>9</sat>
      </trkpt>
      <trkpt lat="42.452502" lon="-3.019024">
        <ele>692.0</ele>
        <time>2019-08-22T06:25:22Z</time>
        <sat>9</sat>
      </trkpt>
      <trkpt lat="42.452456" lon="-3.019198">
        <ele>692.5</ele>
        <time>2019-08-22T06:25:31Z</time>
        <sat>9</sat>
      </trkpt>
      <trkpt lat="42.452451" lon="-3.019293">
        <ele>692.6</ele>
        <time>2019-08-22T06:25:36Z</time>
        <sat>9</sat>
      </trkpt>
      <trkpt lat="42.452443" lon="-3.019333">
        <ele>692.7</ele>
        <time>2019-08-22T06:25:38Z</time>
        <sat>9</sat>
      </trkpt>
      <trkpt lat="42.452382" lon="-3.019470">
        <ele>693.0</ele>
        <time>2019-08-22T06:25:45Z</time>
        <sat>9</sat>
      </trkpt>
      <trkpt lat="42.452376" lon="-3.019536">
        <ele>693.2</ele>
        <time>2019-08-22T06:25:49Z</time>
        <sat>8</sat>
      </trkpt>
      <trkpt lat="42.452338" lon="-3.019682">
        <ele>693.4</ele>
        <time>2019-08-22T06:25:57Z</time>
        <sat>9</sat>
      </trkpt>
      <trkpt lat="42.452337" lon="-3.019806">
        <ele>693.6</ele>
        <time>2019-08-22T06:26:04Z</time>
        <sat>8</sat>
      </trkpt>
      <trkpt lat="42.452292" lon="-3.019938">
        <ele>694.0</ele>
        <time>2019-08-22T06:26:11Z</time>
        <sat>8</sat>
      </trkpt>
      <trkpt lat="42.452281" lon="-3.020063">
        <ele>694.4</ele>
        <time>2019-08-22T06:26:18Z</time>
        <sat>9</sat>
      </trkpt>
      <trkpt lat="42.452254" lon="-3.020185">
        <ele>694.5</ele>
        <time>2019-08-22T06:26:25Z</time>
        <sat>9</sat>
      </trkpt>
      <trkpt lat="42.452251" lon="-3.020292">
        <ele>694.6</ele>
        <time>2019-08-22T06:26:31Z</time>
        <sat>9</sat>
      </trkpt>
      <trkpt lat="42.452213" lon="-3.020404">
        <ele>695.0</ele>
        <time>2019-08-22T06:26:37Z</time>
        <sat>9</sat>
      </trkpt>
      <trkpt lat="42.452199" lon="-3.020481">
        <ele>695.2</ele>
        <time>2019-08-22T06:26:41Z</time>
        <sat>9</sat>
      </trkpt>
      <trkpt lat="42.452200" lon="-3.020591">
        <ele>695.4</ele>
        <time>2019-08-22T06:26:47Z</time>
        <sat>9</sat>
      </trkpt>
      <trkpt lat="42.452161" lon="-3.020723">
        <ele>695.7</ele>
        <time>2019-08-22T06:26:54Z</time>
        <sat>9</sat>
      </trkpt>
      <trkpt lat="42.452156" lon="-3.020845">
        <ele>695.8</ele>
        <time>2019-08-22T06:27:01Z</time>
        <sat>9</sat>
      </trkpt>
      <trkpt lat="42.452124" lon="-3.020933">
        <ele>696.2</ele>
        <time>2019-08-22T06:27:06Z</time>
        <sat>9</sat>
      </trkpt>
      <trkpt lat="42.452111" lon="-3.021103">
        <ele>696.7</ele>
        <time>2019-08-22T06:27:15Z</time>
        <sat>9</sat>
      </trkpt>
      <trkpt lat="42.452078" lon="-3.021177">
        <ele>696.9</ele>
        <time>2019-08-22T06:27:19Z</time>
        <sat>9</sat>
      </trkpt>
      <trkpt lat="42.452060" lon="-3.021241">
        <ele>697.1</ele>
        <time>2019-08-22T06:27:22Z</time>
        <sat>9</sat>
      </trkpt>
      <trkpt lat="42.452065" lon="-3.021356">
        <ele>697.6</ele>
        <time>2019-08-22T06:27:28Z</time>
        <sat>9</sat>
      </trkpt>
      <trkpt lat="42.452016" lon="-3.021537">
        <ele>698.2</ele>
        <time>2019-08-22T06:27:37Z</time>
        <sat>9</sat>
      </trkpt>
      <trkpt lat="42.452013" lon="-3.021659">
        <ele>698.6</ele>
        <time>2019-08-22T06:27:44Z</time>
        <sat>9</sat>
      </trkpt>
      <trkpt lat="42.451955" lon="-3.021847">
        <ele>699.6</ele>
        <time>2019-08-22T06:27:53Z</time>
        <sat>9</sat>
      </trkpt>
      <trkpt lat="42.451951" lon="-3.021962">
        <ele>700.3</ele>
        <time>2019-08-22T06:27:59Z</time>
        <sat>9</sat>
      </trkpt>
      <trkpt lat="42.451945" lon="-3.021998">
        <ele>700.5</ele>
        <time>2019-08-22T06:28:01Z</time>
        <sat>9</sat>
      </trkpt>
      <trkpt lat="42.451912" lon="-3.022098">
        <ele>700.8</ele>
        <time>2019-08-22T06:28:06Z</time>
        <sat>9</sat>
      </trkpt>
      <trkpt lat="42.451898" lon="-3.022165">
        <ele>701.1</ele>
        <time>2019-08-22T06:28:10Z</time>
        <sat>9</sat>
      </trkpt>
      <trkpt lat="42.451900" lon="-3.022220">
        <ele>701.4</ele>
        <time>2019-08-22T06:28:13Z</time>
        <sat>9</sat>
      </trkpt>
      <trkpt lat="42.451869" lon="-3.022447">
        <ele>702.3</ele>
        <time>2019-08-22T06:28:26Z</time>
        <sat>9</sat>
      </trkpt>
      <trkpt lat="42.451841" lon="-3.022539">
        <ele>702.8</ele>
        <time>2019-08-22T06:28:31Z</time>
        <sat>9</sat>
      </trkpt>
      <trkpt lat="42.451839" lon="-3.022605">
        <ele>703.2</ele>
        <time>2019-08-22T06:28:35Z</time>
        <sat>9</sat>
      </trkpt>
      <trkpt lat="42.451812" lon="-3.022732">
        <ele>703.8</ele>
        <time>2019-08-22T06:28:41Z</time>
        <sat>9</sat>
      </trkpt>
      <trkpt lat="42.451811" lon="-3.022800">
        <ele>704.3</ele>
        <time>2019-08-22T06:28:45Z</time>
        <sat>9</sat>
      </trkpt>
      <trkpt lat="42.451766" lon="-3.022955">
        <ele>705.4</ele>
        <time>2019-08-22T06:28:53Z</time>
        <sat>9</sat>
      </trkpt>
      <trkpt lat="42.451769" lon="-3.023079">
        <ele>706.1</ele>
        <time>2019-08-22T06:29:00Z</time>
        <sat>9</sat>
      </trkpt>
      <trkpt lat="42.451746" lon="-3.023222">
        <ele>707.0</ele>
        <time>2019-08-22T06:29:07Z</time>
        <sat>9</sat>
      </trkpt>
      <trkpt lat="42.451744" lon="-3.023292">
        <ele>707.6</ele>
        <time>2019-08-22T06:29:11Z</time>
        <sat>9</sat>
      </trkpt>
      <trkpt lat="42.451704" lon="-3.023392">
        <ele>708.2</ele>
        <time>2019-08-22T06:29:16Z</time>
        <sat>9</sat>
      </trkpt>
      <trkpt lat="42.451711" lon="-3.023480">
        <ele>709.0</ele>
        <time>2019-08-22T06:29:21Z</time>
        <sat>9</sat>
      </trkpt>
      <trkpt lat="42.451682" lon="-3.023600">
        <ele>709.8</ele>
        <time>2019-08-22T06:29:28Z</time>
        <sat>9</sat>
      </trkpt>
      <trkpt lat="42.451682" lon="-3.023690">
        <ele>710.5</ele>
        <time>2019-08-22T06:29:33Z</time>
        <sat>9</sat>
      </trkpt>
      <trkpt lat="42.451640" lon="-3.023814">
        <ele>711.4</ele>
        <time>2019-08-22T06:29:39Z</time>
        <sat>9</sat>
      </trkpt>
      <trkpt lat="42.451641" lon="-3.023886">
        <ele>711.9</ele>
        <time>2019-08-22T06:29:43Z</time>
        <sat>9</sat>
      </trkpt>
      <trkpt lat="42.451613" lon="-3.024001">
        <ele>712.9</ele>
        <time>2019-08-22T06:29:49Z</time>
        <sat>9</sat>
      </trkpt>
      <trkpt lat="42.451609" lon="-3.024074">
        <ele>713.6</ele>
        <time>2019-08-22T06:29:55Z</time>
        <sat>9</sat>
      </trkpt>
      <trkpt lat="42.451578" lon="-3.024245">
        <ele>714.9</ele>
        <time>2019-08-22T06:30:08Z</time>
        <sat>9</sat>
      </trkpt>
      <trkpt lat="42.451541" lon="-3.024334">
        <ele>715.5</ele>
        <time>2019-08-22T06:30:13Z</time>
        <sat>9</sat>
      </trkpt>
      <trkpt lat="42.451536" lon="-3.024403">
        <ele>716.0</ele>
        <time>2019-08-22T06:30:17Z</time>
        <sat>9</sat>
      </trkpt>
      <trkpt lat="42.451497" lon="-3.024498">
        <ele>716.6</ele>
        <time>2019-08-22T06:30:22Z</time>
        <sat>9</sat>
      </trkpt>
      <trkpt lat="42.451497" lon="-3.024557">
        <ele>717.0</ele>
        <time>2019-08-22T06:30:25Z</time>
        <sat>9</sat>
      </trkpt>
      <trkpt lat="42.451470" lon="-3.024668">
        <ele>718.1</ele>
        <time>2019-08-22T06:30:34Z</time>
        <sat>9</sat>
      </trkpt>
      <trkpt lat="42.451462" lon="-3.024777">
        <ele>718.9</ele>
        <time>2019-08-22T06:30:40Z</time>
        <sat>9</sat>
      </trkpt>
      <trkpt lat="42.451467" lon="-3.024857">
        <ele>719.4</ele>
        <time>2019-08-22T06:30:48Z</time>
        <sat>9</sat>
      </trkpt>
      <trkpt lat="42.451455" lon="-3.024909">
        <ele>720.1</ele>
        <time>2019-08-22T06:30:55Z</time>
        <sat>7</sat>
      </trkpt>
      <trkpt lat="42.451429" lon="-3.024939">
        <ele>721.8</ele>
        <time>2019-08-22T07:10:23Z</time>
        <sat>8</sat>
      </trkpt>
      <trkpt lat="42.451392" lon="-3.024930">
        <ele>721.9</ele>
        <time>2019-08-22T07:10:32Z</time>
        <sat>8</sat>
      </trkpt>
      <trkpt lat="42.451355" lon="-3.024946">
        <ele>722.3</ele>
        <time>2019-08-22T07:10:44Z</time>
        <sat>8</sat>
      </trkpt>
      <trkpt lat="42.451319" lon="-3.025046">
        <ele>721.5</ele>
        <time>2019-08-22T07:10:55Z</time>
        <sat>7</sat>
      </trkpt>
      <trkpt lat="42.451260" lon="-3.025125">
        <ele>723.3</ele>
        <time>2019-08-22T07:11:03Z</time>
        <sat>7</sat>
      </trkpt>
      <trkpt lat="42.451250" lon="-3.025177">
        <ele>723.7</ele>
        <time>2019-08-22T07:11:07Z</time>
        <sat>6</sat>
      </trkpt>
      <trkpt lat="42.451225" lon="-3.025218">
        <ele>724.5</ele>
        <time>2019-08-22T07:11:13Z</time>
        <sat>7</sat>
      </trkpt>
      <trkpt lat="42.451216" lon="-3.025250">
        <ele>724.3</ele>
        <time>2019-08-22T07:13:06Z</time>
        <sat>8</sat>
      </trkpt>
      <trkpt lat="42.451170" lon="-3.025391">
        <ele>724.3</ele>
        <time>2019-08-22T07:13:20Z</time>
        <sat>7</sat>
      </trkpt>
      <trkpt lat="42.451121" lon="-3.025566">
        <ele>724.5</ele>
        <time>2019-08-22T07:13:35Z</time>
        <sat>7</sat>
      </trkpt>
      <trkpt lat="42.451035" lon="-3.025719">
        <ele>724.9</ele>
        <time>2019-08-22T07:13:49Z</time>
        <sat>8</sat>
      </trkpt>
      <trkpt lat="42.450981" lon="-3.025850">
        <ele>724.8</ele>
        <time>2019-08-22T07:14:02Z</time>
        <sat>8</sat>
      </trkpt>
      <trkpt lat="42.450969" lon="-3.025897">
        <ele>724.7</ele>
        <time>2019-08-22T07:14:07Z</time>
        <sat>7</sat>
      </trkpt>
      <trkpt lat="42.450977" lon="-3.025918">
        <ele>724.7</ele>
        <time>2019-08-22T07:14:12Z</time>
        <sat>7</sat>
      </trkpt>
      <trkpt lat="42.450933" lon="-3.026124">
        <ele>724.3</ele>
        <time>2019-08-22T07:14:28Z</time>
        <sat>7</sat>
      </trkpt>
      <trkpt lat="42.450857" lon="-3.026264">
        <ele>721.7</ele>
        <time>2019-08-22T07:14:41Z</time>
        <sat>7</sat>
      </trkpt>
      <trkpt lat="42.450794" lon="-3.026367">
        <ele>724.1</ele>
        <time>2019-08-22T07:14:49Z</time>
        <sat>7</sat>
      </trkpt>
      <trkpt lat="42.450743" lon="-3.026489">
        <ele>724.9</ele>
        <time>2019-08-22T07:14:59Z</time>
        <sat>7</sat>
      </trkpt>
      <trkpt lat="42.450695" lon="-3.026645">
        <ele>724.7</ele>
        <time>2019-08-22T07:15:13Z</time>
        <sat>8</sat>
      </trkpt>
      <trkpt lat="42.450663" lon="-3.026689">
        <ele>724.1</ele>
        <time>2019-08-22T07:15:29Z</time>
        <sat>8</sat>
      </trkpt>
      <trkpt lat="42.450642" lon="-3.026779">
        <ele>724.1</ele>
        <time>2019-08-22T07:15:34Z</time>
        <sat>8</sat>
      </trkpt>
      <trkpt lat="42.450630" lon="-3.026810">
        <ele>724.1</ele>
        <time>2019-08-22T07:15:36Z</time>
        <sat>8</sat>
      </trkpt>
      <trkpt lat="42.450512" lon="-3.027087">
        <ele>723.6</ele>
        <time>2019-08-22T07:19:43Z</time>
        <sat>7</sat>
      </trkpt>
      <trkpt lat="42.450509" lon="-3.027103">
        <ele>725.1</ele>
        <time>2019-08-22T07:19:48Z</time>
        <sat>8</sat>
      </trkpt>
      <trkpt lat="42.450456" lon="-3.027191">
        <ele>725.5</ele>
        <time>2019-08-22T07:19:58Z</time>
        <sat>8</sat>
      </trkpt>
      <trkpt lat="42.450417" lon="-3.027201">
        <ele>725.9</ele>
        <time>2019-08-22T07:20:11Z</time>
        <sat>5</sat>
      </trkpt>
      <trkpt lat="42.450409" lon="-3.027250">
        <ele>725.8</ele>
        <time>2019-08-22T07:20:16Z</time>
        <sat>7</sat>
      </trkpt>
      <trkpt lat="42.450356" lon="-3.027343">
        <ele>725.2</ele>
        <time>2019-08-22T07:20:25Z</time>
        <sat>7</sat>
      </trkpt>
      <trkpt lat="42.450344" lon="-3.027399">
        <ele>725.3</ele>
        <time>2019-08-22T07:20:30Z</time>
        <sat>7</sat>
      </trkpt>
      <trkpt lat="42.450308" lon="-3.027490">
        <ele>725.1</ele>
        <time>2019-08-22T07:20:38Z</time>
        <sat>7</sat>
      </trkpt>
      <trkpt lat="42.450277" lon="-3.027537">
        <ele>720.9</ele>
        <time>2019-08-22T07:20:43Z</time>
        <sat>7</sat>
      </trkpt>
      <trkpt lat="42.450267" lon="-3.027582">
        <ele>722.2</ele>
        <time>2019-08-22T07:20:45Z</time>
        <sat>6</sat>
      </trkpt>
      <trkpt lat="42.450206" lon="-3.027793">
        <ele>728.0</ele>
        <time>2019-08-22T07:20:59Z</time>
        <sat>7</sat>
      </trkpt>
      <trkpt lat="42.450128" lon="-3.027946">
        <ele>728.4</ele>
        <time>2019-08-22T07:21:11Z</time>
        <sat>8</sat>
      </trkpt>
      <trkpt lat="42.450097" lon="-3.028036">
        <ele>728.5</ele>
        <time>2019-08-22T07:21:18Z</time>
        <sat>8</sat>
      </trkpt>
      <trkpt lat="42.450092" lon="-3.028078">
        <ele>728.8</ele>
        <time>2019-08-22T07:21:21Z</time>
        <sat>8</sat>
      </trkpt>
      <trkpt lat="42.450050" lon="-3.028165">
        <ele>728.9</ele>
        <time>2019-08-22T07:21:27Z</time>
        <sat>8</sat>
      </trkpt>
      <trkpt lat="42.450004" lon="-3.028335">
        <ele>729.6</ele>
        <time>2019-08-22T07:21:37Z</time>
        <sat>8</sat>
      </trkpt>
      <trkpt lat="42.449956" lon="-3.028406">
        <ele>729.9</ele>
        <time>2019-08-22T07:21:43Z</time>
        <sat>7</sat>
      </trkpt>
      <trkpt lat="42.449893" lon="-3.028607">
        <ele>730.7</ele>
        <time>2019-08-22T07:21:57Z</time>
        <sat>7</sat>
      </trkpt>
      <trkpt lat="42.449859" lon="-3.028667">
        <ele>731.0</ele>
        <time>2019-08-22T07:22:02Z</time>
        <sat>7</sat>
      </trkpt>
      <trkpt lat="42.449841" lon="-3.028732">
        <ele>731.2</ele>
        <time>2019-08-22T07:22:07Z</time>
        <sat>7</sat>
      </trkpt>
      <trkpt lat="42.449803" lon="-3.028885">
        <ele>731.9</ele>
        <time>2019-08-22T07:22:17Z</time>
        <sat>8</sat>
      </trkpt>
      <trkpt lat="42.449772" lon="-3.028970">
        <ele>732.3</ele>
        <time>2019-08-22T07:22:22Z</time>
        <sat>8</sat>
      </trkpt>
      <trkpt lat="42.449738" lon="-3.029032">
        <ele>732.5</ele>
        <time>2019-08-22T07:22:26Z</time>
        <sat>8</sat>
      </trkpt>
      <trkpt lat="42.449703" lon="-3.029070">
        <ele>732.7</ele>
        <time>2019-08-22T07:22:29Z</time>
        <sat>8</sat>
      </trkpt>
      <trkpt lat="42.449649" lon="-3.029207">
        <ele>733.2</ele>
        <time>2019-08-22T07:22:38Z</time>
        <sat>8</sat>
      </trkpt>
      <trkpt lat="42.449595" lon="-3.029288">
        <ele>733.4</ele>
        <time>2019-08-22T07:22:44Z</time>
        <sat>8</sat>
      </trkpt>
      <trkpt lat="42.449519" lon="-3.029479">
        <ele>734.2</ele>
        <time>2019-08-22T07:22:57Z</time>
        <sat>8</sat>
      </trkpt>
      <trkpt lat="42.449487" lon="-3.029582">
        <ele>734.4</ele>
        <time>2019-08-22T07:23:04Z</time>
        <sat>8</sat>
      </trkpt>
      <trkpt lat="42.449426" lon="-3.029657">
        <ele>734.7</ele>
        <time>2019-08-22T07:23:10Z</time>
        <sat>8</sat>
      </trkpt>
      <trkpt lat="42.449395" lon="-3.029727">
        <ele>735.0</ele>
        <time>2019-08-22T07:23:15Z</time>
        <sat>8</sat>
      </trkpt>
      <trkpt lat="42.449352" lon="-3.029846">
        <ele>735.4</ele>
        <time>2019-08-22T07:23:23Z</time>
        <sat>8</sat>
      </trkpt>
      <trkpt lat="42.449299" lon="-3.029898">
        <ele>735.8</ele>
        <time>2019-08-22T07:23:28Z</time>
        <sat>8</sat>
      </trkpt>
      <trkpt lat="42.449271" lon="-3.029956">
        <ele>736.0</ele>
        <time>2019-08-22T07:23:32Z</time>
        <sat>8</sat>
      </trkpt>
      <trkpt lat="42.449257" lon="-3.030013">
        <ele>736.2</ele>
        <time>2019-08-22T07:23:36Z</time>
        <sat>7</sat>
      </trkpt>
      <trkpt lat="42.449211" lon="-3.030117">
        <ele>736.1</ele>
        <time>2019-08-22T07:23:44Z</time>
        <sat>7</sat>
      </trkpt>
      <trkpt lat="42.449128" lon="-3.030358">
        <ele>735.1</ele>
        <time>2019-08-22T07:25:35Z</time>
        <sat>7</sat>
      </trkpt>
      <trkpt lat="42.449096" lon="-3.030343">
        <ele>735.0</ele>
        <time>2019-08-22T07:26:13Z</time>
        <sat>8</sat>
      </trkpt>
      <trkpt lat="42.449099" lon="-3.030356">
        <ele>734.8</ele>
        <time>2019-08-22T07:26:57Z</time>
        <sat>8</sat>
      </trkpt>
      <trkpt lat="42.449133" lon="-3.030208">
        <ele>734.8</ele>
        <time>2019-08-22T07:27:13Z</time>
        <sat>8</sat>
      </trkpt>
      <trkpt lat="42.449141" lon="-3.030140">
        <ele>735.2</ele>
        <time>2019-08-22T07:27:19Z</time>
        <sat>8</sat>
      </trkpt>
      <trkpt lat="42.449093" lon="-3.030075">
        <ele>735.3</ele>
        <time>2019-08-22T07:27:25Z</time>
        <sat>8</sat>
      </trkpt>
      <trkpt lat="42.449008" lon="-3.029969">
        <ele>735.4</ele>
        <time>2019-08-22T07:27:35Z</time>
        <sat>8</sat>
      </trkpt>
      <trkpt lat="42.448939" lon="-3.029890">
        <ele>735.5</ele>
        <time>2019-08-22T07:27:43Z</time>
        <sat>8</sat>
      </trkpt>
      <trkpt lat="42.448897" lon="-3.029860">
        <ele>735.6</ele>
        <time>2019-08-22T07:27:47Z</time>
        <sat>8</sat>
      </trkpt>
      <trkpt lat="42.448828" lon="-3.029912">
        <ele>735.7</ele>
        <time>2019-08-22T07:27:54Z</time>
        <sat>8</sat>
      </trkpt>
      <trkpt lat="42.448823" lon="-3.029985">
        <ele>735.7</ele>
        <time>2019-08-22T07:27:59Z</time>
        <sat>7</sat>
      </trkpt>
      <trkpt lat="42.448863" lon="-3.030088">
        <ele>734.9</ele>
        <time>2019-08-22T07:28:19Z</time>
        <sat>8</sat>
      </trkpt>
      <trkpt lat="42.448884" lon="-3.030146">
        <ele>733.7</ele>
        <time>2019-08-22T07:30:49Z</time>
        <sat>8</sat>
      </trkpt>
      <trkpt lat="42.448955" lon="-3.030233">
        <ele>732.7</ele>
        <time>2019-08-22T07:33:05Z</time>
        <sat>8</sat>
      </trkpt>
      <trkpt lat="42.448996" lon="-3.030343">
        <ele>732.3</ele>
        <time>2019-08-22T07:33:13Z</time>
        <sat>8</sat>
      </trkpt>
      <trkpt lat="42.449011" lon="-3.030459">
        <ele>731.3</ele>
        <time>2019-08-22T07:33:21Z</time>
        <sat>8</sat>
      </trkpt>
      <trkpt lat="42.448991" lon="-3.030531">
        <ele>730.6</ele>
        <time>2019-08-22T07:33:26Z</time>
        <sat>8</sat>
      </trkpt>
      <trkpt lat="42.448956" lon="-3.030736">
        <ele>728.8</ele>
        <time>2019-08-22T07:33:39Z</time>
        <sat>8</sat>
      </trkpt>
      <trkpt lat="42.448932" lon="-3.030826">
        <ele>727.8</ele>
        <time>2019-08-22T07:33:45Z</time>
        <sat>8</sat>
      </trkpt>
      <trkpt lat="42.448913" lon="-3.031025">
        <ele>725.8</ele>
        <time>2019-08-22T07:33:57Z</time>
        <sat>8</sat>
      </trkpt>
      <trkpt lat="42.448854" lon="-3.031229">
        <ele>723.7</ele>
        <time>2019-08-22T07:34:12Z</time>
        <sat>7</sat>
      </trkpt>
      <trkpt lat="42.448841" lon="-3.031299">
        <ele>723.0</ele>
        <time>2019-08-22T07:34:16Z</time>
        <sat>8</sat>
      </trkpt>
      <trkpt lat="42.448818" lon="-3.031349">
        <ele>722.2</ele>
        <time>2019-08-22T07:34:20Z</time>
        <sat>7</sat>
      </trkpt>
      <trkpt lat="42.448804" lon="-3.031437">
        <ele>721.4</ele>
        <time>2019-08-22T07:34:25Z</time>
        <sat>7</sat>
      </trkpt>
      <trkpt lat="42.448767" lon="-3.031552">
        <ele>719.9</ele>
        <time>2019-08-22T07:34:33Z</time>
        <sat>7</sat>
      </trkpt>
      <trkpt lat="42.448751" lon="-3.031646">
        <ele>718.9</ele>
        <time>2019-08-22T07:34:39Z</time>
        <sat>7</sat>
      </trkpt>
      <trkpt lat="42.448697" lon="-3.031850">
        <ele>716.5</ele>
        <time>2019-08-22T07:34:52Z</time>
        <sat>7</sat>
      </trkpt>
      <trkpt lat="42.448663" lon="-3.031954">
        <ele>715.2</ele>
        <time>2019-08-22T07:34:59Z</time>
        <sat>7</sat>
      </trkpt>
      <trkpt lat="42.448639" lon="-3.032111">
        <ele>713.7</ele>
        <time>2019-08-22T07:35:08Z</time>
        <sat>7</sat>
      </trkpt>
      <trkpt lat="42.448613" lon="-3.032204">
        <ele>712.7</ele>
        <time>2019-08-22T07:35:14Z</time>
        <sat>6</sat>
      </trkpt>
      <trkpt lat="42.448614" lon="-3.032323">
        <ele>710.9</ele>
        <time>2019-08-22T07:35:25Z</time>
        <sat>7</sat>
      </trkpt>
      <trkpt lat="42.448616" lon="-3.032387">
        <ele>709.4</ele>
        <time>2019-08-22T07:35:50Z</time>
        <sat>7</sat>
      </trkpt>
      <trkpt lat="42.448609" lon="-3.032466">
        <ele>709.0</ele>
        <time>2019-08-22T07:35:57Z</time>
        <sat>7</sat>
      </trkpt>
      <trkpt lat="42.448613" lon="-3.032539">
        <ele>708.6</ele>
        <time>2019-08-22T07:36:02Z</time>
        <sat>7</sat>
      </trkpt>
      <trkpt lat="42.448600" lon="-3.032601">
        <ele>708.2</ele>
        <time>2019-08-22T07:36:06Z</time>
        <sat>7</sat>
      </trkpt>
      <trkpt lat="42.448595" lon="-3.032737">
        <ele>707.0</ele>
        <time>2019-08-22T07:36:14Z</time>
        <sat>7</sat>
      </trkpt>
      <trkpt lat="42.448577" lon="-3.032871">
        <ele>705.7</ele>
        <time>2019-08-22T07:36:22Z</time>
        <sat>6</sat>
      </trkpt>
      <trkpt lat="42.448580" lon="-3.032987">
        <ele>704.7</ele>
        <time>2019-08-22T07:36:29Z</time>
        <sat>7</sat>
      </trkpt>
      <trkpt lat="42.448605" lon="-3.033057">
        <ele>703.9</ele>
        <time>2019-08-22T07:36:34Z</time>
        <sat>7</sat>
      </trkpt>
      <trkpt lat="42.448652" lon="-3.033071">
        <ele>703.5</ele>
        <time>2019-08-22T07:36:38Z</time>
        <sat>7</sat>
      </trkpt>
      <trkpt lat="42.448721" lon="-3.033062">
        <ele>702.9</ele>
        <time>2019-08-22T07:36:43Z</time>
        <sat>7</sat>
      </trkpt>
      <trkpt lat="42.448806" lon="-3.033008">
        <ele>702.4</ele>
        <time>2019-08-22T07:36:50Z</time>
        <sat>7</sat>
      </trkpt>
      <trkpt lat="42.448832" lon="-3.033007">
        <ele>702.3</ele>
        <time>2019-08-22T07:36:52Z</time>
        <sat>7</sat>
      </trkpt>
      <trkpt lat="42.448920" lon="-3.032981">
        <ele>701.8</ele>
        <time>2019-08-22T07:36:59Z</time>
        <sat>7</sat>
      </trkpt>
      <trkpt lat="42.448922" lon="-3.032986">
        <ele>700.4</ele>
        <time>2019-08-22T07:37:19Z</time>
        <sat>7</sat>
      </trkpt>
      <trkpt lat="42.449030" lon="-3.033089">
        <ele>700.0</ele>
        <time>2019-08-22T07:37:36Z</time>
        <sat>7</sat>
      </trkpt>
      <trkpt lat="42.449082" lon="-3.033208">
        <ele>698.9</ele>
        <time>2019-08-22T07:37:48Z</time>
        <sat>7</sat>
      </trkpt>
      <trkpt lat="42.449148" lon="-3.033333">
        <ele>696.8</ele>
        <time>2019-08-22T07:38:22Z</time>
        <sat>6</sat>
      </trkpt>
      <trkpt lat="42.449159" lon="-3.033369">
        <ele>696.8</ele>
        <time>2019-08-22T07:38:25Z</time>
        <sat>7</sat>
      </trkpt>
      <trkpt lat="42.449237" lon="-3.033531">
        <ele>695.9</ele>
        <time>2019-08-22T07:38:38Z</time>
        <sat>7</sat>
      </trkpt>
      <trkpt lat="42.449271" lon="-3.033614">
        <ele>695.3</ele>
        <time>2019-08-22T07:38:44Z</time>
        <sat>7</sat>
      </trkpt>
      <trkpt lat="42.449322" lon="-3.033701">
        <ele>694.7</ele>
        <time>2019-08-22T07:38:51Z</time>
        <sat>7</sat>
      </trkpt>
      <trkpt lat="42.449342" lon="-3.033757">
        <ele>694.3</ele>
        <time>2019-08-22T07:38:55Z</time>
        <sat>7</sat>
      </trkpt>
      <trkpt lat="42.449413" lon="-3.033908">
        <ele>693.3</ele>
        <time>2019-08-22T07:39:06Z</time>
        <sat>7</sat>
      </trkpt>
      <trkpt lat="42.449485" lon="-3.034064">
        <ele>692.3</ele>
        <time>2019-08-22T07:39:17Z</time>
        <sat>7</sat>
      </trkpt>
      <trkpt lat="42.449516" lon="-3.034104">
        <ele>692.1</ele>
        <time>2019-08-22T07:39:20Z</time>
        <sat>8</sat>
      </trkpt>
      <trkpt lat="42.449538" lon="-3.034179">
        <ele>691.7</ele>
        <time>2019-08-22T07:39:25Z</time>
        <sat>7</sat>
      </trkpt>
      <trkpt lat="42.449609" lon="-3.034317">
        <ele>691.0</ele>
        <time>2019-08-22T07:39:35Z</time>
        <sat>7</sat>
      </trkpt>
      <trkpt lat="42.449642" lon="-3.034412">
        <ele>690.6</ele>
        <time>2019-08-22T07:39:41Z</time>
        <sat>8</sat>
      </trkpt>
      <trkpt lat="42.449692" lon="-3.034504">
        <ele>690.1</ele>
        <time>2019-08-22T07:39:47Z</time>
        <sat>8</sat>
      </trkpt>
      <trkpt lat="42.449708" lon="-3.034551">
        <ele>690.0</ele>
        <time>2019-08-22T07:39:50Z</time>
        <sat>7</sat>
      </trkpt>
      <trkpt lat="42.449746" lon="-3.034633">
        <ele>688.8</ele>
        <time>2019-08-22T07:41:04Z</time>
        <sat>8</sat>
      </trkpt>
      <trkpt lat="42.449786" lon="-3.034751">
        <ele>688.8</ele>
        <time>2019-08-22T07:41:13Z</time>
        <sat>7</sat>
      </trkpt>
      <trkpt lat="42.449804" lon="-3.034754">
        <ele>688.9</ele>
        <time>2019-08-22T07:41:20Z</time>
        <sat>7</sat>
      </trkpt>
      <trkpt lat="42.449837" lon="-3.034804">
        <ele>689.0</ele>
        <time>2019-08-22T07:41:24Z</time>
        <sat>6</sat>
      </trkpt>
      <trkpt lat="42.449850" lon="-3.034843">
        <ele>689.0</ele>
        <time>2019-08-22T07:41:31Z</time>
        <sat>7</sat>
      </trkpt>
      <trkpt lat="42.449873" lon="-3.034868">
        <ele>689.0</ele>
        <time>2019-08-22T07:41:33Z</time>
        <sat>6</sat>
      </trkpt>
      <trkpt lat="42.449922" lon="-3.034972">
        <ele>689.0</ele>
        <time>2019-08-22T07:41:41Z</time>
        <sat>6</sat>
      </trkpt>
      <trkpt lat="42.450006" lon="-3.035133">
        <ele>689.1</ele>
        <time>2019-08-22T07:41:53Z</time>
        <sat>8</sat>
      </trkpt>
      <trkpt lat="42.450053" lon="-3.035239">
        <ele>689.2</ele>
        <time>2019-08-22T07:42:01Z</time>
        <sat>8</sat>
      </trkpt>
      <trkpt lat="42.450067" lon="-3.035285">
        <ele>689.2</ele>
        <time>2019-08-22T07:42:04Z</time>
        <sat>8</sat>
      </trkpt>
      <trkpt lat="42.450120" lon="-3.035387">
        <ele>689.3</ele>
        <time>2019-08-22T07:42:11Z</time>
        <sat>8</sat>
      </trkpt>
      <trkpt lat="42.450150" lon="-3.035468">
        <ele>689.3</ele>
        <time>2019-08-22T07:42:16Z</time>
        <sat>8</sat>
      </trkpt>
      <trkpt lat="42.450195" lon="-3.035555">
        <ele>689.5</ele>
        <time>2019-08-22T07:42:22Z</time>
        <sat>8</sat>
      </trkpt>
      <trkpt lat="42.450272" lon="-3.035742">
        <ele>689.7</ele>
        <time>2019-08-22T07:42:35Z</time>
        <sat>8</sat>
      </trkpt>
      <trkpt lat="42.450304" lon="-3.035788">
        <ele>689.9</ele>
        <time>2019-08-22T07:42:39Z</time>
        <sat>8</sat>
      </trkpt>
      <trkpt lat="42.450327" lon="-3.035852">
        <ele>690.0</ele>
        <time>2019-08-22T07:42:43Z</time>
        <sat>8</sat>
      </trkpt>
      <trkpt lat="42.450381" lon="-3.035948">
        <ele>690.3</ele>
        <time>2019-08-22T07:42:50Z</time>
        <sat>8</sat>
      </trkpt>
      <trkpt lat="42.450436" lon="-3.036080">
        <ele>690.5</ele>
        <time>2019-08-22T07:42:59Z</time>
        <sat>8</sat>
      </trkpt>
      <trkpt lat="42.450525" lon="-3.036274">
        <ele>691.1</ele>
        <time>2019-08-22T07:43:13Z</time>
        <sat>7</sat>
      </trkpt>
      <trkpt lat="42.450558" lon="-3.036329">
        <ele>691.2</ele>
        <time>2019-08-22T07:43:17Z</time>
        <sat>8</sat>
      </trkpt>
      <trkpt lat="42.450637" lon="-3.036500">
        <ele>691.8</ele>
        <time>2019-08-22T07:43:29Z</time>
        <sat>8</sat>
      </trkpt>
      <trkpt lat="42.450667" lon="-3.036579">
        <ele>692.1</ele>
        <time>2019-08-22T07:43:34Z</time>
        <sat>8</sat>
      </trkpt>
      <trkpt lat="42.450700" lon="-3.036633">
        <ele>692.5</ele>
        <time>2019-08-22T07:43:38Z</time>
        <sat>8</sat>
      </trkpt>
      <trkpt lat="42.450760" lon="-3.036784">
        <ele>693.4</ele>
        <time>2019-08-22T07:43:49Z</time>
        <sat>8</sat>
      </trkpt>
      <trkpt lat="42.450812" lon="-3.036888">
        <ele>694.1</ele>
        <time>2019-08-22T07:43:57Z</time>
        <sat>8</sat>
      </trkpt>
      <trkpt lat="42.450836" lon="-3.036962">
        <ele>694.5</ele>
        <time>2019-08-22T07:44:02Z</time>
        <sat>8</sat>
      </trkpt>
      <trkpt lat="42.450844" lon="-3.037028">
        <ele>694.7</ele>
        <time>2019-08-22T07:44:06Z</time>
        <sat>8</sat>
      </trkpt>
      <trkpt lat="42.450839" lon="-3.037101">
        <ele>695.2</ele>
        <time>2019-08-22T07:44:12Z</time>
        <sat>8</sat>
      </trkpt>
      <trkpt lat="42.450759" lon="-3.037192">
        <ele>695.6</ele>
        <time>2019-08-22T07:44:23Z</time>
        <sat>8</sat>
      </trkpt>
      <trkpt lat="42.450632" lon="-3.037296">
        <ele>695.7</ele>
        <time>2019-08-22T07:44:35Z</time>
        <sat>8</sat>
      </trkpt>
      <trkpt lat="42.450504" lon="-3.037428">
        <ele>695.8</ele>
        <time>2019-08-22T07:44:48Z</time>
        <sat>8</sat>
      </trkpt>
      <trkpt lat="42.450461" lon="-3.037463">
        <ele>695.9</ele>
        <time>2019-08-22T07:44:52Z</time>
        <sat>8</sat>
      </trkpt>
      <trkpt lat="42.450424" lon="-3.037507">
        <ele>696.0</ele>
        <time>2019-08-22T07:44:56Z</time>
        <sat>8</sat>
      </trkpt>
      <trkpt lat="42.450336" lon="-3.037590">
        <ele>696.0</ele>
        <time>2019-08-22T07:45:05Z</time>
        <sat>8</sat>
      </trkpt>
      <trkpt lat="42.450290" lon="-3.037625">
        <ele>696.0</ele>
        <time>2019-08-22T07:45:09Z</time>
        <sat>8</sat>
      </trkpt>
      <trkpt lat="42.450229" lon="-3.037690">
        <ele>696.2</ele>
        <time>2019-08-22T07:45:15Z</time>
        <sat>8</sat>
      </trkpt>
      <trkpt lat="42.450205" lon="-3.037705">
        <ele>696.2</ele>
        <time>2019-08-22T07:45:17Z</time>
        <sat>8</sat>
      </trkpt>
      <trkpt lat="42.450081" lon="-3.037839">
        <ele>696.4</ele>
        <time>2019-08-22T07:45:30Z</time>
        <sat>8</sat>
      </trkpt>
      <trkpt lat="42.450024" lon="-3.037889">
        <ele>696.6</ele>
        <time>2019-08-22T07:45:35Z</time>
        <sat>8</sat>
      </trkpt>
      <trkpt lat="42.449989" lon="-3.037935">
        <ele>696.7</ele>
        <time>2019-08-22T07:45:39Z</time>
        <sat>8</sat>
      </trkpt>
      <trkpt lat="42.449881" lon="-3.038038">
        <ele>697.0</ele>
        <time>2019-08-22T07:45:50Z</time>
        <sat>8</sat>
      </trkpt>
      <trkpt lat="42.449777" lon="-3.038145">
        <ele>697.5</ele>
        <time>2019-08-22T07:46:01Z</time>
        <sat>8</sat>
      </trkpt>
      <trkpt lat="42.449728" lon="-3.038184">
        <ele>697.7</ele>
        <time>2019-08-22T07:46:05Z</time>
        <sat>8</sat>
      </trkpt>
      <trkpt lat="42.449617" lon="-3.038305">
        <ele>698.3</ele>
        <time>2019-08-22T07:46:17Z</time>
        <sat>8</sat>
      </trkpt>
      <trkpt lat="42.449519" lon="-3.038408">
        <ele>698.7</ele>
        <time>2019-08-22T07:46:28Z</time>
        <sat>8</sat>
      </trkpt>
      <trkpt lat="42.449484" lon="-3.038385">
        <ele>698.9</ele>
        <time>2019-08-22T07:46:39Z</time>
        <sat>8</sat>
      </trkpt>
      <trkpt lat="42.449492" lon="-3.038393">
        <ele>698.8</ele>
        <time>2019-08-22T07:47:09Z</time>
        <sat>7</sat>
      </trkpt>
      <trkpt lat="42.449511" lon="-3.038393">
        <ele>698.5</ele>
        <time>2019-08-22T07:47:29Z</time>
        <sat>8</sat>
      </trkpt>
      <trkpt lat="42.449511" lon="-3.038374">
        <ele>698.4</ele>
        <time>2019-08-22T07:48:19Z</time>
        <sat>7</sat>
      </trkpt>
      <trkpt lat="42.449486" lon="-3.038392">
        <ele>698.4</ele>
        <time>2019-08-22T07:48:23Z</time>
        <sat>7</sat>
      </trkpt>
      <trkpt lat="42.449475" lon="-3.038404">
        <ele>698.4</ele>
        <time>2019-08-22T07:48:31Z</time>
        <sat>7</sat>
      </trkpt>
      <trkpt lat="42.449455" lon="-3.038433">
        <ele>698.4</ele>
        <time>2019-08-22T07:48:39Z</time>
        <sat>7</sat>
      </trkpt>
      <trkpt lat="42.449439" lon="-3.038484">
        <ele>698.1</ele>
        <time>2019-08-22T07:49:36Z</time>
        <sat>6</sat>
      </trkpt>
      <trkpt lat="42.449448" lon="-3.038445">
        <ele>698.1</ele>
        <time>2019-08-22T07:49:44Z</time>
        <sat>7</sat>
      </trkpt>
      <trkpt lat="42.449485" lon="-3.038399">
        <ele>698.0</ele>
        <time>2019-08-22T07:49:55Z</time>
        <sat>7</sat>
      </trkpt>
      <trkpt lat="42.449455" lon="-3.038410">
        <ele>697.8</ele>
        <time>2019-08-22T07:50:05Z</time>
        <sat>7</sat>
      </trkpt>
      <trkpt lat="42.449473" lon="-3.038397">
        <ele>697.4</ele>
        <time>2019-08-22T07:50:24Z</time>
        <sat>7</sat>
      </trkpt>
      <trkpt lat="42.449500" lon="-3.038397">
        <ele>697.5</ele>
        <time>2019-08-22T07:50:33Z</time>
        <sat>7</sat>
      </trkpt>
      <trkpt lat="42.449507" lon="-3.038377">
        <ele>697.6</ele>
        <time>2019-08-22T07:50:50Z</time>
        <sat>8</sat>
      </trkpt>
      <trkpt lat="42.449491" lon="-3.038340">
        <ele>697.6</ele>
        <time>2019-08-22T07:50:55Z</time>
        <sat>8</sat>
      </trkpt>
      <trkpt lat="42.449509" lon="-3.038360">
        <ele>697.5</ele>
        <time>2019-08-22T07:51:19Z</time>
        <sat>8</sat>
      </trkpt>
      <trkpt lat="42.449507" lon="-3.038384">
        <ele>697.5</ele>
        <time>2019-08-22T07:51:59Z</time>
        <sat>8</sat>
      </trkpt>
      <trkpt lat="42.449491" lon="-3.038392">
        <ele>697.4</ele>
        <time>2019-08-22T07:52:19Z</time>
        <sat>8</sat>
      </trkpt>
      <trkpt lat="42.449472" lon="-3.038389">
        <ele>697.8</ele>
        <time>2019-08-22T07:52:55Z</time>
        <sat>8</sat>
      </trkpt>
      <trkpt lat="42.449474" lon="-3.038383">
        <ele>697.5</ele>
        <time>2019-08-22T07:53:25Z</time>
        <sat>8</sat>
      </trkpt>
      <trkpt lat="42.449474" lon="-3.038388">
        <ele>697.7</ele>
        <time>2019-08-22T07:54:04Z</time>
        <sat>8</sat>
      </trkpt>
      <trkpt lat="42.449493" lon="-3.038412">
        <ele>697.8</ele>
        <time>2019-08-22T07:54:35Z</time>
        <sat>7</sat>
      </trkpt>
      <trkpt lat="42.449481" lon="-3.038404">
        <ele>697.7</ele>
        <time>2019-08-22T07:54:46Z</time>
        <sat>8</sat>
      </trkpt>
      <trkpt lat="42.449510" lon="-3.038419">
        <ele>697.9</ele>
        <time>2019-08-22T07:55:03Z</time>
        <sat>8</sat>
      </trkpt>
      <trkpt lat="42.449505" lon="-3.038413">
        <ele>698.1</ele>
        <time>2019-08-22T07:55:15Z</time>
        <sat>8</sat>
      </trkpt>
      <trkpt lat="42.449505" lon="-3.038457">
        <ele>697.5</ele>
        <time>2019-08-22T07:55:25Z</time>
        <sat>8</sat>
      </trkpt>
      <trkpt lat="42.449401" lon="-3.038546">
        <ele>699.0</ele>
        <time>2019-08-22T07:55:37Z</time>
        <sat>8</sat>
      </trkpt>
      <trkpt lat="42.449285" lon="-3.038662">
        <ele>699.3</ele>
        <time>2019-08-22T07:55:51Z</time>
        <sat>8</sat>
      </trkpt>
      <trkpt lat="42.449223" lon="-3.038733">
        <ele>699.7</ele>
        <time>2019-08-22T07:55:59Z</time>
        <sat>8</sat>
      </trkpt>
      <trkpt lat="42.449149" lon="-3.038785">
        <ele>700.1</ele>
        <time>2019-08-22T07:56:06Z</time>
        <sat>8</sat>
      </trkpt>
      <trkpt lat="42.449041" lon="-3.038888">
        <ele>701.2</ele>
        <time>2019-08-22T07:56:18Z</time>
        <sat>8</sat>
      </trkpt>
      <trkpt lat="42.448994" lon="-3.038929">
        <ele>701.5</ele>
        <time>2019-08-22T07:56:23Z</time>
        <sat>8</sat>
      </trkpt>
      <trkpt lat="42.448897" lon="-3.039020">
        <ele>702.5</ele>
        <time>2019-08-22T07:56:34Z</time>
        <sat>8</sat>
      </trkpt>
      <trkpt lat="42.448793" lon="-3.039143">
        <ele>703.4</ele>
        <time>2019-08-22T07:56:47Z</time>
        <sat>8</sat>
      </trkpt>
      <trkpt lat="42.448714" lon="-3.039258">
        <ele>704.1</ele>
        <time>2019-08-22T07:56:57Z</time>
        <sat>8</sat>
      </trkpt>
      <trkpt lat="42.448673" lon="-3.039344">
        <ele>704.7</ele>
        <time>2019-08-22T07:57:04Z</time>
        <sat>7</sat>
      </trkpt>
      <trkpt lat="42.448660" lon="-3.039431">
        <ele>705.2</ele>
        <time>2019-08-22T07:57:11Z</time>
        <sat>8</sat>
      </trkpt>
      <trkpt lat="42.448616" lon="-3.039614">
        <ele>706.6</ele>
        <time>2019-08-22T07:57:35Z</time>
        <sat>8</sat>
      </trkpt>
      <trkpt lat="42.448612" lon="-3.039669">
        <ele>706.8</ele>
        <time>2019-08-22T07:57:40Z</time>
        <sat>7</sat>
      </trkpt>
      <trkpt lat="42.448595" lon="-3.039740">
        <ele>707.1</ele>
        <time>2019-08-22T07:57:45Z</time>
        <sat>8</sat>
      </trkpt>
      <trkpt lat="42.448547" lon="-3.039874">
        <ele>707.8</ele>
        <time>2019-08-22T07:57:54Z</time>
        <sat>8</sat>
      </trkpt>
      <trkpt lat="42.448471" lon="-3.040044">
        <ele>708.9</ele>
        <time>2019-08-22T07:58:06Z</time>
        <sat>8</sat>
      </trkpt>
      <trkpt lat="42.448418" lon="-3.040135">
        <ele>709.4</ele>
        <time>2019-08-22T07:58:13Z</time>
        <sat>8</sat>
      </trkpt>
      <trkpt lat="42.448401" lon="-3.040190">
        <ele>709.8</ele>
        <time>2019-08-22T07:58:17Z</time>
        <sat>7</sat>
      </trkpt>
      <trkpt lat="42.448354" lon="-3.040283">
        <ele>710.4</ele>
        <time>2019-08-22T07:58:24Z</time>
        <sat>8</sat>
      </trkpt>
      <trkpt lat="42.448288" lon="-3.040430">
        <ele>711.3</ele>
        <time>2019-08-22T07:58:36Z</time>
        <sat>8</sat>
      </trkpt>
      <trkpt lat="42.448187" lon="-3.040624">
        <ele>712.6</ele>
        <time>2019-08-22T07:58:52Z</time>
        <sat>8</sat>
      </trkpt>
      <trkpt lat="42.448089" lon="-3.040800">
        <ele>713.7</ele>
        <time>2019-08-22T07:59:06Z</time>
        <sat>8</sat>
      </trkpt>
      <trkpt lat="42.448073" lon="-3.040840">
        <ele>714.0</ele>
        <time>2019-08-22T07:59:09Z</time>
        <sat>8</sat>
      </trkpt>
      <trkpt lat="42.447992" lon="-3.040993">
        <ele>714.7</ele>
        <time>2019-08-22T07:59:22Z</time>
        <sat>8</sat>
      </trkpt>
      <trkpt lat="42.447960" lon="-3.041041">
        <ele>714.9</ele>
        <time>2019-08-22T07:59:26Z</time>
        <sat>8</sat>
      </trkpt>
      <trkpt lat="42.447873" lon="-3.041194">
        <ele>715.9</ele>
        <time>2019-08-22T07:59:38Z</time>
        <sat>8</sat>
      </trkpt>
      <trkpt lat="42.447787" lon="-3.041333">
        <ele>716.7</ele>
        <time>2019-08-22T07:59:49Z</time>
        <sat>8</sat>
      </trkpt>
      <trkpt lat="42.447763" lon="-3.041386">
        <ele>717.0</ele>
        <time>2019-08-22T07:59:53Z</time>
        <sat>8</sat>
      </trkpt>
      <trkpt lat="42.447686" lon="-3.041523">
        <ele>717.6</ele>
        <time>2019-08-22T08:00:04Z</time>
        <sat>8</sat>
      </trkpt>
      <trkpt lat="42.447655" lon="-3.041591">
        <ele>718.0</ele>
        <time>2019-08-22T08:00:09Z</time>
        <sat>8</sat>
      </trkpt>
      <trkpt lat="42.447626" lon="-3.041630">
        <ele>718.3</ele>
        <time>2019-08-22T08:00:13Z</time>
        <sat>8</sat>
      </trkpt>
      <trkpt lat="42.447528" lon="-3.041818">
        <ele>719.4</ele>
        <time>2019-08-22T08:00:33Z</time>
        <sat>8</sat>
      </trkpt>
      <trkpt lat="42.447518" lon="-3.041841">
        <ele>719.5</ele>
        <time>2019-08-22T08:00:35Z</time>
        <sat>8</sat>
      </trkpt>
      <trkpt lat="42.447455" lon="-3.041926">
        <ele>720.0</ele>
        <time>2019-08-22T08:00:43Z</time>
        <sat>8</sat>
      </trkpt>
      <trkpt lat="42.447437" lon="-3.041966">
        <ele>720.2</ele>
        <time>2019-08-22T08:00:46Z</time>
        <sat>8</sat>
      </trkpt>
      <trkpt lat="42.447370" lon="-3.042079">
        <ele>721.0</ele>
        <time>2019-08-22T08:00:56Z</time>
        <sat>8</sat>
      </trkpt>
      <trkpt lat="42.447306" lon="-3.042177">
        <ele>721.6</ele>
        <time>2019-08-22T08:01:04Z</time>
        <sat>7</sat>
      </trkpt>
      <trkpt lat="42.447218" lon="-3.042326">
        <ele>722.4</ele>
        <time>2019-08-22T08:01:16Z</time>
        <sat>8</sat>
      </trkpt>
      <trkpt lat="42.447128" lon="-3.042495">
        <ele>723.4</ele>
        <time>2019-08-22T08:01:30Z</time>
        <sat>8</sat>
      </trkpt>
      <trkpt lat="42.447048" lon="-3.042644">
        <ele>724.5</ele>
        <time>2019-08-22T08:01:43Z</time>
        <sat>8</sat>
      </trkpt>
      <trkpt lat="42.447018" lon="-3.042728">
        <ele>725.1</ele>
        <time>2019-08-22T08:01:50Z</time>
        <sat>8</sat>
      </trkpt>
      <trkpt lat="42.446952" lon="-3.042866">
        <ele>725.9</ele>
        <time>2019-08-22T08:02:03Z</time>
        <sat>8</sat>
      </trkpt>
      <trkpt lat="42.446919" lon="-3.042898">
        <ele>726.1</ele>
        <time>2019-08-22T08:02:06Z</time>
        <sat>8</sat>
      </trkpt>
      <trkpt lat="42.446873" lon="-3.042967">
        <ele>726.6</ele>
        <time>2019-08-22T08:02:13Z</time>
        <sat>8</sat>
      </trkpt>
      <trkpt lat="42.446781" lon="-3.043118">
        <ele>727.6</ele>
        <time>2019-08-22T08:02:26Z</time>
        <sat>8</sat>
      </trkpt>
      <trkpt lat="42.446664" lon="-3.043292">
        <ele>728.7</ele>
        <time>2019-08-22T08:02:41Z</time>
        <sat>8</sat>
      </trkpt>
      <trkpt lat="42.446641" lon="-3.043330">
        <ele>728.8</ele>
        <time>2019-08-22T08:02:44Z</time>
        <sat>8</sat>
      </trkpt>
      <trkpt lat="42.446576" lon="-3.043403">
        <ele>729.4</ele>
        <time>2019-08-22T08:02:52Z</time>
        <sat>7</sat>
      </trkpt>
      <trkpt lat="42.446570" lon="-3.043419">
        <ele>729.5</ele>
        <time>2019-08-22T08:02:53Z</time>
        <sat>8</sat>
      </trkpt>
      <trkpt lat="42.446518" lon="-3.043508">
        <ele>730.0</ele>
        <time>2019-08-22T08:03:00Z</time>
        <sat>8</sat>
      </trkpt>
      <trkpt lat="42.446451" lon="-3.043603">
        <ele>730.7</ele>
        <time>2019-08-22T08:03:09Z</time>
        <sat>8</sat>
      </trkpt>
      <trkpt lat="42.446419" lon="-3.043674">
        <ele>731.1</ele>
        <time>2019-08-22T08:03:14Z</time>
        <sat>8</sat>
      </trkpt>
      <trkpt lat="42.446339" lon="-3.043770">
        <ele>731.7</ele>
        <time>2019-08-22T08:03:23Z</time>
        <sat>8</sat>
      </trkpt>
      <trkpt lat="42.446320" lon="-3.043809">
        <ele>731.9</ele>
        <time>2019-08-22T08:03:26Z</time>
        <sat>7</sat>
      </trkpt>
      <trkpt lat="42.446208" lon="-3.043962">
        <ele>732.5</ele>
        <time>2019-08-22T08:03:39Z</time>
        <sat>8</sat>
      </trkpt>
      <trkpt lat="42.446173" lon="-3.044007">
        <ele>732.8</ele>
        <time>2019-08-22T08:03:43Z</time>
        <sat>8</sat>
      </trkpt>
      <trkpt lat="42.446146" lon="-3.044058">
        <ele>733.1</ele>
        <time>2019-08-22T08:03:47Z</time>
        <sat>7</sat>
      </trkpt>
      <trkpt lat="42.446073" lon="-3.044153">
        <ele>733.5</ele>
        <time>2019-08-22T08:03:55Z</time>
        <sat>8</sat>
      </trkpt>
      <trkpt lat="42.446019" lon="-3.044245">
        <ele>734.0</ele>
        <time>2019-08-22T08:04:03Z</time>
        <sat>8</sat>
      </trkpt>
      <trkpt lat="42.445935" lon="-3.044377">
        <ele>734.5</ele>
        <time>2019-08-22T08:04:14Z</time>
        <sat>8</sat>
      </trkpt>
      <trkpt lat="42.445894" lon="-3.044454">
        <ele>734.7</ele>
        <time>2019-08-22T08:04:20Z</time>
        <sat>8</sat>
      </trkpt>
      <trkpt lat="42.445830" lon="-3.044531">
        <ele>734.9</ele>
        <time>2019-08-22T08:04:27Z</time>
        <sat>7</sat>
      </trkpt>
      <trkpt lat="42.445718" lon="-3.044683">
        <ele>735.3</ele>
        <time>2019-08-22T08:04:42Z</time>
        <sat>7</sat>
      </trkpt>
      <trkpt lat="42.445673" lon="-3.044750">
        <ele>735.5</ele>
        <time>2019-08-22T08:04:49Z</time>
        <sat>8</sat>
      </trkpt>
      <trkpt lat="42.445659" lon="-3.044790">
        <ele>735.7</ele>
        <time>2019-08-22T08:04:52Z</time>
        <sat>7</sat>
      </trkpt>
      <trkpt lat="42.445607" lon="-3.044863">
        <ele>735.9</ele>
        <time>2019-08-22T08:04:59Z</time>
        <sat>8</sat>
      </trkpt>
      <trkpt lat="42.445586" lon="-3.044883">
        <ele>735.9</ele>
        <time>2019-08-22T08:05:01Z</time>
        <sat>8</sat>
      </trkpt>
      <trkpt lat="42.445545" lon="-3.044942">
        <ele>736.1</ele>
        <time>2019-08-22T08:05:06Z</time>
        <sat>8</sat>
      </trkpt>
      <trkpt lat="42.445475" lon="-3.045058">
        <ele>736.4</ele>
        <time>2019-08-22T08:05:16Z</time>
        <sat>8</sat>
      </trkpt>
      <trkpt lat="42.445435" lon="-3.045103">
        <ele>736.6</ele>
        <time>2019-08-22T08:05:20Z</time>
        <sat>8</sat>
      </trkpt>
      <trkpt lat="42.445406" lon="-3.045148">
        <ele>736.8</ele>
        <time>2019-08-22T08:05:24Z</time>
        <sat>8</sat>
      </trkpt>
      <trkpt lat="42.445301" lon="-3.045290">
        <ele>737.4</ele>
        <time>2019-08-22T08:05:37Z</time>
        <sat>8</sat>
      </trkpt>
      <trkpt lat="42.445198" lon="-3.045431">
        <ele>737.9</ele>
        <time>2019-08-22T08:05:50Z</time>
        <sat>8</sat>
      </trkpt>
      <trkpt lat="42.445158" lon="-3.045494">
        <ele>738.2</ele>
        <time>2019-08-22T08:05:55Z</time>
        <sat>8</sat>
      </trkpt>
      <trkpt lat="42.445103" lon="-3.045593">
        <ele>738.6</ele>
        <time>2019-08-22T08:06:03Z</time>
        <sat>7</sat>
      </trkpt>
      <trkpt lat="42.445073" lon="-3.045675">
        <ele>739.0</ele>
        <time>2019-08-22T08:06:09Z</time>
        <sat>7</sat>
      </trkpt>
      <trkpt lat="42.445062" lon="-3.045723">
        <ele>739.2</ele>
        <time>2019-08-22T08:06:12Z</time>
        <sat>8</sat>
      </trkpt>
      <trkpt lat="42.445030" lon="-3.045803">
        <ele>740.1</ele>
        <time>2019-08-22T08:06:27Z</time>
        <sat>6</sat>
      </trkpt>
      <trkpt lat="42.445007" lon="-3.045779">
        <ele>740.2</ele>
        <time>2019-08-22T08:06:36Z</time>
        <sat>8</sat>
      </trkpt>
      <trkpt lat="42.444991" lon="-3.045812">
        <ele>739.8</ele>
        <time>2019-08-22T08:06:41Z</time>
        <sat>8</sat>
      </trkpt>
      <trkpt lat="42.444997" lon="-3.045794">
        <ele>739.4</ele>
        <time>2019-08-22T08:06:49Z</time>
        <sat>8</sat>
      </trkpt>
      <trkpt lat="42.445050" lon="-3.045849">
        <ele>739.7</ele>
        <time>2019-08-22T08:06:56Z</time>
        <sat>8</sat>
      </trkpt>
      <trkpt lat="42.445067" lon="-3.045885">
        <ele>739.9</ele>
        <time>2019-08-22T08:06:59Z</time>
        <sat>8</sat>
      </trkpt>
      <trkpt lat="42.445051" lon="-3.045909">
        <ele>740.9</ele>
        <time>2019-08-22T08:07:13Z</time>
        <sat>8</sat>
      </trkpt>
      <trkpt lat="42.445040" lon="-3.045916">
        <ele>740.4</ele>
        <time>2019-08-22T08:07:45Z</time>
        <sat>7</sat>
      </trkpt>
      <trkpt lat="42.445038" lon="-3.045927">
        <ele>740.2</ele>
        <time>2019-08-22T08:08:19Z</time>
        <sat>7</sat>
      </trkpt>
      <trkpt lat="42.445040" lon="-3.045926">
        <ele>740.1</ele>
        <time>2019-08-22T08:08:56Z</time>
        <sat>7</sat>
      </trkpt>
      <trkpt lat="42.445064" lon="-3.045928">
        <ele>740.1</ele>
        <time>2019-08-22T08:09:04Z</time>
        <sat>8</sat>
      </trkpt>
      <trkpt lat="42.445048" lon="-3.045941">
        <ele>740.0</ele>
        <time>2019-08-22T08:09:54Z</time>
        <sat>8</sat>
      </trkpt>
      <trkpt lat="42.445058" lon="-3.045988">
        <ele>739.8</ele>
        <time>2019-08-22T08:10:00Z</time>
        <sat>8</sat>
      </trkpt>
      <trkpt lat="42.445065" lon="-3.045967">
        <ele>739.8</ele>
        <time>2019-08-22T08:10:16Z</time>
        <sat>8</sat>
      </trkpt>
      <trkpt lat="42.445057" lon="-3.046011">
        <ele>739.8</ele>
        <time>2019-08-22T08:10:26Z</time>
        <sat>6</sat>
      </trkpt>
      <trkpt lat="42.445070" lon="-3.046002">
        <ele>739.5</ele>
        <time>2019-08-22T08:10:53Z</time>
        <sat>8</sat>
      </trkpt>
      <trkpt lat="42.445061" lon="-3.045983">
        <ele>739.7</ele>
        <time>2019-08-22T08:10:57Z</time>
        <sat>8</sat>
      </trkpt>
      <trkpt lat="42.445035" lon="-3.045983">
        <ele>739.9</ele>
        <time>2019-08-22T08:11:21Z</time>
        <sat>8</sat>
      </trkpt>
      <trkpt lat="42.445046" lon="-3.046004">
        <ele>739.9</ele>
        <time>2019-08-22T08:11:24Z</time>
        <sat>8</sat>
      </trkpt>
      <trkpt lat="42.445064" lon="-3.046014">
        <ele>739.5</ele>
        <time>2019-08-22T08:12:03Z</time>
        <sat>8</sat>
      </trkpt>
      <trkpt lat="42.445048" lon="-3.046036">
        <ele>739.2</ele>
        <time>2019-08-22T08:12:27Z</time>
        <sat>8</sat>
      </trkpt>
      <trkpt lat="42.445039" lon="-3.046076">
        <ele>739.1</ele>
        <time>2019-08-22T08:12:31Z</time>
        <sat>8</sat>
      </trkpt>
      <trkpt lat="42.445010" lon="-3.046136">
        <ele>738.9</ele>
        <time>2019-08-22T08:12:35Z</time>
        <sat>7</sat>
      </trkpt>
      <trkpt lat="42.444969" lon="-3.046264">
        <ele>738.6</ele>
        <time>2019-08-22T08:12:45Z</time>
        <sat>7</sat>
      </trkpt>
      <trkpt lat="42.444957" lon="-3.046326">
        <ele>738.4</ele>
        <time>2019-08-22T08:12:49Z</time>
        <sat>7</sat>
      </trkpt>
      <trkpt lat="42.444905" lon="-3.046528">
        <ele>736.4</ele>
        <time>2019-08-22T08:13:03Z</time>
        <sat>7</sat>
      </trkpt>
      <trkpt lat="42.444885" lon="-3.046574">
        <ele>736.0</ele>
        <time>2019-08-22T08:13:06Z</time>
        <sat>7</sat>
      </trkpt>
      <trkpt lat="42.444836" lon="-3.046766">
        <ele>733.9</ele>
        <time>2019-08-22T08:13:18Z</time>
        <sat>8</sat>
      </trkpt>
      <trkpt lat="42.444808" lon="-3.046882">
        <ele>733.1</ele>
        <time>2019-08-22T08:13:25Z</time>
        <sat>7</sat>
      </trkpt>
      <trkpt lat="42.444763" lon="-3.047043">
        <ele>732.4</ele>
        <time>2019-08-22T08:13:36Z</time>
        <sat>7</sat>
      </trkpt>
      <trkpt lat="42.444746" lon="-3.047091">
        <ele>730.9</ele>
        <time>2019-08-22T08:13:39Z</time>
        <sat>7</sat>
      </trkpt>
      <trkpt lat="42.444706" lon="-3.047274">
        <ele>731.8</ele>
        <time>2019-08-22T08:13:50Z</time>
        <sat>7</sat>
      </trkpt>
      <trkpt lat="42.444669" lon="-3.047370">
        <ele>731.4</ele>
        <time>2019-08-22T08:13:56Z</time>
        <sat>6</sat>
      </trkpt>
      <trkpt lat="42.444655" lon="-3.047439">
        <ele>731.1</ele>
        <time>2019-08-22T08:14:00Z</time>
        <sat>7</sat>
      </trkpt>
      <trkpt lat="42.444622" lon="-3.047533">
        <ele>730.8</ele>
        <time>2019-08-22T08:14:06Z</time>
        <sat>8</sat>
      </trkpt>
      <trkpt lat="42.444602" lon="-3.047655">
        <ele>730.5</ele>
        <time>2019-08-22T08:14:13Z</time>
        <sat>7</sat>
      </trkpt>
      <trkpt lat="42.444546" lon="-3.047863">
        <ele>730.4</ele>
        <time>2019-08-22T08:14:25Z</time>
        <sat>7</sat>
      </trkpt>
      <trkpt lat="42.444490" lon="-3.048031">
        <ele>730.4</ele>
        <time>2019-08-22T08:14:35Z</time>
        <sat>7</sat>
      </trkpt>
      <trkpt lat="42.444462" lon="-3.048167">
        <ele>730.6</ele>
        <time>2019-08-22T08:14:43Z</time>
        <sat>7</sat>
      </trkpt>
      <trkpt lat="42.444408" lon="-3.048370">
        <ele>730.8</ele>
        <time>2019-08-22T08:14:55Z</time>
        <sat>7</sat>
      </trkpt>
      <trkpt lat="42.444341" lon="-3.048571">
        <ele>731.2</ele>
        <time>2019-08-22T08:15:07Z</time>
        <sat>7</sat>
      </trkpt>
      <trkpt lat="42.444319" lon="-3.048666">
        <ele>731.5</ele>
        <time>2019-08-22T08:15:13Z</time>
        <sat>8</sat>
      </trkpt>
      <trkpt lat="42.444296" lon="-3.048720">
        <ele>731.7</ele>
        <time>2019-08-22T08:15:16Z</time>
        <sat>7</sat>
      </trkpt>
      <trkpt lat="42.444286" lon="-3.048803">
        <ele>731.8</ele>
        <time>2019-08-22T08:15:21Z</time>
        <sat>7</sat>
      </trkpt>
      <trkpt lat="42.444262" lon="-3.048897">
        <ele>732.0</ele>
        <time>2019-08-22T08:15:27Z</time>
        <sat>7</sat>
      </trkpt>
      <trkpt lat="42.444259" lon="-3.048932">
        <ele>732.1</ele>
        <time>2019-08-22T08:15:29Z</time>
        <sat>7</sat>
      </trkpt>
      <trkpt lat="42.444219" lon="-3.049050">
        <ele>732.4</ele>
        <time>2019-08-22T08:15:36Z</time>
        <sat>7</sat>
      </trkpt>
      <trkpt lat="42.444211" lon="-3.049126">
        <ele>732.7</ele>
        <time>2019-08-22T08:15:40Z</time>
        <sat>8</sat>
      </trkpt>
      <trkpt lat="42.444194" lon="-3.049196">
        <ele>732.9</ele>
        <time>2019-08-22T08:15:44Z</time>
        <sat>8</sat>
      </trkpt>
      <trkpt lat="42.444158" lon="-3.049284">
        <ele>733.2</ele>
        <time>2019-08-22T08:15:49Z</time>
        <sat>7</sat>
      </trkpt>
      <trkpt lat="42.444141" lon="-3.049352">
        <ele>733.4</ele>
        <time>2019-08-22T08:15:53Z</time>
        <sat>8</sat>
      </trkpt>
      <trkpt lat="42.444140" lon="-3.049387">
        <ele>733.5</ele>
        <time>2019-08-22T08:15:55Z</time>
        <sat>7</sat>
      </trkpt>
      <trkpt lat="42.444107" lon="-3.049474">
        <ele>733.8</ele>
        <time>2019-08-22T08:16:01Z</time>
        <sat>8</sat>
      </trkpt>
      <trkpt lat="42.444101" lon="-3.049529">
        <ele>733.9</ele>
        <time>2019-08-22T08:16:04Z</time>
        <sat>8</sat>
      </trkpt>
      <trkpt lat="42.444030" lon="-3.049723">
        <ele>734.5</ele>
        <time>2019-08-22T08:16:16Z</time>
        <sat>7</sat>
      </trkpt>
      <trkpt lat="42.444025" lon="-3.049758">
        <ele>734.6</ele>
        <time>2019-08-22T08:16:18Z</time>
        <sat>7</sat>
      </trkpt>
      <trkpt lat="42.443960" lon="-3.049944">
        <ele>735.2</ele>
        <time>2019-08-22T08:16:30Z</time>
        <sat>8</sat>
      </trkpt>
      <trkpt lat="42.443894" lon="-3.050078">
        <ele>735.5</ele>
        <time>2019-08-22T08:16:40Z</time>
        <sat>8</sat>
      </trkpt>
      <trkpt lat="42.443874" lon="-3.050166">
        <ele>736.0</ele>
        <time>2019-08-22T08:16:51Z</time>
        <sat>8</sat>
      </trkpt>
      <trkpt lat="42.443832" lon="-3.050290">
        <ele>736.3</ele>
        <time>2019-08-22T08:16:59Z</time>
        <sat>8</sat>
      </trkpt>
      <trkpt lat="42.443782" lon="-3.050394">
        <ele>736.4</ele>
        <time>2019-08-22T08:17:05Z</time>
        <sat>7</sat>
      </trkpt>
      <trkpt lat="42.443755" lon="-3.050481">
        <ele>734.9</ele>
        <time>2019-08-22T08:17:10Z</time>
        <sat>7</sat>
      </trkpt>
      <trkpt lat="42.443745" lon="-3.050539">
        <ele>735.7</ele>
        <time>2019-08-22T08:17:13Z</time>
        <sat>8</sat>
      </trkpt>
      <trkpt lat="42.443716" lon="-3.050609">
        <ele>735.6</ele>
        <time>2019-08-22T08:17:17Z</time>
        <sat>8</sat>
      </trkpt>
      <trkpt lat="42.443680" lon="-3.050743">
        <ele>734.1</ele>
        <time>2019-08-22T08:17:25Z</time>
        <sat>8</sat>
      </trkpt>
      <trkpt lat="42.443637" lon="-3.050873">
        <ele>732.4</ele>
        <time>2019-08-22T08:17:33Z</time>
        <sat>7</sat>
      </trkpt>
      <trkpt lat="42.443616" lon="-3.051017">
        <ele>731.7</ele>
        <time>2019-08-22T08:17:40Z</time>
        <sat>7</sat>
      </trkpt>
      <trkpt lat="42.443537" lon="-3.051190">
        <ele>731.5</ele>
        <time>2019-08-22T08:17:51Z</time>
        <sat>7</sat>
      </trkpt>
      <trkpt lat="42.443518" lon="-3.051269">
        <ele>731.3</ele>
        <time>2019-08-22T08:17:56Z</time>
        <sat>7</sat>
      </trkpt>
      <trkpt lat="42.443439" lon="-3.051490">
        <ele>730.6</ele>
        <time>2019-08-22T08:18:10Z</time>
        <sat>8</sat>
      </trkpt>
      <trkpt lat="42.443391" lon="-3.051692">
        <ele>730.2</ele>
        <time>2019-08-22T08:18:22Z</time>
        <sat>7</sat>
      </trkpt>
      <trkpt lat="42.443335" lon="-3.051889">
        <ele>729.6</ele>
        <time>2019-08-22T08:18:34Z</time>
        <sat>8</sat>
      </trkpt>
      <trkpt lat="42.443269" lon="-3.052081">
        <ele>728.8</ele>
        <time>2019-08-22T08:18:46Z</time>
        <sat>8</sat>
      </trkpt>
      <trkpt lat="42.443201" lon="-3.052228">
        <ele>728.2</ele>
        <time>2019-08-22T08:18:56Z</time>
        <sat>7</sat>
      </trkpt>
      <trkpt lat="42.443108" lon="-3.052401">
        <ele>727.2</ele>
        <time>2019-08-22T08:19:08Z</time>
        <sat>8</sat>
      </trkpt>
      <trkpt lat="42.443072" lon="-3.052459">
        <ele>726.8</ele>
        <time>2019-08-22T08:19:13Z</time>
        <sat>7</sat>
      </trkpt>
      <trkpt lat="42.442982" lon="-3.052630">
        <ele>725.9</ele>
        <time>2019-08-22T08:19:25Z</time>
        <sat>8</sat>
      </trkpt>
      <trkpt lat="42.442939" lon="-3.052722">
        <ele>725.6</ele>
        <time>2019-08-22T08:19:31Z</time>
        <sat>8</sat>
      </trkpt>
      <trkpt lat="42.442875" lon="-3.052814">
        <ele>725.2</ele>
        <time>2019-08-22T08:19:38Z</time>
        <sat>8</sat>
      </trkpt>
      <trkpt lat="42.442828" lon="-3.052922">
        <ele>724.9</ele>
        <time>2019-08-22T08:19:45Z</time>
        <sat>7</sat>
      </trkpt>
      <trkpt lat="42.442798" lon="-3.052964">
        <ele>724.8</ele>
        <time>2019-08-22T08:19:48Z</time>
        <sat>8</sat>
      </trkpt>
      <trkpt lat="42.442702" lon="-3.053150">
        <ele>724.1</ele>
        <time>2019-08-22T08:20:01Z</time>
        <sat>8</sat>
      </trkpt>
      <trkpt lat="42.442656" lon="-3.053216">
        <ele>724.0</ele>
        <time>2019-08-22T08:20:06Z</time>
        <sat>8</sat>
      </trkpt>
      <trkpt lat="42.442615" lon="-3.053303">
        <ele>723.8</ele>
        <time>2019-08-22T08:20:12Z</time>
        <sat>8</sat>
      </trkpt>
      <trkpt lat="42.442575" lon="-3.053354">
        <ele>723.7</ele>
        <time>2019-08-22T08:20:16Z</time>
        <sat>9</sat>
      </trkpt>
      <trkpt lat="42.442480" lon="-3.053494">
        <ele>723.5</ele>
        <time>2019-08-22T08:20:27Z</time>
        <sat>9</sat>
      </trkpt>
      <trkpt lat="42.442476" lon="-3.053538">
        <ele>723.4</ele>
        <time>2019-08-22T08:20:34Z</time>
        <sat>9</sat>
      </trkpt>
      <trkpt lat="42.442355" lon="-3.053682">
        <ele>723.3</ele>
        <time>2019-08-22T08:20:49Z</time>
        <sat>9</sat>
      </trkpt>
      <trkpt lat="42.442300" lon="-3.053783">
        <ele>723.2</ele>
        <time>2019-08-22T08:20:56Z</time>
        <sat>9</sat>
      </trkpt>
      <trkpt lat="42.442240" lon="-3.053861">
        <ele>723.1</ele>
        <time>2019-08-22T08:21:02Z</time>
        <sat>8</sat>
      </trkpt>
      <trkpt lat="42.442214" lon="-3.053912">
        <ele>723.1</ele>
        <time>2019-08-22T08:21:06Z</time>
        <sat>8</sat>
      </trkpt>
      <trkpt lat="42.442154" lon="-3.053980">
        <ele>723.1</ele>
        <time>2019-08-22T08:21:12Z</time>
        <sat>9</sat>
      </trkpt>
      <trkpt lat="42.442121" lon="-3.054036">
        <ele>723.1</ele>
        <time>2019-08-22T08:21:16Z</time>
        <sat>8</sat>
      </trkpt>
      <trkpt lat="42.442066" lon="-3.054097">
        <ele>723.2</ele>
        <time>2019-08-22T08:21:21Z</time>
        <sat>8</sat>
      </trkpt>
      <trkpt lat="42.442012" lon="-3.054182">
        <ele>723.1</ele>
        <time>2019-08-22T08:21:28Z</time>
        <sat>8</sat>
      </trkpt>
      <trkpt lat="42.441990" lon="-3.054206">
        <ele>723.0</ele>
        <time>2019-08-22T08:21:30Z</time>
        <sat>8</sat>
      </trkpt>
      <trkpt lat="42.441881" lon="-3.054369">
        <ele>723.1</ele>
        <time>2019-08-22T08:21:43Z</time>
        <sat>9</sat>
      </trkpt>
      <trkpt lat="42.441829" lon="-3.054462">
        <ele>723.1</ele>
        <time>2019-08-22T08:21:50Z</time>
        <sat>9</sat>
      </trkpt>
      <trkpt lat="42.441727" lon="-3.054620">
        <ele>723.2</ele>
        <time>2019-08-22T08:22:01Z</time>
        <sat>9</sat>
      </trkpt>
      <trkpt lat="42.441702" lon="-3.054678">
        <ele>723.2</ele>
        <time>2019-08-22T08:22:05Z</time>
        <sat>7</sat>
      </trkpt>
      <trkpt lat="42.441642" lon="-3.054779">
        <ele>723.4</ele>
        <time>2019-08-22T08:22:12Z</time>
        <sat>8</sat>
      </trkpt>
      <trkpt lat="42.441622" lon="-3.054841">
        <ele>723.4</ele>
        <time>2019-08-22T08:22:16Z</time>
        <sat>8</sat>
      </trkpt>
      <trkpt lat="42.441573" lon="-3.054923">
        <ele>723.6</ele>
        <time>2019-08-22T08:22:22Z</time>
        <sat>9</sat>
      </trkpt>
      <trkpt lat="42.441551" lon="-3.054983">
        <ele>723.6</ele>
        <time>2019-08-22T08:22:26Z</time>
        <sat>8</sat>
      </trkpt>
      <trkpt lat="42.441515" lon="-3.055037">
        <ele>723.9</ele>
        <time>2019-08-22T08:22:30Z</time>
        <sat>8</sat>
      </trkpt>
      <trkpt lat="42.441424" lon="-3.055198">
        <ele>724.4</ele>
        <time>2019-08-22T08:22:41Z</time>
        <sat>9</sat>
      </trkpt>
      <trkpt lat="42.441407" lon="-3.055244">
        <ele>724.7</ele>
        <time>2019-08-22T08:22:44Z</time>
        <sat>9</sat>
      </trkpt>
      <trkpt lat="42.441360" lon="-3.055307">
        <ele>724.9</ele>
        <time>2019-08-22T08:22:49Z</time>
        <sat>9</sat>
      </trkpt>
      <trkpt lat="42.441294" lon="-3.055440">
        <ele>725.0</ele>
        <time>2019-08-22T08:22:58Z</time>
        <sat>9</sat>
      </trkpt>
      <trkpt lat="42.441197" lon="-3.055620">
        <ele>723.6</ele>
        <time>2019-08-22T08:23:11Z</time>
        <sat>7</sat>
      </trkpt>
      <trkpt lat="42.441107" lon="-3.055781">
        <ele>726.2</ele>
        <time>2019-08-22T08:23:23Z</time>
        <sat>9</sat>
      </trkpt>
      <trkpt lat="42.441056" lon="-3.055860">
        <ele>726.1</ele>
        <time>2019-08-22T08:23:29Z</time>
        <sat>9</sat>
      </trkpt>
      <trkpt lat="42.440975" lon="-3.056019">
        <ele>725.6</ele>
        <time>2019-08-22T08:23:40Z</time>
        <sat>9</sat>
      </trkpt>
      <trkpt lat="42.440957" lon="-3.056063">
        <ele>725.5</ele>
        <time>2019-08-22T08:23:43Z</time>
        <sat>8</sat>
      </trkpt>
      <trkpt lat="42.440859" lon="-3.056237">
        <ele>725.5</ele>
        <time>2019-08-22T08:23:55Z</time>
        <sat>8</sat>
      </trkpt>
      <trkpt lat="42.440824" lon="-3.056289">
        <ele>725.6</ele>
        <time>2019-08-22T08:23:59Z</time>
        <sat>9</sat>
      </trkpt>
      <trkpt lat="42.440802" lon="-3.056343">
        <ele>725.8</ele>
        <time>2019-08-22T08:24:03Z</time>
        <sat>8</sat>
      </trkpt>
      <trkpt lat="42.440754" lon="-3.056421">
        <ele>725.9</ele>
        <time>2019-08-22T08:24:09Z</time>
        <sat>9</sat>
      </trkpt>
      <trkpt lat="42.440714" lon="-3.056511">
        <ele>726.0</ele>
        <time>2019-08-22T08:24:15Z</time>
        <sat>9</sat>
      </trkpt>
      <trkpt lat="42.440654" lon="-3.056609">
        <ele>726.2</ele>
        <time>2019-08-22T08:24:22Z</time>
        <sat>9</sat>
      </trkpt>
      <trkpt lat="42.440633" lon="-3.056655">
        <ele>726.2</ele>
        <time>2019-08-22T08:24:25Z</time>
        <sat>9</sat>
      </trkpt>
      <trkpt lat="42.440581" lon="-3.056735">
        <ele>726.4</ele>
        <time>2019-08-22T08:24:31Z</time>
        <sat>8</sat>
      </trkpt>
      <trkpt lat="42.440564" lon="-3.056780">
        <ele>726.5</ele>
        <time>2019-08-22T08:24:34Z</time>
        <sat>8</sat>
      </trkpt>
      <trkpt lat="42.440501" lon="-3.056877">
        <ele>726.6</ele>
        <time>2019-08-22T08:24:41Z</time>
        <sat>9</sat>
      </trkpt>
      <trkpt lat="42.440474" lon="-3.056941">
        <ele>726.7</ele>
        <time>2019-08-22T08:24:45Z</time>
        <sat>9</sat>
      </trkpt>
      <trkpt lat="42.440425" lon="-3.057019">
        <ele>726.9</ele>
        <time>2019-08-22T08:24:51Z</time>
        <sat>9</sat>
      </trkpt>
      <trkpt lat="42.440388" lon="-3.057104">
        <ele>727.2</ele>
        <time>2019-08-22T08:24:57Z</time>
        <sat>8</sat>
      </trkpt>
      <trkpt lat="42.440305" lon="-3.057230">
        <ele>727.5</ele>
        <time>2019-08-22T08:25:07Z</time>
        <sat>8</sat>
      </trkpt>
      <trkpt lat="42.440203" lon="-3.057410">
        <ele>727.7</ele>
        <time>2019-08-22T08:25:20Z</time>
        <sat>9</sat>
      </trkpt>
      <trkpt lat="42.440158" lon="-3.057498">
        <ele>727.9</ele>
        <time>2019-08-22T08:25:27Z</time>
        <sat>8</sat>
      </trkpt>
      <trkpt lat="42.440066" lon="-3.057683">
        <ele>728.5</ele>
        <time>2019-08-22T08:25:42Z</time>
        <sat>8</sat>
      </trkpt>
      <trkpt lat="42.440028" lon="-3.057762">
        <ele>728.5</ele>
        <time>2019-08-22T08:25:56Z</time>
        <sat>9</sat>
      </trkpt>
      <trkpt lat="42.439969" lon="-3.057871">
        <ele>728.5</ele>
        <time>2019-08-22T08:26:05Z</time>
        <sat>9</sat>
      </trkpt>
      <trkpt lat="42.439948" lon="-3.057929">
        <ele>728.4</ele>
        <time>2019-08-22T08:26:09Z</time>
        <sat>8</sat>
      </trkpt>
      <trkpt lat="42.439914" lon="-3.057983">
        <ele>728.6</ele>
        <time>2019-08-22T08:26:13Z</time>
        <sat>8</sat>
      </trkpt>
      <trkpt lat="42.439821" lon="-3.058175">
        <ele>729.4</ele>
        <time>2019-08-22T08:26:26Z</time>
        <sat>8</sat>
      </trkpt>
      <trkpt lat="42.439811" lon="-3.058219">
        <ele>729.4</ele>
        <time>2019-08-22T08:26:29Z</time>
        <sat>8</sat>
      </trkpt>
      <trkpt lat="42.439763" lon="-3.058315">
        <ele>729.6</ele>
        <time>2019-08-22T08:26:36Z</time>
        <sat>8</sat>
      </trkpt>
      <trkpt lat="42.439694" lon="-3.058476">
        <ele>729.9</ele>
        <time>2019-08-22T08:26:47Z</time>
        <sat>9</sat>
      </trkpt>
      <trkpt lat="42.439608" lon="-3.058657">
        <ele>730.4</ele>
        <time>2019-08-22T08:27:00Z</time>
        <sat>9</sat>
      </trkpt>
      <trkpt lat="42.439526" lon="-3.058818">
        <ele>730.7</ele>
        <time>2019-08-22T08:27:11Z</time>
        <sat>9</sat>
      </trkpt>
      <trkpt lat="42.439501" lon="-3.058879">
        <ele>730.8</ele>
        <time>2019-08-22T08:27:15Z</time>
        <sat>9</sat>
      </trkpt>
      <trkpt lat="42.439422" lon="-3.059027">
        <ele>731.0</ele>
        <time>2019-08-22T08:27:26Z</time>
        <sat>9</sat>
      </trkpt>
      <trkpt lat="42.439388" lon="-3.059078">
        <ele>731.2</ele>
        <time>2019-08-22T08:27:31Z</time>
        <sat>9</sat>
      </trkpt>
      <trkpt lat="42.439356" lon="-3.059092">
        <ele>731.3</ele>
        <time>2019-08-22T08:27:34Z</time>
        <sat>8</sat>
      </trkpt>
      <trkpt lat="42.439339" lon="-3.059129">
        <ele>730.7</ele>
        <time>2019-08-22T08:27:53Z</time>
        <sat>8</sat>
      </trkpt>
      <trkpt lat="42.439352" lon="-3.059139">
        <ele>731.5</ele>
        <time>2019-08-22T08:28:45Z</time>
        <sat>9</sat>
      </trkpt>
      <trkpt lat="42.439303" lon="-3.059236">
        <ele>731.7</ele>
        <time>2019-08-22T08:28:58Z</time>
        <sat>9</sat>
      </trkpt>
      <trkpt lat="42.439242" lon="-3.059375">
        <ele>731.8</ele>
        <time>2019-08-22T08:29:17Z</time>
        <sat>9</sat>
      </trkpt>
      <trkpt lat="42.439239" lon="-3.059386">
        <ele>732.0</ele>
        <time>2019-08-22T08:29:38Z</time>
        <sat>9</sat>
      </trkpt>
      <trkpt lat="42.439172" lon="-3.059526">
        <ele>732.1</ele>
        <time>2019-08-22T08:29:59Z</time>
        <sat>9</sat>
      </trkpt>
      <trkpt lat="42.439111" lon="-3.059654">
        <ele>732.1</ele>
        <time>2019-08-22T08:30:09Z</time>
        <sat>9</sat>
      </trkpt>
      <trkpt lat="42.439019" lon="-3.059851">
        <ele>732.6</ele>
        <time>2019-08-22T08:30:24Z</time>
        <sat>9</sat>
      </trkpt>
      <trkpt lat="42.438920" lon="-3.060038">
        <ele>732.3</ele>
        <time>2019-08-22T08:30:38Z</time>
        <sat>9</sat>
      </trkpt>
      <trkpt lat="42.438886" lon="-3.060136">
        <ele>733.3</ele>
        <time>2019-08-22T08:30:45Z</time>
        <sat>9</sat>
      </trkpt>
      <trkpt lat="42.438821" lon="-3.060266">
        <ele>732.4</ele>
        <time>2019-08-22T08:30:55Z</time>
        <sat>9</sat>
      </trkpt>
      <trkpt lat="42.438745" lon="-3.060426">
        <ele>731.3</ele>
        <time>2019-08-22T08:31:08Z</time>
        <sat>9</sat>
      </trkpt>
      <trkpt lat="42.438716" lon="-3.060502">
        <ele>731.4</ele>
        <time>2019-08-22T08:31:14Z</time>
        <sat>9</sat>
      </trkpt>
      <trkpt lat="42.438677" lon="-3.060570">
        <ele>732.5</ele>
        <time>2019-08-22T08:31:19Z</time>
        <sat>9</sat>
      </trkpt>
      <trkpt lat="42.438606" lon="-3.060735">
        <ele>733.9</ele>
        <time>2019-08-22T08:31:31Z</time>
        <sat>9</sat>
      </trkpt>
      <trkpt lat="42.438549" lon="-3.060915">
        <ele>734.7</ele>
        <time>2019-08-22T08:31:44Z</time>
        <sat>9</sat>
      </trkpt>
      <trkpt lat="42.438499" lon="-3.061035">
        <ele>735.2</ele>
        <time>2019-08-22T08:31:56Z</time>
        <sat>8</sat>
      </trkpt>
      <trkpt lat="42.438480" lon="-3.061112">
        <ele>735.5</ele>
        <time>2019-08-22T08:32:07Z</time>
        <sat>9</sat>
      </trkpt>
      <trkpt lat="42.438411" lon="-3.061294">
        <ele>735.7</ele>
        <time>2019-08-22T08:32:21Z</time>
        <sat>9</sat>
      </trkpt>
      <trkpt lat="42.438381" lon="-3.061384">
        <ele>735.9</ele>
        <time>2019-08-22T08:32:28Z</time>
        <sat>9</sat>
      </trkpt>
      <trkpt lat="42.438301" lon="-3.061556">
        <ele>735.8</ele>
        <time>2019-08-22T08:32:41Z</time>
        <sat>9</sat>
      </trkpt>
      <trkpt lat="42.438279" lon="-3.061617">
        <ele>735.8</ele>
        <time>2019-08-22T08:32:45Z</time>
        <sat>8</sat>
      </trkpt>
      <trkpt lat="42.438253" lon="-3.061669">
        <ele>735.8</ele>
        <time>2019-08-22T08:32:49Z</time>
        <sat>9</sat>
      </trkpt>
      <trkpt lat="42.438175" lon="-3.061872">
        <ele>736.2</ele>
        <time>2019-08-22T08:33:03Z</time>
        <sat>9</sat>
      </trkpt>
      <trkpt lat="42.438161" lon="-3.061930">
        <ele>736.5</ele>
        <time>2019-08-22T08:33:07Z</time>
        <sat>8</sat>
      </trkpt>
      <trkpt lat="42.438138" lon="-3.061992">
        <ele>736.6</ele>
        <time>2019-08-22T08:33:11Z</time>
        <sat>9</sat>
      </trkpt>
      <trkpt lat="42.438107" lon="-3.062127">
        <ele>736.8</ele>
        <time>2019-08-22T08:33:20Z</time>
        <sat>9</sat>
      </trkpt>
      <trkpt lat="42.438109" lon="-3.062205">
        <ele>737.0</ele>
        <time>2019-08-22T08:33:25Z</time>
        <sat>9</sat>
      </trkpt>
      <trkpt lat="42.438148" lon="-3.062283">
        <ele>737.2</ele>
        <time>2019-08-22T08:33:31Z</time>
        <sat>8</sat>
      </trkpt>
      <trkpt lat="42.438244" lon="-3.062369">
        <ele>737.4</ele>
        <time>2019-08-22T08:33:40Z</time>
        <sat>9</sat>
      </trkpt>
      <trkpt lat="42.438308" lon="-3.062444">
        <ele>737.1</ele>
        <time>2019-08-22T08:33:47Z</time>
        <sat>9</sat>
      </trkpt>
      <trkpt lat="42.438330" lon="-3.062459">
        <ele>737.1</ele>
        <time>2019-08-22T08:33:49Z</time>
        <sat>9</sat>
      </trkpt>
      <trkpt lat="42.438397" lon="-3.062539">
        <ele>737.0</ele>
        <time>2019-08-22T08:34:03Z</time>
        <sat>8</sat>
      </trkpt>
      <trkpt lat="42.438383" lon="-3.062560">
        <ele>737.2</ele>
        <time>2019-08-22T08:34:16Z</time>
        <sat>9</sat>
      </trkpt>
      <trkpt lat="42.438398" lon="-3.062568">
        <ele>737.2</ele>
        <time>2019-08-22T08:34:18Z</time>
        <sat>9</sat>
      </trkpt>
      <trkpt lat="42.438440" lon="-3.062608">
        <ele>737.1</ele>
        <time>2019-08-22T08:34:25Z</time>
        <sat>8</sat>
      </trkpt>
      <trkpt lat="42.438508" lon="-3.062641">
        <ele>737.0</ele>
        <time>2019-08-22T08:34:38Z</time>
        <sat>9</sat>
      </trkpt>
      <trkpt lat="42.438604" lon="-3.062765">
        <ele>735.9</ele>
        <time>2019-08-22T08:35:02Z</time>
        <sat>7</sat>
      </trkpt>
      <trkpt lat="42.438601" lon="-3.062759">
        <ele>736.4</ele>
        <time>2019-08-22T08:35:08Z</time>
        <sat>8</sat>
      </trkpt>
      <trkpt lat="42.438648" lon="-3.062774">
        <ele>736.4</ele>
        <time>2019-08-22T08:35:14Z</time>
        <sat>9</sat>
      </trkpt>
      <trkpt lat="42.438668" lon="-3.062816">
        <ele>736.4</ele>
        <time>2019-08-22T08:35:17Z</time>
        <sat>9</sat>
      </trkpt>
      <trkpt lat="42.438699" lon="-3.062858">
        <ele>736.0</ele>
        <time>2019-08-22T08:35:36Z</time>
        <sat>9</sat>
      </trkpt>
      <trkpt lat="42.438747" lon="-3.062902">
        <ele>735.9</ele>
        <time>2019-08-22T08:35:44Z</time>
        <sat>9</sat>
      </trkpt>
      <trkpt lat="42.438796" lon="-3.062984">
        <ele>735.9</ele>
        <time>2019-08-22T08:35:52Z</time>
        <sat>8</sat>
      </trkpt>
      <trkpt lat="42.438788" lon="-3.063019">
        <ele>735.9</ele>
        <time>2019-08-22T08:36:00Z</time>
        <sat>9</sat>
      </trkpt>
      <trkpt lat="42.438795" lon="-3.063017">
        <ele>735.9</ele>
        <time>2019-08-22T08:36:17Z</time>
        <sat>8</sat>
      </trkpt>
      <trkpt lat="42.438808" lon="-3.063040">
        <ele>735.6</ele>
        <time>2019-08-22T08:36:34Z</time>
        <sat>8</sat>
      </trkpt>
      <trkpt lat="42.438819" lon="-3.063060">
        <ele>735.5</ele>
        <time>2019-08-22T08:36:49Z</time>
        <sat>8</sat>
      </trkpt>
      <trkpt lat="42.438836" lon="-3.063065">
        <ele>735.5</ele>
        <time>2019-08-22T08:37:02Z</time>
        <sat>8</sat>
      </trkpt>
      <trkpt lat="42.438844" lon="-3.063117">
        <ele>735.5</ele>
        <time>2019-08-22T08:37:08Z</time>
        <sat>8</sat>
      </trkpt>
      <trkpt lat="42.438829" lon="-3.063227">
        <ele>735.5</ele>
        <time>2019-08-22T08:37:15Z</time>
        <sat>7</sat>
      </trkpt>
      <trkpt lat="42.438842" lon="-3.063244">
        <ele>735.6</ele>
        <time>2019-08-22T08:37:39Z</time>
        <sat>7</sat>
      </trkpt>
      <trkpt lat="42.438831" lon="-3.063285">
        <ele>735.6</ele>
        <time>2019-08-22T08:37:42Z</time>
        <sat>7</sat>
      </trkpt>
      <trkpt lat="42.438837" lon="-3.063359">
        <ele>735.7</ele>
        <time>2019-08-22T08:37:46Z</time>
        <sat>7</sat>
      </trkpt>
      <trkpt lat="42.438815" lon="-3.063428">
        <ele>735.7</ele>
        <time>2019-08-22T08:38:12Z</time>
        <sat>7</sat>
      </trkpt>
      <trkpt lat="42.438776" lon="-3.063528">
        <ele>735.8</ele>
        <time>2019-08-22T08:38:19Z</time>
        <sat>7</sat>
      </trkpt>
      <trkpt lat="42.438747" lon="-3.063576">
        <ele>735.9</ele>
        <time>2019-08-22T08:38:24Z</time>
        <sat>7</sat>
      </trkpt>
      <trkpt lat="42.438762" lon="-3.063571">
        <ele>736.2</ele>
        <time>2019-08-22T08:38:40Z</time>
        <sat>8</sat>
      </trkpt>
      <trkpt lat="42.438756" lon="-3.063606">
        <ele>736.2</ele>
        <time>2019-08-22T08:38:42Z</time>
        <sat>7</sat>
      </trkpt>
      <trkpt lat="42.438713" lon="-3.063695">
        <ele>736.3</ele>
        <time>2019-08-22T08:38:47Z</time>
        <sat>7</sat>
      </trkpt>
      <trkpt lat="42.438658" lon="-3.063840">
        <ele>736.4</ele>
        <time>2019-08-22T08:38:54Z</time>
        <sat>7</sat>
      </trkpt>
      <trkpt lat="42.438618" lon="-3.063897">
        <ele>736.4</ele>
        <time>2019-08-22T08:38:57Z</time>
        <sat>7</sat>
      </trkpt>
      <trkpt lat="42.438546" lon="-3.064065">
        <ele>736.8</ele>
        <time>2019-08-22T08:39:08Z</time>
        <sat>7</sat>
      </trkpt>
      <trkpt lat="42.438535" lon="-3.064121">
        <ele>736.8</ele>
        <time>2019-08-22T08:39:12Z</time>
        <sat>8</sat>
      </trkpt>
      <trkpt lat="42.438484" lon="-3.064233">
        <ele>736.7</ele>
        <time>2019-08-22T08:39:19Z</time>
        <sat>8</sat>
      </trkpt>
      <trkpt lat="42.438455" lon="-3.064353">
        <ele>737.2</ele>
        <time>2019-08-22T08:39:27Z</time>
        <sat>7</sat>
      </trkpt>
      <trkpt lat="42.438449" lon="-3.064406">
        <ele>737.3</ele>
        <time>2019-08-22T08:39:30Z</time>
        <sat>7</sat>
      </trkpt>
      <trkpt lat="42.438398" lon="-3.064571">
        <ele>737.8</ele>
        <time>2019-08-22T08:39:43Z</time>
        <sat>8</sat>
      </trkpt>
      <trkpt lat="42.438329" lon="-3.064833">
        <ele>738.7</ele>
        <time>2019-08-22T08:40:13Z</time>
        <sat>8</sat>
      </trkpt>
      <trkpt lat="42.438283" lon="-3.064991">
        <ele>738.9</ele>
        <time>2019-08-22T08:41:04Z</time>
        <sat>7</sat>
      </trkpt>
      <trkpt lat="42.438264" lon="-3.065134">
        <ele>739.9</ele>
        <time>2019-08-22T08:41:21Z</time>
        <sat>8</sat>
      </trkpt>
      <trkpt lat="42.438251" lon="-3.065170">
        <ele>739.8</ele>
        <time>2019-08-22T08:41:24Z</time>
        <sat>8</sat>
      </trkpt>
      <trkpt lat="42.438242" lon="-3.065257">
        <ele>739.8</ele>
        <time>2019-08-22T08:43:07Z</time>
        <sat>9</sat>
      </trkpt>
      <trkpt lat="42.438236" lon="-3.065253">
        <ele>739.9</ele>
        <time>2019-08-22T08:43:15Z</time>
        <sat>8</sat>
      </trkpt>
      <trkpt lat="42.438193" lon="-3.065305">
        <ele>739.9</ele>
        <time>2019-08-22T08:43:30Z</time>
        <sat>9</sat>
      </trkpt>
      <trkpt lat="42.438160" lon="-3.065389">
        <ele>740.0</ele>
        <time>2019-08-22T08:43:39Z</time>
        <sat>9</sat>
      </trkpt>
      <trkpt lat="42.438020" lon="-3.065755">
        <ele>740.4</ele>
        <time>2019-08-22T08:44:18Z</time>
        <sat>9</sat>
      </trkpt>
      <trkpt lat="42.437989" lon="-3.065817">
        <ele>740.6</ele>
        <time>2019-08-22T08:44:22Z</time>
        <sat>9</sat>
      </trkpt>
      <trkpt lat="42.437982" lon="-3.065868">
        <ele>740.7</ele>
        <time>2019-08-22T08:44:26Z</time>
        <sat>9</sat>
      </trkpt>
      <trkpt lat="42.437950" lon="-3.065958">
        <ele>740.9</ele>
        <time>2019-08-22T08:44:32Z</time>
        <sat>9</sat>
      </trkpt>
      <trkpt lat="42.437948" lon="-3.065983">
        <ele>740.9</ele>
        <time>2019-08-22T08:44:34Z</time>
        <sat>9</sat>
      </trkpt>
      <trkpt lat="42.437897" lon="-3.066160">
        <ele>741.1</ele>
        <time>2019-08-22T08:44:45Z</time>
        <sat>9</sat>
      </trkpt>
      <trkpt lat="42.437871" lon="-3.066234">
        <ele>741.2</ele>
        <time>2019-08-22T08:44:50Z</time>
        <sat>9</sat>
      </trkpt>
      <trkpt lat="42.437868" lon="-3.066339">
        <ele>741.7</ele>
        <time>2019-08-22T08:45:04Z</time>
        <sat>9</sat>
      </trkpt>
      <trkpt lat="42.437841" lon="-3.066456">
        <ele>741.4</ele>
        <time>2019-08-22T08:45:27Z</time>
        <sat>9</sat>
      </trkpt>
      <trkpt lat="42.437812" lon="-3.066646">
        <ele>741.2</ele>
        <time>2019-08-22T08:45:39Z</time>
        <sat>9</sat>
      </trkpt>
      <trkpt lat="42.437794" lon="-3.066681">
        <ele>740.6</ele>
        <time>2019-08-22T08:45:41Z</time>
        <sat>9</sat>
      </trkpt>
      <trkpt lat="42.437739" lon="-3.066757">
        <ele>740.4</ele>
        <time>2019-08-22T08:45:45Z</time>
        <sat>9</sat>
      </trkpt>
      <trkpt lat="42.437682" lon="-3.066934">
        <ele>742.2</ele>
        <time>2019-08-22T08:45:57Z</time>
        <sat>9</sat>
      </trkpt>
      <trkpt lat="42.437657" lon="-3.066988">
        <ele>742.3</ele>
        <time>2019-08-22T08:46:00Z</time>
        <sat>9</sat>
      </trkpt>
      <trkpt lat="42.437632" lon="-3.067086">
        <ele>742.4</ele>
        <time>2019-08-22T08:46:06Z</time>
        <sat>9</sat>
      </trkpt>
      <trkpt lat="42.437626" lon="-3.067148">
        <ele>742.3</ele>
        <time>2019-08-22T08:46:10Z</time>
        <sat>9</sat>
      </trkpt>
      <trkpt lat="42.437612" lon="-3.067213">
        <ele>742.3</ele>
        <time>2019-08-22T08:46:14Z</time>
        <sat>9</sat>
      </trkpt>
      <trkpt lat="42.437605" lon="-3.067441">
        <ele>742.0</ele>
        <time>2019-08-22T08:46:27Z</time>
        <sat>9</sat>
      </trkpt>
      <trkpt lat="42.437591" lon="-3.067573">
        <ele>742.0</ele>
        <time>2019-08-22T08:46:34Z</time>
        <sat>9</sat>
      </trkpt>
      <trkpt lat="42.437567" lon="-3.067639">
        <ele>742.2</ele>
        <time>2019-08-22T08:46:38Z</time>
        <sat>9</sat>
      </trkpt>
      <trkpt lat="42.437521" lon="-3.067786">
        <ele>741.5</ele>
        <time>2019-08-22T08:47:14Z</time>
        <sat>9</sat>
      </trkpt>
      <trkpt lat="42.437478" lon="-3.067866">
        <ele>742.0</ele>
        <time>2019-08-22T08:47:19Z</time>
        <sat>9</sat>
      </trkpt>
      <trkpt lat="42.437463" lon="-3.067922">
        <ele>742.2</ele>
        <time>2019-08-22T08:47:23Z</time>
        <sat>8</sat>
      </trkpt>
      <trkpt lat="42.437431" lon="-3.067984">
        <ele>742.4</ele>
        <time>2019-08-22T08:47:28Z</time>
        <sat>8</sat>
      </trkpt>
      <trkpt lat="42.437418" lon="-3.068094">
        <ele>742.9</ele>
        <time>2019-08-22T08:47:39Z</time>
        <sat>9</sat>
      </trkpt>
      <trkpt lat="42.437375" lon="-3.068220">
        <ele>743.0</ele>
        <time>2019-08-22T08:47:52Z</time>
        <sat>8</sat>
      </trkpt>
      <trkpt lat="42.437332" lon="-3.068427">
        <ele>743.4</ele>
        <time>2019-08-22T08:48:05Z</time>
        <sat>8</sat>
      </trkpt>
      <trkpt lat="42.437258" lon="-3.068474">
        <ele>743.6</ele>
        <time>2019-08-22T08:48:12Z</time>
        <sat>9</sat>
      </trkpt>
      <trkpt lat="42.437215" lon="-3.068571">
        <ele>743.7</ele>
        <time>2019-08-22T08:48:18Z</time>
        <sat>8</sat>
      </trkpt>
      <trkpt lat="42.437229" lon="-3.068771">
        <ele>744.0</ele>
        <time>2019-08-22T08:48:30Z</time>
        <sat>9</sat>
      </trkpt>
      <trkpt lat="42.437209" lon="-3.068849">
        <ele>744.1</ele>
        <time>2019-08-22T08:48:35Z</time>
        <sat>9</sat>
      </trkpt>
      <trkpt lat="42.437183" lon="-3.069059">
        <ele>744.3</ele>
        <time>2019-08-22T08:48:47Z</time>
        <sat>7</sat>
      </trkpt>
      <trkpt lat="42.437184" lon="-3.069128">
        <ele>744.3</ele>
        <time>2019-08-22T08:48:51Z</time>
        <sat>8</sat>
      </trkpt>
      <trkpt lat="42.437160" lon="-3.069206">
        <ele>744.3</ele>
        <time>2019-08-22T08:48:56Z</time>
        <sat>7</sat>
      </trkpt>
      <trkpt lat="42.437140" lon="-3.069331">
        <ele>744.0</ele>
        <time>2019-08-22T08:49:03Z</time>
        <sat>7</sat>
      </trkpt>
      <trkpt lat="42.437137" lon="-3.069394">
        <ele>743.8</ele>
        <time>2019-08-22T08:49:07Z</time>
        <sat>7</sat>
      </trkpt>
      <trkpt lat="42.437119" lon="-3.069494">
        <ele>743.5</ele>
        <time>2019-08-22T08:49:13Z</time>
        <sat>7</sat>
      </trkpt>
      <trkpt lat="42.437147" lon="-3.069569">
        <ele>743.3</ele>
        <time>2019-08-22T08:49:17Z</time>
        <sat>7</sat>
      </trkpt>
      <trkpt lat="42.437145" lon="-3.069625">
        <ele>743.3</ele>
        <time>2019-08-22T08:49:20Z</time>
        <sat>7</sat>
      </trkpt>
      <trkpt lat="42.437162" lon="-3.069759">
        <ele>743.4</ele>
        <time>2019-08-22T08:49:28Z</time>
        <sat>8</sat>
      </trkpt>
      <trkpt lat="42.437188" lon="-3.069945">
        <ele>744.8</ele>
        <time>2019-08-22T08:49:41Z</time>
        <sat>8</sat>
      </trkpt>
      <trkpt lat="42.437177" lon="-3.070012">
        <ele>745.2</ele>
        <time>2019-08-22T08:49:45Z</time>
        <sat>7</sat>
      </trkpt>
      <trkpt lat="42.437184" lon="-3.070080">
        <ele>745.6</ele>
        <time>2019-08-22T08:49:49Z</time>
        <sat>7</sat>
      </trkpt>
      <trkpt lat="42.437175" lon="-3.070302">
        <ele>746.5</ele>
        <time>2019-08-22T08:50:03Z</time>
        <sat>7</sat>
      </trkpt>
      <trkpt lat="42.437178" lon="-3.070396">
        <ele>746.8</ele>
        <time>2019-08-22T08:50:09Z</time>
        <sat>8</sat>
      </trkpt>
      <trkpt lat="42.437163" lon="-3.070480">
        <ele>747.1</ele>
        <time>2019-08-22T08:50:14Z</time>
        <sat>7</sat>
      </trkpt>
      <trkpt lat="42.437169" lon="-3.070544">
        <ele>747.3</ele>
        <time>2019-08-22T08:50:18Z</time>
        <sat>7</sat>
      </trkpt>
      <trkpt lat="42.437167" lon="-3.070631">
        <ele>747.5</ele>
        <time>2019-08-22T08:50:23Z</time>
        <sat>8</sat>
      </trkpt>
      <trkpt lat="42.437173" lon="-3.070682">
        <ele>747.5</ele>
        <time>2019-08-22T08:50:26Z</time>
        <sat>7</sat>
      </trkpt>
      <trkpt lat="42.437172" lon="-3.070761">
        <ele>747.8</ele>
        <time>2019-08-22T08:50:31Z</time>
        <sat>7</sat>
      </trkpt>
      <trkpt lat="42.437186" lon="-3.070949">
        <ele>748.3</ele>
        <time>2019-08-22T08:50:42Z</time>
        <sat>7</sat>
      </trkpt>
      <trkpt lat="42.437181" lon="-3.071056">
        <ele>748.5</ele>
        <time>2019-08-22T08:50:48Z</time>
        <sat>8</sat>
      </trkpt>
      <trkpt lat="42.437185" lon="-3.071120">
        <ele>748.6</ele>
        <time>2019-08-22T08:50:52Z</time>
        <sat>8</sat>
      </trkpt>
      <trkpt lat="42.437179" lon="-3.071192">
        <ele>748.9</ele>
        <time>2019-08-22T08:50:56Z</time>
        <sat>8</sat>
      </trkpt>
      <trkpt lat="42.437181" lon="-3.071374">
        <ele>749.3</ele>
        <time>2019-08-22T08:51:06Z</time>
        <sat>8</sat>
      </trkpt>
      <trkpt lat="42.437190" lon="-3.071490">
        <ele>749.7</ele>
        <time>2019-08-22T08:51:13Z</time>
        <sat>8</sat>
      </trkpt>
      <trkpt lat="42.437192" lon="-3.071709">
        <ele>750.3</ele>
        <time>2019-08-22T08:51:27Z</time>
        <sat>8</sat>
      </trkpt>
      <trkpt lat="42.437196" lon="-3.071770">
        <ele>750.4</ele>
        <time>2019-08-22T08:51:31Z</time>
        <sat>7</sat>
      </trkpt>
      <trkpt lat="42.437198" lon="-3.072021">
        <ele>751.0</ele>
        <time>2019-08-22T08:51:46Z</time>
        <sat>7</sat>
      </trkpt>
      <trkpt lat="42.437192" lon="-3.072074">
        <ele>751.1</ele>
        <time>2019-08-22T08:51:49Z</time>
        <sat>8</sat>
      </trkpt>
      <trkpt lat="42.437194" lon="-3.072158">
        <ele>751.2</ele>
        <time>2019-08-22T08:51:54Z</time>
        <sat>7</sat>
      </trkpt>
      <trkpt lat="42.437184" lon="-3.072212">
        <ele>751.4</ele>
        <time>2019-08-22T08:51:57Z</time>
        <sat>7</sat>
      </trkpt>
      <trkpt lat="42.437192" lon="-3.072282">
        <ele>751.6</ele>
        <time>2019-08-22T08:52:01Z</time>
        <sat>7</sat>
      </trkpt>
      <trkpt lat="42.437186" lon="-3.072347">
        <ele>751.8</ele>
        <time>2019-08-22T08:52:05Z</time>
        <sat>8</sat>
      </trkpt>
      <trkpt lat="42.437202" lon="-3.072526">
        <ele>752.3</ele>
        <time>2019-08-22T08:52:16Z</time>
        <sat>8</sat>
      </trkpt>
      <trkpt lat="42.437207" lon="-3.072653">
        <ele>752.8</ele>
        <time>2019-08-22T08:52:24Z</time>
        <sat>8</sat>
      </trkpt>
      <trkpt lat="42.437204" lon="-3.072826">
        <ele>753.5</ele>
        <time>2019-08-22T08:52:36Z</time>
        <sat>8</sat>
      </trkpt>
      <trkpt lat="42.437210" lon="-3.072920">
        <ele>753.7</ele>
        <time>2019-08-22T08:52:42Z</time>
        <sat>8</sat>
      </trkpt>
      <trkpt lat="42.437214" lon="-3.073138">
        <ele>754.1</ele>
        <time>2019-08-22T08:52:55Z</time>
        <sat>8</sat>
      </trkpt>
      <trkpt lat="42.437227" lon="-3.073198">
        <ele>754.2</ele>
        <time>2019-08-22T08:52:59Z</time>
        <sat>8</sat>
      </trkpt>
      <trkpt lat="42.437227" lon="-3.073270">
        <ele>754.4</ele>
        <time>2019-08-22T08:53:03Z</time>
        <sat>8</sat>
      </trkpt>
      <trkpt lat="42.437239" lon="-3.073374">
        <ele>754.6</ele>
        <time>2019-08-22T08:53:09Z</time>
        <sat>8</sat>
      </trkpt>
      <trkpt lat="42.437236" lon="-3.073445">
        <ele>754.8</ele>
        <time>2019-08-22T08:53:13Z</time>
        <sat>8</sat>
      </trkpt>
      <trkpt lat="42.437250" lon="-3.073589">
        <ele>755.2</ele>
        <time>2019-08-22T08:53:23Z</time>
        <sat>8</sat>
      </trkpt>
      <trkpt lat="42.437269" lon="-3.073682">
        <ele>755.5</ele>
        <time>2019-08-22T08:53:28Z</time>
        <sat>8</sat>
      </trkpt>
      <trkpt lat="42.437265" lon="-3.073734">
        <ele>755.5</ele>
        <time>2019-08-22T08:53:31Z</time>
        <sat>8</sat>
      </trkpt>
      <trkpt lat="42.437279" lon="-3.073877">
        <ele>755.6</ele>
        <time>2019-08-22T08:53:39Z</time>
        <sat>8</sat>
      </trkpt>
      <trkpt lat="42.437274" lon="-3.073928">
        <ele>755.1</ele>
        <time>2019-08-22T08:53:42Z</time>
        <sat>8</sat>
      </trkpt>
      <trkpt lat="42.437275" lon="-3.074022">
        <ele>753.6</ele>
        <time>2019-08-22T08:53:47Z</time>
        <sat>8</sat>
      </trkpt>
      <trkpt lat="42.437287" lon="-3.074119">
        <ele>755.7</ele>
        <time>2019-08-22T08:53:53Z</time>
        <sat>8</sat>
      </trkpt>
      <trkpt lat="42.437292" lon="-3.074283">
        <ele>755.2</ele>
        <time>2019-08-22T08:54:02Z</time>
        <sat>8</sat>
      </trkpt>
      <trkpt lat="42.437314" lon="-3.074453">
        <ele>756.1</ele>
        <time>2019-08-22T08:54:11Z</time>
        <sat>8</sat>
      </trkpt>
      <trkpt lat="42.437296" lon="-3.074503">
        <ele>756.2</ele>
        <time>2019-08-22T08:54:34Z</time>
        <sat>8</sat>
      </trkpt>
      <trkpt lat="42.437309" lon="-3.074593">
        <ele>756.0</ele>
        <time>2019-08-22T08:54:39Z</time>
        <sat>8</sat>
      </trkpt>
      <trkpt lat="42.437313" lon="-3.074708">
        <ele>756.1</ele>
        <time>2019-08-22T08:54:45Z</time>
        <sat>8</sat>
      </trkpt>
      <trkpt lat="42.437332" lon="-3.074817">
        <ele>755.8</ele>
        <time>2019-08-22T08:54:51Z</time>
        <sat>8</sat>
      </trkpt>
      <trkpt lat="42.437329" lon="-3.074957">
        <ele>755.1</ele>
        <time>2019-08-22T08:54:58Z</time>
        <sat>8</sat>
      </trkpt>
      <trkpt lat="42.437350" lon="-3.075173">
        <ele>754.4</ele>
        <time>2019-08-22T08:55:10Z</time>
        <sat>8</sat>
      </trkpt>
      <trkpt lat="42.437348" lon="-3.075301">
        <ele>753.9</ele>
        <time>2019-08-22T08:55:17Z</time>
        <sat>8</sat>
      </trkpt>
      <trkpt lat="42.437361" lon="-3.075416">
        <ele>753.7</ele>
        <time>2019-08-22T08:55:24Z</time>
        <sat>8</sat>
      </trkpt>
      <trkpt lat="42.437360" lon="-3.075663">
        <ele>753.5</ele>
        <time>2019-08-22T08:55:39Z</time>
        <sat>8</sat>
      </trkpt>
      <trkpt lat="42.437381" lon="-3.075795">
        <ele>753.4</ele>
        <time>2019-08-22T08:55:47Z</time>
        <sat>8</sat>
      </trkpt>
      <trkpt lat="42.437384" lon="-3.075916">
        <ele>753.2</ele>
        <time>2019-08-22T08:55:55Z</time>
        <sat>8</sat>
      </trkpt>
      <trkpt lat="42.437403" lon="-3.076150">
        <ele>752.9</ele>
        <time>2019-08-22T08:56:09Z</time>
        <sat>8</sat>
      </trkpt>
      <trkpt lat="42.437405" lon="-3.076361">
        <ele>752.8</ele>
        <time>2019-08-22T08:56:22Z</time>
        <sat>8</sat>
      </trkpt>
      <trkpt lat="42.437426" lon="-3.076517">
        <ele>752.6</ele>
        <time>2019-08-22T08:56:31Z</time>
        <sat>8</sat>
      </trkpt>
      <trkpt lat="42.437429" lon="-3.076620">
        <ele>752.6</ele>
        <time>2019-08-22T08:56:37Z</time>
        <sat>8</sat>
      </trkpt>
      <trkpt lat="42.437440" lon="-3.076688">
        <ele>752.6</ele>
        <time>2019-08-22T08:56:41Z</time>
        <sat>8</sat>
      </trkpt>
      <trkpt lat="42.437439" lon="-3.076812">
        <ele>752.5</ele>
        <time>2019-08-22T08:56:48Z</time>
        <sat>8</sat>
      </trkpt>
      <trkpt lat="42.437452" lon="-3.077021">
        <ele>752.5</ele>
        <time>2019-08-22T08:57:00Z</time>
        <sat>8</sat>
      </trkpt>
      <trkpt lat="42.437465" lon="-3.077089">
        <ele>752.5</ele>
        <time>2019-08-22T08:57:04Z</time>
        <sat>8</sat>
      </trkpt>
      <trkpt lat="42.437468" lon="-3.077241">
        <ele>752.3</ele>
        <time>2019-08-22T08:57:13Z</time>
        <sat>8</sat>
      </trkpt>
      <trkpt lat="42.437464" lon="-3.077375">
        <ele>752.2</ele>
        <time>2019-08-22T08:57:20Z</time>
        <sat>8</sat>
      </trkpt>
      <trkpt lat="42.437472" lon="-3.077427">
        <ele>752.2</ele>
        <time>2019-08-22T08:57:23Z</time>
        <sat>8</sat>
      </trkpt>
      <trkpt lat="42.437474" lon="-3.077562">
        <ele>752.2</ele>
        <time>2019-08-22T08:57:31Z</time>
        <sat>8</sat>
      </trkpt>
      <trkpt lat="42.437490" lon="-3.077659">
        <ele>752.1</ele>
        <time>2019-08-22T08:57:37Z</time>
        <sat>8</sat>
      </trkpt>
      <trkpt lat="42.437502" lon="-3.077874">
        <ele>752.2</ele>
        <time>2019-08-22T08:57:50Z</time>
        <sat>8</sat>
      </trkpt>
      <trkpt lat="42.437500" lon="-3.077965">
        <ele>752.2</ele>
        <time>2019-08-22T08:57:55Z</time>
        <sat>8</sat>
      </trkpt>
      <trkpt lat="42.437519" lon="-3.078087">
        <ele>752.4</ele>
        <time>2019-08-22T08:58:02Z</time>
        <sat>8</sat>
      </trkpt>
      <trkpt lat="42.437519" lon="-3.078239">
        <ele>752.6</ele>
        <time>2019-08-22T08:58:11Z</time>
        <sat>8</sat>
      </trkpt>
      <trkpt lat="42.437497" lon="-3.078259">
        <ele>752.6</ele>
        <time>2019-08-22T08:58:30Z</time>
        <sat>8</sat>
      </trkpt>
      <trkpt lat="42.437513" lon="-3.078385">
        <ele>752.5</ele>
        <time>2019-08-22T08:58:41Z</time>
        <sat>8</sat>
      </trkpt>
      <trkpt lat="42.437510" lon="-3.078487">
        <ele>752.6</ele>
        <time>2019-08-22T08:58:46Z</time>
        <sat>8</sat>
      </trkpt>
      <trkpt lat="42.437537" lon="-3.078684">
        <ele>752.6</ele>
        <time>2019-08-22T08:59:02Z</time>
        <sat>8</sat>
      </trkpt>
      <trkpt lat="42.437541" lon="-3.078774">
        <ele>752.7</ele>
        <time>2019-08-22T08:59:07Z</time>
        <sat>8</sat>
      </trkpt>
      <trkpt lat="42.437550" lon="-3.078826">
        <ele>752.8</ele>
        <time>2019-08-22T08:59:10Z</time>
        <sat>8</sat>
      </trkpt>
      <trkpt lat="42.437550" lon="-3.078908">
        <ele>752.9</ele>
        <time>2019-08-22T08:59:15Z</time>
        <sat>8</sat>
      </trkpt>
      <trkpt lat="42.437564" lon="-3.078979">
        <ele>753.0</ele>
        <time>2019-08-22T08:59:19Z</time>
        <sat>7</sat>
      </trkpt>
      <trkpt lat="42.437565" lon="-3.079064">
        <ele>753.1</ele>
        <time>2019-08-22T08:59:24Z</time>
        <sat>8</sat>
      </trkpt>
      <trkpt lat="42.437576" lon="-3.079131">
        <ele>753.2</ele>
        <time>2019-08-22T08:59:28Z</time>
        <sat>8</sat>
      </trkpt>
      <trkpt lat="42.437578" lon="-3.079313">
        <ele>753.6</ele>
        <time>2019-08-22T08:59:39Z</time>
        <sat>8</sat>
      </trkpt>
      <trkpt lat="42.437588" lon="-3.079394">
        <ele>753.8</ele>
        <time>2019-08-22T08:59:44Z</time>
        <sat>8</sat>
      </trkpt>
      <trkpt lat="42.437577" lon="-3.079610">
        <ele>754.7</ele>
        <time>2019-08-22T08:59:58Z</time>
        <sat>8</sat>
      </trkpt>
      <trkpt lat="42.437564" lon="-3.079651">
        <ele>754.9</ele>
        <time>2019-08-22T09:00:01Z</time>
        <sat>8</sat>
      </trkpt>
      <trkpt lat="42.437511" lon="-3.079730">
        <ele>755.2</ele>
        <time>2019-08-22T09:00:08Z</time>
        <sat>8</sat>
      </trkpt>
      <trkpt lat="42.437350" lon="-3.079843">
        <ele>755.9</ele>
        <time>2019-08-22T09:00:23Z</time>
        <sat>8</sat>
      </trkpt>
      <trkpt lat="42.437181" lon="-3.079938">
        <ele>756.6</ele>
        <time>2019-08-22T09:00:38Z</time>
        <sat>8</sat>
      </trkpt>
      <trkpt lat="42.437071" lon="-3.080001">
        <ele>757.1</ele>
        <time>2019-08-22T09:00:48Z</time>
        <sat>8</sat>
      </trkpt>
      <trkpt lat="42.437037" lon="-3.080040">
        <ele>757.3</ele>
        <time>2019-08-22T09:00:52Z</time>
        <sat>8</sat>
      </trkpt>
      <trkpt lat="42.436998" lon="-3.080115">
        <ele>757.8</ele>
        <time>2019-08-22T09:00:58Z</time>
        <sat>8</sat>
      </trkpt>
      <trkpt lat="42.436987" lon="-3.080254">
        <ele>758.5</ele>
        <time>2019-08-22T09:01:06Z</time>
        <sat>8</sat>
      </trkpt>
      <trkpt lat="42.436994" lon="-3.080317">
        <ele>758.7</ele>
        <time>2019-08-22T09:01:10Z</time>
        <sat>8</sat>
      </trkpt>
      <trkpt lat="42.436998" lon="-3.080469">
        <ele>759.2</ele>
        <time>2019-08-22T09:01:19Z</time>
        <sat>8</sat>
      </trkpt>
      <trkpt lat="42.437018" lon="-3.080660">
        <ele>760.0</ele>
        <time>2019-08-22T09:01:31Z</time>
        <sat>8</sat>
      </trkpt>
      <trkpt lat="42.437031" lon="-3.080858">
        <ele>761.3</ele>
        <time>2019-08-22T09:01:44Z</time>
        <sat>8</sat>
      </trkpt>
      <trkpt lat="42.437043" lon="-3.080889">
        <ele>761.6</ele>
        <time>2019-08-22T09:01:46Z</time>
        <sat>7</sat>
      </trkpt>
      <trkpt lat="42.437052" lon="-3.080978">
        <ele>762.3</ele>
        <time>2019-08-22T09:01:52Z</time>
        <sat>8</sat>
      </trkpt>
      <trkpt lat="42.437063" lon="-3.081023">
        <ele>762.5</ele>
        <time>2019-08-22T09:01:55Z</time>
        <sat>8</sat>
      </trkpt>
      <trkpt lat="42.437074" lon="-3.081150">
        <ele>763.5</ele>
        <time>2019-08-22T09:02:04Z</time>
        <sat>8</sat>
      </trkpt>
      <trkpt lat="42.437096" lon="-3.081244">
        <ele>764.4</ele>
        <time>2019-08-22T09:02:11Z</time>
        <sat>8</sat>
      </trkpt>
      <trkpt lat="42.437098" lon="-3.081291">
        <ele>764.8</ele>
        <time>2019-08-22T09:02:14Z</time>
        <sat>8</sat>
      </trkpt>
      <trkpt lat="42.437135" lon="-3.081534">
        <ele>766.2</ele>
        <time>2019-08-22T09:02:31Z</time>
        <sat>7</sat>
      </trkpt>
      <trkpt lat="42.437127" lon="-3.081628">
        <ele>764.7</ele>
        <time>2019-08-22T09:02:37Z</time>
        <sat>8</sat>
      </trkpt>
      <trkpt lat="42.437129" lon="-3.081658">
        <ele>765.9</ele>
        <time>2019-08-22T09:02:39Z</time>
        <sat>8</sat>
      </trkpt>
      <trkpt lat="42.437106" lon="-3.081773">
        <ele>767.1</ele>
        <time>2019-08-22T09:02:46Z</time>
        <sat>8</sat>
      </trkpt>
      <trkpt lat="42.437110" lon="-3.081832">
        <ele>767.0</ele>
        <time>2019-08-22T09:02:59Z</time>
        <sat>8</sat>
      </trkpt>
      <trkpt lat="42.437098" lon="-3.081930">
        <ele>767.0</ele>
        <time>2019-08-22T09:03:10Z</time>
        <sat>8</sat>
      </trkpt>
      <trkpt lat="42.437071" lon="-3.082043">
        <ele>766.9</ele>
        <time>2019-08-22T09:03:18Z</time>
        <sat>8</sat>
      </trkpt>
      <trkpt lat="42.437052" lon="-3.082204">
        <ele>766.9</ele>
        <time>2019-08-22T09:03:28Z</time>
        <sat>8</sat>
      </trkpt>
      <trkpt lat="42.437019" lon="-3.082330">
        <ele>767.0</ele>
        <time>2019-08-22T09:03:37Z</time>
        <sat>8</sat>
      </trkpt>
      <trkpt lat="42.436976" lon="-3.082544">
        <ele>767.3</ele>
        <time>2019-08-22T09:03:51Z</time>
        <sat>8</sat>
      </trkpt>
      <trkpt lat="42.436921" lon="-3.082726">
        <ele>767.7</ele>
        <time>2019-08-22T09:04:06Z</time>
        <sat>8</sat>
      </trkpt>
      <trkpt lat="42.436889" lon="-3.082788">
        <ele>767.6</ele>
        <time>2019-08-22T09:04:16Z</time>
        <sat>8</sat>
      </trkpt>
      <trkpt lat="42.436880" lon="-3.082832">
        <ele>767.6</ele>
        <time>2019-08-22T09:04:21Z</time>
        <sat>8</sat>
      </trkpt>
      <trkpt lat="42.436895" lon="-3.082845">
        <ele>767.8</ele>
        <time>2019-08-22T09:05:05Z</time>
        <sat>8</sat>
      </trkpt>
      <trkpt lat="42.436868" lon="-3.083018">
        <ele>767.8</ele>
        <time>2019-08-22T09:05:18Z</time>
        <sat>8</sat>
      </trkpt>
      <trkpt lat="42.436843" lon="-3.083128">
        <ele>767.6</ele>
        <time>2019-08-22T09:05:43Z</time>
        <sat>8</sat>
      </trkpt>
      <trkpt lat="42.436818" lon="-3.083248">
        <ele>767.7</ele>
        <time>2019-08-22T09:05:53Z</time>
        <sat>8</sat>
      </trkpt>
      <trkpt lat="42.436814" lon="-3.083395">
        <ele>767.8</ele>
        <time>2019-08-22T09:06:05Z</time>
        <sat>8</sat>
      </trkpt>
      <trkpt lat="42.436797" lon="-3.083432">
        <ele>768.1</ele>
        <time>2019-08-22T09:06:17Z</time>
        <sat>8</sat>
      </trkpt>
      <trkpt lat="42.436771" lon="-3.083561">
        <ele>768.1</ele>
        <time>2019-08-22T09:06:29Z</time>
        <sat>8</sat>
      </trkpt>
      <trkpt lat="42.436717" lon="-3.083757">
        <ele>768.0</ele>
        <time>2019-08-22T09:06:43Z</time>
        <sat>8</sat>
      </trkpt>
      <trkpt lat="42.436698" lon="-3.083899">
        <ele>767.9</ele>
        <time>2019-08-22T09:06:51Z</time>
        <sat>8</sat>
      </trkpt>
      <trkpt lat="42.436635" lon="-3.084095">
        <ele>767.5</ele>
        <time>2019-08-22T09:07:03Z</time>
        <sat>8</sat>
      </trkpt>
      <trkpt lat="42.436618" lon="-3.084175">
        <ele>767.2</ele>
        <time>2019-08-22T09:07:09Z</time>
        <sat>8</sat>
      </trkpt>
      <trkpt lat="42.436593" lon="-3.084267">
        <ele>765.4</ele>
        <time>2019-08-22T09:11:27Z</time>
        <sat>8</sat>
      </trkpt>
      <trkpt lat="42.436568" lon="-3.084372">
        <ele>766.5</ele>
        <time>2019-08-22T09:11:34Z</time>
        <sat>8</sat>
      </trkpt>
      <trkpt lat="42.436560" lon="-3.084471">
        <ele>766.3</ele>
        <time>2019-08-22T09:11:41Z</time>
        <sat>8</sat>
      </trkpt>
      <trkpt lat="42.436542" lon="-3.084508">
        <ele>766.2</ele>
        <time>2019-08-22T09:11:44Z</time>
        <sat>8</sat>
      </trkpt>
      <trkpt lat="42.436531" lon="-3.084551">
        <ele>765.9</ele>
        <time>2019-08-22T09:11:49Z</time>
        <sat>8</sat>
      </trkpt>
      <trkpt lat="42.436516" lon="-3.084754">
        <ele>765.9</ele>
        <time>2019-08-22T09:12:01Z</time>
        <sat>8</sat>
      </trkpt>
      <trkpt lat="42.436513" lon="-3.084922">
        <ele>765.9</ele>
        <time>2019-08-22T09:12:12Z</time>
        <sat>8</sat>
      </trkpt>
      <trkpt lat="42.436494" lon="-3.085048">
        <ele>766.2</ele>
        <time>2019-08-22T09:12:20Z</time>
        <sat>7</sat>
      </trkpt>
      <trkpt lat="42.436483" lon="-3.085079">
        <ele>766.3</ele>
        <time>2019-08-22T09:12:22Z</time>
        <sat>6</sat>
      </trkpt>
      <trkpt lat="42.436480" lon="-3.085161">
        <ele>765.4</ele>
        <time>2019-08-22T09:12:30Z</time>
        <sat>7</sat>
      </trkpt>
      <trkpt lat="42.436546" lon="-3.085257">
        <ele>767.2</ele>
        <time>2019-08-22T09:12:39Z</time>
        <sat>8</sat>
      </trkpt>
      <trkpt lat="42.436545" lon="-3.085289">
        <ele>767.0</ele>
        <time>2019-08-22T09:12:46Z</time>
        <sat>8</sat>
      </trkpt>
      <trkpt lat="42.436492" lon="-3.085323">
        <ele>766.4</ele>
        <time>2019-08-22T09:13:56Z</time>
        <sat>8</sat>
      </trkpt>
      <trkpt lat="42.436439" lon="-3.085412">
        <ele>766.7</ele>
        <time>2019-08-22T09:34:44Z</time>
        <sat>9</sat>
      </trkpt>
      <trkpt lat="42.436422" lon="-3.085602">
        <ele>766.8</ele>
        <time>2019-08-22T09:34:55Z</time>
        <sat>9</sat>
      </trkpt>
      <trkpt lat="42.436423" lon="-3.085758">
        <ele>766.9</ele>
        <time>2019-08-22T09:35:05Z</time>
        <sat>9</sat>
      </trkpt>
      <trkpt lat="42.436413" lon="-3.085867">
        <ele>766.5</ele>
        <time>2019-08-22T09:35:12Z</time>
        <sat>8</sat>
      </trkpt>
      <trkpt lat="42.436419" lon="-3.085940">
        <ele>766.6</ele>
        <time>2019-08-22T09:35:17Z</time>
        <sat>9</sat>
      </trkpt>
      <trkpt lat="42.436410" lon="-3.086044">
        <ele>766.9</ele>
        <time>2019-08-22T09:35:24Z</time>
        <sat>9</sat>
      </trkpt>
      <trkpt lat="42.436397" lon="-3.086031">
        <ele>766.6</ele>
        <time>2019-08-22T09:35:36Z</time>
        <sat>9</sat>
      </trkpt>
      <trkpt lat="42.436406" lon="-3.086080">
        <ele>766.5</ele>
        <time>2019-08-22T09:35:41Z</time>
        <sat>9</sat>
      </trkpt>
      <trkpt lat="42.436385" lon="-3.086195">
        <ele>766.4</ele>
        <time>2019-08-22T09:35:49Z</time>
        <sat>9</sat>
      </trkpt>
      <trkpt lat="42.436383" lon="-3.086240">
        <ele>766.2</ele>
        <time>2019-08-22T09:35:52Z</time>
        <sat>9</sat>
      </trkpt>
      <trkpt lat="42.436368" lon="-3.086309">
        <ele>765.9</ele>
        <time>2019-08-22T09:35:57Z</time>
        <sat>8</sat>
      </trkpt>
      <trkpt lat="42.436373" lon="-3.086370">
        <ele>765.4</ele>
        <time>2019-08-22T09:36:01Z</time>
        <sat>8</sat>
      </trkpt>
      <trkpt lat="42.436404" lon="-3.086458">
        <ele>764.4</ele>
        <time>2019-08-22T09:36:08Z</time>
        <sat>9</sat>
      </trkpt>
      <trkpt lat="42.436456" lon="-3.086504">
        <ele>763.8</ele>
        <time>2019-08-22T09:36:15Z</time>
        <sat>9</sat>
      </trkpt>
      <trkpt lat="42.436495" lon="-3.086523">
        <ele>763.2</ele>
        <time>2019-08-22T09:36:20Z</time>
        <sat>9</sat>
      </trkpt>
      <trkpt lat="42.436624" lon="-3.086551">
        <ele>761.2</ele>
        <time>2019-08-22T09:36:35Z</time>
        <sat>9</sat>
      </trkpt>
      <trkpt lat="42.436637" lon="-3.086610">
        <ele>760.2</ele>
        <time>2019-08-22T09:36:41Z</time>
        <sat>9</sat>
      </trkpt>
      <trkpt lat="42.436567" lon="-3.086735">
        <ele>758.4</ele>
        <time>2019-08-22T09:36:54Z</time>
        <sat>9</sat>
      </trkpt>
      <trkpt lat="42.436478" lon="-3.086839">
        <ele>756.8</ele>
        <time>2019-08-22T09:37:05Z</time>
        <sat>9</sat>
      </trkpt>
      <trkpt lat="42.436438" lon="-3.086893">
        <ele>756.0</ele>
        <time>2019-08-22T09:37:10Z</time>
        <sat>8</sat>
      </trkpt>
      <trkpt lat="42.436401" lon="-3.086926">
        <ele>755.5</ele>
        <time>2019-08-22T09:37:14Z</time>
        <sat>9</sat>
      </trkpt>
      <trkpt lat="42.436366" lon="-3.086987">
        <ele>754.9</ele>
        <time>2019-08-22T09:37:19Z</time>
        <sat>9</sat>
      </trkpt>
      <trkpt lat="42.436264" lon="-3.087092">
        <ele>753.9</ele>
        <time>2019-08-22T09:37:30Z</time>
        <sat>9</sat>
      </trkpt>
      <trkpt lat="42.436224" lon="-3.087123">
        <ele>753.7</ele>
        <time>2019-08-22T09:37:34Z</time>
        <sat>9</sat>
      </trkpt>
      <trkpt lat="42.436128" lon="-3.087223">
        <ele>753.1</ele>
        <time>2019-08-22T09:37:45Z</time>
        <sat>9</sat>
      </trkpt>
      <trkpt lat="42.436106" lon="-3.087256">
        <ele>753.3</ele>
        <time>2019-08-22T09:37:48Z</time>
        <sat>9</sat>
      </trkpt>
      <trkpt lat="42.436036" lon="-3.087330">
        <ele>753.0</ele>
        <time>2019-08-22T09:37:54Z</time>
        <sat>9</sat>
      </trkpt>
      <trkpt lat="42.436022" lon="-3.087357">
        <ele>753.0</ele>
        <time>2019-08-22T09:37:56Z</time>
        <sat>8</sat>
      </trkpt>
      <trkpt lat="42.435959" lon="-3.087438">
        <ele>752.9</ele>
        <time>2019-08-22T09:38:03Z</time>
        <sat>9</sat>
      </trkpt>
      <trkpt lat="42.435930" lon="-3.087490">
        <ele>752.7</ele>
        <time>2019-08-22T09:38:07Z</time>
        <sat>8</sat>
      </trkpt>
      <trkpt lat="42.435844" lon="-3.087612">
        <ele>752.4</ele>
        <time>2019-08-22T09:38:17Z</time>
        <sat>8</sat>
      </trkpt>
      <trkpt lat="42.435775" lon="-3.087693">
        <ele>752.6</ele>
        <time>2019-08-22T09:38:24Z</time>
        <sat>8</sat>
      </trkpt>
      <trkpt lat="42.435760" lon="-3.087730">
        <ele>752.5</ele>
        <time>2019-08-22T09:38:26Z</time>
        <sat>9</sat>
      </trkpt>
      <trkpt lat="42.435672" lon="-3.087879">
        <ele>752.3</ele>
        <time>2019-08-22T09:38:37Z</time>
        <sat>9</sat>
      </trkpt>
      <trkpt lat="42.435652" lon="-3.087921">
        <ele>752.3</ele>
        <time>2019-08-22T09:38:40Z</time>
        <sat>9</sat>
      </trkpt>
      <trkpt lat="42.435590" lon="-3.088009">
        <ele>752.2</ele>
        <time>2019-08-22T09:38:47Z</time>
        <sat>9</sat>
      </trkpt>
      <trkpt lat="42.435576" lon="-3.088039">
        <ele>752.2</ele>
        <time>2019-08-22T09:38:49Z</time>
        <sat>9</sat>
      </trkpt>
      <trkpt lat="42.435495" lon="-3.088174">
        <ele>752.4</ele>
        <time>2019-08-22T09:38:59Z</time>
        <sat>9</sat>
      </trkpt>
      <trkpt lat="42.435441" lon="-3.088243">
        <ele>752.4</ele>
        <time>2019-08-22T09:39:05Z</time>
        <sat>9</sat>
      </trkpt>
      <trkpt lat="42.435421" lon="-3.088286">
        <ele>752.5</ele>
        <time>2019-08-22T09:39:08Z</time>
        <sat>9</sat>
      </trkpt>
      <trkpt lat="42.435364" lon="-3.088377">
        <ele>752.6</ele>
        <time>2019-08-22T09:39:15Z</time>
        <sat>8</sat>
      </trkpt>
      <trkpt lat="42.435312" lon="-3.088467">
        <ele>752.8</ele>
        <time>2019-08-22T09:40:26Z</time>
        <sat>9</sat>
      </trkpt>
      <trkpt lat="42.435241" lon="-3.088660">
        <ele>752.2</ele>
        <time>2019-08-22T09:40:36Z</time>
        <sat>9</sat>
      </trkpt>
      <trkpt lat="42.435209" lon="-3.088755">
        <ele>752.1</ele>
        <time>2019-08-22T09:40:41Z</time>
        <sat>8</sat>
      </trkpt>
      <trkpt lat="42.435192" lon="-3.088897">
        <ele>751.9</ele>
        <time>2019-08-22T09:40:50Z</time>
        <sat>9</sat>
      </trkpt>
      <trkpt lat="42.435166" lon="-3.089085">
        <ele>751.9</ele>
        <time>2019-08-22T09:41:02Z</time>
        <sat>9</sat>
      </trkpt>
      <trkpt lat="42.435119" lon="-3.089258">
        <ele>751.9</ele>
        <time>2019-08-22T09:41:13Z</time>
        <sat>8</sat>
      </trkpt>
      <trkpt lat="42.435096" lon="-3.089321">
        <ele>751.8</ele>
        <time>2019-08-22T09:41:17Z</time>
        <sat>9</sat>
      </trkpt>
      <trkpt lat="42.435070" lon="-3.089434">
        <ele>751.8</ele>
        <time>2019-08-22T09:41:24Z</time>
        <sat>9</sat>
      </trkpt>
      <trkpt lat="42.435041" lon="-3.089511">
        <ele>751.8</ele>
        <time>2019-08-22T09:41:29Z</time>
        <sat>8</sat>
      </trkpt>
      <trkpt lat="42.435031" lon="-3.089558">
        <ele>751.7</ele>
        <time>2019-08-22T09:41:32Z</time>
        <sat>8</sat>
      </trkpt>
      <trkpt lat="42.434973" lon="-3.089760">
        <ele>751.6</ele>
        <time>2019-08-22T09:41:45Z</time>
        <sat>9</sat>
      </trkpt>
      <trkpt lat="42.434949" lon="-3.089824">
        <ele>751.6</ele>
        <time>2019-08-22T09:41:49Z</time>
        <sat>8</sat>
      </trkpt>
      <trkpt lat="42.434935" lon="-3.089884">
        <ele>751.6</ele>
        <time>2019-08-22T09:41:53Z</time>
        <sat>8</sat>
      </trkpt>
      <trkpt lat="42.434877" lon="-3.090081">
        <ele>751.2</ele>
        <time>2019-08-22T09:42:06Z</time>
        <sat>9</sat>
      </trkpt>
      <trkpt lat="42.434858" lon="-3.090126">
        <ele>751.1</ele>
        <time>2019-08-22T09:42:09Z</time>
        <sat>7</sat>
      </trkpt>
      <trkpt lat="42.434801" lon="-3.090353">
        <ele>751.4</ele>
        <time>2019-08-22T09:42:23Z</time>
        <sat>8</sat>
      </trkpt>
      <trkpt lat="42.434760" lon="-3.090519">
        <ele>751.6</ele>
        <time>2019-08-22T09:42:33Z</time>
        <sat>8</sat>
      </trkpt>
      <trkpt lat="42.434734" lon="-3.090601">
        <ele>751.7</ele>
        <time>2019-08-22T09:42:38Z</time>
        <sat>9</sat>
      </trkpt>
      <trkpt lat="42.434728" lon="-3.090651">
        <ele>751.8</ele>
        <time>2019-08-22T09:42:41Z</time>
        <sat>9</sat>
      </trkpt>
      <trkpt lat="42.434695" lon="-3.090747">
        <ele>752.1</ele>
        <time>2019-08-22T09:42:47Z</time>
        <sat>9</sat>
      </trkpt>
      <trkpt lat="42.434670" lon="-3.090862">
        <ele>752.5</ele>
        <time>2019-08-22T09:42:54Z</time>
        <sat>9</sat>
      </trkpt>
      <trkpt lat="42.434615" lon="-3.091021">
        <ele>752.8</ele>
        <time>2019-08-22T09:43:04Z</time>
        <sat>9</sat>
      </trkpt>
      <trkpt lat="42.434582" lon="-3.091165">
        <ele>753.1</ele>
        <time>2019-08-22T09:43:13Z</time>
        <sat>9</sat>
      </trkpt>
      <trkpt lat="42.434562" lon="-3.091216">
        <ele>753.2</ele>
        <time>2019-08-22T09:43:16Z</time>
        <sat>9</sat>
      </trkpt>
      <trkpt lat="42.434539" lon="-3.091327">
        <ele>753.4</ele>
        <time>2019-08-22T09:43:23Z</time>
        <sat>9</sat>
      </trkpt>
      <trkpt lat="42.434514" lon="-3.091391">
        <ele>753.5</ele>
        <time>2019-08-22T09:43:27Z</time>
        <sat>8</sat>
      </trkpt>
      <trkpt lat="42.434500" lon="-3.091457">
        <ele>753.5</ele>
        <time>2019-08-22T09:43:31Z</time>
        <sat>8</sat>
      </trkpt>
      <trkpt lat="42.434469" lon="-3.091552">
        <ele>753.7</ele>
        <time>2019-08-22T09:43:37Z</time>
        <sat>8</sat>
      </trkpt>
      <trkpt lat="42.434462" lon="-3.091586">
        <ele>753.7</ele>
        <time>2019-08-22T09:43:39Z</time>
        <sat>9</sat>
      </trkpt>
      <trkpt lat="42.434426" lon="-3.091696">
        <ele>753.9</ele>
        <time>2019-08-22T09:43:46Z</time>
        <sat>9</sat>
      </trkpt>
      <trkpt lat="42.434377" lon="-3.091879">
        <ele>754.3</ele>
        <time>2019-08-22T09:43:57Z</time>
        <sat>9</sat>
      </trkpt>
      <trkpt lat="42.434364" lon="-3.091947">
        <ele>754.4</ele>
        <time>2019-08-22T09:44:01Z</time>
        <sat>9</sat>
      </trkpt>
      <trkpt lat="42.434307" lon="-3.092147">
        <ele>755.1</ele>
        <time>2019-08-22T09:44:13Z</time>
        <sat>8</sat>
      </trkpt>
      <trkpt lat="42.434302" lon="-3.092198">
        <ele>755.3</ele>
        <time>2019-08-22T09:44:16Z</time>
        <sat>9</sat>
      </trkpt>
      <trkpt lat="42.434279" lon="-3.092277">
        <ele>755.7</ele>
        <time>2019-08-22T09:44:21Z</time>
        <sat>9</sat>
      </trkpt>
      <trkpt lat="42.434274" lon="-3.092326">
        <ele>755.9</ele>
        <time>2019-08-22T09:44:24Z</time>
        <sat>9</sat>
      </trkpt>
      <trkpt lat="42.434236" lon="-3.092430">
        <ele>756.5</ele>
        <time>2019-08-22T09:44:31Z</time>
        <sat>9</sat>
      </trkpt>
      <trkpt lat="42.434187" lon="-3.092632">
        <ele>757.6</ele>
        <time>2019-08-22T09:44:44Z</time>
        <sat>9</sat>
      </trkpt>
      <trkpt lat="42.434148" lon="-3.092801">
        <ele>758.8</ele>
        <time>2019-08-22T09:44:56Z</time>
        <sat>9</sat>
      </trkpt>
      <trkpt lat="42.434098" lon="-3.092958">
        <ele>760.3</ele>
        <time>2019-08-22T09:45:08Z</time>
        <sat>9</sat>
      </trkpt>
      <trkpt lat="42.434048" lon="-3.093120">
        <ele>761.7</ele>
        <time>2019-08-22T09:45:21Z</time>
        <sat>9</sat>
      </trkpt>
      <trkpt lat="42.434002" lon="-3.093195">
        <ele>762.3</ele>
        <time>2019-08-22T09:45:27Z</time>
        <sat>9</sat>
      </trkpt>
      <trkpt lat="42.433926" lon="-3.093345">
        <ele>763.5</ele>
        <time>2019-08-22T09:45:39Z</time>
        <sat>9</sat>
      </trkpt>
      <trkpt lat="42.433873" lon="-3.093425">
        <ele>764.2</ele>
        <time>2019-08-22T09:45:46Z</time>
        <sat>9</sat>
      </trkpt>
      <trkpt lat="42.433775" lon="-3.093592">
        <ele>765.2</ele>
        <time>2019-08-22T09:45:59Z</time>
        <sat>9</sat>
      </trkpt>
      <trkpt lat="42.433762" lon="-3.093619">
        <ele>765.4</ele>
        <time>2019-08-22T09:46:01Z</time>
        <sat>9</sat>
      </trkpt>
      <trkpt lat="42.433661" lon="-3.093803">
        <ele>766.4</ele>
        <time>2019-08-22T09:46:15Z</time>
        <sat>9</sat>
      </trkpt>
      <trkpt lat="42.433616" lon="-3.093883">
        <ele>766.7</ele>
        <time>2019-08-22T09:46:21Z</time>
        <sat>9</sat>
      </trkpt>
      <trkpt lat="42.433537" lon="-3.094015">
        <ele>767.3</ele>
        <time>2019-08-22T09:46:31Z</time>
        <sat>9</sat>
      </trkpt>
      <trkpt lat="42.433501" lon="-3.094078">
        <ele>767.7</ele>
        <time>2019-08-22T09:46:36Z</time>
        <sat>9</sat>
      </trkpt>
      <trkpt lat="42.433400" lon="-3.094202">
        <ele>768.6</ele>
        <time>2019-08-22T09:46:47Z</time>
        <sat>9</sat>
      </trkpt>
      <trkpt lat="42.433377" lon="-3.094240">
        <ele>768.7</ele>
        <time>2019-08-22T09:46:50Z</time>
        <sat>9</sat>
      </trkpt>
      <trkpt lat="42.433267" lon="-3.094369">
        <ele>769.5</ele>
        <time>2019-08-22T09:47:02Z</time>
        <sat>8</sat>
      </trkpt>
      <trkpt lat="42.433131" lon="-3.094504">
        <ele>770.1</ele>
        <time>2019-08-22T09:47:16Z</time>
        <sat>9</sat>
      </trkpt>
      <trkpt lat="42.433030" lon="-3.094610">
        <ele>770.7</ele>
        <time>2019-08-22T09:47:27Z</time>
        <sat>9</sat>
      </trkpt>
      <trkpt lat="42.432921" lon="-3.094719">
        <ele>771.3</ele>
        <time>2019-08-22T09:47:38Z</time>
        <sat>9</sat>
      </trkpt>
      <trkpt lat="42.432784" lon="-3.094833">
        <ele>772.0</ele>
        <time>2019-08-22T09:47:51Z</time>
        <sat>7</sat>
      </trkpt>
      <trkpt lat="42.432745" lon="-3.094873">
        <ele>772.2</ele>
        <time>2019-08-22T09:47:55Z</time>
        <sat>7</sat>
      </trkpt>
      <trkpt lat="42.432677" lon="-3.094924">
        <ele>772.5</ele>
        <time>2019-08-22T09:48:01Z</time>
        <sat>9</sat>
      </trkpt>
      <trkpt lat="42.432648" lon="-3.094956">
        <ele>772.6</ele>
        <time>2019-08-22T09:48:04Z</time>
        <sat>8</sat>
      </trkpt>
      <trkpt lat="42.432594" lon="-3.094993">
        <ele>772.7</ele>
        <time>2019-08-22T09:48:09Z</time>
        <sat>8</sat>
      </trkpt>
      <trkpt lat="42.432495" lon="-3.095088">
        <ele>773.2</ele>
        <time>2019-08-22T09:48:19Z</time>
        <sat>8</sat>
      </trkpt>
      <trkpt lat="42.432375" lon="-3.095183">
        <ele>773.6</ele>
        <time>2019-08-22T09:48:30Z</time>
        <sat>8</sat>
      </trkpt>
      <trkpt lat="42.432268" lon="-3.095288">
        <ele>774.1</ele>
        <time>2019-08-22T09:48:41Z</time>
        <sat>8</sat>
      </trkpt>
      <trkpt lat="42.432122" lon="-3.095410">
        <ele>775.1</ele>
        <time>2019-08-22T09:48:55Z</time>
        <sat>9</sat>
      </trkpt>
      <trkpt lat="42.431962" lon="-3.095545">
        <ele>775.9</ele>
        <time>2019-08-22T09:49:10Z</time>
        <sat>8</sat>
      </trkpt>
      <trkpt lat="42.431828" lon="-3.095653">
        <ele>777.0</ele>
        <time>2019-08-22T09:49:23Z</time>
        <sat>9</sat>
      </trkpt>
      <trkpt lat="42.431698" lon="-3.095784">
        <ele>777.9</ele>
        <time>2019-08-22T09:49:36Z</time>
        <sat>9</sat>
      </trkpt>
      <trkpt lat="42.431649" lon="-3.095837">
        <ele>778.3</ele>
        <time>2019-08-22T09:49:41Z</time>
        <sat>9</sat>
      </trkpt>
      <trkpt lat="42.431617" lon="-3.095889">
        <ele>778.5</ele>
        <time>2019-08-22T09:49:45Z</time>
        <sat>9</sat>
      </trkpt>
      <trkpt lat="42.431577" lon="-3.095934">
        <ele>778.9</ele>
        <time>2019-08-22T09:49:49Z</time>
        <sat>9</sat>
      </trkpt>
      <trkpt lat="42.431536" lon="-3.096001">
        <ele>779.2</ele>
        <time>2019-08-22T09:49:54Z</time>
        <sat>8</sat>
      </trkpt>
      <trkpt lat="42.431504" lon="-3.096037">
        <ele>779.4</ele>
        <time>2019-08-22T09:49:57Z</time>
        <sat>10</sat>
      </trkpt>
      <trkpt lat="42.431423" lon="-3.096166">
        <ele>779.8</ele>
        <time>2019-08-22T09:50:07Z</time>
        <sat>10</sat>
      </trkpt>
      <trkpt lat="42.431400" lon="-3.096211">
        <ele>780.0</ele>
        <time>2019-08-22T09:50:10Z</time>
        <sat>10</sat>
      </trkpt>
      <trkpt lat="42.431353" lon="-3.096274">
        <ele>780.3</ele>
        <time>2019-08-22T09:50:15Z</time>
        <sat>10</sat>
      </trkpt>
      <trkpt lat="42.431331" lon="-3.096320">
        <ele>780.4</ele>
        <time>2019-08-22T09:50:18Z</time>
        <sat>10</sat>
      </trkpt>
      <trkpt lat="42.431276" lon="-3.096399">
        <ele>780.5</ele>
        <time>2019-08-22T09:50:24Z</time>
        <sat>10</sat>
      </trkpt>
      <trkpt lat="42.431255" lon="-3.096444">
        <ele>780.7</ele>
        <time>2019-08-22T09:50:27Z</time>
        <sat>10</sat>
      </trkpt>
      <trkpt lat="42.431215" lon="-3.096504">
        <ele>781.0</ele>
        <time>2019-08-22T09:50:32Z</time>
        <sat>10</sat>
      </trkpt>
      <trkpt lat="42.431171" lon="-3.096590">
        <ele>781.4</ele>
        <time>2019-08-22T09:50:38Z</time>
        <sat>10</sat>
      </trkpt>
      <trkpt lat="42.431121" lon="-3.096655">
        <ele>781.7</ele>
        <time>2019-08-22T09:50:43Z</time>
        <sat>10</sat>
      </trkpt>
      <trkpt lat="42.431092" lon="-3.096714">
        <ele>781.9</ele>
        <time>2019-08-22T09:50:47Z</time>
        <sat>10</sat>
      </trkpt>
      <trkpt lat="42.431055" lon="-3.096762">
        <ele>782.1</ele>
        <time>2019-08-22T09:50:51Z</time>
        <sat>10</sat>
      </trkpt>
      <trkpt lat="42.431008" lon="-3.096844">
        <ele>782.2</ele>
        <time>2019-08-22T09:50:57Z</time>
        <sat>10</sat>
      </trkpt>
      <trkpt lat="42.430941" lon="-3.096933">
        <ele>782.5</ele>
        <time>2019-08-22T09:51:04Z</time>
        <sat>10</sat>
      </trkpt>
      <trkpt lat="42.430922" lon="-3.096976">
        <ele>782.6</ele>
        <time>2019-08-22T09:51:07Z</time>
        <sat>10</sat>
      </trkpt>
      <trkpt lat="42.430804" lon="-3.097160">
        <ele>783.1</ele>
        <time>2019-08-22T09:51:22Z</time>
        <sat>10</sat>
      </trkpt>
      <trkpt lat="42.430729" lon="-3.097261">
        <ele>783.5</ele>
        <time>2019-08-22T09:51:31Z</time>
        <sat>10</sat>
      </trkpt>
      <trkpt lat="42.430637" lon="-3.097392">
        <ele>783.8</ele>
        <time>2019-08-22T09:51:43Z</time>
        <sat>10</sat>
      </trkpt>
      <trkpt lat="42.430600" lon="-3.097433">
        <ele>783.9</ele>
        <time>2019-08-22T09:51:47Z</time>
        <sat>10</sat>
      </trkpt>
      <trkpt lat="42.430508" lon="-3.097564">
        <ele>784.1</ele>
        <time>2019-08-22T09:51:58Z</time>
        <sat>10</sat>
      </trkpt>
      <trkpt lat="42.430468" lon="-3.097602">
        <ele>784.3</ele>
        <time>2019-08-22T09:52:02Z</time>
        <sat>10</sat>
      </trkpt>
      <trkpt lat="42.430355" lon="-3.097735">
        <ele>784.6</ele>
        <time>2019-08-22T09:52:14Z</time>
        <sat>10</sat>
      </trkpt>
      <trkpt lat="42.430330" lon="-3.097774">
        <ele>784.7</ele>
        <time>2019-08-22T09:52:17Z</time>
        <sat>10</sat>
      </trkpt>
      <trkpt lat="42.430263" lon="-3.097842">
        <ele>784.9</ele>
        <time>2019-08-22T09:52:23Z</time>
        <sat>10</sat>
      </trkpt>
      <trkpt lat="42.430226" lon="-3.097892">
        <ele>784.9</ele>
        <time>2019-08-22T09:52:27Z</time>
        <sat>10</sat>
      </trkpt>
      <trkpt lat="42.430166" lon="-3.097949">
        <ele>785.1</ele>
        <time>2019-08-22T09:52:33Z</time>
        <sat>10</sat>
      </trkpt>
      <trkpt lat="42.430128" lon="-3.098000">
        <ele>785.2</ele>
        <time>2019-08-22T09:52:37Z</time>
        <sat>10</sat>
      </trkpt>
      <trkpt lat="42.430021" lon="-3.098100">
        <ele>785.4</ele>
        <time>2019-08-22T09:52:47Z</time>
        <sat>10</sat>
      </trkpt>
      <trkpt lat="42.429903" lon="-3.098181">
        <ele>785.7</ele>
        <time>2019-08-22T09:52:58Z</time>
        <sat>10</sat>
      </trkpt>
      <trkpt lat="42.429820" lon="-3.098204">
        <ele>786.0</ele>
        <time>2019-08-22T09:53:07Z</time>
        <sat>10</sat>
      </trkpt>
      <trkpt lat="42.429752" lon="-3.098247">
        <ele>786.2</ele>
        <time>2019-08-22T09:53:13Z</time>
        <sat>10</sat>
      </trkpt>
      <trkpt lat="42.429608" lon="-3.098285">
        <ele>786.7</ele>
        <time>2019-08-22T09:53:25Z</time>
        <sat>10</sat>
      </trkpt>
      <trkpt lat="42.429584" lon="-3.098296">
        <ele>786.8</ele>
        <time>2019-08-22T09:53:27Z</time>
        <sat>10</sat>
      </trkpt>
      <trkpt lat="42.429501" lon="-3.098311">
        <ele>787.0</ele>
        <time>2019-08-22T09:53:34Z</time>
        <sat>10</sat>
      </trkpt>
      <trkpt lat="42.429452" lon="-3.098332">
        <ele>785.9</ele>
        <time>2019-08-22T09:53:38Z</time>
        <sat>10</sat>
      </trkpt>
      <trkpt lat="42.429297" lon="-3.098380">
        <ele>787.9</ele>
        <time>2019-08-22T09:53:51Z</time>
        <sat>10</sat>
      </trkpt>
      <trkpt lat="42.429121" lon="-3.098427">
        <ele>787.8</ele>
        <time>2019-08-22T09:54:05Z</time>
        <sat>10</sat>
      </trkpt>
      <trkpt lat="42.429035" lon="-3.098453">
        <ele>787.8</ele>
        <time>2019-08-22T09:54:12Z</time>
        <sat>10</sat>
      </trkpt>
      <trkpt lat="42.429010" lon="-3.098455">
        <ele>787.8</ele>
        <time>2019-08-22T09:54:14Z</time>
        <sat>10</sat>
      </trkpt>
      <trkpt lat="42.428872" lon="-3.098485">
        <ele>788.2</ele>
        <time>2019-08-22T09:54:25Z</time>
        <sat>10</sat>
      </trkpt>
      <trkpt lat="42.428736" lon="-3.098515">
        <ele>788.4</ele>
        <time>2019-08-22T09:54:36Z</time>
        <sat>10</sat>
      </trkpt>
      <trkpt lat="42.428689" lon="-3.098535">
        <ele>788.6</ele>
        <time>2019-08-22T09:54:40Z</time>
        <sat>9</sat>
      </trkpt>
      <trkpt lat="42.428624" lon="-3.098542">
        <ele>788.6</ele>
        <time>2019-08-22T09:54:45Z</time>
        <sat>10</sat>
      </trkpt>
      <trkpt lat="42.428567" lon="-3.098564">
        <ele>788.6</ele>
        <time>2019-08-22T09:54:50Z</time>
        <sat>10</sat>
      </trkpt>
      <trkpt lat="42.428433" lon="-3.098589">
        <ele>788.1</ele>
        <time>2019-08-22T09:55:01Z</time>
        <sat>10</sat>
      </trkpt>
      <trkpt lat="42.428317" lon="-3.098624">
        <ele>788.7</ele>
        <time>2019-08-22T09:55:10Z</time>
        <sat>9</sat>
      </trkpt>
      <trkpt lat="42.428231" lon="-3.098633">
        <ele>788.2</ele>
        <time>2019-08-22T09:55:17Z</time>
        <sat>9</sat>
      </trkpt>
      <trkpt lat="42.428184" lon="-3.098649">
        <ele>788.3</ele>
        <time>2019-08-22T09:55:21Z</time>
        <sat>9</sat>
      </trkpt>
      <trkpt lat="42.428108" lon="-3.098662">
        <ele>788.5</ele>
        <time>2019-08-22T09:55:27Z</time>
        <sat>9</sat>
      </trkpt>
      <trkpt lat="42.427996" lon="-3.098717">
        <ele>788.9</ele>
        <time>2019-08-22T09:55:37Z</time>
        <sat>9</sat>
      </trkpt>
      <trkpt lat="42.427849" lon="-3.098831">
        <ele>789.4</ele>
        <time>2019-08-22T09:55:51Z</time>
        <sat>9</sat>
      </trkpt>
      <trkpt lat="42.427782" lon="-3.098904">
        <ele>789.3</ele>
        <time>2019-08-22T09:55:59Z</time>
        <sat>10</sat>
      </trkpt>
      <trkpt lat="42.427700" lon="-3.098951">
        <ele>789.3</ele>
        <time>2019-08-22T09:56:08Z</time>
        <sat>9</sat>
      </trkpt>
      <trkpt lat="42.427518" lon="-3.099082">
        <ele>789.7</ele>
        <time>2019-08-22T09:56:25Z</time>
        <sat>10</sat>
      </trkpt>
      <trkpt lat="42.427485" lon="-3.099083">
        <ele>789.9</ele>
        <time>2019-08-22T09:56:29Z</time>
        <sat>10</sat>
      </trkpt>
      <trkpt lat="42.427449" lon="-3.099111">
        <ele>790.0</ele>
        <time>2019-08-22T09:56:48Z</time>
        <sat>10</sat>
      </trkpt>
      <trkpt lat="42.427470" lon="-3.099113">
        <ele>790.0</ele>
        <time>2019-08-22T09:57:31Z</time>
        <sat>9</sat>
      </trkpt>
      <trkpt lat="42.427447" lon="-3.099166">
        <ele>790.4</ele>
        <time>2019-08-22T09:58:01Z</time>
        <sat>8</sat>
      </trkpt>
      <trkpt lat="42.427386" lon="-3.099228">
        <ele>790.6</ele>
        <time>2019-08-22T09:58:08Z</time>
        <sat>9</sat>
      </trkpt>
      <trkpt lat="42.427340" lon="-3.099300">
        <ele>791.0</ele>
        <time>2019-08-22T09:58:16Z</time>
        <sat>8</sat>
      </trkpt>
      <trkpt lat="42.427307" lon="-3.099325">
        <ele>791.3</ele>
        <time>2019-08-22T09:58:22Z</time>
        <sat>9</sat>
      </trkpt>
      <trkpt lat="42.427276" lon="-3.099369">
        <ele>791.5</ele>
        <time>2019-08-22T09:58:28Z</time>
        <sat>9</sat>
      </trkpt>
      <trkpt lat="42.427274" lon="-3.099449">
        <ele>792.0</ele>
        <time>2019-08-22T09:58:36Z</time>
        <sat>8</sat>
      </trkpt>
      <trkpt lat="42.427264" lon="-3.099478">
        <ele>792.1</ele>
        <time>2019-08-22T09:58:42Z</time>
        <sat>8</sat>
      </trkpt>
      <trkpt lat="42.427232" lon="-3.099450">
        <ele>792.1</ele>
        <time>2019-08-22T09:58:45Z</time>
        <sat>8</sat>
      </trkpt>
      <trkpt lat="42.427177" lon="-3.099454">
        <ele>792.5</ele>
        <time>2019-08-22T09:58:52Z</time>
        <sat>8</sat>
      </trkpt>
      <trkpt lat="42.427141" lon="-3.099539">
        <ele>792.9</ele>
        <time>2019-08-22T09:59:03Z</time>
        <sat>9</sat>
      </trkpt>
      <trkpt lat="42.427088" lon="-3.099601">
        <ele>793.5</ele>
        <time>2019-08-22T09:59:11Z</time>
        <sat>10</sat>
      </trkpt>
      <trkpt lat="42.427016" lon="-3.099839">
        <ele>793.7</ele>
        <time>2019-08-22T09:59:25Z</time>
        <sat>10</sat>
      </trkpt>
      <trkpt lat="42.427000" lon="-3.099921">
        <ele>793.9</ele>
        <time>2019-08-22T09:59:30Z</time>
        <sat>9</sat>
      </trkpt>
      <trkpt lat="42.426915" lon="-3.100096">
        <ele>794.2</ele>
        <time>2019-08-22T09:59:43Z</time>
        <sat>9</sat>
      </trkpt>
      <trkpt lat="42.426848" lon="-3.100241">
        <ele>794.6</ele>
        <time>2019-08-22T09:59:54Z</time>
        <sat>8</sat>
      </trkpt>
      <trkpt lat="42.426771" lon="-3.100352">
        <ele>795.0</ele>
        <time>2019-08-22T10:00:05Z</time>
        <sat>8</sat>
      </trkpt>
      <trkpt lat="42.426709" lon="-3.100472">
        <ele>795.0</ele>
        <time>2019-08-22T10:00:13Z</time>
        <sat>9</sat>
      </trkpt>
      <trkpt lat="42.426643" lon="-3.100580">
        <ele>795.1</ele>
        <time>2019-08-22T10:00:21Z</time>
        <sat>9</sat>
      </trkpt>
      <trkpt lat="42.426582" lon="-3.100635">
        <ele>795.3</ele>
        <time>2019-08-22T10:00:27Z</time>
        <sat>9</sat>
      </trkpt>
      <trkpt lat="42.426453" lon="-3.100798">
        <ele>795.8</ele>
        <time>2019-08-22T10:00:42Z</time>
        <sat>9</sat>
      </trkpt>
      <trkpt lat="42.426416" lon="-3.100828">
        <ele>796.1</ele>
        <time>2019-08-22T10:00:46Z</time>
        <sat>8</sat>
      </trkpt>
      <trkpt lat="42.426318" lon="-3.100991">
        <ele>796.7</ele>
        <time>2019-08-22T10:00:57Z</time>
        <sat>8</sat>
      </trkpt>
      <trkpt lat="42.426289" lon="-3.101059">
        <ele>797.0</ele>
        <time>2019-08-22T10:01:02Z</time>
        <sat>8</sat>
      </trkpt>
      <trkpt lat="42.426203" lon="-3.101135">
        <ele>797.8</ele>
        <time>2019-08-22T10:01:15Z</time>
        <sat>9</sat>
      </trkpt>
      <trkpt lat="42.426165" lon="-3.101212">
        <ele>798.2</ele>
        <time>2019-08-22T10:01:24Z</time>
        <sat>9</sat>
      </trkpt>
      <trkpt lat="42.426096" lon="-3.101320">
        <ele>798.9</ele>
        <time>2019-08-22T10:01:45Z</time>
        <sat>9</sat>
      </trkpt>
      <trkpt lat="42.426028" lon="-3.101319">
        <ele>798.9</ele>
        <time>2019-08-22T10:01:51Z</time>
        <sat>9</sat>
      </trkpt>
      <trkpt lat="42.425996" lon="-3.101373">
        <ele>798.9</ele>
        <time>2019-08-22T10:01:55Z</time>
        <sat>8</sat>
      </trkpt>
      <trkpt lat="42.425975" lon="-3.101425">
        <ele>799.0</ele>
        <time>2019-08-22T10:01:58Z</time>
        <sat>10</sat>
      </trkpt>
      <trkpt lat="42.425976" lon="-3.101493">
        <ele>799.0</ele>
        <time>2019-08-22T10:02:04Z</time>
        <sat>10</sat>
      </trkpt>
      <trkpt lat="42.426001" lon="-3.101524">
        <ele>799.3</ele>
        <time>2019-08-22T10:02:09Z</time>
        <sat>10</sat>
      </trkpt>
      <trkpt lat="42.425978" lon="-3.101620">
        <ele>800.9</ele>
        <time>2019-08-22T10:11:04Z</time>
        <sat>11</sat>
      </trkpt>
      <trkpt lat="42.425931" lon="-3.101686">
        <ele>801.2</ele>
        <time>2019-08-22T10:11:12Z</time>
        <sat>11</sat>
      </trkpt>
      <trkpt lat="42.425865" lon="-3.101841">
        <ele>801.8</ele>
        <time>2019-08-22T10:11:27Z</time>
        <sat>10</sat>
      </trkpt>
      <trkpt lat="42.425844" lon="-3.101944">
        <ele>801.9</ele>
        <time>2019-08-22T10:11:35Z</time>
        <sat>11</sat>
      </trkpt>
      <trkpt lat="42.425848" lon="-3.101998">
        <ele>802.0</ele>
        <time>2019-08-22T10:11:39Z</time>
        <sat>11</sat>
      </trkpt>
      <trkpt lat="42.425876" lon="-3.102077">
        <ele>802.1</ele>
        <time>2019-08-22T10:11:46Z</time>
        <sat>11</sat>
      </trkpt>
      <trkpt lat="42.425903" lon="-3.102288">
        <ele>802.7</ele>
        <time>2019-08-22T10:12:00Z</time>
        <sat>11</sat>
      </trkpt>
      <trkpt lat="42.425918" lon="-3.102329">
        <ele>802.8</ele>
        <time>2019-08-22T10:12:03Z</time>
        <sat>11</sat>
      </trkpt>
      <trkpt lat="42.425928" lon="-3.102441">
        <ele>802.8</ele>
        <time>2019-08-22T10:12:10Z</time>
        <sat>12</sat>
      </trkpt>
      <trkpt lat="42.425940" lon="-3.102497">
        <ele>802.9</ele>
        <time>2019-08-22T10:12:14Z</time>
        <sat>12</sat>
      </trkpt>
      <trkpt lat="42.425947" lon="-3.102574">
        <ele>803.1</ele>
        <time>2019-08-22T10:12:19Z</time>
        <sat>10</sat>
      </trkpt>
      <trkpt lat="42.425958" lon="-3.102621">
        <ele>803.2</ele>
        <time>2019-08-22T10:12:22Z</time>
        <sat>10</sat>
      </trkpt>
      <trkpt lat="42.425978" lon="-3.102753">
        <ele>803.5</ele>
        <time>2019-08-22T10:12:32Z</time>
        <sat>10</sat>
      </trkpt>
      <trkpt lat="42.426028" lon="-3.102931">
        <ele>802.9</ele>
        <time>2019-08-22T10:13:30Z</time>
        <sat>12</sat>
      </trkpt>
      <trkpt lat="42.426025" lon="-3.102935">
        <ele>801.5</ele>
        <time>2019-08-22T10:14:11Z</time>
        <sat>12</sat>
      </trkpt>
      <trkpt lat="42.426011" lon="-3.102931">
        <ele>801.4</ele>
        <time>2019-08-22T10:14:17Z</time>
        <sat>12</sat>
      </trkpt>
      <trkpt lat="42.426063" lon="-3.102993">
        <ele>802.1</ele>
        <time>2019-08-22T10:14:30Z</time>
        <sat>11</sat>
      </trkpt>
      <trkpt lat="42.426090" lon="-3.103080">
        <ele>802.3</ele>
        <time>2019-08-22T10:14:36Z</time>
        <sat>12</sat>
      </trkpt>
      <trkpt lat="42.426133" lon="-3.103245">
        <ele>802.8</ele>
        <time>2019-08-22T10:14:49Z</time>
        <sat>12</sat>
      </trkpt>
      <trkpt lat="42.426173" lon="-3.103359">
        <ele>803.1</ele>
        <time>2019-08-22T10:14:59Z</time>
        <sat>10</sat>
      </trkpt>
      <trkpt lat="42.426198" lon="-3.103388">
        <ele>803.2</ele>
        <time>2019-08-22T10:15:05Z</time>
        <sat>10</sat>
      </trkpt>
      <trkpt lat="42.426221" lon="-3.103464">
        <ele>803.2</ele>
        <time>2019-08-22T10:15:12Z</time>
        <sat>11</sat>
      </trkpt>
      <trkpt lat="42.426241" lon="-3.103506">
        <ele>803.2</ele>
        <time>2019-08-22T10:15:16Z</time>
        <sat>11</sat>
      </trkpt>
      <trkpt lat="42.426252" lon="-3.103590">
        <ele>803.1</ele>
        <time>2019-08-22T10:15:20Z</time>
        <sat>11</sat>
      </trkpt>
      <trkpt lat="42.426280" lon="-3.103648">
        <ele>802.8</ele>
        <time>2019-08-22T10:15:24Z</time>
        <sat>11</sat>
      </trkpt>
      <trkpt lat="42.426313" lon="-3.103690">
        <ele>802.4</ele>
        <time>2019-08-22T10:15:30Z</time>
        <sat>12</sat>
      </trkpt>
      <trkpt lat="42.426371" lon="-3.103809">
        <ele>801.9</ele>
        <time>2019-08-22T10:15:46Z</time>
        <sat>11</sat>
      </trkpt>
      <trkpt lat="42.426407" lon="-3.103854">
        <ele>801.4</ele>
        <time>2019-08-22T10:15:56Z</time>
        <sat>11</sat>
      </trkpt>
      <trkpt lat="42.426415" lon="-3.103854">
        <ele>801.5</ele>
        <time>2019-08-22T10:16:16Z</time>
        <sat>10</sat>
      </trkpt>
      <trkpt lat="42.426780" lon="-3.104332">
        <ele>806.3</ele>
        <time>2019-08-22T10:20:47Z</time>
        <sat>10</sat>
      </trkpt>
      <trkpt lat="42.426804" lon="-3.104378">
        <ele>806.3</ele>
        <time>2019-08-22T10:20:50Z</time>
        <sat>10</sat>
      </trkpt>
      <trkpt lat="42.426923" lon="-3.104571">
        <ele>802.5</ele>
        <time>2019-08-22T10:21:04Z</time>
        <sat>11</sat>
      </trkpt>
      <trkpt lat="42.426980" lon="-3.104790">
        <ele>804.7</ele>
        <time>2019-08-22T10:21:17Z</time>
        <sat>11</sat>
      </trkpt>
      <trkpt lat="42.427043" lon="-3.104971">
        <ele>804.1</ele>
        <time>2019-08-22T10:21:28Z</time>
        <sat>11</sat>
      </trkpt>
      <trkpt lat="42.427046" lon="-3.105008">
        <ele>803.5</ele>
        <time>2019-08-22T10:21:30Z</time>
        <sat>11</sat>
      </trkpt>
      <trkpt lat="42.427091" lon="-3.105211">
        <ele>804.3</ele>
        <time>2019-08-22T10:21:41Z</time>
        <sat>10</sat>
      </trkpt>
      <trkpt lat="42.427135" lon="-3.105356">
        <ele>804.7</ele>
        <time>2019-08-22T10:21:49Z</time>
        <sat>10</sat>
      </trkpt>
      <trkpt lat="42.427159" lon="-3.105423">
        <ele>805.0</ele>
        <time>2019-08-22T10:21:53Z</time>
        <sat>10</sat>
      </trkpt>
      <trkpt lat="42.427207" lon="-3.105643">
        <ele>805.6</ele>
        <time>2019-08-22T10:22:05Z</time>
        <sat>10</sat>
      </trkpt>
      <trkpt lat="42.427255" lon="-3.105818">
        <ele>804.9</ele>
        <time>2019-08-22T10:22:14Z</time>
        <sat>10</sat>
      </trkpt>
      <trkpt lat="42.427265" lon="-3.105913">
        <ele>804.4</ele>
        <time>2019-08-22T10:22:19Z</time>
        <sat>11</sat>
      </trkpt>
      <trkpt lat="42.427256" lon="-3.106015">
        <ele>804.0</ele>
        <time>2019-08-22T10:22:24Z</time>
        <sat>11</sat>
      </trkpt>
      <trkpt lat="42.427281" lon="-3.106284">
        <ele>803.2</ele>
        <time>2019-08-22T10:22:37Z</time>
        <sat>11</sat>
      </trkpt>
      <trkpt lat="42.427282" lon="-3.106342">
        <ele>802.9</ele>
        <time>2019-08-22T10:22:40Z</time>
        <sat>11</sat>
      </trkpt>
      <trkpt lat="42.427256" lon="-3.106558">
        <ele>801.9</ele>
        <time>2019-08-22T10:22:52Z</time>
        <sat>11</sat>
      </trkpt>
      <trkpt lat="42.427245" lon="-3.106615">
        <ele>801.6</ele>
        <time>2019-08-22T10:22:55Z</time>
        <sat>11</sat>
      </trkpt>
      <trkpt lat="42.427216" lon="-3.106858">
        <ele>799.9</ele>
        <time>2019-08-22T10:23:08Z</time>
        <sat>12</sat>
      </trkpt>
      <trkpt lat="42.427192" lon="-3.107012">
        <ele>799.5</ele>
        <time>2019-08-22T10:23:17Z</time>
        <sat>12</sat>
      </trkpt>
      <trkpt lat="42.427167" lon="-3.107148">
        <ele>798.7</ele>
        <time>2019-08-22T10:23:24Z</time>
        <sat>12</sat>
      </trkpt>
      <trkpt lat="42.427124" lon="-3.107402">
        <ele>797.2</ele>
        <time>2019-08-22T10:23:38Z</time>
        <sat>12</sat>
      </trkpt>
      <trkpt lat="42.427109" lon="-3.107544">
        <ele>796.5</ele>
        <time>2019-08-22T10:23:45Z</time>
        <sat>12</sat>
      </trkpt>
      <trkpt lat="42.427083" lon="-3.107696">
        <ele>795.8</ele>
        <time>2019-08-22T10:23:53Z</time>
        <sat>12</sat>
      </trkpt>
      <trkpt lat="42.427042" lon="-3.107912">
        <ele>794.4</ele>
        <time>2019-08-22T10:24:05Z</time>
        <sat>12</sat>
      </trkpt>
      <trkpt lat="42.427029" lon="-3.108049">
        <ele>793.5</ele>
        <time>2019-08-22T10:24:12Z</time>
        <sat>12</sat>
      </trkpt>
      <trkpt lat="42.427009" lon="-3.108145">
        <ele>793.1</ele>
        <time>2019-08-22T10:24:18Z</time>
        <sat>12</sat>
      </trkpt>
      <trkpt lat="42.427029" lon="-3.108247">
        <ele>792.2</ele>
        <time>2019-08-22T10:24:30Z</time>
        <sat>12</sat>
      </trkpt>
      <trkpt lat="42.427023" lon="-3.108325">
        <ele>791.8</ele>
        <time>2019-08-22T10:24:37Z</time>
        <sat>11</sat>
      </trkpt>
      <trkpt lat="42.426989" lon="-3.108558">
        <ele>791.1</ele>
        <time>2019-08-22T10:24:49Z</time>
        <sat>12</sat>
      </trkpt>
      <trkpt lat="42.426967" lon="-3.108693">
        <ele>790.5</ele>
        <time>2019-08-22T10:24:56Z</time>
        <sat>12</sat>
      </trkpt>
      <trkpt lat="42.426967" lon="-3.108755">
        <ele>790.3</ele>
        <time>2019-08-22T10:24:59Z</time>
        <sat>12</sat>
      </trkpt>
      <trkpt lat="42.427008" lon="-3.108940">
        <ele>789.3</ele>
        <time>2019-08-22T10:25:09Z</time>
        <sat>11</sat>
      </trkpt>
      <trkpt lat="42.427043" lon="-3.109034">
        <ele>788.6</ele>
        <time>2019-08-22T10:25:15Z</time>
        <sat>12</sat>
      </trkpt>
      <trkpt lat="42.427095" lon="-3.109122">
        <ele>787.3</ele>
        <time>2019-08-22T10:25:21Z</time>
        <sat>11</sat>
      </trkpt>
      <trkpt lat="42.427132" lon="-3.109168">
        <ele>787.4</ele>
        <time>2019-08-22T10:25:38Z</time>
        <sat>11</sat>
      </trkpt>
      <trkpt lat="42.427181" lon="-3.109289">
        <ele>787.0</ele>
        <time>2019-08-22T10:25:46Z</time>
        <sat>12</sat>
      </trkpt>
      <trkpt lat="42.427279" lon="-3.109454">
        <ele>785.8</ele>
        <time>2019-08-22T10:25:57Z</time>
        <sat>12</sat>
      </trkpt>
      <trkpt lat="42.427314" lon="-3.109534">
        <ele>785.5</ele>
        <time>2019-08-22T10:26:02Z</time>
        <sat>12</sat>
      </trkpt>
      <trkpt lat="42.427405" lon="-3.109676">
        <ele>784.7</ele>
        <time>2019-08-22T10:26:12Z</time>
        <sat>12</sat>
      </trkpt>
      <trkpt lat="42.427497" lon="-3.109859">
        <ele>783.7</ele>
        <time>2019-08-22T10:26:24Z</time>
        <sat>12</sat>
      </trkpt>
      <trkpt lat="42.427580" lon="-3.109990">
        <ele>783.0</ele>
        <time>2019-08-22T10:26:33Z</time>
        <sat>12</sat>
      </trkpt>
      <trkpt lat="42.427662" lon="-3.110146">
        <ele>782.3</ele>
        <time>2019-08-22T10:26:43Z</time>
        <sat>12</sat>
      </trkpt>
      <trkpt lat="42.427727" lon="-3.110229">
        <ele>781.8</ele>
        <time>2019-08-22T10:26:49Z</time>
        <sat>12</sat>
      </trkpt>
      <trkpt lat="42.427830" lon="-3.110384">
        <ele>780.8</ele>
        <time>2019-08-22T10:27:00Z</time>
        <sat>11</sat>
      </trkpt>
      <trkpt lat="42.427994" lon="-3.110563">
        <ele>779.6</ele>
        <time>2019-08-22T10:27:15Z</time>
        <sat>12</sat>
      </trkpt>
      <trkpt lat="42.428164" lon="-3.110708">
        <ele>778.5</ele>
        <time>2019-08-22T10:27:29Z</time>
        <sat>12</sat>
      </trkpt>
      <trkpt lat="42.428288" lon="-3.110817">
        <ele>777.8</ele>
        <time>2019-08-22T10:27:39Z</time>
        <sat>12</sat>
      </trkpt>
      <trkpt lat="42.428404" lon="-3.110890">
        <ele>777.5</ele>
        <time>2019-08-22T10:27:48Z</time>
        <sat>12</sat>
      </trkpt>
      <trkpt lat="42.428485" lon="-3.110964">
        <ele>777.3</ele>
        <time>2019-08-22T10:27:55Z</time>
        <sat>12</sat>
      </trkpt>
      <trkpt lat="42.428611" lon="-3.111039">
        <ele>776.6</ele>
        <time>2019-08-22T10:28:05Z</time>
        <sat>12</sat>
      </trkpt>
      <trkpt lat="42.428772" lon="-3.111173">
        <ele>775.8</ele>
        <time>2019-08-22T10:28:18Z</time>
        <sat>10</sat>
      </trkpt>
      <trkpt lat="42.428919" lon="-3.111277">
        <ele>775.0</ele>
        <time>2019-08-22T10:28:30Z</time>
        <sat>12</sat>
      </trkpt>
      <trkpt lat="42.429034" lon="-3.111358">
        <ele>774.0</ele>
        <time>2019-08-22T10:28:39Z</time>
        <sat>11</sat>
      </trkpt>
      <trkpt lat="42.429130" lon="-3.111410">
        <ele>773.1</ele>
        <time>2019-08-22T10:28:46Z</time>
        <sat>11</sat>
      </trkpt>
      <trkpt lat="42.429231" lon="-3.111478">
        <ele>773.0</ele>
        <time>2019-08-22T10:28:54Z</time>
        <sat>11</sat>
      </trkpt>
      <trkpt lat="42.429339" lon="-3.111538">
        <ele>772.7</ele>
        <time>2019-08-22T10:29:02Z</time>
        <sat>11</sat>
      </trkpt>
      <trkpt lat="42.429391" lon="-3.111566">
        <ele>772.5</ele>
        <time>2019-08-22T10:29:06Z</time>
        <sat>10</sat>
      </trkpt>
      <trkpt lat="42.429512" lon="-3.111650">
        <ele>772.0</ele>
        <time>2019-08-22T10:29:15Z</time>
        <sat>11</sat>
      </trkpt>
      <trkpt lat="42.429688" lon="-3.111750">
        <ele>771.3</ele>
        <time>2019-08-22T10:29:28Z</time>
        <sat>11</sat>
      </trkpt>
      <trkpt lat="42.429738" lon="-3.111786">
        <ele>770.9</ele>
        <time>2019-08-22T10:29:32Z</time>
        <sat>11</sat>
      </trkpt>
      <trkpt lat="42.429857" lon="-3.111891">
        <ele>770.5</ele>
        <time>2019-08-22T10:29:42Z</time>
        <sat>10</sat>
      </trkpt>
      <trkpt lat="42.429986" lon="-3.112011">
        <ele>770.4</ele>
        <time>2019-08-22T10:29:53Z</time>
        <sat>10</sat>
      </trkpt>
      <trkpt lat="42.430110" lon="-3.112173">
        <ele>770.5</ele>
        <time>2019-08-22T10:30:05Z</time>
        <sat>11</sat>
      </trkpt>
      <trkpt lat="42.430223" lon="-3.112305">
        <ele>770.7</ele>
        <time>2019-08-22T10:30:21Z</time>
        <sat>10</sat>
      </trkpt>
      <trkpt lat="42.430354" lon="-3.112470">
        <ele>770.5</ele>
        <time>2019-08-22T10:30:39Z</time>
        <sat>10</sat>
      </trkpt>
      <trkpt lat="42.430417" lon="-3.112542">
        <ele>771.1</ele>
        <time>2019-08-22T10:30:46Z</time>
        <sat>10</sat>
      </trkpt>
      <trkpt lat="42.430511" lon="-3.112645">
        <ele>772.1</ele>
        <time>2019-08-22T10:30:58Z</time>
        <sat>10</sat>
      </trkpt>
      <trkpt lat="42.430607" lon="-3.112775">
        <ele>772.6</ele>
        <time>2019-08-22T10:31:09Z</time>
        <sat>10</sat>
      </trkpt>
      <trkpt lat="42.430721" lon="-3.112905">
        <ele>773.1</ele>
        <time>2019-08-22T10:31:21Z</time>
        <sat>10</sat>
      </trkpt>
      <trkpt lat="42.430822" lon="-3.113028">
        <ele>774.0</ele>
        <time>2019-08-22T10:31:33Z</time>
        <sat>10</sat>
      </trkpt>
      <trkpt lat="42.430911" lon="-3.113132">
        <ele>774.7</ele>
        <time>2019-08-22T10:31:43Z</time>
        <sat>10</sat>
      </trkpt>
      <trkpt lat="42.431027" lon="-3.113271">
        <ele>775.5</ele>
        <time>2019-08-22T10:31:56Z</time>
        <sat>10</sat>
      </trkpt>
      <trkpt lat="42.431123" lon="-3.113408">
        <ele>776.0</ele>
        <time>2019-08-22T10:32:08Z</time>
        <sat>10</sat>
      </trkpt>
      <trkpt lat="42.431161" lon="-3.113505">
        <ele>776.6</ele>
        <time>2019-08-22T10:32:15Z</time>
        <sat>11</sat>
      </trkpt>
      <trkpt lat="42.431165" lon="-3.113563">
        <ele>776.8</ele>
        <time>2019-08-22T10:32:19Z</time>
        <sat>11</sat>
      </trkpt>
      <trkpt lat="42.431161" lon="-3.113697">
        <ele>777.2</ele>
        <time>2019-08-22T10:32:28Z</time>
        <sat>10</sat>
      </trkpt>
      <trkpt lat="42.431150" lon="-3.113782">
        <ele>777.4</ele>
        <time>2019-08-22T10:32:33Z</time>
        <sat>12</sat>
      </trkpt>
      <trkpt lat="42.431134" lon="-3.113970">
        <ele>777.7</ele>
        <time>2019-08-22T10:32:45Z</time>
        <sat>11</sat>
      </trkpt>
      <trkpt lat="42.431124" lon="-3.114128">
        <ele>778.1</ele>
        <time>2019-08-22T10:32:55Z</time>
        <sat>11</sat>
      </trkpt>
      <trkpt lat="42.431095" lon="-3.114357">
        <ele>778.4</ele>
        <time>2019-08-22T10:33:09Z</time>
        <sat>11</sat>
      </trkpt>
      <trkpt lat="42.431082" lon="-3.114465">
        <ele>778.8</ele>
        <time>2019-08-22T10:33:16Z</time>
        <sat>11</sat>
      </trkpt>
      <trkpt lat="42.431085" lon="-3.114530">
        <ele>779.0</ele>
        <time>2019-08-22T10:33:20Z</time>
        <sat>10</sat>
      </trkpt>
      <trkpt lat="42.431076" lon="-3.114590">
        <ele>779.1</ele>
        <time>2019-08-22T10:33:24Z</time>
        <sat>11</sat>
      </trkpt>
      <trkpt lat="42.431062" lon="-3.114790">
        <ele>779.9</ele>
        <time>2019-08-22T10:33:37Z</time>
        <sat>10</sat>
      </trkpt>
      <trkpt lat="42.431051" lon="-3.114881">
        <ele>780.2</ele>
        <time>2019-08-22T10:33:43Z</time>
        <sat>11</sat>
      </trkpt>
      <trkpt lat="42.431034" lon="-3.115082">
        <ele>780.9</ele>
        <time>2019-08-22T10:33:56Z</time>
        <sat>11</sat>
      </trkpt>
      <trkpt lat="42.431024" lon="-3.115145">
        <ele>781.2</ele>
        <time>2019-08-22T10:34:00Z</time>
        <sat>12</sat>
      </trkpt>
      <trkpt lat="42.431005" lon="-3.115335">
        <ele>781.7</ele>
        <time>2019-08-22T10:34:12Z</time>
        <sat>11</sat>
      </trkpt>
      <trkpt lat="42.431003" lon="-3.115415">
        <ele>781.7</ele>
        <time>2019-08-22T10:34:17Z</time>
        <sat>10</sat>
      </trkpt>
      <trkpt lat="42.430985" lon="-3.115572">
        <ele>781.9</ele>
        <time>2019-08-22T10:34:27Z</time>
        <sat>11</sat>
      </trkpt>
      <trkpt lat="42.430984" lon="-3.115655">
        <ele>782.0</ele>
        <time>2019-08-22T10:34:32Z</time>
        <sat>11</sat>
      </trkpt>
      <trkpt lat="42.430975" lon="-3.115719">
        <ele>782.2</ele>
        <time>2019-08-22T10:34:36Z</time>
        <sat>11</sat>
      </trkpt>
      <trkpt lat="42.430958" lon="-3.115946">
        <ele>782.5</ele>
        <time>2019-08-22T10:34:50Z</time>
        <sat>11</sat>
      </trkpt>
      <trkpt lat="42.430946" lon="-3.116171">
        <ele>783.0</ele>
        <time>2019-08-22T10:35:04Z</time>
        <sat>11</sat>
      </trkpt>
      <trkpt lat="42.430938" lon="-3.116263">
        <ele>783.4</ele>
        <time>2019-08-22T10:35:10Z</time>
        <sat>11</sat>
      </trkpt>
      <trkpt lat="42.430928" lon="-3.116419">
        <ele>783.8</ele>
        <time>2019-08-22T10:35:20Z</time>
        <sat>12</sat>
      </trkpt>
      <trkpt lat="42.430909" lon="-3.116594">
        <ele>784.1</ele>
        <time>2019-08-22T10:35:31Z</time>
        <sat>11</sat>
      </trkpt>
      <trkpt lat="42.430895" lon="-3.116793">
        <ele>784.3</ele>
        <time>2019-08-22T10:35:44Z</time>
        <sat>11</sat>
      </trkpt>
      <trkpt lat="42.430880" lon="-3.116961">
        <ele>784.9</ele>
        <time>2019-08-22T10:35:55Z</time>
        <sat>12</sat>
      </trkpt>
      <trkpt lat="42.430857" lon="-3.117188">
        <ele>785.6</ele>
        <time>2019-08-22T10:36:10Z</time>
        <sat>12</sat>
      </trkpt>
      <trkpt lat="42.430852" lon="-3.117343">
        <ele>786.1</ele>
        <time>2019-08-22T10:36:20Z</time>
        <sat>12</sat>
      </trkpt>
      <trkpt lat="42.430827" lon="-3.117539">
        <ele>786.7</ele>
        <time>2019-08-22T10:36:32Z</time>
        <sat>12</sat>
      </trkpt>
      <trkpt lat="42.430818" lon="-3.117721">
        <ele>787.5</ele>
        <time>2019-08-22T10:36:49Z</time>
        <sat>11</sat>
      </trkpt>
      <trkpt lat="42.430806" lon="-3.117831">
        <ele>787.7</ele>
        <time>2019-08-22T10:36:58Z</time>
        <sat>12</sat>
      </trkpt>
      <trkpt lat="42.430800" lon="-3.117988">
        <ele>787.9</ele>
        <time>2019-08-22T10:37:08Z</time>
        <sat>11</sat>
      </trkpt>
      <trkpt lat="42.430779" lon="-3.118189">
        <ele>788.6</ele>
        <time>2019-08-22T10:37:56Z</time>
        <sat>11</sat>
      </trkpt>
      <trkpt lat="42.430775" lon="-3.118290">
        <ele>788.7</ele>
        <time>2019-08-22T10:38:06Z</time>
        <sat>12</sat>
      </trkpt>
      <trkpt lat="42.430766" lon="-3.118350">
        <ele>788.8</ele>
        <time>2019-08-22T10:38:10Z</time>
        <sat>12</sat>
      </trkpt>
      <trkpt lat="42.430758" lon="-3.118496">
        <ele>788.6</ele>
        <time>2019-08-22T10:38:19Z</time>
        <sat>12</sat>
      </trkpt>
      <trkpt lat="42.430759" lon="-3.118608">
        <ele>788.9</ele>
        <time>2019-08-22T10:38:26Z</time>
        <sat>12</sat>
      </trkpt>
      <trkpt lat="42.430736" lon="-3.118667">
        <ele>789.9</ele>
        <time>2019-08-22T10:38:30Z</time>
        <sat>12</sat>
      </trkpt>
      <trkpt lat="42.430731" lon="-3.118755">
        <ele>790.4</ele>
        <time>2019-08-22T10:38:36Z</time>
        <sat>12</sat>
      </trkpt>
      <trkpt lat="42.430712" lon="-3.118955">
        <ele>791.2</ele>
        <time>2019-08-22T10:38:49Z</time>
        <sat>12</sat>
      </trkpt>
      <trkpt lat="42.430700" lon="-3.119054">
        <ele>791.4</ele>
        <time>2019-08-22T10:38:55Z</time>
        <sat>12</sat>
      </trkpt>
      <trkpt lat="42.430685" lon="-3.119246">
        <ele>791.7</ele>
        <time>2019-08-22T10:39:07Z</time>
        <sat>12</sat>
      </trkpt>
      <trkpt lat="42.430682" lon="-3.119328">
        <ele>792.0</ele>
        <time>2019-08-22T10:39:12Z</time>
        <sat>12</sat>
      </trkpt>
      <trkpt lat="42.430672" lon="-3.119394">
        <ele>792.2</ele>
        <time>2019-08-22T10:39:16Z</time>
        <sat>12</sat>
      </trkpt>
      <trkpt lat="42.430657" lon="-3.119591">
        <ele>792.8</ele>
        <time>2019-08-22T10:39:28Z</time>
        <sat>12</sat>
      </trkpt>
      <trkpt lat="42.430643" lon="-3.119768">
        <ele>793.3</ele>
        <time>2019-08-22T10:39:39Z</time>
        <sat>12</sat>
      </trkpt>
      <trkpt lat="42.430636" lon="-3.119843">
        <ele>793.6</ele>
        <time>2019-08-22T10:39:44Z</time>
        <sat>12</sat>
      </trkpt>
      <trkpt lat="42.430613" lon="-3.120011">
        <ele>794.5</ele>
        <time>2019-08-22T10:39:54Z</time>
        <sat>12</sat>
      </trkpt>
      <trkpt lat="42.430610" lon="-3.120149">
        <ele>795.3</ele>
        <time>2019-08-22T10:40:03Z</time>
        <sat>12</sat>
      </trkpt>
      <trkpt lat="42.430593" lon="-3.120278">
        <ele>796.1</ele>
        <time>2019-08-22T10:40:11Z</time>
        <sat>12</sat>
      </trkpt>
      <trkpt lat="42.430590" lon="-3.120383">
        <ele>796.5</ele>
        <time>2019-08-22T10:40:18Z</time>
        <sat>12</sat>
      </trkpt>
      <trkpt lat="42.430583" lon="-3.120427">
        <ele>796.7</ele>
        <time>2019-08-22T10:40:21Z</time>
        <sat>12</sat>
      </trkpt>
      <trkpt lat="42.430565" lon="-3.120597">
        <ele>797.5</ele>
        <time>2019-08-22T10:40:32Z</time>
        <sat>12</sat>
      </trkpt>
      <trkpt lat="42.430551" lon="-3.120804">
        <ele>798.3</ele>
        <time>2019-08-22T10:40:45Z</time>
        <sat>11</sat>
      </trkpt>
      <trkpt lat="42.430536" lon="-3.121009">
        <ele>798.8</ele>
        <time>2019-08-22T10:40:58Z</time>
        <sat>12</sat>
      </trkpt>
      <trkpt lat="42.430537" lon="-3.121090">
        <ele>798.9</ele>
        <time>2019-08-22T10:41:03Z</time>
        <sat>12</sat>
      </trkpt>
      <trkpt lat="42.430524" lon="-3.121155">
        <ele>799.1</ele>
        <time>2019-08-22T10:41:07Z</time>
        <sat>12</sat>
      </trkpt>
      <trkpt lat="42.430524" lon="-3.121221">
        <ele>799.2</ele>
        <time>2019-08-22T10:41:11Z</time>
        <sat>12</sat>
      </trkpt>
      <trkpt lat="42.430511" lon="-3.121299">
        <ele>799.3</ele>
        <time>2019-08-22T10:41:16Z</time>
        <sat>12</sat>
      </trkpt>
      <trkpt lat="42.430511" lon="-3.121347">
        <ele>799.4</ele>
        <time>2019-08-22T10:41:19Z</time>
        <sat>11</sat>
      </trkpt>
      <trkpt lat="42.430483" lon="-3.121581">
        <ele>799.3</ele>
        <time>2019-08-22T10:41:33Z</time>
        <sat>12</sat>
      </trkpt>
      <trkpt lat="42.430480" lon="-3.121659">
        <ele>799.3</ele>
        <time>2019-08-22T10:41:38Z</time>
        <sat>12</sat>
      </trkpt>
      <trkpt lat="42.430472" lon="-3.121706">
        <ele>799.3</ele>
        <time>2019-08-22T10:41:41Z</time>
        <sat>12</sat>
      </trkpt>
      <trkpt lat="42.430464" lon="-3.121861">
        <ele>799.2</ele>
        <time>2019-08-22T10:41:51Z</time>
        <sat>12</sat>
      </trkpt>
      <trkpt lat="42.430450" lon="-3.121956">
        <ele>799.3</ele>
        <time>2019-08-22T10:41:57Z</time>
        <sat>12</sat>
      </trkpt>
      <trkpt lat="42.430450" lon="-3.121987">
        <ele>799.4</ele>
        <time>2019-08-22T10:41:59Z</time>
        <sat>12</sat>
      </trkpt>
      <trkpt lat="42.430433" lon="-3.122175">
        <ele>799.7</ele>
        <time>2019-08-22T10:42:11Z</time>
        <sat>12</sat>
      </trkpt>
      <trkpt lat="42.430426" lon="-3.122331">
        <ele>799.8</ele>
        <time>2019-08-22T10:42:21Z</time>
        <sat>12</sat>
      </trkpt>
      <trkpt lat="42.430411" lon="-3.122448">
        <ele>799.8</ele>
        <time>2019-08-22T10:42:28Z</time>
        <sat>12</sat>
      </trkpt>
      <trkpt lat="42.430414" lon="-3.122512">
        <ele>799.9</ele>
        <time>2019-08-22T10:42:32Z</time>
        <sat>12</sat>
      </trkpt>
      <trkpt lat="42.430407" lon="-3.122577">
        <ele>800.0</ele>
        <time>2019-08-22T10:42:36Z</time>
        <sat>12</sat>
      </trkpt>
      <trkpt lat="42.430412" lon="-3.122782">
        <ele>800.1</ele>
        <time>2019-08-22T10:42:49Z</time>
        <sat>12</sat>
      </trkpt>
      <trkpt lat="42.430411" lon="-3.122862">
        <ele>800.0</ele>
        <time>2019-08-22T10:42:54Z</time>
        <sat>12</sat>
      </trkpt>
      <trkpt lat="42.430420" lon="-3.122926">
        <ele>799.8</ele>
        <time>2019-08-22T10:42:58Z</time>
        <sat>12</sat>
      </trkpt>
      <trkpt lat="42.430419" lon="-3.122989">
        <ele>799.7</ele>
        <time>2019-08-22T10:43:02Z</time>
        <sat>12</sat>
      </trkpt>
      <trkpt lat="42.430433" lon="-3.123150">
        <ele>799.5</ele>
        <time>2019-08-22T10:43:12Z</time>
        <sat>12</sat>
      </trkpt>
      <trkpt lat="42.430446" lon="-3.123232">
        <ele>799.4</ele>
        <time>2019-08-22T10:43:17Z</time>
        <sat>11</sat>
      </trkpt>
      <trkpt lat="42.430448" lon="-3.123282">
        <ele>799.4</ele>
        <time>2019-08-22T10:43:20Z</time>
        <sat>12</sat>
      </trkpt>
      <trkpt lat="42.430472" lon="-3.123465">
        <ele>799.2</ele>
        <time>2019-08-22T10:43:31Z</time>
        <sat>11</sat>
      </trkpt>
      <trkpt lat="42.430506" lon="-3.123677">
        <ele>799.0</ele>
        <time>2019-08-22T10:43:44Z</time>
        <sat>11</sat>
      </trkpt>
      <trkpt lat="42.430508" lon="-3.123742">
        <ele>798.9</ele>
        <time>2019-08-22T10:43:48Z</time>
        <sat>12</sat>
      </trkpt>
      <trkpt lat="42.430542" lon="-3.123977">
        <ele>798.1</ele>
        <time>2019-08-22T10:44:03Z</time>
        <sat>11</sat>
      </trkpt>
      <trkpt lat="42.430563" lon="-3.124157">
        <ele>797.3</ele>
        <time>2019-08-22T10:44:14Z</time>
        <sat>11</sat>
      </trkpt>
      <trkpt lat="42.430567" lon="-3.124223">
        <ele>797.0</ele>
        <time>2019-08-22T10:44:18Z</time>
        <sat>11</sat>
      </trkpt>
      <trkpt lat="42.430586" lon="-3.124321">
        <ele>796.4</ele>
        <time>2019-08-22T10:44:24Z</time>
        <sat>11</sat>
      </trkpt>
      <trkpt lat="42.430591" lon="-3.124383">
        <ele>796.0</ele>
        <time>2019-08-22T10:44:28Z</time>
        <sat>11</sat>
      </trkpt>
      <trkpt lat="42.430612" lon="-3.124538">
        <ele>795.0</ele>
        <time>2019-08-22T10:44:38Z</time>
        <sat>12</sat>
      </trkpt>
      <trkpt lat="42.430641" lon="-3.124740">
        <ele>793.9</ele>
        <time>2019-08-22T10:44:51Z</time>
        <sat>12</sat>
      </trkpt>
      <trkpt lat="42.430645" lon="-3.124852">
        <ele>793.4</ele>
        <time>2019-08-22T10:44:58Z</time>
        <sat>12</sat>
      </trkpt>
      <trkpt lat="42.430666" lon="-3.125026">
        <ele>792.7</ele>
        <time>2019-08-22T10:45:09Z</time>
        <sat>11</sat>
      </trkpt>
      <trkpt lat="42.430672" lon="-3.125103">
        <ele>792.6</ele>
        <time>2019-08-22T10:45:14Z</time>
        <sat>11</sat>
      </trkpt>
      <trkpt lat="42.430695" lon="-3.125289">
        <ele>792.2</ele>
        <time>2019-08-22T10:45:26Z</time>
        <sat>12</sat>
      </trkpt>
      <trkpt lat="42.430707" lon="-3.125424">
        <ele>791.9</ele>
        <time>2019-08-22T10:45:34Z</time>
        <sat>11</sat>
      </trkpt>
      <trkpt lat="42.430723" lon="-3.125502">
        <ele>791.7</ele>
        <time>2019-08-22T10:45:39Z</time>
        <sat>12</sat>
      </trkpt>
      <trkpt lat="42.430758" lon="-3.125749">
        <ele>791.3</ele>
        <time>2019-08-22T10:45:54Z</time>
        <sat>11</sat>
      </trkpt>
      <trkpt lat="42.430768" lon="-3.125797">
        <ele>791.3</ele>
        <time>2019-08-22T10:45:57Z</time>
        <sat>11</sat>
      </trkpt>
      <trkpt lat="42.430793" lon="-3.126032">
        <ele>790.7</ele>
        <time>2019-08-22T10:46:11Z</time>
        <sat>10</sat>
      </trkpt>
      <trkpt lat="42.430802" lon="-3.126078">
        <ele>790.7</ele>
        <time>2019-08-22T10:46:14Z</time>
        <sat>10</sat>
      </trkpt>
      <trkpt lat="42.430824" lon="-3.126264">
        <ele>790.9</ele>
        <time>2019-08-22T10:46:26Z</time>
        <sat>10</sat>
      </trkpt>
      <trkpt lat="42.430856" lon="-3.126450">
        <ele>791.4</ele>
        <time>2019-08-22T10:46:38Z</time>
        <sat>12</sat>
      </trkpt>
      <trkpt lat="42.430900" lon="-3.126655">
        <ele>792.0</ele>
        <time>2019-08-22T10:46:52Z</time>
        <sat>10</sat>
      </trkpt>
      <trkpt lat="42.430918" lon="-3.126827">
        <ele>792.7</ele>
        <time>2019-08-22T10:47:03Z</time>
        <sat>10</sat>
      </trkpt>
      <trkpt lat="42.430942" lon="-3.127025">
        <ele>793.4</ele>
        <time>2019-08-22T10:47:15Z</time>
        <sat>10</sat>
      </trkpt>
      <trkpt lat="42.430956" lon="-3.127088">
        <ele>793.5</ele>
        <time>2019-08-22T10:47:19Z</time>
        <sat>12</sat>
      </trkpt>
      <trkpt lat="42.430964" lon="-3.127168">
        <ele>793.7</ele>
        <time>2019-08-22T10:47:24Z</time>
        <sat>11</sat>
      </trkpt>
      <trkpt lat="42.430993" lon="-3.127356">
        <ele>794.0</ele>
        <time>2019-08-22T10:47:36Z</time>
        <sat>11</sat>
      </trkpt>
      <trkpt lat="42.431005" lon="-3.127419">
        <ele>794.1</ele>
        <time>2019-08-22T10:47:40Z</time>
        <sat>12</sat>
      </trkpt>
      <trkpt lat="42.431026" lon="-3.127592">
        <ele>794.7</ele>
        <time>2019-08-22T10:47:51Z</time>
        <sat>12</sat>
      </trkpt>
      <trkpt lat="42.431046" lon="-3.127772">
        <ele>795.7</ele>
        <time>2019-08-22T10:48:03Z</time>
        <sat>12</sat>
      </trkpt>
      <trkpt lat="42.431062" lon="-3.127854">
        <ele>796.1</ele>
        <time>2019-08-22T10:48:09Z</time>
        <sat>12</sat>
      </trkpt>
      <trkpt lat="42.431075" lon="-3.128013">
        <ele>797.2</ele>
        <time>2019-08-22T10:48:20Z</time>
        <sat>12</sat>
      </trkpt>
      <trkpt lat="42.431067" lon="-3.128173">
        <ele>798.5</ele>
        <time>2019-08-22T10:48:31Z</time>
        <sat>12</sat>
      </trkpt>
      <trkpt lat="42.431078" lon="-3.128331">
        <ele>800.6</ele>
        <time>2019-08-22T10:48:48Z</time>
        <sat>12</sat>
      </trkpt>
      <trkpt lat="42.431073" lon="-3.128482">
        <ele>802.0</ele>
        <time>2019-08-22T10:49:01Z</time>
        <sat>12</sat>
      </trkpt>
      <trkpt lat="42.431061" lon="-3.128558">
        <ele>802.6</ele>
        <time>2019-08-22T10:49:07Z</time>
        <sat>12</sat>
      </trkpt>
      <trkpt lat="42.431063" lon="-3.128647">
        <ele>804.1</ele>
        <time>2019-08-22T10:49:25Z</time>
        <sat>12</sat>
      </trkpt>
      <trkpt lat="42.431049" lon="-3.128743">
        <ele>804.3</ele>
        <time>2019-08-22T10:49:32Z</time>
        <sat>12</sat>
      </trkpt>
      <trkpt lat="42.431030" lon="-3.128950">
        <ele>805.5</ele>
        <time>2019-08-22T10:49:46Z</time>
        <sat>12</sat>
      </trkpt>
      <trkpt lat="42.431031" lon="-3.128976">
        <ele>805.7</ele>
        <time>2019-08-22T10:49:48Z</time>
        <sat>12</sat>
      </trkpt>
      <trkpt lat="42.431030" lon="-3.129146">
        <ele>806.5</ele>
        <time>2019-08-22T10:50:41Z</time>
        <sat>12</sat>
      </trkpt>
      <trkpt lat="42.431023" lon="-3.129225">
        <ele>806.3</ele>
        <time>2019-08-22T10:50:46Z</time>
        <sat>12</sat>
      </trkpt>
      <trkpt lat="42.431005" lon="-3.129304">
        <ele>805.9</ele>
        <time>2019-08-22T10:50:51Z</time>
        <sat>12</sat>
      </trkpt>
      <trkpt lat="42.430991" lon="-3.129417">
        <ele>805.6</ele>
        <time>2019-08-22T10:50:58Z</time>
        <sat>12</sat>
      </trkpt>
      <trkpt lat="42.430957" lon="-3.129552">
        <ele>805.4</ele>
        <time>2019-08-22T10:51:07Z</time>
        <sat>12</sat>
      </trkpt>
      <trkpt lat="42.430931" lon="-3.129691">
        <ele>805.6</ele>
        <time>2019-08-22T10:51:16Z</time>
        <sat>12</sat>
      </trkpt>
      <trkpt lat="42.430923" lon="-3.129779">
        <ele>805.7</ele>
        <time>2019-08-22T10:51:22Z</time>
        <sat>12</sat>
      </trkpt>
      <trkpt lat="42.430876" lon="-3.129946">
        <ele>805.7</ele>
        <time>2019-08-22T10:51:35Z</time>
        <sat>12</sat>
      </trkpt>
      <trkpt lat="42.430827" lon="-3.130118">
        <ele>805.4</ele>
        <time>2019-08-22T10:51:46Z</time>
        <sat>12</sat>
      </trkpt>
      <trkpt lat="42.430790" lon="-3.130233">
        <ele>805.2</ele>
        <time>2019-08-22T10:51:54Z</time>
        <sat>12</sat>
      </trkpt>
      <trkpt lat="42.430733" lon="-3.130374">
        <ele>805.1</ele>
        <time>2019-08-22T10:52:04Z</time>
        <sat>12</sat>
      </trkpt>
      <trkpt lat="42.430700" lon="-3.130484">
        <ele>805.2</ele>
        <time>2019-08-22T10:52:11Z</time>
        <sat>12</sat>
      </trkpt>
      <trkpt lat="42.430637" lon="-3.130626">
        <ele>805.1</ele>
        <time>2019-08-22T10:52:21Z</time>
        <sat>12</sat>
      </trkpt>
      <trkpt lat="42.430588" lon="-3.130716">
        <ele>805.0</ele>
        <time>2019-08-22T10:52:27Z</time>
        <sat>12</sat>
      </trkpt>
      <trkpt lat="42.430577" lon="-3.130745">
        <ele>805.0</ele>
        <time>2019-08-22T10:52:29Z</time>
        <sat>12</sat>
      </trkpt>
      <trkpt lat="42.430528" lon="-3.130831">
        <ele>805.3</ele>
        <time>2019-08-22T10:52:35Z</time>
        <sat>12</sat>
      </trkpt>
      <trkpt lat="42.430509" lon="-3.130879">
        <ele>805.3</ele>
        <time>2019-08-22T10:52:38Z</time>
        <sat>12</sat>
      </trkpt>
      <trkpt lat="42.430423" lon="-3.131023">
        <ele>805.4</ele>
        <time>2019-08-22T10:52:49Z</time>
        <sat>12</sat>
      </trkpt>
      <trkpt lat="42.430330" lon="-3.131162">
        <ele>805.4</ele>
        <time>2019-08-22T10:53:00Z</time>
        <sat>12</sat>
      </trkpt>
      <trkpt lat="42.430251" lon="-3.131277">
        <ele>805.5</ele>
        <time>2019-08-22T10:53:09Z</time>
        <sat>12</sat>
      </trkpt>
      <trkpt lat="42.430133" lon="-3.131439">
        <ele>805.8</ele>
        <time>2019-08-22T10:53:23Z</time>
        <sat>12</sat>
      </trkpt>
      <trkpt lat="42.430018" lon="-3.131613">
        <ele>805.7</ele>
        <time>2019-08-22T10:53:37Z</time>
        <sat>12</sat>
      </trkpt>
      <trkpt lat="42.429945" lon="-3.131717">
        <ele>805.3</ele>
        <time>2019-08-22T10:53:46Z</time>
        <sat>12</sat>
      </trkpt>
      <trkpt lat="42.429835" lon="-3.131860">
        <ele>804.4</ele>
        <time>2019-08-22T10:53:59Z</time>
        <sat>12</sat>
      </trkpt>
      <trkpt lat="42.429804" lon="-3.131916">
        <ele>804.1</ele>
        <time>2019-08-22T10:54:03Z</time>
        <sat>12</sat>
      </trkpt>
      <trkpt lat="42.429733" lon="-3.132002">
        <ele>803.5</ele>
        <time>2019-08-22T10:54:11Z</time>
        <sat>12</sat>
      </trkpt>
      <trkpt lat="42.429638" lon="-3.132118">
        <ele>802.5</ele>
        <time>2019-08-22T10:54:21Z</time>
        <sat>12</sat>
      </trkpt>
      <trkpt lat="42.429531" lon="-3.132277">
        <ele>801.5</ele>
        <time>2019-08-22T10:54:34Z</time>
        <sat>12</sat>
      </trkpt>
      <trkpt lat="42.429423" lon="-3.132422">
        <ele>800.3</ele>
        <time>2019-08-22T10:54:47Z</time>
        <sat>11</sat>
      </trkpt>
      <trkpt lat="42.429317" lon="-3.132565">
        <ele>799.1</ele>
        <time>2019-08-22T10:54:59Z</time>
        <sat>12</sat>
      </trkpt>
      <trkpt lat="42.429255" lon="-3.132624">
        <ele>798.6</ele>
        <time>2019-08-22T10:55:05Z</time>
        <sat>12</sat>
      </trkpt>
      <trkpt lat="42.429130" lon="-3.132773">
        <ele>797.9</ele>
        <time>2019-08-22T10:55:18Z</time>
        <sat>12</sat>
      </trkpt>
      <trkpt lat="42.429070" lon="-3.132821">
        <ele>797.6</ele>
        <time>2019-08-22T10:55:24Z</time>
        <sat>11</sat>
      </trkpt>
      <trkpt lat="42.428974" lon="-3.132936">
        <ele>796.4</ele>
        <time>2019-08-22T10:55:34Z</time>
        <sat>12</sat>
      </trkpt>
      <trkpt lat="42.428925" lon="-3.133021">
        <ele>796.7</ele>
        <time>2019-08-22T10:55:40Z</time>
        <sat>12</sat>
      </trkpt>
      <trkpt lat="42.428885" lon="-3.133132">
        <ele>796.6</ele>
        <time>2019-08-22T10:55:47Z</time>
        <sat>12</sat>
      </trkpt>
      <trkpt lat="42.428851" lon="-3.133349">
        <ele>796.1</ele>
        <time>2019-08-22T10:56:01Z</time>
        <sat>11</sat>
      </trkpt>
      <trkpt lat="42.428851" lon="-3.133435">
        <ele>795.9</ele>
        <time>2019-08-22T10:56:06Z</time>
        <sat>12</sat>
      </trkpt>
      <trkpt lat="42.428841" lon="-3.133512">
        <ele>795.8</ele>
        <time>2019-08-22T10:56:11Z</time>
        <sat>12</sat>
      </trkpt>
      <trkpt lat="42.428854" lon="-3.133582">
        <ele>795.7</ele>
        <time>2019-08-22T10:56:15Z</time>
        <sat>12</sat>
      </trkpt>
      <trkpt lat="42.428847" lon="-3.133639">
        <ele>795.7</ele>
        <time>2019-08-22T10:56:18Z</time>
        <sat>12</sat>
      </trkpt>
      <trkpt lat="42.428830" lon="-3.133706">
        <ele>795.7</ele>
        <time>2019-08-22T10:56:22Z</time>
        <sat>12</sat>
      </trkpt>
      <trkpt lat="42.428785" lon="-3.133775">
        <ele>795.6</ele>
        <time>2019-08-22T10:56:36Z</time>
        <sat>12</sat>
      </trkpt>
      <trkpt lat="42.428766" lon="-3.133826">
        <ele>795.5</ele>
        <time>2019-08-22T10:56:39Z</time>
        <sat>12</sat>
      </trkpt>
      <trkpt lat="42.428672" lon="-3.134054">
        <ele>795.0</ele>
        <time>2019-08-22T10:56:52Z</time>
        <sat>12</sat>
      </trkpt>
      <trkpt lat="42.428650" lon="-3.134168">
        <ele>794.9</ele>
        <time>2019-08-22T10:56:58Z</time>
        <sat>12</sat>
      </trkpt>
      <trkpt lat="42.428592" lon="-3.134312">
        <ele>794.7</ele>
        <time>2019-08-22T10:57:07Z</time>
        <sat>12</sat>
      </trkpt>
      <trkpt lat="42.428526" lon="-3.134502">
        <ele>794.9</ele>
        <time>2019-08-22T10:57:19Z</time>
        <sat>12</sat>
      </trkpt>
      <trkpt lat="42.428499" lon="-3.134624">
        <ele>795.1</ele>
        <time>2019-08-22T10:57:28Z</time>
        <sat>12</sat>
      </trkpt>
      <trkpt lat="42.428453" lon="-3.134787">
        <ele>795.5</ele>
        <time>2019-08-22T10:57:38Z</time>
        <sat>12</sat>
      </trkpt>
      <trkpt lat="42.428431" lon="-3.134835">
        <ele>795.6</ele>
        <time>2019-08-22T10:57:41Z</time>
        <sat>12</sat>
      </trkpt>
      <trkpt lat="42.428366" lon="-3.135018">
        <ele>795.8</ele>
        <time>2019-08-22T10:57:52Z</time>
        <sat>12</sat>
      </trkpt>
      <trkpt lat="42.428313" lon="-3.135221">
        <ele>796.1</ele>
        <time>2019-08-22T10:58:04Z</time>
        <sat>12</sat>
      </trkpt>
      <trkpt lat="42.428306" lon="-3.135252">
        <ele>796.2</ele>
        <time>2019-08-22T10:58:06Z</time>
        <sat>12</sat>
      </trkpt>
      <trkpt lat="42.428248" lon="-3.135457">
        <ele>796.4</ele>
        <time>2019-08-22T10:58:19Z</time>
        <sat>12</sat>
      </trkpt>
      <trkpt lat="42.428209" lon="-3.135571">
        <ele>796.5</ele>
        <time>2019-08-22T10:58:26Z</time>
        <sat>12</sat>
      </trkpt>
      <trkpt lat="42.428168" lon="-3.135670">
        <ele>796.7</ele>
        <time>2019-08-22T10:58:33Z</time>
        <sat>11</sat>
      </trkpt>
      <trkpt lat="42.428099" lon="-3.135737">
        <ele>796.8</ele>
        <time>2019-08-22T10:58:41Z</time>
        <sat>12</sat>
      </trkpt>
      <trkpt lat="42.428022" lon="-3.135750">
        <ele>797.1</ele>
        <time>2019-08-22T10:58:49Z</time>
        <sat>11</sat>
      </trkpt>
      <trkpt lat="42.427927" lon="-3.135858">
        <ele>798.8</ele>
        <time>2019-08-22T10:59:11Z</time>
        <sat>11</sat>
      </trkpt>
      <trkpt lat="42.427916" lon="-3.135842">
        <ele>799.1</ele>
        <time>2019-08-22T10:59:19Z</time>
        <sat>10</sat>
      </trkpt>
      <trkpt lat="42.427936" lon="-3.135835">
        <ele>798.1</ele>
        <time>2019-08-22T10:59:30Z</time>
        <sat>10</sat>
      </trkpt>
      <trkpt lat="42.427925" lon="-3.135861">
        <ele>797.3</ele>
        <time>2019-08-22T10:59:42Z</time>
        <sat>11</sat>
      </trkpt>
      <trkpt lat="42.427910" lon="-3.135860">
        <ele>800.7</ele>
        <time>2019-08-22T10:59:51Z</time>
        <sat>11</sat>
      </trkpt>
      <trkpt lat="42.427827" lon="-3.135874">
        <ele>799.5</ele>
        <time>2019-08-22T11:00:03Z</time>
        <sat>12</sat>
      </trkpt>
      <trkpt lat="42.427753" lon="-3.135867">
        <ele>799.3</ele>
        <time>2019-08-22T11:00:08Z</time>
        <sat>10</sat>
      </trkpt>
      <trkpt lat="42.427680" lon="-3.135886">
        <ele>799.3</ele>
        <time>2019-08-22T11:00:12Z</time>
        <sat>11</sat>
      </trkpt>
      <trkpt lat="42.427533" lon="-3.135996">
        <ele>799.5</ele>
        <time>2019-08-22T11:00:25Z</time>
        <sat>11</sat>
      </trkpt>
      <trkpt lat="42.427444" lon="-3.136008">
        <ele>799.8</ele>
        <time>2019-08-22T11:00:33Z</time>
        <sat>11</sat>
      </trkpt>
      <trkpt lat="42.427352" lon="-3.136062">
        <ele>800.0</ele>
        <time>2019-08-22T11:01:11Z</time>
        <sat>10</sat>
      </trkpt>
      <trkpt lat="42.427316" lon="-3.136241">
        <ele>800.0</ele>
        <time>2019-08-22T11:01:52Z</time>
        <sat>11</sat>
      </trkpt>
      <trkpt lat="42.427289" lon="-3.136297">
        <ele>800.3</ele>
        <time>2019-08-22T11:01:56Z</time>
        <sat>12</sat>
      </trkpt>
      <trkpt lat="42.427266" lon="-3.136409">
        <ele>800.5</ele>
        <time>2019-08-22T11:02:00Z</time>
        <sat>12</sat>
      </trkpt>
      <trkpt lat="42.427280" lon="-3.136482">
        <ele>800.8</ele>
        <time>2019-08-22T11:02:04Z</time>
        <sat>12</sat>
      </trkpt>
      <trkpt lat="42.427288" lon="-3.136535">
        <ele>801.1</ele>
        <time>2019-08-22T11:02:08Z</time>
        <sat>11</sat>
      </trkpt>
      <trkpt lat="42.427300" lon="-3.136613">
        <ele>801.4</ele>
        <time>2019-08-22T11:02:12Z</time>
        <sat>12</sat>
      </trkpt>
      <trkpt lat="42.427321" lon="-3.136705">
        <ele>802.1</ele>
        <time>2019-08-22T11:02:23Z</time>
        <sat>11</sat>
      </trkpt>
      <trkpt lat="42.427315" lon="-3.136734">
        <ele>802.6</ele>
        <time>2019-08-22T11:02:29Z</time>
        <sat>11</sat>
      </trkpt>
      <trkpt lat="42.427306" lon="-3.136764">
        <ele>803.2</ele>
        <time>2019-08-22T11:02:53Z</time>
        <sat>12</sat>
      </trkpt>
      <trkpt lat="42.427299" lon="-3.136791">
        <ele>803.1</ele>
        <time>2019-08-22T11:03:03Z</time>
        <sat>12</sat>
      </trkpt>
      <trkpt lat="42.427296" lon="-3.136818">
        <ele>801.0</ele>
        <time>2019-08-22T11:08:40Z</time>
        <sat>11</sat>
      </trkpt>
      <trkpt lat="42.427268" lon="-3.136937">
        <ele>800.3</ele>
        <time>2019-08-22T11:08:53Z</time>
        <sat>11</sat>
      </trkpt>
      <trkpt lat="42.427219" lon="-3.137155">
        <ele>800.6</ele>
        <time>2019-08-22T11:09:47Z</time>
        <sat>11</sat>
      </trkpt>
      <trkpt lat="42.427217" lon="-3.137208">
        <ele>800.5</ele>
        <time>2019-08-22T11:09:50Z</time>
        <sat>11</sat>
      </trkpt>
      <trkpt lat="42.427201" lon="-3.137301">
        <ele>800.5</ele>
        <time>2019-08-22T11:09:57Z</time>
        <sat>11</sat>
      </trkpt>
      <trkpt lat="42.427196" lon="-3.137407">
        <ele>800.4</ele>
        <time>2019-08-22T11:10:04Z</time>
        <sat>11</sat>
      </trkpt>
      <trkpt lat="42.427175" lon="-3.137521">
        <ele>800.4</ele>
        <time>2019-08-22T11:10:12Z</time>
        <sat>11</sat>
      </trkpt>
      <trkpt lat="42.427168" lon="-3.137601">
        <ele>800.4</ele>
        <time>2019-08-22T11:10:17Z</time>
        <sat>11</sat>
      </trkpt>
      <trkpt lat="42.427172" lon="-3.137787">
        <ele>800.0</ele>
        <time>2019-08-22T11:10:28Z</time>
        <sat>11</sat>
      </trkpt>
      <trkpt lat="42.427183" lon="-3.137898">
        <ele>799.6</ele>
        <time>2019-08-22T11:10:35Z</time>
        <sat>11</sat>
      </trkpt>
      <trkpt lat="42.427180" lon="-3.138118">
        <ele>799.0</ele>
        <time>2019-08-22T11:10:48Z</time>
        <sat>11</sat>
      </trkpt>
      <trkpt lat="42.427172" lon="-3.138370">
        <ele>798.5</ele>
        <time>2019-08-22T11:11:03Z</time>
        <sat>11</sat>
      </trkpt>
      <trkpt lat="42.427153" lon="-3.138525">
        <ele>798.4</ele>
        <time>2019-08-22T11:11:12Z</time>
        <sat>11</sat>
      </trkpt>
      <trkpt lat="42.427135" lon="-3.138569">
        <ele>798.3</ele>
        <time>2019-08-22T11:11:15Z</time>
        <sat>11</sat>
      </trkpt>
      <trkpt lat="42.427115" lon="-3.138670">
        <ele>798.2</ele>
        <time>2019-08-22T11:11:21Z</time>
        <sat>11</sat>
      </trkpt>
      <trkpt lat="42.427099" lon="-3.138713">
        <ele>798.1</ele>
        <time>2019-08-22T11:11:24Z</time>
        <sat>11</sat>
      </trkpt>
      <trkpt lat="42.427080" lon="-3.138797">
        <ele>798.2</ele>
        <time>2019-08-22T11:11:29Z</time>
        <sat>11</sat>
      </trkpt>
      <trkpt lat="42.427052" lon="-3.138874">
        <ele>798.3</ele>
        <time>2019-08-22T11:11:34Z</time>
        <sat>11</sat>
      </trkpt>
      <trkpt lat="42.427043" lon="-3.138920">
        <ele>798.4</ele>
        <time>2019-08-22T11:11:37Z</time>
        <sat>11</sat>
      </trkpt>
      <trkpt lat="42.427013" lon="-3.138994">
        <ele>798.6</ele>
        <time>2019-08-22T11:11:42Z</time>
        <sat>11</sat>
      </trkpt>
      <trkpt lat="42.427001" lon="-3.139040">
        <ele>798.8</ele>
        <time>2019-08-22T11:11:45Z</time>
        <sat>11</sat>
      </trkpt>
      <trkpt lat="42.426965" lon="-3.139130">
        <ele>799.0</ele>
        <time>2019-08-22T11:11:51Z</time>
        <sat>11</sat>
      </trkpt>
      <trkpt lat="42.426905" lon="-3.139298">
        <ele>799.1</ele>
        <time>2019-08-22T11:12:02Z</time>
        <sat>11</sat>
      </trkpt>
      <trkpt lat="42.426845" lon="-3.139489">
        <ele>799.1</ele>
        <time>2019-08-22T11:12:14Z</time>
        <sat>11</sat>
      </trkpt>
      <trkpt lat="42.426799" lon="-3.139635">
        <ele>799.0</ele>
        <time>2019-08-22T11:12:23Z</time>
        <sat>11</sat>
      </trkpt>
      <trkpt lat="42.426775" lon="-3.139735">
        <ele>798.9</ele>
        <time>2019-08-22T11:12:29Z</time>
        <sat>11</sat>
      </trkpt>
      <trkpt lat="42.426746" lon="-3.139802">
        <ele>798.8</ele>
        <time>2019-08-22T11:12:34Z</time>
        <sat>10</sat>
      </trkpt>
      <trkpt lat="42.426693" lon="-3.139958">
        <ele>798.5</ele>
        <time>2019-08-22T11:12:44Z</time>
        <sat>10</sat>
      </trkpt>
      <trkpt lat="42.426624" lon="-3.140167">
        <ele>798.2</ele>
        <time>2019-08-22T11:12:57Z</time>
        <sat>10</sat>
      </trkpt>
      <trkpt lat="42.426569" lon="-3.140355">
        <ele>797.8</ele>
        <time>2019-08-22T11:13:09Z</time>
        <sat>10</sat>
      </trkpt>
      <trkpt lat="42.426552" lon="-3.140430">
        <ele>797.7</ele>
        <time>2019-08-22T11:13:14Z</time>
        <sat>10</sat>
      </trkpt>
      <trkpt lat="42.426518" lon="-3.140547">
        <ele>797.6</ele>
        <time>2019-08-22T11:13:24Z</time>
        <sat>10</sat>
      </trkpt>
      <trkpt lat="42.426493" lon="-3.140599">
        <ele>797.5</ele>
        <time>2019-08-22T11:13:28Z</time>
        <sat>10</sat>
      </trkpt>
      <trkpt lat="42.426482" lon="-3.140666">
        <ele>797.5</ele>
        <time>2019-08-22T11:13:32Z</time>
        <sat>10</sat>
      </trkpt>
      <trkpt lat="42.426402" lon="-3.140876">
        <ele>797.6</ele>
        <time>2019-08-22T11:13:46Z</time>
        <sat>10</sat>
      </trkpt>
      <trkpt lat="42.426385" lon="-3.140943">
        <ele>797.7</ele>
        <time>2019-08-22T11:13:50Z</time>
        <sat>10</sat>
      </trkpt>
      <trkpt lat="42.426322" lon="-3.141114">
        <ele>797.8</ele>
        <time>2019-08-22T11:14:01Z</time>
        <sat>10</sat>
      </trkpt>
      <trkpt lat="42.426271" lon="-3.141272">
        <ele>797.8</ele>
        <time>2019-08-22T11:14:11Z</time>
        <sat>10</sat>
      </trkpt>
      <trkpt lat="42.426246" lon="-3.141337">
        <ele>797.8</ele>
        <time>2019-08-22T11:14:15Z</time>
        <sat>10</sat>
      </trkpt>
      <trkpt lat="42.426237" lon="-3.141386">
        <ele>797.8</ele>
        <time>2019-08-22T11:14:18Z</time>
        <sat>10</sat>
      </trkpt>
      <trkpt lat="42.426193" lon="-3.141512">
        <ele>798.0</ele>
        <time>2019-08-22T11:14:26Z</time>
        <sat>10</sat>
      </trkpt>
      <trkpt lat="42.426187" lon="-3.141546">
        <ele>798.0</ele>
        <time>2019-08-22T11:14:28Z</time>
        <sat>10</sat>
      </trkpt>
      <trkpt lat="42.426130" lon="-3.141708">
        <ele>798.1</ele>
        <time>2019-08-22T11:14:38Z</time>
        <sat>10</sat>
      </trkpt>
      <trkpt lat="42.426118" lon="-3.141760">
        <ele>798.2</ele>
        <time>2019-08-22T11:14:41Z</time>
        <sat>10</sat>
      </trkpt>
      <trkpt lat="42.426064" lon="-3.141919">
        <ele>798.3</ele>
        <time>2019-08-22T11:14:51Z</time>
        <sat>10</sat>
      </trkpt>
      <trkpt lat="42.426033" lon="-3.141996">
        <ele>798.5</ele>
        <time>2019-08-22T11:14:56Z</time>
        <sat>10</sat>
      </trkpt>
      <trkpt lat="42.426005" lon="-3.142110">
        <ele>798.5</ele>
        <time>2019-08-22T11:15:03Z</time>
        <sat>10</sat>
      </trkpt>
      <trkpt lat="42.425953" lon="-3.142268">
        <ele>798.7</ele>
        <time>2019-08-22T11:15:13Z</time>
        <sat>10</sat>
      </trkpt>
      <trkpt lat="42.425931" lon="-3.142324">
        <ele>798.8</ele>
        <time>2019-08-22T11:15:17Z</time>
        <sat>10</sat>
      </trkpt>
      <trkpt lat="42.425911" lon="-3.142403">
        <ele>798.8</ele>
        <time>2019-08-22T11:15:22Z</time>
        <sat>10</sat>
      </trkpt>
      <trkpt lat="42.425883" lon="-3.142464">
        <ele>799.0</ele>
        <time>2019-08-22T11:15:26Z</time>
        <sat>10</sat>
      </trkpt>
      <trkpt lat="42.425821" lon="-3.142665">
        <ele>799.2</ele>
        <time>2019-08-22T11:15:39Z</time>
        <sat>10</sat>
      </trkpt>
      <trkpt lat="42.425795" lon="-3.142728">
        <ele>799.3</ele>
        <time>2019-08-22T11:15:43Z</time>
        <sat>10</sat>
      </trkpt>
      <trkpt lat="42.425745" lon="-3.142883">
        <ele>799.4</ele>
        <time>2019-08-22T11:15:53Z</time>
        <sat>10</sat>
      </trkpt>
      <trkpt lat="42.425735" lon="-3.142930">
        <ele>799.4</ele>
        <time>2019-08-22T11:15:56Z</time>
        <sat>10</sat>
      </trkpt>
      <trkpt lat="42.425702" lon="-3.143020">
        <ele>799.6</ele>
        <time>2019-08-22T11:16:02Z</time>
        <sat>10</sat>
      </trkpt>
      <trkpt lat="42.425651" lon="-3.143201">
        <ele>799.7</ele>
        <time>2019-08-22T11:16:14Z</time>
        <sat>10</sat>
      </trkpt>
      <trkpt lat="42.425592" lon="-3.143346">
        <ele>799.9</ele>
        <time>2019-08-22T11:16:24Z</time>
        <sat>10</sat>
      </trkpt>
      <trkpt lat="42.425581" lon="-3.143396">
        <ele>799.9</ele>
        <time>2019-08-22T11:16:27Z</time>
        <sat>10</sat>
      </trkpt>
      <trkpt lat="42.425512" lon="-3.143596">
        <ele>800.3</ele>
        <time>2019-08-22T11:16:40Z</time>
        <sat>10</sat>
      </trkpt>
      <trkpt lat="42.425496" lon="-3.143659">
        <ele>800.5</ele>
        <time>2019-08-22T11:16:44Z</time>
        <sat>9</sat>
      </trkpt>
      <trkpt lat="42.425465" lon="-3.143736">
        <ele>800.7</ele>
        <time>2019-08-22T11:16:49Z</time>
        <sat>10</sat>
      </trkpt>
      <trkpt lat="42.425449" lon="-3.143816">
        <ele>800.8</ele>
        <time>2019-08-22T11:16:54Z</time>
        <sat>10</sat>
      </trkpt>
      <trkpt lat="42.425379" lon="-3.144040">
        <ele>801.4</ele>
        <time>2019-08-22T11:17:08Z</time>
        <sat>10</sat>
      </trkpt>
      <trkpt lat="42.425314" lon="-3.144216">
        <ele>801.9</ele>
        <time>2019-08-22T11:17:20Z</time>
        <sat>10</sat>
      </trkpt>
      <trkpt lat="42.425266" lon="-3.144397">
        <ele>802.5</ele>
        <time>2019-08-22T11:17:32Z</time>
        <sat>10</sat>
      </trkpt>
      <trkpt lat="42.425211" lon="-3.144546">
        <ele>803.0</ele>
        <time>2019-08-22T11:17:42Z</time>
        <sat>10</sat>
      </trkpt>
      <trkpt lat="42.425202" lon="-3.144606">
        <ele>801.0</ele>
        <time>2019-08-22T11:17:51Z</time>
        <sat>9</sat>
      </trkpt>
      <trkpt lat="42.425145" lon="-3.144777">
        <ele>804.8</ele>
        <time>2019-08-22T11:18:02Z</time>
        <sat>10</sat>
      </trkpt>
      <trkpt lat="42.425118" lon="-3.144838">
        <ele>804.8</ele>
        <time>2019-08-22T11:18:06Z</time>
        <sat>10</sat>
      </trkpt>
      <trkpt lat="42.425091" lon="-3.144934">
        <ele>804.7</ele>
        <time>2019-08-22T11:18:12Z</time>
        <sat>10</sat>
      </trkpt>
      <trkpt lat="42.425060" lon="-3.145010">
        <ele>804.5</ele>
        <time>2019-08-22T11:18:17Z</time>
        <sat>10</sat>
      </trkpt>
      <trkpt lat="42.425044" lon="-3.145074">
        <ele>804.4</ele>
        <time>2019-08-22T11:18:21Z</time>
        <sat>10</sat>
      </trkpt>
      <trkpt lat="42.425017" lon="-3.145137">
        <ele>804.5</ele>
        <time>2019-08-22T11:18:25Z</time>
        <sat>10</sat>
      </trkpt>
      <trkpt lat="42.425001" lon="-3.145200">
        <ele>804.5</ele>
        <time>2019-08-22T11:18:29Z</time>
        <sat>10</sat>
      </trkpt>
      <trkpt lat="42.424947" lon="-3.145369">
        <ele>804.6</ele>
        <time>2019-08-22T11:18:40Z</time>
        <sat>10</sat>
      </trkpt>
      <trkpt lat="42.424867" lon="-3.145592">
        <ele>804.9</ele>
        <time>2019-08-22T11:18:55Z</time>
        <sat>10</sat>
      </trkpt>
      <trkpt lat="42.424843" lon="-3.145651">
        <ele>805.0</ele>
        <time>2019-08-22T11:18:59Z</time>
        <sat>10</sat>
      </trkpt>
      <trkpt lat="42.424794" lon="-3.145818">
        <ele>805.2</ele>
        <time>2019-08-22T11:19:10Z</time>
        <sat>10</sat>
      </trkpt>
      <trkpt lat="42.424762" lon="-3.145895">
        <ele>805.3</ele>
        <time>2019-08-22T11:19:15Z</time>
        <sat>10</sat>
      </trkpt>
      <trkpt lat="42.424692" lon="-3.146136">
        <ele>805.5</ele>
        <time>2019-08-22T11:19:30Z</time>
        <sat>10</sat>
      </trkpt>
      <trkpt lat="42.424661" lon="-3.146209">
        <ele>805.5</ele>
        <time>2019-08-22T11:19:35Z</time>
        <sat>10</sat>
      </trkpt>
      <trkpt lat="42.424651" lon="-3.146259">
        <ele>805.6</ele>
        <time>2019-08-22T11:19:38Z</time>
        <sat>10</sat>
      </trkpt>
      <trkpt lat="42.424596" lon="-3.146424">
        <ele>805.8</ele>
        <time>2019-08-22T11:19:49Z</time>
        <sat>10</sat>
      </trkpt>
      <trkpt lat="42.424568" lon="-3.146486">
        <ele>806.0</ele>
        <time>2019-08-22T11:19:53Z</time>
        <sat>10</sat>
      </trkpt>
      <trkpt lat="42.424539" lon="-3.146579">
        <ele>806.1</ele>
        <time>2019-08-22T11:19:59Z</time>
        <sat>10</sat>
      </trkpt>
      <trkpt lat="42.424480" lon="-3.146750">
        <ele>806.3</ele>
        <time>2019-08-22T11:20:10Z</time>
        <sat>10</sat>
      </trkpt>
      <trkpt lat="42.424445" lon="-3.146875">
        <ele>806.5</ele>
        <time>2019-08-22T11:20:20Z</time>
        <sat>10</sat>
      </trkpt>
      <trkpt lat="42.424396" lon="-3.147019">
        <ele>806.6</ele>
        <time>2019-08-22T11:20:29Z</time>
        <sat>10</sat>
      </trkpt>
      <trkpt lat="42.424363" lon="-3.147094">
        <ele>806.7</ele>
        <time>2019-08-22T11:20:34Z</time>
        <sat>10</sat>
      </trkpt>
      <trkpt lat="42.424302" lon="-3.147269">
        <ele>806.9</ele>
        <time>2019-08-22T11:20:45Z</time>
        <sat>10</sat>
      </trkpt>
      <trkpt lat="42.424278" lon="-3.147369">
        <ele>806.9</ele>
        <time>2019-08-22T11:20:51Z</time>
        <sat>10</sat>
      </trkpt>
      <trkpt lat="42.424247" lon="-3.147447">
        <ele>807.0</ele>
        <time>2019-08-22T11:20:56Z</time>
        <sat>10</sat>
      </trkpt>
      <trkpt lat="42.424231" lon="-3.147513">
        <ele>807.1</ele>
        <time>2019-08-22T11:21:00Z</time>
        <sat>10</sat>
      </trkpt>
      <trkpt lat="42.424166" lon="-3.147684">
        <ele>807.3</ele>
        <time>2019-08-22T11:21:12Z</time>
        <sat>10</sat>
      </trkpt>
      <trkpt lat="42.424097" lon="-3.147890">
        <ele>807.6</ele>
        <time>2019-08-22T11:21:26Z</time>
        <sat>10</sat>
      </trkpt>
      <trkpt lat="42.424028" lon="-3.148092">
        <ele>807.9</ele>
        <time>2019-08-22T11:21:40Z</time>
        <sat>10</sat>
      </trkpt>
      <trkpt lat="42.423978" lon="-3.148250">
        <ele>808.2</ele>
        <time>2019-08-22T11:21:51Z</time>
        <sat>10</sat>
      </trkpt>
      <trkpt lat="42.423947" lon="-3.148350">
        <ele>808.4</ele>
        <time>2019-08-22T11:21:58Z</time>
        <sat>10</sat>
      </trkpt>
      <trkpt lat="42.423928" lon="-3.148393">
        <ele>808.5</ele>
        <time>2019-08-22T11:22:01Z</time>
        <sat>9</sat>
      </trkpt>
      <trkpt lat="42.423875" lon="-3.148593">
        <ele>808.8</ele>
        <time>2019-08-22T11:22:15Z</time>
        <sat>10</sat>
      </trkpt>
      <trkpt lat="42.423844" lon="-3.148695">
        <ele>809.0</ele>
        <time>2019-08-22T11:22:22Z</time>
        <sat>10</sat>
      </trkpt>
      <trkpt lat="42.423829" lon="-3.148725">
        <ele>809.1</ele>
        <time>2019-08-22T11:22:24Z</time>
        <sat>10</sat>
      </trkpt>
      <trkpt lat="42.423769" lon="-3.148912">
        <ele>809.7</ele>
        <time>2019-08-22T11:22:40Z</time>
        <sat>10</sat>
      </trkpt>
      <trkpt lat="42.423710" lon="-3.149072">
        <ele>809.9</ele>
        <time>2019-08-22T11:22:51Z</time>
        <sat>10</sat>
      </trkpt>
      <trkpt lat="42.423690" lon="-3.149149">
        <ele>810.1</ele>
        <time>2019-08-22T11:22:56Z</time>
        <sat>10</sat>
      </trkpt>
      <trkpt lat="42.423620" lon="-3.149333">
        <ele>810.3</ele>
        <time>2019-08-22T11:23:09Z</time>
        <sat>10</sat>
      </trkpt>
      <trkpt lat="42.423599" lon="-3.149416">
        <ele>810.4</ele>
        <time>2019-08-22T11:23:15Z</time>
        <sat>10</sat>
      </trkpt>
      <trkpt lat="42.423572" lon="-3.149471">
        <ele>810.6</ele>
        <time>2019-08-22T11:23:19Z</time>
        <sat>10</sat>
      </trkpt>
      <trkpt lat="42.423555" lon="-3.149562">
        <ele>810.9</ele>
        <time>2019-08-22T11:23:25Z</time>
        <sat>10</sat>
      </trkpt>
      <trkpt lat="42.423529" lon="-3.149622">
        <ele>810.9</ele>
        <time>2019-08-22T11:23:29Z</time>
        <sat>10</sat>
      </trkpt>
      <trkpt lat="42.423487" lon="-3.149777">
        <ele>811.1</ele>
        <time>2019-08-22T11:23:39Z</time>
        <sat>10</sat>
      </trkpt>
      <trkpt lat="42.423460" lon="-3.149835">
        <ele>811.2</ele>
        <time>2019-08-22T11:23:43Z</time>
        <sat>10</sat>
      </trkpt>
      <trkpt lat="42.423403" lon="-3.150021">
        <ele>811.4</ele>
        <time>2019-08-22T11:23:55Z</time>
        <sat>10</sat>
      </trkpt>
      <trkpt lat="42.423348" lon="-3.150174">
        <ele>811.8</ele>
        <time>2019-08-22T11:24:05Z</time>
        <sat>10</sat>
      </trkpt>
      <trkpt lat="42.423276" lon="-3.150391">
        <ele>812.1</ele>
        <time>2019-08-22T11:24:20Z</time>
        <sat>9</sat>
      </trkpt>
      <trkpt lat="42.423247" lon="-3.150482">
        <ele>812.1</ele>
        <time>2019-08-22T11:24:26Z</time>
        <sat>10</sat>
      </trkpt>
      <trkpt lat="42.423182" lon="-3.150668">
        <ele>812.2</ele>
        <time>2019-08-22T11:24:39Z</time>
        <sat>10</sat>
      </trkpt>
      <trkpt lat="42.423132" lon="-3.150836">
        <ele>812.4</ele>
        <time>2019-08-22T11:24:50Z</time>
        <sat>10</sat>
      </trkpt>
      <trkpt lat="42.423070" lon="-3.151009">
        <ele>812.5</ele>
        <time>2019-08-22T11:25:02Z</time>
        <sat>10</sat>
      </trkpt>
      <trkpt lat="42.423043" lon="-3.151109">
        <ele>812.8</ele>
        <time>2019-08-22T11:25:09Z</time>
        <sat>10</sat>
      </trkpt>
      <trkpt lat="42.423014" lon="-3.151176">
        <ele>813.0</ele>
        <time>2019-08-22T11:25:14Z</time>
        <sat>10</sat>
      </trkpt>
      <trkpt lat="42.422936" lon="-3.151386">
        <ele>813.1</ele>
        <time>2019-08-22T11:25:29Z</time>
        <sat>9</sat>
      </trkpt>
      <trkpt lat="42.422902" lon="-3.151492">
        <ele>813.2</ele>
        <time>2019-08-22T11:25:36Z</time>
        <sat>9</sat>
      </trkpt>
      <trkpt lat="42.422835" lon="-3.151651">
        <ele>813.4</ele>
        <time>2019-08-22T11:25:47Z</time>
        <sat>9</sat>
      </trkpt>
      <trkpt lat="42.422823" lon="-3.151700">
        <ele>813.5</ele>
        <time>2019-08-22T11:25:50Z</time>
        <sat>10</sat>
      </trkpt>
      <trkpt lat="42.422753" lon="-3.151870">
        <ele>813.5</ele>
        <time>2019-08-22T11:26:02Z</time>
        <sat>10</sat>
      </trkpt>
      <trkpt lat="42.422706" lon="-3.152031">
        <ele>813.9</ele>
        <time>2019-08-22T11:26:14Z</time>
        <sat>10</sat>
      </trkpt>
      <trkpt lat="42.422682" lon="-3.152090">
        <ele>814.3</ele>
        <time>2019-08-22T11:26:18Z</time>
        <sat>10</sat>
      </trkpt>
      <trkpt lat="42.422661" lon="-3.152200">
        <ele>814.9</ele>
        <time>2019-08-22T11:26:25Z</time>
        <sat>10</sat>
      </trkpt>
      <trkpt lat="42.422607" lon="-3.152363">
        <ele>815.7</ele>
        <time>2019-08-22T11:26:37Z</time>
        <sat>10</sat>
      </trkpt>
      <trkpt lat="42.422570" lon="-3.152533">
        <ele>815.7</ele>
        <time>2019-08-22T11:26:55Z</time>
        <sat>10</sat>
      </trkpt>
      <trkpt lat="42.422533" lon="-3.152600">
        <ele>815.6</ele>
        <time>2019-08-22T11:27:00Z</time>
        <sat>10</sat>
      </trkpt>
      <trkpt lat="42.422501" lon="-3.152756">
        <ele>815.7</ele>
        <time>2019-08-22T11:27:10Z</time>
        <sat>10</sat>
      </trkpt>
      <trkpt lat="42.422466" lon="-3.152859">
        <ele>815.8</ele>
        <time>2019-08-22T11:27:17Z</time>
        <sat>10</sat>
      </trkpt>
      <trkpt lat="42.422452" lon="-3.152919">
        <ele>815.8</ele>
        <time>2019-08-22T11:27:21Z</time>
        <sat>9</sat>
      </trkpt>
      <trkpt lat="42.422433" lon="-3.152978">
        <ele>815.9</ele>
        <time>2019-08-22T11:27:25Z</time>
        <sat>9</sat>
      </trkpt>
      <trkpt lat="42.422415" lon="-3.153072">
        <ele>815.9</ele>
        <time>2019-08-22T11:27:31Z</time>
        <sat>10</sat>
      </trkpt>
      <trkpt lat="42.422389" lon="-3.153137">
        <ele>816.0</ele>
        <time>2019-08-22T11:27:35Z</time>
        <sat>10</sat>
      </trkpt>
      <trkpt lat="42.422379" lon="-3.153185">
        <ele>816.1</ele>
        <time>2019-08-22T11:27:38Z</time>
        <sat>10</sat>
      </trkpt>
      <trkpt lat="42.422346" lon="-3.153275">
        <ele>816.2</ele>
        <time>2019-08-22T11:27:44Z</time>
        <sat>9</sat>
      </trkpt>
      <trkpt lat="42.422339" lon="-3.153306">
        <ele>816.3</ele>
        <time>2019-08-22T11:27:46Z</time>
        <sat>10</sat>
      </trkpt>
      <trkpt lat="42.422264" lon="-3.153502">
        <ele>816.7</ele>
        <time>2019-08-22T11:27:59Z</time>
        <sat>10</sat>
      </trkpt>
      <trkpt lat="42.422252" lon="-3.153549">
        <ele>816.8</ele>
        <time>2019-08-22T11:28:02Z</time>
        <sat>10</sat>
      </trkpt>
      <trkpt lat="42.422186" lon="-3.153724">
        <ele>817.1</ele>
        <time>2019-08-22T11:28:14Z</time>
        <sat>10</sat>
      </trkpt>
      <trkpt lat="42.422145" lon="-3.153870">
        <ele>817.3</ele>
        <time>2019-08-22T11:28:24Z</time>
        <sat>10</sat>
      </trkpt>
      <trkpt lat="42.422081" lon="-3.154068">
        <ele>817.5</ele>
        <time>2019-08-22T11:28:37Z</time>
        <sat>9</sat>
      </trkpt>
      <trkpt lat="42.422052" lon="-3.154143">
        <ele>817.7</ele>
        <time>2019-08-22T11:28:42Z</time>
        <sat>10</sat>
      </trkpt>
      <trkpt lat="42.422009" lon="-3.154302">
        <ele>818.2</ele>
        <time>2019-08-22T11:28:53Z</time>
        <sat>10</sat>
      </trkpt>
      <trkpt lat="42.421984" lon="-3.154359">
        <ele>818.3</ele>
        <time>2019-08-22T11:28:57Z</time>
        <sat>10</sat>
      </trkpt>
      <trkpt lat="42.421971" lon="-3.154419">
        <ele>818.4</ele>
        <time>2019-08-22T11:29:01Z</time>
        <sat>10</sat>
      </trkpt>
      <trkpt lat="42.421915" lon="-3.154572">
        <ele>818.9</ele>
        <time>2019-08-22T11:29:11Z</time>
        <sat>10</sat>
      </trkpt>
      <trkpt lat="42.421853" lon="-3.154770">
        <ele>819.7</ele>
        <time>2019-08-22T11:29:24Z</time>
        <sat>10</sat>
      </trkpt>
      <trkpt lat="42.421838" lon="-3.154801">
        <ele>819.8</ele>
        <time>2019-08-22T11:29:26Z</time>
        <sat>10</sat>
      </trkpt>
      <trkpt lat="42.421781" lon="-3.154994">
        <ele>820.3</ele>
        <time>2019-08-22T11:29:38Z</time>
        <sat>11</sat>
      </trkpt>
      <trkpt lat="42.421767" lon="-3.155057">
        <ele>820.4</ele>
        <time>2019-08-22T11:29:42Z</time>
        <sat>11</sat>
      </trkpt>
      <trkpt lat="42.421713" lon="-3.155212">
        <ele>820.8</ele>
        <time>2019-08-22T11:29:53Z</time>
        <sat>11</sat>
      </trkpt>
      <trkpt lat="42.421653" lon="-3.155408">
        <ele>821.1</ele>
        <time>2019-08-22T11:30:06Z</time>
        <sat>11</sat>
      </trkpt>
      <trkpt lat="42.421639" lon="-3.155441">
        <ele>821.2</ele>
        <time>2019-08-22T11:30:09Z</time>
        <sat>11</sat>
      </trkpt>
      <trkpt lat="42.421630" lon="-3.155480">
        <ele>821.5</ele>
        <time>2019-08-22T11:30:18Z</time>
        <sat>10</sat>
      </trkpt>
      <trkpt lat="42.421599" lon="-3.155526">
        <ele>821.4</ele>
        <time>2019-08-22T11:30:27Z</time>
        <sat>11</sat>
      </trkpt>
      <trkpt lat="42.421557" lon="-3.155690">
        <ele>821.6</ele>
        <time>2019-08-22T11:30:38Z</time>
        <sat>11</sat>
      </trkpt>
      <trkpt lat="42.421520" lon="-3.155769">
        <ele>821.6</ele>
        <time>2019-08-22T11:30:47Z</time>
        <sat>11</sat>
      </trkpt>
      <trkpt lat="42.421504" lon="-3.155839">
        <ele>821.6</ele>
        <time>2019-08-22T11:30:51Z</time>
        <sat>11</sat>
      </trkpt>
      <trkpt lat="42.421455" lon="-3.155961">
        <ele>821.7</ele>
        <time>2019-08-22T11:30:59Z</time>
        <sat>11</sat>
      </trkpt>
      <trkpt lat="42.421444" lon="-3.156027">
        <ele>821.9</ele>
        <time>2019-08-22T11:31:03Z</time>
        <sat>11</sat>
      </trkpt>
      <trkpt lat="42.421411" lon="-3.156119">
        <ele>822.2</ele>
        <time>2019-08-22T11:31:09Z</time>
        <sat>11</sat>
      </trkpt>
      <trkpt lat="42.421384" lon="-3.156237">
        <ele>822.2</ele>
        <time>2019-08-22T11:31:16Z</time>
        <sat>11</sat>
      </trkpt>
      <trkpt lat="42.421351" lon="-3.156316">
        <ele>822.3</ele>
        <time>2019-08-22T11:31:21Z</time>
        <sat>11</sat>
      </trkpt>
      <trkpt lat="42.421325" lon="-3.156415">
        <ele>822.4</ele>
        <time>2019-08-22T11:31:27Z</time>
        <sat>11</sat>
      </trkpt>
      <trkpt lat="42.421304" lon="-3.156464">
        <ele>822.5</ele>
        <time>2019-08-22T11:31:30Z</time>
        <sat>11</sat>
      </trkpt>
      <trkpt lat="42.421274" lon="-3.156581">
        <ele>822.6</ele>
        <time>2019-08-22T11:31:37Z</time>
        <sat>11</sat>
      </trkpt>
      <trkpt lat="42.421188" lon="-3.156804">
        <ele>823.0</ele>
        <time>2019-08-22T11:31:52Z</time>
        <sat>11</sat>
      </trkpt>
      <trkpt lat="42.421126" lon="-3.157006">
        <ele>823.0</ele>
        <time>2019-08-22T11:32:05Z</time>
        <sat>11</sat>
      </trkpt>
      <trkpt lat="42.421103" lon="-3.157062">
        <ele>822.9</ele>
        <time>2019-08-22T11:32:09Z</time>
        <sat>11</sat>
      </trkpt>
      <trkpt lat="42.421088" lon="-3.157128">
        <ele>823.0</ele>
        <time>2019-08-22T11:32:13Z</time>
        <sat>11</sat>
      </trkpt>
      <trkpt lat="42.421051" lon="-3.157224">
        <ele>823.0</ele>
        <time>2019-08-22T11:32:20Z</time>
        <sat>11</sat>
      </trkpt>
      <trkpt lat="42.421035" lon="-3.157286">
        <ele>823.0</ele>
        <time>2019-08-22T11:32:24Z</time>
        <sat>11</sat>
      </trkpt>
      <trkpt lat="42.420975" lon="-3.157460">
        <ele>823.2</ele>
        <time>2019-08-22T11:32:35Z</time>
        <sat>11</sat>
      </trkpt>
      <trkpt lat="42.420912" lon="-3.157647">
        <ele>823.4</ele>
        <time>2019-08-22T11:32:47Z</time>
        <sat>11</sat>
      </trkpt>
      <trkpt lat="42.420875" lon="-3.157741">
        <ele>823.6</ele>
        <time>2019-08-22T11:32:53Z</time>
        <sat>11</sat>
      </trkpt>
      <trkpt lat="42.420811" lon="-3.157883">
        <ele>824.0</ele>
        <time>2019-08-22T11:33:03Z</time>
        <sat>11</sat>
      </trkpt>
      <trkpt lat="42.420803" lon="-3.157941">
        <ele>824.2</ele>
        <time>2019-08-22T11:33:17Z</time>
        <sat>11</sat>
      </trkpt>
      <trkpt lat="42.420780" lon="-3.158021">
        <ele>823.6</ele>
        <time>2019-08-22T11:33:24Z</time>
        <sat>10</sat>
      </trkpt>
      <trkpt lat="42.420743" lon="-3.158196">
        <ele>824.7</ele>
        <time>2019-08-22T11:33:53Z</time>
        <sat>11</sat>
      </trkpt>
      <trkpt lat="42.420707" lon="-3.158270">
        <ele>824.4</ele>
        <time>2019-08-22T11:34:07Z</time>
        <sat>10</sat>
      </trkpt>
      <trkpt lat="42.420657" lon="-3.158451">
        <ele>824.3</ele>
        <time>2019-08-22T11:34:23Z</time>
        <sat>11</sat>
      </trkpt>
      <trkpt lat="42.420646" lon="-3.158526">
        <ele>824.6</ele>
        <time>2019-08-22T11:34:51Z</time>
        <sat>11</sat>
      </trkpt>
      <trkpt lat="42.420635" lon="-3.158564">
        <ele>824.6</ele>
        <time>2019-08-22T11:34:54Z</time>
        <sat>11</sat>
      </trkpt>
      <trkpt lat="42.420560" lon="-3.158786">
        <ele>824.5</ele>
        <time>2019-08-22T11:35:08Z</time>
        <sat>11</sat>
      </trkpt>
      <trkpt lat="42.420506" lon="-3.158981">
        <ele>824.5</ele>
        <time>2019-08-22T11:35:20Z</time>
        <sat>11</sat>
      </trkpt>
      <trkpt lat="42.420496" lon="-3.159033">
        <ele>824.5</ele>
        <time>2019-08-22T11:35:23Z</time>
        <sat>11</sat>
      </trkpt>
      <trkpt lat="42.420447" lon="-3.159220">
        <ele>824.6</ele>
        <time>2019-08-22T11:35:35Z</time>
        <sat>11</sat>
      </trkpt>
      <trkpt lat="42.420427" lon="-3.159282">
        <ele>824.6</ele>
        <time>2019-08-22T11:35:39Z</time>
        <sat>11</sat>
      </trkpt>
      <trkpt lat="42.420386" lon="-3.159453">
        <ele>824.8</ele>
        <time>2019-08-22T11:35:50Z</time>
        <sat>11</sat>
      </trkpt>
      <trkpt lat="42.420359" lon="-3.159547">
        <ele>824.9</ele>
        <time>2019-08-22T11:35:56Z</time>
        <sat>11</sat>
      </trkpt>
      <trkpt lat="42.420348" lon="-3.159612">
        <ele>824.9</ele>
        <time>2019-08-22T11:36:00Z</time>
        <sat>11</sat>
      </trkpt>
      <trkpt lat="42.420327" lon="-3.159677">
        <ele>824.9</ele>
        <time>2019-08-22T11:36:04Z</time>
        <sat>11</sat>
      </trkpt>
      <trkpt lat="42.420315" lon="-3.159742">
        <ele>825.0</ele>
        <time>2019-08-22T11:36:08Z</time>
        <sat>11</sat>
      </trkpt>
      <trkpt lat="42.420275" lon="-3.159901">
        <ele>825.1</ele>
        <time>2019-08-22T11:36:18Z</time>
        <sat>11</sat>
      </trkpt>
      <trkpt lat="42.420253" lon="-3.159967">
        <ele>825.2</ele>
        <time>2019-08-22T11:36:22Z</time>
        <sat>11</sat>
      </trkpt>
      <trkpt lat="42.420211" lon="-3.160138">
        <ele>825.2</ele>
        <time>2019-08-22T11:36:33Z</time>
        <sat>12</sat>
      </trkpt>
      <trkpt lat="42.420178" lon="-3.160263">
        <ele>825.2</ele>
        <time>2019-08-22T11:36:41Z</time>
        <sat>12</sat>
      </trkpt>
      <trkpt lat="42.420169" lon="-3.160313">
        <ele>825.2</ele>
        <time>2019-08-22T11:36:44Z</time>
        <sat>12</sat>
      </trkpt>
      <trkpt lat="42.420119" lon="-3.160505">
        <ele>825.1</ele>
        <time>2019-08-22T11:36:56Z</time>
        <sat>12</sat>
      </trkpt>
      <trkpt lat="42.420098" lon="-3.160549">
        <ele>825.3</ele>
        <time>2019-08-22T11:36:59Z</time>
        <sat>12</sat>
      </trkpt>
      <trkpt lat="42.420087" lon="-3.160630">
        <ele>825.3</ele>
        <time>2019-08-22T11:37:04Z</time>
        <sat>12</sat>
      </trkpt>
      <trkpt lat="42.420026" lon="-3.160863">
        <ele>825.4</ele>
        <time>2019-08-22T11:37:19Z</time>
        <sat>12</sat>
      </trkpt>
      <trkpt lat="42.420014" lon="-3.160931">
        <ele>825.5</ele>
        <time>2019-08-22T11:37:23Z</time>
        <sat>12</sat>
      </trkpt>
      <trkpt lat="42.419983" lon="-3.161029">
        <ele>825.5</ele>
        <time>2019-08-22T11:37:29Z</time>
        <sat>12</sat>
      </trkpt>
      <trkpt lat="42.419967" lon="-3.161112">
        <ele>825.5</ele>
        <time>2019-08-22T11:37:34Z</time>
        <sat>12</sat>
      </trkpt>
      <trkpt lat="42.419935" lon="-3.161206">
        <ele>825.5</ele>
        <time>2019-08-22T11:37:40Z</time>
        <sat>12</sat>
      </trkpt>
      <trkpt lat="42.419929" lon="-3.161255">
        <ele>825.5</ele>
        <time>2019-08-22T11:37:43Z</time>
        <sat>12</sat>
      </trkpt>
      <trkpt lat="42.419884" lon="-3.161431">
        <ele>825.8</ele>
        <time>2019-08-22T11:37:54Z</time>
        <sat>12</sat>
      </trkpt>
      <trkpt lat="42.419818" lon="-3.161677">
        <ele>826.0</ele>
        <time>2019-08-22T11:38:09Z</time>
        <sat>12</sat>
      </trkpt>
      <trkpt lat="42.419811" lon="-3.161724">
        <ele>826.1</ele>
        <time>2019-08-22T11:38:12Z</time>
        <sat>12</sat>
      </trkpt>
      <trkpt lat="42.419787" lon="-3.161803">
        <ele>826.2</ele>
        <time>2019-08-22T11:38:17Z</time>
        <sat>12</sat>
      </trkpt>
      <trkpt lat="42.419775" lon="-3.161871">
        <ele>826.2</ele>
        <time>2019-08-22T11:38:21Z</time>
        <sat>12</sat>
      </trkpt>
      <trkpt lat="42.419744" lon="-3.161966">
        <ele>826.4</ele>
        <time>2019-08-22T11:38:27Z</time>
        <sat>12</sat>
      </trkpt>
      <trkpt lat="42.419704" lon="-3.162129">
        <ele>826.7</ele>
        <time>2019-08-22T11:38:37Z</time>
        <sat>12</sat>
      </trkpt>
      <trkpt lat="42.419664" lon="-3.162289">
        <ele>826.8</ele>
        <time>2019-08-22T11:38:47Z</time>
        <sat>12</sat>
      </trkpt>
      <trkpt lat="42.419657" lon="-3.162341">
        <ele>826.9</ele>
        <time>2019-08-22T11:38:50Z</time>
        <sat>12</sat>
      </trkpt>
      <trkpt lat="42.419621" lon="-3.162468">
        <ele>827.4</ele>
        <time>2019-08-22T11:38:58Z</time>
        <sat>12</sat>
      </trkpt>
      <trkpt lat="42.419606" lon="-3.162556">
        <ele>827.5</ele>
        <time>2019-08-22T11:39:03Z</time>
        <sat>12</sat>
      </trkpt>
      <trkpt lat="42.419569" lon="-3.162662">
        <ele>827.9</ele>
        <time>2019-08-22T11:39:10Z</time>
        <sat>12</sat>
      </trkpt>
      <trkpt lat="42.419546" lon="-3.162776">
        <ele>828.2</ele>
        <time>2019-08-22T11:39:17Z</time>
        <sat>12</sat>
      </trkpt>
      <trkpt lat="42.419530" lon="-3.162822">
        <ele>828.4</ele>
        <time>2019-08-22T11:39:20Z</time>
        <sat>12</sat>
      </trkpt>
      <trkpt lat="42.419510" lon="-3.162922">
        <ele>828.6</ele>
        <time>2019-08-22T11:39:26Z</time>
        <sat>12</sat>
      </trkpt>
      <trkpt lat="42.419483" lon="-3.162991">
        <ele>828.8</ele>
        <time>2019-08-22T11:39:31Z</time>
        <sat>12</sat>
      </trkpt>
      <trkpt lat="42.419431" lon="-3.163201">
        <ele>829.4</ele>
        <time>2019-08-22T11:39:45Z</time>
        <sat>12</sat>
      </trkpt>
      <trkpt lat="42.419393" lon="-3.163277">
        <ele>829.8</ele>
        <time>2019-08-22T11:39:53Z</time>
        <sat>12</sat>
      </trkpt>
      <trkpt lat="42.419383" lon="-3.163388">
        <ele>830.2</ele>
        <time>2019-08-22T11:40:00Z</time>
        <sat>12</sat>
      </trkpt>
      <trkpt lat="42.419346" lon="-3.163519">
        <ele>830.6</ele>
        <time>2019-08-22T11:40:08Z</time>
        <sat>12</sat>
      </trkpt>
      <trkpt lat="42.419306" lon="-3.163709">
        <ele>829.5</ele>
        <time>2019-08-22T11:40:20Z</time>
        <sat>11</sat>
      </trkpt>
      <trkpt lat="42.419275" lon="-3.163819">
        <ele>828.7</ele>
        <time>2019-08-22T11:40:27Z</time>
        <sat>12</sat>
      </trkpt>
      <trkpt lat="42.419226" lon="-3.164008">
        <ele>828.0</ele>
        <time>2019-08-22T11:40:39Z</time>
        <sat>12</sat>
      </trkpt>
      <trkpt lat="42.419178" lon="-3.164196">
        <ele>827.5</ele>
        <time>2019-08-22T11:40:51Z</time>
        <sat>12</sat>
      </trkpt>
      <trkpt lat="42.419150" lon="-3.164321">
        <ele>827.3</ele>
        <time>2019-08-22T11:40:59Z</time>
        <sat>12</sat>
      </trkpt>
      <trkpt lat="42.419138" lon="-3.164351">
        <ele>827.3</ele>
        <time>2019-08-22T11:41:01Z</time>
        <sat>12</sat>
      </trkpt>
      <trkpt lat="42.419083" lon="-3.164571">
        <ele>826.9</ele>
        <time>2019-08-22T11:41:15Z</time>
        <sat>12</sat>
      </trkpt>
      <trkpt lat="42.419037" lon="-3.164755">
        <ele>826.6</ele>
        <time>2019-08-22T11:41:27Z</time>
        <sat>12</sat>
      </trkpt>
      <trkpt lat="42.418984" lon="-3.164943">
        <ele>826.4</ele>
        <time>2019-08-22T11:41:40Z</time>
        <sat>12</sat>
      </trkpt>
      <trkpt lat="42.418943" lon="-3.165127">
        <ele>826.1</ele>
        <time>2019-08-22T11:41:52Z</time>
        <sat>12</sat>
      </trkpt>
      <trkpt lat="42.418936" lon="-3.165176">
        <ele>826.1</ele>
        <time>2019-08-22T11:41:55Z</time>
        <sat>12</sat>
      </trkpt>
      <trkpt lat="42.418915" lon="-3.165250">
        <ele>826.1</ele>
        <time>2019-08-22T11:42:00Z</time>
        <sat>12</sat>
      </trkpt>
      <trkpt lat="42.418878" lon="-3.165435">
        <ele>826.1</ele>
        <time>2019-08-22T11:42:12Z</time>
        <sat>12</sat>
      </trkpt>
      <trkpt lat="42.418841" lon="-3.165580">
        <ele>826.1</ele>
        <time>2019-08-22T11:42:27Z</time>
        <sat>12</sat>
      </trkpt>
      <trkpt lat="42.418826" lon="-3.165633">
        <ele>826.1</ele>
        <time>2019-08-22T11:42:39Z</time>
        <sat>12</sat>
      </trkpt>
      <trkpt lat="42.418758" lon="-3.165823">
        <ele>826.3</ele>
        <time>2019-08-22T11:42:52Z</time>
        <sat>12</sat>
      </trkpt>
      <trkpt lat="42.418719" lon="-3.165963">
        <ele>825.9</ele>
        <time>2019-08-22T11:43:01Z</time>
        <sat>12</sat>
      </trkpt>
      <trkpt lat="42.418703" lon="-3.166008">
        <ele>825.8</ele>
        <time>2019-08-22T11:43:04Z</time>
        <sat>11</sat>
      </trkpt>
      <trkpt lat="42.418677" lon="-3.166140">
        <ele>825.7</ele>
        <time>2019-08-22T11:43:12Z</time>
        <sat>12</sat>
      </trkpt>
      <trkpt lat="42.418667" lon="-3.166170">
        <ele>825.8</ele>
        <time>2019-08-22T11:43:14Z</time>
        <sat>12</sat>
      </trkpt>
      <trkpt lat="42.418614" lon="-3.166378">
        <ele>825.4</ele>
        <time>2019-08-22T11:43:27Z</time>
        <sat>12</sat>
      </trkpt>
      <trkpt lat="42.418595" lon="-3.166476">
        <ele>825.2</ele>
        <time>2019-08-22T11:43:33Z</time>
        <sat>12</sat>
      </trkpt>
      <trkpt lat="42.418574" lon="-3.166537">
        <ele>825.1</ele>
        <time>2019-08-22T11:43:37Z</time>
        <sat>12</sat>
      </trkpt>
      <trkpt lat="42.418530" lon="-3.166706">
        <ele>824.8</ele>
        <time>2019-08-22T11:43:48Z</time>
        <sat>12</sat>
      </trkpt>
      <trkpt lat="42.418515" lon="-3.166785">
        <ele>824.7</ele>
        <time>2019-08-22T11:43:53Z</time>
        <sat>12</sat>
      </trkpt>
      <trkpt lat="42.418499" lon="-3.166829">
        <ele>824.6</ele>
        <time>2019-08-22T11:43:56Z</time>
        <sat>12</sat>
      </trkpt>
      <trkpt lat="42.418450" lon="-3.167010">
        <ele>824.3</ele>
        <time>2019-08-22T11:44:08Z</time>
        <sat>12</sat>
      </trkpt>
      <trkpt lat="42.418437" lon="-3.167086">
        <ele>824.3</ele>
        <time>2019-08-22T11:44:13Z</time>
        <sat>11</sat>
      </trkpt>
      <trkpt lat="42.418373" lon="-3.167319">
        <ele>823.9</ele>
        <time>2019-08-22T11:44:28Z</time>
        <sat>12</sat>
      </trkpt>
      <trkpt lat="42.418348" lon="-3.167423">
        <ele>823.6</ele>
        <time>2019-08-22T11:44:35Z</time>
        <sat>12</sat>
      </trkpt>
      <trkpt lat="42.418299" lon="-3.167599">
        <ele>823.5</ele>
        <time>2019-08-22T11:44:47Z</time>
        <sat>12</sat>
      </trkpt>
      <trkpt lat="42.418290" lon="-3.167648">
        <ele>823.5</ele>
        <time>2019-08-22T11:44:50Z</time>
        <sat>12</sat>
      </trkpt>
      <trkpt lat="42.418266" lon="-3.167717">
        <ele>823.5</ele>
        <time>2019-08-22T11:44:55Z</time>
        <sat>12</sat>
      </trkpt>
      <trkpt lat="42.418254" lon="-3.167797">
        <ele>823.5</ele>
        <time>2019-08-22T11:45:00Z</time>
        <sat>12</sat>
      </trkpt>
      <trkpt lat="42.418239" lon="-3.167841">
        <ele>823.4</ele>
        <time>2019-08-22T11:45:03Z</time>
        <sat>12</sat>
      </trkpt>
      <trkpt lat="42.418220" lon="-3.167951">
        <ele>823.2</ele>
        <time>2019-08-22T11:45:10Z</time>
        <sat>12</sat>
      </trkpt>
      <trkpt lat="42.418197" lon="-3.168011">
        <ele>823.1</ele>
        <time>2019-08-22T11:45:14Z</time>
        <sat>12</sat>
      </trkpt>
      <trkpt lat="42.418167" lon="-3.168154">
        <ele>823.0</ele>
        <time>2019-08-22T11:45:23Z</time>
        <sat>12</sat>
      </trkpt>
      <trkpt lat="42.418135" lon="-3.168251">
        <ele>822.9</ele>
        <time>2019-08-22T11:45:30Z</time>
        <sat>11</sat>
      </trkpt>
      <trkpt lat="42.418119" lon="-3.168346">
        <ele>822.9</ele>
        <time>2019-08-22T11:45:36Z</time>
        <sat>12</sat>
      </trkpt>
      <trkpt lat="42.418082" lon="-3.168511">
        <ele>822.9</ele>
        <time>2019-08-22T11:45:46Z</time>
        <sat>12</sat>
      </trkpt>
      <trkpt lat="42.418063" lon="-3.168572">
        <ele>822.8</ele>
        <time>2019-08-22T11:45:50Z</time>
        <sat>12</sat>
      </trkpt>
      <trkpt lat="42.418046" lon="-3.168658">
        <ele>822.7</ele>
        <time>2019-08-22T11:45:55Z</time>
        <sat>12</sat>
      </trkpt>
      <trkpt lat="42.418016" lon="-3.168749">
        <ele>822.5</ele>
        <time>2019-08-22T11:46:01Z</time>
        <sat>12</sat>
      </trkpt>
      <trkpt lat="42.418004" lon="-3.168815">
        <ele>822.4</ele>
        <time>2019-08-22T11:46:05Z</time>
        <sat>12</sat>
      </trkpt>
      <trkpt lat="42.417982" lon="-3.168884">
        <ele>822.3</ele>
        <time>2019-08-22T11:46:10Z</time>
        <sat>12</sat>
      </trkpt>
      <trkpt lat="42.417970" lon="-3.168952">
        <ele>822.3</ele>
        <time>2019-08-22T11:46:14Z</time>
        <sat>12</sat>
      </trkpt>
      <trkpt lat="42.417937" lon="-3.169061">
        <ele>822.1</ele>
        <time>2019-08-22T11:46:21Z</time>
        <sat>12</sat>
      </trkpt>
      <trkpt lat="42.417898" lon="-3.169244">
        <ele>821.9</ele>
        <time>2019-08-22T11:46:32Z</time>
        <sat>12</sat>
      </trkpt>
      <trkpt lat="42.417877" lon="-3.169361">
        <ele>821.7</ele>
        <time>2019-08-22T11:46:39Z</time>
        <sat>12</sat>
      </trkpt>
      <trkpt lat="42.417865" lon="-3.169393">
        <ele>821.7</ele>
        <time>2019-08-22T11:46:41Z</time>
        <sat>12</sat>
      </trkpt>
      <trkpt lat="42.417850" lon="-3.169480">
        <ele>821.5</ele>
        <time>2019-08-22T11:46:46Z</time>
        <sat>12</sat>
      </trkpt>
      <trkpt lat="42.417790" lon="-3.169698">
        <ele>821.1</ele>
        <time>2019-08-22T11:47:00Z</time>
        <sat>12</sat>
      </trkpt>
      <trkpt lat="42.417741" lon="-3.169893">
        <ele>820.7</ele>
        <time>2019-08-22T11:47:13Z</time>
        <sat>12</sat>
      </trkpt>
      <trkpt lat="42.417693" lon="-3.170068">
        <ele>820.1</ele>
        <time>2019-08-22T11:47:24Z</time>
        <sat>12</sat>
      </trkpt>
      <trkpt lat="42.417677" lon="-3.170115">
        <ele>820.0</ele>
        <time>2019-08-22T11:47:27Z</time>
        <sat>12</sat>
      </trkpt>
      <trkpt lat="42.417620" lon="-3.170347">
        <ele>819.7</ele>
        <time>2019-08-22T11:47:42Z</time>
        <sat>12</sat>
      </trkpt>
      <trkpt lat="42.417582" lon="-3.170481">
        <ele>819.4</ele>
        <time>2019-08-22T11:47:51Z</time>
        <sat>12</sat>
      </trkpt>
      <trkpt lat="42.417550" lon="-3.170632">
        <ele>820.8</ele>
        <time>2019-08-22T11:48:02Z</time>
        <sat>12</sat>
      </trkpt>
      <trkpt lat="42.417498" lon="-3.170794">
        <ele>820.4</ele>
        <time>2019-08-22T11:48:13Z</time>
        <sat>12</sat>
      </trkpt>
      <trkpt lat="42.417446" lon="-3.171014">
        <ele>820.1</ele>
        <time>2019-08-22T11:48:27Z</time>
        <sat>12</sat>
      </trkpt>
      <trkpt lat="42.417414" lon="-3.171156">
        <ele>820.0</ele>
        <time>2019-08-22T11:48:36Z</time>
        <sat>12</sat>
      </trkpt>
      <trkpt lat="42.417401" lon="-3.171183">
        <ele>820.0</ele>
        <time>2019-08-22T11:48:38Z</time>
        <sat>12</sat>
      </trkpt>
      <trkpt lat="42.417358" lon="-3.171387">
        <ele>819.7</ele>
        <time>2019-08-22T11:48:52Z</time>
        <sat>12</sat>
      </trkpt>
      <trkpt lat="42.417317" lon="-3.171501">
        <ele>817.8</ele>
        <time>2019-08-22T11:48:59Z</time>
        <sat>12</sat>
      </trkpt>
      <trkpt lat="42.417308" lon="-3.171561">
        <ele>818.8</ele>
        <time>2019-08-22T11:49:03Z</time>
        <sat>11</sat>
      </trkpt>
      <trkpt lat="42.417261" lon="-3.171747">
        <ele>817.7</ele>
        <time>2019-08-22T11:49:16Z</time>
        <sat>12</sat>
      </trkpt>
      <trkpt lat="42.417211" lon="-3.171926">
        <ele>816.3</ele>
        <time>2019-08-22T11:49:28Z</time>
        <sat>12</sat>
      </trkpt>
      <trkpt lat="42.417195" lon="-3.172009">
        <ele>816.4</ele>
        <time>2019-08-22T11:49:33Z</time>
        <sat>12</sat>
      </trkpt>
      <trkpt lat="42.417157" lon="-3.172152">
        <ele>816.8</ele>
        <time>2019-08-22T11:49:42Z</time>
        <sat>12</sat>
      </trkpt>
      <trkpt lat="42.417110" lon="-3.172321">
        <ele>817.7</ele>
        <time>2019-08-22T11:49:53Z</time>
        <sat>12</sat>
      </trkpt>
      <trkpt lat="42.417088" lon="-3.172381">
        <ele>818.1</ele>
        <time>2019-08-22T11:49:57Z</time>
        <sat>12</sat>
      </trkpt>
      <trkpt lat="42.417041" lon="-3.172537">
        <ele>818.7</ele>
        <time>2019-08-22T11:50:07Z</time>
        <sat>12</sat>
      </trkpt>
      <trkpt lat="42.417033" lon="-3.172586">
        <ele>818.9</ele>
        <time>2019-08-22T11:50:10Z</time>
        <sat>12</sat>
      </trkpt>
      <trkpt lat="42.417007" lon="-3.172660">
        <ele>819.1</ele>
        <time>2019-08-22T11:50:15Z</time>
        <sat>11</sat>
      </trkpt>
      <trkpt lat="42.416955" lon="-3.172871">
        <ele>819.5</ele>
        <time>2019-08-22T11:50:32Z</time>
        <sat>12</sat>
      </trkpt>
      <trkpt lat="42.416942" lon="-3.172948">
        <ele>819.3</ele>
        <time>2019-08-22T11:50:38Z</time>
        <sat>12</sat>
      </trkpt>
      <trkpt lat="42.416912" lon="-3.173049">
        <ele>818.7</ele>
        <time>2019-08-22T11:50:47Z</time>
        <sat>12</sat>
      </trkpt>
      <trkpt lat="42.416859" lon="-3.173211">
        <ele>816.8</ele>
        <time>2019-08-22T11:51:00Z</time>
        <sat>12</sat>
      </trkpt>
      <trkpt lat="42.416811" lon="-3.173401">
        <ele>814.9</ele>
        <time>2019-08-22T11:51:12Z</time>
        <sat>12</sat>
      </trkpt>
      <trkpt lat="42.416789" lon="-3.173472">
        <ele>814.4</ele>
        <time>2019-08-22T11:51:17Z</time>
        <sat>12</sat>
      </trkpt>
      <trkpt lat="42.416780" lon="-3.173526">
        <ele>814.2</ele>
        <time>2019-08-22T11:51:20Z</time>
        <sat>12</sat>
      </trkpt>
      <trkpt lat="42.416747" lon="-3.173635">
        <ele>813.7</ele>
        <time>2019-08-22T11:51:27Z</time>
        <sat>12</sat>
      </trkpt>
      <trkpt lat="42.416705" lon="-3.173793">
        <ele>813.2</ele>
        <time>2019-08-22T11:51:37Z</time>
        <sat>12</sat>
      </trkpt>
      <trkpt lat="42.416693" lon="-3.173862">
        <ele>813.2</ele>
        <time>2019-08-22T11:51:41Z</time>
        <sat>12</sat>
      </trkpt>
      <trkpt lat="42.416666" lon="-3.173951">
        <ele>813.0</ele>
        <time>2019-08-22T11:51:47Z</time>
        <sat>12</sat>
      </trkpt>
      <trkpt lat="42.416633" lon="-3.174094">
        <ele>812.9</ele>
        <time>2019-08-22T11:51:56Z</time>
        <sat>12</sat>
      </trkpt>
      <trkpt lat="42.416590" lon="-3.174230">
        <ele>812.7</ele>
        <time>2019-08-22T11:52:05Z</time>
        <sat>12</sat>
      </trkpt>
      <trkpt lat="42.416540" lon="-3.174415">
        <ele>812.6</ele>
        <time>2019-08-22T11:52:17Z</time>
        <sat>12</sat>
      </trkpt>
      <trkpt lat="42.416524" lon="-3.174458">
        <ele>812.5</ele>
        <time>2019-08-22T11:52:20Z</time>
        <sat>12</sat>
      </trkpt>
      <trkpt lat="42.416485" lon="-3.174662">
        <ele>812.2</ele>
        <time>2019-08-22T11:52:33Z</time>
        <sat>12</sat>
      </trkpt>
      <trkpt lat="42.416476" lon="-3.174785">
        <ele>811.9</ele>
        <time>2019-08-22T11:52:40Z</time>
        <sat>12</sat>
      </trkpt>
      <trkpt lat="42.416425" lon="-3.174992">
        <ele>811.6</ele>
        <time>2019-08-22T11:52:53Z</time>
        <sat>12</sat>
      </trkpt>
      <trkpt lat="42.416403" lon="-3.175050">
        <ele>811.5</ele>
        <time>2019-08-22T11:52:57Z</time>
        <sat>12</sat>
      </trkpt>
      <trkpt lat="42.416363" lon="-3.175207">
        <ele>811.3</ele>
        <time>2019-08-22T11:53:07Z</time>
        <sat>12</sat>
      </trkpt>
      <trkpt lat="42.416351" lon="-3.175276">
        <ele>811.1</ele>
        <time>2019-08-22T11:53:11Z</time>
        <sat>12</sat>
      </trkpt>
      <trkpt lat="42.416299" lon="-3.175494">
        <ele>810.6</ele>
        <time>2019-08-22T11:53:24Z</time>
        <sat>12</sat>
      </trkpt>
      <trkpt lat="42.416245" lon="-3.175697">
        <ele>810.1</ele>
        <time>2019-08-22T11:53:36Z</time>
        <sat>12</sat>
      </trkpt>
      <trkpt lat="42.416226" lon="-3.175755">
        <ele>809.9</ele>
        <time>2019-08-22T11:53:40Z</time>
        <sat>12</sat>
      </trkpt>
      <trkpt lat="42.416204" lon="-3.175864">
        <ele>809.7</ele>
        <time>2019-08-22T11:53:47Z</time>
        <sat>12</sat>
      </trkpt>
      <trkpt lat="42.416177" lon="-3.175939">
        <ele>809.6</ele>
        <time>2019-08-22T11:53:52Z</time>
        <sat>11</sat>
      </trkpt>
      <trkpt lat="42.416160" lon="-3.176038">
        <ele>809.5</ele>
        <time>2019-08-22T11:53:58Z</time>
        <sat>12</sat>
      </trkpt>
      <trkpt lat="42.416126" lon="-3.176150">
        <ele>809.4</ele>
        <time>2019-08-22T11:54:05Z</time>
        <sat>12</sat>
      </trkpt>
      <trkpt lat="42.416114" lon="-3.176220">
        <ele>809.3</ele>
        <time>2019-08-22T11:54:09Z</time>
        <sat>12</sat>
      </trkpt>
      <trkpt lat="42.416091" lon="-3.176296">
        <ele>809.2</ele>
        <time>2019-08-22T11:54:14Z</time>
        <sat>12</sat>
      </trkpt>
      <trkpt lat="42.416040" lon="-3.176495">
        <ele>808.8</ele>
        <time>2019-08-22T11:54:26Z</time>
        <sat>11</sat>
      </trkpt>
      <trkpt lat="42.416030" lon="-3.176549">
        <ele>808.6</ele>
        <time>2019-08-22T11:54:29Z</time>
        <sat>11</sat>
      </trkpt>
      <trkpt lat="42.416006" lon="-3.176628">
        <ele>808.4</ele>
        <time>2019-08-22T11:54:34Z</time>
        <sat>11</sat>
      </trkpt>
      <trkpt lat="42.415984" lon="-3.176746">
        <ele>808.0</ele>
        <time>2019-08-22T11:54:41Z</time>
        <sat>11</sat>
      </trkpt>
      <trkpt lat="42.415964" lon="-3.176811">
        <ele>807.8</ele>
        <time>2019-08-22T11:54:45Z</time>
        <sat>11</sat>
      </trkpt>
      <trkpt lat="42.415948" lon="-3.176915">
        <ele>807.6</ele>
        <time>2019-08-22T11:54:51Z</time>
        <sat>11</sat>
      </trkpt>
      <trkpt lat="42.415933" lon="-3.176964">
        <ele>807.5</ele>
        <time>2019-08-22T11:54:54Z</time>
        <sat>10</sat>
      </trkpt>
      <trkpt lat="42.415911" lon="-3.177103">
        <ele>807.1</ele>
        <time>2019-08-22T11:55:02Z</time>
        <sat>11</sat>
      </trkpt>
      <trkpt lat="42.415884" lon="-3.177220">
        <ele>806.8</ele>
        <time>2019-08-22T11:55:09Z</time>
        <sat>11</sat>
      </trkpt>
      <trkpt lat="42.415880" lon="-3.177292">
        <ele>806.6</ele>
        <time>2019-08-22T11:55:13Z</time>
        <sat>11</sat>
      </trkpt>
      <trkpt lat="42.415862" lon="-3.177366">
        <ele>806.3</ele>
        <time>2019-08-22T11:55:18Z</time>
        <sat>11</sat>
      </trkpt>
      <trkpt lat="42.415833" lon="-3.177593">
        <ele>806.0</ele>
        <time>2019-08-22T11:55:31Z</time>
        <sat>10</sat>
      </trkpt>
      <trkpt lat="42.415813" lon="-3.177802">
        <ele>805.5</ele>
        <time>2019-08-22T11:55:43Z</time>
        <sat>10</sat>
      </trkpt>
      <trkpt lat="42.415815" lon="-3.177855">
        <ele>805.4</ele>
        <time>2019-08-22T11:55:46Z</time>
        <sat>10</sat>
      </trkpt>
      <trkpt lat="42.415804" lon="-3.178050">
        <ele>805.0</ele>
        <time>2019-08-22T11:55:57Z</time>
        <sat>10</sat>
      </trkpt>
      <trkpt lat="42.415795" lon="-3.178135">
        <ele>804.9</ele>
        <time>2019-08-22T11:56:02Z</time>
        <sat>10</sat>
      </trkpt>
      <trkpt lat="42.415789" lon="-3.178399">
        <ele>804.6</ele>
        <time>2019-08-22T11:56:17Z</time>
        <sat>10</sat>
      </trkpt>
      <trkpt lat="42.415789" lon="-3.178573">
        <ele>804.4</ele>
        <time>2019-08-22T11:56:27Z</time>
        <sat>10</sat>
      </trkpt>
      <trkpt lat="42.415798" lon="-3.178758">
        <ele>804.0</ele>
        <time>2019-08-22T11:56:38Z</time>
        <sat>10</sat>
      </trkpt>
      <trkpt lat="42.415807" lon="-3.178808">
        <ele>803.9</ele>
        <time>2019-08-22T11:56:41Z</time>
        <sat>10</sat>
      </trkpt>
      <trkpt lat="42.415813" lon="-3.178927">
        <ele>803.8</ele>
        <time>2019-08-22T11:56:48Z</time>
        <sat>9</sat>
      </trkpt>
      <trkpt lat="42.415825" lon="-3.178998">
        <ele>803.8</ele>
        <time>2019-08-22T11:56:52Z</time>
        <sat>10</sat>
      </trkpt>
      <trkpt lat="42.415829" lon="-3.179083">
        <ele>803.7</ele>
        <time>2019-08-22T11:56:57Z</time>
        <sat>10</sat>
      </trkpt>
      <trkpt lat="42.415844" lon="-3.179164">
        <ele>802.5</ele>
        <time>2019-08-22T11:57:02Z</time>
        <sat>10</sat>
      </trkpt>
      <trkpt lat="42.415850" lon="-3.179268">
        <ele>803.7</ele>
        <time>2019-08-22T11:57:08Z</time>
        <sat>10</sat>
      </trkpt>
      <trkpt lat="42.415865" lon="-3.179334">
        <ele>803.7</ele>
        <time>2019-08-22T11:57:12Z</time>
        <sat>10</sat>
      </trkpt>
      <trkpt lat="42.415871" lon="-3.179440">
        <ele>803.3</ele>
        <time>2019-08-22T11:57:18Z</time>
        <sat>10</sat>
      </trkpt>
      <trkpt lat="42.415894" lon="-3.179589">
        <ele>803.1</ele>
        <time>2019-08-22T11:57:27Z</time>
        <sat>9</sat>
      </trkpt>
      <trkpt lat="42.415922" lon="-3.179680">
        <ele>802.9</ele>
        <time>2019-08-22T11:57:33Z</time>
        <sat>10</sat>
      </trkpt>
      <trkpt lat="42.415942" lon="-3.179706">
        <ele>802.9</ele>
        <time>2019-08-22T11:57:40Z</time>
        <sat>10</sat>
      </trkpt>
      <trkpt lat="42.416023" lon="-3.179707">
        <ele>802.9</ele>
        <time>2019-08-22T11:57:46Z</time>
        <sat>10</sat>
      </trkpt>
      <trkpt lat="42.416062" lon="-3.179755">
        <ele>803.0</ele>
        <time>2019-08-22T11:57:53Z</time>
        <sat>10</sat>
      </trkpt>
      <trkpt lat="42.416083" lon="-3.179853">
        <ele>802.7</ele>
        <time>2019-08-22T11:58:10Z</time>
        <sat>9</sat>
      </trkpt>
      <trkpt lat="42.416091" lon="-3.179898">
        <ele>802.6</ele>
        <time>2019-08-22T11:58:19Z</time>
        <sat>10</sat>
      </trkpt>
      <trkpt lat="42.416122" lon="-3.179904">
        <ele>802.4</ele>
        <time>2019-08-22T11:59:15Z</time>
        <sat>9</sat>
      </trkpt>
      <trkpt lat="42.416179" lon="-3.179886">
        <ele>802.4</ele>
        <time>2019-08-22T11:59:25Z</time>
        <sat>9</sat>
      </trkpt>
      <trkpt lat="42.416262" lon="-3.179891">
        <ele>801.6</ele>
        <time>2019-08-22T11:59:36Z</time>
        <sat>10</sat>
      </trkpt>
      <trkpt lat="42.416307" lon="-3.179921">
        <ele>802.6</ele>
        <time>2019-08-22T11:59:41Z</time>
        <sat>9</sat>
      </trkpt>
      <trkpt lat="42.416422" lon="-3.180079">
        <ele>802.2</ele>
        <time>2019-08-22T11:59:55Z</time>
        <sat>10</sat>
      </trkpt>
      <trkpt lat="42.416511" lon="-3.180193">
        <ele>801.9</ele>
        <time>2019-08-22T12:00:05Z</time>
        <sat>10</sat>
      </trkpt>
      <trkpt lat="42.416554" lon="-3.180274">
        <ele>801.8</ele>
        <time>2019-08-22T12:00:11Z</time>
        <sat>10</sat>
      </trkpt>
      <trkpt lat="42.416650" lon="-3.180421">
        <ele>801.8</ele>
        <time>2019-08-22T12:00:23Z</time>
        <sat>10</sat>
      </trkpt>
      <trkpt lat="42.416711" lon="-3.180498">
        <ele>801.7</ele>
        <time>2019-08-22T12:00:29Z</time>
        <sat>9</sat>
      </trkpt>
      <trkpt lat="42.416760" lon="-3.180534">
        <ele>801.5</ele>
        <time>2019-08-22T12:00:33Z</time>
        <sat>9</sat>
      </trkpt>
      <trkpt lat="42.416806" lon="-3.180592">
        <ele>801.5</ele>
        <time>2019-08-22T12:00:38Z</time>
        <sat>10</sat>
      </trkpt>
      <trkpt lat="42.416837" lon="-3.180615">
        <ele>801.5</ele>
        <time>2019-08-22T12:00:41Z</time>
        <sat>9</sat>
      </trkpt>
      <trkpt lat="42.416896" lon="-3.180683">
        <ele>801.5</ele>
        <time>2019-08-22T12:00:47Z</time>
        <sat>9</sat>
      </trkpt>
      <trkpt lat="42.417019" lon="-3.180803">
        <ele>801.4</ele>
        <time>2019-08-22T12:00:59Z</time>
        <sat>10</sat>
      </trkpt>
      <trkpt lat="42.417072" lon="-3.180884">
        <ele>801.4</ele>
        <time>2019-08-22T12:01:06Z</time>
        <sat>10</sat>
      </trkpt>
      <trkpt lat="42.417155" lon="-3.180963">
        <ele>801.9</ele>
        <time>2019-08-22T12:01:22Z</time>
        <sat>10</sat>
      </trkpt>
      <trkpt lat="42.417205" lon="-3.181066">
        <ele>801.8</ele>
        <time>2019-08-22T12:01:30Z</time>
        <sat>10</sat>
      </trkpt>
      <trkpt lat="42.417280" lon="-3.181196">
        <ele>801.4</ele>
        <time>2019-08-22T12:01:40Z</time>
        <sat>10</sat>
      </trkpt>
      <trkpt lat="42.417351" lon="-3.181290">
        <ele>801.5</ele>
        <time>2019-08-22T12:01:57Z</time>
        <sat>9</sat>
      </trkpt>
      <trkpt lat="42.417461" lon="-3.181453">
        <ele>800.7</ele>
        <time>2019-08-22T12:02:11Z</time>
        <sat>10</sat>
      </trkpt>
      <trkpt lat="42.417498" lon="-3.181547">
        <ele>800.3</ele>
        <time>2019-08-22T12:02:18Z</time>
        <sat>11</sat>
      </trkpt>
      <trkpt lat="42.417561" lon="-3.181684">
        <ele>799.9</ele>
        <time>2019-08-22T12:02:28Z</time>
        <sat>11</sat>
      </trkpt>
      <trkpt lat="42.417606" lon="-3.181772">
        <ele>799.7</ele>
        <time>2019-08-22T12:02:35Z</time>
        <sat>11</sat>
      </trkpt>
      <trkpt lat="42.417668" lon="-3.181910">
        <ele>799.2</ele>
        <time>2019-08-22T12:02:45Z</time>
        <sat>11</sat>
      </trkpt>
      <trkpt lat="42.417701" lon="-3.181999">
        <ele>798.9</ele>
        <time>2019-08-22T12:02:51Z</time>
        <sat>11</sat>
      </trkpt>
      <trkpt lat="42.417764" lon="-3.182192">
        <ele>798.2</ele>
        <time>2019-08-22T12:03:04Z</time>
        <sat>11</sat>
      </trkpt>
      <trkpt lat="42.417806" lon="-3.182314">
        <ele>797.5</ele>
        <time>2019-08-22T12:03:13Z</time>
        <sat>10</sat>
      </trkpt>
      <trkpt lat="42.417834" lon="-3.182376">
        <ele>797.3</ele>
        <time>2019-08-22T12:03:18Z</time>
        <sat>11</sat>
      </trkpt>
      <trkpt lat="42.417829" lon="-3.182432">
        <ele>796.7</ele>
        <time>2019-08-22T12:03:38Z</time>
        <sat>11</sat>
      </trkpt>
      <trkpt lat="42.417879" lon="-3.182498">
        <ele>796.6</ele>
        <time>2019-08-22T12:03:45Z</time>
        <sat>10</sat>
      </trkpt>
      <trkpt lat="42.417857" lon="-3.182523">
        <ele>798.5</ele>
        <time>2019-08-22T12:27:39Z</time>
        <sat>10</sat>
      </trkpt>
      <trkpt lat="42.417854" lon="-3.182586">
        <ele>798.5</ele>
        <time>2019-08-22T12:27:44Z</time>
        <sat>10</sat>
      </trkpt>
      <trkpt lat="42.417892" lon="-3.182748">
        <ele>797.8</ele>
        <time>2019-08-22T12:27:57Z</time>
        <sat>10</sat>
      </trkpt>
      <trkpt lat="42.417925" lon="-3.182826">
        <ele>796.5</ele>
        <time>2019-08-22T12:28:06Z</time>
        <sat>10</sat>
      </trkpt>
      <trkpt lat="42.417928" lon="-3.182882">
        <ele>796.3</ele>
        <time>2019-08-22T12:28:10Z</time>
        <sat>10</sat>
      </trkpt>
      <trkpt lat="42.417945" lon="-3.182957">
        <ele>796.3</ele>
        <time>2019-08-22T12:28:15Z</time>
        <sat>10</sat>
      </trkpt>
      <trkpt lat="42.417958" lon="-3.183119">
        <ele>796.4</ele>
        <time>2019-08-22T12:28:25Z</time>
        <sat>10</sat>
      </trkpt>
      <trkpt lat="42.417989" lon="-3.183318">
        <ele>795.5</ele>
        <time>2019-08-22T12:28:38Z</time>
        <sat>10</sat>
      </trkpt>
      <trkpt lat="42.418017" lon="-3.183523">
        <ele>794.6</ele>
        <time>2019-08-22T12:28:52Z</time>
        <sat>10</sat>
      </trkpt>
      <trkpt lat="42.418048" lon="-3.183635">
        <ele>794.2</ele>
        <time>2019-08-22T12:29:00Z</time>
        <sat>11</sat>
      </trkpt>
      <trkpt lat="42.418090" lon="-3.183755">
        <ele>793.9</ele>
        <time>2019-08-22T12:29:09Z</time>
        <sat>10</sat>
      </trkpt>
      <trkpt lat="42.418137" lon="-3.183932">
        <ele>793.4</ele>
        <time>2019-08-22T12:29:21Z</time>
        <sat>10</sat>
      </trkpt>
      <trkpt lat="42.418157" lon="-3.183975">
        <ele>793.3</ele>
        <time>2019-08-22T12:29:24Z</time>
        <sat>10</sat>
      </trkpt>
      <trkpt lat="42.418189" lon="-3.184075">
        <ele>793.2</ele>
        <time>2019-08-22T12:29:31Z</time>
        <sat>9</sat>
      </trkpt>
      <trkpt lat="42.418249" lon="-3.184271">
        <ele>792.8</ele>
        <time>2019-08-22T12:29:45Z</time>
        <sat>10</sat>
      </trkpt>
      <trkpt lat="42.418299" lon="-3.184428">
        <ele>792.7</ele>
        <time>2019-08-22T12:29:56Z</time>
        <sat>10</sat>
      </trkpt>
      <trkpt lat="42.418326" lon="-3.184613">
        <ele>792.3</ele>
        <time>2019-08-22T12:30:08Z</time>
        <sat>10</sat>
      </trkpt>
      <trkpt lat="42.418358" lon="-3.184805">
        <ele>791.7</ele>
        <time>2019-08-22T12:30:20Z</time>
        <sat>10</sat>
      </trkpt>
      <trkpt lat="42.418356" lon="-3.184839">
        <ele>791.6</ele>
        <time>2019-08-22T12:30:22Z</time>
        <sat>10</sat>
      </trkpt>
      <trkpt lat="42.418373" lon="-3.184998">
        <ele>791.1</ele>
        <time>2019-08-22T12:30:32Z</time>
        <sat>10</sat>
      </trkpt>
      <trkpt lat="42.418396" lon="-3.185091">
        <ele>790.8</ele>
        <time>2019-08-22T12:30:39Z</time>
        <sat>10</sat>
      </trkpt>
      <trkpt lat="42.418403" lon="-3.185218">
        <ele>790.6</ele>
        <time>2019-08-22T12:30:47Z</time>
        <sat>10</sat>
      </trkpt>
      <trkpt lat="42.418420" lon="-3.185387">
        <ele>789.8</ele>
        <time>2019-08-22T12:30:57Z</time>
        <sat>10</sat>
      </trkpt>
      <trkpt lat="42.418450" lon="-3.185611">
        <ele>789.5</ele>
        <time>2019-08-22T12:31:11Z</time>
        <sat>9</sat>
      </trkpt>
      <trkpt lat="42.418461" lon="-3.185722">
        <ele>789.2</ele>
        <time>2019-08-22T12:31:18Z</time>
        <sat>10</sat>
      </trkpt>
      <trkpt lat="42.418460" lon="-3.185787">
        <ele>789.0</ele>
        <time>2019-08-22T12:31:22Z</time>
        <sat>10</sat>
      </trkpt>
      <trkpt lat="42.418469" lon="-3.185879">
        <ele>788.8</ele>
        <time>2019-08-22T12:31:28Z</time>
        <sat>10</sat>
      </trkpt>
      <trkpt lat="42.418517" lon="-3.186042">
        <ele>788.2</ele>
        <time>2019-08-22T12:31:39Z</time>
        <sat>10</sat>
      </trkpt>
      <trkpt lat="42.418591" lon="-3.186202">
        <ele>787.7</ele>
        <time>2019-08-22T12:31:52Z</time>
        <sat>10</sat>
      </trkpt>
      <trkpt lat="42.418625" lon="-3.186260">
        <ele>787.7</ele>
        <time>2019-08-22T12:31:57Z</time>
        <sat>10</sat>
      </trkpt>
      <trkpt lat="42.418694" lon="-3.186363">
        <ele>787.3</ele>
        <time>2019-08-22T12:32:06Z</time>
        <sat>10</sat>
      </trkpt>
      <trkpt lat="42.418766" lon="-3.186461">
        <ele>786.8</ele>
        <time>2019-08-22T12:32:15Z</time>
        <sat>10</sat>
      </trkpt>
      <trkpt lat="42.418810" lon="-3.186529">
        <ele>786.5</ele>
        <time>2019-08-22T12:32:21Z</time>
        <sat>10</sat>
      </trkpt>
      <trkpt lat="42.418909" lon="-3.186663">
        <ele>786.0</ele>
        <time>2019-08-22T12:32:34Z</time>
        <sat>10</sat>
      </trkpt>
      <trkpt lat="42.418921" lon="-3.186672">
        <ele>786.0</ele>
        <time>2019-08-22T12:32:35Z</time>
        <sat>10</sat>
      </trkpt>
      <trkpt lat="42.418978" lon="-3.186752">
        <ele>785.7</ele>
        <time>2019-08-22T12:32:42Z</time>
        <sat>10</sat>
      </trkpt>
      <trkpt lat="42.419015" lon="-3.186786">
        <ele>785.5</ele>
        <time>2019-08-22T12:32:46Z</time>
        <sat>10</sat>
      </trkpt>
      <trkpt lat="42.419118" lon="-3.186909">
        <ele>785.2</ele>
        <time>2019-08-22T12:32:58Z</time>
        <sat>10</sat>
      </trkpt>
      <trkpt lat="42.419164" lon="-3.186970">
        <ele>784.9</ele>
        <time>2019-08-22T12:33:04Z</time>
        <sat>10</sat>
      </trkpt>
      <trkpt lat="42.419192" lon="-3.187025">
        <ele>784.6</ele>
        <time>2019-08-22T12:33:09Z</time>
        <sat>10</sat>
      </trkpt>
      <trkpt lat="42.419249" lon="-3.187111">
        <ele>784.3</ele>
        <time>2019-08-22T12:33:17Z</time>
        <sat>10</sat>
      </trkpt>
      <trkpt lat="42.419314" lon="-3.187261">
        <ele>784.0</ele>
        <time>2019-08-22T12:33:29Z</time>
        <sat>10</sat>
      </trkpt>
      <trkpt lat="42.419394" lon="-3.187441">
        <ele>783.2</ele>
        <time>2019-08-22T12:33:43Z</time>
        <sat>10</sat>
      </trkpt>
      <trkpt lat="42.419430" lon="-3.187520">
        <ele>782.9</ele>
        <time>2019-08-22T12:33:49Z</time>
        <sat>10</sat>
      </trkpt>
      <trkpt lat="42.419513" lon="-3.187712">
        <ele>782.2</ele>
        <time>2019-08-22T12:34:04Z</time>
        <sat>10</sat>
      </trkpt>
      <trkpt lat="42.419579" lon="-3.187806">
        <ele>781.9</ele>
        <time>2019-08-22T12:34:13Z</time>
        <sat>10</sat>
      </trkpt>
      <trkpt lat="42.419664" lon="-3.187911">
        <ele>782.0</ele>
        <time>2019-08-22T12:34:24Z</time>
        <sat>10</sat>
      </trkpt>
      <trkpt lat="42.419789" lon="-3.187982">
        <ele>781.9</ele>
        <time>2019-08-22T12:34:39Z</time>
        <sat>8</sat>
      </trkpt>
      <trkpt lat="42.419798" lon="-3.188021">
        <ele>781.7</ele>
        <time>2019-08-22T12:34:47Z</time>
        <sat>10</sat>
      </trkpt>
      <trkpt lat="42.419868" lon="-3.188064">
        <ele>781.8</ele>
        <time>2019-08-22T12:37:17Z</time>
        <sat>10</sat>
      </trkpt>
      <trkpt lat="42.419891" lon="-3.188088">
        <ele>781.1</ele>
        <time>2019-08-22T12:37:34Z</time>
        <sat>9</sat>
      </trkpt>
      <trkpt lat="42.419953" lon="-3.188129">
        <ele>779.3</ele>
        <time>2019-08-22T12:37:40Z</time>
        <sat>9</sat>
      </trkpt>
      <trkpt lat="42.420011" lon="-3.188129">
        <ele>780.5</ele>
        <time>2019-08-22T12:37:43Z</time>
        <sat>10</sat>
      </trkpt>
      <trkpt lat="42.420036" lon="-3.188138">
        <ele>780.8</ele>
        <time>2019-08-22T12:37:45Z</time>
        <sat>10</sat>
      </trkpt>
      <trkpt lat="42.420109" lon="-3.188201">
        <ele>780.5</ele>
        <time>2019-08-22T12:37:51Z</time>
        <sat>9</sat>
      </trkpt>
      <trkpt lat="42.420160" lon="-3.188303">
        <ele>778.9</ele>
        <time>2019-08-22T12:38:05Z</time>
        <sat>9</sat>
      </trkpt>
      <trkpt lat="42.420200" lon="-3.188328">
        <ele>779.3</ele>
        <time>2019-08-22T12:38:09Z</time>
        <sat>10</sat>
      </trkpt>
      <trkpt lat="42.420245" lon="-3.188374">
        <ele>778.8</ele>
        <time>2019-08-22T12:38:14Z</time>
        <sat>10</sat>
      </trkpt>
      <trkpt lat="42.420325" lon="-3.188447">
        <ele>777.5</ele>
        <time>2019-08-22T12:38:23Z</time>
        <sat>10</sat>
      </trkpt>
      <trkpt lat="42.420431" lon="-3.188491">
        <ele>777.6</ele>
        <time>2019-08-22T12:38:32Z</time>
        <sat>9</sat>
      </trkpt>
      <trkpt lat="42.420517" lon="-3.188508">
        <ele>776.2</ele>
        <time>2019-08-22T12:38:39Z</time>
        <sat>10</sat>
      </trkpt>
      <trkpt lat="42.420581" lon="-3.188561">
        <ele>778.3</ele>
        <time>2019-08-22T12:38:46Z</time>
        <sat>10</sat>
      </trkpt>
      <trkpt lat="42.420597" lon="-3.188595">
        <ele>778.7</ele>
        <time>2019-08-22T12:38:50Z</time>
        <sat>9</sat>
      </trkpt>
      <trkpt lat="42.420641" lon="-3.188606">
        <ele>779.2</ele>
        <time>2019-08-22T12:38:59Z</time>
        <sat>10</sat>
      </trkpt>
      <trkpt lat="42.420719" lon="-3.188661">
        <ele>779.9</ele>
        <time>2019-08-22T12:39:14Z</time>
        <sat>10</sat>
      </trkpt>
      <trkpt lat="42.420747" lon="-3.188714">
        <ele>779.8</ele>
        <time>2019-08-22T12:39:20Z</time>
        <sat>11</sat>
      </trkpt>
      <trkpt lat="42.420737" lon="-3.188744">
        <ele>779.8</ele>
        <time>2019-08-22T12:39:27Z</time>
        <sat>10</sat>
      </trkpt>
      <trkpt lat="42.420726" lon="-3.188761">
        <ele>780.0</ele>
        <time>2019-08-22T12:39:32Z</time>
        <sat>10</sat>
      </trkpt>
      <trkpt lat="42.420722" lon="-3.188768">
        <ele>779.8</ele>
        <time>2019-08-22T12:40:13Z</time>
        <sat>9</sat>
      </trkpt>
      <trkpt lat="42.420722" lon="-3.188883">
        <ele>779.9</ele>
        <time>2019-08-22T12:40:20Z</time>
        <sat>11</sat>
      </trkpt>
      <trkpt lat="42.420738" lon="-3.188952">
        <ele>779.9</ele>
        <time>2019-08-22T12:40:24Z</time>
        <sat>11</sat>
      </trkpt>
      <trkpt lat="42.420773" lon="-3.189010">
        <ele>780.1</ele>
        <time>2019-08-22T12:40:28Z</time>
        <sat>11</sat>
      </trkpt>
      <trkpt lat="42.420785" lon="-3.189097">
        <ele>780.2</ele>
        <time>2019-08-22T12:40:33Z</time>
        <sat>11</sat>
      </trkpt>
      <trkpt lat="42.420850" lon="-3.189168">
        <ele>780.3</ele>
        <time>2019-08-22T12:40:40Z</time>
        <sat>11</sat>
      </trkpt>
      <trkpt lat="42.420897" lon="-3.189180">
        <ele>780.3</ele>
        <time>2019-08-22T12:40:44Z</time>
        <sat>11</sat>
      </trkpt>
      <trkpt lat="42.421043" lon="-3.189170">
        <ele>779.9</ele>
        <time>2019-08-22T12:40:56Z</time>
        <sat>11</sat>
      </trkpt>
      <trkpt lat="42.421151" lon="-3.189152">
        <ele>779.8</ele>
        <time>2019-08-22T12:41:04Z</time>
        <sat>10</sat>
      </trkpt>
      <trkpt lat="42.421191" lon="-3.189189">
        <ele>779.6</ele>
        <time>2019-08-22T12:41:09Z</time>
        <sat>11</sat>
      </trkpt>
      <trkpt lat="42.421200" lon="-3.189268">
        <ele>779.5</ele>
        <time>2019-08-22T12:41:14Z</time>
        <sat>11</sat>
      </trkpt>
      <trkpt lat="42.421219" lon="-3.189326">
        <ele>779.3</ele>
        <time>2019-08-22T12:41:18Z</time>
        <sat>11</sat>
      </trkpt>
      <trkpt lat="42.421230" lon="-3.189422">
        <ele>779.0</ele>
        <time>2019-08-22T12:41:24Z</time>
        <sat>10</sat>
      </trkpt>
      <trkpt lat="42.421234" lon="-3.189527">
        <ele>778.8</ele>
        <time>2019-08-22T12:41:33Z</time>
        <sat>11</sat>
      </trkpt>
      <trkpt lat="42.421247" lon="-3.189727">
        <ele>778.1</ele>
        <time>2019-08-22T12:41:44Z</time>
        <sat>11</sat>
      </trkpt>
      <trkpt lat="42.421266" lon="-3.189944">
        <ele>777.6</ele>
        <time>2019-08-22T12:41:56Z</time>
        <sat>11</sat>
      </trkpt>
      <trkpt lat="42.421275" lon="-3.190007">
        <ele>777.8</ele>
        <time>2019-08-22T12:42:02Z</time>
        <sat>11</sat>
      </trkpt>
      <trkpt lat="42.421253" lon="-3.190196">
        <ele>777.6</ele>
        <time>2019-08-22T12:42:11Z</time>
        <sat>11</sat>
      </trkpt>
      <trkpt lat="42.421203" lon="-3.190327">
        <ele>777.1</ele>
        <time>2019-08-22T12:42:22Z</time>
        <sat>11</sat>
      </trkpt>
      <trkpt lat="42.421181" lon="-3.190411">
        <ele>777.0</ele>
        <time>2019-08-22T12:42:29Z</time>
        <sat>11</sat>
      </trkpt>
      <trkpt lat="42.421150" lon="-3.190490">
        <ele>776.0</ele>
        <time>2019-08-22T12:42:35Z</time>
        <sat>10</sat>
      </trkpt>
      <trkpt lat="42.421144" lon="-3.190554">
        <ele>776.4</ele>
        <time>2019-08-22T12:42:39Z</time>
        <sat>10</sat>
      </trkpt>
      <trkpt lat="42.421122" lon="-3.190607">
        <ele>776.1</ele>
        <time>2019-08-22T12:42:51Z</time>
        <sat>11</sat>
      </trkpt>
      <trkpt lat="42.421098" lon="-3.190658">
        <ele>775.2</ele>
        <time>2019-08-22T12:43:02Z</time>
        <sat>9</sat>
      </trkpt>
      <trkpt lat="42.421095" lon="-3.190665">
        <ele>763.3</ele>
        <time>2020-08-19T05:02:57Z</time>
        <sat>6</sat>
      </trkpt>
      <trkpt lat="42.421072" lon="-3.190749">
        <ele>761.5</ele>
        <time>2020-08-19T05:03:23Z</time>
        <sat>6</sat>
      </trkpt>
      <trkpt lat="42.421047" lon="-3.190855">
        <ele>759.0</ele>
        <time>2020-08-19T05:03:33Z</time>
        <sat>6</sat>
      </trkpt>
      <trkpt lat="42.421015" lon="-3.190971">
        <ele>762.4</ele>
        <time>2020-08-19T05:03:41Z</time>
        <sat>5</sat>
      </trkpt>
      <trkpt lat="42.420964" lon="-3.191069">
        <ele>762.6</ele>
        <time>2020-08-19T05:03:46Z</time>
        <sat>5</sat>
      </trkpt>
      <trkpt lat="42.420930" lon="-3.191181">
        <ele>762.6</ele>
        <time>2020-08-19T05:03:53Z</time>
        <sat>6</sat>
      </trkpt>
      <trkpt lat="42.420912" lon="-3.191277">
        <ele>762.2</ele>
        <time>2020-08-19T05:04:05Z</time>
        <sat>6</sat>
      </trkpt>
      <trkpt lat="42.420887" lon="-3.191390">
        <ele>761.9</ele>
        <time>2020-08-19T05:04:11Z</time>
        <sat>6</sat>
      </trkpt>
      <trkpt lat="42.420854" lon="-3.191488">
        <ele>762.1</ele>
        <time>2020-08-19T05:04:19Z</time>
        <sat>6</sat>
      </trkpt>
      <trkpt lat="42.420831" lon="-3.191599">
        <ele>762.3</ele>
        <time>2020-08-19T05:04:26Z</time>
        <sat>6</sat>
      </trkpt>
      <trkpt lat="42.420778" lon="-3.191707">
        <ele>762.8</ele>
        <time>2020-08-19T05:04:33Z</time>
        <sat>6</sat>
      </trkpt>
      <trkpt lat="42.420748" lon="-3.191822">
        <ele>763.0</ele>
        <time>2020-08-19T05:04:37Z</time>
        <sat>5</sat>
      </trkpt>
      <trkpt lat="42.420714" lon="-3.191914">
        <ele>764.0</ele>
        <time>2020-08-19T05:04:45Z</time>
        <sat>6</sat>
      </trkpt>
      <trkpt lat="42.420665" lon="-3.192029">
        <ele>761.7</ele>
        <time>2020-08-19T05:04:51Z</time>
        <sat>6</sat>
      </trkpt>
      <trkpt lat="42.420631" lon="-3.192119">
        <ele>762.1</ele>
        <time>2020-08-19T05:04:54Z</time>
        <sat>6</sat>
      </trkpt>
      <trkpt lat="42.420597" lon="-3.192216">
        <ele>764.0</ele>
        <time>2020-08-19T05:05:02Z</time>
        <sat>7</sat>
      </trkpt>
      <trkpt lat="42.420558" lon="-3.192307">
        <ele>764.3</ele>
        <time>2020-08-19T05:05:07Z</time>
        <sat>7</sat>
      </trkpt>
      <trkpt lat="42.420545" lon="-3.192417">
        <ele>764.5</ele>
        <time>2020-08-19T05:05:14Z</time>
        <sat>7</sat>
      </trkpt>
      <trkpt lat="42.420496" lon="-3.192516">
        <ele>764.5</ele>
        <time>2020-08-19T05:05:21Z</time>
        <sat>7</sat>
      </trkpt>
      <trkpt lat="42.420447" lon="-3.192609">
        <ele>764.5</ele>
        <time>2020-08-19T05:05:27Z</time>
        <sat>7</sat>
      </trkpt>
      <trkpt lat="42.420391" lon="-3.192705">
        <ele>764.7</ele>
        <time>2020-08-19T05:05:34Z</time>
        <sat>7</sat>
      </trkpt>
      <trkpt lat="42.420347" lon="-3.192800">
        <ele>764.6</ele>
        <time>2020-08-19T05:05:43Z</time>
        <sat>5</sat>
      </trkpt>
      <trkpt lat="42.420322" lon="-3.192915">
        <ele>763.8</ele>
        <time>2020-08-19T05:05:51Z</time>
        <sat>6</sat>
      </trkpt>
      <trkpt lat="42.420288" lon="-3.193017">
        <ele>765.5</ele>
        <time>2020-08-19T05:05:57Z</time>
        <sat>6</sat>
      </trkpt>
      <trkpt lat="42.420270" lon="-3.193138">
        <ele>765.4</ele>
        <time>2020-08-19T05:06:04Z</time>
        <sat>7</sat>
      </trkpt>
      <trkpt lat="42.420249" lon="-3.193260">
        <ele>765.4</ele>
        <time>2020-08-19T05:06:11Z</time>
        <sat>6</sat>
      </trkpt>
      <trkpt lat="42.420202" lon="-3.193361">
        <ele>765.3</ele>
        <time>2020-08-19T05:06:20Z</time>
        <sat>6</sat>
      </trkpt>
      <trkpt lat="42.420159" lon="-3.193446">
        <ele>765.7</ele>
        <time>2020-08-19T05:06:28Z</time>
        <sat>6</sat>
      </trkpt>
      <trkpt lat="42.420107" lon="-3.193534">
        <ele>765.5</ele>
        <time>2020-08-19T05:06:35Z</time>
        <sat>6</sat>
      </trkpt>
      <trkpt lat="42.420068" lon="-3.193634">
        <ele>765.3</ele>
        <time>2020-08-19T05:06:41Z</time>
        <sat>6</sat>
      </trkpt>
      <trkpt lat="42.420017" lon="-3.193731">
        <ele>765.2</ele>
        <time>2020-08-19T05:06:47Z</time>
        <sat>6</sat>
      </trkpt>
      <trkpt lat="42.419965" lon="-3.193821">
        <ele>765.0</ele>
        <time>2020-08-19T05:06:53Z</time>
        <sat>6</sat>
      </trkpt>
      <trkpt lat="42.419921" lon="-3.193916">
        <ele>765.0</ele>
        <time>2020-08-19T05:06:59Z</time>
        <sat>6</sat>
      </trkpt>
      <trkpt lat="42.419874" lon="-3.194008">
        <ele>765.0</ele>
        <time>2020-08-19T05:07:05Z</time>
        <sat>6</sat>
      </trkpt>
      <trkpt lat="42.419817" lon="-3.194097">
        <ele>765.0</ele>
        <time>2020-08-19T05:07:11Z</time>
        <sat>6</sat>
      </trkpt>
      <trkpt lat="42.419769" lon="-3.194206">
        <ele>765.1</ele>
        <time>2020-08-19T05:07:18Z</time>
        <sat>6</sat>
      </trkpt>
      <trkpt lat="42.419709" lon="-3.194290">
        <ele>765.2</ele>
        <time>2020-08-19T05:07:24Z</time>
        <sat>6</sat>
      </trkpt>
      <trkpt lat="42.419679" lon="-3.194395">
        <ele>764.7</ele>
        <time>2020-08-19T05:07:30Z</time>
        <sat>6</sat>
      </trkpt>
      <trkpt lat="42.419647" lon="-3.194497">
        <ele>764.8</ele>
        <time>2020-08-19T05:07:35Z</time>
        <sat>6</sat>
      </trkpt>
      <trkpt lat="42.419605" lon="-3.194592">
        <ele>764.7</ele>
        <time>2020-08-19T05:07:41Z</time>
        <sat>6</sat>
      </trkpt>
      <trkpt lat="42.419564" lon="-3.194687">
        <ele>765.3</ele>
        <time>2020-08-19T05:07:48Z</time>
        <sat>6</sat>
      </trkpt>
      <trkpt lat="42.419525" lon="-3.194790">
        <ele>766.1</ele>
        <time>2020-08-19T05:07:55Z</time>
        <sat>6</sat>
      </trkpt>
      <trkpt lat="42.419476" lon="-3.194894">
        <ele>766.0</ele>
        <time>2020-08-19T05:08:02Z</time>
        <sat>6</sat>
      </trkpt>
      <trkpt lat="42.419426" lon="-3.195001">
        <ele>765.9</ele>
        <time>2020-08-19T05:08:09Z</time>
        <sat>6</sat>
      </trkpt>
      <trkpt lat="42.419436" lon="-3.195115">
        <ele>765.3</ele>
        <time>2020-08-19T05:08:37Z</time>
        <sat>6</sat>
      </trkpt>
      <trkpt lat="42.419478" lon="-3.195211">
        <ele>765.4</ele>
        <time>2020-08-19T05:09:03Z</time>
        <sat>8</sat>
      </trkpt>
      <trkpt lat="42.419410" lon="-3.195272">
        <ele>765.7</ele>
        <time>2020-08-19T05:09:17Z</time>
        <sat>6</sat>
      </trkpt>
      <trkpt lat="42.419317" lon="-3.195294">
        <ele>765.9</ele>
        <time>2020-08-19T05:09:25Z</time>
        <sat>6</sat>
      </trkpt>
      <trkpt lat="42.419237" lon="-3.195320">
        <ele>765.9</ele>
        <time>2020-08-19T05:09:32Z</time>
        <sat>7</sat>
      </trkpt>
      <trkpt lat="42.419168" lon="-3.195382">
        <ele>765.9</ele>
        <time>2020-08-19T05:09:39Z</time>
        <sat>6</sat>
      </trkpt>
      <trkpt lat="42.419099" lon="-3.195443">
        <ele>766.0</ele>
        <time>2020-08-19T05:09:45Z</time>
        <sat>7</sat>
      </trkpt>
      <trkpt lat="42.419036" lon="-3.195537">
        <ele>766.1</ele>
        <time>2020-08-19T05:09:51Z</time>
        <sat>8</sat>
      </trkpt>
      <trkpt lat="42.418979" lon="-3.195618">
        <ele>766.3</ele>
        <time>2020-08-19T05:09:56Z</time>
        <sat>8</sat>
      </trkpt>
      <trkpt lat="42.418926" lon="-3.195722">
        <ele>766.3</ele>
        <time>2020-08-19T05:10:02Z</time>
        <sat>8</sat>
      </trkpt>
      <trkpt lat="42.418884" lon="-3.195825">
        <ele>766.4</ele>
        <time>2020-08-19T05:10:09Z</time>
        <sat>7</sat>
      </trkpt>
      <trkpt lat="42.418872" lon="-3.195945">
        <ele>765.7</ele>
        <time>2020-08-19T05:10:17Z</time>
        <sat>6</sat>
      </trkpt>
      <trkpt lat="42.418879" lon="-3.196065">
        <ele>766.0</ele>
        <time>2020-08-19T05:10:25Z</time>
        <sat>6</sat>
      </trkpt>
      <trkpt lat="42.418892" lon="-3.196186">
        <ele>765.0</ele>
        <time>2020-08-19T05:10:33Z</time>
        <sat>8</sat>
      </trkpt>
      <trkpt lat="42.418868" lon="-3.196302">
        <ele>764.2</ele>
        <time>2020-08-19T05:10:39Z</time>
        <sat>7</sat>
      </trkpt>
      <trkpt lat="42.418845" lon="-3.196422">
        <ele>763.7</ele>
        <time>2020-08-19T05:10:45Z</time>
        <sat>8</sat>
      </trkpt>
      <trkpt lat="42.418827" lon="-3.196537">
        <ele>763.5</ele>
        <time>2020-08-19T05:10:52Z</time>
        <sat>8</sat>
      </trkpt>
      <trkpt lat="42.418796" lon="-3.196652">
        <ele>763.6</ele>
        <time>2020-08-19T05:10:59Z</time>
        <sat>9</sat>
      </trkpt>
      <trkpt lat="42.418762" lon="-3.196756">
        <ele>763.6</ele>
        <time>2020-08-19T05:11:05Z</time>
        <sat>8</sat>
      </trkpt>
      <trkpt lat="42.418721" lon="-3.196863">
        <ele>765.9</ele>
        <time>2020-08-19T05:11:11Z</time>
        <sat>8</sat>
      </trkpt>
      <trkpt lat="42.418681" lon="-3.196976">
        <ele>766.2</ele>
        <time>2020-08-19T05:11:18Z</time>
        <sat>9</sat>
      </trkpt>
      <trkpt lat="42.418631" lon="-3.197083">
        <ele>765.9</ele>
        <time>2020-08-19T05:11:25Z</time>
        <sat>9</sat>
      </trkpt>
      <trkpt lat="42.418594" lon="-3.197191">
        <ele>765.3</ele>
        <time>2020-08-19T05:11:32Z</time>
        <sat>8</sat>
      </trkpt>
      <trkpt lat="42.418537" lon="-3.197279">
        <ele>764.8</ele>
        <time>2020-08-19T05:11:39Z</time>
        <sat>9</sat>
      </trkpt>
      <trkpt lat="42.418502" lon="-3.197381">
        <ele>764.6</ele>
        <time>2020-08-19T05:11:45Z</time>
        <sat>9</sat>
      </trkpt>
      <trkpt lat="42.418474" lon="-3.197502">
        <ele>764.4</ele>
        <time>2020-08-19T05:11:52Z</time>
        <sat>9</sat>
      </trkpt>
      <trkpt lat="42.418437" lon="-3.197615">
        <ele>764.3</ele>
        <time>2020-08-19T05:11:58Z</time>
        <sat>9</sat>
      </trkpt>
      <trkpt lat="42.418418" lon="-3.197729">
        <ele>764.2</ele>
        <time>2020-08-19T05:12:05Z</time>
        <sat>9</sat>
      </trkpt>
      <trkpt lat="42.418387" lon="-3.197835">
        <ele>764.3</ele>
        <time>2020-08-19T05:12:11Z</time>
        <sat>9</sat>
      </trkpt>
      <trkpt lat="42.418370" lon="-3.197943">
        <ele>764.2</ele>
        <time>2020-08-19T05:12:17Z</time>
        <sat>9</sat>
      </trkpt>
      <trkpt lat="42.418341" lon="-3.198049">
        <ele>764.2</ele>
        <time>2020-08-19T05:12:23Z</time>
        <sat>9</sat>
      </trkpt>
      <trkpt lat="42.418325" lon="-3.198158">
        <ele>764.1</ele>
        <time>2020-08-19T05:12:29Z</time>
        <sat>8</sat>
      </trkpt>
      <trkpt lat="42.418300" lon="-3.198277">
        <ele>764.1</ele>
        <time>2020-08-19T05:12:36Z</time>
        <sat>9</sat>
      </trkpt>
      <trkpt lat="42.418278" lon="-3.198386">
        <ele>764.0</ele>
        <time>2020-08-19T05:12:42Z</time>
        <sat>9</sat>
      </trkpt>
      <trkpt lat="42.418262" lon="-3.198506">
        <ele>764.0</ele>
        <time>2020-08-19T05:12:49Z</time>
        <sat>9</sat>
      </trkpt>
      <trkpt lat="42.418240" lon="-3.198624">
        <ele>764.0</ele>
        <time>2020-08-19T05:12:56Z</time>
        <sat>8</sat>
      </trkpt>
      <trkpt lat="42.418228" lon="-3.198746">
        <ele>763.9</ele>
        <time>2020-08-19T05:13:03Z</time>
        <sat>9</sat>
      </trkpt>
      <trkpt lat="42.418219" lon="-3.198875">
        <ele>763.9</ele>
        <time>2020-08-19T05:13:10Z</time>
        <sat>8</sat>
      </trkpt>
      <trkpt lat="42.418215" lon="-3.198997">
        <ele>764.0</ele>
        <time>2020-08-19T05:13:16Z</time>
        <sat>9</sat>
      </trkpt>
      <trkpt lat="42.418192" lon="-3.199116">
        <ele>764.0</ele>
        <time>2020-08-19T05:13:23Z</time>
        <sat>9</sat>
      </trkpt>
      <trkpt lat="42.418174" lon="-3.199227">
        <ele>764.0</ele>
        <time>2020-08-19T05:13:29Z</time>
        <sat>9</sat>
      </trkpt>
      <trkpt lat="42.418175" lon="-3.199344">
        <ele>764.1</ele>
        <time>2020-08-19T05:13:35Z</time>
        <sat>9</sat>
      </trkpt>
      <trkpt lat="42.418153" lon="-3.199468">
        <ele>764.1</ele>
        <time>2020-08-19T05:13:42Z</time>
        <sat>9</sat>
      </trkpt>
      <trkpt lat="42.418127" lon="-3.199586">
        <ele>764.1</ele>
        <time>2020-08-19T05:13:49Z</time>
        <sat>9</sat>
      </trkpt>
      <trkpt lat="42.418118" lon="-3.199695">
        <ele>764.1</ele>
        <time>2020-08-19T05:13:55Z</time>
        <sat>8</sat>
      </trkpt>
      <trkpt lat="42.418087" lon="-3.199802">
        <ele>764.2</ele>
        <time>2020-08-19T05:14:01Z</time>
        <sat>8</sat>
      </trkpt>
      <trkpt lat="42.418068" lon="-3.199915">
        <ele>764.2</ele>
        <time>2020-08-19T05:14:07Z</time>
        <sat>7</sat>
      </trkpt>
      <trkpt lat="42.418056" lon="-3.200026">
        <ele>764.3</ele>
        <time>2020-08-19T05:14:13Z</time>
        <sat>8</sat>
      </trkpt>
      <trkpt lat="42.418030" lon="-3.200136">
        <ele>764.5</ele>
        <time>2020-08-19T05:14:19Z</time>
        <sat>8</sat>
      </trkpt>
      <trkpt lat="42.417996" lon="-3.200256">
        <ele>764.6</ele>
        <time>2020-08-19T05:14:26Z</time>
        <sat>7</sat>
      </trkpt>
      <trkpt lat="42.417991" lon="-3.200281">
        <ele>764.9</ele>
        <time>2020-08-19T05:14:50Z</time>
        <sat>7</sat>
      </trkpt>
      <trkpt lat="42.417978" lon="-3.200317">
        <ele>764.7</ele>
        <time>2020-08-19T05:15:18Z</time>
        <sat>8</sat>
      </trkpt>
      <trkpt lat="42.417945" lon="-3.200376">
        <ele>764.8</ele>
        <time>2020-08-19T05:15:25Z</time>
        <sat>7</sat>
      </trkpt>
      <trkpt lat="42.417919" lon="-3.200492">
        <ele>765.0</ele>
        <time>2020-08-19T05:15:32Z</time>
        <sat>8</sat>
      </trkpt>
      <trkpt lat="42.417886" lon="-3.200598">
        <ele>765.0</ele>
        <time>2020-08-19T05:15:39Z</time>
        <sat>8</sat>
      </trkpt>
      <trkpt lat="42.417835" lon="-3.200687">
        <ele>764.9</ele>
        <time>2020-08-19T05:15:45Z</time>
        <sat>8</sat>
      </trkpt>
      <trkpt lat="42.417793" lon="-3.200792">
        <ele>763.0</ele>
        <time>2020-08-19T05:15:53Z</time>
        <sat>6</sat>
      </trkpt>
      <trkpt lat="42.417778" lon="-3.200911">
        <ele>765.9</ele>
        <time>2020-08-19T05:16:02Z</time>
        <sat>7</sat>
      </trkpt>
      <trkpt lat="42.417761" lon="-3.201027">
        <ele>765.9</ele>
        <time>2020-08-19T05:16:10Z</time>
        <sat>7</sat>
      </trkpt>
      <trkpt lat="42.417683" lon="-3.201165">
        <ele>766.1</ele>
        <time>2020-08-19T05:16:16Z</time>
        <sat>8</sat>
      </trkpt>
      <trkpt lat="42.417662" lon="-3.201290">
        <ele>766.8</ele>
        <time>2020-08-19T05:16:23Z</time>
        <sat>8</sat>
      </trkpt>
      <trkpt lat="42.417671" lon="-3.201408">
        <ele>766.6</ele>
        <time>2020-08-19T05:16:30Z</time>
        <sat>8</sat>
      </trkpt>
      <trkpt lat="42.417683" lon="-3.201519">
        <ele>766.3</ele>
        <time>2020-08-19T05:16:38Z</time>
        <sat>6</sat>
      </trkpt>
      <trkpt lat="42.417725" lon="-3.201617">
        <ele>765.8</ele>
        <time>2020-08-19T05:16:46Z</time>
        <sat>6</sat>
      </trkpt>
      <trkpt lat="42.417775" lon="-3.201707">
        <ele>765.4</ele>
        <time>2020-08-19T05:16:53Z</time>
        <sat>6</sat>
      </trkpt>
      <trkpt lat="42.417826" lon="-3.201798">
        <ele>765.1</ele>
        <time>2020-08-19T05:16:59Z</time>
        <sat>7</sat>
      </trkpt>
      <trkpt lat="42.417875" lon="-3.201894">
        <ele>765.1</ele>
        <time>2020-08-19T05:17:07Z</time>
        <sat>7</sat>
      </trkpt>
      <trkpt lat="42.417930" lon="-3.201997">
        <ele>765.4</ele>
        <time>2020-08-19T05:17:14Z</time>
        <sat>7</sat>
      </trkpt>
      <trkpt lat="42.417961" lon="-3.202113">
        <ele>765.5</ele>
        <time>2020-08-19T05:17:32Z</time>
        <sat>7</sat>
      </trkpt>
      <trkpt lat="42.418012" lon="-3.202220">
        <ele>765.2</ele>
        <time>2020-08-19T05:17:39Z</time>
        <sat>7</sat>
      </trkpt>
      <trkpt lat="42.418063" lon="-3.202309">
        <ele>765.2</ele>
        <time>2020-08-19T05:17:45Z</time>
        <sat>7</sat>
      </trkpt>
      <trkpt lat="42.418105" lon="-3.202415">
        <ele>765.3</ele>
        <time>2020-08-19T05:17:52Z</time>
        <sat>7</sat>
      </trkpt>
      <trkpt lat="42.418145" lon="-3.202514">
        <ele>765.3</ele>
        <time>2020-08-19T05:17:59Z</time>
        <sat>7</sat>
      </trkpt>
      <trkpt lat="42.418188" lon="-3.202615">
        <ele>765.3</ele>
        <time>2020-08-19T05:18:06Z</time>
        <sat>7</sat>
      </trkpt>
      <trkpt lat="42.418229" lon="-3.202719">
        <ele>765.1</ele>
        <time>2020-08-19T05:18:13Z</time>
        <sat>7</sat>
      </trkpt>
      <trkpt lat="42.418285" lon="-3.202816">
        <ele>764.9</ele>
        <time>2020-08-19T05:18:20Z</time>
        <sat>7</sat>
      </trkpt>
      <trkpt lat="42.418327" lon="-3.202911">
        <ele>764.8</ele>
        <time>2020-08-19T05:18:26Z</time>
        <sat>7</sat>
      </trkpt>
      <trkpt lat="42.418379" lon="-3.203012">
        <ele>764.6</ele>
        <time>2020-08-19T05:18:33Z</time>
        <sat>7</sat>
      </trkpt>
      <trkpt lat="42.418430" lon="-3.203118">
        <ele>764.3</ele>
        <time>2020-08-19T05:18:40Z</time>
        <sat>7</sat>
      </trkpt>
      <trkpt lat="42.418480" lon="-3.203225">
        <ele>764.5</ele>
        <time>2020-08-19T05:18:47Z</time>
        <sat>7</sat>
      </trkpt>
      <trkpt lat="42.418510" lon="-3.203334">
        <ele>764.9</ele>
        <time>2020-08-19T05:18:54Z</time>
        <sat>7</sat>
      </trkpt>
      <trkpt lat="42.418535" lon="-3.203452">
        <ele>765.0</ele>
        <time>2020-08-19T05:19:01Z</time>
        <sat>7</sat>
      </trkpt>
      <trkpt lat="42.418550" lon="-3.203573">
        <ele>764.7</ele>
        <time>2020-08-19T05:19:08Z</time>
        <sat>7</sat>
      </trkpt>
      <trkpt lat="42.418574" lon="-3.203693">
        <ele>764.6</ele>
        <time>2020-08-19T05:19:15Z</time>
        <sat>7</sat>
      </trkpt>
      <trkpt lat="42.418586" lon="-3.203803">
        <ele>764.6</ele>
        <time>2020-08-19T05:19:21Z</time>
        <sat>6</sat>
      </trkpt>
      <trkpt lat="42.418596" lon="-3.203927">
        <ele>764.6</ele>
        <time>2020-08-19T05:19:28Z</time>
        <sat>7</sat>
      </trkpt>
      <trkpt lat="42.418587" lon="-3.204047">
        <ele>764.9</ele>
        <time>2020-08-19T05:19:35Z</time>
        <sat>7</sat>
      </trkpt>
      <trkpt lat="42.418562" lon="-3.204154">
        <ele>765.1</ele>
        <time>2020-08-19T05:19:41Z</time>
        <sat>7</sat>
      </trkpt>
      <trkpt lat="42.418523" lon="-3.204253">
        <ele>765.4</ele>
        <time>2020-08-19T05:19:47Z</time>
        <sat>7</sat>
      </trkpt>
      <trkpt lat="42.418497" lon="-3.204367">
        <ele>765.3</ele>
        <time>2020-08-19T05:19:54Z</time>
        <sat>7</sat>
      </trkpt>
      <trkpt lat="42.418449" lon="-3.204458">
        <ele>765.6</ele>
        <time>2020-08-19T05:20:00Z</time>
        <sat>7</sat>
      </trkpt>
      <trkpt lat="42.418413" lon="-3.204557">
        <ele>765.7</ele>
        <time>2020-08-19T05:20:06Z</time>
        <sat>7</sat>
      </trkpt>
      <trkpt lat="42.418354" lon="-3.204657">
        <ele>765.9</ele>
        <time>2020-08-19T05:20:13Z</time>
        <sat>7</sat>
      </trkpt>
      <trkpt lat="42.418311" lon="-3.204750">
        <ele>766.0</ele>
        <time>2020-08-19T05:20:29Z</time>
        <sat>7</sat>
      </trkpt>
      <trkpt lat="42.418260" lon="-3.204846">
        <ele>766.0</ele>
        <time>2020-08-19T05:20:37Z</time>
        <sat>7</sat>
      </trkpt>
      <trkpt lat="42.418219" lon="-3.204941">
        <ele>765.9</ele>
        <time>2020-08-19T05:20:43Z</time>
        <sat>5</sat>
      </trkpt>
      <trkpt lat="42.418177" lon="-3.205049">
        <ele>765.8</ele>
        <time>2020-08-19T05:20:50Z</time>
        <sat>6</sat>
      </trkpt>
      <trkpt lat="42.418136" lon="-3.205154">
        <ele>766.1</ele>
        <time>2020-08-19T05:20:56Z</time>
        <sat>7</sat>
      </trkpt>
      <trkpt lat="42.418112" lon="-3.205266">
        <ele>766.7</ele>
        <time>2020-08-19T05:21:04Z</time>
        <sat>7</sat>
      </trkpt>
      <trkpt lat="42.418077" lon="-3.205376">
        <ele>767.5</ele>
        <time>2020-08-19T05:21:11Z</time>
        <sat>6</sat>
      </trkpt>
      <trkpt lat="42.418024" lon="-3.205465">
        <ele>768.1</ele>
        <time>2020-08-19T05:21:18Z</time>
        <sat>7</sat>
      </trkpt>
      <trkpt lat="42.417960" lon="-3.205554">
        <ele>768.4</ele>
        <time>2020-08-19T05:21:26Z</time>
        <sat>6</sat>
      </trkpt>
      <trkpt lat="42.417897" lon="-3.205634">
        <ele>768.8</ele>
        <time>2020-08-19T05:21:33Z</time>
        <sat>6</sat>
      </trkpt>
      <trkpt lat="42.417837" lon="-3.205716">
        <ele>769.0</ele>
        <time>2020-08-19T05:21:40Z</time>
        <sat>6</sat>
      </trkpt>
      <trkpt lat="42.417761" lon="-3.205782">
        <ele>769.2</ele>
        <time>2020-08-19T05:21:47Z</time>
        <sat>6</sat>
      </trkpt>
      <trkpt lat="42.417678" lon="-3.205836">
        <ele>769.5</ele>
        <time>2020-08-19T05:21:54Z</time>
        <sat>7</sat>
      </trkpt>
      <trkpt lat="42.417605" lon="-3.205892">
        <ele>769.8</ele>
        <time>2020-08-19T05:22:01Z</time>
        <sat>7</sat>
      </trkpt>
      <trkpt lat="42.417541" lon="-3.205963">
        <ele>770.1</ele>
        <time>2020-08-19T05:22:08Z</time>
        <sat>7</sat>
      </trkpt>
      <trkpt lat="42.417486" lon="-3.206051">
        <ele>770.2</ele>
        <time>2020-08-19T05:22:15Z</time>
        <sat>6</sat>
      </trkpt>
      <trkpt lat="42.417426" lon="-3.206138">
        <ele>770.5</ele>
        <time>2020-08-19T05:22:22Z</time>
        <sat>6</sat>
      </trkpt>
      <trkpt lat="42.417363" lon="-3.206231">
        <ele>770.7</ele>
        <time>2020-08-19T05:22:29Z</time>
        <sat>7</sat>
      </trkpt>
      <trkpt lat="42.417315" lon="-3.206325">
        <ele>770.9</ele>
        <time>2020-08-19T05:22:36Z</time>
        <sat>7</sat>
      </trkpt>
      <trkpt lat="42.417260" lon="-3.206424">
        <ele>771.1</ele>
        <time>2020-08-19T05:22:43Z</time>
        <sat>6</sat>
      </trkpt>
      <trkpt lat="42.417214" lon="-3.206519">
        <ele>771.2</ele>
        <time>2020-08-19T05:22:49Z</time>
        <sat>7</sat>
      </trkpt>
      <trkpt lat="42.417166" lon="-3.206612">
        <ele>771.4</ele>
        <time>2020-08-19T05:22:55Z</time>
        <sat>7</sat>
      </trkpt>
      <trkpt lat="42.417112" lon="-3.206710">
        <ele>771.6</ele>
        <time>2020-08-19T05:23:02Z</time>
        <sat>5</sat>
      </trkpt>
      <trkpt lat="42.417053" lon="-3.206812">
        <ele>771.6</ele>
        <time>2020-08-19T05:23:09Z</time>
        <sat>6</sat>
      </trkpt>
      <trkpt lat="42.417002" lon="-3.206912">
        <ele>771.8</ele>
        <time>2020-08-19T05:23:16Z</time>
        <sat>7</sat>
      </trkpt>
      <trkpt lat="42.416955" lon="-3.207005">
        <ele>771.9</ele>
        <time>2020-08-19T05:23:22Z</time>
        <sat>7</sat>
      </trkpt>
      <trkpt lat="42.416906" lon="-3.207097">
        <ele>771.6</ele>
        <time>2020-08-19T05:23:32Z</time>
        <sat>7</sat>
      </trkpt>
      <trkpt lat="42.416858" lon="-3.207205">
        <ele>771.5</ele>
        <time>2020-08-19T05:23:39Z</time>
        <sat>7</sat>
      </trkpt>
      <trkpt lat="42.416818" lon="-3.207302">
        <ele>771.6</ele>
        <time>2020-08-19T05:23:45Z</time>
        <sat>7</sat>
      </trkpt>
      <trkpt lat="42.416780" lon="-3.207409">
        <ele>771.6</ele>
        <time>2020-08-19T05:23:52Z</time>
        <sat>6</sat>
      </trkpt>
      <trkpt lat="42.416739" lon="-3.207520">
        <ele>771.7</ele>
        <time>2020-08-19T05:23:59Z</time>
        <sat>7</sat>
      </trkpt>
      <trkpt lat="42.416693" lon="-3.207628">
        <ele>771.9</ele>
        <time>2020-08-19T05:24:06Z</time>
        <sat>7</sat>
      </trkpt>
      <trkpt lat="42.416663" lon="-3.207747">
        <ele>772.1</ele>
        <time>2020-08-19T05:24:13Z</time>
        <sat>7</sat>
      </trkpt>
      <trkpt lat="42.416625" lon="-3.207861">
        <ele>772.4</ele>
        <time>2020-08-19T05:24:20Z</time>
        <sat>7</sat>
      </trkpt>
      <trkpt lat="42.416589" lon="-3.207971">
        <ele>772.5</ele>
        <time>2020-08-19T05:24:27Z</time>
        <sat>7</sat>
      </trkpt>
      <trkpt lat="42.416548" lon="-3.208083">
        <ele>772.7</ele>
        <time>2020-08-19T05:24:34Z</time>
        <sat>7</sat>
      </trkpt>
      <trkpt lat="42.416507" lon="-3.208193">
        <ele>772.9</ele>
        <time>2020-08-19T05:24:41Z</time>
        <sat>7</sat>
      </trkpt>
      <trkpt lat="42.416466" lon="-3.208288">
        <ele>772.9</ele>
        <time>2020-08-19T05:24:47Z</time>
        <sat>7</sat>
      </trkpt>
      <trkpt lat="42.416414" lon="-3.208391">
        <ele>773.2</ele>
        <time>2020-08-19T05:24:54Z</time>
        <sat>7</sat>
      </trkpt>
      <trkpt lat="42.416373" lon="-3.208500">
        <ele>773.5</ele>
        <time>2020-08-19T05:25:01Z</time>
        <sat>7</sat>
      </trkpt>
      <trkpt lat="42.416350" lon="-3.208611">
        <ele>773.6</ele>
        <time>2020-08-19T05:25:08Z</time>
        <sat>7</sat>
      </trkpt>
      <trkpt lat="42.416345" lon="-3.208722">
        <ele>773.1</ele>
        <time>2020-08-19T05:25:14Z</time>
        <sat>7</sat>
      </trkpt>
      <trkpt lat="42.416345" lon="-3.208839">
        <ele>774.9</ele>
        <time>2020-08-19T05:25:36Z</time>
        <sat>7</sat>
      </trkpt>
      <trkpt lat="42.416295" lon="-3.208927">
        <ele>774.7</ele>
        <time>2020-08-19T05:25:58Z</time>
        <sat>7</sat>
      </trkpt>
      <trkpt lat="42.416239" lon="-3.209027">
        <ele>774.5</ele>
        <time>2020-08-19T05:26:04Z</time>
        <sat>7</sat>
      </trkpt>
      <trkpt lat="42.416208" lon="-3.209130">
        <ele>774.3</ele>
        <time>2020-08-19T05:26:11Z</time>
        <sat>7</sat>
      </trkpt>
      <trkpt lat="42.416188" lon="-3.209238">
        <ele>774.3</ele>
        <time>2020-08-19T05:26:17Z</time>
        <sat>7</sat>
      </trkpt>
      <trkpt lat="42.416157" lon="-3.209352">
        <ele>774.3</ele>
        <time>2020-08-19T05:26:24Z</time>
        <sat>7</sat>
      </trkpt>
      <trkpt lat="42.416135" lon="-3.209466">
        <ele>774.4</ele>
        <time>2020-08-19T05:26:31Z</time>
        <sat>7</sat>
      </trkpt>
      <trkpt lat="42.416108" lon="-3.209587">
        <ele>774.6</ele>
        <time>2020-08-19T05:26:38Z</time>
        <sat>7</sat>
      </trkpt>
      <trkpt lat="42.416086" lon="-3.209700">
        <ele>774.9</ele>
        <time>2020-08-19T05:26:45Z</time>
        <sat>7</sat>
      </trkpt>
      <trkpt lat="42.416053" lon="-3.209813">
        <ele>775.2</ele>
        <time>2020-08-19T05:26:52Z</time>
        <sat>7</sat>
      </trkpt>
      <trkpt lat="42.416028" lon="-3.209924">
        <ele>775.6</ele>
        <time>2020-08-19T05:27:00Z</time>
        <sat>7</sat>
      </trkpt>
      <trkpt lat="42.415990" lon="-3.210041">
        <ele>776.2</ele>
        <time>2020-08-19T05:27:07Z</time>
        <sat>7</sat>
      </trkpt>
      <trkpt lat="42.415950" lon="-3.210145">
        <ele>776.6</ele>
        <time>2020-08-19T05:27:14Z</time>
        <sat>7</sat>
      </trkpt>
      <trkpt lat="42.415915" lon="-3.210247">
        <ele>777.0</ele>
        <time>2020-08-19T05:27:21Z</time>
        <sat>7</sat>
      </trkpt>
      <trkpt lat="42.415865" lon="-3.210345">
        <ele>777.1</ele>
        <time>2020-08-19T05:27:28Z</time>
        <sat>7</sat>
      </trkpt>
      <trkpt lat="42.415809" lon="-3.210428">
        <ele>777.3</ele>
        <time>2020-08-19T05:27:34Z</time>
        <sat>8</sat>
      </trkpt>
      <trkpt lat="42.415756" lon="-3.210523">
        <ele>777.5</ele>
        <time>2020-08-19T05:27:41Z</time>
        <sat>8</sat>
      </trkpt>
      <trkpt lat="42.415700" lon="-3.210621">
        <ele>777.7</ele>
        <time>2020-08-19T05:27:48Z</time>
        <sat>8</sat>
      </trkpt>
      <trkpt lat="42.415650" lon="-3.210712">
        <ele>777.8</ele>
        <time>2020-08-19T05:27:55Z</time>
        <sat>8</sat>
      </trkpt>
      <trkpt lat="42.415599" lon="-3.210804">
        <ele>778.0</ele>
        <time>2020-08-19T05:28:02Z</time>
        <sat>8</sat>
      </trkpt>
      <trkpt lat="42.415555" lon="-3.210898">
        <ele>778.1</ele>
        <time>2020-08-19T05:28:09Z</time>
        <sat>8</sat>
      </trkpt>
      <trkpt lat="42.415505" lon="-3.210995">
        <ele>778.2</ele>
        <time>2020-08-19T05:28:16Z</time>
        <sat>8</sat>
      </trkpt>
      <trkpt lat="42.415454" lon="-3.211087">
        <ele>778.3</ele>
        <time>2020-08-19T05:28:23Z</time>
        <sat>8</sat>
      </trkpt>
      <trkpt lat="42.415389" lon="-3.211173">
        <ele>778.6</ele>
        <time>2020-08-19T05:28:30Z</time>
        <sat>7</sat>
      </trkpt>
      <trkpt lat="42.415335" lon="-3.211265">
        <ele>779.0</ele>
        <time>2020-08-19T05:28:37Z</time>
        <sat>8</sat>
      </trkpt>
      <trkpt lat="42.415279" lon="-3.211363">
        <ele>779.3</ele>
        <time>2020-08-19T05:28:44Z</time>
        <sat>8</sat>
      </trkpt>
      <trkpt lat="42.415218" lon="-3.211451">
        <ele>779.5</ele>
        <time>2020-08-19T05:28:51Z</time>
        <sat>8</sat>
      </trkpt>
      <trkpt lat="42.415167" lon="-3.211554">
        <ele>779.7</ele>
        <time>2020-08-19T05:28:58Z</time>
        <sat>8</sat>
      </trkpt>
      <trkpt lat="42.415119" lon="-3.211655">
        <ele>779.8</ele>
        <time>2020-08-19T05:29:05Z</time>
        <sat>8</sat>
      </trkpt>
      <trkpt lat="42.415085" lon="-3.211766">
        <ele>780.2</ele>
        <time>2020-08-19T05:29:12Z</time>
        <sat>8</sat>
      </trkpt>
      <trkpt lat="42.415049" lon="-3.211879">
        <ele>780.4</ele>
        <time>2020-08-19T05:29:19Z</time>
        <sat>8</sat>
      </trkpt>
      <trkpt lat="42.415015" lon="-3.211980">
        <ele>780.5</ele>
        <time>2020-08-19T05:29:25Z</time>
        <sat>8</sat>
      </trkpt>
      <trkpt lat="42.414974" lon="-3.212090">
        <ele>780.6</ele>
        <time>2020-08-19T05:29:32Z</time>
        <sat>8</sat>
      </trkpt>
      <trkpt lat="42.414950" lon="-3.212210">
        <ele>780.8</ele>
        <time>2020-08-19T05:29:40Z</time>
        <sat>8</sat>
      </trkpt>
      <trkpt lat="42.414926" lon="-3.212324">
        <ele>780.8</ele>
        <time>2020-08-19T05:29:47Z</time>
        <sat>8</sat>
      </trkpt>
      <trkpt lat="42.414889" lon="-3.212438">
        <ele>781.2</ele>
        <time>2020-08-19T05:29:55Z</time>
        <sat>8</sat>
      </trkpt>
      <trkpt lat="42.414861" lon="-3.212554">
        <ele>781.7</ele>
        <time>2020-08-19T05:30:02Z</time>
        <sat>8</sat>
      </trkpt>
      <trkpt lat="42.414833" lon="-3.212660">
        <ele>781.9</ele>
        <time>2020-08-19T05:30:08Z</time>
        <sat>8</sat>
      </trkpt>
      <trkpt lat="42.414796" lon="-3.212775">
        <ele>782.2</ele>
        <time>2020-08-19T05:30:15Z</time>
        <sat>8</sat>
      </trkpt>
      <trkpt lat="42.414765" lon="-3.212891">
        <ele>782.2</ele>
        <time>2020-08-19T05:30:22Z</time>
        <sat>8</sat>
      </trkpt>
      <trkpt lat="42.414739" lon="-3.213010">
        <ele>781.9</ele>
        <time>2020-08-19T05:30:29Z</time>
        <sat>8</sat>
      </trkpt>
      <trkpt lat="42.414698" lon="-3.213121">
        <ele>780.3</ele>
        <time>2020-08-19T05:30:35Z</time>
        <sat>7</sat>
      </trkpt>
      <trkpt lat="42.414668" lon="-3.213232">
        <ele>783.7</ele>
        <time>2020-08-19T05:30:43Z</time>
        <sat>8</sat>
      </trkpt>
      <trkpt lat="42.414663" lon="-3.213346">
        <ele>784.7</ele>
        <time>2020-08-19T05:30:50Z</time>
        <sat>8</sat>
      </trkpt>
      <trkpt lat="42.414651" lon="-3.213458">
        <ele>784.8</ele>
        <time>2020-08-19T05:30:57Z</time>
        <sat>8</sat>
      </trkpt>
      <trkpt lat="42.414628" lon="-3.213569">
        <ele>784.6</ele>
        <time>2020-08-19T05:31:04Z</time>
        <sat>8</sat>
      </trkpt>
      <trkpt lat="42.414616" lon="-3.213684">
        <ele>784.2</ele>
        <time>2020-08-19T05:31:11Z</time>
        <sat>8</sat>
      </trkpt>
      <trkpt lat="42.414577" lon="-3.213790">
        <ele>784.1</ele>
        <time>2020-08-19T05:31:18Z</time>
        <sat>8</sat>
      </trkpt>
      <trkpt lat="42.414534" lon="-3.213890">
        <ele>784.1</ele>
        <time>2020-08-19T05:31:25Z</time>
        <sat>8</sat>
      </trkpt>
      <trkpt lat="42.414493" lon="-3.214000">
        <ele>784.0</ele>
        <time>2020-08-19T05:31:32Z</time>
        <sat>8</sat>
      </trkpt>
      <trkpt lat="42.414457" lon="-3.214109">
        <ele>784.0</ele>
        <time>2020-08-19T05:31:39Z</time>
        <sat>8</sat>
      </trkpt>
      <trkpt lat="42.414424" lon="-3.214221">
        <ele>784.0</ele>
        <time>2020-08-19T05:31:46Z</time>
        <sat>8</sat>
      </trkpt>
      <trkpt lat="42.414395" lon="-3.214331">
        <ele>784.0</ele>
        <time>2020-08-19T05:31:53Z</time>
        <sat>8</sat>
      </trkpt>
      <trkpt lat="42.414364" lon="-3.214448">
        <ele>784.0</ele>
        <time>2020-08-19T05:32:00Z</time>
        <sat>8</sat>
      </trkpt>
      <trkpt lat="42.414339" lon="-3.214559">
        <ele>784.0</ele>
        <time>2020-08-19T05:32:07Z</time>
        <sat>8</sat>
      </trkpt>
      <trkpt lat="42.414324" lon="-3.214667">
        <ele>783.9</ele>
        <time>2020-08-19T05:32:13Z</time>
        <sat>8</sat>
      </trkpt>
      <trkpt lat="42.414287" lon="-3.214782">
        <ele>783.6</ele>
        <time>2020-08-19T05:32:20Z</time>
        <sat>8</sat>
      </trkpt>
      <trkpt lat="42.414243" lon="-3.214877">
        <ele>783.4</ele>
        <time>2020-08-19T05:32:26Z</time>
        <sat>8</sat>
      </trkpt>
      <trkpt lat="42.414199" lon="-3.214985">
        <ele>783.1</ele>
        <time>2020-08-19T05:32:33Z</time>
        <sat>8</sat>
      </trkpt>
      <trkpt lat="42.414165" lon="-3.215095">
        <ele>782.8</ele>
        <time>2020-08-19T05:32:40Z</time>
        <sat>8</sat>
      </trkpt>
      <trkpt lat="42.414126" lon="-3.215206">
        <ele>782.6</ele>
        <time>2020-08-19T05:32:47Z</time>
        <sat>8</sat>
      </trkpt>
      <trkpt lat="42.414083" lon="-3.215307">
        <ele>782.5</ele>
        <time>2020-08-19T05:32:54Z</time>
        <sat>8</sat>
      </trkpt>
      <trkpt lat="42.414039" lon="-3.215404">
        <ele>782.5</ele>
        <time>2020-08-19T05:33:02Z</time>
        <sat>8</sat>
      </trkpt>
      <trkpt lat="42.413991" lon="-3.215510">
        <ele>782.5</ele>
        <time>2020-08-19T05:33:09Z</time>
        <sat>8</sat>
      </trkpt>
      <trkpt lat="42.413957" lon="-3.215612">
        <ele>782.5</ele>
        <time>2020-08-19T05:33:15Z</time>
        <sat>8</sat>
      </trkpt>
      <trkpt lat="42.413918" lon="-3.215715">
        <ele>782.5</ele>
        <time>2020-08-19T05:33:22Z</time>
        <sat>8</sat>
      </trkpt>
      <trkpt lat="42.413866" lon="-3.215825">
        <ele>782.8</ele>
        <time>2020-08-19T05:33:29Z</time>
        <sat>8</sat>
      </trkpt>
      <trkpt lat="42.413823" lon="-3.215924">
        <ele>782.9</ele>
        <time>2020-08-19T05:33:36Z</time>
        <sat>8</sat>
      </trkpt>
      <trkpt lat="42.413778" lon="-3.216030">
        <ele>783.0</ele>
        <time>2020-08-19T05:33:43Z</time>
        <sat>8</sat>
      </trkpt>
      <trkpt lat="42.413732" lon="-3.216132">
        <ele>783.3</ele>
        <time>2020-08-19T05:33:50Z</time>
        <sat>8</sat>
      </trkpt>
      <trkpt lat="42.413684" lon="-3.216233">
        <ele>783.6</ele>
        <time>2020-08-19T05:33:57Z</time>
        <sat>8</sat>
      </trkpt>
      <trkpt lat="42.413634" lon="-3.216336">
        <ele>783.8</ele>
        <time>2020-08-19T05:34:04Z</time>
        <sat>8</sat>
      </trkpt>
      <trkpt lat="42.413576" lon="-3.216422">
        <ele>784.0</ele>
        <time>2020-08-19T05:34:10Z</time>
        <sat>8</sat>
      </trkpt>
      <trkpt lat="42.413527" lon="-3.216520">
        <ele>784.2</ele>
        <time>2020-08-19T05:34:16Z</time>
        <sat>8</sat>
      </trkpt>
      <trkpt lat="42.413482" lon="-3.216631">
        <ele>784.6</ele>
        <time>2020-08-19T05:34:23Z</time>
        <sat>8</sat>
      </trkpt>
      <trkpt lat="42.413457" lon="-3.216739">
        <ele>785.0</ele>
        <time>2020-08-19T05:34:29Z</time>
        <sat>8</sat>
      </trkpt>
      <trkpt lat="42.413416" lon="-3.216839">
        <ele>785.4</ele>
        <time>2020-08-19T05:34:35Z</time>
        <sat>8</sat>
      </trkpt>
      <trkpt lat="42.413380" lon="-3.216943">
        <ele>785.6</ele>
        <time>2020-08-19T05:34:41Z</time>
        <sat>8</sat>
      </trkpt>
      <trkpt lat="42.413341" lon="-3.217055">
        <ele>785.8</ele>
        <time>2020-08-19T05:34:48Z</time>
        <sat>8</sat>
      </trkpt>
      <trkpt lat="42.413307" lon="-3.217155">
        <ele>785.7</ele>
        <time>2020-08-19T05:34:54Z</time>
        <sat>8</sat>
      </trkpt>
      <trkpt lat="42.413267" lon="-3.217270">
        <ele>785.8</ele>
        <time>2020-08-19T05:35:01Z</time>
        <sat>8</sat>
      </trkpt>
      <trkpt lat="42.413223" lon="-3.217380">
        <ele>786.0</ele>
        <time>2020-08-19T05:35:08Z</time>
        <sat>8</sat>
      </trkpt>
      <trkpt lat="42.413177" lon="-3.217472">
        <ele>786.1</ele>
        <time>2020-08-19T05:35:14Z</time>
        <sat>8</sat>
      </trkpt>
      <trkpt lat="42.413142" lon="-3.217589">
        <ele>786.4</ele>
        <time>2020-08-19T05:35:21Z</time>
        <sat>8</sat>
      </trkpt>
      <trkpt lat="42.413108" lon="-3.217694">
        <ele>786.7</ele>
        <time>2020-08-19T05:35:27Z</time>
        <sat>8</sat>
      </trkpt>
      <trkpt lat="42.413074" lon="-3.217812">
        <ele>787.1</ele>
        <time>2020-08-19T05:35:34Z</time>
        <sat>8</sat>
      </trkpt>
      <trkpt lat="42.413043" lon="-3.217929">
        <ele>787.3</ele>
        <time>2020-08-19T05:35:41Z</time>
        <sat>8</sat>
      </trkpt>
      <trkpt lat="42.413008" lon="-3.218044">
        <ele>787.3</ele>
        <time>2020-08-19T05:35:48Z</time>
        <sat>8</sat>
      </trkpt>
      <trkpt lat="42.412977" lon="-3.218162">
        <ele>787.4</ele>
        <time>2020-08-19T05:35:55Z</time>
        <sat>8</sat>
      </trkpt>
      <trkpt lat="42.412942" lon="-3.218270">
        <ele>787.5</ele>
        <time>2020-08-19T05:36:02Z</time>
        <sat>8</sat>
      </trkpt>
      <trkpt lat="42.412919" lon="-3.218393">
        <ele>787.3</ele>
        <time>2020-08-19T05:36:09Z</time>
        <sat>8</sat>
      </trkpt>
      <trkpt lat="42.412888" lon="-3.218495">
        <ele>787.2</ele>
        <time>2020-08-19T05:36:15Z</time>
        <sat>8</sat>
      </trkpt>
      <trkpt lat="42.412869" lon="-3.218605">
        <ele>787.1</ele>
        <time>2020-08-19T05:36:21Z</time>
        <sat>8</sat>
      </trkpt>
      <trkpt lat="42.412844" lon="-3.218728">
        <ele>786.9</ele>
        <time>2020-08-19T05:36:28Z</time>
        <sat>8</sat>
      </trkpt>
      <trkpt lat="42.412829" lon="-3.218844">
        <ele>786.7</ele>
        <time>2020-08-19T05:36:34Z</time>
        <sat>8</sat>
      </trkpt>
      <trkpt lat="42.412810" lon="-3.218950">
        <ele>786.6</ele>
        <time>2020-08-19T05:36:40Z</time>
        <sat>8</sat>
      </trkpt>
      <trkpt lat="42.412799" lon="-3.219061">
        <ele>786.5</ele>
        <time>2020-08-19T05:36:46Z</time>
        <sat>8</sat>
      </trkpt>
      <trkpt lat="42.412784" lon="-3.219171">
        <ele>786.6</ele>
        <time>2020-08-19T05:36:52Z</time>
        <sat>8</sat>
      </trkpt>
      <trkpt lat="42.412774" lon="-3.219295">
        <ele>786.6</ele>
        <time>2020-08-19T05:36:59Z</time>
        <sat>8</sat>
      </trkpt>
      <trkpt lat="42.412750" lon="-3.219403">
        <ele>786.7</ele>
        <time>2020-08-19T05:37:05Z</time>
        <sat>8</sat>
      </trkpt>
      <trkpt lat="42.412742" lon="-3.219524">
        <ele>786.9</ele>
        <time>2020-08-19T05:37:12Z</time>
        <sat>8</sat>
      </trkpt>
      <trkpt lat="42.412719" lon="-3.219634">
        <ele>787.2</ele>
        <time>2020-08-19T05:37:18Z</time>
        <sat>8</sat>
      </trkpt>
      <trkpt lat="42.412709" lon="-3.219759">
        <ele>787.4</ele>
        <time>2020-08-19T05:37:25Z</time>
        <sat>8</sat>
      </trkpt>
      <trkpt lat="42.412694" lon="-3.219867">
        <ele>787.6</ele>
        <time>2020-08-19T05:37:31Z</time>
        <sat>8</sat>
      </trkpt>
      <trkpt lat="42.412673" lon="-3.219990">
        <ele>787.6</ele>
        <time>2020-08-19T05:37:38Z</time>
        <sat>8</sat>
      </trkpt>
      <trkpt lat="42.412681" lon="-3.220109">
        <ele>787.6</ele>
        <time>2020-08-19T05:37:45Z</time>
        <sat>8</sat>
      </trkpt>
      <trkpt lat="42.412665" lon="-3.220217">
        <ele>787.7</ele>
        <time>2020-08-19T05:37:51Z</time>
        <sat>8</sat>
      </trkpt>
      <trkpt lat="42.412673" lon="-3.220331">
        <ele>787.6</ele>
        <time>2020-08-19T05:37:58Z</time>
        <sat>8</sat>
      </trkpt>
      <trkpt lat="42.412654" lon="-3.220442">
        <ele>787.7</ele>
        <time>2020-08-19T05:38:05Z</time>
        <sat>8</sat>
      </trkpt>
      <trkpt lat="42.412650" lon="-3.220567">
        <ele>787.7</ele>
        <time>2020-08-19T05:38:12Z</time>
        <sat>8</sat>
      </trkpt>
      <trkpt lat="42.412651" lon="-3.220683">
        <ele>787.7</ele>
        <time>2020-08-19T05:38:18Z</time>
        <sat>8</sat>
      </trkpt>
      <trkpt lat="42.412647" lon="-3.220805">
        <ele>787.8</ele>
        <time>2020-08-19T05:38:25Z</time>
        <sat>8</sat>
      </trkpt>
      <trkpt lat="42.412644" lon="-3.220929">
        <ele>787.9</ele>
        <time>2020-08-19T05:38:32Z</time>
        <sat>8</sat>
      </trkpt>
      <trkpt lat="42.412620" lon="-3.221039">
        <ele>787.9</ele>
        <time>2020-08-19T05:38:38Z</time>
        <sat>8</sat>
      </trkpt>
      <trkpt lat="42.412641" lon="-3.221145">
        <ele>788.2</ele>
        <time>2020-08-19T05:38:59Z</time>
        <sat>8</sat>
      </trkpt>
      <trkpt lat="42.412651" lon="-3.221271">
        <ele>788.2</ele>
        <time>2020-08-19T05:39:08Z</time>
        <sat>8</sat>
      </trkpt>
      <trkpt lat="42.412637" lon="-3.221393">
        <ele>788.4</ele>
        <time>2020-08-19T05:39:15Z</time>
        <sat>8</sat>
      </trkpt>
      <trkpt lat="42.412619" lon="-3.221503">
        <ele>788.5</ele>
        <time>2020-08-19T05:39:21Z</time>
        <sat>8</sat>
      </trkpt>
      <trkpt lat="42.412593" lon="-3.221622">
        <ele>788.6</ele>
        <time>2020-08-19T05:39:28Z</time>
        <sat>8</sat>
      </trkpt>
      <trkpt lat="42.412564" lon="-3.221736">
        <ele>788.7</ele>
        <time>2020-08-19T05:39:35Z</time>
        <sat>8</sat>
      </trkpt>
      <trkpt lat="42.412532" lon="-3.221843">
        <ele>789.0</ele>
        <time>2020-08-19T05:39:42Z</time>
        <sat>8</sat>
      </trkpt>
      <trkpt lat="42.412508" lon="-3.221951">
        <ele>789.2</ele>
        <time>2020-08-19T05:39:49Z</time>
        <sat>8</sat>
      </trkpt>
      <trkpt lat="42.412491" lon="-3.222061">
        <ele>789.3</ele>
        <time>2020-08-19T05:39:56Z</time>
        <sat>8</sat>
      </trkpt>
      <trkpt lat="42.412482" lon="-3.222182">
        <ele>789.4</ele>
        <time>2020-08-19T05:40:03Z</time>
        <sat>8</sat>
      </trkpt>
      <trkpt lat="42.412472" lon="-3.222291">
        <ele>789.8</ele>
        <time>2020-08-19T05:40:09Z</time>
        <sat>8</sat>
      </trkpt>
      <trkpt lat="42.412468" lon="-3.222417">
        <ele>789.8</ele>
        <time>2020-08-19T05:40:16Z</time>
        <sat>8</sat>
      </trkpt>
      <trkpt lat="42.412460" lon="-3.222527">
        <ele>790.0</ele>
        <time>2020-08-19T05:40:22Z</time>
        <sat>8</sat>
      </trkpt>
      <trkpt lat="42.412462" lon="-3.222638">
        <ele>790.0</ele>
        <time>2020-08-19T05:40:28Z</time>
        <sat>8</sat>
      </trkpt>
      <trkpt lat="42.412452" lon="-3.222762">
        <ele>790.1</ele>
        <time>2020-08-19T05:40:35Z</time>
        <sat>8</sat>
      </trkpt>
      <trkpt lat="42.412440" lon="-3.222885">
        <ele>790.3</ele>
        <time>2020-08-19T05:40:42Z</time>
        <sat>8</sat>
      </trkpt>
      <trkpt lat="42.412432" lon="-3.223006">
        <ele>790.5</ele>
        <time>2020-08-19T05:40:49Z</time>
        <sat>8</sat>
      </trkpt>
      <trkpt lat="42.412423" lon="-3.223129">
        <ele>790.6</ele>
        <time>2020-08-19T05:40:56Z</time>
        <sat>8</sat>
      </trkpt>
      <trkpt lat="42.412398" lon="-3.223249">
        <ele>790.8</ele>
        <time>2020-08-19T05:41:03Z</time>
        <sat>8</sat>
      </trkpt>
      <trkpt lat="42.412388" lon="-3.223362">
        <ele>791.1</ele>
        <time>2020-08-19T05:41:10Z</time>
        <sat>8</sat>
      </trkpt>
      <trkpt lat="42.412377" lon="-3.223478">
        <ele>791.4</ele>
        <time>2020-08-19T05:41:17Z</time>
        <sat>8</sat>
      </trkpt>
      <trkpt lat="42.412357" lon="-3.223590">
        <ele>792.4</ele>
        <time>2020-08-19T05:41:38Z</time>
        <sat>8</sat>
      </trkpt>
      <trkpt lat="42.412353" lon="-3.223716">
        <ele>792.6</ele>
        <time>2020-08-19T05:41:46Z</time>
        <sat>8</sat>
      </trkpt>
      <trkpt lat="42.412347" lon="-3.223837">
        <ele>792.9</ele>
        <time>2020-08-19T05:41:53Z</time>
        <sat>8</sat>
      </trkpt>
      <trkpt lat="42.412338" lon="-3.223960">
        <ele>793.2</ele>
        <time>2020-08-19T05:42:00Z</time>
        <sat>8</sat>
      </trkpt>
      <trkpt lat="42.412327" lon="-3.224085">
        <ele>793.4</ele>
        <time>2020-08-19T05:42:07Z</time>
        <sat>8</sat>
      </trkpt>
      <trkpt lat="42.412315" lon="-3.224204">
        <ele>793.6</ele>
        <time>2020-08-19T05:42:14Z</time>
        <sat>8</sat>
      </trkpt>
      <trkpt lat="42.412286" lon="-3.224308">
        <ele>793.7</ele>
        <time>2020-08-19T05:42:20Z</time>
        <sat>8</sat>
      </trkpt>
      <trkpt lat="42.412259" lon="-3.224428">
        <ele>793.9</ele>
        <time>2020-08-19T05:42:27Z</time>
        <sat>8</sat>
      </trkpt>
      <trkpt lat="42.412234" lon="-3.224545">
        <ele>793.9</ele>
        <time>2020-08-19T05:42:34Z</time>
        <sat>8</sat>
      </trkpt>
      <trkpt lat="42.412208" lon="-3.224663">
        <ele>794.1</ele>
        <time>2020-08-19T05:42:41Z</time>
        <sat>8</sat>
      </trkpt>
      <trkpt lat="42.412190" lon="-3.224778">
        <ele>794.2</ele>
        <time>2020-08-19T05:42:48Z</time>
        <sat>8</sat>
      </trkpt>
      <trkpt lat="42.412167" lon="-3.224896">
        <ele>794.4</ele>
        <time>2020-08-19T05:42:55Z</time>
        <sat>8</sat>
      </trkpt>
      <trkpt lat="42.412141" lon="-3.225012">
        <ele>794.5</ele>
        <time>2020-08-19T05:43:02Z</time>
        <sat>8</sat>
      </trkpt>
      <trkpt lat="42.412120" lon="-3.225129">
        <ele>794.7</ele>
        <time>2020-08-19T05:43:09Z</time>
        <sat>8</sat>
      </trkpt>
      <trkpt lat="42.412087" lon="-3.225244">
        <ele>794.6</ele>
        <time>2020-08-19T05:43:16Z</time>
        <sat>9</sat>
      </trkpt>
      <trkpt lat="42.412049" lon="-3.225354">
        <ele>794.5</ele>
        <time>2020-08-19T05:43:23Z</time>
        <sat>9</sat>
      </trkpt>
      <trkpt lat="42.412018" lon="-3.225462">
        <ele>794.4</ele>
        <time>2020-08-19T05:43:30Z</time>
        <sat>9</sat>
      </trkpt>
      <trkpt lat="42.411991" lon="-3.225579">
        <ele>794.4</ele>
        <time>2020-08-19T05:43:37Z</time>
        <sat>9</sat>
      </trkpt>
      <trkpt lat="42.411952" lon="-3.225691">
        <ele>794.4</ele>
        <time>2020-08-19T05:43:44Z</time>
        <sat>9</sat>
      </trkpt>
      <trkpt lat="42.411919" lon="-3.225803">
        <ele>794.5</ele>
        <time>2020-08-19T05:43:51Z</time>
        <sat>9</sat>
      </trkpt>
      <trkpt lat="42.411888" lon="-3.225915">
        <ele>795.0</ele>
        <time>2020-08-19T05:44:19Z</time>
        <sat>9</sat>
      </trkpt>
      <trkpt lat="42.411858" lon="-3.226020">
        <ele>795.1</ele>
        <time>2020-08-19T05:44:26Z</time>
        <sat>9</sat>
      </trkpt>
      <trkpt lat="42.411838" lon="-3.226143">
        <ele>795.1</ele>
        <time>2020-08-19T05:44:33Z</time>
        <sat>9</sat>
      </trkpt>
      <trkpt lat="42.411812" lon="-3.226260">
        <ele>795.1</ele>
        <time>2020-08-19T05:44:40Z</time>
        <sat>9</sat>
      </trkpt>
      <trkpt lat="42.411800" lon="-3.226381">
        <ele>795.0</ele>
        <time>2020-08-19T05:44:47Z</time>
        <sat>9</sat>
      </trkpt>
      <trkpt lat="42.411776" lon="-3.226503">
        <ele>795.1</ele>
        <time>2020-08-19T05:44:54Z</time>
        <sat>9</sat>
      </trkpt>
      <trkpt lat="42.411755" lon="-3.226621">
        <ele>795.1</ele>
        <time>2020-08-19T05:45:01Z</time>
        <sat>9</sat>
      </trkpt>
      <trkpt lat="42.411730" lon="-3.226739">
        <ele>795.1</ele>
        <time>2020-08-19T05:45:08Z</time>
        <sat>9</sat>
      </trkpt>
      <trkpt lat="42.411704" lon="-3.226852">
        <ele>795.2</ele>
        <time>2020-08-19T05:45:15Z</time>
        <sat>9</sat>
      </trkpt>
      <trkpt lat="42.411681" lon="-3.226968">
        <ele>795.4</ele>
        <time>2020-08-19T05:45:22Z</time>
        <sat>9</sat>
      </trkpt>
      <trkpt lat="42.411657" lon="-3.227083">
        <ele>795.6</ele>
        <time>2020-08-19T05:45:29Z</time>
        <sat>9</sat>
      </trkpt>
      <trkpt lat="42.411631" lon="-3.227200">
        <ele>795.9</ele>
        <time>2020-08-19T05:45:36Z</time>
        <sat>9</sat>
      </trkpt>
      <trkpt lat="42.411598" lon="-3.227318">
        <ele>796.0</ele>
        <time>2020-08-19T05:45:43Z</time>
        <sat>9</sat>
      </trkpt>
      <trkpt lat="42.411578" lon="-3.227425">
        <ele>794.7</ele>
        <time>2020-08-19T05:45:49Z</time>
        <sat>9</sat>
      </trkpt>
      <trkpt lat="42.411545" lon="-3.227537">
        <ele>796.2</ele>
        <time>2020-08-19T05:45:55Z</time>
        <sat>9</sat>
      </trkpt>
      <trkpt lat="42.411516" lon="-3.227649">
        <ele>793.7</ele>
        <time>2020-08-19T05:46:02Z</time>
        <sat>9</sat>
      </trkpt>
      <trkpt lat="42.411492" lon="-3.227762">
        <ele>795.6</ele>
        <time>2020-08-19T05:46:09Z</time>
        <sat>8</sat>
      </trkpt>
      <trkpt lat="42.411473" lon="-3.227875">
        <ele>796.6</ele>
        <time>2020-08-19T05:46:16Z</time>
        <sat>9</sat>
      </trkpt>
      <trkpt lat="42.411458" lon="-3.227988">
        <ele>796.2</ele>
        <time>2020-08-19T05:46:23Z</time>
        <sat>8</sat>
      </trkpt>
      <trkpt lat="42.411438" lon="-3.228109">
        <ele>797.6</ele>
        <time>2020-08-19T05:46:30Z</time>
        <sat>9</sat>
      </trkpt>
      <trkpt lat="42.411434" lon="-3.228233">
        <ele>798.0</ele>
        <time>2020-08-19T05:46:37Z</time>
        <sat>9</sat>
      </trkpt>
      <trkpt lat="42.411426" lon="-3.228352">
        <ele>798.3</ele>
        <time>2020-08-19T05:46:44Z</time>
        <sat>9</sat>
      </trkpt>
      <trkpt lat="42.411402" lon="-3.228472">
        <ele>798.6</ele>
        <time>2020-08-19T05:46:51Z</time>
        <sat>9</sat>
      </trkpt>
      <trkpt lat="42.411383" lon="-3.228592">
        <ele>798.8</ele>
        <time>2020-08-19T05:46:58Z</time>
        <sat>9</sat>
      </trkpt>
      <trkpt lat="42.411369" lon="-3.228717">
        <ele>799.0</ele>
        <time>2020-08-19T05:47:05Z</time>
        <sat>8</sat>
      </trkpt>
      <trkpt lat="42.411354" lon="-3.228843">
        <ele>799.3</ele>
        <time>2020-08-19T05:47:12Z</time>
        <sat>9</sat>
      </trkpt>
      <trkpt lat="42.411352" lon="-3.228964">
        <ele>799.4</ele>
        <time>2020-08-19T05:47:19Z</time>
        <sat>9</sat>
      </trkpt>
      <trkpt lat="42.411344" lon="-3.229083">
        <ele>799.3</ele>
        <time>2020-08-19T05:47:26Z</time>
        <sat>9</sat>
      </trkpt>
      <trkpt lat="42.411342" lon="-3.229200">
        <ele>799.3</ele>
        <time>2020-08-19T05:47:33Z</time>
        <sat>9</sat>
      </trkpt>
      <trkpt lat="42.411347" lon="-3.229318">
        <ele>799.4</ele>
        <time>2020-08-19T05:47:40Z</time>
        <sat>9</sat>
      </trkpt>
      <trkpt lat="42.411359" lon="-3.229428">
        <ele>799.5</ele>
        <time>2020-08-19T05:47:46Z</time>
        <sat>9</sat>
      </trkpt>
      <trkpt lat="42.411352" lon="-3.229555">
        <ele>799.6</ele>
        <time>2020-08-19T05:47:53Z</time>
        <sat>9</sat>
      </trkpt>
      <trkpt lat="42.411350" lon="-3.229676">
        <ele>799.6</ele>
        <time>2020-08-19T05:48:00Z</time>
        <sat>9</sat>
      </trkpt>
      <trkpt lat="42.411338" lon="-3.229799">
        <ele>799.6</ele>
        <time>2020-08-19T05:48:07Z</time>
        <sat>9</sat>
      </trkpt>
      <trkpt lat="42.411327" lon="-3.229924">
        <ele>799.7</ele>
        <time>2020-08-19T05:48:14Z</time>
        <sat>9</sat>
      </trkpt>
      <trkpt lat="42.411319" lon="-3.230048">
        <ele>799.9</ele>
        <time>2020-08-19T05:48:21Z</time>
        <sat>9</sat>
      </trkpt>
      <trkpt lat="42.411306" lon="-3.230168">
        <ele>800.1</ele>
        <time>2020-08-19T05:48:28Z</time>
        <sat>9</sat>
      </trkpt>
      <trkpt lat="42.411291" lon="-3.230281">
        <ele>800.1</ele>
        <time>2020-08-19T05:48:35Z</time>
        <sat>9</sat>
      </trkpt>
      <trkpt lat="42.411289" lon="-3.230400">
        <ele>800.3</ele>
        <time>2020-08-19T05:48:42Z</time>
        <sat>9</sat>
      </trkpt>
      <trkpt lat="42.411290" lon="-3.230522">
        <ele>800.3</ele>
        <time>2020-08-19T05:48:49Z</time>
        <sat>9</sat>
      </trkpt>
      <trkpt lat="42.411293" lon="-3.230648">
        <ele>800.4</ele>
        <time>2020-08-19T05:48:56Z</time>
        <sat>9</sat>
      </trkpt>
      <trkpt lat="42.411301" lon="-3.230767">
        <ele>800.5</ele>
        <time>2020-08-19T05:49:03Z</time>
        <sat>9</sat>
      </trkpt>
      <trkpt lat="42.411314" lon="-3.230887">
        <ele>800.5</ele>
        <time>2020-08-19T05:49:10Z</time>
        <sat>9</sat>
      </trkpt>
      <trkpt lat="42.411328" lon="-3.231006">
        <ele>800.7</ele>
        <time>2020-08-19T05:49:17Z</time>
        <sat>9</sat>
      </trkpt>
      <trkpt lat="42.411336" lon="-3.231131">
        <ele>800.8</ele>
        <time>2020-08-19T05:49:24Z</time>
        <sat>9</sat>
      </trkpt>
      <trkpt lat="42.411346" lon="-3.231242">
        <ele>801.0</ele>
        <time>2020-08-19T05:49:31Z</time>
        <sat>9</sat>
      </trkpt>
      <trkpt lat="42.411352" lon="-3.231366">
        <ele>801.2</ele>
        <time>2020-08-19T05:49:38Z</time>
        <sat>9</sat>
      </trkpt>
      <trkpt lat="42.411362" lon="-3.231487">
        <ele>801.5</ele>
        <time>2020-08-19T05:49:45Z</time>
        <sat>9</sat>
      </trkpt>
      <trkpt lat="42.411369" lon="-3.231607">
        <ele>802.0</ele>
        <time>2020-08-19T05:49:52Z</time>
        <sat>9</sat>
      </trkpt>
      <trkpt lat="42.411383" lon="-3.231729">
        <ele>802.4</ele>
        <time>2020-08-19T05:49:59Z</time>
        <sat>9</sat>
      </trkpt>
      <trkpt lat="42.411386" lon="-3.231851">
        <ele>802.6</ele>
        <time>2020-08-19T05:50:06Z</time>
        <sat>9</sat>
      </trkpt>
      <trkpt lat="42.411401" lon="-3.231974">
        <ele>802.6</ele>
        <time>2020-08-19T05:50:13Z</time>
        <sat>9</sat>
      </trkpt>
      <trkpt lat="42.411405" lon="-3.232102">
        <ele>802.7</ele>
        <time>2020-08-19T05:50:20Z</time>
        <sat>9</sat>
      </trkpt>
      <trkpt lat="42.411411" lon="-3.232221">
        <ele>802.7</ele>
        <time>2020-08-19T05:50:27Z</time>
        <sat>9</sat>
      </trkpt>
      <trkpt lat="42.411424" lon="-3.232331">
        <ele>802.7</ele>
        <time>2020-08-19T05:50:33Z</time>
        <sat>9</sat>
      </trkpt>
      <trkpt lat="42.411436" lon="-3.232441">
        <ele>802.7</ele>
        <time>2020-08-19T05:50:39Z</time>
        <sat>9</sat>
      </trkpt>
      <trkpt lat="42.411440" lon="-3.232553">
        <ele>802.9</ele>
        <time>2020-08-19T05:50:45Z</time>
        <sat>9</sat>
      </trkpt>
      <trkpt lat="42.411448" lon="-3.232677">
        <ele>803.0</ele>
        <time>2020-08-19T05:50:52Z</time>
        <sat>9</sat>
      </trkpt>
      <trkpt lat="42.411458" lon="-3.232800">
        <ele>803.1</ele>
        <time>2020-08-19T05:50:59Z</time>
        <sat>9</sat>
      </trkpt>
      <trkpt lat="42.411461" lon="-3.232927">
        <ele>803.3</ele>
        <time>2020-08-19T05:51:06Z</time>
        <sat>9</sat>
      </trkpt>
      <trkpt lat="42.411460" lon="-3.233047">
        <ele>803.5</ele>
        <time>2020-08-19T05:51:13Z</time>
        <sat>9</sat>
      </trkpt>
      <trkpt lat="42.411462" lon="-3.233173">
        <ele>803.7</ele>
        <time>2020-08-19T05:51:20Z</time>
        <sat>9</sat>
      </trkpt>
      <trkpt lat="42.411466" lon="-3.233295">
        <ele>803.9</ele>
        <time>2020-08-19T05:51:27Z</time>
        <sat>9</sat>
      </trkpt>
      <trkpt lat="42.411465" lon="-3.233406">
        <ele>804.0</ele>
        <time>2020-08-19T05:51:34Z</time>
        <sat>9</sat>
      </trkpt>
      <trkpt lat="42.411462" lon="-3.233529">
        <ele>803.9</ele>
        <time>2020-08-19T05:52:06Z</time>
        <sat>9</sat>
      </trkpt>
      <trkpt lat="42.411509" lon="-3.233635">
        <ele>803.9</ele>
        <time>2020-08-19T05:52:14Z</time>
        <sat>9</sat>
      </trkpt>
      <trkpt lat="42.411559" lon="-3.233735">
        <ele>803.9</ele>
        <time>2020-08-19T05:52:21Z</time>
        <sat>9</sat>
      </trkpt>
      <trkpt lat="42.411591" lon="-3.233836">
        <ele>803.8</ele>
        <time>2020-08-19T05:52:27Z</time>
        <sat>9</sat>
      </trkpt>
      <trkpt lat="42.411621" lon="-3.233949">
        <ele>803.8</ele>
        <time>2020-08-19T05:52:33Z</time>
        <sat>9</sat>
      </trkpt>
      <trkpt lat="42.411657" lon="-3.234052">
        <ele>803.7</ele>
        <time>2020-08-19T05:52:39Z</time>
        <sat>9</sat>
      </trkpt>
      <trkpt lat="42.411691" lon="-3.234170">
        <ele>803.9</ele>
        <time>2020-08-19T05:52:50Z</time>
        <sat>9</sat>
      </trkpt>
      <trkpt lat="42.411732" lon="-3.234273">
        <ele>804.1</ele>
        <time>2020-08-19T05:52:56Z</time>
        <sat>9</sat>
      </trkpt>
      <trkpt lat="42.411769" lon="-3.234388">
        <ele>804.3</ele>
        <time>2020-08-19T05:53:03Z</time>
        <sat>9</sat>
      </trkpt>
      <trkpt lat="42.411790" lon="-3.234499">
        <ele>804.4</ele>
        <time>2020-08-19T05:53:09Z</time>
        <sat>9</sat>
      </trkpt>
      <trkpt lat="42.411829" lon="-3.234600">
        <ele>804.4</ele>
        <time>2020-08-19T05:53:15Z</time>
        <sat>9</sat>
      </trkpt>
      <trkpt lat="42.411859" lon="-3.234706">
        <ele>804.3</ele>
        <time>2020-08-19T05:53:21Z</time>
        <sat>9</sat>
      </trkpt>
      <trkpt lat="42.411885" lon="-3.234818">
        <ele>804.4</ele>
        <time>2020-08-19T05:53:27Z</time>
        <sat>9</sat>
      </trkpt>
      <trkpt lat="42.411922" lon="-3.234934">
        <ele>804.5</ele>
        <time>2020-08-19T05:53:34Z</time>
        <sat>8</sat>
      </trkpt>
      <trkpt lat="42.411952" lon="-3.235046">
        <ele>804.5</ele>
        <time>2020-08-19T05:53:41Z</time>
        <sat>9</sat>
      </trkpt>
      <trkpt lat="42.411987" lon="-3.235161">
        <ele>804.7</ele>
        <time>2020-08-19T05:53:55Z</time>
        <sat>8</sat>
      </trkpt>
      <trkpt lat="42.412017" lon="-3.235277">
        <ele>804.7</ele>
        <time>2020-08-19T05:54:02Z</time>
        <sat>9</sat>
      </trkpt>
      <trkpt lat="42.412045" lon="-3.235398">
        <ele>804.7</ele>
        <time>2020-08-19T05:54:09Z</time>
        <sat>8</sat>
      </trkpt>
      <trkpt lat="42.412069" lon="-3.235512">
        <ele>804.9</ele>
        <time>2020-08-19T05:54:16Z</time>
        <sat>9</sat>
      </trkpt>
      <trkpt lat="42.412105" lon="-3.235629">
        <ele>805.0</ele>
        <time>2020-08-19T05:54:23Z</time>
        <sat>8</sat>
      </trkpt>
      <trkpt lat="42.412120" lon="-3.235754">
        <ele>805.1</ele>
        <time>2020-08-19T05:54:30Z</time>
        <sat>9</sat>
      </trkpt>
      <trkpt lat="42.412141" lon="-3.235873">
        <ele>805.3</ele>
        <time>2020-08-19T05:54:37Z</time>
        <sat>9</sat>
      </trkpt>
      <trkpt lat="42.412164" lon="-3.235991">
        <ele>805.4</ele>
        <time>2020-08-19T05:54:44Z</time>
        <sat>9</sat>
      </trkpt>
      <trkpt lat="42.412187" lon="-3.236111">
        <ele>805.5</ele>
        <time>2020-08-19T05:54:51Z</time>
        <sat>9</sat>
      </trkpt>
      <trkpt lat="42.412199" lon="-3.236228">
        <ele>805.5</ele>
        <time>2020-08-19T05:54:58Z</time>
        <sat>9</sat>
      </trkpt>
      <trkpt lat="42.412218" lon="-3.236345">
        <ele>805.6</ele>
        <time>2020-08-19T05:55:05Z</time>
        <sat>9</sat>
      </trkpt>
      <trkpt lat="42.412236" lon="-3.236466">
        <ele>805.7</ele>
        <time>2020-08-19T05:55:12Z</time>
        <sat>9</sat>
      </trkpt>
      <trkpt lat="42.412251" lon="-3.236590">
        <ele>805.8</ele>
        <time>2020-08-19T05:55:19Z</time>
        <sat>8</sat>
      </trkpt>
      <trkpt lat="42.412258" lon="-3.236707">
        <ele>806.2</ele>
        <time>2020-08-19T05:55:26Z</time>
        <sat>9</sat>
      </trkpt>
      <trkpt lat="42.412273" lon="-3.236824">
        <ele>806.3</ele>
        <time>2020-08-19T05:55:33Z</time>
        <sat>9</sat>
      </trkpt>
      <trkpt lat="42.412283" lon="-3.236944">
        <ele>806.4</ele>
        <time>2020-08-19T05:55:40Z</time>
        <sat>8</sat>
      </trkpt>
      <trkpt lat="42.412294" lon="-3.237065">
        <ele>806.6</ele>
        <time>2020-08-19T05:55:47Z</time>
        <sat>9</sat>
      </trkpt>
      <trkpt lat="42.412311" lon="-3.237184">
        <ele>806.7</ele>
        <time>2020-08-19T05:55:54Z</time>
        <sat>9</sat>
      </trkpt>
      <trkpt lat="42.412321" lon="-3.237299">
        <ele>806.8</ele>
        <time>2020-08-19T05:56:01Z</time>
        <sat>9</sat>
      </trkpt>
      <trkpt lat="42.412340" lon="-3.237410">
        <ele>807.0</ele>
        <time>2020-08-19T05:56:08Z</time>
        <sat>9</sat>
      </trkpt>
      <trkpt lat="42.412354" lon="-3.237528">
        <ele>807.0</ele>
        <time>2020-08-19T05:56:15Z</time>
        <sat>9</sat>
      </trkpt>
      <trkpt lat="42.412362" lon="-3.237646">
        <ele>807.2</ele>
        <time>2020-08-19T05:56:22Z</time>
        <sat>9</sat>
      </trkpt>
      <trkpt lat="42.412373" lon="-3.237760">
        <ele>807.6</ele>
        <time>2020-08-19T05:56:31Z</time>
        <sat>9</sat>
      </trkpt>
      <trkpt lat="42.412392" lon="-3.237879">
        <ele>807.9</ele>
        <time>2020-08-19T05:56:53Z</time>
        <sat>9</sat>
      </trkpt>
      <trkpt lat="42.412411" lon="-3.237993">
        <ele>808.2</ele>
        <time>2020-08-19T05:57:01Z</time>
        <sat>9</sat>
      </trkpt>
      <trkpt lat="42.412417" lon="-3.238103">
        <ele>808.4</ele>
        <time>2020-08-19T05:57:08Z</time>
        <sat>9</sat>
      </trkpt>
      <trkpt lat="42.412428" lon="-3.238213">
        <ele>808.6</ele>
        <time>2020-08-19T05:57:15Z</time>
        <sat>8</sat>
      </trkpt>
      <trkpt lat="42.412442" lon="-3.238329">
        <ele>808.8</ele>
        <time>2020-08-19T05:57:22Z</time>
        <sat>9</sat>
      </trkpt>
      <trkpt lat="42.412453" lon="-3.238451">
        <ele>808.3</ele>
        <time>2020-08-19T05:57:29Z</time>
        <sat>9</sat>
      </trkpt>
      <trkpt lat="42.412467" lon="-3.238569">
        <ele>808.7</ele>
        <time>2020-08-19T05:57:36Z</time>
        <sat>9</sat>
      </trkpt>
      <trkpt lat="42.412485" lon="-3.238685">
        <ele>808.0</ele>
        <time>2020-08-19T05:57:43Z</time>
        <sat>9</sat>
      </trkpt>
      <trkpt lat="42.412501" lon="-3.238808">
        <ele>809.2</ele>
        <time>2020-08-19T05:57:50Z</time>
        <sat>9</sat>
      </trkpt>
      <trkpt lat="42.412505" lon="-3.238927">
        <ele>809.6</ele>
        <time>2020-08-19T05:57:57Z</time>
        <sat>8</sat>
      </trkpt>
      <trkpt lat="42.412515" lon="-3.239050">
        <ele>810.0</ele>
        <time>2020-08-19T05:58:04Z</time>
        <sat>9</sat>
      </trkpt>
      <trkpt lat="42.412518" lon="-3.239173">
        <ele>810.4</ele>
        <time>2020-08-19T05:58:11Z</time>
        <sat>9</sat>
      </trkpt>
      <trkpt lat="42.412542" lon="-3.239292">
        <ele>810.6</ele>
        <time>2020-08-19T05:58:18Z</time>
        <sat>9</sat>
      </trkpt>
      <trkpt lat="42.412556" lon="-3.239416">
        <ele>810.6</ele>
        <time>2020-08-19T05:58:25Z</time>
        <sat>9</sat>
      </trkpt>
      <trkpt lat="42.412560" lon="-3.239526">
        <ele>810.7</ele>
        <time>2020-08-19T05:58:31Z</time>
        <sat>9</sat>
      </trkpt>
      <trkpt lat="42.412579" lon="-3.239647">
        <ele>810.8</ele>
        <time>2020-08-19T05:58:38Z</time>
        <sat>8</sat>
      </trkpt>
      <trkpt lat="42.412599" lon="-3.239770">
        <ele>811.0</ele>
        <time>2020-08-19T05:58:45Z</time>
        <sat>9</sat>
      </trkpt>
      <trkpt lat="42.412611" lon="-3.239896">
        <ele>811.1</ele>
        <time>2020-08-19T05:58:52Z</time>
        <sat>9</sat>
      </trkpt>
      <trkpt lat="42.412628" lon="-3.240018">
        <ele>811.2</ele>
        <time>2020-08-19T05:58:59Z</time>
        <sat>9</sat>
      </trkpt>
      <trkpt lat="42.412642" lon="-3.240136">
        <ele>811.4</ele>
        <time>2020-08-19T05:59:06Z</time>
        <sat>8</sat>
      </trkpt>
      <trkpt lat="42.412652" lon="-3.240260">
        <ele>811.6</ele>
        <time>2020-08-19T05:59:13Z</time>
        <sat>9</sat>
      </trkpt>
      <trkpt lat="42.412659" lon="-3.240382">
        <ele>811.9</ele>
        <time>2020-08-19T05:59:20Z</time>
        <sat>9</sat>
      </trkpt>
      <trkpt lat="42.412674" lon="-3.240505">
        <ele>812.0</ele>
        <time>2020-08-19T05:59:27Z</time>
        <sat>9</sat>
      </trkpt>
      <trkpt lat="42.412701" lon="-3.240612">
        <ele>812.4</ele>
        <time>2020-08-19T05:59:51Z</time>
        <sat>9</sat>
      </trkpt>
      <trkpt lat="42.412725" lon="-3.240729">
        <ele>812.7</ele>
        <time>2020-08-19T05:59:58Z</time>
        <sat>9</sat>
      </trkpt>
      <trkpt lat="42.412742" lon="-3.240849">
        <ele>813.2</ele>
        <time>2020-08-19T06:00:06Z</time>
        <sat>9</sat>
      </trkpt>
      <trkpt lat="42.412752" lon="-3.240974">
        <ele>813.7</ele>
        <time>2020-08-19T06:00:14Z</time>
        <sat>9</sat>
      </trkpt>
      <trkpt lat="42.412766" lon="-3.241085">
        <ele>814.3</ele>
        <time>2020-08-19T06:00:21Z</time>
        <sat>9</sat>
      </trkpt>
      <trkpt lat="42.412782" lon="-3.241196">
        <ele>814.8</ele>
        <time>2020-08-19T06:00:28Z</time>
        <sat>9</sat>
      </trkpt>
      <trkpt lat="42.412792" lon="-3.241317">
        <ele>815.3</ele>
        <time>2020-08-19T06:00:35Z</time>
        <sat>9</sat>
      </trkpt>
      <trkpt lat="42.412811" lon="-3.241433">
        <ele>815.9</ele>
        <time>2020-08-19T06:00:42Z</time>
        <sat>9</sat>
      </trkpt>
      <trkpt lat="42.412839" lon="-3.241553">
        <ele>816.2</ele>
        <time>2020-08-19T06:00:50Z</time>
        <sat>9</sat>
      </trkpt>
      <trkpt lat="42.412878" lon="-3.241665">
        <ele>816.5</ele>
        <time>2020-08-19T06:00:59Z</time>
        <sat>9</sat>
      </trkpt>
      <trkpt lat="42.412900" lon="-3.241782">
        <ele>816.6</ele>
        <time>2020-08-19T06:01:08Z</time>
        <sat>9</sat>
      </trkpt>
      <trkpt lat="42.412917" lon="-3.241892">
        <ele>816.4</ele>
        <time>2020-08-19T06:01:17Z</time>
        <sat>9</sat>
      </trkpt>
      <trkpt lat="42.412922" lon="-3.242007">
        <ele>816.2</ele>
        <time>2020-08-19T06:01:25Z</time>
        <sat>9</sat>
      </trkpt>
      <trkpt lat="42.412916" lon="-3.242126">
        <ele>815.9</ele>
        <time>2020-08-19T06:01:33Z</time>
        <sat>9</sat>
      </trkpt>
      <trkpt lat="42.412926" lon="-3.242244">
        <ele>815.6</ele>
        <time>2020-08-19T06:01:41Z</time>
        <sat>9</sat>
      </trkpt>
      <trkpt lat="42.412932" lon="-3.242370">
        <ele>815.4</ele>
        <time>2020-08-19T06:01:48Z</time>
        <sat>9</sat>
      </trkpt>
      <trkpt lat="42.412967" lon="-3.242476">
        <ele>815.3</ele>
        <time>2020-08-19T06:01:55Z</time>
        <sat>9</sat>
      </trkpt>
      <trkpt lat="42.412995" lon="-3.242595">
        <ele>815.3</ele>
        <time>2020-08-19T06:02:02Z</time>
        <sat>9</sat>
      </trkpt>
      <trkpt lat="42.413025" lon="-3.242702">
        <ele>815.2</ele>
        <time>2020-08-19T06:02:09Z</time>
        <sat>9</sat>
      </trkpt>
      <trkpt lat="42.413019" lon="-3.242826">
        <ele>815.3</ele>
        <time>2020-08-19T06:02:16Z</time>
        <sat>9</sat>
      </trkpt>
      <trkpt lat="42.413035" lon="-3.242936">
        <ele>815.4</ele>
        <time>2020-08-19T06:02:22Z</time>
        <sat>9</sat>
      </trkpt>
      <trkpt lat="42.413059" lon="-3.243052">
        <ele>815.5</ele>
        <time>2020-08-19T06:02:29Z</time>
        <sat>9</sat>
      </trkpt>
      <trkpt lat="42.413070" lon="-3.243165">
        <ele>815.7</ele>
        <time>2020-08-19T06:02:35Z</time>
        <sat>9</sat>
      </trkpt>
      <trkpt lat="42.413089" lon="-3.243279">
        <ele>816.0</ele>
        <time>2020-08-19T06:02:42Z</time>
        <sat>9</sat>
      </trkpt>
      <trkpt lat="42.413092" lon="-3.243398">
        <ele>816.2</ele>
        <time>2020-08-19T06:02:49Z</time>
        <sat>9</sat>
      </trkpt>
      <trkpt lat="42.413109" lon="-3.243509">
        <ele>816.3</ele>
        <time>2020-08-19T06:02:56Z</time>
        <sat>9</sat>
      </trkpt>
      <trkpt lat="42.413111" lon="-3.243623">
        <ele>816.6</ele>
        <time>2020-08-19T06:03:03Z</time>
        <sat>9</sat>
      </trkpt>
      <trkpt lat="42.413120" lon="-3.243733">
        <ele>816.8</ele>
        <time>2020-08-19T06:03:10Z</time>
        <sat>9</sat>
      </trkpt>
      <trkpt lat="42.413121" lon="-3.243849">
        <ele>817.0</ele>
        <time>2020-08-19T06:03:17Z</time>
        <sat>9</sat>
      </trkpt>
      <trkpt lat="42.413104" lon="-3.243956">
        <ele>817.4</ele>
        <time>2020-08-19T06:03:30Z</time>
        <sat>9</sat>
      </trkpt>
      <trkpt lat="42.413036" lon="-3.244041">
        <ele>818.0</ele>
        <time>2020-08-19T06:03:55Z</time>
        <sat>9</sat>
      </trkpt>
      <trkpt lat="42.412970" lon="-3.244127">
        <ele>818.3</ele>
        <time>2020-08-19T06:04:02Z</time>
        <sat>10</sat>
      </trkpt>
      <trkpt lat="42.412902" lon="-3.244205">
        <ele>818.8</ele>
        <time>2020-08-19T06:04:09Z</time>
        <sat>9</sat>
      </trkpt>
      <trkpt lat="42.412830" lon="-3.244286">
        <ele>819.3</ele>
        <time>2020-08-19T06:04:16Z</time>
        <sat>9</sat>
      </trkpt>
      <trkpt lat="42.412761" lon="-3.244363">
        <ele>819.8</ele>
        <time>2020-08-19T06:04:23Z</time>
        <sat>9</sat>
      </trkpt>
      <trkpt lat="42.412697" lon="-3.244441">
        <ele>820.2</ele>
        <time>2020-08-19T06:04:30Z</time>
        <sat>9</sat>
      </trkpt>
      <trkpt lat="42.412635" lon="-3.244513">
        <ele>820.8</ele>
        <time>2020-08-19T06:04:37Z</time>
        <sat>9</sat>
      </trkpt>
      <trkpt lat="42.412579" lon="-3.244593">
        <ele>821.3</ele>
        <time>2020-08-19T06:04:44Z</time>
        <sat>10</sat>
      </trkpt>
      <trkpt lat="42.412524" lon="-3.244674">
        <ele>822.0</ele>
        <time>2020-08-19T06:04:52Z</time>
        <sat>10</sat>
      </trkpt>
      <trkpt lat="42.412477" lon="-3.244769">
        <ele>822.7</ele>
        <time>2020-08-19T06:05:00Z</time>
        <sat>9</sat>
      </trkpt>
      <trkpt lat="42.412438" lon="-3.244879">
        <ele>823.3</ele>
        <time>2020-08-19T06:05:08Z</time>
        <sat>10</sat>
      </trkpt>
      <trkpt lat="42.412392" lon="-3.244980">
        <ele>824.0</ele>
        <time>2020-08-19T06:05:16Z</time>
        <sat>10</sat>
      </trkpt>
      <trkpt lat="42.412343" lon="-3.245087">
        <ele>824.8</ele>
        <time>2020-08-19T06:05:24Z</time>
        <sat>10</sat>
      </trkpt>
      <trkpt lat="42.412299" lon="-3.245180">
        <ele>825.3</ele>
        <time>2020-08-19T06:05:31Z</time>
        <sat>9</sat>
      </trkpt>
      <trkpt lat="42.412251" lon="-3.245272">
        <ele>826.2</ele>
        <time>2020-08-19T06:05:38Z</time>
        <sat>9</sat>
      </trkpt>
      <trkpt lat="42.412204" lon="-3.245373">
        <ele>827.2</ele>
        <time>2020-08-19T06:05:46Z</time>
        <sat>10</sat>
      </trkpt>
      <trkpt lat="42.412161" lon="-3.245465">
        <ele>829.1</ele>
        <time>2020-08-19T06:06:15Z</time>
        <sat>10</sat>
      </trkpt>
      <trkpt lat="42.412110" lon="-3.245555">
        <ele>829.4</ele>
        <time>2020-08-19T06:06:23Z</time>
        <sat>10</sat>
      </trkpt>
      <trkpt lat="42.412057" lon="-3.245638">
        <ele>830.0</ele>
        <time>2020-08-19T06:06:30Z</time>
        <sat>10</sat>
      </trkpt>
      <trkpt lat="42.411993" lon="-3.245724">
        <ele>830.4</ele>
        <time>2020-08-19T06:06:37Z</time>
        <sat>10</sat>
      </trkpt>
      <trkpt lat="42.411929" lon="-3.245808">
        <ele>830.7</ele>
        <time>2020-08-19T06:06:44Z</time>
        <sat>10</sat>
      </trkpt>
      <trkpt lat="42.411870" lon="-3.245902">
        <ele>831.3</ele>
        <time>2020-08-19T06:06:52Z</time>
        <sat>10</sat>
      </trkpt>
      <trkpt lat="42.411816" lon="-3.245993">
        <ele>831.7</ele>
        <time>2020-08-19T06:06:59Z</time>
        <sat>10</sat>
      </trkpt>
      <trkpt lat="42.411772" lon="-3.246089">
        <ele>832.0</ele>
        <time>2020-08-19T06:07:06Z</time>
        <sat>9</sat>
      </trkpt>
      <trkpt lat="42.411734" lon="-3.246202">
        <ele>832.8</ele>
        <time>2020-08-19T06:07:14Z</time>
        <sat>10</sat>
      </trkpt>
      <trkpt lat="42.411699" lon="-3.246307">
        <ele>833.6</ele>
        <time>2020-08-19T06:07:22Z</time>
        <sat>9</sat>
      </trkpt>
      <trkpt lat="42.411673" lon="-3.246419">
        <ele>834.3</ele>
        <time>2020-08-19T06:07:30Z</time>
        <sat>10</sat>
      </trkpt>
      <trkpt lat="42.411637" lon="-3.246530">
        <ele>834.9</ele>
        <time>2020-08-19T06:07:38Z</time>
        <sat>9</sat>
      </trkpt>
      <trkpt lat="42.411597" lon="-3.246633">
        <ele>835.4</ele>
        <time>2020-08-19T06:07:45Z</time>
        <sat>10</sat>
      </trkpt>
      <trkpt lat="42.411550" lon="-3.246738">
        <ele>836.0</ele>
        <time>2020-08-19T06:07:52Z</time>
        <sat>9</sat>
      </trkpt>
      <trkpt lat="42.411497" lon="-3.246836">
        <ele>836.5</ele>
        <time>2020-08-19T06:07:59Z</time>
        <sat>10</sat>
      </trkpt>
      <trkpt lat="42.411442" lon="-3.246932">
        <ele>836.8</ele>
        <time>2020-08-19T06:08:06Z</time>
        <sat>10</sat>
      </trkpt>
      <trkpt lat="42.411388" lon="-3.247018">
        <ele>837.0</ele>
        <time>2020-08-19T06:08:13Z</time>
        <sat>11</sat>
      </trkpt>
      <trkpt lat="42.411330" lon="-3.247105">
        <ele>837.3</ele>
        <time>2020-08-19T06:08:20Z</time>
        <sat>10</sat>
      </trkpt>
      <trkpt lat="42.411277" lon="-3.247195">
        <ele>837.5</ele>
        <time>2020-08-19T06:08:27Z</time>
        <sat>11</sat>
      </trkpt>
      <trkpt lat="42.411224" lon="-3.247288">
        <ele>837.7</ele>
        <time>2020-08-19T06:08:34Z</time>
        <sat>10</sat>
      </trkpt>
      <trkpt lat="42.411174" lon="-3.247379">
        <ele>837.9</ele>
        <time>2020-08-19T06:08:41Z</time>
        <sat>10</sat>
      </trkpt>
      <trkpt lat="42.411115" lon="-3.247475">
        <ele>838.1</ele>
        <time>2020-08-19T06:08:49Z</time>
        <sat>10</sat>
      </trkpt>
      <trkpt lat="42.411061" lon="-3.247562">
        <ele>838.3</ele>
        <time>2020-08-19T06:08:56Z</time>
        <sat>10</sat>
      </trkpt>
      <trkpt lat="42.411008" lon="-3.247645">
        <ele>838.5</ele>
        <time>2020-08-19T06:09:03Z</time>
        <sat>10</sat>
      </trkpt>
      <trkpt lat="42.410955" lon="-3.247731">
        <ele>838.7</ele>
        <time>2020-08-19T06:09:10Z</time>
        <sat>10</sat>
      </trkpt>
      <trkpt lat="42.410901" lon="-3.247817">
        <ele>838.8</ele>
        <time>2020-08-19T06:09:17Z</time>
        <sat>11</sat>
      </trkpt>
      <trkpt lat="42.410852" lon="-3.247907">
        <ele>839.1</ele>
        <time>2020-08-19T06:09:24Z</time>
        <sat>10</sat>
      </trkpt>
      <trkpt lat="42.410795" lon="-3.248005">
        <ele>839.4</ele>
        <time>2020-08-19T06:09:32Z</time>
        <sat>11</sat>
      </trkpt>
      <trkpt lat="42.410738" lon="-3.248098">
        <ele>839.6</ele>
        <time>2020-08-19T06:09:39Z</time>
        <sat>10</sat>
      </trkpt>
      <trkpt lat="42.410687" lon="-3.248186">
        <ele>839.8</ele>
        <time>2020-08-19T06:09:46Z</time>
        <sat>11</sat>
      </trkpt>
      <trkpt lat="42.410640" lon="-3.248283">
        <ele>840.1</ele>
        <time>2020-08-19T06:09:53Z</time>
        <sat>10</sat>
      </trkpt>
      <trkpt lat="42.410586" lon="-3.248370">
        <ele>840.4</ele>
        <time>2020-08-19T06:10:00Z</time>
        <sat>11</sat>
      </trkpt>
      <trkpt lat="42.410530" lon="-3.248461">
        <ele>840.6</ele>
        <time>2020-08-19T06:10:08Z</time>
        <sat>11</sat>
      </trkpt>
      <trkpt lat="42.410472" lon="-3.248555">
        <ele>840.7</ele>
        <time>2020-08-19T06:10:16Z</time>
        <sat>10</sat>
      </trkpt>
      <trkpt lat="42.410419" lon="-3.248640">
        <ele>840.8</ele>
        <time>2020-08-19T06:10:23Z</time>
        <sat>11</sat>
      </trkpt>
      <trkpt lat="42.410370" lon="-3.248733">
        <ele>840.9</ele>
        <time>2020-08-19T06:10:30Z</time>
        <sat>11</sat>
      </trkpt>
      <trkpt lat="42.410321" lon="-3.248828">
        <ele>841.1</ele>
        <time>2020-08-19T06:10:37Z</time>
        <sat>11</sat>
      </trkpt>
      <trkpt lat="42.410265" lon="-3.248919">
        <ele>841.2</ele>
        <time>2020-08-19T06:10:45Z</time>
        <sat>11</sat>
      </trkpt>
      <trkpt lat="42.410211" lon="-3.249017">
        <ele>841.3</ele>
        <time>2020-08-19T06:10:53Z</time>
        <sat>11</sat>
      </trkpt>
      <trkpt lat="42.410157" lon="-3.249104">
        <ele>841.3</ele>
        <time>2020-08-19T06:11:00Z</time>
        <sat>10</sat>
      </trkpt>
      <trkpt lat="42.410103" lon="-3.249192">
        <ele>841.3</ele>
        <time>2020-08-19T06:11:07Z</time>
        <sat>10</sat>
      </trkpt>
      <trkpt lat="42.410045" lon="-3.249285">
        <ele>841.3</ele>
        <time>2020-08-19T06:11:15Z</time>
        <sat>10</sat>
      </trkpt>
      <trkpt lat="42.409991" lon="-3.249375">
        <ele>841.5</ele>
        <time>2020-08-19T06:11:22Z</time>
        <sat>10</sat>
      </trkpt>
      <trkpt lat="42.409939" lon="-3.249475">
        <ele>841.5</ele>
        <time>2020-08-19T06:11:30Z</time>
        <sat>10</sat>
      </trkpt>
      <trkpt lat="42.409887" lon="-3.249560">
        <ele>841.6</ele>
        <time>2020-08-19T06:11:37Z</time>
        <sat>10</sat>
      </trkpt>
      <trkpt lat="42.409832" lon="-3.249643">
        <ele>841.6</ele>
        <time>2020-08-19T06:11:44Z</time>
        <sat>11</sat>
      </trkpt>
      <trkpt lat="42.409776" lon="-3.249744">
        <ele>841.8</ele>
        <time>2020-08-19T06:11:52Z</time>
        <sat>11</sat>
      </trkpt>
      <trkpt lat="42.409721" lon="-3.249839">
        <ele>841.8</ele>
        <time>2020-08-19T06:11:59Z</time>
        <sat>11</sat>
      </trkpt>
      <trkpt lat="42.409660" lon="-3.249930">
        <ele>842.0</ele>
        <time>2020-08-19T06:12:07Z</time>
        <sat>11</sat>
      </trkpt>
      <trkpt lat="42.409603" lon="-3.250018">
        <ele>842.2</ele>
        <time>2020-08-19T06:12:14Z</time>
        <sat>11</sat>
      </trkpt>
      <trkpt lat="42.409548" lon="-3.250114">
        <ele>842.4</ele>
        <time>2020-08-19T06:12:21Z</time>
        <sat>10</sat>
      </trkpt>
      <trkpt lat="42.409492" lon="-3.250207">
        <ele>842.5</ele>
        <time>2020-08-19T06:12:28Z</time>
        <sat>10</sat>
      </trkpt>
      <trkpt lat="42.409439" lon="-3.250293">
        <ele>842.6</ele>
        <time>2020-08-19T06:12:35Z</time>
        <sat>11</sat>
      </trkpt>
      <trkpt lat="42.409387" lon="-3.250391">
        <ele>842.7</ele>
        <time>2020-08-19T06:12:42Z</time>
        <sat>10</sat>
      </trkpt>
      <trkpt lat="42.409334" lon="-3.250479">
        <ele>842.9</ele>
        <time>2020-08-19T06:12:49Z</time>
        <sat>11</sat>
      </trkpt>
      <trkpt lat="42.409279" lon="-3.250565">
        <ele>843.1</ele>
        <time>2020-08-19T06:12:56Z</time>
        <sat>11</sat>
      </trkpt>
      <trkpt lat="42.409229" lon="-3.250659">
        <ele>843.5</ele>
        <time>2020-08-19T06:13:03Z</time>
        <sat>10</sat>
      </trkpt>
      <trkpt lat="42.409172" lon="-3.250745">
        <ele>843.7</ele>
        <time>2020-08-19T06:13:10Z</time>
        <sat>10</sat>
      </trkpt>
      <trkpt lat="42.409118" lon="-3.250836">
        <ele>843.8</ele>
        <time>2020-08-19T06:13:17Z</time>
        <sat>11</sat>
      </trkpt>
      <trkpt lat="42.409063" lon="-3.250926">
        <ele>844.0</ele>
        <time>2020-08-19T06:13:24Z</time>
        <sat>11</sat>
      </trkpt>
      <trkpt lat="42.409008" lon="-3.251022">
        <ele>844.1</ele>
        <time>2020-08-19T06:13:32Z</time>
        <sat>11</sat>
      </trkpt>
      <trkpt lat="42.408959" lon="-3.251116">
        <ele>844.1</ele>
        <time>2020-08-19T06:13:39Z</time>
        <sat>10</sat>
      </trkpt>
      <trkpt lat="42.408909" lon="-3.251214">
        <ele>843.9</ele>
        <time>2020-08-19T06:13:46Z</time>
        <sat>10</sat>
      </trkpt>
      <trkpt lat="42.408848" lon="-3.251303">
        <ele>843.9</ele>
        <time>2020-08-19T06:13:53Z</time>
        <sat>10</sat>
      </trkpt>
      <trkpt lat="42.408792" lon="-3.251390">
        <ele>843.9</ele>
        <time>2020-08-19T06:14:00Z</time>
        <sat>11</sat>
      </trkpt>
      <trkpt lat="42.408738" lon="-3.251481">
        <ele>844.0</ele>
        <time>2020-08-19T06:14:07Z</time>
        <sat>10</sat>
      </trkpt>
      <trkpt lat="42.408685" lon="-3.251581">
        <ele>844.2</ele>
        <time>2020-08-19T06:14:14Z</time>
        <sat>11</sat>
      </trkpt>
      <trkpt lat="42.408630" lon="-3.251678">
        <ele>844.3</ele>
        <time>2020-08-19T06:14:21Z</time>
        <sat>10</sat>
      </trkpt>
      <trkpt lat="42.408571" lon="-3.251760">
        <ele>844.3</ele>
        <time>2020-08-19T06:14:28Z</time>
        <sat>11</sat>
      </trkpt>
      <trkpt lat="42.408510" lon="-3.251844">
        <ele>844.2</ele>
        <time>2020-08-19T06:14:35Z</time>
        <sat>11</sat>
      </trkpt>
      <trkpt lat="42.408443" lon="-3.251922">
        <ele>844.1</ele>
        <time>2020-08-19T06:14:42Z</time>
        <sat>11</sat>
      </trkpt>
      <trkpt lat="42.408373" lon="-3.252002">
        <ele>843.9</ele>
        <time>2020-08-19T06:14:49Z</time>
        <sat>11</sat>
      </trkpt>
      <trkpt lat="42.408302" lon="-3.252080">
        <ele>843.7</ele>
        <time>2020-08-19T06:14:56Z</time>
        <sat>11</sat>
      </trkpt>
      <trkpt lat="42.408237" lon="-3.252168">
        <ele>843.4</ele>
        <time>2020-08-19T06:15:03Z</time>
        <sat>11</sat>
      </trkpt>
      <trkpt lat="42.408162" lon="-3.252228">
        <ele>843.3</ele>
        <time>2020-08-19T06:15:10Z</time>
        <sat>11</sat>
      </trkpt>
      <trkpt lat="42.408097" lon="-3.252300">
        <ele>843.1</ele>
        <time>2020-08-19T06:15:17Z</time>
        <sat>11</sat>
      </trkpt>
      <trkpt lat="42.408040" lon="-3.252380">
        <ele>843.1</ele>
        <time>2020-08-19T06:15:24Z</time>
        <sat>11</sat>
      </trkpt>
      <trkpt lat="42.407971" lon="-3.252454">
        <ele>843.2</ele>
        <time>2020-08-19T06:15:31Z</time>
        <sat>11</sat>
      </trkpt>
      <trkpt lat="42.407905" lon="-3.252519">
        <ele>843.3</ele>
        <time>2020-08-19T06:15:38Z</time>
        <sat>11</sat>
      </trkpt>
      <trkpt lat="42.407827" lon="-3.252581">
        <ele>842.7</ele>
        <time>2020-08-19T06:16:20Z</time>
        <sat>10</sat>
      </trkpt>
      <trkpt lat="42.407761" lon="-3.252658">
        <ele>842.7</ele>
        <time>2020-08-19T06:16:29Z</time>
        <sat>10</sat>
      </trkpt>
      <trkpt lat="42.407694" lon="-3.252731">
        <ele>842.6</ele>
        <time>2020-08-19T06:16:37Z</time>
        <sat>11</sat>
      </trkpt>
      <trkpt lat="42.407625" lon="-3.252812">
        <ele>842.5</ele>
        <time>2020-08-19T06:16:45Z</time>
        <sat>11</sat>
      </trkpt>
      <trkpt lat="42.407562" lon="-3.252881">
        <ele>842.2</ele>
        <time>2020-08-19T06:16:52Z</time>
        <sat>11</sat>
      </trkpt>
      <trkpt lat="42.407491" lon="-3.252960">
        <ele>842.0</ele>
        <time>2020-08-19T06:17:00Z</time>
        <sat>10</sat>
      </trkpt>
      <trkpt lat="42.407425" lon="-3.253038">
        <ele>841.8</ele>
        <time>2020-08-19T06:17:08Z</time>
        <sat>11</sat>
      </trkpt>
      <trkpt lat="42.407362" lon="-3.253106">
        <ele>841.8</ele>
        <time>2020-08-19T06:17:15Z</time>
        <sat>11</sat>
      </trkpt>
      <trkpt lat="42.407299" lon="-3.253185">
        <ele>841.6</ele>
        <time>2020-08-19T06:17:22Z</time>
        <sat>11</sat>
      </trkpt>
      <trkpt lat="42.407226" lon="-3.253262">
        <ele>841.4</ele>
        <time>2020-08-19T06:17:29Z</time>
        <sat>11</sat>
      </trkpt>
      <trkpt lat="42.407151" lon="-3.253338">
        <ele>841.4</ele>
        <time>2020-08-19T06:17:37Z</time>
        <sat>11</sat>
      </trkpt>
      <trkpt lat="42.407086" lon="-3.253415">
        <ele>841.4</ele>
        <time>2020-08-19T06:17:44Z</time>
        <sat>11</sat>
      </trkpt>
      <trkpt lat="42.407020" lon="-3.253490">
        <ele>841.5</ele>
        <time>2020-08-19T06:17:51Z</time>
        <sat>11</sat>
      </trkpt>
      <trkpt lat="42.406953" lon="-3.253565">
        <ele>841.7</ele>
        <time>2020-08-19T06:17:58Z</time>
        <sat>11</sat>
      </trkpt>
      <trkpt lat="42.406888" lon="-3.253636">
        <ele>841.9</ele>
        <time>2020-08-19T06:18:05Z</time>
        <sat>11</sat>
      </trkpt>
      <trkpt lat="42.406822" lon="-3.253711">
        <ele>842.0</ele>
        <time>2020-08-19T06:18:12Z</time>
        <sat>10</sat>
      </trkpt>
      <trkpt lat="42.406756" lon="-3.253786">
        <ele>842.1</ele>
        <time>2020-08-19T06:18:19Z</time>
        <sat>11</sat>
      </trkpt>
      <trkpt lat="42.406686" lon="-3.253861">
        <ele>842.2</ele>
        <time>2020-08-19T06:18:26Z</time>
        <sat>11</sat>
      </trkpt>
      <trkpt lat="42.406619" lon="-3.253942">
        <ele>842.3</ele>
        <time>2020-08-19T06:18:33Z</time>
        <sat>11</sat>
      </trkpt>
      <trkpt lat="42.406556" lon="-3.254028">
        <ele>842.6</ele>
        <time>2020-08-19T06:18:40Z</time>
        <sat>11</sat>
      </trkpt>
      <trkpt lat="42.406504" lon="-3.254119">
        <ele>843.0</ele>
        <time>2020-08-19T06:18:47Z</time>
        <sat>11</sat>
      </trkpt>
      <trkpt lat="42.406459" lon="-3.254218">
        <ele>843.4</ele>
        <time>2020-08-19T06:18:54Z</time>
        <sat>10</sat>
      </trkpt>
      <trkpt lat="42.406414" lon="-3.254323">
        <ele>843.8</ele>
        <time>2020-08-19T06:19:01Z</time>
        <sat>11</sat>
      </trkpt>
      <trkpt lat="42.406374" lon="-3.254430">
        <ele>844.1</ele>
        <time>2020-08-19T06:19:08Z</time>
        <sat>11</sat>
      </trkpt>
      <trkpt lat="42.406332" lon="-3.254532">
        <ele>844.5</ele>
        <time>2020-08-19T06:19:15Z</time>
        <sat>11</sat>
      </trkpt>
      <trkpt lat="42.406293" lon="-3.254629">
        <ele>844.7</ele>
        <time>2020-08-19T06:19:22Z</time>
        <sat>10</sat>
      </trkpt>
      <trkpt lat="42.406263" lon="-3.254739">
        <ele>844.9</ele>
        <time>2020-08-19T06:19:29Z</time>
        <sat>10</sat>
      </trkpt>
      <trkpt lat="42.406225" lon="-3.254847">
        <ele>845.4</ele>
        <time>2020-08-19T06:19:36Z</time>
        <sat>10</sat>
      </trkpt>
      <trkpt lat="42.406190" lon="-3.254953">
        <ele>845.6</ele>
        <time>2020-08-19T06:19:43Z</time>
        <sat>10</sat>
      </trkpt>
      <trkpt lat="42.406148" lon="-3.255057">
        <ele>846.0</ele>
        <time>2020-08-19T06:19:50Z</time>
        <sat>9</sat>
      </trkpt>
      <trkpt lat="42.406111" lon="-3.255165">
        <ele>846.5</ele>
        <time>2020-08-19T06:19:57Z</time>
        <sat>10</sat>
      </trkpt>
      <trkpt lat="42.406069" lon="-3.255273">
        <ele>846.8</ele>
        <time>2020-08-19T06:20:04Z</time>
        <sat>10</sat>
      </trkpt>
      <trkpt lat="42.406030" lon="-3.255380">
        <ele>846.4</ele>
        <time>2020-08-19T06:20:11Z</time>
        <sat>9</sat>
      </trkpt>
      <trkpt lat="42.405993" lon="-3.255480">
        <ele>844.1</ele>
        <time>2020-08-19T06:20:18Z</time>
        <sat>11</sat>
      </trkpt>
      <trkpt lat="42.405957" lon="-3.255591">
        <ele>845.2</ele>
        <time>2020-08-19T06:20:25Z</time>
        <sat>11</sat>
      </trkpt>
      <trkpt lat="42.405917" lon="-3.255695">
        <ele>846.1</ele>
        <time>2020-08-19T06:20:32Z</time>
        <sat>11</sat>
      </trkpt>
      <trkpt lat="42.405875" lon="-3.255800">
        <ele>845.6</ele>
        <time>2020-08-19T06:20:39Z</time>
        <sat>11</sat>
      </trkpt>
      <trkpt lat="42.405830" lon="-3.255904">
        <ele>845.2</ele>
        <time>2020-08-19T06:20:46Z</time>
        <sat>10</sat>
      </trkpt>
      <trkpt lat="42.405790" lon="-3.256004">
        <ele>846.3</ele>
        <time>2020-08-19T06:20:53Z</time>
        <sat>10</sat>
      </trkpt>
      <trkpt lat="42.405750" lon="-3.256107">
        <ele>847.1</ele>
        <time>2020-08-19T06:21:00Z</time>
        <sat>10</sat>
      </trkpt>
      <trkpt lat="42.405714" lon="-3.256210">
        <ele>846.1</ele>
        <time>2020-08-19T06:21:07Z</time>
        <sat>11</sat>
      </trkpt>
      <trkpt lat="42.405680" lon="-3.256316">
        <ele>847.5</ele>
        <time>2020-08-19T06:21:14Z</time>
        <sat>11</sat>
      </trkpt>
      <trkpt lat="42.405646" lon="-3.256429">
        <ele>849.5</ele>
        <time>2020-08-19T06:21:21Z</time>
        <sat>10</sat>
      </trkpt>
      <trkpt lat="42.405608" lon="-3.256528">
        <ele>849.3</ele>
        <time>2020-08-19T06:21:27Z</time>
        <sat>10</sat>
      </trkpt>
      <trkpt lat="42.405575" lon="-3.256633">
        <ele>850.1</ele>
        <time>2020-08-19T06:21:34Z</time>
        <sat>10</sat>
      </trkpt>
      <trkpt lat="42.405541" lon="-3.256739">
        <ele>850.4</ele>
        <time>2020-08-19T06:21:41Z</time>
        <sat>10</sat>
      </trkpt>
      <trkpt lat="42.405502" lon="-3.256851">
        <ele>850.7</ele>
        <time>2020-08-19T06:21:48Z</time>
        <sat>11</sat>
      </trkpt>
      <trkpt lat="42.405466" lon="-3.256951">
        <ele>851.0</ele>
        <time>2020-08-19T06:21:54Z</time>
        <sat>10</sat>
      </trkpt>
      <trkpt lat="42.405422" lon="-3.257060">
        <ele>851.3</ele>
        <time>2020-08-19T06:22:01Z</time>
        <sat>10</sat>
      </trkpt>
      <trkpt lat="42.405376" lon="-3.257171">
        <ele>851.6</ele>
        <time>2020-08-19T06:22:08Z</time>
        <sat>10</sat>
      </trkpt>
      <trkpt lat="42.405339" lon="-3.257281">
        <ele>851.9</ele>
        <time>2020-08-19T06:22:15Z</time>
        <sat>10</sat>
      </trkpt>
      <trkpt lat="42.405301" lon="-3.257394">
        <ele>852.3</ele>
        <time>2020-08-19T06:22:22Z</time>
        <sat>10</sat>
      </trkpt>
      <trkpt lat="42.405262" lon="-3.257502">
        <ele>852.5</ele>
        <time>2020-08-19T06:22:29Z</time>
        <sat>11</sat>
      </trkpt>
      <trkpt lat="42.405219" lon="-3.257616">
        <ele>852.9</ele>
        <time>2020-08-19T06:22:36Z</time>
        <sat>9</sat>
      </trkpt>
      <trkpt lat="42.405178" lon="-3.257730">
        <ele>853.3</ele>
        <time>2020-08-19T06:22:43Z</time>
        <sat>10</sat>
      </trkpt>
      <trkpt lat="42.405141" lon="-3.257844">
        <ele>853.6</ele>
        <time>2020-08-19T06:22:50Z</time>
        <sat>10</sat>
      </trkpt>
      <trkpt lat="42.405107" lon="-3.257943">
        <ele>853.9</ele>
        <time>2020-08-19T06:22:56Z</time>
        <sat>10</sat>
      </trkpt>
      <trkpt lat="42.405070" lon="-3.258049">
        <ele>854.2</ele>
        <time>2020-08-19T06:23:03Z</time>
        <sat>10</sat>
      </trkpt>
      <trkpt lat="42.405034" lon="-3.258158">
        <ele>854.6</ele>
        <time>2020-08-19T06:23:10Z</time>
        <sat>10</sat>
      </trkpt>
      <trkpt lat="42.404991" lon="-3.258271">
        <ele>855.0</ele>
        <time>2020-08-19T06:23:17Z</time>
        <sat>10</sat>
      </trkpt>
      <trkpt lat="42.404946" lon="-3.258382">
        <ele>855.4</ele>
        <time>2020-08-19T06:23:24Z</time>
        <sat>10</sat>
      </trkpt>
      <trkpt lat="42.404909" lon="-3.258493">
        <ele>855.6</ele>
        <time>2020-08-19T06:23:31Z</time>
        <sat>11</sat>
      </trkpt>
      <trkpt lat="42.404873" lon="-3.258592">
        <ele>855.8</ele>
        <time>2020-08-19T06:23:37Z</time>
        <sat>9</sat>
      </trkpt>
      <trkpt lat="42.404834" lon="-3.258690">
        <ele>856.1</ele>
        <time>2020-08-19T06:23:43Z</time>
        <sat>9</sat>
      </trkpt>
      <trkpt lat="42.404799" lon="-3.258800">
        <ele>856.3</ele>
        <time>2020-08-19T06:23:50Z</time>
        <sat>8</sat>
      </trkpt>
      <trkpt lat="42.404767" lon="-3.258901">
        <ele>856.6</ele>
        <time>2020-08-19T06:23:56Z</time>
        <sat>10</sat>
      </trkpt>
      <trkpt lat="42.404738" lon="-3.259004">
        <ele>856.9</ele>
        <time>2020-08-19T06:24:02Z</time>
        <sat>9</sat>
      </trkpt>
      <trkpt lat="42.404738" lon="-3.259123">
        <ele>857.2</ele>
        <time>2020-08-19T06:24:09Z</time>
        <sat>10</sat>
      </trkpt>
      <trkpt lat="42.404758" lon="-3.259241">
        <ele>857.4</ele>
        <time>2020-08-19T06:24:16Z</time>
        <sat>10</sat>
      </trkpt>
      <trkpt lat="42.404774" lon="-3.259349">
        <ele>857.6</ele>
        <time>2020-08-19T06:24:22Z</time>
        <sat>10</sat>
      </trkpt>
      <trkpt lat="42.404776" lon="-3.259470">
        <ele>857.9</ele>
        <time>2020-08-19T06:24:29Z</time>
        <sat>9</sat>
      </trkpt>
      <trkpt lat="42.404775" lon="-3.259587">
        <ele>857.9</ele>
        <time>2020-08-19T06:24:36Z</time>
        <sat>10</sat>
      </trkpt>
      <trkpt lat="42.404767" lon="-3.259707">
        <ele>857.9</ele>
        <time>2020-08-19T06:24:43Z</time>
        <sat>10</sat>
      </trkpt>
      <trkpt lat="42.404750" lon="-3.259830">
        <ele>858.0</ele>
        <time>2020-08-19T06:24:50Z</time>
        <sat>10</sat>
      </trkpt>
      <trkpt lat="42.404729" lon="-3.259945">
        <ele>858.2</ele>
        <time>2020-08-19T06:24:57Z</time>
        <sat>10</sat>
      </trkpt>
      <trkpt lat="42.404709" lon="-3.260056">
        <ele>858.4</ele>
        <time>2020-08-19T06:25:04Z</time>
        <sat>9</sat>
      </trkpt>
      <trkpt lat="42.404690" lon="-3.260174">
        <ele>858.7</ele>
        <time>2020-08-19T06:25:11Z</time>
        <sat>8</sat>
      </trkpt>
      <trkpt lat="42.404665" lon="-3.260285">
        <ele>859.2</ele>
        <time>2020-08-19T06:25:31Z</time>
        <sat>8</sat>
      </trkpt>
      <trkpt lat="42.404665" lon="-3.260402">
        <ele>859.2</ele>
        <time>2020-08-19T06:25:39Z</time>
        <sat>8</sat>
      </trkpt>
      <trkpt lat="42.404648" lon="-3.260519">
        <ele>859.5</ele>
        <time>2020-08-19T06:25:46Z</time>
        <sat>9</sat>
      </trkpt>
      <trkpt lat="42.404631" lon="-3.260640">
        <ele>859.7</ele>
        <time>2020-08-19T06:25:53Z</time>
        <sat>9</sat>
      </trkpt>
      <trkpt lat="42.404624" lon="-3.260758">
        <ele>859.9</ele>
        <time>2020-08-19T06:26:02Z</time>
        <sat>10</sat>
      </trkpt>
      <trkpt lat="42.404626" lon="-3.260877">
        <ele>860.0</ele>
        <time>2020-08-19T06:26:10Z</time>
        <sat>10</sat>
      </trkpt>
      <trkpt lat="42.404656" lon="-3.260981">
        <ele>859.5</ele>
        <time>2020-08-19T06:26:58Z</time>
        <sat>10</sat>
      </trkpt>
      <trkpt lat="42.404676" lon="-3.261094">
        <ele>859.2</ele>
        <time>2020-08-19T06:27:05Z</time>
        <sat>9</sat>
      </trkpt>
      <trkpt lat="42.404664" lon="-3.261205">
        <ele>858.4</ele>
        <time>2020-08-19T06:27:25Z</time>
        <sat>10</sat>
      </trkpt>
      <trkpt lat="42.404670" lon="-3.261246">
        <ele>859.5</ele>
        <time>2020-08-19T06:28:08Z</time>
        <sat>10</sat>
      </trkpt>
      <trkpt lat="42.404643" lon="-3.261366">
        <ele>859.1</ele>
        <time>2020-08-19T06:28:15Z</time>
        <sat>9</sat>
      </trkpt>
      <trkpt lat="42.404605" lon="-3.261472">
        <ele>857.7</ele>
        <time>2020-08-19T06:28:22Z</time>
        <sat>9</sat>
      </trkpt>
      <trkpt lat="42.404550" lon="-3.261574">
        <ele>856.3</ele>
        <time>2020-08-19T06:28:29Z</time>
        <sat>9</sat>
      </trkpt>
      <trkpt lat="42.404504" lon="-3.261673">
        <ele>855.5</ele>
        <time>2020-08-19T06:28:36Z</time>
        <sat>9</sat>
      </trkpt>
      <trkpt lat="42.404447" lon="-3.261756">
        <ele>854.7</ele>
        <time>2020-08-19T06:28:45Z</time>
        <sat>9</sat>
      </trkpt>
      <trkpt lat="42.404395" lon="-3.261845">
        <ele>854.4</ele>
        <time>2020-08-19T06:28:53Z</time>
        <sat>9</sat>
      </trkpt>
      <trkpt lat="42.404400" lon="-3.261963">
        <ele>854.2</ele>
        <time>2020-08-19T06:31:08Z</time>
        <sat>8</sat>
      </trkpt>
      <trkpt lat="42.404426" lon="-3.262078">
        <ele>854.5</ele>
        <time>2020-08-19T06:31:16Z</time>
        <sat>9</sat>
      </trkpt>
      <trkpt lat="42.404462" lon="-3.262191">
        <ele>854.8</ele>
        <time>2020-08-19T06:31:23Z</time>
        <sat>9</sat>
      </trkpt>
      <trkpt lat="42.404473" lon="-3.262312">
        <ele>855.7</ele>
        <time>2020-08-19T06:31:58Z</time>
        <sat>10</sat>
      </trkpt>
      <trkpt lat="42.404512" lon="-3.262410">
        <ele>855.8</ele>
        <time>2020-08-19T06:32:04Z</time>
        <sat>10</sat>
      </trkpt>
      <trkpt lat="42.404555" lon="-3.262519">
        <ele>855.8</ele>
        <time>2020-08-19T06:32:11Z</time>
        <sat>10</sat>
      </trkpt>
      <trkpt lat="42.404584" lon="-3.262630">
        <ele>855.3</ele>
        <time>2020-08-19T06:32:18Z</time>
        <sat>10</sat>
      </trkpt>
      <trkpt lat="42.404624" lon="-3.262732">
        <ele>855.1</ele>
        <time>2020-08-19T06:32:25Z</time>
        <sat>10</sat>
      </trkpt>
      <trkpt lat="42.404643" lon="-3.262848">
        <ele>855.1</ele>
        <time>2020-08-19T06:32:31Z</time>
        <sat>10</sat>
      </trkpt>
      <trkpt lat="42.404667" lon="-3.262968">
        <ele>854.6</ele>
        <time>2020-08-19T06:32:38Z</time>
        <sat>10</sat>
      </trkpt>
      <trkpt lat="42.404681" lon="-3.263092">
        <ele>854.4</ele>
        <time>2020-08-19T06:32:45Z</time>
        <sat>9</sat>
      </trkpt>
      <trkpt lat="42.404698" lon="-3.263207">
        <ele>853.8</ele>
        <time>2020-08-19T06:32:51Z</time>
        <sat>9</sat>
      </trkpt>
      <trkpt lat="42.404706" lon="-3.263328">
        <ele>853.6</ele>
        <time>2020-08-19T06:32:58Z</time>
        <sat>9</sat>
      </trkpt>
      <trkpt lat="42.404709" lon="-3.263444">
        <ele>853.5</ele>
        <time>2020-08-19T06:33:05Z</time>
        <sat>9</sat>
      </trkpt>
      <trkpt lat="42.404685" lon="-3.263551">
        <ele>853.3</ele>
        <time>2020-08-19T06:33:11Z</time>
        <sat>9</sat>
      </trkpt>
      <trkpt lat="42.404664" lon="-3.263667">
        <ele>853.3</ele>
        <time>2020-08-19T06:33:18Z</time>
        <sat>9</sat>
      </trkpt>
      <trkpt lat="42.404627" lon="-3.263778">
        <ele>853.5</ele>
        <time>2020-08-19T06:33:25Z</time>
        <sat>9</sat>
      </trkpt>
      <trkpt lat="42.404570" lon="-3.263873">
        <ele>854.0</ele>
        <time>2020-08-19T06:33:33Z</time>
        <sat>9</sat>
      </trkpt>
      <trkpt lat="42.404522" lon="-3.263982">
        <ele>854.1</ele>
        <time>2020-08-19T06:33:48Z</time>
        <sat>9</sat>
      </trkpt>
      <trkpt lat="42.404472" lon="-3.264077">
        <ele>855.2</ele>
        <time>2020-08-19T06:33:55Z</time>
        <sat>9</sat>
      </trkpt>
      <trkpt lat="42.404416" lon="-3.264164">
        <ele>855.9</ele>
        <time>2020-08-19T06:34:02Z</time>
        <sat>9</sat>
      </trkpt>
      <trkpt lat="42.404394" lon="-3.264282">
        <ele>856.3</ele>
        <time>2020-08-19T06:34:09Z</time>
        <sat>9</sat>
      </trkpt>
      <trkpt lat="42.404384" lon="-3.264402">
        <ele>856.7</ele>
        <time>2020-08-19T06:34:15Z</time>
        <sat>9</sat>
      </trkpt>
      <trkpt lat="42.404402" lon="-3.264510">
        <ele>856.9</ele>
        <time>2020-08-19T06:34:21Z</time>
        <sat>9</sat>
      </trkpt>
      <trkpt lat="42.404436" lon="-3.264610">
        <ele>854.1</ele>
        <time>2020-08-19T06:34:27Z</time>
        <sat>8</sat>
      </trkpt>
      <trkpt lat="42.404470" lon="-3.264716">
        <ele>852.3</ele>
        <time>2020-08-19T06:34:34Z</time>
        <sat>9</sat>
      </trkpt>
      <trkpt lat="42.404492" lon="-3.264833">
        <ele>856.3</ele>
        <time>2020-08-19T06:34:41Z</time>
        <sat>9</sat>
      </trkpt>
      <trkpt lat="42.404514" lon="-3.264948">
        <ele>858.8</ele>
        <time>2020-08-19T06:34:48Z</time>
        <sat>10</sat>
      </trkpt>
      <trkpt lat="42.404524" lon="-3.265071">
        <ele>857.7</ele>
        <time>2020-08-19T06:34:55Z</time>
        <sat>9</sat>
      </trkpt>
      <trkpt lat="42.404527" lon="-3.265192">
        <ele>859.2</ele>
        <time>2020-08-19T06:35:02Z</time>
        <sat>9</sat>
      </trkpt>
      <trkpt lat="42.404538" lon="-3.265308">
        <ele>858.3</ele>
        <time>2020-08-19T06:35:09Z</time>
        <sat>9</sat>
      </trkpt>
      <trkpt lat="42.404542" lon="-3.265427">
        <ele>858.7</ele>
        <time>2020-08-19T06:35:16Z</time>
        <sat>9</sat>
      </trkpt>
      <trkpt lat="42.404550" lon="-3.265536">
        <ele>862.5</ele>
        <time>2020-08-19T06:35:22Z</time>
        <sat>9</sat>
      </trkpt>
      <trkpt lat="42.404556" lon="-3.265653">
        <ele>864.0</ele>
        <time>2020-08-19T06:35:28Z</time>
        <sat>10</sat>
      </trkpt>
      <trkpt lat="42.404565" lon="-3.265772">
        <ele>862.9</ele>
        <time>2020-08-19T06:35:34Z</time>
        <sat>9</sat>
      </trkpt>
      <trkpt lat="42.404568" lon="-3.265882">
        <ele>861.9</ele>
        <time>2020-08-19T06:35:40Z</time>
        <sat>10</sat>
      </trkpt>
      <trkpt lat="42.404576" lon="-3.266004">
        <ele>861.4</ele>
        <time>2020-08-19T06:35:47Z</time>
        <sat>10</sat>
      </trkpt>
      <trkpt lat="42.404581" lon="-3.266132">
        <ele>861.3</ele>
        <time>2020-08-19T06:35:54Z</time>
        <sat>9</sat>
      </trkpt>
      <trkpt lat="42.404587" lon="-3.266253">
        <ele>861.6</ele>
        <time>2020-08-19T06:36:01Z</time>
        <sat>8</sat>
      </trkpt>
      <trkpt lat="42.404584" lon="-3.266365">
        <ele>861.9</ele>
        <time>2020-08-19T06:36:07Z</time>
        <sat>9</sat>
      </trkpt>
      <trkpt lat="42.404580" lon="-3.266478">
        <ele>862.2</ele>
        <time>2020-08-19T06:36:13Z</time>
        <sat>9</sat>
      </trkpt>
      <trkpt lat="42.404582" lon="-3.266598">
        <ele>862.6</ele>
        <time>2020-08-19T06:36:20Z</time>
        <sat>9</sat>
      </trkpt>
      <trkpt lat="42.404587" lon="-3.266723">
        <ele>863.1</ele>
        <time>2020-08-19T06:36:27Z</time>
        <sat>9</sat>
      </trkpt>
      <trkpt lat="42.404589" lon="-3.266845">
        <ele>863.6</ele>
        <time>2020-08-19T06:36:34Z</time>
        <sat>9</sat>
      </trkpt>
      <trkpt lat="42.404584" lon="-3.266967">
        <ele>864.0</ele>
        <time>2020-08-19T06:36:41Z</time>
        <sat>9</sat>
      </trkpt>
      <trkpt lat="42.404587" lon="-3.267086">
        <ele>864.4</ele>
        <time>2020-08-19T06:36:48Z</time>
        <sat>9</sat>
      </trkpt>
      <trkpt lat="42.404594" lon="-3.267206">
        <ele>865.0</ele>
        <time>2020-08-19T06:36:55Z</time>
        <sat>9</sat>
      </trkpt>
      <trkpt lat="42.404602" lon="-3.267327">
        <ele>865.1</ele>
        <time>2020-08-19T06:37:02Z</time>
        <sat>9</sat>
      </trkpt>
      <trkpt lat="42.404590" lon="-3.267452">
        <ele>865.7</ele>
        <time>2020-08-19T06:37:09Z</time>
        <sat>9</sat>
      </trkpt>
      <trkpt lat="42.404581" lon="-3.267561">
        <ele>865.8</ele>
        <time>2020-08-19T06:37:15Z</time>
        <sat>9</sat>
      </trkpt>
      <trkpt lat="42.404577" lon="-3.267680">
        <ele>865.8</ele>
        <time>2020-08-19T06:37:22Z</time>
        <sat>9</sat>
      </trkpt>
      <trkpt lat="42.404574" lon="-3.267804">
        <ele>865.9</ele>
        <time>2020-08-19T06:37:29Z</time>
        <sat>9</sat>
      </trkpt>
      <trkpt lat="42.404574" lon="-3.267924">
        <ele>866.0</ele>
        <time>2020-08-19T06:37:36Z</time>
        <sat>9</sat>
      </trkpt>
      <trkpt lat="42.404571" lon="-3.268046">
        <ele>866.2</ele>
        <time>2020-08-19T06:37:43Z</time>
        <sat>9</sat>
      </trkpt>
      <trkpt lat="42.404579" lon="-3.268171">
        <ele>866.4</ele>
        <time>2020-08-19T06:37:50Z</time>
        <sat>9</sat>
      </trkpt>
      <trkpt lat="42.404573" lon="-3.268295">
        <ele>866.7</ele>
        <time>2020-08-19T06:37:57Z</time>
        <sat>9</sat>
      </trkpt>
      <trkpt lat="42.404577" lon="-3.268405">
        <ele>866.9</ele>
        <time>2020-08-19T06:38:03Z</time>
        <sat>9</sat>
      </trkpt>
      <trkpt lat="42.404581" lon="-3.268523">
        <ele>867.2</ele>
        <time>2020-08-19T06:38:10Z</time>
        <sat>9</sat>
      </trkpt>
      <trkpt lat="42.404576" lon="-3.268645">
        <ele>867.5</ele>
        <time>2020-08-19T06:38:17Z</time>
        <sat>9</sat>
      </trkpt>
      <trkpt lat="42.404570" lon="-3.268769">
        <ele>867.7</ele>
        <time>2020-08-19T06:38:24Z</time>
        <sat>9</sat>
      </trkpt>
      <trkpt lat="42.404566" lon="-3.268893">
        <ele>867.9</ele>
        <time>2020-08-19T06:38:31Z</time>
        <sat>9</sat>
      </trkpt>
      <trkpt lat="42.404570" lon="-3.269014">
        <ele>867.7</ele>
        <time>2020-08-19T06:38:38Z</time>
        <sat>9</sat>
      </trkpt>
      <trkpt lat="42.404572" lon="-3.269125">
        <ele>868.3</ele>
        <time>2020-08-19T06:38:44Z</time>
        <sat>9</sat>
      </trkpt>
      <trkpt lat="42.404575" lon="-3.269239">
        <ele>865.5</ele>
        <time>2020-08-19T06:38:50Z</time>
        <sat>9</sat>
      </trkpt>
      <trkpt lat="42.404585" lon="-3.269364">
        <ele>867.8</ele>
        <time>2020-08-19T06:38:57Z</time>
        <sat>9</sat>
      </trkpt>
      <trkpt lat="42.404584" lon="-3.269482">
        <ele>868.6</ele>
        <time>2020-08-19T06:39:04Z</time>
        <sat>9</sat>
      </trkpt>
      <trkpt lat="42.404590" lon="-3.269602">
        <ele>869.2</ele>
        <time>2020-08-19T06:39:11Z</time>
        <sat>9</sat>
      </trkpt>
      <trkpt lat="42.404597" lon="-3.269727">
        <ele>868.0</ele>
        <time>2020-08-19T06:39:18Z</time>
        <sat>9</sat>
      </trkpt>
      <trkpt lat="42.404597" lon="-3.269843">
        <ele>869.9</ele>
        <time>2020-08-19T06:39:25Z</time>
        <sat>9</sat>
      </trkpt>
      <trkpt lat="42.404601" lon="-3.269965">
        <ele>870.9</ele>
        <time>2020-08-19T06:39:32Z</time>
        <sat>9</sat>
      </trkpt>
      <trkpt lat="42.404604" lon="-3.270088">
        <ele>871.4</ele>
        <time>2020-08-19T06:39:39Z</time>
        <sat>9</sat>
      </trkpt>
      <trkpt lat="42.404604" lon="-3.270211">
        <ele>872.0</ele>
        <time>2020-08-19T06:39:46Z</time>
        <sat>9</sat>
      </trkpt>
      <trkpt lat="42.404599" lon="-3.270335">
        <ele>872.5</ele>
        <time>2020-08-19T06:39:53Z</time>
        <sat>9</sat>
      </trkpt>
      <trkpt lat="42.404607" lon="-3.270456">
        <ele>873.2</ele>
        <time>2020-08-19T06:40:00Z</time>
        <sat>9</sat>
      </trkpt>
      <trkpt lat="42.404604" lon="-3.270575">
        <ele>873.9</ele>
        <time>2020-08-19T06:40:07Z</time>
        <sat>9</sat>
      </trkpt>
      <trkpt lat="42.404604" lon="-3.270697">
        <ele>874.6</ele>
        <time>2020-08-19T06:40:15Z</time>
        <sat>9</sat>
      </trkpt>
      <trkpt lat="42.404611" lon="-3.270811">
        <ele>875.0</ele>
        <time>2020-08-19T06:40:22Z</time>
        <sat>9</sat>
      </trkpt>
      <trkpt lat="42.404616" lon="-3.270926">
        <ele>875.5</ele>
        <time>2020-08-19T06:40:29Z</time>
        <sat>9</sat>
      </trkpt>
      <trkpt lat="42.404612" lon="-3.271041">
        <ele>876.0</ele>
        <time>2020-08-19T06:40:36Z</time>
        <sat>9</sat>
      </trkpt>
      <trkpt lat="42.404628" lon="-3.271165">
        <ele>876.3</ele>
        <time>2020-08-19T06:40:43Z</time>
        <sat>9</sat>
      </trkpt>
      <trkpt lat="42.404625" lon="-3.271280">
        <ele>876.6</ele>
        <time>2020-08-19T06:40:50Z</time>
        <sat>9</sat>
      </trkpt>
      <trkpt lat="42.404636" lon="-3.271400">
        <ele>877.1</ele>
        <time>2020-08-19T06:40:57Z</time>
        <sat>9</sat>
      </trkpt>
      <trkpt lat="42.404647" lon="-3.271514">
        <ele>877.5</ele>
        <time>2020-08-19T06:41:04Z</time>
        <sat>9</sat>
      </trkpt>
      <trkpt lat="42.404656" lon="-3.271638">
        <ele>877.9</ele>
        <time>2020-08-19T06:41:11Z</time>
        <sat>9</sat>
      </trkpt>
      <trkpt lat="42.404649" lon="-3.271763">
        <ele>878.0</ele>
        <time>2020-08-19T06:41:17Z</time>
        <sat>9</sat>
      </trkpt>
      <trkpt lat="42.404673" lon="-3.271883">
        <ele>878.1</ele>
        <time>2020-08-19T06:41:23Z</time>
        <sat>9</sat>
      </trkpt>
      <trkpt lat="42.404680" lon="-3.272004">
        <ele>878.3</ele>
        <time>2020-08-19T06:41:30Z</time>
        <sat>9</sat>
      </trkpt>
      <trkpt lat="42.404685" lon="-3.272119">
        <ele>878.3</ele>
        <time>2020-08-19T06:41:38Z</time>
        <sat>9</sat>
      </trkpt>
      <trkpt lat="42.404685" lon="-3.272229">
        <ele>877.9</ele>
        <time>2020-08-19T06:41:46Z</time>
        <sat>9</sat>
      </trkpt>
      <trkpt lat="42.404682" lon="-3.272342">
        <ele>877.8</ele>
        <time>2020-08-19T06:41:52Z</time>
        <sat>9</sat>
      </trkpt>
      <trkpt lat="42.404673" lon="-3.272463">
        <ele>877.6</ele>
        <time>2020-08-19T06:41:58Z</time>
        <sat>9</sat>
      </trkpt>
      <trkpt lat="42.404672" lon="-3.272585">
        <ele>877.3</ele>
        <time>2020-08-19T06:42:04Z</time>
        <sat>9</sat>
      </trkpt>
      <trkpt lat="42.404685" lon="-3.272699">
        <ele>876.9</ele>
        <time>2020-08-19T06:42:10Z</time>
        <sat>9</sat>
      </trkpt>
      <trkpt lat="42.404702" lon="-3.272815">
        <ele>876.5</ele>
        <time>2020-08-19T06:42:17Z</time>
        <sat>9</sat>
      </trkpt>
      <trkpt lat="42.404731" lon="-3.272918">
        <ele>876.1</ele>
        <time>2020-08-19T06:42:23Z</time>
        <sat>9</sat>
      </trkpt>
      <trkpt lat="42.404762" lon="-3.273027">
        <ele>875.8</ele>
        <time>2020-08-19T06:42:30Z</time>
        <sat>9</sat>
      </trkpt>
      <trkpt lat="42.404797" lon="-3.273144">
        <ele>875.4</ele>
        <time>2020-08-19T06:42:41Z</time>
        <sat>9</sat>
      </trkpt>
      <trkpt lat="42.404823" lon="-3.273257">
        <ele>875.4</ele>
        <time>2020-08-19T06:42:47Z</time>
        <sat>9</sat>
      </trkpt>
      <trkpt lat="42.404851" lon="-3.273363">
        <ele>875.3</ele>
        <time>2020-08-19T06:42:53Z</time>
        <sat>9</sat>
      </trkpt>
      <trkpt lat="42.404875" lon="-3.273469">
        <ele>875.1</ele>
        <time>2020-08-19T06:43:00Z</time>
        <sat>9</sat>
      </trkpt>
      <trkpt lat="42.404909" lon="-3.273580">
        <ele>874.8</ele>
        <time>2020-08-19T06:43:07Z</time>
        <sat>9</sat>
      </trkpt>
      <trkpt lat="42.404933" lon="-3.273694">
        <ele>874.7</ele>
        <time>2020-08-19T06:43:13Z</time>
        <sat>9</sat>
      </trkpt>
      <trkpt lat="42.404960" lon="-3.273811">
        <ele>874.6</ele>
        <time>2020-08-19T06:43:19Z</time>
        <sat>9</sat>
      </trkpt>
      <trkpt lat="42.404980" lon="-3.273924">
        <ele>874.4</ele>
        <time>2020-08-19T06:43:25Z</time>
        <sat>9</sat>
      </trkpt>
      <trkpt lat="42.405007" lon="-3.274044">
        <ele>874.2</ele>
        <time>2020-08-19T06:43:32Z</time>
        <sat>9</sat>
      </trkpt>
      <trkpt lat="42.405024" lon="-3.274155">
        <ele>874.1</ele>
        <time>2020-08-19T06:43:38Z</time>
        <sat>9</sat>
      </trkpt>
      <trkpt lat="42.405043" lon="-3.274264">
        <ele>873.9</ele>
        <time>2020-08-19T06:43:46Z</time>
        <sat>9</sat>
      </trkpt>
      <trkpt lat="42.404993" lon="-3.274368">
        <ele>873.8</ele>
        <time>2020-08-19T06:44:25Z</time>
        <sat>9</sat>
      </trkpt>
      <trkpt lat="42.404976" lon="-3.274496">
        <ele>873.7</ele>
        <time>2020-08-19T06:44:32Z</time>
        <sat>9</sat>
      </trkpt>
      <trkpt lat="42.404938" lon="-3.274595">
        <ele>873.7</ele>
        <time>2020-08-19T06:44:37Z</time>
        <sat>9</sat>
      </trkpt>
      <trkpt lat="42.404952" lon="-3.274717">
        <ele>873.7</ele>
        <time>2020-08-19T06:44:44Z</time>
        <sat>8</sat>
      </trkpt>
      <trkpt lat="42.404943" lon="-3.274834">
        <ele>873.7</ele>
        <time>2020-08-19T06:44:50Z</time>
        <sat>9</sat>
      </trkpt>
      <trkpt lat="42.404965" lon="-3.274960">
        <ele>873.7</ele>
        <time>2020-08-19T06:44:57Z</time>
        <sat>6</sat>
      </trkpt>
      <trkpt lat="42.404969" lon="-3.275080">
        <ele>873.8</ele>
        <time>2020-08-19T06:45:03Z</time>
        <sat>8</sat>
      </trkpt>
      <trkpt lat="42.404973" lon="-3.275192">
        <ele>874.0</ele>
        <time>2020-08-19T06:45:09Z</time>
        <sat>9</sat>
      </trkpt>
      <trkpt lat="42.404984" lon="-3.275304">
        <ele>874.3</ele>
        <time>2020-08-19T06:45:15Z</time>
        <sat>8</sat>
      </trkpt>
      <trkpt lat="42.404988" lon="-3.275430">
        <ele>874.6</ele>
        <time>2020-08-19T06:45:21Z</time>
        <sat>8</sat>
      </trkpt>
      <trkpt lat="42.404999" lon="-3.275540">
        <ele>875.0</ele>
        <time>2020-08-19T06:45:27Z</time>
        <sat>8</sat>
      </trkpt>
      <trkpt lat="42.405009" lon="-3.275662">
        <ele>875.4</ele>
        <time>2020-08-19T06:45:33Z</time>
        <sat>8</sat>
      </trkpt>
      <trkpt lat="42.405019" lon="-3.275778">
        <ele>875.9</ele>
        <time>2020-08-19T06:45:39Z</time>
        <sat>8</sat>
      </trkpt>
      <trkpt lat="42.405044" lon="-3.275895">
        <ele>875.5</ele>
        <time>2020-08-19T06:45:46Z</time>
        <sat>9</sat>
      </trkpt>
      <trkpt lat="42.405050" lon="-3.276006">
        <ele>876.1</ele>
        <time>2020-08-19T06:45:52Z</time>
        <sat>8</sat>
      </trkpt>
      <trkpt lat="42.405070" lon="-3.276114">
        <ele>876.5</ele>
        <time>2020-08-19T06:45:58Z</time>
        <sat>9</sat>
      </trkpt>
      <trkpt lat="42.405106" lon="-3.276225">
        <ele>878.2</ele>
        <time>2020-08-19T06:46:05Z</time>
        <sat>9</sat>
      </trkpt>
      <trkpt lat="42.405134" lon="-3.276334">
        <ele>879.2</ele>
        <time>2020-08-19T06:46:11Z</time>
        <sat>9</sat>
      </trkpt>
      <trkpt lat="42.405174" lon="-3.276440">
        <ele>879.8</ele>
        <time>2020-08-19T06:46:18Z</time>
        <sat>9</sat>
      </trkpt>
      <trkpt lat="42.405232" lon="-3.276530">
        <ele>880.5</ele>
        <time>2020-08-19T06:46:25Z</time>
        <sat>8</sat>
      </trkpt>
      <trkpt lat="42.405242" lon="-3.276639">
        <ele>880.9</ele>
        <time>2020-08-19T06:46:30Z</time>
        <sat>9</sat>
      </trkpt>
      <trkpt lat="42.405228" lon="-3.276758">
        <ele>881.5</ele>
        <time>2020-08-19T06:46:38Z</time>
        <sat>8</sat>
      </trkpt>
      <trkpt lat="42.405207" lon="-3.276874">
        <ele>881.9</ele>
        <time>2020-08-19T06:46:46Z</time>
        <sat>8</sat>
      </trkpt>
      <trkpt lat="42.405183" lon="-3.276983">
        <ele>882.4</ele>
        <time>2020-08-19T06:46:54Z</time>
        <sat>8</sat>
      </trkpt>
      <trkpt lat="42.405155" lon="-3.277092">
        <ele>882.8</ele>
        <time>2020-08-19T06:47:01Z</time>
        <sat>8</sat>
      </trkpt>
      <trkpt lat="42.405129" lon="-3.277198">
        <ele>883.3</ele>
        <time>2020-08-19T06:47:10Z</time>
        <sat>8</sat>
      </trkpt>
      <trkpt lat="42.405117" lon="-3.277307">
        <ele>883.5</ele>
        <time>2020-08-19T06:47:15Z</time>
        <sat>8</sat>
      </trkpt>
      <trkpt lat="42.405128" lon="-3.277425">
        <ele>883.9</ele>
        <time>2020-08-19T06:47:24Z</time>
        <sat>8</sat>
      </trkpt>
      <trkpt lat="42.405122" lon="-3.277551">
        <ele>884.1</ele>
        <time>2020-08-19T06:47:30Z</time>
        <sat>8</sat>
      </trkpt>
      <trkpt lat="42.405137" lon="-3.277667">
        <ele>884.2</ele>
        <time>2020-08-19T06:47:37Z</time>
        <sat>8</sat>
      </trkpt>
      <trkpt lat="42.405108" lon="-3.277789">
        <ele>884.4</ele>
        <time>2020-08-19T06:47:43Z</time>
        <sat>8</sat>
      </trkpt>
      <trkpt lat="42.405097" lon="-3.277905">
        <ele>884.5</ele>
        <time>2020-08-19T06:47:49Z</time>
        <sat>8</sat>
      </trkpt>
      <trkpt lat="42.405105" lon="-3.278030">
        <ele>884.7</ele>
        <time>2020-08-19T06:47:56Z</time>
        <sat>8</sat>
      </trkpt>
      <trkpt lat="42.405107" lon="-3.278146">
        <ele>884.9</ele>
        <time>2020-08-19T06:48:02Z</time>
        <sat>8</sat>
      </trkpt>
      <trkpt lat="42.405129" lon="-3.278261">
        <ele>885.1</ele>
        <time>2020-08-19T06:48:09Z</time>
        <sat>8</sat>
      </trkpt>
      <trkpt lat="42.405180" lon="-3.278359">
        <ele>885.4</ele>
        <time>2020-08-19T06:48:16Z</time>
        <sat>8</sat>
      </trkpt>
      <trkpt lat="42.405236" lon="-3.278451">
        <ele>885.9</ele>
        <time>2020-08-19T06:48:23Z</time>
        <sat>8</sat>
      </trkpt>
      <trkpt lat="42.405286" lon="-3.278553">
        <ele>886.5</ele>
        <time>2020-08-19T06:48:31Z</time>
        <sat>8</sat>
      </trkpt>
      <trkpt lat="42.405311" lon="-3.278664">
        <ele>887.0</ele>
        <time>2020-08-19T06:48:38Z</time>
        <sat>8</sat>
      </trkpt>
      <trkpt lat="42.405330" lon="-3.278786">
        <ele>887.7</ele>
        <time>2020-08-19T06:48:46Z</time>
        <sat>8</sat>
      </trkpt>
      <trkpt lat="42.405331" lon="-3.278904">
        <ele>888.4</ele>
        <time>2020-08-19T06:48:54Z</time>
        <sat>7</sat>
      </trkpt>
      <trkpt lat="42.405337" lon="-3.279030">
        <ele>889.0</ele>
        <time>2020-08-19T06:49:01Z</time>
        <sat>8</sat>
      </trkpt>
      <trkpt lat="42.405356" lon="-3.279144">
        <ele>889.5</ele>
        <time>2020-08-19T06:49:08Z</time>
        <sat>8</sat>
      </trkpt>
      <trkpt lat="42.405382" lon="-3.279256">
        <ele>890.0</ele>
        <time>2020-08-19T06:49:15Z</time>
        <sat>8</sat>
      </trkpt>
      <trkpt lat="42.405406" lon="-3.279366">
        <ele>890.6</ele>
        <time>2020-08-19T06:49:22Z</time>
        <sat>8</sat>
      </trkpt>
      <trkpt lat="42.405457" lon="-3.279457">
        <ele>891.0</ele>
        <time>2020-08-19T06:49:30Z</time>
        <sat>8</sat>
      </trkpt>
      <trkpt lat="42.405486" lon="-3.279574">
        <ele>891.4</ele>
        <time>2020-08-19T06:49:54Z</time>
        <sat>8</sat>
      </trkpt>
      <trkpt lat="42.405501" lon="-3.279685">
        <ele>891.6</ele>
        <time>2020-08-19T06:49:59Z</time>
        <sat>8</sat>
      </trkpt>
      <trkpt lat="42.405505" lon="-3.279798">
        <ele>891.9</ele>
        <time>2020-08-19T06:50:05Z</time>
        <sat>7</sat>
      </trkpt>
      <trkpt lat="42.405509" lon="-3.279914">
        <ele>892.2</ele>
        <time>2020-08-19T06:50:11Z</time>
        <sat>7</sat>
      </trkpt>
      <trkpt lat="42.405526" lon="-3.280036">
        <ele>892.4</ele>
        <time>2020-08-19T06:50:18Z</time>
        <sat>8</sat>
      </trkpt>
      <trkpt lat="42.405538" lon="-3.280147">
        <ele>892.5</ele>
        <time>2020-08-19T06:50:24Z</time>
        <sat>8</sat>
      </trkpt>
      <trkpt lat="42.405552" lon="-3.280258">
        <ele>892.6</ele>
        <time>2020-08-19T06:50:30Z</time>
        <sat>8</sat>
      </trkpt>
      <trkpt lat="42.405582" lon="-3.280374">
        <ele>892.8</ele>
        <time>2020-08-19T06:50:37Z</time>
        <sat>8</sat>
      </trkpt>
      <trkpt lat="42.405626" lon="-3.280465">
        <ele>892.7</ele>
        <time>2020-08-19T06:50:43Z</time>
        <sat>8</sat>
      </trkpt>
      <trkpt lat="42.405666" lon="-3.280576">
        <ele>892.7</ele>
        <time>2020-08-19T06:50:50Z</time>
        <sat>8</sat>
      </trkpt>
      <trkpt lat="42.405698" lon="-3.280685">
        <ele>892.7</ele>
        <time>2020-08-19T06:50:57Z</time>
        <sat>8</sat>
      </trkpt>
      <trkpt lat="42.405723" lon="-3.280800">
        <ele>892.7</ele>
        <time>2020-08-19T06:51:04Z</time>
        <sat>8</sat>
      </trkpt>
      <trkpt lat="42.405738" lon="-3.280922">
        <ele>892.7</ele>
        <time>2020-08-19T06:51:11Z</time>
        <sat>8</sat>
      </trkpt>
      <trkpt lat="42.405759" lon="-3.281118">
        <ele>893.6</ele>
        <time>2020-08-19T07:04:50Z</time>
        <sat>9</sat>
      </trkpt>
      <trkpt lat="42.405733" lon="-3.281232">
        <ele>893.7</ele>
        <time>2020-08-19T07:04:57Z</time>
        <sat>9</sat>
      </trkpt>
      <trkpt lat="42.405713" lon="-3.281347">
        <ele>893.7</ele>
        <time>2020-08-19T07:05:04Z</time>
        <sat>9</sat>
      </trkpt>
      <trkpt lat="42.405720" lon="-3.281461">
        <ele>894.2</ele>
        <time>2020-08-19T07:05:30Z</time>
        <sat>9</sat>
      </trkpt>
      <trkpt lat="42.405759" lon="-3.281561">
        <ele>894.4</ele>
        <time>2020-08-19T07:05:47Z</time>
        <sat>9</sat>
      </trkpt>
      <trkpt lat="42.405840" lon="-3.281604">
        <ele>894.4</ele>
        <time>2020-08-19T07:05:53Z</time>
        <sat>9</sat>
      </trkpt>
      <trkpt lat="42.405905" lon="-3.281680">
        <ele>894.4</ele>
        <time>2020-08-19T07:06:00Z</time>
        <sat>9</sat>
      </trkpt>
      <trkpt lat="42.405964" lon="-3.281759">
        <ele>894.0</ele>
        <time>2020-08-19T07:06:06Z</time>
        <sat>9</sat>
      </trkpt>
      <trkpt lat="42.406035" lon="-3.281828">
        <ele>893.7</ele>
        <time>2020-08-19T07:06:15Z</time>
        <sat>9</sat>
      </trkpt>
      <trkpt lat="42.406124" lon="-3.281837">
        <ele>893.4</ele>
        <time>2020-08-19T07:06:23Z</time>
        <sat>9</sat>
      </trkpt>
      <trkpt lat="42.406206" lon="-3.281838">
        <ele>893.1</ele>
        <time>2020-08-19T07:06:30Z</time>
        <sat>8</sat>
      </trkpt>
      <trkpt lat="42.406300" lon="-3.281861">
        <ele>892.8</ele>
        <time>2020-08-19T07:06:38Z</time>
        <sat>9</sat>
      </trkpt>
      <trkpt lat="42.406372" lon="-3.281932">
        <ele>892.5</ele>
        <time>2020-08-19T07:06:46Z</time>
        <sat>9</sat>
      </trkpt>
      <trkpt lat="42.406367" lon="-3.282048">
        <ele>892.3</ele>
        <time>2020-08-19T07:06:54Z</time>
        <sat>8</sat>
      </trkpt>
      <trkpt lat="42.406318" lon="-3.282152">
        <ele>892.0</ele>
        <time>2020-08-19T07:08:08Z</time>
        <sat>8</sat>
      </trkpt>
      <trkpt lat="42.406243" lon="-3.282221">
        <ele>891.9</ele>
        <time>2020-08-19T07:08:15Z</time>
        <sat>8</sat>
      </trkpt>
      <trkpt lat="42.406186" lon="-3.282304">
        <ele>891.5</ele>
        <time>2020-08-19T07:08:25Z</time>
        <sat>8</sat>
      </trkpt>
      <trkpt lat="42.406124" lon="-3.282389">
        <ele>891.3</ele>
        <time>2020-08-19T07:08:32Z</time>
        <sat>9</sat>
      </trkpt>
      <trkpt lat="42.406060" lon="-3.282477">
        <ele>891.1</ele>
        <time>2020-08-19T07:08:39Z</time>
        <sat>9</sat>
      </trkpt>
      <trkpt lat="42.405998" lon="-3.282574">
        <ele>891.0</ele>
        <time>2020-08-19T07:08:46Z</time>
        <sat>9</sat>
      </trkpt>
      <trkpt lat="42.405944" lon="-3.282663">
        <ele>890.7</ele>
        <time>2020-08-19T07:08:53Z</time>
        <sat>9</sat>
      </trkpt>
      <trkpt lat="42.405876" lon="-3.282748">
        <ele>890.5</ele>
        <time>2020-08-19T07:09:00Z</time>
        <sat>8</sat>
      </trkpt>
      <trkpt lat="42.405822" lon="-3.282841">
        <ele>890.3</ele>
        <time>2020-08-19T07:09:07Z</time>
        <sat>9</sat>
      </trkpt>
      <trkpt lat="42.405755" lon="-3.282926">
        <ele>890.0</ele>
        <time>2020-08-19T07:09:14Z</time>
        <sat>9</sat>
      </trkpt>
      <trkpt lat="42.405693" lon="-3.283014">
        <ele>889.9</ele>
        <time>2020-08-19T07:09:21Z</time>
        <sat>8</sat>
      </trkpt>
      <trkpt lat="42.405634" lon="-3.283090">
        <ele>889.7</ele>
        <time>2020-08-19T07:09:27Z</time>
        <sat>8</sat>
      </trkpt>
      <trkpt lat="42.405571" lon="-3.283165">
        <ele>889.4</ele>
        <time>2020-08-19T07:09:34Z</time>
        <sat>9</sat>
      </trkpt>
      <trkpt lat="42.405508" lon="-3.283234">
        <ele>889.2</ele>
        <time>2020-08-19T07:09:40Z</time>
        <sat>9</sat>
      </trkpt>
      <trkpt lat="42.405460" lon="-3.283329">
        <ele>888.7</ele>
        <time>2020-08-19T07:09:51Z</time>
        <sat>9</sat>
      </trkpt>
      <trkpt lat="42.405399" lon="-3.283406">
        <ele>888.5</ele>
        <time>2020-08-19T07:10:03Z</time>
        <sat>9</sat>
      </trkpt>
      <trkpt lat="42.405331" lon="-3.283483">
        <ele>888.6</ele>
        <time>2020-08-19T07:10:10Z</time>
        <sat>8</sat>
      </trkpt>
      <trkpt lat="42.405265" lon="-3.283560">
        <ele>888.5</ele>
        <time>2020-08-19T07:10:16Z</time>
        <sat>8</sat>
      </trkpt>
      <trkpt lat="42.405208" lon="-3.283660">
        <ele>888.5</ele>
        <time>2020-08-19T07:10:23Z</time>
        <sat>8</sat>
      </trkpt>
      <trkpt lat="42.405146" lon="-3.283738">
        <ele>888.4</ele>
        <time>2020-08-19T07:10:30Z</time>
        <sat>9</sat>
      </trkpt>
      <trkpt lat="42.405105" lon="-3.283852">
        <ele>888.4</ele>
        <time>2020-08-19T07:10:38Z</time>
        <sat>9</sat>
      </trkpt>
      <trkpt lat="42.405083" lon="-3.283963">
        <ele>888.3</ele>
        <time>2020-08-19T07:10:44Z</time>
        <sat>10</sat>
      </trkpt>
      <trkpt lat="42.405066" lon="-3.284072">
        <ele>888.4</ele>
        <time>2020-08-19T07:10:51Z</time>
        <sat>9</sat>
      </trkpt>
      <trkpt lat="42.405041" lon="-3.284185">
        <ele>888.2</ele>
        <time>2020-08-19T07:10:58Z</time>
        <sat>9</sat>
      </trkpt>
      <trkpt lat="42.405017" lon="-3.284293">
        <ele>888.3</ele>
        <time>2020-08-19T07:11:05Z</time>
        <sat>10</sat>
      </trkpt>
      <trkpt lat="42.404996" lon="-3.284418">
        <ele>888.8</ele>
        <time>2020-08-19T07:11:29Z</time>
        <sat>10</sat>
      </trkpt>
      <trkpt lat="42.404967" lon="-3.284526">
        <ele>888.9</ele>
        <time>2020-08-19T07:11:36Z</time>
        <sat>9</sat>
      </trkpt>
      <trkpt lat="42.404937" lon="-3.284639">
        <ele>889.0</ele>
        <time>2020-08-19T07:11:43Z</time>
        <sat>9</sat>
      </trkpt>
      <trkpt lat="42.404915" lon="-3.284761">
        <ele>889.4</ele>
        <time>2020-08-19T07:11:51Z</time>
        <sat>9</sat>
      </trkpt>
      <trkpt lat="42.404888" lon="-3.284872">
        <ele>889.7</ele>
        <time>2020-08-19T07:11:58Z</time>
        <sat>9</sat>
      </trkpt>
      <trkpt lat="42.404863" lon="-3.284990">
        <ele>890.1</ele>
        <time>2020-08-19T07:12:05Z</time>
        <sat>9</sat>
      </trkpt>
      <trkpt lat="42.404832" lon="-3.285112">
        <ele>890.6</ele>
        <time>2020-08-19T07:12:12Z</time>
        <sat>9</sat>
      </trkpt>
      <trkpt lat="42.404812" lon="-3.285221">
        <ele>890.8</ele>
        <time>2020-08-19T07:12:19Z</time>
        <sat>9</sat>
      </trkpt>
      <trkpt lat="42.404783" lon="-3.285341">
        <ele>891.2</ele>
        <time>2020-08-19T07:12:26Z</time>
        <sat>9</sat>
      </trkpt>
      <trkpt lat="42.404760" lon="-3.285459">
        <ele>891.6</ele>
        <time>2020-08-19T07:12:33Z</time>
        <sat>9</sat>
      </trkpt>
      <trkpt lat="42.404729" lon="-3.285575">
        <ele>892.0</ele>
        <time>2020-08-19T07:12:40Z</time>
        <sat>10</sat>
      </trkpt>
      <trkpt lat="42.404711" lon="-3.285684">
        <ele>892.5</ele>
        <time>2020-08-19T07:12:47Z</time>
        <sat>9</sat>
      </trkpt>
      <trkpt lat="42.404689" lon="-3.285791">
        <ele>892.8</ele>
        <time>2020-08-19T07:12:53Z</time>
        <sat>10</sat>
      </trkpt>
      <trkpt lat="42.404663" lon="-3.285907">
        <ele>893.5</ele>
        <time>2020-08-19T07:13:00Z</time>
        <sat>10</sat>
      </trkpt>
      <trkpt lat="42.404637" lon="-3.286020">
        <ele>894.0</ele>
        <time>2020-08-19T07:13:07Z</time>
        <sat>10</sat>
      </trkpt>
      <trkpt lat="42.404620" lon="-3.286137">
        <ele>894.4</ele>
        <time>2020-08-19T07:13:14Z</time>
        <sat>10</sat>
      </trkpt>
      <trkpt lat="42.404591" lon="-3.286248">
        <ele>895.1</ele>
        <time>2020-08-19T07:13:21Z</time>
        <sat>9</sat>
      </trkpt>
      <trkpt lat="42.404574" lon="-3.286358">
        <ele>895.7</ele>
        <time>2020-08-19T07:13:28Z</time>
        <sat>10</sat>
      </trkpt>
      <trkpt lat="42.404548" lon="-3.286477">
        <ele>896.3</ele>
        <time>2020-08-19T07:13:35Z</time>
        <sat>9</sat>
      </trkpt>
      <trkpt lat="42.404533" lon="-3.286586">
        <ele>896.8</ele>
        <time>2020-08-19T07:13:42Z</time>
        <sat>9</sat>
      </trkpt>
      <trkpt lat="42.404503" lon="-3.286699">
        <ele>897.4</ele>
        <time>2020-08-19T07:13:49Z</time>
        <sat>10</sat>
      </trkpt>
      <trkpt lat="42.404478" lon="-3.286818">
        <ele>897.8</ele>
        <time>2020-08-19T07:13:56Z</time>
        <sat>10</sat>
      </trkpt>
      <trkpt lat="42.404458" lon="-3.286932">
        <ele>898.5</ele>
        <time>2020-08-19T07:14:03Z</time>
        <sat>10</sat>
      </trkpt>
      <trkpt lat="42.404430" lon="-3.287042">
        <ele>899.2</ele>
        <time>2020-08-19T07:14:10Z</time>
        <sat>9</sat>
      </trkpt>
      <trkpt lat="42.404399" lon="-3.287149">
        <ele>899.7</ele>
        <time>2020-08-19T07:14:17Z</time>
        <sat>10</sat>
      </trkpt>
      <trkpt lat="42.404371" lon="-3.287255">
        <ele>900.4</ele>
        <time>2020-08-19T07:14:24Z</time>
        <sat>9</sat>
      </trkpt>
      <trkpt lat="42.404344" lon="-3.287361">
        <ele>901.2</ele>
        <time>2020-08-19T07:14:31Z</time>
        <sat>10</sat>
      </trkpt>
      <trkpt lat="42.404332" lon="-3.287479">
        <ele>902.9</ele>
        <time>2020-08-19T07:14:49Z</time>
        <sat>9</sat>
      </trkpt>
      <trkpt lat="42.404289" lon="-3.287578">
        <ele>903.4</ele>
        <time>2020-08-19T07:14:58Z</time>
        <sat>9</sat>
      </trkpt>
      <trkpt lat="42.404248" lon="-3.287676">
        <ele>904.1</ele>
        <time>2020-08-19T07:15:07Z</time>
        <sat>9</sat>
      </trkpt>
      <trkpt lat="42.404204" lon="-3.287781">
        <ele>904.8</ele>
        <time>2020-08-19T07:15:16Z</time>
        <sat>10</sat>
      </trkpt>
      <trkpt lat="42.404169" lon="-3.287893">
        <ele>905.5</ele>
        <time>2020-08-19T07:15:24Z</time>
        <sat>10</sat>
      </trkpt>
      <trkpt lat="42.404166" lon="-3.288014">
        <ele>906.4</ele>
        <time>2020-08-19T07:15:34Z</time>
        <sat>10</sat>
      </trkpt>
      <trkpt lat="42.404139" lon="-3.288122">
        <ele>907.3</ele>
        <time>2020-08-19T07:15:42Z</time>
        <sat>10</sat>
      </trkpt>
      <trkpt lat="42.404148" lon="-3.288239">
        <ele>908.1</ele>
        <time>2020-08-19T07:15:50Z</time>
        <sat>9</sat>
      </trkpt>
      <trkpt lat="42.404174" lon="-3.288347">
        <ele>908.7</ele>
        <time>2020-08-19T07:15:57Z</time>
        <sat>10</sat>
      </trkpt>
      <trkpt lat="42.404200" lon="-3.288461">
        <ele>909.4</ele>
        <time>2020-08-19T07:16:04Z</time>
        <sat>10</sat>
      </trkpt>
      <trkpt lat="42.404218" lon="-3.288580">
        <ele>910.3</ele>
        <time>2020-08-19T07:16:12Z</time>
        <sat>10</sat>
      </trkpt>
      <trkpt lat="42.404241" lon="-3.288702">
        <ele>911.3</ele>
        <time>2020-08-19T07:16:20Z</time>
        <sat>10</sat>
      </trkpt>
      <trkpt lat="42.404270" lon="-3.288813">
        <ele>912.3</ele>
        <time>2020-08-19T07:16:27Z</time>
        <sat>9</sat>
      </trkpt>
      <trkpt lat="42.404289" lon="-3.288929">
        <ele>913.4</ele>
        <time>2020-08-19T07:16:34Z</time>
        <sat>10</sat>
      </trkpt>
      <trkpt lat="42.404301" lon="-3.289042">
        <ele>914.4</ele>
        <time>2020-08-19T07:16:41Z</time>
        <sat>10</sat>
      </trkpt>
      <trkpt lat="42.404315" lon="-3.289155">
        <ele>915.3</ele>
        <time>2020-08-19T07:16:48Z</time>
        <sat>9</sat>
      </trkpt>
      <trkpt lat="42.404323" lon="-3.289265">
        <ele>916.0</ele>
        <time>2020-08-19T07:16:55Z</time>
        <sat>10</sat>
      </trkpt>
      <trkpt lat="42.404314" lon="-3.289382">
        <ele>916.7</ele>
        <time>2020-08-19T07:17:02Z</time>
        <sat>10</sat>
      </trkpt>
      <trkpt lat="42.404305" lon="-3.289498">
        <ele>917.2</ele>
        <time>2020-08-19T07:17:09Z</time>
        <sat>8</sat>
      </trkpt>
      <trkpt lat="42.404284" lon="-3.289606">
        <ele>917.7</ele>
        <time>2020-08-19T07:17:15Z</time>
        <sat>8</sat>
      </trkpt>
      <trkpt lat="42.404269" lon="-3.289725">
        <ele>918.3</ele>
        <time>2020-08-19T07:17:22Z</time>
        <sat>9</sat>
      </trkpt>
      <trkpt lat="42.404248" lon="-3.289840">
        <ele>918.8</ele>
        <time>2020-08-19T07:17:29Z</time>
        <sat>8</sat>
      </trkpt>
      <trkpt lat="42.404237" lon="-3.289949">
        <ele>919.1</ele>
        <time>2020-08-19T07:17:36Z</time>
        <sat>10</sat>
      </trkpt>
      <trkpt lat="42.404219" lon="-3.290062">
        <ele>919.5</ele>
        <time>2020-08-19T07:17:43Z</time>
        <sat>9</sat>
      </trkpt>
      <trkpt lat="42.404204" lon="-3.290181">
        <ele>919.9</ele>
        <time>2020-08-19T07:17:50Z</time>
        <sat>9</sat>
      </trkpt>
      <trkpt lat="42.404190" lon="-3.290299">
        <ele>920.2</ele>
        <time>2020-08-19T07:17:57Z</time>
        <sat>10</sat>
      </trkpt>
      <trkpt lat="42.404179" lon="-3.290419">
        <ele>920.5</ele>
        <time>2020-08-19T07:18:04Z</time>
        <sat>10</sat>
      </trkpt>
      <trkpt lat="42.404166" lon="-3.290536">
        <ele>920.8</ele>
        <time>2020-08-19T07:18:11Z</time>
        <sat>9</sat>
      </trkpt>
      <trkpt lat="42.404148" lon="-3.290659">
        <ele>921.4</ele>
        <time>2020-08-19T07:18:18Z</time>
        <sat>9</sat>
      </trkpt>
      <trkpt lat="42.404142" lon="-3.290775">
        <ele>922.1</ele>
        <time>2020-08-19T07:18:25Z</time>
        <sat>9</sat>
      </trkpt>
      <trkpt lat="42.404126" lon="-3.290891">
        <ele>922.7</ele>
        <time>2020-08-19T07:18:32Z</time>
        <sat>10</sat>
      </trkpt>
      <trkpt lat="42.404110" lon="-3.291013">
        <ele>923.1</ele>
        <time>2020-08-19T07:18:39Z</time>
        <sat>9</sat>
      </trkpt>
      <trkpt lat="42.404093" lon="-3.291132">
        <ele>923.6</ele>
        <time>2020-08-19T07:18:46Z</time>
        <sat>9</sat>
      </trkpt>
      <trkpt lat="42.404070" lon="-3.291241">
        <ele>924.1</ele>
        <time>2020-08-19T07:18:53Z</time>
        <sat>9</sat>
      </trkpt>
      <trkpt lat="42.404040" lon="-3.291350">
        <ele>924.7</ele>
        <time>2020-08-19T07:19:00Z</time>
        <sat>8</sat>
      </trkpt>
      <trkpt lat="42.404009" lon="-3.291463">
        <ele>925.4</ele>
        <time>2020-08-19T07:19:07Z</time>
        <sat>9</sat>
      </trkpt>
      <trkpt lat="42.403971" lon="-3.291570">
        <ele>925.9</ele>
        <time>2020-08-19T07:19:14Z</time>
        <sat>10</sat>
      </trkpt>
      <trkpt lat="42.403933" lon="-3.291680">
        <ele>926.4</ele>
        <time>2020-08-19T07:19:21Z</time>
        <sat>9</sat>
      </trkpt>
      <trkpt lat="42.403895" lon="-3.291791">
        <ele>927.0</ele>
        <time>2020-08-19T07:19:28Z</time>
        <sat>10</sat>
      </trkpt>
      <trkpt lat="42.403860" lon="-3.291898">
        <ele>927.6</ele>
        <time>2020-08-19T07:19:35Z</time>
        <sat>9</sat>
      </trkpt>
      <trkpt lat="42.403814" lon="-3.292010">
        <ele>928.3</ele>
        <time>2020-08-19T07:19:42Z</time>
        <sat>10</sat>
      </trkpt>
      <trkpt lat="42.403776" lon="-3.292118">
        <ele>928.7</ele>
        <time>2020-08-19T07:19:49Z</time>
        <sat>9</sat>
      </trkpt>
      <trkpt lat="42.403734" lon="-3.292226">
        <ele>929.2</ele>
        <time>2020-08-19T07:19:56Z</time>
        <sat>9</sat>
      </trkpt>
      <trkpt lat="42.403696" lon="-3.292339">
        <ele>927.7</ele>
        <time>2020-08-19T07:20:03Z</time>
        <sat>9</sat>
      </trkpt>
      <trkpt lat="42.403649" lon="-3.292431">
        <ele>929.4</ele>
        <time>2020-08-19T07:20:09Z</time>
        <sat>9</sat>
      </trkpt>
      <trkpt lat="42.403608" lon="-3.292532">
        <ele>929.5</ele>
        <time>2020-08-19T07:20:16Z</time>
        <sat>10</sat>
      </trkpt>
      <trkpt lat="42.403565" lon="-3.292632">
        <ele>928.5</ele>
        <time>2020-08-19T07:20:23Z</time>
        <sat>10</sat>
      </trkpt>
      <trkpt lat="42.403536" lon="-3.292747">
        <ele>929.7</ele>
        <time>2020-08-19T07:20:29Z</time>
        <sat>10</sat>
      </trkpt>
      <trkpt lat="42.403494" lon="-3.292851">
        <ele>929.1</ele>
        <time>2020-08-19T07:20:36Z</time>
        <sat>10</sat>
      </trkpt>
      <trkpt lat="42.403450" lon="-3.292956">
        <ele>930.2</ele>
        <time>2020-08-19T07:20:44Z</time>
        <sat>9</sat>
      </trkpt>
      <trkpt lat="42.403409" lon="-3.293065">
        <ele>931.0</ele>
        <time>2020-08-19T07:20:52Z</time>
        <sat>9</sat>
      </trkpt>
      <trkpt lat="42.403373" lon="-3.293179">
        <ele>931.1</ele>
        <time>2020-08-19T07:20:59Z</time>
        <sat>8</sat>
      </trkpt>
      <trkpt lat="42.403331" lon="-3.293287">
        <ele>931.1</ele>
        <time>2020-08-19T07:21:06Z</time>
        <sat>9</sat>
      </trkpt>
      <trkpt lat="42.403294" lon="-3.293397">
        <ele>931.1</ele>
        <time>2020-08-19T07:21:13Z</time>
        <sat>9</sat>
      </trkpt>
      <trkpt lat="42.403263" lon="-3.293507">
        <ele>931.1</ele>
        <time>2020-08-19T07:21:20Z</time>
        <sat>8</sat>
      </trkpt>
      <trkpt lat="42.403229" lon="-3.293620">
        <ele>931.2</ele>
        <time>2020-08-19T07:21:27Z</time>
        <sat>9</sat>
      </trkpt>
      <trkpt lat="42.403201" lon="-3.293731">
        <ele>931.2</ele>
        <time>2020-08-19T07:21:34Z</time>
        <sat>9</sat>
      </trkpt>
      <trkpt lat="42.403181" lon="-3.293846">
        <ele>931.3</ele>
        <time>2020-08-19T07:21:41Z</time>
        <sat>9</sat>
      </trkpt>
      <trkpt lat="42.403156" lon="-3.293950">
        <ele>931.4</ele>
        <time>2020-08-19T07:21:48Z</time>
        <sat>10</sat>
      </trkpt>
      <trkpt lat="42.403127" lon="-3.294068">
        <ele>931.6</ele>
        <time>2020-08-19T07:21:55Z</time>
        <sat>9</sat>
      </trkpt>
      <trkpt lat="42.403098" lon="-3.294175">
        <ele>931.7</ele>
        <time>2020-08-19T07:22:01Z</time>
        <sat>10</sat>
      </trkpt>
      <trkpt lat="42.403071" lon="-3.294290">
        <ele>932.0</ele>
        <time>2020-08-19T07:22:08Z</time>
        <sat>9</sat>
      </trkpt>
      <trkpt lat="42.403040" lon="-3.294404">
        <ele>932.2</ele>
        <time>2020-08-19T07:22:15Z</time>
        <sat>9</sat>
      </trkpt>
      <trkpt lat="42.403017" lon="-3.294520">
        <ele>932.6</ele>
        <time>2020-08-19T07:22:23Z</time>
        <sat>9</sat>
      </trkpt>
      <trkpt lat="42.402997" lon="-3.294629">
        <ele>932.8</ele>
        <time>2020-08-19T07:22:30Z</time>
        <sat>9</sat>
      </trkpt>
      <trkpt lat="42.402972" lon="-3.294741">
        <ele>933.1</ele>
        <time>2020-08-19T07:22:37Z</time>
        <sat>10</sat>
      </trkpt>
      <trkpt lat="42.402944" lon="-3.294860">
        <ele>933.6</ele>
        <time>2020-08-19T07:22:45Z</time>
        <sat>9</sat>
      </trkpt>
      <trkpt lat="42.402919" lon="-3.294977">
        <ele>934.1</ele>
        <time>2020-08-19T07:22:53Z</time>
        <sat>10</sat>
      </trkpt>
      <trkpt lat="42.402896" lon="-3.295090">
        <ele>934.7</ele>
        <time>2020-08-19T07:23:01Z</time>
        <sat>10</sat>
      </trkpt>
      <trkpt lat="42.402868" lon="-3.295198">
        <ele>935.3</ele>
        <time>2020-08-19T07:23:08Z</time>
        <sat>8</sat>
      </trkpt>
      <trkpt lat="42.402838" lon="-3.295304">
        <ele>935.9</ele>
        <time>2020-08-19T07:23:16Z</time>
        <sat>10</sat>
      </trkpt>
      <trkpt lat="42.402814" lon="-3.295415">
        <ele>936.5</ele>
        <time>2020-08-19T07:23:24Z</time>
        <sat>10</sat>
      </trkpt>
      <trkpt lat="42.402788" lon="-3.295524">
        <ele>937.0</ele>
        <time>2020-08-19T07:23:31Z</time>
        <sat>9</sat>
      </trkpt>
      <trkpt lat="42.402758" lon="-3.295627">
        <ele>937.4</ele>
        <time>2020-08-19T07:23:38Z</time>
        <sat>9</sat>
      </trkpt>
      <trkpt lat="42.402736" lon="-3.295733">
        <ele>937.6</ele>
        <time>2020-08-19T07:23:45Z</time>
        <sat>10</sat>
      </trkpt>
      <trkpt lat="42.402715" lon="-3.295849">
        <ele>937.9</ele>
        <time>2020-08-19T07:23:52Z</time>
        <sat>8</sat>
      </trkpt>
      <trkpt lat="42.402698" lon="-3.295964">
        <ele>938.2</ele>
        <time>2020-08-19T07:23:59Z</time>
        <sat>9</sat>
      </trkpt>
      <trkpt lat="42.402676" lon="-3.296078">
        <ele>938.5</ele>
        <time>2020-08-19T07:24:06Z</time>
        <sat>9</sat>
      </trkpt>
      <trkpt lat="42.402651" lon="-3.296193">
        <ele>938.8</ele>
        <time>2020-08-19T07:24:13Z</time>
        <sat>9</sat>
      </trkpt>
      <trkpt lat="42.402621" lon="-3.296307">
        <ele>939.2</ele>
        <time>2020-08-19T07:24:20Z</time>
        <sat>9</sat>
      </trkpt>
      <trkpt lat="42.402595" lon="-3.296422">
        <ele>939.4</ele>
        <time>2020-08-19T07:24:27Z</time>
        <sat>9</sat>
      </trkpt>
      <trkpt lat="42.402564" lon="-3.296532">
        <ele>939.4</ele>
        <time>2020-08-19T07:24:34Z</time>
        <sat>10</sat>
      </trkpt>
      <trkpt lat="42.402533" lon="-3.296651">
        <ele>939.7</ele>
        <time>2020-08-19T07:24:41Z</time>
        <sat>9</sat>
      </trkpt>
      <trkpt lat="42.402512" lon="-3.296762">
        <ele>940.0</ele>
        <time>2020-08-19T07:24:48Z</time>
        <sat>8</sat>
      </trkpt>
      <trkpt lat="42.402490" lon="-3.296879">
        <ele>940.2</ele>
        <time>2020-08-19T07:24:55Z</time>
        <sat>8</sat>
      </trkpt>
      <trkpt lat="42.402464" lon="-3.296993">
        <ele>940.4</ele>
        <time>2020-08-19T07:25:02Z</time>
        <sat>10</sat>
      </trkpt>
      <trkpt lat="42.402436" lon="-3.297100">
        <ele>940.5</ele>
        <time>2020-08-19T07:25:09Z</time>
        <sat>9</sat>
      </trkpt>
      <trkpt lat="42.402421" lon="-3.297220">
        <ele>940.5</ele>
        <time>2020-08-19T07:25:17Z</time>
        <sat>9</sat>
      </trkpt>
      <trkpt lat="42.402392" lon="-3.297327">
        <ele>940.6</ele>
        <time>2020-08-19T07:25:25Z</time>
        <sat>10</sat>
      </trkpt>
      <trkpt lat="42.402363" lon="-3.297433">
        <ele>940.7</ele>
        <time>2020-08-19T07:25:39Z</time>
        <sat>10</sat>
      </trkpt>
      <trkpt lat="42.402340" lon="-3.297549">
        <ele>941.0</ele>
        <time>2020-08-19T07:25:47Z</time>
        <sat>10</sat>
      </trkpt>
      <trkpt lat="42.402305" lon="-3.297650">
        <ele>941.2</ele>
        <time>2020-08-19T07:25:54Z</time>
        <sat>9</sat>
      </trkpt>
      <trkpt lat="42.402259" lon="-3.297742">
        <ele>940.8</ele>
        <time>2020-08-19T07:26:01Z</time>
        <sat>10</sat>
      </trkpt>
      <trkpt lat="42.402253" lon="-3.297864">
        <ele>939.8</ele>
        <time>2020-08-19T07:26:38Z</time>
        <sat>10</sat>
      </trkpt>
      <trkpt lat="42.402222" lon="-3.297972">
        <ele>939.0</ele>
        <time>2020-08-19T07:26:48Z</time>
        <sat>10</sat>
      </trkpt>
      <trkpt lat="42.402181" lon="-3.298084">
        <ele>938.5</ele>
        <time>2020-08-19T07:27:51Z</time>
        <sat>9</sat>
      </trkpt>
      <trkpt lat="42.402155" lon="-3.298192">
        <ele>934.8</ele>
        <time>2020-08-19T07:27:58Z</time>
        <sat>9</sat>
      </trkpt>
      <trkpt lat="42.402134" lon="-3.298305">
        <ele>938.7</ele>
        <time>2020-08-19T07:28:05Z</time>
        <sat>9</sat>
      </trkpt>
      <trkpt lat="42.402113" lon="-3.298426">
        <ele>938.7</ele>
        <time>2020-08-19T07:28:12Z</time>
        <sat>10</sat>
      </trkpt>
      <trkpt lat="42.402078" lon="-3.298539">
        <ele>937.7</ele>
        <time>2020-08-19T07:28:19Z</time>
        <sat>9</sat>
      </trkpt>
      <trkpt lat="42.402053" lon="-3.298656">
        <ele>936.3</ele>
        <time>2020-08-19T07:28:26Z</time>
        <sat>9</sat>
      </trkpt>
      <trkpt lat="42.402027" lon="-3.298772">
        <ele>935.2</ele>
        <time>2020-08-19T07:28:33Z</time>
        <sat>9</sat>
      </trkpt>
      <trkpt lat="42.401996" lon="-3.298877">
        <ele>934.2</ele>
        <time>2020-08-19T07:28:40Z</time>
        <sat>10</sat>
      </trkpt>
      <trkpt lat="42.401972" lon="-3.298984">
        <ele>933.4</ele>
        <time>2020-08-19T07:28:47Z</time>
        <sat>10</sat>
      </trkpt>
      <trkpt lat="42.401949" lon="-3.299094">
        <ele>932.7</ele>
        <time>2020-08-19T07:28:54Z</time>
        <sat>10</sat>
      </trkpt>
      <trkpt lat="42.401918" lon="-3.299208">
        <ele>931.8</ele>
        <time>2020-08-19T07:29:02Z</time>
        <sat>9</sat>
      </trkpt>
      <trkpt lat="42.401899" lon="-3.299321">
        <ele>931.0</ele>
        <time>2020-08-19T07:29:10Z</time>
        <sat>10</sat>
      </trkpt>
      <trkpt lat="42.401871" lon="-3.299425">
        <ele>929.6</ele>
        <time>2020-08-19T07:29:28Z</time>
        <sat>9</sat>
      </trkpt>
      <trkpt lat="42.401843" lon="-3.299538">
        <ele>929.0</ele>
        <time>2020-08-19T07:29:36Z</time>
        <sat>9</sat>
      </trkpt>
      <trkpt lat="42.401817" lon="-3.299649">
        <ele>928.4</ele>
        <time>2020-08-19T07:29:43Z</time>
        <sat>10</sat>
      </trkpt>
      <trkpt lat="42.401801" lon="-3.299768">
        <ele>926.8</ele>
        <time>2020-08-19T07:29:57Z</time>
        <sat>10</sat>
      </trkpt>
      <trkpt lat="42.401768" lon="-3.299876">
        <ele>926.4</ele>
        <time>2020-08-19T07:30:04Z</time>
        <sat>10</sat>
      </trkpt>
      <trkpt lat="42.401738" lon="-3.299980">
        <ele>925.7</ele>
        <time>2020-08-19T07:30:12Z</time>
        <sat>10</sat>
      </trkpt>
      <trkpt lat="42.401711" lon="-3.300095">
        <ele>925.0</ele>
        <time>2020-08-19T07:30:20Z</time>
        <sat>10</sat>
      </trkpt>
      <trkpt lat="42.401685" lon="-3.300201">
        <ele>922.4</ele>
        <time>2020-08-19T07:30:50Z</time>
        <sat>10</sat>
      </trkpt>
      <trkpt lat="42.401744" lon="-3.300257">
        <ele>922.4</ele>
        <time>2020-08-19T07:31:04Z</time>
        <sat>9</sat>
      </trkpt>
      <trkpt lat="42.401819" lon="-3.300235">
        <ele>921.3</ele>
        <time>2020-08-19T07:31:13Z</time>
        <sat>9</sat>
      </trkpt>
      <trkpt lat="42.401875" lon="-3.300163">
        <ele>919.6</ele>
        <time>2020-08-19T07:31:49Z</time>
        <sat>9</sat>
      </trkpt>
      <trkpt lat="42.401938" lon="-3.300094">
        <ele>920.8</ele>
        <time>2020-08-19T07:35:09Z</time>
        <sat>6</sat>
      </trkpt>
      <trkpt lat="42.401880" lon="-3.300190">
        <ele>920.8</ele>
        <time>2020-08-19T07:35:40Z</time>
        <sat>8</sat>
      </trkpt>
      <trkpt lat="42.401807" lon="-3.300271">
        <ele>920.6</ele>
        <time>2020-08-19T07:35:48Z</time>
        <sat>8</sat>
      </trkpt>
      <trkpt lat="42.401722" lon="-3.300280">
        <ele>920.5</ele>
        <time>2020-08-19T07:35:58Z</time>
        <sat>10</sat>
      </trkpt>
      <trkpt lat="42.401664" lon="-3.300313">
        <ele>921.5</ele>
        <time>2020-08-19T07:36:10Z</time>
        <sat>9</sat>
      </trkpt>
      <trkpt lat="42.401633" lon="-3.300420">
        <ele>921.8</ele>
        <time>2020-08-19T07:36:17Z</time>
        <sat>10</sat>
      </trkpt>
      <trkpt lat="42.401604" lon="-3.300537">
        <ele>921.8</ele>
        <time>2020-08-19T07:36:25Z</time>
        <sat>9</sat>
      </trkpt>
      <trkpt lat="42.401576" lon="-3.300643">
        <ele>921.2</ele>
        <time>2020-08-19T07:36:32Z</time>
        <sat>10</sat>
      </trkpt>
      <trkpt lat="42.401551" lon="-3.300761">
        <ele>920.8</ele>
        <time>2020-08-19T07:36:39Z</time>
        <sat>9</sat>
      </trkpt>
      <trkpt lat="42.401513" lon="-3.300874">
        <ele>919.0</ele>
        <time>2020-08-19T07:36:46Z</time>
        <sat>9</sat>
      </trkpt>
      <trkpt lat="42.401458" lon="-3.300966">
        <ele>919.3</ele>
        <time>2020-08-19T07:36:55Z</time>
        <sat>9</sat>
      </trkpt>
      <trkpt lat="42.401378" lon="-3.301014">
        <ele>919.1</ele>
        <time>2020-08-19T07:37:03Z</time>
        <sat>9</sat>
      </trkpt>
      <trkpt lat="42.401297" lon="-3.301053">
        <ele>913.8</ele>
        <time>2020-08-19T07:37:11Z</time>
        <sat>9</sat>
      </trkpt>
      <trkpt lat="42.401213" lon="-3.301092">
        <ele>920.5</ele>
        <time>2020-08-19T07:37:19Z</time>
        <sat>10</sat>
      </trkpt>
      <trkpt lat="42.401125" lon="-3.301122">
        <ele>920.4</ele>
        <time>2020-08-19T07:37:26Z</time>
        <sat>10</sat>
      </trkpt>
      <trkpt lat="42.401042" lon="-3.301152">
        <ele>919.9</ele>
        <time>2020-08-19T07:37:34Z</time>
        <sat>10</sat>
      </trkpt>
      <trkpt lat="42.400954" lon="-3.301169">
        <ele>919.5</ele>
        <time>2020-08-19T07:37:46Z</time>
        <sat>10</sat>
      </trkpt>
      <trkpt lat="42.400868" lon="-3.301218">
        <ele>919.2</ele>
        <time>2020-08-19T07:37:53Z</time>
        <sat>9</sat>
      </trkpt>
      <trkpt lat="42.400777" lon="-3.301245">
        <ele>919.3</ele>
        <time>2020-08-19T07:38:00Z</time>
        <sat>9</sat>
      </trkpt>
      <trkpt lat="42.400690" lon="-3.301285">
        <ele>919.3</ele>
        <time>2020-08-19T07:38:07Z</time>
        <sat>10</sat>
      </trkpt>
      <trkpt lat="42.400603" lon="-3.301320">
        <ele>919.5</ele>
        <time>2020-08-19T07:38:14Z</time>
        <sat>10</sat>
      </trkpt>
      <trkpt lat="42.400522" lon="-3.301351">
        <ele>919.5</ele>
        <time>2020-08-19T07:38:21Z</time>
        <sat>10</sat>
      </trkpt>
      <trkpt lat="42.400440" lon="-3.301374">
        <ele>919.6</ele>
        <time>2020-08-19T07:38:28Z</time>
        <sat>9</sat>
      </trkpt>
      <trkpt lat="42.400351" lon="-3.301407">
        <ele>919.8</ele>
        <time>2020-08-19T07:38:35Z</time>
        <sat>9</sat>
      </trkpt>
      <trkpt lat="42.400263" lon="-3.301445">
        <ele>920.0</ele>
        <time>2020-08-19T07:38:42Z</time>
        <sat>9</sat>
      </trkpt>
      <trkpt lat="42.400182" lon="-3.301490">
        <ele>920.1</ele>
        <time>2020-08-19T07:38:49Z</time>
        <sat>8</sat>
      </trkpt>
      <trkpt lat="42.400103" lon="-3.301519">
        <ele>920.3</ele>
        <time>2020-08-19T07:38:55Z</time>
        <sat>9</sat>
      </trkpt>
      <trkpt lat="42.400017" lon="-3.301559">
        <ele>920.4</ele>
        <time>2020-08-19T07:39:02Z</time>
        <sat>9</sat>
      </trkpt>
      <trkpt lat="42.399932" lon="-3.301592">
        <ele>920.5</ele>
        <time>2020-08-19T07:39:09Z</time>
        <sat>9</sat>
      </trkpt>
      <trkpt lat="42.399853" lon="-3.301622">
        <ele>920.4</ele>
        <time>2020-08-19T07:39:15Z</time>
        <sat>8</sat>
      </trkpt>
      <trkpt lat="42.399764" lon="-3.301659">
        <ele>920.6</ele>
        <time>2020-08-19T07:39:22Z</time>
        <sat>8</sat>
      </trkpt>
      <trkpt lat="42.399678" lon="-3.301695">
        <ele>920.8</ele>
        <time>2020-08-19T07:39:29Z</time>
        <sat>9</sat>
      </trkpt>
      <trkpt lat="42.399589" lon="-3.301721">
        <ele>921.3</ele>
        <time>2020-08-19T07:39:36Z</time>
        <sat>9</sat>
      </trkpt>
      <trkpt lat="42.399505" lon="-3.301756">
        <ele>921.8</ele>
        <time>2020-08-19T07:39:43Z</time>
        <sat>9</sat>
      </trkpt>
      <trkpt lat="42.399424" lon="-3.301786">
        <ele>921.8</ele>
        <time>2020-08-19T07:39:49Z</time>
        <sat>9</sat>
      </trkpt>
      <trkpt lat="42.399347" lon="-3.301826">
        <ele>921.7</ele>
        <time>2020-08-19T07:39:56Z</time>
        <sat>9</sat>
      </trkpt>
      <trkpt lat="42.399266" lon="-3.301871">
        <ele>921.7</ele>
        <time>2020-08-19T07:40:03Z</time>
        <sat>9</sat>
      </trkpt>
      <trkpt lat="42.399188" lon="-3.301903">
        <ele>921.8</ele>
        <time>2020-08-19T07:40:09Z</time>
        <sat>9</sat>
      </trkpt>
      <trkpt lat="42.399106" lon="-3.301933">
        <ele>922.0</ele>
        <time>2020-08-19T07:40:16Z</time>
        <sat>9</sat>
      </trkpt>
      <trkpt lat="42.399020" lon="-3.301964">
        <ele>922.1</ele>
        <time>2020-08-19T07:40:23Z</time>
        <sat>9</sat>
      </trkpt>
      <trkpt lat="42.398942" lon="-3.301996">
        <ele>922.2</ele>
        <time>2020-08-19T07:40:30Z</time>
        <sat>9</sat>
      </trkpt>
      <trkpt lat="42.398853" lon="-3.302026">
        <ele>922.3</ele>
        <time>2020-08-19T07:40:37Z</time>
        <sat>9</sat>
      </trkpt>
      <trkpt lat="42.398765" lon="-3.302060">
        <ele>922.3</ele>
        <time>2020-08-19T07:40:44Z</time>
        <sat>9</sat>
      </trkpt>
      <trkpt lat="42.398688" lon="-3.302100">
        <ele>922.3</ele>
        <time>2020-08-19T07:40:50Z</time>
        <sat>8</sat>
      </trkpt>
      <trkpt lat="42.398596" lon="-3.302128">
        <ele>922.5</ele>
        <time>2020-08-19T07:40:57Z</time>
        <sat>9</sat>
      </trkpt>
      <trkpt lat="42.398509" lon="-3.302160">
        <ele>922.7</ele>
        <time>2020-08-19T07:41:04Z</time>
        <sat>9</sat>
      </trkpt>
      <trkpt lat="42.398422" lon="-3.302199">
        <ele>923.0</ele>
        <time>2020-08-19T07:41:11Z</time>
        <sat>9</sat>
      </trkpt>
      <trkpt lat="42.398333" lon="-3.302235">
        <ele>923.2</ele>
        <time>2020-08-19T07:41:18Z</time>
        <sat>8</sat>
      </trkpt>
      <trkpt lat="42.398246" lon="-3.302273">
        <ele>923.3</ele>
        <time>2020-08-19T07:41:26Z</time>
        <sat>8</sat>
      </trkpt>
      <trkpt lat="42.398163" lon="-3.302305">
        <ele>923.4</ele>
        <time>2020-08-19T07:41:32Z</time>
        <sat>9</sat>
      </trkpt>
      <trkpt lat="42.398081" lon="-3.302338">
        <ele>923.5</ele>
        <time>2020-08-19T07:41:38Z</time>
        <sat>9</sat>
      </trkpt>
      <trkpt lat="42.397994" lon="-3.302376">
        <ele>923.7</ele>
        <time>2020-08-19T07:41:45Z</time>
        <sat>8</sat>
      </trkpt>
      <trkpt lat="42.397904" lon="-3.302411">
        <ele>923.7</ele>
        <time>2020-08-19T07:41:52Z</time>
        <sat>9</sat>
      </trkpt>
      <trkpt lat="42.397823" lon="-3.302450">
        <ele>923.7</ele>
        <time>2020-08-19T07:41:59Z</time>
        <sat>9</sat>
      </trkpt>
      <trkpt lat="42.397738" lon="-3.302479">
        <ele>923.8</ele>
        <time>2020-08-19T07:42:05Z</time>
        <sat>9</sat>
      </trkpt>
      <trkpt lat="42.397660" lon="-3.302514">
        <ele>923.9</ele>
        <time>2020-08-19T07:42:11Z</time>
        <sat>9</sat>
      </trkpt>
      <trkpt lat="42.397579" lon="-3.302546">
        <ele>923.9</ele>
        <time>2020-08-19T07:42:17Z</time>
        <sat>9</sat>
      </trkpt>
      <trkpt lat="42.397490" lon="-3.302587">
        <ele>924.0</ele>
        <time>2020-08-19T07:42:24Z</time>
        <sat>9</sat>
      </trkpt>
      <trkpt lat="42.397403" lon="-3.302622">
        <ele>924.3</ele>
        <time>2020-08-19T07:42:31Z</time>
        <sat>9</sat>
      </trkpt>
      <trkpt lat="42.397315" lon="-3.302654">
        <ele>924.3</ele>
        <time>2020-08-19T07:42:38Z</time>
        <sat>9</sat>
      </trkpt>
      <trkpt lat="42.397225" lon="-3.302687">
        <ele>924.1</ele>
        <time>2020-08-19T07:42:45Z</time>
        <sat>9</sat>
      </trkpt>
      <trkpt lat="42.397137" lon="-3.302729">
        <ele>924.0</ele>
        <time>2020-08-19T07:42:52Z</time>
        <sat>9</sat>
      </trkpt>
      <trkpt lat="42.397055" lon="-3.302766">
        <ele>924.1</ele>
        <time>2020-08-19T07:42:59Z</time>
        <sat>8</sat>
      </trkpt>
      <trkpt lat="42.396970" lon="-3.302779">
        <ele>924.4</ele>
        <time>2020-08-19T07:43:07Z</time>
        <sat>9</sat>
      </trkpt>
      <trkpt lat="42.396885" lon="-3.302816">
        <ele>924.5</ele>
        <time>2020-08-19T07:43:14Z</time>
        <sat>9</sat>
      </trkpt>
      <trkpt lat="42.396797" lon="-3.302840">
        <ele>924.5</ele>
        <time>2020-08-19T07:43:21Z</time>
        <sat>9</sat>
      </trkpt>
      <trkpt lat="42.396715" lon="-3.302873">
        <ele>924.7</ele>
        <time>2020-08-19T07:43:27Z</time>
        <sat>9</sat>
      </trkpt>
      <trkpt lat="42.396630" lon="-3.302910">
        <ele>925.0</ele>
        <time>2020-08-19T07:43:34Z</time>
        <sat>9</sat>
      </trkpt>
      <trkpt lat="42.396549" lon="-3.302911">
        <ele>925.2</ele>
        <time>2020-08-19T07:43:40Z</time>
        <sat>9</sat>
      </trkpt>
      <trkpt lat="42.396457" lon="-3.302899">
        <ele>925.5</ele>
        <time>2020-08-19T07:43:47Z</time>
        <sat>9</sat>
      </trkpt>
      <trkpt lat="42.396376" lon="-3.302859">
        <ele>925.5</ele>
        <time>2020-08-19T07:43:54Z</time>
        <sat>9</sat>
      </trkpt>
      <trkpt lat="42.396302" lon="-3.302796">
        <ele>925.6</ele>
        <time>2020-08-19T07:44:01Z</time>
        <sat>9</sat>
      </trkpt>
      <trkpt lat="42.396228" lon="-3.302724">
        <ele>925.7</ele>
        <time>2020-08-19T07:44:08Z</time>
        <sat>9</sat>
      </trkpt>
      <trkpt lat="42.396160" lon="-3.302646">
        <ele>926.0</ele>
        <time>2020-08-19T07:44:15Z</time>
        <sat>9</sat>
      </trkpt>
      <trkpt lat="42.396095" lon="-3.302572">
        <ele>926.3</ele>
        <time>2020-08-19T07:44:22Z</time>
        <sat>9</sat>
      </trkpt>
      <trkpt lat="42.396030" lon="-3.302503">
        <ele>926.7</ele>
        <time>2020-08-19T07:44:29Z</time>
        <sat>9</sat>
      </trkpt>
      <trkpt lat="42.395967" lon="-3.302421">
        <ele>927.2</ele>
        <time>2020-08-19T07:44:36Z</time>
        <sat>9</sat>
      </trkpt>
      <trkpt lat="42.395907" lon="-3.302348">
        <ele>927.7</ele>
        <time>2020-08-19T07:44:42Z</time>
        <sat>9</sat>
      </trkpt>
      <trkpt lat="42.395837" lon="-3.302287">
        <ele>928.2</ele>
        <time>2020-08-19T07:44:49Z</time>
        <sat>9</sat>
      </trkpt>
      <trkpt lat="42.395756" lon="-3.302297">
        <ele>928.5</ele>
        <time>2020-08-19T07:44:55Z</time>
        <sat>9</sat>
      </trkpt>
      <trkpt lat="42.395669" lon="-3.302347">
        <ele>928.9</ele>
        <time>2020-08-19T07:45:02Z</time>
        <sat>8</sat>
      </trkpt>
      <trkpt lat="42.395595" lon="-3.302405">
        <ele>929.2</ele>
        <time>2020-08-19T07:45:08Z</time>
        <sat>8</sat>
      </trkpt>
      <trkpt lat="42.395531" lon="-3.302475">
        <ele>929.4</ele>
        <time>2020-08-19T07:45:16Z</time>
        <sat>9</sat>
      </trkpt>
      <trkpt lat="42.395464" lon="-3.302541">
        <ele>929.6</ele>
        <time>2020-08-19T07:45:23Z</time>
        <sat>8</sat>
      </trkpt>
      <trkpt lat="42.395392" lon="-3.302611">
        <ele>929.7</ele>
        <time>2020-08-19T07:45:31Z</time>
        <sat>8</sat>
      </trkpt>
      <trkpt lat="42.395317" lon="-3.302685">
        <ele>929.3</ele>
        <time>2020-08-19T07:45:39Z</time>
        <sat>9</sat>
      </trkpt>
      <trkpt lat="42.395249" lon="-3.302764">
        <ele>929.0</ele>
        <time>2020-08-19T07:45:46Z</time>
        <sat>9</sat>
      </trkpt>
      <trkpt lat="42.395168" lon="-3.302831">
        <ele>928.7</ele>
        <time>2020-08-19T07:45:53Z</time>
        <sat>8</sat>
      </trkpt>
      <trkpt lat="42.395096" lon="-3.302883">
        <ele>928.5</ele>
        <time>2020-08-19T07:45:59Z</time>
        <sat>8</sat>
      </trkpt>
      <trkpt lat="42.395021" lon="-3.302943">
        <ele>928.4</ele>
        <time>2020-08-19T07:46:05Z</time>
        <sat>8</sat>
      </trkpt>
      <trkpt lat="42.394964" lon="-3.303022">
        <ele>928.4</ele>
        <time>2020-08-19T07:46:11Z</time>
        <sat>7</sat>
      </trkpt>
      <trkpt lat="42.394895" lon="-3.303105">
        <ele>928.4</ele>
        <time>2020-08-19T07:46:18Z</time>
        <sat>9</sat>
      </trkpt>
      <trkpt lat="42.394823" lon="-3.303182">
        <ele>928.4</ele>
        <time>2020-08-19T07:46:25Z</time>
        <sat>9</sat>
      </trkpt>
      <trkpt lat="42.394751" lon="-3.303259">
        <ele>928.5</ele>
        <time>2020-08-19T07:46:32Z</time>
        <sat>9</sat>
      </trkpt>
      <trkpt lat="42.394686" lon="-3.303327">
        <ele>928.6</ele>
        <time>2020-08-19T07:46:39Z</time>
        <sat>9</sat>
      </trkpt>
      <trkpt lat="42.394603" lon="-3.303382">
        <ele>928.6</ele>
        <time>2020-08-19T07:46:46Z</time>
        <sat>9</sat>
      </trkpt>
      <trkpt lat="42.394517" lon="-3.303412">
        <ele>928.7</ele>
        <time>2020-08-19T07:46:53Z</time>
        <sat>9</sat>
      </trkpt>
      <trkpt lat="42.394429" lon="-3.303449">
        <ele>929.1</ele>
        <time>2020-08-19T07:47:00Z</time>
        <sat>9</sat>
      </trkpt>
      <trkpt lat="42.394350" lon="-3.303480">
        <ele>929.1</ele>
        <time>2020-08-19T07:47:06Z</time>
        <sat>8</sat>
      </trkpt>
      <trkpt lat="42.394270" lon="-3.303533">
        <ele>929.3</ele>
        <time>2020-08-19T07:47:13Z</time>
        <sat>9</sat>
      </trkpt>
      <trkpt lat="42.394190" lon="-3.303591">
        <ele>929.6</ele>
        <time>2020-08-19T07:47:20Z</time>
        <sat>8</sat>
      </trkpt>
      <trkpt lat="42.394111" lon="-3.303645">
        <ele>929.9</ele>
        <time>2020-08-19T07:47:27Z</time>
        <sat>9</sat>
      </trkpt>
      <trkpt lat="42.394031" lon="-3.303700">
        <ele>930.1</ele>
        <time>2020-08-19T07:47:33Z</time>
        <sat>9</sat>
      </trkpt>
      <trkpt lat="42.393951" lon="-3.303761">
        <ele>930.2</ele>
        <time>2020-08-19T07:47:40Z</time>
        <sat>8</sat>
      </trkpt>
      <trkpt lat="42.393877" lon="-3.303816">
        <ele>930.3</ele>
        <time>2020-08-19T07:47:46Z</time>
        <sat>9</sat>
      </trkpt>
      <trkpt lat="42.393804" lon="-3.303872">
        <ele>930.7</ele>
        <time>2020-08-19T07:47:52Z</time>
        <sat>9</sat>
      </trkpt>
      <trkpt lat="42.393734" lon="-3.303941">
        <ele>931.0</ele>
        <time>2020-08-19T07:47:59Z</time>
        <sat>9</sat>
      </trkpt>
      <trkpt lat="42.393662" lon="-3.304005">
        <ele>931.2</ele>
        <time>2020-08-19T07:48:05Z</time>
        <sat>8</sat>
      </trkpt>
      <trkpt lat="42.393582" lon="-3.304065">
        <ele>931.4</ele>
        <time>2020-08-19T07:48:12Z</time>
        <sat>9</sat>
      </trkpt>
      <trkpt lat="42.393510" lon="-3.304133">
        <ele>931.6</ele>
        <time>2020-08-19T07:48:22Z</time>
        <sat>9</sat>
      </trkpt>
      <trkpt lat="42.393437" lon="-3.304214">
        <ele>931.5</ele>
        <time>2020-08-19T07:48:34Z</time>
        <sat>8</sat>
      </trkpt>
      <trkpt lat="42.393372" lon="-3.304280">
        <ele>931.4</ele>
        <time>2020-08-19T07:48:39Z</time>
        <sat>9</sat>
      </trkpt>
      <trkpt lat="42.393289" lon="-3.304336">
        <ele>931.3</ele>
        <time>2020-08-19T07:48:46Z</time>
        <sat>8</sat>
      </trkpt>
      <trkpt lat="42.393209" lon="-3.304403">
        <ele>931.6</ele>
        <time>2020-08-19T07:48:53Z</time>
        <sat>8</sat>
      </trkpt>
      <trkpt lat="42.393132" lon="-3.304462">
        <ele>931.8</ele>
        <time>2020-08-19T07:49:00Z</time>
        <sat>9</sat>
      </trkpt>
      <trkpt lat="42.393061" lon="-3.304526">
        <ele>932.0</ele>
        <time>2020-08-19T07:49:06Z</time>
        <sat>8</sat>
      </trkpt>
      <trkpt lat="42.392989" lon="-3.304581">
        <ele>932.0</ele>
        <time>2020-08-19T07:49:12Z</time>
        <sat>9</sat>
      </trkpt>
      <trkpt lat="42.392920" lon="-3.304659">
        <ele>932.1</ele>
        <time>2020-08-19T07:49:19Z</time>
        <sat>8</sat>
      </trkpt>
      <trkpt lat="42.392854" lon="-3.304736">
        <ele>932.2</ele>
        <time>2020-08-19T07:49:25Z</time>
        <sat>9</sat>
      </trkpt>
      <trkpt lat="42.392781" lon="-3.304793">
        <ele>932.3</ele>
        <time>2020-08-19T07:49:31Z</time>
        <sat>9</sat>
      </trkpt>
      <trkpt lat="42.392704" lon="-3.304851">
        <ele>932.1</ele>
        <time>2020-08-19T07:49:39Z</time>
        <sat>9</sat>
      </trkpt>
      <trkpt lat="42.392640" lon="-3.304922">
        <ele>932.0</ele>
        <time>2020-08-19T07:49:45Z</time>
        <sat>9</sat>
      </trkpt>
      <trkpt lat="42.392566" lon="-3.304992">
        <ele>932.1</ele>
        <time>2020-08-19T07:49:52Z</time>
        <sat>9</sat>
      </trkpt>
      <trkpt lat="42.392495" lon="-3.305060">
        <ele>932.2</ele>
        <time>2020-08-19T07:49:58Z</time>
        <sat>9</sat>
      </trkpt>
      <trkpt lat="42.392410" lon="-3.305111">
        <ele>932.3</ele>
        <time>2020-08-19T07:50:05Z</time>
        <sat>9</sat>
      </trkpt>
      <trkpt lat="42.392343" lon="-3.305175">
        <ele>932.4</ele>
        <time>2020-08-19T07:50:11Z</time>
        <sat>9</sat>
      </trkpt>
      <trkpt lat="42.392266" lon="-3.305215">
        <ele>929.3</ele>
        <time>2020-08-19T07:50:17Z</time>
        <sat>9</sat>
      </trkpt>
      <trkpt lat="42.392184" lon="-3.305250">
        <ele>930.6</ele>
        <time>2020-08-19T07:50:24Z</time>
        <sat>9</sat>
      </trkpt>
      <trkpt lat="42.392119" lon="-3.305336">
        <ele>931.2</ele>
        <time>2020-08-19T07:50:42Z</time>
        <sat>9</sat>
      </trkpt>
      <trkpt lat="42.392063" lon="-3.305429">
        <ele>931.4</ele>
        <time>2020-08-19T07:50:52Z</time>
        <sat>9</sat>
      </trkpt>
      <trkpt lat="42.392001" lon="-3.305505">
        <ele>930.7</ele>
        <time>2020-08-19T07:50:59Z</time>
        <sat>9</sat>
      </trkpt>
      <trkpt lat="42.391932" lon="-3.305587">
        <ele>929.8</ele>
        <time>2020-08-19T07:51:07Z</time>
        <sat>8</sat>
      </trkpt>
      <trkpt lat="42.391872" lon="-3.305672">
        <ele>928.5</ele>
        <time>2020-08-19T07:51:25Z</time>
        <sat>9</sat>
      </trkpt>
      <trkpt lat="42.391817" lon="-3.305766">
        <ele>928.2</ele>
        <time>2020-08-19T07:51:35Z</time>
        <sat>9</sat>
      </trkpt>
      <trkpt lat="42.391760" lon="-3.305852">
        <ele>927.8</ele>
        <time>2020-08-19T07:51:44Z</time>
        <sat>9</sat>
      </trkpt>
      <trkpt lat="42.391698" lon="-3.305934">
        <ele>927.4</ele>
        <time>2020-08-19T07:51:52Z</time>
        <sat>9</sat>
      </trkpt>
      <trkpt lat="42.391644" lon="-3.306017">
        <ele>927.1</ele>
        <time>2020-08-19T07:52:01Z</time>
        <sat>9</sat>
      </trkpt>
      <trkpt lat="42.391583" lon="-3.306100">
        <ele>926.9</ele>
        <time>2020-08-19T07:52:14Z</time>
        <sat>9</sat>
      </trkpt>
      <trkpt lat="42.391523" lon="-3.306178">
        <ele>926.8</ele>
        <time>2020-08-19T07:52:21Z</time>
        <sat>8</sat>
      </trkpt>
      <trkpt lat="42.391451" lon="-3.306255">
        <ele>926.7</ele>
        <time>2020-08-19T07:52:28Z</time>
        <sat>9</sat>
      </trkpt>
      <trkpt lat="42.391395" lon="-3.306343">
        <ele>926.5</ele>
        <time>2020-08-19T07:52:36Z</time>
        <sat>9</sat>
      </trkpt>
      <trkpt lat="42.391329" lon="-3.306413">
        <ele>926.0</ele>
        <time>2020-08-19T07:53:07Z</time>
        <sat>9</sat>
      </trkpt>
      <trkpt lat="42.391305" lon="-3.306520">
        <ele>926.3</ele>
        <time>2020-08-19T07:55:35Z</time>
        <sat>9</sat>
      </trkpt>
      <trkpt lat="42.391221" lon="-3.306508">
        <ele>926.1</ele>
        <time>2020-08-19T07:56:44Z</time>
        <sat>9</sat>
      </trkpt>
      <trkpt lat="42.391155" lon="-3.306575">
        <ele>926.2</ele>
        <time>2020-08-19T07:56:52Z</time>
        <sat>9</sat>
      </trkpt>
      <trkpt lat="42.391095" lon="-3.306650">
        <ele>926.4</ele>
        <time>2020-08-19T07:57:04Z</time>
        <sat>9</sat>
      </trkpt>
      <trkpt lat="42.391042" lon="-3.306750">
        <ele>926.9</ele>
        <time>2020-08-19T07:57:14Z</time>
        <sat>9</sat>
      </trkpt>
      <trkpt lat="42.390987" lon="-3.306835">
        <ele>927.2</ele>
        <time>2020-08-19T07:57:22Z</time>
        <sat>10</sat>
      </trkpt>
      <trkpt lat="42.390923" lon="-3.306908">
        <ele>927.6</ele>
        <time>2020-08-19T07:57:32Z</time>
        <sat>9</sat>
      </trkpt>
      <trkpt lat="42.390869" lon="-3.307000">
        <ele>927.9</ele>
        <time>2020-08-19T07:57:39Z</time>
        <sat>9</sat>
      </trkpt>
      <trkpt lat="42.390812" lon="-3.307087">
        <ele>928.4</ele>
        <time>2020-08-19T07:57:47Z</time>
        <sat>8</sat>
      </trkpt>
      <trkpt lat="42.390754" lon="-3.307190">
        <ele>929.0</ele>
        <time>2020-08-19T07:57:57Z</time>
        <sat>8</sat>
      </trkpt>
      <trkpt lat="42.390703" lon="-3.307277">
        <ele>929.5</ele>
        <time>2020-08-19T07:58:06Z</time>
        <sat>9</sat>
      </trkpt>
      <trkpt lat="42.390654" lon="-3.307379">
        <ele>930.1</ele>
        <time>2020-08-19T07:58:14Z</time>
        <sat>8</sat>
      </trkpt>
      <trkpt lat="42.390616" lon="-3.307479">
        <ele>930.4</ele>
        <time>2020-08-19T07:58:19Z</time>
        <sat>9</sat>
      </trkpt>
      <trkpt lat="42.390573" lon="-3.307590">
        <ele>930.7</ele>
        <time>2020-08-19T07:58:26Z</time>
        <sat>10</sat>
      </trkpt>
      <trkpt lat="42.390527" lon="-3.307683">
        <ele>931.1</ele>
        <time>2020-08-19T07:58:34Z</time>
        <sat>9</sat>
      </trkpt>
      <trkpt lat="42.390479" lon="-3.307779">
        <ele>931.3</ele>
        <time>2020-08-19T07:58:42Z</time>
        <sat>8</sat>
      </trkpt>
      <trkpt lat="42.390414" lon="-3.307858">
        <ele>931.5</ele>
        <time>2020-08-19T07:58:50Z</time>
        <sat>9</sat>
      </trkpt>
      <trkpt lat="42.390364" lon="-3.307955">
        <ele>931.8</ele>
        <time>2020-08-19T07:59:04Z</time>
        <sat>10</sat>
      </trkpt>
      <trkpt lat="42.390283" lon="-3.307973">
        <ele>932.4</ele>
        <time>2020-08-19T07:59:16Z</time>
        <sat>9</sat>
      </trkpt>
      <trkpt lat="42.390202" lon="-3.308004">
        <ele>932.5</ele>
        <time>2020-08-19T07:59:24Z</time>
        <sat>9</sat>
      </trkpt>
      <trkpt lat="42.390127" lon="-3.308070">
        <ele>932.6</ele>
        <time>2020-08-19T07:59:31Z</time>
        <sat>8</sat>
      </trkpt>
      <trkpt lat="42.390043" lon="-3.308106">
        <ele>932.8</ele>
        <time>2020-08-19T07:59:52Z</time>
        <sat>8</sat>
      </trkpt>
      <trkpt lat="42.389953" lon="-3.308103">
        <ele>931.5</ele>
        <time>2020-08-19T08:00:00Z</time>
        <sat>8</sat>
      </trkpt>
      <trkpt lat="42.389871" lon="-3.308148">
        <ele>930.2</ele>
        <time>2020-08-19T08:00:07Z</time>
        <sat>8</sat>
      </trkpt>
      <trkpt lat="42.389793" lon="-3.308200">
        <ele>929.1</ele>
        <time>2020-08-19T08:00:15Z</time>
        <sat>8</sat>
      </trkpt>
      <trkpt lat="42.389715" lon="-3.308243">
        <ele>930.9</ele>
        <time>2020-08-19T08:00:29Z</time>
        <sat>9</sat>
      </trkpt>
      <trkpt lat="42.389641" lon="-3.308301">
        <ele>931.4</ele>
        <time>2020-08-19T08:00:37Z</time>
        <sat>8</sat>
      </trkpt>
      <trkpt lat="42.389568" lon="-3.308363">
        <ele>932.8</ele>
        <time>2020-08-19T08:00:52Z</time>
        <sat>8</sat>
      </trkpt>
      <trkpt lat="42.389426" lon="-3.308526">
        <ele>937.3</ele>
        <time>2020-08-19T08:31:11Z</time>
        <sat>9</sat>
      </trkpt>
      <trkpt lat="42.389343" lon="-3.308572">
        <ele>937.7</ele>
        <time>2020-08-19T08:31:19Z</time>
        <sat>9</sat>
      </trkpt>
      <trkpt lat="42.389252" lon="-3.308586">
        <ele>937.8</ele>
        <time>2020-08-19T08:31:26Z</time>
        <sat>9</sat>
      </trkpt>
      <trkpt lat="42.389173" lon="-3.308620">
        <ele>937.9</ele>
        <time>2020-08-19T08:31:33Z</time>
        <sat>9</sat>
      </trkpt>
      <trkpt lat="42.389093" lon="-3.308672">
        <ele>938.2</ele>
        <time>2020-08-19T08:31:42Z</time>
        <sat>9</sat>
      </trkpt>
      <trkpt lat="42.389024" lon="-3.308763">
        <ele>940.7</ele>
        <time>2020-08-19T08:32:49Z</time>
        <sat>9</sat>
      </trkpt>
      <trkpt lat="42.388971" lon="-3.308854">
        <ele>940.3</ele>
        <time>2020-08-19T08:32:56Z</time>
        <sat>9</sat>
      </trkpt>
      <trkpt lat="42.388933" lon="-3.308962">
        <ele>940.5</ele>
        <time>2020-08-19T08:33:04Z</time>
        <sat>10</sat>
      </trkpt>
      <trkpt lat="42.388883" lon="-3.309061">
        <ele>941.0</ele>
        <time>2020-08-19T08:33:11Z</time>
        <sat>10</sat>
      </trkpt>
      <trkpt lat="42.388853" lon="-3.309169">
        <ele>941.7</ele>
        <time>2020-08-19T08:33:20Z</time>
        <sat>9</sat>
      </trkpt>
      <trkpt lat="42.388798" lon="-3.309254">
        <ele>943.0</ele>
        <time>2020-08-19T08:33:45Z</time>
        <sat>9</sat>
      </trkpt>
      <trkpt lat="42.388718" lon="-3.309279">
        <ele>943.3</ele>
        <time>2020-08-19T08:33:53Z</time>
        <sat>8</sat>
      </trkpt>
      <trkpt lat="42.388646" lon="-3.309329">
        <ele>944.2</ele>
        <time>2020-08-19T08:34:13Z</time>
        <sat>9</sat>
      </trkpt>
      <trkpt lat="42.388575" lon="-3.309390">
        <ele>944.7</ele>
        <time>2020-08-19T08:34:26Z</time>
        <sat>9</sat>
      </trkpt>
      <trkpt lat="42.388493" lon="-3.309441">
        <ele>947.6</ele>
        <time>2020-08-19T08:34:37Z</time>
        <sat>8</sat>
      </trkpt>
      <trkpt lat="42.388412" lon="-3.309501">
        <ele>949.0</ele>
        <time>2020-08-19T08:34:47Z</time>
        <sat>8</sat>
      </trkpt>
      <trkpt lat="42.388329" lon="-3.309558">
        <ele>950.6</ele>
        <time>2020-08-19T08:35:05Z</time>
        <sat>6</sat>
      </trkpt>
      <trkpt lat="42.388256" lon="-3.309629">
        <ele>956.0</ele>
        <time>2020-08-19T08:35:18Z</time>
        <sat>9</sat>
      </trkpt>
      <trkpt lat="42.388196" lon="-3.309708">
        <ele>954.7</ele>
        <time>2020-08-19T08:35:26Z</time>
        <sat>9</sat>
      </trkpt>
      <trkpt lat="42.388135" lon="-3.309795">
        <ele>954.6</ele>
        <time>2020-08-19T08:35:35Z</time>
        <sat>9</sat>
      </trkpt>
      <trkpt lat="42.388071" lon="-3.309862">
        <ele>955.1</ele>
        <time>2020-08-19T08:35:46Z</time>
        <sat>9</sat>
      </trkpt>
      <trkpt lat="42.388102" lon="-3.309964">
        <ele>956.7</ele>
        <time>2020-08-19T08:36:16Z</time>
        <sat>9</sat>
      </trkpt>
      <trkpt lat="42.388156" lon="-3.310056">
        <ele>957.3</ele>
        <time>2020-08-19T08:36:32Z</time>
        <sat>9</sat>
      </trkpt>
      <trkpt lat="42.388215" lon="-3.310138">
        <ele>958.5</ele>
        <time>2020-08-19T08:36:42Z</time>
        <sat>9</sat>
      </trkpt>
      <trkpt lat="42.388276" lon="-3.310211">
        <ele>959.4</ele>
        <time>2020-08-19T08:36:49Z</time>
        <sat>10</sat>
      </trkpt>
      <trkpt lat="42.388332" lon="-3.310296">
        <ele>959.6</ele>
        <time>2020-08-19T08:36:57Z</time>
        <sat>10</sat>
      </trkpt>
      <trkpt lat="42.388356" lon="-3.310401">
        <ele>960.8</ele>
        <time>2020-08-19T08:37:13Z</time>
        <sat>10</sat>
      </trkpt>
      <trkpt lat="42.388315" lon="-3.310510">
        <ele>960.6</ele>
        <time>2020-08-19T08:37:32Z</time>
        <sat>10</sat>
      </trkpt>
      <trkpt lat="42.388269" lon="-3.310601">
        <ele>961.0</ele>
        <time>2020-08-19T08:37:42Z</time>
        <sat>10</sat>
      </trkpt>
      <trkpt lat="42.388202" lon="-3.310669">
        <ele>961.6</ele>
        <time>2020-08-19T08:37:52Z</time>
        <sat>10</sat>
      </trkpt>
      <trkpt lat="42.388130" lon="-3.310732">
        <ele>962.1</ele>
        <time>2020-08-19T08:38:06Z</time>
        <sat>10</sat>
      </trkpt>
      <trkpt lat="42.388062" lon="-3.310796">
        <ele>963.4</ele>
        <time>2020-08-19T08:38:29Z</time>
        <sat>10</sat>
      </trkpt>
      <trkpt lat="42.387991" lon="-3.310855">
        <ele>965.8</ele>
        <time>2020-08-19T08:38:47Z</time>
        <sat>10</sat>
      </trkpt>
      <trkpt lat="42.387916" lon="-3.310902">
        <ele>969.5</ele>
        <time>2020-08-19T08:38:58Z</time>
        <sat>10</sat>
      </trkpt>
      <trkpt lat="42.387842" lon="-3.310954">
        <ele>972.5</ele>
        <time>2020-08-19T08:39:14Z</time>
        <sat>10</sat>
      </trkpt>
      <trkpt lat="42.387768" lon="-3.311017">
        <ele>974.4</ele>
        <time>2020-08-19T08:39:25Z</time>
        <sat>10</sat>
      </trkpt>
      <trkpt lat="42.387718" lon="-3.311113">
        <ele>974.7</ele>
        <time>2020-08-19T08:39:37Z</time>
        <sat>9</sat>
      </trkpt>
      <trkpt lat="42.387694" lon="-3.311222">
        <ele>977.9</ele>
        <time>2020-08-19T08:39:48Z</time>
        <sat>10</sat>
      </trkpt>
      <trkpt lat="42.387723" lon="-3.311326">
        <ele>979.7</ele>
        <time>2020-08-19T08:39:57Z</time>
        <sat>10</sat>
      </trkpt>
      <trkpt lat="42.387768" lon="-3.311430">
        <ele>981.1</ele>
        <time>2020-08-19T08:40:10Z</time>
        <sat>10</sat>
      </trkpt>
      <trkpt lat="42.387807" lon="-3.311529">
        <ele>981.4</ele>
        <time>2020-08-19T08:40:17Z</time>
        <sat>10</sat>
      </trkpt>
      <trkpt lat="42.387852" lon="-3.311638">
        <ele>981.7</ele>
        <time>2020-08-19T08:40:25Z</time>
        <sat>10</sat>
      </trkpt>
      <trkpt lat="42.387895" lon="-3.311742">
        <ele>981.8</ele>
        <time>2020-08-19T08:40:33Z</time>
        <sat>10</sat>
      </trkpt>
      <trkpt lat="42.387934" lon="-3.311842">
        <ele>982.0</ele>
        <time>2020-08-19T08:40:41Z</time>
        <sat>10</sat>
      </trkpt>
      <trkpt lat="42.387958" lon="-3.311948">
        <ele>981.8</ele>
        <time>2020-08-19T08:40:49Z</time>
        <sat>10</sat>
      </trkpt>
      <trkpt lat="42.387990" lon="-3.312064">
        <ele>981.7</ele>
        <time>2020-08-19T08:40:57Z</time>
        <sat>10</sat>
      </trkpt>
      <trkpt lat="42.388016" lon="-3.312174">
        <ele>981.8</ele>
        <time>2020-08-19T08:41:05Z</time>
        <sat>10</sat>
      </trkpt>
      <trkpt lat="42.388044" lon="-3.312287">
        <ele>981.9</ele>
        <time>2020-08-19T08:41:13Z</time>
        <sat>10</sat>
      </trkpt>
      <trkpt lat="42.388061" lon="-3.312397">
        <ele>982.2</ele>
        <time>2020-08-19T08:41:20Z</time>
        <sat>10</sat>
      </trkpt>
      <trkpt lat="42.388096" lon="-3.312501">
        <ele>982.3</ele>
        <time>2020-08-19T08:41:28Z</time>
        <sat>10</sat>
      </trkpt>
      <trkpt lat="42.388144" lon="-3.312604">
        <ele>982.6</ele>
        <time>2020-08-19T08:41:41Z</time>
        <sat>10</sat>
      </trkpt>
      <trkpt lat="42.388149" lon="-3.312726">
        <ele>982.7</ele>
        <time>2020-08-19T08:41:47Z</time>
        <sat>10</sat>
      </trkpt>
      <trkpt lat="42.388144" lon="-3.312838">
        <ele>983.0</ele>
        <time>2020-08-19T08:41:54Z</time>
        <sat>10</sat>
      </trkpt>
      <trkpt lat="42.388127" lon="-3.312951">
        <ele>983.5</ele>
        <time>2020-08-19T08:42:01Z</time>
        <sat>10</sat>
      </trkpt>
      <trkpt lat="42.388103" lon="-3.313056">
        <ele>984.0</ele>
        <time>2020-08-19T08:42:09Z</time>
        <sat>10</sat>
      </trkpt>
      <trkpt lat="42.388079" lon="-3.313172">
        <ele>984.6</ele>
        <time>2020-08-19T08:42:17Z</time>
        <sat>10</sat>
      </trkpt>
      <trkpt lat="42.388058" lon="-3.313286">
        <ele>985.8</ele>
        <time>2020-08-19T08:42:29Z</time>
        <sat>10</sat>
      </trkpt>
      <trkpt lat="42.388056" lon="-3.313412">
        <ele>986.9</ele>
        <time>2020-08-19T08:42:37Z</time>
        <sat>10</sat>
      </trkpt>
      <trkpt lat="42.388091" lon="-3.313530">
        <ele>987.4</ele>
        <time>2020-08-19T08:42:45Z</time>
        <sat>10</sat>
      </trkpt>
      <trkpt lat="42.388120" lon="-3.313641">
        <ele>988.3</ele>
        <time>2020-08-19T08:42:53Z</time>
        <sat>10</sat>
      </trkpt>
      <trkpt lat="42.388146" lon="-3.313758">
        <ele>988.8</ele>
        <time>2020-08-19T08:43:01Z</time>
        <sat>10</sat>
      </trkpt>
      <trkpt lat="42.388165" lon="-3.313865">
        <ele>989.5</ele>
        <time>2020-08-19T08:43:09Z</time>
        <sat>10</sat>
      </trkpt>
      <trkpt lat="42.388191" lon="-3.313980">
        <ele>990.4</ele>
        <time>2020-08-19T08:43:20Z</time>
        <sat>10</sat>
      </trkpt>
      <trkpt lat="42.388207" lon="-3.314091">
        <ele>990.9</ele>
        <time>2020-08-19T08:43:29Z</time>
        <sat>10</sat>
      </trkpt>
      <trkpt lat="42.388216" lon="-3.314202">
        <ele>991.5</ele>
        <time>2020-08-19T08:43:37Z</time>
        <sat>10</sat>
      </trkpt>
      <trkpt lat="42.388233" lon="-3.314317">
        <ele>992.5</ele>
        <time>2020-08-19T08:43:46Z</time>
        <sat>10</sat>
      </trkpt>
      <trkpt lat="42.388247" lon="-3.314430">
        <ele>993.4</ele>
        <time>2020-08-19T08:43:54Z</time>
        <sat>10</sat>
      </trkpt>
      <trkpt lat="42.388278" lon="-3.314542">
        <ele>994.2</ele>
        <time>2020-08-19T08:44:04Z</time>
        <sat>9</sat>
      </trkpt>
      <trkpt lat="42.388284" lon="-3.314654">
        <ele>994.8</ele>
        <time>2020-08-19T08:44:10Z</time>
        <sat>10</sat>
      </trkpt>
      <trkpt lat="42.388313" lon="-3.314770">
        <ele>995.9</ele>
        <time>2020-08-19T08:44:18Z</time>
        <sat>10</sat>
      </trkpt>
      <trkpt lat="42.388342" lon="-3.314881">
        <ele>997.0</ele>
        <time>2020-08-19T08:44:27Z</time>
        <sat>10</sat>
      </trkpt>
      <trkpt lat="42.388377" lon="-3.314985">
        <ele>997.9</ele>
        <time>2020-08-19T08:44:35Z</time>
        <sat>10</sat>
      </trkpt>
      <trkpt lat="42.388419" lon="-3.315084">
        <ele>998.9</ele>
        <time>2020-08-19T08:44:43Z</time>
        <sat>10</sat>
      </trkpt>
      <trkpt lat="42.388470" lon="-3.315186">
        <ele>999.8</ele>
        <time>2020-08-19T08:44:52Z</time>
        <sat>10</sat>
      </trkpt>
      <trkpt lat="42.388507" lon="-3.315292">
        <ele>1001.0</ele>
        <time>2020-08-19T08:45:01Z</time>
        <sat>10</sat>
      </trkpt>
      <trkpt lat="42.388550" lon="-3.315392">
        <ele>1002.3</ele>
        <time>2020-08-19T08:45:10Z</time>
        <sat>10</sat>
      </trkpt>
      <trkpt lat="42.388575" lon="-3.315506">
        <ele>1003.6</ele>
        <time>2020-08-19T08:45:21Z</time>
        <sat>10</sat>
      </trkpt>
      <trkpt lat="42.388602" lon="-3.315620">
        <ele>1004.5</ele>
        <time>2020-08-19T08:45:31Z</time>
        <sat>10</sat>
      </trkpt>
      <trkpt lat="42.388624" lon="-3.315727">
        <ele>1005.6</ele>
        <time>2020-08-19T08:45:40Z</time>
        <sat>9</sat>
      </trkpt>
      <trkpt lat="42.388618" lon="-3.315842">
        <ele>1006.9</ele>
        <time>2020-08-19T08:45:49Z</time>
        <sat>10</sat>
      </trkpt>
      <trkpt lat="42.388594" lon="-3.315958">
        <ele>1008.2</ele>
        <time>2020-08-19T08:45:59Z</time>
        <sat>10</sat>
      </trkpt>
      <trkpt lat="42.388574" lon="-3.316072">
        <ele>1009.5</ele>
        <time>2020-08-19T08:46:10Z</time>
        <sat>10</sat>
      </trkpt>
      <trkpt lat="42.388556" lon="-3.316184">
        <ele>1011.8</ele>
        <time>2020-08-19T08:46:32Z</time>
        <sat>10</sat>
      </trkpt>
      <trkpt lat="42.388524" lon="-3.316291">
        <ele>1012.6</ele>
        <time>2020-08-19T08:46:44Z</time>
        <sat>10</sat>
      </trkpt>
      <trkpt lat="42.388505" lon="-3.316400">
        <ele>1013.9</ele>
        <time>2020-08-19T08:47:01Z</time>
        <sat>10</sat>
      </trkpt>
      <trkpt lat="42.388490" lon="-3.316512">
        <ele>1015.2</ele>
        <time>2020-08-19T08:47:12Z</time>
        <sat>10</sat>
      </trkpt>
      <trkpt lat="42.388460" lon="-3.316617">
        <ele>1016.4</ele>
        <time>2020-08-19T08:47:23Z</time>
        <sat>10</sat>
      </trkpt>
      <trkpt lat="42.388430" lon="-3.316719">
        <ele>1017.8</ele>
        <time>2020-08-19T08:47:34Z</time>
        <sat>10</sat>
      </trkpt>
      <trkpt lat="42.388406" lon="-3.316833">
        <ele>1018.9</ele>
        <time>2020-08-19T08:47:45Z</time>
        <sat>10</sat>
      </trkpt>
      <trkpt lat="42.388369" lon="-3.316936">
        <ele>1020.4</ele>
        <time>2020-08-19T08:47:56Z</time>
        <sat>10</sat>
      </trkpt>
      <trkpt lat="42.388346" lon="-3.317051">
        <ele>1022.5</ele>
        <time>2020-08-19T08:48:12Z</time>
        <sat>10</sat>
      </trkpt>
      <trkpt lat="42.388313" lon="-3.317158">
        <ele>1023.6</ele>
        <time>2020-08-19T08:48:21Z</time>
        <sat>10</sat>
      </trkpt>
      <trkpt lat="42.388283" lon="-3.317261">
        <ele>1024.6</ele>
        <time>2020-08-19T08:48:30Z</time>
        <sat>9</sat>
      </trkpt>
      <trkpt lat="42.388244" lon="-3.317363">
        <ele>1025.9</ele>
        <time>2020-08-19T08:48:39Z</time>
        <sat>10</sat>
      </trkpt>
      <trkpt lat="42.388213" lon="-3.317470">
        <ele>1027.3</ele>
        <time>2020-08-19T08:48:49Z</time>
        <sat>10</sat>
      </trkpt>
      <trkpt lat="42.388193" lon="-3.317583">
        <ele>1028.5</ele>
        <time>2020-08-19T08:49:00Z</time>
        <sat>10</sat>
      </trkpt>
      <trkpt lat="42.388160" lon="-3.317690">
        <ele>1029.6</ele>
        <time>2020-08-19T08:49:09Z</time>
        <sat>10</sat>
      </trkpt>
      <trkpt lat="42.388130" lon="-3.317799">
        <ele>1031.0</ele>
        <time>2020-08-19T08:49:21Z</time>
        <sat>10</sat>
      </trkpt>
      <trkpt lat="42.388120" lon="-3.317919">
        <ele>1031.9</ele>
        <time>2020-08-19T08:49:31Z</time>
        <sat>10</sat>
      </trkpt>
      <trkpt lat="42.388094" lon="-3.318040">
        <ele>1032.6</ele>
        <time>2020-08-19T08:49:40Z</time>
        <sat>10</sat>
      </trkpt>
      <trkpt lat="42.388071" lon="-3.318153">
        <ele>1033.9</ele>
        <time>2020-08-19T08:49:50Z</time>
        <sat>10</sat>
      </trkpt>
      <trkpt lat="42.388037" lon="-3.318265">
        <ele>1034.7</ele>
        <time>2020-08-19T08:50:00Z</time>
        <sat>10</sat>
      </trkpt>
      <trkpt lat="42.388015" lon="-3.318372">
        <ele>1035.6</ele>
        <time>2020-08-19T08:50:08Z</time>
        <sat>10</sat>
      </trkpt>
      <trkpt lat="42.387986" lon="-3.318481">
        <ele>1036.5</ele>
        <time>2020-08-19T08:50:17Z</time>
        <sat>9</sat>
      </trkpt>
      <trkpt lat="42.387966" lon="-3.318591">
        <ele>1037.4</ele>
        <time>2020-08-19T08:50:27Z</time>
        <sat>10</sat>
      </trkpt>
      <trkpt lat="42.387937" lon="-3.318694">
        <ele>1038.3</ele>
        <time>2020-08-19T08:50:36Z</time>
        <sat>10</sat>
      </trkpt>
      <trkpt lat="42.387906" lon="-3.318797">
        <ele>1038.9</ele>
        <time>2020-08-19T08:50:45Z</time>
        <sat>10</sat>
      </trkpt>
      <trkpt lat="42.387876" lon="-3.318913">
        <ele>1039.4</ele>
        <time>2020-08-19T08:50:54Z</time>
        <sat>10</sat>
      </trkpt>
      <trkpt lat="42.387841" lon="-3.319020">
        <ele>1040.2</ele>
        <time>2020-08-19T08:51:03Z</time>
        <sat>9</sat>
      </trkpt>
      <trkpt lat="42.387797" lon="-3.319125">
        <ele>1041.4</ele>
        <time>2020-08-19T08:51:12Z</time>
        <sat>10</sat>
      </trkpt>
      <trkpt lat="42.387753" lon="-3.319218">
        <ele>1042.4</ele>
        <time>2020-08-19T08:51:20Z</time>
        <sat>10</sat>
      </trkpt>
      <trkpt lat="42.387718" lon="-3.319318">
        <ele>1043.2</ele>
        <time>2020-08-19T08:51:28Z</time>
        <sat>10</sat>
      </trkpt>
      <trkpt lat="42.387680" lon="-3.319416">
        <ele>1043.9</ele>
        <time>2020-08-19T08:51:36Z</time>
        <sat>10</sat>
      </trkpt>
      <trkpt lat="42.387640" lon="-3.319526">
        <ele>1044.6</ele>
        <time>2020-08-19T08:51:45Z</time>
        <sat>9</sat>
      </trkpt>
      <trkpt lat="42.387595" lon="-3.319623">
        <ele>1045.2</ele>
        <time>2020-08-19T08:51:53Z</time>
        <sat>10</sat>
      </trkpt>
      <trkpt lat="42.387556" lon="-3.319719">
        <ele>1046.0</ele>
        <time>2020-08-19T08:52:01Z</time>
        <sat>10</sat>
      </trkpt>
      <trkpt lat="42.387517" lon="-3.319823">
        <ele>1047.2</ele>
        <time>2020-08-19T08:52:10Z</time>
        <sat>10</sat>
      </trkpt>
      <trkpt lat="42.387472" lon="-3.319915">
        <ele>1048.2</ele>
        <time>2020-08-19T08:52:19Z</time>
        <sat>10</sat>
      </trkpt>
      <trkpt lat="42.387413" lon="-3.320003">
        <ele>1048.7</ele>
        <time>2020-08-19T08:52:27Z</time>
        <sat>10</sat>
      </trkpt>
      <trkpt lat="42.387370" lon="-3.320101">
        <ele>1049.1</ele>
        <time>2020-08-19T08:52:34Z</time>
        <sat>10</sat>
      </trkpt>
      <trkpt lat="42.387327" lon="-3.320196">
        <ele>1049.5</ele>
        <time>2020-08-19T08:52:41Z</time>
        <sat>9</sat>
      </trkpt>
      <trkpt lat="42.387283" lon="-3.320288">
        <ele>1049.9</ele>
        <time>2020-08-19T08:52:50Z</time>
        <sat>10</sat>
      </trkpt>
      <trkpt lat="42.387243" lon="-3.320386">
        <ele>1050.8</ele>
        <time>2020-08-19T08:52:59Z</time>
        <sat>10</sat>
      </trkpt>
      <trkpt lat="42.387203" lon="-3.320484">
        <ele>1051.5</ele>
        <time>2020-08-19T08:53:09Z</time>
        <sat>10</sat>
      </trkpt>
      <trkpt lat="42.387152" lon="-3.320577">
        <ele>1052.6</ele>
        <time>2020-08-19T08:53:33Z</time>
        <sat>10</sat>
      </trkpt>
      <trkpt lat="42.387138" lon="-3.320689">
        <ele>1053.5</ele>
        <time>2020-08-19T08:53:55Z</time>
        <sat>10</sat>
      </trkpt>
      <trkpt lat="42.387119" lon="-3.320807">
        <ele>1053.9</ele>
        <time>2020-08-19T08:54:04Z</time>
        <sat>10</sat>
      </trkpt>
      <trkpt lat="42.387087" lon="-3.320916">
        <ele>1054.4</ele>
        <time>2020-08-19T08:54:12Z</time>
        <sat>10</sat>
      </trkpt>
      <trkpt lat="42.387047" lon="-3.321023">
        <ele>1055.0</ele>
        <time>2020-08-19T08:54:20Z</time>
        <sat>10</sat>
      </trkpt>
      <trkpt lat="42.387002" lon="-3.321123">
        <ele>1055.7</ele>
        <time>2020-08-19T08:54:29Z</time>
        <sat>10</sat>
      </trkpt>
      <trkpt lat="42.386978" lon="-3.321236">
        <ele>1056.4</ele>
        <time>2020-08-19T08:54:38Z</time>
        <sat>10</sat>
      </trkpt>
      <trkpt lat="42.386935" lon="-3.321337">
        <ele>1057.0</ele>
        <time>2020-08-19T08:54:46Z</time>
        <sat>9</sat>
      </trkpt>
      <trkpt lat="42.386898" lon="-3.321436">
        <ele>1057.8</ele>
        <time>2020-08-19T08:54:55Z</time>
        <sat>10</sat>
      </trkpt>
      <trkpt lat="42.386857" lon="-3.321542">
        <ele>1058.8</ele>
        <time>2020-08-19T08:55:03Z</time>
        <sat>10</sat>
      </trkpt>
      <trkpt lat="42.386809" lon="-3.321642">
        <ele>1060.3</ele>
        <time>2020-08-19T08:55:15Z</time>
        <sat>10</sat>
      </trkpt>
      <trkpt lat="42.386778" lon="-3.321751">
        <ele>1061.6</ele>
        <time>2020-08-19T08:55:26Z</time>
        <sat>10</sat>
      </trkpt>
      <trkpt lat="42.386765" lon="-3.321863">
        <ele>1063.0</ele>
        <time>2020-08-19T08:55:37Z</time>
        <sat>10</sat>
      </trkpt>
      <trkpt lat="42.386727" lon="-3.321977">
        <ele>1063.1</ele>
        <time>2020-08-19T08:55:47Z</time>
        <sat>10</sat>
      </trkpt>
      <trkpt lat="42.386695" lon="-3.322089">
        <ele>1063.9</ele>
        <time>2020-08-19T08:55:57Z</time>
        <sat>10</sat>
      </trkpt>
      <trkpt lat="42.386636" lon="-3.322176">
        <ele>1064.2</ele>
        <time>2020-08-19T08:56:14Z</time>
        <sat>10</sat>
      </trkpt>
      <trkpt lat="42.386571" lon="-3.322246">
        <ele>1064.7</ele>
        <time>2020-08-19T08:56:22Z</time>
        <sat>10</sat>
      </trkpt>
      <trkpt lat="42.386496" lon="-3.322303">
        <ele>1065.1</ele>
        <time>2020-08-19T08:56:31Z</time>
        <sat>10</sat>
      </trkpt>
      <trkpt lat="42.386438" lon="-3.322392">
        <ele>1065.2</ele>
        <time>2020-08-19T08:56:40Z</time>
        <sat>10</sat>
      </trkpt>
      <trkpt lat="42.386424" lon="-3.322404">
        <ele>1066.0</ele>
        <time>2020-08-19T08:57:31Z</time>
        <sat>10</sat>
      </trkpt>
      <trkpt lat="42.386392" lon="-3.322506">
        <ele>1065.9</ele>
        <time>2020-08-19T08:57:40Z</time>
        <sat>10</sat>
      </trkpt>
      <trkpt lat="42.386355" lon="-3.322614">
        <ele>1065.6</ele>
        <time>2020-08-19T08:58:11Z</time>
        <sat>10</sat>
      </trkpt>
      <trkpt lat="42.386322" lon="-3.322725">
        <ele>1065.9</ele>
        <time>2020-08-19T08:58:22Z</time>
        <sat>9</sat>
      </trkpt>
      <trkpt lat="42.386301" lon="-3.322838">
        <ele>1066.2</ele>
        <time>2020-08-19T08:58:34Z</time>
        <sat>10</sat>
      </trkpt>
      <trkpt lat="42.386287" lon="-3.322949">
        <ele>1066.6</ele>
        <time>2020-08-19T08:58:42Z</time>
        <sat>10</sat>
      </trkpt>
      <trkpt lat="42.386271" lon="-3.323057">
        <ele>1066.8</ele>
        <time>2020-08-19T08:58:50Z</time>
        <sat>9</sat>
      </trkpt>
      <trkpt lat="42.386260" lon="-3.323170">
        <ele>1067.1</ele>
        <time>2020-08-19T08:59:00Z</time>
        <sat>9</sat>
      </trkpt>
      <trkpt lat="42.386244" lon="-3.323285">
        <ele>1067.8</ele>
        <time>2020-08-19T08:59:10Z</time>
        <sat>10</sat>
      </trkpt>
      <trkpt lat="42.386223" lon="-3.323393">
        <ele>1068.2</ele>
        <time>2020-08-19T08:59:19Z</time>
        <sat>10</sat>
      </trkpt>
      <trkpt lat="42.386206" lon="-3.323508">
        <ele>1068.7</ele>
        <time>2020-08-19T08:59:29Z</time>
        <sat>9</sat>
      </trkpt>
      <trkpt lat="42.386172" lon="-3.323612">
        <ele>1069.2</ele>
        <time>2020-08-19T08:59:38Z</time>
        <sat>9</sat>
      </trkpt>
      <trkpt lat="42.386095" lon="-3.323648">
        <ele>1068.9</ele>
        <time>2020-08-19T09:00:35Z</time>
        <sat>8</sat>
      </trkpt>
      <trkpt lat="42.386162" lon="-3.323712">
        <ele>1068.3</ele>
        <time>2020-08-19T09:04:39Z</time>
        <sat>9</sat>
      </trkpt>
      <trkpt lat="42.386143" lon="-3.323819">
        <ele>1069.2</ele>
        <time>2020-08-19T09:04:55Z</time>
        <sat>9</sat>
      </trkpt>
      <trkpt lat="42.386117" lon="-3.323926">
        <ele>1069.4</ele>
        <time>2020-08-19T09:05:05Z</time>
        <sat>9</sat>
      </trkpt>
      <trkpt lat="42.386094" lon="-3.324043">
        <ele>1069.8</ele>
        <time>2020-08-19T09:05:15Z</time>
        <sat>9</sat>
      </trkpt>
      <trkpt lat="42.386070" lon="-3.324155">
        <ele>1069.9</ele>
        <time>2020-08-19T09:05:24Z</time>
        <sat>9</sat>
      </trkpt>
      <trkpt lat="42.386041" lon="-3.324259">
        <ele>1070.4</ele>
        <time>2020-08-19T09:05:34Z</time>
        <sat>9</sat>
      </trkpt>
      <trkpt lat="42.386004" lon="-3.324362">
        <ele>1070.6</ele>
        <time>2020-08-19T09:05:43Z</time>
        <sat>9</sat>
      </trkpt>
      <trkpt lat="42.385981" lon="-3.324467">
        <ele>1071.0</ele>
        <time>2020-08-19T09:05:52Z</time>
        <sat>9</sat>
      </trkpt>
      <trkpt lat="42.385945" lon="-3.324569">
        <ele>1071.1</ele>
        <time>2020-08-19T09:06:01Z</time>
        <sat>9</sat>
      </trkpt>
      <trkpt lat="42.385920" lon="-3.324683">
        <ele>1071.2</ele>
        <time>2020-08-19T09:06:08Z</time>
        <sat>9</sat>
      </trkpt>
      <trkpt lat="42.385880" lon="-3.324791">
        <ele>1071.5</ele>
        <time>2020-08-19T09:06:16Z</time>
        <sat>9</sat>
      </trkpt>
      <trkpt lat="42.385856" lon="-3.324906">
        <ele>1071.7</ele>
        <time>2020-08-19T09:06:25Z</time>
        <sat>9</sat>
      </trkpt>
      <trkpt lat="42.385837" lon="-3.325015">
        <ele>1071.9</ele>
        <time>2020-08-19T09:06:34Z</time>
        <sat>9</sat>
      </trkpt>
      <trkpt lat="42.385800" lon="-3.325121">
        <ele>1072.2</ele>
        <time>2020-08-19T09:06:43Z</time>
        <sat>9</sat>
      </trkpt>
      <trkpt lat="42.385745" lon="-3.325211">
        <ele>1072.6</ele>
        <time>2020-08-19T09:06:52Z</time>
        <sat>8</sat>
      </trkpt>
      <trkpt lat="42.385673" lon="-3.325274">
        <ele>1073.2</ele>
        <time>2020-08-19T09:07:03Z</time>
        <sat>8</sat>
      </trkpt>
      <trkpt lat="42.385584" lon="-3.325299">
        <ele>1074.3</ele>
        <time>2020-08-19T09:07:16Z</time>
        <sat>8</sat>
      </trkpt>
      <trkpt lat="42.385504" lon="-3.325322">
        <ele>1075.6</ele>
        <time>2020-08-19T09:07:28Z</time>
        <sat>8</sat>
      </trkpt>
      <trkpt lat="42.385423" lon="-3.325283">
        <ele>1076.8</ele>
        <time>2020-08-19T09:07:40Z</time>
        <sat>8</sat>
      </trkpt>
      <trkpt lat="42.385334" lon="-3.325237">
        <ele>1077.9</ele>
        <time>2020-08-19T09:07:50Z</time>
        <sat>10</sat>
      </trkpt>
      <trkpt lat="42.385252" lon="-3.325211">
        <ele>1078.9</ele>
        <time>2020-08-19T09:08:01Z</time>
        <sat>10</sat>
      </trkpt>
      <trkpt lat="42.385180" lon="-3.325149">
        <ele>1079.7</ele>
        <time>2020-08-19T09:08:12Z</time>
        <sat>10</sat>
      </trkpt>
      <trkpt lat="42.385089" lon="-3.325119">
        <ele>1080.4</ele>
        <time>2020-08-19T09:08:21Z</time>
        <sat>10</sat>
      </trkpt>
      <trkpt lat="42.385006" lon="-3.325095">
        <ele>1081.8</ele>
        <time>2020-08-19T09:08:36Z</time>
        <sat>9</sat>
      </trkpt>
      <trkpt lat="42.384923" lon="-3.325070">
        <ele>1083.1</ele>
        <time>2020-08-19T09:08:47Z</time>
        <sat>10</sat>
      </trkpt>
      <trkpt lat="42.384842" lon="-3.325041">
        <ele>1084.0</ele>
        <time>2020-08-19T09:08:58Z</time>
        <sat>10</sat>
      </trkpt>
      <trkpt lat="42.384759" lon="-3.325051">
        <ele>1084.8</ele>
        <time>2020-08-19T09:09:10Z</time>
        <sat>9</sat>
      </trkpt>
      <trkpt lat="42.384680" lon="-3.325020">
        <ele>1085.8</ele>
        <time>2020-08-19T09:09:21Z</time>
        <sat>10</sat>
      </trkpt>
      <trkpt lat="42.384599" lon="-3.325059">
        <ele>1086.7</ele>
        <time>2020-08-19T09:09:31Z</time>
        <sat>10</sat>
      </trkpt>
      <trkpt lat="42.384520" lon="-3.325091">
        <ele>1087.9</ele>
        <time>2020-08-19T09:09:45Z</time>
        <sat>10</sat>
      </trkpt>
      <trkpt lat="42.384444" lon="-3.325138">
        <ele>1088.9</ele>
        <time>2020-08-19T09:09:55Z</time>
        <sat>10</sat>
      </trkpt>
      <trkpt lat="42.384362" lon="-3.325176">
        <ele>1089.5</ele>
        <time>2020-08-19T09:10:05Z</time>
        <sat>10</sat>
      </trkpt>
      <trkpt lat="42.384283" lon="-3.325212">
        <ele>1090.2</ele>
        <time>2020-08-19T09:10:16Z</time>
        <sat>10</sat>
      </trkpt>
      <trkpt lat="42.384215" lon="-3.325275">
        <ele>1090.6</ele>
        <time>2020-08-19T09:10:25Z</time>
        <sat>10</sat>
      </trkpt>
      <trkpt lat="42.384145" lon="-3.325353">
        <ele>1090.9</ele>
        <time>2020-08-19T09:10:35Z</time>
        <sat>10</sat>
      </trkpt>
      <trkpt lat="42.384080" lon="-3.325428">
        <ele>1091.2</ele>
        <time>2020-08-19T09:10:46Z</time>
        <sat>10</sat>
      </trkpt>
      <trkpt lat="42.384017" lon="-3.325506">
        <ele>1091.8</ele>
        <time>2020-08-19T09:10:55Z</time>
        <sat>10</sat>
      </trkpt>
      <trkpt lat="42.383962" lon="-3.325601">
        <ele>1092.4</ele>
        <time>2020-08-19T09:11:04Z</time>
        <sat>10</sat>
      </trkpt>
      <trkpt lat="42.383907" lon="-3.325703">
        <ele>1093.2</ele>
        <time>2020-08-19T09:11:13Z</time>
        <sat>10</sat>
      </trkpt>
      <trkpt lat="42.383856" lon="-3.325789">
        <ele>1093.8</ele>
        <time>2020-08-19T09:11:20Z</time>
        <sat>10</sat>
      </trkpt>
      <trkpt lat="42.383806" lon="-3.325880">
        <ele>1094.7</ele>
        <time>2020-08-19T09:11:30Z</time>
        <sat>10</sat>
      </trkpt>
      <trkpt lat="42.383755" lon="-3.325977">
        <ele>1095.3</ele>
        <time>2020-08-19T09:11:39Z</time>
        <sat>9</sat>
      </trkpt>
      <trkpt lat="42.383696" lon="-3.326060">
        <ele>1095.9</ele>
        <time>2020-08-19T09:11:50Z</time>
        <sat>9</sat>
      </trkpt>
      <trkpt lat="42.383635" lon="-3.326153">
        <ele>1096.5</ele>
        <time>2020-08-19T09:11:58Z</time>
        <sat>10</sat>
      </trkpt>
      <trkpt lat="42.383571" lon="-3.326237">
        <ele>1097.0</ele>
        <time>2020-08-19T09:12:06Z</time>
        <sat>10</sat>
      </trkpt>
      <trkpt lat="42.383501" lon="-3.326305">
        <ele>1097.6</ele>
        <time>2020-08-19T09:12:16Z</time>
        <sat>10</sat>
      </trkpt>
      <trkpt lat="42.383418" lon="-3.326350">
        <ele>1098.3</ele>
        <time>2020-08-19T09:12:26Z</time>
        <sat>10</sat>
      </trkpt>
      <trkpt lat="42.383343" lon="-3.326405">
        <ele>1099.1</ele>
        <time>2020-08-19T09:12:35Z</time>
        <sat>10</sat>
      </trkpt>
      <trkpt lat="42.383260" lon="-3.326442">
        <ele>1100.3</ele>
        <time>2020-08-19T09:12:46Z</time>
        <sat>10</sat>
      </trkpt>
      <trkpt lat="42.383192" lon="-3.326513">
        <ele>1100.9</ele>
        <time>2020-08-19T09:12:54Z</time>
        <sat>10</sat>
      </trkpt>
      <trkpt lat="42.383130" lon="-3.326601">
        <ele>1101.7</ele>
        <time>2020-08-19T09:13:03Z</time>
        <sat>10</sat>
      </trkpt>
      <trkpt lat="42.383066" lon="-3.326676">
        <ele>1102.4</ele>
        <time>2020-08-19T09:13:12Z</time>
        <sat>10</sat>
      </trkpt>
      <trkpt lat="42.383010" lon="-3.326760">
        <ele>1103.1</ele>
        <time>2020-08-19T09:13:22Z</time>
        <sat>9</sat>
      </trkpt>
      <trkpt lat="42.382938" lon="-3.326830">
        <ele>1103.5</ele>
        <time>2020-08-19T09:13:33Z</time>
        <sat>10</sat>
      </trkpt>
      <trkpt lat="42.382886" lon="-3.326916">
        <ele>1103.9</ele>
        <time>2020-08-19T09:13:40Z</time>
        <sat>9</sat>
      </trkpt>
      <trkpt lat="42.382826" lon="-3.326996">
        <ele>1104.6</ele>
        <time>2020-08-19T09:13:50Z</time>
        <sat>9</sat>
      </trkpt>
      <trkpt lat="42.382775" lon="-3.327085">
        <ele>1105.2</ele>
        <time>2020-08-19T09:13:56Z</time>
        <sat>9</sat>
      </trkpt>
      <trkpt lat="42.382726" lon="-3.327174">
        <ele>1106.1</ele>
        <time>2020-08-19T09:14:06Z</time>
        <sat>9</sat>
      </trkpt>
      <trkpt lat="42.382675" lon="-3.327267">
        <ele>1106.7</ele>
        <time>2020-08-19T09:14:14Z</time>
        <sat>9</sat>
      </trkpt>
      <trkpt lat="42.382623" lon="-3.327357">
        <ele>1107.3</ele>
        <time>2020-08-19T09:14:23Z</time>
        <sat>9</sat>
      </trkpt>
      <trkpt lat="42.382572" lon="-3.327444">
        <ele>1107.7</ele>
        <time>2020-08-19T09:14:31Z</time>
        <sat>9</sat>
      </trkpt>
      <trkpt lat="42.382529" lon="-3.327545">
        <ele>1108.3</ele>
        <time>2020-08-19T09:14:40Z</time>
        <sat>10</sat>
      </trkpt>
      <trkpt lat="42.382467" lon="-3.327639">
        <ele>1108.7</ele>
        <time>2020-08-19T09:14:49Z</time>
        <sat>10</sat>
      </trkpt>
      <trkpt lat="42.382418" lon="-3.327728">
        <ele>1109.2</ele>
        <time>2020-08-19T09:14:57Z</time>
        <sat>9</sat>
      </trkpt>
      <trkpt lat="42.382361" lon="-3.327814">
        <ele>1110.0</ele>
        <time>2020-08-19T09:15:06Z</time>
        <sat>10</sat>
      </trkpt>
      <trkpt lat="42.382312" lon="-3.327901">
        <ele>1110.4</ele>
        <time>2020-08-19T09:15:14Z</time>
        <sat>9</sat>
      </trkpt>
      <trkpt lat="42.382258" lon="-3.327984">
        <ele>1110.7</ele>
        <time>2020-08-19T09:15:21Z</time>
        <sat>8</sat>
      </trkpt>
      <trkpt lat="42.382193" lon="-3.328067">
        <ele>1111.1</ele>
        <time>2020-08-19T09:15:30Z</time>
        <sat>9</sat>
      </trkpt>
      <trkpt lat="42.382129" lon="-3.328153">
        <ele>1111.5</ele>
        <time>2020-08-19T09:15:39Z</time>
        <sat>9</sat>
      </trkpt>
      <trkpt lat="42.382055" lon="-3.328209">
        <ele>1111.7</ele>
        <time>2020-08-19T09:15:48Z</time>
        <sat>9</sat>
      </trkpt>
      <trkpt lat="42.381988" lon="-3.328279">
        <ele>1112.0</ele>
        <time>2020-08-19T09:15:56Z</time>
        <sat>9</sat>
      </trkpt>
      <trkpt lat="42.381934" lon="-3.328361">
        <ele>1112.3</ele>
        <time>2020-08-19T09:16:03Z</time>
        <sat>9</sat>
      </trkpt>
      <trkpt lat="42.381876" lon="-3.328442">
        <ele>1112.6</ele>
        <time>2020-08-19T09:16:10Z</time>
        <sat>9</sat>
      </trkpt>
      <trkpt lat="42.381813" lon="-3.328524">
        <ele>1113.0</ele>
        <time>2020-08-19T09:16:18Z</time>
        <sat>9</sat>
      </trkpt>
      <trkpt lat="42.381748" lon="-3.328602">
        <ele>1113.4</ele>
        <time>2020-08-19T09:16:25Z</time>
        <sat>9</sat>
      </trkpt>
      <trkpt lat="42.381689" lon="-3.328692">
        <ele>1114.0</ele>
        <time>2020-08-19T09:16:35Z</time>
        <sat>9</sat>
      </trkpt>
      <trkpt lat="42.381618" lon="-3.328768">
        <ele>1114.8</ele>
        <time>2020-08-19T09:16:44Z</time>
        <sat>9</sat>
      </trkpt>
      <trkpt lat="42.381559" lon="-3.328844">
        <ele>1115.2</ele>
        <time>2020-08-19T09:16:52Z</time>
        <sat>9</sat>
      </trkpt>
      <trkpt lat="42.381497" lon="-3.328926">
        <ele>1115.6</ele>
        <time>2020-08-19T09:17:00Z</time>
        <sat>9</sat>
      </trkpt>
      <trkpt lat="42.381433" lon="-3.328995">
        <ele>1116.0</ele>
        <time>2020-08-19T09:17:08Z</time>
        <sat>10</sat>
      </trkpt>
      <trkpt lat="42.381370" lon="-3.329072">
        <ele>1116.3</ele>
        <time>2020-08-19T09:17:18Z</time>
        <sat>9</sat>
      </trkpt>
      <trkpt lat="42.381293" lon="-3.329128">
        <ele>1116.5</ele>
        <time>2020-08-19T09:17:26Z</time>
        <sat>9</sat>
      </trkpt>
      <trkpt lat="42.381214" lon="-3.329173">
        <ele>1116.5</ele>
        <time>2020-08-19T09:17:37Z</time>
        <sat>8</sat>
      </trkpt>
      <trkpt lat="42.381137" lon="-3.329219">
        <ele>1116.1</ele>
        <time>2020-08-19T09:17:46Z</time>
        <sat>9</sat>
      </trkpt>
      <trkpt lat="42.381061" lon="-3.329280">
        <ele>1115.9</ele>
        <time>2020-08-19T09:17:56Z</time>
        <sat>8</sat>
      </trkpt>
      <trkpt lat="42.380987" lon="-3.329339">
        <ele>1115.7</ele>
        <time>2020-08-19T09:18:03Z</time>
        <sat>10</sat>
      </trkpt>
      <trkpt lat="42.380912" lon="-3.329393">
        <ele>1115.6</ele>
        <time>2020-08-19T09:18:10Z</time>
        <sat>9</sat>
      </trkpt>
      <trkpt lat="42.380834" lon="-3.329451">
        <ele>1115.7</ele>
        <time>2020-08-19T09:18:19Z</time>
        <sat>9</sat>
      </trkpt>
      <trkpt lat="42.380772" lon="-3.329545">
        <ele>1115.4</ele>
        <time>2020-08-19T09:18:29Z</time>
        <sat>9</sat>
      </trkpt>
      <trkpt lat="42.380700" lon="-3.329610">
        <ele>1115.7</ele>
        <time>2020-08-19T09:18:35Z</time>
        <sat>9</sat>
      </trkpt>
      <trkpt lat="42.380617" lon="-3.329654">
        <ele>1116.0</ele>
        <time>2020-08-19T09:18:49Z</time>
        <sat>9</sat>
      </trkpt>
      <trkpt lat="42.380553" lon="-3.329725">
        <ele>1115.7</ele>
        <time>2020-08-19T09:19:01Z</time>
        <sat>9</sat>
      </trkpt>
      <trkpt lat="42.380489" lon="-3.329795">
        <ele>1113.7</ele>
        <time>2020-08-19T09:19:14Z</time>
        <sat>10</sat>
      </trkpt>
      <trkpt lat="42.380405" lon="-3.329856">
        <ele>1117.6</ele>
        <time>2020-08-19T09:19:20Z</time>
        <sat>9</sat>
      </trkpt>
      <trkpt lat="42.380318" lon="-3.329889">
        <ele>1118.2</ele>
        <time>2020-08-19T09:19:27Z</time>
        <sat>9</sat>
      </trkpt>
      <trkpt lat="42.380259" lon="-3.329969">
        <ele>1118.1</ele>
        <time>2020-08-19T09:19:34Z</time>
        <sat>9</sat>
      </trkpt>
      <trkpt lat="42.380182" lon="-3.330025">
        <ele>1118.3</ele>
        <time>2020-08-19T09:19:42Z</time>
        <sat>10</sat>
      </trkpt>
      <trkpt lat="42.380102" lon="-3.330092">
        <ele>1118.8</ele>
        <time>2020-08-19T09:19:50Z</time>
        <sat>10</sat>
      </trkpt>
      <trkpt lat="42.380044" lon="-3.330178">
        <ele>1119.4</ele>
        <time>2020-08-19T09:19:59Z</time>
        <sat>9</sat>
      </trkpt>
      <trkpt lat="42.379963" lon="-3.330231">
        <ele>1120.3</ele>
        <time>2020-08-19T09:21:10Z</time>
        <sat>9</sat>
      </trkpt>
      <trkpt lat="42.379899" lon="-3.330295">
        <ele>1119.2</ele>
        <time>2020-08-19T09:22:31Z</time>
        <sat>10</sat>
      </trkpt>
      <trkpt lat="42.379842" lon="-3.330384">
        <ele>1120.0</ele>
        <time>2020-08-19T09:22:43Z</time>
        <sat>9</sat>
      </trkpt>
      <trkpt lat="42.379781" lon="-3.330472">
        <ele>1121.4</ele>
        <time>2020-08-19T09:22:54Z</time>
        <sat>10</sat>
      </trkpt>
      <trkpt lat="42.379721" lon="-3.330550">
        <ele>1123.1</ele>
        <time>2020-08-19T09:23:31Z</time>
        <sat>10</sat>
      </trkpt>
      <trkpt lat="42.379647" lon="-3.330607">
        <ele>1123.5</ele>
        <time>2020-08-19T09:24:17Z</time>
        <sat>9</sat>
      </trkpt>
      <trkpt lat="42.379615" lon="-3.330709">
        <ele>1124.2</ele>
        <time>2020-08-19T09:24:32Z</time>
        <sat>9</sat>
      </trkpt>
      <trkpt lat="42.379567" lon="-3.330806">
        <ele>1125.3</ele>
        <time>2020-08-19T09:24:57Z</time>
        <sat>9</sat>
      </trkpt>
      <trkpt lat="42.379493" lon="-3.330851">
        <ele>1126.4</ele>
        <time>2020-08-19T09:25:29Z</time>
        <sat>9</sat>
      </trkpt>
      <trkpt lat="42.379441" lon="-3.330943">
        <ele>1126.9</ele>
        <time>2020-08-19T09:25:39Z</time>
        <sat>9</sat>
      </trkpt>
      <trkpt lat="42.379372" lon="-3.331019">
        <ele>1127.2</ele>
        <time>2020-08-19T09:25:47Z</time>
        <sat>9</sat>
      </trkpt>
      <trkpt lat="42.379316" lon="-3.331104">
        <ele>1127.6</ele>
        <time>2020-08-19T09:25:56Z</time>
        <sat>10</sat>
      </trkpt>
      <trkpt lat="42.379248" lon="-3.331184">
        <ele>1128.4</ele>
        <time>2020-08-19T09:26:08Z</time>
        <sat>10</sat>
      </trkpt>
      <trkpt lat="42.379183" lon="-3.331255">
        <ele>1128.7</ele>
        <time>2020-08-19T09:26:16Z</time>
        <sat>9</sat>
      </trkpt>
      <trkpt lat="42.379119" lon="-3.331331">
        <ele>1129.3</ele>
        <time>2020-08-19T09:26:24Z</time>
        <sat>9</sat>
      </trkpt>
      <trkpt lat="42.379065" lon="-3.331413">
        <ele>1129.8</ele>
        <time>2020-08-19T09:26:31Z</time>
        <sat>9</sat>
      </trkpt>
      <trkpt lat="42.379010" lon="-3.331495">
        <ele>1130.0</ele>
        <time>2020-08-19T09:26:39Z</time>
        <sat>9</sat>
      </trkpt>
      <trkpt lat="42.378953" lon="-3.331575">
        <ele>1130.4</ele>
        <time>2020-08-19T09:26:46Z</time>
        <sat>9</sat>
      </trkpt>
      <trkpt lat="42.378891" lon="-3.331669">
        <ele>1130.8</ele>
        <time>2020-08-19T09:26:54Z</time>
        <sat>10</sat>
      </trkpt>
      <trkpt lat="42.378836" lon="-3.331752">
        <ele>1131.2</ele>
        <time>2020-08-19T09:27:01Z</time>
        <sat>10</sat>
      </trkpt>
      <trkpt lat="42.378775" lon="-3.331837">
        <ele>1131.6</ele>
        <time>2020-08-19T09:27:09Z</time>
        <sat>11</sat>
      </trkpt>
      <trkpt lat="42.378699" lon="-3.331909">
        <ele>1131.9</ele>
        <time>2020-08-19T09:27:17Z</time>
        <sat>11</sat>
      </trkpt>
      <trkpt lat="42.378628" lon="-3.331967">
        <ele>1132.2</ele>
        <time>2020-08-19T09:27:24Z</time>
        <sat>11</sat>
      </trkpt>
      <trkpt lat="42.378557" lon="-3.332023">
        <ele>1132.9</ele>
        <time>2020-08-19T09:27:31Z</time>
        <sat>10</sat>
      </trkpt>
      <trkpt lat="42.378482" lon="-3.332077">
        <ele>1133.3</ele>
        <time>2020-08-19T09:27:38Z</time>
        <sat>11</sat>
      </trkpt>
      <trkpt lat="42.378406" lon="-3.332127">
        <ele>1133.0</ele>
        <time>2020-08-19T09:27:46Z</time>
        <sat>11</sat>
      </trkpt>
      <trkpt lat="42.378339" lon="-3.332196">
        <ele>1131.6</ele>
        <time>2020-08-19T09:27:53Z</time>
        <sat>11</sat>
      </trkpt>
      <trkpt lat="42.378272" lon="-3.332267">
        <ele>1132.6</ele>
        <time>2020-08-19T09:28:00Z</time>
        <sat>11</sat>
      </trkpt>
      <trkpt lat="42.378204" lon="-3.332348">
        <ele>1133.3</ele>
        <time>2020-08-19T09:28:08Z</time>
        <sat>11</sat>
      </trkpt>
      <trkpt lat="42.378143" lon="-3.332426">
        <ele>1134.0</ele>
        <time>2020-08-19T09:28:15Z</time>
        <sat>11</sat>
      </trkpt>
      <trkpt lat="42.378076" lon="-3.332511">
        <ele>1134.8</ele>
        <time>2020-08-19T09:28:23Z</time>
        <sat>11</sat>
      </trkpt>
      <trkpt lat="42.378018" lon="-3.332591">
        <ele>1135.2</ele>
        <time>2020-08-19T09:28:30Z</time>
        <sat>11</sat>
      </trkpt>
      <trkpt lat="42.377962" lon="-3.332671">
        <ele>1135.4</ele>
        <time>2020-08-19T09:28:37Z</time>
        <sat>11</sat>
      </trkpt>
      <trkpt lat="42.377911" lon="-3.332763">
        <ele>1135.6</ele>
        <time>2020-08-19T09:28:45Z</time>
        <sat>11</sat>
      </trkpt>
      <trkpt lat="42.377850" lon="-3.332838">
        <ele>1136.1</ele>
        <time>2020-08-19T09:28:53Z</time>
        <sat>11</sat>
      </trkpt>
      <trkpt lat="42.377798" lon="-3.332924">
        <ele>1136.4</ele>
        <time>2020-08-19T09:29:01Z</time>
        <sat>11</sat>
      </trkpt>
      <trkpt lat="42.377738" lon="-3.333010">
        <ele>1136.7</ele>
        <time>2020-08-19T09:29:09Z</time>
        <sat>10</sat>
      </trkpt>
      <trkpt lat="42.377683" lon="-3.333103">
        <ele>1137.3</ele>
        <time>2020-08-19T09:29:25Z</time>
        <sat>10</sat>
      </trkpt>
      <trkpt lat="42.377635" lon="-3.333203">
        <ele>1137.3</ele>
        <time>2020-08-19T09:29:31Z</time>
        <sat>10</sat>
      </trkpt>
      <trkpt lat="42.377581" lon="-3.333302">
        <ele>1137.4</ele>
        <time>2020-08-19T09:29:38Z</time>
        <sat>10</sat>
      </trkpt>
      <trkpt lat="42.377543" lon="-3.333405">
        <ele>1137.4</ele>
        <time>2020-08-19T09:29:46Z</time>
        <sat>10</sat>
      </trkpt>
      <trkpt lat="42.377494" lon="-3.333501">
        <ele>1137.5</ele>
        <time>2020-08-19T09:29:54Z</time>
        <sat>10</sat>
      </trkpt>
      <trkpt lat="42.377440" lon="-3.333585">
        <ele>1137.5</ele>
        <time>2020-08-19T09:30:01Z</time>
        <sat>10</sat>
      </trkpt>
      <trkpt lat="42.377380" lon="-3.333678">
        <ele>1137.6</ele>
        <time>2020-08-19T09:30:08Z</time>
        <sat>10</sat>
      </trkpt>
      <trkpt lat="42.377328" lon="-3.333768">
        <ele>1137.7</ele>
        <time>2020-08-19T09:30:15Z</time>
        <sat>10</sat>
      </trkpt>
      <trkpt lat="42.377268" lon="-3.333850">
        <ele>1138.0</ele>
        <time>2020-08-19T09:30:22Z</time>
        <sat>10</sat>
      </trkpt>
      <trkpt lat="42.377211" lon="-3.333931">
        <ele>1138.3</ele>
        <time>2020-08-19T09:30:29Z</time>
        <sat>10</sat>
      </trkpt>
      <trkpt lat="42.377153" lon="-3.334010">
        <ele>1138.4</ele>
        <time>2020-08-19T09:30:36Z</time>
        <sat>10</sat>
      </trkpt>
      <trkpt lat="42.377096" lon="-3.334094">
        <ele>1138.4</ele>
        <time>2020-08-19T09:30:44Z</time>
        <sat>10</sat>
      </trkpt>
      <trkpt lat="42.377037" lon="-3.334175">
        <ele>1138.6</ele>
        <time>2020-08-19T09:30:51Z</time>
        <sat>9</sat>
      </trkpt>
      <trkpt lat="42.376978" lon="-3.334257">
        <ele>1138.9</ele>
        <time>2020-08-19T09:30:58Z</time>
        <sat>10</sat>
      </trkpt>
      <trkpt lat="42.376916" lon="-3.334338">
        <ele>1139.2</ele>
        <time>2020-08-19T09:31:05Z</time>
        <sat>10</sat>
      </trkpt>
      <trkpt lat="42.376855" lon="-3.334425">
        <ele>1139.4</ele>
        <time>2020-08-19T09:31:14Z</time>
        <sat>10</sat>
      </trkpt>
      <trkpt lat="42.376794" lon="-3.334515">
        <ele>1139.8</ele>
        <time>2020-08-19T09:31:21Z</time>
        <sat>10</sat>
      </trkpt>
      <trkpt lat="42.376738" lon="-3.334607">
        <ele>1139.9</ele>
        <time>2020-08-19T09:31:28Z</time>
        <sat>10</sat>
      </trkpt>
      <trkpt lat="42.376685" lon="-3.334696">
        <ele>1139.8</ele>
        <time>2020-08-19T09:31:35Z</time>
        <sat>10</sat>
      </trkpt>
      <trkpt lat="42.376637" lon="-3.334794">
        <ele>1140.2</ele>
        <time>2020-08-19T09:31:54Z</time>
        <sat>10</sat>
      </trkpt>
      <trkpt lat="42.376587" lon="-3.334893">
        <ele>1140.5</ele>
        <time>2020-08-19T09:32:01Z</time>
        <sat>10</sat>
      </trkpt>
      <trkpt lat="42.376535" lon="-3.334981">
        <ele>1140.9</ele>
        <time>2020-08-19T09:32:09Z</time>
        <sat>10</sat>
      </trkpt>
      <trkpt lat="42.376484" lon="-3.335083">
        <ele>1141.2</ele>
        <time>2020-08-19T09:32:17Z</time>
        <sat>10</sat>
      </trkpt>
      <trkpt lat="42.376426" lon="-3.335173">
        <ele>1141.4</ele>
        <time>2020-08-19T09:32:25Z</time>
        <sat>9</sat>
      </trkpt>
      <trkpt lat="42.376372" lon="-3.335269">
        <ele>1141.5</ele>
        <time>2020-08-19T09:32:32Z</time>
        <sat>10</sat>
      </trkpt>
      <trkpt lat="42.376324" lon="-3.335364">
        <ele>1141.9</ele>
        <time>2020-08-19T09:32:41Z</time>
        <sat>10</sat>
      </trkpt>
      <trkpt lat="42.376264" lon="-3.335456">
        <ele>1141.9</ele>
        <time>2020-08-19T09:32:49Z</time>
        <sat>10</sat>
      </trkpt>
      <trkpt lat="42.376201" lon="-3.335529">
        <ele>1141.9</ele>
        <time>2020-08-19T09:32:58Z</time>
        <sat>9</sat>
      </trkpt>
      <trkpt lat="42.376128" lon="-3.335598">
        <ele>1143.9</ele>
        <time>2020-08-19T09:33:07Z</time>
        <sat>9</sat>
      </trkpt>
      <trkpt lat="42.376055" lon="-3.335661">
        <ele>1145.3</ele>
        <time>2020-08-19T09:33:15Z</time>
        <sat>10</sat>
      </trkpt>
      <trkpt lat="42.375983" lon="-3.335722">
        <ele>1146.3</ele>
        <time>2020-08-19T09:33:28Z</time>
        <sat>10</sat>
      </trkpt>
      <trkpt lat="42.375907" lon="-3.335781">
        <ele>1146.8</ele>
        <time>2020-08-19T09:33:36Z</time>
        <sat>10</sat>
      </trkpt>
      <trkpt lat="42.375836" lon="-3.335850">
        <ele>1147.4</ele>
        <time>2020-08-19T09:33:45Z</time>
        <sat>10</sat>
      </trkpt>
      <trkpt lat="42.375761" lon="-3.335909">
        <ele>1147.1</ele>
        <time>2020-08-19T09:33:53Z</time>
        <sat>9</sat>
      </trkpt>
      <trkpt lat="42.375689" lon="-3.335979">
        <ele>1147.0</ele>
        <time>2020-08-19T09:34:00Z</time>
        <sat>10</sat>
      </trkpt>
      <trkpt lat="42.375635" lon="-3.336066">
        <ele>1146.9</ele>
        <time>2020-08-19T09:34:07Z</time>
        <sat>9</sat>
      </trkpt>
      <trkpt lat="42.375571" lon="-3.336137">
        <ele>1147.6</ele>
        <time>2020-08-19T09:34:14Z</time>
        <sat>10</sat>
      </trkpt>
      <trkpt lat="42.375508" lon="-3.336224">
        <ele>1148.1</ele>
        <time>2020-08-19T09:34:21Z</time>
        <sat>9</sat>
      </trkpt>
      <trkpt lat="42.375437" lon="-3.336295">
        <ele>1147.7</ele>
        <time>2020-08-19T09:34:28Z</time>
        <sat>9</sat>
      </trkpt>
      <trkpt lat="42.375374" lon="-3.336375">
        <ele>1148.1</ele>
        <time>2020-08-19T09:34:35Z</time>
        <sat>9</sat>
      </trkpt>
      <trkpt lat="42.375309" lon="-3.336456">
        <ele>1148.2</ele>
        <time>2020-08-19T09:34:43Z</time>
        <sat>9</sat>
      </trkpt>
      <trkpt lat="42.375241" lon="-3.336531">
        <ele>1148.9</ele>
        <time>2020-08-19T09:34:50Z</time>
        <sat>10</sat>
      </trkpt>
      <trkpt lat="42.375178" lon="-3.336601">
        <ele>1149.3</ele>
        <time>2020-08-19T09:34:57Z</time>
        <sat>10</sat>
      </trkpt>
      <trkpt lat="42.375107" lon="-3.336674">
        <ele>1149.5</ele>
        <time>2020-08-19T09:35:05Z</time>
        <sat>10</sat>
      </trkpt>
      <trkpt lat="42.375045" lon="-3.336759">
        <ele>1149.7</ele>
        <time>2020-08-19T09:35:12Z</time>
        <sat>9</sat>
      </trkpt>
      <trkpt lat="42.374979" lon="-3.336830">
        <ele>1149.7</ele>
        <time>2020-08-19T09:35:19Z</time>
        <sat>10</sat>
      </trkpt>
      <trkpt lat="42.374917" lon="-3.336904">
        <ele>1149.9</ele>
        <time>2020-08-19T09:35:26Z</time>
        <sat>10</sat>
      </trkpt>
      <trkpt lat="42.374850" lon="-3.336978">
        <ele>1150.0</ele>
        <time>2020-08-19T09:35:35Z</time>
        <sat>10</sat>
      </trkpt>
      <trkpt lat="42.374794" lon="-3.337069">
        <ele>1150.0</ele>
        <time>2020-08-19T09:35:42Z</time>
        <sat>10</sat>
      </trkpt>
      <trkpt lat="42.374751" lon="-3.337169">
        <ele>1150.0</ele>
        <time>2020-08-19T09:35:49Z</time>
        <sat>10</sat>
      </trkpt>
      <trkpt lat="42.374706" lon="-3.337267">
        <ele>1150.1</ele>
        <time>2020-08-19T09:35:56Z</time>
        <sat>10</sat>
      </trkpt>
      <trkpt lat="42.374654" lon="-3.337356">
        <ele>1149.9</ele>
        <time>2020-08-19T09:36:03Z</time>
        <sat>10</sat>
      </trkpt>
      <trkpt lat="42.374614" lon="-3.337462">
        <ele>1149.9</ele>
        <time>2020-08-19T09:36:10Z</time>
        <sat>10</sat>
      </trkpt>
      <trkpt lat="42.374576" lon="-3.337571">
        <ele>1149.8</ele>
        <time>2020-08-19T09:36:17Z</time>
        <sat>10</sat>
      </trkpt>
      <trkpt lat="42.374531" lon="-3.337670">
        <ele>1149.8</ele>
        <time>2020-08-19T09:36:24Z</time>
        <sat>9</sat>
      </trkpt>
      <trkpt lat="42.374469" lon="-3.337756">
        <ele>1149.9</ele>
        <time>2020-08-19T09:36:32Z</time>
        <sat>10</sat>
      </trkpt>
      <trkpt lat="42.374418" lon="-3.337860">
        <ele>1149.9</ele>
        <time>2020-08-19T09:36:40Z</time>
        <sat>10</sat>
      </trkpt>
      <trkpt lat="42.374372" lon="-3.337951">
        <ele>1150.5</ele>
        <time>2020-08-19T09:37:06Z</time>
        <sat>10</sat>
      </trkpt>
      <trkpt lat="42.374354" lon="-3.338059">
        <ele>1148.8</ele>
        <time>2020-08-19T09:37:41Z</time>
        <sat>10</sat>
      </trkpt>
      <trkpt lat="42.374318" lon="-3.338159">
        <ele>1144.9</ele>
        <time>2020-08-19T09:37:52Z</time>
        <sat>10</sat>
      </trkpt>
      <trkpt lat="42.374270" lon="-3.338254">
        <ele>1152.5</ele>
        <time>2020-08-19T09:38:00Z</time>
        <sat>10</sat>
      </trkpt>
      <trkpt lat="42.374207" lon="-3.338330">
        <ele>1153.4</ele>
        <time>2020-08-19T09:38:06Z</time>
        <sat>10</sat>
      </trkpt>
      <trkpt lat="42.374164" lon="-3.338436">
        <ele>1152.0</ele>
        <time>2020-08-19T09:38:13Z</time>
        <sat>9</sat>
      </trkpt>
      <trkpt lat="42.374126" lon="-3.338535">
        <ele>1151.1</ele>
        <time>2020-08-19T09:38:20Z</time>
        <sat>10</sat>
      </trkpt>
      <trkpt lat="42.374091" lon="-3.338647">
        <ele>1150.1</ele>
        <time>2020-08-19T09:38:27Z</time>
        <sat>9</sat>
      </trkpt>
      <trkpt lat="42.374050" lon="-3.338748">
        <ele>1149.5</ele>
        <time>2020-08-19T09:38:34Z</time>
        <sat>10</sat>
      </trkpt>
      <trkpt lat="42.374008" lon="-3.338848">
        <ele>1149.3</ele>
        <time>2020-08-19T09:38:41Z</time>
        <sat>10</sat>
      </trkpt>
      <trkpt lat="42.373955" lon="-3.338935">
        <ele>1148.8</ele>
        <time>2020-08-19T09:38:49Z</time>
        <sat>9</sat>
      </trkpt>
      <trkpt lat="42.373911" lon="-3.339044">
        <ele>1148.6</ele>
        <time>2020-08-19T09:38:59Z</time>
        <sat>9</sat>
      </trkpt>
      <trkpt lat="42.373866" lon="-3.339137">
        <ele>1148.6</ele>
        <time>2020-08-19T09:39:06Z</time>
        <sat>8</sat>
      </trkpt>
      <trkpt lat="42.373830" lon="-3.339250">
        <ele>1148.4</ele>
        <time>2020-08-19T09:39:14Z</time>
        <sat>10</sat>
      </trkpt>
      <trkpt lat="42.373813" lon="-3.339363">
        <ele>1148.0</ele>
        <time>2020-08-19T09:39:21Z</time>
        <sat>10</sat>
      </trkpt>
      <trkpt lat="42.373783" lon="-3.339469">
        <ele>1147.8</ele>
        <time>2020-08-19T09:39:29Z</time>
        <sat>9</sat>
      </trkpt>
      <trkpt lat="42.373750" lon="-3.339571">
        <ele>1147.3</ele>
        <time>2020-08-19T09:39:35Z</time>
        <sat>9</sat>
      </trkpt>
      <trkpt lat="42.373683" lon="-3.339654">
        <ele>1147.2</ele>
        <time>2020-08-19T09:39:43Z</time>
        <sat>10</sat>
      </trkpt>
      <trkpt lat="42.373632" lon="-3.339759">
        <ele>1147.3</ele>
        <time>2020-08-19T09:39:50Z</time>
        <sat>10</sat>
      </trkpt>
      <trkpt lat="42.373600" lon="-3.339877">
        <ele>1147.3</ele>
        <time>2020-08-19T09:39:57Z</time>
        <sat>10</sat>
      </trkpt>
      <trkpt lat="42.373563" lon="-3.339982">
        <ele>1147.2</ele>
        <time>2020-08-19T09:40:04Z</time>
        <sat>10</sat>
      </trkpt>
      <trkpt lat="42.373531" lon="-3.340092">
        <ele>1147.0</ele>
        <time>2020-08-19T09:40:11Z</time>
        <sat>10</sat>
      </trkpt>
      <trkpt lat="42.373497" lon="-3.340209">
        <ele>1146.9</ele>
        <time>2020-08-19T09:40:18Z</time>
        <sat>10</sat>
      </trkpt>
      <trkpt lat="42.373463" lon="-3.340319">
        <ele>1146.9</ele>
        <time>2020-08-19T09:40:25Z</time>
        <sat>10</sat>
      </trkpt>
      <trkpt lat="42.373424" lon="-3.340430">
        <ele>1146.8</ele>
        <time>2020-08-19T09:40:32Z</time>
        <sat>9</sat>
      </trkpt>
      <trkpt lat="42.373385" lon="-3.340537">
        <ele>1146.8</ele>
        <time>2020-08-19T09:40:39Z</time>
        <sat>9</sat>
      </trkpt>
      <trkpt lat="42.373351" lon="-3.340646">
        <ele>1146.7</ele>
        <time>2020-08-19T09:40:46Z</time>
        <sat>10</sat>
      </trkpt>
      <trkpt lat="42.373321" lon="-3.340752">
        <ele>1146.8</ele>
        <time>2020-08-19T09:40:53Z</time>
        <sat>10</sat>
      </trkpt>
      <trkpt lat="42.373290" lon="-3.340861">
        <ele>1147.0</ele>
        <time>2020-08-19T09:41:00Z</time>
        <sat>9</sat>
      </trkpt>
      <trkpt lat="42.373252" lon="-3.340974">
        <ele>1147.2</ele>
        <time>2020-08-19T09:41:07Z</time>
        <sat>10</sat>
      </trkpt>
      <trkpt lat="42.373219" lon="-3.341085">
        <ele>1147.4</ele>
        <time>2020-08-19T09:41:14Z</time>
        <sat>9</sat>
      </trkpt>
      <trkpt lat="42.373184" lon="-3.341195">
        <ele>1147.7</ele>
        <time>2020-08-19T09:41:21Z</time>
        <sat>10</sat>
      </trkpt>
      <trkpt lat="42.373140" lon="-3.341292">
        <ele>1147.8</ele>
        <time>2020-08-19T09:41:28Z</time>
        <sat>10</sat>
      </trkpt>
      <trkpt lat="42.373094" lon="-3.341386">
        <ele>1147.9</ele>
        <time>2020-08-19T09:41:35Z</time>
        <sat>9</sat>
      </trkpt>
      <trkpt lat="42.373044" lon="-3.341487">
        <ele>1148.3</ele>
        <time>2020-08-19T09:41:42Z</time>
        <sat>9</sat>
      </trkpt>
      <trkpt lat="42.372999" lon="-3.341586">
        <ele>1148.4</ele>
        <time>2020-08-19T09:41:49Z</time>
        <sat>10</sat>
      </trkpt>
      <trkpt lat="42.372964" lon="-3.341689">
        <ele>1148.4</ele>
        <time>2020-08-19T09:41:56Z</time>
        <sat>10</sat>
      </trkpt>
      <trkpt lat="42.372921" lon="-3.341792">
        <ele>1148.6</ele>
        <time>2020-08-19T09:42:04Z</time>
        <sat>10</sat>
      </trkpt>
      <trkpt lat="42.372907" lon="-3.341905">
        <ele>1148.9</ele>
        <time>2020-08-19T09:42:33Z</time>
        <sat>10</sat>
      </trkpt>
      <trkpt lat="42.372861" lon="-3.341995">
        <ele>1148.9</ele>
        <time>2020-08-19T09:42:41Z</time>
        <sat>8</sat>
      </trkpt>
      <trkpt lat="42.372827" lon="-3.342107">
        <ele>1149.1</ele>
        <time>2020-08-19T09:42:49Z</time>
        <sat>10</sat>
      </trkpt>
      <trkpt lat="42.372767" lon="-3.342190">
        <ele>1149.1</ele>
        <time>2020-08-19T09:42:57Z</time>
        <sat>10</sat>
      </trkpt>
      <trkpt lat="42.372717" lon="-3.342281">
        <ele>1148.7</ele>
        <time>2020-08-19T09:43:05Z</time>
        <sat>10</sat>
      </trkpt>
      <trkpt lat="42.372668" lon="-3.342370">
        <ele>1147.0</ele>
        <time>2020-08-19T09:43:14Z</time>
        <sat>10</sat>
      </trkpt>
      <trkpt lat="42.372602" lon="-3.342457">
        <ele>1145.3</ele>
        <time>2020-08-19T09:43:23Z</time>
        <sat>10</sat>
      </trkpt>
      <trkpt lat="42.372576" lon="-3.342573">
        <ele>1144.2</ele>
        <time>2020-08-19T09:43:48Z</time>
        <sat>9</sat>
      </trkpt>
      <trkpt lat="42.372530" lon="-3.342669">
        <ele>1143.8</ele>
        <time>2020-08-19T09:43:55Z</time>
        <sat>10</sat>
      </trkpt>
      <trkpt lat="42.372486" lon="-3.342770">
        <ele>1143.1</ele>
        <time>2020-08-19T09:44:03Z</time>
        <sat>10</sat>
      </trkpt>
      <trkpt lat="42.372431" lon="-3.342859">
        <ele>1142.1</ele>
        <time>2020-08-19T09:44:10Z</time>
        <sat>10</sat>
      </trkpt>
      <trkpt lat="42.372387" lon="-3.342960">
        <ele>1140.6</ele>
        <time>2020-08-19T09:44:19Z</time>
        <sat>10</sat>
      </trkpt>
      <trkpt lat="42.372349" lon="-3.343059">
        <ele>1139.8</ele>
        <time>2020-08-19T09:44:26Z</time>
        <sat>10</sat>
      </trkpt>
      <trkpt lat="42.372310" lon="-3.343157">
        <ele>1138.7</ele>
        <time>2020-08-19T09:44:35Z</time>
        <sat>10</sat>
      </trkpt>
      <trkpt lat="42.372264" lon="-3.343251">
        <ele>1138.1</ele>
        <time>2020-08-19T09:44:42Z</time>
        <sat>10</sat>
      </trkpt>
      <trkpt lat="42.372222" lon="-3.343358">
        <ele>1137.4</ele>
        <time>2020-08-19T09:44:50Z</time>
        <sat>10</sat>
      </trkpt>
      <trkpt lat="42.372180" lon="-3.343458">
        <ele>1136.6</ele>
        <time>2020-08-19T09:44:57Z</time>
        <sat>10</sat>
      </trkpt>
      <trkpt lat="42.372133" lon="-3.343565">
        <ele>1135.6</ele>
        <time>2020-08-19T09:45:05Z</time>
        <sat>10</sat>
      </trkpt>
      <trkpt lat="42.372088" lon="-3.343658">
        <ele>1134.5</ele>
        <time>2020-08-19T09:45:12Z</time>
        <sat>9</sat>
      </trkpt>
      <trkpt lat="42.372047" lon="-3.343759">
        <ele>1133.3</ele>
        <time>2020-08-19T09:45:20Z</time>
        <sat>10</sat>
      </trkpt>
      <trkpt lat="42.372000" lon="-3.343861">
        <ele>1132.3</ele>
        <time>2020-08-19T09:45:28Z</time>
        <sat>10</sat>
      </trkpt>
      <trkpt lat="42.371957" lon="-3.343955">
        <ele>1131.2</ele>
        <time>2020-08-19T09:45:35Z</time>
        <sat>10</sat>
      </trkpt>
      <trkpt lat="42.371911" lon="-3.344049">
        <ele>1129.8</ele>
        <time>2020-08-19T09:45:42Z</time>
        <sat>10</sat>
      </trkpt>
      <trkpt lat="42.371858" lon="-3.344147">
        <ele>1128.7</ele>
        <time>2020-08-19T09:45:50Z</time>
        <sat>10</sat>
      </trkpt>
      <trkpt lat="42.371811" lon="-3.344239">
        <ele>1127.7</ele>
        <time>2020-08-19T09:45:57Z</time>
        <sat>10</sat>
      </trkpt>
      <trkpt lat="42.371771" lon="-3.344342">
        <ele>1126.9</ele>
        <time>2020-08-19T09:46:04Z</time>
        <sat>9</sat>
      </trkpt>
      <trkpt lat="42.371731" lon="-3.344448">
        <ele>1125.8</ele>
        <time>2020-08-19T09:46:12Z</time>
        <sat>10</sat>
      </trkpt>
      <trkpt lat="42.371691" lon="-3.344546">
        <ele>1124.9</ele>
        <time>2020-08-19T09:46:19Z</time>
        <sat>9</sat>
      </trkpt>
      <trkpt lat="42.371648" lon="-3.344640">
        <ele>1123.7</ele>
        <time>2020-08-19T09:46:26Z</time>
        <sat>10</sat>
      </trkpt>
      <trkpt lat="42.371609" lon="-3.344746">
        <ele>1122.7</ele>
        <time>2020-08-19T09:46:34Z</time>
        <sat>10</sat>
      </trkpt>
      <trkpt lat="42.371562" lon="-3.344845">
        <ele>1121.8</ele>
        <time>2020-08-19T09:46:41Z</time>
        <sat>10</sat>
      </trkpt>
      <trkpt lat="42.371510" lon="-3.344943">
        <ele>1120.9</ele>
        <time>2020-08-19T09:46:49Z</time>
        <sat>10</sat>
      </trkpt>
      <trkpt lat="42.371453" lon="-3.345030">
        <ele>1119.5</ele>
        <time>2020-08-19T09:47:00Z</time>
        <sat>10</sat>
      </trkpt>
      <trkpt lat="42.371411" lon="-3.345141">
        <ele>1118.6</ele>
        <time>2020-08-19T09:47:07Z</time>
        <sat>10</sat>
      </trkpt>
      <trkpt lat="42.371370" lon="-3.345240">
        <ele>1117.5</ele>
        <time>2020-08-19T09:47:16Z</time>
        <sat>10</sat>
      </trkpt>
      <trkpt lat="42.371327" lon="-3.345342">
        <ele>1116.5</ele>
        <time>2020-08-19T09:47:24Z</time>
        <sat>10</sat>
      </trkpt>
      <trkpt lat="42.371300" lon="-3.345458">
        <ele>1113.8</ele>
        <time>2020-08-19T09:47:47Z</time>
        <sat>10</sat>
      </trkpt>
      <trkpt lat="42.371247" lon="-3.345548">
        <ele>1113.0</ele>
        <time>2020-08-19T09:47:56Z</time>
        <sat>10</sat>
      </trkpt>
      <trkpt lat="42.371222" lon="-3.345655">
        <ele>1111.9</ele>
        <time>2020-08-19T09:48:05Z</time>
        <sat>9</sat>
      </trkpt>
      <trkpt lat="42.371181" lon="-3.345754">
        <ele>1109.8</ele>
        <time>2020-08-19T09:48:29Z</time>
        <sat>10</sat>
      </trkpt>
      <trkpt lat="42.371139" lon="-3.345856">
        <ele>1108.5</ele>
        <time>2020-08-19T09:48:43Z</time>
        <sat>9</sat>
      </trkpt>
      <trkpt lat="42.371092" lon="-3.345950">
        <ele>1108.3</ele>
        <time>2020-08-19T09:48:59Z</time>
        <sat>10</sat>
      </trkpt>
      <trkpt lat="42.371042" lon="-3.346049">
        <ele>1108.7</ele>
        <time>2020-08-19T09:49:06Z</time>
        <sat>9</sat>
      </trkpt>
      <trkpt lat="42.370991" lon="-3.346134">
        <ele>1110.9</ele>
        <time>2020-08-19T09:49:35Z</time>
        <sat>9</sat>
      </trkpt>
      <trkpt lat="42.370963" lon="-3.346239">
        <ele>1111.8</ele>
        <time>2020-08-19T09:50:36Z</time>
        <sat>8</sat>
      </trkpt>
      <trkpt lat="42.370916" lon="-3.346339">
        <ele>1112.7</ele>
        <time>2020-08-19T09:50:45Z</time>
        <sat>8</sat>
      </trkpt>
      <trkpt lat="42.370875" lon="-3.346442">
        <ele>1114.4</ele>
        <time>2020-08-19T09:50:54Z</time>
        <sat>8</sat>
      </trkpt>
      <trkpt lat="42.370824" lon="-3.346536">
        <ele>1116.1</ele>
        <time>2020-08-19T09:51:01Z</time>
        <sat>8</sat>
      </trkpt>
      <trkpt lat="42.370771" lon="-3.346626">
        <ele>1118.2</ele>
        <time>2020-08-19T09:51:09Z</time>
        <sat>8</sat>
      </trkpt>
      <trkpt lat="42.370737" lon="-3.346731">
        <ele>1120.5</ele>
        <time>2020-08-19T09:51:18Z</time>
        <sat>9</sat>
      </trkpt>
      <trkpt lat="42.370702" lon="-3.346832">
        <ele>1122.8</ele>
        <time>2020-08-19T09:51:28Z</time>
        <sat>9</sat>
      </trkpt>
      <trkpt lat="42.370652" lon="-3.346923">
        <ele>1124.5</ele>
        <time>2020-08-19T09:51:39Z</time>
        <sat>9</sat>
      </trkpt>
      <trkpt lat="42.370610" lon="-3.347027">
        <ele>1125.3</ele>
        <time>2020-08-19T09:51:47Z</time>
        <sat>9</sat>
      </trkpt>
      <trkpt lat="42.370559" lon="-3.347131">
        <ele>1126.1</ele>
        <time>2020-08-19T09:51:56Z</time>
        <sat>9</sat>
      </trkpt>
      <trkpt lat="42.370510" lon="-3.347223">
        <ele>1126.5</ele>
        <time>2020-08-19T09:52:03Z</time>
        <sat>9</sat>
      </trkpt>
      <trkpt lat="42.370460" lon="-3.347327">
        <ele>1126.8</ele>
        <time>2020-08-19T09:52:11Z</time>
        <sat>9</sat>
      </trkpt>
      <trkpt lat="42.370426" lon="-3.347437">
        <ele>1127.0</ele>
        <time>2020-08-19T09:52:19Z</time>
        <sat>9</sat>
      </trkpt>
      <trkpt lat="42.370374" lon="-3.347526">
        <ele>1127.2</ele>
        <time>2020-08-19T09:52:51Z</time>
        <sat>9</sat>
      </trkpt>
      <trkpt lat="42.370326" lon="-3.347632">
        <ele>1127.4</ele>
        <time>2020-08-19T09:52:58Z</time>
        <sat>9</sat>
      </trkpt>
      <trkpt lat="42.370275" lon="-3.347736">
        <ele>1127.8</ele>
        <time>2020-08-19T09:53:05Z</time>
        <sat>9</sat>
      </trkpt>
      <trkpt lat="42.370226" lon="-3.347827">
        <ele>1127.9</ele>
        <time>2020-08-19T09:53:11Z</time>
        <sat>9</sat>
      </trkpt>
      <trkpt lat="42.370179" lon="-3.347919">
        <ele>1128.1</ele>
        <time>2020-08-19T09:53:18Z</time>
        <sat>9</sat>
      </trkpt>
      <trkpt lat="42.370119" lon="-3.347993">
        <ele>1128.3</ele>
        <time>2020-08-19T09:53:25Z</time>
        <sat>9</sat>
      </trkpt>
      <trkpt lat="42.370069" lon="-3.348093">
        <ele>1128.6</ele>
        <time>2020-08-19T09:53:32Z</time>
        <sat>9</sat>
      </trkpt>
      <trkpt lat="42.370008" lon="-3.348178">
        <ele>1128.7</ele>
        <time>2020-08-19T09:53:39Z</time>
        <sat>9</sat>
      </trkpt>
      <trkpt lat="42.369937" lon="-3.348253">
        <ele>1128.8</ele>
        <time>2020-08-19T09:53:46Z</time>
        <sat>9</sat>
      </trkpt>
      <trkpt lat="42.369863" lon="-3.348306">
        <ele>1128.9</ele>
        <time>2020-08-19T09:53:53Z</time>
        <sat>9</sat>
      </trkpt>
      <trkpt lat="42.369780" lon="-3.348342">
        <ele>1129.2</ele>
        <time>2020-08-19T09:54:01Z</time>
        <sat>9</sat>
      </trkpt>
      <trkpt lat="42.369699" lon="-3.348373">
        <ele>1129.4</ele>
        <time>2020-08-19T09:54:08Z</time>
        <sat>9</sat>
      </trkpt>
      <trkpt lat="42.369618" lon="-3.348425">
        <ele>1129.7</ele>
        <time>2020-08-19T09:54:15Z</time>
        <sat>9</sat>
      </trkpt>
      <trkpt lat="42.369535" lon="-3.348463">
        <ele>1130.1</ele>
        <time>2020-08-19T09:54:22Z</time>
        <sat>9</sat>
      </trkpt>
      <trkpt lat="42.369456" lon="-3.348508">
        <ele>1130.4</ele>
        <time>2020-08-19T09:54:28Z</time>
        <sat>8</sat>
      </trkpt>
      <trkpt lat="42.369382" lon="-3.348551">
        <ele>1130.7</ele>
        <time>2020-08-19T09:54:34Z</time>
        <sat>8</sat>
      </trkpt>
      <trkpt lat="42.369298" lon="-3.348582">
        <ele>1131.0</ele>
        <time>2020-08-19T09:54:41Z</time>
        <sat>8</sat>
      </trkpt>
      <trkpt lat="42.369221" lon="-3.348621">
        <ele>1131.3</ele>
        <time>2020-08-19T09:54:47Z</time>
        <sat>8</sat>
      </trkpt>
      <trkpt lat="42.369143" lon="-3.348666">
        <ele>1131.5</ele>
        <time>2020-08-19T09:54:56Z</time>
        <sat>8</sat>
      </trkpt>
      <trkpt lat="42.369071" lon="-3.348730">
        <ele>1131.7</ele>
        <time>2020-08-19T09:55:04Z</time>
        <sat>9</sat>
      </trkpt>
      <trkpt lat="42.369012" lon="-3.348813">
        <ele>1132.0</ele>
        <time>2020-08-19T09:55:10Z</time>
        <sat>9</sat>
      </trkpt>
      <trkpt lat="42.368950" lon="-3.348904">
        <ele>1132.2</ele>
        <time>2020-08-19T09:55:18Z</time>
        <sat>9</sat>
      </trkpt>
      <trkpt lat="42.368883" lon="-3.348980">
        <ele>1132.7</ele>
        <time>2020-08-19T09:55:26Z</time>
        <sat>9</sat>
      </trkpt>
      <trkpt lat="42.368822" lon="-3.349053">
        <ele>1133.4</ele>
        <time>2020-08-19T09:55:35Z</time>
        <sat>9</sat>
      </trkpt>
      <trkpt lat="42.368759" lon="-3.349123">
        <ele>1134.1</ele>
        <time>2020-08-19T09:55:42Z</time>
        <sat>8</sat>
      </trkpt>
      <trkpt lat="42.368691" lon="-3.349187">
        <ele>1134.9</ele>
        <time>2020-08-19T09:55:50Z</time>
        <sat>9</sat>
      </trkpt>
      <trkpt lat="42.368622" lon="-3.349258">
        <ele>1135.6</ele>
        <time>2020-08-19T09:55:58Z</time>
        <sat>9</sat>
      </trkpt>
      <trkpt lat="42.368562" lon="-3.349338">
        <ele>1136.5</ele>
        <time>2020-08-19T09:56:07Z</time>
        <sat>9</sat>
      </trkpt>
      <trkpt lat="42.368490" lon="-3.349410">
        <ele>1137.6</ele>
        <time>2020-08-19T09:56:16Z</time>
        <sat>8</sat>
      </trkpt>
      <trkpt lat="42.368422" lon="-3.349486">
        <ele>1138.7</ele>
        <time>2020-08-19T09:56:25Z</time>
        <sat>9</sat>
      </trkpt>
      <trkpt lat="42.368356" lon="-3.349565">
        <ele>1139.6</ele>
        <time>2020-08-19T09:56:33Z</time>
        <sat>9</sat>
      </trkpt>
      <trkpt lat="42.368295" lon="-3.349651">
        <ele>1140.8</ele>
        <time>2020-08-19T09:56:42Z</time>
        <sat>9</sat>
      </trkpt>
      <trkpt lat="42.368243" lon="-3.349738">
        <ele>1141.9</ele>
        <time>2020-08-19T09:56:50Z</time>
        <sat>8</sat>
      </trkpt>
      <trkpt lat="42.368184" lon="-3.349821">
        <ele>1143.0</ele>
        <time>2020-08-19T09:56:58Z</time>
        <sat>9</sat>
      </trkpt>
      <trkpt lat="42.368128" lon="-3.349913">
        <ele>1144.2</ele>
        <time>2020-08-19T09:57:07Z</time>
        <sat>9</sat>
      </trkpt>
      <trkpt lat="42.368071" lon="-3.349997">
        <ele>1145.2</ele>
        <time>2020-08-19T09:57:16Z</time>
        <sat>9</sat>
      </trkpt>
      <trkpt lat="42.368007" lon="-3.350087">
        <ele>1146.1</ele>
        <time>2020-08-19T09:57:25Z</time>
        <sat>9</sat>
      </trkpt>
      <trkpt lat="42.367965" lon="-3.350191">
        <ele>1147.1</ele>
        <time>2020-08-19T09:57:34Z</time>
        <sat>10</sat>
      </trkpt>
      <trkpt lat="42.367934" lon="-3.350301">
        <ele>1148.0</ele>
        <time>2020-08-19T09:57:42Z</time>
        <sat>9</sat>
      </trkpt>
      <trkpt lat="42.367908" lon="-3.350409">
        <ele>1149.1</ele>
        <time>2020-08-19T09:57:50Z</time>
        <sat>8</sat>
      </trkpt>
      <trkpt lat="42.367870" lon="-3.350513">
        <ele>1150.1</ele>
        <time>2020-08-19T09:57:58Z</time>
        <sat>8</sat>
      </trkpt>
      <trkpt lat="42.367833" lon="-3.350613">
        <ele>1150.9</ele>
        <time>2020-08-19T09:58:05Z</time>
        <sat>9</sat>
      </trkpt>
      <trkpt lat="42.367799" lon="-3.350716">
        <ele>1151.5</ele>
        <time>2020-08-19T09:58:12Z</time>
        <sat>9</sat>
      </trkpt>
      <trkpt lat="42.367760" lon="-3.350812">
        <ele>1152.1</ele>
        <time>2020-08-19T09:58:19Z</time>
        <sat>9</sat>
      </trkpt>
      <trkpt lat="42.367716" lon="-3.350919">
        <ele>1152.7</ele>
        <time>2020-08-19T09:58:27Z</time>
        <sat>9</sat>
      </trkpt>
      <trkpt lat="42.367670" lon="-3.351012">
        <ele>1153.3</ele>
        <time>2020-08-19T09:58:34Z</time>
        <sat>9</sat>
      </trkpt>
      <trkpt lat="42.367621" lon="-3.351115">
        <ele>1154.1</ele>
        <time>2020-08-19T09:58:42Z</time>
        <sat>9</sat>
      </trkpt>
      <trkpt lat="42.367585" lon="-3.351215">
        <ele>1154.4</ele>
        <time>2020-08-19T09:58:49Z</time>
        <sat>9</sat>
      </trkpt>
      <trkpt lat="42.367540" lon="-3.351310">
        <ele>1155.1</ele>
        <time>2020-08-19T09:58:56Z</time>
        <sat>9</sat>
      </trkpt>
      <trkpt lat="42.367493" lon="-3.351408">
        <ele>1155.6</ele>
        <time>2020-08-19T09:59:03Z</time>
        <sat>10</sat>
      </trkpt>
      <trkpt lat="42.367455" lon="-3.351511">
        <ele>1155.6</ele>
        <time>2020-08-19T09:59:10Z</time>
        <sat>10</sat>
      </trkpt>
      <trkpt lat="42.367407" lon="-3.351610">
        <ele>1155.7</ele>
        <time>2020-08-19T09:59:17Z</time>
        <sat>10</sat>
      </trkpt>
      <trkpt lat="42.367364" lon="-3.351715">
        <ele>1155.7</ele>
        <time>2020-08-19T09:59:24Z</time>
        <sat>9</sat>
      </trkpt>
      <trkpt lat="42.367323" lon="-3.351827">
        <ele>1155.7</ele>
        <time>2020-08-19T09:59:31Z</time>
        <sat>10</sat>
      </trkpt>
      <trkpt lat="42.367289" lon="-3.351937">
        <ele>1155.6</ele>
        <time>2020-08-19T09:59:38Z</time>
        <sat>10</sat>
      </trkpt>
      <trkpt lat="42.367241" lon="-3.352039">
        <ele>1155.7</ele>
        <time>2020-08-19T09:59:45Z</time>
        <sat>10</sat>
      </trkpt>
      <trkpt lat="42.367197" lon="-3.352144">
        <ele>1155.5</ele>
        <time>2020-08-19T09:59:52Z</time>
        <sat>10</sat>
      </trkpt>
      <trkpt lat="42.367156" lon="-3.352252">
        <ele>1155.2</ele>
        <time>2020-08-19T09:59:59Z</time>
        <sat>9</sat>
      </trkpt>
      <trkpt lat="42.367113" lon="-3.352354">
        <ele>1155.2</ele>
        <time>2020-08-19T10:00:06Z</time>
        <sat>10</sat>
      </trkpt>
      <trkpt lat="42.367059" lon="-3.352445">
        <ele>1155.0</ele>
        <time>2020-08-19T10:00:13Z</time>
        <sat>10</sat>
      </trkpt>
      <trkpt lat="42.367005" lon="-3.352533">
        <ele>1154.8</ele>
        <time>2020-08-19T10:00:20Z</time>
        <sat>10</sat>
      </trkpt>
      <trkpt lat="42.366961" lon="-3.352630">
        <ele>1154.7</ele>
        <time>2020-08-19T10:00:27Z</time>
        <sat>10</sat>
      </trkpt>
      <trkpt lat="42.366912" lon="-3.352721">
        <ele>1154.5</ele>
        <time>2020-08-19T10:00:34Z</time>
        <sat>10</sat>
      </trkpt>
      <trkpt lat="42.366868" lon="-3.352824">
        <ele>1154.2</ele>
        <time>2020-08-19T10:00:42Z</time>
        <sat>10</sat>
      </trkpt>
      <trkpt lat="42.366828" lon="-3.352920">
        <ele>1154.0</ele>
        <time>2020-08-19T10:00:49Z</time>
        <sat>10</sat>
      </trkpt>
      <trkpt lat="42.366785" lon="-3.353023">
        <ele>1153.8</ele>
        <time>2020-08-19T10:00:57Z</time>
        <sat>10</sat>
      </trkpt>
      <trkpt lat="42.366734" lon="-3.353123">
        <ele>1153.5</ele>
        <time>2020-08-19T10:01:06Z</time>
        <sat>10</sat>
      </trkpt>
      <trkpt lat="42.366682" lon="-3.353207">
        <ele>1153.1</ele>
        <time>2020-08-19T10:01:14Z</time>
        <sat>10</sat>
      </trkpt>
      <trkpt lat="42.366639" lon="-3.353307">
        <ele>1152.5</ele>
        <time>2020-08-19T10:01:22Z</time>
        <sat>10</sat>
      </trkpt>
      <trkpt lat="42.366583" lon="-3.353396">
        <ele>1152.3</ele>
        <time>2020-08-19T10:01:30Z</time>
        <sat>9</sat>
      </trkpt>
      <trkpt lat="42.366546" lon="-3.353506">
        <ele>1152.3</ele>
        <time>2020-08-19T10:01:40Z</time>
        <sat>10</sat>
      </trkpt>
      <trkpt lat="42.366509" lon="-3.353617">
        <ele>1152.4</ele>
        <time>2020-08-19T10:01:48Z</time>
        <sat>10</sat>
      </trkpt>
      <trkpt lat="42.366486" lon="-3.353727">
        <ele>1152.4</ele>
        <time>2020-08-19T10:01:56Z</time>
        <sat>10</sat>
      </trkpt>
      <trkpt lat="42.366480" lon="-3.353848">
        <ele>1152.4</ele>
        <time>2020-08-19T10:02:03Z</time>
        <sat>10</sat>
      </trkpt>
      <trkpt lat="42.366465" lon="-3.353959">
        <ele>1152.2</ele>
        <time>2020-08-19T10:02:11Z</time>
        <sat>10</sat>
      </trkpt>
      <trkpt lat="42.366439" lon="-3.354070">
        <ele>1151.7</ele>
        <time>2020-08-19T10:02:19Z</time>
        <sat>9</sat>
      </trkpt>
      <trkpt lat="42.366410" lon="-3.354183">
        <ele>1151.2</ele>
        <time>2020-08-19T10:02:27Z</time>
        <sat>9</sat>
      </trkpt>
      <trkpt lat="42.366403" lon="-3.354295">
        <ele>1151.2</ele>
        <time>2020-08-19T10:02:34Z</time>
        <sat>10</sat>
      </trkpt>
      <trkpt lat="42.366413" lon="-3.354406">
        <ele>1151.3</ele>
        <time>2020-08-19T10:02:43Z</time>
        <sat>10</sat>
      </trkpt>
      <trkpt lat="42.366423" lon="-3.354522">
        <ele>1151.6</ele>
        <time>2020-08-19T10:02:51Z</time>
        <sat>10</sat>
      </trkpt>
      <trkpt lat="42.366440" lon="-3.354633">
        <ele>1152.1</ele>
        <time>2020-08-19T10:02:58Z</time>
        <sat>10</sat>
      </trkpt>
      <trkpt lat="42.366452" lon="-3.354745">
        <ele>1152.1</ele>
        <time>2020-08-19T10:03:06Z</time>
        <sat>10</sat>
      </trkpt>
      <trkpt lat="42.366445" lon="-3.354856">
        <ele>1153.2</ele>
        <time>2020-08-19T10:03:14Z</time>
        <sat>9</sat>
      </trkpt>
      <trkpt lat="42.366435" lon="-3.354969">
        <ele>1152.4</ele>
        <time>2020-08-19T10:03:22Z</time>
        <sat>10</sat>
      </trkpt>
      <trkpt lat="42.366439" lon="-3.355089">
        <ele>1152.9</ele>
        <time>2020-08-19T10:03:31Z</time>
        <sat>10</sat>
      </trkpt>
      <trkpt lat="42.366424" lon="-3.355216">
        <ele>1152.9</ele>
        <time>2020-08-19T10:03:38Z</time>
        <sat>10</sat>
      </trkpt>
      <trkpt lat="42.366399" lon="-3.355321">
        <ele>1153.9</ele>
        <time>2020-08-19T10:03:45Z</time>
        <sat>10</sat>
      </trkpt>
      <trkpt lat="42.366360" lon="-3.355425">
        <ele>1154.9</ele>
        <time>2020-08-19T10:03:52Z</time>
        <sat>10</sat>
      </trkpt>
      <trkpt lat="42.366313" lon="-3.355517">
        <ele>1156.1</ele>
        <time>2020-08-19T10:04:00Z</time>
        <sat>9</sat>
      </trkpt>
      <trkpt lat="42.366255" lon="-3.355603">
        <ele>1156.7</ele>
        <time>2020-08-19T10:04:07Z</time>
        <sat>10</sat>
      </trkpt>
      <trkpt lat="42.366209" lon="-3.355698">
        <ele>1157.1</ele>
        <time>2020-08-19T10:04:14Z</time>
        <sat>10</sat>
      </trkpt>
      <trkpt lat="42.366189" lon="-3.355810">
        <ele>1157.7</ele>
        <time>2020-08-19T10:04:21Z</time>
        <sat>10</sat>
      </trkpt>
      <trkpt lat="42.366168" lon="-3.355928">
        <ele>1158.3</ele>
        <time>2020-08-19T10:04:28Z</time>
        <sat>10</sat>
      </trkpt>
      <trkpt lat="42.366159" lon="-3.356046">
        <ele>1158.7</ele>
        <time>2020-08-19T10:04:35Z</time>
        <sat>10</sat>
      </trkpt>
      <trkpt lat="42.366151" lon="-3.356165">
        <ele>1159.2</ele>
        <time>2020-08-19T10:04:42Z</time>
        <sat>10</sat>
      </trkpt>
      <trkpt lat="42.366143" lon="-3.356280">
        <ele>1159.5</ele>
        <time>2020-08-19T10:04:49Z</time>
        <sat>10</sat>
      </trkpt>
      <trkpt lat="42.366132" lon="-3.356404">
        <ele>1159.7</ele>
        <time>2020-08-19T10:04:56Z</time>
        <sat>10</sat>
      </trkpt>
      <trkpt lat="42.366127" lon="-3.356525">
        <ele>1160.1</ele>
        <time>2020-08-19T10:05:03Z</time>
        <sat>10</sat>
      </trkpt>
      <trkpt lat="42.366108" lon="-3.356640">
        <ele>1160.4</ele>
        <time>2020-08-19T10:05:10Z</time>
        <sat>9</sat>
      </trkpt>
      <trkpt lat="42.366082" lon="-3.356752">
        <ele>1160.7</ele>
        <time>2020-08-19T10:05:17Z</time>
        <sat>9</sat>
      </trkpt>
      <trkpt lat="42.366049" lon="-3.356860">
        <ele>1160.9</ele>
        <time>2020-08-19T10:05:24Z</time>
        <sat>10</sat>
      </trkpt>
      <trkpt lat="42.366011" lon="-3.356968">
        <ele>1160.9</ele>
        <time>2020-08-19T10:05:31Z</time>
        <sat>10</sat>
      </trkpt>
      <trkpt lat="42.365988" lon="-3.357087">
        <ele>1160.9</ele>
        <time>2020-08-19T10:05:39Z</time>
        <sat>10</sat>
      </trkpt>
      <trkpt lat="42.365960" lon="-3.357198">
        <ele>1160.6</ele>
        <time>2020-08-19T10:05:47Z</time>
        <sat>10</sat>
      </trkpt>
      <trkpt lat="42.365918" lon="-3.357297">
        <ele>1160.5</ele>
        <time>2020-08-19T10:05:55Z</time>
        <sat>10</sat>
      </trkpt>
      <trkpt lat="42.365917" lon="-3.357411">
        <ele>1160.6</ele>
        <time>2020-08-19T10:06:02Z</time>
        <sat>10</sat>
      </trkpt>
      <trkpt lat="42.365912" lon="-3.357529">
        <ele>1160.8</ele>
        <time>2020-08-19T10:06:11Z</time>
        <sat>10</sat>
      </trkpt>
      <trkpt lat="42.365902" lon="-3.357653">
        <ele>1160.6</ele>
        <time>2020-08-19T10:06:19Z</time>
        <sat>10</sat>
      </trkpt>
      <trkpt lat="42.365894" lon="-3.357777">
        <ele>1160.5</ele>
        <time>2020-08-19T10:06:27Z</time>
        <sat>10</sat>
      </trkpt>
      <trkpt lat="42.365884" lon="-3.357902">
        <ele>1160.2</ele>
        <time>2020-08-19T10:06:36Z</time>
        <sat>10</sat>
      </trkpt>
      <trkpt lat="42.365900" lon="-3.358019">
        <ele>1159.8</ele>
        <time>2020-08-19T10:06:47Z</time>
        <sat>10</sat>
      </trkpt>
      <trkpt lat="42.365895" lon="-3.358132">
        <ele>1159.7</ele>
        <time>2020-08-19T10:06:54Z</time>
        <sat>10</sat>
      </trkpt>
      <trkpt lat="42.365884" lon="-3.358240">
        <ele>1159.5</ele>
        <time>2020-08-19T10:07:03Z</time>
        <sat>10</sat>
      </trkpt>
      <trkpt lat="42.365888" lon="-3.358352">
        <ele>1158.8</ele>
        <time>2020-08-19T10:07:56Z</time>
        <sat>10</sat>
      </trkpt>
      <trkpt lat="42.365909" lon="-3.358469">
        <ele>1157.8</ele>
        <time>2020-08-19T10:08:06Z</time>
        <sat>10</sat>
      </trkpt>
      <trkpt lat="42.365930" lon="-3.358583">
        <ele>1157.5</ele>
        <time>2020-08-19T10:08:13Z</time>
        <sat>9</sat>
      </trkpt>
      <trkpt lat="42.365934" lon="-3.358697">
        <ele>1157.0</ele>
        <time>2020-08-19T10:08:20Z</time>
        <sat>9</sat>
      </trkpt>
      <trkpt lat="42.365934" lon="-3.358810">
        <ele>1156.5</ele>
        <time>2020-08-19T10:08:27Z</time>
        <sat>9</sat>
      </trkpt>
      <trkpt lat="42.365940" lon="-3.358923">
        <ele>1156.2</ele>
        <time>2020-08-19T10:08:34Z</time>
        <sat>9</sat>
      </trkpt>
      <trkpt lat="42.365951" lon="-3.359038">
        <ele>1156.2</ele>
        <time>2020-08-19T10:08:41Z</time>
        <sat>9</sat>
      </trkpt>
      <trkpt lat="42.365966" lon="-3.359150">
        <ele>1156.0</ele>
        <time>2020-08-19T10:08:48Z</time>
        <sat>10</sat>
      </trkpt>
      <trkpt lat="42.365971" lon="-3.359260">
        <ele>1155.9</ele>
        <time>2020-08-19T10:08:55Z</time>
        <sat>9</sat>
      </trkpt>
      <trkpt lat="42.365996" lon="-3.359370">
        <ele>1155.4</ele>
        <time>2020-08-19T10:09:02Z</time>
        <sat>9</sat>
      </trkpt>
      <trkpt lat="42.366010" lon="-3.359485">
        <ele>1155.3</ele>
        <time>2020-08-19T10:09:10Z</time>
        <sat>9</sat>
      </trkpt>
      <trkpt lat="42.366036" lon="-3.359602">
        <ele>1154.9</ele>
        <time>2020-08-19T10:09:18Z</time>
        <sat>9</sat>
      </trkpt>
      <trkpt lat="42.366053" lon="-3.359720">
        <ele>1154.8</ele>
        <time>2020-08-19T10:09:25Z</time>
        <sat>9</sat>
      </trkpt>
      <trkpt lat="42.366066" lon="-3.359831">
        <ele>1154.7</ele>
        <time>2020-08-19T10:09:32Z</time>
        <sat>9</sat>
      </trkpt>
      <trkpt lat="42.366073" lon="-3.359948">
        <ele>1154.7</ele>
        <time>2020-08-19T10:09:39Z</time>
        <sat>9</sat>
      </trkpt>
      <trkpt lat="42.366077" lon="-3.360073">
        <ele>1154.7</ele>
        <time>2020-08-19T10:09:47Z</time>
        <sat>8</sat>
      </trkpt>
      <trkpt lat="42.366081" lon="-3.360187">
        <ele>1154.4</ele>
        <time>2020-08-19T10:09:54Z</time>
        <sat>9</sat>
      </trkpt>
      <trkpt lat="42.366086" lon="-3.360306">
        <ele>1154.4</ele>
        <time>2020-08-19T10:10:01Z</time>
        <sat>8</sat>
      </trkpt>
      <trkpt lat="42.366080" lon="-3.360433">
        <ele>1154.3</ele>
        <time>2020-08-19T10:10:09Z</time>
        <sat>9</sat>
      </trkpt>
      <trkpt lat="42.366069" lon="-3.360554">
        <ele>1154.1</ele>
        <time>2020-08-19T10:10:16Z</time>
        <sat>9</sat>
      </trkpt>
      <trkpt lat="42.366068" lon="-3.360677">
        <ele>1154.0</ele>
        <time>2020-08-19T10:10:23Z</time>
        <sat>9</sat>
      </trkpt>
      <trkpt lat="42.366074" lon="-3.360795">
        <ele>1153.9</ele>
        <time>2020-08-19T10:10:30Z</time>
        <sat>9</sat>
      </trkpt>
      <trkpt lat="42.366055" lon="-3.360908">
        <ele>1153.9</ele>
        <time>2020-08-19T10:10:37Z</time>
        <sat>9</sat>
      </trkpt>
      <trkpt lat="42.366054" lon="-3.361028">
        <ele>1154.0</ele>
        <time>2020-08-19T10:10:44Z</time>
        <sat>9</sat>
      </trkpt>
      <trkpt lat="42.366056" lon="-3.361149">
        <ele>1154.2</ele>
        <time>2020-08-19T10:10:51Z</time>
        <sat>10</sat>
      </trkpt>
      <trkpt lat="42.366064" lon="-3.361259">
        <ele>1154.2</ele>
        <time>2020-08-19T10:10:57Z</time>
        <sat>10</sat>
      </trkpt>
      <trkpt lat="42.366068" lon="-3.361381">
        <ele>1154.3</ele>
        <time>2020-08-19T10:11:04Z</time>
        <sat>9</sat>
      </trkpt>
      <trkpt lat="42.366066" lon="-3.361500">
        <ele>1154.4</ele>
        <time>2020-08-19T10:11:11Z</time>
        <sat>10</sat>
      </trkpt>
      <trkpt lat="42.366064" lon="-3.361620">
        <ele>1154.5</ele>
        <time>2020-08-19T10:11:18Z</time>
        <sat>10</sat>
      </trkpt>
      <trkpt lat="42.366069" lon="-3.361746">
        <ele>1154.5</ele>
        <time>2020-08-19T10:11:25Z</time>
        <sat>10</sat>
      </trkpt>
      <trkpt lat="42.366064" lon="-3.361864">
        <ele>1154.5</ele>
        <time>2020-08-19T10:11:32Z</time>
        <sat>10</sat>
      </trkpt>
      <trkpt lat="42.366067" lon="-3.361982">
        <ele>1154.4</ele>
        <time>2020-08-19T10:11:39Z</time>
        <sat>10</sat>
      </trkpt>
      <trkpt lat="42.366071" lon="-3.362108">
        <ele>1154.4</ele>
        <time>2020-08-19T10:11:46Z</time>
        <sat>10</sat>
      </trkpt>
      <trkpt lat="42.366059" lon="-3.362217">
        <ele>1154.3</ele>
        <time>2020-08-19T10:11:52Z</time>
        <sat>10</sat>
      </trkpt>
      <trkpt lat="42.366064" lon="-3.362336">
        <ele>1154.3</ele>
        <time>2020-08-19T10:11:59Z</time>
        <sat>10</sat>
      </trkpt>
      <trkpt lat="42.366076" lon="-3.362457">
        <ele>1154.3</ele>
        <time>2020-08-19T10:12:06Z</time>
        <sat>10</sat>
      </trkpt>
      <trkpt lat="42.366076" lon="-3.362584">
        <ele>1154.4</ele>
        <time>2020-08-19T10:12:13Z</time>
        <sat>10</sat>
      </trkpt>
      <trkpt lat="42.366074" lon="-3.362703">
        <ele>1154.2</ele>
        <time>2020-08-19T10:12:20Z</time>
        <sat>10</sat>
      </trkpt>
      <trkpt lat="42.366074" lon="-3.362824">
        <ele>1154.2</ele>
        <time>2020-08-19T10:12:27Z</time>
        <sat>10</sat>
      </trkpt>
      <trkpt lat="42.366077" lon="-3.362950">
        <ele>1153.8</ele>
        <time>2020-08-19T10:12:34Z</time>
        <sat>10</sat>
      </trkpt>
      <trkpt lat="42.366075" lon="-3.363074">
        <ele>1153.5</ele>
        <time>2020-08-19T10:12:41Z</time>
        <sat>10</sat>
      </trkpt>
      <trkpt lat="42.366085" lon="-3.363194">
        <ele>1153.3</ele>
        <time>2020-08-19T10:12:48Z</time>
        <sat>10</sat>
      </trkpt>
      <trkpt lat="42.366097" lon="-3.363315">
        <ele>1153.2</ele>
        <time>2020-08-19T10:12:55Z</time>
        <sat>10</sat>
      </trkpt>
      <trkpt lat="42.366107" lon="-3.363438">
        <ele>1153.1</ele>
        <time>2020-08-19T10:13:02Z</time>
        <sat>10</sat>
      </trkpt>
      <trkpt lat="42.366115" lon="-3.363554">
        <ele>1152.7</ele>
        <time>2020-08-19T10:13:09Z</time>
        <sat>10</sat>
      </trkpt>
      <trkpt lat="42.366131" lon="-3.363672">
        <ele>1152.5</ele>
        <time>2020-08-19T10:13:16Z</time>
        <sat>10</sat>
      </trkpt>
      <trkpt lat="42.366141" lon="-3.363796">
        <ele>1152.2</ele>
        <time>2020-08-19T10:13:23Z</time>
        <sat>10</sat>
      </trkpt>
      <trkpt lat="42.366148" lon="-3.363919">
        <ele>1152.1</ele>
        <time>2020-08-19T10:13:30Z</time>
        <sat>10</sat>
      </trkpt>
      <trkpt lat="42.366147" lon="-3.364035">
        <ele>1151.8</ele>
        <time>2020-08-19T10:13:37Z</time>
        <sat>10</sat>
      </trkpt>
      <trkpt lat="42.366154" lon="-3.364156">
        <ele>1151.7</ele>
        <time>2020-08-19T10:13:44Z</time>
        <sat>10</sat>
      </trkpt>
      <trkpt lat="42.366168" lon="-3.364279">
        <ele>1151.5</ele>
        <time>2020-08-19T10:13:51Z</time>
        <sat>9</sat>
      </trkpt>
      <trkpt lat="42.366185" lon="-3.364399">
        <ele>1151.3</ele>
        <time>2020-08-19T10:13:58Z</time>
        <sat>9</sat>
      </trkpt>
      <trkpt lat="42.366197" lon="-3.364510">
        <ele>1151.1</ele>
        <time>2020-08-19T10:14:04Z</time>
        <sat>8</sat>
      </trkpt>
      <trkpt lat="42.366200" lon="-3.364635">
        <ele>1150.8</ele>
        <time>2020-08-19T10:14:11Z</time>
        <sat>9</sat>
      </trkpt>
      <trkpt lat="42.366217" lon="-3.364754">
        <ele>1150.5</ele>
        <time>2020-08-19T10:14:18Z</time>
        <sat>9</sat>
      </trkpt>
      <trkpt lat="42.366236" lon="-3.364862">
        <ele>1150.4</ele>
        <time>2020-08-19T10:14:24Z</time>
        <sat>9</sat>
      </trkpt>
      <trkpt lat="42.366260" lon="-3.364985">
        <ele>1150.5</ele>
        <time>2020-08-19T10:14:31Z</time>
        <sat>9</sat>
      </trkpt>
      <trkpt lat="42.366282" lon="-3.365099">
        <ele>1150.5</ele>
        <time>2020-08-19T10:14:38Z</time>
        <sat>9</sat>
      </trkpt>
      <trkpt lat="42.366303" lon="-3.365205">
        <ele>1150.5</ele>
        <time>2020-08-19T10:14:44Z</time>
        <sat>9</sat>
      </trkpt>
      <trkpt lat="42.366313" lon="-3.365329">
        <ele>1150.6</ele>
        <time>2020-08-19T10:14:51Z</time>
        <sat>9</sat>
      </trkpt>
      <trkpt lat="42.366335" lon="-3.365454">
        <ele>1150.6</ele>
        <time>2020-08-19T10:14:58Z</time>
        <sat>9</sat>
      </trkpt>
      <trkpt lat="42.366351" lon="-3.365575">
        <ele>1150.7</ele>
        <time>2020-08-19T10:15:05Z</time>
        <sat>9</sat>
      </trkpt>
      <trkpt lat="42.366377" lon="-3.365692">
        <ele>1150.7</ele>
        <time>2020-08-19T10:15:12Z</time>
        <sat>10</sat>
      </trkpt>
      <trkpt lat="42.366415" lon="-3.365792">
        <ele>1150.4</ele>
        <time>2020-08-19T10:15:19Z</time>
        <sat>9</sat>
      </trkpt>
      <trkpt lat="42.366446" lon="-3.365909">
        <ele>1151.1</ele>
        <time>2020-08-19T10:15:27Z</time>
        <sat>10</sat>
      </trkpt>
      <trkpt lat="42.366463" lon="-3.366024">
        <ele>1150.2</ele>
        <time>2020-08-19T10:15:35Z</time>
        <sat>9</sat>
      </trkpt>
      <trkpt lat="42.366496" lon="-3.366135">
        <ele>1149.8</ele>
        <time>2020-08-19T10:15:42Z</time>
        <sat>9</sat>
      </trkpt>
      <trkpt lat="42.366523" lon="-3.366249">
        <ele>1150.4</ele>
        <time>2020-08-19T10:15:49Z</time>
        <sat>9</sat>
      </trkpt>
      <trkpt lat="42.366562" lon="-3.366366">
        <ele>1149.6</ele>
        <time>2020-08-19T10:15:57Z</time>
        <sat>9</sat>
      </trkpt>
      <trkpt lat="42.366580" lon="-3.366473">
        <ele>1149.2</ele>
        <time>2020-08-19T10:16:03Z</time>
        <sat>9</sat>
      </trkpt>
      <trkpt lat="42.366605" lon="-3.366587">
        <ele>1149.0</ele>
        <time>2020-08-19T10:16:10Z</time>
        <sat>9</sat>
      </trkpt>
      <trkpt lat="42.366633" lon="-3.366704">
        <ele>1148.7</ele>
        <time>2020-08-19T10:16:17Z</time>
        <sat>9</sat>
      </trkpt>
      <trkpt lat="42.366644" lon="-3.366826">
        <ele>1148.4</ele>
        <time>2020-08-19T10:16:24Z</time>
        <sat>9</sat>
      </trkpt>
      <trkpt lat="42.366660" lon="-3.366947">
        <ele>1148.0</ele>
        <time>2020-08-19T10:16:31Z</time>
        <sat>9</sat>
      </trkpt>
      <trkpt lat="42.366680" lon="-3.367060">
        <ele>1147.7</ele>
        <time>2020-08-19T10:16:38Z</time>
        <sat>10</sat>
      </trkpt>
      <trkpt lat="42.366699" lon="-3.367182">
        <ele>1147.5</ele>
        <time>2020-08-19T10:16:45Z</time>
        <sat>11</sat>
      </trkpt>
      <trkpt lat="42.366722" lon="-3.367294">
        <ele>1147.3</ele>
        <time>2020-08-19T10:16:52Z</time>
        <sat>11</sat>
      </trkpt>
      <trkpt lat="42.366752" lon="-3.367404">
        <ele>1147.3</ele>
        <time>2020-08-19T10:17:00Z</time>
        <sat>11</sat>
      </trkpt>
      <trkpt lat="42.366801" lon="-3.367492">
        <ele>1147.4</ele>
        <time>2020-08-19T10:17:06Z</time>
        <sat>10</sat>
      </trkpt>
      <trkpt lat="42.366850" lon="-3.367596">
        <ele>1147.8</ele>
        <time>2020-08-19T10:17:13Z</time>
        <sat>11</sat>
      </trkpt>
      <trkpt lat="42.366898" lon="-3.367693">
        <ele>1147.8</ele>
        <time>2020-08-19T10:17:20Z</time>
        <sat>11</sat>
      </trkpt>
      <trkpt lat="42.366934" lon="-3.367793">
        <ele>1147.5</ele>
        <time>2020-08-19T10:17:27Z</time>
        <sat>11</sat>
      </trkpt>
      <trkpt lat="42.366978" lon="-3.367885">
        <ele>1147.3</ele>
        <time>2020-08-19T10:17:33Z</time>
        <sat>11</sat>
      </trkpt>
      <trkpt lat="42.367014" lon="-3.367999">
        <ele>1147.3</ele>
        <time>2020-08-19T10:17:40Z</time>
        <sat>11</sat>
      </trkpt>
      <trkpt lat="42.367039" lon="-3.368117">
        <ele>1147.2</ele>
        <time>2020-08-19T10:17:47Z</time>
        <sat>11</sat>
      </trkpt>
      <trkpt lat="42.367095" lon="-3.368197">
        <ele>1147.1</ele>
        <time>2020-08-19T10:17:53Z</time>
        <sat>9</sat>
      </trkpt>
      <trkpt lat="42.367147" lon="-3.368286">
        <ele>1146.9</ele>
        <time>2020-08-19T10:17:59Z</time>
        <sat>11</sat>
      </trkpt>
      <trkpt lat="42.367203" lon="-3.368386">
        <ele>1146.9</ele>
        <time>2020-08-19T10:18:06Z</time>
        <sat>10</sat>
      </trkpt>
      <trkpt lat="42.367263" lon="-3.368476">
        <ele>1146.9</ele>
        <time>2020-08-19T10:18:13Z</time>
        <sat>10</sat>
      </trkpt>
      <trkpt lat="42.367329" lon="-3.368564">
        <ele>1146.6</ele>
        <time>2020-08-19T10:18:20Z</time>
        <sat>11</sat>
      </trkpt>
      <trkpt lat="42.367399" lon="-3.368626">
        <ele>1146.7</ele>
        <time>2020-08-19T10:18:26Z</time>
        <sat>10</sat>
      </trkpt>
      <trkpt lat="42.367459" lon="-3.368721">
        <ele>1146.7</ele>
        <time>2020-08-19T10:18:33Z</time>
        <sat>11</sat>
      </trkpt>
      <trkpt lat="42.367521" lon="-3.368804">
        <ele>1146.7</ele>
        <time>2020-08-19T10:18:40Z</time>
        <sat>11</sat>
      </trkpt>
      <trkpt lat="42.367587" lon="-3.368872">
        <ele>1146.6</ele>
        <time>2020-08-19T10:18:46Z</time>
        <sat>11</sat>
      </trkpt>
      <trkpt lat="42.367648" lon="-3.368955">
        <ele>1146.2</ele>
        <time>2020-08-19T10:18:53Z</time>
        <sat>11</sat>
      </trkpt>
      <trkpt lat="42.367720" lon="-3.369026">
        <ele>1145.8</ele>
        <time>2020-08-19T10:19:00Z</time>
        <sat>11</sat>
      </trkpt>
      <trkpt lat="42.367793" lon="-3.369098">
        <ele>1145.4</ele>
        <time>2020-08-19T10:19:07Z</time>
        <sat>10</sat>
      </trkpt>
      <trkpt lat="42.367847" lon="-3.369194">
        <ele>1145.1</ele>
        <time>2020-08-19T10:19:14Z</time>
        <sat>9</sat>
      </trkpt>
      <trkpt lat="42.367901" lon="-3.369284">
        <ele>1144.8</ele>
        <time>2020-08-19T10:19:21Z</time>
        <sat>10</sat>
      </trkpt>
      <trkpt lat="42.367958" lon="-3.369371">
        <ele>1144.3</ele>
        <time>2020-08-19T10:19:28Z</time>
        <sat>10</sat>
      </trkpt>
      <trkpt lat="42.368012" lon="-3.369468">
        <ele>1144.4</ele>
        <time>2020-08-19T10:19:35Z</time>
        <sat>10</sat>
      </trkpt>
      <trkpt lat="42.368056" lon="-3.369567">
        <ele>1144.3</ele>
        <time>2020-08-19T10:19:42Z</time>
        <sat>10</sat>
      </trkpt>
      <trkpt lat="42.368106" lon="-3.369656">
        <ele>1143.5</ele>
        <time>2020-08-19T10:19:49Z</time>
        <sat>10</sat>
      </trkpt>
      <trkpt lat="42.368156" lon="-3.369763">
        <ele>1144.6</ele>
        <time>2020-08-19T10:19:56Z</time>
        <sat>11</sat>
      </trkpt>
      <trkpt lat="42.368192" lon="-3.369878">
        <ele>1144.3</ele>
        <time>2020-08-19T10:20:03Z</time>
        <sat>9</sat>
      </trkpt>
      <trkpt lat="42.368239" lon="-3.369985">
        <ele>1143.9</ele>
        <time>2020-08-19T10:20:10Z</time>
        <sat>9</sat>
      </trkpt>
      <trkpt lat="42.368291" lon="-3.370088">
        <ele>1143.8</ele>
        <time>2020-08-19T10:20:17Z</time>
        <sat>10</sat>
      </trkpt>
      <trkpt lat="42.368335" lon="-3.370201">
        <ele>1143.5</ele>
        <time>2020-08-19T10:20:24Z</time>
        <sat>11</sat>
      </trkpt>
      <trkpt lat="42.368385" lon="-3.370302">
        <ele>1143.4</ele>
        <time>2020-08-19T10:20:31Z</time>
        <sat>12</sat>
      </trkpt>
      <trkpt lat="42.368427" lon="-3.370412">
        <ele>1143.1</ele>
        <time>2020-08-19T10:20:38Z</time>
        <sat>12</sat>
      </trkpt>
      <trkpt lat="42.368471" lon="-3.370521">
        <ele>1143.0</ele>
        <time>2020-08-19T10:20:45Z</time>
        <sat>11</sat>
      </trkpt>
      <trkpt lat="42.368522" lon="-3.370623">
        <ele>1142.7</ele>
        <time>2020-08-19T10:20:52Z</time>
        <sat>10</sat>
      </trkpt>
      <trkpt lat="42.368573" lon="-3.370717">
        <ele>1142.6</ele>
        <time>2020-08-19T10:20:59Z</time>
        <sat>11</sat>
      </trkpt>
      <trkpt lat="42.368613" lon="-3.370817">
        <ele>1142.3</ele>
        <time>2020-08-19T10:21:06Z</time>
        <sat>12</sat>
      </trkpt>
      <trkpt lat="42.368656" lon="-3.370920">
        <ele>1142.4</ele>
        <time>2020-08-19T10:21:13Z</time>
        <sat>12</sat>
      </trkpt>
      <trkpt lat="42.368699" lon="-3.371017">
        <ele>1142.3</ele>
        <time>2020-08-19T10:21:19Z</time>
        <sat>12</sat>
      </trkpt>
      <trkpt lat="42.368727" lon="-3.371135">
        <ele>1141.9</ele>
        <time>2020-08-19T10:21:26Z</time>
        <sat>12</sat>
      </trkpt>
      <trkpt lat="42.368748" lon="-3.371243">
        <ele>1141.8</ele>
        <time>2020-08-19T10:21:32Z</time>
        <sat>11</sat>
      </trkpt>
      <trkpt lat="42.368770" lon="-3.371358">
        <ele>1141.7</ele>
        <time>2020-08-19T10:21:39Z</time>
        <sat>11</sat>
      </trkpt>
      <trkpt lat="42.368789" lon="-3.371467">
        <ele>1141.6</ele>
        <time>2020-08-19T10:21:45Z</time>
        <sat>10</sat>
      </trkpt>
      <trkpt lat="42.368805" lon="-3.371592">
        <ele>1141.2</ele>
        <time>2020-08-19T10:21:52Z</time>
        <sat>10</sat>
      </trkpt>
      <trkpt lat="42.368823" lon="-3.371700">
        <ele>1141.0</ele>
        <time>2020-08-19T10:21:58Z</time>
        <sat>10</sat>
      </trkpt>
      <trkpt lat="42.368835" lon="-3.371819">
        <ele>1140.7</ele>
        <time>2020-08-19T10:22:05Z</time>
        <sat>11</sat>
      </trkpt>
      <trkpt lat="42.368862" lon="-3.371939">
        <ele>1140.7</ele>
        <time>2020-08-19T10:22:12Z</time>
        <sat>11</sat>
      </trkpt>
      <trkpt lat="42.368883" lon="-3.372050">
        <ele>1140.5</ele>
        <time>2020-08-19T10:22:18Z</time>
        <sat>11</sat>
      </trkpt>
      <trkpt lat="42.368891" lon="-3.372165">
        <ele>1140.4</ele>
        <time>2020-08-19T10:22:25Z</time>
        <sat>10</sat>
      </trkpt>
      <trkpt lat="42.368913" lon="-3.372286">
        <ele>1140.4</ele>
        <time>2020-08-19T10:22:32Z</time>
        <sat>11</sat>
      </trkpt>
      <trkpt lat="42.368932" lon="-3.372394">
        <ele>1140.3</ele>
        <time>2020-08-19T10:22:38Z</time>
        <sat>12</sat>
      </trkpt>
      <trkpt lat="42.368931" lon="-3.372511">
        <ele>1140.0</ele>
        <time>2020-08-19T10:22:46Z</time>
        <sat>12</sat>
      </trkpt>
      <trkpt lat="42.368956" lon="-3.372617">
        <ele>1140.0</ele>
        <time>2020-08-19T10:22:52Z</time>
        <sat>12</sat>
      </trkpt>
      <trkpt lat="42.368968" lon="-3.372739">
        <ele>1140.0</ele>
        <time>2020-08-19T10:22:59Z</time>
        <sat>10</sat>
      </trkpt>
      <trkpt lat="42.368986" lon="-3.372852">
        <ele>1140.0</ele>
        <time>2020-08-19T10:23:05Z</time>
        <sat>10</sat>
      </trkpt>
      <trkpt lat="42.369009" lon="-3.372972">
        <ele>1139.9</ele>
        <time>2020-08-19T10:23:12Z</time>
        <sat>10</sat>
      </trkpt>
      <trkpt lat="42.369031" lon="-3.373079">
        <ele>1139.8</ele>
        <time>2020-08-19T10:23:18Z</time>
        <sat>11</sat>
      </trkpt>
      <trkpt lat="42.369052" lon="-3.373203">
        <ele>1140.0</ele>
        <time>2020-08-19T10:23:25Z</time>
        <sat>10</sat>
      </trkpt>
      <trkpt lat="42.369059" lon="-3.373327">
        <ele>1140.0</ele>
        <time>2020-08-19T10:23:32Z</time>
        <sat>10</sat>
      </trkpt>
      <trkpt lat="42.369067" lon="-3.373445">
        <ele>1140.0</ele>
        <time>2020-08-19T10:23:39Z</time>
        <sat>11</sat>
      </trkpt>
      <trkpt lat="42.369106" lon="-3.373557">
        <ele>1140.0</ele>
        <time>2020-08-19T10:23:46Z</time>
        <sat>11</sat>
      </trkpt>
      <trkpt lat="42.369141" lon="-3.373659">
        <ele>1140.1</ele>
        <time>2020-08-19T10:23:52Z</time>
        <sat>11</sat>
      </trkpt>
      <trkpt lat="42.369187" lon="-3.373759">
        <ele>1140.0</ele>
        <time>2020-08-19T10:23:59Z</time>
        <sat>10</sat>
      </trkpt>
      <trkpt lat="42.369233" lon="-3.373861">
        <ele>1139.9</ele>
        <time>2020-08-19T10:24:06Z</time>
        <sat>11</sat>
      </trkpt>
      <trkpt lat="42.369283" lon="-3.373956">
        <ele>1139.7</ele>
        <time>2020-08-19T10:24:13Z</time>
        <sat>11</sat>
      </trkpt>
      <trkpt lat="42.369327" lon="-3.374055">
        <ele>1139.4</ele>
        <time>2020-08-19T10:24:20Z</time>
        <sat>12</sat>
      </trkpt>
      <trkpt lat="42.369373" lon="-3.374156">
        <ele>1139.0</ele>
        <time>2020-08-19T10:24:28Z</time>
        <sat>10</sat>
      </trkpt>
      <trkpt lat="42.369407" lon="-3.374260">
        <ele>1138.9</ele>
        <time>2020-08-19T10:24:35Z</time>
        <sat>10</sat>
      </trkpt>
      <trkpt lat="42.369438" lon="-3.374363">
        <ele>1138.7</ele>
        <time>2020-08-19T10:24:42Z</time>
        <sat>9</sat>
      </trkpt>
      <trkpt lat="42.369479" lon="-3.374459">
        <ele>1138.5</ele>
        <time>2020-08-19T10:24:48Z</time>
        <sat>10</sat>
      </trkpt>
      <trkpt lat="42.369511" lon="-3.374573">
        <ele>1138.2</ele>
        <time>2020-08-19T10:24:55Z</time>
        <sat>10</sat>
      </trkpt>
      <trkpt lat="42.369533" lon="-3.374690">
        <ele>1137.8</ele>
        <time>2020-08-19T10:25:02Z</time>
        <sat>10</sat>
      </trkpt>
      <trkpt lat="42.369553" lon="-3.374813">
        <ele>1137.6</ele>
        <time>2020-08-19T10:25:09Z</time>
        <sat>10</sat>
      </trkpt>
      <trkpt lat="42.369561" lon="-3.374923">
        <ele>1137.5</ele>
        <time>2020-08-19T10:25:15Z</time>
        <sat>10</sat>
      </trkpt>
      <trkpt lat="42.369585" lon="-3.375042">
        <ele>1137.2</ele>
        <time>2020-08-19T10:25:22Z</time>
        <sat>10</sat>
      </trkpt>
      <trkpt lat="42.369607" lon="-3.375162">
        <ele>1137.2</ele>
        <time>2020-08-19T10:25:29Z</time>
        <sat>11</sat>
      </trkpt>
      <trkpt lat="42.369615" lon="-3.375281">
        <ele>1137.0</ele>
        <time>2020-08-19T10:25:36Z</time>
        <sat>11</sat>
      </trkpt>
      <trkpt lat="42.369615" lon="-3.375397">
        <ele>1136.3</ele>
        <time>2020-08-19T10:25:43Z</time>
        <sat>11</sat>
      </trkpt>
      <trkpt lat="42.369631" lon="-3.375514">
        <ele>1136.6</ele>
        <time>2020-08-19T10:25:50Z</time>
        <sat>11</sat>
      </trkpt>
      <trkpt lat="42.369653" lon="-3.375636">
        <ele>1136.7</ele>
        <time>2020-08-19T10:25:56Z</time>
        <sat>11</sat>
      </trkpt>
      <trkpt lat="42.369670" lon="-3.375758">
        <ele>1136.5</ele>
        <time>2020-08-19T10:26:03Z</time>
        <sat>11</sat>
      </trkpt>
      <trkpt lat="42.369705" lon="-3.375873">
        <ele>1136.2</ele>
        <time>2020-08-19T10:26:10Z</time>
        <sat>11</sat>
      </trkpt>
      <trkpt lat="42.369722" lon="-3.375996">
        <ele>1136.2</ele>
        <time>2020-08-19T10:26:17Z</time>
        <sat>11</sat>
      </trkpt>
      <trkpt lat="42.369745" lon="-3.376116">
        <ele>1136.1</ele>
        <time>2020-08-19T10:26:24Z</time>
        <sat>11</sat>
      </trkpt>
      <trkpt lat="42.369768" lon="-3.376227">
        <ele>1136.2</ele>
        <time>2020-08-19T10:26:30Z</time>
        <sat>11</sat>
      </trkpt>
      <trkpt lat="42.369774" lon="-3.376346">
        <ele>1136.3</ele>
        <time>2020-08-19T10:26:37Z</time>
        <sat>10</sat>
      </trkpt>
      <trkpt lat="42.369787" lon="-3.376466">
        <ele>1136.2</ele>
        <time>2020-08-19T10:26:44Z</time>
        <sat>11</sat>
      </trkpt>
      <trkpt lat="42.369790" lon="-3.376592">
        <ele>1136.1</ele>
        <time>2020-08-19T10:26:51Z</time>
        <sat>10</sat>
      </trkpt>
      <trkpt lat="42.369794" lon="-3.376702">
        <ele>1136.0</ele>
        <time>2020-08-19T10:26:57Z</time>
        <sat>10</sat>
      </trkpt>
      <trkpt lat="42.369800" lon="-3.376827">
        <ele>1136.0</ele>
        <time>2020-08-19T10:27:04Z</time>
        <sat>10</sat>
      </trkpt>
      <trkpt lat="42.369801" lon="-3.376937">
        <ele>1136.0</ele>
        <time>2020-08-19T10:27:10Z</time>
        <sat>11</sat>
      </trkpt>
      <trkpt lat="42.369810" lon="-3.377059">
        <ele>1136.0</ele>
        <time>2020-08-19T10:27:17Z</time>
        <sat>11</sat>
      </trkpt>
      <trkpt lat="42.369822" lon="-3.377179">
        <ele>1136.0</ele>
        <time>2020-08-19T10:27:24Z</time>
        <sat>10</sat>
      </trkpt>
      <trkpt lat="42.369822" lon="-3.377306">
        <ele>1136.4</ele>
        <time>2020-08-19T10:27:31Z</time>
        <sat>10</sat>
      </trkpt>
      <trkpt lat="42.369841" lon="-3.377418">
        <ele>1135.9</ele>
        <time>2020-08-19T10:27:37Z</time>
        <sat>9</sat>
      </trkpt>
      <trkpt lat="42.369856" lon="-3.377540">
        <ele>1136.0</ele>
        <time>2020-08-19T10:27:44Z</time>
        <sat>10</sat>
      </trkpt>
      <trkpt lat="42.369874" lon="-3.377652">
        <ele>1136.0</ele>
        <time>2020-08-19T10:27:50Z</time>
        <sat>10</sat>
      </trkpt>
      <trkpt lat="42.369886" lon="-3.377767">
        <ele>1136.0</ele>
        <time>2020-08-19T10:27:56Z</time>
        <sat>10</sat>
      </trkpt>
      <trkpt lat="42.369895" lon="-3.377892">
        <ele>1135.9</ele>
        <time>2020-08-19T10:28:03Z</time>
        <sat>9</sat>
      </trkpt>
      <trkpt lat="42.369912" lon="-3.378014">
        <ele>1135.9</ele>
        <time>2020-08-19T10:28:10Z</time>
        <sat>8</sat>
      </trkpt>
      <trkpt lat="42.369910" lon="-3.378143">
        <ele>1135.9</ele>
        <time>2020-08-19T10:28:17Z</time>
        <sat>8</sat>
      </trkpt>
      <trkpt lat="42.369915" lon="-3.378266">
        <ele>1135.9</ele>
        <time>2020-08-19T10:28:24Z</time>
        <sat>9</sat>
      </trkpt>
      <trkpt lat="42.369925" lon="-3.378385">
        <ele>1135.8</ele>
        <time>2020-08-19T10:28:31Z</time>
        <sat>9</sat>
      </trkpt>
      <trkpt lat="42.369928" lon="-3.378495">
        <ele>1135.8</ele>
        <time>2020-08-19T10:28:37Z</time>
        <sat>9</sat>
      </trkpt>
      <trkpt lat="42.369936" lon="-3.378616">
        <ele>1135.7</ele>
        <time>2020-08-19T10:28:44Z</time>
        <sat>10</sat>
      </trkpt>
      <trkpt lat="42.369933" lon="-3.378733">
        <ele>1135.4</ele>
        <time>2020-08-19T10:28:51Z</time>
        <sat>9</sat>
      </trkpt>
      <trkpt lat="42.369946" lon="-3.378842">
        <ele>1135.3</ele>
        <time>2020-08-19T10:28:57Z</time>
        <sat>10</sat>
      </trkpt>
      <trkpt lat="42.369962" lon="-3.378962">
        <ele>1135.0</ele>
        <time>2020-08-19T10:29:04Z</time>
        <sat>10</sat>
      </trkpt>
      <trkpt lat="42.369981" lon="-3.379070">
        <ele>1134.6</ele>
        <time>2020-08-19T10:29:10Z</time>
        <sat>10</sat>
      </trkpt>
      <trkpt lat="42.369999" lon="-3.379190">
        <ele>1134.3</ele>
        <time>2020-08-19T10:29:17Z</time>
        <sat>9</sat>
      </trkpt>
      <trkpt lat="42.370022" lon="-3.379307">
        <ele>1133.9</ele>
        <time>2020-08-19T10:29:24Z</time>
        <sat>10</sat>
      </trkpt>
      <trkpt lat="42.370046" lon="-3.379419">
        <ele>1133.3</ele>
        <time>2020-08-19T10:29:31Z</time>
        <sat>9</sat>
      </trkpt>
      <trkpt lat="42.370089" lon="-3.379531">
        <ele>1133.0</ele>
        <time>2020-08-19T10:29:38Z</time>
        <sat>9</sat>
      </trkpt>
      <trkpt lat="42.370119" lon="-3.379632">
        <ele>1132.9</ele>
        <time>2020-08-19T10:29:44Z</time>
        <sat>10</sat>
      </trkpt>
      <trkpt lat="42.370155" lon="-3.379746">
        <ele>1132.7</ele>
        <time>2020-08-19T10:29:51Z</time>
        <sat>10</sat>
      </trkpt>
      <trkpt lat="42.370190" lon="-3.379857">
        <ele>1132.5</ele>
        <time>2020-08-19T10:29:58Z</time>
        <sat>9</sat>
      </trkpt>
      <trkpt lat="42.370220" lon="-3.379972">
        <ele>1132.2</ele>
        <time>2020-08-19T10:30:05Z</time>
        <sat>9</sat>
      </trkpt>
      <trkpt lat="42.370266" lon="-3.380082">
        <ele>1131.9</ele>
        <time>2020-08-19T10:30:12Z</time>
        <sat>10</sat>
      </trkpt>
      <trkpt lat="42.370300" lon="-3.380195">
        <ele>1131.6</ele>
        <time>2020-08-19T10:30:19Z</time>
        <sat>9</sat>
      </trkpt>
      <trkpt lat="42.370319" lon="-3.380314">
        <ele>1131.2</ele>
        <time>2020-08-19T10:30:26Z</time>
        <sat>10</sat>
      </trkpt>
      <trkpt lat="42.370346" lon="-3.380432">
        <ele>1130.7</ele>
        <time>2020-08-19T10:30:33Z</time>
        <sat>10</sat>
      </trkpt>
      <trkpt lat="42.370376" lon="-3.380550">
        <ele>1130.1</ele>
        <time>2020-08-19T10:30:40Z</time>
        <sat>10</sat>
      </trkpt>
      <trkpt lat="42.370406" lon="-3.380658">
        <ele>1129.8</ele>
        <time>2020-08-19T10:30:47Z</time>
        <sat>10</sat>
      </trkpt>
      <trkpt lat="42.370446" lon="-3.380770">
        <ele>1129.3</ele>
        <time>2020-08-19T10:30:54Z</time>
        <sat>10</sat>
      </trkpt>
      <trkpt lat="42.370479" lon="-3.380888">
        <ele>1127.9</ele>
        <time>2020-08-19T10:31:01Z</time>
        <sat>10</sat>
      </trkpt>
      <trkpt lat="42.370505" lon="-3.381007">
        <ele>1128.8</ele>
        <time>2020-08-19T10:31:08Z</time>
        <sat>10</sat>
      </trkpt>
      <trkpt lat="42.370519" lon="-3.381126">
        <ele>1129.5</ele>
        <time>2020-08-19T10:31:15Z</time>
        <sat>10</sat>
      </trkpt>
      <trkpt lat="42.370553" lon="-3.381241">
        <ele>1129.1</ele>
        <time>2020-08-19T10:31:22Z</time>
        <sat>10</sat>
      </trkpt>
      <trkpt lat="42.370587" lon="-3.381342">
        <ele>1128.7</ele>
        <time>2020-08-19T10:31:28Z</time>
        <sat>10</sat>
      </trkpt>
      <trkpt lat="42.370632" lon="-3.381450">
        <ele>1128.5</ele>
        <time>2020-08-19T10:31:35Z</time>
        <sat>10</sat>
      </trkpt>
      <trkpt lat="42.370675" lon="-3.381563">
        <ele>1127.8</ele>
        <time>2020-08-19T10:31:42Z</time>
        <sat>10</sat>
      </trkpt>
      <trkpt lat="42.370709" lon="-3.381677">
        <ele>1127.4</ele>
        <time>2020-08-19T10:31:49Z</time>
        <sat>8</sat>
      </trkpt>
      <trkpt lat="42.370751" lon="-3.381780">
        <ele>1127.0</ele>
        <time>2020-08-19T10:31:56Z</time>
        <sat>9</sat>
      </trkpt>
      <trkpt lat="42.370788" lon="-3.381892">
        <ele>1126.8</ele>
        <time>2020-08-19T10:32:03Z</time>
        <sat>9</sat>
      </trkpt>
      <trkpt lat="42.370831" lon="-3.381999">
        <ele>1126.6</ele>
        <time>2020-08-19T10:32:10Z</time>
        <sat>9</sat>
      </trkpt>
      <trkpt lat="42.370879" lon="-3.382110">
        <ele>1126.5</ele>
        <time>2020-08-19T10:32:17Z</time>
        <sat>9</sat>
      </trkpt>
      <trkpt lat="42.370916" lon="-3.382223">
        <ele>1126.4</ele>
        <time>2020-08-19T10:32:24Z</time>
        <sat>10</sat>
      </trkpt>
      <trkpt lat="42.370960" lon="-3.382330">
        <ele>1125.9</ele>
        <time>2020-08-19T10:32:32Z</time>
        <sat>10</sat>
      </trkpt>
      <trkpt lat="42.370999" lon="-3.382427">
        <ele>1125.8</ele>
        <time>2020-08-19T10:32:38Z</time>
        <sat>10</sat>
      </trkpt>
      <trkpt lat="42.371040" lon="-3.382539">
        <ele>1125.8</ele>
        <time>2020-08-19T10:32:45Z</time>
        <sat>10</sat>
      </trkpt>
      <trkpt lat="42.371071" lon="-3.382647">
        <ele>1125.7</ele>
        <time>2020-08-19T10:32:52Z</time>
        <sat>10</sat>
      </trkpt>
      <trkpt lat="42.371106" lon="-3.382751">
        <ele>1125.6</ele>
        <time>2020-08-19T10:32:58Z</time>
        <sat>10</sat>
      </trkpt>
      <trkpt lat="42.371138" lon="-3.382865">
        <ele>1125.3</ele>
        <time>2020-08-19T10:33:05Z</time>
        <sat>10</sat>
      </trkpt>
      <trkpt lat="42.371171" lon="-3.382971">
        <ele>1125.1</ele>
        <time>2020-08-19T10:33:12Z</time>
        <sat>10</sat>
      </trkpt>
      <trkpt lat="42.371210" lon="-3.383080">
        <ele>1124.8</ele>
        <time>2020-08-19T10:33:19Z</time>
        <sat>9</sat>
      </trkpt>
      <trkpt lat="42.371255" lon="-3.383189">
        <ele>1124.7</ele>
        <time>2020-08-19T10:33:26Z</time>
        <sat>10</sat>
      </trkpt>
      <trkpt lat="42.371294" lon="-3.383300">
        <ele>1124.7</ele>
        <time>2020-08-19T10:33:33Z</time>
        <sat>10</sat>
      </trkpt>
      <trkpt lat="42.371331" lon="-3.383401">
        <ele>1124.6</ele>
        <time>2020-08-19T10:33:39Z</time>
        <sat>10</sat>
      </trkpt>
      <trkpt lat="42.371364" lon="-3.383514">
        <ele>1124.5</ele>
        <time>2020-08-19T10:33:46Z</time>
        <sat>10</sat>
      </trkpt>
      <trkpt lat="42.371401" lon="-3.383624">
        <ele>1124.4</ele>
        <time>2020-08-19T10:33:53Z</time>
        <sat>9</sat>
      </trkpt>
      <trkpt lat="42.371446" lon="-3.383735">
        <ele>1124.1</ele>
        <time>2020-08-19T10:34:00Z</time>
        <sat>10</sat>
      </trkpt>
      <trkpt lat="42.371488" lon="-3.383834">
        <ele>1124.1</ele>
        <time>2020-08-19T10:34:06Z</time>
        <sat>10</sat>
      </trkpt>
      <trkpt lat="42.371537" lon="-3.383942">
        <ele>1123.8</ele>
        <time>2020-08-19T10:34:13Z</time>
        <sat>10</sat>
      </trkpt>
      <trkpt lat="42.371559" lon="-3.384047">
        <ele>1123.7</ele>
        <time>2020-08-19T10:34:20Z</time>
        <sat>10</sat>
      </trkpt>
      <trkpt lat="42.371577" lon="-3.384161">
        <ele>1123.5</ele>
        <time>2020-08-19T10:34:27Z</time>
        <sat>10</sat>
      </trkpt>
      <trkpt lat="42.371613" lon="-3.384265">
        <ele>1123.7</ele>
        <time>2020-08-19T10:34:36Z</time>
        <sat>10</sat>
      </trkpt>
      <trkpt lat="42.371646" lon="-3.384384">
        <ele>1123.8</ele>
        <time>2020-08-19T10:34:43Z</time>
        <sat>10</sat>
      </trkpt>
      <trkpt lat="42.371685" lon="-3.384485">
        <ele>1123.9</ele>
        <time>2020-08-19T10:34:50Z</time>
        <sat>10</sat>
      </trkpt>
      <trkpt lat="42.371720" lon="-3.384595">
        <ele>1123.9</ele>
        <time>2020-08-19T10:34:57Z</time>
        <sat>10</sat>
      </trkpt>
      <trkpt lat="42.371760" lon="-3.384693">
        <ele>1123.7</ele>
        <time>2020-08-19T10:35:03Z</time>
        <sat>9</sat>
      </trkpt>
      <trkpt lat="42.371788" lon="-3.384798">
        <ele>1123.6</ele>
        <time>2020-08-19T10:35:09Z</time>
        <sat>10</sat>
      </trkpt>
      <trkpt lat="42.371816" lon="-3.384912">
        <ele>1123.6</ele>
        <time>2020-08-19T10:35:16Z</time>
        <sat>10</sat>
      </trkpt>
      <trkpt lat="42.371852" lon="-3.385028">
        <ele>1123.7</ele>
        <time>2020-08-19T10:35:23Z</time>
        <sat>10</sat>
      </trkpt>
      <trkpt lat="42.371890" lon="-3.385144">
        <ele>1123.5</ele>
        <time>2020-08-19T10:35:30Z</time>
        <sat>10</sat>
      </trkpt>
      <trkpt lat="42.371931" lon="-3.385254">
        <ele>1123.5</ele>
        <time>2020-08-19T10:35:37Z</time>
        <sat>10</sat>
      </trkpt>
      <trkpt lat="42.371976" lon="-3.385357">
        <ele>1123.3</ele>
        <time>2020-08-19T10:35:45Z</time>
        <sat>10</sat>
      </trkpt>
      <trkpt lat="42.372008" lon="-3.385475">
        <ele>1123.1</ele>
        <time>2020-08-19T10:35:51Z</time>
        <sat>9</sat>
      </trkpt>
      <trkpt lat="42.372044" lon="-3.385574">
        <ele>1122.9</ele>
        <time>2020-08-19T10:35:57Z</time>
        <sat>9</sat>
      </trkpt>
      <trkpt lat="42.372077" lon="-3.385682">
        <ele>1122.7</ele>
        <time>2020-08-19T10:36:04Z</time>
        <sat>9</sat>
      </trkpt>
      <trkpt lat="42.372107" lon="-3.385786">
        <ele>1122.7</ele>
        <time>2020-08-19T10:36:10Z</time>
        <sat>9</sat>
      </trkpt>
      <trkpt lat="42.372155" lon="-3.385882">
        <ele>1122.5</ele>
        <time>2020-08-19T10:36:16Z</time>
        <sat>9</sat>
      </trkpt>
      <trkpt lat="42.372181" lon="-3.385987">
        <ele>1122.5</ele>
        <time>2020-08-19T10:36:22Z</time>
        <sat>9</sat>
      </trkpt>
      <trkpt lat="42.372217" lon="-3.386101">
        <ele>1122.3</ele>
        <time>2020-08-19T10:36:29Z</time>
        <sat>9</sat>
      </trkpt>
      <trkpt lat="42.372259" lon="-3.386213">
        <ele>1122.0</ele>
        <time>2020-08-19T10:36:36Z</time>
        <sat>10</sat>
      </trkpt>
      <trkpt lat="42.372302" lon="-3.386319">
        <ele>1121.8</ele>
        <time>2020-08-19T10:36:43Z</time>
        <sat>9</sat>
      </trkpt>
      <trkpt lat="42.372342" lon="-3.386430">
        <ele>1120.9</ele>
        <time>2020-08-19T10:36:50Z</time>
        <sat>10</sat>
      </trkpt>
      <trkpt lat="42.372384" lon="-3.386532">
        <ele>1120.7</ele>
        <time>2020-08-19T10:36:56Z</time>
        <sat>9</sat>
      </trkpt>
      <trkpt lat="42.372414" lon="-3.386638">
        <ele>1121.4</ele>
        <time>2020-08-19T10:37:02Z</time>
        <sat>9</sat>
      </trkpt>
      <trkpt lat="42.372444" lon="-3.386752">
        <ele>1121.2</ele>
        <time>2020-08-19T10:37:09Z</time>
        <sat>9</sat>
      </trkpt>
      <trkpt lat="42.372479" lon="-3.386854">
        <ele>1121.1</ele>
        <time>2020-08-19T10:37:15Z</time>
        <sat>10</sat>
      </trkpt>
      <trkpt lat="42.372499" lon="-3.386966">
        <ele>1120.8</ele>
        <time>2020-08-19T10:37:23Z</time>
        <sat>10</sat>
      </trkpt>
      <trkpt lat="42.372534" lon="-3.387071">
        <ele>1120.1</ele>
        <time>2020-08-19T10:37:33Z</time>
        <sat>9</sat>
      </trkpt>
      <trkpt lat="42.372585" lon="-3.387175">
        <ele>1119.5</ele>
        <time>2020-08-19T10:37:56Z</time>
        <sat>9</sat>
      </trkpt>
      <trkpt lat="42.372618" lon="-3.387288">
        <ele>1119.3</ele>
        <time>2020-08-19T10:38:03Z</time>
        <sat>9</sat>
      </trkpt>
      <trkpt lat="42.372652" lon="-3.387398">
        <ele>1118.9</ele>
        <time>2020-08-19T10:38:10Z</time>
        <sat>9</sat>
      </trkpt>
      <trkpt lat="42.372678" lon="-3.387522">
        <ele>1118.5</ele>
        <time>2020-08-19T10:38:17Z</time>
        <sat>9</sat>
      </trkpt>
      <trkpt lat="42.372715" lon="-3.387628">
        <ele>1118.1</ele>
        <time>2020-08-19T10:38:25Z</time>
        <sat>9</sat>
      </trkpt>
      <trkpt lat="42.372758" lon="-3.387732">
        <ele>1117.6</ele>
        <time>2020-08-19T10:39:09Z</time>
        <sat>9</sat>
      </trkpt>
      <trkpt lat="42.372781" lon="-3.387848">
        <ele>1117.5</ele>
        <time>2020-08-19T10:39:16Z</time>
        <sat>9</sat>
      </trkpt>
      <trkpt lat="42.372815" lon="-3.387947">
        <ele>1117.3</ele>
        <time>2020-08-19T10:39:22Z</time>
        <sat>9</sat>
      </trkpt>
      <trkpt lat="42.372857" lon="-3.388065">
        <ele>1116.9</ele>
        <time>2020-08-19T10:39:29Z</time>
        <sat>9</sat>
      </trkpt>
      <trkpt lat="42.372897" lon="-3.388177">
        <ele>1116.3</ele>
        <time>2020-08-19T10:39:36Z</time>
        <sat>11</sat>
      </trkpt>
      <trkpt lat="42.372925" lon="-3.388281">
        <ele>1115.6</ele>
        <time>2020-08-19T10:39:43Z</time>
        <sat>11</sat>
      </trkpt>
      <trkpt lat="42.372960" lon="-3.388396">
        <ele>1115.2</ele>
        <time>2020-08-19T10:39:50Z</time>
        <sat>11</sat>
      </trkpt>
      <trkpt lat="42.372993" lon="-3.388505">
        <ele>1114.7</ele>
        <time>2020-08-19T10:39:57Z</time>
        <sat>11</sat>
      </trkpt>
      <trkpt lat="42.373023" lon="-3.388618">
        <ele>1114.4</ele>
        <time>2020-08-19T10:40:03Z</time>
        <sat>11</sat>
      </trkpt>
      <trkpt lat="42.373064" lon="-3.388727">
        <ele>1114.0</ele>
        <time>2020-08-19T10:40:09Z</time>
        <sat>11</sat>
      </trkpt>
      <trkpt lat="42.373095" lon="-3.388839">
        <ele>1113.7</ele>
        <time>2020-08-19T10:40:15Z</time>
        <sat>11</sat>
      </trkpt>
      <trkpt lat="42.373124" lon="-3.388945">
        <ele>1113.4</ele>
        <time>2020-08-19T10:40:21Z</time>
        <sat>11</sat>
      </trkpt>
      <trkpt lat="42.373177" lon="-3.389044">
        <ele>1112.8</ele>
        <time>2020-08-19T10:40:40Z</time>
        <sat>11</sat>
      </trkpt>
      <trkpt lat="42.373216" lon="-3.389157">
        <ele>1112.4</ele>
        <time>2020-08-19T10:40:47Z</time>
        <sat>11</sat>
      </trkpt>
      <trkpt lat="42.373249" lon="-3.389275">
        <ele>1112.2</ele>
        <time>2020-08-19T10:40:54Z</time>
        <sat>11</sat>
      </trkpt>
      <trkpt lat="42.373283" lon="-3.389385">
        <ele>1112.0</ele>
        <time>2020-08-19T10:41:01Z</time>
        <sat>10</sat>
      </trkpt>
      <trkpt lat="42.373333" lon="-3.389491">
        <ele>1111.6</ele>
        <time>2020-08-19T10:41:08Z</time>
        <sat>11</sat>
      </trkpt>
      <trkpt lat="42.373371" lon="-3.389601">
        <ele>1111.4</ele>
        <time>2020-08-19T10:41:16Z</time>
        <sat>11</sat>
      </trkpt>
      <trkpt lat="42.373404" lon="-3.389711">
        <ele>1111.4</ele>
        <time>2020-08-19T10:41:24Z</time>
        <sat>11</sat>
      </trkpt>
      <trkpt lat="42.373437" lon="-3.389829">
        <ele>1111.1</ele>
        <time>2020-08-19T10:41:31Z</time>
        <sat>11</sat>
      </trkpt>
      <trkpt lat="42.373481" lon="-3.389929">
        <ele>1110.9</ele>
        <time>2020-08-19T10:41:37Z</time>
        <sat>11</sat>
      </trkpt>
      <trkpt lat="42.373520" lon="-3.390036">
        <ele>1110.8</ele>
        <time>2020-08-19T10:41:44Z</time>
        <sat>11</sat>
      </trkpt>
      <trkpt lat="42.373558" lon="-3.390135">
        <ele>1110.8</ele>
        <time>2020-08-19T10:41:50Z</time>
        <sat>11</sat>
      </trkpt>
      <trkpt lat="42.373598" lon="-3.390248">
        <ele>1110.7</ele>
        <time>2020-08-19T10:41:57Z</time>
        <sat>11</sat>
      </trkpt>
      <trkpt lat="42.373636" lon="-3.390347">
        <ele>1110.6</ele>
        <time>2020-08-19T10:42:03Z</time>
        <sat>11</sat>
      </trkpt>
      <trkpt lat="42.373662" lon="-3.390453">
        <ele>1110.4</ele>
        <time>2020-08-19T10:42:09Z</time>
        <sat>11</sat>
      </trkpt>
      <trkpt lat="42.373696" lon="-3.390553">
        <ele>1110.2</ele>
        <time>2020-08-19T10:42:15Z</time>
        <sat>11</sat>
      </trkpt>
      <trkpt lat="42.373721" lon="-3.390657">
        <ele>1110.1</ele>
        <time>2020-08-19T10:42:21Z</time>
        <sat>11</sat>
      </trkpt>
      <trkpt lat="42.373763" lon="-3.390770">
        <ele>1109.9</ele>
        <time>2020-08-19T10:42:28Z</time>
        <sat>11</sat>
      </trkpt>
      <trkpt lat="42.373794" lon="-3.390883">
        <ele>1109.9</ele>
        <time>2020-08-19T10:42:35Z</time>
        <sat>11</sat>
      </trkpt>
      <trkpt lat="42.373834" lon="-3.390984">
        <ele>1109.6</ele>
        <time>2020-08-19T10:42:42Z</time>
        <sat>11</sat>
      </trkpt>
      <trkpt lat="42.373863" lon="-3.391088">
        <ele>1109.3</ele>
        <time>2020-08-19T10:42:49Z</time>
        <sat>11</sat>
      </trkpt>
      <trkpt lat="42.373890" lon="-3.391196">
        <ele>1109.2</ele>
        <time>2020-08-19T10:42:56Z</time>
        <sat>10</sat>
      </trkpt>
      <trkpt lat="42.373934" lon="-3.391301">
        <ele>1108.9</ele>
        <time>2020-08-19T10:43:03Z</time>
        <sat>11</sat>
      </trkpt>
      <trkpt lat="42.373987" lon="-3.391391">
        <ele>1108.7</ele>
        <time>2020-08-19T10:43:09Z</time>
        <sat>11</sat>
      </trkpt>
      <trkpt lat="42.374028" lon="-3.391489">
        <ele>1108.4</ele>
        <time>2020-08-19T10:43:15Z</time>
        <sat>11</sat>
      </trkpt>
      <trkpt lat="42.374062" lon="-3.391604">
        <ele>1108.2</ele>
        <time>2020-08-19T10:43:22Z</time>
        <sat>11</sat>
      </trkpt>
      <trkpt lat="42.374081" lon="-3.391718">
        <ele>1107.9</ele>
        <time>2020-08-19T10:43:29Z</time>
        <sat>10</sat>
      </trkpt>
      <trkpt lat="42.374095" lon="-3.391829">
        <ele>1107.8</ele>
        <time>2020-08-19T10:43:35Z</time>
        <sat>11</sat>
      </trkpt>
      <trkpt lat="42.374113" lon="-3.391951">
        <ele>1107.6</ele>
        <time>2020-08-19T10:43:42Z</time>
        <sat>11</sat>
      </trkpt>
      <trkpt lat="42.374127" lon="-3.392063">
        <ele>1107.5</ele>
        <time>2020-08-19T10:43:48Z</time>
        <sat>11</sat>
      </trkpt>
      <trkpt lat="42.374135" lon="-3.392185">
        <ele>1107.4</ele>
        <time>2020-08-19T10:43:55Z</time>
        <sat>11</sat>
      </trkpt>
      <trkpt lat="42.374144" lon="-3.392294">
        <ele>1107.3</ele>
        <time>2020-08-19T10:44:01Z</time>
        <sat>11</sat>
      </trkpt>
      <trkpt lat="42.374156" lon="-3.392416">
        <ele>1107.1</ele>
        <time>2020-08-19T10:44:08Z</time>
        <sat>11</sat>
      </trkpt>
      <trkpt lat="42.374168" lon="-3.392533">
        <ele>1107.1</ele>
        <time>2020-08-19T10:44:15Z</time>
        <sat>11</sat>
      </trkpt>
      <trkpt lat="42.374170" lon="-3.392657">
        <ele>1107.1</ele>
        <time>2020-08-19T10:44:22Z</time>
        <sat>11</sat>
      </trkpt>
      <trkpt lat="42.374164" lon="-3.392774">
        <ele>1107.1</ele>
        <time>2020-08-19T10:44:29Z</time>
        <sat>11</sat>
      </trkpt>
      <trkpt lat="42.374172" lon="-3.392900">
        <ele>1106.8</ele>
        <time>2020-08-19T10:44:36Z</time>
        <sat>11</sat>
      </trkpt>
      <trkpt lat="42.374167" lon="-3.393010">
        <ele>1106.8</ele>
        <time>2020-08-19T10:44:42Z</time>
        <sat>11</sat>
      </trkpt>
      <trkpt lat="42.374165" lon="-3.393135">
        <ele>1106.8</ele>
        <time>2020-08-19T10:44:49Z</time>
        <sat>11</sat>
      </trkpt>
      <trkpt lat="42.374179" lon="-3.393243">
        <ele>1107.0</ele>
        <time>2020-08-19T10:44:55Z</time>
        <sat>11</sat>
      </trkpt>
      <trkpt lat="42.374186" lon="-3.393368">
        <ele>1106.9</ele>
        <time>2020-08-19T10:45:02Z</time>
        <sat>11</sat>
      </trkpt>
      <trkpt lat="42.374191" lon="-3.393491">
        <ele>1106.8</ele>
        <time>2020-08-19T10:45:09Z</time>
        <sat>11</sat>
      </trkpt>
      <trkpt lat="42.374203" lon="-3.393614">
        <ele>1106.7</ele>
        <time>2020-08-19T10:45:16Z</time>
        <sat>11</sat>
      </trkpt>
      <trkpt lat="42.374220" lon="-3.393722">
        <ele>1106.6</ele>
        <time>2020-08-19T10:45:22Z</time>
        <sat>11</sat>
      </trkpt>
      <trkpt lat="42.374228" lon="-3.393846">
        <ele>1106.3</ele>
        <time>2020-08-19T10:45:29Z</time>
        <sat>11</sat>
      </trkpt>
      <trkpt lat="42.374249" lon="-3.393958">
        <ele>1106.2</ele>
        <time>2020-08-19T10:45:35Z</time>
        <sat>11</sat>
      </trkpt>
      <trkpt lat="42.374262" lon="-3.394082">
        <ele>1106.0</ele>
        <time>2020-08-19T10:45:42Z</time>
        <sat>11</sat>
      </trkpt>
      <trkpt lat="42.374275" lon="-3.394193">
        <ele>1105.9</ele>
        <time>2020-08-19T10:45:48Z</time>
        <sat>10</sat>
      </trkpt>
      <trkpt lat="42.374291" lon="-3.394307">
        <ele>1105.7</ele>
        <time>2020-08-19T10:45:54Z</time>
        <sat>11</sat>
      </trkpt>
      <trkpt lat="42.374318" lon="-3.394417">
        <ele>1105.6</ele>
        <time>2020-08-19T10:46:00Z</time>
        <sat>11</sat>
      </trkpt>
      <trkpt lat="42.374355" lon="-3.394529">
        <ele>1105.1</ele>
        <time>2020-08-19T10:46:07Z</time>
        <sat>11</sat>
      </trkpt>
      <trkpt lat="42.374392" lon="-3.394627">
        <ele>1104.9</ele>
        <time>2020-08-19T10:46:13Z</time>
        <sat>10</sat>
      </trkpt>
      <trkpt lat="42.374426" lon="-3.394742">
        <ele>1104.8</ele>
        <time>2020-08-19T10:46:20Z</time>
        <sat>10</sat>
      </trkpt>
      <trkpt lat="42.374458" lon="-3.394846">
        <ele>1104.4</ele>
        <time>2020-08-19T10:46:26Z</time>
        <sat>10</sat>
      </trkpt>
      <trkpt lat="42.374488" lon="-3.394950">
        <ele>1104.3</ele>
        <time>2020-08-19T10:46:32Z</time>
        <sat>10</sat>
      </trkpt>
      <trkpt lat="42.374511" lon="-3.395068">
        <ele>1104.3</ele>
        <time>2020-08-19T10:46:39Z</time>
        <sat>10</sat>
      </trkpt>
      <trkpt lat="42.374532" lon="-3.395174">
        <ele>1104.5</ele>
        <time>2020-08-19T10:46:45Z</time>
        <sat>9</sat>
      </trkpt>
      <trkpt lat="42.374565" lon="-3.395290">
        <ele>1103.1</ele>
        <time>2020-08-19T10:46:52Z</time>
        <sat>10</sat>
      </trkpt>
      <trkpt lat="42.374603" lon="-3.395392">
        <ele>1104.2</ele>
        <time>2020-08-19T10:46:58Z</time>
        <sat>9</sat>
      </trkpt>
      <trkpt lat="42.374629" lon="-3.395507">
        <ele>1104.9</ele>
        <time>2020-08-19T10:47:05Z</time>
        <sat>8</sat>
      </trkpt>
      <trkpt lat="42.374663" lon="-3.395610">
        <ele>1103.1</ele>
        <time>2020-08-19T10:47:11Z</time>
        <sat>9</sat>
      </trkpt>
      <trkpt lat="42.374700" lon="-3.395713">
        <ele>1105.1</ele>
        <time>2020-08-19T10:47:17Z</time>
        <sat>9</sat>
      </trkpt>
      <trkpt lat="42.374717" lon="-3.395832">
        <ele>1105.1</ele>
        <time>2020-08-19T10:47:24Z</time>
        <sat>9</sat>
      </trkpt>
      <trkpt lat="42.374750" lon="-3.395935">
        <ele>1104.8</ele>
        <time>2020-08-19T10:47:30Z</time>
        <sat>9</sat>
      </trkpt>
      <trkpt lat="42.374775" lon="-3.396046">
        <ele>1104.5</ele>
        <time>2020-08-19T10:47:36Z</time>
        <sat>9</sat>
      </trkpt>
      <trkpt lat="42.374798" lon="-3.396163">
        <ele>1104.2</ele>
        <time>2020-08-19T10:47:43Z</time>
        <sat>9</sat>
      </trkpt>
      <trkpt lat="42.374821" lon="-3.396283">
        <ele>1104.0</ele>
        <time>2020-08-19T10:47:50Z</time>
        <sat>9</sat>
      </trkpt>
      <trkpt lat="42.374831" lon="-3.396392">
        <ele>1104.0</ele>
        <time>2020-08-19T10:47:56Z</time>
        <sat>9</sat>
      </trkpt>
      <trkpt lat="42.374851" lon="-3.396513">
        <ele>1103.9</ele>
        <time>2020-08-19T10:48:03Z</time>
        <sat>10</sat>
      </trkpt>
      <trkpt lat="42.374878" lon="-3.396636">
        <ele>1103.9</ele>
        <time>2020-08-19T10:48:10Z</time>
        <sat>10</sat>
      </trkpt>
      <trkpt lat="42.374910" lon="-3.396744">
        <ele>1103.8</ele>
        <time>2020-08-19T10:48:16Z</time>
        <sat>10</sat>
      </trkpt>
      <trkpt lat="42.374926" lon="-3.396853">
        <ele>1103.6</ele>
        <time>2020-08-19T10:48:22Z</time>
        <sat>9</sat>
      </trkpt>
      <trkpt lat="42.374953" lon="-3.396975">
        <ele>1103.2</ele>
        <time>2020-08-19T10:48:29Z</time>
        <sat>10</sat>
      </trkpt>
      <trkpt lat="42.374969" lon="-3.397101">
        <ele>1103.3</ele>
        <time>2020-08-19T10:48:36Z</time>
        <sat>9</sat>
      </trkpt>
      <trkpt lat="42.374985" lon="-3.397208">
        <ele>1103.4</ele>
        <time>2020-08-19T10:48:42Z</time>
        <sat>10</sat>
      </trkpt>
      <trkpt lat="42.375016" lon="-3.397316">
        <ele>1103.4</ele>
        <time>2020-08-19T10:48:48Z</time>
        <sat>8</sat>
      </trkpt>
      <trkpt lat="42.375042" lon="-3.397435">
        <ele>1103.3</ele>
        <time>2020-08-19T10:48:55Z</time>
        <sat>10</sat>
      </trkpt>
      <trkpt lat="42.375073" lon="-3.397547">
        <ele>1103.1</ele>
        <time>2020-08-19T10:49:02Z</time>
        <sat>8</sat>
      </trkpt>
      <trkpt lat="42.375080" lon="-3.397659">
        <ele>1102.9</ele>
        <time>2020-08-19T10:49:08Z</time>
        <sat>9</sat>
      </trkpt>
      <trkpt lat="42.375103" lon="-3.397779">
        <ele>1102.7</ele>
        <time>2020-08-19T10:49:15Z</time>
        <sat>9</sat>
      </trkpt>
      <trkpt lat="42.375123" lon="-3.397891">
        <ele>1102.6</ele>
        <time>2020-08-19T10:49:21Z</time>
        <sat>9</sat>
      </trkpt>
      <trkpt lat="42.375153" lon="-3.397994">
        <ele>1102.7</ele>
        <time>2020-08-19T10:49:27Z</time>
        <sat>9</sat>
      </trkpt>
      <trkpt lat="42.375168" lon="-3.398102">
        <ele>1102.6</ele>
        <time>2020-08-19T10:49:33Z</time>
        <sat>9</sat>
      </trkpt>
      <trkpt lat="42.375194" lon="-3.398218">
        <ele>1102.5</ele>
        <time>2020-08-19T10:49:40Z</time>
        <sat>9</sat>
      </trkpt>
      <trkpt lat="42.375215" lon="-3.398339">
        <ele>1102.3</ele>
        <time>2020-08-19T10:49:47Z</time>
        <sat>9</sat>
      </trkpt>
      <trkpt lat="42.375240" lon="-3.398456">
        <ele>1102.6</ele>
        <time>2020-08-19T10:49:54Z</time>
        <sat>9</sat>
      </trkpt>
      <trkpt lat="42.375268" lon="-3.398578">
        <ele>1102.8</ele>
        <time>2020-08-19T10:50:01Z</time>
        <sat>9</sat>
      </trkpt>
      <trkpt lat="42.375290" lon="-3.398685">
        <ele>1102.6</ele>
        <time>2020-08-19T10:50:07Z</time>
        <sat>9</sat>
      </trkpt>
      <trkpt lat="42.375288" lon="-3.398796">
        <ele>1102.1</ele>
        <time>2020-08-19T10:50:14Z</time>
        <sat>9</sat>
      </trkpt>
      <trkpt lat="42.375318" lon="-3.398911">
        <ele>1102.0</ele>
        <time>2020-08-19T10:50:20Z</time>
        <sat>9</sat>
      </trkpt>
      <trkpt lat="42.375309" lon="-3.399020">
        <ele>1101.7</ele>
        <time>2020-08-19T10:50:27Z</time>
        <sat>9</sat>
      </trkpt>
      <trkpt lat="42.375340" lon="-3.399136">
        <ele>1101.9</ele>
        <time>2020-08-19T10:50:34Z</time>
        <sat>9</sat>
      </trkpt>
      <trkpt lat="42.375359" lon="-3.399244">
        <ele>1102.0</ele>
        <time>2020-08-19T10:50:40Z</time>
        <sat>9</sat>
      </trkpt>
      <trkpt lat="42.375400" lon="-3.399357">
        <ele>1102.2</ele>
        <time>2020-08-19T10:50:46Z</time>
        <sat>9</sat>
      </trkpt>
      <trkpt lat="42.375417" lon="-3.399470">
        <ele>1101.9</ele>
        <time>2020-08-19T10:50:52Z</time>
        <sat>9</sat>
      </trkpt>
      <trkpt lat="42.375455" lon="-3.399575">
        <ele>1101.7</ele>
        <time>2020-08-19T10:50:58Z</time>
        <sat>9</sat>
      </trkpt>
      <trkpt lat="42.375476" lon="-3.399694">
        <ele>1101.4</ele>
        <time>2020-08-19T10:51:05Z</time>
        <sat>9</sat>
      </trkpt>
      <trkpt lat="42.375502" lon="-3.399801">
        <ele>1101.3</ele>
        <time>2020-08-19T10:51:11Z</time>
        <sat>9</sat>
      </trkpt>
      <trkpt lat="42.375512" lon="-3.399911">
        <ele>1100.9</ele>
        <time>2020-08-19T10:51:17Z</time>
        <sat>9</sat>
      </trkpt>
      <trkpt lat="42.375531" lon="-3.400021">
        <ele>1100.5</ele>
        <time>2020-08-19T10:51:23Z</time>
        <sat>9</sat>
      </trkpt>
      <trkpt lat="42.375544" lon="-3.400131">
        <ele>1100.1</ele>
        <time>2020-08-19T10:51:29Z</time>
        <sat>9</sat>
      </trkpt>
      <trkpt lat="42.375563" lon="-3.400245">
        <ele>1099.6</ele>
        <time>2020-08-19T10:51:35Z</time>
        <sat>8</sat>
      </trkpt>
      <trkpt lat="42.375585" lon="-3.400365">
        <ele>1099.4</ele>
        <time>2020-08-19T10:51:42Z</time>
        <sat>9</sat>
      </trkpt>
      <trkpt lat="42.375614" lon="-3.400482">
        <ele>1099.4</ele>
        <time>2020-08-19T10:51:49Z</time>
        <sat>9</sat>
      </trkpt>
      <trkpt lat="42.375630" lon="-3.400606">
        <ele>1099.3</ele>
        <time>2020-08-19T10:51:56Z</time>
        <sat>9</sat>
      </trkpt>
      <trkpt lat="42.375662" lon="-3.400728">
        <ele>1099.2</ele>
        <time>2020-08-19T10:52:03Z</time>
        <sat>9</sat>
      </trkpt>
      <trkpt lat="42.375685" lon="-3.400849">
        <ele>1099.2</ele>
        <time>2020-08-19T10:52:10Z</time>
        <sat>8</sat>
      </trkpt>
      <trkpt lat="42.375701" lon="-3.400973">
        <ele>1099.1</ele>
        <time>2020-08-19T10:52:17Z</time>
        <sat>9</sat>
      </trkpt>
      <trkpt lat="42.375722" lon="-3.401089">
        <ele>1098.6</ele>
        <time>2020-08-19T10:52:24Z</time>
        <sat>10</sat>
      </trkpt>
      <trkpt lat="42.375742" lon="-3.401211">
        <ele>1098.5</ele>
        <time>2020-08-19T10:52:31Z</time>
        <sat>10</sat>
      </trkpt>
      <trkpt lat="42.375760" lon="-3.401332">
        <ele>1098.4</ele>
        <time>2020-08-19T10:52:38Z</time>
        <sat>9</sat>
      </trkpt>
      <trkpt lat="42.375791" lon="-3.401449">
        <ele>1098.4</ele>
        <time>2020-08-19T10:52:45Z</time>
        <sat>10</sat>
      </trkpt>
      <trkpt lat="42.375808" lon="-3.401558">
        <ele>1098.4</ele>
        <time>2020-08-19T10:52:51Z</time>
        <sat>9</sat>
      </trkpt>
      <trkpt lat="42.375835" lon="-3.401676">
        <ele>1098.4</ele>
        <time>2020-08-19T10:52:58Z</time>
        <sat>9</sat>
      </trkpt>
      <trkpt lat="42.375858" lon="-3.401791">
        <ele>1098.1</ele>
        <time>2020-08-19T10:53:05Z</time>
        <sat>9</sat>
      </trkpt>
      <trkpt lat="42.375880" lon="-3.401914">
        <ele>1097.8</ele>
        <time>2020-08-19T10:53:12Z</time>
        <sat>9</sat>
      </trkpt>
      <trkpt lat="42.375891" lon="-3.402032">
        <ele>1097.6</ele>
        <time>2020-08-19T10:53:19Z</time>
        <sat>9</sat>
      </trkpt>
      <trkpt lat="42.375916" lon="-3.402151">
        <ele>1097.5</ele>
        <time>2020-08-19T10:53:26Z</time>
        <sat>9</sat>
      </trkpt>
      <trkpt lat="42.375940" lon="-3.402274">
        <ele>1097.6</ele>
        <time>2020-08-19T10:53:33Z</time>
        <sat>10</sat>
      </trkpt>
      <trkpt lat="42.375969" lon="-3.402382">
        <ele>1097.6</ele>
        <time>2020-08-19T10:53:42Z</time>
        <sat>9</sat>
      </trkpt>
      <trkpt lat="42.375988" lon="-3.402503">
        <ele>1097.5</ele>
        <time>2020-08-19T10:53:50Z</time>
        <sat>9</sat>
      </trkpt>
      <trkpt lat="42.376002" lon="-3.402615">
        <ele>1097.4</ele>
        <time>2020-08-19T10:53:57Z</time>
        <sat>9</sat>
      </trkpt>
      <trkpt lat="42.376026" lon="-3.402737">
        <ele>1097.3</ele>
        <time>2020-08-19T10:54:04Z</time>
        <sat>9</sat>
      </trkpt>
      <trkpt lat="42.376048" lon="-3.402857">
        <ele>1097.4</ele>
        <time>2020-08-19T10:54:11Z</time>
        <sat>9</sat>
      </trkpt>
      <trkpt lat="42.376078" lon="-3.402975">
        <ele>1097.2</ele>
        <time>2020-08-19T10:54:18Z</time>
        <sat>9</sat>
      </trkpt>
      <trkpt lat="42.376099" lon="-3.403090">
        <ele>1097.0</ele>
        <time>2020-08-19T10:54:25Z</time>
        <sat>9</sat>
      </trkpt>
      <trkpt lat="42.376114" lon="-3.403208">
        <ele>1097.2</ele>
        <time>2020-08-19T10:54:32Z</time>
        <sat>9</sat>
      </trkpt>
      <trkpt lat="42.376146" lon="-3.403326">
        <ele>1097.1</ele>
        <time>2020-08-19T10:54:39Z</time>
        <sat>10</sat>
      </trkpt>
      <trkpt lat="42.376168" lon="-3.403434">
        <ele>1097.0</ele>
        <time>2020-08-19T10:54:45Z</time>
        <sat>10</sat>
      </trkpt>
      <trkpt lat="42.376185" lon="-3.403555">
        <ele>1097.1</ele>
        <time>2020-08-19T10:54:52Z</time>
        <sat>9</sat>
      </trkpt>
      <trkpt lat="42.376204" lon="-3.403662">
        <ele>1096.8</ele>
        <time>2020-08-19T10:54:58Z</time>
        <sat>10</sat>
      </trkpt>
      <trkpt lat="42.376227" lon="-3.403779">
        <ele>1096.7</ele>
        <time>2020-08-19T10:55:05Z</time>
        <sat>10</sat>
      </trkpt>
      <trkpt lat="42.376254" lon="-3.403898">
        <ele>1096.6</ele>
        <time>2020-08-19T10:55:12Z</time>
        <sat>10</sat>
      </trkpt>
      <trkpt lat="42.376272" lon="-3.404007">
        <ele>1096.5</ele>
        <time>2020-08-19T10:55:18Z</time>
        <sat>10</sat>
      </trkpt>
      <trkpt lat="42.376291" lon="-3.404114">
        <ele>1096.3</ele>
        <time>2020-08-19T10:55:24Z</time>
        <sat>9</sat>
      </trkpt>
      <trkpt lat="42.376310" lon="-3.404239">
        <ele>1096.1</ele>
        <time>2020-08-19T10:55:31Z</time>
        <sat>10</sat>
      </trkpt>
      <trkpt lat="42.376324" lon="-3.404351">
        <ele>1095.9</ele>
        <time>2020-08-19T10:55:38Z</time>
        <sat>10</sat>
      </trkpt>
      <trkpt lat="42.376337" lon="-3.404471">
        <ele>1095.6</ele>
        <time>2020-08-19T10:55:53Z</time>
        <sat>10</sat>
      </trkpt>
      <trkpt lat="42.376352" lon="-3.404586">
        <ele>1095.5</ele>
        <time>2020-08-19T10:56:00Z</time>
        <sat>10</sat>
      </trkpt>
      <trkpt lat="42.376381" lon="-3.404704">
        <ele>1095.4</ele>
        <time>2020-08-19T10:56:07Z</time>
        <sat>10</sat>
      </trkpt>
      <trkpt lat="42.376398" lon="-3.404828">
        <ele>1095.4</ele>
        <time>2020-08-19T10:56:14Z</time>
        <sat>10</sat>
      </trkpt>
      <trkpt lat="42.376409" lon="-3.404951">
        <ele>1095.1</ele>
        <time>2020-08-19T10:56:21Z</time>
        <sat>9</sat>
      </trkpt>
      <trkpt lat="42.376425" lon="-3.405068">
        <ele>1095.0</ele>
        <time>2020-08-19T10:56:28Z</time>
        <sat>10</sat>
      </trkpt>
      <trkpt lat="42.376444" lon="-3.405184">
        <ele>1094.6</ele>
        <time>2020-08-19T10:56:35Z</time>
        <sat>10</sat>
      </trkpt>
      <trkpt lat="42.376464" lon="-3.405304">
        <ele>1094.5</ele>
        <time>2020-08-19T10:56:42Z</time>
        <sat>10</sat>
      </trkpt>
      <trkpt lat="42.376481" lon="-3.405423">
        <ele>1094.2</ele>
        <time>2020-08-19T10:56:49Z</time>
        <sat>10</sat>
      </trkpt>
      <trkpt lat="42.376501" lon="-3.405533">
        <ele>1094.0</ele>
        <time>2020-08-19T10:56:55Z</time>
        <sat>10</sat>
      </trkpt>
      <trkpt lat="42.376523" lon="-3.405651">
        <ele>1093.9</ele>
        <time>2020-08-19T10:57:02Z</time>
        <sat>10</sat>
      </trkpt>
      <trkpt lat="42.376543" lon="-3.405772">
        <ele>1093.6</ele>
        <time>2020-08-19T10:57:09Z</time>
        <sat>10</sat>
      </trkpt>
      <trkpt lat="42.376562" lon="-3.405887">
        <ele>1093.4</ele>
        <time>2020-08-19T10:57:16Z</time>
        <sat>9</sat>
      </trkpt>
      <trkpt lat="42.376573" lon="-3.406008">
        <ele>1093.3</ele>
        <time>2020-08-19T10:57:23Z</time>
        <sat>10</sat>
      </trkpt>
      <trkpt lat="42.376586" lon="-3.406121">
        <ele>1093.0</ele>
        <time>2020-08-19T10:57:30Z</time>
        <sat>10</sat>
      </trkpt>
      <trkpt lat="42.376609" lon="-3.406241">
        <ele>1093.0</ele>
        <time>2020-08-19T10:57:38Z</time>
        <sat>10</sat>
      </trkpt>
      <trkpt lat="42.376634" lon="-3.406357">
        <ele>1092.9</ele>
        <time>2020-08-19T10:57:46Z</time>
        <sat>10</sat>
      </trkpt>
      <trkpt lat="42.376654" lon="-3.406473">
        <ele>1092.6</ele>
        <time>2020-08-19T10:57:53Z</time>
        <sat>10</sat>
      </trkpt>
      <trkpt lat="42.376675" lon="-3.406597">
        <ele>1092.4</ele>
        <time>2020-08-19T10:58:00Z</time>
        <sat>10</sat>
      </trkpt>
      <trkpt lat="42.376705" lon="-3.406707">
        <ele>1092.4</ele>
        <time>2020-08-19T10:58:06Z</time>
        <sat>10</sat>
      </trkpt>
      <trkpt lat="42.376714" lon="-3.406831">
        <ele>1092.3</ele>
        <time>2020-08-19T10:58:13Z</time>
        <sat>10</sat>
      </trkpt>
      <trkpt lat="42.376736" lon="-3.406943">
        <ele>1092.3</ele>
        <time>2020-08-19T10:58:19Z</time>
        <sat>10</sat>
      </trkpt>
      <trkpt lat="42.376752" lon="-3.407067">
        <ele>1092.0</ele>
        <time>2020-08-19T10:58:26Z</time>
        <sat>10</sat>
      </trkpt>
      <trkpt lat="42.376774" lon="-3.407189">
        <ele>1091.7</ele>
        <time>2020-08-19T10:58:33Z</time>
        <sat>10</sat>
      </trkpt>
      <trkpt lat="42.376795" lon="-3.407309">
        <ele>1091.7</ele>
        <time>2020-08-19T10:58:40Z</time>
        <sat>10</sat>
      </trkpt>
      <trkpt lat="42.376804" lon="-3.407433">
        <ele>1091.6</ele>
        <time>2020-08-19T10:58:47Z</time>
        <sat>10</sat>
      </trkpt>
      <trkpt lat="42.376830" lon="-3.407538">
        <ele>1091.3</ele>
        <time>2020-08-19T10:58:53Z</time>
        <sat>10</sat>
      </trkpt>
      <trkpt lat="42.376847" lon="-3.407664">
        <ele>1091.2</ele>
        <time>2020-08-19T10:59:00Z</time>
        <sat>10</sat>
      </trkpt>
      <trkpt lat="42.376872" lon="-3.407786">
        <ele>1091.1</ele>
        <time>2020-08-19T10:59:07Z</time>
        <sat>10</sat>
      </trkpt>
      <trkpt lat="42.376890" lon="-3.407894">
        <ele>1091.0</ele>
        <time>2020-08-19T10:59:13Z</time>
        <sat>10</sat>
      </trkpt>
      <trkpt lat="42.376902" lon="-3.408012">
        <ele>1090.7</ele>
        <time>2020-08-19T10:59:20Z</time>
        <sat>10</sat>
      </trkpt>
      <trkpt lat="42.376926" lon="-3.408129">
        <ele>1090.5</ele>
        <time>2020-08-19T10:59:27Z</time>
        <sat>10</sat>
      </trkpt>
      <trkpt lat="42.376952" lon="-3.408244">
        <ele>1090.2</ele>
        <time>2020-08-19T10:59:34Z</time>
        <sat>10</sat>
      </trkpt>
      <trkpt lat="42.376972" lon="-3.408364">
        <ele>1089.7</ele>
        <time>2020-08-19T10:59:41Z</time>
        <sat>10</sat>
      </trkpt>
      <trkpt lat="42.376986" lon="-3.408484">
        <ele>1089.6</ele>
        <time>2020-08-19T10:59:48Z</time>
        <sat>10</sat>
      </trkpt>
      <trkpt lat="42.377007" lon="-3.408604">
        <ele>1089.5</ele>
        <time>2020-08-19T10:59:55Z</time>
        <sat>10</sat>
      </trkpt>
      <trkpt lat="42.377029" lon="-3.408721">
        <ele>1089.3</ele>
        <time>2020-08-19T11:00:02Z</time>
        <sat>10</sat>
      </trkpt>
      <trkpt lat="42.377054" lon="-3.408827">
        <ele>1089.1</ele>
        <time>2020-08-19T11:00:08Z</time>
        <sat>10</sat>
      </trkpt>
      <trkpt lat="42.377065" lon="-3.408951">
        <ele>1088.8</ele>
        <time>2020-08-19T11:00:15Z</time>
        <sat>10</sat>
      </trkpt>
      <trkpt lat="42.377087" lon="-3.409069">
        <ele>1088.4</ele>
        <time>2020-08-19T11:00:22Z</time>
        <sat>10</sat>
      </trkpt>
      <trkpt lat="42.377108" lon="-3.409185">
        <ele>1088.2</ele>
        <time>2020-08-19T11:00:29Z</time>
        <sat>10</sat>
      </trkpt>
      <trkpt lat="42.377123" lon="-3.409305">
        <ele>1087.8</ele>
        <time>2020-08-19T11:00:36Z</time>
        <sat>10</sat>
      </trkpt>
      <trkpt lat="42.377133" lon="-3.409422">
        <ele>1087.5</ele>
        <time>2020-08-19T11:00:43Z</time>
        <sat>9</sat>
      </trkpt>
      <trkpt lat="42.377154" lon="-3.409534">
        <ele>1087.1</ele>
        <time>2020-08-19T11:00:50Z</time>
        <sat>9</sat>
      </trkpt>
      <trkpt lat="42.377172" lon="-3.409652">
        <ele>1086.5</ele>
        <time>2020-08-19T11:00:57Z</time>
        <sat>10</sat>
      </trkpt>
      <trkpt lat="42.377195" lon="-3.409766">
        <ele>1085.8</ele>
        <time>2020-08-19T11:01:07Z</time>
        <sat>9</sat>
      </trkpt>
      <trkpt lat="42.377228" lon="-3.409873">
        <ele>1084.7</ele>
        <time>2020-08-19T11:01:20Z</time>
        <sat>10</sat>
      </trkpt>
      <trkpt lat="42.377260" lon="-3.409983">
        <ele>1084.0</ele>
        <time>2020-08-19T11:01:28Z</time>
        <sat>10</sat>
      </trkpt>
      <trkpt lat="42.377291" lon="-3.410095">
        <ele>1083.3</ele>
        <time>2020-08-19T11:01:35Z</time>
        <sat>10</sat>
      </trkpt>
      <trkpt lat="42.377314" lon="-3.410211">
        <ele>1082.6</ele>
        <time>2020-08-19T11:01:42Z</time>
        <sat>10</sat>
      </trkpt>
      <trkpt lat="42.377318" lon="-3.410335">
        <ele>1082.2</ele>
        <time>2020-08-19T11:01:49Z</time>
        <sat>10</sat>
      </trkpt>
      <trkpt lat="42.377323" lon="-3.410456">
        <ele>1081.7</ele>
        <time>2020-08-19T11:01:56Z</time>
        <sat>10</sat>
      </trkpt>
      <trkpt lat="42.377326" lon="-3.410580">
        <ele>1081.0</ele>
        <time>2020-08-19T11:02:03Z</time>
        <sat>10</sat>
      </trkpt>
      <trkpt lat="42.377312" lon="-3.410691">
        <ele>1080.6</ele>
        <time>2020-08-19T11:02:10Z</time>
        <sat>9</sat>
      </trkpt>
      <trkpt lat="42.377289" lon="-3.410798">
        <ele>1080.0</ele>
        <time>2020-08-19T11:02:17Z</time>
        <sat>9</sat>
      </trkpt>
      <trkpt lat="42.377292" lon="-3.410913">
        <ele>1079.5</ele>
        <time>2020-08-19T11:02:26Z</time>
        <sat>10</sat>
      </trkpt>
      <trkpt lat="42.377285" lon="-3.411040">
        <ele>1079.0</ele>
        <time>2020-08-19T11:02:33Z</time>
        <sat>10</sat>
      </trkpt>
      <trkpt lat="42.377282" lon="-3.411167">
        <ele>1078.6</ele>
        <time>2020-08-19T11:02:40Z</time>
        <sat>10</sat>
      </trkpt>
      <trkpt lat="42.377287" lon="-3.411276">
        <ele>1078.0</ele>
        <time>2020-08-19T11:02:46Z</time>
        <sat>10</sat>
      </trkpt>
      <trkpt lat="42.377287" lon="-3.411400">
        <ele>1077.5</ele>
        <time>2020-08-19T11:02:53Z</time>
        <sat>10</sat>
      </trkpt>
      <trkpt lat="42.377280" lon="-3.411526">
        <ele>1077.2</ele>
        <time>2020-08-19T11:03:00Z</time>
        <sat>10</sat>
      </trkpt>
      <trkpt lat="42.377267" lon="-3.411646">
        <ele>1076.5</ele>
        <time>2020-08-19T11:03:07Z</time>
        <sat>10</sat>
      </trkpt>
      <trkpt lat="42.377272" lon="-3.411760">
        <ele>1076.2</ele>
        <time>2020-08-19T11:03:14Z</time>
        <sat>10</sat>
      </trkpt>
      <trkpt lat="42.377273" lon="-3.411877">
        <ele>1075.8</ele>
        <time>2020-08-19T11:03:21Z</time>
        <sat>10</sat>
      </trkpt>
      <trkpt lat="42.377265" lon="-3.411996">
        <ele>1075.2</ele>
        <time>2020-08-19T11:03:28Z</time>
        <sat>10</sat>
      </trkpt>
      <trkpt lat="42.377268" lon="-3.412120">
        <ele>1074.7</ele>
        <time>2020-08-19T11:03:35Z</time>
        <sat>10</sat>
      </trkpt>
      <trkpt lat="42.377264" lon="-3.412239">
        <ele>1074.2</ele>
        <time>2020-08-19T11:03:42Z</time>
        <sat>10</sat>
      </trkpt>
      <trkpt lat="42.377261" lon="-3.412362">
        <ele>1073.6</ele>
        <time>2020-08-19T11:03:49Z</time>
        <sat>10</sat>
      </trkpt>
      <trkpt lat="42.377265" lon="-3.412485">
        <ele>1073.1</ele>
        <time>2020-08-19T11:03:56Z</time>
        <sat>10</sat>
      </trkpt>
      <trkpt lat="42.377281" lon="-3.412604">
        <ele>1072.5</ele>
        <time>2020-08-19T11:04:03Z</time>
        <sat>10</sat>
      </trkpt>
      <trkpt lat="42.377288" lon="-3.412721">
        <ele>1072.1</ele>
        <time>2020-08-19T11:04:10Z</time>
        <sat>10</sat>
      </trkpt>
      <trkpt lat="42.377302" lon="-3.412840">
        <ele>1071.9</ele>
        <time>2020-08-19T11:04:17Z</time>
        <sat>10</sat>
      </trkpt>
      <trkpt lat="42.377322" lon="-3.412954">
        <ele>1071.5</ele>
        <time>2020-08-19T11:04:24Z</time>
        <sat>10</sat>
      </trkpt>
      <trkpt lat="42.377336" lon="-3.413073">
        <ele>1071.4</ele>
        <time>2020-08-19T11:04:31Z</time>
        <sat>10</sat>
      </trkpt>
      <trkpt lat="42.377348" lon="-3.413193">
        <ele>1071.4</ele>
        <time>2020-08-19T11:04:39Z</time>
        <sat>10</sat>
      </trkpt>
      <trkpt lat="42.377359" lon="-3.413308">
        <ele>1071.3</ele>
        <time>2020-08-19T11:04:45Z</time>
        <sat>10</sat>
      </trkpt>
      <trkpt lat="42.377378" lon="-3.413418">
        <ele>1071.1</ele>
        <time>2020-08-19T11:04:51Z</time>
        <sat>10</sat>
      </trkpt>
      <trkpt lat="42.377390" lon="-3.413534">
        <ele>1071.0</ele>
        <time>2020-08-19T11:04:58Z</time>
        <sat>9</sat>
      </trkpt>
      <trkpt lat="42.377410" lon="-3.413644">
        <ele>1070.9</ele>
        <time>2020-08-19T11:05:04Z</time>
        <sat>10</sat>
      </trkpt>
      <trkpt lat="42.377423" lon="-3.413766">
        <ele>1070.9</ele>
        <time>2020-08-19T11:05:11Z</time>
        <sat>10</sat>
      </trkpt>
      <trkpt lat="42.377447" lon="-3.413880">
        <ele>1070.7</ele>
        <time>2020-08-19T11:05:18Z</time>
        <sat>10</sat>
      </trkpt>
      <trkpt lat="42.377456" lon="-3.413989">
        <ele>1070.5</ele>
        <time>2020-08-19T11:05:24Z</time>
        <sat>10</sat>
      </trkpt>
      <trkpt lat="42.377472" lon="-3.414111">
        <ele>1070.3</ele>
        <time>2020-08-19T11:05:31Z</time>
        <sat>10</sat>
      </trkpt>
      <trkpt lat="42.377488" lon="-3.414221">
        <ele>1070.1</ele>
        <time>2020-08-19T11:05:37Z</time>
        <sat>10</sat>
      </trkpt>
      <trkpt lat="42.377503" lon="-3.414338">
        <ele>1069.9</ele>
        <time>2020-08-19T11:05:44Z</time>
        <sat>9</sat>
      </trkpt>
      <trkpt lat="42.377519" lon="-3.414463">
        <ele>1069.7</ele>
        <time>2020-08-19T11:05:51Z</time>
        <sat>10</sat>
      </trkpt>
      <trkpt lat="42.377526" lon="-3.414574">
        <ele>1069.5</ele>
        <time>2020-08-19T11:05:57Z</time>
        <sat>9</sat>
      </trkpt>
      <trkpt lat="42.377541" lon="-3.414699">
        <ele>1069.1</ele>
        <time>2020-08-19T11:06:04Z</time>
        <sat>10</sat>
      </trkpt>
      <trkpt lat="42.377565" lon="-3.414811">
        <ele>1069.0</ele>
        <time>2020-08-19T11:06:10Z</time>
        <sat>10</sat>
      </trkpt>
      <trkpt lat="42.377581" lon="-3.414934">
        <ele>1068.9</ele>
        <time>2020-08-19T11:06:17Z</time>
        <sat>10</sat>
      </trkpt>
      <trkpt lat="42.377602" lon="-3.415041">
        <ele>1068.8</ele>
        <time>2020-08-19T11:06:23Z</time>
        <sat>10</sat>
      </trkpt>
      <trkpt lat="42.377613" lon="-3.415164">
        <ele>1068.7</ele>
        <time>2020-08-19T11:06:30Z</time>
        <sat>10</sat>
      </trkpt>
      <trkpt lat="42.377617" lon="-3.415284">
        <ele>1068.5</ele>
        <time>2020-08-19T11:06:37Z</time>
        <sat>10</sat>
      </trkpt>
      <trkpt lat="42.377638" lon="-3.415403">
        <ele>1068.3</ele>
        <time>2020-08-19T11:06:44Z</time>
        <sat>10</sat>
      </trkpt>
      <trkpt lat="42.377655" lon="-3.415521">
        <ele>1067.7</ele>
        <time>2020-08-19T11:06:51Z</time>
        <sat>9</sat>
      </trkpt>
      <trkpt lat="42.377702" lon="-3.415628">
        <ele>1067.3</ele>
        <time>2020-08-19T11:07:04Z</time>
        <sat>9</sat>
      </trkpt>
      <trkpt lat="42.377723" lon="-3.415736">
        <ele>1067.9</ele>
        <time>2020-08-19T11:07:11Z</time>
        <sat>9</sat>
      </trkpt>
      <trkpt lat="42.377722" lon="-3.415860">
        <ele>1067.9</ele>
        <time>2020-08-19T11:07:18Z</time>
        <sat>9</sat>
      </trkpt>
      <trkpt lat="42.377731" lon="-3.415980">
        <ele>1067.9</ele>
        <time>2020-08-19T11:07:25Z</time>
        <sat>9</sat>
      </trkpt>
      <trkpt lat="42.377755" lon="-3.416104">
        <ele>1067.7</ele>
        <time>2020-08-19T11:07:32Z</time>
        <sat>9</sat>
      </trkpt>
      <trkpt lat="42.377772" lon="-3.416213">
        <ele>1067.7</ele>
        <time>2020-08-19T11:07:38Z</time>
        <sat>9</sat>
      </trkpt>
      <trkpt lat="42.377791" lon="-3.416331">
        <ele>1067.7</ele>
        <time>2020-08-19T11:07:45Z</time>
        <sat>9</sat>
      </trkpt>
      <trkpt lat="42.377841" lon="-3.416435">
        <ele>1067.7</ele>
        <time>2020-08-19T11:07:52Z</time>
        <sat>9</sat>
      </trkpt>
      <trkpt lat="42.377860" lon="-3.416557">
        <ele>1065.6</ele>
        <time>2020-08-19T11:08:00Z</time>
        <sat>9</sat>
      </trkpt>
      <trkpt lat="42.377880" lon="-3.416666">
        <ele>1067.8</ele>
        <time>2020-08-19T11:08:06Z</time>
        <sat>9</sat>
      </trkpt>
      <trkpt lat="42.377889" lon="-3.416780">
        <ele>1068.0</ele>
        <time>2020-08-19T11:08:18Z</time>
        <sat>9</sat>
      </trkpt>
      <trkpt lat="42.377899" lon="-3.416896">
        <ele>1066.8</ele>
        <time>2020-08-19T11:08:49Z</time>
        <sat>9</sat>
      </trkpt>
      <trkpt lat="42.377888" lon="-3.417005">
        <ele>1066.5</ele>
        <time>2020-08-19T11:08:59Z</time>
        <sat>9</sat>
      </trkpt>
      <trkpt lat="42.377891" lon="-3.417128">
        <ele>1066.1</ele>
        <time>2020-08-19T11:09:09Z</time>
        <sat>9</sat>
      </trkpt>
      <trkpt lat="42.377914" lon="-3.417235">
        <ele>1065.6</ele>
        <time>2020-08-19T11:09:27Z</time>
        <sat>10</sat>
      </trkpt>
      <trkpt lat="42.377908" lon="-3.417348">
        <ele>1060.7</ele>
        <time>2020-08-19T11:18:31Z</time>
        <sat>11</sat>
      </trkpt>
      <trkpt lat="42.377918" lon="-3.417457">
        <ele>1060.8</ele>
        <time>2020-08-19T11:18:39Z</time>
        <sat>11</sat>
      </trkpt>
      <trkpt lat="42.377928" lon="-3.417570">
        <ele>1060.2</ele>
        <time>2020-08-19T11:18:48Z</time>
        <sat>10</sat>
      </trkpt>
      <trkpt lat="42.377948" lon="-3.417676">
        <ele>1058.6</ele>
        <time>2020-08-19T11:19:22Z</time>
        <sat>11</sat>
      </trkpt>
      <trkpt lat="42.377945" lon="-3.417792">
        <ele>1053.1</ele>
        <time>2020-08-19T11:20:10Z</time>
        <sat>10</sat>
      </trkpt>
      <trkpt lat="42.377948" lon="-3.417910">
        <ele>1059.8</ele>
        <time>2020-08-19T11:20:35Z</time>
        <sat>10</sat>
      </trkpt>
      <trkpt lat="42.377979" lon="-3.418023">
        <ele>1057.7</ele>
        <time>2020-08-19T11:20:44Z</time>
        <sat>10</sat>
      </trkpt>
      <trkpt lat="42.378002" lon="-3.418141">
        <ele>1056.6</ele>
        <time>2020-08-19T11:20:53Z</time>
        <sat>10</sat>
      </trkpt>
      <trkpt lat="42.378017" lon="-3.418262">
        <ele>1056.0</ele>
        <time>2020-08-19T11:21:02Z</time>
        <sat>10</sat>
      </trkpt>
      <trkpt lat="42.378019" lon="-3.418375">
        <ele>1055.9</ele>
        <time>2020-08-19T11:21:10Z</time>
        <sat>10</sat>
      </trkpt>
      <trkpt lat="42.378006" lon="-3.418500">
        <ele>1055.8</ele>
        <time>2020-08-19T11:21:17Z</time>
        <sat>10</sat>
      </trkpt>
      <trkpt lat="42.377997" lon="-3.418614">
        <ele>1055.7</ele>
        <time>2020-08-19T11:21:24Z</time>
        <sat>10</sat>
      </trkpt>
      <trkpt lat="42.377970" lon="-3.418730">
        <ele>1055.7</ele>
        <time>2020-08-19T11:21:30Z</time>
        <sat>10</sat>
      </trkpt>
      <trkpt lat="42.377947" lon="-3.418837">
        <ele>1055.6</ele>
        <time>2020-08-19T11:21:37Z</time>
        <sat>10</sat>
      </trkpt>
      <trkpt lat="42.377929" lon="-3.418949">
        <ele>1055.4</ele>
        <time>2020-08-19T11:21:44Z</time>
        <sat>10</sat>
      </trkpt>
      <trkpt lat="42.377911" lon="-3.419057">
        <ele>1055.8</ele>
        <time>2020-08-19T11:21:50Z</time>
        <sat>10</sat>
      </trkpt>
      <trkpt lat="42.377878" lon="-3.419170">
        <ele>1055.9</ele>
        <time>2020-08-19T11:21:56Z</time>
        <sat>10</sat>
      </trkpt>
      <trkpt lat="42.377856" lon="-3.419283">
        <ele>1056.0</ele>
        <time>2020-08-19T11:22:03Z</time>
        <sat>9</sat>
      </trkpt>
      <trkpt lat="42.377809" lon="-3.419386">
        <ele>1055.8</ele>
        <time>2020-08-19T11:22:10Z</time>
        <sat>10</sat>
      </trkpt>
      <trkpt lat="42.377783" lon="-3.419498">
        <ele>1055.6</ele>
        <time>2020-08-19T11:22:17Z</time>
        <sat>10</sat>
      </trkpt>
      <trkpt lat="42.377757" lon="-3.419603">
        <ele>1055.4</ele>
        <time>2020-08-19T11:22:24Z</time>
        <sat>10</sat>
      </trkpt>
      <trkpt lat="42.377753" lon="-3.419723">
        <ele>1055.2</ele>
        <time>2020-08-19T11:22:33Z</time>
        <sat>10</sat>
      </trkpt>
      <trkpt lat="42.377748" lon="-3.419840">
        <ele>1054.8</ele>
        <time>2020-08-19T11:22:41Z</time>
        <sat>10</sat>
      </trkpt>
      <trkpt lat="42.377741" lon="-3.419957">
        <ele>1054.5</ele>
        <time>2020-08-19T11:22:49Z</time>
        <sat>10</sat>
      </trkpt>
      <trkpt lat="42.377732" lon="-3.420066">
        <ele>1054.0</ele>
        <time>2020-08-19T11:22:57Z</time>
        <sat>10</sat>
      </trkpt>
      <trkpt lat="42.377725" lon="-3.420187">
        <ele>1053.2</ele>
        <time>2020-08-19T11:23:06Z</time>
        <sat>10</sat>
      </trkpt>
      <trkpt lat="42.377715" lon="-3.420299">
        <ele>1052.5</ele>
        <time>2020-08-19T11:23:15Z</time>
        <sat>10</sat>
      </trkpt>
      <trkpt lat="42.377710" lon="-3.420418">
        <ele>1051.6</ele>
        <time>2020-08-19T11:23:29Z</time>
        <sat>10</sat>
      </trkpt>
      <trkpt lat="42.377704" lon="-3.420541">
        <ele>1051.1</ele>
        <time>2020-08-19T11:23:38Z</time>
        <sat>10</sat>
      </trkpt>
      <trkpt lat="42.377690" lon="-3.420653">
        <ele>1050.4</ele>
        <time>2020-08-19T11:23:46Z</time>
        <sat>10</sat>
      </trkpt>
      <trkpt lat="42.377684" lon="-3.420772">
        <ele>1049.7</ele>
        <time>2020-08-19T11:23:54Z</time>
        <sat>10</sat>
      </trkpt>
      <trkpt lat="42.377683" lon="-3.420891">
        <ele>1049.2</ele>
        <time>2020-08-19T11:24:02Z</time>
        <sat>10</sat>
      </trkpt>
      <trkpt lat="42.377678" lon="-3.421004">
        <ele>1048.6</ele>
        <time>2020-08-19T11:24:09Z</time>
        <sat>10</sat>
      </trkpt>
      <trkpt lat="42.377667" lon="-3.421124">
        <ele>1048.1</ele>
        <time>2020-08-19T11:24:16Z</time>
        <sat>10</sat>
      </trkpt>
      <trkpt lat="42.377665" lon="-3.421246">
        <ele>1047.4</ele>
        <time>2020-08-19T11:24:23Z</time>
        <sat>10</sat>
      </trkpt>
      <trkpt lat="42.377651" lon="-3.421363">
        <ele>1046.3</ele>
        <time>2020-08-19T11:24:30Z</time>
        <sat>10</sat>
      </trkpt>
      <trkpt lat="42.377654" lon="-3.421481">
        <ele>1045.6</ele>
        <time>2020-08-19T11:24:38Z</time>
        <sat>10</sat>
      </trkpt>
      <trkpt lat="42.377648" lon="-3.421590">
        <ele>1045.1</ele>
        <time>2020-08-19T11:24:45Z</time>
        <sat>10</sat>
      </trkpt>
      <trkpt lat="42.377649" lon="-3.421705">
        <ele>1045.3</ele>
        <time>2020-08-19T11:24:52Z</time>
        <sat>10</sat>
      </trkpt>
      <trkpt lat="42.377641" lon="-3.421815">
        <ele>1045.3</ele>
        <time>2020-08-19T11:24:58Z</time>
        <sat>10</sat>
      </trkpt>
      <trkpt lat="42.377652" lon="-3.421935">
        <ele>1044.7</ele>
        <time>2020-08-19T11:25:05Z</time>
        <sat>10</sat>
      </trkpt>
      <trkpt lat="42.377654" lon="-3.422048">
        <ele>1044.2</ele>
        <time>2020-08-19T11:25:12Z</time>
        <sat>9</sat>
      </trkpt>
      <trkpt lat="42.377678" lon="-3.422161">
        <ele>1043.6</ele>
        <time>2020-08-19T11:25:19Z</time>
        <sat>10</sat>
      </trkpt>
      <trkpt lat="42.377709" lon="-3.422268">
        <ele>1042.7</ele>
        <time>2020-08-19T11:25:26Z</time>
        <sat>9</sat>
      </trkpt>
      <trkpt lat="42.377735" lon="-3.422386">
        <ele>1041.7</ele>
        <time>2020-08-19T11:25:34Z</time>
        <sat>10</sat>
      </trkpt>
      <trkpt lat="42.377747" lon="-3.422512">
        <ele>1041.1</ele>
        <time>2020-08-19T11:25:41Z</time>
        <sat>10</sat>
      </trkpt>
      <trkpt lat="42.377772" lon="-3.422631">
        <ele>1040.3</ele>
        <time>2020-08-19T11:25:48Z</time>
        <sat>10</sat>
      </trkpt>
      <trkpt lat="42.377791" lon="-3.422751">
        <ele>1039.7</ele>
        <time>2020-08-19T11:25:55Z</time>
        <sat>10</sat>
      </trkpt>
      <trkpt lat="42.377785" lon="-3.422879">
        <ele>1038.7</ele>
        <time>2020-08-19T11:26:03Z</time>
        <sat>10</sat>
      </trkpt>
      <trkpt lat="42.377778" lon="-3.422989">
        <ele>1037.8</ele>
        <time>2020-08-19T11:26:09Z</time>
        <sat>10</sat>
      </trkpt>
      <trkpt lat="42.377759" lon="-3.423098">
        <ele>1037.0</ele>
        <time>2020-08-19T11:26:15Z</time>
        <sat>10</sat>
      </trkpt>
      <trkpt lat="42.377741" lon="-3.423210">
        <ele>1036.3</ele>
        <time>2020-08-19T11:26:22Z</time>
        <sat>10</sat>
      </trkpt>
      <trkpt lat="42.377727" lon="-3.423319">
        <ele>1035.8</ele>
        <time>2020-08-19T11:26:29Z</time>
        <sat>10</sat>
      </trkpt>
      <trkpt lat="42.377716" lon="-3.423433">
        <ele>1035.2</ele>
        <time>2020-08-19T11:26:36Z</time>
        <sat>10</sat>
      </trkpt>
      <trkpt lat="42.377708" lon="-3.423551">
        <ele>1034.5</ele>
        <time>2020-08-19T11:26:43Z</time>
        <sat>9</sat>
      </trkpt>
      <trkpt lat="42.377701" lon="-3.423677">
        <ele>1033.9</ele>
        <time>2020-08-19T11:26:51Z</time>
        <sat>10</sat>
      </trkpt>
      <trkpt lat="42.377703" lon="-3.423790">
        <ele>1033.5</ele>
        <time>2020-08-19T11:26:58Z</time>
        <sat>10</sat>
      </trkpt>
      <trkpt lat="42.377705" lon="-3.423909">
        <ele>1032.8</ele>
        <time>2020-08-19T11:27:05Z</time>
        <sat>10</sat>
      </trkpt>
      <trkpt lat="42.377703" lon="-3.424035">
        <ele>1032.1</ele>
        <time>2020-08-19T11:27:12Z</time>
        <sat>9</sat>
      </trkpt>
      <trkpt lat="42.377692" lon="-3.424152">
        <ele>1031.2</ele>
        <time>2020-08-19T11:27:20Z</time>
        <sat>9</sat>
      </trkpt>
      <trkpt lat="42.377679" lon="-3.424272">
        <ele>1030.0</ele>
        <time>2020-08-19T11:27:28Z</time>
        <sat>9</sat>
      </trkpt>
      <trkpt lat="42.377671" lon="-3.424391">
        <ele>1029.1</ele>
        <time>2020-08-19T11:27:35Z</time>
        <sat>9</sat>
      </trkpt>
      <trkpt lat="42.377643" lon="-3.424512">
        <ele>1028.4</ele>
        <time>2020-08-19T11:27:42Z</time>
        <sat>9</sat>
      </trkpt>
      <trkpt lat="42.377637" lon="-3.424629">
        <ele>1026.4</ele>
        <time>2020-08-19T11:28:44Z</time>
        <sat>9</sat>
      </trkpt>
      <trkpt lat="42.377630" lon="-3.424745">
        <ele>1025.8</ele>
        <time>2020-08-19T11:28:51Z</time>
        <sat>10</sat>
      </trkpt>
      <trkpt lat="42.377619" lon="-3.424869">
        <ele>1025.4</ele>
        <time>2020-08-19T11:28:58Z</time>
        <sat>10</sat>
      </trkpt>
      <trkpt lat="42.377596" lon="-3.424981">
        <ele>1025.1</ele>
        <time>2020-08-19T11:29:05Z</time>
        <sat>10</sat>
      </trkpt>
      <trkpt lat="42.377573" lon="-3.425094">
        <ele>1024.6</ele>
        <time>2020-08-19T11:29:12Z</time>
        <sat>10</sat>
      </trkpt>
      <trkpt lat="42.377558" lon="-3.425204">
        <ele>1024.4</ele>
        <time>2020-08-19T11:29:19Z</time>
        <sat>10</sat>
      </trkpt>
      <trkpt lat="42.377525" lon="-3.425325">
        <ele>1023.9</ele>
        <time>2020-08-19T11:29:26Z</time>
        <sat>10</sat>
      </trkpt>
      <trkpt lat="42.377507" lon="-3.425445">
        <ele>1023.3</ele>
        <time>2020-08-19T11:29:33Z</time>
        <sat>10</sat>
      </trkpt>
      <trkpt lat="42.377494" lon="-3.425557">
        <ele>1022.7</ele>
        <time>2020-08-19T11:29:40Z</time>
        <sat>10</sat>
      </trkpt>
      <trkpt lat="42.377480" lon="-3.425672">
        <ele>1022.2</ele>
        <time>2020-08-19T11:29:47Z</time>
        <sat>10</sat>
      </trkpt>
      <trkpt lat="42.377468" lon="-3.425789">
        <ele>1021.9</ele>
        <time>2020-08-19T11:29:54Z</time>
        <sat>10</sat>
      </trkpt>
      <trkpt lat="42.377461" lon="-3.425909">
        <ele>1021.7</ele>
        <time>2020-08-19T11:30:01Z</time>
        <sat>10</sat>
      </trkpt>
      <trkpt lat="42.377447" lon="-3.426033">
        <ele>1021.4</ele>
        <time>2020-08-19T11:30:08Z</time>
        <sat>10</sat>
      </trkpt>
      <trkpt lat="42.377432" lon="-3.426145">
        <ele>1021.3</ele>
        <time>2020-08-19T11:30:15Z</time>
        <sat>10</sat>
      </trkpt>
      <trkpt lat="42.377422" lon="-3.426271">
        <ele>1021.1</ele>
        <time>2020-08-19T11:30:23Z</time>
        <sat>10</sat>
      </trkpt>
      <trkpt lat="42.377417" lon="-3.426384">
        <ele>1021.0</ele>
        <time>2020-08-19T11:30:30Z</time>
        <sat>10</sat>
      </trkpt>
      <trkpt lat="42.377420" lon="-3.426506">
        <ele>1021.0</ele>
        <time>2020-08-19T11:30:37Z</time>
        <sat>10</sat>
      </trkpt>
      <trkpt lat="42.377416" lon="-3.426629">
        <ele>1020.9</ele>
        <time>2020-08-19T11:30:45Z</time>
        <sat>10</sat>
      </trkpt>
      <trkpt lat="42.377412" lon="-3.426747">
        <ele>1020.4</ele>
        <time>2020-08-19T11:30:52Z</time>
        <sat>10</sat>
      </trkpt>
      <trkpt lat="42.377403" lon="-3.426862">
        <ele>1020.4</ele>
        <time>2020-08-19T11:30:59Z</time>
        <sat>10</sat>
      </trkpt>
      <trkpt lat="42.377404" lon="-3.426977">
        <ele>1020.2</ele>
        <time>2020-08-19T11:31:06Z</time>
        <sat>10</sat>
      </trkpt>
      <trkpt lat="42.377397" lon="-3.427087">
        <ele>1020.0</ele>
        <time>2020-08-19T11:31:12Z</time>
        <sat>10</sat>
      </trkpt>
      <trkpt lat="42.377399" lon="-3.427206">
        <ele>1019.9</ele>
        <time>2020-08-19T11:31:19Z</time>
        <sat>10</sat>
      </trkpt>
      <trkpt lat="42.377404" lon="-3.427320">
        <ele>1019.7</ele>
        <time>2020-08-19T11:31:26Z</time>
        <sat>10</sat>
      </trkpt>
      <trkpt lat="42.377408" lon="-3.427438">
        <ele>1019.3</ele>
        <time>2020-08-19T11:31:33Z</time>
        <sat>10</sat>
      </trkpt>
      <trkpt lat="42.377409" lon="-3.427561">
        <ele>1018.9</ele>
        <time>2020-08-19T11:31:40Z</time>
        <sat>10</sat>
      </trkpt>
      <trkpt lat="42.377417" lon="-3.427687">
        <ele>1018.6</ele>
        <time>2020-08-19T11:31:47Z</time>
        <sat>10</sat>
      </trkpt>
      <trkpt lat="42.377417" lon="-3.427799">
        <ele>1018.6</ele>
        <time>2020-08-19T11:31:53Z</time>
        <sat>10</sat>
      </trkpt>
      <trkpt lat="42.377425" lon="-3.427921">
        <ele>1018.3</ele>
        <time>2020-08-19T11:32:00Z</time>
        <sat>10</sat>
      </trkpt>
      <trkpt lat="42.377437" lon="-3.428043">
        <ele>1018.3</ele>
        <time>2020-08-19T11:32:07Z</time>
        <sat>10</sat>
      </trkpt>
      <trkpt lat="42.377447" lon="-3.428160">
        <ele>1018.1</ele>
        <time>2020-08-19T11:32:14Z</time>
        <sat>10</sat>
      </trkpt>
      <trkpt lat="42.377455" lon="-3.428280">
        <ele>1017.8</ele>
        <time>2020-08-19T11:32:21Z</time>
        <sat>10</sat>
      </trkpt>
      <trkpt lat="42.377465" lon="-3.428401">
        <ele>1017.7</ele>
        <time>2020-08-19T11:32:28Z</time>
        <sat>9</sat>
      </trkpt>
      <trkpt lat="42.377470" lon="-3.428526">
        <ele>1017.6</ele>
        <time>2020-08-19T11:32:35Z</time>
        <sat>10</sat>
      </trkpt>
      <trkpt lat="42.377480" lon="-3.428647">
        <ele>1017.3</ele>
        <time>2020-08-19T11:32:43Z</time>
        <sat>10</sat>
      </trkpt>
      <trkpt lat="42.377469" lon="-3.428766">
        <ele>1016.8</ele>
        <time>2020-08-19T11:32:50Z</time>
        <sat>10</sat>
      </trkpt>
      <trkpt lat="42.377475" lon="-3.428893">
        <ele>1016.2</ele>
        <time>2020-08-19T11:32:57Z</time>
        <sat>10</sat>
      </trkpt>
      <trkpt lat="42.377473" lon="-3.429018">
        <ele>1015.7</ele>
        <time>2020-08-19T11:33:04Z</time>
        <sat>10</sat>
      </trkpt>
      <trkpt lat="42.377467" lon="-3.429140">
        <ele>1015.4</ele>
        <time>2020-08-19T11:33:11Z</time>
        <sat>10</sat>
      </trkpt>
      <trkpt lat="42.377464" lon="-3.429265">
        <ele>1014.9</ele>
        <time>2020-08-19T11:33:18Z</time>
        <sat>10</sat>
      </trkpt>
      <trkpt lat="42.377447" lon="-3.429386">
        <ele>1013.3</ele>
        <time>2020-08-19T11:33:25Z</time>
        <sat>10</sat>
      </trkpt>
      <trkpt lat="42.377436" lon="-3.429509">
        <ele>1012.5</ele>
        <time>2020-08-19T11:33:32Z</time>
        <sat>10</sat>
      </trkpt>
      <trkpt lat="42.377417" lon="-3.429631">
        <ele>1012.0</ele>
        <time>2020-08-19T11:33:39Z</time>
        <sat>10</sat>
      </trkpt>
      <trkpt lat="42.377400" lon="-3.429741">
        <ele>1011.0</ele>
        <time>2020-08-19T11:33:45Z</time>
        <sat>10</sat>
      </trkpt>
      <trkpt lat="42.377366" lon="-3.429846">
        <ele>1011.0</ele>
        <time>2020-08-19T11:33:51Z</time>
        <sat>10</sat>
      </trkpt>
      <trkpt lat="42.377329" lon="-3.429962">
        <ele>1011.1</ele>
        <time>2020-08-19T11:33:58Z</time>
        <sat>10</sat>
      </trkpt>
      <trkpt lat="42.377292" lon="-3.430061">
        <ele>1011.2</ele>
        <time>2020-08-19T11:34:04Z</time>
        <sat>10</sat>
      </trkpt>
      <trkpt lat="42.377254" lon="-3.430175">
        <ele>1011.1</ele>
        <time>2020-08-19T11:34:11Z</time>
        <sat>10</sat>
      </trkpt>
      <trkpt lat="42.377223" lon="-3.430291">
        <ele>1010.9</ele>
        <time>2020-08-19T11:34:18Z</time>
        <sat>10</sat>
      </trkpt>
      <trkpt lat="42.377190" lon="-3.430408">
        <ele>1010.4</ele>
        <time>2020-08-19T11:34:25Z</time>
        <sat>9</sat>
      </trkpt>
      <trkpt lat="42.377176" lon="-3.430524">
        <ele>1010.3</ele>
        <time>2020-08-19T11:34:32Z</time>
        <sat>10</sat>
      </trkpt>
      <trkpt lat="42.377171" lon="-3.430649">
        <ele>1010.2</ele>
        <time>2020-08-19T11:34:39Z</time>
        <sat>10</sat>
      </trkpt>
      <trkpt lat="42.377168" lon="-3.430772">
        <ele>1010.1</ele>
        <time>2020-08-19T11:34:46Z</time>
        <sat>9</sat>
      </trkpt>
      <trkpt lat="42.377166" lon="-3.430889">
        <ele>1009.8</ele>
        <time>2020-08-19T11:34:53Z</time>
        <sat>9</sat>
      </trkpt>
      <trkpt lat="42.377160" lon="-3.431011">
        <ele>1009.6</ele>
        <time>2020-08-19T11:35:00Z</time>
        <sat>9</sat>
      </trkpt>
      <trkpt lat="42.377145" lon="-3.431134">
        <ele>1009.5</ele>
        <time>2020-08-19T11:35:07Z</time>
        <sat>9</sat>
      </trkpt>
      <trkpt lat="42.377126" lon="-3.431242">
        <ele>1009.3</ele>
        <time>2020-08-19T11:35:14Z</time>
        <sat>10</sat>
      </trkpt>
      <trkpt lat="42.377116" lon="-3.431366">
        <ele>1008.8</ele>
        <time>2020-08-19T11:35:21Z</time>
        <sat>10</sat>
      </trkpt>
      <trkpt lat="42.377100" lon="-3.431474">
        <ele>1008.7</ele>
        <time>2020-08-19T11:35:27Z</time>
        <sat>10</sat>
      </trkpt>
      <trkpt lat="42.377090" lon="-3.431599">
        <ele>1008.4</ele>
        <time>2020-08-19T11:35:35Z</time>
        <sat>10</sat>
      </trkpt>
      <trkpt lat="42.377083" lon="-3.431717">
        <ele>1008.0</ele>
        <time>2020-08-19T11:35:41Z</time>
        <sat>10</sat>
      </trkpt>
      <trkpt lat="42.377062" lon="-3.431825">
        <ele>1007.7</ele>
        <time>2020-08-19T11:35:47Z</time>
        <sat>10</sat>
      </trkpt>
      <trkpt lat="42.377034" lon="-3.431934">
        <ele>1007.6</ele>
        <time>2020-08-19T11:35:53Z</time>
        <sat>10</sat>
      </trkpt>
      <trkpt lat="42.377000" lon="-3.432044">
        <ele>1007.7</ele>
        <time>2020-08-19T11:36:00Z</time>
        <sat>10</sat>
      </trkpt>
      <trkpt lat="42.376983" lon="-3.432163">
        <ele>1007.8</ele>
        <time>2020-08-19T11:36:07Z</time>
        <sat>10</sat>
      </trkpt>
      <trkpt lat="42.376964" lon="-3.432290">
        <ele>1007.7</ele>
        <time>2020-08-19T11:36:14Z</time>
        <sat>10</sat>
      </trkpt>
      <trkpt lat="42.376944" lon="-3.432412">
        <ele>1007.6</ele>
        <time>2020-08-19T11:36:21Z</time>
        <sat>10</sat>
      </trkpt>
      <trkpt lat="42.376919" lon="-3.432518">
        <ele>1007.3</ele>
        <time>2020-08-19T11:36:27Z</time>
        <sat>10</sat>
      </trkpt>
      <trkpt lat="42.376881" lon="-3.432635">
        <ele>1007.2</ele>
        <time>2020-08-19T11:36:34Z</time>
        <sat>9</sat>
      </trkpt>
      <trkpt lat="42.376851" lon="-3.432738">
        <ele>1007.2</ele>
        <time>2020-08-19T11:36:40Z</time>
        <sat>10</sat>
      </trkpt>
      <trkpt lat="42.376804" lon="-3.432840">
        <ele>1007.1</ele>
        <time>2020-08-19T11:36:47Z</time>
        <sat>10</sat>
      </trkpt>
      <trkpt lat="42.376751" lon="-3.432940">
        <ele>1006.8</ele>
        <time>2020-08-19T11:36:54Z</time>
        <sat>9</sat>
      </trkpt>
      <trkpt lat="42.376700" lon="-3.433044">
        <ele>1006.7</ele>
        <time>2020-08-19T11:37:01Z</time>
        <sat>10</sat>
      </trkpt>
      <trkpt lat="42.376659" lon="-3.433140">
        <ele>1006.6</ele>
        <time>2020-08-19T11:37:08Z</time>
        <sat>10</sat>
      </trkpt>
      <trkpt lat="42.376615" lon="-3.433252">
        <ele>1006.6</ele>
        <time>2020-08-19T11:37:15Z</time>
        <sat>10</sat>
      </trkpt>
      <trkpt lat="42.376563" lon="-3.433352">
        <ele>1006.8</ele>
        <time>2020-08-19T11:37:22Z</time>
        <sat>10</sat>
      </trkpt>
      <trkpt lat="42.376501" lon="-3.433444">
        <ele>1007.1</ele>
        <time>2020-08-19T11:37:29Z</time>
        <sat>10</sat>
      </trkpt>
      <trkpt lat="42.376432" lon="-3.433519">
        <ele>1007.7</ele>
        <time>2020-08-19T11:37:36Z</time>
        <sat>10</sat>
      </trkpt>
      <trkpt lat="42.376358" lon="-3.433592">
        <ele>1008.4</ele>
        <time>2020-08-19T11:37:43Z</time>
        <sat>10</sat>
      </trkpt>
      <trkpt lat="42.376286" lon="-3.433656">
        <ele>1008.9</ele>
        <time>2020-08-19T11:37:50Z</time>
        <sat>10</sat>
      </trkpt>
      <trkpt lat="42.376214" lon="-3.433717">
        <ele>1009.1</ele>
        <time>2020-08-19T11:37:57Z</time>
        <sat>10</sat>
      </trkpt>
      <trkpt lat="42.376148" lon="-3.433786">
        <ele>1009.0</ele>
        <time>2020-08-19T11:38:04Z</time>
        <sat>10</sat>
      </trkpt>
      <trkpt lat="42.376092" lon="-3.433866">
        <ele>1009.1</ele>
        <time>2020-08-19T11:38:11Z</time>
        <sat>9</sat>
      </trkpt>
      <trkpt lat="42.376046" lon="-3.433971">
        <ele>1009.5</ele>
        <time>2020-08-19T11:38:18Z</time>
        <sat>10</sat>
      </trkpt>
      <trkpt lat="42.376011" lon="-3.434071">
        <ele>1009.9</ele>
        <time>2020-08-19T11:38:24Z</time>
        <sat>9</sat>
      </trkpt>
      <trkpt lat="42.375991" lon="-3.434182">
        <ele>1010.0</ele>
        <time>2020-08-19T11:38:31Z</time>
        <sat>9</sat>
      </trkpt>
      <trkpt lat="42.375989" lon="-3.434300">
        <ele>1009.8</ele>
        <time>2020-08-19T11:39:02Z</time>
        <sat>10</sat>
      </trkpt>
      <trkpt lat="42.375971" lon="-3.434412">
        <ele>1009.9</ele>
        <time>2020-08-19T11:39:08Z</time>
        <sat>10</sat>
      </trkpt>
      <trkpt lat="42.375969" lon="-3.434540">
        <ele>1009.8</ele>
        <time>2020-08-19T11:39:15Z</time>
        <sat>10</sat>
      </trkpt>
      <trkpt lat="42.375950" lon="-3.434648">
        <ele>1009.7</ele>
        <time>2020-08-19T11:39:21Z</time>
        <sat>9</sat>
      </trkpt>
      <trkpt lat="42.375940" lon="-3.434764">
        <ele>1009.7</ele>
        <time>2020-08-19T11:39:28Z</time>
        <sat>9</sat>
      </trkpt>
      <trkpt lat="42.375937" lon="-3.434880">
        <ele>1009.7</ele>
        <time>2020-08-19T11:39:35Z</time>
        <sat>10</sat>
      </trkpt>
      <trkpt lat="42.375921" lon="-3.435000">
        <ele>1009.7</ele>
        <time>2020-08-19T11:39:42Z</time>
        <sat>10</sat>
      </trkpt>
      <trkpt lat="42.375916" lon="-3.435113">
        <ele>1009.3</ele>
        <time>2020-08-19T11:39:53Z</time>
        <sat>10</sat>
      </trkpt>
      <trkpt lat="42.375897" lon="-3.435238">
        <ele>1009.3</ele>
        <time>2020-08-19T11:40:00Z</time>
        <sat>10</sat>
      </trkpt>
      <trkpt lat="42.375879" lon="-3.435348">
        <ele>1009.3</ele>
        <time>2020-08-19T11:40:06Z</time>
        <sat>10</sat>
      </trkpt>
      <trkpt lat="42.375875" lon="-3.435458">
        <ele>1009.2</ele>
        <time>2020-08-19T11:40:12Z</time>
        <sat>10</sat>
      </trkpt>
      <trkpt lat="42.375862" lon="-3.435584">
        <ele>1009.1</ele>
        <time>2020-08-19T11:40:19Z</time>
        <sat>10</sat>
      </trkpt>
      <trkpt lat="42.375850" lon="-3.435708">
        <ele>1009.2</ele>
        <time>2020-08-19T11:40:26Z</time>
        <sat>10</sat>
      </trkpt>
      <trkpt lat="42.375838" lon="-3.435828">
        <ele>1009.2</ele>
        <time>2020-08-19T11:40:33Z</time>
        <sat>10</sat>
      </trkpt>
      <trkpt lat="42.375821" lon="-3.435949">
        <ele>1009.2</ele>
        <time>2020-08-19T11:40:40Z</time>
        <sat>10</sat>
      </trkpt>
      <trkpt lat="42.375809" lon="-3.436068">
        <ele>1009.0</ele>
        <time>2020-08-19T11:40:47Z</time>
        <sat>10</sat>
      </trkpt>
      <trkpt lat="42.375784" lon="-3.436182">
        <ele>1009.0</ele>
        <time>2020-08-19T11:40:54Z</time>
        <sat>10</sat>
      </trkpt>
      <trkpt lat="42.375754" lon="-3.436293">
        <ele>1008.9</ele>
        <time>2020-08-19T11:41:01Z</time>
        <sat>10</sat>
      </trkpt>
      <trkpt lat="42.375737" lon="-3.436414">
        <ele>1009.1</ele>
        <time>2020-08-19T11:41:33Z</time>
        <sat>10</sat>
      </trkpt>
      <trkpt lat="42.375712" lon="-3.436519">
        <ele>1009.0</ele>
        <time>2020-08-19T11:41:39Z</time>
        <sat>10</sat>
      </trkpt>
      <trkpt lat="42.375706" lon="-3.436637">
        <ele>1008.8</ele>
        <time>2020-08-19T11:41:46Z</time>
        <sat>10</sat>
      </trkpt>
      <trkpt lat="42.375727" lon="-3.436752">
        <ele>1008.7</ele>
        <time>2020-08-19T11:41:53Z</time>
        <sat>10</sat>
      </trkpt>
      <trkpt lat="42.375821" lon="-3.436846">
        <ele>1008.6</ele>
        <time>2020-08-19T11:42:46Z</time>
        <sat>9</sat>
      </trkpt>
      <trkpt lat="42.375817" lon="-3.436708">
        <ele>1011.3</ele>
        <time>2020-08-19T11:45:31Z</time>
        <sat>9</sat>
      </trkpt>
      <trkpt lat="42.375757" lon="-3.436620">
        <ele>1005.6</ele>
        <time>2020-08-19T11:46:25Z</time>
        <sat>9</sat>
      </trkpt>
      <trkpt lat="42.375765" lon="-3.436619">
        <ele>1008.0</ele>
        <time>2020-08-19T11:47:14Z</time>
        <sat>9</sat>
      </trkpt>
      <trkpt lat="42.375855" lon="-3.436639">
        <ele>1007.2</ele>
        <time>2020-08-19T11:47:32Z</time>
        <sat>6</sat>
      </trkpt>
      <trkpt lat="42.375866" lon="-3.436757">
        <ele>1008.2</ele>
        <time>2020-08-19T11:48:41Z</time>
        <sat>7</sat>
      </trkpt>
      <trkpt lat="42.375860" lon="-3.436882">
        <ele>1008.6</ele>
        <time>2020-08-19T11:48:47Z</time>
        <sat>9</sat>
      </trkpt>
      <trkpt lat="42.375876" lon="-3.436992">
        <ele>1008.3</ele>
        <time>2020-08-19T11:48:53Z</time>
        <sat>10</sat>
      </trkpt>
      <trkpt lat="42.375929" lon="-3.437083">
        <ele>1007.5</ele>
        <time>2020-08-19T11:49:23Z</time>
        <sat>10</sat>
      </trkpt>
      <trkpt lat="42.375958" lon="-3.437101">
        <ele>1008.5</ele>
        <time>2020-08-19T11:50:41Z</time>
        <sat>7</sat>
      </trkpt>
      <trkpt lat="42.375982" lon="-3.437212">
        <ele>1008.4</ele>
        <time>2020-08-19T11:50:51Z</time>
        <sat>9</sat>
      </trkpt>
      <trkpt lat="42.375897" lon="-3.437184">
        <ele>1007.7</ele>
        <time>2020-08-19T11:51:37Z</time>
        <sat>9</sat>
      </trkpt>
      <trkpt lat="42.375845" lon="-3.437086">
        <ele>1008.2</ele>
        <time>2020-08-19T11:53:47Z</time>
        <sat>9</sat>
      </trkpt>
      <trkpt lat="42.375825" lon="-3.436979">
        <ele>1008.6</ele>
        <time>2020-08-19T11:53:55Z</time>
        <sat>8</sat>
      </trkpt>
      <trkpt lat="42.375807" lon="-3.436864">
        <ele>1008.9</ele>
        <time>2020-08-19T11:54:03Z</time>
        <sat>8</sat>
      </trkpt>
      <trkpt lat="42.375741" lon="-3.436798">
        <ele>1009.0</ele>
        <time>2020-08-19T11:54:13Z</time>
        <sat>8</sat>
      </trkpt>
      <trkpt lat="42.375690" lon="-3.436706">
        <ele>1009.2</ele>
        <time>2020-08-19T11:54:20Z</time>
        <sat>9</sat>
      </trkpt>
      <trkpt lat="42.375642" lon="-3.436609">
        <ele>1009.8</ele>
        <time>2020-08-19T11:54:29Z</time>
        <sat>10</sat>
      </trkpt>
      <trkpt lat="42.375564" lon="-3.436570">
        <ele>1010.2</ele>
        <time>2020-08-19T11:54:38Z</time>
        <sat>10</sat>
      </trkpt>
      <trkpt lat="42.375630" lon="-3.436496">
        <ele>1010.7</ele>
        <time>2020-08-19T11:55:02Z</time>
        <sat>9</sat>
      </trkpt>
      <trkpt lat="42.375662" lon="-3.436502">
        <ele>1012.4</ele>
        <time>2020-08-19T12:19:49Z</time>
        <sat>7</sat>
      </trkpt>
      <trkpt lat="42.375664" lon="-3.436582">
        <ele>1012.1</ele>
        <time>2020-08-19T12:22:27Z</time>
        <sat>9</sat>
      </trkpt>
      <trkpt lat="42.375708" lon="-3.436676">
        <ele>1011.5</ele>
        <time>2020-08-19T12:22:36Z</time>
        <sat>9</sat>
      </trkpt>
      <trkpt lat="42.375732" lon="-3.436796">
        <ele>1011.2</ele>
        <time>2020-08-19T12:22:45Z</time>
        <sat>9</sat>
      </trkpt>
      <trkpt lat="42.375755" lon="-3.436910">
        <ele>1011.8</ele>
        <time>2020-08-19T12:22:54Z</time>
        <sat>9</sat>
      </trkpt>
      <trkpt lat="42.375770" lon="-3.437027">
        <ele>1011.2</ele>
        <time>2020-08-19T12:23:03Z</time>
        <sat>10</sat>
      </trkpt>
      <trkpt lat="42.375784" lon="-3.437146">
        <ele>1010.7</ele>
        <time>2020-08-19T12:23:11Z</time>
        <sat>10</sat>
      </trkpt>
      <trkpt lat="42.375808" lon="-3.437253">
        <ele>1010.6</ele>
        <time>2020-08-19T12:23:38Z</time>
        <sat>10</sat>
      </trkpt>
      <trkpt lat="42.375844" lon="-3.437357">
        <ele>1010.7</ele>
        <time>2020-08-19T12:24:04Z</time>
        <sat>10</sat>
      </trkpt>
      <trkpt lat="42.375876" lon="-3.437458">
        <ele>1010.2</ele>
        <time>2020-08-19T12:24:12Z</time>
        <sat>10</sat>
      </trkpt>
      <trkpt lat="42.375913" lon="-3.437560">
        <ele>1009.6</ele>
        <time>2020-08-19T12:24:26Z</time>
        <sat>10</sat>
      </trkpt>
      <trkpt lat="42.375941" lon="-3.437676">
        <ele>1010.5</ele>
        <time>2020-08-19T12:24:44Z</time>
        <sat>8</sat>
      </trkpt>
      <trkpt lat="42.375939" lon="-3.437787">
        <ele>1009.9</ele>
        <time>2020-08-19T12:24:51Z</time>
        <sat>10</sat>
      </trkpt>
      <trkpt lat="42.375966" lon="-3.437900">
        <ele>1010.4</ele>
        <time>2020-08-19T12:24:58Z</time>
        <sat>9</sat>
      </trkpt>
      <trkpt lat="42.375984" lon="-3.438006">
        <ele>1010.3</ele>
        <time>2020-08-19T12:25:05Z</time>
        <sat>9</sat>
      </trkpt>
      <trkpt lat="42.376004" lon="-3.438128">
        <ele>1009.9</ele>
        <time>2020-08-19T12:25:13Z</time>
        <sat>9</sat>
      </trkpt>
      <trkpt lat="42.376004" lon="-3.438134">
        <ele>1008.6</ele>
        <time>2020-08-19T12:25:47Z</time>
        <sat>9</sat>
      </trkpt>
      <trkpt lat="42.376011" lon="-3.438245">
        <ele>1009.0</ele>
        <time>2020-08-19T12:25:53Z</time>
        <sat>10</sat>
      </trkpt>
      <trkpt lat="42.376036" lon="-3.438350">
        <ele>1009.1</ele>
        <time>2020-08-19T12:25:59Z</time>
        <sat>10</sat>
      </trkpt>
      <trkpt lat="42.376046" lon="-3.438470">
        <ele>1008.8</ele>
        <time>2020-08-19T12:26:06Z</time>
        <sat>9</sat>
      </trkpt>
      <trkpt lat="42.376067" lon="-3.438583">
        <ele>1008.8</ele>
        <time>2020-08-19T12:26:16Z</time>
        <sat>9</sat>
      </trkpt>
      <trkpt lat="42.376084" lon="-3.438691">
        <ele>1008.6</ele>
        <time>2020-08-19T12:26:52Z</time>
        <sat>9</sat>
      </trkpt>
      <trkpt lat="42.376109" lon="-3.438800">
        <ele>1008.6</ele>
        <time>2020-08-19T12:27:01Z</time>
        <sat>9</sat>
      </trkpt>
      <trkpt lat="42.376126" lon="-3.438923">
        <ele>1008.4</ele>
        <time>2020-08-19T12:27:10Z</time>
        <sat>10</sat>
      </trkpt>
      <trkpt lat="42.376136" lon="-3.439043">
        <ele>1007.2</ele>
        <time>2020-08-19T12:27:18Z</time>
        <sat>8</sat>
      </trkpt>
      <trkpt lat="42.376144" lon="-3.439156">
        <ele>1007.6</ele>
        <time>2020-08-19T12:27:26Z</time>
        <sat>9</sat>
      </trkpt>
      <trkpt lat="42.376165" lon="-3.439277">
        <ele>1007.7</ele>
        <time>2020-08-19T12:27:34Z</time>
        <sat>9</sat>
      </trkpt>
      <trkpt lat="42.376180" lon="-3.439398">
        <ele>1007.6</ele>
        <time>2020-08-19T12:27:42Z</time>
        <sat>8</sat>
      </trkpt>
      <trkpt lat="42.376193" lon="-3.439513">
        <ele>1007.7</ele>
        <time>2020-08-19T12:27:50Z</time>
        <sat>9</sat>
      </trkpt>
      <trkpt lat="42.376208" lon="-3.439626">
        <ele>1007.9</ele>
        <time>2020-08-19T12:27:59Z</time>
        <sat>9</sat>
      </trkpt>
      <trkpt lat="42.376228" lon="-3.439742">
        <ele>1008.1</ele>
        <time>2020-08-19T12:28:07Z</time>
        <sat>7</sat>
      </trkpt>
      <trkpt lat="42.376242" lon="-3.439861">
        <ele>1008.2</ele>
        <time>2020-08-19T12:28:15Z</time>
        <sat>8</sat>
      </trkpt>
      <trkpt lat="42.376254" lon="-3.439982">
        <ele>1008.2</ele>
        <time>2020-08-19T12:28:23Z</time>
        <sat>9</sat>
      </trkpt>
      <trkpt lat="42.376263" lon="-3.440107">
        <ele>1008.3</ele>
        <time>2020-08-19T12:28:31Z</time>
        <sat>10</sat>
      </trkpt>
      <trkpt lat="42.376266" lon="-3.440220">
        <ele>1008.6</ele>
        <time>2020-08-19T12:28:40Z</time>
        <sat>9</sat>
      </trkpt>
      <trkpt lat="42.376283" lon="-3.440331">
        <ele>1008.5</ele>
        <time>2020-08-19T12:28:48Z</time>
        <sat>9</sat>
      </trkpt>
      <trkpt lat="42.376292" lon="-3.440441">
        <ele>1008.3</ele>
        <time>2020-08-19T12:28:55Z</time>
        <sat>8</sat>
      </trkpt>
      <trkpt lat="42.376308" lon="-3.440562">
        <ele>1008.4</ele>
        <time>2020-08-19T12:29:03Z</time>
        <sat>9</sat>
      </trkpt>
      <trkpt lat="42.376312" lon="-3.440677">
        <ele>1008.7</ele>
        <time>2020-08-19T12:29:10Z</time>
        <sat>9</sat>
      </trkpt>
      <trkpt lat="42.376316" lon="-3.440796">
        <ele>1008.8</ele>
        <time>2020-08-19T12:29:17Z</time>
        <sat>9</sat>
      </trkpt>
      <trkpt lat="42.376307" lon="-3.440916">
        <ele>1008.9</ele>
        <time>2020-08-19T12:29:24Z</time>
        <sat>9</sat>
      </trkpt>
      <trkpt lat="42.376282" lon="-3.441039">
        <ele>1009.2</ele>
        <time>2020-08-19T12:29:31Z</time>
        <sat>9</sat>
      </trkpt>
      <trkpt lat="42.376245" lon="-3.441150">
        <ele>1009.6</ele>
        <time>2020-08-19T12:29:38Z</time>
        <sat>10</sat>
      </trkpt>
      <trkpt lat="42.376199" lon="-3.441254">
        <ele>1010.2</ele>
        <time>2020-08-19T12:29:47Z</time>
        <sat>9</sat>
      </trkpt>
      <trkpt lat="42.376156" lon="-3.441349">
        <ele>1011.3</ele>
        <time>2020-08-19T12:30:02Z</time>
        <sat>10</sat>
      </trkpt>
      <trkpt lat="42.376085" lon="-3.441422">
        <ele>1011.8</ele>
        <time>2020-08-19T12:30:17Z</time>
        <sat>10</sat>
      </trkpt>
      <trkpt lat="42.376026" lon="-3.441512">
        <ele>1012.1</ele>
        <time>2020-08-19T12:30:25Z</time>
        <sat>10</sat>
      </trkpt>
      <trkpt lat="42.375979" lon="-3.441611">
        <ele>1012.5</ele>
        <time>2020-08-19T12:30:36Z</time>
        <sat>10</sat>
      </trkpt>
      <trkpt lat="42.375967" lon="-3.441721">
        <ele>1012.7</ele>
        <time>2020-08-19T12:30:43Z</time>
        <sat>10</sat>
      </trkpt>
      <trkpt lat="42.375956" lon="-3.441841">
        <ele>1013.0</ele>
        <time>2020-08-19T12:30:50Z</time>
        <sat>9</sat>
      </trkpt>
      <trkpt lat="42.375951" lon="-3.441959">
        <ele>1013.2</ele>
        <time>2020-08-19T12:30:57Z</time>
        <sat>9</sat>
      </trkpt>
      <trkpt lat="42.375933" lon="-3.442075">
        <ele>1013.3</ele>
        <time>2020-08-19T12:31:04Z</time>
        <sat>9</sat>
      </trkpt>
      <trkpt lat="42.375904" lon="-3.442184">
        <ele>1013.3</ele>
        <time>2020-08-19T12:31:12Z</time>
        <sat>9</sat>
      </trkpt>
      <trkpt lat="42.375878" lon="-3.442294">
        <ele>1013.7</ele>
        <time>2020-08-19T12:31:20Z</time>
        <sat>10</sat>
      </trkpt>
      <trkpt lat="42.375852" lon="-3.442406">
        <ele>1014.1</ele>
        <time>2020-08-19T12:31:30Z</time>
        <sat>10</sat>
      </trkpt>
      <trkpt lat="42.375835" lon="-3.442514">
        <ele>1014.4</ele>
        <time>2020-08-19T12:31:37Z</time>
        <sat>9</sat>
      </trkpt>
      <trkpt lat="42.375814" lon="-3.442626">
        <ele>1015.4</ele>
        <time>2020-08-19T12:31:46Z</time>
        <sat>9</sat>
      </trkpt>
      <trkpt lat="42.375819" lon="-3.442741">
        <ele>1015.7</ele>
        <time>2020-08-19T12:31:52Z</time>
        <sat>9</sat>
      </trkpt>
      <trkpt lat="42.375825" lon="-3.442853">
        <ele>1015.9</ele>
        <time>2020-08-19T12:31:58Z</time>
        <sat>10</sat>
      </trkpt>
      <trkpt lat="42.375833" lon="-3.442964">
        <ele>1016.1</ele>
        <time>2020-08-19T12:32:06Z</time>
        <sat>10</sat>
      </trkpt>
      <trkpt lat="42.375819" lon="-3.443083">
        <ele>1016.4</ele>
        <time>2020-08-19T12:32:14Z</time>
        <sat>10</sat>
      </trkpt>
      <trkpt lat="42.375787" lon="-3.443193">
        <ele>1016.9</ele>
        <time>2020-08-19T12:32:21Z</time>
        <sat>10</sat>
      </trkpt>
      <trkpt lat="42.375751" lon="-3.443301">
        <ele>1017.3</ele>
        <time>2020-08-19T12:32:30Z</time>
        <sat>10</sat>
      </trkpt>
      <trkpt lat="42.375715" lon="-3.443402">
        <ele>1017.4</ele>
        <time>2020-08-19T12:32:38Z</time>
        <sat>10</sat>
      </trkpt>
      <trkpt lat="42.375680" lon="-3.443515">
        <ele>1017.8</ele>
        <time>2020-08-19T12:32:47Z</time>
        <sat>10</sat>
      </trkpt>
      <trkpt lat="42.375661" lon="-3.443626">
        <ele>1017.9</ele>
        <time>2020-08-19T12:32:55Z</time>
        <sat>10</sat>
      </trkpt>
      <trkpt lat="42.375647" lon="-3.443745">
        <ele>1017.2</ele>
        <time>2020-08-19T12:33:03Z</time>
        <sat>10</sat>
      </trkpt>
      <trkpt lat="42.375617" lon="-3.443853">
        <ele>1016.0</ele>
        <time>2020-08-19T12:33:10Z</time>
        <sat>10</sat>
      </trkpt>
      <trkpt lat="42.375588" lon="-3.443961">
        <ele>1017.6</ele>
        <time>2020-08-19T12:33:17Z</time>
        <sat>10</sat>
      </trkpt>
      <trkpt lat="42.375562" lon="-3.444068">
        <ele>1017.9</ele>
        <time>2020-08-19T12:33:25Z</time>
        <sat>9</sat>
      </trkpt>
      <trkpt lat="42.375520" lon="-3.444166">
        <ele>1018.1</ele>
        <time>2020-08-19T12:33:32Z</time>
        <sat>10</sat>
      </trkpt>
      <trkpt lat="42.375492" lon="-3.444277">
        <ele>1018.0</ele>
        <time>2020-08-19T12:33:39Z</time>
        <sat>10</sat>
      </trkpt>
      <trkpt lat="42.375448" lon="-3.444371">
        <ele>1018.0</ele>
        <time>2020-08-19T12:33:46Z</time>
        <sat>10</sat>
      </trkpt>
      <trkpt lat="42.375399" lon="-3.444468">
        <ele>1018.1</ele>
        <time>2020-08-19T12:33:54Z</time>
        <sat>9</sat>
      </trkpt>
      <trkpt lat="42.375372" lon="-3.444573">
        <ele>1018.5</ele>
        <time>2020-08-19T12:34:02Z</time>
        <sat>10</sat>
      </trkpt>
      <trkpt lat="42.375360" lon="-3.444690">
        <ele>1019.0</ele>
        <time>2020-08-19T12:34:11Z</time>
        <sat>10</sat>
      </trkpt>
      <trkpt lat="42.375326" lon="-3.444805">
        <ele>1019.9</ele>
        <time>2020-08-19T12:34:20Z</time>
        <sat>9</sat>
      </trkpt>
      <trkpt lat="42.375310" lon="-3.444918">
        <ele>1021.2</ele>
        <time>2020-08-19T12:34:28Z</time>
        <sat>9</sat>
      </trkpt>
      <trkpt lat="42.375292" lon="-3.445024">
        <ele>1021.9</ele>
        <time>2020-08-19T12:34:43Z</time>
        <sat>9</sat>
      </trkpt>
      <trkpt lat="42.375285" lon="-3.445140">
        <ele>1022.0</ele>
        <time>2020-08-19T12:35:09Z</time>
        <sat>9</sat>
      </trkpt>
      <trkpt lat="42.375255" lon="-3.445250">
        <ele>1022.1</ele>
        <time>2020-08-19T12:35:16Z</time>
        <sat>9</sat>
      </trkpt>
      <trkpt lat="42.375238" lon="-3.445364">
        <ele>1022.1</ele>
        <time>2020-08-19T12:35:23Z</time>
        <sat>9</sat>
      </trkpt>
      <trkpt lat="42.375218" lon="-3.445472">
        <ele>1022.2</ele>
        <time>2020-08-19T12:35:30Z</time>
        <sat>9</sat>
      </trkpt>
      <trkpt lat="42.375198" lon="-3.445590">
        <ele>1022.3</ele>
        <time>2020-08-19T12:35:38Z</time>
        <sat>9</sat>
      </trkpt>
      <trkpt lat="42.375165" lon="-3.445709">
        <ele>1022.6</ele>
        <time>2020-08-19T12:35:46Z</time>
        <sat>8</sat>
      </trkpt>
      <trkpt lat="42.375145" lon="-3.445818">
        <ele>1022.6</ele>
        <time>2020-08-19T12:35:53Z</time>
        <sat>9</sat>
      </trkpt>
      <trkpt lat="42.375128" lon="-3.445942">
        <ele>1022.8</ele>
        <time>2020-08-19T12:36:06Z</time>
        <sat>9</sat>
      </trkpt>
      <trkpt lat="42.375127" lon="-3.446058">
        <ele>1022.8</ele>
        <time>2020-08-19T12:36:14Z</time>
        <sat>9</sat>
      </trkpt>
      <trkpt lat="42.375125" lon="-3.446175">
        <ele>1023.0</ele>
        <time>2020-08-19T12:36:27Z</time>
        <sat>9</sat>
      </trkpt>
      <trkpt lat="42.375116" lon="-3.446297">
        <ele>1023.2</ele>
        <time>2020-08-19T12:36:41Z</time>
        <sat>9</sat>
      </trkpt>
      <trkpt lat="42.375097" lon="-3.446407">
        <ele>1023.0</ele>
        <time>2020-08-19T12:36:47Z</time>
        <sat>9</sat>
      </trkpt>
      <trkpt lat="42.375081" lon="-3.446526">
        <ele>1022.9</ele>
        <time>2020-08-19T12:36:54Z</time>
        <sat>9</sat>
      </trkpt>
      <trkpt lat="42.375034" lon="-3.446627">
        <ele>1023.1</ele>
        <time>2020-08-19T12:37:22Z</time>
        <sat>9</sat>
      </trkpt>
      <trkpt lat="42.375030" lon="-3.446751">
        <ele>1022.4</ele>
        <time>2020-08-19T12:37:30Z</time>
        <sat>9</sat>
      </trkpt>
      <trkpt lat="42.375011" lon="-3.446860">
        <ele>1021.6</ele>
        <time>2020-08-19T12:37:37Z</time>
        <sat>9</sat>
      </trkpt>
      <trkpt lat="42.374979" lon="-3.446973">
        <ele>1020.2</ele>
        <time>2020-08-19T12:37:44Z</time>
        <sat>9</sat>
      </trkpt>
      <trkpt lat="42.374954" lon="-3.447091">
        <ele>1018.4</ele>
        <time>2020-08-19T12:37:52Z</time>
        <sat>9</sat>
      </trkpt>
      <trkpt lat="42.374917" lon="-3.447204">
        <ele>1017.7</ele>
        <time>2020-08-19T12:38:00Z</time>
        <sat>9</sat>
      </trkpt>
      <trkpt lat="42.374905" lon="-3.447313">
        <ele>1016.9</ele>
        <time>2020-08-19T12:38:07Z</time>
        <sat>8</sat>
      </trkpt>
      <trkpt lat="42.374895" lon="-3.447435">
        <ele>1016.9</ele>
        <time>2020-08-19T12:38:14Z</time>
        <sat>9</sat>
      </trkpt>
      <trkpt lat="42.374875" lon="-3.447546">
        <ele>1016.8</ele>
        <time>2020-08-19T12:38:21Z</time>
        <sat>9</sat>
      </trkpt>
      <trkpt lat="42.374838" lon="-3.447655">
        <ele>1017.6</ele>
        <time>2020-08-19T12:38:28Z</time>
        <sat>9</sat>
      </trkpt>
      <trkpt lat="42.374809" lon="-3.447773">
        <ele>1018.7</ele>
        <time>2020-08-19T12:38:36Z</time>
        <sat>9</sat>
      </trkpt>
      <trkpt lat="42.374787" lon="-3.447892">
        <ele>1019.3</ele>
        <time>2020-08-19T12:38:43Z</time>
        <sat>9</sat>
      </trkpt>
      <trkpt lat="42.374762" lon="-3.448008">
        <ele>1020.1</ele>
        <time>2020-08-19T12:38:50Z</time>
        <sat>9</sat>
      </trkpt>
      <trkpt lat="42.374738" lon="-3.448129">
        <ele>1020.8</ele>
        <time>2020-08-19T12:38:58Z</time>
        <sat>9</sat>
      </trkpt>
      <trkpt lat="42.374718" lon="-3.448253">
        <ele>1021.2</ele>
        <time>2020-08-19T12:39:05Z</time>
        <sat>9</sat>
      </trkpt>
      <trkpt lat="42.374712" lon="-3.448365">
        <ele>1020.9</ele>
        <time>2020-08-19T12:39:40Z</time>
        <sat>9</sat>
      </trkpt>
      <trkpt lat="42.374699" lon="-3.448496">
        <ele>1021.3</ele>
        <time>2020-08-19T12:39:48Z</time>
        <sat>8</sat>
      </trkpt>
      <trkpt lat="42.374686" lon="-3.448615">
        <ele>1021.8</ele>
        <time>2020-08-19T12:39:55Z</time>
        <sat>9</sat>
      </trkpt>
      <trkpt lat="42.374685" lon="-3.448735">
        <ele>1022.0</ele>
        <time>2020-08-19T12:40:04Z</time>
        <sat>9</sat>
      </trkpt>
      <trkpt lat="42.374686" lon="-3.448855">
        <ele>1022.1</ele>
        <time>2020-08-19T12:40:11Z</time>
        <sat>9</sat>
      </trkpt>
      <trkpt lat="42.374676" lon="-3.448970">
        <ele>1022.3</ele>
        <time>2020-08-19T12:40:19Z</time>
        <sat>9</sat>
      </trkpt>
      <trkpt lat="42.374669" lon="-3.449090">
        <ele>1022.4</ele>
        <time>2020-08-19T12:40:27Z</time>
        <sat>9</sat>
      </trkpt>
      <trkpt lat="42.374663" lon="-3.449207">
        <ele>1022.6</ele>
        <time>2020-08-19T12:40:34Z</time>
        <sat>9</sat>
      </trkpt>
      <trkpt lat="42.374670" lon="-3.449325">
        <ele>1022.7</ele>
        <time>2020-08-19T12:40:40Z</time>
        <sat>9</sat>
      </trkpt>
      <trkpt lat="42.374671" lon="-3.449459">
        <ele>1022.8</ele>
        <time>2020-08-19T12:40:47Z</time>
        <sat>9</sat>
      </trkpt>
      <trkpt lat="42.374672" lon="-3.449577">
        <ele>1022.8</ele>
        <time>2020-08-19T12:40:54Z</time>
        <sat>9</sat>
      </trkpt>
      <trkpt lat="42.374675" lon="-3.449696">
        <ele>1022.5</ele>
        <time>2020-08-19T12:41:01Z</time>
        <sat>9</sat>
      </trkpt>
      <trkpt lat="42.374682" lon="-3.449811">
        <ele>1022.4</ele>
        <time>2020-08-19T12:41:08Z</time>
        <sat>9</sat>
      </trkpt>
      <trkpt lat="42.374676" lon="-3.449934">
        <ele>1022.9</ele>
        <time>2020-08-19T12:41:19Z</time>
        <sat>9</sat>
      </trkpt>
      <trkpt lat="42.374673" lon="-3.450053">
        <ele>1023.0</ele>
        <time>2020-08-19T12:41:27Z</time>
        <sat>9</sat>
      </trkpt>
      <trkpt lat="42.374642" lon="-3.450170">
        <ele>1023.0</ele>
        <time>2020-08-19T12:41:35Z</time>
        <sat>9</sat>
      </trkpt>
      <trkpt lat="42.374620" lon="-3.450296">
        <ele>1023.1</ele>
        <time>2020-08-19T12:41:43Z</time>
        <sat>9</sat>
      </trkpt>
      <trkpt lat="42.374595" lon="-3.450416">
        <ele>1022.9</ele>
        <time>2020-08-19T12:41:50Z</time>
        <sat>9</sat>
      </trkpt>
      <trkpt lat="42.374584" lon="-3.450526">
        <ele>1022.8</ele>
        <time>2020-08-19T12:41:56Z</time>
        <sat>9</sat>
      </trkpt>
      <trkpt lat="42.374569" lon="-3.450645">
        <ele>1022.9</ele>
        <time>2020-08-19T12:42:03Z</time>
        <sat>9</sat>
      </trkpt>
      <trkpt lat="42.374556" lon="-3.450758">
        <ele>1023.0</ele>
        <time>2020-08-19T12:42:10Z</time>
        <sat>9</sat>
      </trkpt>
      <trkpt lat="42.374556" lon="-3.450879">
        <ele>1022.9</ele>
        <time>2020-08-19T12:42:18Z</time>
        <sat>9</sat>
      </trkpt>
      <trkpt lat="42.374538" lon="-3.450992">
        <ele>1022.9</ele>
        <time>2020-08-19T12:42:27Z</time>
        <sat>9</sat>
      </trkpt>
      <trkpt lat="42.374529" lon="-3.451104">
        <ele>1023.0</ele>
        <time>2020-08-19T12:42:34Z</time>
        <sat>9</sat>
      </trkpt>
      <trkpt lat="42.374522" lon="-3.451214">
        <ele>1023.1</ele>
        <time>2020-08-19T12:42:41Z</time>
        <sat>9</sat>
      </trkpt>
      <trkpt lat="42.374519" lon="-3.451329">
        <ele>1023.1</ele>
        <time>2020-08-19T12:42:49Z</time>
        <sat>9</sat>
      </trkpt>
      <trkpt lat="42.374515" lon="-3.451442">
        <ele>1023.0</ele>
        <time>2020-08-19T12:42:56Z</time>
        <sat>9</sat>
      </trkpt>
      <trkpt lat="42.374504" lon="-3.451556">
        <ele>1022.7</ele>
        <time>2020-08-19T12:43:03Z</time>
        <sat>9</sat>
      </trkpt>
      <trkpt lat="42.374519" lon="-3.451674">
        <ele>1022.5</ele>
        <time>2020-08-19T12:43:13Z</time>
        <sat>9</sat>
      </trkpt>
      <trkpt lat="42.374539" lon="-3.451790">
        <ele>1022.5</ele>
        <time>2020-08-19T12:43:26Z</time>
        <sat>9</sat>
      </trkpt>
      <trkpt lat="42.374532" lon="-3.451917">
        <ele>1022.4</ele>
        <time>2020-08-19T12:43:34Z</time>
        <sat>9</sat>
      </trkpt>
      <trkpt lat="42.374527" lon="-3.452037">
        <ele>1022.2</ele>
        <time>2020-08-19T12:43:41Z</time>
        <sat>9</sat>
      </trkpt>
      <trkpt lat="42.374517" lon="-3.452160">
        <ele>1021.9</ele>
        <time>2020-08-19T12:43:49Z</time>
        <sat>9</sat>
      </trkpt>
      <trkpt lat="42.374489" lon="-3.452265">
        <ele>1021.9</ele>
        <time>2020-08-19T12:43:56Z</time>
        <sat>9</sat>
      </trkpt>
      <trkpt lat="42.374472" lon="-3.452390">
        <ele>1021.9</ele>
        <time>2020-08-19T12:44:08Z</time>
        <sat>9</sat>
      </trkpt>
      <trkpt lat="42.374416" lon="-3.452491">
        <ele>1022.1</ele>
        <time>2020-08-19T12:44:15Z</time>
        <sat>9</sat>
      </trkpt>
      <trkpt lat="42.374369" lon="-3.452595">
        <ele>1022.2</ele>
        <time>2020-08-19T12:44:22Z</time>
        <sat>9</sat>
      </trkpt>
      <trkpt lat="42.374333" lon="-3.452698">
        <ele>1022.4</ele>
        <time>2020-08-19T12:44:37Z</time>
        <sat>9</sat>
      </trkpt>
      <trkpt lat="42.374305" lon="-3.452803">
        <ele>1022.5</ele>
        <time>2020-08-19T12:44:44Z</time>
        <sat>9</sat>
      </trkpt>
      <trkpt lat="42.374272" lon="-3.452905">
        <ele>1022.7</ele>
        <time>2020-08-19T12:44:51Z</time>
        <sat>9</sat>
      </trkpt>
      <trkpt lat="42.374250" lon="-3.453027">
        <ele>1022.6</ele>
        <time>2020-08-19T12:44:58Z</time>
        <sat>9</sat>
      </trkpt>
      <trkpt lat="42.374251" lon="-3.453144">
        <ele>1022.5</ele>
        <time>2020-08-19T12:45:15Z</time>
        <sat>9</sat>
      </trkpt>
      <trkpt lat="42.374243" lon="-3.453262">
        <ele>1022.5</ele>
        <time>2020-08-19T12:45:23Z</time>
        <sat>9</sat>
      </trkpt>
      <trkpt lat="42.374254" lon="-3.453378">
        <ele>1022.4</ele>
        <time>2020-08-19T12:45:30Z</time>
        <sat>9</sat>
      </trkpt>
      <trkpt lat="42.374259" lon="-3.453500">
        <ele>1022.4</ele>
        <time>2020-08-19T12:45:37Z</time>
        <sat>9</sat>
      </trkpt>
      <trkpt lat="42.374237" lon="-3.453608">
        <ele>1022.3</ele>
        <time>2020-08-19T12:45:45Z</time>
        <sat>9</sat>
      </trkpt>
      <trkpt lat="42.374216" lon="-3.453729">
        <ele>1022.2</ele>
        <time>2020-08-19T12:45:54Z</time>
        <sat>9</sat>
      </trkpt>
      <trkpt lat="42.374219" lon="-3.453839">
        <ele>1022.0</ele>
        <time>2020-08-19T12:45:59Z</time>
        <sat>9</sat>
      </trkpt>
      <trkpt lat="42.374226" lon="-3.453966">
        <ele>1022.0</ele>
        <time>2020-08-19T12:46:06Z</time>
        <sat>9</sat>
      </trkpt>
      <trkpt lat="42.374241" lon="-3.454095">
        <ele>1021.8</ele>
        <time>2020-08-19T12:46:12Z</time>
        <sat>9</sat>
      </trkpt>
      <trkpt lat="42.374225" lon="-3.454217">
        <ele>1021.6</ele>
        <time>2020-08-19T12:46:18Z</time>
        <sat>9</sat>
      </trkpt>
      <trkpt lat="42.374210" lon="-3.454325">
        <ele>1021.3</ele>
        <time>2020-08-19T12:46:25Z</time>
        <sat>9</sat>
      </trkpt>
      <trkpt lat="42.374187" lon="-3.454448">
        <ele>1021.2</ele>
        <time>2020-08-19T12:46:31Z</time>
        <sat>9</sat>
      </trkpt>
      <trkpt lat="42.374165" lon="-3.454563">
        <ele>1021.0</ele>
        <time>2020-08-19T12:46:38Z</time>
        <sat>9</sat>
      </trkpt>
      <trkpt lat="42.374148" lon="-3.454674">
        <ele>1020.9</ele>
        <time>2020-08-19T12:46:44Z</time>
        <sat>8</sat>
      </trkpt>
      <trkpt lat="42.374105" lon="-3.454782">
        <ele>1021.1</ele>
        <time>2020-08-19T12:46:51Z</time>
        <sat>8</sat>
      </trkpt>
      <trkpt lat="42.374071" lon="-3.454887">
        <ele>1021.1</ele>
        <time>2020-08-19T12:46:58Z</time>
        <sat>8</sat>
      </trkpt>
      <trkpt lat="42.374026" lon="-3.454992">
        <ele>1021.1</ele>
        <time>2020-08-19T12:47:05Z</time>
        <sat>7</sat>
      </trkpt>
      <trkpt lat="42.373985" lon="-3.455091">
        <ele>1020.9</ele>
        <time>2020-08-19T12:47:12Z</time>
        <sat>8</sat>
      </trkpt>
      <trkpt lat="42.373955" lon="-3.455197">
        <ele>1020.9</ele>
        <time>2020-08-19T12:47:19Z</time>
        <sat>8</sat>
      </trkpt>
      <trkpt lat="42.373931" lon="-3.455306">
        <ele>1020.7</ele>
        <time>2020-08-19T12:47:26Z</time>
        <sat>8</sat>
      </trkpt>
      <trkpt lat="42.373905" lon="-3.455418">
        <ele>1020.6</ele>
        <time>2020-08-19T12:47:33Z</time>
        <sat>7</sat>
      </trkpt>
      <trkpt lat="42.373885" lon="-3.455538">
        <ele>1020.4</ele>
        <time>2020-08-19T12:47:40Z</time>
        <sat>7</sat>
      </trkpt>
      <trkpt lat="42.373871" lon="-3.455659">
        <ele>1020.3</ele>
        <time>2020-08-19T12:47:47Z</time>
        <sat>8</sat>
      </trkpt>
      <trkpt lat="42.373844" lon="-3.455771">
        <ele>1019.9</ele>
        <time>2020-08-19T12:47:54Z</time>
        <sat>8</sat>
      </trkpt>
      <trkpt lat="42.373813" lon="-3.455880">
        <ele>1019.8</ele>
        <time>2020-08-19T12:48:02Z</time>
        <sat>8</sat>
      </trkpt>
      <trkpt lat="42.373793" lon="-3.456003">
        <ele>1019.5</ele>
        <time>2020-08-19T12:48:10Z</time>
        <sat>8</sat>
      </trkpt>
      <trkpt lat="42.373767" lon="-3.456127">
        <ele>1019.3</ele>
        <time>2020-08-19T12:48:17Z</time>
        <sat>8</sat>
      </trkpt>
      <trkpt lat="42.373754" lon="-3.456239">
        <ele>1019.2</ele>
        <time>2020-08-19T12:48:22Z</time>
        <sat>8</sat>
      </trkpt>
      <trkpt lat="42.373744" lon="-3.456352">
        <ele>1019.1</ele>
        <time>2020-08-19T12:48:28Z</time>
        <sat>8</sat>
      </trkpt>
      <trkpt lat="42.373730" lon="-3.456468">
        <ele>1018.9</ele>
        <time>2020-08-19T12:48:35Z</time>
        <sat>8</sat>
      </trkpt>
      <trkpt lat="42.373719" lon="-3.456583">
        <ele>1018.6</ele>
        <time>2020-08-19T12:48:42Z</time>
        <sat>8</sat>
      </trkpt>
      <trkpt lat="42.373713" lon="-3.456700">
        <ele>1018.4</ele>
        <time>2020-08-19T12:48:49Z</time>
        <sat>8</sat>
      </trkpt>
      <trkpt lat="42.373694" lon="-3.456812">
        <ele>1018.1</ele>
        <time>2020-08-19T12:48:56Z</time>
        <sat>8</sat>
      </trkpt>
      <trkpt lat="42.373671" lon="-3.456920">
        <ele>1018.0</ele>
        <time>2020-08-19T12:49:14Z</time>
        <sat>8</sat>
      </trkpt>
      <trkpt lat="42.373644" lon="-3.457025">
        <ele>1017.9</ele>
        <time>2020-08-19T12:49:21Z</time>
        <sat>8</sat>
      </trkpt>
      <trkpt lat="42.373620" lon="-3.457140">
        <ele>1017.8</ele>
        <time>2020-08-19T12:49:28Z</time>
        <sat>8</sat>
      </trkpt>
      <trkpt lat="42.373592" lon="-3.457246">
        <ele>1017.7</ele>
        <time>2020-08-19T12:49:34Z</time>
        <sat>8</sat>
      </trkpt>
      <trkpt lat="42.373574" lon="-3.457369">
        <ele>1017.6</ele>
        <time>2020-08-19T12:49:41Z</time>
        <sat>8</sat>
      </trkpt>
      <trkpt lat="42.373549" lon="-3.457477">
        <ele>1017.8</ele>
        <time>2020-08-19T12:49:49Z</time>
        <sat>8</sat>
      </trkpt>
      <trkpt lat="42.373520" lon="-3.457587">
        <ele>1017.7</ele>
        <time>2020-08-19T12:49:58Z</time>
        <sat>8</sat>
      </trkpt>
      <trkpt lat="42.373504" lon="-3.457709">
        <ele>1017.8</ele>
        <time>2020-08-19T12:50:05Z</time>
        <sat>8</sat>
      </trkpt>
      <trkpt lat="42.373479" lon="-3.457828">
        <ele>1017.7</ele>
        <time>2020-08-19T12:50:12Z</time>
        <sat>8</sat>
      </trkpt>
      <trkpt lat="42.373448" lon="-3.457946">
        <ele>1017.8</ele>
        <time>2020-08-19T12:50:19Z</time>
        <sat>8</sat>
      </trkpt>
      <trkpt lat="42.373416" lon="-3.458064">
        <ele>1017.6</ele>
        <time>2020-08-19T12:50:26Z</time>
        <sat>8</sat>
      </trkpt>
      <trkpt lat="42.373395" lon="-3.458181">
        <ele>1017.3</ele>
        <time>2020-08-19T12:50:33Z</time>
        <sat>10</sat>
      </trkpt>
      <trkpt lat="42.373363" lon="-3.458298">
        <ele>1017.2</ele>
        <time>2020-08-19T12:50:40Z</time>
        <sat>9</sat>
      </trkpt>
      <trkpt lat="42.373327" lon="-3.458409">
        <ele>1017.0</ele>
        <time>2020-08-19T12:50:47Z</time>
        <sat>9</sat>
      </trkpt>
      <trkpt lat="42.373287" lon="-3.458522">
        <ele>1016.7</ele>
        <time>2020-08-19T12:50:54Z</time>
        <sat>9</sat>
      </trkpt>
      <trkpt lat="42.373256" lon="-3.458626">
        <ele>1016.6</ele>
        <time>2020-08-19T12:51:00Z</time>
        <sat>9</sat>
      </trkpt>
      <trkpt lat="42.373221" lon="-3.458732">
        <ele>1016.5</ele>
        <time>2020-08-19T12:51:07Z</time>
        <sat>9</sat>
      </trkpt>
      <trkpt lat="42.373190" lon="-3.458843">
        <ele>1016.4</ele>
        <time>2020-08-19T12:51:15Z</time>
        <sat>10</sat>
      </trkpt>
      <trkpt lat="42.373159" lon="-3.458957">
        <ele>1016.3</ele>
        <time>2020-08-19T12:51:23Z</time>
        <sat>10</sat>
      </trkpt>
      <trkpt lat="42.373128" lon="-3.459066">
        <ele>1016.1</ele>
        <time>2020-08-19T12:51:30Z</time>
        <sat>10</sat>
      </trkpt>
      <trkpt lat="42.373093" lon="-3.459166">
        <ele>1016.0</ele>
        <time>2020-08-19T12:51:36Z</time>
        <sat>10</sat>
      </trkpt>
      <trkpt lat="42.373074" lon="-3.459282">
        <ele>1015.7</ele>
        <time>2020-08-19T12:52:07Z</time>
        <sat>10</sat>
      </trkpt>
      <trkpt lat="42.373041" lon="-3.459383">
        <ele>1015.6</ele>
        <time>2020-08-19T12:52:16Z</time>
        <sat>10</sat>
      </trkpt>
      <trkpt lat="42.373001" lon="-3.459485">
        <ele>1015.7</ele>
        <time>2020-08-19T12:52:22Z</time>
        <sat>10</sat>
      </trkpt>
      <trkpt lat="42.372960" lon="-3.459585">
        <ele>1015.6</ele>
        <time>2020-08-19T12:52:32Z</time>
        <sat>10</sat>
      </trkpt>
      <trkpt lat="42.372935" lon="-3.459695">
        <ele>1015.6</ele>
        <time>2020-08-19T12:52:39Z</time>
        <sat>10</sat>
      </trkpt>
      <trkpt lat="42.372897" lon="-3.459794">
        <ele>1015.6</ele>
        <time>2020-08-19T12:52:45Z</time>
        <sat>10</sat>
      </trkpt>
      <trkpt lat="42.372866" lon="-3.459896">
        <ele>1015.3</ele>
        <time>2020-08-19T12:52:51Z</time>
        <sat>10</sat>
      </trkpt>
      <trkpt lat="42.372828" lon="-3.459995">
        <ele>1015.2</ele>
        <time>2020-08-19T12:52:57Z</time>
        <sat>10</sat>
      </trkpt>
      <trkpt lat="42.372800" lon="-3.460099">
        <ele>1015.1</ele>
        <time>2020-08-19T12:53:03Z</time>
        <sat>10</sat>
      </trkpt>
      <trkpt lat="42.372755" lon="-3.460205">
        <ele>1015.0</ele>
        <time>2020-08-19T12:53:11Z</time>
        <sat>9</sat>
      </trkpt>
      <trkpt lat="42.372720" lon="-3.460313">
        <ele>1014.9</ele>
        <time>2020-08-19T12:53:18Z</time>
        <sat>10</sat>
      </trkpt>
      <trkpt lat="42.372680" lon="-3.460420">
        <ele>1014.7</ele>
        <time>2020-08-19T12:53:24Z</time>
        <sat>10</sat>
      </trkpt>
      <trkpt lat="42.372646" lon="-3.460525">
        <ele>1014.5</ele>
        <time>2020-08-19T12:53:30Z</time>
        <sat>10</sat>
      </trkpt>
      <trkpt lat="42.372599" lon="-3.460628">
        <ele>1014.3</ele>
        <time>2020-08-19T12:53:36Z</time>
        <sat>10</sat>
      </trkpt>
      <trkpt lat="42.372551" lon="-3.460728">
        <ele>1014.1</ele>
        <time>2020-08-19T12:53:42Z</time>
        <sat>10</sat>
      </trkpt>
      <trkpt lat="42.372506" lon="-3.460822">
        <ele>1014.0</ele>
        <time>2020-08-19T12:53:48Z</time>
        <sat>10</sat>
      </trkpt>
      <trkpt lat="42.372457" lon="-3.460928">
        <ele>1013.9</ele>
        <time>2020-08-19T12:53:55Z</time>
        <sat>10</sat>
      </trkpt>
      <trkpt lat="42.372411" lon="-3.461037">
        <ele>1013.8</ele>
        <time>2020-08-19T12:54:02Z</time>
        <sat>10</sat>
      </trkpt>
      <trkpt lat="42.372365" lon="-3.461144">
        <ele>1013.9</ele>
        <time>2020-08-19T12:54:09Z</time>
        <sat>10</sat>
      </trkpt>
      <trkpt lat="42.372333" lon="-3.461262">
        <ele>1013.8</ele>
        <time>2020-08-19T12:54:16Z</time>
        <sat>10</sat>
      </trkpt>
      <trkpt lat="42.372305" lon="-3.461365">
        <ele>1013.8</ele>
        <time>2020-08-19T12:54:22Z</time>
        <sat>10</sat>
      </trkpt>
      <trkpt lat="42.372273" lon="-3.461476">
        <ele>1013.6</ele>
        <time>2020-08-19T12:54:29Z</time>
        <sat>10</sat>
      </trkpt>
      <trkpt lat="42.372251" lon="-3.461592">
        <ele>1011.5</ele>
        <time>2020-08-19T12:54:37Z</time>
        <sat>10</sat>
      </trkpt>
      <trkpt lat="42.372232" lon="-3.461711">
        <ele>1012.7</ele>
        <time>2020-08-19T12:54:45Z</time>
        <sat>10</sat>
      </trkpt>
      <trkpt lat="42.372207" lon="-3.461819">
        <ele>1012.9</ele>
        <time>2020-08-19T12:54:58Z</time>
        <sat>10</sat>
      </trkpt>
      <trkpt lat="42.372176" lon="-3.461926">
        <ele>1013.6</ele>
        <time>2020-08-19T12:55:54Z</time>
        <sat>10</sat>
      </trkpt>
      <trkpt lat="42.372155" lon="-3.462045">
        <ele>1013.0</ele>
        <time>2020-08-19T12:56:14Z</time>
        <sat>10</sat>
      </trkpt>
      <trkpt lat="42.372139" lon="-3.462158">
        <ele>1012.8</ele>
        <time>2020-08-19T12:56:21Z</time>
        <sat>9</sat>
      </trkpt>
      <trkpt lat="42.372126" lon="-3.462273">
        <ele>1012.7</ele>
        <time>2020-08-19T12:56:37Z</time>
        <sat>10</sat>
      </trkpt>
      <trkpt lat="42.372116" lon="-3.462382">
        <ele>1012.5</ele>
        <time>2020-08-19T12:56:50Z</time>
        <sat>10</sat>
      </trkpt>
      <trkpt lat="42.372097" lon="-3.462492">
        <ele>1012.5</ele>
        <time>2020-08-19T12:57:02Z</time>
        <sat>10</sat>
      </trkpt>
      <trkpt lat="42.372076" lon="-3.462599">
        <ele>1012.4</ele>
        <time>2020-08-19T12:57:10Z</time>
        <sat>10</sat>
      </trkpt>
      <trkpt lat="42.372046" lon="-3.462706">
        <ele>1012.3</ele>
        <time>2020-08-19T12:57:18Z</time>
        <sat>10</sat>
      </trkpt>
      <trkpt lat="42.372001" lon="-3.462809">
        <ele>1012.1</ele>
        <time>2020-08-19T12:57:29Z</time>
        <sat>10</sat>
      </trkpt>
      <trkpt lat="42.371978" lon="-3.462920">
        <ele>1011.9</ele>
        <time>2020-08-19T12:57:39Z</time>
        <sat>9</sat>
      </trkpt>
      <trkpt lat="42.371951" lon="-3.463024">
        <ele>1012.1</ele>
        <time>2020-08-19T12:58:12Z</time>
        <sat>10</sat>
      </trkpt>
      <trkpt lat="42.371959" lon="-3.463151">
        <ele>1011.7</ele>
        <time>2020-08-19T13:00:57Z</time>
        <sat>9</sat>
      </trkpt>
      <trkpt lat="42.371935" lon="-3.463271">
        <ele>1011.9</ele>
        <time>2020-08-19T13:01:06Z</time>
        <sat>9</sat>
      </trkpt>
      <trkpt lat="42.371920" lon="-3.463387">
        <ele>1012.1</ele>
        <time>2020-08-19T13:01:14Z</time>
        <sat>9</sat>
      </trkpt>
      <trkpt lat="42.371923" lon="-3.463502">
        <ele>1011.9</ele>
        <time>2020-08-19T13:01:23Z</time>
        <sat>9</sat>
      </trkpt>
      <trkpt lat="42.371922" lon="-3.463614">
        <ele>1011.8</ele>
        <time>2020-08-19T13:01:30Z</time>
        <sat>9</sat>
      </trkpt>
      <trkpt lat="42.371921" lon="-3.463735">
        <ele>1011.9</ele>
        <time>2020-08-19T13:01:51Z</time>
        <sat>9</sat>
      </trkpt>
      <trkpt lat="42.371913" lon="-3.463851">
        <ele>1012.0</ele>
        <time>2020-08-19T13:01:58Z</time>
        <sat>9</sat>
      </trkpt>
      <trkpt lat="42.371905" lon="-3.463968">
        <ele>1012.0</ele>
        <time>2020-08-19T13:02:05Z</time>
        <sat>9</sat>
      </trkpt>
      <trkpt lat="42.371897" lon="-3.464097">
        <ele>1012.0</ele>
        <time>2020-08-19T13:02:12Z</time>
        <sat>9</sat>
      </trkpt>
      <trkpt lat="42.371883" lon="-3.464218">
        <ele>1011.8</ele>
        <time>2020-08-19T13:02:19Z</time>
        <sat>9</sat>
      </trkpt>
      <trkpt lat="42.371877" lon="-3.464344">
        <ele>1011.6</ele>
        <time>2020-08-19T13:02:26Z</time>
        <sat>9</sat>
      </trkpt>
      <trkpt lat="42.371863" lon="-3.464469">
        <ele>1011.8</ele>
        <time>2020-08-19T13:02:33Z</time>
        <sat>8</sat>
      </trkpt>
      <trkpt lat="42.371857" lon="-3.464595">
        <ele>1011.7</ele>
        <time>2020-08-19T13:02:40Z</time>
        <sat>9</sat>
      </trkpt>
      <trkpt lat="42.371847" lon="-3.464704">
        <ele>1011.3</ele>
        <time>2020-08-19T13:02:46Z</time>
        <sat>9</sat>
      </trkpt>
      <trkpt lat="42.371846" lon="-3.464828">
        <ele>1011.0</ele>
        <time>2020-08-19T13:02:53Z</time>
        <sat>9</sat>
      </trkpt>
      <trkpt lat="42.371850" lon="-3.464952">
        <ele>1010.8</ele>
        <time>2020-08-19T13:03:00Z</time>
        <sat>9</sat>
      </trkpt>
      <trkpt lat="42.371846" lon="-3.465063">
        <ele>1010.9</ele>
        <time>2020-08-19T13:03:06Z</time>
        <sat>9</sat>
      </trkpt>
      <trkpt lat="42.371846" lon="-3.465183">
        <ele>1011.1</ele>
        <time>2020-08-19T13:03:13Z</time>
        <sat>9</sat>
      </trkpt>
      <trkpt lat="42.371858" lon="-3.465309">
        <ele>1011.0</ele>
        <time>2020-08-19T13:03:20Z</time>
        <sat>7</sat>
      </trkpt>
      <trkpt lat="42.371867" lon="-3.465433">
        <ele>1011.0</ele>
        <time>2020-08-19T13:03:27Z</time>
        <sat>8</sat>
      </trkpt>
      <trkpt lat="42.371884" lon="-3.465556">
        <ele>1011.0</ele>
        <time>2020-08-19T13:03:34Z</time>
        <sat>9</sat>
      </trkpt>
      <trkpt lat="42.371881" lon="-3.465666">
        <ele>1011.0</ele>
        <time>2020-08-19T13:03:40Z</time>
        <sat>9</sat>
      </trkpt>
      <trkpt lat="42.371891" lon="-3.465791">
        <ele>1011.2</ele>
        <time>2020-08-19T13:03:47Z</time>
        <sat>8</sat>
      </trkpt>
      <trkpt lat="42.371915" lon="-3.465900">
        <ele>1011.2</ele>
        <time>2020-08-19T13:03:53Z</time>
        <sat>9</sat>
      </trkpt>
      <trkpt lat="42.371920" lon="-3.466023">
        <ele>1011.3</ele>
        <time>2020-08-19T13:04:00Z</time>
        <sat>9</sat>
      </trkpt>
      <trkpt lat="42.371940" lon="-3.466131">
        <ele>1011.1</ele>
        <time>2020-08-19T13:04:06Z</time>
        <sat>9</sat>
      </trkpt>
      <trkpt lat="42.371957" lon="-3.466238">
        <ele>1011.0</ele>
        <time>2020-08-19T13:04:12Z</time>
        <sat>9</sat>
      </trkpt>
      <trkpt lat="42.371977" lon="-3.466361">
        <ele>1011.0</ele>
        <time>2020-08-19T13:04:19Z</time>
        <sat>10</sat>
      </trkpt>
      <trkpt lat="42.371995" lon="-3.466483">
        <ele>1011.0</ele>
        <time>2020-08-19T13:04:26Z</time>
        <sat>9</sat>
      </trkpt>
      <trkpt lat="42.372016" lon="-3.466591">
        <ele>1010.8</ele>
        <time>2020-08-19T13:04:42Z</time>
        <sat>10</sat>
      </trkpt>
      <trkpt lat="42.372034" lon="-3.466713">
        <ele>1011.1</ele>
        <time>2020-08-19T13:04:49Z</time>
        <sat>9</sat>
      </trkpt>
      <trkpt lat="42.372053" lon="-3.466834">
        <ele>1011.7</ele>
        <time>2020-08-19T13:04:56Z</time>
        <sat>9</sat>
      </trkpt>
      <trkpt lat="42.372071" lon="-3.466955">
        <ele>1012.1</ele>
        <time>2020-08-19T13:05:03Z</time>
        <sat>9</sat>
      </trkpt>
      <trkpt lat="42.372089" lon="-3.467079">
        <ele>1012.4</ele>
        <time>2020-08-19T13:05:10Z</time>
        <sat>10</sat>
      </trkpt>
      <trkpt lat="42.372101" lon="-3.467203">
        <ele>1011.5</ele>
        <time>2020-08-19T13:05:17Z</time>
        <sat>10</sat>
      </trkpt>
      <trkpt lat="42.372120" lon="-3.467315">
        <ele>1012.0</ele>
        <time>2020-08-19T13:05:24Z</time>
        <sat>10</sat>
      </trkpt>
      <trkpt lat="42.372143" lon="-3.467426">
        <ele>1012.1</ele>
        <time>2020-08-19T13:05:31Z</time>
        <sat>9</sat>
      </trkpt>
      <trkpt lat="42.372161" lon="-3.467544">
        <ele>1009.8</ele>
        <time>2020-08-19T13:05:38Z</time>
        <sat>10</sat>
      </trkpt>
      <trkpt lat="42.372166" lon="-3.467656">
        <ele>1013.4</ele>
        <time>2020-08-19T13:05:44Z</time>
        <sat>9</sat>
      </trkpt>
      <trkpt lat="42.372184" lon="-3.467778">
        <ele>1014.0</ele>
        <time>2020-08-19T13:05:51Z</time>
        <sat>9</sat>
      </trkpt>
      <trkpt lat="42.372211" lon="-3.467896">
        <ele>1014.2</ele>
        <time>2020-08-19T13:05:58Z</time>
        <sat>9</sat>
      </trkpt>
      <trkpt lat="42.372235" lon="-3.468014">
        <ele>1014.6</ele>
        <time>2020-08-19T13:06:05Z</time>
        <sat>9</sat>
      </trkpt>
      <trkpt lat="42.372246" lon="-3.468124">
        <ele>1015.0</ele>
        <time>2020-08-19T13:06:11Z</time>
        <sat>10</sat>
      </trkpt>
      <trkpt lat="42.372263" lon="-3.468244">
        <ele>1014.8</ele>
        <time>2020-08-19T13:06:18Z</time>
        <sat>9</sat>
      </trkpt>
      <trkpt lat="42.372279" lon="-3.468358">
        <ele>1014.3</ele>
        <time>2020-08-19T13:06:25Z</time>
        <sat>9</sat>
      </trkpt>
      <trkpt lat="42.372284" lon="-3.468474">
        <ele>1014.0</ele>
        <time>2020-08-19T13:06:32Z</time>
        <sat>10</sat>
      </trkpt>
      <trkpt lat="42.372275" lon="-3.468591">
        <ele>1012.7</ele>
        <time>2020-08-19T13:06:56Z</time>
        <sat>10</sat>
      </trkpt>
      <trkpt lat="42.372249" lon="-3.468712">
        <ele>1013.0</ele>
        <time>2020-08-19T13:07:03Z</time>
        <sat>10</sat>
      </trkpt>
      <trkpt lat="42.372221" lon="-3.468827">
        <ele>1013.1</ele>
        <time>2020-08-19T13:07:10Z</time>
        <sat>10</sat>
      </trkpt>
      <trkpt lat="42.372189" lon="-3.468933">
        <ele>1012.9</ele>
        <time>2020-08-19T13:07:16Z</time>
        <sat>10</sat>
      </trkpt>
      <trkpt lat="42.372162" lon="-3.469049">
        <ele>1012.1</ele>
        <time>2020-08-19T13:07:23Z</time>
        <sat>10</sat>
      </trkpt>
      <trkpt lat="42.372125" lon="-3.469155">
        <ele>1011.1</ele>
        <time>2020-08-19T13:07:40Z</time>
        <sat>10</sat>
      </trkpt>
      <trkpt lat="42.372132" lon="-3.469281">
        <ele>1011.0</ele>
        <time>2020-08-19T13:07:47Z</time>
        <sat>10</sat>
      </trkpt>
      <trkpt lat="42.372126" lon="-3.469401">
        <ele>1011.3</ele>
        <time>2020-08-19T13:07:53Z</time>
        <sat>10</sat>
      </trkpt>
      <trkpt lat="42.372131" lon="-3.469514">
        <ele>1011.5</ele>
        <time>2020-08-19T13:07:59Z</time>
        <sat>9</sat>
      </trkpt>
      <trkpt lat="42.372152" lon="-3.469639">
        <ele>1011.7</ele>
        <time>2020-08-19T13:08:06Z</time>
        <sat>10</sat>
      </trkpt>
      <trkpt lat="42.372165" lon="-3.469748">
        <ele>1012.0</ele>
        <time>2020-08-19T13:08:12Z</time>
        <sat>10</sat>
      </trkpt>
      <trkpt lat="42.372198" lon="-3.469853">
        <ele>1012.3</ele>
        <time>2020-08-19T13:08:18Z</time>
        <sat>9</sat>
      </trkpt>
      <trkpt lat="42.372229" lon="-3.469958">
        <ele>1012.5</ele>
        <time>2020-08-19T13:08:24Z</time>
        <sat>9</sat>
      </trkpt>
      <trkpt lat="42.372249" lon="-3.470070">
        <ele>1013.0</ele>
        <time>2020-08-19T13:08:30Z</time>
        <sat>9</sat>
      </trkpt>
      <trkpt lat="42.372283" lon="-3.470173">
        <ele>1012.9</ele>
        <time>2020-08-19T13:08:39Z</time>
        <sat>10</sat>
      </trkpt>
      <trkpt lat="42.372308" lon="-3.470296">
        <ele>1013.2</ele>
        <time>2020-08-19T13:08:46Z</time>
        <sat>8</sat>
      </trkpt>
      <trkpt lat="42.372339" lon="-3.470412">
        <ele>1013.4</ele>
        <time>2020-08-19T13:08:53Z</time>
        <sat>10</sat>
      </trkpt>
      <trkpt lat="42.372349" lon="-3.470528">
        <ele>1013.5</ele>
        <time>2020-08-19T13:09:04Z</time>
        <sat>10</sat>
      </trkpt>
      <trkpt lat="42.372347" lon="-3.470650">
        <ele>1013.3</ele>
        <time>2020-08-19T13:09:13Z</time>
        <sat>10</sat>
      </trkpt>
      <trkpt lat="42.372357" lon="-3.470768">
        <ele>1013.1</ele>
        <time>2020-08-19T13:09:21Z</time>
        <sat>9</sat>
      </trkpt>
      <trkpt lat="42.372364" lon="-3.470884">
        <ele>1012.5</ele>
        <time>2020-08-19T13:09:28Z</time>
        <sat>10</sat>
      </trkpt>
      <trkpt lat="42.372362" lon="-3.470999">
        <ele>1012.1</ele>
        <time>2020-08-19T13:09:35Z</time>
        <sat>10</sat>
      </trkpt>
      <trkpt lat="42.372374" lon="-3.471123">
        <ele>1011.9</ele>
        <time>2020-08-19T13:09:43Z</time>
        <sat>10</sat>
      </trkpt>
      <trkpt lat="42.372371" lon="-3.471240">
        <ele>1012.1</ele>
        <time>2020-08-19T13:09:50Z</time>
        <sat>10</sat>
      </trkpt>
      <trkpt lat="42.372374" lon="-3.471357">
        <ele>1012.0</ele>
        <time>2020-08-19T13:09:57Z</time>
        <sat>10</sat>
      </trkpt>
      <trkpt lat="42.372366" lon="-3.471477">
        <ele>1009.3</ele>
        <time>2020-08-19T13:10:19Z</time>
        <sat>10</sat>
      </trkpt>
      <trkpt lat="42.372344" lon="-3.471593">
        <ele>1008.7</ele>
        <time>2020-08-19T13:10:25Z</time>
        <sat>10</sat>
      </trkpt>
      <trkpt lat="42.372323" lon="-3.471704">
        <ele>1007.7</ele>
        <time>2020-08-19T13:10:32Z</time>
        <sat>10</sat>
      </trkpt>
      <trkpt lat="42.372306" lon="-3.471812">
        <ele>1007.8</ele>
        <time>2020-08-19T13:10:39Z</time>
        <sat>10</sat>
      </trkpt>
      <trkpt lat="42.372284" lon="-3.471924">
        <ele>1006.3</ele>
        <time>2020-08-19T13:10:46Z</time>
        <sat>10</sat>
      </trkpt>
      <trkpt lat="42.372267" lon="-3.472037">
        <ele>1003.9</ele>
        <time>2020-08-19T13:10:53Z</time>
        <sat>10</sat>
      </trkpt>
      <trkpt lat="42.372240" lon="-3.472143">
        <ele>1002.3</ele>
        <time>2020-08-19T13:11:00Z</time>
        <sat>10</sat>
      </trkpt>
      <trkpt lat="42.372220" lon="-3.472260">
        <ele>1002.8</ele>
        <time>2020-08-19T13:11:07Z</time>
        <sat>10</sat>
      </trkpt>
      <trkpt lat="42.372209" lon="-3.472371">
        <ele>1002.6</ele>
        <time>2020-08-19T13:11:15Z</time>
        <sat>10</sat>
      </trkpt>
      <trkpt lat="42.372195" lon="-3.472491">
        <ele>1003.3</ele>
        <time>2020-08-19T13:11:23Z</time>
        <sat>10</sat>
      </trkpt>
      <trkpt lat="42.372175" lon="-3.472606">
        <ele>1004.2</ele>
        <time>2020-08-19T13:11:31Z</time>
        <sat>10</sat>
      </trkpt>
      <trkpt lat="42.372158" lon="-3.472726">
        <ele>1004.4</ele>
        <time>2020-08-19T13:11:45Z</time>
        <sat>10</sat>
      </trkpt>
      <trkpt lat="42.372135" lon="-3.472835">
        <ele>1004.3</ele>
        <time>2020-08-19T13:11:52Z</time>
        <sat>10</sat>
      </trkpt>
      <trkpt lat="42.372108" lon="-3.472953">
        <ele>1004.1</ele>
        <time>2020-08-19T13:12:00Z</time>
        <sat>10</sat>
      </trkpt>
      <trkpt lat="42.372087" lon="-3.473059">
        <ele>1003.6</ele>
        <time>2020-08-19T13:12:08Z</time>
        <sat>10</sat>
      </trkpt>
      <trkpt lat="42.372059" lon="-3.473170">
        <ele>1002.7</ele>
        <time>2020-08-19T13:12:18Z</time>
        <sat>10</sat>
      </trkpt>
      <trkpt lat="42.372019" lon="-3.473282">
        <ele>1002.1</ele>
        <time>2020-08-19T13:12:27Z</time>
        <sat>10</sat>
      </trkpt>
      <trkpt lat="42.371976" lon="-3.473386">
        <ele>1001.8</ele>
        <time>2020-08-19T13:12:35Z</time>
        <sat>10</sat>
      </trkpt>
      <trkpt lat="42.371927" lon="-3.473489">
        <ele>999.7</ele>
        <time>2020-08-19T13:13:06Z</time>
        <sat>10</sat>
      </trkpt>
      <trkpt lat="42.371868" lon="-3.473591">
        <ele>999.9</ele>
        <time>2020-08-19T13:13:13Z</time>
        <sat>10</sat>
      </trkpt>
      <trkpt lat="42.371816" lon="-3.473692">
        <ele>999.6</ele>
        <time>2020-08-19T13:13:20Z</time>
        <sat>10</sat>
      </trkpt>
      <trkpt lat="42.371758" lon="-3.473787">
        <ele>996.5</ele>
        <time>2020-08-19T13:13:27Z</time>
        <sat>10</sat>
      </trkpt>
      <trkpt lat="42.371710" lon="-3.473881">
        <ele>996.4</ele>
        <time>2020-08-19T13:13:37Z</time>
        <sat>10</sat>
      </trkpt>
      <trkpt lat="42.371655" lon="-3.473976">
        <ele>996.0</ele>
        <time>2020-08-19T13:13:45Z</time>
        <sat>10</sat>
      </trkpt>
      <trkpt lat="42.371609" lon="-3.474066">
        <ele>995.3</ele>
        <time>2020-08-19T13:13:52Z</time>
        <sat>10</sat>
      </trkpt>
      <trkpt lat="42.371556" lon="-3.474165">
        <ele>986.6</ele>
        <time>2020-08-19T13:14:00Z</time>
        <sat>10</sat>
      </trkpt>
      <trkpt lat="42.371499" lon="-3.474255">
        <ele>996.7</ele>
        <time>2020-08-19T13:14:07Z</time>
        <sat>10</sat>
      </trkpt>
      <trkpt lat="42.371454" lon="-3.474348">
        <ele>996.2</ele>
        <time>2020-08-19T13:14:14Z</time>
        <sat>10</sat>
      </trkpt>
      <trkpt lat="42.371398" lon="-3.474442">
        <ele>992.5</ele>
        <time>2020-08-19T13:14:28Z</time>
        <sat>10</sat>
      </trkpt>
      <trkpt lat="42.371348" lon="-3.474532">
        <ele>991.7</ele>
        <time>2020-08-19T13:14:35Z</time>
        <sat>10</sat>
      </trkpt>
      <trkpt lat="42.371297" lon="-3.474627">
        <ele>991.0</ele>
        <time>2020-08-19T13:14:42Z</time>
        <sat>10</sat>
      </trkpt>
      <trkpt lat="42.371243" lon="-3.474716">
        <ele>990.2</ele>
        <time>2020-08-19T13:14:49Z</time>
        <sat>10</sat>
      </trkpt>
      <trkpt lat="42.371186" lon="-3.474812">
        <ele>989.4</ele>
        <time>2020-08-19T13:14:57Z</time>
        <sat>10</sat>
      </trkpt>
      <trkpt lat="42.371133" lon="-3.474915">
        <ele>988.6</ele>
        <time>2020-08-19T13:15:05Z</time>
        <sat>10</sat>
      </trkpt>
      <trkpt lat="42.371079" lon="-3.475000">
        <ele>987.8</ele>
        <time>2020-08-19T13:15:12Z</time>
        <sat>10</sat>
      </trkpt>
      <trkpt lat="42.371028" lon="-3.475086">
        <ele>986.1</ele>
        <time>2020-08-19T13:15:18Z</time>
        <sat>10</sat>
      </trkpt>
      <trkpt lat="42.370986" lon="-3.475179">
        <ele>986.0</ele>
        <time>2020-08-19T13:15:25Z</time>
        <sat>10</sat>
      </trkpt>
      <trkpt lat="42.370938" lon="-3.475275">
        <ele>984.9</ele>
        <time>2020-08-19T13:15:32Z</time>
        <sat>10</sat>
      </trkpt>
      <trkpt lat="42.370881" lon="-3.475360">
        <ele>983.5</ele>
        <time>2020-08-19T13:15:39Z</time>
        <sat>10</sat>
      </trkpt>
      <trkpt lat="42.370827" lon="-3.475451">
        <ele>981.9</ele>
        <time>2020-08-19T13:15:46Z</time>
        <sat>10</sat>
      </trkpt>
      <trkpt lat="42.370779" lon="-3.475540">
        <ele>980.3</ele>
        <time>2020-08-19T13:15:52Z</time>
        <sat>10</sat>
      </trkpt>
      <trkpt lat="42.370726" lon="-3.475645">
        <ele>979.0</ele>
        <time>2020-08-19T13:15:59Z</time>
        <sat>10</sat>
      </trkpt>
      <trkpt lat="42.370671" lon="-3.475738">
        <ele>978.7</ele>
        <time>2020-08-19T13:16:06Z</time>
        <sat>9</sat>
      </trkpt>
      <trkpt lat="42.370614" lon="-3.475819">
        <ele>979.0</ele>
        <time>2020-08-19T13:16:13Z</time>
        <sat>9</sat>
      </trkpt>
      <trkpt lat="42.370563" lon="-3.475920">
        <ele>979.0</ele>
        <time>2020-08-19T13:16:20Z</time>
        <sat>9</sat>
      </trkpt>
      <trkpt lat="42.370509" lon="-3.476002">
        <ele>978.8</ele>
        <time>2020-08-19T13:16:26Z</time>
        <sat>10</sat>
      </trkpt>
      <trkpt lat="42.370459" lon="-3.476101">
        <ele>978.3</ele>
        <time>2020-08-19T13:16:33Z</time>
        <sat>10</sat>
      </trkpt>
      <trkpt lat="42.370406" lon="-3.476197">
        <ele>977.0</ele>
        <time>2020-08-19T13:16:41Z</time>
        <sat>10</sat>
      </trkpt>
      <trkpt lat="42.370351" lon="-3.476294">
        <ele>973.9</ele>
        <time>2020-08-19T13:16:48Z</time>
        <sat>10</sat>
      </trkpt>
      <trkpt lat="42.370301" lon="-3.476402">
        <ele>975.4</ele>
        <time>2020-08-19T13:16:55Z</time>
        <sat>10</sat>
      </trkpt>
      <trkpt lat="42.370248" lon="-3.476491">
        <ele>975.7</ele>
        <time>2020-08-19T13:17:01Z</time>
        <sat>10</sat>
      </trkpt>
      <trkpt lat="42.370213" lon="-3.476608">
        <ele>975.1</ele>
        <time>2020-08-19T13:17:08Z</time>
        <sat>10</sat>
      </trkpt>
      <trkpt lat="42.370169" lon="-3.476715">
        <ele>975.0</ele>
        <time>2020-08-19T13:17:15Z</time>
        <sat>10</sat>
      </trkpt>
      <trkpt lat="42.370121" lon="-3.476820">
        <ele>976.3</ele>
        <time>2020-08-19T13:17:22Z</time>
        <sat>10</sat>
      </trkpt>
      <trkpt lat="42.370080" lon="-3.476921">
        <ele>977.5</ele>
        <time>2020-08-19T13:17:29Z</time>
        <sat>10</sat>
      </trkpt>
      <trkpt lat="42.370030" lon="-3.477021">
        <ele>978.5</ele>
        <time>2020-08-19T13:17:36Z</time>
        <sat>10</sat>
      </trkpt>
      <trkpt lat="42.369991" lon="-3.477130">
        <ele>979.2</ele>
        <time>2020-08-19T13:17:43Z</time>
        <sat>10</sat>
      </trkpt>
      <trkpt lat="42.369950" lon="-3.477238">
        <ele>979.7</ele>
        <time>2020-08-19T13:17:50Z</time>
        <sat>10</sat>
      </trkpt>
      <trkpt lat="42.369908" lon="-3.477333">
        <ele>980.0</ele>
        <time>2020-08-19T13:17:57Z</time>
        <sat>10</sat>
      </trkpt>
      <trkpt lat="42.369861" lon="-3.477427">
        <ele>980.4</ele>
        <time>2020-08-19T13:18:07Z</time>
        <sat>10</sat>
      </trkpt>
      <trkpt lat="42.369851" lon="-3.477543">
        <ele>980.2</ele>
        <time>2020-08-19T13:18:28Z</time>
        <sat>10</sat>
      </trkpt>
      <trkpt lat="42.369829" lon="-3.477649">
        <ele>980.3</ele>
        <time>2020-08-19T13:18:40Z</time>
        <sat>10</sat>
      </trkpt>
      <trkpt lat="42.369801" lon="-3.477768">
        <ele>980.4</ele>
        <time>2020-08-19T13:18:47Z</time>
        <sat>10</sat>
      </trkpt>
      <trkpt lat="42.369778" lon="-3.477873">
        <ele>980.6</ele>
        <time>2020-08-19T13:18:54Z</time>
        <sat>10</sat>
      </trkpt>
      <trkpt lat="42.369756" lon="-3.477990">
        <ele>980.6</ele>
        <time>2020-08-19T13:19:01Z</time>
        <sat>10</sat>
      </trkpt>
      <trkpt lat="42.369748" lon="-3.478109">
        <ele>981.0</ele>
        <time>2020-08-19T13:19:08Z</time>
        <sat>9</sat>
      </trkpt>
      <trkpt lat="42.369724" lon="-3.478229">
        <ele>981.4</ele>
        <time>2020-08-19T13:19:16Z</time>
        <sat>9</sat>
      </trkpt>
      <trkpt lat="42.369727" lon="-3.478341">
        <ele>981.6</ele>
        <time>2020-08-19T13:19:26Z</time>
        <sat>9</sat>
      </trkpt>
      <trkpt lat="42.369751" lon="-3.478450">
        <ele>981.4</ele>
        <time>2020-08-19T13:19:33Z</time>
        <sat>10</sat>
      </trkpt>
      <trkpt lat="42.369778" lon="-3.478557">
        <ele>981.6</ele>
        <time>2020-08-19T13:19:40Z</time>
        <sat>10</sat>
      </trkpt>
      <trkpt lat="42.369807" lon="-3.478674">
        <ele>982.1</ele>
        <time>2020-08-19T13:19:50Z</time>
        <sat>10</sat>
      </trkpt>
      <trkpt lat="42.369796" lon="-3.478809">
        <ele>961.2</ele>
        <time>2020-08-20T05:07:49Z</time>
        <sat>7</sat>
      </trkpt>
      <trkpt lat="42.369860" lon="-3.478888">
        <ele>958.8</ele>
        <time>2020-08-20T05:07:59Z</time>
        <sat>7</sat>
      </trkpt>
      <trkpt lat="42.369904" lon="-3.478984">
        <ele>962.1</ele>
        <time>2020-08-20T05:08:08Z</time>
        <sat>6</sat>
      </trkpt>
      <trkpt lat="42.369934" lon="-3.479098">
        <ele>962.6</ele>
        <time>2020-08-20T05:08:17Z</time>
        <sat>7</sat>
      </trkpt>
      <trkpt lat="42.369974" lon="-3.479200">
        <ele>962.8</ele>
        <time>2020-08-20T05:08:26Z</time>
        <sat>7</sat>
      </trkpt>
      <trkpt lat="42.370034" lon="-3.479283">
        <ele>963.1</ele>
        <time>2020-08-20T05:08:33Z</time>
        <sat>6</sat>
      </trkpt>
      <trkpt lat="42.370104" lon="-3.479355">
        <ele>963.1</ele>
        <time>2020-08-20T05:08:40Z</time>
        <sat>7</sat>
      </trkpt>
      <trkpt lat="42.370167" lon="-3.479447">
        <ele>963.1</ele>
        <time>2020-08-20T05:08:48Z</time>
        <sat>7</sat>
      </trkpt>
      <trkpt lat="42.370219" lon="-3.479535">
        <ele>963.1</ele>
        <time>2020-08-20T05:08:56Z</time>
        <sat>7</sat>
      </trkpt>
      <trkpt lat="42.370252" lon="-3.479643">
        <ele>963.0</ele>
        <time>2020-08-20T05:09:08Z</time>
        <sat>7</sat>
      </trkpt>
      <trkpt lat="42.370258" lon="-3.479758">
        <ele>962.7</ele>
        <time>2020-08-20T05:09:21Z</time>
        <sat>5</sat>
      </trkpt>
      <trkpt lat="42.370217" lon="-3.479870">
        <ele>962.8</ele>
        <time>2020-08-20T05:09:33Z</time>
        <sat>7</sat>
      </trkpt>
      <trkpt lat="42.370224" lon="-3.479877">
        <ele>961.8</ele>
        <time>2020-08-20T05:09:43Z</time>
        <sat>6</sat>
      </trkpt>
      <trkpt lat="42.370225" lon="-3.479874">
        <ele>961.6</ele>
        <time>2020-08-20T05:09:50Z</time>
        <sat>6</sat>
      </trkpt>
      <trkpt lat="42.370198" lon="-3.479977">
        <ele>962.1</ele>
        <time>2020-08-20T05:10:01Z</time>
        <sat>7</sat>
      </trkpt>
      <trkpt lat="42.370195" lon="-3.480096">
        <ele>961.7</ele>
        <time>2020-08-20T05:10:10Z</time>
        <sat>6</sat>
      </trkpt>
      <trkpt lat="42.370245" lon="-3.480190">
        <ele>962.2</ele>
        <time>2020-08-20T05:10:20Z</time>
        <sat>6</sat>
      </trkpt>
      <trkpt lat="42.370247" lon="-3.480320">
        <ele>962.5</ele>
        <time>2020-08-20T05:10:27Z</time>
        <sat>6</sat>
      </trkpt>
      <trkpt lat="42.370248" lon="-3.480446">
        <ele>961.6</ele>
        <time>2020-08-20T05:10:32Z</time>
        <sat>5</sat>
      </trkpt>
      <trkpt lat="42.370284" lon="-3.480552">
        <ele>962.4</ele>
        <time>2020-08-20T05:10:38Z</time>
        <sat>5</sat>
      </trkpt>
      <trkpt lat="42.370337" lon="-3.480655">
        <ele>961.6</ele>
        <time>2020-08-20T05:10:45Z</time>
        <sat>6</sat>
      </trkpt>
      <trkpt lat="42.370388" lon="-3.480740">
        <ele>961.2</ele>
        <time>2020-08-20T05:10:50Z</time>
        <sat>6</sat>
      </trkpt>
      <trkpt lat="42.370414" lon="-3.480849">
        <ele>961.2</ele>
        <time>2020-08-20T05:10:56Z</time>
        <sat>6</sat>
      </trkpt>
      <trkpt lat="42.370448" lon="-3.480960">
        <ele>960.2</ele>
        <time>2020-08-20T05:11:02Z</time>
        <sat>6</sat>
      </trkpt>
      <trkpt lat="42.370467" lon="-3.481067">
        <ele>959.3</ele>
        <time>2020-08-20T05:11:08Z</time>
        <sat>7</sat>
      </trkpt>
      <trkpt lat="42.370510" lon="-3.481162">
        <ele>959.6</ele>
        <time>2020-08-20T05:11:15Z</time>
        <sat>6</sat>
      </trkpt>
      <trkpt lat="42.370566" lon="-3.481249">
        <ele>959.7</ele>
        <time>2020-08-20T05:11:22Z</time>
        <sat>6</sat>
      </trkpt>
      <trkpt lat="42.370606" lon="-3.481346">
        <ele>959.5</ele>
        <time>2020-08-20T05:11:28Z</time>
        <sat>6</sat>
      </trkpt>
      <trkpt lat="42.370647" lon="-3.481441">
        <ele>959.1</ele>
        <time>2020-08-20T05:11:34Z</time>
        <sat>6</sat>
      </trkpt>
      <trkpt lat="42.370689" lon="-3.481543">
        <ele>958.5</ele>
        <time>2020-08-20T05:11:41Z</time>
        <sat>7</sat>
      </trkpt>
      <trkpt lat="42.370734" lon="-3.481652">
        <ele>957.9</ele>
        <time>2020-08-20T05:11:48Z</time>
        <sat>7</sat>
      </trkpt>
      <trkpt lat="42.370771" lon="-3.481753">
        <ele>956.4</ele>
        <time>2020-08-20T05:11:54Z</time>
        <sat>7</sat>
      </trkpt>
      <trkpt lat="42.370818" lon="-3.481852">
        <ele>956.7</ele>
        <time>2020-08-20T05:12:01Z</time>
        <sat>7</sat>
      </trkpt>
      <trkpt lat="42.370864" lon="-3.481961">
        <ele>956.3</ele>
        <time>2020-08-20T05:12:08Z</time>
        <sat>7</sat>
      </trkpt>
      <trkpt lat="42.370908" lon="-3.482066">
        <ele>955.6</ele>
        <time>2020-08-20T05:12:15Z</time>
        <sat>7</sat>
      </trkpt>
      <trkpt lat="42.370949" lon="-3.482168">
        <ele>955.3</ele>
        <time>2020-08-20T05:12:22Z</time>
        <sat>7</sat>
      </trkpt>
      <trkpt lat="42.370989" lon="-3.482264">
        <ele>951.9</ele>
        <time>2020-08-20T05:12:28Z</time>
        <sat>7</sat>
      </trkpt>
      <trkpt lat="42.371035" lon="-3.482372">
        <ele>954.4</ele>
        <time>2020-08-20T05:12:35Z</time>
        <sat>7</sat>
      </trkpt>
      <trkpt lat="42.371072" lon="-3.482476">
        <ele>953.7</ele>
        <time>2020-08-20T05:12:41Z</time>
        <sat>7</sat>
      </trkpt>
      <trkpt lat="42.371114" lon="-3.482571">
        <ele>954.1</ele>
        <time>2020-08-20T05:12:46Z</time>
        <sat>7</sat>
      </trkpt>
      <trkpt lat="42.371159" lon="-3.482667">
        <ele>954.2</ele>
        <time>2020-08-20T05:12:52Z</time>
        <sat>7</sat>
      </trkpt>
      <trkpt lat="42.371194" lon="-3.482781">
        <ele>954.0</ele>
        <time>2020-08-20T05:12:59Z</time>
        <sat>7</sat>
      </trkpt>
      <trkpt lat="42.371232" lon="-3.482880">
        <ele>953.0</ele>
        <time>2020-08-20T05:13:05Z</time>
        <sat>7</sat>
      </trkpt>
      <trkpt lat="42.371288" lon="-3.482977">
        <ele>952.0</ele>
        <time>2020-08-20T05:13:11Z</time>
        <sat>7</sat>
      </trkpt>
      <trkpt lat="42.371332" lon="-3.483088">
        <ele>952.1</ele>
        <time>2020-08-20T05:13:18Z</time>
        <sat>7</sat>
      </trkpt>
      <trkpt lat="42.371348" lon="-3.483205">
        <ele>951.7</ele>
        <time>2020-08-20T05:13:25Z</time>
        <sat>7</sat>
      </trkpt>
      <trkpt lat="42.371375" lon="-3.483309">
        <ele>951.1</ele>
        <time>2020-08-20T05:13:31Z</time>
        <sat>7</sat>
      </trkpt>
      <trkpt lat="42.371362" lon="-3.483426">
        <ele>950.1</ele>
        <time>2020-08-20T05:13:39Z</time>
        <sat>7</sat>
      </trkpt>
      <trkpt lat="42.371391" lon="-3.483544">
        <ele>949.5</ele>
        <time>2020-08-20T05:13:45Z</time>
        <sat>7</sat>
      </trkpt>
      <trkpt lat="42.371418" lon="-3.483657">
        <ele>948.9</ele>
        <time>2020-08-20T05:13:52Z</time>
        <sat>7</sat>
      </trkpt>
      <trkpt lat="42.371451" lon="-3.483774">
        <ele>948.5</ele>
        <time>2020-08-20T05:13:59Z</time>
        <sat>7</sat>
      </trkpt>
      <trkpt lat="42.371482" lon="-3.483877">
        <ele>948.2</ele>
        <time>2020-08-20T05:14:05Z</time>
        <sat>7</sat>
      </trkpt>
      <trkpt lat="42.371514" lon="-3.483993">
        <ele>947.9</ele>
        <time>2020-08-20T05:14:14Z</time>
        <sat>7</sat>
      </trkpt>
      <trkpt lat="42.371544" lon="-3.484100">
        <ele>947.8</ele>
        <time>2020-08-20T05:14:20Z</time>
        <sat>7</sat>
      </trkpt>
      <trkpt lat="42.371563" lon="-3.484221">
        <ele>947.5</ele>
        <time>2020-08-20T05:14:27Z</time>
        <sat>7</sat>
      </trkpt>
      <trkpt lat="42.371592" lon="-3.484327">
        <ele>947.3</ele>
        <time>2020-08-20T05:14:33Z</time>
        <sat>7</sat>
      </trkpt>
      <trkpt lat="42.371600" lon="-3.484447">
        <ele>947.2</ele>
        <time>2020-08-20T05:14:40Z</time>
        <sat>7</sat>
      </trkpt>
      <trkpt lat="42.371610" lon="-3.484561">
        <ele>947.1</ele>
        <time>2020-08-20T05:14:48Z</time>
        <sat>7</sat>
      </trkpt>
      <trkpt lat="42.371565" lon="-3.484656">
        <ele>946.8</ele>
        <time>2020-08-20T05:14:57Z</time>
        <sat>7</sat>
      </trkpt>
      <trkpt lat="42.371490" lon="-3.484699">
        <ele>946.5</ele>
        <time>2020-08-20T05:15:21Z</time>
        <sat>7</sat>
      </trkpt>
      <trkpt lat="42.371408" lon="-3.484769">
        <ele>946.5</ele>
        <time>2020-08-20T05:16:19Z</time>
        <sat>7</sat>
      </trkpt>
      <trkpt lat="42.371361" lon="-3.484861">
        <ele>947.1</ele>
        <time>2020-08-20T05:16:32Z</time>
        <sat>6</sat>
      </trkpt>
      <trkpt lat="42.371386" lon="-3.484970">
        <ele>946.7</ele>
        <time>2020-08-20T05:16:46Z</time>
        <sat>6</sat>
      </trkpt>
      <trkpt lat="42.371407" lon="-3.485092">
        <ele>946.5</ele>
        <time>2020-08-20T05:16:52Z</time>
        <sat>7</sat>
      </trkpt>
      <trkpt lat="42.371409" lon="-3.485213">
        <ele>946.4</ele>
        <time>2020-08-20T05:16:58Z</time>
        <sat>7</sat>
      </trkpt>
      <trkpt lat="42.371393" lon="-3.485326">
        <ele>946.2</ele>
        <time>2020-08-20T05:17:04Z</time>
        <sat>7</sat>
      </trkpt>
      <trkpt lat="42.371351" lon="-3.485436">
        <ele>946.1</ele>
        <time>2020-08-20T05:17:10Z</time>
        <sat>7</sat>
      </trkpt>
      <trkpt lat="42.371326" lon="-3.485554">
        <ele>945.9</ele>
        <time>2020-08-20T05:17:17Z</time>
        <sat>7</sat>
      </trkpt>
      <trkpt lat="42.371348" lon="-3.485664">
        <ele>945.8</ele>
        <time>2020-08-20T05:17:24Z</time>
        <sat>7</sat>
      </trkpt>
      <trkpt lat="42.371427" lon="-3.485722">
        <ele>945.7</ele>
        <time>2020-08-20T05:17:31Z</time>
        <sat>7</sat>
      </trkpt>
      <trkpt lat="42.371518" lon="-3.485737">
        <ele>945.6</ele>
        <time>2020-08-20T05:17:37Z</time>
        <sat>7</sat>
      </trkpt>
      <trkpt lat="42.371613" lon="-3.485730">
        <ele>945.6</ele>
        <time>2020-08-20T05:17:43Z</time>
        <sat>7</sat>
      </trkpt>
      <trkpt lat="42.371684" lon="-3.485806">
        <ele>945.7</ele>
        <time>2020-08-20T05:17:50Z</time>
        <sat>7</sat>
      </trkpt>
      <trkpt lat="42.371677" lon="-3.485930">
        <ele>945.9</ele>
        <time>2020-08-20T05:17:56Z</time>
        <sat>7</sat>
      </trkpt>
      <trkpt lat="42.371669" lon="-3.486051">
        <ele>946.0</ele>
        <time>2020-08-20T05:18:02Z</time>
        <sat>7</sat>
      </trkpt>
      <trkpt lat="42.371676" lon="-3.486171">
        <ele>946.0</ele>
        <time>2020-08-20T05:18:08Z</time>
        <sat>7</sat>
      </trkpt>
      <trkpt lat="42.371680" lon="-3.486283">
        <ele>945.9</ele>
        <time>2020-08-20T05:18:14Z</time>
        <sat>7</sat>
      </trkpt>
      <trkpt lat="42.371671" lon="-3.486398">
        <ele>945.9</ele>
        <time>2020-08-20T05:18:20Z</time>
        <sat>7</sat>
      </trkpt>
      <trkpt lat="42.371670" lon="-3.486512">
        <ele>945.9</ele>
        <time>2020-08-20T05:18:26Z</time>
        <sat>7</sat>
      </trkpt>
      <trkpt lat="42.371673" lon="-3.486634">
        <ele>946.0</ele>
        <time>2020-08-20T05:18:34Z</time>
        <sat>7</sat>
      </trkpt>
      <trkpt lat="42.371673" lon="-3.486748">
        <ele>946.0</ele>
        <time>2020-08-20T05:18:40Z</time>
        <sat>7</sat>
      </trkpt>
      <trkpt lat="42.371669" lon="-3.486870">
        <ele>945.9</ele>
        <time>2020-08-20T05:18:47Z</time>
        <sat>7</sat>
      </trkpt>
      <trkpt lat="42.371671" lon="-3.486985">
        <ele>945.8</ele>
        <time>2020-08-20T05:18:54Z</time>
        <sat>7</sat>
      </trkpt>
      <trkpt lat="42.371666" lon="-3.487108">
        <ele>945.6</ele>
        <time>2020-08-20T05:19:01Z</time>
        <sat>7</sat>
      </trkpt>
      <trkpt lat="42.371662" lon="-3.487225">
        <ele>945.6</ele>
        <time>2020-08-20T05:19:08Z</time>
        <sat>7</sat>
      </trkpt>
      <trkpt lat="42.371662" lon="-3.487352">
        <ele>945.7</ele>
        <time>2020-08-20T05:19:15Z</time>
        <sat>7</sat>
      </trkpt>
      <trkpt lat="42.371657" lon="-3.487477">
        <ele>945.8</ele>
        <time>2020-08-20T05:19:22Z</time>
        <sat>7</sat>
      </trkpt>
      <trkpt lat="42.371661" lon="-3.487600">
        <ele>945.7</ele>
        <time>2020-08-20T05:19:30Z</time>
        <sat>7</sat>
      </trkpt>
      <trkpt lat="42.371657" lon="-3.487723">
        <ele>945.7</ele>
        <time>2020-08-20T05:19:37Z</time>
        <sat>7</sat>
      </trkpt>
      <trkpt lat="42.371659" lon="-3.487836">
        <ele>945.7</ele>
        <time>2020-08-20T05:19:44Z</time>
        <sat>7</sat>
      </trkpt>
      <trkpt lat="42.371665" lon="-3.487960">
        <ele>945.6</ele>
        <time>2020-08-20T05:19:51Z</time>
        <sat>7</sat>
      </trkpt>
      <trkpt lat="42.371656" lon="-3.488082">
        <ele>945.6</ele>
        <time>2020-08-20T05:19:58Z</time>
        <sat>7</sat>
      </trkpt>
      <trkpt lat="42.371645" lon="-3.488208">
        <ele>945.0</ele>
        <time>2020-08-20T05:20:05Z</time>
        <sat>7</sat>
      </trkpt>
      <trkpt lat="42.371641" lon="-3.488325">
        <ele>945.7</ele>
        <time>2020-08-20T05:20:12Z</time>
        <sat>7</sat>
      </trkpt>
      <trkpt lat="42.371645" lon="-3.488447">
        <ele>945.6</ele>
        <time>2020-08-20T05:20:19Z</time>
        <sat>7</sat>
      </trkpt>
      <trkpt lat="42.371641" lon="-3.488576">
        <ele>945.6</ele>
        <time>2020-08-20T05:20:26Z</time>
        <sat>7</sat>
      </trkpt>
      <trkpt lat="42.371649" lon="-3.488694">
        <ele>945.5</ele>
        <time>2020-08-20T05:20:33Z</time>
        <sat>7</sat>
      </trkpt>
      <trkpt lat="42.371650" lon="-3.488807">
        <ele>945.5</ele>
        <time>2020-08-20T05:20:39Z</time>
        <sat>7</sat>
      </trkpt>
      <trkpt lat="42.371664" lon="-3.488917">
        <ele>945.7</ele>
        <time>2020-08-20T05:20:45Z</time>
        <sat>7</sat>
      </trkpt>
      <trkpt lat="42.371686" lon="-3.489025">
        <ele>945.8</ele>
        <time>2020-08-20T05:20:51Z</time>
        <sat>7</sat>
      </trkpt>
      <trkpt lat="42.371696" lon="-3.489141">
        <ele>945.7</ele>
        <time>2020-08-20T05:20:57Z</time>
        <sat>7</sat>
      </trkpt>
      <trkpt lat="42.371719" lon="-3.489252">
        <ele>945.8</ele>
        <time>2020-08-20T05:21:03Z</time>
        <sat>7</sat>
      </trkpt>
      <trkpt lat="42.371748" lon="-3.489372">
        <ele>945.8</ele>
        <time>2020-08-20T05:21:10Z</time>
        <sat>7</sat>
      </trkpt>
      <trkpt lat="42.371771" lon="-3.489485">
        <ele>945.7</ele>
        <time>2020-08-20T05:21:16Z</time>
        <sat>7</sat>
      </trkpt>
      <trkpt lat="42.371793" lon="-3.489600">
        <ele>945.7</ele>
        <time>2020-08-20T05:21:22Z</time>
        <sat>7</sat>
      </trkpt>
      <trkpt lat="42.371821" lon="-3.489708">
        <ele>945.8</ele>
        <time>2020-08-20T05:21:28Z</time>
        <sat>7</sat>
      </trkpt>
      <trkpt lat="42.371828" lon="-3.489818">
        <ele>945.8</ele>
        <time>2020-08-20T05:21:34Z</time>
        <sat>7</sat>
      </trkpt>
      <trkpt lat="42.371849" lon="-3.489932">
        <ele>945.9</ele>
        <time>2020-08-20T05:21:40Z</time>
        <sat>7</sat>
      </trkpt>
      <trkpt lat="42.371874" lon="-3.490044">
        <ele>946.0</ele>
        <time>2020-08-20T05:21:46Z</time>
        <sat>7</sat>
      </trkpt>
      <trkpt lat="42.371894" lon="-3.490166">
        <ele>946.0</ele>
        <time>2020-08-20T05:21:53Z</time>
        <sat>7</sat>
      </trkpt>
      <trkpt lat="42.371912" lon="-3.490288">
        <ele>946.1</ele>
        <time>2020-08-20T05:22:00Z</time>
        <sat>7</sat>
      </trkpt>
      <trkpt lat="42.371939" lon="-3.490408">
        <ele>946.2</ele>
        <time>2020-08-20T05:22:07Z</time>
        <sat>7</sat>
      </trkpt>
      <trkpt lat="42.371951" lon="-3.490522">
        <ele>946.2</ele>
        <time>2020-08-20T05:22:13Z</time>
        <sat>7</sat>
      </trkpt>
      <trkpt lat="42.371977" lon="-3.490631">
        <ele>946.2</ele>
        <time>2020-08-20T05:22:19Z</time>
        <sat>7</sat>
      </trkpt>
      <trkpt lat="42.371997" lon="-3.490755">
        <ele>946.4</ele>
        <time>2020-08-20T05:22:26Z</time>
        <sat>7</sat>
      </trkpt>
      <trkpt lat="42.372016" lon="-3.490862">
        <ele>946.4</ele>
        <time>2020-08-20T05:22:32Z</time>
        <sat>6</sat>
      </trkpt>
      <trkpt lat="42.372045" lon="-3.490966">
        <ele>946.4</ele>
        <time>2020-08-20T05:22:38Z</time>
        <sat>7</sat>
      </trkpt>
      <trkpt lat="42.372059" lon="-3.491079">
        <ele>946.4</ele>
        <time>2020-08-20T05:22:44Z</time>
        <sat>7</sat>
      </trkpt>
      <trkpt lat="42.372082" lon="-3.491193">
        <ele>946.4</ele>
        <time>2020-08-20T05:22:50Z</time>
        <sat>7</sat>
      </trkpt>
      <trkpt lat="42.372113" lon="-3.491302">
        <ele>946.3</ele>
        <time>2020-08-20T05:22:56Z</time>
        <sat>7</sat>
      </trkpt>
      <trkpt lat="42.372123" lon="-3.491413">
        <ele>946.5</ele>
        <time>2020-08-20T05:23:02Z</time>
        <sat>7</sat>
      </trkpt>
      <trkpt lat="42.372141" lon="-3.491527">
        <ele>946.4</ele>
        <time>2020-08-20T05:23:08Z</time>
        <sat>7</sat>
      </trkpt>
      <trkpt lat="42.372172" lon="-3.491637">
        <ele>946.5</ele>
        <time>2020-08-20T05:23:14Z</time>
        <sat>7</sat>
      </trkpt>
      <trkpt lat="42.372191" lon="-3.491761">
        <ele>946.5</ele>
        <time>2020-08-20T05:23:21Z</time>
        <sat>7</sat>
      </trkpt>
      <trkpt lat="42.372217" lon="-3.491882">
        <ele>946.6</ele>
        <time>2020-08-20T05:23:34Z</time>
        <sat>7</sat>
      </trkpt>
      <trkpt lat="42.372236" lon="-3.491996">
        <ele>946.4</ele>
        <time>2020-08-20T05:23:40Z</time>
        <sat>7</sat>
      </trkpt>
      <trkpt lat="42.372266" lon="-3.492108">
        <ele>946.4</ele>
        <time>2020-08-20T05:23:46Z</time>
        <sat>7</sat>
      </trkpt>
      <trkpt lat="42.372284" lon="-3.492218">
        <ele>946.2</ele>
        <time>2020-08-20T05:23:52Z</time>
        <sat>7</sat>
      </trkpt>
      <trkpt lat="42.372302" lon="-3.492331">
        <ele>946.2</ele>
        <time>2020-08-20T05:23:58Z</time>
        <sat>7</sat>
      </trkpt>
      <trkpt lat="42.372316" lon="-3.492444">
        <ele>946.2</ele>
        <time>2020-08-20T05:24:04Z</time>
        <sat>7</sat>
      </trkpt>
      <trkpt lat="42.372340" lon="-3.492559">
        <ele>946.2</ele>
        <time>2020-08-20T05:24:10Z</time>
        <sat>7</sat>
      </trkpt>
      <trkpt lat="42.372365" lon="-3.492666">
        <ele>946.3</ele>
        <time>2020-08-20T05:24:16Z</time>
        <sat>7</sat>
      </trkpt>
      <trkpt lat="42.372383" lon="-3.492777">
        <ele>946.4</ele>
        <time>2020-08-20T05:24:22Z</time>
        <sat>7</sat>
      </trkpt>
      <trkpt lat="42.372410" lon="-3.492896">
        <ele>946.4</ele>
        <time>2020-08-20T05:24:29Z</time>
        <sat>7</sat>
      </trkpt>
      <trkpt lat="42.372430" lon="-3.493014">
        <ele>946.5</ele>
        <time>2020-08-20T05:24:36Z</time>
        <sat>7</sat>
      </trkpt>
      <trkpt lat="42.372454" lon="-3.493133">
        <ele>946.5</ele>
        <time>2020-08-20T05:24:43Z</time>
        <sat>7</sat>
      </trkpt>
      <trkpt lat="42.372476" lon="-3.493241">
        <ele>946.5</ele>
        <time>2020-08-20T05:24:49Z</time>
        <sat>7</sat>
      </trkpt>
      <trkpt lat="42.372493" lon="-3.493363">
        <ele>946.6</ele>
        <time>2020-08-20T05:24:55Z</time>
        <sat>7</sat>
      </trkpt>
      <trkpt lat="42.372509" lon="-3.493482">
        <ele>946.7</ele>
        <time>2020-08-20T05:25:01Z</time>
        <sat>7</sat>
      </trkpt>
      <trkpt lat="42.372532" lon="-3.493587">
        <ele>946.8</ele>
        <time>2020-08-20T05:25:07Z</time>
        <sat>7</sat>
      </trkpt>
      <trkpt lat="42.372545" lon="-3.493706">
        <ele>947.0</ele>
        <time>2020-08-20T05:25:14Z</time>
        <sat>7</sat>
      </trkpt>
      <trkpt lat="42.372574" lon="-3.493828">
        <ele>947.3</ele>
        <time>2020-08-20T05:25:21Z</time>
        <sat>7</sat>
      </trkpt>
      <trkpt lat="42.372593" lon="-3.493948">
        <ele>947.4</ele>
        <time>2020-08-20T05:25:28Z</time>
        <sat>7</sat>
      </trkpt>
      <trkpt lat="42.372623" lon="-3.494066">
        <ele>947.6</ele>
        <time>2020-08-20T05:25:35Z</time>
        <sat>8</sat>
      </trkpt>
      <trkpt lat="42.372646" lon="-3.494185">
        <ele>947.9</ele>
        <time>2020-08-20T05:25:42Z</time>
        <sat>8</sat>
      </trkpt>
      <trkpt lat="42.372667" lon="-3.494304">
        <ele>948.2</ele>
        <time>2020-08-20T05:25:49Z</time>
        <sat>8</sat>
      </trkpt>
      <trkpt lat="42.372685" lon="-3.494428">
        <ele>948.2</ele>
        <time>2020-08-20T05:25:56Z</time>
        <sat>8</sat>
      </trkpt>
      <trkpt lat="42.372712" lon="-3.494547">
        <ele>948.2</ele>
        <time>2020-08-20T05:26:03Z</time>
        <sat>8</sat>
      </trkpt>
      <trkpt lat="42.372732" lon="-3.494671">
        <ele>948.4</ele>
        <time>2020-08-20T05:26:10Z</time>
        <sat>8</sat>
      </trkpt>
      <trkpt lat="42.372753" lon="-3.494788">
        <ele>948.5</ele>
        <time>2020-08-20T05:26:17Z</time>
        <sat>8</sat>
      </trkpt>
      <trkpt lat="42.372770" lon="-3.494911">
        <ele>948.7</ele>
        <time>2020-08-20T05:26:24Z</time>
        <sat>8</sat>
      </trkpt>
      <trkpt lat="42.372795" lon="-3.495030">
        <ele>948.7</ele>
        <time>2020-08-20T05:26:31Z</time>
        <sat>8</sat>
      </trkpt>
      <trkpt lat="42.372811" lon="-3.495141">
        <ele>948.8</ele>
        <time>2020-08-20T05:26:37Z</time>
        <sat>8</sat>
      </trkpt>
      <trkpt lat="42.372836" lon="-3.495248">
        <ele>948.8</ele>
        <time>2020-08-20T05:26:43Z</time>
        <sat>8</sat>
      </trkpt>
      <trkpt lat="42.372857" lon="-3.495372">
        <ele>948.8</ele>
        <time>2020-08-20T05:26:50Z</time>
        <sat>8</sat>
      </trkpt>
      <trkpt lat="42.372874" lon="-3.495481">
        <ele>948.9</ele>
        <time>2020-08-20T05:26:56Z</time>
        <sat>8</sat>
      </trkpt>
      <trkpt lat="42.372899" lon="-3.495589">
        <ele>949.0</ele>
        <time>2020-08-20T05:27:02Z</time>
        <sat>8</sat>
      </trkpt>
      <trkpt lat="42.372915" lon="-3.495698">
        <ele>949.0</ele>
        <time>2020-08-20T05:27:08Z</time>
        <sat>8</sat>
      </trkpt>
      <trkpt lat="42.372942" lon="-3.495820">
        <ele>949.1</ele>
        <time>2020-08-20T05:27:15Z</time>
        <sat>8</sat>
      </trkpt>
      <trkpt lat="42.372966" lon="-3.495942">
        <ele>949.2</ele>
        <time>2020-08-20T05:27:22Z</time>
        <sat>8</sat>
      </trkpt>
      <trkpt lat="42.372990" lon="-3.496067">
        <ele>949.3</ele>
        <time>2020-08-20T05:27:29Z</time>
        <sat>8</sat>
      </trkpt>
      <trkpt lat="42.373014" lon="-3.496186">
        <ele>949.4</ele>
        <time>2020-08-20T05:27:36Z</time>
        <sat>8</sat>
      </trkpt>
      <trkpt lat="42.373032" lon="-3.496294">
        <ele>949.4</ele>
        <time>2020-08-20T05:27:42Z</time>
        <sat>8</sat>
      </trkpt>
      <trkpt lat="42.373062" lon="-3.496398">
        <ele>949.4</ele>
        <time>2020-08-20T05:27:48Z</time>
        <sat>8</sat>
      </trkpt>
      <trkpt lat="42.373080" lon="-3.496506">
        <ele>949.4</ele>
        <time>2020-08-20T05:27:54Z</time>
        <sat>8</sat>
      </trkpt>
      <trkpt lat="42.373094" lon="-3.496619">
        <ele>949.4</ele>
        <time>2020-08-20T05:28:00Z</time>
        <sat>8</sat>
      </trkpt>
      <trkpt lat="42.373119" lon="-3.496730">
        <ele>949.6</ele>
        <time>2020-08-20T05:28:06Z</time>
        <sat>8</sat>
      </trkpt>
      <trkpt lat="42.373140" lon="-3.496839">
        <ele>949.8</ele>
        <time>2020-08-20T05:28:12Z</time>
        <sat>8</sat>
      </trkpt>
      <trkpt lat="42.373155" lon="-3.496951">
        <ele>949.8</ele>
        <time>2020-08-20T05:28:18Z</time>
        <sat>8</sat>
      </trkpt>
      <trkpt lat="42.373175" lon="-3.497064">
        <ele>949.8</ele>
        <time>2020-08-20T05:28:24Z</time>
        <sat>8</sat>
      </trkpt>
      <trkpt lat="42.373195" lon="-3.497174">
        <ele>949.8</ele>
        <time>2020-08-20T05:28:30Z</time>
        <sat>8</sat>
      </trkpt>
      <trkpt lat="42.373211" lon="-3.497284">
        <ele>949.7</ele>
        <time>2020-08-20T05:28:36Z</time>
        <sat>8</sat>
      </trkpt>
      <trkpt lat="42.373228" lon="-3.497395">
        <ele>949.7</ele>
        <time>2020-08-20T05:28:42Z</time>
        <sat>8</sat>
      </trkpt>
      <trkpt lat="42.373250" lon="-3.497509">
        <ele>949.7</ele>
        <time>2020-08-20T05:28:48Z</time>
        <sat>8</sat>
      </trkpt>
      <trkpt lat="42.373274" lon="-3.497629">
        <ele>949.6</ele>
        <time>2020-08-20T05:28:55Z</time>
        <sat>8</sat>
      </trkpt>
      <trkpt lat="42.373292" lon="-3.497739">
        <ele>949.5</ele>
        <time>2020-08-20T05:29:01Z</time>
        <sat>8</sat>
      </trkpt>
      <trkpt lat="42.373319" lon="-3.497852">
        <ele>949.3</ele>
        <time>2020-08-20T05:29:07Z</time>
        <sat>8</sat>
      </trkpt>
      <trkpt lat="42.373346" lon="-3.497972">
        <ele>949.3</ele>
        <time>2020-08-20T05:29:14Z</time>
        <sat>8</sat>
      </trkpt>
      <trkpt lat="42.373363" lon="-3.498085">
        <ele>949.3</ele>
        <time>2020-08-20T05:29:20Z</time>
        <sat>8</sat>
      </trkpt>
      <trkpt lat="42.373382" lon="-3.498197">
        <ele>949.1</ele>
        <time>2020-08-20T05:29:26Z</time>
        <sat>8</sat>
      </trkpt>
      <trkpt lat="42.373412" lon="-3.498309">
        <ele>949.2</ele>
        <time>2020-08-20T05:29:32Z</time>
        <sat>8</sat>
      </trkpt>
      <trkpt lat="42.373432" lon="-3.498423">
        <ele>949.2</ele>
        <time>2020-08-20T05:29:38Z</time>
        <sat>8</sat>
      </trkpt>
      <trkpt lat="42.373451" lon="-3.498543">
        <ele>949.2</ele>
        <time>2020-08-20T05:29:44Z</time>
        <sat>8</sat>
      </trkpt>
      <trkpt lat="42.373464" lon="-3.498656">
        <ele>949.1</ele>
        <time>2020-08-20T05:29:50Z</time>
        <sat>8</sat>
      </trkpt>
      <trkpt lat="42.373493" lon="-3.498771">
        <ele>949.2</ele>
        <time>2020-08-20T05:29:57Z</time>
        <sat>8</sat>
      </trkpt>
      <trkpt lat="42.373515" lon="-3.498895">
        <ele>949.2</ele>
        <time>2020-08-20T05:30:04Z</time>
        <sat>8</sat>
      </trkpt>
      <trkpt lat="42.373538" lon="-3.499000">
        <ele>949.2</ele>
        <time>2020-08-20T05:30:10Z</time>
        <sat>8</sat>
      </trkpt>
      <trkpt lat="42.373557" lon="-3.499120">
        <ele>949.2</ele>
        <time>2020-08-20T05:30:17Z</time>
        <sat>8</sat>
      </trkpt>
      <trkpt lat="42.373577" lon="-3.499241">
        <ele>949.2</ele>
        <time>2020-08-20T05:30:24Z</time>
        <sat>8</sat>
      </trkpt>
      <trkpt lat="42.373602" lon="-3.499363">
        <ele>949.2</ele>
        <time>2020-08-20T05:30:31Z</time>
        <sat>8</sat>
      </trkpt>
      <trkpt lat="42.373622" lon="-3.499476">
        <ele>949.3</ele>
        <time>2020-08-20T05:30:37Z</time>
        <sat>8</sat>
      </trkpt>
      <trkpt lat="42.373646" lon="-3.499585">
        <ele>949.5</ele>
        <time>2020-08-20T05:30:43Z</time>
        <sat>8</sat>
      </trkpt>
      <trkpt lat="42.373670" lon="-3.499708">
        <ele>949.7</ele>
        <time>2020-08-20T05:30:50Z</time>
        <sat>8</sat>
      </trkpt>
      <trkpt lat="42.373680" lon="-3.499837">
        <ele>949.8</ele>
        <time>2020-08-20T05:31:13Z</time>
        <sat>7</sat>
      </trkpt>
      <trkpt lat="42.373702" lon="-3.499958">
        <ele>950.0</ele>
        <time>2020-08-20T05:31:19Z</time>
        <sat>8</sat>
      </trkpt>
      <trkpt lat="42.373751" lon="-3.500060">
        <ele>950.1</ele>
        <time>2020-08-20T05:31:25Z</time>
        <sat>8</sat>
      </trkpt>
      <trkpt lat="42.373761" lon="-3.500177">
        <ele>950.0</ele>
        <time>2020-08-20T05:31:47Z</time>
        <sat>8</sat>
      </trkpt>
      <trkpt lat="42.373764" lon="-3.500294">
        <ele>950.2</ele>
        <time>2020-08-20T05:31:54Z</time>
        <sat>8</sat>
      </trkpt>
      <trkpt lat="42.373780" lon="-3.500407">
        <ele>950.1</ele>
        <time>2020-08-20T05:32:00Z</time>
        <sat>8</sat>
      </trkpt>
      <trkpt lat="42.373799" lon="-3.500527">
        <ele>949.9</ele>
        <time>2020-08-20T05:32:06Z</time>
        <sat>8</sat>
      </trkpt>
      <trkpt lat="42.373817" lon="-3.500638">
        <ele>949.9</ele>
        <time>2020-08-20T05:32:12Z</time>
        <sat>8</sat>
      </trkpt>
      <trkpt lat="42.373840" lon="-3.500753">
        <ele>950.1</ele>
        <time>2020-08-20T05:32:18Z</time>
        <sat>8</sat>
      </trkpt>
      <trkpt lat="42.373862" lon="-3.500868">
        <ele>950.1</ele>
        <time>2020-08-20T05:32:25Z</time>
        <sat>8</sat>
      </trkpt>
      <trkpt lat="42.373884" lon="-3.500991">
        <ele>950.1</ele>
        <time>2020-08-20T05:32:32Z</time>
        <sat>8</sat>
      </trkpt>
      <trkpt lat="42.373911" lon="-3.501108">
        <ele>950.1</ele>
        <time>2020-08-20T05:32:39Z</time>
        <sat>8</sat>
      </trkpt>
      <trkpt lat="42.373928" lon="-3.501218">
        <ele>950.3</ele>
        <time>2020-08-20T05:32:45Z</time>
        <sat>8</sat>
      </trkpt>
      <trkpt lat="42.373958" lon="-3.501324">
        <ele>950.3</ele>
        <time>2020-08-20T05:32:51Z</time>
        <sat>8</sat>
      </trkpt>
      <trkpt lat="42.373986" lon="-3.501427">
        <ele>950.3</ele>
        <time>2020-08-20T05:32:57Z</time>
        <sat>8</sat>
      </trkpt>
      <trkpt lat="42.374006" lon="-3.501538">
        <ele>950.4</ele>
        <time>2020-08-20T05:33:03Z</time>
        <sat>8</sat>
      </trkpt>
      <trkpt lat="42.374031" lon="-3.501646">
        <ele>950.4</ele>
        <time>2020-08-20T05:33:09Z</time>
        <sat>8</sat>
      </trkpt>
      <trkpt lat="42.374069" lon="-3.501755">
        <ele>950.3</ele>
        <time>2020-08-20T05:33:15Z</time>
        <sat>8</sat>
      </trkpt>
      <trkpt lat="42.374098" lon="-3.501875">
        <ele>950.2</ele>
        <time>2020-08-20T05:33:22Z</time>
        <sat>8</sat>
      </trkpt>
      <trkpt lat="42.374128" lon="-3.501990">
        <ele>950.1</ele>
        <time>2020-08-20T05:33:28Z</time>
        <sat>8</sat>
      </trkpt>
      <trkpt lat="42.374163" lon="-3.502096">
        <ele>950.0</ele>
        <time>2020-08-20T05:33:34Z</time>
        <sat>8</sat>
      </trkpt>
      <trkpt lat="42.374200" lon="-3.502199">
        <ele>949.9</ele>
        <time>2020-08-20T05:33:40Z</time>
        <sat>8</sat>
      </trkpt>
      <trkpt lat="42.374231" lon="-3.502306">
        <ele>949.8</ele>
        <time>2020-08-20T05:33:46Z</time>
        <sat>8</sat>
      </trkpt>
      <trkpt lat="42.374261" lon="-3.502416">
        <ele>949.8</ele>
        <time>2020-08-20T05:33:52Z</time>
        <sat>8</sat>
      </trkpt>
      <trkpt lat="42.374303" lon="-3.502527">
        <ele>949.7</ele>
        <time>2020-08-20T05:33:58Z</time>
        <sat>8</sat>
      </trkpt>
      <trkpt lat="42.374339" lon="-3.502628">
        <ele>949.5</ele>
        <time>2020-08-20T05:34:04Z</time>
        <sat>8</sat>
      </trkpt>
      <trkpt lat="42.374367" lon="-3.502733">
        <ele>949.4</ele>
        <time>2020-08-20T05:34:10Z</time>
        <sat>8</sat>
      </trkpt>
      <trkpt lat="42.374395" lon="-3.502839">
        <ele>949.4</ele>
        <time>2020-08-20T05:34:16Z</time>
        <sat>8</sat>
      </trkpt>
      <trkpt lat="42.374438" lon="-3.502947">
        <ele>949.5</ele>
        <time>2020-08-20T05:34:22Z</time>
        <sat>8</sat>
      </trkpt>
      <trkpt lat="42.374475" lon="-3.503048">
        <ele>949.4</ele>
        <time>2020-08-20T05:34:28Z</time>
        <sat>8</sat>
      </trkpt>
      <trkpt lat="42.374504" lon="-3.503155">
        <ele>949.4</ele>
        <time>2020-08-20T05:34:34Z</time>
        <sat>8</sat>
      </trkpt>
      <trkpt lat="42.374531" lon="-3.503267">
        <ele>949.4</ele>
        <time>2020-08-20T05:34:40Z</time>
        <sat>8</sat>
      </trkpt>
      <trkpt lat="42.374566" lon="-3.503374">
        <ele>949.3</ele>
        <time>2020-08-20T05:34:46Z</time>
        <sat>8</sat>
      </trkpt>
      <trkpt lat="42.374605" lon="-3.503478">
        <ele>949.3</ele>
        <time>2020-08-20T05:34:52Z</time>
        <sat>8</sat>
      </trkpt>
      <trkpt lat="42.374634" lon="-3.503585">
        <ele>949.3</ele>
        <time>2020-08-20T05:34:58Z</time>
        <sat>8</sat>
      </trkpt>
      <trkpt lat="42.374667" lon="-3.503693">
        <ele>949.2</ele>
        <time>2020-08-20T05:35:04Z</time>
        <sat>8</sat>
      </trkpt>
      <trkpt lat="42.374703" lon="-3.503797">
        <ele>949.1</ele>
        <time>2020-08-20T05:35:10Z</time>
        <sat>8</sat>
      </trkpt>
      <trkpt lat="42.374741" lon="-3.503898">
        <ele>949.1</ele>
        <time>2020-08-20T05:35:16Z</time>
        <sat>8</sat>
      </trkpt>
      <trkpt lat="42.374775" lon="-3.504007">
        <ele>949.1</ele>
        <time>2020-08-20T05:35:22Z</time>
        <sat>8</sat>
      </trkpt>
      <trkpt lat="42.374805" lon="-3.504114">
        <ele>949.2</ele>
        <time>2020-08-20T05:35:28Z</time>
        <sat>8</sat>
      </trkpt>
      <trkpt lat="42.374837" lon="-3.504227">
        <ele>949.2</ele>
        <time>2020-08-20T05:35:35Z</time>
        <sat>8</sat>
      </trkpt>
      <trkpt lat="42.374865" lon="-3.504332">
        <ele>949.2</ele>
        <time>2020-08-20T05:35:41Z</time>
        <sat>8</sat>
      </trkpt>
      <trkpt lat="42.374907" lon="-3.504439">
        <ele>949.2</ele>
        <time>2020-08-20T05:35:48Z</time>
        <sat>8</sat>
      </trkpt>
      <trkpt lat="42.374942" lon="-3.504557">
        <ele>949.2</ele>
        <time>2020-08-20T05:35:55Z</time>
        <sat>8</sat>
      </trkpt>
      <trkpt lat="42.374978" lon="-3.504657">
        <ele>949.1</ele>
        <time>2020-08-20T05:36:01Z</time>
        <sat>8</sat>
      </trkpt>
      <trkpt lat="42.375015" lon="-3.504772">
        <ele>949.0</ele>
        <time>2020-08-20T05:36:08Z</time>
        <sat>8</sat>
      </trkpt>
      <trkpt lat="42.375069" lon="-3.504868">
        <ele>948.7</ele>
        <time>2020-08-20T05:36:30Z</time>
        <sat>8</sat>
      </trkpt>
      <trkpt lat="42.375113" lon="-3.504965">
        <ele>948.8</ele>
        <time>2020-08-20T05:36:36Z</time>
        <sat>8</sat>
      </trkpt>
      <trkpt lat="42.375089" lon="-3.505080">
        <ele>948.6</ele>
        <time>2020-08-20T05:36:44Z</time>
        <sat>8</sat>
      </trkpt>
      <trkpt lat="42.375134" lon="-3.505175">
        <ele>948.6</ele>
        <time>2020-08-20T05:36:55Z</time>
        <sat>8</sat>
      </trkpt>
      <trkpt lat="42.375180" lon="-3.505275">
        <ele>948.7</ele>
        <time>2020-08-20T05:37:01Z</time>
        <sat>8</sat>
      </trkpt>
      <trkpt lat="42.375218" lon="-3.505393">
        <ele>948.7</ele>
        <time>2020-08-20T05:37:08Z</time>
        <sat>8</sat>
      </trkpt>
      <trkpt lat="42.375254" lon="-3.505501">
        <ele>948.8</ele>
        <time>2020-08-20T05:37:14Z</time>
        <sat>8</sat>
      </trkpt>
      <trkpt lat="42.375283" lon="-3.505605">
        <ele>948.5</ele>
        <time>2020-08-20T05:37:22Z</time>
        <sat>8</sat>
      </trkpt>
      <trkpt lat="42.375325" lon="-3.505708">
        <ele>948.4</ele>
        <time>2020-08-20T05:37:28Z</time>
        <sat>8</sat>
      </trkpt>
      <trkpt lat="42.375377" lon="-3.505800">
        <ele>948.4</ele>
        <time>2020-08-20T05:37:34Z</time>
        <sat>8</sat>
      </trkpt>
      <trkpt lat="42.375442" lon="-3.505879">
        <ele>948.3</ele>
        <time>2020-08-20T05:37:42Z</time>
        <sat>8</sat>
      </trkpt>
      <trkpt lat="42.375499" lon="-3.505975">
        <ele>948.3</ele>
        <time>2020-08-20T05:37:48Z</time>
        <sat>8</sat>
      </trkpt>
      <trkpt lat="42.375553" lon="-3.506072">
        <ele>948.2</ele>
        <time>2020-08-20T05:37:54Z</time>
        <sat>8</sat>
      </trkpt>
      <trkpt lat="42.375608" lon="-3.506163">
        <ele>948.0</ele>
        <time>2020-08-20T05:38:00Z</time>
        <sat>8</sat>
      </trkpt>
      <trkpt lat="42.375667" lon="-3.506260">
        <ele>947.8</ele>
        <time>2020-08-20T05:38:07Z</time>
        <sat>8</sat>
      </trkpt>
      <trkpt lat="42.375720" lon="-3.506353">
        <ele>947.7</ele>
        <time>2020-08-20T05:38:13Z</time>
        <sat>8</sat>
      </trkpt>
      <trkpt lat="42.375774" lon="-3.506437">
        <ele>947.5</ele>
        <time>2020-08-20T05:38:19Z</time>
        <sat>8</sat>
      </trkpt>
      <trkpt lat="42.375835" lon="-3.506516">
        <ele>947.4</ele>
        <time>2020-08-20T05:38:25Z</time>
        <sat>8</sat>
      </trkpt>
      <trkpt lat="42.375884" lon="-3.506608">
        <ele>947.2</ele>
        <time>2020-08-20T05:38:31Z</time>
        <sat>8</sat>
      </trkpt>
      <trkpt lat="42.375931" lon="-3.506705">
        <ele>947.0</ele>
        <time>2020-08-20T05:38:37Z</time>
        <sat>7</sat>
      </trkpt>
      <trkpt lat="42.375986" lon="-3.506792">
        <ele>947.0</ele>
        <time>2020-08-20T05:38:43Z</time>
        <sat>8</sat>
      </trkpt>
      <trkpt lat="42.376030" lon="-3.506888">
        <ele>947.0</ele>
        <time>2020-08-20T05:38:49Z</time>
        <sat>8</sat>
      </trkpt>
      <trkpt lat="42.376074" lon="-3.506989">
        <ele>947.0</ele>
        <time>2020-08-20T05:38:55Z</time>
        <sat>8</sat>
      </trkpt>
      <trkpt lat="42.376119" lon="-3.507081">
        <ele>947.0</ele>
        <time>2020-08-20T05:39:01Z</time>
        <sat>7</sat>
      </trkpt>
      <trkpt lat="42.376151" lon="-3.507202">
        <ele>947.2</ele>
        <time>2020-08-20T05:39:08Z</time>
        <sat>8</sat>
      </trkpt>
      <trkpt lat="42.376207" lon="-3.507300">
        <ele>947.2</ele>
        <time>2020-08-20T05:39:15Z</time>
        <sat>8</sat>
      </trkpt>
      <trkpt lat="42.376257" lon="-3.507405">
        <ele>947.2</ele>
        <time>2020-08-20T05:39:22Z</time>
        <sat>8</sat>
      </trkpt>
      <trkpt lat="42.376298" lon="-3.507502">
        <ele>947.3</ele>
        <time>2020-08-20T05:39:28Z</time>
        <sat>7</sat>
      </trkpt>
      <trkpt lat="42.376349" lon="-3.507593">
        <ele>947.3</ele>
        <time>2020-08-20T05:39:34Z</time>
        <sat>8</sat>
      </trkpt>
      <trkpt lat="42.376388" lon="-3.507697">
        <ele>947.5</ele>
        <time>2020-08-20T05:39:41Z</time>
        <sat>8</sat>
      </trkpt>
      <trkpt lat="42.376445" lon="-3.507790">
        <ele>947.6</ele>
        <time>2020-08-20T05:39:48Z</time>
        <sat>8</sat>
      </trkpt>
      <trkpt lat="42.376494" lon="-3.507879">
        <ele>947.6</ele>
        <time>2020-08-20T05:39:54Z</time>
        <sat>8</sat>
      </trkpt>
      <trkpt lat="42.376552" lon="-3.507958">
        <ele>947.6</ele>
        <time>2020-08-20T05:40:00Z</time>
        <sat>8</sat>
      </trkpt>
      <trkpt lat="42.376605" lon="-3.508045">
        <ele>947.5</ele>
        <time>2020-08-20T05:40:06Z</time>
        <sat>8</sat>
      </trkpt>
      <trkpt lat="42.376657" lon="-3.508130">
        <ele>947.5</ele>
        <time>2020-08-20T05:40:12Z</time>
        <sat>8</sat>
      </trkpt>
      <trkpt lat="42.376720" lon="-3.508223">
        <ele>947.4</ele>
        <time>2020-08-20T05:40:19Z</time>
        <sat>8</sat>
      </trkpt>
      <trkpt lat="42.376774" lon="-3.508310">
        <ele>947.3</ele>
        <time>2020-08-20T05:40:25Z</time>
        <sat>8</sat>
      </trkpt>
      <trkpt lat="42.376837" lon="-3.508403">
        <ele>947.2</ele>
        <time>2020-08-20T05:40:32Z</time>
        <sat>8</sat>
      </trkpt>
      <trkpt lat="42.376894" lon="-3.508501">
        <ele>947.2</ele>
        <time>2020-08-20T05:40:39Z</time>
        <sat>8</sat>
      </trkpt>
      <trkpt lat="42.376950" lon="-3.508581">
        <ele>947.2</ele>
        <time>2020-08-20T05:40:45Z</time>
        <sat>8</sat>
      </trkpt>
      <trkpt lat="42.377004" lon="-3.508669">
        <ele>947.2</ele>
        <time>2020-08-20T05:40:51Z</time>
        <sat>8</sat>
      </trkpt>
      <trkpt lat="42.377051" lon="-3.508764">
        <ele>947.0</ele>
        <time>2020-08-20T05:40:57Z</time>
        <sat>8</sat>
      </trkpt>
      <trkpt lat="42.377104" lon="-3.508851">
        <ele>946.6</ele>
        <time>2020-08-20T05:41:03Z</time>
        <sat>8</sat>
      </trkpt>
      <trkpt lat="42.377166" lon="-3.508946">
        <ele>946.5</ele>
        <time>2020-08-20T05:41:10Z</time>
        <sat>8</sat>
      </trkpt>
      <trkpt lat="42.377222" lon="-3.509036">
        <ele>946.5</ele>
        <time>2020-08-20T05:41:16Z</time>
        <sat>8</sat>
      </trkpt>
      <trkpt lat="42.377287" lon="-3.509124">
        <ele>946.5</ele>
        <time>2020-08-20T05:41:23Z</time>
        <sat>8</sat>
      </trkpt>
      <trkpt lat="42.377335" lon="-3.509218">
        <ele>946.3</ele>
        <time>2020-08-20T05:41:29Z</time>
        <sat>7</sat>
      </trkpt>
      <trkpt lat="42.377392" lon="-3.509318">
        <ele>946.2</ele>
        <time>2020-08-20T05:41:36Z</time>
        <sat>8</sat>
      </trkpt>
      <trkpt lat="42.377449" lon="-3.509409">
        <ele>946.0</ele>
        <time>2020-08-20T05:41:43Z</time>
        <sat>8</sat>
      </trkpt>
      <trkpt lat="42.377505" lon="-3.509490">
        <ele>946.0</ele>
        <time>2020-08-20T05:41:49Z</time>
        <sat>7</sat>
      </trkpt>
      <trkpt lat="42.377563" lon="-3.509588">
        <ele>946.0</ele>
        <time>2020-08-20T05:41:57Z</time>
        <sat>8</sat>
      </trkpt>
      <trkpt lat="42.377627" lon="-3.509677">
        <ele>945.9</ele>
        <time>2020-08-20T05:42:04Z</time>
        <sat>8</sat>
      </trkpt>
      <trkpt lat="42.377593" lon="-3.509785">
        <ele>945.9</ele>
        <time>2020-08-20T05:42:12Z</time>
        <sat>8</sat>
      </trkpt>
      <trkpt lat="42.377537" lon="-3.509887">
        <ele>945.9</ele>
        <time>2020-08-20T05:42:19Z</time>
        <sat>8</sat>
      </trkpt>
      <trkpt lat="42.377480" lon="-3.509975">
        <ele>945.8</ele>
        <time>2020-08-20T05:42:26Z</time>
        <sat>8</sat>
      </trkpt>
      <trkpt lat="42.377429" lon="-3.510064">
        <ele>945.7</ele>
        <time>2020-08-20T05:42:32Z</time>
        <sat>8</sat>
      </trkpt>
      <trkpt lat="42.377379" lon="-3.510172">
        <ele>945.7</ele>
        <time>2020-08-20T05:42:39Z</time>
        <sat>8</sat>
      </trkpt>
      <trkpt lat="42.377335" lon="-3.510276">
        <ele>945.8</ele>
        <time>2020-08-20T05:42:46Z</time>
        <sat>8</sat>
      </trkpt>
      <trkpt lat="42.377298" lon="-3.510388">
        <ele>945.9</ele>
        <time>2020-08-20T05:42:53Z</time>
        <sat>8</sat>
      </trkpt>
      <trkpt lat="42.377285" lon="-3.510497">
        <ele>946.0</ele>
        <time>2020-08-20T05:42:59Z</time>
        <sat>8</sat>
      </trkpt>
      <trkpt lat="42.377285" lon="-3.510618">
        <ele>946.1</ele>
        <time>2020-08-20T05:43:07Z</time>
        <sat>8</sat>
      </trkpt>
      <trkpt lat="42.377312" lon="-3.510728">
        <ele>946.0</ele>
        <time>2020-08-20T05:43:19Z</time>
        <sat>8</sat>
      </trkpt>
      <trkpt lat="42.377299" lon="-3.510852">
        <ele>946.1</ele>
        <time>2020-08-20T05:43:26Z</time>
        <sat>8</sat>
      </trkpt>
      <trkpt lat="42.377284" lon="-3.510967">
        <ele>946.1</ele>
        <time>2020-08-20T05:43:32Z</time>
        <sat>7</sat>
      </trkpt>
      <trkpt lat="42.377280" lon="-3.511081">
        <ele>946.1</ele>
        <time>2020-08-20T05:43:38Z</time>
        <sat>7</sat>
      </trkpt>
      <trkpt lat="42.377268" lon="-3.511199">
        <ele>946.1</ele>
        <time>2020-08-20T05:43:44Z</time>
        <sat>8</sat>
      </trkpt>
      <trkpt lat="42.377261" lon="-3.511314">
        <ele>946.3</ele>
        <time>2020-08-20T05:43:50Z</time>
        <sat>8</sat>
      </trkpt>
      <trkpt lat="42.377253" lon="-3.511423">
        <ele>946.4</ele>
        <time>2020-08-20T05:43:56Z</time>
        <sat>8</sat>
      </trkpt>
      <trkpt lat="42.377246" lon="-3.511535">
        <ele>946.6</ele>
        <time>2020-08-20T05:44:03Z</time>
        <sat>8</sat>
      </trkpt>
      <trkpt lat="42.377223" lon="-3.511641">
        <ele>946.7</ele>
        <time>2020-08-20T05:44:09Z</time>
        <sat>8</sat>
      </trkpt>
      <trkpt lat="42.377206" lon="-3.511763">
        <ele>946.8</ele>
        <time>2020-08-20T05:44:16Z</time>
        <sat>8</sat>
      </trkpt>
      <trkpt lat="42.377189" lon="-3.511887">
        <ele>947.0</ele>
        <time>2020-08-20T05:44:23Z</time>
        <sat>8</sat>
      </trkpt>
      <trkpt lat="42.377168" lon="-3.512008">
        <ele>947.3</ele>
        <time>2020-08-20T05:44:30Z</time>
        <sat>8</sat>
      </trkpt>
      <trkpt lat="42.377155" lon="-3.512125">
        <ele>947.3</ele>
        <time>2020-08-20T05:44:37Z</time>
        <sat>8</sat>
      </trkpt>
      <trkpt lat="42.377166" lon="-3.512244">
        <ele>947.3</ele>
        <time>2020-08-20T05:44:44Z</time>
        <sat>8</sat>
      </trkpt>
      <trkpt lat="42.377168" lon="-3.512360">
        <ele>947.3</ele>
        <time>2020-08-20T05:44:50Z</time>
        <sat>8</sat>
      </trkpt>
      <trkpt lat="42.377196" lon="-3.512475">
        <ele>947.6</ele>
        <time>2020-08-20T05:44:57Z</time>
        <sat>8</sat>
      </trkpt>
      <trkpt lat="42.377229" lon="-3.512588">
        <ele>947.6</ele>
        <time>2020-08-20T05:45:05Z</time>
        <sat>8</sat>
      </trkpt>
      <trkpt lat="42.377253" lon="-3.512714">
        <ele>948.1</ele>
        <time>2020-08-20T05:45:37Z</time>
        <sat>8</sat>
      </trkpt>
      <trkpt lat="42.377286" lon="-3.512830">
        <ele>948.1</ele>
        <time>2020-08-20T05:45:43Z</time>
        <sat>8</sat>
      </trkpt>
      <trkpt lat="42.377323" lon="-3.512943">
        <ele>948.2</ele>
        <time>2020-08-20T05:45:49Z</time>
        <sat>8</sat>
      </trkpt>
      <trkpt lat="42.377348" lon="-3.513054">
        <ele>948.2</ele>
        <time>2020-08-20T05:45:55Z</time>
        <sat>8</sat>
      </trkpt>
      <trkpt lat="42.377377" lon="-3.513165">
        <ele>948.4</ele>
        <time>2020-08-20T05:46:01Z</time>
        <sat>8</sat>
      </trkpt>
      <trkpt lat="42.377405" lon="-3.513272">
        <ele>949.1</ele>
        <time>2020-08-20T05:46:24Z</time>
        <sat>8</sat>
      </trkpt>
      <trkpt lat="42.377431" lon="-3.513378">
        <ele>949.4</ele>
        <time>2020-08-20T05:46:31Z</time>
        <sat>8</sat>
      </trkpt>
      <trkpt lat="42.377454" lon="-3.513489">
        <ele>949.3</ele>
        <time>2020-08-20T05:46:39Z</time>
        <sat>8</sat>
      </trkpt>
      <trkpt lat="42.377474" lon="-3.513606">
        <ele>949.7</ele>
        <time>2020-08-20T05:46:45Z</time>
        <sat>8</sat>
      </trkpt>
      <trkpt lat="42.377507" lon="-3.513724">
        <ele>950.0</ele>
        <time>2020-08-20T05:46:51Z</time>
        <sat>8</sat>
      </trkpt>
      <trkpt lat="42.377532" lon="-3.513840">
        <ele>950.4</ele>
        <time>2020-08-20T05:46:58Z</time>
        <sat>8</sat>
      </trkpt>
      <trkpt lat="42.377554" lon="-3.513981">
        <ele>951.1</ele>
        <time>2020-08-20T05:48:35Z</time>
        <sat>9</sat>
      </trkpt>
      <trkpt lat="42.377561" lon="-3.514094">
        <ele>951.5</ele>
        <time>2020-08-20T05:49:01Z</time>
        <sat>9</sat>
      </trkpt>
      <trkpt lat="42.377593" lon="-3.514199">
        <ele>951.6</ele>
        <time>2020-08-20T05:49:10Z</time>
        <sat>9</sat>
      </trkpt>
      <trkpt lat="42.377615" lon="-3.514315">
        <ele>952.2</ele>
        <time>2020-08-20T05:49:19Z</time>
        <sat>9</sat>
      </trkpt>
      <trkpt lat="42.377645" lon="-3.514422">
        <ele>952.7</ele>
        <time>2020-08-20T05:49:26Z</time>
        <sat>9</sat>
      </trkpt>
      <trkpt lat="42.377680" lon="-3.514531">
        <ele>953.4</ele>
        <time>2020-08-20T05:49:34Z</time>
        <sat>9</sat>
      </trkpt>
      <trkpt lat="42.377717" lon="-3.514632">
        <ele>953.8</ele>
        <time>2020-08-20T05:49:41Z</time>
        <sat>9</sat>
      </trkpt>
      <trkpt lat="42.377757" lon="-3.514738">
        <ele>954.2</ele>
        <time>2020-08-20T05:49:48Z</time>
        <sat>9</sat>
      </trkpt>
      <trkpt lat="42.377799" lon="-3.514839">
        <ele>954.8</ele>
        <time>2020-08-20T05:49:55Z</time>
        <sat>9</sat>
      </trkpt>
      <trkpt lat="42.377832" lon="-3.514945">
        <ele>955.5</ele>
        <time>2020-08-20T05:50:02Z</time>
        <sat>9</sat>
      </trkpt>
      <trkpt lat="42.377860" lon="-3.515064">
        <ele>956.3</ele>
        <time>2020-08-20T05:50:10Z</time>
        <sat>9</sat>
      </trkpt>
      <trkpt lat="42.377876" lon="-3.515180">
        <ele>957.0</ele>
        <time>2020-08-20T05:50:17Z</time>
        <sat>8</sat>
      </trkpt>
      <trkpt lat="42.377898" lon="-3.515287">
        <ele>957.5</ele>
        <time>2020-08-20T05:50:24Z</time>
        <sat>9</sat>
      </trkpt>
      <trkpt lat="42.377908" lon="-3.515399">
        <ele>958.2</ele>
        <time>2020-08-20T05:50:31Z</time>
        <sat>9</sat>
      </trkpt>
      <trkpt lat="42.377918" lon="-3.515515">
        <ele>958.8</ele>
        <time>2020-08-20T05:50:38Z</time>
        <sat>9</sat>
      </trkpt>
      <trkpt lat="42.377933" lon="-3.515636">
        <ele>959.1</ele>
        <time>2020-08-20T05:50:45Z</time>
        <sat>9</sat>
      </trkpt>
      <trkpt lat="42.377944" lon="-3.515762">
        <ele>959.6</ele>
        <time>2020-08-20T05:50:52Z</time>
        <sat>9</sat>
      </trkpt>
      <trkpt lat="42.377943" lon="-3.515888">
        <ele>959.8</ele>
        <time>2020-08-20T05:50:59Z</time>
        <sat>9</sat>
      </trkpt>
      <trkpt lat="42.377951" lon="-3.516013">
        <ele>960.2</ele>
        <time>2020-08-20T05:51:06Z</time>
        <sat>9</sat>
      </trkpt>
      <trkpt lat="42.377955" lon="-3.516136">
        <ele>960.5</ele>
        <time>2020-08-20T05:51:13Z</time>
        <sat>9</sat>
      </trkpt>
      <trkpt lat="42.377957" lon="-3.516248">
        <ele>960.7</ele>
        <time>2020-08-20T05:51:19Z</time>
        <sat>9</sat>
      </trkpt>
      <trkpt lat="42.377958" lon="-3.516369">
        <ele>961.1</ele>
        <time>2020-08-20T05:51:26Z</time>
        <sat>9</sat>
      </trkpt>
      <trkpt lat="42.377955" lon="-3.516484">
        <ele>961.6</ele>
        <time>2020-08-20T05:51:33Z</time>
        <sat>9</sat>
      </trkpt>
      <trkpt lat="42.377963" lon="-3.516595">
        <ele>962.2</ele>
        <time>2020-08-20T05:51:43Z</time>
        <sat>9</sat>
      </trkpt>
      <trkpt lat="42.378014" lon="-3.516682">
        <ele>963.1</ele>
        <time>2020-08-20T05:52:22Z</time>
        <sat>9</sat>
      </trkpt>
      <trkpt lat="42.378053" lon="-3.516784">
        <ele>963.2</ele>
        <time>2020-08-20T05:52:32Z</time>
        <sat>8</sat>
      </trkpt>
      <trkpt lat="42.378097" lon="-3.516890">
        <ele>963.2</ele>
        <time>2020-08-20T05:52:54Z</time>
        <sat>9</sat>
      </trkpt>
      <trkpt lat="42.378120" lon="-3.517002">
        <ele>963.4</ele>
        <time>2020-08-20T05:53:09Z</time>
        <sat>8</sat>
      </trkpt>
      <trkpt lat="42.378151" lon="-3.517112">
        <ele>963.5</ele>
        <time>2020-08-20T05:53:17Z</time>
        <sat>8</sat>
      </trkpt>
      <trkpt lat="42.378182" lon="-3.517227">
        <ele>963.6</ele>
        <time>2020-08-20T05:53:24Z</time>
        <sat>8</sat>
      </trkpt>
      <trkpt lat="42.378211" lon="-3.517344">
        <ele>963.9</ele>
        <time>2020-08-20T05:53:31Z</time>
        <sat>9</sat>
      </trkpt>
      <trkpt lat="42.378238" lon="-3.517461">
        <ele>964.6</ele>
        <time>2020-08-20T05:53:38Z</time>
        <sat>9</sat>
      </trkpt>
      <trkpt lat="42.378256" lon="-3.517577">
        <ele>965.2</ele>
        <time>2020-08-20T05:53:45Z</time>
        <sat>9</sat>
      </trkpt>
      <trkpt lat="42.378267" lon="-3.517686">
        <ele>966.2</ele>
        <time>2020-08-20T05:54:04Z</time>
        <sat>9</sat>
      </trkpt>
      <trkpt lat="42.378296" lon="-3.517792">
        <ele>966.7</ele>
        <time>2020-08-20T05:54:17Z</time>
        <sat>8</sat>
      </trkpt>
      <trkpt lat="42.378336" lon="-3.517893">
        <ele>966.8</ele>
        <time>2020-08-20T05:54:24Z</time>
        <sat>9</sat>
      </trkpt>
      <trkpt lat="42.378369" lon="-3.518009">
        <ele>966.9</ele>
        <time>2020-08-20T05:54:31Z</time>
        <sat>9</sat>
      </trkpt>
      <trkpt lat="42.378406" lon="-3.518111">
        <ele>966.9</ele>
        <time>2020-08-20T05:54:39Z</time>
        <sat>9</sat>
      </trkpt>
      <trkpt lat="42.378449" lon="-3.518203">
        <ele>966.9</ele>
        <time>2020-08-20T05:54:46Z</time>
        <sat>9</sat>
      </trkpt>
      <trkpt lat="42.378497" lon="-3.518310">
        <ele>966.9</ele>
        <time>2020-08-20T05:54:53Z</time>
        <sat>9</sat>
      </trkpt>
      <trkpt lat="42.378534" lon="-3.518413">
        <ele>965.6</ele>
        <time>2020-08-20T05:55:00Z</time>
        <sat>9</sat>
      </trkpt>
      <trkpt lat="42.378566" lon="-3.518523">
        <ele>967.1</ele>
        <time>2020-08-20T05:55:07Z</time>
        <sat>9</sat>
      </trkpt>
      <trkpt lat="42.378605" lon="-3.518631">
        <ele>967.6</ele>
        <time>2020-08-20T05:55:14Z</time>
        <sat>9</sat>
      </trkpt>
      <trkpt lat="42.378641" lon="-3.518743">
        <ele>968.4</ele>
        <time>2020-08-20T05:55:21Z</time>
        <sat>9</sat>
      </trkpt>
      <trkpt lat="42.378683" lon="-3.518844">
        <ele>968.9</ele>
        <time>2020-08-20T05:55:28Z</time>
        <sat>9</sat>
      </trkpt>
      <trkpt lat="42.378723" lon="-3.518958">
        <ele>969.5</ele>
        <time>2020-08-20T05:55:36Z</time>
        <sat>9</sat>
      </trkpt>
      <trkpt lat="42.378769" lon="-3.519058">
        <ele>969.9</ele>
        <time>2020-08-20T05:55:43Z</time>
        <sat>9</sat>
      </trkpt>
      <trkpt lat="42.378793" lon="-3.519169">
        <ele>970.4</ele>
        <time>2020-08-20T05:55:50Z</time>
        <sat>9</sat>
      </trkpt>
      <trkpt lat="42.378819" lon="-3.519285">
        <ele>971.0</ele>
        <time>2020-08-20T05:55:57Z</time>
        <sat>8</sat>
      </trkpt>
      <trkpt lat="42.378839" lon="-3.519404">
        <ele>971.3</ele>
        <time>2020-08-20T05:56:04Z</time>
        <sat>8</sat>
      </trkpt>
      <trkpt lat="42.378865" lon="-3.519515">
        <ele>971.6</ele>
        <time>2020-08-20T05:56:11Z</time>
        <sat>8</sat>
      </trkpt>
      <trkpt lat="42.378880" lon="-3.519636">
        <ele>972.0</ele>
        <time>2020-08-20T05:56:18Z</time>
        <sat>9</sat>
      </trkpt>
      <trkpt lat="42.378896" lon="-3.519758">
        <ele>972.2</ele>
        <time>2020-08-20T05:56:26Z</time>
        <sat>8</sat>
      </trkpt>
      <trkpt lat="42.378899" lon="-3.519869">
        <ele>972.4</ele>
        <time>2020-08-20T05:56:33Z</time>
        <sat>9</sat>
      </trkpt>
      <trkpt lat="42.378908" lon="-3.519982">
        <ele>972.5</ele>
        <time>2020-08-20T05:56:40Z</time>
        <sat>9</sat>
      </trkpt>
      <trkpt lat="42.378909" lon="-3.520108">
        <ele>972.6</ele>
        <time>2020-08-20T05:56:47Z</time>
        <sat>9</sat>
      </trkpt>
      <trkpt lat="42.378919" lon="-3.520221">
        <ele>972.6</ele>
        <time>2020-08-20T05:56:53Z</time>
        <sat>9</sat>
      </trkpt>
      <trkpt lat="42.378922" lon="-3.520347">
        <ele>973.0</ele>
        <time>2020-08-20T05:57:00Z</time>
        <sat>9</sat>
      </trkpt>
      <trkpt lat="42.378935" lon="-3.520470">
        <ele>973.6</ele>
        <time>2020-08-20T05:57:07Z</time>
        <sat>9</sat>
      </trkpt>
      <trkpt lat="42.378955" lon="-3.520591">
        <ele>974.3</ele>
        <time>2020-08-20T05:57:14Z</time>
        <sat>9</sat>
      </trkpt>
      <trkpt lat="42.378965" lon="-3.520701">
        <ele>975.0</ele>
        <time>2020-08-20T05:57:20Z</time>
        <sat>9</sat>
      </trkpt>
      <trkpt lat="42.378970" lon="-3.520818">
        <ele>975.7</ele>
        <time>2020-08-20T05:57:27Z</time>
        <sat>9</sat>
      </trkpt>
      <trkpt lat="42.378985" lon="-3.520927">
        <ele>976.5</ele>
        <time>2020-08-20T05:57:34Z</time>
        <sat>9</sat>
      </trkpt>
      <trkpt lat="42.379011" lon="-3.521038">
        <ele>977.3</ele>
        <time>2020-08-20T05:57:41Z</time>
        <sat>9</sat>
      </trkpt>
      <trkpt lat="42.379068" lon="-3.521136">
        <ele>979.1</ele>
        <time>2020-08-20T05:57:52Z</time>
        <sat>9</sat>
      </trkpt>
      <trkpt lat="42.379097" lon="-3.521251">
        <ele>980.3</ele>
        <time>2020-08-20T05:58:03Z</time>
        <sat>10</sat>
      </trkpt>
      <trkpt lat="42.379110" lon="-3.521363">
        <ele>981.1</ele>
        <time>2020-08-20T05:58:10Z</time>
        <sat>9</sat>
      </trkpt>
      <trkpt lat="42.379108" lon="-3.521475">
        <ele>982.1</ele>
        <time>2020-08-20T05:58:17Z</time>
        <sat>9</sat>
      </trkpt>
      <trkpt lat="42.379114" lon="-3.521598">
        <ele>983.2</ele>
        <time>2020-08-20T05:58:25Z</time>
        <sat>9</sat>
      </trkpt>
      <trkpt lat="42.379106" lon="-3.521718">
        <ele>984.1</ele>
        <time>2020-08-20T05:58:32Z</time>
        <sat>10</sat>
      </trkpt>
      <trkpt lat="42.379082" lon="-3.521833">
        <ele>985.1</ele>
        <time>2020-08-20T05:58:39Z</time>
        <sat>9</sat>
      </trkpt>
      <trkpt lat="42.379059" lon="-3.521940">
        <ele>987.1</ele>
        <time>2020-08-20T05:58:55Z</time>
        <sat>9</sat>
      </trkpt>
      <trkpt lat="42.379069" lon="-3.522052">
        <ele>987.7</ele>
        <time>2020-08-20T05:59:02Z</time>
        <sat>9</sat>
      </trkpt>
      <trkpt lat="42.379068" lon="-3.522166">
        <ele>988.2</ele>
        <time>2020-08-20T05:59:09Z</time>
        <sat>10</sat>
      </trkpt>
      <trkpt lat="42.379040" lon="-3.522281">
        <ele>989.2</ele>
        <time>2020-08-20T05:59:17Z</time>
        <sat>9</sat>
      </trkpt>
      <trkpt lat="42.379025" lon="-3.522392">
        <ele>990.3</ele>
        <time>2020-08-20T05:59:25Z</time>
        <sat>10</sat>
      </trkpt>
      <trkpt lat="42.379029" lon="-3.522508">
        <ele>991.5</ele>
        <time>2020-08-20T05:59:33Z</time>
        <sat>10</sat>
      </trkpt>
      <trkpt lat="42.379026" lon="-3.522622">
        <ele>992.9</ele>
        <time>2020-08-20T05:59:40Z</time>
        <sat>10</sat>
      </trkpt>
      <trkpt lat="42.379032" lon="-3.522738">
        <ele>994.0</ele>
        <time>2020-08-20T05:59:47Z</time>
        <sat>9</sat>
      </trkpt>
      <trkpt lat="42.379034" lon="-3.522851">
        <ele>995.1</ele>
        <time>2020-08-20T05:59:54Z</time>
        <sat>9</sat>
      </trkpt>
      <trkpt lat="42.379029" lon="-3.522969">
        <ele>996.5</ele>
        <time>2020-08-20T06:00:02Z</time>
        <sat>9</sat>
      </trkpt>
      <trkpt lat="42.379020" lon="-3.523086">
        <ele>997.8</ele>
        <time>2020-08-20T06:00:10Z</time>
        <sat>9</sat>
      </trkpt>
      <trkpt lat="42.378992" lon="-3.523200">
        <ele>1000.3</ele>
        <time>2020-08-20T06:00:24Z</time>
        <sat>10</sat>
      </trkpt>
      <trkpt lat="42.378946" lon="-3.523302">
        <ele>1001.4</ele>
        <time>2020-08-20T06:00:32Z</time>
        <sat>9</sat>
      </trkpt>
      <trkpt lat="42.378873" lon="-3.523363">
        <ele>1002.4</ele>
        <time>2020-08-20T06:00:40Z</time>
        <sat>9</sat>
      </trkpt>
      <trkpt lat="42.378806" lon="-3.523427">
        <ele>1003.1</ele>
        <time>2020-08-20T06:00:50Z</time>
        <sat>10</sat>
      </trkpt>
      <trkpt lat="42.378763" lon="-3.523521">
        <ele>1004.2</ele>
        <time>2020-08-20T06:01:24Z</time>
        <sat>9</sat>
      </trkpt>
      <trkpt lat="42.378720" lon="-3.523635">
        <ele>1004.5</ele>
        <time>2020-08-20T06:01:33Z</time>
        <sat>9</sat>
      </trkpt>
      <trkpt lat="42.378696" lon="-3.523741">
        <ele>1005.3</ele>
        <time>2020-08-20T06:01:41Z</time>
        <sat>10</sat>
      </trkpt>
      <trkpt lat="42.378698" lon="-3.523853">
        <ele>1006.2</ele>
        <time>2020-08-20T06:01:49Z</time>
        <sat>10</sat>
      </trkpt>
      <trkpt lat="42.378735" lon="-3.523951">
        <ele>1007.3</ele>
        <time>2020-08-20T06:01:57Z</time>
        <sat>10</sat>
      </trkpt>
      <trkpt lat="42.378787" lon="-3.524037">
        <ele>1008.9</ele>
        <time>2020-08-20T06:02:08Z</time>
        <sat>10</sat>
      </trkpt>
      <trkpt lat="42.378811" lon="-3.524147">
        <ele>1010.0</ele>
        <time>2020-08-20T06:02:17Z</time>
        <sat>10</sat>
      </trkpt>
      <trkpt lat="42.378803" lon="-3.524262">
        <ele>1010.9</ele>
        <time>2020-08-20T06:02:25Z</time>
        <sat>10</sat>
      </trkpt>
      <trkpt lat="42.378818" lon="-3.524382">
        <ele>1011.8</ele>
        <time>2020-08-20T06:02:33Z</time>
        <sat>10</sat>
      </trkpt>
      <trkpt lat="42.378842" lon="-3.524494">
        <ele>1012.6</ele>
        <time>2020-08-20T06:02:40Z</time>
        <sat>10</sat>
      </trkpt>
      <trkpt lat="42.378865" lon="-3.524608">
        <ele>1014.0</ele>
        <time>2020-08-20T06:02:48Z</time>
        <sat>10</sat>
      </trkpt>
      <trkpt lat="42.378902" lon="-3.524720">
        <ele>1014.8</ele>
        <time>2020-08-20T06:02:56Z</time>
        <sat>9</sat>
      </trkpt>
      <trkpt lat="42.378930" lon="-3.524837">
        <ele>1015.4</ele>
        <time>2020-08-20T06:03:03Z</time>
        <sat>9</sat>
      </trkpt>
      <trkpt lat="42.378972" lon="-3.524934">
        <ele>1015.9</ele>
        <time>2020-08-20T06:03:09Z</time>
        <sat>10</sat>
      </trkpt>
      <trkpt lat="42.379018" lon="-3.525025">
        <ele>1016.2</ele>
        <time>2020-08-20T06:03:15Z</time>
        <sat>10</sat>
      </trkpt>
      <trkpt lat="42.379052" lon="-3.525134">
        <ele>1016.1</ele>
        <time>2020-08-20T06:03:23Z</time>
        <sat>10</sat>
      </trkpt>
      <trkpt lat="42.379085" lon="-3.525250">
        <ele>1016.9</ele>
        <time>2020-08-20T06:03:31Z</time>
        <sat>10</sat>
      </trkpt>
      <trkpt lat="42.379109" lon="-3.525364">
        <ele>1017.5</ele>
        <time>2020-08-20T06:03:39Z</time>
        <sat>10</sat>
      </trkpt>
      <trkpt lat="42.379158" lon="-3.525463">
        <ele>1018.1</ele>
        <time>2020-08-20T06:03:48Z</time>
        <sat>10</sat>
      </trkpt>
      <trkpt lat="42.379185" lon="-3.525573">
        <ele>1018.5</ele>
        <time>2020-08-20T06:03:56Z</time>
        <sat>10</sat>
      </trkpt>
      <trkpt lat="42.379220" lon="-3.525675">
        <ele>1018.9</ele>
        <time>2020-08-20T06:04:03Z</time>
        <sat>10</sat>
      </trkpt>
      <trkpt lat="42.379247" lon="-3.525785">
        <ele>1019.4</ele>
        <time>2020-08-20T06:04:12Z</time>
        <sat>10</sat>
      </trkpt>
      <trkpt lat="42.379272" lon="-3.525894">
        <ele>1020.0</ele>
        <time>2020-08-20T06:04:19Z</time>
        <sat>10</sat>
      </trkpt>
      <trkpt lat="42.379308" lon="-3.525998">
        <ele>1020.7</ele>
        <time>2020-08-20T06:04:30Z</time>
        <sat>10</sat>
      </trkpt>
      <trkpt lat="42.379356" lon="-3.526102">
        <ele>1021.3</ele>
        <time>2020-08-20T06:04:37Z</time>
        <sat>10</sat>
      </trkpt>
      <trkpt lat="42.379381" lon="-3.526208">
        <ele>1021.7</ele>
        <time>2020-08-20T06:04:43Z</time>
        <sat>10</sat>
      </trkpt>
      <trkpt lat="42.379378" lon="-3.526323">
        <ele>1022.2</ele>
        <time>2020-08-20T06:04:50Z</time>
        <sat>10</sat>
      </trkpt>
      <trkpt lat="42.379388" lon="-3.526447">
        <ele>1022.9</ele>
        <time>2020-08-20T06:04:58Z</time>
        <sat>10</sat>
      </trkpt>
      <trkpt lat="42.379356" lon="-3.526552">
        <ele>1023.8</ele>
        <time>2020-08-20T06:05:06Z</time>
        <sat>10</sat>
      </trkpt>
      <trkpt lat="42.379352" lon="-3.526665">
        <ele>1024.8</ele>
        <time>2020-08-20T06:05:13Z</time>
        <sat>10</sat>
      </trkpt>
      <trkpt lat="42.379338" lon="-3.526780">
        <ele>1025.8</ele>
        <time>2020-08-20T06:05:22Z</time>
        <sat>10</sat>
      </trkpt>
      <trkpt lat="42.379322" lon="-3.526892">
        <ele>1026.3</ele>
        <time>2020-08-20T06:05:29Z</time>
        <sat>10</sat>
      </trkpt>
      <trkpt lat="42.379284" lon="-3.526992">
        <ele>1026.6</ele>
        <time>2020-08-20T06:05:36Z</time>
        <sat>9</sat>
      </trkpt>
      <trkpt lat="42.379237" lon="-3.527104">
        <ele>1026.8</ele>
        <time>2020-08-20T06:05:43Z</time>
        <sat>10</sat>
      </trkpt>
      <trkpt lat="42.379220" lon="-3.527213">
        <ele>1027.1</ele>
        <time>2020-08-20T06:05:49Z</time>
        <sat>10</sat>
      </trkpt>
      <trkpt lat="42.379217" lon="-3.527331">
        <ele>1027.4</ele>
        <time>2020-08-20T06:05:56Z</time>
        <sat>10</sat>
      </trkpt>
      <trkpt lat="42.379221" lon="-3.527443">
        <ele>1028.0</ele>
        <time>2020-08-20T06:06:04Z</time>
        <sat>10</sat>
      </trkpt>
      <trkpt lat="42.379231" lon="-3.527556">
        <ele>1029.0</ele>
        <time>2020-08-20T06:06:12Z</time>
        <sat>9</sat>
      </trkpt>
      <trkpt lat="42.379276" lon="-3.527656">
        <ele>1031.1</ele>
        <time>2020-08-20T06:06:37Z</time>
        <sat>9</sat>
      </trkpt>
      <trkpt lat="42.379311" lon="-3.527757">
        <ele>1031.6</ele>
        <time>2020-08-20T06:06:44Z</time>
        <sat>9</sat>
      </trkpt>
      <trkpt lat="42.379367" lon="-3.527847">
        <ele>1032.7</ele>
        <time>2020-08-20T06:06:52Z</time>
        <sat>9</sat>
      </trkpt>
      <trkpt lat="42.379414" lon="-3.527943">
        <ele>1034.2</ele>
        <time>2020-08-20T06:06:59Z</time>
        <sat>9</sat>
      </trkpt>
      <trkpt lat="42.379465" lon="-3.528040">
        <ele>1035.6</ele>
        <time>2020-08-20T06:07:07Z</time>
        <sat>9</sat>
      </trkpt>
      <trkpt lat="42.379486" lon="-3.528154">
        <ele>1036.8</ele>
        <time>2020-08-20T06:07:15Z</time>
        <sat>9</sat>
      </trkpt>
      <trkpt lat="42.379500" lon="-3.528275">
        <ele>1038.0</ele>
        <time>2020-08-20T06:07:24Z</time>
        <sat>10</sat>
      </trkpt>
      <trkpt lat="42.379514" lon="-3.528393">
        <ele>1039.1</ele>
        <time>2020-08-20T06:07:32Z</time>
        <sat>10</sat>
      </trkpt>
      <trkpt lat="42.379510" lon="-3.528506">
        <ele>1040.1</ele>
        <time>2020-08-20T06:07:40Z</time>
        <sat>10</sat>
      </trkpt>
      <trkpt lat="42.379544" lon="-3.528617">
        <ele>1041.3</ele>
        <time>2020-08-20T06:07:48Z</time>
        <sat>10</sat>
      </trkpt>
      <trkpt lat="42.379588" lon="-3.528718">
        <ele>1042.6</ele>
        <time>2020-08-20T06:07:56Z</time>
        <sat>10</sat>
      </trkpt>
      <trkpt lat="42.379661" lon="-3.528791">
        <ele>1043.6</ele>
        <time>2020-08-20T06:08:04Z</time>
        <sat>10</sat>
      </trkpt>
      <trkpt lat="42.379721" lon="-3.528878">
        <ele>1044.4</ele>
        <time>2020-08-20T06:08:11Z</time>
        <sat>10</sat>
      </trkpt>
      <trkpt lat="42.379778" lon="-3.528969">
        <ele>1045.1</ele>
        <time>2020-08-20T06:08:18Z</time>
        <sat>10</sat>
      </trkpt>
      <trkpt lat="42.379838" lon="-3.529052">
        <ele>1045.7</ele>
        <time>2020-08-20T06:08:25Z</time>
        <sat>10</sat>
      </trkpt>
      <trkpt lat="42.379907" lon="-3.529138">
        <ele>1047.1</ele>
        <time>2020-08-20T06:08:44Z</time>
        <sat>10</sat>
      </trkpt>
      <trkpt lat="42.379962" lon="-3.529227">
        <ele>1047.3</ele>
        <time>2020-08-20T06:08:50Z</time>
        <sat>10</sat>
      </trkpt>
      <trkpt lat="42.380029" lon="-3.529309">
        <ele>1047.4</ele>
        <time>2020-08-20T06:08:56Z</time>
        <sat>10</sat>
      </trkpt>
      <trkpt lat="42.380073" lon="-3.529422">
        <ele>1047.7</ele>
        <time>2020-08-20T06:09:03Z</time>
        <sat>10</sat>
      </trkpt>
      <trkpt lat="42.380114" lon="-3.529521">
        <ele>1047.7</ele>
        <time>2020-08-20T06:09:09Z</time>
        <sat>10</sat>
      </trkpt>
      <trkpt lat="42.380129" lon="-3.529631">
        <ele>1047.9</ele>
        <time>2020-08-20T06:09:15Z</time>
        <sat>10</sat>
      </trkpt>
      <trkpt lat="42.380163" lon="-3.529748">
        <ele>1048.3</ele>
        <time>2020-08-20T06:09:22Z</time>
        <sat>10</sat>
      </trkpt>
      <trkpt lat="42.380189" lon="-3.529854">
        <ele>1048.6</ele>
        <time>2020-08-20T06:09:29Z</time>
        <sat>10</sat>
      </trkpt>
      <trkpt lat="42.380219" lon="-3.529960">
        <ele>1049.0</ele>
        <time>2020-08-20T06:09:38Z</time>
        <sat>11</sat>
      </trkpt>
      <trkpt lat="42.380237" lon="-3.530082">
        <ele>1049.3</ele>
        <time>2020-08-20T06:09:46Z</time>
        <sat>11</sat>
      </trkpt>
      <trkpt lat="42.380254" lon="-3.530198">
        <ele>1049.7</ele>
        <time>2020-08-20T06:10:00Z</time>
        <sat>11</sat>
      </trkpt>
      <trkpt lat="42.380263" lon="-3.530316">
        <ele>1049.8</ele>
        <time>2020-08-20T06:10:06Z</time>
        <sat>11</sat>
      </trkpt>
      <trkpt lat="42.380282" lon="-3.530437">
        <ele>1049.7</ele>
        <time>2020-08-20T06:10:12Z</time>
        <sat>11</sat>
      </trkpt>
      <trkpt lat="42.380283" lon="-3.530548">
        <ele>1049.8</ele>
        <time>2020-08-20T06:10:18Z</time>
        <sat>11</sat>
      </trkpt>
      <trkpt lat="42.380289" lon="-3.530659">
        <ele>1049.8</ele>
        <time>2020-08-20T06:10:24Z</time>
        <sat>10</sat>
      </trkpt>
      <trkpt lat="42.380291" lon="-3.530778">
        <ele>1049.9</ele>
        <time>2020-08-20T06:10:31Z</time>
        <sat>11</sat>
      </trkpt>
      <trkpt lat="42.380264" lon="-3.530884">
        <ele>1050.7</ele>
        <time>2020-08-20T06:10:43Z</time>
        <sat>11</sat>
      </trkpt>
      <trkpt lat="42.380240" lon="-3.531002">
        <ele>1051.7</ele>
        <time>2020-08-20T06:10:55Z</time>
        <sat>11</sat>
      </trkpt>
      <trkpt lat="42.380225" lon="-3.531122">
        <ele>1052.2</ele>
        <time>2020-08-20T06:11:09Z</time>
        <sat>11</sat>
      </trkpt>
      <trkpt lat="42.380187" lon="-3.531223">
        <ele>1052.3</ele>
        <time>2020-08-20T06:11:17Z</time>
        <sat>10</sat>
      </trkpt>
      <trkpt lat="42.380137" lon="-3.531326">
        <ele>1052.3</ele>
        <time>2020-08-20T06:11:26Z</time>
        <sat>10</sat>
      </trkpt>
      <trkpt lat="42.380133" lon="-3.531443">
        <ele>1052.7</ele>
        <time>2020-08-20T06:11:37Z</time>
        <sat>10</sat>
      </trkpt>
      <trkpt lat="42.380084" lon="-3.531531">
        <ele>1053.7</ele>
        <time>2020-08-20T06:11:57Z</time>
        <sat>11</sat>
      </trkpt>
      <trkpt lat="42.380080" lon="-3.531730">
        <ele>1056.0</ele>
        <time>2020-08-20T06:12:26Z</time>
        <sat>11</sat>
      </trkpt>
      <trkpt lat="42.380038" lon="-3.531828">
        <ele>1057.2</ele>
        <time>2020-08-20T06:13:20Z</time>
        <sat>11</sat>
      </trkpt>
      <trkpt lat="42.380012" lon="-3.531934">
        <ele>1057.7</ele>
        <time>2020-08-20T06:13:42Z</time>
        <sat>11</sat>
      </trkpt>
      <trkpt lat="42.379994" lon="-3.532042">
        <ele>1058.3</ele>
        <time>2020-08-20T06:13:51Z</time>
        <sat>10</sat>
      </trkpt>
      <trkpt lat="42.379991" lon="-3.532156">
        <ele>1059.5</ele>
        <time>2020-08-20T06:14:05Z</time>
        <sat>11</sat>
      </trkpt>
      <trkpt lat="42.380007" lon="-3.532278">
        <ele>1060.4</ele>
        <time>2020-08-20T06:15:06Z</time>
        <sat>11</sat>
      </trkpt>
      <trkpt lat="42.379996" lon="-3.532399">
        <ele>1060.8</ele>
        <time>2020-08-20T06:18:53Z</time>
        <sat>10</sat>
      </trkpt>
      <trkpt lat="42.379976" lon="-3.532514">
        <ele>1060.9</ele>
        <time>2020-08-20T06:19:01Z</time>
        <sat>9</sat>
      </trkpt>
      <trkpt lat="42.379963" lon="-3.532627">
        <ele>1061.0</ele>
        <time>2020-08-20T06:19:08Z</time>
        <sat>10</sat>
      </trkpt>
      <trkpt lat="42.379950" lon="-3.532735">
        <ele>1061.3</ele>
        <time>2020-08-20T06:19:14Z</time>
        <sat>10</sat>
      </trkpt>
      <trkpt lat="42.379940" lon="-3.532854">
        <ele>1061.4</ele>
        <time>2020-08-20T06:19:21Z</time>
        <sat>10</sat>
      </trkpt>
      <trkpt lat="42.379931" lon="-3.532977">
        <ele>1061.7</ele>
        <time>2020-08-20T06:19:28Z</time>
        <sat>10</sat>
      </trkpt>
      <trkpt lat="42.379914" lon="-3.533095">
        <ele>1062.1</ele>
        <time>2020-08-20T06:19:35Z</time>
        <sat>10</sat>
      </trkpt>
      <trkpt lat="42.379896" lon="-3.533220">
        <ele>1062.6</ele>
        <time>2020-08-20T06:19:42Z</time>
        <sat>10</sat>
      </trkpt>
      <trkpt lat="42.379880" lon="-3.533338">
        <ele>1063.0</ele>
        <time>2020-08-20T06:19:49Z</time>
        <sat>10</sat>
      </trkpt>
      <trkpt lat="42.379873" lon="-3.533454">
        <ele>1063.4</ele>
        <time>2020-08-20T06:19:56Z</time>
        <sat>10</sat>
      </trkpt>
      <trkpt lat="42.379848" lon="-3.533572">
        <ele>1063.9</ele>
        <time>2020-08-20T06:20:03Z</time>
        <sat>10</sat>
      </trkpt>
      <trkpt lat="42.379812" lon="-3.533686">
        <ele>1064.2</ele>
        <time>2020-08-20T06:20:10Z</time>
        <sat>10</sat>
      </trkpt>
      <trkpt lat="42.379778" lon="-3.533792">
        <ele>1064.5</ele>
        <time>2020-08-20T06:20:17Z</time>
        <sat>10</sat>
      </trkpt>
      <trkpt lat="42.379741" lon="-3.533898">
        <ele>1064.9</ele>
        <time>2020-08-20T06:20:24Z</time>
        <sat>9</sat>
      </trkpt>
      <trkpt lat="42.379697" lon="-3.534008">
        <ele>1065.4</ele>
        <time>2020-08-20T06:20:31Z</time>
        <sat>9</sat>
      </trkpt>
      <trkpt lat="42.379666" lon="-3.534121">
        <ele>1066.0</ele>
        <time>2020-08-20T06:20:38Z</time>
        <sat>9</sat>
      </trkpt>
      <trkpt lat="42.379635" lon="-3.534223">
        <ele>1066.2</ele>
        <time>2020-08-20T06:20:44Z</time>
        <sat>10</sat>
      </trkpt>
      <trkpt lat="42.379607" lon="-3.534345">
        <ele>1066.2</ele>
        <time>2020-08-20T06:20:51Z</time>
        <sat>9</sat>
      </trkpt>
      <trkpt lat="42.379575" lon="-3.534461">
        <ele>1066.3</ele>
        <time>2020-08-20T06:20:58Z</time>
        <sat>10</sat>
      </trkpt>
      <trkpt lat="42.379532" lon="-3.534568">
        <ele>1066.5</ele>
        <time>2020-08-20T06:21:05Z</time>
        <sat>9</sat>
      </trkpt>
      <trkpt lat="42.379495" lon="-3.534667">
        <ele>1066.7</ele>
        <time>2020-08-20T06:21:11Z</time>
        <sat>9</sat>
      </trkpt>
      <trkpt lat="42.379448" lon="-3.534773">
        <ele>1066.9</ele>
        <time>2020-08-20T06:21:18Z</time>
        <sat>9</sat>
      </trkpt>
      <trkpt lat="42.379403" lon="-3.534865">
        <ele>1067.0</ele>
        <time>2020-08-20T06:21:24Z</time>
        <sat>10</sat>
      </trkpt>
      <trkpt lat="42.379360" lon="-3.534962">
        <ele>1067.1</ele>
        <time>2020-08-20T06:21:31Z</time>
        <sat>8</sat>
      </trkpt>
      <trkpt lat="42.379310" lon="-3.535067">
        <ele>1067.2</ele>
        <time>2020-08-20T06:21:38Z</time>
        <sat>10</sat>
      </trkpt>
      <trkpt lat="42.379253" lon="-3.535169">
        <ele>1067.1</ele>
        <time>2020-08-20T06:21:45Z</time>
        <sat>9</sat>
      </trkpt>
      <trkpt lat="42.379198" lon="-3.535255">
        <ele>1067.0</ele>
        <time>2020-08-20T06:21:52Z</time>
        <sat>9</sat>
      </trkpt>
      <trkpt lat="42.379169" lon="-3.535362">
        <ele>1066.1</ele>
        <time>2020-08-20T06:22:02Z</time>
        <sat>9</sat>
      </trkpt>
      <trkpt lat="42.379168" lon="-3.535481">
        <ele>1066.0</ele>
        <time>2020-08-20T06:22:34Z</time>
        <sat>9</sat>
      </trkpt>
      <trkpt lat="42.379102" lon="-3.535546">
        <ele>1065.9</ele>
        <time>2020-08-20T06:22:51Z</time>
        <sat>10</sat>
      </trkpt>
      <trkpt lat="42.379044" lon="-3.535627">
        <ele>1065.6</ele>
        <time>2020-08-20T06:23:01Z</time>
        <sat>10</sat>
      </trkpt>
      <trkpt lat="42.378990" lon="-3.535719">
        <ele>1065.4</ele>
        <time>2020-08-20T06:23:09Z</time>
        <sat>9</sat>
      </trkpt>
      <trkpt lat="42.378931" lon="-3.535809">
        <ele>1064.8</ele>
        <time>2020-08-20T06:23:17Z</time>
        <sat>10</sat>
      </trkpt>
      <trkpt lat="42.378874" lon="-3.535907">
        <ele>1064.0</ele>
        <time>2020-08-20T06:23:25Z</time>
        <sat>10</sat>
      </trkpt>
      <trkpt lat="42.378817" lon="-3.536003">
        <ele>1063.6</ele>
        <time>2020-08-20T06:23:33Z</time>
        <sat>10</sat>
      </trkpt>
      <trkpt lat="42.378750" lon="-3.536087">
        <ele>1062.7</ele>
        <time>2020-08-20T06:23:42Z</time>
        <sat>10</sat>
      </trkpt>
      <trkpt lat="42.378689" lon="-3.536163">
        <ele>1062.1</ele>
        <time>2020-08-20T06:23:51Z</time>
        <sat>10</sat>
      </trkpt>
      <trkpt lat="42.378620" lon="-3.536240">
        <ele>1060.9</ele>
        <time>2020-08-20T06:24:06Z</time>
        <sat>10</sat>
      </trkpt>
      <trkpt lat="42.378541" lon="-3.536285">
        <ele>1060.6</ele>
        <time>2020-08-20T06:24:14Z</time>
        <sat>9</sat>
      </trkpt>
      <trkpt lat="42.378481" lon="-3.536363">
        <ele>1059.6</ele>
        <time>2020-08-20T06:24:27Z</time>
        <sat>10</sat>
      </trkpt>
      <trkpt lat="42.378415" lon="-3.536436">
        <ele>1058.3</ele>
        <time>2020-08-20T06:24:51Z</time>
        <sat>9</sat>
      </trkpt>
      <trkpt lat="42.378354" lon="-3.536518">
        <ele>1057.4</ele>
        <time>2020-08-20T06:25:03Z</time>
        <sat>9</sat>
      </trkpt>
      <trkpt lat="42.378300" lon="-3.536609">
        <ele>1056.4</ele>
        <time>2020-08-20T06:25:15Z</time>
        <sat>9</sat>
      </trkpt>
      <trkpt lat="42.378260" lon="-3.536705">
        <ele>1055.4</ele>
        <time>2020-08-20T06:25:25Z</time>
        <sat>9</sat>
      </trkpt>
      <trkpt lat="42.378238" lon="-3.536811">
        <ele>1054.2</ele>
        <time>2020-08-20T06:25:33Z</time>
        <sat>9</sat>
      </trkpt>
      <trkpt lat="42.378197" lon="-3.536907">
        <ele>1052.9</ele>
        <time>2020-08-20T06:25:42Z</time>
        <sat>9</sat>
      </trkpt>
      <trkpt lat="42.378138" lon="-3.536991">
        <ele>1051.5</ele>
        <time>2020-08-20T06:25:51Z</time>
        <sat>10</sat>
      </trkpt>
      <trkpt lat="42.378075" lon="-3.537062">
        <ele>1050.6</ele>
        <time>2020-08-20T06:25:59Z</time>
        <sat>10</sat>
      </trkpt>
      <trkpt lat="42.378017" lon="-3.537140">
        <ele>1049.6</ele>
        <time>2020-08-20T06:26:07Z</time>
        <sat>10</sat>
      </trkpt>
      <trkpt lat="42.377956" lon="-3.537226">
        <ele>1048.6</ele>
        <time>2020-08-20T06:26:16Z</time>
        <sat>10</sat>
      </trkpt>
      <trkpt lat="42.377905" lon="-3.537327">
        <ele>1047.4</ele>
        <time>2020-08-20T06:26:26Z</time>
        <sat>10</sat>
      </trkpt>
      <trkpt lat="42.377869" lon="-3.537426">
        <ele>1046.1</ele>
        <time>2020-08-20T06:26:34Z</time>
        <sat>9</sat>
      </trkpt>
      <trkpt lat="42.377823" lon="-3.537521">
        <ele>1044.8</ele>
        <time>2020-08-20T06:26:43Z</time>
        <sat>9</sat>
      </trkpt>
      <trkpt lat="42.377777" lon="-3.537615">
        <ele>1043.5</ele>
        <time>2020-08-20T06:26:52Z</time>
        <sat>9</sat>
      </trkpt>
      <trkpt lat="42.377732" lon="-3.537719">
        <ele>1042.4</ele>
        <time>2020-08-20T06:27:01Z</time>
        <sat>9</sat>
      </trkpt>
      <trkpt lat="42.377679" lon="-3.537807">
        <ele>1041.5</ele>
        <time>2020-08-20T06:27:09Z</time>
        <sat>9</sat>
      </trkpt>
      <trkpt lat="42.377620" lon="-3.537899">
        <ele>1040.4</ele>
        <time>2020-08-20T06:27:17Z</time>
        <sat>10</sat>
      </trkpt>
      <trkpt lat="42.377566" lon="-3.537995">
        <ele>1039.0</ele>
        <time>2020-08-20T06:27:26Z</time>
        <sat>9</sat>
      </trkpt>
      <trkpt lat="42.377537" lon="-3.538101">
        <ele>1037.6</ele>
        <time>2020-08-20T06:27:35Z</time>
        <sat>9</sat>
      </trkpt>
      <trkpt lat="42.377514" lon="-3.538214">
        <ele>1036.5</ele>
        <time>2020-08-20T06:27:44Z</time>
        <sat>10</sat>
      </trkpt>
      <trkpt lat="42.377497" lon="-3.538331">
        <ele>1035.5</ele>
        <time>2020-08-20T06:27:53Z</time>
        <sat>10</sat>
      </trkpt>
      <trkpt lat="42.377476" lon="-3.538443">
        <ele>1033.9</ele>
        <time>2020-08-20T06:28:02Z</time>
        <sat>9</sat>
      </trkpt>
      <trkpt lat="42.377452" lon="-3.538548">
        <ele>1032.8</ele>
        <time>2020-08-20T06:28:10Z</time>
        <sat>9</sat>
      </trkpt>
      <trkpt lat="42.377432" lon="-3.538670">
        <ele>1031.5</ele>
        <time>2020-08-20T06:28:19Z</time>
        <sat>9</sat>
      </trkpt>
      <trkpt lat="42.377424" lon="-3.538785">
        <ele>1030.3</ele>
        <time>2020-08-20T06:28:28Z</time>
        <sat>9</sat>
      </trkpt>
      <trkpt lat="42.377411" lon="-3.538899">
        <ele>1029.1</ele>
        <time>2020-08-20T06:28:37Z</time>
        <sat>9</sat>
      </trkpt>
      <trkpt lat="42.377382" lon="-3.539005">
        <ele>1028.1</ele>
        <time>2020-08-20T06:28:45Z</time>
        <sat>9</sat>
      </trkpt>
      <trkpt lat="42.377357" lon="-3.539120">
        <ele>1027.0</ele>
        <time>2020-08-20T06:28:53Z</time>
        <sat>9</sat>
      </trkpt>
      <trkpt lat="42.377328" lon="-3.539227">
        <ele>1025.6</ele>
        <time>2020-08-20T06:29:01Z</time>
        <sat>9</sat>
      </trkpt>
      <trkpt lat="42.377295" lon="-3.539328">
        <ele>1024.4</ele>
        <time>2020-08-20T06:29:11Z</time>
        <sat>9</sat>
      </trkpt>
      <trkpt lat="42.377261" lon="-3.539435">
        <ele>1022.7</ele>
        <time>2020-08-20T06:29:32Z</time>
        <sat>9</sat>
      </trkpt>
      <trkpt lat="42.377254" lon="-3.539553">
        <ele>1021.8</ele>
        <time>2020-08-20T06:29:41Z</time>
        <sat>10</sat>
      </trkpt>
      <trkpt lat="42.377243" lon="-3.539673">
        <ele>1020.8</ele>
        <time>2020-08-20T06:29:49Z</time>
        <sat>9</sat>
      </trkpt>
      <trkpt lat="42.377236" lon="-3.539787">
        <ele>1019.7</ele>
        <time>2020-08-20T06:29:57Z</time>
        <sat>9</sat>
      </trkpt>
      <trkpt lat="42.377231" lon="-3.539907">
        <ele>1018.8</ele>
        <time>2020-08-20T06:30:05Z</time>
        <sat>9</sat>
      </trkpt>
      <trkpt lat="42.377225" lon="-3.540029">
        <ele>1017.7</ele>
        <time>2020-08-20T06:30:14Z</time>
        <sat>9</sat>
      </trkpt>
      <trkpt lat="42.377219" lon="-3.540142">
        <ele>1016.6</ele>
        <time>2020-08-20T06:30:23Z</time>
        <sat>9</sat>
      </trkpt>
      <trkpt lat="42.377225" lon="-3.540262">
        <ele>1015.4</ele>
        <time>2020-08-20T06:30:32Z</time>
        <sat>9</sat>
      </trkpt>
      <trkpt lat="42.377217" lon="-3.540375">
        <ele>1014.3</ele>
        <time>2020-08-20T06:30:40Z</time>
        <sat>10</sat>
      </trkpt>
      <trkpt lat="42.377219" lon="-3.540497">
        <ele>1013.2</ele>
        <time>2020-08-20T06:30:49Z</time>
        <sat>9</sat>
      </trkpt>
      <trkpt lat="42.377219" lon="-3.540610">
        <ele>1012.3</ele>
        <time>2020-08-20T06:30:57Z</time>
        <sat>9</sat>
      </trkpt>
      <trkpt lat="42.377201" lon="-3.540728">
        <ele>1011.0</ele>
        <time>2020-08-20T06:31:09Z</time>
        <sat>9</sat>
      </trkpt>
      <trkpt lat="42.377212" lon="-3.540837">
        <ele>1009.4</ele>
        <time>2020-08-20T06:31:18Z</time>
        <sat>10</sat>
      </trkpt>
      <trkpt lat="42.377220" lon="-3.540946">
        <ele>1008.5</ele>
        <time>2020-08-20T06:31:30Z</time>
        <sat>10</sat>
      </trkpt>
      <trkpt lat="42.377233" lon="-3.541058">
        <ele>1006.2</ele>
        <time>2020-08-20T06:31:37Z</time>
        <sat>10</sat>
      </trkpt>
      <trkpt lat="42.377264" lon="-3.541173">
        <ele>1006.4</ele>
        <time>2020-08-20T06:31:45Z</time>
        <sat>10</sat>
      </trkpt>
      <trkpt lat="42.377288" lon="-3.541281">
        <ele>1005.5</ele>
        <time>2020-08-20T06:31:52Z</time>
        <sat>10</sat>
      </trkpt>
      <trkpt lat="42.377284" lon="-3.541400">
        <ele>1005.6</ele>
        <time>2020-08-20T06:31:59Z</time>
        <sat>10</sat>
      </trkpt>
      <trkpt lat="42.377265" lon="-3.541508">
        <ele>1006.0</ele>
        <time>2020-08-20T06:32:05Z</time>
        <sat>10</sat>
      </trkpt>
      <trkpt lat="42.377244" lon="-3.541623">
        <ele>1006.2</ele>
        <time>2020-08-20T06:32:12Z</time>
        <sat>10</sat>
      </trkpt>
      <trkpt lat="42.377213" lon="-3.541725">
        <ele>1006.1</ele>
        <time>2020-08-20T06:32:18Z</time>
        <sat>10</sat>
      </trkpt>
      <trkpt lat="42.377176" lon="-3.541835">
        <ele>1006.0</ele>
        <time>2020-08-20T06:32:25Z</time>
        <sat>10</sat>
      </trkpt>
      <trkpt lat="42.377158" lon="-3.541951">
        <ele>1005.6</ele>
        <time>2020-08-20T06:32:32Z</time>
        <sat>10</sat>
      </trkpt>
      <trkpt lat="42.377156" lon="-3.542077">
        <ele>1004.9</ele>
        <time>2020-08-20T06:32:41Z</time>
        <sat>10</sat>
      </trkpt>
      <trkpt lat="42.377163" lon="-3.542197">
        <ele>1004.7</ele>
        <time>2020-08-20T06:32:49Z</time>
        <sat>10</sat>
      </trkpt>
      <trkpt lat="42.377161" lon="-3.542311">
        <ele>1004.5</ele>
        <time>2020-08-20T06:32:56Z</time>
        <sat>10</sat>
      </trkpt>
      <trkpt lat="42.377159" lon="-3.542422">
        <ele>1004.4</ele>
        <time>2020-08-20T06:33:03Z</time>
        <sat>9</sat>
      </trkpt>
      <trkpt lat="42.377172" lon="-3.542539">
        <ele>1004.1</ele>
        <time>2020-08-20T06:33:10Z</time>
        <sat>9</sat>
      </trkpt>
      <trkpt lat="42.377177" lon="-3.542662">
        <ele>1003.9</ele>
        <time>2020-08-20T06:33:18Z</time>
        <sat>9</sat>
      </trkpt>
      <trkpt lat="42.377185" lon="-3.542774">
        <ele>1003.6</ele>
        <time>2020-08-20T06:33:25Z</time>
        <sat>9</sat>
      </trkpt>
      <trkpt lat="42.377187" lon="-3.542896">
        <ele>1003.6</ele>
        <time>2020-08-20T06:33:33Z</time>
        <sat>9</sat>
      </trkpt>
      <trkpt lat="42.377192" lon="-3.543010">
        <ele>1003.6</ele>
        <time>2020-08-20T06:33:40Z</time>
        <sat>9</sat>
      </trkpt>
      <trkpt lat="42.377197" lon="-3.543128">
        <ele>1003.5</ele>
        <time>2020-08-20T06:33:47Z</time>
        <sat>9</sat>
      </trkpt>
      <trkpt lat="42.377196" lon="-3.543240">
        <ele>1003.3</ele>
        <time>2020-08-20T06:33:54Z</time>
        <sat>9</sat>
      </trkpt>
      <trkpt lat="42.377203" lon="-3.543356">
        <ele>1003.0</ele>
        <time>2020-08-20T06:34:01Z</time>
        <sat>9</sat>
      </trkpt>
      <trkpt lat="42.377207" lon="-3.543466">
        <ele>1002.7</ele>
        <time>2020-08-20T06:34:08Z</time>
        <sat>9</sat>
      </trkpt>
      <trkpt lat="42.377211" lon="-3.543592">
        <ele>1002.6</ele>
        <time>2020-08-20T06:34:16Z</time>
        <sat>9</sat>
      </trkpt>
      <trkpt lat="42.377220" lon="-3.543706">
        <ele>1002.2</ele>
        <time>2020-08-20T06:34:23Z</time>
        <sat>9</sat>
      </trkpt>
      <trkpt lat="42.377220" lon="-3.543821">
        <ele>1001.9</ele>
        <time>2020-08-20T06:34:30Z</time>
        <sat>9</sat>
      </trkpt>
      <trkpt lat="42.377215" lon="-3.543940">
        <ele>1001.4</ele>
        <time>2020-08-20T06:34:37Z</time>
        <sat>9</sat>
      </trkpt>
      <trkpt lat="42.377216" lon="-3.544067">
        <ele>1001.0</ele>
        <time>2020-08-20T06:34:44Z</time>
        <sat>9</sat>
      </trkpt>
      <trkpt lat="42.377227" lon="-3.544188">
        <ele>1000.6</ele>
        <time>2020-08-20T06:34:51Z</time>
        <sat>9</sat>
      </trkpt>
      <trkpt lat="42.377229" lon="-3.544306">
        <ele>1000.1</ele>
        <time>2020-08-20T06:34:58Z</time>
        <sat>9</sat>
      </trkpt>
      <trkpt lat="42.377234" lon="-3.544425">
        <ele>999.7</ele>
        <time>2020-08-20T06:35:05Z</time>
        <sat>9</sat>
      </trkpt>
      <trkpt lat="42.377232" lon="-3.544537">
        <ele>998.4</ele>
        <time>2020-08-20T06:35:18Z</time>
        <sat>9</sat>
      </trkpt>
      <trkpt lat="42.377225" lon="-3.544648">
        <ele>998.3</ele>
        <time>2020-08-20T06:35:25Z</time>
        <sat>9</sat>
      </trkpt>
      <trkpt lat="42.377227" lon="-3.544769">
        <ele>999.4</ele>
        <time>2020-08-20T06:35:32Z</time>
        <sat>9</sat>
      </trkpt>
      <trkpt lat="42.377222" lon="-3.544890">
        <ele>999.1</ele>
        <time>2020-08-20T06:35:41Z</time>
        <sat>9</sat>
      </trkpt>
      <trkpt lat="42.377218" lon="-3.545018">
        <ele>999.0</ele>
        <time>2020-08-20T06:35:48Z</time>
        <sat>9</sat>
      </trkpt>
      <trkpt lat="42.377206" lon="-3.545135">
        <ele>998.9</ele>
        <time>2020-08-20T06:35:55Z</time>
        <sat>9</sat>
      </trkpt>
      <trkpt lat="42.377188" lon="-3.545254">
        <ele>998.3</ele>
        <time>2020-08-20T06:36:02Z</time>
        <sat>9</sat>
      </trkpt>
      <trkpt lat="42.377161" lon="-3.545359">
        <ele>998.1</ele>
        <time>2020-08-20T06:36:09Z</time>
        <sat>9</sat>
      </trkpt>
      <trkpt lat="42.377134" lon="-3.545472">
        <ele>997.8</ele>
        <time>2020-08-20T06:36:16Z</time>
        <sat>9</sat>
      </trkpt>
      <trkpt lat="42.377113" lon="-3.545587">
        <ele>997.5</ele>
        <time>2020-08-20T06:36:23Z</time>
        <sat>9</sat>
      </trkpt>
      <trkpt lat="42.377082" lon="-3.545695">
        <ele>997.3</ele>
        <time>2020-08-20T06:36:30Z</time>
        <sat>9</sat>
      </trkpt>
      <trkpt lat="42.377050" lon="-3.545801">
        <ele>997.1</ele>
        <time>2020-08-20T06:36:37Z</time>
        <sat>9</sat>
      </trkpt>
      <trkpt lat="42.377024" lon="-3.545908">
        <ele>997.0</ele>
        <time>2020-08-20T06:36:44Z</time>
        <sat>9</sat>
      </trkpt>
      <trkpt lat="42.376998" lon="-3.546017">
        <ele>996.7</ele>
        <time>2020-08-20T06:36:51Z</time>
        <sat>9</sat>
      </trkpt>
      <trkpt lat="42.376966" lon="-3.546124">
        <ele>996.5</ele>
        <time>2020-08-20T06:36:58Z</time>
        <sat>9</sat>
      </trkpt>
      <trkpt lat="42.376942" lon="-3.546239">
        <ele>996.3</ele>
        <time>2020-08-20T06:37:05Z</time>
        <sat>9</sat>
      </trkpt>
      <trkpt lat="42.376921" lon="-3.546355">
        <ele>995.9</ele>
        <time>2020-08-20T06:37:12Z</time>
        <sat>9</sat>
      </trkpt>
      <trkpt lat="42.376889" lon="-3.546465">
        <ele>995.8</ele>
        <time>2020-08-20T06:37:19Z</time>
        <sat>9</sat>
      </trkpt>
      <trkpt lat="42.376872" lon="-3.546583">
        <ele>995.4</ele>
        <time>2020-08-20T06:37:27Z</time>
        <sat>9</sat>
      </trkpt>
      <trkpt lat="42.376849" lon="-3.546704">
        <ele>995.3</ele>
        <time>2020-08-20T06:37:34Z</time>
        <sat>9</sat>
      </trkpt>
      <trkpt lat="42.376820" lon="-3.546809">
        <ele>995.3</ele>
        <time>2020-08-20T06:37:40Z</time>
        <sat>9</sat>
      </trkpt>
      <trkpt lat="42.376783" lon="-3.546923">
        <ele>994.9</ele>
        <time>2020-08-20T06:37:47Z</time>
        <sat>9</sat>
      </trkpt>
      <trkpt lat="42.376743" lon="-3.547025">
        <ele>994.9</ele>
        <time>2020-08-20T06:37:53Z</time>
        <sat>8</sat>
      </trkpt>
      <trkpt lat="42.376722" lon="-3.547137">
        <ele>994.8</ele>
        <time>2020-08-20T06:37:59Z</time>
        <sat>9</sat>
      </trkpt>
      <trkpt lat="42.376703" lon="-3.547252">
        <ele>994.2</ele>
        <time>2020-08-20T06:38:06Z</time>
        <sat>9</sat>
      </trkpt>
      <trkpt lat="42.376671" lon="-3.547365">
        <ele>994.1</ele>
        <time>2020-08-20T06:38:13Z</time>
        <sat>9</sat>
      </trkpt>
      <trkpt lat="42.376642" lon="-3.547479">
        <ele>993.8</ele>
        <time>2020-08-20T06:38:20Z</time>
        <sat>9</sat>
      </trkpt>
      <trkpt lat="42.376612" lon="-3.547595">
        <ele>993.4</ele>
        <time>2020-08-20T06:38:27Z</time>
        <sat>9</sat>
      </trkpt>
      <trkpt lat="42.376584" lon="-3.547703">
        <ele>993.1</ele>
        <time>2020-08-20T06:38:34Z</time>
        <sat>9</sat>
      </trkpt>
      <trkpt lat="42.376552" lon="-3.547806">
        <ele>992.9</ele>
        <time>2020-08-20T06:38:40Z</time>
        <sat>9</sat>
      </trkpt>
      <trkpt lat="42.376523" lon="-3.547918">
        <ele>992.4</ele>
        <time>2020-08-20T06:38:47Z</time>
        <sat>9</sat>
      </trkpt>
      <trkpt lat="42.376498" lon="-3.548036">
        <ele>991.9</ele>
        <time>2020-08-20T06:38:54Z</time>
        <sat>9</sat>
      </trkpt>
      <trkpt lat="42.376470" lon="-3.548155">
        <ele>991.8</ele>
        <time>2020-08-20T06:39:01Z</time>
        <sat>9</sat>
      </trkpt>
      <trkpt lat="42.376447" lon="-3.548274">
        <ele>991.6</ele>
        <time>2020-08-20T06:39:08Z</time>
        <sat>9</sat>
      </trkpt>
      <trkpt lat="42.376413" lon="-3.548391">
        <ele>991.0</ele>
        <time>2020-08-20T06:39:15Z</time>
        <sat>9</sat>
      </trkpt>
      <trkpt lat="42.376387" lon="-3.548503">
        <ele>991.1</ele>
        <time>2020-08-20T06:39:22Z</time>
        <sat>9</sat>
      </trkpt>
      <trkpt lat="42.376359" lon="-3.548613">
        <ele>990.9</ele>
        <time>2020-08-20T06:39:29Z</time>
        <sat>9</sat>
      </trkpt>
      <trkpt lat="42.376335" lon="-3.548718">
        <ele>990.4</ele>
        <time>2020-08-20T06:39:36Z</time>
        <sat>9</sat>
      </trkpt>
      <trkpt lat="42.376294" lon="-3.548813">
        <ele>990.2</ele>
        <time>2020-08-20T06:39:42Z</time>
        <sat>9</sat>
      </trkpt>
      <trkpt lat="42.376266" lon="-3.548928">
        <ele>989.6</ele>
        <time>2020-08-20T06:39:49Z</time>
        <sat>9</sat>
      </trkpt>
      <trkpt lat="42.376229" lon="-3.549030">
        <ele>989.9</ele>
        <time>2020-08-20T06:39:55Z</time>
        <sat>9</sat>
      </trkpt>
      <trkpt lat="42.376202" lon="-3.549140">
        <ele>989.9</ele>
        <time>2020-08-20T06:40:01Z</time>
        <sat>9</sat>
      </trkpt>
      <trkpt lat="42.376194" lon="-3.549257">
        <ele>989.6</ele>
        <time>2020-08-20T06:40:09Z</time>
        <sat>9</sat>
      </trkpt>
      <trkpt lat="42.376157" lon="-3.549367">
        <ele>989.3</ele>
        <time>2020-08-20T06:40:16Z</time>
        <sat>9</sat>
      </trkpt>
      <trkpt lat="42.376122" lon="-3.549487">
        <ele>988.9</ele>
        <time>2020-08-20T06:40:23Z</time>
        <sat>9</sat>
      </trkpt>
      <trkpt lat="42.376081" lon="-3.549595">
        <ele>988.6</ele>
        <time>2020-08-20T06:40:29Z</time>
        <sat>9</sat>
      </trkpt>
      <trkpt lat="42.376038" lon="-3.549710">
        <ele>988.5</ele>
        <time>2020-08-20T06:40:36Z</time>
        <sat>9</sat>
      </trkpt>
      <trkpt lat="42.376003" lon="-3.549822">
        <ele>988.0</ele>
        <time>2020-08-20T06:40:43Z</time>
        <sat>9</sat>
      </trkpt>
      <trkpt lat="42.375965" lon="-3.549925">
        <ele>987.7</ele>
        <time>2020-08-20T06:40:50Z</time>
        <sat>9</sat>
      </trkpt>
      <trkpt lat="42.375930" lon="-3.550036">
        <ele>987.4</ele>
        <time>2020-08-20T06:40:57Z</time>
        <sat>9</sat>
      </trkpt>
      <trkpt lat="42.375889" lon="-3.550140">
        <ele>987.1</ele>
        <time>2020-08-20T06:41:04Z</time>
        <sat>9</sat>
      </trkpt>
      <trkpt lat="42.375852" lon="-3.550251">
        <ele>986.8</ele>
        <time>2020-08-20T06:41:11Z</time>
        <sat>9</sat>
      </trkpt>
      <trkpt lat="42.375810" lon="-3.550364">
        <ele>986.5</ele>
        <time>2020-08-20T06:41:18Z</time>
        <sat>9</sat>
      </trkpt>
      <trkpt lat="42.375773" lon="-3.550471">
        <ele>986.3</ele>
        <time>2020-08-20T06:41:25Z</time>
        <sat>9</sat>
      </trkpt>
      <trkpt lat="42.375740" lon="-3.550575">
        <ele>985.9</ele>
        <time>2020-08-20T06:41:31Z</time>
        <sat>9</sat>
      </trkpt>
      <trkpt lat="42.375716" lon="-3.550680">
        <ele>985.6</ele>
        <time>2020-08-20T06:41:37Z</time>
        <sat>9</sat>
      </trkpt>
      <trkpt lat="42.375688" lon="-3.550796">
        <ele>985.3</ele>
        <time>2020-08-20T06:41:44Z</time>
        <sat>9</sat>
      </trkpt>
      <trkpt lat="42.375637" lon="-3.550888">
        <ele>985.1</ele>
        <time>2020-08-20T06:41:51Z</time>
        <sat>9</sat>
      </trkpt>
      <trkpt lat="42.375580" lon="-3.550988">
        <ele>984.8</ele>
        <time>2020-08-20T06:41:58Z</time>
        <sat>9</sat>
      </trkpt>
      <trkpt lat="42.375523" lon="-3.551076">
        <ele>984.3</ele>
        <time>2020-08-20T06:42:06Z</time>
        <sat>8</sat>
      </trkpt>
      <trkpt lat="42.375448" lon="-3.551152">
        <ele>983.9</ele>
        <time>2020-08-20T06:42:13Z</time>
        <sat>8</sat>
      </trkpt>
      <trkpt lat="42.375384" lon="-3.551227">
        <ele>983.7</ele>
        <time>2020-08-20T06:42:19Z</time>
        <sat>8</sat>
      </trkpt>
      <trkpt lat="42.375321" lon="-3.551307">
        <ele>983.5</ele>
        <time>2020-08-20T06:42:25Z</time>
        <sat>8</sat>
      </trkpt>
      <trkpt lat="42.375259" lon="-3.551385">
        <ele>983.2</ele>
        <time>2020-08-20T06:42:32Z</time>
        <sat>8</sat>
      </trkpt>
      <trkpt lat="42.375191" lon="-3.551458">
        <ele>983.0</ele>
        <time>2020-08-20T06:42:39Z</time>
        <sat>8</sat>
      </trkpt>
      <trkpt lat="42.375123" lon="-3.551544">
        <ele>982.8</ele>
        <time>2020-08-20T06:42:46Z</time>
        <sat>8</sat>
      </trkpt>
      <trkpt lat="42.375061" lon="-3.551629">
        <ele>982.5</ele>
        <time>2020-08-20T06:42:53Z</time>
        <sat>8</sat>
      </trkpt>
      <trkpt lat="42.375001" lon="-3.551710">
        <ele>982.2</ele>
        <time>2020-08-20T06:43:05Z</time>
        <sat>8</sat>
      </trkpt>
      <trkpt lat="42.374946" lon="-3.551790">
        <ele>982.0</ele>
        <time>2020-08-20T06:43:11Z</time>
        <sat>8</sat>
      </trkpt>
      <trkpt lat="42.374887" lon="-3.551877">
        <ele>982.0</ele>
        <time>2020-08-20T06:43:18Z</time>
        <sat>8</sat>
      </trkpt>
      <trkpt lat="42.374829" lon="-3.551970">
        <ele>981.8</ele>
        <time>2020-08-20T06:43:25Z</time>
        <sat>8</sat>
      </trkpt>
      <trkpt lat="42.374770" lon="-3.552049">
        <ele>981.3</ele>
        <time>2020-08-20T06:43:32Z</time>
        <sat>8</sat>
      </trkpt>
      <trkpt lat="42.374712" lon="-3.552147">
        <ele>981.1</ele>
        <time>2020-08-20T06:43:39Z</time>
        <sat>8</sat>
      </trkpt>
      <trkpt lat="42.374653" lon="-3.552244">
        <ele>981.2</ele>
        <time>2020-08-20T06:43:47Z</time>
        <sat>8</sat>
      </trkpt>
      <trkpt lat="42.374606" lon="-3.552343">
        <ele>981.1</ele>
        <time>2020-08-20T06:43:54Z</time>
        <sat>8</sat>
      </trkpt>
      <trkpt lat="42.374557" lon="-3.552437">
        <ele>979.7</ele>
        <time>2020-08-20T06:44:01Z</time>
        <sat>8</sat>
      </trkpt>
      <trkpt lat="42.374514" lon="-3.552538">
        <ele>977.5</ele>
        <time>2020-08-20T06:44:08Z</time>
        <sat>8</sat>
      </trkpt>
      <trkpt lat="42.374468" lon="-3.552638">
        <ele>981.1</ele>
        <time>2020-08-20T06:44:15Z</time>
        <sat>8</sat>
      </trkpt>
      <trkpt lat="42.374424" lon="-3.552735">
        <ele>981.3</ele>
        <time>2020-08-20T06:44:22Z</time>
        <sat>8</sat>
      </trkpt>
      <trkpt lat="42.374378" lon="-3.552843">
        <ele>980.5</ele>
        <time>2020-08-20T06:44:29Z</time>
        <sat>8</sat>
      </trkpt>
      <trkpt lat="42.374323" lon="-3.552945">
        <ele>979.7</ele>
        <time>2020-08-20T06:44:37Z</time>
        <sat>8</sat>
      </trkpt>
      <trkpt lat="42.374275" lon="-3.553047">
        <ele>978.9</ele>
        <time>2020-08-20T06:44:44Z</time>
        <sat>7</sat>
      </trkpt>
      <trkpt lat="42.374227" lon="-3.553149">
        <ele>978.4</ele>
        <time>2020-08-20T06:44:51Z</time>
        <sat>8</sat>
      </trkpt>
      <trkpt lat="42.374178" lon="-3.553254">
        <ele>978.0</ele>
        <time>2020-08-20T06:44:58Z</time>
        <sat>8</sat>
      </trkpt>
      <trkpt lat="42.374126" lon="-3.553348">
        <ele>977.6</ele>
        <time>2020-08-20T06:45:05Z</time>
        <sat>8</sat>
      </trkpt>
      <trkpt lat="42.374078" lon="-3.553451">
        <ele>977.4</ele>
        <time>2020-08-20T06:45:12Z</time>
        <sat>8</sat>
      </trkpt>
      <trkpt lat="42.374032" lon="-3.553559">
        <ele>977.0</ele>
        <time>2020-08-20T06:45:19Z</time>
        <sat>8</sat>
      </trkpt>
      <trkpt lat="42.373995" lon="-3.553667">
        <ele>976.7</ele>
        <time>2020-08-20T06:45:26Z</time>
        <sat>8</sat>
      </trkpt>
      <trkpt lat="42.373960" lon="-3.553769">
        <ele>976.5</ele>
        <time>2020-08-20T06:45:32Z</time>
        <sat>7</sat>
      </trkpt>
      <trkpt lat="42.373933" lon="-3.553884">
        <ele>976.3</ele>
        <time>2020-08-20T06:45:39Z</time>
        <sat>7</sat>
      </trkpt>
      <trkpt lat="42.373906" lon="-3.554003">
        <ele>976.2</ele>
        <time>2020-08-20T06:45:46Z</time>
        <sat>8</sat>
      </trkpt>
      <trkpt lat="42.373852" lon="-3.554103">
        <ele>975.8</ele>
        <time>2020-08-20T06:45:54Z</time>
        <sat>8</sat>
      </trkpt>
      <trkpt lat="42.373765" lon="-3.554137">
        <ele>975.4</ele>
        <time>2020-08-20T06:46:02Z</time>
        <sat>8</sat>
      </trkpt>
      <trkpt lat="42.373675" lon="-3.554116">
        <ele>974.5</ele>
        <time>2020-08-20T06:46:21Z</time>
        <sat>8</sat>
      </trkpt>
      <trkpt lat="42.373595" lon="-3.554085">
        <ele>974.2</ele>
        <time>2020-08-20T06:46:27Z</time>
        <sat>8</sat>
      </trkpt>
      <trkpt lat="42.373507" lon="-3.554048">
        <ele>973.6</ele>
        <time>2020-08-20T06:46:34Z</time>
        <sat>8</sat>
      </trkpt>
      <trkpt lat="42.373423" lon="-3.554006">
        <ele>972.8</ele>
        <time>2020-08-20T06:46:42Z</time>
        <sat>8</sat>
      </trkpt>
      <trkpt lat="42.373346" lon="-3.553965">
        <ele>972.0</ele>
        <time>2020-08-20T06:46:49Z</time>
        <sat>8</sat>
      </trkpt>
      <trkpt lat="42.373261" lon="-3.553928">
        <ele>971.5</ele>
        <time>2020-08-20T06:46:57Z</time>
        <sat>8</sat>
      </trkpt>
      <trkpt lat="42.373173" lon="-3.553913">
        <ele>971.0</ele>
        <time>2020-08-20T06:47:05Z</time>
        <sat>8</sat>
      </trkpt>
      <trkpt lat="42.373092" lon="-3.553910">
        <ele>970.6</ele>
        <time>2020-08-20T06:47:12Z</time>
        <sat>8</sat>
      </trkpt>
      <trkpt lat="42.373007" lon="-3.553899">
        <ele>970.2</ele>
        <time>2020-08-20T06:47:20Z</time>
        <sat>8</sat>
      </trkpt>
      <trkpt lat="42.372924" lon="-3.553896">
        <ele>969.8</ele>
        <time>2020-08-20T06:47:27Z</time>
        <sat>8</sat>
      </trkpt>
      <trkpt lat="42.372832" lon="-3.553887">
        <ele>969.4</ele>
        <time>2020-08-20T06:47:35Z</time>
        <sat>8</sat>
      </trkpt>
      <trkpt lat="42.372744" lon="-3.553881">
        <ele>969.0</ele>
        <time>2020-08-20T06:47:43Z</time>
        <sat>8</sat>
      </trkpt>
      <trkpt lat="42.372662" lon="-3.553869">
        <ele>968.4</ele>
        <time>2020-08-20T06:49:00Z</time>
        <sat>8</sat>
      </trkpt>
      <trkpt lat="42.372584" lon="-3.553896">
        <ele>968.3</ele>
        <time>2020-08-20T06:49:18Z</time>
        <sat>8</sat>
      </trkpt>
      <trkpt lat="42.372499" lon="-3.553869">
        <ele>967.1</ele>
        <time>2020-08-20T06:50:15Z</time>
        <sat>7</sat>
      </trkpt>
      <trkpt lat="42.372408" lon="-3.553856">
        <ele>967.0</ele>
        <time>2020-08-20T06:50:22Z</time>
        <sat>8</sat>
      </trkpt>
      <trkpt lat="42.372320" lon="-3.553844">
        <ele>966.8</ele>
        <time>2020-08-20T06:50:29Z</time>
        <sat>8</sat>
      </trkpt>
      <trkpt lat="42.372231" lon="-3.553838">
        <ele>966.4</ele>
        <time>2020-08-20T06:50:36Z</time>
        <sat>8</sat>
      </trkpt>
      <trkpt lat="42.372138" lon="-3.553836">
        <ele>965.7</ele>
        <time>2020-08-20T06:50:43Z</time>
        <sat>8</sat>
      </trkpt>
      <trkpt lat="42.372048" lon="-3.553833">
        <ele>965.0</ele>
        <time>2020-08-20T06:50:50Z</time>
        <sat>7</sat>
      </trkpt>
      <trkpt lat="42.371962" lon="-3.553841">
        <ele>964.3</ele>
        <time>2020-08-20T06:50:57Z</time>
        <sat>7</sat>
      </trkpt>
      <trkpt lat="42.371878" lon="-3.553855">
        <ele>963.7</ele>
        <time>2020-08-20T06:51:04Z</time>
        <sat>8</sat>
      </trkpt>
      <trkpt lat="42.371788" lon="-3.553885">
        <ele>963.1</ele>
        <time>2020-08-20T06:51:11Z</time>
        <sat>8</sat>
      </trkpt>
      <trkpt lat="42.371698" lon="-3.553921">
        <ele>962.4</ele>
        <time>2020-08-20T06:51:18Z</time>
        <sat>8</sat>
      </trkpt>
      <trkpt lat="42.371620" lon="-3.553958">
        <ele>961.6</ele>
        <time>2020-08-20T06:51:24Z</time>
        <sat>8</sat>
      </trkpt>
      <trkpt lat="42.371534" lon="-3.553993">
        <ele>960.8</ele>
        <time>2020-08-20T06:51:31Z</time>
        <sat>8</sat>
      </trkpt>
      <trkpt lat="42.371458" lon="-3.554042">
        <ele>960.2</ele>
        <time>2020-08-20T06:51:37Z</time>
        <sat>8</sat>
      </trkpt>
      <trkpt lat="42.371373" lon="-3.554092">
        <ele>959.5</ele>
        <time>2020-08-20T06:51:44Z</time>
        <sat>8</sat>
      </trkpt>
      <trkpt lat="42.371300" lon="-3.554148">
        <ele>958.9</ele>
        <time>2020-08-20T06:51:50Z</time>
        <sat>8</sat>
      </trkpt>
      <trkpt lat="42.371217" lon="-3.554206">
        <ele>958.3</ele>
        <time>2020-08-20T06:51:57Z</time>
        <sat>8</sat>
      </trkpt>
      <trkpt lat="42.371148" lon="-3.554264">
        <ele>957.8</ele>
        <time>2020-08-20T06:52:03Z</time>
        <sat>8</sat>
      </trkpt>
      <trkpt lat="42.371064" lon="-3.554324">
        <ele>957.3</ele>
        <time>2020-08-20T06:52:10Z</time>
        <sat>8</sat>
      </trkpt>
      <trkpt lat="42.370985" lon="-3.554390">
        <ele>956.8</ele>
        <time>2020-08-20T06:52:17Z</time>
        <sat>8</sat>
      </trkpt>
      <trkpt lat="42.370902" lon="-3.554442">
        <ele>956.4</ele>
        <time>2020-08-20T06:52:24Z</time>
        <sat>8</sat>
      </trkpt>
      <trkpt lat="42.370823" lon="-3.554490">
        <ele>956.0</ele>
        <time>2020-08-20T06:52:31Z</time>
        <sat>8</sat>
      </trkpt>
      <trkpt lat="42.370738" lon="-3.554539">
        <ele>955.6</ele>
        <time>2020-08-20T06:52:38Z</time>
        <sat>8</sat>
      </trkpt>
      <trkpt lat="42.370654" lon="-3.554584">
        <ele>955.1</ele>
        <time>2020-08-20T06:52:46Z</time>
        <sat>8</sat>
      </trkpt>
      <trkpt lat="42.370563" lon="-3.554618">
        <ele>954.5</ele>
        <time>2020-08-20T06:52:53Z</time>
        <sat>8</sat>
      </trkpt>
      <trkpt lat="42.370473" lon="-3.554637">
        <ele>953.9</ele>
        <time>2020-08-20T06:53:00Z</time>
        <sat>8</sat>
      </trkpt>
      <trkpt lat="42.370380" lon="-3.554645">
        <ele>953.2</ele>
        <time>2020-08-20T06:53:07Z</time>
        <sat>8</sat>
      </trkpt>
      <trkpt lat="42.370293" lon="-3.554628">
        <ele>952.4</ele>
        <time>2020-08-20T06:53:14Z</time>
        <sat>8</sat>
      </trkpt>
      <trkpt lat="42.370212" lon="-3.554611">
        <ele>951.7</ele>
        <time>2020-08-20T06:53:20Z</time>
        <sat>8</sat>
      </trkpt>
      <trkpt lat="42.370131" lon="-3.554565">
        <ele>950.9</ele>
        <time>2020-08-20T06:53:27Z</time>
        <sat>8</sat>
      </trkpt>
      <trkpt lat="42.370050" lon="-3.554531">
        <ele>950.4</ele>
        <time>2020-08-20T06:53:33Z</time>
        <sat>8</sat>
      </trkpt>
      <trkpt lat="42.369968" lon="-3.554479">
        <ele>949.8</ele>
        <time>2020-08-20T06:53:40Z</time>
        <sat>8</sat>
      </trkpt>
      <trkpt lat="42.369885" lon="-3.554426">
        <ele>949.1</ele>
        <time>2020-08-20T06:53:47Z</time>
        <sat>8</sat>
      </trkpt>
      <trkpt lat="42.369802" lon="-3.554373">
        <ele>948.6</ele>
        <time>2020-08-20T06:53:54Z</time>
        <sat>8</sat>
      </trkpt>
      <trkpt lat="42.369726" lon="-3.554331">
        <ele>948.0</ele>
        <time>2020-08-20T06:54:00Z</time>
        <sat>8</sat>
      </trkpt>
      <trkpt lat="42.369643" lon="-3.554281">
        <ele>947.3</ele>
        <time>2020-08-20T06:54:07Z</time>
        <sat>8</sat>
      </trkpt>
      <trkpt lat="42.369562" lon="-3.554229">
        <ele>946.7</ele>
        <time>2020-08-20T06:54:14Z</time>
        <sat>8</sat>
      </trkpt>
      <trkpt lat="42.369483" lon="-3.554184">
        <ele>944.7</ele>
        <time>2020-08-20T06:54:48Z</time>
        <sat>8</sat>
      </trkpt>
      <trkpt lat="42.369395" lon="-3.554208">
        <ele>944.1</ele>
        <time>2020-08-20T06:56:55Z</time>
        <sat>9</sat>
      </trkpt>
      <trkpt lat="42.369323" lon="-3.554264">
        <ele>943.6</ele>
        <time>2020-08-20T06:57:02Z</time>
        <sat>9</sat>
      </trkpt>
      <trkpt lat="42.369258" lon="-3.554356">
        <ele>942.7</ele>
        <time>2020-08-20T06:57:09Z</time>
        <sat>8</sat>
      </trkpt>
      <trkpt lat="42.369206" lon="-3.554460">
        <ele>941.6</ele>
        <time>2020-08-20T06:57:15Z</time>
        <sat>8</sat>
      </trkpt>
      <trkpt lat="42.369168" lon="-3.554561">
        <ele>940.2</ele>
        <time>2020-08-20T06:57:21Z</time>
        <sat>8</sat>
      </trkpt>
      <trkpt lat="42.369122" lon="-3.554666">
        <ele>938.9</ele>
        <time>2020-08-20T06:57:28Z</time>
        <sat>7</sat>
      </trkpt>
      <trkpt lat="42.369079" lon="-3.554762">
        <ele>938.0</ele>
        <time>2020-08-20T06:57:34Z</time>
        <sat>7</sat>
      </trkpt>
      <trkpt lat="42.369037" lon="-3.554873">
        <ele>937.2</ele>
        <time>2020-08-20T06:57:41Z</time>
        <sat>9</sat>
      </trkpt>
      <trkpt lat="42.368985" lon="-3.554974">
        <ele>936.7</ele>
        <time>2020-08-20T06:57:48Z</time>
        <sat>9</sat>
      </trkpt>
      <trkpt lat="42.368940" lon="-3.555078">
        <ele>936.3</ele>
        <time>2020-08-20T06:57:55Z</time>
        <sat>9</sat>
      </trkpt>
      <trkpt lat="42.368885" lon="-3.555175">
        <ele>935.9</ele>
        <time>2020-08-20T06:58:02Z</time>
        <sat>9</sat>
      </trkpt>
      <trkpt lat="42.368849" lon="-3.555284">
        <ele>935.5</ele>
        <time>2020-08-20T06:58:09Z</time>
        <sat>9</sat>
      </trkpt>
      <trkpt lat="42.368815" lon="-3.555399">
        <ele>935.3</ele>
        <time>2020-08-20T06:58:16Z</time>
        <sat>8</sat>
      </trkpt>
      <trkpt lat="42.368766" lon="-3.555504">
        <ele>935.2</ele>
        <time>2020-08-20T06:58:23Z</time>
        <sat>9</sat>
      </trkpt>
      <trkpt lat="42.368717" lon="-3.555602">
        <ele>935.0</ele>
        <time>2020-08-20T06:58:30Z</time>
        <sat>9</sat>
      </trkpt>
      <trkpt lat="42.368664" lon="-3.555700">
        <ele>934.9</ele>
        <time>2020-08-20T06:58:37Z</time>
        <sat>9</sat>
      </trkpt>
      <trkpt lat="42.368619" lon="-3.555792">
        <ele>934.9</ele>
        <time>2020-08-20T06:58:43Z</time>
        <sat>9</sat>
      </trkpt>
      <trkpt lat="42.368569" lon="-3.555888">
        <ele>934.8</ele>
        <time>2020-08-20T06:58:50Z</time>
        <sat>9</sat>
      </trkpt>
      <trkpt lat="42.368516" lon="-3.555994">
        <ele>934.5</ele>
        <time>2020-08-20T06:58:57Z</time>
        <sat>9</sat>
      </trkpt>
      <trkpt lat="42.368463" lon="-3.556091">
        <ele>934.2</ele>
        <time>2020-08-20T06:59:04Z</time>
        <sat>9</sat>
      </trkpt>
      <trkpt lat="42.368413" lon="-3.556178">
        <ele>933.9</ele>
        <time>2020-08-20T06:59:10Z</time>
        <sat>9</sat>
      </trkpt>
      <trkpt lat="42.368359" lon="-3.556279">
        <ele>933.5</ele>
        <time>2020-08-20T06:59:17Z</time>
        <sat>9</sat>
      </trkpt>
      <trkpt lat="42.368296" lon="-3.556365">
        <ele>933.4</ele>
        <time>2020-08-20T06:59:24Z</time>
        <sat>9</sat>
      </trkpt>
      <trkpt lat="42.368236" lon="-3.556461">
        <ele>933.3</ele>
        <time>2020-08-20T06:59:31Z</time>
        <sat>9</sat>
      </trkpt>
      <trkpt lat="42.368177" lon="-3.556538">
        <ele>933.1</ele>
        <time>2020-08-20T06:59:37Z</time>
        <sat>9</sat>
      </trkpt>
      <trkpt lat="42.368112" lon="-3.556627">
        <ele>932.8</ele>
        <time>2020-08-20T06:59:44Z</time>
        <sat>9</sat>
      </trkpt>
      <trkpt lat="42.368044" lon="-3.556706">
        <ele>932.7</ele>
        <time>2020-08-20T06:59:51Z</time>
        <sat>9</sat>
      </trkpt>
      <trkpt lat="42.367976" lon="-3.556798">
        <ele>932.6</ele>
        <time>2020-08-20T06:59:58Z</time>
        <sat>9</sat>
      </trkpt>
      <trkpt lat="42.367912" lon="-3.556881">
        <ele>932.5</ele>
        <time>2020-08-20T07:00:06Z</time>
        <sat>8</sat>
      </trkpt>
      <trkpt lat="42.367843" lon="-3.556967">
        <ele>932.3</ele>
        <time>2020-08-20T07:00:13Z</time>
        <sat>9</sat>
      </trkpt>
      <trkpt lat="42.367779" lon="-3.557037">
        <ele>932.1</ele>
        <time>2020-08-20T07:00:19Z</time>
        <sat>9</sat>
      </trkpt>
      <trkpt lat="42.367720" lon="-3.557119">
        <ele>932.0</ele>
        <time>2020-08-20T07:00:25Z</time>
        <sat>9</sat>
      </trkpt>
      <trkpt lat="42.367645" lon="-3.557189">
        <ele>931.8</ele>
        <time>2020-08-20T07:00:32Z</time>
        <sat>9</sat>
      </trkpt>
      <trkpt lat="42.367574" lon="-3.557249">
        <ele>931.6</ele>
        <time>2020-08-20T07:00:38Z</time>
        <sat>9</sat>
      </trkpt>
      <trkpt lat="42.367489" lon="-3.557299">
        <ele>931.5</ele>
        <time>2020-08-20T07:00:45Z</time>
        <sat>9</sat>
      </trkpt>
      <trkpt lat="42.367409" lon="-3.557332">
        <ele>931.3</ele>
        <time>2020-08-20T07:00:51Z</time>
        <sat>9</sat>
      </trkpt>
      <trkpt lat="42.367331" lon="-3.557365">
        <ele>931.3</ele>
        <time>2020-08-20T07:00:57Z</time>
        <sat>9</sat>
      </trkpt>
      <trkpt lat="42.367241" lon="-3.557387">
        <ele>931.1</ele>
        <time>2020-08-20T07:01:04Z</time>
        <sat>9</sat>
      </trkpt>
      <trkpt lat="42.367150" lon="-3.557417">
        <ele>930.9</ele>
        <time>2020-08-20T07:01:11Z</time>
        <sat>9</sat>
      </trkpt>
      <trkpt lat="42.367057" lon="-3.557428">
        <ele>930.7</ele>
        <time>2020-08-20T07:01:18Z</time>
        <sat>9</sat>
      </trkpt>
      <trkpt lat="42.366974" lon="-3.557442">
        <ele>930.5</ele>
        <time>2020-08-20T07:01:24Z</time>
        <sat>8</sat>
      </trkpt>
      <trkpt lat="42.366890" lon="-3.557463">
        <ele>930.3</ele>
        <time>2020-08-20T07:01:30Z</time>
        <sat>9</sat>
      </trkpt>
      <trkpt lat="42.366801" lon="-3.557466">
        <ele>930.1</ele>
        <time>2020-08-20T07:01:37Z</time>
        <sat>9</sat>
      </trkpt>
      <trkpt lat="42.366711" lon="-3.557469">
        <ele>929.6</ele>
        <time>2020-08-20T07:01:52Z</time>
        <sat>9</sat>
      </trkpt>
      <trkpt lat="42.366630" lon="-3.557470">
        <ele>929.5</ele>
        <time>2020-08-20T07:01:58Z</time>
        <sat>9</sat>
      </trkpt>
      <trkpt lat="42.366541" lon="-3.557465">
        <ele>929.4</ele>
        <time>2020-08-20T07:02:05Z</time>
        <sat>8</sat>
      </trkpt>
      <trkpt lat="42.366449" lon="-3.557459">
        <ele>929.6</ele>
        <time>2020-08-20T07:02:12Z</time>
        <sat>9</sat>
      </trkpt>
      <trkpt lat="42.366355" lon="-3.557458">
        <ele>929.6</ele>
        <time>2020-08-20T07:02:19Z</time>
        <sat>9</sat>
      </trkpt>
      <trkpt lat="42.366265" lon="-3.557448">
        <ele>929.4</ele>
        <time>2020-08-20T07:02:26Z</time>
        <sat>9</sat>
      </trkpt>
      <trkpt lat="42.366173" lon="-3.557435">
        <ele>929.2</ele>
        <time>2020-08-20T07:02:33Z</time>
        <sat>9</sat>
      </trkpt>
      <trkpt lat="42.366083" lon="-3.557432">
        <ele>929.0</ele>
        <time>2020-08-20T07:02:40Z</time>
        <sat>9</sat>
      </trkpt>
      <trkpt lat="42.365990" lon="-3.557421">
        <ele>928.9</ele>
        <time>2020-08-20T07:02:47Z</time>
        <sat>9</sat>
      </trkpt>
      <trkpt lat="42.365906" lon="-3.557418">
        <ele>928.7</ele>
        <time>2020-08-20T07:02:53Z</time>
        <sat>9</sat>
      </trkpt>
      <trkpt lat="42.365821" lon="-3.557416">
        <ele>928.5</ele>
        <time>2020-08-20T07:02:59Z</time>
        <sat>9</sat>
      </trkpt>
      <trkpt lat="42.365733" lon="-3.557400">
        <ele>928.4</ele>
        <time>2020-08-20T07:03:05Z</time>
        <sat>9</sat>
      </trkpt>
      <trkpt lat="42.365645" lon="-3.557392">
        <ele>928.0</ele>
        <time>2020-08-20T07:03:14Z</time>
        <sat>9</sat>
      </trkpt>
      <trkpt lat="42.365564" lon="-3.557380">
        <ele>928.0</ele>
        <time>2020-08-20T07:03:21Z</time>
        <sat>9</sat>
      </trkpt>
      <trkpt lat="42.365483" lon="-3.557362">
        <ele>927.9</ele>
        <time>2020-08-20T07:03:27Z</time>
        <sat>9</sat>
      </trkpt>
      <trkpt lat="42.365394" lon="-3.557338">
        <ele>927.7</ele>
        <time>2020-08-20T07:03:34Z</time>
        <sat>9</sat>
      </trkpt>
      <trkpt lat="42.365311" lon="-3.557312">
        <ele>927.5</ele>
        <time>2020-08-20T07:03:40Z</time>
        <sat>10</sat>
      </trkpt>
      <trkpt lat="42.365232" lon="-3.557277">
        <ele>927.0</ele>
        <time>2020-08-20T07:03:46Z</time>
        <sat>10</sat>
      </trkpt>
      <trkpt lat="42.365156" lon="-3.557231">
        <ele>926.8</ele>
        <time>2020-08-20T07:03:52Z</time>
        <sat>10</sat>
      </trkpt>
      <trkpt lat="42.365083" lon="-3.557181">
        <ele>925.6</ele>
        <time>2020-08-20T07:03:58Z</time>
        <sat>9</sat>
      </trkpt>
      <trkpt lat="42.365002" lon="-3.557138">
        <ele>924.8</ele>
        <time>2020-08-20T07:04:05Z</time>
        <sat>10</sat>
      </trkpt>
      <trkpt lat="42.364921" lon="-3.557079">
        <ele>925.2</ele>
        <time>2020-08-20T07:04:12Z</time>
        <sat>10</sat>
      </trkpt>
      <trkpt lat="42.364836" lon="-3.557028">
        <ele>925.1</ele>
        <time>2020-08-20T07:04:19Z</time>
        <sat>10</sat>
      </trkpt>
      <trkpt lat="42.364754" lon="-3.556973">
        <ele>924.9</ele>
        <time>2020-08-20T07:04:26Z</time>
        <sat>10</sat>
      </trkpt>
      <trkpt lat="42.364680" lon="-3.556923">
        <ele>924.8</ele>
        <time>2020-08-20T07:04:32Z</time>
        <sat>10</sat>
      </trkpt>
      <trkpt lat="42.364600" lon="-3.556878">
        <ele>925.0</ele>
        <time>2020-08-20T07:04:38Z</time>
        <sat>10</sat>
      </trkpt>
      <trkpt lat="42.364527" lon="-3.556824">
        <ele>925.0</ele>
        <time>2020-08-20T07:04:44Z</time>
        <sat>10</sat>
      </trkpt>
      <trkpt lat="42.364452" lon="-3.556776">
        <ele>924.9</ele>
        <time>2020-08-20T07:04:50Z</time>
        <sat>10</sat>
      </trkpt>
      <trkpt lat="42.364370" lon="-3.556712">
        <ele>924.9</ele>
        <time>2020-08-20T07:04:57Z</time>
        <sat>10</sat>
      </trkpt>
      <trkpt lat="42.364303" lon="-3.556648">
        <ele>924.8</ele>
        <time>2020-08-20T07:05:03Z</time>
        <sat>10</sat>
      </trkpt>
      <trkpt lat="42.364230" lon="-3.556579">
        <ele>924.6</ele>
        <time>2020-08-20T07:05:10Z</time>
        <sat>10</sat>
      </trkpt>
      <trkpt lat="42.364157" lon="-3.556504">
        <ele>924.5</ele>
        <time>2020-08-20T07:05:17Z</time>
        <sat>10</sat>
      </trkpt>
      <trkpt lat="42.364088" lon="-3.556427">
        <ele>924.4</ele>
        <time>2020-08-20T07:05:24Z</time>
        <sat>10</sat>
      </trkpt>
      <trkpt lat="42.364014" lon="-3.556350">
        <ele>924.3</ele>
        <time>2020-08-20T07:05:31Z</time>
        <sat>10</sat>
      </trkpt>
      <trkpt lat="42.363944" lon="-3.556272">
        <ele>924.0</ele>
        <time>2020-08-20T07:05:38Z</time>
        <sat>10</sat>
      </trkpt>
      <trkpt lat="42.363875" lon="-3.556194">
        <ele>923.5</ele>
        <time>2020-08-20T07:05:45Z</time>
        <sat>10</sat>
      </trkpt>
      <trkpt lat="42.363811" lon="-3.556118">
        <ele>923.2</ele>
        <time>2020-08-20T07:05:52Z</time>
        <sat>10</sat>
      </trkpt>
      <trkpt lat="42.363739" lon="-3.556047">
        <ele>923.2</ele>
        <time>2020-08-20T07:05:59Z</time>
        <sat>10</sat>
      </trkpt>
      <trkpt lat="42.363671" lon="-3.555974">
        <ele>923.1</ele>
        <time>2020-08-20T07:06:06Z</time>
        <sat>9</sat>
      </trkpt>
      <trkpt lat="42.363596" lon="-3.555899">
        <ele>923.1</ele>
        <time>2020-08-20T07:06:13Z</time>
        <sat>10</sat>
      </trkpt>
      <trkpt lat="42.363527" lon="-3.555819">
        <ele>922.8</ele>
        <time>2020-08-20T07:06:20Z</time>
        <sat>10</sat>
      </trkpt>
      <trkpt lat="42.363452" lon="-3.555747">
        <ele>922.5</ele>
        <time>2020-08-20T07:06:27Z</time>
        <sat>10</sat>
      </trkpt>
      <trkpt lat="42.363387" lon="-3.555680">
        <ele>922.2</ele>
        <time>2020-08-20T07:06:33Z</time>
        <sat>10</sat>
      </trkpt>
      <trkpt lat="42.363316" lon="-3.555610">
        <ele>922.2</ele>
        <time>2020-08-20T07:06:41Z</time>
        <sat>9</sat>
      </trkpt>
      <trkpt lat="42.363247" lon="-3.555553">
        <ele>922.5</ele>
        <time>2020-08-20T07:06:47Z</time>
        <sat>9</sat>
      </trkpt>
      <trkpt lat="42.363168" lon="-3.555498">
        <ele>922.2</ele>
        <time>2020-08-20T07:06:54Z</time>
        <sat>10</sat>
      </trkpt>
      <trkpt lat="42.363083" lon="-3.555457">
        <ele>922.1</ele>
        <time>2020-08-20T07:07:01Z</time>
        <sat>10</sat>
      </trkpt>
      <trkpt lat="42.362994" lon="-3.555432">
        <ele>922.1</ele>
        <time>2020-08-20T07:07:08Z</time>
        <sat>10</sat>
      </trkpt>
      <trkpt lat="42.362911" lon="-3.555420">
        <ele>921.9</ele>
        <time>2020-08-20T07:07:14Z</time>
        <sat>10</sat>
      </trkpt>
      <trkpt lat="42.362817" lon="-3.555430">
        <ele>921.9</ele>
        <time>2020-08-20T07:07:21Z</time>
        <sat>9</sat>
      </trkpt>
      <trkpt lat="42.362725" lon="-3.555421">
        <ele>921.8</ele>
        <time>2020-08-20T07:07:28Z</time>
        <sat>10</sat>
      </trkpt>
      <trkpt lat="42.362640" lon="-3.555438">
        <ele>921.6</ele>
        <time>2020-08-20T07:07:34Z</time>
        <sat>10</sat>
      </trkpt>
      <trkpt lat="42.362559" lon="-3.555458">
        <ele>921.5</ele>
        <time>2020-08-20T07:07:40Z</time>
        <sat>10</sat>
      </trkpt>
      <trkpt lat="42.362475" lon="-3.555476">
        <ele>921.4</ele>
        <time>2020-08-20T07:07:46Z</time>
        <sat>10</sat>
      </trkpt>
      <trkpt lat="42.362393" lon="-3.555501">
        <ele>921.3</ele>
        <time>2020-08-20T07:07:52Z</time>
        <sat>10</sat>
      </trkpt>
      <trkpt lat="42.362305" lon="-3.555521">
        <ele>921.1</ele>
        <time>2020-08-20T07:07:59Z</time>
        <sat>9</sat>
      </trkpt>
      <trkpt lat="42.362225" lon="-3.555541">
        <ele>921.0</ele>
        <time>2020-08-20T07:08:05Z</time>
        <sat>9</sat>
      </trkpt>
      <trkpt lat="42.362142" lon="-3.555554">
        <ele>921.0</ele>
        <time>2020-08-20T07:08:11Z</time>
        <sat>9</sat>
      </trkpt>
      <trkpt lat="42.362061" lon="-3.555582">
        <ele>921.0</ele>
        <time>2020-08-20T07:08:17Z</time>
        <sat>10</sat>
      </trkpt>
      <trkpt lat="42.361980" lon="-3.555601">
        <ele>920.9</ele>
        <time>2020-08-20T07:08:23Z</time>
        <sat>10</sat>
      </trkpt>
      <trkpt lat="42.361899" lon="-3.555628">
        <ele>920.9</ele>
        <time>2020-08-20T07:08:29Z</time>
        <sat>10</sat>
      </trkpt>
      <trkpt lat="42.361810" lon="-3.555661">
        <ele>920.8</ele>
        <time>2020-08-20T07:08:36Z</time>
        <sat>9</sat>
      </trkpt>
      <trkpt lat="42.361721" lon="-3.555701">
        <ele>920.8</ele>
        <time>2020-08-20T07:08:43Z</time>
        <sat>9</sat>
      </trkpt>
      <trkpt lat="42.361636" lon="-3.555748">
        <ele>920.9</ele>
        <time>2020-08-20T07:08:50Z</time>
        <sat>10</sat>
      </trkpt>
      <trkpt lat="42.361553" lon="-3.555803">
        <ele>921.1</ele>
        <time>2020-08-20T07:08:57Z</time>
        <sat>9</sat>
      </trkpt>
      <trkpt lat="42.361469" lon="-3.555851">
        <ele>921.2</ele>
        <time>2020-08-20T07:09:04Z</time>
        <sat>9</sat>
      </trkpt>
      <trkpt lat="42.361391" lon="-3.555917">
        <ele>921.3</ele>
        <time>2020-08-20T07:09:11Z</time>
        <sat>9</sat>
      </trkpt>
      <trkpt lat="42.361319" lon="-3.555992">
        <ele>921.4</ele>
        <time>2020-08-20T07:09:18Z</time>
        <sat>8</sat>
      </trkpt>
      <trkpt lat="42.361250" lon="-3.556065">
        <ele>921.4</ele>
        <time>2020-08-20T07:09:25Z</time>
        <sat>9</sat>
      </trkpt>
      <trkpt lat="42.361185" lon="-3.556144">
        <ele>921.4</ele>
        <time>2020-08-20T07:09:33Z</time>
        <sat>9</sat>
      </trkpt>
      <trkpt lat="42.361121" lon="-3.556218">
        <ele>921.1</ele>
        <time>2020-08-20T07:09:40Z</time>
        <sat>8</sat>
      </trkpt>
      <trkpt lat="42.361046" lon="-3.556277">
        <ele>920.8</ele>
        <time>2020-08-20T07:09:47Z</time>
        <sat>8</sat>
      </trkpt>
      <trkpt lat="42.360982" lon="-3.556349">
        <ele>920.5</ele>
        <time>2020-08-20T07:09:54Z</time>
        <sat>8</sat>
      </trkpt>
      <trkpt lat="42.360910" lon="-3.556425">
        <ele>920.3</ele>
        <time>2020-08-20T07:10:01Z</time>
        <sat>9</sat>
      </trkpt>
      <trkpt lat="42.360843" lon="-3.556497">
        <ele>920.0</ele>
        <time>2020-08-20T07:10:07Z</time>
        <sat>9</sat>
      </trkpt>
      <trkpt lat="42.360778" lon="-3.556572">
        <ele>919.8</ele>
        <time>2020-08-20T07:10:13Z</time>
        <sat>9</sat>
      </trkpt>
      <trkpt lat="42.360706" lon="-3.556651">
        <ele>919.6</ele>
        <time>2020-08-20T07:10:20Z</time>
        <sat>9</sat>
      </trkpt>
      <trkpt lat="42.360633" lon="-3.556736">
        <ele>919.3</ele>
        <time>2020-08-20T07:10:27Z</time>
        <sat>9</sat>
      </trkpt>
      <trkpt lat="42.360560" lon="-3.556809">
        <ele>919.2</ele>
        <time>2020-08-20T07:10:34Z</time>
        <sat>9</sat>
      </trkpt>
      <trkpt lat="42.360498" lon="-3.556886">
        <ele>919.0</ele>
        <time>2020-08-20T07:10:40Z</time>
        <sat>9</sat>
      </trkpt>
      <trkpt lat="42.360425" lon="-3.556965">
        <ele>918.7</ele>
        <time>2020-08-20T07:10:47Z</time>
        <sat>8</sat>
      </trkpt>
      <trkpt lat="42.360363" lon="-3.557046">
        <ele>918.4</ele>
        <time>2020-08-20T07:10:54Z</time>
        <sat>9</sat>
      </trkpt>
      <trkpt lat="42.360301" lon="-3.557133">
        <ele>918.1</ele>
        <time>2020-08-20T07:11:01Z</time>
        <sat>9</sat>
      </trkpt>
      <trkpt lat="42.360251" lon="-3.557222">
        <ele>918.0</ele>
        <time>2020-08-20T07:11:08Z</time>
        <sat>9</sat>
      </trkpt>
      <trkpt lat="42.360209" lon="-3.557333">
        <ele>917.9</ele>
        <time>2020-08-20T07:11:15Z</time>
        <sat>8</sat>
      </trkpt>
      <trkpt lat="42.360176" lon="-3.557447">
        <ele>917.7</ele>
        <time>2020-08-20T07:11:23Z</time>
        <sat>7</sat>
      </trkpt>
      <trkpt lat="42.360137" lon="-3.557559">
        <ele>917.6</ele>
        <time>2020-08-20T07:11:30Z</time>
        <sat>8</sat>
      </trkpt>
      <trkpt lat="42.360096" lon="-3.557665">
        <ele>917.4</ele>
        <time>2020-08-20T07:11:37Z</time>
        <sat>7</sat>
      </trkpt>
      <trkpt lat="42.360059" lon="-3.557762">
        <ele>917.3</ele>
        <time>2020-08-20T07:11:43Z</time>
        <sat>8</sat>
      </trkpt>
      <trkpt lat="42.360027" lon="-3.557864">
        <ele>917.2</ele>
        <time>2020-08-20T07:11:49Z</time>
        <sat>8</sat>
      </trkpt>
      <trkpt lat="42.360000" lon="-3.557978">
        <ele>917.2</ele>
        <time>2020-08-20T07:11:56Z</time>
        <sat>9</sat>
      </trkpt>
      <trkpt lat="42.359976" lon="-3.558094">
        <ele>917.3</ele>
        <time>2020-08-20T07:12:03Z</time>
        <sat>9</sat>
      </trkpt>
      <trkpt lat="42.359941" lon="-3.558206">
        <ele>917.3</ele>
        <time>2020-08-20T07:12:10Z</time>
        <sat>8</sat>
      </trkpt>
      <trkpt lat="42.359904" lon="-3.558313">
        <ele>917.3</ele>
        <time>2020-08-20T07:12:17Z</time>
        <sat>8</sat>
      </trkpt>
      <trkpt lat="42.359875" lon="-3.558421">
        <ele>917.4</ele>
        <time>2020-08-20T07:12:24Z</time>
        <sat>7</sat>
      </trkpt>
      <trkpt lat="42.359838" lon="-3.558524">
        <ele>917.5</ele>
        <time>2020-08-20T07:12:31Z</time>
        <sat>9</sat>
      </trkpt>
      <trkpt lat="42.359802" lon="-3.558630">
        <ele>917.5</ele>
        <time>2020-08-20T07:12:38Z</time>
        <sat>9</sat>
      </trkpt>
      <trkpt lat="42.359771" lon="-3.558740">
        <ele>917.2</ele>
        <time>2020-08-20T07:12:45Z</time>
        <sat>9</sat>
      </trkpt>
      <trkpt lat="42.359727" lon="-3.558854">
        <ele>917.1</ele>
        <time>2020-08-20T07:12:52Z</time>
        <sat>9</sat>
      </trkpt>
      <trkpt lat="42.359686" lon="-3.558966">
        <ele>917.0</ele>
        <time>2020-08-20T07:12:59Z</time>
        <sat>8</sat>
      </trkpt>
      <trkpt lat="42.359650" lon="-3.559067">
        <ele>916.9</ele>
        <time>2020-08-20T07:13:05Z</time>
        <sat>8</sat>
      </trkpt>
      <trkpt lat="42.359617" lon="-3.559187">
        <ele>916.9</ele>
        <time>2020-08-20T07:13:12Z</time>
        <sat>9</sat>
      </trkpt>
      <trkpt lat="42.359580" lon="-3.559291">
        <ele>916.7</ele>
        <time>2020-08-20T07:13:18Z</time>
        <sat>8</sat>
      </trkpt>
      <trkpt lat="42.359552" lon="-3.559400">
        <ele>916.6</ele>
        <time>2020-08-20T07:13:24Z</time>
        <sat>7</sat>
      </trkpt>
      <trkpt lat="42.359506" lon="-3.559512">
        <ele>916.3</ele>
        <time>2020-08-20T07:13:31Z</time>
        <sat>7</sat>
      </trkpt>
      <trkpt lat="42.359460" lon="-3.559610">
        <ele>916.1</ele>
        <time>2020-08-20T07:13:37Z</time>
        <sat>7</sat>
      </trkpt>
      <trkpt lat="42.359404" lon="-3.559697">
        <ele>915.9</ele>
        <time>2020-08-20T07:13:44Z</time>
        <sat>8</sat>
      </trkpt>
      <trkpt lat="42.359347" lon="-3.559783">
        <ele>915.9</ele>
        <time>2020-08-20T07:13:50Z</time>
        <sat>9</sat>
      </trkpt>
      <trkpt lat="42.359294" lon="-3.559874">
        <ele>915.7</ele>
        <time>2020-08-20T07:13:58Z</time>
        <sat>8</sat>
      </trkpt>
      <trkpt lat="42.359245" lon="-3.559975">
        <ele>915.8</ele>
        <time>2020-08-20T07:14:16Z</time>
        <sat>9</sat>
      </trkpt>
      <trkpt lat="42.359163" lon="-3.559944">
        <ele>915.5</ele>
        <time>2020-08-20T07:14:53Z</time>
        <sat>9</sat>
      </trkpt>
      <trkpt lat="42.359100" lon="-3.559856">
        <ele>915.4</ele>
        <time>2020-08-20T07:15:01Z</time>
        <sat>9</sat>
      </trkpt>
      <trkpt lat="42.359170" lon="-3.559933">
        <ele>915.0</ele>
        <time>2020-08-20T07:15:12Z</time>
        <sat>8</sat>
      </trkpt>
      <trkpt lat="42.359170" lon="-3.560045">
        <ele>915.2</ele>
        <time>2020-08-20T07:15:22Z</time>
        <sat>8</sat>
      </trkpt>
      <trkpt lat="42.359122" lon="-3.560149">
        <ele>915.3</ele>
        <time>2020-08-20T07:15:29Z</time>
        <sat>7</sat>
      </trkpt>
      <trkpt lat="42.359079" lon="-3.560242">
        <ele>915.4</ele>
        <time>2020-08-20T07:15:35Z</time>
        <sat>7</sat>
      </trkpt>
      <trkpt lat="42.359031" lon="-3.560333">
        <ele>914.8</ele>
        <time>2020-08-20T07:17:15Z</time>
        <sat>9</sat>
      </trkpt>
      <trkpt lat="42.358964" lon="-3.560394">
        <ele>914.8</ele>
        <time>2020-08-20T07:23:48Z</time>
        <sat>9</sat>
      </trkpt>
      <trkpt lat="42.359009" lon="-3.560486">
        <ele>915.3</ele>
        <time>2020-08-20T07:26:18Z</time>
        <sat>8</sat>
      </trkpt>
      <trkpt lat="42.358977" lon="-3.560595">
        <ele>916.0</ele>
        <time>2020-08-20T07:26:26Z</time>
        <sat>9</sat>
      </trkpt>
      <trkpt lat="42.358939" lon="-3.560695">
        <ele>915.9</ele>
        <time>2020-08-20T07:26:33Z</time>
        <sat>8</sat>
      </trkpt>
      <trkpt lat="42.358892" lon="-3.560795">
        <ele>915.8</ele>
        <time>2020-08-20T07:26:40Z</time>
        <sat>8</sat>
      </trkpt>
      <trkpt lat="42.358857" lon="-3.560896">
        <ele>915.8</ele>
        <time>2020-08-20T07:26:47Z</time>
        <sat>10</sat>
      </trkpt>
      <trkpt lat="42.358821" lon="-3.561007">
        <ele>915.6</ele>
        <time>2020-08-20T07:26:54Z</time>
        <sat>8</sat>
      </trkpt>
      <trkpt lat="42.358786" lon="-3.561114">
        <ele>915.4</ele>
        <time>2020-08-20T07:27:01Z</time>
        <sat>8</sat>
      </trkpt>
      <trkpt lat="42.358743" lon="-3.561216">
        <ele>915.2</ele>
        <time>2020-08-20T07:27:10Z</time>
        <sat>9</sat>
      </trkpt>
      <trkpt lat="42.358706" lon="-3.561317">
        <ele>914.8</ele>
        <time>2020-08-20T07:27:25Z</time>
        <sat>8</sat>
      </trkpt>
      <trkpt lat="42.358665" lon="-3.561423">
        <ele>914.6</ele>
        <time>2020-08-20T07:27:31Z</time>
        <sat>9</sat>
      </trkpt>
      <trkpt lat="42.358641" lon="-3.561534">
        <ele>914.5</ele>
        <time>2020-08-20T07:27:37Z</time>
        <sat>10</sat>
      </trkpt>
      <trkpt lat="42.358612" lon="-3.561638">
        <ele>914.3</ele>
        <time>2020-08-20T07:27:43Z</time>
        <sat>8</sat>
      </trkpt>
      <trkpt lat="42.358574" lon="-3.561752">
        <ele>914.2</ele>
        <time>2020-08-20T07:27:50Z</time>
        <sat>9</sat>
      </trkpt>
      <trkpt lat="42.358544" lon="-3.561859">
        <ele>913.9</ele>
        <time>2020-08-20T07:27:56Z</time>
        <sat>9</sat>
      </trkpt>
      <trkpt lat="42.358523" lon="-3.561969">
        <ele>913.8</ele>
        <time>2020-08-20T07:28:02Z</time>
        <sat>8</sat>
      </trkpt>
      <trkpt lat="42.358497" lon="-3.562077">
        <ele>913.8</ele>
        <time>2020-08-20T07:28:08Z</time>
        <sat>9</sat>
      </trkpt>
      <trkpt lat="42.358480" lon="-3.562185">
        <ele>913.7</ele>
        <time>2020-08-20T07:28:14Z</time>
        <sat>9</sat>
      </trkpt>
      <trkpt lat="42.358482" lon="-3.562303">
        <ele>913.6</ele>
        <time>2020-08-20T07:28:20Z</time>
        <sat>10</sat>
      </trkpt>
      <trkpt lat="42.358477" lon="-3.562426">
        <ele>913.4</ele>
        <time>2020-08-20T07:28:27Z</time>
        <sat>10</sat>
      </trkpt>
      <trkpt lat="42.358475" lon="-3.562536">
        <ele>913.5</ele>
        <time>2020-08-20T07:28:33Z</time>
        <sat>10</sat>
      </trkpt>
      <trkpt lat="42.358479" lon="-3.562646">
        <ele>912.5</ele>
        <time>2020-08-20T07:28:39Z</time>
        <sat>10</sat>
      </trkpt>
      <trkpt lat="42.358501" lon="-3.562759">
        <ele>912.9</ele>
        <time>2020-08-20T07:28:46Z</time>
        <sat>8</sat>
      </trkpt>
      <trkpt lat="42.358505" lon="-3.562871">
        <ele>911.6</ele>
        <time>2020-08-20T07:28:52Z</time>
        <sat>9</sat>
      </trkpt>
      <trkpt lat="42.358518" lon="-3.562988">
        <ele>910.1</ele>
        <time>2020-08-20T07:28:59Z</time>
        <sat>8</sat>
      </trkpt>
      <trkpt lat="42.358538" lon="-3.563099">
        <ele>910.5</ele>
        <time>2020-08-20T07:29:07Z</time>
        <sat>9</sat>
      </trkpt>
      <trkpt lat="42.358562" lon="-3.563213">
        <ele>909.8</ele>
        <time>2020-08-20T07:29:15Z</time>
        <sat>9</sat>
      </trkpt>
      <trkpt lat="42.358579" lon="-3.563332">
        <ele>910.8</ele>
        <time>2020-08-20T07:29:22Z</time>
        <sat>9</sat>
      </trkpt>
      <trkpt lat="42.358602" lon="-3.563446">
        <ele>910.6</ele>
        <time>2020-08-20T07:29:29Z</time>
        <sat>8</sat>
      </trkpt>
      <trkpt lat="42.358618" lon="-3.563570">
        <ele>910.2</ele>
        <time>2020-08-20T07:29:36Z</time>
        <sat>9</sat>
      </trkpt>
      <trkpt lat="42.358643" lon="-3.563677">
        <ele>909.5</ele>
        <time>2020-08-20T07:29:43Z</time>
        <sat>9</sat>
      </trkpt>
      <trkpt lat="42.358676" lon="-3.563787">
        <ele>910.3</ele>
        <time>2020-08-20T07:29:49Z</time>
        <sat>9</sat>
      </trkpt>
      <trkpt lat="42.358709" lon="-3.563892">
        <ele>911.0</ele>
        <time>2020-08-20T07:29:55Z</time>
        <sat>9</sat>
      </trkpt>
      <trkpt lat="42.358729" lon="-3.564017">
        <ele>911.5</ele>
        <time>2020-08-20T07:30:02Z</time>
        <sat>9</sat>
      </trkpt>
      <trkpt lat="42.358749" lon="-3.564139">
        <ele>911.9</ele>
        <time>2020-08-20T07:30:09Z</time>
        <sat>9</sat>
      </trkpt>
      <trkpt lat="42.358764" lon="-3.564261">
        <ele>912.3</ele>
        <time>2020-08-20T07:30:16Z</time>
        <sat>10</sat>
      </trkpt>
      <trkpt lat="42.358772" lon="-3.564385">
        <ele>912.0</ele>
        <time>2020-08-20T07:30:23Z</time>
        <sat>8</sat>
      </trkpt>
      <trkpt lat="42.358768" lon="-3.564495">
        <ele>912.2</ele>
        <time>2020-08-20T07:30:29Z</time>
        <sat>10</sat>
      </trkpt>
      <trkpt lat="42.358763" lon="-3.564610">
        <ele>911.7</ele>
        <time>2020-08-20T07:30:36Z</time>
        <sat>10</sat>
      </trkpt>
      <trkpt lat="42.358755" lon="-3.564724">
        <ele>911.4</ele>
        <time>2020-08-20T07:30:42Z</time>
        <sat>10</sat>
      </trkpt>
      <trkpt lat="42.358756" lon="-3.564843">
        <ele>910.3</ele>
        <time>2020-08-20T07:30:48Z</time>
        <sat>10</sat>
      </trkpt>
      <trkpt lat="42.358757" lon="-3.564964">
        <ele>907.6</ele>
        <time>2020-08-20T07:30:55Z</time>
        <sat>8</sat>
      </trkpt>
      <trkpt lat="42.358748" lon="-3.565091">
        <ele>909.9</ele>
        <time>2020-08-20T07:31:02Z</time>
        <sat>8</sat>
      </trkpt>
      <trkpt lat="42.358744" lon="-3.565215">
        <ele>910.6</ele>
        <time>2020-08-20T07:31:09Z</time>
        <sat>10</sat>
      </trkpt>
      <trkpt lat="42.358720" lon="-3.565334">
        <ele>910.8</ele>
        <time>2020-08-20T07:31:16Z</time>
        <sat>9</sat>
      </trkpt>
      <trkpt lat="42.358699" lon="-3.565441">
        <ele>911.0</ele>
        <time>2020-08-20T07:31:22Z</time>
        <sat>9</sat>
      </trkpt>
      <trkpt lat="42.358667" lon="-3.565559">
        <ele>911.3</ele>
        <time>2020-08-20T07:31:29Z</time>
        <sat>8</sat>
      </trkpt>
      <trkpt lat="42.358634" lon="-3.565672">
        <ele>911.3</ele>
        <time>2020-08-20T07:31:36Z</time>
        <sat>8</sat>
      </trkpt>
      <trkpt lat="42.358597" lon="-3.565774">
        <ele>911.2</ele>
        <time>2020-08-20T07:31:43Z</time>
        <sat>9</sat>
      </trkpt>
      <trkpt lat="42.358549" lon="-3.565878">
        <ele>911.2</ele>
        <time>2020-08-20T07:31:50Z</time>
        <sat>9</sat>
      </trkpt>
      <trkpt lat="42.358507" lon="-3.565981">
        <ele>911.3</ele>
        <time>2020-08-20T07:31:57Z</time>
        <sat>10</sat>
      </trkpt>
      <trkpt lat="42.358474" lon="-3.566089">
        <ele>911.0</ele>
        <time>2020-08-20T07:32:06Z</time>
        <sat>10</sat>
      </trkpt>
      <trkpt lat="42.358478" lon="-3.566202">
        <ele>911.4</ele>
        <time>2020-08-20T07:32:13Z</time>
        <sat>10</sat>
      </trkpt>
      <trkpt lat="42.358485" lon="-3.566329">
        <ele>911.4</ele>
        <time>2020-08-20T07:32:21Z</time>
        <sat>9</sat>
      </trkpt>
      <trkpt lat="42.358489" lon="-3.566453">
        <ele>911.4</ele>
        <time>2020-08-20T07:32:28Z</time>
        <sat>10</sat>
      </trkpt>
      <trkpt lat="42.358481" lon="-3.566563">
        <ele>911.3</ele>
        <time>2020-08-20T07:32:34Z</time>
        <sat>10</sat>
      </trkpt>
      <trkpt lat="42.358482" lon="-3.566677">
        <ele>911.2</ele>
        <time>2020-08-20T07:32:40Z</time>
        <sat>10</sat>
      </trkpt>
      <trkpt lat="42.358484" lon="-3.566805">
        <ele>911.1</ele>
        <time>2020-08-20T07:32:47Z</time>
        <sat>10</sat>
      </trkpt>
      <trkpt lat="42.358483" lon="-3.566933">
        <ele>910.9</ele>
        <time>2020-08-20T07:32:54Z</time>
        <sat>10</sat>
      </trkpt>
      <trkpt lat="42.358481" lon="-3.567051">
        <ele>910.8</ele>
        <time>2020-08-20T07:33:01Z</time>
        <sat>9</sat>
      </trkpt>
      <trkpt lat="42.358478" lon="-3.567161">
        <ele>910.8</ele>
        <time>2020-08-20T07:33:07Z</time>
        <sat>9</sat>
      </trkpt>
      <trkpt lat="42.358478" lon="-3.567288">
        <ele>910.7</ele>
        <time>2020-08-20T07:33:14Z</time>
        <sat>9</sat>
      </trkpt>
      <trkpt lat="42.358479" lon="-3.567410">
        <ele>910.6</ele>
        <time>2020-08-20T07:33:21Z</time>
        <sat>10</sat>
      </trkpt>
      <trkpt lat="42.358475" lon="-3.567528">
        <ele>910.7</ele>
        <time>2020-08-20T07:33:28Z</time>
        <sat>9</sat>
      </trkpt>
      <trkpt lat="42.358484" lon="-3.567652">
        <ele>910.8</ele>
        <time>2020-08-20T07:33:35Z</time>
        <sat>9</sat>
      </trkpt>
      <trkpt lat="42.358493" lon="-3.567776">
        <ele>910.8</ele>
        <time>2020-08-20T07:33:42Z</time>
        <sat>10</sat>
      </trkpt>
      <trkpt lat="42.358518" lon="-3.567887">
        <ele>910.9</ele>
        <time>2020-08-20T07:33:48Z</time>
        <sat>9</sat>
      </trkpt>
      <trkpt lat="42.358534" lon="-3.567995">
        <ele>910.9</ele>
        <time>2020-08-20T07:33:54Z</time>
        <sat>10</sat>
      </trkpt>
      <trkpt lat="42.358554" lon="-3.568111">
        <ele>910.7</ele>
        <time>2020-08-20T07:34:01Z</time>
        <sat>9</sat>
      </trkpt>
      <trkpt lat="42.358577" lon="-3.568223">
        <ele>910.7</ele>
        <time>2020-08-20T07:34:08Z</time>
        <sat>9</sat>
      </trkpt>
      <trkpt lat="42.358600" lon="-3.568342">
        <ele>910.7</ele>
        <time>2020-08-20T07:34:15Z</time>
        <sat>9</sat>
      </trkpt>
      <trkpt lat="42.358628" lon="-3.568461">
        <ele>910.5</ele>
        <time>2020-08-20T07:34:22Z</time>
        <sat>9</sat>
      </trkpt>
      <trkpt lat="42.358644" lon="-3.568582">
        <ele>910.5</ele>
        <time>2020-08-20T07:34:29Z</time>
        <sat>9</sat>
      </trkpt>
      <trkpt lat="42.358672" lon="-3.568702">
        <ele>910.5</ele>
        <time>2020-08-20T07:34:36Z</time>
        <sat>9</sat>
      </trkpt>
      <trkpt lat="42.358693" lon="-3.568811">
        <ele>910.5</ele>
        <time>2020-08-20T07:34:42Z</time>
        <sat>9</sat>
      </trkpt>
      <trkpt lat="42.358721" lon="-3.568918">
        <ele>910.5</ele>
        <time>2020-08-20T07:34:48Z</time>
        <sat>9</sat>
      </trkpt>
      <trkpt lat="42.358754" lon="-3.569035">
        <ele>910.5</ele>
        <time>2020-08-20T07:34:55Z</time>
        <sat>9</sat>
      </trkpt>
      <trkpt lat="42.358792" lon="-3.569134">
        <ele>910.4</ele>
        <time>2020-08-20T07:35:01Z</time>
        <sat>9</sat>
      </trkpt>
      <trkpt lat="42.358838" lon="-3.569238">
        <ele>910.4</ele>
        <time>2020-08-20T07:35:08Z</time>
        <sat>9</sat>
      </trkpt>
      <trkpt lat="42.358882" lon="-3.569350">
        <ele>910.4</ele>
        <time>2020-08-20T07:35:15Z</time>
        <sat>9</sat>
      </trkpt>
      <trkpt lat="42.358926" lon="-3.569461">
        <ele>910.2</ele>
        <time>2020-08-20T07:35:22Z</time>
        <sat>9</sat>
      </trkpt>
      <trkpt lat="42.358961" lon="-3.569580">
        <ele>910.0</ele>
        <time>2020-08-20T07:35:29Z</time>
        <sat>9</sat>
      </trkpt>
      <trkpt lat="42.358994" lon="-3.569695">
        <ele>909.9</ele>
        <time>2020-08-20T07:35:36Z</time>
        <sat>9</sat>
      </trkpt>
      <trkpt lat="42.359023" lon="-3.569812">
        <ele>909.7</ele>
        <time>2020-08-20T07:35:43Z</time>
        <sat>9</sat>
      </trkpt>
      <trkpt lat="42.359039" lon="-3.569930">
        <ele>909.6</ele>
        <time>2020-08-20T07:35:50Z</time>
        <sat>9</sat>
      </trkpt>
      <trkpt lat="42.359052" lon="-3.570041">
        <ele>909.4</ele>
        <time>2020-08-20T07:35:57Z</time>
        <sat>9</sat>
      </trkpt>
      <trkpt lat="42.359070" lon="-3.570151">
        <ele>909.2</ele>
        <time>2020-08-20T07:36:04Z</time>
        <sat>9</sat>
      </trkpt>
      <trkpt lat="42.359080" lon="-3.570273">
        <ele>909.2</ele>
        <time>2020-08-20T07:36:11Z</time>
        <sat>9</sat>
      </trkpt>
      <trkpt lat="42.359094" lon="-3.570382">
        <ele>909.1</ele>
        <time>2020-08-20T07:36:17Z</time>
        <sat>9</sat>
      </trkpt>
      <trkpt lat="42.359102" lon="-3.570505">
        <ele>909.0</ele>
        <time>2020-08-20T07:36:24Z</time>
        <sat>9</sat>
      </trkpt>
      <trkpt lat="42.359116" lon="-3.570614">
        <ele>908.9</ele>
        <time>2020-08-20T07:36:30Z</time>
        <sat>9</sat>
      </trkpt>
      <trkpt lat="42.359120" lon="-3.570725">
        <ele>908.8</ele>
        <time>2020-08-20T07:36:36Z</time>
        <sat>9</sat>
      </trkpt>
      <trkpt lat="42.359129" lon="-3.570849">
        <ele>908.6</ele>
        <time>2020-08-20T07:36:43Z</time>
        <sat>9</sat>
      </trkpt>
      <trkpt lat="42.359140" lon="-3.570960">
        <ele>908.6</ele>
        <time>2020-08-20T07:36:49Z</time>
        <sat>9</sat>
      </trkpt>
      <trkpt lat="42.359148" lon="-3.571070">
        <ele>908.6</ele>
        <time>2020-08-20T07:36:55Z</time>
        <sat>9</sat>
      </trkpt>
      <trkpt lat="42.359166" lon="-3.571195">
        <ele>908.4</ele>
        <time>2020-08-20T07:37:02Z</time>
        <sat>9</sat>
      </trkpt>
      <trkpt lat="42.359177" lon="-3.571306">
        <ele>908.3</ele>
        <time>2020-08-20T07:37:08Z</time>
        <sat>9</sat>
      </trkpt>
      <trkpt lat="42.359192" lon="-3.571415">
        <ele>908.2</ele>
        <time>2020-08-20T07:37:14Z</time>
        <sat>9</sat>
      </trkpt>
      <trkpt lat="42.359207" lon="-3.571539">
        <ele>908.1</ele>
        <time>2020-08-20T07:37:21Z</time>
        <sat>9</sat>
      </trkpt>
      <trkpt lat="42.359233" lon="-3.571660">
        <ele>908.0</ele>
        <time>2020-08-20T07:37:28Z</time>
        <sat>9</sat>
      </trkpt>
      <trkpt lat="42.359257" lon="-3.571779">
        <ele>907.9</ele>
        <time>2020-08-20T07:37:35Z</time>
        <sat>9</sat>
      </trkpt>
      <trkpt lat="42.359293" lon="-3.571896">
        <ele>907.8</ele>
        <time>2020-08-20T07:37:42Z</time>
        <sat>9</sat>
      </trkpt>
      <trkpt lat="42.359322" lon="-3.572018">
        <ele>907.7</ele>
        <time>2020-08-20T07:37:49Z</time>
        <sat>9</sat>
      </trkpt>
      <trkpt lat="42.359355" lon="-3.572136">
        <ele>907.7</ele>
        <time>2020-08-20T07:37:56Z</time>
        <sat>9</sat>
      </trkpt>
      <trkpt lat="42.359381" lon="-3.572244">
        <ele>907.4</ele>
        <time>2020-08-20T07:38:04Z</time>
        <sat>9</sat>
      </trkpt>
      <trkpt lat="42.359423" lon="-3.572360">
        <ele>907.2</ele>
        <time>2020-08-20T07:38:26Z</time>
        <sat>9</sat>
      </trkpt>
      <trkpt lat="42.359446" lon="-3.572485">
        <ele>907.3</ele>
        <time>2020-08-20T07:38:33Z</time>
        <sat>9</sat>
      </trkpt>
      <trkpt lat="42.359465" lon="-3.572610">
        <ele>907.3</ele>
        <time>2020-08-20T07:38:39Z</time>
        <sat>9</sat>
      </trkpt>
      <trkpt lat="42.359486" lon="-3.572732">
        <ele>907.3</ele>
        <time>2020-08-20T07:38:45Z</time>
        <sat>9</sat>
      </trkpt>
      <trkpt lat="42.359511" lon="-3.572852">
        <ele>907.4</ele>
        <time>2020-08-20T07:38:51Z</time>
        <sat>9</sat>
      </trkpt>
      <trkpt lat="42.359525" lon="-3.572963">
        <ele>907.3</ele>
        <time>2020-08-20T07:38:57Z</time>
        <sat>9</sat>
      </trkpt>
      <trkpt lat="42.359527" lon="-3.573074">
        <ele>907.1</ele>
        <time>2020-08-20T07:39:03Z</time>
        <sat>9</sat>
      </trkpt>
      <trkpt lat="42.359537" lon="-3.573184">
        <ele>907.0</ele>
        <time>2020-08-20T07:39:09Z</time>
        <sat>9</sat>
      </trkpt>
      <trkpt lat="42.359544" lon="-3.573308">
        <ele>906.9</ele>
        <time>2020-08-20T07:39:16Z</time>
        <sat>9</sat>
      </trkpt>
      <trkpt lat="42.359541" lon="-3.573423">
        <ele>906.7</ele>
        <time>2020-08-20T07:39:22Z</time>
        <sat>9</sat>
      </trkpt>
      <trkpt lat="42.359546" lon="-3.573546">
        <ele>906.6</ele>
        <time>2020-08-20T07:39:29Z</time>
        <sat>9</sat>
      </trkpt>
      <trkpt lat="42.359562" lon="-3.573664">
        <ele>906.5</ele>
        <time>2020-08-20T07:39:36Z</time>
        <sat>8</sat>
      </trkpt>
      <trkpt lat="42.359568" lon="-3.573791">
        <ele>906.5</ele>
        <time>2020-08-20T07:39:43Z</time>
        <sat>9</sat>
      </trkpt>
      <trkpt lat="42.359579" lon="-3.573914">
        <ele>906.3</ele>
        <time>2020-08-20T07:39:50Z</time>
        <sat>9</sat>
      </trkpt>
      <trkpt lat="42.359591" lon="-3.574033">
        <ele>906.2</ele>
        <time>2020-08-20T07:39:57Z</time>
        <sat>9</sat>
      </trkpt>
      <trkpt lat="42.359607" lon="-3.574140">
        <ele>906.1</ele>
        <time>2020-08-20T07:40:04Z</time>
        <sat>9</sat>
      </trkpt>
      <trkpt lat="42.359621" lon="-3.574262">
        <ele>906.0</ele>
        <time>2020-08-20T07:40:11Z</time>
        <sat>9</sat>
      </trkpt>
      <trkpt lat="42.359632" lon="-3.574381">
        <ele>906.0</ele>
        <time>2020-08-20T07:40:18Z</time>
        <sat>9</sat>
      </trkpt>
      <trkpt lat="42.359644" lon="-3.574500">
        <ele>906.1</ele>
        <time>2020-08-20T07:40:25Z</time>
        <sat>9</sat>
      </trkpt>
      <trkpt lat="42.359647" lon="-3.574628">
        <ele>906.1</ele>
        <time>2020-08-20T07:40:32Z</time>
        <sat>9</sat>
      </trkpt>
      <trkpt lat="42.359659" lon="-3.574753">
        <ele>906.0</ele>
        <time>2020-08-20T07:40:39Z</time>
        <sat>8</sat>
      </trkpt>
      <trkpt lat="42.359662" lon="-3.574881">
        <ele>905.7</ele>
        <time>2020-08-20T07:40:46Z</time>
        <sat>9</sat>
      </trkpt>
      <trkpt lat="42.359672" lon="-3.575006">
        <ele>905.5</ele>
        <time>2020-08-20T07:40:53Z</time>
        <sat>9</sat>
      </trkpt>
      <trkpt lat="42.359677" lon="-3.575119">
        <ele>905.4</ele>
        <time>2020-08-20T07:40:59Z</time>
        <sat>9</sat>
      </trkpt>
      <trkpt lat="42.359683" lon="-3.575245">
        <ele>905.4</ele>
        <time>2020-08-20T07:41:06Z</time>
        <sat>9</sat>
      </trkpt>
      <trkpt lat="42.359680" lon="-3.575373">
        <ele>905.3</ele>
        <time>2020-08-20T07:41:13Z</time>
        <sat>9</sat>
      </trkpt>
      <trkpt lat="42.359683" lon="-3.575488">
        <ele>905.3</ele>
        <time>2020-08-20T07:41:20Z</time>
        <sat>9</sat>
      </trkpt>
      <trkpt lat="42.359681" lon="-3.575613">
        <ele>905.3</ele>
        <time>2020-08-20T07:41:28Z</time>
        <sat>9</sat>
      </trkpt>
      <trkpt lat="42.359670" lon="-3.575726">
        <ele>905.3</ele>
        <time>2020-08-20T07:41:34Z</time>
        <sat>9</sat>
      </trkpt>
      <trkpt lat="42.359660" lon="-3.575848">
        <ele>905.2</ele>
        <time>2020-08-20T07:41:41Z</time>
        <sat>9</sat>
      </trkpt>
      <trkpt lat="42.359640" lon="-3.575955">
        <ele>905.1</ele>
        <time>2020-08-20T07:41:47Z</time>
        <sat>8</sat>
      </trkpt>
      <trkpt lat="42.359626" lon="-3.576064">
        <ele>905.0</ele>
        <time>2020-08-20T07:41:53Z</time>
        <sat>9</sat>
      </trkpt>
      <trkpt lat="42.359597" lon="-3.576181">
        <ele>905.1</ele>
        <time>2020-08-20T07:42:00Z</time>
        <sat>8</sat>
      </trkpt>
      <trkpt lat="42.359576" lon="-3.576299">
        <ele>905.2</ele>
        <time>2020-08-20T07:42:07Z</time>
        <sat>8</sat>
      </trkpt>
      <trkpt lat="42.359547" lon="-3.576419">
        <ele>905.2</ele>
        <time>2020-08-20T07:42:14Z</time>
        <sat>9</sat>
      </trkpt>
      <trkpt lat="42.359533" lon="-3.576529">
        <ele>905.1</ele>
        <time>2020-08-20T07:42:20Z</time>
        <sat>9</sat>
      </trkpt>
      <trkpt lat="42.359510" lon="-3.576636">
        <ele>905.1</ele>
        <time>2020-08-20T07:42:26Z</time>
        <sat>9</sat>
      </trkpt>
      <trkpt lat="42.359500" lon="-3.576748">
        <ele>905.0</ele>
        <time>2020-08-20T07:42:32Z</time>
        <sat>9</sat>
      </trkpt>
      <trkpt lat="42.359494" lon="-3.576868">
        <ele>904.9</ele>
        <time>2020-08-20T07:42:39Z</time>
        <sat>9</sat>
      </trkpt>
      <trkpt lat="42.359497" lon="-3.576995">
        <ele>904.9</ele>
        <time>2020-08-20T07:42:46Z</time>
        <sat>9</sat>
      </trkpt>
      <trkpt lat="42.359498" lon="-3.577118">
        <ele>904.8</ele>
        <time>2020-08-20T07:42:53Z</time>
        <sat>8</sat>
      </trkpt>
      <trkpt lat="42.359505" lon="-3.577233">
        <ele>904.6</ele>
        <time>2020-08-20T07:42:59Z</time>
        <sat>9</sat>
      </trkpt>
      <trkpt lat="42.359503" lon="-3.577346">
        <ele>904.5</ele>
        <time>2020-08-20T07:43:05Z</time>
        <sat>9</sat>
      </trkpt>
      <trkpt lat="42.359516" lon="-3.577456">
        <ele>904.3</ele>
        <time>2020-08-20T07:43:11Z</time>
        <sat>9</sat>
      </trkpt>
      <trkpt lat="42.359526" lon="-3.577569">
        <ele>904.1</ele>
        <time>2020-08-20T07:43:17Z</time>
        <sat>9</sat>
      </trkpt>
      <trkpt lat="42.359537" lon="-3.577679">
        <ele>904.1</ele>
        <time>2020-08-20T07:43:23Z</time>
        <sat>9</sat>
      </trkpt>
      <trkpt lat="42.359536" lon="-3.577798">
        <ele>904.1</ele>
        <time>2020-08-20T07:43:30Z</time>
        <sat>9</sat>
      </trkpt>
      <trkpt lat="42.359551" lon="-3.577921">
        <ele>904.0</ele>
        <time>2020-08-20T07:43:37Z</time>
        <sat>9</sat>
      </trkpt>
      <trkpt lat="42.359562" lon="-3.578035">
        <ele>904.0</ele>
        <time>2020-08-20T07:43:43Z</time>
        <sat>9</sat>
      </trkpt>
      <trkpt lat="42.359557" lon="-3.578156">
        <ele>903.9</ele>
        <time>2020-08-20T07:43:50Z</time>
        <sat>9</sat>
      </trkpt>
      <trkpt lat="42.359556" lon="-3.578365">
        <ele>902.6</ele>
        <time>2020-08-20T07:45:10Z</time>
        <sat>9</sat>
      </trkpt>
      <trkpt lat="42.359568" lon="-3.578483">
        <ele>902.6</ele>
        <time>2020-08-20T07:45:16Z</time>
        <sat>9</sat>
      </trkpt>
      <trkpt lat="42.359586" lon="-3.578604">
        <ele>902.7</ele>
        <time>2020-08-20T07:45:23Z</time>
        <sat>9</sat>
      </trkpt>
      <trkpt lat="42.359590" lon="-3.578719">
        <ele>902.7</ele>
        <time>2020-08-20T07:45:30Z</time>
        <sat>8</sat>
      </trkpt>
      <trkpt lat="42.359602" lon="-3.578828">
        <ele>902.6</ele>
        <time>2020-08-20T07:45:36Z</time>
        <sat>9</sat>
      </trkpt>
      <trkpt lat="42.359608" lon="-3.578945">
        <ele>902.8</ele>
        <time>2020-08-20T07:45:43Z</time>
        <sat>9</sat>
      </trkpt>
      <trkpt lat="42.359611" lon="-3.579064">
        <ele>902.8</ele>
        <time>2020-08-20T07:45:50Z</time>
        <sat>9</sat>
      </trkpt>
      <trkpt lat="42.359613" lon="-3.579175">
        <ele>902.9</ele>
        <time>2020-08-20T07:45:56Z</time>
        <sat>9</sat>
      </trkpt>
      <trkpt lat="42.359604" lon="-3.579286">
        <ele>903.0</ele>
        <time>2020-08-20T07:46:02Z</time>
        <sat>9</sat>
      </trkpt>
      <trkpt lat="42.359606" lon="-3.579401">
        <ele>903.0</ele>
        <time>2020-08-20T07:46:08Z</time>
        <sat>9</sat>
      </trkpt>
      <trkpt lat="42.359601" lon="-3.579529">
        <ele>903.0</ele>
        <time>2020-08-20T07:46:15Z</time>
        <sat>9</sat>
      </trkpt>
      <trkpt lat="42.359594" lon="-3.579643">
        <ele>903.0</ele>
        <time>2020-08-20T07:46:21Z</time>
        <sat>9</sat>
      </trkpt>
      <trkpt lat="42.359589" lon="-3.579768">
        <ele>903.3</ele>
        <time>2020-08-20T07:46:28Z</time>
        <sat>9</sat>
      </trkpt>
      <trkpt lat="42.359596" lon="-3.579877">
        <ele>903.4</ele>
        <time>2020-08-20T07:46:34Z</time>
        <sat>9</sat>
      </trkpt>
      <trkpt lat="42.359602" lon="-3.580002">
        <ele>903.4</ele>
        <time>2020-08-20T07:46:41Z</time>
        <sat>8</sat>
      </trkpt>
      <trkpt lat="42.359615" lon="-3.580124">
        <ele>903.3</ele>
        <time>2020-08-20T07:46:48Z</time>
        <sat>9</sat>
      </trkpt>
      <trkpt lat="42.359620" lon="-3.580248">
        <ele>903.2</ele>
        <time>2020-08-20T07:46:55Z</time>
        <sat>8</sat>
      </trkpt>
      <trkpt lat="42.359640" lon="-3.580373">
        <ele>903.1</ele>
        <time>2020-08-20T07:47:02Z</time>
        <sat>9</sat>
      </trkpt>
      <trkpt lat="42.359650" lon="-3.580497">
        <ele>903.0</ele>
        <time>2020-08-20T07:47:10Z</time>
        <sat>9</sat>
      </trkpt>
      <trkpt lat="42.359667" lon="-3.580610">
        <ele>902.9</ele>
        <time>2020-08-20T07:47:16Z</time>
        <sat>9</sat>
      </trkpt>
      <trkpt lat="42.359680" lon="-3.580724">
        <ele>902.9</ele>
        <time>2020-08-20T07:47:22Z</time>
        <sat>9</sat>
      </trkpt>
      <trkpt lat="42.359692" lon="-3.580834">
        <ele>902.9</ele>
        <time>2020-08-20T07:47:28Z</time>
        <sat>9</sat>
      </trkpt>
      <trkpt lat="42.359701" lon="-3.580947">
        <ele>902.9</ele>
        <time>2020-08-20T07:47:34Z</time>
        <sat>9</sat>
      </trkpt>
      <trkpt lat="42.359717" lon="-3.581060">
        <ele>902.8</ele>
        <time>2020-08-20T07:47:40Z</time>
        <sat>9</sat>
      </trkpt>
      <trkpt lat="42.359735" lon="-3.581181">
        <ele>902.9</ele>
        <time>2020-08-20T07:47:47Z</time>
        <sat>9</sat>
      </trkpt>
      <trkpt lat="42.359756" lon="-3.581290">
        <ele>902.9</ele>
        <time>2020-08-20T07:47:53Z</time>
        <sat>9</sat>
      </trkpt>
      <trkpt lat="42.359764" lon="-3.581401">
        <ele>902.8</ele>
        <time>2020-08-20T07:47:59Z</time>
        <sat>9</sat>
      </trkpt>
      <trkpt lat="42.359785" lon="-3.581508">
        <ele>902.7</ele>
        <time>2020-08-20T07:48:05Z</time>
        <sat>9</sat>
      </trkpt>
      <trkpt lat="42.359798" lon="-3.581634">
        <ele>902.8</ele>
        <time>2020-08-20T07:48:12Z</time>
        <sat>9</sat>
      </trkpt>
      <trkpt lat="42.359823" lon="-3.581756">
        <ele>902.8</ele>
        <time>2020-08-20T07:48:19Z</time>
        <sat>9</sat>
      </trkpt>
      <trkpt lat="42.359851" lon="-3.581859">
        <ele>902.7</ele>
        <time>2020-08-20T07:48:25Z</time>
        <sat>8</sat>
      </trkpt>
      <trkpt lat="42.359889" lon="-3.581958">
        <ele>902.7</ele>
        <time>2020-08-20T07:48:31Z</time>
        <sat>9</sat>
      </trkpt>
      <trkpt lat="42.359926" lon="-3.582072">
        <ele>902.7</ele>
        <time>2020-08-20T07:48:38Z</time>
        <sat>10</sat>
      </trkpt>
      <trkpt lat="42.359975" lon="-3.582179">
        <ele>902.7</ele>
        <time>2020-08-20T07:48:45Z</time>
        <sat>9</sat>
      </trkpt>
      <trkpt lat="42.360017" lon="-3.582273">
        <ele>902.7</ele>
        <time>2020-08-20T07:48:51Z</time>
        <sat>9</sat>
      </trkpt>
      <trkpt lat="42.360072" lon="-3.582375">
        <ele>902.7</ele>
        <time>2020-08-20T07:48:58Z</time>
        <sat>9</sat>
      </trkpt>
      <trkpt lat="42.360132" lon="-3.582473">
        <ele>902.7</ele>
        <time>2020-08-20T07:49:05Z</time>
        <sat>9</sat>
      </trkpt>
      <trkpt lat="42.360177" lon="-3.582584">
        <ele>902.8</ele>
        <time>2020-08-20T07:49:12Z</time>
        <sat>8</sat>
      </trkpt>
      <trkpt lat="42.360232" lon="-3.582674">
        <ele>902.9</ele>
        <time>2020-08-20T07:49:18Z</time>
        <sat>9</sat>
      </trkpt>
      <trkpt lat="42.360281" lon="-3.582781">
        <ele>903.2</ele>
        <time>2020-08-20T07:49:25Z</time>
        <sat>9</sat>
      </trkpt>
      <trkpt lat="42.360330" lon="-3.582888">
        <ele>903.3</ele>
        <time>2020-08-20T07:49:32Z</time>
        <sat>9</sat>
      </trkpt>
      <trkpt lat="42.360372" lon="-3.582983">
        <ele>903.6</ele>
        <time>2020-08-20T07:49:38Z</time>
        <sat>9</sat>
      </trkpt>
      <trkpt lat="42.360405" lon="-3.583096">
        <ele>903.8</ele>
        <time>2020-08-20T07:49:45Z</time>
        <sat>10</sat>
      </trkpt>
      <trkpt lat="42.360412" lon="-3.583222">
        <ele>903.7</ele>
        <time>2020-08-20T07:49:52Z</time>
        <sat>9</sat>
      </trkpt>
      <trkpt lat="42.360401" lon="-3.583339">
        <ele>903.6</ele>
        <time>2020-08-20T07:49:59Z</time>
        <sat>9</sat>
      </trkpt>
      <trkpt lat="42.360400" lon="-3.583449">
        <ele>903.6</ele>
        <time>2020-08-20T07:50:05Z</time>
        <sat>9</sat>
      </trkpt>
      <trkpt lat="42.360382" lon="-3.583562">
        <ele>903.5</ele>
        <time>2020-08-20T07:50:12Z</time>
        <sat>8</sat>
      </trkpt>
      <trkpt lat="42.360359" lon="-3.583681">
        <ele>903.3</ele>
        <time>2020-08-20T07:50:19Z</time>
        <sat>9</sat>
      </trkpt>
      <trkpt lat="42.360333" lon="-3.583800">
        <ele>903.0</ele>
        <time>2020-08-20T07:50:26Z</time>
        <sat>9</sat>
      </trkpt>
      <trkpt lat="42.360306" lon="-3.583920">
        <ele>902.8</ele>
        <time>2020-08-20T07:50:33Z</time>
        <sat>9</sat>
      </trkpt>
      <trkpt lat="42.360282" lon="-3.584042">
        <ele>902.4</ele>
        <time>2020-08-20T07:50:40Z</time>
        <sat>9</sat>
      </trkpt>
      <trkpt lat="42.360241" lon="-3.584148">
        <ele>902.1</ele>
        <time>2020-08-20T07:50:47Z</time>
        <sat>9</sat>
      </trkpt>
      <trkpt lat="42.360208" lon="-3.584250">
        <ele>902.0</ele>
        <time>2020-08-20T07:50:53Z</time>
        <sat>9</sat>
      </trkpt>
      <trkpt lat="42.360177" lon="-3.584367">
        <ele>901.6</ele>
        <time>2020-08-20T07:51:00Z</time>
        <sat>9</sat>
      </trkpt>
      <trkpt lat="42.360130" lon="-3.584476">
        <ele>901.3</ele>
        <time>2020-08-20T07:51:07Z</time>
        <sat>9</sat>
      </trkpt>
      <trkpt lat="42.360111" lon="-3.584596">
        <ele>900.7</ele>
        <time>2020-08-20T07:51:15Z</time>
        <sat>9</sat>
      </trkpt>
      <trkpt lat="42.360082" lon="-3.584713">
        <ele>900.3</ele>
        <time>2020-08-20T07:51:22Z</time>
        <sat>9</sat>
      </trkpt>
      <trkpt lat="42.360062" lon="-3.584826">
        <ele>900.0</ele>
        <time>2020-08-20T07:51:28Z</time>
        <sat>9</sat>
      </trkpt>
      <trkpt lat="42.360035" lon="-3.584939">
        <ele>899.9</ele>
        <time>2020-08-20T07:51:35Z</time>
        <sat>9</sat>
      </trkpt>
      <trkpt lat="42.359992" lon="-3.585038">
        <ele>899.8</ele>
        <time>2020-08-20T07:51:42Z</time>
        <sat>9</sat>
      </trkpt>
      <trkpt lat="42.359983" lon="-3.585165">
        <ele>899.6</ele>
        <time>2020-08-20T07:51:50Z</time>
        <sat>8</sat>
      </trkpt>
      <trkpt lat="42.360012" lon="-3.585269">
        <ele>899.6</ele>
        <time>2020-08-20T07:51:56Z</time>
        <sat>9</sat>
      </trkpt>
      <trkpt lat="42.360037" lon="-3.585383">
        <ele>899.5</ele>
        <time>2020-08-20T07:52:02Z</time>
        <sat>9</sat>
      </trkpt>
      <trkpt lat="42.360054" lon="-3.585495">
        <ele>899.5</ele>
        <time>2020-08-20T07:52:08Z</time>
        <sat>8</sat>
      </trkpt>
      <trkpt lat="42.360067" lon="-3.585621">
        <ele>899.5</ele>
        <time>2020-08-20T07:52:15Z</time>
        <sat>8</sat>
      </trkpt>
      <trkpt lat="42.360078" lon="-3.585730">
        <ele>899.5</ele>
        <time>2020-08-20T07:52:21Z</time>
        <sat>8</sat>
      </trkpt>
      <trkpt lat="42.360103" lon="-3.585853">
        <ele>899.4</ele>
        <time>2020-08-20T07:52:28Z</time>
        <sat>9</sat>
      </trkpt>
      <trkpt lat="42.360100" lon="-3.585978">
        <ele>899.3</ele>
        <time>2020-08-20T07:52:36Z</time>
        <sat>9</sat>
      </trkpt>
      <trkpt lat="42.360103" lon="-3.586095">
        <ele>899.4</ele>
        <time>2020-08-20T07:52:42Z</time>
        <sat>9</sat>
      </trkpt>
      <trkpt lat="42.360131" lon="-3.586205">
        <ele>899.4</ele>
        <time>2020-08-20T07:52:48Z</time>
        <sat>9</sat>
      </trkpt>
      <trkpt lat="42.360147" lon="-3.586316">
        <ele>899.4</ele>
        <time>2020-08-20T07:52:54Z</time>
        <sat>9</sat>
      </trkpt>
      <trkpt lat="42.360158" lon="-3.586429">
        <ele>899.2</ele>
        <time>2020-08-20T07:53:00Z</time>
        <sat>9</sat>
      </trkpt>
      <trkpt lat="42.360175" lon="-3.586538">
        <ele>899.1</ele>
        <time>2020-08-20T07:53:06Z</time>
        <sat>9</sat>
      </trkpt>
      <trkpt lat="42.360183" lon="-3.586652">
        <ele>899.0</ele>
        <time>2020-08-20T07:53:12Z</time>
        <sat>9</sat>
      </trkpt>
      <trkpt lat="42.360197" lon="-3.586777">
        <ele>898.9</ele>
        <time>2020-08-20T07:53:19Z</time>
        <sat>9</sat>
      </trkpt>
      <trkpt lat="42.360207" lon="-3.586900">
        <ele>898.6</ele>
        <time>2020-08-20T07:53:26Z</time>
        <sat>9</sat>
      </trkpt>
      <trkpt lat="42.360214" lon="-3.587025">
        <ele>898.3</ele>
        <time>2020-08-20T07:53:33Z</time>
        <sat>9</sat>
      </trkpt>
      <trkpt lat="42.360213" lon="-3.587149">
        <ele>898.2</ele>
        <time>2020-08-20T07:53:40Z</time>
        <sat>9</sat>
      </trkpt>
      <trkpt lat="42.360217" lon="-3.587274">
        <ele>898.0</ele>
        <time>2020-08-20T07:53:47Z</time>
        <sat>9</sat>
      </trkpt>
      <trkpt lat="42.360220" lon="-3.587391">
        <ele>898.0</ele>
        <time>2020-08-20T07:53:56Z</time>
        <sat>9</sat>
      </trkpt>
      <trkpt lat="42.360227" lon="-3.587517">
        <ele>898.1</ele>
        <time>2020-08-20T07:54:03Z</time>
        <sat>9</sat>
      </trkpt>
      <trkpt lat="42.360234" lon="-3.587627">
        <ele>898.1</ele>
        <time>2020-08-20T07:54:09Z</time>
        <sat>9</sat>
      </trkpt>
      <trkpt lat="42.360252" lon="-3.587748">
        <ele>898.0</ele>
        <time>2020-08-20T07:54:16Z</time>
        <sat>8</sat>
      </trkpt>
      <trkpt lat="42.360274" lon="-3.587856">
        <ele>898.0</ele>
        <time>2020-08-20T07:54:22Z</time>
        <sat>8</sat>
      </trkpt>
      <trkpt lat="42.360264" lon="-3.587966">
        <ele>898.0</ele>
        <time>2020-08-20T07:54:28Z</time>
        <sat>8</sat>
      </trkpt>
      <trkpt lat="42.360263" lon="-3.588082">
        <ele>897.9</ele>
        <time>2020-08-20T07:54:35Z</time>
        <sat>9</sat>
      </trkpt>
      <trkpt lat="42.360289" lon="-3.588199">
        <ele>898.0</ele>
        <time>2020-08-20T07:54:42Z</time>
        <sat>7</sat>
      </trkpt>
      <trkpt lat="42.360327" lon="-3.588311">
        <ele>898.1</ele>
        <time>2020-08-20T07:54:49Z</time>
        <sat>9</sat>
      </trkpt>
      <trkpt lat="42.360360" lon="-3.588413">
        <ele>898.1</ele>
        <time>2020-08-20T07:54:55Z</time>
        <sat>9</sat>
      </trkpt>
      <trkpt lat="42.360393" lon="-3.588527">
        <ele>898.1</ele>
        <time>2020-08-20T07:55:02Z</time>
        <sat>8</sat>
      </trkpt>
      <trkpt lat="42.360432" lon="-3.588629">
        <ele>897.9</ele>
        <time>2020-08-20T07:55:08Z</time>
        <sat>8</sat>
      </trkpt>
      <trkpt lat="42.360486" lon="-3.588715">
        <ele>897.7</ele>
        <time>2020-08-20T07:55:14Z</time>
        <sat>9</sat>
      </trkpt>
      <trkpt lat="42.360540" lon="-3.588813">
        <ele>897.4</ele>
        <time>2020-08-20T07:55:21Z</time>
        <sat>9</sat>
      </trkpt>
      <trkpt lat="42.360579" lon="-3.588914">
        <ele>897.3</ele>
        <time>2020-08-20T07:55:28Z</time>
        <sat>9</sat>
      </trkpt>
      <trkpt lat="42.360615" lon="-3.589028">
        <ele>897.1</ele>
        <time>2020-08-20T07:55:35Z</time>
        <sat>10</sat>
      </trkpt>
      <trkpt lat="42.360646" lon="-3.589147">
        <ele>897.0</ele>
        <time>2020-08-20T07:55:42Z</time>
        <sat>9</sat>
      </trkpt>
      <trkpt lat="42.360680" lon="-3.589251">
        <ele>896.9</ele>
        <time>2020-08-20T07:55:48Z</time>
        <sat>9</sat>
      </trkpt>
      <trkpt lat="42.360706" lon="-3.589356">
        <ele>896.8</ele>
        <time>2020-08-20T07:55:54Z</time>
        <sat>9</sat>
      </trkpt>
      <trkpt lat="42.360735" lon="-3.589462">
        <ele>896.7</ele>
        <time>2020-08-20T07:56:00Z</time>
        <sat>9</sat>
      </trkpt>
      <trkpt lat="42.360753" lon="-3.589584">
        <ele>896.6</ele>
        <time>2020-08-20T07:56:07Z</time>
        <sat>9</sat>
      </trkpt>
      <trkpt lat="42.360788" lon="-3.589688">
        <ele>896.6</ele>
        <time>2020-08-20T07:56:13Z</time>
        <sat>9</sat>
      </trkpt>
      <trkpt lat="42.360821" lon="-3.589808">
        <ele>896.7</ele>
        <time>2020-08-20T07:56:20Z</time>
        <sat>9</sat>
      </trkpt>
      <trkpt lat="42.360848" lon="-3.589917">
        <ele>896.6</ele>
        <time>2020-08-20T07:56:26Z</time>
        <sat>9</sat>
      </trkpt>
      <trkpt lat="42.360879" lon="-3.590033">
        <ele>896.6</ele>
        <time>2020-08-20T07:56:33Z</time>
        <sat>9</sat>
      </trkpt>
      <trkpt lat="42.360908" lon="-3.590136">
        <ele>896.4</ele>
        <time>2020-08-20T07:56:39Z</time>
        <sat>9</sat>
      </trkpt>
      <trkpt lat="42.360936" lon="-3.590254">
        <ele>896.3</ele>
        <time>2020-08-20T07:56:46Z</time>
        <sat>9</sat>
      </trkpt>
      <trkpt lat="42.360957" lon="-3.590362">
        <ele>896.3</ele>
        <time>2020-08-20T07:56:52Z</time>
        <sat>9</sat>
      </trkpt>
      <trkpt lat="42.360983" lon="-3.590468">
        <ele>896.3</ele>
        <time>2020-08-20T07:56:58Z</time>
        <sat>9</sat>
      </trkpt>
      <trkpt lat="42.360998" lon="-3.590576">
        <ele>896.3</ele>
        <time>2020-08-20T07:57:04Z</time>
        <sat>9</sat>
      </trkpt>
      <trkpt lat="42.361016" lon="-3.590687">
        <ele>896.3</ele>
        <time>2020-08-20T07:57:10Z</time>
        <sat>9</sat>
      </trkpt>
      <trkpt lat="42.361024" lon="-3.590797">
        <ele>896.4</ele>
        <time>2020-08-20T07:57:16Z</time>
        <sat>9</sat>
      </trkpt>
      <trkpt lat="42.361035" lon="-3.590907">
        <ele>896.4</ele>
        <time>2020-08-20T07:57:22Z</time>
        <sat>9</sat>
      </trkpt>
      <trkpt lat="42.361057" lon="-3.591027">
        <ele>896.3</ele>
        <time>2020-08-20T07:57:29Z</time>
        <sat>9</sat>
      </trkpt>
      <trkpt lat="42.361065" lon="-3.591138">
        <ele>896.2</ele>
        <time>2020-08-20T07:57:35Z</time>
        <sat>9</sat>
      </trkpt>
      <trkpt lat="42.361076" lon="-3.591262">
        <ele>896.2</ele>
        <time>2020-08-20T07:57:42Z</time>
        <sat>9</sat>
      </trkpt>
      <trkpt lat="42.361091" lon="-3.591370">
        <ele>896.4</ele>
        <time>2020-08-20T07:57:48Z</time>
        <sat>9</sat>
      </trkpt>
      <trkpt lat="42.361097" lon="-3.591493">
        <ele>896.6</ele>
        <time>2020-08-20T07:57:55Z</time>
        <sat>9</sat>
      </trkpt>
      <trkpt lat="42.361120" lon="-3.591612">
        <ele>897.0</ele>
        <time>2020-08-20T07:58:02Z</time>
        <sat>9</sat>
      </trkpt>
      <trkpt lat="42.361127" lon="-3.591726">
        <ele>897.6</ele>
        <time>2020-08-20T07:58:09Z</time>
        <sat>9</sat>
      </trkpt>
      <trkpt lat="42.361130" lon="-3.591837">
        <ele>898.0</ele>
        <time>2020-08-20T07:58:15Z</time>
        <sat>9</sat>
      </trkpt>
      <trkpt lat="42.361151" lon="-3.591958">
        <ele>898.5</ele>
        <time>2020-08-20T07:58:22Z</time>
        <sat>9</sat>
      </trkpt>
      <trkpt lat="42.361178" lon="-3.592062">
        <ele>899.1</ele>
        <time>2020-08-20T07:58:29Z</time>
        <sat>9</sat>
      </trkpt>
      <trkpt lat="42.361211" lon="-3.592174">
        <ele>899.8</ele>
        <time>2020-08-20T07:58:36Z</time>
        <sat>9</sat>
      </trkpt>
      <trkpt lat="42.361238" lon="-3.592294">
        <ele>900.5</ele>
        <time>2020-08-20T07:58:43Z</time>
        <sat>9</sat>
      </trkpt>
      <trkpt lat="42.361267" lon="-3.592396">
        <ele>900.9</ele>
        <time>2020-08-20T07:58:49Z</time>
        <sat>9</sat>
      </trkpt>
      <trkpt lat="42.361310" lon="-3.592508">
        <ele>901.6</ele>
        <time>2020-08-20T07:58:56Z</time>
        <sat>9</sat>
      </trkpt>
      <trkpt lat="42.361356" lon="-3.592616">
        <ele>902.2</ele>
        <time>2020-08-20T07:59:03Z</time>
        <sat>9</sat>
      </trkpt>
      <trkpt lat="42.361399" lon="-3.592711">
        <ele>902.8</ele>
        <time>2020-08-20T07:59:10Z</time>
        <sat>9</sat>
      </trkpt>
      <trkpt lat="42.361449" lon="-3.592811">
        <ele>903.5</ele>
        <time>2020-08-20T07:59:18Z</time>
        <sat>9</sat>
      </trkpt>
      <trkpt lat="42.361501" lon="-3.592910">
        <ele>904.1</ele>
        <time>2020-08-20T07:59:25Z</time>
        <sat>9</sat>
      </trkpt>
      <trkpt lat="42.361543" lon="-3.593010">
        <ele>904.6</ele>
        <time>2020-08-20T07:59:32Z</time>
        <sat>9</sat>
      </trkpt>
      <trkpt lat="42.361595" lon="-3.593102">
        <ele>904.9</ele>
        <time>2020-08-20T07:59:40Z</time>
        <sat>9</sat>
      </trkpt>
      <trkpt lat="42.361640" lon="-3.593201">
        <ele>905.1</ele>
        <time>2020-08-20T07:59:49Z</time>
        <sat>9</sat>
      </trkpt>
      <trkpt lat="42.361678" lon="-3.593276">
        <ele>905.5</ele>
        <time>2020-08-20T08:02:08Z</time>
        <sat>9</sat>
      </trkpt>
      <trkpt lat="42.361746" lon="-3.593345">
        <ele>905.5</ele>
        <time>2020-08-20T08:02:25Z</time>
        <sat>9</sat>
      </trkpt>
      <trkpt lat="42.361792" lon="-3.593441">
        <ele>905.1</ele>
        <time>2020-08-20T08:02:33Z</time>
        <sat>9</sat>
      </trkpt>
      <trkpt lat="42.361836" lon="-3.593538">
        <ele>905.3</ele>
        <time>2020-08-20T08:02:40Z</time>
        <sat>9</sat>
      </trkpt>
      <trkpt lat="42.361888" lon="-3.593637">
        <ele>905.3</ele>
        <time>2020-08-20T08:02:47Z</time>
        <sat>9</sat>
      </trkpt>
      <trkpt lat="42.361937" lon="-3.593739">
        <ele>905.2</ele>
        <time>2020-08-20T08:02:55Z</time>
        <sat>9</sat>
      </trkpt>
      <trkpt lat="42.361977" lon="-3.593835">
        <ele>905.1</ele>
        <time>2020-08-20T08:03:02Z</time>
        <sat>9</sat>
      </trkpt>
      <trkpt lat="42.362021" lon="-3.593946">
        <ele>905.0</ele>
        <time>2020-08-20T08:03:10Z</time>
        <sat>9</sat>
      </trkpt>
      <trkpt lat="42.362055" lon="-3.594059">
        <ele>904.9</ele>
        <time>2020-08-20T08:03:17Z</time>
        <sat>9</sat>
      </trkpt>
      <trkpt lat="42.362092" lon="-3.594169">
        <ele>904.7</ele>
        <time>2020-08-20T08:03:24Z</time>
        <sat>9</sat>
      </trkpt>
      <trkpt lat="42.362111" lon="-3.594279">
        <ele>904.5</ele>
        <time>2020-08-20T08:03:30Z</time>
        <sat>9</sat>
      </trkpt>
      <trkpt lat="42.362123" lon="-3.594404">
        <ele>904.2</ele>
        <time>2020-08-20T08:03:37Z</time>
        <sat>9</sat>
      </trkpt>
      <trkpt lat="42.362131" lon="-3.594515">
        <ele>903.9</ele>
        <time>2020-08-20T08:03:43Z</time>
        <sat>9</sat>
      </trkpt>
      <trkpt lat="42.362136" lon="-3.594627">
        <ele>903.7</ele>
        <time>2020-08-20T08:03:49Z</time>
        <sat>9</sat>
      </trkpt>
      <trkpt lat="42.362129" lon="-3.594752">
        <ele>903.5</ele>
        <time>2020-08-20T08:03:56Z</time>
        <sat>9</sat>
      </trkpt>
      <trkpt lat="42.362120" lon="-3.594875">
        <ele>903.3</ele>
        <time>2020-08-20T08:04:03Z</time>
        <sat>9</sat>
      </trkpt>
      <trkpt lat="42.362111" lon="-3.594991">
        <ele>903.2</ele>
        <time>2020-08-20T08:04:10Z</time>
        <sat>9</sat>
      </trkpt>
      <trkpt lat="42.362105" lon="-3.595103">
        <ele>903.2</ele>
        <time>2020-08-20T08:04:17Z</time>
        <sat>9</sat>
      </trkpt>
      <trkpt lat="42.362103" lon="-3.595224">
        <ele>903.0</ele>
        <time>2020-08-20T08:04:24Z</time>
        <sat>9</sat>
      </trkpt>
      <trkpt lat="42.362098" lon="-3.595336">
        <ele>903.0</ele>
        <time>2020-08-20T08:04:30Z</time>
        <sat>9</sat>
      </trkpt>
      <trkpt lat="42.362110" lon="-3.595445">
        <ele>903.0</ele>
        <time>2020-08-20T08:04:36Z</time>
        <sat>9</sat>
      </trkpt>
      <trkpt lat="42.362131" lon="-3.595563">
        <ele>902.8</ele>
        <time>2020-08-20T08:04:43Z</time>
        <sat>9</sat>
      </trkpt>
      <trkpt lat="42.362139" lon="-3.595682">
        <ele>902.7</ele>
        <time>2020-08-20T08:04:51Z</time>
        <sat>9</sat>
      </trkpt>
      <trkpt lat="42.362161" lon="-3.595804">
        <ele>902.7</ele>
        <time>2020-08-20T08:04:58Z</time>
        <sat>9</sat>
      </trkpt>
      <trkpt lat="42.362181" lon="-3.595917">
        <ele>902.6</ele>
        <time>2020-08-20T08:05:05Z</time>
        <sat>9</sat>
      </trkpt>
      <trkpt lat="42.362196" lon="-3.596028">
        <ele>902.5</ele>
        <time>2020-08-20T08:05:11Z</time>
        <sat>9</sat>
      </trkpt>
      <trkpt lat="42.362214" lon="-3.596146">
        <ele>902.3</ele>
        <time>2020-08-20T08:05:18Z</time>
        <sat>9</sat>
      </trkpt>
      <trkpt lat="42.362245" lon="-3.596264">
        <ele>901.9</ele>
        <time>2020-08-20T08:05:25Z</time>
        <sat>9</sat>
      </trkpt>
      <trkpt lat="42.362282" lon="-3.596371">
        <ele>901.5</ele>
        <time>2020-08-20T08:05:32Z</time>
        <sat>9</sat>
      </trkpt>
      <trkpt lat="42.362325" lon="-3.596467">
        <ele>901.1</ele>
        <time>2020-08-20T08:05:38Z</time>
        <sat>10</sat>
      </trkpt>
      <trkpt lat="42.362384" lon="-3.596559">
        <ele>900.4</ele>
        <time>2020-08-20T08:05:45Z</time>
        <sat>10</sat>
      </trkpt>
      <trkpt lat="42.362433" lon="-3.596652">
        <ele>899.9</ele>
        <time>2020-08-20T08:05:51Z</time>
        <sat>10</sat>
      </trkpt>
      <trkpt lat="42.362481" lon="-3.596759">
        <ele>899.1</ele>
        <time>2020-08-20T08:05:58Z</time>
        <sat>10</sat>
      </trkpt>
      <trkpt lat="42.362528" lon="-3.596855">
        <ele>898.4</ele>
        <time>2020-08-20T08:06:04Z</time>
        <sat>10</sat>
      </trkpt>
      <trkpt lat="42.362570" lon="-3.596949">
        <ele>897.8</ele>
        <time>2020-08-20T08:06:10Z</time>
        <sat>9</sat>
      </trkpt>
      <trkpt lat="42.362609" lon="-3.597052">
        <ele>896.8</ele>
        <time>2020-08-20T08:06:19Z</time>
        <sat>10</sat>
      </trkpt>
      <trkpt lat="42.362658" lon="-3.597149">
        <ele>895.9</ele>
        <time>2020-08-20T08:06:31Z</time>
        <sat>9</sat>
      </trkpt>
      <trkpt lat="42.362704" lon="-3.597257">
        <ele>895.4</ele>
        <time>2020-08-20T08:06:38Z</time>
        <sat>9</sat>
      </trkpt>
      <trkpt lat="42.362746" lon="-3.597364">
        <ele>894.9</ele>
        <time>2020-08-20T08:06:45Z</time>
        <sat>10</sat>
      </trkpt>
      <trkpt lat="42.362788" lon="-3.597459">
        <ele>894.4</ele>
        <time>2020-08-20T08:06:51Z</time>
        <sat>10</sat>
      </trkpt>
      <trkpt lat="42.362830" lon="-3.597570">
        <ele>894.0</ele>
        <time>2020-08-20T08:06:58Z</time>
        <sat>10</sat>
      </trkpt>
      <trkpt lat="42.362866" lon="-3.597673">
        <ele>893.8</ele>
        <time>2020-08-20T08:07:04Z</time>
        <sat>10</sat>
      </trkpt>
      <trkpt lat="42.362907" lon="-3.597783">
        <ele>893.6</ele>
        <time>2020-08-20T08:07:11Z</time>
        <sat>10</sat>
      </trkpt>
      <trkpt lat="42.362942" lon="-3.597890">
        <ele>893.3</ele>
        <time>2020-08-20T08:07:18Z</time>
        <sat>9</sat>
      </trkpt>
      <trkpt lat="42.362977" lon="-3.597999">
        <ele>893.6</ele>
        <time>2020-08-20T08:07:24Z</time>
        <sat>10</sat>
      </trkpt>
      <trkpt lat="42.363020" lon="-3.598112">
        <ele>893.5</ele>
        <time>2020-08-20T08:07:31Z</time>
        <sat>10</sat>
      </trkpt>
      <trkpt lat="42.363053" lon="-3.598228">
        <ele>893.3</ele>
        <time>2020-08-20T08:07:38Z</time>
        <sat>10</sat>
      </trkpt>
      <trkpt lat="42.363093" lon="-3.598339">
        <ele>893.6</ele>
        <time>2020-08-20T08:07:45Z</time>
        <sat>10</sat>
      </trkpt>
      <trkpt lat="42.363126" lon="-3.598456">
        <ele>893.9</ele>
        <time>2020-08-20T08:07:52Z</time>
        <sat>10</sat>
      </trkpt>
      <trkpt lat="42.363161" lon="-3.598555">
        <ele>894.0</ele>
        <time>2020-08-20T08:07:58Z</time>
        <sat>10</sat>
      </trkpt>
      <trkpt lat="42.363183" lon="-3.598661">
        <ele>894.1</ele>
        <time>2020-08-20T08:08:04Z</time>
        <sat>10</sat>
      </trkpt>
      <trkpt lat="42.363214" lon="-3.598781">
        <ele>894.5</ele>
        <time>2020-08-20T08:08:11Z</time>
        <sat>10</sat>
      </trkpt>
      <trkpt lat="42.363225" lon="-3.598896">
        <ele>894.9</ele>
        <time>2020-08-20T08:08:17Z</time>
        <sat>10</sat>
      </trkpt>
      <trkpt lat="42.363253" lon="-3.599006">
        <ele>895.3</ele>
        <time>2020-08-20T08:08:26Z</time>
        <sat>10</sat>
      </trkpt>
      <trkpt lat="42.363278" lon="-3.599118">
        <ele>895.4</ele>
        <time>2020-08-20T08:08:33Z</time>
        <sat>10</sat>
      </trkpt>
      <trkpt lat="42.363287" lon="-3.599228">
        <ele>895.4</ele>
        <time>2020-08-20T08:08:39Z</time>
        <sat>10</sat>
      </trkpt>
      <trkpt lat="42.363300" lon="-3.599337">
        <ele>895.6</ele>
        <time>2020-08-20T08:08:45Z</time>
        <sat>10</sat>
      </trkpt>
      <trkpt lat="42.363303" lon="-3.599451">
        <ele>895.7</ele>
        <time>2020-08-20T08:08:51Z</time>
        <sat>10</sat>
      </trkpt>
      <trkpt lat="42.363312" lon="-3.599562">
        <ele>895.9</ele>
        <time>2020-08-20T08:08:57Z</time>
        <sat>10</sat>
      </trkpt>
      <trkpt lat="42.363320" lon="-3.599671">
        <ele>896.0</ele>
        <time>2020-08-20T08:09:03Z</time>
        <sat>10</sat>
      </trkpt>
      <trkpt lat="42.363342" lon="-3.599779">
        <ele>896.0</ele>
        <time>2020-08-20T08:09:09Z</time>
        <sat>10</sat>
      </trkpt>
      <trkpt lat="42.363353" lon="-3.599902">
        <ele>896.0</ele>
        <time>2020-08-20T08:09:16Z</time>
        <sat>10</sat>
      </trkpt>
      <trkpt lat="42.363365" lon="-3.600018">
        <ele>895.9</ele>
        <time>2020-08-20T08:09:23Z</time>
        <sat>10</sat>
      </trkpt>
      <trkpt lat="42.363387" lon="-3.600133">
        <ele>896.1</ele>
        <time>2020-08-20T08:09:30Z</time>
        <sat>10</sat>
      </trkpt>
      <trkpt lat="42.363419" lon="-3.600240">
        <ele>895.1</ele>
        <time>2020-08-20T08:09:37Z</time>
        <sat>10</sat>
      </trkpt>
      <trkpt lat="42.363450" lon="-3.600345">
        <ele>895.1</ele>
        <time>2020-08-20T08:09:43Z</time>
        <sat>10</sat>
      </trkpt>
      <trkpt lat="42.363484" lon="-3.600461">
        <ele>894.9</ele>
        <time>2020-08-20T08:09:50Z</time>
        <sat>10</sat>
      </trkpt>
      <trkpt lat="42.363519" lon="-3.600562">
        <ele>894.7</ele>
        <time>2020-08-20T08:09:56Z</time>
        <sat>10</sat>
      </trkpt>
      <trkpt lat="42.363563" lon="-3.600672">
        <ele>894.6</ele>
        <time>2020-08-20T08:10:03Z</time>
        <sat>10</sat>
      </trkpt>
      <trkpt lat="42.363608" lon="-3.600768">
        <ele>894.4</ele>
        <time>2020-08-20T08:10:09Z</time>
        <sat>10</sat>
      </trkpt>
      <trkpt lat="42.363658" lon="-3.600871">
        <ele>894.4</ele>
        <time>2020-08-20T08:10:16Z</time>
        <sat>10</sat>
      </trkpt>
      <trkpt lat="42.363710" lon="-3.600977">
        <ele>894.4</ele>
        <time>2020-08-20T08:10:23Z</time>
        <sat>10</sat>
      </trkpt>
      <trkpt lat="42.363770" lon="-3.601074">
        <ele>894.3</ele>
        <time>2020-08-20T08:10:30Z</time>
        <sat>10</sat>
      </trkpt>
      <trkpt lat="42.363824" lon="-3.601161">
        <ele>894.0</ele>
        <time>2020-08-20T08:10:36Z</time>
        <sat>10</sat>
      </trkpt>
      <trkpt lat="42.363888" lon="-3.601244">
        <ele>893.9</ele>
        <time>2020-08-20T08:10:43Z</time>
        <sat>10</sat>
      </trkpt>
      <trkpt lat="42.363955" lon="-3.601332">
        <ele>893.6</ele>
        <time>2020-08-20T08:10:50Z</time>
        <sat>10</sat>
      </trkpt>
      <trkpt lat="42.364021" lon="-3.601397">
        <ele>893.5</ele>
        <time>2020-08-20T08:10:56Z</time>
        <sat>10</sat>
      </trkpt>
      <trkpt lat="42.364090" lon="-3.601475">
        <ele>893.1</ele>
        <time>2020-08-20T08:11:06Z</time>
        <sat>10</sat>
      </trkpt>
      <trkpt lat="42.364161" lon="-3.601544">
        <ele>892.9</ele>
        <time>2020-08-20T08:11:13Z</time>
        <sat>10</sat>
      </trkpt>
      <trkpt lat="42.364236" lon="-3.601610">
        <ele>892.6</ele>
        <time>2020-08-20T08:11:20Z</time>
        <sat>10</sat>
      </trkpt>
      <trkpt lat="42.364314" lon="-3.601671">
        <ele>892.3</ele>
        <time>2020-08-20T08:11:27Z</time>
        <sat>10</sat>
      </trkpt>
      <trkpt lat="42.364399" lon="-3.601726">
        <ele>892.3</ele>
        <time>2020-08-20T08:11:34Z</time>
        <sat>10</sat>
      </trkpt>
      <trkpt lat="42.364489" lon="-3.601758">
        <ele>892.3</ele>
        <time>2020-08-20T08:11:41Z</time>
        <sat>10</sat>
      </trkpt>
      <trkpt lat="42.364570" lon="-3.601788">
        <ele>892.3</ele>
        <time>2020-08-20T08:11:47Z</time>
        <sat>10</sat>
      </trkpt>
      <trkpt lat="42.364664" lon="-3.601802">
        <ele>892.2</ele>
        <time>2020-08-20T08:11:54Z</time>
        <sat>10</sat>
      </trkpt>
      <trkpt lat="42.364746" lon="-3.601810">
        <ele>892.1</ele>
        <time>2020-08-20T08:12:01Z</time>
        <sat>10</sat>
      </trkpt>
      <trkpt lat="42.364839" lon="-3.601812">
        <ele>892.0</ele>
        <time>2020-08-20T08:12:08Z</time>
        <sat>10</sat>
      </trkpt>
      <trkpt lat="42.364920" lon="-3.601801">
        <ele>891.9</ele>
        <time>2020-08-20T08:12:14Z</time>
        <sat>10</sat>
      </trkpt>
      <trkpt lat="42.365007" lon="-3.601787">
        <ele>891.3</ele>
        <time>2020-08-20T08:12:21Z</time>
        <sat>10</sat>
      </trkpt>
      <trkpt lat="42.365080" lon="-3.601737">
        <ele>891.2</ele>
        <time>2020-08-20T08:12:31Z</time>
        <sat>10</sat>
      </trkpt>
      <trkpt lat="42.365171" lon="-3.601698">
        <ele>890.7</ele>
        <time>2020-08-20T08:12:38Z</time>
        <sat>10</sat>
      </trkpt>
      <trkpt lat="42.365250" lon="-3.601654">
        <ele>890.7</ele>
        <time>2020-08-20T08:12:44Z</time>
        <sat>10</sat>
      </trkpt>
      <trkpt lat="42.365340" lon="-3.601621">
        <ele>890.5</ele>
        <time>2020-08-20T08:12:51Z</time>
        <sat>10</sat>
      </trkpt>
      <trkpt lat="42.365422" lon="-3.601582">
        <ele>890.4</ele>
        <time>2020-08-20T08:12:58Z</time>
        <sat>10</sat>
      </trkpt>
      <trkpt lat="42.365509" lon="-3.601556">
        <ele>887.5</ele>
        <time>2020-08-20T08:13:05Z</time>
        <sat>10</sat>
      </trkpt>
      <trkpt lat="42.365596" lon="-3.601523">
        <ele>888.3</ele>
        <time>2020-08-20T08:13:12Z</time>
        <sat>10</sat>
      </trkpt>
      <trkpt lat="42.365680" lon="-3.601503">
        <ele>888.6</ele>
        <time>2020-08-20T08:13:19Z</time>
        <sat>10</sat>
      </trkpt>
      <trkpt lat="42.365770" lon="-3.601489">
        <ele>889.4</ele>
        <time>2020-08-20T08:13:26Z</time>
        <sat>10</sat>
      </trkpt>
      <trkpt lat="42.365856" lon="-3.601484">
        <ele>890.9</ele>
        <time>2020-08-20T08:13:33Z</time>
        <sat>10</sat>
      </trkpt>
      <trkpt lat="42.365939" lon="-3.601478">
        <ele>894.4</ele>
        <time>2020-08-20T08:13:39Z</time>
        <sat>10</sat>
      </trkpt>
      <trkpt lat="42.366022" lon="-3.601486">
        <ele>893.4</ele>
        <time>2020-08-20T08:13:45Z</time>
        <sat>10</sat>
      </trkpt>
      <trkpt lat="42.366108" lon="-3.601504">
        <ele>892.0</ele>
        <time>2020-08-20T08:13:51Z</time>
        <sat>10</sat>
      </trkpt>
      <trkpt lat="42.366199" lon="-3.601533">
        <ele>891.1</ele>
        <time>2020-08-20T08:13:58Z</time>
        <sat>10</sat>
      </trkpt>
      <trkpt lat="42.366277" lon="-3.601573">
        <ele>890.3</ele>
        <time>2020-08-20T08:14:04Z</time>
        <sat>10</sat>
      </trkpt>
      <trkpt lat="42.366356" lon="-3.601609">
        <ele>889.9</ele>
        <time>2020-08-20T08:14:10Z</time>
        <sat>10</sat>
      </trkpt>
      <trkpt lat="42.366429" lon="-3.601664">
        <ele>889.6</ele>
        <time>2020-08-20T08:14:16Z</time>
        <sat>10</sat>
      </trkpt>
      <trkpt lat="42.366504" lon="-3.601716">
        <ele>889.4</ele>
        <time>2020-08-20T08:14:22Z</time>
        <sat>10</sat>
      </trkpt>
      <trkpt lat="42.366579" lon="-3.601784">
        <ele>889.2</ele>
        <time>2020-08-20T08:14:29Z</time>
        <sat>10</sat>
      </trkpt>
      <trkpt lat="42.366655" lon="-3.601858">
        <ele>889.0</ele>
        <time>2020-08-20T08:14:36Z</time>
        <sat>10</sat>
      </trkpt>
      <trkpt lat="42.366719" lon="-3.601941">
        <ele>888.8</ele>
        <time>2020-08-20T08:14:43Z</time>
        <sat>10</sat>
      </trkpt>
      <trkpt lat="42.366782" lon="-3.602020">
        <ele>888.8</ele>
        <time>2020-08-20T08:14:50Z</time>
        <sat>9</sat>
      </trkpt>
      <trkpt lat="42.366846" lon="-3.602092">
        <ele>888.9</ele>
        <time>2020-08-20T08:15:26Z</time>
        <sat>8</sat>
      </trkpt>
      <trkpt lat="42.366912" lon="-3.602167">
        <ele>888.9</ele>
        <time>2020-08-20T08:15:35Z</time>
        <sat>10</sat>
      </trkpt>
      <trkpt lat="42.366972" lon="-3.602250">
        <ele>888.8</ele>
        <time>2020-08-20T08:15:42Z</time>
        <sat>10</sat>
      </trkpt>
      <trkpt lat="42.367028" lon="-3.602334">
        <ele>888.7</ele>
        <time>2020-08-20T08:15:49Z</time>
        <sat>10</sat>
      </trkpt>
      <trkpt lat="42.367084" lon="-3.602418">
        <ele>888.6</ele>
        <time>2020-08-20T08:15:57Z</time>
        <sat>9</sat>
      </trkpt>
      <trkpt lat="42.367144" lon="-3.602493">
        <ele>888.7</ele>
        <time>2020-08-20T08:16:04Z</time>
        <sat>10</sat>
      </trkpt>
      <trkpt lat="42.367202" lon="-3.602581">
        <ele>888.7</ele>
        <time>2020-08-20T08:16:11Z</time>
        <sat>10</sat>
      </trkpt>
      <trkpt lat="42.367256" lon="-3.602678">
        <ele>888.7</ele>
        <time>2020-08-20T08:16:18Z</time>
        <sat>10</sat>
      </trkpt>
      <trkpt lat="42.367302" lon="-3.602769">
        <ele>888.5</ele>
        <time>2020-08-20T08:16:24Z</time>
        <sat>10</sat>
      </trkpt>
      <trkpt lat="42.367343" lon="-3.602864">
        <ele>888.4</ele>
        <time>2020-08-20T08:16:30Z</time>
        <sat>10</sat>
      </trkpt>
      <trkpt lat="42.367388" lon="-3.602975">
        <ele>888.2</ele>
        <time>2020-08-20T08:16:37Z</time>
        <sat>10</sat>
      </trkpt>
      <trkpt lat="42.367420" lon="-3.603077">
        <ele>888.1</ele>
        <time>2020-08-20T08:16:47Z</time>
        <sat>10</sat>
      </trkpt>
      <trkpt lat="42.367446" lon="-3.603198">
        <ele>888.0</ele>
        <time>2020-08-20T08:16:54Z</time>
        <sat>10</sat>
      </trkpt>
      <trkpt lat="42.367462" lon="-3.603313">
        <ele>888.0</ele>
        <time>2020-08-20T08:17:01Z</time>
        <sat>10</sat>
      </trkpt>
      <trkpt lat="42.367474" lon="-3.603422">
        <ele>888.0</ele>
        <time>2020-08-20T08:17:09Z</time>
        <sat>10</sat>
      </trkpt>
      <trkpt lat="42.367477" lon="-3.603534">
        <ele>888.2</ele>
        <time>2020-08-20T08:17:16Z</time>
        <sat>10</sat>
      </trkpt>
      <trkpt lat="42.367480" lon="-3.603657">
        <ele>888.2</ele>
        <time>2020-08-20T08:17:23Z</time>
        <sat>10</sat>
      </trkpt>
      <trkpt lat="42.367473" lon="-3.603767">
        <ele>888.0</ele>
        <time>2020-08-20T08:17:30Z</time>
        <sat>10</sat>
      </trkpt>
      <trkpt lat="42.367459" lon="-3.603886">
        <ele>888.0</ele>
        <time>2020-08-20T08:17:37Z</time>
        <sat>10</sat>
      </trkpt>
      <trkpt lat="42.367444" lon="-3.603999">
        <ele>888.0</ele>
        <time>2020-08-20T08:17:44Z</time>
        <sat>9</sat>
      </trkpt>
      <trkpt lat="42.367418" lon="-3.604118">
        <ele>887.8</ele>
        <time>2020-08-20T08:17:51Z</time>
        <sat>10</sat>
      </trkpt>
      <trkpt lat="42.367389" lon="-3.604229">
        <ele>887.7</ele>
        <time>2020-08-20T08:17:58Z</time>
        <sat>10</sat>
      </trkpt>
      <trkpt lat="42.367355" lon="-3.604338">
        <ele>887.5</ele>
        <time>2020-08-20T08:18:05Z</time>
        <sat>9</sat>
      </trkpt>
      <trkpt lat="42.367306" lon="-3.604436">
        <ele>887.4</ele>
        <time>2020-08-20T08:18:12Z</time>
        <sat>10</sat>
      </trkpt>
      <trkpt lat="42.367257" lon="-3.604535">
        <ele>887.3</ele>
        <time>2020-08-20T08:18:19Z</time>
        <sat>10</sat>
      </trkpt>
      <trkpt lat="42.367196" lon="-3.604631">
        <ele>887.3</ele>
        <time>2020-08-20T08:18:26Z</time>
        <sat>9</sat>
      </trkpt>
      <trkpt lat="42.367131" lon="-3.604722">
        <ele>887.4</ele>
        <time>2020-08-20T08:18:33Z</time>
        <sat>10</sat>
      </trkpt>
      <trkpt lat="42.367072" lon="-3.604802">
        <ele>887.3</ele>
        <time>2020-08-20T08:18:39Z</time>
        <sat>10</sat>
      </trkpt>
      <trkpt lat="42.366999" lon="-3.604882">
        <ele>887.3</ele>
        <time>2020-08-20T08:18:46Z</time>
        <sat>10</sat>
      </trkpt>
      <trkpt lat="42.366940" lon="-3.604969">
        <ele>887.4</ele>
        <time>2020-08-20T08:18:53Z</time>
        <sat>10</sat>
      </trkpt>
      <trkpt lat="42.366873" lon="-3.605048">
        <ele>887.3</ele>
        <time>2020-08-20T08:19:01Z</time>
        <sat>10</sat>
      </trkpt>
      <trkpt lat="42.366813" lon="-3.605129">
        <ele>887.4</ele>
        <time>2020-08-20T08:19:08Z</time>
        <sat>10</sat>
      </trkpt>
      <trkpt lat="42.366745" lon="-3.605215">
        <ele>887.4</ele>
        <time>2020-08-20T08:19:16Z</time>
        <sat>10</sat>
      </trkpt>
      <trkpt lat="42.366685" lon="-3.605288">
        <ele>887.3</ele>
        <time>2020-08-20T08:19:23Z</time>
        <sat>10</sat>
      </trkpt>
      <trkpt lat="42.366626" lon="-3.605365">
        <ele>887.4</ele>
        <time>2020-08-20T08:19:30Z</time>
        <sat>10</sat>
      </trkpt>
      <trkpt lat="42.366558" lon="-3.605452">
        <ele>887.6</ele>
        <time>2020-08-20T08:19:37Z</time>
        <sat>10</sat>
      </trkpt>
      <trkpt lat="42.366499" lon="-3.605536">
        <ele>887.7</ele>
        <time>2020-08-20T08:19:44Z</time>
        <sat>10</sat>
      </trkpt>
      <trkpt lat="42.366430" lon="-3.605612">
        <ele>887.8</ele>
        <time>2020-08-20T08:19:51Z</time>
        <sat>10</sat>
      </trkpt>
      <trkpt lat="42.366364" lon="-3.605700">
        <ele>887.9</ele>
        <time>2020-08-20T08:19:58Z</time>
        <sat>10</sat>
      </trkpt>
      <trkpt lat="42.366300" lon="-3.605771">
        <ele>887.8</ele>
        <time>2020-08-20T08:20:04Z</time>
        <sat>10</sat>
      </trkpt>
      <trkpt lat="42.366240" lon="-3.605851">
        <ele>887.9</ele>
        <time>2020-08-20T08:20:10Z</time>
        <sat>10</sat>
      </trkpt>
      <trkpt lat="42.366180" lon="-3.605929">
        <ele>888.1</ele>
        <time>2020-08-20T08:20:16Z</time>
        <sat>10</sat>
      </trkpt>
      <trkpt lat="42.366116" lon="-3.606017">
        <ele>887.4</ele>
        <time>2020-08-20T08:20:23Z</time>
        <sat>10</sat>
      </trkpt>
      <trkpt lat="42.366042" lon="-3.606100">
        <ele>887.2</ele>
        <time>2020-08-20T08:20:30Z</time>
        <sat>10</sat>
      </trkpt>
      <trkpt lat="42.365978" lon="-3.606183">
        <ele>886.9</ele>
        <time>2020-08-20T08:20:37Z</time>
        <sat>10</sat>
      </trkpt>
      <trkpt lat="42.365916" lon="-3.606267">
        <ele>886.3</ele>
        <time>2020-08-20T08:20:44Z</time>
        <sat>10</sat>
      </trkpt>
      <trkpt lat="42.365845" lon="-3.606347">
        <ele>887.0</ele>
        <time>2020-08-20T08:20:51Z</time>
        <sat>10</sat>
      </trkpt>
      <trkpt lat="42.365786" lon="-3.606425">
        <ele>887.2</ele>
        <time>2020-08-20T08:20:57Z</time>
        <sat>10</sat>
      </trkpt>
      <trkpt lat="42.365721" lon="-3.606506">
        <ele>887.4</ele>
        <time>2020-08-20T08:21:04Z</time>
        <sat>10</sat>
      </trkpt>
      <trkpt lat="42.365662" lon="-3.606591">
        <ele>887.5</ele>
        <time>2020-08-20T08:21:10Z</time>
        <sat>10</sat>
      </trkpt>
      <trkpt lat="42.365595" lon="-3.606661">
        <ele>887.9</ele>
        <time>2020-08-20T08:21:16Z</time>
        <sat>10</sat>
      </trkpt>
      <trkpt lat="42.365540" lon="-3.606741">
        <ele>888.0</ele>
        <time>2020-08-20T08:21:22Z</time>
        <sat>10</sat>
      </trkpt>
      <trkpt lat="42.365470" lon="-3.606828">
        <ele>888.2</ele>
        <time>2020-08-20T08:21:29Z</time>
        <sat>10</sat>
      </trkpt>
      <trkpt lat="42.365410" lon="-3.606906">
        <ele>888.3</ele>
        <time>2020-08-20T08:21:35Z</time>
        <sat>10</sat>
      </trkpt>
      <trkpt lat="42.365353" lon="-3.606984">
        <ele>888.5</ele>
        <time>2020-08-20T08:21:41Z</time>
        <sat>10</sat>
      </trkpt>
      <trkpt lat="42.365294" lon="-3.607065">
        <ele>888.5</ele>
        <time>2020-08-20T08:21:47Z</time>
        <sat>10</sat>
      </trkpt>
      <trkpt lat="42.365226" lon="-3.607150">
        <ele>888.4</ele>
        <time>2020-08-20T08:21:54Z</time>
        <sat>10</sat>
      </trkpt>
      <trkpt lat="42.365163" lon="-3.607220">
        <ele>888.4</ele>
        <time>2020-08-20T08:22:00Z</time>
        <sat>10</sat>
      </trkpt>
      <trkpt lat="42.365099" lon="-3.607310">
        <ele>888.5</ele>
        <time>2020-08-20T08:22:07Z</time>
        <sat>10</sat>
      </trkpt>
      <trkpt lat="42.365037" lon="-3.607384">
        <ele>888.5</ele>
        <time>2020-08-20T08:22:13Z</time>
        <sat>10</sat>
      </trkpt>
      <trkpt lat="42.364972" lon="-3.607473">
        <ele>888.8</ele>
        <time>2020-08-20T08:22:20Z</time>
        <sat>10</sat>
      </trkpt>
      <trkpt lat="42.364908" lon="-3.607546">
        <ele>888.9</ele>
        <time>2020-08-20T08:22:26Z</time>
        <sat>10</sat>
      </trkpt>
      <trkpt lat="42.364843" lon="-3.607638">
        <ele>889.0</ele>
        <time>2020-08-20T08:22:33Z</time>
        <sat>10</sat>
      </trkpt>
      <trkpt lat="42.364780" lon="-3.607708">
        <ele>888.8</ele>
        <time>2020-08-20T08:22:39Z</time>
        <sat>10</sat>
      </trkpt>
      <trkpt lat="42.364724" lon="-3.607790">
        <ele>888.2</ele>
        <time>2020-08-20T08:22:46Z</time>
        <sat>10</sat>
      </trkpt>
      <trkpt lat="42.364656" lon="-3.607858">
        <ele>888.2</ele>
        <time>2020-08-20T08:22:52Z</time>
        <sat>10</sat>
      </trkpt>
      <trkpt lat="42.364590" lon="-3.607947">
        <ele>888.0</ele>
        <time>2020-08-20T08:22:59Z</time>
        <sat>10</sat>
      </trkpt>
      <trkpt lat="42.364528" lon="-3.608019">
        <ele>888.8</ele>
        <time>2020-08-20T08:23:05Z</time>
        <sat>10</sat>
      </trkpt>
      <trkpt lat="42.364470" lon="-3.608102">
        <ele>889.0</ele>
        <time>2020-08-20T08:23:11Z</time>
        <sat>10</sat>
      </trkpt>
      <trkpt lat="42.364406" lon="-3.608170">
        <ele>889.2</ele>
        <time>2020-08-20T08:23:17Z</time>
        <sat>10</sat>
      </trkpt>
      <trkpt lat="42.364350" lon="-3.608252">
        <ele>889.6</ele>
        <time>2020-08-20T08:23:23Z</time>
        <sat>10</sat>
      </trkpt>
      <trkpt lat="42.364287" lon="-3.608327">
        <ele>889.8</ele>
        <time>2020-08-20T08:23:29Z</time>
        <sat>10</sat>
      </trkpt>
      <trkpt lat="42.364229" lon="-3.608407">
        <ele>889.9</ele>
        <time>2020-08-20T08:23:35Z</time>
        <sat>10</sat>
      </trkpt>
      <trkpt lat="42.364161" lon="-3.608493">
        <ele>890.2</ele>
        <time>2020-08-20T08:23:42Z</time>
        <sat>10</sat>
      </trkpt>
      <trkpt lat="42.364111" lon="-3.608580">
        <ele>890.4</ele>
        <time>2020-08-20T08:23:48Z</time>
        <sat>10</sat>
      </trkpt>
      <trkpt lat="42.364051" lon="-3.608677">
        <ele>890.5</ele>
        <time>2020-08-20T08:23:55Z</time>
        <sat>10</sat>
      </trkpt>
      <trkpt lat="42.364006" lon="-3.608770">
        <ele>890.5</ele>
        <time>2020-08-20T08:24:01Z</time>
        <sat>10</sat>
      </trkpt>
      <trkpt lat="42.363963" lon="-3.608880">
        <ele>890.6</ele>
        <time>2020-08-20T08:24:08Z</time>
        <sat>10</sat>
      </trkpt>
      <trkpt lat="42.363921" lon="-3.608992">
        <ele>890.6</ele>
        <time>2020-08-20T08:24:15Z</time>
        <sat>10</sat>
      </trkpt>
      <trkpt lat="42.363898" lon="-3.609100">
        <ele>890.7</ele>
        <time>2020-08-20T08:24:21Z</time>
        <sat>10</sat>
      </trkpt>
      <trkpt lat="42.363868" lon="-3.609210">
        <ele>890.6</ele>
        <time>2020-08-20T08:24:27Z</time>
        <sat>10</sat>
      </trkpt>
      <trkpt lat="42.363850" lon="-3.609333">
        <ele>890.6</ele>
        <time>2020-08-20T08:24:34Z</time>
        <sat>10</sat>
      </trkpt>
      <trkpt lat="42.363838" lon="-3.609442">
        <ele>890.6</ele>
        <time>2020-08-20T08:24:40Z</time>
        <sat>9</sat>
      </trkpt>
      <trkpt lat="42.363834" lon="-3.609566">
        <ele>890.5</ele>
        <time>2020-08-20T08:24:47Z</time>
        <sat>10</sat>
      </trkpt>
      <trkpt lat="42.363824" lon="-3.609692">
        <ele>890.6</ele>
        <time>2020-08-20T08:24:54Z</time>
        <sat>10</sat>
      </trkpt>
      <trkpt lat="42.363838" lon="-3.609806">
        <ele>890.6</ele>
        <time>2020-08-20T08:25:00Z</time>
        <sat>10</sat>
      </trkpt>
      <trkpt lat="42.363851" lon="-3.609920">
        <ele>890.6</ele>
        <time>2020-08-20T08:25:06Z</time>
        <sat>10</sat>
      </trkpt>
      <trkpt lat="42.363882" lon="-3.610024">
        <ele>890.5</ele>
        <time>2020-08-20T08:25:12Z</time>
        <sat>10</sat>
      </trkpt>
      <trkpt lat="42.363904" lon="-3.610142">
        <ele>890.0</ele>
        <time>2020-08-20T08:25:19Z</time>
        <sat>10</sat>
      </trkpt>
      <trkpt lat="42.363936" lon="-3.610246">
        <ele>890.1</ele>
        <time>2020-08-20T08:25:25Z</time>
        <sat>10</sat>
      </trkpt>
      <trkpt lat="42.363963" lon="-3.610364">
        <ele>890.1</ele>
        <time>2020-08-20T08:25:32Z</time>
        <sat>10</sat>
      </trkpt>
      <trkpt lat="42.363996" lon="-3.610469">
        <ele>890.0</ele>
        <time>2020-08-20T08:25:39Z</time>
        <sat>10</sat>
      </trkpt>
      <trkpt lat="42.364024" lon="-3.610583">
        <ele>889.7</ele>
        <time>2020-08-20T08:25:46Z</time>
        <sat>10</sat>
      </trkpt>
      <trkpt lat="42.364050" lon="-3.610688">
        <ele>889.3</ele>
        <time>2020-08-20T08:25:53Z</time>
        <sat>10</sat>
      </trkpt>
      <trkpt lat="42.364084" lon="-3.610794">
        <ele>888.9</ele>
        <time>2020-08-20T08:26:03Z</time>
        <sat>10</sat>
      </trkpt>
      <trkpt lat="42.364149" lon="-3.610884">
        <ele>888.7</ele>
        <time>2020-08-20T08:26:10Z</time>
        <sat>10</sat>
      </trkpt>
      <trkpt lat="42.364180" lon="-3.610994">
        <ele>888.4</ele>
        <time>2020-08-20T08:26:19Z</time>
        <sat>10</sat>
      </trkpt>
      <trkpt lat="42.364200" lon="-3.611101">
        <ele>882.9</ele>
        <time>2020-08-20T08:26:26Z</time>
        <sat>10</sat>
      </trkpt>
      <trkpt lat="42.364232" lon="-3.611233">
        <ele>883.7</ele>
        <time>2020-08-20T08:27:54Z</time>
        <sat>10</sat>
      </trkpt>
      <trkpt lat="42.364263" lon="-3.611335">
        <ele>888.9</ele>
        <time>2020-08-20T08:28:05Z</time>
        <sat>9</sat>
      </trkpt>
      <trkpt lat="42.364278" lon="-3.611456">
        <ele>887.7</ele>
        <time>2020-08-20T08:28:26Z</time>
        <sat>10</sat>
      </trkpt>
      <trkpt lat="42.364302" lon="-3.611570">
        <ele>887.5</ele>
        <time>2020-08-20T08:28:34Z</time>
        <sat>10</sat>
      </trkpt>
      <trkpt lat="42.364318" lon="-3.611694">
        <ele>887.5</ele>
        <time>2020-08-20T08:28:41Z</time>
        <sat>10</sat>
      </trkpt>
      <trkpt lat="42.364317" lon="-3.611810">
        <ele>887.5</ele>
        <time>2020-08-20T08:28:48Z</time>
        <sat>10</sat>
      </trkpt>
      <trkpt lat="42.364316" lon="-3.611921">
        <ele>887.5</ele>
        <time>2020-08-20T08:28:54Z</time>
        <sat>10</sat>
      </trkpt>
      <trkpt lat="42.364325" lon="-3.612031">
        <ele>887.5</ele>
        <time>2020-08-20T08:29:00Z</time>
        <sat>10</sat>
      </trkpt>
      <trkpt lat="42.364338" lon="-3.612139">
        <ele>887.5</ele>
        <time>2020-08-20T08:29:06Z</time>
        <sat>10</sat>
      </trkpt>
      <trkpt lat="42.364343" lon="-3.612256">
        <ele>887.6</ele>
        <time>2020-08-20T08:29:13Z</time>
        <sat>10</sat>
      </trkpt>
      <trkpt lat="42.364352" lon="-3.612380">
        <ele>887.7</ele>
        <time>2020-08-20T08:29:20Z</time>
        <sat>10</sat>
      </trkpt>
      <trkpt lat="42.364354" lon="-3.612507">
        <ele>887.7</ele>
        <time>2020-08-20T08:29:27Z</time>
        <sat>10</sat>
      </trkpt>
      <trkpt lat="42.364346" lon="-3.612627">
        <ele>887.7</ele>
        <time>2020-08-20T08:29:34Z</time>
        <sat>10</sat>
      </trkpt>
      <trkpt lat="42.364330" lon="-3.612736">
        <ele>886.7</ele>
        <time>2020-08-20T08:29:40Z</time>
        <sat>10</sat>
      </trkpt>
      <trkpt lat="42.364314" lon="-3.612849">
        <ele>886.1</ele>
        <time>2020-08-20T08:29:47Z</time>
        <sat>10</sat>
      </trkpt>
      <trkpt lat="42.364289" lon="-3.612967">
        <ele>884.9</ele>
        <time>2020-08-20T08:29:54Z</time>
        <sat>10</sat>
      </trkpt>
      <trkpt lat="42.364259" lon="-3.613080">
        <ele>885.7</ele>
        <time>2020-08-20T08:30:01Z</time>
        <sat>10</sat>
      </trkpt>
      <trkpt lat="42.364223" lon="-3.613179">
        <ele>886.0</ele>
        <time>2020-08-20T08:30:08Z</time>
        <sat>10</sat>
      </trkpt>
      <trkpt lat="42.364191" lon="-3.613288">
        <ele>886.3</ele>
        <time>2020-08-20T08:30:15Z</time>
        <sat>10</sat>
      </trkpt>
      <trkpt lat="42.364169" lon="-3.613394">
        <ele>886.4</ele>
        <time>2020-08-20T08:30:21Z</time>
        <sat>10</sat>
      </trkpt>
      <trkpt lat="42.364140" lon="-3.613500">
        <ele>886.6</ele>
        <time>2020-08-20T08:30:27Z</time>
        <sat>10</sat>
      </trkpt>
      <trkpt lat="42.364098" lon="-3.613604">
        <ele>886.6</ele>
        <time>2020-08-20T08:30:34Z</time>
        <sat>10</sat>
      </trkpt>
      <trkpt lat="42.364065" lon="-3.613706">
        <ele>886.9</ele>
        <time>2020-08-20T08:30:40Z</time>
        <sat>10</sat>
      </trkpt>
      <trkpt lat="42.364043" lon="-3.613814">
        <ele>887.0</ele>
        <time>2020-08-20T08:30:46Z</time>
        <sat>10</sat>
      </trkpt>
      <trkpt lat="42.364008" lon="-3.613914">
        <ele>887.1</ele>
        <time>2020-08-20T08:30:52Z</time>
        <sat>10</sat>
      </trkpt>
      <trkpt lat="42.363981" lon="-3.614020">
        <ele>887.1</ele>
        <time>2020-08-20T08:30:58Z</time>
        <sat>10</sat>
      </trkpt>
      <trkpt lat="42.363953" lon="-3.614126">
        <ele>887.2</ele>
        <time>2020-08-20T08:31:04Z</time>
        <sat>10</sat>
      </trkpt>
      <trkpt lat="42.363910" lon="-3.614229">
        <ele>887.2</ele>
        <time>2020-08-20T08:31:10Z</time>
        <sat>10</sat>
      </trkpt>
      <trkpt lat="42.363859" lon="-3.614336">
        <ele>887.1</ele>
        <time>2020-08-20T08:31:17Z</time>
        <sat>10</sat>
      </trkpt>
      <trkpt lat="42.363795" lon="-3.614412">
        <ele>887.0</ele>
        <time>2020-08-20T08:31:23Z</time>
        <sat>10</sat>
      </trkpt>
      <trkpt lat="42.363730" lon="-3.614492">
        <ele>886.9</ele>
        <time>2020-08-20T08:31:30Z</time>
        <sat>10</sat>
      </trkpt>
      <trkpt lat="42.363667" lon="-3.614565">
        <ele>887.1</ele>
        <time>2020-08-20T08:31:37Z</time>
        <sat>10</sat>
      </trkpt>
      <trkpt lat="42.363608" lon="-3.614642">
        <ele>887.5</ele>
        <time>2020-08-20T08:31:57Z</time>
        <sat>10</sat>
      </trkpt>
      <trkpt lat="42.363534" lon="-3.614713">
        <ele>887.9</ele>
        <time>2020-08-20T08:32:04Z</time>
        <sat>10</sat>
      </trkpt>
      <trkpt lat="42.363469" lon="-3.614780">
        <ele>888.1</ele>
        <time>2020-08-20T08:32:10Z</time>
        <sat>10</sat>
      </trkpt>
      <trkpt lat="42.363401" lon="-3.614841">
        <ele>888.3</ele>
        <time>2020-08-20T08:32:16Z</time>
        <sat>10</sat>
      </trkpt>
      <trkpt lat="42.363326" lon="-3.614905">
        <ele>888.7</ele>
        <time>2020-08-20T08:32:23Z</time>
        <sat>10</sat>
      </trkpt>
      <trkpt lat="42.363254" lon="-3.614969">
        <ele>889.0</ele>
        <time>2020-08-20T08:32:30Z</time>
        <sat>10</sat>
      </trkpt>
      <trkpt lat="42.363183" lon="-3.615035">
        <ele>889.1</ele>
        <time>2020-08-20T08:32:37Z</time>
        <sat>10</sat>
      </trkpt>
      <trkpt lat="42.363115" lon="-3.615095">
        <ele>889.2</ele>
        <time>2020-08-20T08:32:44Z</time>
        <sat>10</sat>
      </trkpt>
      <trkpt lat="42.363045" lon="-3.615161">
        <ele>889.1</ele>
        <time>2020-08-20T08:32:51Z</time>
        <sat>10</sat>
      </trkpt>
      <trkpt lat="42.362976" lon="-3.615227">
        <ele>889.2</ele>
        <time>2020-08-20T08:32:58Z</time>
        <sat>10</sat>
      </trkpt>
      <trkpt lat="42.362922" lon="-3.615331">
        <ele>889.2</ele>
        <time>2020-08-20T08:33:06Z</time>
        <sat>10</sat>
      </trkpt>
      <trkpt lat="42.362901" lon="-3.615438">
        <ele>889.3</ele>
        <time>2020-08-20T08:33:12Z</time>
        <sat>10</sat>
      </trkpt>
      <trkpt lat="42.362922" lon="-3.615560">
        <ele>889.2</ele>
        <time>2020-08-20T08:33:19Z</time>
        <sat>10</sat>
      </trkpt>
      <trkpt lat="42.362946" lon="-3.615679">
        <ele>889.4</ele>
        <time>2020-08-20T08:33:26Z</time>
        <sat>10</sat>
      </trkpt>
      <trkpt lat="42.362985" lon="-3.615779">
        <ele>889.6</ele>
        <time>2020-08-20T08:33:33Z</time>
        <sat>10</sat>
      </trkpt>
      <trkpt lat="42.363037" lon="-3.615876">
        <ele>889.8</ele>
        <time>2020-08-20T08:33:41Z</time>
        <sat>10</sat>
      </trkpt>
      <trkpt lat="42.363087" lon="-3.615965">
        <ele>890.0</ele>
        <time>2020-08-20T08:33:47Z</time>
        <sat>10</sat>
      </trkpt>
      <trkpt lat="42.363162" lon="-3.616028">
        <ele>890.3</ele>
        <time>2020-08-20T08:33:54Z</time>
        <sat>10</sat>
      </trkpt>
      <trkpt lat="42.363247" lon="-3.616075">
        <ele>890.8</ele>
        <time>2020-08-20T08:34:01Z</time>
        <sat>10</sat>
      </trkpt>
      <trkpt lat="42.363320" lon="-3.616122">
        <ele>891.1</ele>
        <time>2020-08-20T08:34:07Z</time>
        <sat>10</sat>
      </trkpt>
      <trkpt lat="42.363394" lon="-3.616178">
        <ele>891.6</ele>
        <time>2020-08-20T08:34:14Z</time>
        <sat>10</sat>
      </trkpt>
      <trkpt lat="42.363473" lon="-3.616236">
        <ele>891.8</ele>
        <time>2020-08-20T08:34:22Z</time>
        <sat>10</sat>
      </trkpt>
      <trkpt lat="42.363542" lon="-3.616294">
        <ele>892.4</ele>
        <time>2020-08-20T08:34:49Z</time>
        <sat>10</sat>
      </trkpt>
      <trkpt lat="42.363617" lon="-3.616340">
        <ele>892.6</ele>
        <time>2020-08-20T08:34:56Z</time>
        <sat>10</sat>
      </trkpt>
      <trkpt lat="42.363703" lon="-3.616371">
        <ele>892.3</ele>
        <time>2020-08-20T08:35:25Z</time>
        <sat>10</sat>
      </trkpt>
      <trkpt lat="42.363780" lon="-3.616418">
        <ele>892.3</ele>
        <time>2020-08-20T08:35:32Z</time>
        <sat>10</sat>
      </trkpt>
      <trkpt lat="42.363859" lon="-3.616478">
        <ele>892.2</ele>
        <time>2020-08-20T08:35:39Z</time>
        <sat>10</sat>
      </trkpt>
      <trkpt lat="42.363924" lon="-3.616558">
        <ele>892.1</ele>
        <time>2020-08-20T08:35:46Z</time>
        <sat>10</sat>
      </trkpt>
      <trkpt lat="42.363980" lon="-3.616638">
        <ele>891.9</ele>
        <time>2020-08-20T08:35:52Z</time>
        <sat>10</sat>
      </trkpt>
      <trkpt lat="42.364031" lon="-3.616733">
        <ele>891.6</ele>
        <time>2020-08-20T08:35:59Z</time>
        <sat>10</sat>
      </trkpt>
      <trkpt lat="42.364078" lon="-3.616825">
        <ele>891.0</ele>
        <time>2020-08-20T08:36:05Z</time>
        <sat>10</sat>
      </trkpt>
      <trkpt lat="42.364116" lon="-3.616935">
        <ele>890.2</ele>
        <time>2020-08-20T08:36:12Z</time>
        <sat>10</sat>
      </trkpt>
      <trkpt lat="42.364152" lon="-3.617044">
        <ele>889.6</ele>
        <time>2020-08-20T08:36:19Z</time>
        <sat>10</sat>
      </trkpt>
      <trkpt lat="42.364192" lon="-3.617147">
        <ele>889.0</ele>
        <time>2020-08-20T08:36:26Z</time>
        <sat>10</sat>
      </trkpt>
      <trkpt lat="42.364215" lon="-3.617256">
        <ele>888.5</ele>
        <time>2020-08-20T08:36:33Z</time>
        <sat>10</sat>
      </trkpt>
      <trkpt lat="42.364244" lon="-3.617371">
        <ele>887.9</ele>
        <time>2020-08-20T08:36:40Z</time>
        <sat>9</sat>
      </trkpt>
      <trkpt lat="42.364261" lon="-3.617482">
        <ele>887.2</ele>
        <time>2020-08-20T08:36:47Z</time>
        <sat>9</sat>
      </trkpt>
      <trkpt lat="42.364268" lon="-3.617598">
        <ele>886.7</ele>
        <time>2020-08-20T08:36:54Z</time>
        <sat>9</sat>
      </trkpt>
      <trkpt lat="42.364292" lon="-3.617717">
        <ele>886.2</ele>
        <time>2020-08-20T08:37:01Z</time>
        <sat>8</sat>
      </trkpt>
      <trkpt lat="42.364298" lon="-3.617831">
        <ele>885.7</ele>
        <time>2020-08-20T08:37:08Z</time>
        <sat>8</sat>
      </trkpt>
      <trkpt lat="42.364312" lon="-3.617942">
        <ele>885.2</ele>
        <time>2020-08-20T08:37:15Z</time>
        <sat>8</sat>
      </trkpt>
      <trkpt lat="42.364333" lon="-3.618065">
        <ele>884.6</ele>
        <time>2020-08-20T08:37:22Z</time>
        <sat>8</sat>
      </trkpt>
      <trkpt lat="42.364366" lon="-3.618167">
        <ele>884.1</ele>
        <time>2020-08-20T08:37:30Z</time>
        <sat>8</sat>
      </trkpt>
      <trkpt lat="42.364350" lon="-3.618374">
        <ele>883.6</ele>
        <time>2020-08-20T08:37:46Z</time>
        <sat>10</sat>
      </trkpt>
      <trkpt lat="42.364344" lon="-3.618485">
        <ele>883.1</ele>
        <time>2020-08-20T08:37:52Z</time>
        <sat>10</sat>
      </trkpt>
      <trkpt lat="42.364388" lon="-3.618688">
        <ele>883.5</ele>
        <time>2020-08-20T08:38:02Z</time>
        <sat>9</sat>
      </trkpt>
      <trkpt lat="42.364415" lon="-3.618805">
        <ele>884.2</ele>
        <time>2020-08-20T08:38:09Z</time>
        <sat>10</sat>
      </trkpt>
      <trkpt lat="42.364440" lon="-3.618911">
        <ele>884.7</ele>
        <time>2020-08-20T08:38:15Z</time>
        <sat>10</sat>
      </trkpt>
      <trkpt lat="42.364448" lon="-3.619022">
        <ele>884.9</ele>
        <time>2020-08-20T08:38:21Z</time>
        <sat>10</sat>
      </trkpt>
      <trkpt lat="42.364463" lon="-3.619135">
        <ele>885.0</ele>
        <time>2020-08-20T08:38:27Z</time>
        <sat>10</sat>
      </trkpt>
      <trkpt lat="42.364475" lon="-3.619263">
        <ele>884.9</ele>
        <time>2020-08-20T08:38:34Z</time>
        <sat>10</sat>
      </trkpt>
      <trkpt lat="42.364487" lon="-3.619375">
        <ele>884.8</ele>
        <time>2020-08-20T08:38:40Z</time>
        <sat>10</sat>
      </trkpt>
      <trkpt lat="42.364502" lon="-3.619500">
        <ele>884.8</ele>
        <time>2020-08-20T08:38:47Z</time>
        <sat>10</sat>
      </trkpt>
      <trkpt lat="42.364511" lon="-3.619609">
        <ele>884.8</ele>
        <time>2020-08-20T08:38:53Z</time>
        <sat>10</sat>
      </trkpt>
      <trkpt lat="42.364525" lon="-3.619735">
        <ele>884.8</ele>
        <time>2020-08-20T08:39:00Z</time>
        <sat>10</sat>
      </trkpt>
      <trkpt lat="42.364548" lon="-3.619845">
        <ele>884.7</ele>
        <time>2020-08-20T08:39:06Z</time>
        <sat>10</sat>
      </trkpt>
      <trkpt lat="42.364566" lon="-3.619958">
        <ele>884.8</ele>
        <time>2020-08-20T08:39:13Z</time>
        <sat>10</sat>
      </trkpt>
      <trkpt lat="42.364587" lon="-3.620064">
        <ele>884.8</ele>
        <time>2020-08-20T08:39:25Z</time>
        <sat>10</sat>
      </trkpt>
      <trkpt lat="42.364549" lon="-3.620169">
        <ele>884.6</ele>
        <time>2020-08-20T08:39:31Z</time>
        <sat>10</sat>
      </trkpt>
      <trkpt lat="42.364512" lon="-3.620284">
        <ele>884.5</ele>
        <time>2020-08-20T08:39:38Z</time>
        <sat>10</sat>
      </trkpt>
      <trkpt lat="42.364503" lon="-3.620394">
        <ele>884.6</ele>
        <time>2020-08-20T08:39:45Z</time>
        <sat>10</sat>
      </trkpt>
      <trkpt lat="42.364455" lon="-3.620502">
        <ele>884.7</ele>
        <time>2020-08-20T08:40:03Z</time>
        <sat>10</sat>
      </trkpt>
      <trkpt lat="42.364385" lon="-3.620583">
        <ele>884.7</ele>
        <time>2020-08-20T08:40:10Z</time>
        <sat>10</sat>
      </trkpt>
      <trkpt lat="42.364318" lon="-3.620660">
        <ele>884.7</ele>
        <time>2020-08-20T08:40:17Z</time>
        <sat>10</sat>
      </trkpt>
      <trkpt lat="42.364276" lon="-3.620766">
        <ele>884.8</ele>
        <time>2020-08-20T08:40:25Z</time>
        <sat>10</sat>
      </trkpt>
      <trkpt lat="42.364255" lon="-3.620889">
        <ele>885.0</ele>
        <time>2020-08-20T08:40:33Z</time>
        <sat>10</sat>
      </trkpt>
      <trkpt lat="42.364281" lon="-3.620996">
        <ele>885.3</ele>
        <time>2020-08-20T08:40:39Z</time>
        <sat>10</sat>
      </trkpt>
      <trkpt lat="42.364329" lon="-3.621104">
        <ele>885.5</ele>
        <time>2020-08-20T08:40:46Z</time>
        <sat>10</sat>
      </trkpt>
      <trkpt lat="42.364349" lon="-3.621211">
        <ele>885.5</ele>
        <time>2020-08-20T08:40:52Z</time>
        <sat>10</sat>
      </trkpt>
      <trkpt lat="42.364364" lon="-3.621335">
        <ele>885.5</ele>
        <time>2020-08-20T08:40:59Z</time>
        <sat>10</sat>
      </trkpt>
      <trkpt lat="42.364369" lon="-3.621448">
        <ele>885.5</ele>
        <time>2020-08-20T08:41:05Z</time>
        <sat>10</sat>
      </trkpt>
      <trkpt lat="42.364370" lon="-3.621567">
        <ele>885.4</ele>
        <time>2020-08-20T08:41:12Z</time>
        <sat>10</sat>
      </trkpt>
      <trkpt lat="42.364340" lon="-3.621677">
        <ele>885.3</ele>
        <time>2020-08-20T08:41:18Z</time>
        <sat>10</sat>
      </trkpt>
      <trkpt lat="42.364311" lon="-3.621798">
        <ele>885.2</ele>
        <time>2020-08-20T08:41:25Z</time>
        <sat>10</sat>
      </trkpt>
      <trkpt lat="42.364288" lon="-3.621911">
        <ele>880.7</ele>
        <time>2020-08-20T08:41:32Z</time>
        <sat>10</sat>
      </trkpt>
      <trkpt lat="42.364245" lon="-3.622016">
        <ele>884.7</ele>
        <time>2020-08-20T08:41:38Z</time>
        <sat>10</sat>
      </trkpt>
      <trkpt lat="42.364220" lon="-3.622126">
        <ele>884.7</ele>
        <time>2020-08-20T08:41:44Z</time>
        <sat>10</sat>
      </trkpt>
      <trkpt lat="42.364196" lon="-3.622239">
        <ele>883.2</ele>
        <time>2020-08-20T08:41:52Z</time>
        <sat>10</sat>
      </trkpt>
      <trkpt lat="42.364167" lon="-3.622342">
        <ele>882.1</ele>
        <time>2020-08-20T08:41:59Z</time>
        <sat>10</sat>
      </trkpt>
      <trkpt lat="42.364150" lon="-3.622462">
        <ele>881.4</ele>
        <time>2020-08-20T08:42:07Z</time>
        <sat>10</sat>
      </trkpt>
      <trkpt lat="42.364132" lon="-3.622583">
        <ele>881.3</ele>
        <time>2020-08-20T08:42:14Z</time>
        <sat>10</sat>
      </trkpt>
      <trkpt lat="42.364103" lon="-3.622716">
        <ele>880.9</ele>
        <time>2020-08-20T08:42:22Z</time>
        <sat>10</sat>
      </trkpt>
      <trkpt lat="42.364084" lon="-3.622845">
        <ele>883.5</ele>
        <time>2020-08-20T08:42:29Z</time>
        <sat>10</sat>
      </trkpt>
      <trkpt lat="42.364042" lon="-3.622944">
        <ele>884.1</ele>
        <time>2020-08-20T08:42:36Z</time>
        <sat>10</sat>
      </trkpt>
      <trkpt lat="42.364011" lon="-3.623063">
        <ele>884.4</ele>
        <time>2020-08-20T08:42:43Z</time>
        <sat>10</sat>
      </trkpt>
      <trkpt lat="42.363998" lon="-3.623182">
        <ele>884.7</ele>
        <time>2020-08-20T08:42:53Z</time>
        <sat>9</sat>
      </trkpt>
      <trkpt lat="42.363981" lon="-3.623298">
        <ele>884.7</ele>
        <time>2020-08-20T08:42:59Z</time>
        <sat>10</sat>
      </trkpt>
      <trkpt lat="42.363959" lon="-3.623415">
        <ele>884.6</ele>
        <time>2020-08-20T08:43:05Z</time>
        <sat>10</sat>
      </trkpt>
      <trkpt lat="42.363952" lon="-3.623537">
        <ele>884.5</ele>
        <time>2020-08-20T08:43:11Z</time>
        <sat>10</sat>
      </trkpt>
      <trkpt lat="42.363931" lon="-3.623658">
        <ele>884.3</ele>
        <time>2020-08-20T08:43:18Z</time>
        <sat>10</sat>
      </trkpt>
      <trkpt lat="42.363921" lon="-3.623770">
        <ele>884.3</ele>
        <time>2020-08-20T08:43:28Z</time>
        <sat>10</sat>
      </trkpt>
      <trkpt lat="42.363890" lon="-3.623884">
        <ele>884.2</ele>
        <time>2020-08-20T08:43:35Z</time>
        <sat>10</sat>
      </trkpt>
      <trkpt lat="42.363865" lon="-3.623994">
        <ele>884.0</ele>
        <time>2020-08-20T08:43:41Z</time>
        <sat>10</sat>
      </trkpt>
      <trkpt lat="42.363840" lon="-3.624102">
        <ele>883.7</ele>
        <time>2020-08-20T08:43:47Z</time>
        <sat>10</sat>
      </trkpt>
      <trkpt lat="42.363816" lon="-3.624222">
        <ele>883.6</ele>
        <time>2020-08-20T08:43:54Z</time>
        <sat>10</sat>
      </trkpt>
      <trkpt lat="42.363799" lon="-3.624346">
        <ele>883.4</ele>
        <time>2020-08-20T08:44:01Z</time>
        <sat>10</sat>
      </trkpt>
      <trkpt lat="42.363778" lon="-3.624454">
        <ele>883.5</ele>
        <time>2020-08-20T08:44:07Z</time>
        <sat>10</sat>
      </trkpt>
      <trkpt lat="42.363751" lon="-3.624569">
        <ele>883.7</ele>
        <time>2020-08-20T08:44:14Z</time>
        <sat>10</sat>
      </trkpt>
      <trkpt lat="42.363721" lon="-3.624687">
        <ele>883.8</ele>
        <time>2020-08-20T08:44:21Z</time>
        <sat>10</sat>
      </trkpt>
      <trkpt lat="42.363697" lon="-3.624808">
        <ele>883.8</ele>
        <time>2020-08-20T08:44:27Z</time>
        <sat>10</sat>
      </trkpt>
      <trkpt lat="42.363678" lon="-3.624929">
        <ele>883.8</ele>
        <time>2020-08-20T08:44:34Z</time>
        <sat>10</sat>
      </trkpt>
      <trkpt lat="42.363654" lon="-3.625043">
        <ele>883.6</ele>
        <time>2020-08-20T08:44:40Z</time>
        <sat>10</sat>
      </trkpt>
      <trkpt lat="42.363633" lon="-3.625149">
        <ele>883.4</ele>
        <time>2020-08-20T08:44:46Z</time>
        <sat>10</sat>
      </trkpt>
      <trkpt lat="42.363612" lon="-3.625261">
        <ele>883.3</ele>
        <time>2020-08-20T08:44:52Z</time>
        <sat>10</sat>
      </trkpt>
      <trkpt lat="42.363595" lon="-3.625388">
        <ele>883.3</ele>
        <time>2020-08-20T08:44:59Z</time>
        <sat>10</sat>
      </trkpt>
      <trkpt lat="42.363571" lon="-3.625509">
        <ele>883.4</ele>
        <time>2020-08-20T08:45:06Z</time>
        <sat>10</sat>
      </trkpt>
      <trkpt lat="42.363552" lon="-3.625621">
        <ele>883.6</ele>
        <time>2020-08-20T08:45:12Z</time>
        <sat>10</sat>
      </trkpt>
      <trkpt lat="42.363533" lon="-3.625727">
        <ele>883.8</ele>
        <time>2020-08-20T08:45:18Z</time>
        <sat>10</sat>
      </trkpt>
      <trkpt lat="42.363470" lon="-3.625809">
        <ele>883.9</ele>
        <time>2020-08-20T08:45:24Z</time>
        <sat>10</sat>
      </trkpt>
      <trkpt lat="42.363444" lon="-3.625914">
        <ele>883.9</ele>
        <time>2020-08-20T08:45:30Z</time>
        <sat>10</sat>
      </trkpt>
      <trkpt lat="42.363425" lon="-3.626037">
        <ele>883.8</ele>
        <time>2020-08-20T08:45:37Z</time>
        <sat>10</sat>
      </trkpt>
      <trkpt lat="42.363419" lon="-3.626154">
        <ele>883.7</ele>
        <time>2020-08-20T08:45:45Z</time>
        <sat>10</sat>
      </trkpt>
      <trkpt lat="42.363426" lon="-3.626268">
        <ele>883.6</ele>
        <time>2020-08-20T08:45:51Z</time>
        <sat>10</sat>
      </trkpt>
      <trkpt lat="42.363408" lon="-3.626380">
        <ele>883.4</ele>
        <time>2020-08-20T08:45:57Z</time>
        <sat>10</sat>
      </trkpt>
      <trkpt lat="42.363389" lon="-3.626498">
        <ele>883.2</ele>
        <time>2020-08-20T08:46:04Z</time>
        <sat>10</sat>
      </trkpt>
      <trkpt lat="42.363358" lon="-3.626621">
        <ele>883.1</ele>
        <time>2020-08-20T08:46:11Z</time>
        <sat>10</sat>
      </trkpt>
      <trkpt lat="42.363340" lon="-3.626731">
        <ele>882.7</ele>
        <time>2020-08-20T08:46:17Z</time>
        <sat>10</sat>
      </trkpt>
      <trkpt lat="42.363325" lon="-3.626850">
        <ele>882.7</ele>
        <time>2020-08-20T08:46:24Z</time>
        <sat>10</sat>
      </trkpt>
      <trkpt lat="42.363301" lon="-3.626960">
        <ele>882.7</ele>
        <time>2020-08-20T08:46:31Z</time>
        <sat>10</sat>
      </trkpt>
      <trkpt lat="42.363274" lon="-3.627069">
        <ele>882.7</ele>
        <time>2020-08-20T08:46:38Z</time>
        <sat>10</sat>
      </trkpt>
      <trkpt lat="42.363247" lon="-3.627194">
        <ele>882.3</ele>
        <time>2020-08-20T08:46:45Z</time>
        <sat>10</sat>
      </trkpt>
      <trkpt lat="42.363229" lon="-3.627310">
        <ele>882.0</ele>
        <time>2020-08-20T08:46:51Z</time>
        <sat>10</sat>
      </trkpt>
      <trkpt lat="42.363213" lon="-3.627434">
        <ele>882.0</ele>
        <time>2020-08-20T08:46:58Z</time>
        <sat>10</sat>
      </trkpt>
      <trkpt lat="42.363183" lon="-3.627543">
        <ele>881.9</ele>
        <time>2020-08-20T08:47:05Z</time>
        <sat>10</sat>
      </trkpt>
      <trkpt lat="42.363148" lon="-3.627648">
        <ele>881.7</ele>
        <time>2020-08-20T08:47:11Z</time>
        <sat>10</sat>
      </trkpt>
      <trkpt lat="42.363123" lon="-3.627755">
        <ele>881.8</ele>
        <time>2020-08-20T08:47:17Z</time>
        <sat>10</sat>
      </trkpt>
      <trkpt lat="42.363111" lon="-3.627880">
        <ele>882.0</ele>
        <time>2020-08-20T08:47:24Z</time>
        <sat>8</sat>
      </trkpt>
      <trkpt lat="42.363091" lon="-3.627995">
        <ele>882.0</ele>
        <time>2020-08-20T08:47:30Z</time>
        <sat>10</sat>
      </trkpt>
      <trkpt lat="42.363071" lon="-3.628107">
        <ele>881.9</ele>
        <time>2020-08-20T08:47:36Z</time>
        <sat>10</sat>
      </trkpt>
      <trkpt lat="42.363048" lon="-3.628218">
        <ele>882.0</ele>
        <time>2020-08-20T08:47:42Z</time>
        <sat>9</sat>
      </trkpt>
      <trkpt lat="42.363036" lon="-3.628328">
        <ele>882.1</ele>
        <time>2020-08-20T08:47:48Z</time>
        <sat>9</sat>
      </trkpt>
      <trkpt lat="42.363014" lon="-3.628435">
        <ele>882.1</ele>
        <time>2020-08-20T08:47:54Z</time>
        <sat>10</sat>
      </trkpt>
      <trkpt lat="42.362995" lon="-3.628558">
        <ele>881.9</ele>
        <time>2020-08-20T08:48:01Z</time>
        <sat>10</sat>
      </trkpt>
      <trkpt lat="42.362968" lon="-3.628676">
        <ele>881.3</ele>
        <time>2020-08-20T08:48:08Z</time>
        <sat>10</sat>
      </trkpt>
      <trkpt lat="42.362949" lon="-3.628796">
        <ele>881.1</ele>
        <time>2020-08-20T08:48:15Z</time>
        <sat>10</sat>
      </trkpt>
      <trkpt lat="42.362923" lon="-3.628914">
        <ele>881.1</ele>
        <time>2020-08-20T08:48:22Z</time>
        <sat>10</sat>
      </trkpt>
      <trkpt lat="42.362905" lon="-3.629035">
        <ele>881.0</ele>
        <time>2020-08-20T08:48:29Z</time>
        <sat>10</sat>
      </trkpt>
      <trkpt lat="42.362877" lon="-3.629140">
        <ele>880.9</ele>
        <time>2020-08-20T08:48:35Z</time>
        <sat>10</sat>
      </trkpt>
      <trkpt lat="42.362857" lon="-3.629263">
        <ele>880.9</ele>
        <time>2020-08-20T08:48:42Z</time>
        <sat>10</sat>
      </trkpt>
      <trkpt lat="42.362832" lon="-3.629372">
        <ele>881.1</ele>
        <time>2020-08-20T08:48:48Z</time>
        <sat>10</sat>
      </trkpt>
      <trkpt lat="42.362813" lon="-3.629485">
        <ele>881.2</ele>
        <time>2020-08-20T08:48:54Z</time>
        <sat>10</sat>
      </trkpt>
      <trkpt lat="42.362789" lon="-3.629605">
        <ele>881.3</ele>
        <time>2020-08-20T08:49:01Z</time>
        <sat>10</sat>
      </trkpt>
      <trkpt lat="42.362761" lon="-3.629711">
        <ele>881.2</ele>
        <time>2020-08-20T08:49:07Z</time>
        <sat>10</sat>
      </trkpt>
      <trkpt lat="42.362749" lon="-3.629838">
        <ele>881.1</ele>
        <time>2020-08-20T08:49:14Z</time>
        <sat>9</sat>
      </trkpt>
      <trkpt lat="42.362723" lon="-3.629946">
        <ele>881.2</ele>
        <time>2020-08-20T08:49:20Z</time>
        <sat>10</sat>
      </trkpt>
      <trkpt lat="42.362696" lon="-3.630059">
        <ele>881.3</ele>
        <time>2020-08-20T08:49:26Z</time>
        <sat>10</sat>
      </trkpt>
      <trkpt lat="42.362641" lon="-3.630153">
        <ele>881.4</ele>
        <time>2020-08-20T08:49:33Z</time>
        <sat>10</sat>
      </trkpt>
      <trkpt lat="42.362611" lon="-3.630267">
        <ele>881.3</ele>
        <time>2020-08-20T08:49:39Z</time>
        <sat>10</sat>
      </trkpt>
      <trkpt lat="42.362572" lon="-3.630384">
        <ele>881.0</ele>
        <time>2020-08-20T08:49:45Z</time>
        <sat>10</sat>
      </trkpt>
      <trkpt lat="42.362535" lon="-3.630498">
        <ele>880.8</ele>
        <time>2020-08-20T08:49:52Z</time>
        <sat>10</sat>
      </trkpt>
      <trkpt lat="42.362523" lon="-3.630608">
        <ele>880.7</ele>
        <time>2020-08-20T08:49:58Z</time>
        <sat>10</sat>
      </trkpt>
      <trkpt lat="42.362520" lon="-3.630727">
        <ele>880.6</ele>
        <time>2020-08-20T08:50:05Z</time>
        <sat>10</sat>
      </trkpt>
      <trkpt lat="42.362536" lon="-3.630840">
        <ele>880.5</ele>
        <time>2020-08-20T08:50:12Z</time>
        <sat>9</sat>
      </trkpt>
      <trkpt lat="42.362528" lon="-3.630956">
        <ele>880.4</ele>
        <time>2020-08-20T08:50:19Z</time>
        <sat>10</sat>
      </trkpt>
      <trkpt lat="42.362505" lon="-3.631071">
        <ele>880.4</ele>
        <time>2020-08-20T08:50:25Z</time>
        <sat>10</sat>
      </trkpt>
      <trkpt lat="42.362493" lon="-3.631181">
        <ele>880.5</ele>
        <time>2020-08-20T08:50:31Z</time>
        <sat>10</sat>
      </trkpt>
      <trkpt lat="42.362473" lon="-3.631301">
        <ele>880.6</ele>
        <time>2020-08-20T08:50:38Z</time>
        <sat>10</sat>
      </trkpt>
      <trkpt lat="42.362452" lon="-3.631423">
        <ele>880.7</ele>
        <time>2020-08-20T08:50:45Z</time>
        <sat>10</sat>
      </trkpt>
      <trkpt lat="42.362428" lon="-3.631546">
        <ele>880.8</ele>
        <time>2020-08-20T08:50:52Z</time>
        <sat>10</sat>
      </trkpt>
      <trkpt lat="42.362407" lon="-3.631654">
        <ele>880.6</ele>
        <time>2020-08-20T08:50:58Z</time>
        <sat>10</sat>
      </trkpt>
      <trkpt lat="42.362384" lon="-3.631774">
        <ele>880.5</ele>
        <time>2020-08-20T08:51:05Z</time>
        <sat>10</sat>
      </trkpt>
      <trkpt lat="42.362366" lon="-3.631898">
        <ele>880.2</ele>
        <time>2020-08-20T08:51:12Z</time>
        <sat>10</sat>
      </trkpt>
      <trkpt lat="42.362346" lon="-3.632015">
        <ele>880.1</ele>
        <time>2020-08-20T08:51:19Z</time>
        <sat>10</sat>
      </trkpt>
      <trkpt lat="42.362321" lon="-3.632128">
        <ele>880.0</ele>
        <time>2020-08-20T08:51:25Z</time>
        <sat>10</sat>
      </trkpt>
      <trkpt lat="42.362298" lon="-3.632234">
        <ele>880.3</ele>
        <time>2020-08-20T08:51:31Z</time>
        <sat>10</sat>
      </trkpt>
      <trkpt lat="42.362268" lon="-3.632353">
        <ele>880.1</ele>
        <time>2020-08-20T08:51:38Z</time>
        <sat>10</sat>
      </trkpt>
      <trkpt lat="42.362246" lon="-3.632465">
        <ele>879.7</ele>
        <time>2020-08-20T08:51:44Z</time>
        <sat>10</sat>
      </trkpt>
      <trkpt lat="42.362219" lon="-3.632585">
        <ele>879.8</ele>
        <time>2020-08-20T08:51:51Z</time>
        <sat>10</sat>
      </trkpt>
      <trkpt lat="42.362201" lon="-3.632710">
        <ele>879.9</ele>
        <time>2020-08-20T08:51:58Z</time>
        <sat>10</sat>
      </trkpt>
      <trkpt lat="42.362173" lon="-3.632815">
        <ele>879.9</ele>
        <time>2020-08-20T08:52:04Z</time>
        <sat>10</sat>
      </trkpt>
      <trkpt lat="42.362155" lon="-3.632923">
        <ele>879.8</ele>
        <time>2020-08-20T08:52:10Z</time>
        <sat>10</sat>
      </trkpt>
      <trkpt lat="42.362134" lon="-3.633029">
        <ele>879.6</ele>
        <time>2020-08-20T08:52:16Z</time>
        <sat>10</sat>
      </trkpt>
      <trkpt lat="42.362108" lon="-3.633148">
        <ele>879.5</ele>
        <time>2020-08-20T08:52:23Z</time>
        <sat>10</sat>
      </trkpt>
      <trkpt lat="42.362080" lon="-3.633266">
        <ele>879.5</ele>
        <time>2020-08-20T08:52:30Z</time>
        <sat>10</sat>
      </trkpt>
      <trkpt lat="42.362056" lon="-3.633384">
        <ele>879.5</ele>
        <time>2020-08-20T08:52:37Z</time>
        <sat>10</sat>
      </trkpt>
      <trkpt lat="42.362031" lon="-3.633490">
        <ele>879.4</ele>
        <time>2020-08-20T08:52:43Z</time>
        <sat>10</sat>
      </trkpt>
      <trkpt lat="42.362013" lon="-3.633604">
        <ele>879.2</ele>
        <time>2020-08-20T08:52:49Z</time>
        <sat>10</sat>
      </trkpt>
      <trkpt lat="42.361993" lon="-3.633714">
        <ele>879.1</ele>
        <time>2020-08-20T08:52:55Z</time>
        <sat>10</sat>
      </trkpt>
      <trkpt lat="42.361965" lon="-3.633822">
        <ele>878.9</ele>
        <time>2020-08-20T08:53:01Z</time>
        <sat>10</sat>
      </trkpt>
      <trkpt lat="42.361942" lon="-3.633934">
        <ele>878.8</ele>
        <time>2020-08-20T08:53:07Z</time>
        <sat>10</sat>
      </trkpt>
      <trkpt lat="42.361920" lon="-3.634040">
        <ele>878.7</ele>
        <time>2020-08-20T08:53:13Z</time>
        <sat>10</sat>
      </trkpt>
      <trkpt lat="42.361892" lon="-3.634148">
        <ele>878.6</ele>
        <time>2020-08-20T08:53:19Z</time>
        <sat>10</sat>
      </trkpt>
      <trkpt lat="42.361878" lon="-3.634257">
        <ele>878.5</ele>
        <time>2020-08-20T08:53:25Z</time>
        <sat>10</sat>
      </trkpt>
      <trkpt lat="42.361857" lon="-3.634368">
        <ele>878.4</ele>
        <time>2020-08-20T08:53:31Z</time>
        <sat>10</sat>
      </trkpt>
      <trkpt lat="42.361836" lon="-3.634478">
        <ele>878.2</ele>
        <time>2020-08-20T08:53:37Z</time>
        <sat>10</sat>
      </trkpt>
      <trkpt lat="42.361824" lon="-3.634593">
        <ele>878.0</ele>
        <time>2020-08-20T08:53:43Z</time>
        <sat>10</sat>
      </trkpt>
      <trkpt lat="42.361798" lon="-3.634699">
        <ele>877.9</ele>
        <time>2020-08-20T08:53:49Z</time>
        <sat>10</sat>
      </trkpt>
      <trkpt lat="42.361781" lon="-3.634810">
        <ele>877.8</ele>
        <time>2020-08-20T08:53:55Z</time>
        <sat>10</sat>
      </trkpt>
      <trkpt lat="42.361768" lon="-3.634921">
        <ele>877.8</ele>
        <time>2020-08-20T08:54:01Z</time>
        <sat>10</sat>
      </trkpt>
      <trkpt lat="42.361741" lon="-3.635028">
        <ele>877.7</ele>
        <time>2020-08-20T08:54:07Z</time>
        <sat>10</sat>
      </trkpt>
      <trkpt lat="42.361728" lon="-3.635153">
        <ele>877.6</ele>
        <time>2020-08-20T08:54:14Z</time>
        <sat>10</sat>
      </trkpt>
      <trkpt lat="42.361699" lon="-3.635273">
        <ele>877.8</ele>
        <time>2020-08-20T08:54:21Z</time>
        <sat>10</sat>
      </trkpt>
      <trkpt lat="42.361682" lon="-3.635396">
        <ele>877.6</ele>
        <time>2020-08-20T08:54:28Z</time>
        <sat>10</sat>
      </trkpt>
      <trkpt lat="42.361656" lon="-3.635509">
        <ele>877.4</ele>
        <time>2020-08-20T08:54:34Z</time>
        <sat>10</sat>
      </trkpt>
      <trkpt lat="42.361637" lon="-3.635619">
        <ele>877.0</ele>
        <time>2020-08-20T08:54:40Z</time>
        <sat>10</sat>
      </trkpt>
      <trkpt lat="42.361611" lon="-3.635742">
        <ele>876.8</ele>
        <time>2020-08-20T08:54:47Z</time>
        <sat>10</sat>
      </trkpt>
      <trkpt lat="42.361589" lon="-3.635850">
        <ele>877.0</ele>
        <time>2020-08-20T08:54:53Z</time>
        <sat>10</sat>
      </trkpt>
      <trkpt lat="42.361573" lon="-3.635974">
        <ele>876.5</ele>
        <time>2020-08-20T08:55:00Z</time>
        <sat>9</sat>
      </trkpt>
      <trkpt lat="42.361554" lon="-3.636093">
        <ele>876.4</ele>
        <time>2020-08-20T08:55:07Z</time>
        <sat>10</sat>
      </trkpt>
      <trkpt lat="42.361523" lon="-3.636205">
        <ele>876.4</ele>
        <time>2020-08-20T08:55:14Z</time>
        <sat>9</sat>
      </trkpt>
      <trkpt lat="42.361511" lon="-3.636330">
        <ele>876.4</ele>
        <time>2020-08-20T08:55:21Z</time>
        <sat>10</sat>
      </trkpt>
      <trkpt lat="42.361490" lon="-3.636455">
        <ele>876.2</ele>
        <time>2020-08-20T08:55:28Z</time>
        <sat>10</sat>
      </trkpt>
      <trkpt lat="42.361474" lon="-3.636564">
        <ele>876.1</ele>
        <time>2020-08-20T08:55:34Z</time>
        <sat>10</sat>
      </trkpt>
      <trkpt lat="42.361455" lon="-3.636672">
        <ele>876.0</ele>
        <time>2020-08-20T08:55:40Z</time>
        <sat>10</sat>
      </trkpt>
      <trkpt lat="42.361437" lon="-3.636784">
        <ele>875.9</ele>
        <time>2020-08-20T08:55:46Z</time>
        <sat>10</sat>
      </trkpt>
      <trkpt lat="42.361407" lon="-3.636898">
        <ele>875.7</ele>
        <time>2020-08-20T08:55:52Z</time>
        <sat>10</sat>
      </trkpt>
      <trkpt lat="42.361388" lon="-3.637009">
        <ele>875.5</ele>
        <time>2020-08-20T08:55:58Z</time>
        <sat>10</sat>
      </trkpt>
      <trkpt lat="42.361375" lon="-3.637121">
        <ele>875.4</ele>
        <time>2020-08-20T08:56:04Z</time>
        <sat>10</sat>
      </trkpt>
      <trkpt lat="42.361362" lon="-3.637235">
        <ele>875.4</ele>
        <time>2020-08-20T08:56:10Z</time>
        <sat>10</sat>
      </trkpt>
      <trkpt lat="42.361336" lon="-3.637346">
        <ele>875.4</ele>
        <time>2020-08-20T08:56:17Z</time>
        <sat>10</sat>
      </trkpt>
      <trkpt lat="42.361312" lon="-3.637464">
        <ele>875.1</ele>
        <time>2020-08-20T08:56:23Z</time>
        <sat>9</sat>
      </trkpt>
      <trkpt lat="42.361289" lon="-3.637586">
        <ele>875.0</ele>
        <time>2020-08-20T08:56:30Z</time>
        <sat>10</sat>
      </trkpt>
      <trkpt lat="42.361275" lon="-3.637695">
        <ele>874.8</ele>
        <time>2020-08-20T08:56:36Z</time>
        <sat>9</sat>
      </trkpt>
      <trkpt lat="42.361252" lon="-3.637801">
        <ele>874.7</ele>
        <time>2020-08-20T08:56:42Z</time>
        <sat>9</sat>
      </trkpt>
      <trkpt lat="42.361224" lon="-3.637912">
        <ele>874.8</ele>
        <time>2020-08-20T08:56:48Z</time>
        <sat>10</sat>
      </trkpt>
      <trkpt lat="42.361206" lon="-3.638023">
        <ele>874.8</ele>
        <time>2020-08-20T08:56:54Z</time>
        <sat>10</sat>
      </trkpt>
      <trkpt lat="42.361179" lon="-3.638145">
        <ele>874.8</ele>
        <time>2020-08-20T08:57:01Z</time>
        <sat>10</sat>
      </trkpt>
      <trkpt lat="42.361156" lon="-3.638266">
        <ele>874.7</ele>
        <time>2020-08-20T08:57:08Z</time>
        <sat>10</sat>
      </trkpt>
      <trkpt lat="42.361129" lon="-3.638386">
        <ele>874.8</ele>
        <time>2020-08-20T08:57:15Z</time>
        <sat>9</sat>
      </trkpt>
      <trkpt lat="42.361099" lon="-3.638507">
        <ele>874.9</ele>
        <time>2020-08-20T08:57:22Z</time>
        <sat>10</sat>
      </trkpt>
      <trkpt lat="42.361050" lon="-3.638596">
        <ele>874.9</ele>
        <time>2020-08-20T08:57:28Z</time>
        <sat>10</sat>
      </trkpt>
      <trkpt lat="42.360969" lon="-3.638699">
        <ele>875.3</ele>
        <time>2020-08-20T09:17:09Z</time>
        <sat>10</sat>
      </trkpt>
      <trkpt lat="42.360928" lon="-3.638805">
        <ele>875.1</ele>
        <time>2020-08-20T09:17:23Z</time>
        <sat>11</sat>
      </trkpt>
      <trkpt lat="42.360877" lon="-3.638893">
        <ele>874.8</ele>
        <time>2020-08-20T09:17:29Z</time>
        <sat>11</sat>
      </trkpt>
      <trkpt lat="42.360799" lon="-3.638965">
        <ele>875.1</ele>
        <time>2020-08-20T09:17:36Z</time>
        <sat>11</sat>
      </trkpt>
      <trkpt lat="42.360725" lon="-3.639016">
        <ele>875.2</ele>
        <time>2020-08-20T09:17:42Z</time>
        <sat>11</sat>
      </trkpt>
      <trkpt lat="42.360656" lon="-3.639077">
        <ele>872.9</ele>
        <time>2020-08-20T09:17:50Z</time>
        <sat>11</sat>
      </trkpt>
      <trkpt lat="42.360620" lon="-3.639188">
        <ele>875.5</ele>
        <time>2020-08-20T09:17:59Z</time>
        <sat>11</sat>
      </trkpt>
      <trkpt lat="42.360584" lon="-3.639304">
        <ele>875.7</ele>
        <time>2020-08-20T09:18:07Z</time>
        <sat>11</sat>
      </trkpt>
      <trkpt lat="42.360541" lon="-3.639414">
        <ele>875.5</ele>
        <time>2020-08-20T09:18:14Z</time>
        <sat>11</sat>
      </trkpt>
      <trkpt lat="42.360501" lon="-3.639516">
        <ele>875.4</ele>
        <time>2020-08-20T09:18:20Z</time>
        <sat>11</sat>
      </trkpt>
      <trkpt lat="42.360477" lon="-3.639623">
        <ele>875.3</ele>
        <time>2020-08-20T09:18:27Z</time>
        <sat>11</sat>
      </trkpt>
      <trkpt lat="42.360464" lon="-3.639731">
        <ele>875.2</ele>
        <time>2020-08-20T09:18:33Z</time>
        <sat>11</sat>
      </trkpt>
      <trkpt lat="42.360453" lon="-3.639847">
        <ele>875.4</ele>
        <time>2020-08-20T09:18:40Z</time>
        <sat>12</sat>
      </trkpt>
      <trkpt lat="42.360420" lon="-3.639959">
        <ele>875.5</ele>
        <time>2020-08-20T09:18:47Z</time>
        <sat>12</sat>
      </trkpt>
      <trkpt lat="42.360442" lon="-3.640067">
        <ele>875.2</ele>
        <time>2020-08-20T09:18:56Z</time>
        <sat>12</sat>
      </trkpt>
      <trkpt lat="42.360498" lon="-3.640158">
        <ele>875.0</ele>
        <time>2020-08-20T09:19:03Z</time>
        <sat>12</sat>
      </trkpt>
      <trkpt lat="42.360549" lon="-3.640248">
        <ele>874.9</ele>
        <time>2020-08-20T09:19:10Z</time>
        <sat>12</sat>
      </trkpt>
      <trkpt lat="42.360525" lon="-3.640357">
        <ele>874.8</ele>
        <time>2020-08-20T09:19:18Z</time>
        <sat>12</sat>
      </trkpt>
      <trkpt lat="42.360470" lon="-3.640448">
        <ele>875.0</ele>
        <time>2020-08-20T09:19:25Z</time>
        <sat>12</sat>
      </trkpt>
      <trkpt lat="42.360458" lon="-3.640563">
        <ele>874.9</ele>
        <time>2020-08-20T09:19:32Z</time>
        <sat>12</sat>
      </trkpt>
      <trkpt lat="42.360460" lon="-3.640680">
        <ele>874.4</ele>
        <time>2020-08-20T09:19:40Z</time>
        <sat>12</sat>
      </trkpt>
      <trkpt lat="42.360471" lon="-3.640801">
        <ele>874.3</ele>
        <time>2020-08-20T09:19:47Z</time>
        <sat>12</sat>
      </trkpt>
      <trkpt lat="42.360468" lon="-3.640911">
        <ele>874.3</ele>
        <time>2020-08-20T09:19:53Z</time>
        <sat>12</sat>
      </trkpt>
      <trkpt lat="42.360467" lon="-3.641035">
        <ele>874.4</ele>
        <time>2020-08-20T09:20:00Z</time>
        <sat>12</sat>
      </trkpt>
      <trkpt lat="42.360457" lon="-3.641160">
        <ele>874.5</ele>
        <time>2020-08-20T09:20:07Z</time>
        <sat>12</sat>
      </trkpt>
      <trkpt lat="42.360454" lon="-3.641284">
        <ele>874.5</ele>
        <time>2020-08-20T09:20:14Z</time>
        <sat>12</sat>
      </trkpt>
      <trkpt lat="42.360464" lon="-3.641395">
        <ele>874.5</ele>
        <time>2020-08-20T09:20:20Z</time>
        <sat>12</sat>
      </trkpt>
      <trkpt lat="42.360471" lon="-3.641508">
        <ele>874.6</ele>
        <time>2020-08-20T09:20:27Z</time>
        <sat>11</sat>
      </trkpt>
      <trkpt lat="42.360464" lon="-3.641624">
        <ele>874.6</ele>
        <time>2020-08-20T09:20:34Z</time>
        <sat>12</sat>
      </trkpt>
      <trkpt lat="42.360465" lon="-3.641748">
        <ele>874.6</ele>
        <time>2020-08-20T09:20:41Z</time>
        <sat>12</sat>
      </trkpt>
      <trkpt lat="42.360437" lon="-3.641855">
        <ele>874.8</ele>
        <time>2020-08-20T09:20:47Z</time>
        <sat>12</sat>
      </trkpt>
      <trkpt lat="42.360386" lon="-3.641947">
        <ele>874.9</ele>
        <time>2020-08-20T09:20:54Z</time>
        <sat>12</sat>
      </trkpt>
      <trkpt lat="42.360309" lon="-3.642003">
        <ele>874.4</ele>
        <time>2020-08-20T09:21:01Z</time>
        <sat>12</sat>
      </trkpt>
      <trkpt lat="42.360233" lon="-3.642057">
        <ele>874.1</ele>
        <time>2020-08-20T09:21:08Z</time>
        <sat>12</sat>
      </trkpt>
      <trkpt lat="42.360204" lon="-3.642162">
        <ele>874.2</ele>
        <time>2020-08-20T09:21:14Z</time>
        <sat>12</sat>
      </trkpt>
      <trkpt lat="42.360246" lon="-3.642259">
        <ele>874.9</ele>
        <time>2020-08-20T09:21:22Z</time>
        <sat>12</sat>
      </trkpt>
      <trkpt lat="42.360298" lon="-3.642344">
        <ele>875.2</ele>
        <time>2020-08-20T09:21:28Z</time>
        <sat>12</sat>
      </trkpt>
      <trkpt lat="42.360287" lon="-3.642471">
        <ele>875.2</ele>
        <time>2020-08-20T09:21:35Z</time>
        <sat>12</sat>
      </trkpt>
      <trkpt lat="42.360260" lon="-3.642592">
        <ele>875.1</ele>
        <time>2020-08-20T09:21:42Z</time>
        <sat>12</sat>
      </trkpt>
      <trkpt lat="42.360241" lon="-3.642713">
        <ele>874.6</ele>
        <time>2020-08-20T09:21:49Z</time>
        <sat>12</sat>
      </trkpt>
      <trkpt lat="42.360218" lon="-3.642823">
        <ele>874.5</ele>
        <time>2020-08-20T09:21:55Z</time>
        <sat>12</sat>
      </trkpt>
      <trkpt lat="42.360205" lon="-3.642935">
        <ele>874.4</ele>
        <time>2020-08-20T09:22:01Z</time>
        <sat>12</sat>
      </trkpt>
      <trkpt lat="42.360186" lon="-3.643059">
        <ele>874.5</ele>
        <time>2020-08-20T09:22:08Z</time>
        <sat>12</sat>
      </trkpt>
      <trkpt lat="42.360174" lon="-3.643172">
        <ele>874.2</ele>
        <time>2020-08-20T09:22:14Z</time>
        <sat>12</sat>
      </trkpt>
      <trkpt lat="42.360155" lon="-3.643292">
        <ele>874.1</ele>
        <time>2020-08-20T09:22:21Z</time>
        <sat>12</sat>
      </trkpt>
      <trkpt lat="42.360134" lon="-3.643401">
        <ele>874.1</ele>
        <time>2020-08-20T09:22:27Z</time>
        <sat>12</sat>
      </trkpt>
      <trkpt lat="42.360123" lon="-3.643525">
        <ele>874.2</ele>
        <time>2020-08-20T09:22:34Z</time>
        <sat>12</sat>
      </trkpt>
      <trkpt lat="42.360105" lon="-3.643647">
        <ele>874.0</ele>
        <time>2020-08-20T09:22:41Z</time>
        <sat>12</sat>
      </trkpt>
      <trkpt lat="42.360090" lon="-3.643762">
        <ele>873.9</ele>
        <time>2020-08-20T09:22:48Z</time>
        <sat>12</sat>
      </trkpt>
      <trkpt lat="42.360073" lon="-3.643870">
        <ele>873.8</ele>
        <time>2020-08-20T09:22:54Z</time>
        <sat>12</sat>
      </trkpt>
      <trkpt lat="42.360070" lon="-3.643982">
        <ele>873.7</ele>
        <time>2020-08-20T09:23:00Z</time>
        <sat>12</sat>
      </trkpt>
      <trkpt lat="42.360046" lon="-3.644095">
        <ele>873.6</ele>
        <time>2020-08-20T09:23:06Z</time>
        <sat>12</sat>
      </trkpt>
      <trkpt lat="42.360031" lon="-3.644208">
        <ele>873.7</ele>
        <time>2020-08-20T09:23:12Z</time>
        <sat>12</sat>
      </trkpt>
      <trkpt lat="42.360002" lon="-3.644325">
        <ele>874.0</ele>
        <time>2020-08-20T09:23:19Z</time>
        <sat>11</sat>
      </trkpt>
      <trkpt lat="42.359982" lon="-3.644440">
        <ele>874.1</ele>
        <time>2020-08-20T09:23:25Z</time>
        <sat>12</sat>
      </trkpt>
      <trkpt lat="42.359965" lon="-3.644550">
        <ele>873.9</ele>
        <time>2020-08-20T09:23:31Z</time>
        <sat>12</sat>
      </trkpt>
      <trkpt lat="42.359941" lon="-3.644660">
        <ele>873.9</ele>
        <time>2020-08-20T09:23:37Z</time>
        <sat>12</sat>
      </trkpt>
      <trkpt lat="42.359918" lon="-3.644782">
        <ele>874.1</ele>
        <time>2020-08-20T09:23:44Z</time>
        <sat>12</sat>
      </trkpt>
      <trkpt lat="42.359902" lon="-3.644895">
        <ele>874.2</ele>
        <time>2020-08-20T09:23:50Z</time>
        <sat>12</sat>
      </trkpt>
      <trkpt lat="42.359885" lon="-3.645006">
        <ele>874.2</ele>
        <time>2020-08-20T09:23:56Z</time>
        <sat>12</sat>
      </trkpt>
      <trkpt lat="42.359865" lon="-3.645113">
        <ele>874.1</ele>
        <time>2020-08-20T09:24:02Z</time>
        <sat>12</sat>
      </trkpt>
      <trkpt lat="42.359838" lon="-3.645217">
        <ele>873.9</ele>
        <time>2020-08-20T09:24:08Z</time>
        <sat>12</sat>
      </trkpt>
      <trkpt lat="42.359823" lon="-3.645329">
        <ele>873.7</ele>
        <time>2020-08-20T09:24:14Z</time>
        <sat>12</sat>
      </trkpt>
      <trkpt lat="42.359797" lon="-3.645450">
        <ele>873.8</ele>
        <time>2020-08-20T09:24:21Z</time>
        <sat>12</sat>
      </trkpt>
      <trkpt lat="42.359777" lon="-3.645557">
        <ele>873.7</ele>
        <time>2020-08-20T09:24:27Z</time>
        <sat>12</sat>
      </trkpt>
      <trkpt lat="42.359759" lon="-3.645684">
        <ele>873.6</ele>
        <time>2020-08-20T09:24:34Z</time>
        <sat>11</sat>
      </trkpt>
      <trkpt lat="42.359731" lon="-3.645795">
        <ele>873.6</ele>
        <time>2020-08-20T09:24:40Z</time>
        <sat>11</sat>
      </trkpt>
      <trkpt lat="42.359713" lon="-3.645915">
        <ele>873.6</ele>
        <time>2020-08-20T09:24:46Z</time>
        <sat>11</sat>
      </trkpt>
      <trkpt lat="42.359680" lon="-3.646034">
        <ele>873.6</ele>
        <time>2020-08-20T09:24:53Z</time>
        <sat>11</sat>
      </trkpt>
      <trkpt lat="42.359662" lon="-3.646148">
        <ele>873.5</ele>
        <time>2020-08-20T09:24:59Z</time>
        <sat>11</sat>
      </trkpt>
      <trkpt lat="42.359642" lon="-3.646268">
        <ele>873.9</ele>
        <time>2020-08-20T09:25:06Z</time>
        <sat>11</sat>
      </trkpt>
      <trkpt lat="42.359615" lon="-3.646389">
        <ele>873.9</ele>
        <time>2020-08-20T09:25:13Z</time>
        <sat>11</sat>
      </trkpt>
      <trkpt lat="42.359591" lon="-3.646501">
        <ele>873.7</ele>
        <time>2020-08-20T09:25:19Z</time>
        <sat>11</sat>
      </trkpt>
      <trkpt lat="42.359562" lon="-3.646608">
        <ele>873.8</ele>
        <time>2020-08-20T09:25:25Z</time>
        <sat>11</sat>
      </trkpt>
      <trkpt lat="42.359533" lon="-3.646728">
        <ele>873.5</ele>
        <time>2020-08-20T09:25:32Z</time>
        <sat>11</sat>
      </trkpt>
      <trkpt lat="42.359503" lon="-3.646838">
        <ele>873.5</ele>
        <time>2020-08-20T09:25:38Z</time>
        <sat>11</sat>
      </trkpt>
      <trkpt lat="42.359474" lon="-3.646955">
        <ele>873.5</ele>
        <time>2020-08-20T09:25:45Z</time>
        <sat>11</sat>
      </trkpt>
      <trkpt lat="42.359441" lon="-3.647069">
        <ele>873.3</ele>
        <time>2020-08-20T09:25:51Z</time>
        <sat>11</sat>
      </trkpt>
      <trkpt lat="42.359414" lon="-3.647177">
        <ele>873.3</ele>
        <time>2020-08-20T09:25:57Z</time>
        <sat>11</sat>
      </trkpt>
      <trkpt lat="42.359394" lon="-3.647284">
        <ele>873.3</ele>
        <time>2020-08-20T09:26:03Z</time>
        <sat>11</sat>
      </trkpt>
      <trkpt lat="42.359360" lon="-3.647392">
        <ele>873.2</ele>
        <time>2020-08-20T09:26:10Z</time>
        <sat>11</sat>
      </trkpt>
      <trkpt lat="42.359330" lon="-3.647511">
        <ele>873.1</ele>
        <time>2020-08-20T09:26:17Z</time>
        <sat>11</sat>
      </trkpt>
      <trkpt lat="42.359301" lon="-3.647614">
        <ele>873.0</ele>
        <time>2020-08-20T09:26:23Z</time>
        <sat>11</sat>
      </trkpt>
      <trkpt lat="42.359272" lon="-3.647720">
        <ele>873.2</ele>
        <time>2020-08-20T09:26:29Z</time>
        <sat>11</sat>
      </trkpt>
      <trkpt lat="42.359246" lon="-3.647828">
        <ele>873.2</ele>
        <time>2020-08-20T09:26:35Z</time>
        <sat>11</sat>
      </trkpt>
      <trkpt lat="42.359215" lon="-3.647932">
        <ele>873.2</ele>
        <time>2020-08-20T09:26:41Z</time>
        <sat>11</sat>
      </trkpt>
      <trkpt lat="42.359194" lon="-3.648039">
        <ele>873.1</ele>
        <time>2020-08-20T09:26:47Z</time>
        <sat>11</sat>
      </trkpt>
      <trkpt lat="42.359165" lon="-3.648143">
        <ele>873.1</ele>
        <time>2020-08-20T09:26:53Z</time>
        <sat>11</sat>
      </trkpt>
      <trkpt lat="42.359139" lon="-3.648263">
        <ele>873.0</ele>
        <time>2020-08-20T09:27:00Z</time>
        <sat>11</sat>
      </trkpt>
      <trkpt lat="42.359095" lon="-3.648374">
        <ele>872.9</ele>
        <time>2020-08-20T09:27:07Z</time>
        <sat>11</sat>
      </trkpt>
      <trkpt lat="42.359063" lon="-3.648484">
        <ele>872.7</ele>
        <time>2020-08-20T09:27:13Z</time>
        <sat>11</sat>
      </trkpt>
      <trkpt lat="42.359033" lon="-3.648604">
        <ele>872.4</ele>
        <time>2020-08-20T09:27:20Z</time>
        <sat>10</sat>
      </trkpt>
      <trkpt lat="42.359005" lon="-3.648708">
        <ele>872.5</ele>
        <time>2020-08-20T09:27:26Z</time>
        <sat>11</sat>
      </trkpt>
      <trkpt lat="42.358982" lon="-3.648814">
        <ele>872.9</ele>
        <time>2020-08-20T09:27:32Z</time>
        <sat>11</sat>
      </trkpt>
      <trkpt lat="42.358947" lon="-3.648919">
        <ele>872.9</ele>
        <time>2020-08-20T09:27:38Z</time>
        <sat>11</sat>
      </trkpt>
      <trkpt lat="42.358914" lon="-3.649035">
        <ele>872.6</ele>
        <time>2020-08-20T09:27:45Z</time>
        <sat>11</sat>
      </trkpt>
      <trkpt lat="42.358874" lon="-3.649151">
        <ele>872.4</ele>
        <time>2020-08-20T09:27:52Z</time>
        <sat>11</sat>
      </trkpt>
      <trkpt lat="42.358842" lon="-3.649271">
        <ele>872.4</ele>
        <time>2020-08-20T09:27:58Z</time>
        <sat>11</sat>
      </trkpt>
      <trkpt lat="42.358809" lon="-3.649372">
        <ele>872.4</ele>
        <time>2020-08-20T09:28:04Z</time>
        <sat>11</sat>
      </trkpt>
      <trkpt lat="42.358774" lon="-3.649488">
        <ele>872.4</ele>
        <time>2020-08-20T09:28:11Z</time>
        <sat>11</sat>
      </trkpt>
      <trkpt lat="42.358755" lon="-3.649594">
        <ele>872.3</ele>
        <time>2020-08-20T09:28:17Z</time>
        <sat>11</sat>
      </trkpt>
      <trkpt lat="42.358724" lon="-3.649696">
        <ele>872.2</ele>
        <time>2020-08-20T09:28:23Z</time>
        <sat>11</sat>
      </trkpt>
      <trkpt lat="42.358690" lon="-3.649813">
        <ele>872.2</ele>
        <time>2020-08-20T09:28:30Z</time>
        <sat>10</sat>
      </trkpt>
      <trkpt lat="42.358654" lon="-3.649914">
        <ele>872.1</ele>
        <time>2020-08-20T09:28:36Z</time>
        <sat>11</sat>
      </trkpt>
      <trkpt lat="42.358632" lon="-3.650024">
        <ele>872.3</ele>
        <time>2020-08-20T09:28:42Z</time>
        <sat>10</sat>
      </trkpt>
      <trkpt lat="42.358600" lon="-3.650125">
        <ele>872.6</ele>
        <time>2020-08-20T09:28:48Z</time>
        <sat>11</sat>
      </trkpt>
      <trkpt lat="42.358562" lon="-3.650227">
        <ele>871.4</ele>
        <time>2020-08-20T09:28:54Z</time>
        <sat>10</sat>
      </trkpt>
      <trkpt lat="42.358544" lon="-3.650341">
        <ele>871.6</ele>
        <time>2020-08-20T09:29:01Z</time>
        <sat>11</sat>
      </trkpt>
      <trkpt lat="42.358514" lon="-3.650449">
        <ele>871.8</ele>
        <time>2020-08-20T09:29:07Z</time>
        <sat>11</sat>
      </trkpt>
      <trkpt lat="42.358481" lon="-3.650563">
        <ele>871.8</ele>
        <time>2020-08-20T09:29:13Z</time>
        <sat>11</sat>
      </trkpt>
      <trkpt lat="42.358461" lon="-3.650671">
        <ele>871.9</ele>
        <time>2020-08-20T09:29:19Z</time>
        <sat>11</sat>
      </trkpt>
      <trkpt lat="42.358424" lon="-3.650774">
        <ele>871.9</ele>
        <time>2020-08-20T09:29:25Z</time>
        <sat>11</sat>
      </trkpt>
      <trkpt lat="42.358393" lon="-3.650883">
        <ele>872.0</ele>
        <time>2020-08-20T09:29:31Z</time>
        <sat>11</sat>
      </trkpt>
      <trkpt lat="42.358317" lon="-3.650956">
        <ele>872.1</ele>
        <time>2020-08-20T09:29:38Z</time>
        <sat>11</sat>
      </trkpt>
      <trkpt lat="42.358234" lon="-3.650978">
        <ele>872.2</ele>
        <time>2020-08-20T09:29:44Z</time>
        <sat>11</sat>
      </trkpt>
      <trkpt lat="42.358147" lon="-3.650987">
        <ele>872.0</ele>
        <time>2020-08-20T09:29:51Z</time>
        <sat>11</sat>
      </trkpt>
      <trkpt lat="42.358107" lon="-3.651095">
        <ele>871.9</ele>
        <time>2020-08-20T09:29:59Z</time>
        <sat>11</sat>
      </trkpt>
      <trkpt lat="42.358074" lon="-3.651195">
        <ele>871.8</ele>
        <time>2020-08-20T09:30:05Z</time>
        <sat>11</sat>
      </trkpt>
      <trkpt lat="42.358078" lon="-3.651313">
        <ele>871.7</ele>
        <time>2020-08-20T09:30:12Z</time>
        <sat>11</sat>
      </trkpt>
      <trkpt lat="42.358134" lon="-3.651408">
        <ele>871.6</ele>
        <time>2020-08-20T09:30:19Z</time>
        <sat>11</sat>
      </trkpt>
      <trkpt lat="42.358178" lon="-3.651503">
        <ele>871.6</ele>
        <time>2020-08-20T09:30:26Z</time>
        <sat>11</sat>
      </trkpt>
      <trkpt lat="42.358183" lon="-3.651627">
        <ele>871.5</ele>
        <time>2020-08-20T09:30:33Z</time>
        <sat>11</sat>
      </trkpt>
      <trkpt lat="42.358155" lon="-3.651736">
        <ele>871.6</ele>
        <time>2020-08-20T09:30:39Z</time>
        <sat>10</sat>
      </trkpt>
      <trkpt lat="42.358122" lon="-3.651849">
        <ele>871.5</ele>
        <time>2020-08-20T09:30:46Z</time>
        <sat>11</sat>
      </trkpt>
      <trkpt lat="42.358087" lon="-3.651963">
        <ele>871.6</ele>
        <time>2020-08-20T09:30:53Z</time>
        <sat>11</sat>
      </trkpt>
      <trkpt lat="42.358069" lon="-3.652077">
        <ele>871.4</ele>
        <time>2020-08-20T09:31:01Z</time>
        <sat>11</sat>
      </trkpt>
      <trkpt lat="42.358042" lon="-3.652186">
        <ele>871.3</ele>
        <time>2020-08-20T09:31:07Z</time>
        <sat>11</sat>
      </trkpt>
      <trkpt lat="42.358014" lon="-3.652293">
        <ele>871.4</ele>
        <time>2020-08-20T09:31:13Z</time>
        <sat>11</sat>
      </trkpt>
      <trkpt lat="42.357984" lon="-3.652398">
        <ele>871.4</ele>
        <time>2020-08-20T09:31:19Z</time>
        <sat>11</sat>
      </trkpt>
      <trkpt lat="42.357957" lon="-3.652511">
        <ele>871.3</ele>
        <time>2020-08-20T09:31:25Z</time>
        <sat>11</sat>
      </trkpt>
      <trkpt lat="42.357926" lon="-3.652614">
        <ele>871.0</ele>
        <time>2020-08-20T09:31:31Z</time>
        <sat>10</sat>
      </trkpt>
      <trkpt lat="42.357900" lon="-3.652723">
        <ele>870.9</ele>
        <time>2020-08-20T09:31:37Z</time>
        <sat>11</sat>
      </trkpt>
      <trkpt lat="42.357865" lon="-3.652824">
        <ele>871.0</ele>
        <time>2020-08-20T09:31:43Z</time>
        <sat>11</sat>
      </trkpt>
      <trkpt lat="42.357833" lon="-3.652930">
        <ele>871.0</ele>
        <time>2020-08-20T09:31:49Z</time>
        <sat>11</sat>
      </trkpt>
      <trkpt lat="42.357812" lon="-3.653038">
        <ele>870.7</ele>
        <time>2020-08-20T09:31:55Z</time>
        <sat>11</sat>
      </trkpt>
      <trkpt lat="42.357780" lon="-3.653143">
        <ele>870.6</ele>
        <time>2020-08-20T09:32:01Z</time>
        <sat>11</sat>
      </trkpt>
      <trkpt lat="42.357744" lon="-3.653251">
        <ele>870.5</ele>
        <time>2020-08-20T09:32:07Z</time>
        <sat>11</sat>
      </trkpt>
      <trkpt lat="42.357723" lon="-3.653364">
        <ele>870.3</ele>
        <time>2020-08-20T09:32:13Z</time>
        <sat>11</sat>
      </trkpt>
      <trkpt lat="42.357686" lon="-3.653464">
        <ele>870.3</ele>
        <time>2020-08-20T09:32:19Z</time>
        <sat>10</sat>
      </trkpt>
      <trkpt lat="42.357654" lon="-3.653570">
        <ele>870.2</ele>
        <time>2020-08-20T09:32:25Z</time>
        <sat>11</sat>
      </trkpt>
      <trkpt lat="42.357628" lon="-3.653679">
        <ele>870.3</ele>
        <time>2020-08-20T09:32:31Z</time>
        <sat>11</sat>
      </trkpt>
      <trkpt lat="42.357595" lon="-3.653786">
        <ele>870.2</ele>
        <time>2020-08-20T09:32:37Z</time>
        <sat>11</sat>
      </trkpt>
      <trkpt lat="42.357565" lon="-3.653893">
        <ele>870.2</ele>
        <time>2020-08-20T09:32:43Z</time>
        <sat>11</sat>
      </trkpt>
      <trkpt lat="42.357541" lon="-3.654014">
        <ele>870.2</ele>
        <time>2020-08-20T09:32:50Z</time>
        <sat>11</sat>
      </trkpt>
      <trkpt lat="42.357507" lon="-3.654123">
        <ele>870.2</ele>
        <time>2020-08-20T09:32:56Z</time>
        <sat>11</sat>
      </trkpt>
      <trkpt lat="42.357481" lon="-3.654228">
        <ele>870.1</ele>
        <time>2020-08-20T09:33:02Z</time>
        <sat>11</sat>
      </trkpt>
      <trkpt lat="42.357453" lon="-3.654333">
        <ele>869.9</ele>
        <time>2020-08-20T09:33:08Z</time>
        <sat>11</sat>
      </trkpt>
      <trkpt lat="42.357414" lon="-3.654438">
        <ele>869.9</ele>
        <time>2020-08-20T09:33:14Z</time>
        <sat>11</sat>
      </trkpt>
      <trkpt lat="42.357388" lon="-3.654549">
        <ele>869.7</ele>
        <time>2020-08-20T09:33:20Z</time>
        <sat>11</sat>
      </trkpt>
      <trkpt lat="42.357352" lon="-3.654660">
        <ele>869.6</ele>
        <time>2020-08-20T09:33:27Z</time>
        <sat>11</sat>
      </trkpt>
      <trkpt lat="42.357313" lon="-3.654770">
        <ele>869.5</ele>
        <time>2020-08-20T09:33:34Z</time>
        <sat>11</sat>
      </trkpt>
      <trkpt lat="42.357286" lon="-3.654894">
        <ele>869.4</ele>
        <time>2020-08-20T09:33:41Z</time>
        <sat>11</sat>
      </trkpt>
      <trkpt lat="42.357251" lon="-3.654998">
        <ele>869.4</ele>
        <time>2020-08-20T09:33:47Z</time>
        <sat>11</sat>
      </trkpt>
      <trkpt lat="42.357225" lon="-3.655118">
        <ele>869.3</ele>
        <time>2020-08-20T09:33:53Z</time>
        <sat>11</sat>
      </trkpt>
      <trkpt lat="42.357199" lon="-3.655227">
        <ele>869.3</ele>
        <time>2020-08-20T09:33:59Z</time>
        <sat>11</sat>
      </trkpt>
      <trkpt lat="42.357166" lon="-3.655339">
        <ele>869.1</ele>
        <time>2020-08-20T09:34:05Z</time>
        <sat>11</sat>
      </trkpt>
      <trkpt lat="42.357136" lon="-3.655451">
        <ele>868.8</ele>
        <time>2020-08-20T09:34:11Z</time>
        <sat>11</sat>
      </trkpt>
      <trkpt lat="42.357110" lon="-3.655561">
        <ele>868.7</ele>
        <time>2020-08-20T09:34:17Z</time>
        <sat>11</sat>
      </trkpt>
      <trkpt lat="42.357078" lon="-3.655671">
        <ele>868.9</ele>
        <time>2020-08-20T09:34:23Z</time>
        <sat>11</sat>
      </trkpt>
      <trkpt lat="42.357042" lon="-3.655788">
        <ele>868.8</ele>
        <time>2020-08-20T09:34:30Z</time>
        <sat>11</sat>
      </trkpt>
      <trkpt lat="42.357012" lon="-3.655905">
        <ele>868.8</ele>
        <time>2020-08-20T09:34:37Z</time>
        <sat>11</sat>
      </trkpt>
      <trkpt lat="42.356975" lon="-3.656013">
        <ele>868.8</ele>
        <time>2020-08-20T09:34:43Z</time>
        <sat>11</sat>
      </trkpt>
      <trkpt lat="42.356951" lon="-3.656122">
        <ele>868.4</ele>
        <time>2020-08-20T09:34:49Z</time>
        <sat>11</sat>
      </trkpt>
      <trkpt lat="42.356935" lon="-3.656231">
        <ele>868.2</ele>
        <time>2020-08-20T09:34:55Z</time>
        <sat>11</sat>
      </trkpt>
      <trkpt lat="42.356893" lon="-3.656341">
        <ele>868.0</ele>
        <time>2020-08-20T09:35:02Z</time>
        <sat>10</sat>
      </trkpt>
      <trkpt lat="42.356865" lon="-3.656450">
        <ele>867.9</ele>
        <time>2020-08-20T09:35:08Z</time>
        <sat>11</sat>
      </trkpt>
      <trkpt lat="42.356827" lon="-3.656561">
        <ele>867.9</ele>
        <time>2020-08-20T09:35:15Z</time>
        <sat>11</sat>
      </trkpt>
      <trkpt lat="42.356794" lon="-3.656664">
        <ele>868.0</ele>
        <time>2020-08-20T09:35:21Z</time>
        <sat>11</sat>
      </trkpt>
      <trkpt lat="42.356770" lon="-3.656772">
        <ele>867.9</ele>
        <time>2020-08-20T09:35:27Z</time>
        <sat>11</sat>
      </trkpt>
      <trkpt lat="42.356743" lon="-3.656877">
        <ele>867.9</ele>
        <time>2020-08-20T09:35:33Z</time>
        <sat>11</sat>
      </trkpt>
      <trkpt lat="42.356707" lon="-3.656982">
        <ele>867.7</ele>
        <time>2020-08-20T09:35:39Z</time>
        <sat>11</sat>
      </trkpt>
      <trkpt lat="42.356676" lon="-3.657093">
        <ele>867.8</ele>
        <time>2020-08-20T09:35:45Z</time>
        <sat>11</sat>
      </trkpt>
      <trkpt lat="42.356640" lon="-3.657207">
        <ele>868.1</ele>
        <time>2020-08-20T09:35:52Z</time>
        <sat>11</sat>
      </trkpt>
      <trkpt lat="42.356606" lon="-3.657311">
        <ele>868.2</ele>
        <time>2020-08-20T09:35:58Z</time>
        <sat>11</sat>
      </trkpt>
      <trkpt lat="42.356579" lon="-3.657428">
        <ele>868.1</ele>
        <time>2020-08-20T09:36:05Z</time>
        <sat>11</sat>
      </trkpt>
      <trkpt lat="42.356541" lon="-3.657534">
        <ele>868.1</ele>
        <time>2020-08-20T09:36:11Z</time>
        <sat>11</sat>
      </trkpt>
      <trkpt lat="42.356516" lon="-3.657645">
        <ele>867.9</ele>
        <time>2020-08-20T09:36:17Z</time>
        <sat>10</sat>
      </trkpt>
      <trkpt lat="42.356481" lon="-3.657763">
        <ele>867.8</ele>
        <time>2020-08-20T09:36:24Z</time>
        <sat>11</sat>
      </trkpt>
      <trkpt lat="42.356446" lon="-3.657867">
        <ele>867.8</ele>
        <time>2020-08-20T09:36:30Z</time>
        <sat>11</sat>
      </trkpt>
      <trkpt lat="42.356412" lon="-3.657985">
        <ele>867.8</ele>
        <time>2020-08-20T09:36:37Z</time>
        <sat>11</sat>
      </trkpt>
      <trkpt lat="42.356381" lon="-3.658093">
        <ele>867.8</ele>
        <time>2020-08-20T09:36:43Z</time>
        <sat>10</sat>
      </trkpt>
      <trkpt lat="42.356362" lon="-3.658200">
        <ele>867.8</ele>
        <time>2020-08-20T09:36:49Z</time>
        <sat>10</sat>
      </trkpt>
      <trkpt lat="42.356337" lon="-3.658320">
        <ele>867.9</ele>
        <time>2020-08-20T09:36:56Z</time>
        <sat>11</sat>
      </trkpt>
      <trkpt lat="42.356303" lon="-3.658439">
        <ele>867.8</ele>
        <time>2020-08-20T09:37:03Z</time>
        <sat>11</sat>
      </trkpt>
      <trkpt lat="42.356280" lon="-3.658546">
        <ele>867.6</ele>
        <time>2020-08-20T09:37:09Z</time>
        <sat>11</sat>
      </trkpt>
      <trkpt lat="42.356247" lon="-3.658651">
        <ele>867.7</ele>
        <time>2020-08-20T09:37:15Z</time>
        <sat>11</sat>
      </trkpt>
      <trkpt lat="42.356222" lon="-3.658758">
        <ele>867.6</ele>
        <time>2020-08-20T09:37:21Z</time>
        <sat>11</sat>
      </trkpt>
      <trkpt lat="42.356192" lon="-3.658878">
        <ele>867.6</ele>
        <time>2020-08-20T09:37:28Z</time>
        <sat>10</sat>
      </trkpt>
      <trkpt lat="42.356162" lon="-3.658981">
        <ele>867.6</ele>
        <time>2020-08-20T09:37:34Z</time>
        <sat>11</sat>
      </trkpt>
      <trkpt lat="42.356123" lon="-3.659088">
        <ele>867.6</ele>
        <time>2020-08-20T09:37:40Z</time>
        <sat>10</sat>
      </trkpt>
      <trkpt lat="42.356086" lon="-3.659203">
        <ele>867.4</ele>
        <time>2020-08-20T09:37:47Z</time>
        <sat>9</sat>
      </trkpt>
      <trkpt lat="42.356053" lon="-3.659311">
        <ele>867.3</ele>
        <time>2020-08-20T09:37:53Z</time>
        <sat>11</sat>
      </trkpt>
      <trkpt lat="42.356018" lon="-3.659417">
        <ele>867.2</ele>
        <time>2020-08-20T09:37:59Z</time>
        <sat>10</sat>
      </trkpt>
      <trkpt lat="42.355994" lon="-3.659525">
        <ele>867.0</ele>
        <time>2020-08-20T09:38:05Z</time>
        <sat>11</sat>
      </trkpt>
      <trkpt lat="42.355970" lon="-3.659630">
        <ele>866.9</ele>
        <time>2020-08-20T09:38:11Z</time>
        <sat>10</sat>
      </trkpt>
      <trkpt lat="42.355950" lon="-3.659744">
        <ele>867.0</ele>
        <time>2020-08-20T09:38:17Z</time>
        <sat>10</sat>
      </trkpt>
      <trkpt lat="42.355909" lon="-3.659847">
        <ele>866.9</ele>
        <time>2020-08-20T09:38:23Z</time>
        <sat>10</sat>
      </trkpt>
      <trkpt lat="42.355879" lon="-3.659957">
        <ele>866.7</ele>
        <time>2020-08-20T09:38:29Z</time>
        <sat>11</sat>
      </trkpt>
      <trkpt lat="42.355851" lon="-3.660061">
        <ele>866.7</ele>
        <time>2020-08-20T09:38:35Z</time>
        <sat>11</sat>
      </trkpt>
      <trkpt lat="42.355816" lon="-3.660167">
        <ele>866.7</ele>
        <time>2020-08-20T09:38:41Z</time>
        <sat>11</sat>
      </trkpt>
      <trkpt lat="42.355787" lon="-3.660277">
        <ele>866.6</ele>
        <time>2020-08-20T09:38:47Z</time>
        <sat>11</sat>
      </trkpt>
      <trkpt lat="42.355751" lon="-3.660392">
        <ele>866.7</ele>
        <time>2020-08-20T09:38:54Z</time>
        <sat>11</sat>
      </trkpt>
      <trkpt lat="42.355716" lon="-3.660497">
        <ele>866.7</ele>
        <time>2020-08-20T09:39:00Z</time>
        <sat>11</sat>
      </trkpt>
      <trkpt lat="42.355697" lon="-3.660616">
        <ele>866.7</ele>
        <time>2020-08-20T09:39:06Z</time>
        <sat>11</sat>
      </trkpt>
      <trkpt lat="42.355663" lon="-3.660730">
        <ele>866.6</ele>
        <time>2020-08-20T09:39:13Z</time>
        <sat>11</sat>
      </trkpt>
      <trkpt lat="42.355625" lon="-3.660835">
        <ele>866.5</ele>
        <time>2020-08-20T09:39:19Z</time>
        <sat>11</sat>
      </trkpt>
      <trkpt lat="42.355600" lon="-3.660949">
        <ele>866.6</ele>
        <time>2020-08-20T09:39:25Z</time>
        <sat>11</sat>
      </trkpt>
      <trkpt lat="42.355571" lon="-3.661052">
        <ele>866.7</ele>
        <time>2020-08-20T09:39:31Z</time>
        <sat>11</sat>
      </trkpt>
      <trkpt lat="42.355537" lon="-3.661157">
        <ele>866.7</ele>
        <time>2020-08-20T09:39:37Z</time>
        <sat>11</sat>
      </trkpt>
      <trkpt lat="42.355513" lon="-3.661273">
        <ele>866.7</ele>
        <time>2020-08-20T09:39:43Z</time>
        <sat>11</sat>
      </trkpt>
      <trkpt lat="42.355476" lon="-3.661392">
        <ele>867.0</ele>
        <time>2020-08-20T09:39:50Z</time>
        <sat>11</sat>
      </trkpt>
      <trkpt lat="42.355447" lon="-3.661497">
        <ele>867.2</ele>
        <time>2020-08-20T09:39:56Z</time>
        <sat>10</sat>
      </trkpt>
      <trkpt lat="42.355424" lon="-3.661606">
        <ele>867.0</ele>
        <time>2020-08-20T09:40:02Z</time>
        <sat>10</sat>
      </trkpt>
      <trkpt lat="42.355381" lon="-3.661716">
        <ele>867.0</ele>
        <time>2020-08-20T09:40:09Z</time>
        <sat>10</sat>
      </trkpt>
      <trkpt lat="42.355360" lon="-3.661831">
        <ele>867.1</ele>
        <time>2020-08-20T09:40:15Z</time>
        <sat>10</sat>
      </trkpt>
      <trkpt lat="42.355330" lon="-3.661951">
        <ele>867.1</ele>
        <time>2020-08-20T09:40:22Z</time>
        <sat>11</sat>
      </trkpt>
      <trkpt lat="42.355297" lon="-3.662056">
        <ele>867.2</ele>
        <time>2020-08-20T09:40:28Z</time>
        <sat>10</sat>
      </trkpt>
      <trkpt lat="42.355275" lon="-3.662165">
        <ele>867.1</ele>
        <time>2020-08-20T09:40:34Z</time>
        <sat>10</sat>
      </trkpt>
      <trkpt lat="42.355244" lon="-3.662270">
        <ele>866.9</ele>
        <time>2020-08-20T09:40:41Z</time>
        <sat>10</sat>
      </trkpt>
      <trkpt lat="42.355218" lon="-3.662375">
        <ele>866.9</ele>
        <time>2020-08-20T09:40:47Z</time>
        <sat>11</sat>
      </trkpt>
      <trkpt lat="42.355193" lon="-3.662480">
        <ele>866.9</ele>
        <time>2020-08-20T09:40:53Z</time>
        <sat>11</sat>
      </trkpt>
      <trkpt lat="42.355151" lon="-3.662583">
        <ele>866.7</ele>
        <time>2020-08-20T09:40:59Z</time>
        <sat>10</sat>
      </trkpt>
      <trkpt lat="42.355115" lon="-3.662687">
        <ele>866.6</ele>
        <time>2020-08-20T09:41:05Z</time>
        <sat>10</sat>
      </trkpt>
      <trkpt lat="42.355041" lon="-3.662744">
        <ele>866.8</ele>
        <time>2020-08-20T09:41:12Z</time>
        <sat>10</sat>
      </trkpt>
      <trkpt lat="42.354958" lon="-3.662744">
        <ele>866.0</ele>
        <time>2020-08-20T09:41:19Z</time>
        <sat>9</sat>
      </trkpt>
      <trkpt lat="42.354903" lon="-3.662843">
        <ele>867.3</ele>
        <time>2020-08-20T09:42:23Z</time>
        <sat>9</sat>
      </trkpt>
      <trkpt lat="42.354904" lon="-3.662959">
        <ele>867.4</ele>
        <time>2020-08-20T09:42:29Z</time>
        <sat>10</sat>
      </trkpt>
      <trkpt lat="42.354953" lon="-3.663069">
        <ele>867.1</ele>
        <time>2020-08-20T09:42:37Z</time>
        <sat>10</sat>
      </trkpt>
      <trkpt lat="42.354978" lon="-3.663173">
        <ele>867.1</ele>
        <time>2020-08-20T09:42:42Z</time>
        <sat>10</sat>
      </trkpt>
      <trkpt lat="42.354955" lon="-3.663279">
        <ele>867.1</ele>
        <time>2020-08-20T09:42:48Z</time>
        <sat>11</sat>
      </trkpt>
      <trkpt lat="42.354933" lon="-3.663390">
        <ele>867.2</ele>
        <time>2020-08-20T09:42:54Z</time>
        <sat>9</sat>
      </trkpt>
      <trkpt lat="42.354906" lon="-3.663502">
        <ele>866.8</ele>
        <time>2020-08-20T09:43:01Z</time>
        <sat>10</sat>
      </trkpt>
      <trkpt lat="42.354872" lon="-3.663612">
        <ele>866.9</ele>
        <time>2020-08-20T09:43:07Z</time>
        <sat>10</sat>
      </trkpt>
      <trkpt lat="42.354853" lon="-3.663727">
        <ele>866.6</ele>
        <time>2020-08-20T09:43:13Z</time>
        <sat>10</sat>
      </trkpt>
      <trkpt lat="42.354819" lon="-3.663845">
        <ele>866.5</ele>
        <time>2020-08-20T09:43:19Z</time>
        <sat>10</sat>
      </trkpt>
      <trkpt lat="42.354796" lon="-3.663961">
        <ele>866.1</ele>
        <time>2020-08-20T09:43:26Z</time>
        <sat>10</sat>
      </trkpt>
      <trkpt lat="42.354753" lon="-3.664076">
        <ele>866.1</ele>
        <time>2020-08-20T09:43:33Z</time>
        <sat>11</sat>
      </trkpt>
      <trkpt lat="42.354712" lon="-3.664183">
        <ele>866.1</ele>
        <time>2020-08-20T09:43:39Z</time>
        <sat>10</sat>
      </trkpt>
      <trkpt lat="42.354680" lon="-3.664287">
        <ele>866.0</ele>
        <time>2020-08-20T09:43:45Z</time>
        <sat>10</sat>
      </trkpt>
      <trkpt lat="42.354647" lon="-3.664392">
        <ele>865.9</ele>
        <time>2020-08-20T09:43:51Z</time>
        <sat>9</sat>
      </trkpt>
      <trkpt lat="42.354613" lon="-3.664500">
        <ele>866.0</ele>
        <time>2020-08-20T09:43:57Z</time>
        <sat>10</sat>
      </trkpt>
      <trkpt lat="42.354562" lon="-3.664593">
        <ele>865.9</ele>
        <time>2020-08-20T09:44:03Z</time>
        <sat>10</sat>
      </trkpt>
      <trkpt lat="42.354541" lon="-3.664702">
        <ele>866.1</ele>
        <time>2020-08-20T09:44:09Z</time>
        <sat>10</sat>
      </trkpt>
      <trkpt lat="42.354517" lon="-3.664822">
        <ele>866.2</ele>
        <time>2020-08-20T09:44:16Z</time>
        <sat>10</sat>
      </trkpt>
      <trkpt lat="42.354499" lon="-3.664945">
        <ele>865.9</ele>
        <time>2020-08-20T09:44:23Z</time>
        <sat>10</sat>
      </trkpt>
      <trkpt lat="42.354507" lon="-3.665056">
        <ele>865.7</ele>
        <time>2020-08-20T09:44:29Z</time>
        <sat>10</sat>
      </trkpt>
      <trkpt lat="42.354494" lon="-3.665176">
        <ele>865.8</ele>
        <time>2020-08-20T09:44:36Z</time>
        <sat>10</sat>
      </trkpt>
      <trkpt lat="42.354459" lon="-3.665294">
        <ele>864.8</ele>
        <time>2020-08-20T09:44:52Z</time>
        <sat>10</sat>
      </trkpt>
      <trkpt lat="42.354438" lon="-3.665409">
        <ele>866.2</ele>
        <time>2020-08-20T09:44:58Z</time>
        <sat>10</sat>
      </trkpt>
      <trkpt lat="42.354410" lon="-3.665526">
        <ele>866.1</ele>
        <time>2020-08-20T09:45:06Z</time>
        <sat>11</sat>
      </trkpt>
      <trkpt lat="42.354390" lon="-3.665654">
        <ele>865.9</ele>
        <time>2020-08-20T09:45:14Z</time>
        <sat>11</sat>
      </trkpt>
      <trkpt lat="42.354369" lon="-3.665768">
        <ele>865.7</ele>
        <time>2020-08-20T09:45:20Z</time>
        <sat>11</sat>
      </trkpt>
      <trkpt lat="42.354320" lon="-3.665874">
        <ele>865.5</ele>
        <time>2020-08-20T09:45:26Z</time>
        <sat>11</sat>
      </trkpt>
      <trkpt lat="42.354276" lon="-3.665967">
        <ele>865.6</ele>
        <time>2020-08-20T09:45:31Z</time>
        <sat>9</sat>
      </trkpt>
      <trkpt lat="42.354233" lon="-3.666080">
        <ele>865.8</ele>
        <time>2020-08-20T09:45:37Z</time>
        <sat>9</sat>
      </trkpt>
      <trkpt lat="42.354210" lon="-3.666197">
        <ele>865.9</ele>
        <time>2020-08-20T09:45:43Z</time>
        <sat>11</sat>
      </trkpt>
      <trkpt lat="42.354159" lon="-3.666290">
        <ele>866.0</ele>
        <time>2020-08-20T09:45:49Z</time>
        <sat>11</sat>
      </trkpt>
      <trkpt lat="42.354120" lon="-3.666394">
        <ele>866.0</ele>
        <time>2020-08-20T09:45:55Z</time>
        <sat>11</sat>
      </trkpt>
      <trkpt lat="42.354086" lon="-3.666500">
        <ele>865.9</ele>
        <time>2020-08-20T09:46:01Z</time>
        <sat>10</sat>
      </trkpt>
      <trkpt lat="42.354058" lon="-3.666605">
        <ele>866.0</ele>
        <time>2020-08-20T09:46:07Z</time>
        <sat>10</sat>
      </trkpt>
      <trkpt lat="42.354022" lon="-3.666710">
        <ele>866.1</ele>
        <time>2020-08-20T09:46:13Z</time>
        <sat>10</sat>
      </trkpt>
      <trkpt lat="42.353994" lon="-3.666824">
        <ele>865.9</ele>
        <time>2020-08-20T09:46:19Z</time>
        <sat>10</sat>
      </trkpt>
      <trkpt lat="42.353965" lon="-3.666940">
        <ele>865.8</ele>
        <time>2020-08-20T09:46:25Z</time>
        <sat>10</sat>
      </trkpt>
      <trkpt lat="42.353926" lon="-3.667046">
        <ele>865.4</ele>
        <time>2020-08-20T09:46:32Z</time>
        <sat>10</sat>
      </trkpt>
      <trkpt lat="42.353896" lon="-3.667153">
        <ele>865.2</ele>
        <time>2020-08-20T09:46:38Z</time>
        <sat>11</sat>
      </trkpt>
      <trkpt lat="42.353857" lon="-3.667264">
        <ele>865.2</ele>
        <time>2020-08-20T09:46:45Z</time>
        <sat>11</sat>
      </trkpt>
      <trkpt lat="42.353789" lon="-3.667324">
        <ele>865.1</ele>
        <time>2020-08-20T09:46:51Z</time>
        <sat>10</sat>
      </trkpt>
      <trkpt lat="42.353713" lon="-3.667377">
        <ele>864.8</ele>
        <time>2020-08-20T09:46:58Z</time>
        <sat>11</sat>
      </trkpt>
      <trkpt lat="42.353636" lon="-3.667428">
        <ele>864.5</ele>
        <time>2020-08-20T09:47:05Z</time>
        <sat>11</sat>
      </trkpt>
      <trkpt lat="42.353566" lon="-3.667502">
        <ele>864.1</ele>
        <time>2020-08-20T09:47:17Z</time>
        <sat>11</sat>
      </trkpt>
      <trkpt lat="42.353522" lon="-3.667601">
        <ele>863.8</ele>
        <time>2020-08-20T09:47:23Z</time>
        <sat>10</sat>
      </trkpt>
      <trkpt lat="42.353506" lon="-3.667713">
        <ele>863.3</ele>
        <time>2020-08-20T09:47:28Z</time>
        <sat>11</sat>
      </trkpt>
      <trkpt lat="42.353467" lon="-3.667824">
        <ele>862.7</ele>
        <time>2020-08-20T09:47:34Z</time>
        <sat>11</sat>
      </trkpt>
      <trkpt lat="42.353430" lon="-3.667944">
        <ele>862.5</ele>
        <time>2020-08-20T09:47:40Z</time>
        <sat>10</sat>
      </trkpt>
      <trkpt lat="42.353395" lon="-3.668043">
        <ele>861.9</ele>
        <time>2020-08-20T09:47:46Z</time>
        <sat>11</sat>
      </trkpt>
      <trkpt lat="42.353384" lon="-3.668159">
        <ele>862.1</ele>
        <time>2020-08-20T09:47:52Z</time>
        <sat>10</sat>
      </trkpt>
      <trkpt lat="42.353364" lon="-3.668269">
        <ele>862.2</ele>
        <time>2020-08-20T09:47:58Z</time>
        <sat>10</sat>
      </trkpt>
      <trkpt lat="42.353428" lon="-3.668341">
        <ele>861.9</ele>
        <time>2020-08-20T09:48:06Z</time>
        <sat>10</sat>
      </trkpt>
      <trkpt lat="42.353449" lon="-3.668448">
        <ele>861.4</ele>
        <time>2020-08-20T09:48:12Z</time>
        <sat>10</sat>
      </trkpt>
      <trkpt lat="42.353418" lon="-3.668560">
        <ele>861.1</ele>
        <time>2020-08-20T09:48:18Z</time>
        <sat>10</sat>
      </trkpt>
      <trkpt lat="42.353395" lon="-3.668670">
        <ele>860.7</ele>
        <time>2020-08-20T09:48:25Z</time>
        <sat>9</sat>
      </trkpt>
      <trkpt lat="42.353346" lon="-3.668762">
        <ele>860.3</ele>
        <time>2020-08-20T09:48:30Z</time>
        <sat>10</sat>
      </trkpt>
      <trkpt lat="42.353312" lon="-3.668862">
        <ele>859.8</ele>
        <time>2020-08-20T09:48:36Z</time>
        <sat>10</sat>
      </trkpt>
      <trkpt lat="42.353261" lon="-3.668966">
        <ele>859.4</ele>
        <time>2020-08-20T09:48:43Z</time>
        <sat>8</sat>
      </trkpt>
      <trkpt lat="42.353220" lon="-3.669064">
        <ele>858.2</ele>
        <time>2020-08-20T09:48:50Z</time>
        <sat>9</sat>
      </trkpt>
      <trkpt lat="42.353181" lon="-3.669171">
        <ele>857.9</ele>
        <time>2020-08-20T09:48:58Z</time>
        <sat>10</sat>
      </trkpt>
      <trkpt lat="42.353141" lon="-3.669284">
        <ele>857.3</ele>
        <time>2020-08-20T09:49:05Z</time>
        <sat>11</sat>
      </trkpt>
      <trkpt lat="42.353100" lon="-3.669379">
        <ele>857.6</ele>
        <time>2020-08-20T09:49:11Z</time>
        <sat>11</sat>
      </trkpt>
      <trkpt lat="42.353053" lon="-3.669477">
        <ele>857.8</ele>
        <time>2020-08-20T09:49:18Z</time>
        <sat>9</sat>
      </trkpt>
      <trkpt lat="42.353052" lon="-3.669592">
        <ele>858.0</ele>
        <time>2020-08-20T09:49:25Z</time>
        <sat>8</sat>
      </trkpt>
      <trkpt lat="42.353029" lon="-3.669696">
        <ele>858.2</ele>
        <time>2020-08-20T09:49:30Z</time>
        <sat>10</sat>
      </trkpt>
      <trkpt lat="42.352964" lon="-3.669764">
        <ele>858.5</ele>
        <time>2020-08-20T09:49:36Z</time>
        <sat>9</sat>
      </trkpt>
      <trkpt lat="42.352914" lon="-3.669864">
        <ele>859.1</ele>
        <time>2020-08-20T09:49:43Z</time>
        <sat>8</sat>
      </trkpt>
      <trkpt lat="42.352865" lon="-3.669973">
        <ele>859.6</ele>
        <time>2020-08-20T09:49:49Z</time>
        <sat>8</sat>
      </trkpt>
      <trkpt lat="42.352804" lon="-3.670061">
        <ele>860.4</ele>
        <time>2020-08-20T09:49:55Z</time>
        <sat>8</sat>
      </trkpt>
      <trkpt lat="42.352758" lon="-3.670186">
        <ele>860.2</ele>
        <time>2020-08-20T09:50:02Z</time>
        <sat>9</sat>
      </trkpt>
      <trkpt lat="42.352723" lon="-3.670294">
        <ele>860.3</ele>
        <time>2020-08-20T09:50:08Z</time>
        <sat>9</sat>
      </trkpt>
      <trkpt lat="42.352670" lon="-3.670379">
        <ele>860.3</ele>
        <time>2020-08-20T09:50:15Z</time>
        <sat>9</sat>
      </trkpt>
      <trkpt lat="42.352626" lon="-3.670478">
        <ele>860.3</ele>
        <time>2020-08-20T09:50:26Z</time>
        <sat>10</sat>
      </trkpt>
      <trkpt lat="42.352588" lon="-3.670584">
        <ele>860.0</ele>
        <time>2020-08-20T09:50:33Z</time>
        <sat>9</sat>
      </trkpt>
      <trkpt lat="42.352544" lon="-3.670678">
        <ele>860.1</ele>
        <time>2020-08-20T09:50:39Z</time>
        <sat>9</sat>
      </trkpt>
      <trkpt lat="42.352483" lon="-3.670765">
        <ele>860.0</ele>
        <time>2020-08-20T09:50:46Z</time>
        <sat>10</sat>
      </trkpt>
      <trkpt lat="42.352422" lon="-3.670843">
        <ele>859.6</ele>
        <time>2020-08-20T09:50:52Z</time>
        <sat>9</sat>
      </trkpt>
      <trkpt lat="42.352341" lon="-3.670882">
        <ele>859.4</ele>
        <time>2020-08-20T09:50:57Z</time>
        <sat>10</sat>
      </trkpt>
      <trkpt lat="42.352255" lon="-3.670905">
        <ele>859.4</ele>
        <time>2020-08-20T09:51:04Z</time>
        <sat>10</sat>
      </trkpt>
      <trkpt lat="42.352222" lon="-3.671009">
        <ele>859.3</ele>
        <time>2020-08-20T09:51:10Z</time>
        <sat>9</sat>
      </trkpt>
      <trkpt lat="42.352174" lon="-3.671102">
        <ele>859.1</ele>
        <time>2020-08-20T09:51:17Z</time>
        <sat>10</sat>
      </trkpt>
      <trkpt lat="42.352137" lon="-3.671226">
        <ele>858.8</ele>
        <time>2020-08-20T09:51:25Z</time>
        <sat>9</sat>
      </trkpt>
      <trkpt lat="42.352108" lon="-3.671349">
        <ele>858.8</ele>
        <time>2020-08-20T09:51:31Z</time>
        <sat>9</sat>
      </trkpt>
      <trkpt lat="42.352076" lon="-3.671466">
        <ele>859.0</ele>
        <time>2020-08-20T09:51:37Z</time>
        <sat>9</sat>
      </trkpt>
      <trkpt lat="42.352025" lon="-3.671561">
        <ele>858.9</ele>
        <time>2020-08-20T09:51:44Z</time>
        <sat>9</sat>
      </trkpt>
      <trkpt lat="42.351981" lon="-3.671662">
        <ele>859.0</ele>
        <time>2020-08-20T09:51:53Z</time>
        <sat>9</sat>
      </trkpt>
      <trkpt lat="42.351931" lon="-3.671764">
        <ele>859.0</ele>
        <time>2020-08-20T09:51:58Z</time>
        <sat>9</sat>
      </trkpt>
      <trkpt lat="42.351854" lon="-3.671827">
        <ele>859.3</ele>
        <time>2020-08-20T09:52:03Z</time>
        <sat>9</sat>
      </trkpt>
      <trkpt lat="42.351793" lon="-3.671902">
        <ele>859.3</ele>
        <time>2020-08-20T09:52:09Z</time>
        <sat>9</sat>
      </trkpt>
      <trkpt lat="42.351764" lon="-3.672008">
        <ele>859.3</ele>
        <time>2020-08-20T09:52:15Z</time>
        <sat>9</sat>
      </trkpt>
      <trkpt lat="42.351704" lon="-3.672105">
        <ele>859.3</ele>
        <time>2020-08-20T09:52:21Z</time>
        <sat>9</sat>
      </trkpt>
      <trkpt lat="42.351645" lon="-3.672189">
        <ele>859.1</ele>
        <time>2020-08-20T09:52:28Z</time>
        <sat>9</sat>
      </trkpt>
      <trkpt lat="42.351594" lon="-3.672299">
        <ele>859.1</ele>
        <time>2020-08-20T09:52:35Z</time>
        <sat>9</sat>
      </trkpt>
      <trkpt lat="42.351538" lon="-3.672388">
        <ele>859.2</ele>
        <time>2020-08-20T09:52:42Z</time>
        <sat>9</sat>
      </trkpt>
      <trkpt lat="42.351488" lon="-3.672481">
        <ele>859.2</ele>
        <time>2020-08-20T09:52:47Z</time>
        <sat>9</sat>
      </trkpt>
      <trkpt lat="42.351441" lon="-3.672583">
        <ele>859.2</ele>
        <time>2020-08-20T09:52:53Z</time>
        <sat>9</sat>
      </trkpt>
      <trkpt lat="42.351383" lon="-3.672673">
        <ele>859.2</ele>
        <time>2020-08-20T09:53:00Z</time>
        <sat>9</sat>
      </trkpt>
      <trkpt lat="42.351326" lon="-3.672756">
        <ele>859.5</ele>
        <time>2020-08-20T09:53:06Z</time>
        <sat>9</sat>
      </trkpt>
      <trkpt lat="42.351292" lon="-3.672876">
        <ele>859.6</ele>
        <time>2020-08-20T09:53:12Z</time>
        <sat>9</sat>
      </trkpt>
      <trkpt lat="42.351248" lon="-3.672978">
        <ele>859.8</ele>
        <time>2020-08-20T09:53:18Z</time>
        <sat>10</sat>
      </trkpt>
      <trkpt lat="42.351238" lon="-3.673091">
        <ele>859.8</ele>
        <time>2020-08-20T09:53:23Z</time>
        <sat>10</sat>
      </trkpt>
      <trkpt lat="42.351177" lon="-3.673189">
        <ele>859.7</ele>
        <time>2020-08-20T09:53:29Z</time>
        <sat>9</sat>
      </trkpt>
      <trkpt lat="42.351072" lon="-3.673225">
        <ele>859.3</ele>
        <time>2020-08-20T09:53:33Z</time>
        <sat>8</sat>
      </trkpt>
      <trkpt lat="42.350989" lon="-3.673273">
        <ele>859.1</ele>
        <time>2020-08-20T09:53:37Z</time>
        <sat>9</sat>
      </trkpt>
      <trkpt lat="42.350911" lon="-3.673331">
        <ele>859.2</ele>
        <time>2020-08-20T09:53:42Z</time>
        <sat>9</sat>
      </trkpt>
      <trkpt lat="42.350840" lon="-3.673399">
        <ele>858.8</ele>
        <time>2020-08-20T09:53:48Z</time>
        <sat>10</sat>
      </trkpt>
      <trkpt lat="42.350774" lon="-3.673491">
        <ele>858.1</ele>
        <time>2020-08-20T09:53:55Z</time>
        <sat>10</sat>
      </trkpt>
      <trkpt lat="42.350729" lon="-3.673597">
        <ele>857.8</ele>
        <time>2020-08-20T09:54:03Z</time>
        <sat>10</sat>
      </trkpt>
      <trkpt lat="42.350670" lon="-3.673683">
        <ele>857.9</ele>
        <time>2020-08-20T09:54:10Z</time>
        <sat>10</sat>
      </trkpt>
      <trkpt lat="42.350633" lon="-3.673791">
        <ele>858.1</ele>
        <time>2020-08-20T09:54:17Z</time>
        <sat>10</sat>
      </trkpt>
      <trkpt lat="42.350604" lon="-3.673910">
        <ele>857.9</ele>
        <time>2020-08-20T09:54:24Z</time>
        <sat>10</sat>
      </trkpt>
      <trkpt lat="42.350586" lon="-3.674020">
        <ele>858.1</ele>
        <time>2020-08-20T09:54:29Z</time>
        <sat>11</sat>
      </trkpt>
      <trkpt lat="42.350534" lon="-3.674109">
        <ele>858.1</ele>
        <time>2020-08-20T09:54:35Z</time>
        <sat>10</sat>
      </trkpt>
      <trkpt lat="42.350485" lon="-3.674207">
        <ele>858.3</ele>
        <time>2020-08-20T09:54:49Z</time>
        <sat>10</sat>
      </trkpt>
      <trkpt lat="42.350423" lon="-3.674301">
        <ele>858.5</ele>
        <time>2020-08-20T09:54:56Z</time>
        <sat>10</sat>
      </trkpt>
      <trkpt lat="42.350381" lon="-3.674415">
        <ele>858.5</ele>
        <time>2020-08-20T09:55:05Z</time>
        <sat>11</sat>
      </trkpt>
      <trkpt lat="42.350339" lon="-3.674512">
        <ele>858.5</ele>
        <time>2020-08-20T09:55:13Z</time>
        <sat>11</sat>
      </trkpt>
      <trkpt lat="42.350289" lon="-3.674601">
        <ele>858.6</ele>
        <time>2020-08-20T09:55:18Z</time>
        <sat>11</sat>
      </trkpt>
      <trkpt lat="42.350246" lon="-3.674710">
        <ele>857.7</ele>
        <time>2020-08-20T09:55:24Z</time>
        <sat>11</sat>
      </trkpt>
      <trkpt lat="42.350202" lon="-3.674820">
        <ele>857.7</ele>
        <time>2020-08-20T09:55:29Z</time>
        <sat>11</sat>
      </trkpt>
      <trkpt lat="42.350149" lon="-3.674928">
        <ele>857.9</ele>
        <time>2020-08-20T09:55:35Z</time>
        <sat>11</sat>
      </trkpt>
      <trkpt lat="42.350106" lon="-3.675021">
        <ele>857.6</ele>
        <time>2020-08-20T09:55:41Z</time>
        <sat>11</sat>
      </trkpt>
      <trkpt lat="42.350036" lon="-3.675097">
        <ele>857.4</ele>
        <time>2020-08-20T09:55:46Z</time>
        <sat>11</sat>
      </trkpt>
      <trkpt lat="42.349940" lon="-3.675099">
        <ele>857.3</ele>
        <time>2020-08-20T09:55:50Z</time>
        <sat>11</sat>
      </trkpt>
      <trkpt lat="42.349854" lon="-3.675077">
        <ele>857.4</ele>
        <time>2020-08-20T09:55:57Z</time>
        <sat>10</sat>
      </trkpt>
      <trkpt lat="42.349802" lon="-3.675171">
        <ele>855.5</ele>
        <time>2020-08-20T09:56:16Z</time>
        <sat>11</sat>
      </trkpt>
      <trkpt lat="42.349782" lon="-3.675290">
        <ele>855.3</ele>
        <time>2020-08-20T09:56:24Z</time>
        <sat>8</sat>
      </trkpt>
      <trkpt lat="42.349808" lon="-3.675409">
        <ele>855.5</ele>
        <time>2020-08-20T09:56:31Z</time>
        <sat>10</sat>
      </trkpt>
      <trkpt lat="42.349783" lon="-3.675517">
        <ele>855.8</ele>
        <time>2020-08-20T09:56:37Z</time>
        <sat>10</sat>
      </trkpt>
      <trkpt lat="42.349714" lon="-3.675604">
        <ele>856.5</ele>
        <time>2020-08-20T09:56:44Z</time>
        <sat>10</sat>
      </trkpt>
      <trkpt lat="42.349634" lon="-3.675648">
        <ele>857.0</ele>
        <time>2020-08-20T09:56:48Z</time>
        <sat>9</sat>
      </trkpt>
      <trkpt lat="42.349573" lon="-3.675742">
        <ele>857.7</ele>
        <time>2020-08-20T09:56:54Z</time>
        <sat>10</sat>
      </trkpt>
      <trkpt lat="42.349489" lon="-3.675792">
        <ele>857.7</ele>
        <time>2020-08-20T09:57:00Z</time>
        <sat>10</sat>
      </trkpt>
      <trkpt lat="42.349417" lon="-3.675875">
        <ele>857.5</ele>
        <time>2020-08-20T09:57:07Z</time>
        <sat>9</sat>
      </trkpt>
      <trkpt lat="42.349365" lon="-3.675961">
        <ele>857.6</ele>
        <time>2020-08-20T09:57:13Z</time>
        <sat>9</sat>
      </trkpt>
      <trkpt lat="42.349318" lon="-3.676063">
        <ele>857.8</ele>
        <time>2020-08-20T09:57:20Z</time>
        <sat>8</sat>
      </trkpt>
      <trkpt lat="42.349276" lon="-3.676159">
        <ele>857.5</ele>
        <time>2020-08-20T09:57:25Z</time>
        <sat>8</sat>
      </trkpt>
      <trkpt lat="42.349242" lon="-3.676259">
        <ele>857.5</ele>
        <time>2020-08-20T09:57:30Z</time>
        <sat>10</sat>
      </trkpt>
      <trkpt lat="42.349183" lon="-3.676336">
        <ele>857.5</ele>
        <time>2020-08-20T09:57:35Z</time>
        <sat>10</sat>
      </trkpt>
      <trkpt lat="42.349108" lon="-3.676411">
        <ele>857.3</ele>
        <time>2020-08-20T09:57:42Z</time>
        <sat>8</sat>
      </trkpt>
      <trkpt lat="42.349090" lon="-3.676525">
        <ele>857.5</ele>
        <time>2020-08-20T09:57:49Z</time>
        <sat>9</sat>
      </trkpt>
      <trkpt lat="42.349043" lon="-3.676644">
        <ele>858.2</ele>
        <time>2020-08-20T09:57:56Z</time>
        <sat>8</sat>
      </trkpt>
      <trkpt lat="42.349045" lon="-3.676767">
        <ele>858.7</ele>
        <time>2020-08-20T09:58:04Z</time>
        <sat>10</sat>
      </trkpt>
      <trkpt lat="42.349022" lon="-3.676873">
        <ele>858.9</ele>
        <time>2020-08-20T09:58:15Z</time>
        <sat>8</sat>
      </trkpt>
      <trkpt lat="42.349022" lon="-3.676986">
        <ele>858.6</ele>
        <time>2020-08-20T09:58:43Z</time>
        <sat>10</sat>
      </trkpt>
      <trkpt lat="42.349030" lon="-3.677108">
        <ele>858.6</ele>
        <time>2020-08-20T09:58:53Z</time>
        <sat>10</sat>
      </trkpt>
      <trkpt lat="42.349028" lon="-3.677223">
        <ele>857.8</ele>
        <time>2020-08-20T09:58:59Z</time>
        <sat>10</sat>
      </trkpt>
      <trkpt lat="42.349024" lon="-3.677343">
        <ele>856.5</ele>
        <time>2020-08-20T09:59:05Z</time>
        <sat>9</sat>
      </trkpt>
      <trkpt lat="42.349015" lon="-3.677463">
        <ele>858.2</ele>
        <time>2020-08-20T09:59:11Z</time>
        <sat>10</sat>
      </trkpt>
      <trkpt lat="42.348984" lon="-3.677575">
        <ele>858.9</ele>
        <time>2020-08-20T09:59:17Z</time>
        <sat>10</sat>
      </trkpt>
      <trkpt lat="42.348956" lon="-3.677693">
        <ele>859.6</ele>
        <time>2020-08-20T09:59:24Z</time>
        <sat>10</sat>
      </trkpt>
      <trkpt lat="42.348928" lon="-3.677804">
        <ele>859.8</ele>
        <time>2020-08-20T09:59:30Z</time>
        <sat>10</sat>
      </trkpt>
      <trkpt lat="42.348911" lon="-3.677916">
        <ele>859.8</ele>
        <time>2020-08-20T09:59:36Z</time>
        <sat>11</sat>
      </trkpt>
      <trkpt lat="42.348886" lon="-3.678022">
        <ele>859.5</ele>
        <time>2020-08-20T09:59:43Z</time>
        <sat>10</sat>
      </trkpt>
      <trkpt lat="42.348875" lon="-3.678142">
        <ele>859.6</ele>
        <time>2020-08-20T09:59:52Z</time>
        <sat>10</sat>
      </trkpt>
      <trkpt lat="42.348788" lon="-3.678158">
        <ele>860.1</ele>
        <time>2020-08-20T09:59:59Z</time>
        <sat>11</sat>
      </trkpt>
      <trkpt lat="42.348748" lon="-3.678257">
        <ele>859.8</ele>
        <time>2020-08-20T10:00:06Z</time>
        <sat>11</sat>
      </trkpt>
      <trkpt lat="42.348734" lon="-3.678378">
        <ele>859.3</ele>
        <time>2020-08-20T10:01:20Z</time>
        <sat>11</sat>
      </trkpt>
      <trkpt lat="42.348741" lon="-3.678499">
        <ele>859.3</ele>
        <time>2020-08-20T10:01:28Z</time>
        <sat>11</sat>
      </trkpt>
      <trkpt lat="42.348757" lon="-3.678620">
        <ele>859.2</ele>
        <time>2020-08-20T10:01:34Z</time>
        <sat>11</sat>
      </trkpt>
      <trkpt lat="42.348761" lon="-3.678730">
        <ele>859.1</ele>
        <time>2020-08-20T10:01:40Z</time>
        <sat>9</sat>
      </trkpt>
      <trkpt lat="42.348722" lon="-3.678842">
        <ele>859.0</ele>
        <time>2020-08-20T10:01:47Z</time>
        <sat>11</sat>
      </trkpt>
      <trkpt lat="42.348715" lon="-3.678963">
        <ele>859.0</ele>
        <time>2020-08-20T10:01:54Z</time>
        <sat>11</sat>
      </trkpt>
      <trkpt lat="42.348689" lon="-3.679077">
        <ele>859.2</ele>
        <time>2020-08-20T10:02:01Z</time>
        <sat>11</sat>
      </trkpt>
      <trkpt lat="42.348684" lon="-3.679189">
        <ele>859.1</ele>
        <time>2020-08-20T10:02:07Z</time>
        <sat>11</sat>
      </trkpt>
      <trkpt lat="42.348697" lon="-3.679302">
        <ele>859.1</ele>
        <time>2020-08-20T10:02:13Z</time>
        <sat>11</sat>
      </trkpt>
      <trkpt lat="42.348686" lon="-3.679414">
        <ele>858.9</ele>
        <time>2020-08-20T10:02:19Z</time>
        <sat>11</sat>
      </trkpt>
      <trkpt lat="42.348684" lon="-3.679528">
        <ele>858.7</ele>
        <time>2020-08-20T10:02:25Z</time>
        <sat>10</sat>
      </trkpt>
      <trkpt lat="42.348686" lon="-3.679641">
        <ele>858.7</ele>
        <time>2020-08-20T10:02:31Z</time>
        <sat>11</sat>
      </trkpt>
      <trkpt lat="42.348662" lon="-3.679762">
        <ele>858.7</ele>
        <time>2020-08-20T10:02:37Z</time>
        <sat>11</sat>
      </trkpt>
      <trkpt lat="42.348634" lon="-3.679872">
        <ele>858.8</ele>
        <time>2020-08-20T10:02:43Z</time>
        <sat>10</sat>
      </trkpt>
      <trkpt lat="42.348598" lon="-3.679975">
        <ele>858.6</ele>
        <time>2020-08-20T10:02:49Z</time>
        <sat>10</sat>
      </trkpt>
      <trkpt lat="42.348567" lon="-3.680083">
        <ele>858.7</ele>
        <time>2020-08-20T10:02:55Z</time>
        <sat>11</sat>
      </trkpt>
      <trkpt lat="42.348542" lon="-3.680190">
        <ele>858.5</ele>
        <time>2020-08-20T10:03:01Z</time>
        <sat>10</sat>
      </trkpt>
      <trkpt lat="42.348483" lon="-3.680284">
        <ele>858.4</ele>
        <time>2020-08-20T10:03:08Z</time>
        <sat>11</sat>
      </trkpt>
      <trkpt lat="42.348442" lon="-3.680387">
        <ele>858.4</ele>
        <time>2020-08-20T10:03:14Z</time>
        <sat>11</sat>
      </trkpt>
      <trkpt lat="42.348421" lon="-3.680497">
        <ele>858.4</ele>
        <time>2020-08-20T10:03:20Z</time>
        <sat>10</sat>
      </trkpt>
      <trkpt lat="42.348399" lon="-3.680605">
        <ele>858.2</ele>
        <time>2020-08-20T10:03:26Z</time>
        <sat>10</sat>
      </trkpt>
      <trkpt lat="42.348370" lon="-3.680716">
        <ele>858.0</ele>
        <time>2020-08-20T10:03:32Z</time>
        <sat>10</sat>
      </trkpt>
      <trkpt lat="42.348349" lon="-3.680831">
        <ele>857.8</ele>
        <time>2020-08-20T10:03:38Z</time>
        <sat>11</sat>
      </trkpt>
      <trkpt lat="42.348299" lon="-3.680924">
        <ele>857.6</ele>
        <time>2020-08-20T10:03:44Z</time>
        <sat>9</sat>
      </trkpt>
      <trkpt lat="42.348255" lon="-3.681020">
        <ele>857.5</ele>
        <time>2020-08-20T10:03:49Z</time>
        <sat>11</sat>
      </trkpt>
      <trkpt lat="42.348204" lon="-3.681125">
        <ele>857.6</ele>
        <time>2020-08-20T10:03:56Z</time>
        <sat>11</sat>
      </trkpt>
      <trkpt lat="42.348151" lon="-3.681212">
        <ele>857.6</ele>
        <time>2020-08-20T10:04:02Z</time>
        <sat>9</sat>
      </trkpt>
      <trkpt lat="42.348091" lon="-3.681309">
        <ele>857.7</ele>
        <time>2020-08-20T10:04:09Z</time>
        <sat>11</sat>
      </trkpt>
      <trkpt lat="42.348042" lon="-3.681402">
        <ele>857.8</ele>
        <time>2020-08-20T10:04:15Z</time>
        <sat>10</sat>
      </trkpt>
      <trkpt lat="42.347977" lon="-3.681480">
        <ele>858.2</ele>
        <time>2020-08-20T10:04:22Z</time>
        <sat>10</sat>
      </trkpt>
      <trkpt lat="42.347896" lon="-3.681520">
        <ele>858.4</ele>
        <time>2020-08-20T10:04:29Z</time>
        <sat>10</sat>
      </trkpt>
      <trkpt lat="42.347804" lon="-3.681568">
        <ele>858.2</ele>
        <time>2020-08-20T10:04:36Z</time>
        <sat>11</sat>
      </trkpt>
      <trkpt lat="42.347714" lon="-3.681612">
        <ele>858.0</ele>
        <time>2020-08-20T10:04:43Z</time>
        <sat>10</sat>
      </trkpt>
      <trkpt lat="42.347644" lon="-3.681688">
        <ele>857.3</ele>
        <time>2020-08-20T10:04:49Z</time>
        <sat>10</sat>
      </trkpt>
      <trkpt lat="42.347571" lon="-3.681745">
        <ele>856.9</ele>
        <time>2020-08-20T10:04:55Z</time>
        <sat>10</sat>
      </trkpt>
      <trkpt lat="42.347498" lon="-3.681799">
        <ele>856.5</ele>
        <time>2020-08-20T10:05:01Z</time>
        <sat>11</sat>
      </trkpt>
      <trkpt lat="42.347423" lon="-3.681859">
        <ele>856.5</ele>
        <time>2020-08-20T10:05:07Z</time>
        <sat>10</sat>
      </trkpt>
      <trkpt lat="42.347352" lon="-3.681919">
        <ele>856.6</ele>
        <time>2020-08-20T10:05:14Z</time>
        <sat>11</sat>
      </trkpt>
      <trkpt lat="42.347280" lon="-3.681982">
        <ele>856.7</ele>
        <time>2020-08-20T10:05:22Z</time>
        <sat>11</sat>
      </trkpt>
      <trkpt lat="42.347212" lon="-3.682048">
        <ele>856.4</ele>
        <time>2020-08-20T10:05:30Z</time>
        <sat>11</sat>
      </trkpt>
      <trkpt lat="42.347139" lon="-3.682110">
        <ele>856.3</ele>
        <time>2020-08-20T10:05:37Z</time>
        <sat>11</sat>
      </trkpt>
      <trkpt lat="42.347084" lon="-3.682202">
        <ele>856.3</ele>
        <time>2020-08-20T10:05:44Z</time>
        <sat>11</sat>
      </trkpt>
      <trkpt lat="42.347050" lon="-3.682302">
        <ele>856.8</ele>
        <time>2020-08-20T10:05:52Z</time>
        <sat>11</sat>
      </trkpt>
      <trkpt lat="42.347005" lon="-3.682400">
        <ele>856.6</ele>
        <time>2020-08-20T10:05:59Z</time>
        <sat>11</sat>
      </trkpt>
      <trkpt lat="42.346939" lon="-3.682487">
        <ele>856.7</ele>
        <time>2020-08-20T10:06:06Z</time>
        <sat>10</sat>
      </trkpt>
      <trkpt lat="42.346879" lon="-3.682569">
        <ele>856.7</ele>
        <time>2020-08-20T10:06:11Z</time>
        <sat>10</sat>
      </trkpt>
      <trkpt lat="42.346828" lon="-3.682656">
        <ele>856.7</ele>
        <time>2020-08-20T10:06:17Z</time>
        <sat>11</sat>
      </trkpt>
      <trkpt lat="42.346773" lon="-3.682751">
        <ele>856.7</ele>
        <time>2020-08-20T10:06:23Z</time>
        <sat>9</sat>
      </trkpt>
      <trkpt lat="42.346710" lon="-3.682831">
        <ele>856.8</ele>
        <time>2020-08-20T10:06:28Z</time>
        <sat>11</sat>
      </trkpt>
      <trkpt lat="42.346632" lon="-3.682896">
        <ele>856.8</ele>
        <time>2020-08-20T10:06:33Z</time>
        <sat>11</sat>
      </trkpt>
      <trkpt lat="42.346555" lon="-3.682948">
        <ele>856.8</ele>
        <time>2020-08-20T10:06:38Z</time>
        <sat>11</sat>
      </trkpt>
      <trkpt lat="42.346496" lon="-3.683030">
        <ele>856.7</ele>
        <time>2020-08-20T10:06:44Z</time>
        <sat>11</sat>
      </trkpt>
      <trkpt lat="42.346446" lon="-3.683129">
        <ele>856.3</ele>
        <time>2020-08-20T10:06:53Z</time>
        <sat>11</sat>
      </trkpt>
      <trkpt lat="42.346402" lon="-3.683234">
        <ele>856.2</ele>
        <time>2020-08-20T10:07:00Z</time>
        <sat>10</sat>
      </trkpt>
      <trkpt lat="42.346363" lon="-3.683331">
        <ele>856.2</ele>
        <time>2020-08-20T10:07:06Z</time>
        <sat>10</sat>
      </trkpt>
      <trkpt lat="42.346331" lon="-3.683440">
        <ele>856.2</ele>
        <time>2020-08-20T10:07:12Z</time>
        <sat>11</sat>
      </trkpt>
      <trkpt lat="42.346298" lon="-3.683548">
        <ele>856.1</ele>
        <time>2020-08-20T10:07:18Z</time>
        <sat>11</sat>
      </trkpt>
      <trkpt lat="42.346252" lon="-3.683654">
        <ele>856.0</ele>
        <time>2020-08-20T10:07:24Z</time>
        <sat>11</sat>
      </trkpt>
      <trkpt lat="42.346218" lon="-3.683759">
        <ele>855.9</ele>
        <time>2020-08-20T10:07:30Z</time>
        <sat>11</sat>
      </trkpt>
      <trkpt lat="42.346170" lon="-3.683846">
        <ele>855.8</ele>
        <time>2020-08-20T10:07:36Z</time>
        <sat>11</sat>
      </trkpt>
      <trkpt lat="42.346110" lon="-3.683942">
        <ele>855.9</ele>
        <time>2020-08-20T10:07:42Z</time>
        <sat>11</sat>
      </trkpt>
      <trkpt lat="42.346065" lon="-3.684046">
        <ele>856.0</ele>
        <time>2020-08-20T10:07:48Z</time>
        <sat>11</sat>
      </trkpt>
      <trkpt lat="42.346020" lon="-3.684141">
        <ele>855.8</ele>
        <time>2020-08-20T10:07:54Z</time>
        <sat>11</sat>
      </trkpt>
      <trkpt lat="42.345964" lon="-3.684245">
        <ele>855.8</ele>
        <time>2020-08-20T10:08:01Z</time>
        <sat>11</sat>
      </trkpt>
      <trkpt lat="42.345916" lon="-3.684347">
        <ele>856.0</ele>
        <time>2020-08-20T10:08:07Z</time>
        <sat>11</sat>
      </trkpt>
      <trkpt lat="42.345837" lon="-3.684386">
        <ele>856.0</ele>
        <time>2020-08-20T10:08:11Z</time>
        <sat>10</sat>
      </trkpt>
      <trkpt lat="42.345778" lon="-3.684480">
        <ele>856.3</ele>
        <time>2020-08-20T10:08:17Z</time>
        <sat>11</sat>
      </trkpt>
      <trkpt lat="42.345732" lon="-3.684590">
        <ele>856.4</ele>
        <time>2020-08-20T10:08:24Z</time>
        <sat>11</sat>
      </trkpt>
      <trkpt lat="42.345660" lon="-3.684661">
        <ele>856.3</ele>
        <time>2020-08-20T10:08:30Z</time>
        <sat>11</sat>
      </trkpt>
      <trkpt lat="42.345600" lon="-3.684753">
        <ele>856.4</ele>
        <time>2020-08-20T10:08:36Z</time>
        <sat>11</sat>
      </trkpt>
      <trkpt lat="42.345540" lon="-3.684849">
        <ele>856.3</ele>
        <time>2020-08-20T10:08:42Z</time>
        <sat>11</sat>
      </trkpt>
      <trkpt lat="42.345470" lon="-3.684921">
        <ele>856.1</ele>
        <time>2020-08-20T10:08:48Z</time>
        <sat>10</sat>
      </trkpt>
      <trkpt lat="42.345413" lon="-3.685018">
        <ele>855.9</ele>
        <time>2020-08-20T10:08:55Z</time>
        <sat>11</sat>
      </trkpt>
      <trkpt lat="42.345377" lon="-3.685118">
        <ele>855.9</ele>
        <time>2020-08-20T10:09:01Z</time>
        <sat>11</sat>
      </trkpt>
      <trkpt lat="42.345309" lon="-3.685195">
        <ele>856.3</ele>
        <time>2020-08-20T10:09:07Z</time>
        <sat>10</sat>
      </trkpt>
      <trkpt lat="42.345242" lon="-3.685280">
        <ele>856.2</ele>
        <time>2020-08-20T10:09:13Z</time>
        <sat>11</sat>
      </trkpt>
      <trkpt lat="42.345206" lon="-3.685386">
        <ele>856.0</ele>
        <time>2020-08-20T10:09:20Z</time>
        <sat>10</sat>
      </trkpt>
      <trkpt lat="42.345158" lon="-3.685480">
        <ele>855.8</ele>
        <time>2020-08-20T10:09:26Z</time>
        <sat>11</sat>
      </trkpt>
      <trkpt lat="42.345110" lon="-3.685590">
        <ele>855.6</ele>
        <time>2020-08-20T10:09:33Z</time>
        <sat>11</sat>
      </trkpt>
      <trkpt lat="42.345060" lon="-3.685686">
        <ele>855.4</ele>
        <time>2020-08-20T10:09:39Z</time>
        <sat>11</sat>
      </trkpt>
      <trkpt lat="42.345001" lon="-3.685785">
        <ele>855.3</ele>
        <time>2020-08-20T10:09:45Z</time>
        <sat>11</sat>
      </trkpt>
      <trkpt lat="42.344971" lon="-3.685890">
        <ele>855.3</ele>
        <time>2020-08-20T10:09:51Z</time>
        <sat>11</sat>
      </trkpt>
      <trkpt lat="42.344948" lon="-3.686007">
        <ele>855.3</ele>
        <time>2020-08-20T10:09:58Z</time>
        <sat>10</sat>
      </trkpt>
      <trkpt lat="42.344956" lon="-3.686124">
        <ele>855.3</ele>
        <time>2020-08-20T10:10:04Z</time>
        <sat>11</sat>
      </trkpt>
      <trkpt lat="42.344941" lon="-3.686238">
        <ele>855.2</ele>
        <time>2020-08-20T10:10:11Z</time>
        <sat>11</sat>
      </trkpt>
      <trkpt lat="42.344924" lon="-3.686346">
        <ele>855.2</ele>
        <time>2020-08-20T10:10:17Z</time>
        <sat>10</sat>
      </trkpt>
      <trkpt lat="42.344971" lon="-3.686444">
        <ele>855.4</ele>
        <time>2020-08-20T10:10:32Z</time>
        <sat>8</sat>
      </trkpt>
      <trkpt lat="42.345049" lon="-3.686484">
        <ele>855.3</ele>
        <time>2020-08-20T10:10:40Z</time>
        <sat>10</sat>
      </trkpt>
      <trkpt lat="42.345125" lon="-3.686535">
        <ele>855.5</ele>
        <time>2020-08-20T10:10:50Z</time>
        <sat>10</sat>
      </trkpt>
      <trkpt lat="42.345198" lon="-3.686603">
        <ele>855.8</ele>
        <time>2020-08-20T10:11:00Z</time>
        <sat>10</sat>
      </trkpt>
      <trkpt lat="42.345260" lon="-3.686678">
        <ele>855.3</ele>
        <time>2020-08-20T10:11:09Z</time>
        <sat>9</sat>
      </trkpt>
      <trkpt lat="42.345308" lon="-3.686774">
        <ele>855.1</ele>
        <time>2020-08-20T10:11:17Z</time>
        <sat>11</sat>
      </trkpt>
      <trkpt lat="42.345389" lon="-3.686815">
        <ele>855.5</ele>
        <time>2020-08-20T10:11:25Z</time>
        <sat>8</sat>
      </trkpt>
      <trkpt lat="42.345447" lon="-3.686903">
        <ele>855.3</ele>
        <time>2020-08-20T10:11:35Z</time>
        <sat>11</sat>
      </trkpt>
      <trkpt lat="42.345746" lon="-3.686994">
        <ele>855.6</ele>
        <time>2020-08-20T10:12:01Z</time>
        <sat>10</sat>
      </trkpt>
      <trkpt lat="42.345826" lon="-3.687014">
        <ele>855.8</ele>
        <time>2020-08-20T10:12:10Z</time>
        <sat>11</sat>
      </trkpt>
      <trkpt lat="42.345853" lon="-3.687117">
        <ele>856.0</ele>
        <time>2020-08-20T10:12:35Z</time>
        <sat>9</sat>
      </trkpt>
      <trkpt lat="42.345842" lon="-3.687228">
        <ele>855.9</ele>
        <time>2020-08-20T10:12:45Z</time>
        <sat>10</sat>
      </trkpt>
      <trkpt lat="42.345762" lon="-3.687160">
        <ele>856.0</ele>
        <time>2020-08-20T10:13:01Z</time>
        <sat>9</sat>
      </trkpt>
      <trkpt lat="42.345695" lon="-3.687093">
        <ele>856.0</ele>
        <time>2020-08-20T10:13:07Z</time>
        <sat>10</sat>
      </trkpt>
      <trkpt lat="42.345436" lon="-3.687005">
        <ele>855.7</ele>
        <time>2020-08-20T10:13:32Z</time>
        <sat>8</sat>
      </trkpt>
      <trkpt lat="42.345408" lon="-3.687133">
        <ele>855.4</ele>
        <time>2020-08-20T10:13:38Z</time>
        <sat>10</sat>
      </trkpt>
      <trkpt lat="42.345374" lon="-3.687236">
        <ele>855.0</ele>
        <time>2020-08-20T10:13:44Z</time>
        <sat>10</sat>
      </trkpt>
      <trkpt lat="42.345335" lon="-3.687338">
        <ele>854.8</ele>
        <time>2020-08-20T10:13:49Z</time>
        <sat>9</sat>
      </trkpt>
      <trkpt lat="42.345297" lon="-3.687442">
        <ele>854.8</ele>
        <time>2020-08-20T10:13:55Z</time>
        <sat>8</sat>
      </trkpt>
      <trkpt lat="42.345238" lon="-3.687546">
        <ele>854.8</ele>
        <time>2020-08-20T10:14:00Z</time>
        <sat>8</sat>
      </trkpt>
      <trkpt lat="42.345196" lon="-3.687641">
        <ele>854.9</ele>
        <time>2020-08-20T10:14:05Z</time>
        <sat>9</sat>
      </trkpt>
      <trkpt lat="42.345167" lon="-3.687760">
        <ele>855.0</ele>
        <time>2020-08-20T10:14:11Z</time>
        <sat>9</sat>
      </trkpt>
      <trkpt lat="42.345140" lon="-3.687870">
        <ele>854.9</ele>
        <time>2020-08-20T10:14:17Z</time>
        <sat>9</sat>
      </trkpt>
      <trkpt lat="42.345102" lon="-3.687969">
        <ele>854.8</ele>
        <time>2020-08-20T10:14:22Z</time>
        <sat>9</sat>
      </trkpt>
      <trkpt lat="42.345025" lon="-3.688024">
        <ele>854.8</ele>
        <time>2020-08-20T10:14:26Z</time>
        <sat>9</sat>
      </trkpt>
      <trkpt lat="42.344982" lon="-3.688133">
        <ele>854.7</ele>
        <time>2020-08-20T10:14:33Z</time>
        <sat>9</sat>
      </trkpt>
      <trkpt lat="42.344965" lon="-3.688241">
        <ele>854.6</ele>
        <time>2020-08-20T10:14:39Z</time>
        <sat>9</sat>
      </trkpt>
      <trkpt lat="42.344949" lon="-3.688351">
        <ele>854.8</ele>
        <time>2020-08-20T10:14:45Z</time>
        <sat>9</sat>
      </trkpt>
      <trkpt lat="42.344941" lon="-3.688463">
        <ele>855.0</ele>
        <time>2020-08-20T10:14:51Z</time>
        <sat>9</sat>
      </trkpt>
      <trkpt lat="42.344918" lon="-3.688575">
        <ele>854.8</ele>
        <time>2020-08-20T10:14:57Z</time>
        <sat>10</sat>
      </trkpt>
      <trkpt lat="42.344895" lon="-3.688684">
        <ele>854.4</ele>
        <time>2020-08-20T10:15:03Z</time>
        <sat>10</sat>
      </trkpt>
      <trkpt lat="42.344876" lon="-3.688807">
        <ele>854.0</ele>
        <time>2020-08-20T10:15:10Z</time>
        <sat>9</sat>
      </trkpt>
      <trkpt lat="42.344814" lon="-3.688906">
        <ele>854.1</ele>
        <time>2020-08-20T10:15:16Z</time>
        <sat>9</sat>
      </trkpt>
      <trkpt lat="42.344720" lon="-3.688919">
        <ele>854.4</ele>
        <time>2020-08-20T10:15:19Z</time>
        <sat>9</sat>
      </trkpt>
      <trkpt lat="42.344661" lon="-3.688994">
        <ele>854.9</ele>
        <time>2020-08-20T10:15:24Z</time>
        <sat>9</sat>
      </trkpt>
      <trkpt lat="42.344613" lon="-3.689085">
        <ele>854.9</ele>
        <time>2020-08-20T10:15:30Z</time>
        <sat>9</sat>
      </trkpt>
      <trkpt lat="42.344591" lon="-3.689204">
        <ele>854.9</ele>
        <time>2020-08-20T10:15:38Z</time>
        <sat>9</sat>
      </trkpt>
      <trkpt lat="42.344560" lon="-3.689314">
        <ele>854.8</ele>
        <time>2020-08-20T10:15:44Z</time>
        <sat>9</sat>
      </trkpt>
      <trkpt lat="42.344560" lon="-3.689427">
        <ele>854.8</ele>
        <time>2020-08-20T10:15:52Z</time>
        <sat>10</sat>
      </trkpt>
      <trkpt lat="42.344533" lon="-3.689536">
        <ele>854.8</ele>
        <time>2020-08-20T10:15:59Z</time>
        <sat>9</sat>
      </trkpt>
      <trkpt lat="42.344506" lon="-3.689660">
        <ele>854.8</ele>
        <time>2020-08-20T10:16:05Z</time>
        <sat>10</sat>
      </trkpt>
      <trkpt lat="42.344456" lon="-3.689772">
        <ele>854.6</ele>
        <time>2020-08-20T10:16:11Z</time>
        <sat>10</sat>
      </trkpt>
      <trkpt lat="42.344442" lon="-3.689880">
        <ele>854.5</ele>
        <time>2020-08-20T10:16:17Z</time>
        <sat>11</sat>
      </trkpt>
      <trkpt lat="42.344400" lon="-3.689990">
        <ele>854.5</ele>
        <time>2020-08-20T10:16:22Z</time>
        <sat>8</sat>
      </trkpt>
      <trkpt lat="42.344380" lon="-3.690116">
        <ele>854.6</ele>
        <time>2020-08-20T10:16:28Z</time>
        <sat>8</sat>
      </trkpt>
      <trkpt lat="42.344354" lon="-3.690222">
        <ele>854.5</ele>
        <time>2020-08-20T10:16:33Z</time>
        <sat>8</sat>
      </trkpt>
      <trkpt lat="42.344331" lon="-3.690333">
        <ele>854.4</ele>
        <time>2020-08-20T10:16:39Z</time>
        <sat>9</sat>
      </trkpt>
      <trkpt lat="42.344288" lon="-3.690433">
        <ele>854.2</ele>
        <time>2020-08-20T10:16:46Z</time>
        <sat>10</sat>
      </trkpt>
      <trkpt lat="42.344253" lon="-3.690542">
        <ele>854.1</ele>
        <time>2020-08-20T10:16:52Z</time>
        <sat>10</sat>
      </trkpt>
      <trkpt lat="42.344219" lon="-3.690652">
        <ele>854.5</ele>
        <time>2020-08-20T10:16:58Z</time>
        <sat>9</sat>
      </trkpt>
      <trkpt lat="42.344216" lon="-3.690771">
        <ele>854.6</ele>
        <time>2020-08-20T10:17:04Z</time>
        <sat>9</sat>
      </trkpt>
      <trkpt lat="42.344208" lon="-3.690888">
        <ele>854.7</ele>
        <time>2020-08-20T10:17:10Z</time>
        <sat>10</sat>
      </trkpt>
      <trkpt lat="42.344177" lon="-3.690994">
        <ele>854.9</ele>
        <time>2020-08-20T10:17:16Z</time>
        <sat>9</sat>
      </trkpt>
      <trkpt lat="42.344126" lon="-3.691086">
        <ele>854.9</ele>
        <time>2020-08-20T10:17:22Z</time>
        <sat>9</sat>
      </trkpt>
      <trkpt lat="42.344071" lon="-3.691184">
        <ele>854.7</ele>
        <time>2020-08-20T10:17:28Z</time>
        <sat>10</sat>
      </trkpt>
      <trkpt lat="42.344032" lon="-3.691291">
        <ele>854.3</ele>
        <time>2020-08-20T10:17:34Z</time>
        <sat>10</sat>
      </trkpt>
      <trkpt lat="42.344000" lon="-3.691401">
        <ele>854.4</ele>
        <time>2020-08-20T10:17:40Z</time>
        <sat>10</sat>
      </trkpt>
      <trkpt lat="42.343968" lon="-3.691511">
        <ele>854.6</ele>
        <time>2020-08-20T10:17:46Z</time>
        <sat>10</sat>
      </trkpt>
      <trkpt lat="42.343936" lon="-3.691620">
        <ele>854.8</ele>
        <time>2020-08-20T10:17:52Z</time>
        <sat>10</sat>
      </trkpt>
      <trkpt lat="42.343913" lon="-3.691742">
        <ele>854.7</ele>
        <time>2020-08-20T10:17:59Z</time>
        <sat>8</sat>
      </trkpt>
      <trkpt lat="42.343901" lon="-3.691870">
        <ele>854.6</ele>
        <time>2020-08-20T10:18:06Z</time>
        <sat>8</sat>
      </trkpt>
      <trkpt lat="42.343886" lon="-3.691986">
        <ele>854.5</ele>
        <time>2020-08-20T10:18:12Z</time>
        <sat>9</sat>
      </trkpt>
      <trkpt lat="42.343877" lon="-3.692110">
        <ele>854.4</ele>
        <time>2020-08-20T10:18:18Z</time>
        <sat>8</sat>
      </trkpt>
      <trkpt lat="42.343853" lon="-3.692228">
        <ele>854.4</ele>
        <time>2020-08-20T10:18:25Z</time>
        <sat>9</sat>
      </trkpt>
      <trkpt lat="42.343848" lon="-3.692345">
        <ele>854.3</ele>
        <time>2020-08-20T10:18:31Z</time>
        <sat>8</sat>
      </trkpt>
      <trkpt lat="42.343832" lon="-3.692463">
        <ele>854.4</ele>
        <time>2020-08-20T10:18:38Z</time>
        <sat>8</sat>
      </trkpt>
      <trkpt lat="42.343826" lon="-3.692576">
        <ele>854.4</ele>
        <time>2020-08-20T10:18:44Z</time>
        <sat>8</sat>
      </trkpt>
      <trkpt lat="42.343812" lon="-3.692684">
        <ele>854.5</ele>
        <time>2020-08-20T10:18:50Z</time>
        <sat>8</sat>
      </trkpt>
      <trkpt lat="42.343802" lon="-3.692796">
        <ele>854.5</ele>
        <time>2020-08-20T10:18:57Z</time>
        <sat>9</sat>
      </trkpt>
      <trkpt lat="42.343790" lon="-3.692911">
        <ele>854.4</ele>
        <time>2020-08-20T10:19:03Z</time>
        <sat>9</sat>
      </trkpt>
      <trkpt lat="42.343774" lon="-3.693031">
        <ele>854.3</ele>
        <time>2020-08-20T10:19:09Z</time>
        <sat>9</sat>
      </trkpt>
      <trkpt lat="42.343767" lon="-3.693142">
        <ele>854.1</ele>
        <time>2020-08-20T10:19:15Z</time>
        <sat>9</sat>
      </trkpt>
      <trkpt lat="42.343763" lon="-3.693259">
        <ele>854.1</ele>
        <time>2020-08-20T10:19:21Z</time>
        <sat>9</sat>
      </trkpt>
      <trkpt lat="42.343755" lon="-3.693384">
        <ele>854.1</ele>
        <time>2020-08-20T10:19:28Z</time>
        <sat>9</sat>
      </trkpt>
      <trkpt lat="42.343731" lon="-3.693508">
        <ele>854.2</ele>
        <time>2020-08-20T10:19:35Z</time>
        <sat>10</sat>
      </trkpt>
      <trkpt lat="42.343717" lon="-3.693622">
        <ele>854.3</ele>
        <time>2020-08-20T10:19:41Z</time>
        <sat>9</sat>
      </trkpt>
      <trkpt lat="42.343692" lon="-3.693727">
        <ele>854.3</ele>
        <time>2020-08-20T10:19:47Z</time>
        <sat>11</sat>
      </trkpt>
      <trkpt lat="42.343713" lon="-3.693840">
        <ele>854.4</ele>
        <time>2020-08-20T10:19:53Z</time>
        <sat>10</sat>
      </trkpt>
      <trkpt lat="42.343701" lon="-3.693960">
        <ele>854.3</ele>
        <time>2020-08-20T10:19:59Z</time>
        <sat>10</sat>
      </trkpt>
      <trkpt lat="42.343689" lon="-3.694073">
        <ele>854.1</ele>
        <time>2020-08-20T10:20:06Z</time>
        <sat>10</sat>
      </trkpt>
      <trkpt lat="42.343693" lon="-3.694183">
        <ele>853.8</ele>
        <time>2020-08-20T10:20:14Z</time>
        <sat>10</sat>
      </trkpt>
      <trkpt lat="42.343669" lon="-3.694308">
        <ele>853.8</ele>
        <time>2020-08-20T10:20:20Z</time>
        <sat>11</sat>
      </trkpt>
      <trkpt lat="42.343639" lon="-3.694420">
        <ele>853.7</ele>
        <time>2020-08-20T10:20:26Z</time>
        <sat>8</sat>
      </trkpt>
      <trkpt lat="42.343550" lon="-3.694485">
        <ele>853.6</ele>
        <time>2020-08-20T10:20:30Z</time>
        <sat>9</sat>
      </trkpt>
      <trkpt lat="42.343483" lon="-3.694563">
        <ele>853.6</ele>
        <time>2020-08-20T10:20:35Z</time>
        <sat>9</sat>
      </trkpt>
      <trkpt lat="42.343417" lon="-3.694644">
        <ele>853.3</ele>
        <time>2020-08-20T10:20:40Z</time>
        <sat>9</sat>
      </trkpt>
      <trkpt lat="42.343361" lon="-3.694729">
        <ele>853.3</ele>
        <time>2020-08-20T10:20:45Z</time>
        <sat>10</sat>
      </trkpt>
      <trkpt lat="42.343312" lon="-3.694836">
        <ele>853.3</ele>
        <time>2020-08-20T10:20:51Z</time>
        <sat>9</sat>
      </trkpt>
      <trkpt lat="42.343294" lon="-3.694945">
        <ele>853.2</ele>
        <time>2020-08-20T10:20:57Z</time>
        <sat>10</sat>
      </trkpt>
      <trkpt lat="42.343291" lon="-3.695067">
        <ele>853.1</ele>
        <time>2020-08-20T10:21:03Z</time>
        <sat>8</sat>
      </trkpt>
      <trkpt lat="42.343280" lon="-3.695187">
        <ele>853.0</ele>
        <time>2020-08-20T10:21:09Z</time>
        <sat>8</sat>
      </trkpt>
      <trkpt lat="42.343256" lon="-3.695298">
        <ele>853.0</ele>
        <time>2020-08-20T10:21:15Z</time>
        <sat>9</sat>
      </trkpt>
      <trkpt lat="42.343225" lon="-3.695420">
        <ele>853.0</ele>
        <time>2020-08-20T10:21:22Z</time>
        <sat>9</sat>
      </trkpt>
      <trkpt lat="42.343190" lon="-3.695520">
        <ele>852.7</ele>
        <time>2020-08-20T10:21:28Z</time>
        <sat>9</sat>
      </trkpt>
      <trkpt lat="42.343133" lon="-3.695619">
        <ele>852.7</ele>
        <time>2020-08-20T10:21:35Z</time>
        <sat>9</sat>
      </trkpt>
      <trkpt lat="42.343090" lon="-3.695731">
        <ele>852.4</ele>
        <time>2020-08-20T10:21:42Z</time>
        <sat>9</sat>
      </trkpt>
      <trkpt lat="42.343050" lon="-3.695832">
        <ele>852.2</ele>
        <time>2020-08-20T10:21:48Z</time>
        <sat>9</sat>
      </trkpt>
      <trkpt lat="42.343021" lon="-3.695942">
        <ele>852.2</ele>
        <time>2020-08-20T10:21:55Z</time>
        <sat>9</sat>
      </trkpt>
      <trkpt lat="42.342977" lon="-3.696045">
        <ele>852.3</ele>
        <time>2020-08-20T10:22:02Z</time>
        <sat>10</sat>
      </trkpt>
      <trkpt lat="42.342929" lon="-3.696159">
        <ele>851.7</ele>
        <time>2020-08-20T10:22:09Z</time>
        <sat>11</sat>
      </trkpt>
      <trkpt lat="42.342900" lon="-3.696266">
        <ele>851.5</ele>
        <time>2020-08-20T10:22:15Z</time>
        <sat>11</sat>
      </trkpt>
      <trkpt lat="42.342855" lon="-3.696362">
        <ele>851.6</ele>
        <time>2020-08-20T10:22:19Z</time>
        <sat>11</sat>
      </trkpt>
      <trkpt lat="42.342827" lon="-3.696482">
        <ele>851.6</ele>
        <time>2020-08-20T10:22:26Z</time>
        <sat>10</sat>
      </trkpt>
      <trkpt lat="42.342809" lon="-3.696590">
        <ele>852.1</ele>
        <time>2020-08-20T10:22:32Z</time>
        <sat>8</sat>
      </trkpt>
      <trkpt lat="42.342813" lon="-3.696704">
        <ele>852.3</ele>
        <time>2020-08-20T10:22:38Z</time>
        <sat>8</sat>
      </trkpt>
      <trkpt lat="42.342813" lon="-3.696823">
        <ele>852.5</ele>
        <time>2020-08-20T10:22:45Z</time>
        <sat>8</sat>
      </trkpt>
      <trkpt lat="42.342812" lon="-3.696946">
        <ele>852.4</ele>
        <time>2020-08-20T10:22:53Z</time>
        <sat>10</sat>
      </trkpt>
      <trkpt lat="42.342821" lon="-3.697055">
        <ele>852.1</ele>
        <time>2020-08-20T10:22:59Z</time>
        <sat>10</sat>
      </trkpt>
      <trkpt lat="42.342852" lon="-3.697167">
        <ele>851.8</ele>
        <time>2020-08-20T10:23:05Z</time>
        <sat>9</sat>
      </trkpt>
      <trkpt lat="42.342892" lon="-3.697281">
        <ele>851.8</ele>
        <time>2020-08-20T10:23:11Z</time>
        <sat>8</sat>
      </trkpt>
      <trkpt lat="42.342907" lon="-3.697413">
        <ele>852.0</ele>
        <time>2020-08-20T10:23:18Z</time>
        <sat>9</sat>
      </trkpt>
      <trkpt lat="42.342926" lon="-3.697532">
        <ele>852.0</ele>
        <time>2020-08-20T10:23:24Z</time>
        <sat>8</sat>
      </trkpt>
      <trkpt lat="42.342956" lon="-3.697642">
        <ele>851.9</ele>
        <time>2020-08-20T10:23:30Z</time>
        <sat>7</sat>
      </trkpt>
      <trkpt lat="42.342948" lon="-3.697766">
        <ele>851.8</ele>
        <time>2020-08-20T10:23:39Z</time>
        <sat>9</sat>
      </trkpt>
      <trkpt lat="42.342931" lon="-3.697878">
        <ele>851.9</ele>
        <time>2020-08-20T10:23:47Z</time>
        <sat>7</sat>
      </trkpt>
      <trkpt lat="42.342912" lon="-3.698001">
        <ele>851.8</ele>
        <time>2020-08-20T10:23:55Z</time>
        <sat>8</sat>
      </trkpt>
      <trkpt lat="42.342905" lon="-3.698114">
        <ele>851.7</ele>
        <time>2020-08-20T10:24:01Z</time>
        <sat>7</sat>
      </trkpt>
      <trkpt lat="42.342888" lon="-3.698237">
        <ele>851.7</ele>
        <time>2020-08-20T10:24:08Z</time>
        <sat>8</sat>
      </trkpt>
      <trkpt lat="42.342858" lon="-3.698367">
        <ele>851.6</ele>
        <time>2020-08-20T10:24:14Z</time>
        <sat>7</sat>
      </trkpt>
      <trkpt lat="42.342846" lon="-3.698491">
        <ele>851.6</ele>
        <time>2020-08-20T10:24:20Z</time>
        <sat>8</sat>
      </trkpt>
      <trkpt lat="42.342843" lon="-3.698611">
        <ele>851.6</ele>
        <time>2020-08-20T10:24:26Z</time>
        <sat>7</sat>
      </trkpt>
      <trkpt lat="42.342859" lon="-3.698722">
        <ele>851.7</ele>
        <time>2020-08-20T10:24:32Z</time>
        <sat>8</sat>
      </trkpt>
      <trkpt lat="42.342889" lon="-3.698834">
        <ele>851.8</ele>
        <time>2020-08-20T10:24:38Z</time>
        <sat>8</sat>
      </trkpt>
      <trkpt lat="42.342926" lon="-3.698940">
        <ele>851.1</ele>
        <time>2020-08-20T10:24:44Z</time>
        <sat>6</sat>
      </trkpt>
      <trkpt lat="42.342926" lon="-3.699061">
        <ele>850.9</ele>
        <time>2020-08-20T10:24:50Z</time>
        <sat>6</sat>
      </trkpt>
      <trkpt lat="42.342933" lon="-3.699186">
        <ele>849.9</ele>
        <time>2020-08-20T10:24:57Z</time>
        <sat>7</sat>
      </trkpt>
      <trkpt lat="42.342908" lon="-3.699310">
        <ele>851.3</ele>
        <time>2020-08-20T10:25:03Z</time>
        <sat>7</sat>
      </trkpt>
      <trkpt lat="42.342973" lon="-3.699392">
        <ele>851.5</ele>
        <time>2020-08-20T10:25:08Z</time>
        <sat>7</sat>
      </trkpt>
      <trkpt lat="42.343005" lon="-3.699502">
        <ele>851.3</ele>
        <time>2020-08-20T10:25:14Z</time>
        <sat>8</sat>
      </trkpt>
      <trkpt lat="42.343020" lon="-3.699633">
        <ele>851.0</ele>
        <time>2020-08-20T10:25:20Z</time>
        <sat>8</sat>
      </trkpt>
      <trkpt lat="42.343028" lon="-3.699742">
        <ele>850.9</ele>
        <time>2020-08-20T10:25:26Z</time>
        <sat>8</sat>
      </trkpt>
      <trkpt lat="42.343034" lon="-3.699855">
        <ele>851.0</ele>
        <time>2020-08-20T10:25:32Z</time>
        <sat>8</sat>
      </trkpt>
      <trkpt lat="42.343061" lon="-3.699960">
        <ele>851.0</ele>
        <time>2020-08-20T10:25:38Z</time>
        <sat>9</sat>
      </trkpt>
      <trkpt lat="42.343086" lon="-3.700072">
        <ele>851.2</ele>
        <time>2020-08-20T10:25:45Z</time>
        <sat>8</sat>
      </trkpt>
      <trkpt lat="42.343115" lon="-3.700186">
        <ele>851.1</ele>
        <time>2020-08-20T10:25:52Z</time>
        <sat>6</sat>
      </trkpt>
      <trkpt lat="42.343160" lon="-3.700285">
        <ele>851.0</ele>
        <time>2020-08-20T10:25:58Z</time>
        <sat>6</sat>
      </trkpt>
      <trkpt lat="42.343203" lon="-3.700391">
        <ele>850.9</ele>
        <time>2020-08-20T10:26:04Z</time>
        <sat>8</sat>
      </trkpt>
      <trkpt lat="42.343236" lon="-3.700496">
        <ele>850.8</ele>
        <time>2020-08-20T10:26:10Z</time>
        <sat>8</sat>
      </trkpt>
      <trkpt lat="42.343257" lon="-3.700610">
        <ele>851.1</ele>
        <time>2020-08-20T10:26:17Z</time>
        <sat>9</sat>
      </trkpt>
      <trkpt lat="42.343280" lon="-3.700735">
        <ele>851.4</ele>
        <time>2020-08-20T10:26:23Z</time>
        <sat>7</sat>
      </trkpt>
      <trkpt lat="42.343318" lon="-3.700835">
        <ele>851.7</ele>
        <time>2020-08-20T10:26:29Z</time>
        <sat>9</sat>
      </trkpt>
      <trkpt lat="42.343308" lon="-3.700950">
        <ele>851.9</ele>
        <time>2020-08-20T10:26:35Z</time>
        <sat>9</sat>
      </trkpt>
      <trkpt lat="42.343325" lon="-3.701065">
        <ele>852.0</ele>
        <time>2020-08-20T10:26:41Z</time>
        <sat>9</sat>
      </trkpt>
      <trkpt lat="42.343329" lon="-3.701176">
        <ele>851.9</ele>
        <time>2020-08-20T10:26:47Z</time>
        <sat>7</sat>
      </trkpt>
      <trkpt lat="42.343306" lon="-3.701290">
        <ele>852.0</ele>
        <time>2020-08-20T10:26:54Z</time>
        <sat>8</sat>
      </trkpt>
      <trkpt lat="42.343310" lon="-3.701405">
        <ele>851.7</ele>
        <time>2020-08-20T10:27:00Z</time>
        <sat>9</sat>
      </trkpt>
      <trkpt lat="42.343282" lon="-3.701510">
        <ele>851.6</ele>
        <time>2020-08-20T10:27:06Z</time>
        <sat>8</sat>
      </trkpt>
      <trkpt lat="42.343246" lon="-3.701627">
        <ele>851.7</ele>
        <time>2020-08-20T10:27:11Z</time>
        <sat>8</sat>
      </trkpt>
      <trkpt lat="42.343241" lon="-3.701756">
        <ele>851.9</ele>
        <time>2020-08-20T10:27:23Z</time>
        <sat>8</sat>
      </trkpt>
      <trkpt lat="42.343212" lon="-3.701875">
        <ele>852.1</ele>
        <time>2020-08-20T10:27:29Z</time>
        <sat>9</sat>
      </trkpt>
      <trkpt lat="42.343169" lon="-3.701983">
        <ele>852.3</ele>
        <time>2020-08-20T10:27:35Z</time>
        <sat>8</sat>
      </trkpt>
      <trkpt lat="42.343114" lon="-3.702082">
        <ele>852.6</ele>
        <time>2020-08-20T10:27:41Z</time>
        <sat>8</sat>
      </trkpt>
      <trkpt lat="42.343172" lon="-3.702175">
        <ele>852.8</ele>
        <time>2020-08-20T10:27:47Z</time>
        <sat>8</sat>
      </trkpt>
      <trkpt lat="42.343154" lon="-3.702288">
        <ele>853.2</ele>
        <time>2020-08-20T10:27:56Z</time>
        <sat>9</sat>
      </trkpt>
      <trkpt lat="42.343092" lon="-3.702393">
        <ele>853.5</ele>
        <time>2020-08-20T10:28:04Z</time>
        <sat>9</sat>
      </trkpt>
      <trkpt lat="42.343015" lon="-3.702474">
        <ele>853.7</ele>
        <time>2020-08-20T10:28:10Z</time>
        <sat>8</sat>
      </trkpt>
      <trkpt lat="42.342930" lon="-3.702514">
        <ele>854.0</ele>
        <time>2020-08-20T10:28:15Z</time>
        <sat>7</sat>
      </trkpt>
      <trkpt lat="42.342893" lon="-3.702618">
        <ele>854.3</ele>
        <time>2020-08-20T10:28:23Z</time>
        <sat>8</sat>
      </trkpt>
      <trkpt lat="42.342851" lon="-3.702732">
        <ele>854.5</ele>
        <time>2020-08-20T10:28:29Z</time>
        <sat>9</sat>
      </trkpt>
      <trkpt lat="42.342813" lon="-3.702845">
        <ele>854.6</ele>
        <time>2020-08-20T10:28:34Z</time>
        <sat>9</sat>
      </trkpt>
      <trkpt lat="42.342760" lon="-3.702944">
        <ele>854.9</ele>
        <time>2020-08-20T10:28:40Z</time>
        <sat>9</sat>
      </trkpt>
      <trkpt lat="42.342687" lon="-3.703025">
        <ele>855.0</ele>
        <time>2020-08-20T10:28:46Z</time>
        <sat>9</sat>
      </trkpt>
      <trkpt lat="42.342655" lon="-3.703125">
        <ele>855.2</ele>
        <time>2020-08-20T10:28:52Z</time>
        <sat>9</sat>
      </trkpt>
      <trkpt lat="42.342584" lon="-3.703183">
        <ele>855.3</ele>
        <time>2020-08-20T10:28:57Z</time>
        <sat>9</sat>
      </trkpt>
      <trkpt lat="42.342521" lon="-3.703266">
        <ele>855.5</ele>
        <time>2020-08-20T10:29:05Z</time>
        <sat>8</sat>
      </trkpt>
      <trkpt lat="42.342483" lon="-3.703369">
        <ele>855.8</ele>
        <time>2020-08-20T10:29:11Z</time>
        <sat>9</sat>
      </trkpt>
      <trkpt lat="42.342433" lon="-3.703462">
        <ele>856.1</ele>
        <time>2020-08-20T10:29:17Z</time>
        <sat>9</sat>
      </trkpt>
      <trkpt lat="42.342395" lon="-3.703565">
        <ele>856.5</ele>
        <time>2020-08-20T10:29:23Z</time>
        <sat>9</sat>
      </trkpt>
      <trkpt lat="42.342347" lon="-3.703657">
        <ele>856.9</ele>
        <time>2020-08-20T10:29:30Z</time>
        <sat>9</sat>
      </trkpt>
      <trkpt lat="42.342295" lon="-3.703755">
        <ele>857.4</ele>
        <time>2020-08-20T10:29:36Z</time>
        <sat>9</sat>
      </trkpt>
      <trkpt lat="42.342247" lon="-3.703858">
        <ele>858.0</ele>
        <time>2020-08-20T10:29:44Z</time>
        <sat>8</sat>
      </trkpt>
      <trkpt lat="42.342169" lon="-3.703925">
        <ele>858.5</ele>
        <time>2020-08-20T10:29:52Z</time>
        <sat>9</sat>
      </trkpt>
      <trkpt lat="42.342083" lon="-3.703950">
        <ele>859.1</ele>
        <time>2020-08-20T10:30:01Z</time>
        <sat>9</sat>
      </trkpt>
      <trkpt lat="42.342013" lon="-3.704023">
        <ele>859.6</ele>
        <time>2020-08-20T10:30:09Z</time>
        <sat>9</sat>
      </trkpt>
      <trkpt lat="42.341926" lon="-3.704061">
        <ele>859.9</ele>
        <time>2020-08-20T10:30:14Z</time>
        <sat>9</sat>
      </trkpt>
      <trkpt lat="42.341855" lon="-3.704118">
        <ele>860.2</ele>
        <time>2020-08-20T10:30:22Z</time>
        <sat>8</sat>
      </trkpt>
      <trkpt lat="42.341780" lon="-3.704162">
        <ele>860.4</ele>
        <time>2020-08-20T10:30:30Z</time>
        <sat>8</sat>
      </trkpt>
      <trkpt lat="42.341684" lon="-3.704169">
        <ele>860.5</ele>
        <time>2020-08-20T10:30:39Z</time>
        <sat>9</sat>
      </trkpt>
      <trkpt lat="42.341601" lon="-3.704189">
        <ele>860.7</ele>
        <time>2020-08-20T10:30:58Z</time>
        <sat>7</sat>
      </trkpt>
      <trkpt lat="42.341567" lon="-3.704289">
        <ele>860.8</ele>
        <time>2020-08-20T10:31:08Z</time>
        <sat>9</sat>
      </trkpt>
      <trkpt lat="42.341500" lon="-3.704360">
        <ele>860.8</ele>
        <time>2020-08-20T10:31:15Z</time>
        <sat>8</sat>
      </trkpt>
      <trkpt lat="42.341425" lon="-3.704419">
        <ele>861.0</ele>
        <time>2020-08-20T10:31:24Z</time>
        <sat>8</sat>
      </trkpt>
      <trkpt lat="42.341338" lon="-3.704433">
        <ele>861.1</ele>
        <time>2020-08-20T10:31:29Z</time>
        <sat>8</sat>
      </trkpt>
      <trkpt lat="42.341251" lon="-3.704471">
        <ele>861.4</ele>
        <time>2020-08-20T10:31:37Z</time>
        <sat>9</sat>
      </trkpt>
      <trkpt lat="42.341178" lon="-3.704539">
        <ele>861.8</ele>
        <time>2020-08-20T10:31:44Z</time>
        <sat>9</sat>
      </trkpt>
      <trkpt lat="42.341129" lon="-3.704634">
        <ele>862.2</ele>
        <time>2020-08-20T10:31:51Z</time>
        <sat>9</sat>
      </trkpt>
      <trkpt lat="42.341072" lon="-3.704724">
        <ele>862.4</ele>
        <time>2020-08-20T10:32:04Z</time>
        <sat>8</sat>
      </trkpt>
      <trkpt lat="42.341006" lon="-3.704792">
        <ele>862.9</ele>
        <time>2020-08-20T10:32:13Z</time>
        <sat>9</sat>
      </trkpt>
      <trkpt lat="42.340959" lon="-3.704884">
        <ele>862.9</ele>
        <time>2020-08-20T10:32:19Z</time>
        <sat>9</sat>
      </trkpt>
      <trkpt lat="42.340899" lon="-3.704970">
        <ele>863.3</ele>
        <time>2020-08-20T10:32:25Z</time>
        <sat>8</sat>
      </trkpt>
      <trkpt lat="42.340836" lon="-3.705049">
        <ele>863.6</ele>
        <time>2020-08-20T10:32:32Z</time>
        <sat>8</sat>
      </trkpt>
      <trkpt lat="42.340766" lon="-3.705134">
        <ele>864.0</ele>
        <time>2020-08-20T10:32:40Z</time>
        <sat>9</sat>
      </trkpt>
      <trkpt lat="42.340683" lon="-3.705179">
        <ele>863.7</ele>
        <time>2020-08-20T10:32:45Z</time>
        <sat>9</sat>
      </trkpt>
      <trkpt lat="42.340621" lon="-3.705259">
        <ele>863.6</ele>
        <time>2020-08-20T10:32:51Z</time>
        <sat>9</sat>
      </trkpt>
      <trkpt lat="42.340615" lon="-3.705375">
        <ele>860.2</ele>
        <time>2020-08-20T10:32:59Z</time>
        <sat>9</sat>
      </trkpt>
      <trkpt lat="42.340554" lon="-3.705464">
        <ele>861.0</ele>
        <time>2020-08-20T10:33:14Z</time>
        <sat>7</sat>
      </trkpt>
      <trkpt lat="42.340476" lon="-3.705432">
        <ele>863.3</ele>
        <time>2020-08-20T10:34:22Z</time>
        <sat>10</sat>
      </trkpt>
      <trkpt lat="42.340397" lon="-3.705369">
        <ele>862.1</ele>
        <time>2020-08-20T10:34:30Z</time>
        <sat>9</sat>
      </trkpt>
      <trkpt lat="42.340314" lon="-3.705371">
        <ele>860.0</ele>
        <time>2020-08-20T10:34:47Z</time>
        <sat>8</sat>
      </trkpt>
      <trkpt lat="42.340241" lon="-3.705319">
        <ele>858.4</ele>
        <time>2020-08-20T10:35:02Z</time>
        <sat>9</sat>
      </trkpt>
      <trkpt lat="42.340156" lon="-3.705311">
        <ele>857.0</ele>
        <time>2020-08-20T10:35:09Z</time>
        <sat>9</sat>
      </trkpt>
      <trkpt lat="42.340191" lon="-3.705210">
        <ele>855.3</ele>
        <time>2020-08-20T10:35:33Z</time>
        <sat>8</sat>
      </trkpt>
      <trkpt lat="42.340249" lon="-3.705133">
        <ele>854.7</ele>
        <time>2020-08-20T10:35:39Z</time>
        <sat>9</sat>
      </trkpt>
      <trkpt lat="42.340311" lon="-3.705055">
        <ele>854.1</ele>
        <time>2020-08-20T10:35:45Z</time>
        <sat>9</sat>
      </trkpt>
      <trkpt lat="42.340363" lon="-3.704965">
        <ele>853.7</ele>
        <time>2020-08-20T10:35:52Z</time>
        <sat>10</sat>
      </trkpt>
      <trkpt lat="42.340365" lon="-3.704842">
        <ele>853.8</ele>
        <time>2020-08-20T10:36:00Z</time>
        <sat>9</sat>
      </trkpt>
      <trkpt lat="42.340315" lon="-3.704747">
        <ele>853.6</ele>
        <time>2020-08-20T10:36:07Z</time>
        <sat>7</sat>
      </trkpt>
      <trkpt lat="42.340250" lon="-3.704658">
        <ele>853.5</ele>
        <time>2020-08-20T10:36:19Z</time>
        <sat>9</sat>
      </trkpt>
      <trkpt lat="42.340204" lon="-3.704553">
        <ele>853.2</ele>
        <time>2020-08-20T10:36:27Z</time>
        <sat>9</sat>
      </trkpt>
      <trkpt lat="42.340144" lon="-3.704458">
        <ele>852.7</ele>
        <time>2020-08-20T10:36:34Z</time>
        <sat>10</sat>
      </trkpt>
      <trkpt lat="42.339948" lon="-3.704730">
        <ele>850.5</ele>
        <time>2020-08-20T10:39:01Z</time>
        <sat>4</sat>
      </trkpt>
      <trkpt lat="42.340044" lon="-3.704753">
        <ele>850.6</ele>
        <time>2020-08-20T10:39:04Z</time>
        <sat>5</sat>
      </trkpt>
      <trkpt lat="42.340190" lon="-3.704891">
        <ele>850.6</ele>
        <time>2020-08-20T10:39:13Z</time>
        <sat>0</sat>
      </trkpt>
      <trkpt lat="42.340547" lon="-3.705443">
        <ele>897.4</ele>
        <time>2020-08-21T05:40:39Z</time>
        <sat>5</sat>
      </trkpt>
      <trkpt lat="42.340489" lon="-3.705539">
        <ele>893.7</ele>
        <time>2020-08-21T05:40:57Z</time>
        <sat>5</sat>
      </trkpt>
      <trkpt lat="42.340498" lon="-3.705653">
        <ele>895.7</ele>
        <time>2020-08-21T05:41:03Z</time>
        <sat>5</sat>
      </trkpt>
      <trkpt lat="42.340436" lon="-3.705733">
        <ele>898.2</ele>
        <time>2020-08-21T05:41:10Z</time>
        <sat>5</sat>
      </trkpt>
      <trkpt lat="42.340494" lon="-3.705819">
        <ele>898.6</ele>
        <time>2020-08-21T05:41:18Z</time>
        <sat>5</sat>
      </trkpt>
      <trkpt lat="42.340462" lon="-3.705924">
        <ele>898.6</ele>
        <time>2020-08-21T05:41:25Z</time>
        <sat>5</sat>
      </trkpt>
      <trkpt lat="42.340428" lon="-3.706043">
        <ele>898.4</ele>
        <time>2020-08-21T05:41:31Z</time>
        <sat>5</sat>
      </trkpt>
      <trkpt lat="42.340389" lon="-3.706143">
        <ele>898.3</ele>
        <time>2020-08-21T05:41:36Z</time>
        <sat>5</sat>
      </trkpt>
      <trkpt lat="42.340318" lon="-3.706279">
        <ele>898.0</ele>
        <time>2020-08-21T05:41:41Z</time>
        <sat>5</sat>
      </trkpt>
      <trkpt lat="42.340256" lon="-3.706377">
        <ele>899.0</ele>
        <time>2020-08-21T05:41:48Z</time>
        <sat>5</sat>
      </trkpt>
      <trkpt lat="42.340203" lon="-3.706466">
        <ele>899.9</ele>
        <time>2020-08-21T05:41:56Z</time>
        <sat>5</sat>
      </trkpt>
      <trkpt lat="42.340162" lon="-3.706583">
        <ele>900.3</ele>
        <time>2020-08-21T05:42:03Z</time>
        <sat>5</sat>
      </trkpt>
      <trkpt lat="42.340162" lon="-3.706696">
        <ele>900.8</ele>
        <time>2020-08-21T05:42:13Z</time>
        <sat>5</sat>
      </trkpt>
      <trkpt lat="42.340218" lon="-3.706797">
        <ele>901.1</ele>
        <time>2020-08-21T05:42:22Z</time>
        <sat>5</sat>
      </trkpt>
      <trkpt lat="42.340234" lon="-3.706910">
        <ele>901.5</ele>
        <time>2020-08-21T05:42:29Z</time>
        <sat>5</sat>
      </trkpt>
      <trkpt lat="42.340255" lon="-3.707032">
        <ele>902.0</ele>
        <time>2020-08-21T05:42:36Z</time>
        <sat>5</sat>
      </trkpt>
      <trkpt lat="42.340291" lon="-3.707130">
        <ele>902.3</ele>
        <time>2020-08-21T05:42:43Z</time>
        <sat>5</sat>
      </trkpt>
      <trkpt lat="42.340332" lon="-3.707238">
        <ele>902.5</ele>
        <time>2020-08-21T05:42:51Z</time>
        <sat>5</sat>
      </trkpt>
      <trkpt lat="42.340363" lon="-3.707342">
        <ele>902.8</ele>
        <time>2020-08-21T05:42:58Z</time>
        <sat>5</sat>
      </trkpt>
      <trkpt lat="42.340400" lon="-3.707448">
        <ele>902.9</ele>
        <time>2020-08-21T05:43:05Z</time>
        <sat>5</sat>
      </trkpt>
      <trkpt lat="42.340448" lon="-3.707556">
        <ele>903.0</ele>
        <time>2020-08-21T05:43:13Z</time>
        <sat>5</sat>
      </trkpt>
      <trkpt lat="42.340487" lon="-3.707659">
        <ele>903.3</ele>
        <time>2020-08-21T05:43:20Z</time>
        <sat>5</sat>
      </trkpt>
      <trkpt lat="42.340526" lon="-3.707770">
        <ele>903.5</ele>
        <time>2020-08-21T05:43:28Z</time>
        <sat>5</sat>
      </trkpt>
      <trkpt lat="42.340553" lon="-3.707880">
        <ele>903.6</ele>
        <time>2020-08-21T05:43:35Z</time>
        <sat>5</sat>
      </trkpt>
      <trkpt lat="42.340556" lon="-3.707998">
        <ele>903.7</ele>
        <time>2020-08-21T05:43:43Z</time>
        <sat>5</sat>
      </trkpt>
      <trkpt lat="42.340573" lon="-3.708120">
        <ele>903.8</ele>
        <time>2020-08-21T05:43:50Z</time>
        <sat>5</sat>
      </trkpt>
      <trkpt lat="42.340584" lon="-3.708244">
        <ele>903.8</ele>
        <time>2020-08-21T05:43:57Z</time>
        <sat>5</sat>
      </trkpt>
      <trkpt lat="42.340621" lon="-3.708353">
        <ele>904.0</ele>
        <time>2020-08-21T05:44:04Z</time>
        <sat>5</sat>
      </trkpt>
      <trkpt lat="42.340630" lon="-3.708476">
        <ele>904.2</ele>
        <time>2020-08-21T05:44:10Z</time>
        <sat>5</sat>
      </trkpt>
      <trkpt lat="42.340660" lon="-3.708585">
        <ele>904.4</ele>
        <time>2020-08-21T05:44:17Z</time>
        <sat>5</sat>
      </trkpt>
      <trkpt lat="42.340684" lon="-3.708692">
        <ele>904.5</ele>
        <time>2020-08-21T05:44:24Z</time>
        <sat>5</sat>
      </trkpt>
      <trkpt lat="42.340728" lon="-3.708789">
        <ele>904.6</ele>
        <time>2020-08-21T05:44:30Z</time>
        <sat>5</sat>
      </trkpt>
      <trkpt lat="42.340789" lon="-3.708882">
        <ele>904.7</ele>
        <time>2020-08-21T05:44:37Z</time>
        <sat>5</sat>
      </trkpt>
      <trkpt lat="42.340821" lon="-3.709002">
        <ele>905.0</ele>
        <time>2020-08-21T05:44:45Z</time>
        <sat>5</sat>
      </trkpt>
      <trkpt lat="42.340856" lon="-3.709119">
        <ele>905.1</ele>
        <time>2020-08-21T05:44:51Z</time>
        <sat>5</sat>
      </trkpt>
      <trkpt lat="42.340904" lon="-3.709218">
        <ele>891.8</ele>
        <time>2020-08-21T05:44:59Z</time>
        <sat>6</sat>
      </trkpt>
      <trkpt lat="42.340927" lon="-3.709334">
        <ele>872.0</ele>
        <time>2020-08-21T05:45:06Z</time>
        <sat>6</sat>
      </trkpt>
      <trkpt lat="42.340955" lon="-3.709448">
        <ele>867.4</ele>
        <time>2020-08-21T05:45:13Z</time>
        <sat>6</sat>
      </trkpt>
      <trkpt lat="42.340972" lon="-3.709569">
        <ele>866.3</ele>
        <time>2020-08-21T05:45:21Z</time>
        <sat>6</sat>
      </trkpt>
      <trkpt lat="42.340989" lon="-3.709689">
        <ele>866.2</ele>
        <time>2020-08-21T05:45:28Z</time>
        <sat>6</sat>
      </trkpt>
      <trkpt lat="42.341024" lon="-3.709803">
        <ele>866.1</ele>
        <time>2020-08-21T05:45:35Z</time>
        <sat>6</sat>
      </trkpt>
      <trkpt lat="42.341048" lon="-3.709921">
        <ele>866.1</ele>
        <time>2020-08-21T05:45:42Z</time>
        <sat>6</sat>
      </trkpt>
      <trkpt lat="42.341072" lon="-3.710026">
        <ele>866.1</ele>
        <time>2020-08-21T05:45:49Z</time>
        <sat>6</sat>
      </trkpt>
      <trkpt lat="42.341096" lon="-3.710133">
        <ele>866.0</ele>
        <time>2020-08-21T05:45:56Z</time>
        <sat>6</sat>
      </trkpt>
      <trkpt lat="42.341112" lon="-3.710245">
        <ele>865.9</ele>
        <time>2020-08-21T05:46:04Z</time>
        <sat>6</sat>
      </trkpt>
      <trkpt lat="42.341128" lon="-3.710355">
        <ele>865.5</ele>
        <time>2020-08-21T05:46:10Z</time>
        <sat>6</sat>
      </trkpt>
      <trkpt lat="42.341152" lon="-3.710465">
        <ele>864.9</ele>
        <time>2020-08-21T05:46:17Z</time>
        <sat>6</sat>
      </trkpt>
      <trkpt lat="42.341168" lon="-3.710576">
        <ele>864.4</ele>
        <time>2020-08-21T05:46:24Z</time>
        <sat>6</sat>
      </trkpt>
      <trkpt lat="42.341183" lon="-3.710687">
        <ele>863.6</ele>
        <time>2020-08-21T05:46:31Z</time>
        <sat>7</sat>
      </trkpt>
      <trkpt lat="42.341227" lon="-3.710799">
        <ele>862.8</ele>
        <time>2020-08-21T05:46:38Z</time>
        <sat>8</sat>
      </trkpt>
      <trkpt lat="42.341258" lon="-3.710919">
        <ele>862.1</ele>
        <time>2020-08-21T05:46:45Z</time>
        <sat>8</sat>
      </trkpt>
      <trkpt lat="42.341312" lon="-3.711006">
        <ele>861.5</ele>
        <time>2020-08-21T05:46:51Z</time>
        <sat>8</sat>
      </trkpt>
      <trkpt lat="42.341383" lon="-3.711062">
        <ele>860.9</ele>
        <time>2020-08-21T05:46:58Z</time>
        <sat>8</sat>
      </trkpt>
      <trkpt lat="42.341467" lon="-3.711071">
        <ele>859.8</ele>
        <time>2020-08-21T05:47:31Z</time>
        <sat>8</sat>
      </trkpt>
      <trkpt lat="42.341540" lon="-3.711143">
        <ele>859.7</ele>
        <time>2020-08-21T05:47:37Z</time>
        <sat>7</sat>
      </trkpt>
      <trkpt lat="42.341578" lon="-3.711241">
        <ele>859.2</ele>
        <time>2020-08-21T05:47:52Z</time>
        <sat>7</sat>
      </trkpt>
      <trkpt lat="42.341590" lon="-3.711354">
        <ele>857.6</ele>
        <time>2020-08-21T05:48:07Z</time>
        <sat>7</sat>
      </trkpt>
      <trkpt lat="42.341605" lon="-3.711464">
        <ele>855.4</ele>
        <time>2020-08-21T05:48:20Z</time>
        <sat>8</sat>
      </trkpt>
      <trkpt lat="42.341612" lon="-3.711582">
        <ele>853.6</ele>
        <time>2020-08-21T05:48:32Z</time>
        <sat>8</sat>
      </trkpt>
      <trkpt lat="42.341616" lon="-3.711699">
        <ele>852.8</ele>
        <time>2020-08-21T05:48:40Z</time>
        <sat>8</sat>
      </trkpt>
      <trkpt lat="42.341672" lon="-3.711789">
        <ele>852.1</ele>
        <time>2020-08-21T05:48:50Z</time>
        <sat>8</sat>
      </trkpt>
      <trkpt lat="42.341666" lon="-3.711901">
        <ele>851.6</ele>
        <time>2020-08-21T05:48:58Z</time>
        <sat>8</sat>
      </trkpt>
      <trkpt lat="42.341671" lon="-3.712015">
        <ele>850.6</ele>
        <time>2020-08-21T05:49:07Z</time>
        <sat>8</sat>
      </trkpt>
      <trkpt lat="42.341650" lon="-3.712129">
        <ele>849.8</ele>
        <time>2020-08-21T05:49:21Z</time>
        <sat>8</sat>
      </trkpt>
      <trkpt lat="42.341647" lon="-3.712253">
        <ele>850.1</ele>
        <time>2020-08-21T05:49:28Z</time>
        <sat>8</sat>
      </trkpt>
      <trkpt lat="42.341641" lon="-3.712367">
        <ele>848.9</ele>
        <time>2020-08-21T05:49:35Z</time>
        <sat>8</sat>
      </trkpt>
      <trkpt lat="42.341665" lon="-3.712479">
        <ele>847.9</ele>
        <time>2020-08-21T05:49:42Z</time>
        <sat>8</sat>
      </trkpt>
      <trkpt lat="42.341692" lon="-3.712592">
        <ele>846.4</ele>
        <time>2020-08-21T05:49:56Z</time>
        <sat>8</sat>
      </trkpt>
      <trkpt lat="42.341729" lon="-3.712714">
        <ele>845.9</ele>
        <time>2020-08-21T05:50:04Z</time>
        <sat>7</sat>
      </trkpt>
      <trkpt lat="42.341764" lon="-3.712826">
        <ele>845.4</ele>
        <time>2020-08-21T05:50:10Z</time>
        <sat>8</sat>
      </trkpt>
      <trkpt lat="42.341801" lon="-3.712934">
        <ele>844.9</ele>
        <time>2020-08-21T05:50:16Z</time>
        <sat>7</sat>
      </trkpt>
      <trkpt lat="42.341836" lon="-3.713051">
        <ele>844.3</ele>
        <time>2020-08-21T05:50:23Z</time>
        <sat>7</sat>
      </trkpt>
      <trkpt lat="42.341874" lon="-3.713148">
        <ele>843.9</ele>
        <time>2020-08-21T05:50:29Z</time>
        <sat>7</sat>
      </trkpt>
      <trkpt lat="42.341917" lon="-3.713246">
        <ele>843.4</ele>
        <time>2020-08-21T05:50:36Z</time>
        <sat>7</sat>
      </trkpt>
      <trkpt lat="42.341972" lon="-3.713340">
        <ele>842.8</ele>
        <time>2020-08-21T05:50:43Z</time>
        <sat>7</sat>
      </trkpt>
      <trkpt lat="42.342039" lon="-3.713425">
        <ele>842.3</ele>
        <time>2020-08-21T05:50:50Z</time>
        <sat>7</sat>
      </trkpt>
      <trkpt lat="42.342105" lon="-3.713501">
        <ele>841.9</ele>
        <time>2020-08-21T05:50:57Z</time>
        <sat>7</sat>
      </trkpt>
      <trkpt lat="42.342139" lon="-3.713609">
        <ele>841.3</ele>
        <time>2020-08-21T05:51:04Z</time>
        <sat>7</sat>
      </trkpt>
      <trkpt lat="42.342192" lon="-3.713705">
        <ele>841.0</ele>
        <time>2020-08-21T05:51:11Z</time>
        <sat>8</sat>
      </trkpt>
      <trkpt lat="42.342227" lon="-3.713811">
        <ele>840.7</ele>
        <time>2020-08-21T05:51:17Z</time>
        <sat>8</sat>
      </trkpt>
      <trkpt lat="42.342241" lon="-3.713924">
        <ele>840.5</ele>
        <time>2020-08-21T05:51:22Z</time>
        <sat>7</sat>
      </trkpt>
      <trkpt lat="42.342272" lon="-3.714042">
        <ele>839.9</ele>
        <time>2020-08-21T05:51:53Z</time>
        <sat>7</sat>
      </trkpt>
      <trkpt lat="42.342353" lon="-3.714059">
        <ele>839.8</ele>
        <time>2020-08-21T05:51:59Z</time>
        <sat>7</sat>
      </trkpt>
      <trkpt lat="42.342432" lon="-3.714123">
        <ele>839.5</ele>
        <time>2020-08-21T05:52:06Z</time>
        <sat>8</sat>
      </trkpt>
      <trkpt lat="42.342503" lon="-3.714200">
        <ele>839.3</ele>
        <time>2020-08-21T05:52:13Z</time>
        <sat>7</sat>
      </trkpt>
      <trkpt lat="42.342564" lon="-3.714282">
        <ele>839.1</ele>
        <time>2020-08-21T05:52:20Z</time>
        <sat>8</sat>
      </trkpt>
      <trkpt lat="42.342610" lon="-3.714383">
        <ele>839.0</ele>
        <time>2020-08-21T05:52:28Z</time>
        <sat>8</sat>
      </trkpt>
      <trkpt lat="42.342539" lon="-3.714458">
        <ele>838.8</ele>
        <time>2020-08-21T05:52:39Z</time>
        <sat>7</sat>
      </trkpt>
      <trkpt lat="42.342468" lon="-3.714513">
        <ele>838.7</ele>
        <time>2020-08-21T05:52:45Z</time>
        <sat>7</sat>
      </trkpt>
      <trkpt lat="42.342392" lon="-3.714557">
        <ele>838.6</ele>
        <time>2020-08-21T05:52:52Z</time>
        <sat>7</sat>
      </trkpt>
      <trkpt lat="42.342308" lon="-3.714624">
        <ele>838.5</ele>
        <time>2020-08-21T05:52:58Z</time>
        <sat>8</sat>
      </trkpt>
      <trkpt lat="42.342220" lon="-3.714675">
        <ele>838.3</ele>
        <time>2020-08-21T05:53:05Z</time>
        <sat>8</sat>
      </trkpt>
      <trkpt lat="42.342143" lon="-3.714740">
        <ele>838.1</ele>
        <time>2020-08-21T05:53:11Z</time>
        <sat>8</sat>
      </trkpt>
      <trkpt lat="42.342063" lon="-3.714782">
        <ele>837.9</ele>
        <time>2020-08-21T05:53:18Z</time>
        <sat>8</sat>
      </trkpt>
      <trkpt lat="42.341979" lon="-3.714829">
        <ele>837.8</ele>
        <time>2020-08-21T05:53:25Z</time>
        <sat>7</sat>
      </trkpt>
      <trkpt lat="42.341897" lon="-3.714883">
        <ele>837.7</ele>
        <time>2020-08-21T05:53:33Z</time>
        <sat>9</sat>
      </trkpt>
      <trkpt lat="42.341842" lon="-3.714969">
        <ele>837.5</ele>
        <time>2020-08-21T05:53:41Z</time>
        <sat>8</sat>
      </trkpt>
      <trkpt lat="42.341806" lon="-3.715078">
        <ele>837.4</ele>
        <time>2020-08-21T05:53:48Z</time>
        <sat>9</sat>
      </trkpt>
      <trkpt lat="42.341739" lon="-3.715145">
        <ele>837.2</ele>
        <time>2020-08-21T05:53:56Z</time>
        <sat>9</sat>
      </trkpt>
      <trkpt lat="42.341707" lon="-3.715263">
        <ele>837.0</ele>
        <time>2020-08-21T05:54:06Z</time>
        <sat>9</sat>
      </trkpt>
      <trkpt lat="42.341664" lon="-3.715370">
        <ele>836.9</ele>
        <time>2020-08-21T05:54:14Z</time>
        <sat>9</sat>
      </trkpt>
      <trkpt lat="42.341595" lon="-3.715434">
        <ele>837.0</ele>
        <time>2020-08-21T05:54:23Z</time>
        <sat>9</sat>
      </trkpt>
      <trkpt lat="42.341583" lon="-3.715547">
        <ele>837.0</ele>
        <time>2020-08-21T05:54:32Z</time>
        <sat>8</sat>
      </trkpt>
      <trkpt lat="42.341569" lon="-3.715658">
        <ele>837.0</ele>
        <time>2020-08-21T05:54:40Z</time>
        <sat>9</sat>
      </trkpt>
      <trkpt lat="42.341517" lon="-3.715743">
        <ele>836.9</ele>
        <time>2020-08-21T05:54:46Z</time>
        <sat>9</sat>
      </trkpt>
      <trkpt lat="42.341454" lon="-3.715842">
        <ele>836.8</ele>
        <time>2020-08-21T05:54:53Z</time>
        <sat>9</sat>
      </trkpt>
      <trkpt lat="42.341434" lon="-3.715953">
        <ele>836.7</ele>
        <time>2020-08-21T05:54:59Z</time>
        <sat>9</sat>
      </trkpt>
      <trkpt lat="42.341370" lon="-3.716031">
        <ele>836.6</ele>
        <time>2020-08-21T05:55:05Z</time>
        <sat>9</sat>
      </trkpt>
      <trkpt lat="42.341286" lon="-3.716080">
        <ele>836.6</ele>
        <time>2020-08-21T05:55:11Z</time>
        <sat>9</sat>
      </trkpt>
      <trkpt lat="42.341220" lon="-3.716153">
        <ele>836.6</ele>
        <time>2020-08-21T05:55:16Z</time>
        <sat>9</sat>
      </trkpt>
      <trkpt lat="42.341134" lon="-3.716186">
        <ele>836.7</ele>
        <time>2020-08-21T05:55:23Z</time>
        <sat>8</sat>
      </trkpt>
      <trkpt lat="42.341041" lon="-3.716203">
        <ele>836.8</ele>
        <time>2020-08-21T05:55:30Z</time>
        <sat>9</sat>
      </trkpt>
      <trkpt lat="42.340972" lon="-3.716277">
        <ele>837.1</ele>
        <time>2020-08-21T05:55:37Z</time>
        <sat>9</sat>
      </trkpt>
      <trkpt lat="42.340962" lon="-3.716395">
        <ele>837.3</ele>
        <time>2020-08-21T05:55:44Z</time>
        <sat>9</sat>
      </trkpt>
      <trkpt lat="42.340936" lon="-3.716503">
        <ele>837.6</ele>
        <time>2020-08-21T05:55:50Z</time>
        <sat>9</sat>
      </trkpt>
      <trkpt lat="42.340913" lon="-3.716618">
        <ele>837.9</ele>
        <time>2020-08-21T05:55:57Z</time>
        <sat>9</sat>
      </trkpt>
      <trkpt lat="42.340880" lon="-3.716724">
        <ele>838.0</ele>
        <time>2020-08-21T05:56:04Z</time>
        <sat>9</sat>
      </trkpt>
      <trkpt lat="42.340832" lon="-3.716832">
        <ele>838.2</ele>
        <time>2020-08-21T05:56:11Z</time>
        <sat>9</sat>
      </trkpt>
      <trkpt lat="42.340802" lon="-3.716935">
        <ele>838.3</ele>
        <time>2020-08-21T05:56:17Z</time>
        <sat>8</sat>
      </trkpt>
      <trkpt lat="42.340772" lon="-3.717038">
        <ele>838.4</ele>
        <time>2020-08-21T05:56:24Z</time>
        <sat>8</sat>
      </trkpt>
      <trkpt lat="42.340760" lon="-3.717153">
        <ele>838.5</ele>
        <time>2020-08-21T05:56:33Z</time>
        <sat>8</sat>
      </trkpt>
      <trkpt lat="42.340689" lon="-3.717214">
        <ele>838.7</ele>
        <time>2020-08-21T05:56:48Z</time>
        <sat>9</sat>
      </trkpt>
      <trkpt lat="42.340629" lon="-3.717298">
        <ele>838.6</ele>
        <time>2020-08-21T05:57:01Z</time>
        <sat>9</sat>
      </trkpt>
      <trkpt lat="42.340586" lon="-3.717396">
        <ele>838.5</ele>
        <time>2020-08-21T05:57:07Z</time>
        <sat>9</sat>
      </trkpt>
      <trkpt lat="42.340535" lon="-3.717486">
        <ele>838.5</ele>
        <time>2020-08-21T05:57:26Z</time>
        <sat>9</sat>
      </trkpt>
      <trkpt lat="42.340476" lon="-3.717571">
        <ele>838.1</ele>
        <time>2020-08-21T05:57:39Z</time>
        <sat>9</sat>
      </trkpt>
      <trkpt lat="42.340433" lon="-3.717674">
        <ele>838.1</ele>
        <time>2020-08-21T05:57:47Z</time>
        <sat>8</sat>
      </trkpt>
      <trkpt lat="42.340420" lon="-3.717789">
        <ele>837.8</ele>
        <time>2020-08-21T05:57:55Z</time>
        <sat>8</sat>
      </trkpt>
      <trkpt lat="42.340424" lon="-3.717904">
        <ele>837.4</ele>
        <time>2020-08-21T05:58:03Z</time>
        <sat>8</sat>
      </trkpt>
      <trkpt lat="42.340459" lon="-3.718005">
        <ele>836.3</ele>
        <time>2020-08-21T05:58:22Z</time>
        <sat>9</sat>
      </trkpt>
      <trkpt lat="42.340382" lon="-3.718059">
        <ele>835.9</ele>
        <time>2020-08-21T05:58:38Z</time>
        <sat>8</sat>
      </trkpt>
      <trkpt lat="42.340318" lon="-3.718132">
        <ele>835.8</ele>
        <time>2020-08-21T05:58:45Z</time>
        <sat>9</sat>
      </trkpt>
      <trkpt lat="42.340265" lon="-3.718232">
        <ele>835.7</ele>
        <time>2020-08-21T05:58:54Z</time>
        <sat>9</sat>
      </trkpt>
      <trkpt lat="42.340299" lon="-3.718341">
        <ele>835.6</ele>
        <time>2020-08-21T05:59:01Z</time>
        <sat>9</sat>
      </trkpt>
      <trkpt lat="42.340352" lon="-3.718438">
        <ele>835.5</ele>
        <time>2020-08-21T05:59:09Z</time>
        <sat>9</sat>
      </trkpt>
      <trkpt lat="42.340396" lon="-3.718540">
        <ele>835.3</ele>
        <time>2020-08-21T05:59:15Z</time>
        <sat>9</sat>
      </trkpt>
      <trkpt lat="42.340379" lon="-3.718660">
        <ele>835.2</ele>
        <time>2020-08-21T05:59:22Z</time>
        <sat>9</sat>
      </trkpt>
      <trkpt lat="42.340323" lon="-3.718746">
        <ele>835.2</ele>
        <time>2020-08-21T05:59:32Z</time>
        <sat>9</sat>
      </trkpt>
      <trkpt lat="42.340328" lon="-3.718860">
        <ele>835.2</ele>
        <time>2020-08-21T05:59:36Z</time>
        <sat>9</sat>
      </trkpt>
      <trkpt lat="42.340332" lon="-3.718980">
        <ele>835.1</ele>
        <time>2020-08-21T05:59:42Z</time>
        <sat>9</sat>
      </trkpt>
      <trkpt lat="42.340342" lon="-3.719102">
        <ele>835.0</ele>
        <time>2020-08-21T05:59:50Z</time>
        <sat>9</sat>
      </trkpt>
      <trkpt lat="42.340360" lon="-3.719214">
        <ele>835.0</ele>
        <time>2020-08-21T05:59:58Z</time>
        <sat>9</sat>
      </trkpt>
      <trkpt lat="42.340380" lon="-3.719326">
        <ele>834.9</ele>
        <time>2020-08-21T06:00:05Z</time>
        <sat>9</sat>
      </trkpt>
      <trkpt lat="42.340411" lon="-3.719427">
        <ele>834.8</ele>
        <time>2020-08-21T06:00:11Z</time>
        <sat>9</sat>
      </trkpt>
      <trkpt lat="42.340400" lon="-3.719551">
        <ele>834.8</ele>
        <time>2020-08-21T06:00:16Z</time>
        <sat>9</sat>
      </trkpt>
      <trkpt lat="42.340406" lon="-3.719668">
        <ele>834.7</ele>
        <time>2020-08-21T06:00:22Z</time>
        <sat>9</sat>
      </trkpt>
      <trkpt lat="42.340402" lon="-3.719784">
        <ele>834.7</ele>
        <time>2020-08-21T06:00:27Z</time>
        <sat>9</sat>
      </trkpt>
      <trkpt lat="42.340419" lon="-3.719892">
        <ele>834.6</ele>
        <time>2020-08-21T06:00:34Z</time>
        <sat>9</sat>
      </trkpt>
      <trkpt lat="42.340451" lon="-3.719994">
        <ele>834.7</ele>
        <time>2020-08-21T06:00:42Z</time>
        <sat>9</sat>
      </trkpt>
      <trkpt lat="42.340460" lon="-3.720113">
        <ele>834.5</ele>
        <time>2020-08-21T06:00:49Z</time>
        <sat>9</sat>
      </trkpt>
      <trkpt lat="42.340478" lon="-3.720226">
        <ele>834.5</ele>
        <time>2020-08-21T06:00:54Z</time>
        <sat>9</sat>
      </trkpt>
      <trkpt lat="42.340496" lon="-3.720345">
        <ele>834.4</ele>
        <time>2020-08-21T06:01:02Z</time>
        <sat>9</sat>
      </trkpt>
      <trkpt lat="42.340520" lon="-3.720467">
        <ele>834.4</ele>
        <time>2020-08-21T06:01:09Z</time>
        <sat>9</sat>
      </trkpt>
      <trkpt lat="42.340542" lon="-3.720590">
        <ele>834.3</ele>
        <time>2020-08-21T06:01:15Z</time>
        <sat>9</sat>
      </trkpt>
      <trkpt lat="42.340544" lon="-3.720722">
        <ele>834.2</ele>
        <time>2020-08-21T06:01:21Z</time>
        <sat>9</sat>
      </trkpt>
      <trkpt lat="42.340560" lon="-3.720833">
        <ele>834.2</ele>
        <time>2020-08-21T06:01:28Z</time>
        <sat>9</sat>
      </trkpt>
      <trkpt lat="42.340566" lon="-3.720946">
        <ele>834.1</ele>
        <time>2020-08-21T06:01:34Z</time>
        <sat>9</sat>
      </trkpt>
      <trkpt lat="42.340573" lon="-3.721066">
        <ele>834.0</ele>
        <time>2020-08-21T06:01:39Z</time>
        <sat>9</sat>
      </trkpt>
      <trkpt lat="42.340580" lon="-3.721181">
        <ele>833.9</ele>
        <time>2020-08-21T06:01:46Z</time>
        <sat>9</sat>
      </trkpt>
      <trkpt lat="42.340592" lon="-3.721303">
        <ele>833.7</ele>
        <time>2020-08-21T06:01:55Z</time>
        <sat>9</sat>
      </trkpt>
      <trkpt lat="42.340596" lon="-3.721417">
        <ele>833.6</ele>
        <time>2020-08-21T06:02:01Z</time>
        <sat>9</sat>
      </trkpt>
      <trkpt lat="42.340606" lon="-3.721554">
        <ele>832.8</ele>
        <time>2020-08-21T06:02:07Z</time>
        <sat>9</sat>
      </trkpt>
      <trkpt lat="42.340608" lon="-3.721670">
        <ele>832.6</ele>
        <time>2020-08-21T06:02:12Z</time>
        <sat>9</sat>
      </trkpt>
      <trkpt lat="42.340627" lon="-3.721788">
        <ele>832.6</ele>
        <time>2020-08-21T06:02:20Z</time>
        <sat>9</sat>
      </trkpt>
      <trkpt lat="42.340640" lon="-3.721903">
        <ele>833.1</ele>
        <time>2020-08-21T06:02:28Z</time>
        <sat>9</sat>
      </trkpt>
      <trkpt lat="42.340677" lon="-3.722007">
        <ele>833.2</ele>
        <time>2020-08-21T06:02:35Z</time>
        <sat>9</sat>
      </trkpt>
      <trkpt lat="42.340694" lon="-3.722121">
        <ele>833.3</ele>
        <time>2020-08-21T06:02:39Z</time>
        <sat>9</sat>
      </trkpt>
      <trkpt lat="42.340687" lon="-3.722242">
        <ele>833.3</ele>
        <time>2020-08-21T06:02:46Z</time>
        <sat>9</sat>
      </trkpt>
      <trkpt lat="42.340706" lon="-3.722361">
        <ele>833.4</ele>
        <time>2020-08-21T06:02:53Z</time>
        <sat>9</sat>
      </trkpt>
      <trkpt lat="42.340715" lon="-3.722473">
        <ele>833.4</ele>
        <time>2020-08-21T06:03:00Z</time>
        <sat>8</sat>
      </trkpt>
      <trkpt lat="42.340710" lon="-3.722587">
        <ele>833.4</ele>
        <time>2020-08-21T06:03:06Z</time>
        <sat>9</sat>
      </trkpt>
      <trkpt lat="42.340711" lon="-3.722711">
        <ele>833.4</ele>
        <time>2020-08-21T06:03:12Z</time>
        <sat>8</sat>
      </trkpt>
      <trkpt lat="42.340725" lon="-3.722839">
        <ele>833.5</ele>
        <time>2020-08-21T06:03:19Z</time>
        <sat>8</sat>
      </trkpt>
      <trkpt lat="42.340736" lon="-3.722959">
        <ele>833.5</ele>
        <time>2020-08-21T06:03:26Z</time>
        <sat>8</sat>
      </trkpt>
      <trkpt lat="42.340751" lon="-3.723072">
        <ele>833.5</ele>
        <time>2020-08-21T06:03:33Z</time>
        <sat>9</sat>
      </trkpt>
      <trkpt lat="42.340765" lon="-3.723182">
        <ele>833.3</ele>
        <time>2020-08-21T06:03:41Z</time>
        <sat>9</sat>
      </trkpt>
      <trkpt lat="42.340794" lon="-3.723291">
        <ele>833.2</ele>
        <time>2020-08-21T06:03:47Z</time>
        <sat>8</sat>
      </trkpt>
      <trkpt lat="42.340805" lon="-3.723402">
        <ele>833.3</ele>
        <time>2020-08-21T06:03:53Z</time>
        <sat>8</sat>
      </trkpt>
      <trkpt lat="42.340819" lon="-3.723519">
        <ele>833.4</ele>
        <time>2020-08-21T06:04:00Z</time>
        <sat>9</sat>
      </trkpt>
      <trkpt lat="42.340818" lon="-3.723642">
        <ele>833.3</ele>
        <time>2020-08-21T06:04:08Z</time>
        <sat>9</sat>
      </trkpt>
      <trkpt lat="42.340831" lon="-3.723750">
        <ele>833.3</ele>
        <time>2020-08-21T06:04:15Z</time>
        <sat>9</sat>
      </trkpt>
      <trkpt lat="42.340844" lon="-3.723862">
        <ele>833.3</ele>
        <time>2020-08-21T06:04:21Z</time>
        <sat>9</sat>
      </trkpt>
      <trkpt lat="42.340856" lon="-3.723972">
        <ele>833.5</ele>
        <time>2020-08-21T06:04:29Z</time>
        <sat>9</sat>
      </trkpt>
      <trkpt lat="42.340872" lon="-3.724086">
        <ele>833.4</ele>
        <time>2020-08-21T06:04:36Z</time>
        <sat>9</sat>
      </trkpt>
      <trkpt lat="42.340882" lon="-3.724199">
        <ele>833.4</ele>
        <time>2020-08-21T06:04:42Z</time>
        <sat>9</sat>
      </trkpt>
      <trkpt lat="42.340885" lon="-3.724310">
        <ele>833.4</ele>
        <time>2020-08-21T06:04:48Z</time>
        <sat>9</sat>
      </trkpt>
      <trkpt lat="42.340904" lon="-3.724420">
        <ele>833.4</ele>
        <time>2020-08-21T06:04:54Z</time>
        <sat>9</sat>
      </trkpt>
      <trkpt lat="42.340938" lon="-3.724520">
        <ele>833.3</ele>
        <time>2020-08-21T06:05:10Z</time>
        <sat>9</sat>
      </trkpt>
      <trkpt lat="42.340979" lon="-3.724616">
        <ele>832.6</ele>
        <time>2020-08-21T06:09:26Z</time>
        <sat>10</sat>
      </trkpt>
      <trkpt lat="42.340954" lon="-3.724730">
        <ele>832.7</ele>
        <time>2020-08-21T06:10:57Z</time>
        <sat>10</sat>
      </trkpt>
      <trkpt lat="42.340939" lon="-3.724838">
        <ele>832.9</ele>
        <time>2020-08-21T06:11:05Z</time>
        <sat>10</sat>
      </trkpt>
      <trkpt lat="42.340942" lon="-3.724950">
        <ele>832.8</ele>
        <time>2020-08-21T06:11:22Z</time>
        <sat>9</sat>
      </trkpt>
      <trkpt lat="42.340967" lon="-3.725056">
        <ele>832.9</ele>
        <time>2020-08-21T06:11:29Z</time>
        <sat>10</sat>
      </trkpt>
      <trkpt lat="42.340995" lon="-3.725162">
        <ele>832.6</ele>
        <time>2020-08-21T06:11:37Z</time>
        <sat>10</sat>
      </trkpt>
      <trkpt lat="42.340988" lon="-3.725274">
        <ele>832.7</ele>
        <time>2020-08-21T06:11:44Z</time>
        <sat>10</sat>
      </trkpt>
      <trkpt lat="42.340991" lon="-3.725396">
        <ele>832.6</ele>
        <time>2020-08-21T06:11:51Z</time>
        <sat>9</sat>
      </trkpt>
      <trkpt lat="42.340987" lon="-3.725512">
        <ele>832.6</ele>
        <time>2020-08-21T06:11:56Z</time>
        <sat>8</sat>
      </trkpt>
      <trkpt lat="42.340984" lon="-3.725624">
        <ele>832.6</ele>
        <time>2020-08-21T06:12:03Z</time>
        <sat>7</sat>
      </trkpt>
      <trkpt lat="42.341010" lon="-3.725735">
        <ele>832.4</ele>
        <time>2020-08-21T06:12:11Z</time>
        <sat>9</sat>
      </trkpt>
      <trkpt lat="42.341028" lon="-3.725843">
        <ele>832.4</ele>
        <time>2020-08-21T06:12:19Z</time>
        <sat>9</sat>
      </trkpt>
      <trkpt lat="42.341040" lon="-3.725967">
        <ele>832.4</ele>
        <time>2020-08-21T06:12:29Z</time>
        <sat>9</sat>
      </trkpt>
      <trkpt lat="42.341037" lon="-3.726092">
        <ele>832.2</ele>
        <time>2020-08-21T06:12:35Z</time>
        <sat>8</sat>
      </trkpt>
      <trkpt lat="42.341049" lon="-3.726210">
        <ele>832.3</ele>
        <time>2020-08-21T06:12:43Z</time>
        <sat>9</sat>
      </trkpt>
      <trkpt lat="42.341042" lon="-3.726326">
        <ele>832.4</ele>
        <time>2020-08-21T06:12:49Z</time>
        <sat>9</sat>
      </trkpt>
      <trkpt lat="42.341049" lon="-3.726450">
        <ele>832.6</ele>
        <time>2020-08-21T06:12:57Z</time>
        <sat>9</sat>
      </trkpt>
      <trkpt lat="42.341057" lon="-3.726572">
        <ele>832.7</ele>
        <time>2020-08-21T06:13:05Z</time>
        <sat>9</sat>
      </trkpt>
      <trkpt lat="42.341091" lon="-3.726674">
        <ele>832.7</ele>
        <time>2020-08-21T06:13:12Z</time>
        <sat>9</sat>
      </trkpt>
      <trkpt lat="42.341112" lon="-3.726780">
        <ele>832.7</ele>
        <time>2020-08-21T06:13:18Z</time>
        <sat>9</sat>
      </trkpt>
      <trkpt lat="42.341135" lon="-3.726894">
        <ele>832.7</ele>
        <time>2020-08-21T06:13:25Z</time>
        <sat>9</sat>
      </trkpt>
      <trkpt lat="42.341170" lon="-3.727010">
        <ele>832.7</ele>
        <time>2020-08-21T06:13:32Z</time>
        <sat>8</sat>
      </trkpt>
      <trkpt lat="42.341194" lon="-3.727122">
        <ele>832.8</ele>
        <time>2020-08-21T06:13:39Z</time>
        <sat>9</sat>
      </trkpt>
      <trkpt lat="42.341228" lon="-3.727233">
        <ele>832.8</ele>
        <time>2020-08-21T06:13:46Z</time>
        <sat>8</sat>
      </trkpt>
      <trkpt lat="42.341253" lon="-3.727344">
        <ele>832.8</ele>
        <time>2020-08-21T06:13:52Z</time>
        <sat>8</sat>
      </trkpt>
      <trkpt lat="42.341294" lon="-3.727440">
        <ele>832.9</ele>
        <time>2020-08-21T06:14:11Z</time>
        <sat>6</sat>
      </trkpt>
      <trkpt lat="42.341379" lon="-3.727419">
        <ele>832.7</ele>
        <time>2020-08-21T06:14:22Z</time>
        <sat>6</sat>
      </trkpt>
      <trkpt lat="42.341468" lon="-3.727404">
        <ele>832.6</ele>
        <time>2020-08-21T06:14:29Z</time>
        <sat>6</sat>
      </trkpt>
      <trkpt lat="42.341555" lon="-3.727363">
        <ele>832.5</ele>
        <time>2020-08-21T06:14:36Z</time>
        <sat>7</sat>
      </trkpt>
      <trkpt lat="42.341633" lon="-3.727420">
        <ele>832.5</ele>
        <time>2020-08-21T06:14:43Z</time>
        <sat>8</sat>
      </trkpt>
      <trkpt lat="42.341711" lon="-3.727463">
        <ele>832.5</ele>
        <time>2020-08-21T06:14:51Z</time>
        <sat>7</sat>
      </trkpt>
      <trkpt lat="42.341802" lon="-3.727472">
        <ele>832.3</ele>
        <time>2020-08-21T06:14:58Z</time>
        <sat>7</sat>
      </trkpt>
      <trkpt lat="42.341886" lon="-3.727464">
        <ele>832.2</ele>
        <time>2020-08-21T06:15:06Z</time>
        <sat>9</sat>
      </trkpt>
      <trkpt lat="42.341892" lon="-3.727561">
        <ele>832.1</ele>
        <time>2020-08-21T06:15:42Z</time>
        <sat>9</sat>
      </trkpt>
      <trkpt lat="42.341895" lon="-3.727695">
        <ele>832.1</ele>
        <time>2020-08-21T06:15:50Z</time>
        <sat>9</sat>
      </trkpt>
      <trkpt lat="42.341891" lon="-3.727819">
        <ele>832.1</ele>
        <time>2020-08-21T06:15:56Z</time>
        <sat>9</sat>
      </trkpt>
      <trkpt lat="42.341896" lon="-3.727938">
        <ele>832.1</ele>
        <time>2020-08-21T06:16:03Z</time>
        <sat>9</sat>
      </trkpt>
      <trkpt lat="42.341910" lon="-3.728057">
        <ele>832.1</ele>
        <time>2020-08-21T06:16:10Z</time>
        <sat>9</sat>
      </trkpt>
      <trkpt lat="42.341916" lon="-3.728171">
        <ele>832.1</ele>
        <time>2020-08-21T06:16:17Z</time>
        <sat>9</sat>
      </trkpt>
      <trkpt lat="42.341904" lon="-3.728292">
        <ele>832.1</ele>
        <time>2020-08-21T06:16:24Z</time>
        <sat>9</sat>
      </trkpt>
      <trkpt lat="42.341852" lon="-3.728381">
        <ele>831.9</ele>
        <time>2020-08-21T06:16:30Z</time>
        <sat>9</sat>
      </trkpt>
      <trkpt lat="42.341827" lon="-3.728494">
        <ele>831.8</ele>
        <time>2020-08-21T06:16:37Z</time>
        <sat>9</sat>
      </trkpt>
      <trkpt lat="42.341839" lon="-3.728606">
        <ele>831.7</ele>
        <time>2020-08-21T06:16:44Z</time>
        <sat>8</sat>
      </trkpt>
      <trkpt lat="42.341834" lon="-3.728728">
        <ele>831.9</ele>
        <time>2020-08-21T06:16:51Z</time>
        <sat>9</sat>
      </trkpt>
      <trkpt lat="42.341836" lon="-3.728849">
        <ele>831.9</ele>
        <time>2020-08-21T06:16:58Z</time>
        <sat>8</sat>
      </trkpt>
      <trkpt lat="42.341837" lon="-3.728968">
        <ele>832.1</ele>
        <time>2020-08-21T06:17:05Z</time>
        <sat>9</sat>
      </trkpt>
      <trkpt lat="42.341831" lon="-3.729086">
        <ele>832.2</ele>
        <time>2020-08-21T06:17:12Z</time>
        <sat>8</sat>
      </trkpt>
      <trkpt lat="42.341807" lon="-3.729196">
        <ele>832.3</ele>
        <time>2020-08-21T06:17:19Z</time>
        <sat>9</sat>
      </trkpt>
      <trkpt lat="42.341836" lon="-3.729309">
        <ele>832.3</ele>
        <time>2020-08-21T06:17:27Z</time>
        <sat>9</sat>
      </trkpt>
      <trkpt lat="42.341899" lon="-3.729386">
        <ele>832.3</ele>
        <time>2020-08-21T06:17:34Z</time>
        <sat>8</sat>
      </trkpt>
      <trkpt lat="42.341978" lon="-3.729421">
        <ele>832.3</ele>
        <time>2020-08-21T06:17:41Z</time>
        <sat>9</sat>
      </trkpt>
      <trkpt lat="42.341996" lon="-3.729538">
        <ele>832.2</ele>
        <time>2020-08-21T06:17:49Z</time>
        <sat>8</sat>
      </trkpt>
      <trkpt lat="42.342021" lon="-3.729652">
        <ele>832.1</ele>
        <time>2020-08-21T06:17:56Z</time>
        <sat>8</sat>
      </trkpt>
      <trkpt lat="42.342034" lon="-3.729776">
        <ele>832.0</ele>
        <time>2020-08-21T06:18:03Z</time>
        <sat>8</sat>
      </trkpt>
      <trkpt lat="42.342046" lon="-3.729895">
        <ele>832.0</ele>
        <time>2020-08-21T06:18:10Z</time>
        <sat>8</sat>
      </trkpt>
      <trkpt lat="42.342067" lon="-3.730009">
        <ele>832.1</ele>
        <time>2020-08-21T06:18:17Z</time>
        <sat>8</sat>
      </trkpt>
      <trkpt lat="42.342076" lon="-3.730132">
        <ele>832.2</ele>
        <time>2020-08-21T06:18:24Z</time>
        <sat>8</sat>
      </trkpt>
      <trkpt lat="42.342084" lon="-3.730250">
        <ele>832.2</ele>
        <time>2020-08-21T06:18:31Z</time>
        <sat>8</sat>
      </trkpt>
      <trkpt lat="42.342097" lon="-3.730362">
        <ele>832.2</ele>
        <time>2020-08-21T06:18:37Z</time>
        <sat>8</sat>
      </trkpt>
      <trkpt lat="42.342116" lon="-3.730481">
        <ele>832.1</ele>
        <time>2020-08-21T06:18:44Z</time>
        <sat>8</sat>
      </trkpt>
      <trkpt lat="42.342141" lon="-3.730590">
        <ele>832.1</ele>
        <time>2020-08-21T06:18:51Z</time>
        <sat>8</sat>
      </trkpt>
      <trkpt lat="42.342152" lon="-3.730706">
        <ele>832.1</ele>
        <time>2020-08-21T06:18:59Z</time>
        <sat>8</sat>
      </trkpt>
      <trkpt lat="42.342165" lon="-3.730817">
        <ele>832.1</ele>
        <time>2020-08-21T06:19:06Z</time>
        <sat>8</sat>
      </trkpt>
      <trkpt lat="42.342169" lon="-3.730937">
        <ele>832.1</ele>
        <time>2020-08-21T06:19:11Z</time>
        <sat>9</sat>
      </trkpt>
      <trkpt lat="42.342192" lon="-3.731043">
        <ele>832.0</ele>
        <time>2020-08-21T06:19:17Z</time>
        <sat>8</sat>
      </trkpt>
      <trkpt lat="42.342205" lon="-3.731163">
        <ele>831.9</ele>
        <time>2020-08-21T06:19:24Z</time>
        <sat>8</sat>
      </trkpt>
      <trkpt lat="42.342229" lon="-3.731279">
        <ele>831.8</ele>
        <time>2020-08-21T06:19:31Z</time>
        <sat>8</sat>
      </trkpt>
      <trkpt lat="42.342229" lon="-3.731393">
        <ele>831.8</ele>
        <time>2020-08-21T06:19:37Z</time>
        <sat>9</sat>
      </trkpt>
      <trkpt lat="42.342239" lon="-3.731518">
        <ele>831.8</ele>
        <time>2020-08-21T06:19:43Z</time>
        <sat>8</sat>
      </trkpt>
      <trkpt lat="42.342249" lon="-3.731645">
        <ele>831.7</ele>
        <time>2020-08-21T06:19:50Z</time>
        <sat>8</sat>
      </trkpt>
      <trkpt lat="42.342263" lon="-3.731760">
        <ele>831.8</ele>
        <time>2020-08-21T06:19:56Z</time>
        <sat>8</sat>
      </trkpt>
      <trkpt lat="42.342272" lon="-3.731883">
        <ele>831.8</ele>
        <time>2020-08-21T06:20:03Z</time>
        <sat>8</sat>
      </trkpt>
      <trkpt lat="42.342288" lon="-3.731996">
        <ele>831.8</ele>
        <time>2020-08-21T06:20:09Z</time>
        <sat>8</sat>
      </trkpt>
      <trkpt lat="42.342293" lon="-3.732111">
        <ele>831.8</ele>
        <time>2020-08-21T06:20:16Z</time>
        <sat>9</sat>
      </trkpt>
      <trkpt lat="42.342303" lon="-3.732234">
        <ele>831.8</ele>
        <time>2020-08-21T06:20:23Z</time>
        <sat>9</sat>
      </trkpt>
      <trkpt lat="42.342313" lon="-3.732353">
        <ele>831.8</ele>
        <time>2020-08-21T06:20:30Z</time>
        <sat>9</sat>
      </trkpt>
      <trkpt lat="42.342326" lon="-3.732470">
        <ele>831.6</ele>
        <time>2020-08-21T06:20:37Z</time>
        <sat>9</sat>
      </trkpt>
      <trkpt lat="42.342349" lon="-3.732595">
        <ele>831.4</ele>
        <time>2020-08-21T06:20:46Z</time>
        <sat>9</sat>
      </trkpt>
      <trkpt lat="42.342359" lon="-3.732715">
        <ele>831.3</ele>
        <time>2020-08-21T06:20:52Z</time>
        <sat>9</sat>
      </trkpt>
      <trkpt lat="42.342359" lon="-3.732841">
        <ele>831.2</ele>
        <time>2020-08-21T06:20:58Z</time>
        <sat>8</sat>
      </trkpt>
      <trkpt lat="42.342358" lon="-3.732969">
        <ele>831.3</ele>
        <time>2020-08-21T06:21:05Z</time>
        <sat>9</sat>
      </trkpt>
      <trkpt lat="42.342363" lon="-3.733087">
        <ele>831.2</ele>
        <time>2020-08-21T06:21:12Z</time>
        <sat>9</sat>
      </trkpt>
      <trkpt lat="42.342352" lon="-3.733203">
        <ele>831.2</ele>
        <time>2020-08-21T06:21:19Z</time>
        <sat>8</sat>
      </trkpt>
      <trkpt lat="42.342302" lon="-3.733291">
        <ele>831.0</ele>
        <time>2020-08-21T06:21:26Z</time>
        <sat>9</sat>
      </trkpt>
      <trkpt lat="42.342255" lon="-3.733403">
        <ele>830.8</ele>
        <time>2020-08-21T06:21:33Z</time>
        <sat>9</sat>
      </trkpt>
      <trkpt lat="42.342234" lon="-3.733524">
        <ele>830.6</ele>
        <time>2020-08-21T06:21:40Z</time>
        <sat>8</sat>
      </trkpt>
      <trkpt lat="42.342246" lon="-3.733633">
        <ele>830.8</ele>
        <time>2020-08-21T06:21:46Z</time>
        <sat>8</sat>
      </trkpt>
      <trkpt lat="42.342250" lon="-3.733759">
        <ele>830.7</ele>
        <time>2020-08-21T06:21:53Z</time>
        <sat>7</sat>
      </trkpt>
      <trkpt lat="42.342266" lon="-3.733870">
        <ele>830.7</ele>
        <time>2020-08-21T06:21:59Z</time>
        <sat>8</sat>
      </trkpt>
      <trkpt lat="42.342320" lon="-3.733956">
        <ele>830.8</ele>
        <time>2020-08-21T06:22:05Z</time>
        <sat>7</sat>
      </trkpt>
      <trkpt lat="42.342345" lon="-3.734075">
        <ele>830.8</ele>
        <time>2020-08-21T06:22:12Z</time>
        <sat>8</sat>
      </trkpt>
      <trkpt lat="42.342371" lon="-3.734189">
        <ele>830.8</ele>
        <time>2020-08-21T06:22:19Z</time>
        <sat>7</sat>
      </trkpt>
      <trkpt lat="42.342390" lon="-3.734314">
        <ele>830.7</ele>
        <time>2020-08-21T06:22:26Z</time>
        <sat>9</sat>
      </trkpt>
      <trkpt lat="42.342409" lon="-3.734435">
        <ele>830.7</ele>
        <time>2020-08-21T06:22:33Z</time>
        <sat>8</sat>
      </trkpt>
      <trkpt lat="42.342429" lon="-3.734550">
        <ele>830.7</ele>
        <time>2020-08-21T06:22:40Z</time>
        <sat>8</sat>
      </trkpt>
      <trkpt lat="42.342478" lon="-3.734644">
        <ele>830.6</ele>
        <time>2020-08-21T06:22:47Z</time>
        <sat>9</sat>
      </trkpt>
      <trkpt lat="42.342538" lon="-3.734720">
        <ele>830.6</ele>
        <time>2020-08-21T06:22:54Z</time>
        <sat>8</sat>
      </trkpt>
      <trkpt lat="42.342560" lon="-3.734825">
        <ele>830.5</ele>
        <time>2020-08-21T06:23:01Z</time>
        <sat>8</sat>
      </trkpt>
      <trkpt lat="42.342574" lon="-3.734943">
        <ele>830.5</ele>
        <time>2020-08-21T06:23:08Z</time>
        <sat>9</sat>
      </trkpt>
      <trkpt lat="42.342584" lon="-3.735057">
        <ele>830.4</ele>
        <time>2020-08-21T06:23:14Z</time>
        <sat>9</sat>
      </trkpt>
      <trkpt lat="42.342603" lon="-3.735180">
        <ele>830.4</ele>
        <time>2020-08-21T06:23:21Z</time>
        <sat>9</sat>
      </trkpt>
      <trkpt lat="42.342612" lon="-3.735303">
        <ele>830.2</ele>
        <time>2020-08-21T06:23:28Z</time>
        <sat>9</sat>
      </trkpt>
      <trkpt lat="42.342630" lon="-3.735429">
        <ele>830.1</ele>
        <time>2020-08-21T06:23:35Z</time>
        <sat>9</sat>
      </trkpt>
      <trkpt lat="42.342640" lon="-3.735543">
        <ele>830.1</ele>
        <time>2020-08-21T06:23:42Z</time>
        <sat>9</sat>
      </trkpt>
      <trkpt lat="42.342656" lon="-3.735666">
        <ele>830.0</ele>
        <time>2020-08-21T06:23:49Z</time>
        <sat>9</sat>
      </trkpt>
      <trkpt lat="42.342660" lon="-3.735776">
        <ele>829.9</ele>
        <time>2020-08-21T06:23:55Z</time>
        <sat>8</sat>
      </trkpt>
      <trkpt lat="42.342675" lon="-3.735888">
        <ele>829.6</ele>
        <time>2020-08-21T06:24:02Z</time>
        <sat>9</sat>
      </trkpt>
      <trkpt lat="42.342695" lon="-3.736009">
        <ele>829.6</ele>
        <time>2020-08-21T06:24:09Z</time>
        <sat>9</sat>
      </trkpt>
      <trkpt lat="42.342758" lon="-3.736091">
        <ele>829.7</ele>
        <time>2020-08-21T06:24:16Z</time>
        <sat>9</sat>
      </trkpt>
      <trkpt lat="42.342844" lon="-3.736074">
        <ele>829.6</ele>
        <time>2020-08-21T06:24:30Z</time>
        <sat>9</sat>
      </trkpt>
      <trkpt lat="42.342911" lon="-3.736156">
        <ele>829.7</ele>
        <time>2020-08-21T06:24:37Z</time>
        <sat>8</sat>
      </trkpt>
      <trkpt lat="42.342938" lon="-3.736261">
        <ele>829.8</ele>
        <time>2020-08-21T06:24:43Z</time>
        <sat>8</sat>
      </trkpt>
      <trkpt lat="42.342990" lon="-3.736355">
        <ele>829.8</ele>
        <time>2020-08-21T06:24:50Z</time>
        <sat>8</sat>
      </trkpt>
      <trkpt lat="42.343061" lon="-3.736412">
        <ele>829.7</ele>
        <time>2020-08-21T06:24:56Z</time>
        <sat>9</sat>
      </trkpt>
      <trkpt lat="42.343125" lon="-3.736503">
        <ele>829.7</ele>
        <time>2020-08-21T06:25:03Z</time>
        <sat>9</sat>
      </trkpt>
      <trkpt lat="42.343176" lon="-3.736590">
        <ele>829.6</ele>
        <time>2020-08-21T06:25:09Z</time>
        <sat>9</sat>
      </trkpt>
      <trkpt lat="42.343222" lon="-3.736687">
        <ele>829.5</ele>
        <time>2020-08-21T06:25:15Z</time>
        <sat>8</sat>
      </trkpt>
      <trkpt lat="42.343252" lon="-3.736798">
        <ele>829.2</ele>
        <time>2020-08-21T06:25:22Z</time>
        <sat>9</sat>
      </trkpt>
      <trkpt lat="42.343291" lon="-3.736895">
        <ele>829.2</ele>
        <time>2020-08-21T06:25:28Z</time>
        <sat>8</sat>
      </trkpt>
      <trkpt lat="42.343318" lon="-3.737003">
        <ele>829.2</ele>
        <time>2020-08-21T06:25:34Z</time>
        <sat>8</sat>
      </trkpt>
      <trkpt lat="42.343364" lon="-3.737101">
        <ele>829.2</ele>
        <time>2020-08-21T06:25:40Z</time>
        <sat>8</sat>
      </trkpt>
      <trkpt lat="42.343384" lon="-3.737220">
        <ele>829.2</ele>
        <time>2020-08-21T06:25:47Z</time>
        <sat>9</sat>
      </trkpt>
      <trkpt lat="42.343413" lon="-3.737343">
        <ele>829.1</ele>
        <time>2020-08-21T06:25:54Z</time>
        <sat>8</sat>
      </trkpt>
      <trkpt lat="42.343433" lon="-3.737466">
        <ele>828.9</ele>
        <time>2020-08-21T06:26:01Z</time>
        <sat>9</sat>
      </trkpt>
      <trkpt lat="42.343450" lon="-3.737574">
        <ele>828.9</ele>
        <time>2020-08-21T06:26:08Z</time>
        <sat>9</sat>
      </trkpt>
      <trkpt lat="42.343485" lon="-3.737674">
        <ele>828.9</ele>
        <time>2020-08-21T06:26:15Z</time>
        <sat>9</sat>
      </trkpt>
      <trkpt lat="42.343533" lon="-3.737772">
        <ele>828.9</ele>
        <time>2020-08-21T06:26:23Z</time>
        <sat>9</sat>
      </trkpt>
      <trkpt lat="42.343553" lon="-3.737882">
        <ele>828.9</ele>
        <time>2020-08-21T06:26:29Z</time>
        <sat>9</sat>
      </trkpt>
      <trkpt lat="42.343559" lon="-3.737995">
        <ele>828.9</ele>
        <time>2020-08-21T06:26:35Z</time>
        <sat>9</sat>
      </trkpt>
      <trkpt lat="42.343574" lon="-3.738114">
        <ele>828.9</ele>
        <time>2020-08-21T06:26:42Z</time>
        <sat>9</sat>
      </trkpt>
      <trkpt lat="42.343589" lon="-3.738224">
        <ele>829.0</ele>
        <time>2020-08-21T06:26:48Z</time>
        <sat>9</sat>
      </trkpt>
      <trkpt lat="42.343614" lon="-3.738338">
        <ele>829.0</ele>
        <time>2020-08-21T06:26:54Z</time>
        <sat>9</sat>
      </trkpt>
      <trkpt lat="42.343621" lon="-3.738459">
        <ele>828.9</ele>
        <time>2020-08-21T06:27:00Z</time>
        <sat>9</sat>
      </trkpt>
      <trkpt lat="42.343639" lon="-3.738579">
        <ele>828.8</ele>
        <time>2020-08-21T06:27:06Z</time>
        <sat>9</sat>
      </trkpt>
      <trkpt lat="42.343653" lon="-3.738692">
        <ele>828.9</ele>
        <time>2020-08-21T06:27:13Z</time>
        <sat>8</sat>
      </trkpt>
      <trkpt lat="42.343671" lon="-3.738803">
        <ele>829.0</ele>
        <time>2020-08-21T06:27:22Z</time>
        <sat>8</sat>
      </trkpt>
      <trkpt lat="42.343675" lon="-3.738915">
        <ele>829.0</ele>
        <time>2020-08-21T06:27:29Z</time>
        <sat>8</sat>
      </trkpt>
      <trkpt lat="42.343677" lon="-3.739033">
        <ele>829.1</ele>
        <time>2020-08-21T06:27:36Z</time>
        <sat>9</sat>
      </trkpt>
      <trkpt lat="42.343692" lon="-3.739147">
        <ele>829.1</ele>
        <time>2020-08-21T06:27:42Z</time>
        <sat>9</sat>
      </trkpt>
      <trkpt lat="42.343704" lon="-3.739268">
        <ele>829.0</ele>
        <time>2020-08-21T06:27:49Z</time>
        <sat>8</sat>
      </trkpt>
      <trkpt lat="42.343721" lon="-3.739380">
        <ele>828.8</ele>
        <time>2020-08-21T06:27:56Z</time>
        <sat>9</sat>
      </trkpt>
      <trkpt lat="42.343732" lon="-3.739488">
        <ele>828.8</ele>
        <time>2020-08-21T06:28:03Z</time>
        <sat>9</sat>
      </trkpt>
      <trkpt lat="42.343751" lon="-3.739599">
        <ele>828.7</ele>
        <time>2020-08-21T06:28:09Z</time>
        <sat>9</sat>
      </trkpt>
      <trkpt lat="42.343746" lon="-3.739718">
        <ele>828.9</ele>
        <time>2020-08-21T06:28:15Z</time>
        <sat>9</sat>
      </trkpt>
      <trkpt lat="42.343715" lon="-3.739822">
        <ele>829.0</ele>
        <time>2020-08-21T06:28:22Z</time>
        <sat>9</sat>
      </trkpt>
      <trkpt lat="42.343732" lon="-3.739939">
        <ele>828.9</ele>
        <time>2020-08-21T06:28:28Z</time>
        <sat>9</sat>
      </trkpt>
      <trkpt lat="42.343743" lon="-3.740049">
        <ele>829.0</ele>
        <time>2020-08-21T06:28:34Z</time>
        <sat>9</sat>
      </trkpt>
      <trkpt lat="42.343753" lon="-3.740164">
        <ele>829.0</ele>
        <time>2020-08-21T06:28:40Z</time>
        <sat>8</sat>
      </trkpt>
      <trkpt lat="42.343765" lon="-3.740283">
        <ele>828.9</ele>
        <time>2020-08-21T06:28:46Z</time>
        <sat>9</sat>
      </trkpt>
      <trkpt lat="42.343771" lon="-3.740408">
        <ele>828.9</ele>
        <time>2020-08-21T06:28:53Z</time>
        <sat>9</sat>
      </trkpt>
      <trkpt lat="42.343785" lon="-3.740532">
        <ele>828.9</ele>
        <time>2020-08-21T06:29:00Z</time>
        <sat>9</sat>
      </trkpt>
      <trkpt lat="42.343780" lon="-3.740649">
        <ele>828.9</ele>
        <time>2020-08-21T06:29:07Z</time>
        <sat>9</sat>
      </trkpt>
      <trkpt lat="42.343775" lon="-3.740762">
        <ele>829.0</ele>
        <time>2020-08-21T06:29:13Z</time>
        <sat>9</sat>
      </trkpt>
      <trkpt lat="42.343761" lon="-3.740885">
        <ele>829.0</ele>
        <time>2020-08-21T06:29:21Z</time>
        <sat>9</sat>
      </trkpt>
      <trkpt lat="42.343747" lon="-3.741008">
        <ele>829.0</ele>
        <time>2020-08-21T06:29:28Z</time>
        <sat>9</sat>
      </trkpt>
      <trkpt lat="42.343733" lon="-3.741128">
        <ele>829.2</ele>
        <time>2020-08-21T06:29:34Z</time>
        <sat>9</sat>
      </trkpt>
      <trkpt lat="42.343721" lon="-3.741238">
        <ele>829.2</ele>
        <time>2020-08-21T06:29:40Z</time>
        <sat>9</sat>
      </trkpt>
      <trkpt lat="42.343720" lon="-3.741355">
        <ele>829.0</ele>
        <time>2020-08-21T06:29:46Z</time>
        <sat>8</sat>
      </trkpt>
      <trkpt lat="42.343717" lon="-3.741465">
        <ele>828.9</ele>
        <time>2020-08-21T06:29:52Z</time>
        <sat>8</sat>
      </trkpt>
      <trkpt lat="42.343709" lon="-3.741592">
        <ele>828.9</ele>
        <time>2020-08-21T06:29:59Z</time>
        <sat>8</sat>
      </trkpt>
      <trkpt lat="42.343713" lon="-3.741717">
        <ele>828.9</ele>
        <time>2020-08-21T06:30:06Z</time>
        <sat>8</sat>
      </trkpt>
      <trkpt lat="42.343696" lon="-3.741837">
        <ele>828.8</ele>
        <time>2020-08-21T06:30:13Z</time>
        <sat>8</sat>
      </trkpt>
      <trkpt lat="42.343665" lon="-3.741948">
        <ele>828.8</ele>
        <time>2020-08-21T06:30:20Z</time>
        <sat>8</sat>
      </trkpt>
      <trkpt lat="42.343631" lon="-3.742064">
        <ele>828.6</ele>
        <time>2020-08-21T06:30:27Z</time>
        <sat>8</sat>
      </trkpt>
      <trkpt lat="42.343621" lon="-3.742187">
        <ele>828.4</ele>
        <time>2020-08-21T06:30:34Z</time>
        <sat>8</sat>
      </trkpt>
      <trkpt lat="42.343616" lon="-3.742300">
        <ele>828.4</ele>
        <time>2020-08-21T06:30:40Z</time>
        <sat>8</sat>
      </trkpt>
      <trkpt lat="42.343606" lon="-3.742413">
        <ele>828.4</ele>
        <time>2020-08-21T06:30:46Z</time>
        <sat>8</sat>
      </trkpt>
      <trkpt lat="42.343597" lon="-3.742534">
        <ele>828.3</ele>
        <time>2020-08-21T06:30:53Z</time>
        <sat>8</sat>
      </trkpt>
      <trkpt lat="42.343583" lon="-3.742656">
        <ele>828.3</ele>
        <time>2020-08-21T06:31:00Z</time>
        <sat>8</sat>
      </trkpt>
      <trkpt lat="42.343580" lon="-3.742770">
        <ele>828.4</ele>
        <time>2020-08-21T06:31:06Z</time>
        <sat>8</sat>
      </trkpt>
      <trkpt lat="42.343554" lon="-3.742891">
        <ele>828.4</ele>
        <time>2020-08-21T06:31:13Z</time>
        <sat>8</sat>
      </trkpt>
      <trkpt lat="42.343542" lon="-3.743013">
        <ele>828.5</ele>
        <time>2020-08-21T06:31:20Z</time>
        <sat>8</sat>
      </trkpt>
      <trkpt lat="42.343535" lon="-3.743126">
        <ele>828.5</ele>
        <time>2020-08-21T06:31:26Z</time>
        <sat>8</sat>
      </trkpt>
      <trkpt lat="42.343525" lon="-3.743239">
        <ele>828.4</ele>
        <time>2020-08-21T06:31:32Z</time>
        <sat>8</sat>
      </trkpt>
      <trkpt lat="42.343527" lon="-3.743361">
        <ele>828.4</ele>
        <time>2020-08-21T06:31:39Z</time>
        <sat>8</sat>
      </trkpt>
      <trkpt lat="42.343544" lon="-3.743477">
        <ele>828.4</ele>
        <time>2020-08-21T06:31:45Z</time>
        <sat>8</sat>
      </trkpt>
      <trkpt lat="42.343564" lon="-3.743594">
        <ele>828.6</ele>
        <time>2020-08-21T06:31:51Z</time>
        <sat>8</sat>
      </trkpt>
      <trkpt lat="42.343564" lon="-3.743707">
        <ele>828.6</ele>
        <time>2020-08-21T06:31:57Z</time>
        <sat>8</sat>
      </trkpt>
      <trkpt lat="42.343570" lon="-3.743821">
        <ele>828.7</ele>
        <time>2020-08-21T06:32:03Z</time>
        <sat>7</sat>
      </trkpt>
      <trkpt lat="42.343568" lon="-3.743931">
        <ele>828.6</ele>
        <time>2020-08-21T06:32:09Z</time>
        <sat>7</sat>
      </trkpt>
      <trkpt lat="42.343557" lon="-3.744057">
        <ele>828.6</ele>
        <time>2020-08-21T06:32:16Z</time>
        <sat>8</sat>
      </trkpt>
      <trkpt lat="42.343559" lon="-3.744182">
        <ele>828.5</ele>
        <time>2020-08-21T06:32:23Z</time>
        <sat>8</sat>
      </trkpt>
      <trkpt lat="42.343555" lon="-3.744308">
        <ele>828.5</ele>
        <time>2020-08-21T06:32:30Z</time>
        <sat>8</sat>
      </trkpt>
      <trkpt lat="42.343564" lon="-3.744430">
        <ele>828.4</ele>
        <time>2020-08-21T06:32:37Z</time>
        <sat>8</sat>
      </trkpt>
      <trkpt lat="42.343572" lon="-3.744553">
        <ele>828.3</ele>
        <time>2020-08-21T06:32:44Z</time>
        <sat>8</sat>
      </trkpt>
      <trkpt lat="42.343596" lon="-3.744665">
        <ele>828.3</ele>
        <time>2020-08-21T06:32:51Z</time>
        <sat>8</sat>
      </trkpt>
      <trkpt lat="42.343641" lon="-3.744763">
        <ele>828.3</ele>
        <time>2020-08-21T06:32:58Z</time>
        <sat>8</sat>
      </trkpt>
      <trkpt lat="42.343653" lon="-3.744882">
        <ele>827.8</ele>
        <time>2020-08-21T06:33:05Z</time>
        <sat>8</sat>
      </trkpt>
      <trkpt lat="42.343682" lon="-3.744996">
        <ele>827.3</ele>
        <time>2020-08-21T06:33:12Z</time>
        <sat>8</sat>
      </trkpt>
      <trkpt lat="42.343705" lon="-3.745118">
        <ele>828.2</ele>
        <time>2020-08-21T06:33:19Z</time>
        <sat>8</sat>
      </trkpt>
      <trkpt lat="42.343702" lon="-3.745228">
        <ele>828.6</ele>
        <time>2020-08-21T06:33:35Z</time>
        <sat>8</sat>
      </trkpt>
      <trkpt lat="42.343747" lon="-3.745328">
        <ele>828.7</ele>
        <time>2020-08-21T06:34:31Z</time>
        <sat>9</sat>
      </trkpt>
      <trkpt lat="42.343772" lon="-3.745435">
        <ele>825.8</ele>
        <time>2020-08-21T06:34:37Z</time>
        <sat>8</sat>
      </trkpt>
      <trkpt lat="42.343794" lon="-3.745545">
        <ele>828.4</ele>
        <time>2020-08-21T06:34:43Z</time>
        <sat>9</sat>
      </trkpt>
      <trkpt lat="42.343835" lon="-3.745646">
        <ele>826.7</ele>
        <time>2020-08-21T06:34:49Z</time>
        <sat>9</sat>
      </trkpt>
      <trkpt lat="42.343892" lon="-3.745726">
        <ele>829.4</ele>
        <time>2020-08-21T06:34:55Z</time>
        <sat>9</sat>
      </trkpt>
      <trkpt lat="42.343938" lon="-3.745818">
        <ele>829.9</ele>
        <time>2020-08-21T06:35:01Z</time>
        <sat>9</sat>
      </trkpt>
      <trkpt lat="42.343987" lon="-3.745905">
        <ele>826.6</ele>
        <time>2020-08-21T06:35:07Z</time>
        <sat>9</sat>
      </trkpt>
      <trkpt lat="42.344045" lon="-3.745989">
        <ele>829.2</ele>
        <time>2020-08-21T06:35:13Z</time>
        <sat>9</sat>
      </trkpt>
      <trkpt lat="42.344091" lon="-3.746088">
        <ele>826.6</ele>
        <time>2020-08-21T06:35:20Z</time>
        <sat>8</sat>
      </trkpt>
      <trkpt lat="42.344139" lon="-3.746178">
        <ele>830.0</ele>
        <time>2020-08-21T06:35:26Z</time>
        <sat>9</sat>
      </trkpt>
      <trkpt lat="42.344198" lon="-3.746275">
        <ele>829.9</ele>
        <time>2020-08-21T06:35:33Z</time>
        <sat>9</sat>
      </trkpt>
      <trkpt lat="42.344247" lon="-3.746378">
        <ele>829.0</ele>
        <time>2020-08-21T06:35:46Z</time>
        <sat>8</sat>
      </trkpt>
      <trkpt lat="42.344293" lon="-3.746482">
        <ele>828.7</ele>
        <time>2020-08-21T06:35:56Z</time>
        <sat>9</sat>
      </trkpt>
      <trkpt lat="42.344347" lon="-3.746574">
        <ele>828.7</ele>
        <time>2020-08-21T06:36:05Z</time>
        <sat>8</sat>
      </trkpt>
      <trkpt lat="42.344401" lon="-3.746671">
        <ele>828.7</ele>
        <time>2020-08-21T06:36:12Z</time>
        <sat>9</sat>
      </trkpt>
      <trkpt lat="42.344452" lon="-3.746775">
        <ele>828.7</ele>
        <time>2020-08-21T06:36:19Z</time>
        <sat>9</sat>
      </trkpt>
      <trkpt lat="42.344497" lon="-3.746871">
        <ele>828.6</ele>
        <time>2020-08-21T06:36:25Z</time>
        <sat>9</sat>
      </trkpt>
      <trkpt lat="42.344539" lon="-3.746978">
        <ele>828.7</ele>
        <time>2020-08-21T06:36:32Z</time>
        <sat>9</sat>
      </trkpt>
      <trkpt lat="42.344589" lon="-3.747074">
        <ele>828.6</ele>
        <time>2020-08-21T06:36:39Z</time>
        <sat>9</sat>
      </trkpt>
      <trkpt lat="42.344623" lon="-3.747180">
        <ele>828.6</ele>
        <time>2020-08-21T06:36:45Z</time>
        <sat>9</sat>
      </trkpt>
      <trkpt lat="42.344669" lon="-3.747278">
        <ele>828.5</ele>
        <time>2020-08-21T06:36:51Z</time>
        <sat>9</sat>
      </trkpt>
      <trkpt lat="42.344707" lon="-3.747374">
        <ele>828.5</ele>
        <time>2020-08-21T06:36:57Z</time>
        <sat>9</sat>
      </trkpt>
      <trkpt lat="42.344744" lon="-3.747476">
        <ele>828.4</ele>
        <time>2020-08-21T06:37:03Z</time>
        <sat>9</sat>
      </trkpt>
      <trkpt lat="42.344787" lon="-3.747574">
        <ele>828.4</ele>
        <time>2020-08-21T06:37:09Z</time>
        <sat>9</sat>
      </trkpt>
      <trkpt lat="42.344824" lon="-3.747672">
        <ele>828.4</ele>
        <time>2020-08-21T06:37:15Z</time>
        <sat>9</sat>
      </trkpt>
      <trkpt lat="42.344860" lon="-3.747771">
        <ele>828.4</ele>
        <time>2020-08-21T06:37:21Z</time>
        <sat>9</sat>
      </trkpt>
      <trkpt lat="42.344903" lon="-3.747874">
        <ele>828.4</ele>
        <time>2020-08-21T06:37:28Z</time>
        <sat>9</sat>
      </trkpt>
      <trkpt lat="42.344936" lon="-3.747980">
        <ele>828.4</ele>
        <time>2020-08-21T06:37:34Z</time>
        <sat>9</sat>
      </trkpt>
      <trkpt lat="42.344977" lon="-3.748084">
        <ele>828.3</ele>
        <time>2020-08-21T06:37:40Z</time>
        <sat>9</sat>
      </trkpt>
      <trkpt lat="42.345009" lon="-3.748200">
        <ele>828.3</ele>
        <time>2020-08-21T06:37:47Z</time>
        <sat>8</sat>
      </trkpt>
      <trkpt lat="42.345048" lon="-3.748303">
        <ele>828.2</ele>
        <time>2020-08-21T06:37:53Z</time>
        <sat>8</sat>
      </trkpt>
      <trkpt lat="42.345075" lon="-3.748423">
        <ele>828.3</ele>
        <time>2020-08-21T06:38:00Z</time>
        <sat>8</sat>
      </trkpt>
      <trkpt lat="42.345103" lon="-3.748531">
        <ele>828.2</ele>
        <time>2020-08-21T06:38:06Z</time>
        <sat>8</sat>
      </trkpt>
      <trkpt lat="42.345131" lon="-3.748638">
        <ele>828.3</ele>
        <time>2020-08-21T06:38:12Z</time>
        <sat>8</sat>
      </trkpt>
      <trkpt lat="42.345152" lon="-3.748750">
        <ele>828.2</ele>
        <time>2020-08-21T06:38:18Z</time>
        <sat>8</sat>
      </trkpt>
      <trkpt lat="42.345186" lon="-3.748866">
        <ele>828.2</ele>
        <time>2020-08-21T06:38:25Z</time>
        <sat>8</sat>
      </trkpt>
      <trkpt lat="42.345216" lon="-3.748985">
        <ele>828.1</ele>
        <time>2020-08-21T06:38:32Z</time>
        <sat>8</sat>
      </trkpt>
      <trkpt lat="42.345246" lon="-3.749095">
        <ele>828.1</ele>
        <time>2020-08-21T06:38:38Z</time>
        <sat>8</sat>
      </trkpt>
      <trkpt lat="42.345270" lon="-3.749200">
        <ele>828.2</ele>
        <time>2020-08-21T06:38:44Z</time>
        <sat>8</sat>
      </trkpt>
      <trkpt lat="42.345286" lon="-3.749312">
        <ele>828.3</ele>
        <time>2020-08-21T06:38:50Z</time>
        <sat>8</sat>
      </trkpt>
      <trkpt lat="42.345320" lon="-3.749419">
        <ele>828.5</ele>
        <time>2020-08-21T06:38:56Z</time>
        <sat>8</sat>
      </trkpt>
      <trkpt lat="42.345355" lon="-3.749529">
        <ele>828.6</ele>
        <time>2020-08-21T06:39:02Z</time>
        <sat>8</sat>
      </trkpt>
      <trkpt lat="42.345370" lon="-3.749639">
        <ele>828.8</ele>
        <time>2020-08-21T06:39:08Z</time>
        <sat>8</sat>
      </trkpt>
      <trkpt lat="42.345392" lon="-3.749752">
        <ele>828.8</ele>
        <time>2020-08-21T06:39:14Z</time>
        <sat>8</sat>
      </trkpt>
      <trkpt lat="42.345404" lon="-3.749860">
        <ele>829.1</ele>
        <time>2020-08-21T06:40:22Z</time>
        <sat>8</sat>
      </trkpt>
      <trkpt lat="42.345445" lon="-3.749970">
        <ele>828.9</ele>
        <time>2020-08-21T06:40:32Z</time>
        <sat>8</sat>
      </trkpt>
      <trkpt lat="42.345487" lon="-3.750067">
        <ele>829.0</ele>
        <time>2020-08-21T06:40:38Z</time>
        <sat>8</sat>
      </trkpt>
      <trkpt lat="42.345530" lon="-3.750167">
        <ele>829.1</ele>
        <time>2020-08-21T06:40:44Z</time>
        <sat>8</sat>
      </trkpt>
      <trkpt lat="42.345574" lon="-3.750280">
        <ele>829.0</ele>
        <time>2020-08-21T06:40:51Z</time>
        <sat>8</sat>
      </trkpt>
      <trkpt lat="42.345616" lon="-3.750380">
        <ele>828.9</ele>
        <time>2020-08-21T06:40:57Z</time>
        <sat>8</sat>
      </trkpt>
      <trkpt lat="42.345671" lon="-3.750481">
        <ele>828.7</ele>
        <time>2020-08-21T06:41:04Z</time>
        <sat>8</sat>
      </trkpt>
      <trkpt lat="42.345714" lon="-3.750591">
        <ele>828.5</ele>
        <time>2020-08-21T06:41:11Z</time>
        <sat>8</sat>
      </trkpt>
      <trkpt lat="42.345768" lon="-3.750679">
        <ele>828.3</ele>
        <time>2020-08-21T06:41:17Z</time>
        <sat>8</sat>
      </trkpt>
      <trkpt lat="42.345821" lon="-3.750769">
        <ele>828.3</ele>
        <time>2020-08-21T06:41:23Z</time>
        <sat>8</sat>
      </trkpt>
      <trkpt lat="42.345862" lon="-3.750869">
        <ele>828.4</ele>
        <time>2020-08-21T06:41:29Z</time>
        <sat>8</sat>
      </trkpt>
      <trkpt lat="42.345916" lon="-3.750964">
        <ele>828.3</ele>
        <time>2020-08-21T06:41:35Z</time>
        <sat>8</sat>
      </trkpt>
      <trkpt lat="42.345968" lon="-3.751062">
        <ele>828.3</ele>
        <time>2020-08-21T06:41:42Z</time>
        <sat>8</sat>
      </trkpt>
      <trkpt lat="42.346014" lon="-3.751159">
        <ele>828.3</ele>
        <time>2020-08-21T06:41:48Z</time>
        <sat>8</sat>
      </trkpt>
      <trkpt lat="42.346073" lon="-3.751249">
        <ele>828.3</ele>
        <time>2020-08-21T06:41:54Z</time>
        <sat>8</sat>
      </trkpt>
      <trkpt lat="42.346137" lon="-3.751342">
        <ele>828.4</ele>
        <time>2020-08-21T06:42:01Z</time>
        <sat>8</sat>
      </trkpt>
      <trkpt lat="42.346189" lon="-3.751428">
        <ele>828.4</ele>
        <time>2020-08-21T06:42:07Z</time>
        <sat>8</sat>
      </trkpt>
      <trkpt lat="42.346247" lon="-3.751508">
        <ele>828.3</ele>
        <time>2020-08-21T06:42:13Z</time>
        <sat>8</sat>
      </trkpt>
      <trkpt lat="42.346299" lon="-3.751595">
        <ele>828.2</ele>
        <time>2020-08-21T06:42:19Z</time>
        <sat>8</sat>
      </trkpt>
      <trkpt lat="42.346361" lon="-3.751684">
        <ele>828.3</ele>
        <time>2020-08-21T06:42:26Z</time>
        <sat>8</sat>
      </trkpt>
      <trkpt lat="42.346410" lon="-3.751779">
        <ele>828.4</ele>
        <time>2020-08-21T06:42:33Z</time>
        <sat>8</sat>
      </trkpt>
      <trkpt lat="42.346454" lon="-3.751885">
        <ele>828.5</ele>
        <time>2020-08-21T06:42:40Z</time>
        <sat>8</sat>
      </trkpt>
      <trkpt lat="42.346490" lon="-3.751988">
        <ele>828.5</ele>
        <time>2020-08-21T06:42:47Z</time>
        <sat>8</sat>
      </trkpt>
      <trkpt lat="42.346523" lon="-3.752088">
        <ele>828.6</ele>
        <time>2020-08-21T06:42:54Z</time>
        <sat>8</sat>
      </trkpt>
      <trkpt lat="42.346552" lon="-3.752201">
        <ele>828.7</ele>
        <time>2020-08-21T06:43:01Z</time>
        <sat>8</sat>
      </trkpt>
      <trkpt lat="42.346574" lon="-3.752316">
        <ele>828.8</ele>
        <time>2020-08-21T06:43:08Z</time>
        <sat>8</sat>
      </trkpt>
      <trkpt lat="42.346594" lon="-3.752435">
        <ele>828.8</ele>
        <time>2020-08-21T06:43:15Z</time>
        <sat>8</sat>
      </trkpt>
      <trkpt lat="42.346611" lon="-3.752546">
        <ele>828.8</ele>
        <time>2020-08-21T06:43:21Z</time>
        <sat>8</sat>
      </trkpt>
      <trkpt lat="42.346607" lon="-3.752670">
        <ele>828.8</ele>
        <time>2020-08-21T06:43:28Z</time>
        <sat>8</sat>
      </trkpt>
      <trkpt lat="42.346607" lon="-3.752786">
        <ele>828.8</ele>
        <time>2020-08-21T06:43:35Z</time>
        <sat>8</sat>
      </trkpt>
      <trkpt lat="42.346610" lon="-3.752897">
        <ele>828.7</ele>
        <time>2020-08-21T06:43:41Z</time>
        <sat>8</sat>
      </trkpt>
      <trkpt lat="42.346625" lon="-3.753013">
        <ele>828.6</ele>
        <time>2020-08-21T06:43:47Z</time>
        <sat>8</sat>
      </trkpt>
      <trkpt lat="42.346653" lon="-3.753128">
        <ele>828.6</ele>
        <time>2020-08-21T06:43:54Z</time>
        <sat>8</sat>
      </trkpt>
      <trkpt lat="42.346688" lon="-3.753232">
        <ele>828.7</ele>
        <time>2020-08-21T06:44:00Z</time>
        <sat>8</sat>
      </trkpt>
      <trkpt lat="42.346733" lon="-3.753340">
        <ele>828.7</ele>
        <time>2020-08-21T06:44:07Z</time>
        <sat>8</sat>
      </trkpt>
      <trkpt lat="42.346773" lon="-3.753443">
        <ele>828.7</ele>
        <time>2020-08-21T06:44:13Z</time>
        <sat>8</sat>
      </trkpt>
      <trkpt lat="42.346822" lon="-3.753540">
        <ele>828.7</ele>
        <time>2020-08-21T06:44:19Z</time>
        <sat>8</sat>
      </trkpt>
      <trkpt lat="42.346859" lon="-3.753640">
        <ele>828.6</ele>
        <time>2020-08-21T06:44:25Z</time>
        <sat>8</sat>
      </trkpt>
      <trkpt lat="42.346904" lon="-3.753736">
        <ele>828.5</ele>
        <time>2020-08-21T06:44:31Z</time>
        <sat>8</sat>
      </trkpt>
      <trkpt lat="42.346953" lon="-3.753841">
        <ele>828.5</ele>
        <time>2020-08-21T06:44:38Z</time>
        <sat>8</sat>
      </trkpt>
      <trkpt lat="42.347001" lon="-3.753948">
        <ele>828.4</ele>
        <time>2020-08-21T06:44:45Z</time>
        <sat>8</sat>
      </trkpt>
      <trkpt lat="42.347051" lon="-3.754056">
        <ele>828.4</ele>
        <time>2020-08-21T06:44:52Z</time>
        <sat>8</sat>
      </trkpt>
      <trkpt lat="42.347094" lon="-3.754149">
        <ele>828.5</ele>
        <time>2020-08-21T06:44:58Z</time>
        <sat>8</sat>
      </trkpt>
      <trkpt lat="42.347142" lon="-3.754242">
        <ele>828.6</ele>
        <time>2020-08-21T06:45:04Z</time>
        <sat>8</sat>
      </trkpt>
      <trkpt lat="42.347176" lon="-3.754343">
        <ele>828.6</ele>
        <time>2020-08-21T06:45:10Z</time>
        <sat>8</sat>
      </trkpt>
      <trkpt lat="42.347210" lon="-3.754445">
        <ele>828.6</ele>
        <time>2020-08-21T06:45:16Z</time>
        <sat>8</sat>
      </trkpt>
      <trkpt lat="42.347232" lon="-3.754553">
        <ele>828.7</ele>
        <time>2020-08-21T06:45:22Z</time>
        <sat>8</sat>
      </trkpt>
      <trkpt lat="42.347266" lon="-3.754672">
        <ele>828.8</ele>
        <time>2020-08-21T06:45:29Z</time>
        <sat>8</sat>
      </trkpt>
      <trkpt lat="42.347298" lon="-3.754790">
        <ele>828.8</ele>
        <time>2020-08-21T06:45:36Z</time>
        <sat>8</sat>
      </trkpt>
      <trkpt lat="42.347327" lon="-3.754908">
        <ele>828.9</ele>
        <time>2020-08-21T06:45:43Z</time>
        <sat>8</sat>
      </trkpt>
      <trkpt lat="42.347357" lon="-3.755027">
        <ele>829.0</ele>
        <time>2020-08-21T06:45:50Z</time>
        <sat>8</sat>
      </trkpt>
      <trkpt lat="42.347380" lon="-3.755142">
        <ele>828.8</ele>
        <time>2020-08-21T06:45:57Z</time>
        <sat>7</sat>
      </trkpt>
      <trkpt lat="42.347414" lon="-3.755256">
        <ele>828.5</ele>
        <time>2020-08-21T06:46:04Z</time>
        <sat>8</sat>
      </trkpt>
      <trkpt lat="42.347437" lon="-3.755363">
        <ele>828.7</ele>
        <time>2020-08-21T06:46:10Z</time>
        <sat>8</sat>
      </trkpt>
      <trkpt lat="42.347460" lon="-3.755477">
        <ele>828.7</ele>
        <time>2020-08-21T06:46:16Z</time>
        <sat>8</sat>
      </trkpt>
      <trkpt lat="42.347489" lon="-3.755586">
        <ele>828.7</ele>
        <time>2020-08-21T06:46:22Z</time>
        <sat>8</sat>
      </trkpt>
      <trkpt lat="42.347498" lon="-3.755697">
        <ele>828.7</ele>
        <time>2020-08-21T06:46:28Z</time>
        <sat>8</sat>
      </trkpt>
      <trkpt lat="42.347514" lon="-3.755809">
        <ele>828.7</ele>
        <time>2020-08-21T06:46:34Z</time>
        <sat>8</sat>
      </trkpt>
      <trkpt lat="42.347519" lon="-3.755935">
        <ele>828.8</ele>
        <time>2020-08-21T06:46:41Z</time>
        <sat>8</sat>
      </trkpt>
      <trkpt lat="42.347532" lon="-3.756046">
        <ele>828.8</ele>
        <time>2020-08-21T06:46:47Z</time>
        <sat>8</sat>
      </trkpt>
      <trkpt lat="42.347546" lon="-3.756168">
        <ele>829.0</ele>
        <time>2020-08-21T06:46:54Z</time>
        <sat>8</sat>
      </trkpt>
      <trkpt lat="42.347566" lon="-3.756290">
        <ele>829.1</ele>
        <time>2020-08-21T06:47:01Z</time>
        <sat>8</sat>
      </trkpt>
      <trkpt lat="42.347587" lon="-3.756397">
        <ele>829.2</ele>
        <time>2020-08-21T06:47:07Z</time>
        <sat>7</sat>
      </trkpt>
      <trkpt lat="42.347621" lon="-3.756501">
        <ele>829.1</ele>
        <time>2020-08-21T06:47:13Z</time>
        <sat>8</sat>
      </trkpt>
      <trkpt lat="42.347659" lon="-3.756615">
        <ele>829.1</ele>
        <time>2020-08-21T06:47:20Z</time>
        <sat>8</sat>
      </trkpt>
      <trkpt lat="42.347705" lon="-3.756727">
        <ele>828.9</ele>
        <time>2020-08-21T06:47:27Z</time>
        <sat>8</sat>
      </trkpt>
      <trkpt lat="42.347738" lon="-3.756841">
        <ele>828.9</ele>
        <time>2020-08-21T06:47:34Z</time>
        <sat>8</sat>
      </trkpt>
      <trkpt lat="42.347759" lon="-3.756958">
        <ele>829.0</ele>
        <time>2020-08-21T06:47:40Z</time>
        <sat>8</sat>
      </trkpt>
      <trkpt lat="42.347784" lon="-3.757062">
        <ele>829.0</ele>
        <time>2020-08-21T06:47:46Z</time>
        <sat>8</sat>
      </trkpt>
      <trkpt lat="42.347816" lon="-3.757182">
        <ele>829.2</ele>
        <time>2020-08-21T06:47:53Z</time>
        <sat>8</sat>
      </trkpt>
      <trkpt lat="42.347846" lon="-3.757286">
        <ele>829.3</ele>
        <time>2020-08-21T06:47:59Z</time>
        <sat>8</sat>
      </trkpt>
      <trkpt lat="42.347875" lon="-3.757406">
        <ele>829.2</ele>
        <time>2020-08-21T06:48:06Z</time>
        <sat>8</sat>
      </trkpt>
      <trkpt lat="42.347909" lon="-3.757522">
        <ele>829.2</ele>
        <time>2020-08-21T06:48:13Z</time>
        <sat>8</sat>
      </trkpt>
      <trkpt lat="42.347938" lon="-3.757627">
        <ele>829.2</ele>
        <time>2020-08-21T06:48:19Z</time>
        <sat>8</sat>
      </trkpt>
      <trkpt lat="42.347973" lon="-3.757741">
        <ele>829.2</ele>
        <time>2020-08-21T06:48:26Z</time>
        <sat>7</sat>
      </trkpt>
      <trkpt lat="42.348009" lon="-3.757857">
        <ele>829.1</ele>
        <time>2020-08-21T06:48:33Z</time>
        <sat>7</sat>
      </trkpt>
      <trkpt lat="42.348033" lon="-3.757963">
        <ele>829.2</ele>
        <time>2020-08-21T06:48:39Z</time>
        <sat>8</sat>
      </trkpt>
      <trkpt lat="42.348062" lon="-3.758070">
        <ele>829.1</ele>
        <time>2020-08-21T06:48:45Z</time>
        <sat>8</sat>
      </trkpt>
      <trkpt lat="42.348092" lon="-3.758178">
        <ele>829.0</ele>
        <time>2020-08-21T06:48:51Z</time>
        <sat>8</sat>
      </trkpt>
      <trkpt lat="42.348118" lon="-3.758295">
        <ele>829.0</ele>
        <time>2020-08-21T06:48:58Z</time>
        <sat>8</sat>
      </trkpt>
      <trkpt lat="42.348142" lon="-3.758401">
        <ele>829.1</ele>
        <time>2020-08-21T06:49:04Z</time>
        <sat>8</sat>
      </trkpt>
      <trkpt lat="42.348166" lon="-3.758524">
        <ele>829.0</ele>
        <time>2020-08-21T06:49:11Z</time>
        <sat>8</sat>
      </trkpt>
      <trkpt lat="42.348193" lon="-3.758634">
        <ele>829.0</ele>
        <time>2020-08-21T06:49:17Z</time>
        <sat>8</sat>
      </trkpt>
      <trkpt lat="42.348218" lon="-3.758749">
        <ele>829.0</ele>
        <time>2020-08-21T06:49:24Z</time>
        <sat>8</sat>
      </trkpt>
      <trkpt lat="42.348247" lon="-3.758860">
        <ele>829.0</ele>
        <time>2020-08-21T06:49:30Z</time>
        <sat>8</sat>
      </trkpt>
      <trkpt lat="42.348267" lon="-3.758983">
        <ele>829.0</ele>
        <time>2020-08-21T06:49:37Z</time>
        <sat>8</sat>
      </trkpt>
      <trkpt lat="42.348284" lon="-3.759098">
        <ele>829.0</ele>
        <time>2020-08-21T06:49:43Z</time>
        <sat>8</sat>
      </trkpt>
      <trkpt lat="42.348301" lon="-3.759211">
        <ele>829.0</ele>
        <time>2020-08-21T06:49:49Z</time>
        <sat>8</sat>
      </trkpt>
      <trkpt lat="42.348310" lon="-3.759337">
        <ele>829.0</ele>
        <time>2020-08-21T06:49:56Z</time>
        <sat>8</sat>
      </trkpt>
      <trkpt lat="42.348324" lon="-3.759448">
        <ele>829.1</ele>
        <time>2020-08-21T06:50:02Z</time>
        <sat>8</sat>
      </trkpt>
      <trkpt lat="42.348324" lon="-3.759569">
        <ele>829.1</ele>
        <time>2020-08-21T06:50:09Z</time>
        <sat>8</sat>
      </trkpt>
      <trkpt lat="42.348332" lon="-3.759679">
        <ele>829.1</ele>
        <time>2020-08-21T06:50:15Z</time>
        <sat>8</sat>
      </trkpt>
      <trkpt lat="42.348341" lon="-3.759791">
        <ele>829.2</ele>
        <time>2020-08-21T06:50:21Z</time>
        <sat>8</sat>
      </trkpt>
      <trkpt lat="42.348339" lon="-3.759903">
        <ele>829.2</ele>
        <time>2020-08-21T06:50:27Z</time>
        <sat>8</sat>
      </trkpt>
      <trkpt lat="42.348350" lon="-3.760019">
        <ele>829.1</ele>
        <time>2020-08-21T06:50:33Z</time>
        <sat>8</sat>
      </trkpt>
      <trkpt lat="42.348350" lon="-3.760129">
        <ele>829.1</ele>
        <time>2020-08-21T06:50:39Z</time>
        <sat>8</sat>
      </trkpt>
      <trkpt lat="42.348353" lon="-3.760243">
        <ele>829.1</ele>
        <time>2020-08-21T06:50:45Z</time>
        <sat>8</sat>
      </trkpt>
      <trkpt lat="42.348364" lon="-3.760366">
        <ele>829.1</ele>
        <time>2020-08-21T06:50:52Z</time>
        <sat>8</sat>
      </trkpt>
      <trkpt lat="42.348364" lon="-3.760476">
        <ele>829.1</ele>
        <time>2020-08-21T06:50:58Z</time>
        <sat>7</sat>
      </trkpt>
      <trkpt lat="42.348369" lon="-3.760590">
        <ele>829.1</ele>
        <time>2020-08-21T06:51:04Z</time>
        <sat>8</sat>
      </trkpt>
      <trkpt lat="42.348367" lon="-3.760715">
        <ele>829.2</ele>
        <time>2020-08-21T06:51:11Z</time>
        <sat>8</sat>
      </trkpt>
      <trkpt lat="42.348366" lon="-3.760832">
        <ele>829.3</ele>
        <time>2020-08-21T06:51:17Z</time>
        <sat>8</sat>
      </trkpt>
      <trkpt lat="42.348369" lon="-3.760957">
        <ele>829.4</ele>
        <time>2020-08-21T06:51:24Z</time>
        <sat>8</sat>
      </trkpt>
      <trkpt lat="42.348367" lon="-3.761069">
        <ele>829.4</ele>
        <time>2020-08-21T06:51:30Z</time>
        <sat>8</sat>
      </trkpt>
      <trkpt lat="42.348373" lon="-3.761179">
        <ele>829.4</ele>
        <time>2020-08-21T06:51:36Z</time>
        <sat>8</sat>
      </trkpt>
      <trkpt lat="42.348369" lon="-3.761291">
        <ele>829.4</ele>
        <time>2020-08-21T06:51:42Z</time>
        <sat>8</sat>
      </trkpt>
      <trkpt lat="42.348374" lon="-3.761405">
        <ele>829.3</ele>
        <time>2020-08-21T06:51:48Z</time>
        <sat>8</sat>
      </trkpt>
      <trkpt lat="42.348365" lon="-3.761514">
        <ele>829.3</ele>
        <time>2020-08-21T06:51:54Z</time>
        <sat>8</sat>
      </trkpt>
      <trkpt lat="42.348366" lon="-3.761624">
        <ele>829.4</ele>
        <time>2020-08-21T06:52:00Z</time>
        <sat>8</sat>
      </trkpt>
      <trkpt lat="42.348367" lon="-3.761748">
        <ele>829.4</ele>
        <time>2020-08-21T06:52:07Z</time>
        <sat>8</sat>
      </trkpt>
      <trkpt lat="42.348370" lon="-3.761859">
        <ele>829.4</ele>
        <time>2020-08-21T06:52:13Z</time>
        <sat>8</sat>
      </trkpt>
      <trkpt lat="42.348374" lon="-3.761969">
        <ele>829.4</ele>
        <time>2020-08-21T06:52:19Z</time>
        <sat>8</sat>
      </trkpt>
      <trkpt lat="42.348350" lon="-3.762090">
        <ele>829.3</ele>
        <time>2020-08-21T06:52:26Z</time>
        <sat>7</sat>
      </trkpt>
      <trkpt lat="42.348357" lon="-3.762217">
        <ele>829.3</ele>
        <time>2020-08-21T06:52:33Z</time>
        <sat>8</sat>
      </trkpt>
      <trkpt lat="42.348347" lon="-3.762336">
        <ele>829.3</ele>
        <time>2020-08-21T06:52:40Z</time>
        <sat>8</sat>
      </trkpt>
      <trkpt lat="42.348350" lon="-3.762460">
        <ele>829.1</ele>
        <time>2020-08-21T06:52:47Z</time>
        <sat>7</sat>
      </trkpt>
      <trkpt lat="42.348342" lon="-3.762581">
        <ele>829.1</ele>
        <time>2020-08-21T06:52:54Z</time>
        <sat>8</sat>
      </trkpt>
      <trkpt lat="42.348352" lon="-3.762698">
        <ele>829.2</ele>
        <time>2020-08-21T06:53:02Z</time>
        <sat>8</sat>
      </trkpt>
      <trkpt lat="42.348353" lon="-3.762825">
        <ele>829.3</ele>
        <time>2020-08-21T06:53:29Z</time>
        <sat>8</sat>
      </trkpt>
      <trkpt lat="42.348362" lon="-3.762937">
        <ele>829.2</ele>
        <time>2020-08-21T06:53:36Z</time>
        <sat>8</sat>
      </trkpt>
      <trkpt lat="42.348363" lon="-3.763056">
        <ele>829.2</ele>
        <time>2020-08-21T06:53:44Z</time>
        <sat>7</sat>
      </trkpt>
      <trkpt lat="42.348362" lon="-3.763168">
        <ele>829.2</ele>
        <time>2020-08-21T06:53:51Z</time>
        <sat>8</sat>
      </trkpt>
      <trkpt lat="42.348354" lon="-3.763277">
        <ele>829.2</ele>
        <time>2020-08-21T06:53:59Z</time>
        <sat>8</sat>
      </trkpt>
      <trkpt lat="42.348353" lon="-3.763390">
        <ele>829.2</ele>
        <time>2020-08-21T06:54:06Z</time>
        <sat>8</sat>
      </trkpt>
      <trkpt lat="42.348357" lon="-3.763514">
        <ele>829.3</ele>
        <time>2020-08-21T06:54:14Z</time>
        <sat>8</sat>
      </trkpt>
      <trkpt lat="42.348366" lon="-3.763636">
        <ele>829.3</ele>
        <time>2020-08-21T06:54:22Z</time>
        <sat>8</sat>
      </trkpt>
      <trkpt lat="42.348377" lon="-3.763754">
        <ele>829.4</ele>
        <time>2020-08-21T06:54:29Z</time>
        <sat>8</sat>
      </trkpt>
      <trkpt lat="42.348395" lon="-3.763875">
        <ele>829.5</ele>
        <time>2020-08-21T06:54:37Z</time>
        <sat>8</sat>
      </trkpt>
      <trkpt lat="42.348421" lon="-3.763985">
        <ele>829.5</ele>
        <time>2020-08-21T06:54:44Z</time>
        <sat>7</sat>
      </trkpt>
      <trkpt lat="42.348451" lon="-3.764087">
        <ele>829.5</ele>
        <time>2020-08-21T06:54:51Z</time>
        <sat>8</sat>
      </trkpt>
      <trkpt lat="42.348492" lon="-3.764185">
        <ele>829.6</ele>
        <time>2020-08-21T06:54:58Z</time>
        <sat>8</sat>
      </trkpt>
      <trkpt lat="42.348531" lon="-3.764292">
        <ele>829.6</ele>
        <time>2020-08-21T06:55:05Z</time>
        <sat>8</sat>
      </trkpt>
      <trkpt lat="42.348580" lon="-3.764380">
        <ele>829.6</ele>
        <time>2020-08-21T06:55:11Z</time>
        <sat>8</sat>
      </trkpt>
      <trkpt lat="42.348632" lon="-3.764485">
        <ele>829.6</ele>
        <time>2020-08-21T06:55:18Z</time>
        <sat>8</sat>
      </trkpt>
      <trkpt lat="42.348685" lon="-3.764574">
        <ele>829.5</ele>
        <time>2020-08-21T06:55:24Z</time>
        <sat>8</sat>
      </trkpt>
      <trkpt lat="42.348736" lon="-3.764662">
        <ele>829.5</ele>
        <time>2020-08-21T06:55:30Z</time>
        <sat>8</sat>
      </trkpt>
      <trkpt lat="42.348786" lon="-3.764770">
        <ele>829.5</ele>
        <time>2020-08-21T06:55:37Z</time>
        <sat>8</sat>
      </trkpt>
      <trkpt lat="42.348844" lon="-3.764862">
        <ele>829.6</ele>
        <time>2020-08-21T06:55:44Z</time>
        <sat>8</sat>
      </trkpt>
      <trkpt lat="42.348883" lon="-3.764961">
        <ele>829.6</ele>
        <time>2020-08-21T06:55:50Z</time>
        <sat>8</sat>
      </trkpt>
      <trkpt lat="42.348938" lon="-3.765065">
        <ele>829.7</ele>
        <time>2020-08-21T06:55:57Z</time>
        <sat>8</sat>
      </trkpt>
      <trkpt lat="42.348978" lon="-3.765167">
        <ele>829.8</ele>
        <time>2020-08-21T06:56:03Z</time>
        <sat>8</sat>
      </trkpt>
      <trkpt lat="42.349032" lon="-3.765261">
        <ele>829.9</ele>
        <time>2020-08-21T06:56:09Z</time>
        <sat>8</sat>
      </trkpt>
      <trkpt lat="42.349067" lon="-3.765372">
        <ele>829.9</ele>
        <time>2020-08-21T06:56:16Z</time>
        <sat>8</sat>
      </trkpt>
      <trkpt lat="42.349104" lon="-3.765471">
        <ele>829.8</ele>
        <time>2020-08-21T06:56:22Z</time>
        <sat>8</sat>
      </trkpt>
      <trkpt lat="42.349129" lon="-3.765587">
        <ele>829.8</ele>
        <time>2020-08-21T06:56:29Z</time>
        <sat>8</sat>
      </trkpt>
      <trkpt lat="42.349156" lon="-3.765696">
        <ele>829.8</ele>
        <time>2020-08-21T06:56:35Z</time>
        <sat>8</sat>
      </trkpt>
      <trkpt lat="42.349170" lon="-3.765805">
        <ele>829.8</ele>
        <time>2020-08-21T06:56:41Z</time>
        <sat>8</sat>
      </trkpt>
      <trkpt lat="42.349183" lon="-3.765917">
        <ele>829.8</ele>
        <time>2020-08-21T06:56:47Z</time>
        <sat>8</sat>
      </trkpt>
      <trkpt lat="42.349209" lon="-3.766027">
        <ele>829.8</ele>
        <time>2020-08-21T06:56:53Z</time>
        <sat>8</sat>
      </trkpt>
      <trkpt lat="42.349230" lon="-3.766134">
        <ele>829.9</ele>
        <time>2020-08-21T06:56:59Z</time>
        <sat>8</sat>
      </trkpt>
      <trkpt lat="42.349260" lon="-3.766245">
        <ele>830.0</ele>
        <time>2020-08-21T06:57:05Z</time>
        <sat>8</sat>
      </trkpt>
      <trkpt lat="42.349283" lon="-3.766362">
        <ele>829.9</ele>
        <time>2020-08-21T06:57:12Z</time>
        <sat>8</sat>
      </trkpt>
      <trkpt lat="42.349295" lon="-3.766478">
        <ele>829.9</ele>
        <time>2020-08-21T06:57:19Z</time>
        <sat>8</sat>
      </trkpt>
      <trkpt lat="42.349334" lon="-3.766581">
        <ele>829.9</ele>
        <time>2020-08-21T06:57:26Z</time>
        <sat>8</sat>
      </trkpt>
      <trkpt lat="42.349357" lon="-3.766687">
        <ele>829.8</ele>
        <time>2020-08-21T06:57:32Z</time>
        <sat>8</sat>
      </trkpt>
      <trkpt lat="42.349401" lon="-3.766796">
        <ele>829.8</ele>
        <time>2020-08-21T06:57:39Z</time>
        <sat>7</sat>
      </trkpt>
      <trkpt lat="42.349440" lon="-3.766898">
        <ele>829.9</ele>
        <time>2020-08-21T06:57:45Z</time>
        <sat>8</sat>
      </trkpt>
      <trkpt lat="42.349499" lon="-3.766986">
        <ele>829.9</ele>
        <time>2020-08-21T06:57:51Z</time>
        <sat>7</sat>
      </trkpt>
      <trkpt lat="42.349553" lon="-3.767068">
        <ele>829.8</ele>
        <time>2020-08-21T06:57:57Z</time>
        <sat>8</sat>
      </trkpt>
      <trkpt lat="42.349612" lon="-3.767168">
        <ele>829.5</ele>
        <time>2020-08-21T06:58:04Z</time>
        <sat>8</sat>
      </trkpt>
      <trkpt lat="42.349674" lon="-3.767255">
        <ele>829.5</ele>
        <time>2020-08-21T06:58:11Z</time>
        <sat>7</sat>
      </trkpt>
      <trkpt lat="42.349733" lon="-3.767353">
        <ele>829.5</ele>
        <time>2020-08-21T06:58:18Z</time>
        <sat>7</sat>
      </trkpt>
      <trkpt lat="42.349795" lon="-3.767434">
        <ele>829.4</ele>
        <time>2020-08-21T06:58:25Z</time>
        <sat>8</sat>
      </trkpt>
      <trkpt lat="42.349847" lon="-3.767528">
        <ele>829.5</ele>
        <time>2020-08-21T06:58:32Z</time>
        <sat>8</sat>
      </trkpt>
      <trkpt lat="42.349907" lon="-3.767614">
        <ele>829.5</ele>
        <time>2020-08-21T06:58:38Z</time>
        <sat>7</sat>
      </trkpt>
      <trkpt lat="42.349938" lon="-3.767717">
        <ele>829.3</ele>
        <time>2020-08-21T06:58:45Z</time>
        <sat>7</sat>
      </trkpt>
      <trkpt lat="42.349983" lon="-3.767813">
        <ele>829.4</ele>
        <time>2020-08-21T06:58:51Z</time>
        <sat>7</sat>
      </trkpt>
      <trkpt lat="42.350047" lon="-3.767902">
        <ele>829.5</ele>
        <time>2020-08-21T06:58:58Z</time>
        <sat>7</sat>
      </trkpt>
      <trkpt lat="42.350116" lon="-3.767966">
        <ele>829.6</ele>
        <time>2020-08-21T06:59:04Z</time>
        <sat>7</sat>
      </trkpt>
      <trkpt lat="42.350191" lon="-3.768021">
        <ele>829.8</ele>
        <time>2020-08-21T06:59:10Z</time>
        <sat>8</sat>
      </trkpt>
      <trkpt lat="42.350274" lon="-3.768002">
        <ele>830.1</ele>
        <time>2020-08-21T06:59:17Z</time>
        <sat>8</sat>
      </trkpt>
      <trkpt lat="42.350360" lon="-3.767982">
        <ele>830.2</ele>
        <time>2020-08-21T06:59:24Z</time>
        <sat>7</sat>
      </trkpt>
      <trkpt lat="42.350438" lon="-3.767955">
        <ele>830.6</ele>
        <time>2020-08-21T06:59:31Z</time>
        <sat>8</sat>
      </trkpt>
      <trkpt lat="42.350504" lon="-3.768010">
        <ele>830.7</ele>
        <time>2020-08-21T06:59:57Z</time>
        <sat>8</sat>
      </trkpt>
      <trkpt lat="42.350583" lon="-3.768066">
        <ele>830.5</ele>
        <time>2020-08-21T07:00:09Z</time>
        <sat>8</sat>
      </trkpt>
      <trkpt lat="42.350674" lon="-3.768093">
        <ele>829.9</ele>
        <time>2020-08-21T07:00:16Z</time>
        <sat>8</sat>
      </trkpt>
      <trkpt lat="42.350733" lon="-3.768183">
        <ele>829.4</ele>
        <time>2020-08-21T07:00:23Z</time>
        <sat>8</sat>
      </trkpt>
      <trkpt lat="42.350783" lon="-3.768281">
        <ele>828.9</ele>
        <time>2020-08-21T07:00:30Z</time>
        <sat>8</sat>
      </trkpt>
      <trkpt lat="42.350817" lon="-3.768391">
        <ele>828.7</ele>
        <time>2020-08-21T07:00:37Z</time>
        <sat>8</sat>
      </trkpt>
      <trkpt lat="42.350844" lon="-3.768502">
        <ele>828.6</ele>
        <time>2020-08-21T07:00:44Z</time>
        <sat>8</sat>
      </trkpt>
      <trkpt lat="42.350877" lon="-3.768615">
        <ele>828.5</ele>
        <time>2020-08-21T07:00:51Z</time>
        <sat>8</sat>
      </trkpt>
      <trkpt lat="42.350905" lon="-3.768718">
        <ele>828.3</ele>
        <time>2020-08-21T07:00:57Z</time>
        <sat>8</sat>
      </trkpt>
      <trkpt lat="42.350940" lon="-3.768836">
        <ele>828.3</ele>
        <time>2020-08-21T07:01:04Z</time>
        <sat>8</sat>
      </trkpt>
      <trkpt lat="42.350980" lon="-3.768933">
        <ele>828.2</ele>
        <time>2020-08-21T07:01:10Z</time>
        <sat>8</sat>
      </trkpt>
      <trkpt lat="42.351016" lon="-3.769047">
        <ele>828.1</ele>
        <time>2020-08-21T07:01:17Z</time>
        <sat>8</sat>
      </trkpt>
      <trkpt lat="42.351055" lon="-3.769143">
        <ele>828.0</ele>
        <time>2020-08-21T07:01:23Z</time>
        <sat>8</sat>
      </trkpt>
      <trkpt lat="42.351089" lon="-3.769255">
        <ele>828.0</ele>
        <time>2020-08-21T07:01:30Z</time>
        <sat>8</sat>
      </trkpt>
      <trkpt lat="42.351122" lon="-3.769370">
        <ele>828.0</ele>
        <time>2020-08-21T07:01:37Z</time>
        <sat>8</sat>
      </trkpt>
      <trkpt lat="42.351146" lon="-3.769475">
        <ele>827.9</ele>
        <time>2020-08-21T07:01:43Z</time>
        <sat>8</sat>
      </trkpt>
      <trkpt lat="42.351180" lon="-3.769589">
        <ele>828.0</ele>
        <time>2020-08-21T07:01:50Z</time>
        <sat>9</sat>
      </trkpt>
      <trkpt lat="42.351216" lon="-3.769697">
        <ele>828.0</ele>
        <time>2020-08-21T07:01:57Z</time>
        <sat>9</sat>
      </trkpt>
      <trkpt lat="42.351255" lon="-3.769807">
        <ele>828.0</ele>
        <time>2020-08-21T07:02:04Z</time>
        <sat>9</sat>
      </trkpt>
      <trkpt lat="42.351297" lon="-3.769916">
        <ele>828.1</ele>
        <time>2020-08-21T07:02:11Z</time>
        <sat>9</sat>
      </trkpt>
      <trkpt lat="42.351336" lon="-3.770016">
        <ele>828.2</ele>
        <time>2020-08-21T07:02:17Z</time>
        <sat>9</sat>
      </trkpt>
      <trkpt lat="42.351383" lon="-3.770127">
        <ele>828.2</ele>
        <time>2020-08-21T07:02:24Z</time>
        <sat>9</sat>
      </trkpt>
      <trkpt lat="42.351421" lon="-3.770228">
        <ele>828.1</ele>
        <time>2020-08-21T07:02:30Z</time>
        <sat>9</sat>
      </trkpt>
      <trkpt lat="42.351463" lon="-3.770326">
        <ele>828.2</ele>
        <time>2020-08-21T07:02:36Z</time>
        <sat>9</sat>
      </trkpt>
      <trkpt lat="42.351502" lon="-3.770432">
        <ele>828.2</ele>
        <time>2020-08-21T07:02:42Z</time>
        <sat>9</sat>
      </trkpt>
      <trkpt lat="42.351539" lon="-3.770531">
        <ele>828.2</ele>
        <time>2020-08-21T07:02:48Z</time>
        <sat>9</sat>
      </trkpt>
      <trkpt lat="42.351576" lon="-3.770630">
        <ele>828.2</ele>
        <time>2020-08-21T07:02:54Z</time>
        <sat>9</sat>
      </trkpt>
      <trkpt lat="42.351624" lon="-3.770722">
        <ele>828.1</ele>
        <time>2020-08-21T07:03:00Z</time>
        <sat>9</sat>
      </trkpt>
      <trkpt lat="42.351671" lon="-3.770831">
        <ele>828.1</ele>
        <time>2020-08-21T07:03:07Z</time>
        <sat>9</sat>
      </trkpt>
      <trkpt lat="42.351719" lon="-3.770932">
        <ele>828.0</ele>
        <time>2020-08-21T07:03:13Z</time>
        <sat>9</sat>
      </trkpt>
      <trkpt lat="42.351755" lon="-3.771048">
        <ele>828.0</ele>
        <time>2020-08-21T07:03:20Z</time>
        <sat>9</sat>
      </trkpt>
      <trkpt lat="42.351783" lon="-3.771155">
        <ele>828.0</ele>
        <time>2020-08-21T07:03:26Z</time>
        <sat>9</sat>
      </trkpt>
      <trkpt lat="42.351808" lon="-3.771268">
        <ele>827.9</ele>
        <time>2020-08-21T07:03:32Z</time>
        <sat>9</sat>
      </trkpt>
      <trkpt lat="42.351824" lon="-3.771377">
        <ele>827.8</ele>
        <time>2020-08-21T07:03:38Z</time>
        <sat>9</sat>
      </trkpt>
      <trkpt lat="42.351849" lon="-3.771487">
        <ele>827.8</ele>
        <time>2020-08-21T07:03:44Z</time>
        <sat>9</sat>
      </trkpt>
      <trkpt lat="42.351851" lon="-3.771612">
        <ele>827.7</ele>
        <time>2020-08-21T07:03:51Z</time>
        <sat>9</sat>
      </trkpt>
      <trkpt lat="42.351875" lon="-3.771718">
        <ele>827.7</ele>
        <time>2020-08-21T07:03:57Z</time>
        <sat>9</sat>
      </trkpt>
      <trkpt lat="42.351898" lon="-3.771834">
        <ele>827.6</ele>
        <time>2020-08-21T07:04:04Z</time>
        <sat>9</sat>
      </trkpt>
      <trkpt lat="42.351929" lon="-3.771953">
        <ele>827.4</ele>
        <time>2020-08-21T07:04:11Z</time>
        <sat>9</sat>
      </trkpt>
      <trkpt lat="42.351952" lon="-3.772073">
        <ele>827.3</ele>
        <time>2020-08-21T07:04:18Z</time>
        <sat>9</sat>
      </trkpt>
      <trkpt lat="42.351969" lon="-3.772183">
        <ele>827.1</ele>
        <time>2020-08-21T07:04:25Z</time>
        <sat>9</sat>
      </trkpt>
      <trkpt lat="42.351982" lon="-3.772303">
        <ele>827.0</ele>
        <time>2020-08-21T07:04:32Z</time>
        <sat>9</sat>
      </trkpt>
      <trkpt lat="42.351988" lon="-3.772425">
        <ele>827.1</ele>
        <time>2020-08-21T07:04:39Z</time>
        <sat>9</sat>
      </trkpt>
      <trkpt lat="42.351993" lon="-3.772548">
        <ele>827.2</ele>
        <time>2020-08-21T07:04:46Z</time>
        <sat>9</sat>
      </trkpt>
      <trkpt lat="42.352007" lon="-3.772657">
        <ele>827.2</ele>
        <time>2020-08-21T07:04:52Z</time>
        <sat>9</sat>
      </trkpt>
      <trkpt lat="42.352013" lon="-3.772770">
        <ele>827.1</ele>
        <time>2020-08-21T07:04:59Z</time>
        <sat>9</sat>
      </trkpt>
      <trkpt lat="42.352028" lon="-3.772896">
        <ele>827.0</ele>
        <time>2020-08-21T07:05:06Z</time>
        <sat>9</sat>
      </trkpt>
      <trkpt lat="42.352036" lon="-3.773020">
        <ele>827.0</ele>
        <time>2020-08-21T07:05:13Z</time>
        <sat>9</sat>
      </trkpt>
      <trkpt lat="42.352049" lon="-3.773143">
        <ele>827.0</ele>
        <time>2020-08-21T07:05:20Z</time>
        <sat>9</sat>
      </trkpt>
      <trkpt lat="42.352074" lon="-3.773261">
        <ele>826.9</ele>
        <time>2020-08-21T07:05:27Z</time>
        <sat>9</sat>
      </trkpt>
      <trkpt lat="42.352095" lon="-3.773384">
        <ele>827.0</ele>
        <time>2020-08-21T07:05:34Z</time>
        <sat>9</sat>
      </trkpt>
      <trkpt lat="42.352108" lon="-3.773506">
        <ele>827.0</ele>
        <time>2020-08-21T07:05:41Z</time>
        <sat>9</sat>
      </trkpt>
      <trkpt lat="42.352119" lon="-3.773626">
        <ele>826.9</ele>
        <time>2020-08-21T07:05:48Z</time>
        <sat>9</sat>
      </trkpt>
      <trkpt lat="42.352138" lon="-3.773748">
        <ele>826.8</ele>
        <time>2020-08-21T07:05:55Z</time>
        <sat>9</sat>
      </trkpt>
      <trkpt lat="42.352151" lon="-3.773865">
        <ele>826.8</ele>
        <time>2020-08-21T07:06:02Z</time>
        <sat>9</sat>
      </trkpt>
      <trkpt lat="42.352169" lon="-3.773981">
        <ele>826.9</ele>
        <time>2020-08-21T07:06:10Z</time>
        <sat>9</sat>
      </trkpt>
      <trkpt lat="42.352203" lon="-3.774094">
        <ele>826.7</ele>
        <time>2020-08-21T07:06:41Z</time>
        <sat>9</sat>
      </trkpt>
      <trkpt lat="42.352226" lon="-3.774206">
        <ele>826.7</ele>
        <time>2020-08-21T07:06:48Z</time>
        <sat>9</sat>
      </trkpt>
      <trkpt lat="42.352244" lon="-3.774317">
        <ele>826.7</ele>
        <time>2020-08-21T07:06:55Z</time>
        <sat>9</sat>
      </trkpt>
      <trkpt lat="42.352256" lon="-3.774430">
        <ele>826.7</ele>
        <time>2020-08-21T07:07:02Z</time>
        <sat>9</sat>
      </trkpt>
      <trkpt lat="42.352270" lon="-3.774548">
        <ele>826.6</ele>
        <time>2020-08-21T07:07:09Z</time>
        <sat>9</sat>
      </trkpt>
      <trkpt lat="42.352291" lon="-3.774669">
        <ele>826.6</ele>
        <time>2020-08-21T07:07:16Z</time>
        <sat>9</sat>
      </trkpt>
      <trkpt lat="42.352307" lon="-3.774789">
        <ele>826.6</ele>
        <time>2020-08-21T07:07:23Z</time>
        <sat>9</sat>
      </trkpt>
      <trkpt lat="42.352334" lon="-3.774910">
        <ele>826.5</ele>
        <time>2020-08-21T07:07:30Z</time>
        <sat>9</sat>
      </trkpt>
      <trkpt lat="42.352352" lon="-3.775035">
        <ele>826.5</ele>
        <time>2020-08-21T07:07:37Z</time>
        <sat>9</sat>
      </trkpt>
      <trkpt lat="42.352377" lon="-3.775155">
        <ele>826.3</ele>
        <time>2020-08-21T07:07:44Z</time>
        <sat>9</sat>
      </trkpt>
      <trkpt lat="42.352401" lon="-3.775264">
        <ele>826.3</ele>
        <time>2020-08-21T07:07:50Z</time>
        <sat>9</sat>
      </trkpt>
      <trkpt lat="42.352421" lon="-3.775383">
        <ele>826.3</ele>
        <time>2020-08-21T07:07:57Z</time>
        <sat>9</sat>
      </trkpt>
      <trkpt lat="42.352436" lon="-3.775491">
        <ele>826.2</ele>
        <time>2020-08-21T07:08:03Z</time>
        <sat>9</sat>
      </trkpt>
      <trkpt lat="42.352447" lon="-3.775614">
        <ele>826.1</ele>
        <time>2020-08-21T07:08:10Z</time>
        <sat>9</sat>
      </trkpt>
      <trkpt lat="42.352463" lon="-3.775733">
        <ele>825.9</ele>
        <time>2020-08-21T07:08:17Z</time>
        <sat>9</sat>
      </trkpt>
      <trkpt lat="42.352477" lon="-3.775848">
        <ele>825.7</ele>
        <time>2020-08-21T07:08:24Z</time>
        <sat>9</sat>
      </trkpt>
      <trkpt lat="42.352497" lon="-3.775970">
        <ele>825.7</ele>
        <time>2020-08-21T07:08:31Z</time>
        <sat>9</sat>
      </trkpt>
      <trkpt lat="42.352516" lon="-3.776095">
        <ele>825.7</ele>
        <time>2020-08-21T07:08:38Z</time>
        <sat>9</sat>
      </trkpt>
      <trkpt lat="42.352534" lon="-3.776214">
        <ele>825.7</ele>
        <time>2020-08-21T07:08:45Z</time>
        <sat>9</sat>
      </trkpt>
      <trkpt lat="42.352537" lon="-3.776340">
        <ele>825.8</ele>
        <time>2020-08-21T07:08:52Z</time>
        <sat>9</sat>
      </trkpt>
      <trkpt lat="42.352538" lon="-3.776463">
        <ele>825.8</ele>
        <time>2020-08-21T07:08:59Z</time>
        <sat>9</sat>
      </trkpt>
      <trkpt lat="42.352540" lon="-3.776573">
        <ele>825.8</ele>
        <time>2020-08-21T07:09:05Z</time>
        <sat>9</sat>
      </trkpt>
      <trkpt lat="42.352548" lon="-3.776696">
        <ele>825.8</ele>
        <time>2020-08-21T07:09:12Z</time>
        <sat>9</sat>
      </trkpt>
      <trkpt lat="42.352565" lon="-3.776804">
        <ele>825.7</ele>
        <time>2020-08-21T07:09:18Z</time>
        <sat>9</sat>
      </trkpt>
      <trkpt lat="42.352582" lon="-3.776929">
        <ele>825.7</ele>
        <time>2020-08-21T07:09:25Z</time>
        <sat>9</sat>
      </trkpt>
      <trkpt lat="42.352614" lon="-3.777038">
        <ele>825.8</ele>
        <time>2020-08-21T07:09:32Z</time>
        <sat>9</sat>
      </trkpt>
      <trkpt lat="42.352665" lon="-3.777137">
        <ele>825.9</ele>
        <time>2020-08-21T07:09:39Z</time>
        <sat>9</sat>
      </trkpt>
      <trkpt lat="42.352715" lon="-3.777236">
        <ele>825.9</ele>
        <time>2020-08-21T07:09:47Z</time>
        <sat>9</sat>
      </trkpt>
      <trkpt lat="42.352779" lon="-3.777325">
        <ele>825.9</ele>
        <time>2020-08-21T07:09:53Z</time>
        <sat>8</sat>
      </trkpt>
      <trkpt lat="42.352876" lon="-3.777326">
        <ele>825.9</ele>
        <time>2020-08-21T07:09:59Z</time>
        <sat>5</sat>
      </trkpt>
      <trkpt lat="42.352942" lon="-3.777395">
        <ele>825.9</ele>
        <time>2020-08-21T07:10:06Z</time>
        <sat>3</sat>
      </trkpt>
      <trkpt lat="42.353020" lon="-3.777454">
        <ele>825.7</ele>
        <time>2020-08-21T07:10:14Z</time>
        <sat>7</sat>
      </trkpt>
      <trkpt lat="42.353036" lon="-3.777576">
        <ele>825.8</ele>
        <time>2020-08-21T07:10:22Z</time>
        <sat>9</sat>
      </trkpt>
      <trkpt lat="42.353005" lon="-3.777682">
        <ele>825.7</ele>
        <time>2020-08-21T07:10:28Z</time>
        <sat>9</sat>
      </trkpt>
      <trkpt lat="42.352972" lon="-3.777785">
        <ele>825.5</ele>
        <time>2020-08-21T07:10:34Z</time>
        <sat>9</sat>
      </trkpt>
      <trkpt lat="42.352925" lon="-3.777888">
        <ele>825.4</ele>
        <time>2020-08-21T07:10:41Z</time>
        <sat>9</sat>
      </trkpt>
      <trkpt lat="42.352882" lon="-3.777982">
        <ele>825.3</ele>
        <time>2020-08-21T07:10:47Z</time>
        <sat>9</sat>
      </trkpt>
      <trkpt lat="42.352834" lon="-3.778087">
        <ele>825.4</ele>
        <time>2020-08-21T07:10:54Z</time>
        <sat>9</sat>
      </trkpt>
      <trkpt lat="42.352787" lon="-3.778197">
        <ele>825.3</ele>
        <time>2020-08-21T07:11:01Z</time>
        <sat>9</sat>
      </trkpt>
      <trkpt lat="42.352750" lon="-3.778295">
        <ele>825.4</ele>
        <time>2020-08-21T07:11:07Z</time>
        <sat>9</sat>
      </trkpt>
      <trkpt lat="42.352706" lon="-3.778390">
        <ele>825.3</ele>
        <time>2020-08-21T07:11:13Z</time>
        <sat>9</sat>
      </trkpt>
      <trkpt lat="42.352667" lon="-3.778488">
        <ele>825.3</ele>
        <time>2020-08-21T07:11:19Z</time>
        <sat>9</sat>
      </trkpt>
      <trkpt lat="42.352620" lon="-3.778580">
        <ele>825.2</ele>
        <time>2020-08-21T07:11:25Z</time>
        <sat>9</sat>
      </trkpt>
      <trkpt lat="42.352579" lon="-3.778683">
        <ele>825.1</ele>
        <time>2020-08-21T07:11:31Z</time>
        <sat>9</sat>
      </trkpt>
      <trkpt lat="42.352528" lon="-3.778788">
        <ele>825.1</ele>
        <time>2020-08-21T07:11:38Z</time>
        <sat>9</sat>
      </trkpt>
      <trkpt lat="42.352489" lon="-3.778885">
        <ele>825.1</ele>
        <time>2020-08-21T07:11:44Z</time>
        <sat>9</sat>
      </trkpt>
      <trkpt lat="42.352453" lon="-3.778990">
        <ele>825.0</ele>
        <time>2020-08-21T07:11:50Z</time>
        <sat>9</sat>
      </trkpt>
      <trkpt lat="42.352419" lon="-3.779109">
        <ele>824.9</ele>
        <time>2020-08-21T07:11:57Z</time>
        <sat>9</sat>
      </trkpt>
      <trkpt lat="42.352415" lon="-3.779222">
        <ele>824.6</ele>
        <time>2020-08-21T07:12:03Z</time>
        <sat>9</sat>
      </trkpt>
      <trkpt lat="42.352406" lon="-3.779348">
        <ele>824.5</ele>
        <time>2020-08-21T07:12:10Z</time>
        <sat>9</sat>
      </trkpt>
      <trkpt lat="42.352376" lon="-3.779456">
        <ele>824.3</ele>
        <time>2020-08-21T07:12:16Z</time>
        <sat>9</sat>
      </trkpt>
      <trkpt lat="42.352364" lon="-3.779568">
        <ele>824.3</ele>
        <time>2020-08-21T07:12:22Z</time>
        <sat>9</sat>
      </trkpt>
      <trkpt lat="42.352338" lon="-3.779673">
        <ele>824.4</ele>
        <time>2020-08-21T07:12:28Z</time>
        <sat>9</sat>
      </trkpt>
      <trkpt lat="42.352320" lon="-3.779785">
        <ele>824.4</ele>
        <time>2020-08-21T07:12:34Z</time>
        <sat>9</sat>
      </trkpt>
      <trkpt lat="42.352306" lon="-3.779910">
        <ele>824.4</ele>
        <time>2020-08-21T07:12:41Z</time>
        <sat>8</sat>
      </trkpt>
      <trkpt lat="42.352294" lon="-3.780022">
        <ele>824.4</ele>
        <time>2020-08-21T07:12:47Z</time>
        <sat>8</sat>
      </trkpt>
      <trkpt lat="42.352317" lon="-3.780128">
        <ele>824.4</ele>
        <time>2020-08-21T07:12:53Z</time>
        <sat>9</sat>
      </trkpt>
      <trkpt lat="42.352303" lon="-3.780252">
        <ele>824.4</ele>
        <time>2020-08-21T07:13:00Z</time>
        <sat>9</sat>
      </trkpt>
      <trkpt lat="42.352303" lon="-3.780374">
        <ele>824.4</ele>
        <time>2020-08-21T07:13:07Z</time>
        <sat>9</sat>
      </trkpt>
      <trkpt lat="42.352291" lon="-3.780483">
        <ele>824.4</ele>
        <time>2020-08-21T07:13:13Z</time>
        <sat>9</sat>
      </trkpt>
      <trkpt lat="42.352281" lon="-3.780593">
        <ele>824.4</ele>
        <time>2020-08-21T07:13:19Z</time>
        <sat>8</sat>
      </trkpt>
      <trkpt lat="42.352267" lon="-3.780704">
        <ele>824.3</ele>
        <time>2020-08-21T07:13:25Z</time>
        <sat>9</sat>
      </trkpt>
      <trkpt lat="42.352271" lon="-3.780818">
        <ele>824.1</ele>
        <time>2020-08-21T07:13:31Z</time>
        <sat>9</sat>
      </trkpt>
      <trkpt lat="42.352265" lon="-3.780928">
        <ele>824.2</ele>
        <time>2020-08-21T07:13:37Z</time>
        <sat>9</sat>
      </trkpt>
      <trkpt lat="42.352269" lon="-3.781044">
        <ele>824.2</ele>
        <time>2020-08-21T07:13:43Z</time>
        <sat>9</sat>
      </trkpt>
      <trkpt lat="42.352270" lon="-3.781167">
        <ele>824.2</ele>
        <time>2020-08-21T07:13:50Z</time>
        <sat>9</sat>
      </trkpt>
      <trkpt lat="42.352271" lon="-3.781281">
        <ele>824.2</ele>
        <time>2020-08-21T07:13:56Z</time>
        <sat>9</sat>
      </trkpt>
      <trkpt lat="42.352277" lon="-3.781408">
        <ele>824.1</ele>
        <time>2020-08-21T07:14:03Z</time>
        <sat>9</sat>
      </trkpt>
      <trkpt lat="42.352280" lon="-3.781537">
        <ele>824.0</ele>
        <time>2020-08-21T07:14:10Z</time>
        <sat>9</sat>
      </trkpt>
      <trkpt lat="42.352280" lon="-3.781663">
        <ele>823.9</ele>
        <time>2020-08-21T07:14:17Z</time>
        <sat>9</sat>
      </trkpt>
      <trkpt lat="42.352277" lon="-3.781773">
        <ele>823.8</ele>
        <time>2020-08-21T07:14:23Z</time>
        <sat>9</sat>
      </trkpt>
      <trkpt lat="42.352268" lon="-3.781885">
        <ele>823.8</ele>
        <time>2020-08-21T07:14:29Z</time>
        <sat>9</sat>
      </trkpt>
      <trkpt lat="42.352231" lon="-3.781985">
        <ele>823.7</ele>
        <time>2020-08-21T07:14:35Z</time>
        <sat>9</sat>
      </trkpt>
      <trkpt lat="42.352181" lon="-3.782074">
        <ele>823.6</ele>
        <time>2020-08-21T07:14:41Z</time>
        <sat>9</sat>
      </trkpt>
      <trkpt lat="42.352125" lon="-3.782171">
        <ele>823.5</ele>
        <time>2020-08-21T07:14:48Z</time>
        <sat>9</sat>
      </trkpt>
      <trkpt lat="42.352094" lon="-3.782286">
        <ele>823.5</ele>
        <time>2020-08-21T07:14:55Z</time>
        <sat>8</sat>
      </trkpt>
      <trkpt lat="42.352065" lon="-3.782405">
        <ele>823.5</ele>
        <time>2020-08-21T07:15:02Z</time>
        <sat>9</sat>
      </trkpt>
      <trkpt lat="42.352052" lon="-3.782530">
        <ele>823.5</ele>
        <time>2020-08-21T07:15:09Z</time>
        <sat>10</sat>
      </trkpt>
      <trkpt lat="42.352033" lon="-3.782638">
        <ele>823.2</ele>
        <time>2020-08-21T07:15:15Z</time>
        <sat>9</sat>
      </trkpt>
      <trkpt lat="42.352012" lon="-3.782746">
        <ele>823.2</ele>
        <time>2020-08-21T07:15:21Z</time>
        <sat>9</sat>
      </trkpt>
      <trkpt lat="42.351981" lon="-3.782849">
        <ele>823.2</ele>
        <time>2020-08-21T07:15:27Z</time>
        <sat>10</sat>
      </trkpt>
      <trkpt lat="42.351946" lon="-3.782963">
        <ele>823.2</ele>
        <time>2020-08-21T07:15:34Z</time>
        <sat>10</sat>
      </trkpt>
      <trkpt lat="42.351907" lon="-3.783078">
        <ele>823.3</ele>
        <time>2020-08-21T07:15:41Z</time>
        <sat>10</sat>
      </trkpt>
      <trkpt lat="42.351874" lon="-3.783179">
        <ele>823.2</ele>
        <time>2020-08-21T07:15:47Z</time>
        <sat>10</sat>
      </trkpt>
      <trkpt lat="42.351832" lon="-3.783274">
        <ele>823.2</ele>
        <time>2020-08-21T07:15:53Z</time>
        <sat>10</sat>
      </trkpt>
      <trkpt lat="42.351800" lon="-3.783376">
        <ele>823.1</ele>
        <time>2020-08-21T07:15:59Z</time>
        <sat>10</sat>
      </trkpt>
      <trkpt lat="42.351761" lon="-3.783475">
        <ele>823.1</ele>
        <time>2020-08-21T07:16:05Z</time>
        <sat>9</sat>
      </trkpt>
      <trkpt lat="42.351731" lon="-3.783577">
        <ele>823.2</ele>
        <time>2020-08-21T07:16:11Z</time>
        <sat>10</sat>
      </trkpt>
      <trkpt lat="42.351686" lon="-3.783685">
        <ele>823.2</ele>
        <time>2020-08-21T07:16:18Z</time>
        <sat>10</sat>
      </trkpt>
      <trkpt lat="42.351650" lon="-3.783802">
        <ele>823.1</ele>
        <time>2020-08-21T07:16:25Z</time>
        <sat>10</sat>
      </trkpt>
      <trkpt lat="42.351609" lon="-3.783916">
        <ele>823.1</ele>
        <time>2020-08-21T07:16:32Z</time>
        <sat>10</sat>
      </trkpt>
      <trkpt lat="42.351566" lon="-3.784024">
        <ele>823.1</ele>
        <time>2020-08-21T07:16:39Z</time>
        <sat>9</sat>
      </trkpt>
      <trkpt lat="42.351537" lon="-3.784128">
        <ele>823.0</ele>
        <time>2020-08-21T07:16:45Z</time>
        <sat>10</sat>
      </trkpt>
      <trkpt lat="42.351494" lon="-3.784232">
        <ele>823.2</ele>
        <time>2020-08-21T07:16:52Z</time>
        <sat>9</sat>
      </trkpt>
      <trkpt lat="42.351483" lon="-3.784348">
        <ele>823.5</ele>
        <time>2020-08-21T07:17:00Z</time>
        <sat>9</sat>
      </trkpt>
      <trkpt lat="42.351552" lon="-3.784422">
        <ele>824.1</ele>
        <time>2020-08-21T07:17:08Z</time>
        <sat>10</sat>
      </trkpt>
      <trkpt lat="42.351632" lon="-3.784470">
        <ele>824.9</ele>
        <time>2020-08-21T07:17:16Z</time>
        <sat>10</sat>
      </trkpt>
      <trkpt lat="42.351710" lon="-3.784503">
        <ele>825.7</ele>
        <time>2020-08-21T07:17:23Z</time>
        <sat>10</sat>
      </trkpt>
      <trkpt lat="42.351795" lon="-3.784538">
        <ele>826.3</ele>
        <time>2020-08-21T07:17:30Z</time>
        <sat>9</sat>
      </trkpt>
      <trkpt lat="42.351876" lon="-3.784581">
        <ele>826.8</ele>
        <time>2020-08-21T07:17:37Z</time>
        <sat>9</sat>
      </trkpt>
      <trkpt lat="42.351959" lon="-3.784628">
        <ele>827.5</ele>
        <time>2020-08-21T07:17:44Z</time>
        <sat>10</sat>
      </trkpt>
      <trkpt lat="42.352037" lon="-3.784691">
        <ele>828.1</ele>
        <time>2020-08-21T07:17:51Z</time>
        <sat>10</sat>
      </trkpt>
      <trkpt lat="42.352113" lon="-3.784752">
        <ele>828.6</ele>
        <time>2020-08-21T07:17:58Z</time>
        <sat>10</sat>
      </trkpt>
      <trkpt lat="42.352185" lon="-3.784820">
        <ele>829.1</ele>
        <time>2020-08-21T07:18:05Z</time>
        <sat>9</sat>
      </trkpt>
      <trkpt lat="42.352254" lon="-3.784886">
        <ele>829.4</ele>
        <time>2020-08-21T07:18:12Z</time>
        <sat>10</sat>
      </trkpt>
      <trkpt lat="42.352330" lon="-3.784951">
        <ele>829.7</ele>
        <time>2020-08-21T07:18:19Z</time>
        <sat>10</sat>
      </trkpt>
      <trkpt lat="42.352402" lon="-3.785021">
        <ele>830.0</ele>
        <time>2020-08-21T07:18:26Z</time>
        <sat>10</sat>
      </trkpt>
      <trkpt lat="42.352483" lon="-3.785080">
        <ele>830.2</ele>
        <time>2020-08-21T07:18:33Z</time>
        <sat>10</sat>
      </trkpt>
      <trkpt lat="42.352554" lon="-3.785136">
        <ele>830.3</ele>
        <time>2020-08-21T07:18:40Z</time>
        <sat>9</sat>
      </trkpt>
      <trkpt lat="42.352634" lon="-3.785200">
        <ele>830.4</ele>
        <time>2020-08-21T07:18:47Z</time>
        <sat>10</sat>
      </trkpt>
      <trkpt lat="42.352714" lon="-3.785261">
        <ele>830.3</ele>
        <time>2020-08-21T07:18:54Z</time>
        <sat>10</sat>
      </trkpt>
      <trkpt lat="42.352791" lon="-3.785314">
        <ele>830.2</ele>
        <time>2020-08-21T07:19:01Z</time>
        <sat>10</sat>
      </trkpt>
      <trkpt lat="42.352862" lon="-3.785370">
        <ele>829.9</ele>
        <time>2020-08-21T07:19:07Z</time>
        <sat>9</sat>
      </trkpt>
      <trkpt lat="42.352941" lon="-3.785431">
        <ele>829.6</ele>
        <time>2020-08-21T07:19:14Z</time>
        <sat>10</sat>
      </trkpt>
      <trkpt lat="42.353014" lon="-3.785495">
        <ele>829.2</ele>
        <time>2020-08-21T07:19:21Z</time>
        <sat>10</sat>
      </trkpt>
      <trkpt lat="42.353072" lon="-3.785575">
        <ele>829.0</ele>
        <time>2020-08-21T07:19:28Z</time>
        <sat>10</sat>
      </trkpt>
      <trkpt lat="42.353124" lon="-3.785668">
        <ele>828.5</ele>
        <time>2020-08-21T07:19:35Z</time>
        <sat>10</sat>
      </trkpt>
      <trkpt lat="42.353160" lon="-3.785774">
        <ele>827.9</ele>
        <time>2020-08-21T07:19:42Z</time>
        <sat>10</sat>
      </trkpt>
      <trkpt lat="42.353186" lon="-3.785880">
        <ele>827.3</ele>
        <time>2020-08-21T07:19:49Z</time>
        <sat>10</sat>
      </trkpt>
      <trkpt lat="42.353198" lon="-3.786003">
        <ele>826.7</ele>
        <time>2020-08-21T07:19:56Z</time>
        <sat>10</sat>
      </trkpt>
      <trkpt lat="42.353203" lon="-3.786122">
        <ele>826.1</ele>
        <time>2020-08-21T07:20:03Z</time>
        <sat>10</sat>
      </trkpt>
      <trkpt lat="42.353210" lon="-3.786244">
        <ele>825.6</ele>
        <time>2020-08-21T07:20:10Z</time>
        <sat>9</sat>
      </trkpt>
      <trkpt lat="42.353222" lon="-3.786354">
        <ele>824.9</ele>
        <time>2020-08-21T07:20:16Z</time>
        <sat>10</sat>
      </trkpt>
      <trkpt lat="42.353246" lon="-3.786472">
        <ele>824.2</ele>
        <time>2020-08-21T07:20:23Z</time>
        <sat>10</sat>
      </trkpt>
      <trkpt lat="42.353280" lon="-3.786582">
        <ele>823.5</ele>
        <time>2020-08-21T07:20:30Z</time>
        <sat>10</sat>
      </trkpt>
      <trkpt lat="42.353306" lon="-3.786618">
        <ele>822.3</ele>
        <time>2020-08-21T07:21:39Z</time>
        <sat>10</sat>
      </trkpt>
      <trkpt lat="42.353318" lon="-3.786731">
        <ele>821.9</ele>
        <time>2020-08-21T07:21:49Z</time>
        <sat>9</sat>
      </trkpt>
      <trkpt lat="42.353283" lon="-3.786833">
        <ele>822.1</ele>
        <time>2020-08-21T07:21:57Z</time>
        <sat>9</sat>
      </trkpt>
      <trkpt lat="42.353199" lon="-3.786887">
        <ele>819.6</ele>
        <time>2020-08-21T07:22:05Z</time>
        <sat>9</sat>
      </trkpt>
      <trkpt lat="42.353118" lon="-3.786909">
        <ele>822.6</ele>
        <time>2020-08-21T07:22:11Z</time>
        <sat>9</sat>
      </trkpt>
      <trkpt lat="42.353025" lon="-3.786912">
        <ele>822.8</ele>
        <time>2020-08-21T07:22:18Z</time>
        <sat>10</sat>
      </trkpt>
      <trkpt lat="42.352935" lon="-3.786902">
        <ele>822.5</ele>
        <time>2020-08-21T07:22:25Z</time>
        <sat>10</sat>
      </trkpt>
      <trkpt lat="42.352844" lon="-3.786891">
        <ele>822.2</ele>
        <time>2020-08-21T07:22:32Z</time>
        <sat>10</sat>
      </trkpt>
      <trkpt lat="42.352757" lon="-3.786871">
        <ele>822.1</ele>
        <time>2020-08-21T07:22:39Z</time>
        <sat>10</sat>
      </trkpt>
      <trkpt lat="42.352671" lon="-3.786852">
        <ele>822.1</ele>
        <time>2020-08-21T07:22:46Z</time>
        <sat>10</sat>
      </trkpt>
      <trkpt lat="42.352579" lon="-3.786832">
        <ele>822.0</ele>
        <time>2020-08-21T07:22:53Z</time>
        <sat>10</sat>
      </trkpt>
      <trkpt lat="42.352489" lon="-3.786806">
        <ele>821.9</ele>
        <time>2020-08-21T07:23:00Z</time>
        <sat>10</sat>
      </trkpt>
      <trkpt lat="42.352396" lon="-3.786789">
        <ele>821.7</ele>
        <time>2020-08-21T07:23:07Z</time>
        <sat>10</sat>
      </trkpt>
      <trkpt lat="42.352308" lon="-3.786776">
        <ele>821.7</ele>
        <time>2020-08-21T07:23:14Z</time>
        <sat>10</sat>
      </trkpt>
      <trkpt lat="42.352215" lon="-3.786759">
        <ele>821.8</ele>
        <time>2020-08-21T07:23:21Z</time>
        <sat>10</sat>
      </trkpt>
      <trkpt lat="42.352121" lon="-3.786766">
        <ele>821.9</ele>
        <time>2020-08-21T07:23:28Z</time>
        <sat>10</sat>
      </trkpt>
      <trkpt lat="42.352036" lon="-3.786775">
        <ele>822.0</ele>
        <time>2020-08-21T07:23:34Z</time>
        <sat>10</sat>
      </trkpt>
      <trkpt lat="42.351944" lon="-3.786807">
        <ele>822.0</ele>
        <time>2020-08-21T07:23:41Z</time>
        <sat>8</sat>
      </trkpt>
      <trkpt lat="42.351867" lon="-3.786874">
        <ele>822.0</ele>
        <time>2020-08-21T07:23:48Z</time>
        <sat>10</sat>
      </trkpt>
      <trkpt lat="42.351804" lon="-3.786956">
        <ele>822.1</ele>
        <time>2020-08-21T07:23:55Z</time>
        <sat>8</sat>
      </trkpt>
      <trkpt lat="42.351756" lon="-3.787061">
        <ele>822.1</ele>
        <time>2020-08-21T07:24:02Z</time>
        <sat>9</sat>
      </trkpt>
      <trkpt lat="42.351707" lon="-3.787164">
        <ele>822.1</ele>
        <time>2020-08-21T07:24:09Z</time>
        <sat>9</sat>
      </trkpt>
      <trkpt lat="42.351663" lon="-3.787268">
        <ele>822.1</ele>
        <time>2020-08-21T07:24:16Z</time>
        <sat>8</sat>
      </trkpt>
      <trkpt lat="42.351619" lon="-3.787375">
        <ele>822.1</ele>
        <time>2020-08-21T07:24:23Z</time>
        <sat>9</sat>
      </trkpt>
      <trkpt lat="42.351569" lon="-3.787474">
        <ele>822.1</ele>
        <time>2020-08-21T07:24:30Z</time>
        <sat>8</sat>
      </trkpt>
      <trkpt lat="42.351524" lon="-3.787581">
        <ele>822.0</ele>
        <time>2020-08-21T07:24:37Z</time>
        <sat>9</sat>
      </trkpt>
      <trkpt lat="42.351478" lon="-3.787685">
        <ele>821.8</ele>
        <time>2020-08-21T07:24:44Z</time>
        <sat>9</sat>
      </trkpt>
      <trkpt lat="42.351429" lon="-3.787785">
        <ele>821.7</ele>
        <time>2020-08-21T07:24:51Z</time>
        <sat>9</sat>
      </trkpt>
      <trkpt lat="42.351386" lon="-3.787895">
        <ele>821.8</ele>
        <time>2020-08-21T07:24:58Z</time>
        <sat>10</sat>
      </trkpt>
      <trkpt lat="42.351335" lon="-3.787997">
        <ele>821.8</ele>
        <time>2020-08-21T07:25:05Z</time>
        <sat>8</sat>
      </trkpt>
      <trkpt lat="42.351284" lon="-3.788102">
        <ele>821.8</ele>
        <time>2020-08-21T07:25:12Z</time>
        <sat>9</sat>
      </trkpt>
      <trkpt lat="42.351236" lon="-3.788194">
        <ele>821.7</ele>
        <time>2020-08-21T07:25:18Z</time>
        <sat>9</sat>
      </trkpt>
      <trkpt lat="42.351186" lon="-3.788299">
        <ele>821.8</ele>
        <time>2020-08-21T07:25:25Z</time>
        <sat>10</sat>
      </trkpt>
      <trkpt lat="42.351142" lon="-3.788395">
        <ele>821.6</ele>
        <time>2020-08-21T07:25:31Z</time>
        <sat>9</sat>
      </trkpt>
      <trkpt lat="42.351095" lon="-3.788506">
        <ele>821.5</ele>
        <time>2020-08-21T07:25:38Z</time>
        <sat>10</sat>
      </trkpt>
      <trkpt lat="42.351055" lon="-3.788610">
        <ele>821.5</ele>
        <time>2020-08-21T07:25:45Z</time>
        <sat>9</sat>
      </trkpt>
      <trkpt lat="42.351021" lon="-3.788728">
        <ele>821.5</ele>
        <time>2020-08-21T07:25:52Z</time>
        <sat>9</sat>
      </trkpt>
      <trkpt lat="42.350998" lon="-3.788850">
        <ele>821.5</ele>
        <time>2020-08-21T07:26:00Z</time>
        <sat>9</sat>
      </trkpt>
      <trkpt lat="42.350977" lon="-3.788962">
        <ele>821.5</ele>
        <time>2020-08-21T07:26:06Z</time>
        <sat>9</sat>
      </trkpt>
      <trkpt lat="42.350972" lon="-3.789073">
        <ele>821.5</ele>
        <time>2020-08-21T07:26:12Z</time>
        <sat>9</sat>
      </trkpt>
      <trkpt lat="42.350964" lon="-3.789182">
        <ele>821.4</ele>
        <time>2020-08-21T07:26:18Z</time>
        <sat>9</sat>
      </trkpt>
      <trkpt lat="42.350964" lon="-3.789292">
        <ele>821.5</ele>
        <time>2020-08-21T07:26:24Z</time>
        <sat>9</sat>
      </trkpt>
      <trkpt lat="42.350949" lon="-3.789415">
        <ele>821.4</ele>
        <time>2020-08-21T07:26:31Z</time>
        <sat>9</sat>
      </trkpt>
      <trkpt lat="42.350947" lon="-3.789540">
        <ele>821.3</ele>
        <time>2020-08-21T07:26:38Z</time>
        <sat>9</sat>
      </trkpt>
      <trkpt lat="42.350933" lon="-3.789666">
        <ele>821.4</ele>
        <time>2020-08-21T07:26:45Z</time>
        <sat>9</sat>
      </trkpt>
      <trkpt lat="42.350927" lon="-3.789790">
        <ele>821.3</ele>
        <time>2020-08-21T07:26:52Z</time>
        <sat>9</sat>
      </trkpt>
      <trkpt lat="42.350914" lon="-3.789917">
        <ele>821.1</ele>
        <time>2020-08-21T07:26:59Z</time>
        <sat>10</sat>
      </trkpt>
      <trkpt lat="42.350912" lon="-3.790028">
        <ele>821.0</ele>
        <time>2020-08-21T07:27:05Z</time>
        <sat>10</sat>
      </trkpt>
      <trkpt lat="42.350901" lon="-3.790154">
        <ele>820.7</ele>
        <time>2020-08-21T07:27:12Z</time>
        <sat>9</sat>
      </trkpt>
      <trkpt lat="42.350893" lon="-3.790264">
        <ele>820.7</ele>
        <time>2020-08-21T07:27:18Z</time>
        <sat>9</sat>
      </trkpt>
      <trkpt lat="42.350884" lon="-3.790390">
        <ele>820.6</ele>
        <time>2020-08-21T07:27:25Z</time>
        <sat>9</sat>
      </trkpt>
      <trkpt lat="42.350876" lon="-3.790513">
        <ele>820.5</ele>
        <time>2020-08-21T07:27:32Z</time>
        <sat>10</sat>
      </trkpt>
      <trkpt lat="42.350847" lon="-3.790635">
        <ele>820.5</ele>
        <time>2020-08-21T07:27:39Z</time>
        <sat>9</sat>
      </trkpt>
      <trkpt lat="42.350793" lon="-3.790734">
        <ele>820.5</ele>
        <time>2020-08-21T07:27:46Z</time>
        <sat>9</sat>
      </trkpt>
      <trkpt lat="42.350742" lon="-3.790839">
        <ele>820.5</ele>
        <time>2020-08-21T07:27:53Z</time>
        <sat>10</sat>
      </trkpt>
      <trkpt lat="42.350698" lon="-3.790943">
        <ele>820.6</ele>
        <time>2020-08-21T07:28:00Z</time>
        <sat>10</sat>
      </trkpt>
      <trkpt lat="42.350679" lon="-3.791053">
        <ele>820.6</ele>
        <time>2020-08-21T07:28:06Z</time>
        <sat>9</sat>
      </trkpt>
      <trkpt lat="42.350658" lon="-3.791175">
        <ele>820.6</ele>
        <time>2020-08-21T07:28:13Z</time>
        <sat>10</sat>
      </trkpt>
      <trkpt lat="42.350647" lon="-3.791289">
        <ele>820.7</ele>
        <time>2020-08-21T07:28:19Z</time>
        <sat>8</sat>
      </trkpt>
      <trkpt lat="42.350637" lon="-3.791399">
        <ele>820.7</ele>
        <time>2020-08-21T07:28:25Z</time>
        <sat>10</sat>
      </trkpt>
      <trkpt lat="42.350633" lon="-3.791515">
        <ele>820.6</ele>
        <time>2020-08-21T07:28:31Z</time>
        <sat>10</sat>
      </trkpt>
      <trkpt lat="42.350614" lon="-3.791635">
        <ele>820.8</ele>
        <time>2020-08-21T07:28:38Z</time>
        <sat>10</sat>
      </trkpt>
      <trkpt lat="42.350604" lon="-3.791749">
        <ele>820.7</ele>
        <time>2020-08-21T07:28:45Z</time>
        <sat>9</sat>
      </trkpt>
      <trkpt lat="42.350619" lon="-3.791869">
        <ele>820.6</ele>
        <time>2020-08-21T07:28:52Z</time>
        <sat>7</sat>
      </trkpt>
      <trkpt lat="42.350660" lon="-3.791980">
        <ele>820.4</ele>
        <time>2020-08-21T07:29:13Z</time>
        <sat>9</sat>
      </trkpt>
      <trkpt lat="42.350709" lon="-3.792073">
        <ele>820.3</ele>
        <time>2020-08-21T07:29:19Z</time>
        <sat>10</sat>
      </trkpt>
      <trkpt lat="42.350748" lon="-3.792183">
        <ele>819.9</ele>
        <time>2020-08-21T07:29:52Z</time>
        <sat>9</sat>
      </trkpt>
      <trkpt lat="42.350777" lon="-3.792307">
        <ele>819.9</ele>
        <time>2020-08-21T07:29:58Z</time>
        <sat>9</sat>
      </trkpt>
      <trkpt lat="42.350787" lon="-3.792417">
        <ele>819.9</ele>
        <time>2020-08-21T07:30:04Z</time>
        <sat>9</sat>
      </trkpt>
      <trkpt lat="42.350783" lon="-3.792534">
        <ele>819.9</ele>
        <time>2020-08-21T07:30:11Z</time>
        <sat>9</sat>
      </trkpt>
      <trkpt lat="42.350775" lon="-3.792654">
        <ele>819.5</ele>
        <time>2020-08-21T07:30:18Z</time>
        <sat>9</sat>
      </trkpt>
      <trkpt lat="42.350769" lon="-3.792769">
        <ele>819.9</ele>
        <time>2020-08-21T07:30:25Z</time>
        <sat>9</sat>
      </trkpt>
      <trkpt lat="42.350769" lon="-3.792879">
        <ele>819.9</ele>
        <time>2020-08-21T07:30:31Z</time>
        <sat>9</sat>
      </trkpt>
      <trkpt lat="42.350769" lon="-3.792998">
        <ele>819.8</ele>
        <time>2020-08-21T07:30:38Z</time>
        <sat>9</sat>
      </trkpt>
      <trkpt lat="42.350777" lon="-3.793120">
        <ele>819.5</ele>
        <time>2020-08-21T07:30:45Z</time>
        <sat>9</sat>
      </trkpt>
      <trkpt lat="42.350775" lon="-3.793243">
        <ele>819.4</ele>
        <time>2020-08-21T07:30:52Z</time>
        <sat>9</sat>
      </trkpt>
      <trkpt lat="42.350780" lon="-3.793363">
        <ele>819.3</ele>
        <time>2020-08-21T07:30:59Z</time>
        <sat>8</sat>
      </trkpt>
      <trkpt lat="42.350778" lon="-3.793475">
        <ele>819.4</ele>
        <time>2020-08-21T07:31:05Z</time>
        <sat>9</sat>
      </trkpt>
      <trkpt lat="42.350770" lon="-3.793601">
        <ele>819.4</ele>
        <time>2020-08-21T07:31:12Z</time>
        <sat>9</sat>
      </trkpt>
      <trkpt lat="42.350771" lon="-3.793711">
        <ele>819.4</ele>
        <time>2020-08-21T07:31:18Z</time>
        <sat>9</sat>
      </trkpt>
      <trkpt lat="42.350755" lon="-3.793833">
        <ele>819.4</ele>
        <time>2020-08-21T07:31:25Z</time>
        <sat>9</sat>
      </trkpt>
      <trkpt lat="42.350750" lon="-3.793949">
        <ele>819.2</ele>
        <time>2020-08-21T07:31:32Z</time>
        <sat>9</sat>
      </trkpt>
      <trkpt lat="42.350733" lon="-3.794068">
        <ele>819.2</ele>
        <time>2020-08-21T07:31:39Z</time>
        <sat>9</sat>
      </trkpt>
      <trkpt lat="42.350719" lon="-3.794192">
        <ele>819.1</ele>
        <time>2020-08-21T07:31:46Z</time>
        <sat>9</sat>
      </trkpt>
      <trkpt lat="42.350708" lon="-3.794314">
        <ele>819.1</ele>
        <time>2020-08-21T07:31:53Z</time>
        <sat>9</sat>
      </trkpt>
      <trkpt lat="42.350695" lon="-3.794424">
        <ele>819.1</ele>
        <time>2020-08-21T07:31:59Z</time>
        <sat>9</sat>
      </trkpt>
      <trkpt lat="42.350740" lon="-3.794528">
        <ele>819.4</ele>
        <time>2020-08-21T07:32:06Z</time>
        <sat>9</sat>
      </trkpt>
      <trkpt lat="42.350816" lon="-3.794594">
        <ele>819.5</ele>
        <time>2020-08-21T07:32:13Z</time>
        <sat>9</sat>
      </trkpt>
      <trkpt lat="42.350893" lon="-3.794660">
        <ele>819.7</ele>
        <time>2020-08-21T07:32:20Z</time>
        <sat>9</sat>
      </trkpt>
      <trkpt lat="42.350975" lon="-3.794712">
        <ele>819.6</ele>
        <time>2020-08-21T07:32:27Z</time>
        <sat>8</sat>
      </trkpt>
      <trkpt lat="42.351050" lon="-3.794758">
        <ele>820.0</ele>
        <time>2020-08-21T07:32:33Z</time>
        <sat>8</sat>
      </trkpt>
      <trkpt lat="42.351126" lon="-3.794798">
        <ele>819.1</ele>
        <time>2020-08-21T07:32:39Z</time>
        <sat>8</sat>
      </trkpt>
      <trkpt lat="42.351199" lon="-3.794844">
        <ele>819.7</ele>
        <time>2020-08-21T07:32:45Z</time>
        <sat>8</sat>
      </trkpt>
      <trkpt lat="42.351281" lon="-3.794903">
        <ele>819.9</ele>
        <time>2020-08-21T07:32:52Z</time>
        <sat>8</sat>
      </trkpt>
      <trkpt lat="42.351361" lon="-3.794951">
        <ele>819.9</ele>
        <time>2020-08-21T07:32:59Z</time>
        <sat>8</sat>
      </trkpt>
      <trkpt lat="42.351440" lon="-3.795011">
        <ele>819.9</ele>
        <time>2020-08-21T07:33:06Z</time>
        <sat>8</sat>
      </trkpt>
      <trkpt lat="42.351516" lon="-3.795075">
        <ele>819.9</ele>
        <time>2020-08-21T07:33:13Z</time>
        <sat>9</sat>
      </trkpt>
      <trkpt lat="42.351591" lon="-3.795146">
        <ele>820.0</ele>
        <time>2020-08-21T07:33:20Z</time>
        <sat>9</sat>
      </trkpt>
      <trkpt lat="42.351644" lon="-3.795228">
        <ele>820.0</ele>
        <time>2020-08-21T07:33:26Z</time>
        <sat>8</sat>
      </trkpt>
      <trkpt lat="42.351679" lon="-3.795344">
        <ele>820.0</ele>
        <time>2020-08-21T07:33:33Z</time>
        <sat>8</sat>
      </trkpt>
      <trkpt lat="42.351678" lon="-3.795469">
        <ele>819.9</ele>
        <time>2020-08-21T07:33:40Z</time>
        <sat>8</sat>
      </trkpt>
      <trkpt lat="42.351647" lon="-3.795584">
        <ele>819.8</ele>
        <time>2020-08-21T07:33:47Z</time>
        <sat>7</sat>
      </trkpt>
      <trkpt lat="42.351617" lon="-3.795703">
        <ele>819.6</ele>
        <time>2020-08-21T07:33:54Z</time>
        <sat>8</sat>
      </trkpt>
      <trkpt lat="42.351569" lon="-3.795805">
        <ele>819.4</ele>
        <time>2020-08-21T07:34:01Z</time>
        <sat>9</sat>
      </trkpt>
      <trkpt lat="42.351537" lon="-3.795920">
        <ele>819.4</ele>
        <time>2020-08-21T07:34:09Z</time>
        <sat>8</sat>
      </trkpt>
      <trkpt lat="42.351490" lon="-3.796031">
        <ele>819.4</ele>
        <time>2020-08-21T07:34:14Z</time>
        <sat>9</sat>
      </trkpt>
      <trkpt lat="42.351455" lon="-3.796138">
        <ele>819.3</ele>
        <time>2020-08-21T07:34:23Z</time>
        <sat>8</sat>
      </trkpt>
      <trkpt lat="42.351404" lon="-3.796229">
        <ele>819.2</ele>
        <time>2020-08-21T07:34:30Z</time>
        <sat>9</sat>
      </trkpt>
      <trkpt lat="42.351331" lon="-3.796310">
        <ele>819.1</ele>
        <time>2020-08-21T07:34:36Z</time>
        <sat>9</sat>
      </trkpt>
      <trkpt lat="42.351250" lon="-3.796370">
        <ele>818.9</ele>
        <time>2020-08-21T07:34:43Z</time>
        <sat>9</sat>
      </trkpt>
      <trkpt lat="42.351160" lon="-3.796386">
        <ele>818.9</ele>
        <time>2020-08-21T07:34:52Z</time>
        <sat>9</sat>
      </trkpt>
      <trkpt lat="42.351081" lon="-3.796358">
        <ele>818.9</ele>
        <time>2020-08-21T07:34:58Z</time>
        <sat>9</sat>
      </trkpt>
      <trkpt lat="42.351000" lon="-3.796327">
        <ele>819.0</ele>
        <time>2020-08-21T07:35:04Z</time>
        <sat>9</sat>
      </trkpt>
      <trkpt lat="42.350926" lon="-3.796277">
        <ele>819.0</ele>
        <time>2020-08-21T07:35:10Z</time>
        <sat>8</sat>
      </trkpt>
      <trkpt lat="42.350843" lon="-3.796241">
        <ele>819.0</ele>
        <time>2020-08-21T07:35:16Z</time>
        <sat>8</sat>
      </trkpt>
      <trkpt lat="42.350765" lon="-3.796179">
        <ele>819.0</ele>
        <time>2020-08-21T07:35:23Z</time>
        <sat>8</sat>
      </trkpt>
      <trkpt lat="42.350682" lon="-3.796134">
        <ele>819.1</ele>
        <time>2020-08-21T07:35:30Z</time>
        <sat>9</sat>
      </trkpt>
      <trkpt lat="42.350610" lon="-3.796084">
        <ele>819.1</ele>
        <time>2020-08-21T07:35:36Z</time>
        <sat>8</sat>
      </trkpt>
      <trkpt lat="42.350523" lon="-3.796039">
        <ele>819.1</ele>
        <time>2020-08-21T07:35:43Z</time>
        <sat>9</sat>
      </trkpt>
      <trkpt lat="42.350439" lon="-3.795999">
        <ele>819.0</ele>
        <time>2020-08-21T07:35:50Z</time>
        <sat>9</sat>
      </trkpt>
      <trkpt lat="42.350350" lon="-3.796020">
        <ele>818.8</ele>
        <time>2020-08-21T07:35:57Z</time>
        <sat>8</sat>
      </trkpt>
      <trkpt lat="42.350275" lon="-3.796082">
        <ele>818.9</ele>
        <time>2020-08-21T07:36:04Z</time>
        <sat>8</sat>
      </trkpt>
      <trkpt lat="42.350208" lon="-3.796154">
        <ele>819.1</ele>
        <time>2020-08-21T07:36:10Z</time>
        <sat>9</sat>
      </trkpt>
      <trkpt lat="42.350145" lon="-3.796244">
        <ele>819.3</ele>
        <time>2020-08-21T07:36:17Z</time>
        <sat>9</sat>
      </trkpt>
      <trkpt lat="42.350085" lon="-3.796336">
        <ele>819.7</ele>
        <time>2020-08-21T07:36:24Z</time>
        <sat>9</sat>
      </trkpt>
      <trkpt lat="42.350021" lon="-3.796429">
        <ele>820.1</ele>
        <time>2020-08-21T07:36:32Z</time>
        <sat>9</sat>
      </trkpt>
      <trkpt lat="42.349967" lon="-3.796525">
        <ele>820.3</ele>
        <time>2020-08-21T07:36:39Z</time>
        <sat>9</sat>
      </trkpt>
      <trkpt lat="42.349911" lon="-3.796617">
        <ele>820.2</ele>
        <time>2020-08-21T07:36:51Z</time>
        <sat>9</sat>
      </trkpt>
      <trkpt lat="42.349847" lon="-3.796702">
        <ele>820.0</ele>
        <time>2020-08-21T07:36:58Z</time>
        <sat>9</sat>
      </trkpt>
      <trkpt lat="42.349841" lon="-3.796822">
        <ele>819.4</ele>
        <time>2020-08-21T07:37:06Z</time>
        <sat>9</sat>
      </trkpt>
      <trkpt lat="42.349854" lon="-3.796931">
        <ele>819.0</ele>
        <time>2020-08-21T07:37:12Z</time>
        <sat>9</sat>
      </trkpt>
      <trkpt lat="42.349878" lon="-3.797038">
        <ele>818.8</ele>
        <time>2020-08-21T07:37:18Z</time>
        <sat>9</sat>
      </trkpt>
      <trkpt lat="42.349900" lon="-3.797144">
        <ele>818.8</ele>
        <time>2020-08-21T07:37:24Z</time>
        <sat>9</sat>
      </trkpt>
      <trkpt lat="42.349932" lon="-3.797245">
        <ele>818.8</ele>
        <time>2020-08-21T07:37:30Z</time>
        <sat>9</sat>
      </trkpt>
      <trkpt lat="42.349961" lon="-3.797358">
        <ele>819.0</ele>
        <time>2020-08-21T07:37:36Z</time>
        <sat>9</sat>
      </trkpt>
      <trkpt lat="42.349973" lon="-3.797482">
        <ele>819.3</ele>
        <time>2020-08-21T07:37:43Z</time>
        <sat>9</sat>
      </trkpt>
      <trkpt lat="42.349973" lon="-3.797596">
        <ele>819.5</ele>
        <time>2020-08-21T07:37:50Z</time>
        <sat>9</sat>
      </trkpt>
      <trkpt lat="42.349982" lon="-3.797724">
        <ele>819.7</ele>
        <time>2020-08-21T07:37:57Z</time>
        <sat>9</sat>
      </trkpt>
      <trkpt lat="42.349983" lon="-3.797847">
        <ele>819.9</ele>
        <time>2020-08-21T07:38:04Z</time>
        <sat>9</sat>
      </trkpt>
      <trkpt lat="42.349988" lon="-3.797967">
        <ele>820.0</ele>
        <time>2020-08-21T07:38:11Z</time>
        <sat>9</sat>
      </trkpt>
      <trkpt lat="42.349984" lon="-3.798092">
        <ele>820.1</ele>
        <time>2020-08-21T07:38:18Z</time>
        <sat>9</sat>
      </trkpt>
      <trkpt lat="42.349983" lon="-3.798215">
        <ele>820.1</ele>
        <time>2020-08-21T07:38:25Z</time>
        <sat>8</sat>
      </trkpt>
      <trkpt lat="42.349984" lon="-3.798337">
        <ele>820.2</ele>
        <time>2020-08-21T07:38:32Z</time>
        <sat>9</sat>
      </trkpt>
      <trkpt lat="42.349978" lon="-3.798458">
        <ele>820.2</ele>
        <time>2020-08-21T07:38:39Z</time>
        <sat>9</sat>
      </trkpt>
      <trkpt lat="42.349981" lon="-3.798568">
        <ele>820.1</ele>
        <time>2020-08-21T07:38:45Z</time>
        <sat>9</sat>
      </trkpt>
      <trkpt lat="42.349981" lon="-3.798693">
        <ele>820.1</ele>
        <time>2020-08-21T07:38:52Z</time>
        <sat>9</sat>
      </trkpt>
      <trkpt lat="42.349983" lon="-3.798816">
        <ele>820.1</ele>
        <time>2020-08-21T07:38:59Z</time>
        <sat>9</sat>
      </trkpt>
      <trkpt lat="42.349988" lon="-3.798938">
        <ele>819.9</ele>
        <time>2020-08-21T07:39:06Z</time>
        <sat>8</sat>
      </trkpt>
      <trkpt lat="42.349979" lon="-3.799062">
        <ele>819.8</ele>
        <time>2020-08-21T07:39:13Z</time>
        <sat>9</sat>
      </trkpt>
      <trkpt lat="42.349976" lon="-3.799186">
        <ele>819.8</ele>
        <time>2020-08-21T07:39:20Z</time>
        <sat>8</sat>
      </trkpt>
      <trkpt lat="42.349971" lon="-3.799303">
        <ele>819.5</ele>
        <time>2020-08-21T07:39:27Z</time>
        <sat>9</sat>
      </trkpt>
      <trkpt lat="42.349953" lon="-3.799426">
        <ele>819.6</ele>
        <time>2020-08-21T07:39:34Z</time>
        <sat>8</sat>
      </trkpt>
      <trkpt lat="42.349942" lon="-3.799539">
        <ele>819.6</ele>
        <time>2020-08-21T07:39:40Z</time>
        <sat>9</sat>
      </trkpt>
      <trkpt lat="42.349919" lon="-3.799647">
        <ele>819.7</ele>
        <time>2020-08-21T07:39:46Z</time>
        <sat>9</sat>
      </trkpt>
      <trkpt lat="42.349899" lon="-3.799755">
        <ele>819.7</ele>
        <time>2020-08-21T07:39:52Z</time>
        <sat>9</sat>
      </trkpt>
      <trkpt lat="42.349856" lon="-3.799862">
        <ele>819.5</ele>
        <time>2020-08-21T07:39:59Z</time>
        <sat>9</sat>
      </trkpt>
      <trkpt lat="42.349830" lon="-3.799970">
        <ele>819.3</ele>
        <time>2020-08-21T07:40:05Z</time>
        <sat>9</sat>
      </trkpt>
      <trkpt lat="42.349803" lon="-3.800074">
        <ele>819.1</ele>
        <time>2020-08-21T07:40:11Z</time>
        <sat>9</sat>
      </trkpt>
      <trkpt lat="42.349771" lon="-3.800180">
        <ele>819.0</ele>
        <time>2020-08-21T07:40:17Z</time>
        <sat>9</sat>
      </trkpt>
      <trkpt lat="42.349743" lon="-3.800294">
        <ele>818.9</ele>
        <time>2020-08-21T07:40:23Z</time>
        <sat>9</sat>
      </trkpt>
      <trkpt lat="42.349704" lon="-3.800405">
        <ele>818.9</ele>
        <time>2020-08-21T07:40:30Z</time>
        <sat>9</sat>
      </trkpt>
      <trkpt lat="42.349671" lon="-3.800508">
        <ele>818.8</ele>
        <time>2020-08-21T07:40:36Z</time>
        <sat>9</sat>
      </trkpt>
      <trkpt lat="42.349625" lon="-3.800598">
        <ele>818.8</ele>
        <time>2020-08-21T07:40:42Z</time>
        <sat>9</sat>
      </trkpt>
      <trkpt lat="42.349582" lon="-3.800692">
        <ele>818.8</ele>
        <time>2020-08-21T07:40:48Z</time>
        <sat>9</sat>
      </trkpt>
      <trkpt lat="42.349541" lon="-3.800788">
        <ele>818.8</ele>
        <time>2020-08-21T07:40:54Z</time>
        <sat>9</sat>
      </trkpt>
      <trkpt lat="42.349492" lon="-3.800879">
        <ele>818.8</ele>
        <time>2020-08-21T07:41:00Z</time>
        <sat>9</sat>
      </trkpt>
      <trkpt lat="42.349450" lon="-3.800980">
        <ele>818.8</ele>
        <time>2020-08-21T07:41:06Z</time>
        <sat>9</sat>
      </trkpt>
      <trkpt lat="42.349403" lon="-3.801074">
        <ele>818.8</ele>
        <time>2020-08-21T07:41:12Z</time>
        <sat>9</sat>
      </trkpt>
      <trkpt lat="42.349365" lon="-3.801175">
        <ele>818.8</ele>
        <time>2020-08-21T07:41:18Z</time>
        <sat>9</sat>
      </trkpt>
      <trkpt lat="42.349322" lon="-3.801286">
        <ele>819.0</ele>
        <time>2020-08-21T07:41:25Z</time>
        <sat>9</sat>
      </trkpt>
      <trkpt lat="42.349279" lon="-3.801392">
        <ele>819.1</ele>
        <time>2020-08-21T07:41:32Z</time>
        <sat>9</sat>
      </trkpt>
      <trkpt lat="42.349220" lon="-3.801488">
        <ele>819.4</ele>
        <time>2020-08-21T07:41:39Z</time>
        <sat>9</sat>
      </trkpt>
      <trkpt lat="42.349168" lon="-3.801594">
        <ele>819.4</ele>
        <time>2020-08-21T07:41:46Z</time>
        <sat>9</sat>
      </trkpt>
      <trkpt lat="42.349113" lon="-3.801680">
        <ele>819.4</ele>
        <time>2020-08-21T07:41:52Z</time>
        <sat>9</sat>
      </trkpt>
      <trkpt lat="42.349061" lon="-3.801785">
        <ele>819.5</ele>
        <time>2020-08-21T07:41:59Z</time>
        <sat>9</sat>
      </trkpt>
      <trkpt lat="42.349009" lon="-3.801872">
        <ele>819.5</ele>
        <time>2020-08-21T07:42:05Z</time>
        <sat>9</sat>
      </trkpt>
      <trkpt lat="42.348957" lon="-3.801961">
        <ele>818.8</ele>
        <time>2020-08-21T07:42:11Z</time>
        <sat>9</sat>
      </trkpt>
      <trkpt lat="42.348896" lon="-3.802064">
        <ele>819.7</ele>
        <time>2020-08-21T07:42:18Z</time>
        <sat>9</sat>
      </trkpt>
      <trkpt lat="42.348846" lon="-3.802152">
        <ele>819.8</ele>
        <time>2020-08-21T07:42:24Z</time>
        <sat>9</sat>
      </trkpt>
      <trkpt lat="42.348793" lon="-3.802240">
        <ele>819.8</ele>
        <time>2020-08-21T07:42:30Z</time>
        <sat>9</sat>
      </trkpt>
      <trkpt lat="42.348740" lon="-3.802328">
        <ele>819.7</ele>
        <time>2020-08-21T07:42:37Z</time>
        <sat>9</sat>
      </trkpt>
      <trkpt lat="42.348680" lon="-3.802402">
        <ele>819.9</ele>
        <time>2020-08-21T07:42:43Z</time>
        <sat>9</sat>
      </trkpt>
      <trkpt lat="42.348614" lon="-3.802483">
        <ele>820.0</ele>
        <time>2020-08-21T07:42:50Z</time>
        <sat>9</sat>
      </trkpt>
      <trkpt lat="42.348542" lon="-3.802547">
        <ele>820.1</ele>
        <time>2020-08-21T07:42:57Z</time>
        <sat>9</sat>
      </trkpt>
      <trkpt lat="42.348468" lon="-3.802611">
        <ele>819.9</ele>
        <time>2020-08-21T07:43:04Z</time>
        <sat>9</sat>
      </trkpt>
      <trkpt lat="42.348402" lon="-3.802696">
        <ele>819.5</ele>
        <time>2020-08-21T07:43:11Z</time>
        <sat>9</sat>
      </trkpt>
      <trkpt lat="42.348334" lon="-3.802776">
        <ele>819.1</ele>
        <time>2020-08-21T07:43:18Z</time>
        <sat>9</sat>
      </trkpt>
      <trkpt lat="42.348275" lon="-3.802860">
        <ele>819.0</ele>
        <time>2020-08-21T07:43:25Z</time>
        <sat>8</sat>
      </trkpt>
      <trkpt lat="42.348220" lon="-3.802949">
        <ele>818.8</ele>
        <time>2020-08-21T07:43:37Z</time>
        <sat>9</sat>
      </trkpt>
      <trkpt lat="42.348162" lon="-3.803054">
        <ele>818.7</ele>
        <time>2020-08-21T07:43:44Z</time>
        <sat>9</sat>
      </trkpt>
      <trkpt lat="42.348118" lon="-3.803151">
        <ele>818.7</ele>
        <time>2020-08-21T07:43:50Z</time>
        <sat>9</sat>
      </trkpt>
      <trkpt lat="42.348071" lon="-3.803243">
        <ele>818.7</ele>
        <time>2020-08-21T07:43:56Z</time>
        <sat>9</sat>
      </trkpt>
      <trkpt lat="42.348030" lon="-3.803340">
        <ele>818.8</ele>
        <time>2020-08-21T07:44:02Z</time>
        <sat>9</sat>
      </trkpt>
      <trkpt lat="42.347983" lon="-3.803445">
        <ele>818.6</ele>
        <time>2020-08-21T07:44:09Z</time>
        <sat>9</sat>
      </trkpt>
      <trkpt lat="42.347932" lon="-3.803551">
        <ele>818.6</ele>
        <time>2020-08-21T07:44:16Z</time>
        <sat>9</sat>
      </trkpt>
      <trkpt lat="42.347878" lon="-3.803638">
        <ele>818.6</ele>
        <time>2020-08-21T07:44:22Z</time>
        <sat>9</sat>
      </trkpt>
      <trkpt lat="42.347816" lon="-3.803737">
        <ele>818.6</ele>
        <time>2020-08-21T07:44:29Z</time>
        <sat>9</sat>
      </trkpt>
      <trkpt lat="42.347761" lon="-3.803822">
        <ele>818.6</ele>
        <time>2020-08-21T07:44:35Z</time>
        <sat>9</sat>
      </trkpt>
      <trkpt lat="42.347702" lon="-3.803916">
        <ele>818.6</ele>
        <time>2020-08-21T07:44:42Z</time>
        <sat>9</sat>
      </trkpt>
      <trkpt lat="42.347650" lon="-3.804015">
        <ele>818.6</ele>
        <time>2020-08-21T07:44:49Z</time>
        <sat>9</sat>
      </trkpt>
      <trkpt lat="42.347600" lon="-3.804121">
        <ele>818.6</ele>
        <time>2020-08-21T07:44:56Z</time>
        <sat>9</sat>
      </trkpt>
      <trkpt lat="42.347573" lon="-3.804236">
        <ele>818.4</ele>
        <time>2020-08-21T07:45:03Z</time>
        <sat>9</sat>
      </trkpt>
      <trkpt lat="42.347563" lon="-3.804351">
        <ele>818.3</ele>
        <time>2020-08-21T07:45:10Z</time>
        <sat>9</sat>
      </trkpt>
      <trkpt lat="42.347563" lon="-3.804474">
        <ele>818.2</ele>
        <time>2020-08-21T07:45:17Z</time>
        <sat>9</sat>
      </trkpt>
      <trkpt lat="42.347578" lon="-3.804594">
        <ele>818.1</ele>
        <time>2020-08-21T07:45:24Z</time>
        <sat>9</sat>
      </trkpt>
      <trkpt lat="42.347600" lon="-3.804715">
        <ele>818.2</ele>
        <time>2020-08-21T07:45:31Z</time>
        <sat>9</sat>
      </trkpt>
      <trkpt lat="42.347617" lon="-3.804839">
        <ele>818.2</ele>
        <time>2020-08-21T07:45:38Z</time>
        <sat>9</sat>
      </trkpt>
      <trkpt lat="42.347640" lon="-3.804948">
        <ele>818.3</ele>
        <time>2020-08-21T07:45:44Z</time>
        <sat>9</sat>
      </trkpt>
      <trkpt lat="42.347648" lon="-3.805058">
        <ele>818.4</ele>
        <time>2020-08-21T07:45:50Z</time>
        <sat>9</sat>
      </trkpt>
      <trkpt lat="42.347660" lon="-3.805175">
        <ele>818.4</ele>
        <time>2020-08-21T07:45:56Z</time>
        <sat>9</sat>
      </trkpt>
      <trkpt lat="42.347649" lon="-3.805297">
        <ele>818.6</ele>
        <time>2020-08-21T07:46:03Z</time>
        <sat>9</sat>
      </trkpt>
      <trkpt lat="42.347638" lon="-3.805407">
        <ele>818.7</ele>
        <time>2020-08-21T07:46:09Z</time>
        <sat>9</sat>
      </trkpt>
      <trkpt lat="42.347614" lon="-3.805516">
        <ele>818.8</ele>
        <time>2020-08-21T07:46:16Z</time>
        <sat>9</sat>
      </trkpt>
      <trkpt lat="42.347602" lon="-3.805641">
        <ele>818.7</ele>
        <time>2020-08-21T07:46:23Z</time>
        <sat>9</sat>
      </trkpt>
      <trkpt lat="42.347588" lon="-3.805767">
        <ele>818.6</ele>
        <time>2020-08-21T07:46:30Z</time>
        <sat>9</sat>
      </trkpt>
      <trkpt lat="42.347572" lon="-3.805889">
        <ele>818.6</ele>
        <time>2020-08-21T07:46:37Z</time>
        <sat>9</sat>
      </trkpt>
      <trkpt lat="42.347567" lon="-3.806002">
        <ele>818.5</ele>
        <time>2020-08-21T07:46:43Z</time>
        <sat>9</sat>
      </trkpt>
      <trkpt lat="42.347558" lon="-3.806124">
        <ele>818.5</ele>
        <time>2020-08-21T07:46:51Z</time>
        <sat>9</sat>
      </trkpt>
      <trkpt lat="42.347550" lon="-3.806239">
        <ele>818.5</ele>
        <time>2020-08-21T07:46:59Z</time>
        <sat>9</sat>
      </trkpt>
      <trkpt lat="42.347548" lon="-3.806349">
        <ele>818.6</ele>
        <time>2020-08-21T07:47:06Z</time>
        <sat>9</sat>
      </trkpt>
      <trkpt lat="42.347548" lon="-3.806473">
        <ele>818.9</ele>
        <time>2020-08-21T07:47:14Z</time>
        <sat>9</sat>
      </trkpt>
      <trkpt lat="42.347557" lon="-3.806596">
        <ele>819.1</ele>
        <time>2020-08-21T07:47:21Z</time>
        <sat>9</sat>
      </trkpt>
      <trkpt lat="42.347554" lon="-3.806706">
        <ele>819.3</ele>
        <time>2020-08-21T07:47:27Z</time>
        <sat>9</sat>
      </trkpt>
      <trkpt lat="42.347564" lon="-3.806817">
        <ele>819.3</ele>
        <time>2020-08-21T07:47:33Z</time>
        <sat>9</sat>
      </trkpt>
      <trkpt lat="42.347560" lon="-3.806943">
        <ele>819.4</ele>
        <time>2020-08-21T07:47:40Z</time>
        <sat>9</sat>
      </trkpt>
      <trkpt lat="42.347564" lon="-3.807068">
        <ele>819.4</ele>
        <time>2020-08-21T07:47:47Z</time>
        <sat>9</sat>
      </trkpt>
      <trkpt lat="42.347572" lon="-3.807189">
        <ele>819.5</ele>
        <time>2020-08-21T07:47:54Z</time>
        <sat>9</sat>
      </trkpt>
      <trkpt lat="42.347578" lon="-3.807313">
        <ele>819.5</ele>
        <time>2020-08-21T07:48:01Z</time>
        <sat>9</sat>
      </trkpt>
      <trkpt lat="42.347589" lon="-3.807432">
        <ele>819.9</ele>
        <time>2020-08-21T07:48:08Z</time>
        <sat>9</sat>
      </trkpt>
      <trkpt lat="42.347600" lon="-3.807554">
        <ele>820.0</ele>
        <time>2020-08-21T07:48:15Z</time>
        <sat>9</sat>
      </trkpt>
      <trkpt lat="42.347611" lon="-3.807674">
        <ele>820.1</ele>
        <time>2020-08-21T07:48:22Z</time>
        <sat>9</sat>
      </trkpt>
      <trkpt lat="42.347617" lon="-3.807792">
        <ele>820.2</ele>
        <time>2020-08-21T07:48:29Z</time>
        <sat>9</sat>
      </trkpt>
      <trkpt lat="42.347627" lon="-3.807907">
        <ele>820.4</ele>
        <time>2020-08-21T07:48:36Z</time>
        <sat>9</sat>
      </trkpt>
      <trkpt lat="42.347649" lon="-3.808024">
        <ele>820.5</ele>
        <time>2020-08-21T07:48:43Z</time>
        <sat>9</sat>
      </trkpt>
      <trkpt lat="42.347655" lon="-3.808147">
        <ele>820.7</ele>
        <time>2020-08-21T07:48:50Z</time>
        <sat>9</sat>
      </trkpt>
      <trkpt lat="42.347669" lon="-3.808256">
        <ele>820.7</ele>
        <time>2020-08-21T07:48:56Z</time>
        <sat>9</sat>
      </trkpt>
      <trkpt lat="42.347676" lon="-3.808384">
        <ele>820.7</ele>
        <time>2020-08-21T07:49:03Z</time>
        <sat>9</sat>
      </trkpt>
      <trkpt lat="42.347687" lon="-3.808494">
        <ele>820.6</ele>
        <time>2020-08-21T07:49:09Z</time>
        <sat>9</sat>
      </trkpt>
      <trkpt lat="42.347693" lon="-3.808607">
        <ele>820.7</ele>
        <time>2020-08-21T07:49:15Z</time>
        <sat>9</sat>
      </trkpt>
      <trkpt lat="42.347705" lon="-3.808729">
        <ele>820.7</ele>
        <time>2020-08-21T07:49:23Z</time>
        <sat>9</sat>
      </trkpt>
      <trkpt lat="42.347721" lon="-3.808840">
        <ele>820.7</ele>
        <time>2020-08-21T07:49:30Z</time>
        <sat>9</sat>
      </trkpt>
      <trkpt lat="42.347729" lon="-3.808950">
        <ele>820.7</ele>
        <time>2020-08-21T07:49:36Z</time>
        <sat>9</sat>
      </trkpt>
      <trkpt lat="42.347739" lon="-3.809074">
        <ele>820.7</ele>
        <time>2020-08-21T07:49:43Z</time>
        <sat>9</sat>
      </trkpt>
      <trkpt lat="42.347748" lon="-3.809186">
        <ele>820.7</ele>
        <time>2020-08-21T07:49:49Z</time>
        <sat>9</sat>
      </trkpt>
      <trkpt lat="42.347766" lon="-3.809309">
        <ele>820.7</ele>
        <time>2020-08-21T07:49:56Z</time>
        <sat>9</sat>
      </trkpt>
      <trkpt lat="42.347781" lon="-3.809435">
        <ele>820.7</ele>
        <time>2020-08-21T07:50:03Z</time>
        <sat>9</sat>
      </trkpt>
      <trkpt lat="42.347790" lon="-3.809559">
        <ele>820.6</ele>
        <time>2020-08-21T07:50:10Z</time>
        <sat>9</sat>
      </trkpt>
      <trkpt lat="42.347810" lon="-3.809668">
        <ele>820.5</ele>
        <time>2020-08-21T07:50:16Z</time>
        <sat>8</sat>
      </trkpt>
      <trkpt lat="42.347823" lon="-3.809791">
        <ele>820.5</ele>
        <time>2020-08-21T07:50:23Z</time>
        <sat>9</sat>
      </trkpt>
      <trkpt lat="42.347839" lon="-3.809914">
        <ele>820.5</ele>
        <time>2020-08-21T07:50:30Z</time>
        <sat>9</sat>
      </trkpt>
      <trkpt lat="42.347847" lon="-3.810037">
        <ele>820.4</ele>
        <time>2020-08-21T07:50:37Z</time>
        <sat>8</sat>
      </trkpt>
      <trkpt lat="42.347863" lon="-3.810157">
        <ele>820.4</ele>
        <time>2020-08-21T07:50:44Z</time>
        <sat>9</sat>
      </trkpt>
      <trkpt lat="42.347873" lon="-3.810282">
        <ele>820.3</ele>
        <time>2020-08-21T07:50:51Z</time>
        <sat>8</sat>
      </trkpt>
      <trkpt lat="42.347881" lon="-3.810397">
        <ele>820.3</ele>
        <time>2020-08-21T07:50:58Z</time>
        <sat>8</sat>
      </trkpt>
      <trkpt lat="42.347897" lon="-3.810517">
        <ele>820.3</ele>
        <time>2020-08-21T07:51:05Z</time>
        <sat>9</sat>
      </trkpt>
      <trkpt lat="42.347913" lon="-3.810633">
        <ele>820.3</ele>
        <time>2020-08-21T07:51:12Z</time>
        <sat>8</sat>
      </trkpt>
      <trkpt lat="42.347924" lon="-3.810744">
        <ele>819.9</ele>
        <time>2020-08-21T07:51:19Z</time>
        <sat>9</sat>
      </trkpt>
      <trkpt lat="42.347925" lon="-3.810865">
        <ele>818.0</ele>
        <time>2020-08-21T07:51:26Z</time>
        <sat>10</sat>
      </trkpt>
      <trkpt lat="42.347945" lon="-3.810976">
        <ele>818.9</ele>
        <time>2020-08-21T07:51:33Z</time>
        <sat>9</sat>
      </trkpt>
      <trkpt lat="42.347974" lon="-3.811092">
        <ele>820.4</ele>
        <time>2020-08-21T07:51:40Z</time>
        <sat>10</sat>
      </trkpt>
      <trkpt lat="42.347993" lon="-3.811213">
        <ele>820.8</ele>
        <time>2020-08-21T07:51:47Z</time>
        <sat>9</sat>
      </trkpt>
      <trkpt lat="42.348018" lon="-3.811329">
        <ele>820.6</ele>
        <time>2020-08-21T07:51:54Z</time>
        <sat>9</sat>
      </trkpt>
      <trkpt lat="42.348039" lon="-3.811443">
        <ele>820.3</ele>
        <time>2020-08-21T07:52:01Z</time>
        <sat>9</sat>
      </trkpt>
      <trkpt lat="42.348063" lon="-3.811559">
        <ele>820.2</ele>
        <time>2020-08-21T07:52:08Z</time>
        <sat>9</sat>
      </trkpt>
      <trkpt lat="42.348083" lon="-3.811666">
        <ele>820.3</ele>
        <time>2020-08-21T07:52:14Z</time>
        <sat>9</sat>
      </trkpt>
      <trkpt lat="42.348107" lon="-3.811789">
        <ele>820.4</ele>
        <time>2020-08-21T07:52:21Z</time>
        <sat>9</sat>
      </trkpt>
      <trkpt lat="42.348130" lon="-3.811897">
        <ele>820.4</ele>
        <time>2020-08-21T07:52:27Z</time>
        <sat>9</sat>
      </trkpt>
      <trkpt lat="42.348147" lon="-3.812015">
        <ele>820.4</ele>
        <time>2020-08-21T07:52:34Z</time>
        <sat>9</sat>
      </trkpt>
      <trkpt lat="42.348174" lon="-3.812129">
        <ele>820.4</ele>
        <time>2020-08-21T07:52:41Z</time>
        <sat>9</sat>
      </trkpt>
      <trkpt lat="42.348188" lon="-3.812251">
        <ele>820.5</ele>
        <time>2020-08-21T07:52:48Z</time>
        <sat>9</sat>
      </trkpt>
      <trkpt lat="42.348211" lon="-3.812372">
        <ele>820.5</ele>
        <time>2020-08-21T07:52:55Z</time>
        <sat>9</sat>
      </trkpt>
      <trkpt lat="42.348229" lon="-3.812481">
        <ele>820.4</ele>
        <time>2020-08-21T07:53:01Z</time>
        <sat>9</sat>
      </trkpt>
      <trkpt lat="42.348240" lon="-3.812598">
        <ele>820.5</ele>
        <time>2020-08-21T07:53:08Z</time>
        <sat>9</sat>
      </trkpt>
      <trkpt lat="42.348264" lon="-3.812714">
        <ele>820.4</ele>
        <time>2020-08-21T07:53:15Z</time>
        <sat>9</sat>
      </trkpt>
      <trkpt lat="42.348281" lon="-3.812832">
        <ele>820.4</ele>
        <time>2020-08-21T07:53:22Z</time>
        <sat>9</sat>
      </trkpt>
      <trkpt lat="42.348300" lon="-3.812940">
        <ele>820.4</ele>
        <time>2020-08-21T07:53:28Z</time>
        <sat>9</sat>
      </trkpt>
      <trkpt lat="42.348319" lon="-3.813054">
        <ele>820.4</ele>
        <time>2020-08-21T07:53:35Z</time>
        <sat>9</sat>
      </trkpt>
      <trkpt lat="42.348327" lon="-3.813168">
        <ele>820.4</ele>
        <time>2020-08-21T07:53:54Z</time>
        <sat>9</sat>
      </trkpt>
      <trkpt lat="42.348340" lon="-3.813281">
        <ele>820.1</ele>
        <time>2020-08-21T07:54:38Z</time>
        <sat>9</sat>
      </trkpt>
      <trkpt lat="42.348355" lon="-3.813393">
        <ele>820.1</ele>
        <time>2020-08-21T07:54:49Z</time>
        <sat>9</sat>
      </trkpt>
      <trkpt lat="42.348413" lon="-3.813484">
        <ele>819.7</ele>
        <time>2020-08-21T07:56:02Z</time>
        <sat>9</sat>
      </trkpt>
      <trkpt lat="42.348405" lon="-3.813595">
        <ele>819.5</ele>
        <time>2020-08-21T07:56:13Z</time>
        <sat>9</sat>
      </trkpt>
      <trkpt lat="42.348449" lon="-3.813696">
        <ele>818.4</ele>
        <time>2020-08-21T07:56:21Z</time>
        <sat>9</sat>
      </trkpt>
      <trkpt lat="42.348493" lon="-3.813794">
        <ele>819.2</ele>
        <time>2020-08-21T07:56:31Z</time>
        <sat>9</sat>
      </trkpt>
      <trkpt lat="42.348524" lon="-3.813898">
        <ele>817.8</ele>
        <time>2020-08-21T07:56:39Z</time>
        <sat>9</sat>
      </trkpt>
      <trkpt lat="42.348552" lon="-3.814006">
        <ele>817.4</ele>
        <time>2020-08-21T07:56:47Z</time>
        <sat>9</sat>
      </trkpt>
      <trkpt lat="42.348588" lon="-3.814115">
        <ele>817.6</ele>
        <time>2020-08-21T07:56:55Z</time>
        <sat>9</sat>
      </trkpt>
      <trkpt lat="42.348631" lon="-3.814225">
        <ele>818.0</ele>
        <time>2020-08-21T07:57:03Z</time>
        <sat>9</sat>
      </trkpt>
      <trkpt lat="42.348669" lon="-3.814340">
        <ele>818.6</ele>
        <time>2020-08-21T07:57:11Z</time>
        <sat>9</sat>
      </trkpt>
      <trkpt lat="42.348707" lon="-3.814439">
        <ele>818.6</ele>
        <time>2020-08-21T07:57:18Z</time>
        <sat>9</sat>
      </trkpt>
      <trkpt lat="42.348745" lon="-3.814547">
        <ele>818.2</ele>
        <time>2020-08-21T07:57:25Z</time>
        <sat>9</sat>
      </trkpt>
      <trkpt lat="42.348787" lon="-3.814648">
        <ele>818.1</ele>
        <time>2020-08-21T07:57:32Z</time>
        <sat>9</sat>
      </trkpt>
      <trkpt lat="42.348834" lon="-3.814739">
        <ele>818.0</ele>
        <time>2020-08-21T07:57:39Z</time>
        <sat>9</sat>
      </trkpt>
      <trkpt lat="42.348871" lon="-3.814844">
        <ele>817.8</ele>
        <time>2020-08-21T07:57:46Z</time>
        <sat>9</sat>
      </trkpt>
      <trkpt lat="42.348905" lon="-3.814948">
        <ele>817.9</ele>
        <time>2020-08-21T07:57:53Z</time>
        <sat>9</sat>
      </trkpt>
      <trkpt lat="42.348930" lon="-3.815055">
        <ele>819.1</ele>
        <time>2020-08-21T07:58:01Z</time>
        <sat>9</sat>
      </trkpt>
      <trkpt lat="42.348941" lon="-3.815177">
        <ele>819.4</ele>
        <time>2020-08-21T07:58:09Z</time>
        <sat>9</sat>
      </trkpt>
      <trkpt lat="42.348954" lon="-3.815297">
        <ele>819.3</ele>
        <time>2020-08-21T07:58:17Z</time>
        <sat>9</sat>
      </trkpt>
      <trkpt lat="42.348951" lon="-3.815417">
        <ele>818.9</ele>
        <time>2020-08-21T07:58:26Z</time>
        <sat>8</sat>
      </trkpt>
      <trkpt lat="42.348934" lon="-3.815532">
        <ele>818.5</ele>
        <time>2020-08-21T07:58:35Z</time>
        <sat>9</sat>
      </trkpt>
      <trkpt lat="42.348913" lon="-3.815642">
        <ele>818.4</ele>
        <time>2020-08-21T07:58:42Z</time>
        <sat>9</sat>
      </trkpt>
      <trkpt lat="42.348895" lon="-3.815753">
        <ele>818.1</ele>
        <time>2020-08-21T07:58:50Z</time>
        <sat>8</sat>
      </trkpt>
      <trkpt lat="42.348855" lon="-3.815861">
        <ele>817.9</ele>
        <time>2020-08-21T07:58:58Z</time>
        <sat>8</sat>
      </trkpt>
      <trkpt lat="42.348806" lon="-3.815954">
        <ele>817.7</ele>
        <time>2020-08-21T07:59:05Z</time>
        <sat>9</sat>
      </trkpt>
      <trkpt lat="42.348745" lon="-3.816047">
        <ele>817.3</ele>
        <time>2020-08-21T07:59:23Z</time>
        <sat>9</sat>
      </trkpt>
      <trkpt lat="42.348722" lon="-3.816157">
        <ele>817.1</ele>
        <time>2020-08-21T07:59:32Z</time>
        <sat>9</sat>
      </trkpt>
      <trkpt lat="42.348682" lon="-3.816262">
        <ele>817.0</ele>
        <time>2020-08-21T07:59:40Z</time>
        <sat>9</sat>
      </trkpt>
      <trkpt lat="42.348644" lon="-3.816365">
        <ele>816.9</ele>
        <time>2020-08-21T07:59:48Z</time>
        <sat>9</sat>
      </trkpt>
      <trkpt lat="42.348663" lon="-3.816478">
        <ele>816.5</ele>
        <time>2020-08-21T07:59:58Z</time>
        <sat>9</sat>
      </trkpt>
      <trkpt lat="42.348726" lon="-3.816551">
        <ele>815.9</ele>
        <time>2020-08-21T08:00:05Z</time>
        <sat>9</sat>
      </trkpt>
      <trkpt lat="42.348794" lon="-3.816611">
        <ele>815.4</ele>
        <time>2020-08-21T08:00:15Z</time>
        <sat>9</sat>
      </trkpt>
      <trkpt lat="42.348814" lon="-3.816639">
        <ele>815.1</ele>
        <time>2020-08-21T08:04:04Z</time>
        <sat>9</sat>
      </trkpt>
      <trkpt lat="42.348849" lon="-3.816741">
        <ele>815.0</ele>
        <time>2020-08-21T08:04:12Z</time>
        <sat>9</sat>
      </trkpt>
      <trkpt lat="42.348883" lon="-3.816848">
        <ele>815.0</ele>
        <time>2020-08-21T08:04:19Z</time>
        <sat>9</sat>
      </trkpt>
      <trkpt lat="42.348922" lon="-3.816945">
        <ele>814.9</ele>
        <time>2020-08-21T08:04:28Z</time>
        <sat>9</sat>
      </trkpt>
      <trkpt lat="42.348923" lon="-3.817062">
        <ele>814.9</ele>
        <time>2020-08-21T08:04:34Z</time>
        <sat>9</sat>
      </trkpt>
      <trkpt lat="42.348965" lon="-3.817156">
        <ele>814.8</ele>
        <time>2020-08-21T08:04:41Z</time>
        <sat>9</sat>
      </trkpt>
      <trkpt lat="42.349005" lon="-3.817257">
        <ele>814.8</ele>
        <time>2020-08-21T08:04:49Z</time>
        <sat>10</sat>
      </trkpt>
      <trkpt lat="42.349046" lon="-3.817352">
        <ele>814.9</ele>
        <time>2020-08-21T08:04:56Z</time>
        <sat>10</sat>
      </trkpt>
      <trkpt lat="42.349074" lon="-3.817474">
        <ele>815.0</ele>
        <time>2020-08-21T08:05:03Z</time>
        <sat>9</sat>
      </trkpt>
      <trkpt lat="42.349094" lon="-3.817585">
        <ele>815.0</ele>
        <time>2020-08-21T08:05:10Z</time>
        <sat>7</sat>
      </trkpt>
      <trkpt lat="42.349117" lon="-3.817703">
        <ele>815.0</ele>
        <time>2020-08-21T08:05:17Z</time>
        <sat>10</sat>
      </trkpt>
      <trkpt lat="42.349140" lon="-3.817813">
        <ele>815.0</ele>
        <time>2020-08-21T08:05:24Z</time>
        <sat>9</sat>
      </trkpt>
      <trkpt lat="42.349168" lon="-3.817920">
        <ele>815.0</ele>
        <time>2020-08-21T08:05:30Z</time>
        <sat>8</sat>
      </trkpt>
      <trkpt lat="42.349207" lon="-3.818023">
        <ele>815.0</ele>
        <time>2020-08-21T08:05:39Z</time>
        <sat>10</sat>
      </trkpt>
      <trkpt lat="42.349260" lon="-3.818107">
        <ele>815.0</ele>
        <time>2020-08-21T08:05:46Z</time>
        <sat>10</sat>
      </trkpt>
      <trkpt lat="42.349331" lon="-3.818186">
        <ele>815.1</ele>
        <time>2020-08-21T08:05:57Z</time>
        <sat>10</sat>
      </trkpt>
      <trkpt lat="42.349322" lon="-3.818270">
        <ele>813.5</ele>
        <time>2020-08-21T08:17:57Z</time>
        <sat>10</sat>
      </trkpt>
      <trkpt lat="42.349256" lon="-3.818339">
        <ele>813.3</ele>
        <time>2020-08-21T08:18:06Z</time>
        <sat>10</sat>
      </trkpt>
      <trkpt lat="42.349201" lon="-3.818422">
        <ele>813.2</ele>
        <time>2020-08-21T08:18:13Z</time>
        <sat>10</sat>
      </trkpt>
      <trkpt lat="42.349187" lon="-3.818533">
        <ele>813.4</ele>
        <time>2020-08-21T08:19:49Z</time>
        <sat>10</sat>
      </trkpt>
      <trkpt lat="42.349208" lon="-3.818645">
        <ele>812.2</ele>
        <time>2020-08-21T08:19:58Z</time>
        <sat>9</sat>
      </trkpt>
      <trkpt lat="42.349198" lon="-3.818767">
        <ele>814.5</ele>
        <time>2020-08-21T08:20:05Z</time>
        <sat>10</sat>
      </trkpt>
      <trkpt lat="42.349175" lon="-3.818873">
        <ele>814.6</ele>
        <time>2020-08-21T08:20:13Z</time>
        <sat>10</sat>
      </trkpt>
      <trkpt lat="42.349127" lon="-3.818965">
        <ele>814.5</ele>
        <time>2020-08-21T08:20:20Z</time>
        <sat>10</sat>
      </trkpt>
      <trkpt lat="42.349074" lon="-3.819048">
        <ele>814.5</ele>
        <time>2020-08-21T08:20:26Z</time>
        <sat>10</sat>
      </trkpt>
      <trkpt lat="42.349010" lon="-3.819139">
        <ele>814.6</ele>
        <time>2020-08-21T08:20:33Z</time>
        <sat>10</sat>
      </trkpt>
      <trkpt lat="42.348996" lon="-3.819264">
        <ele>814.5</ele>
        <time>2020-08-21T08:21:09Z</time>
        <sat>10</sat>
      </trkpt>
      <trkpt lat="42.348986" lon="-3.819375">
        <ele>814.4</ele>
        <time>2020-08-21T08:21:26Z</time>
        <sat>10</sat>
      </trkpt>
      <trkpt lat="42.348954" lon="-3.819477">
        <ele>814.5</ele>
        <time>2020-08-21T08:21:33Z</time>
        <sat>10</sat>
      </trkpt>
      <trkpt lat="42.348937" lon="-3.819590">
        <ele>814.3</ele>
        <time>2020-08-21T08:21:41Z</time>
        <sat>10</sat>
      </trkpt>
      <trkpt lat="42.348949" lon="-3.819703">
        <ele>814.3</ele>
        <time>2020-08-21T08:21:49Z</time>
        <sat>10</sat>
      </trkpt>
      <trkpt lat="42.348982" lon="-3.819808">
        <ele>814.4</ele>
        <time>2020-08-21T08:21:56Z</time>
        <sat>10</sat>
      </trkpt>
      <trkpt lat="42.349021" lon="-3.819909">
        <ele>814.6</ele>
        <time>2020-08-21T08:22:03Z</time>
        <sat>10</sat>
      </trkpt>
      <trkpt lat="42.349017" lon="-3.820023">
        <ele>815.0</ele>
        <time>2020-08-21T08:22:23Z</time>
        <sat>10</sat>
      </trkpt>
      <trkpt lat="42.349047" lon="-3.820136">
        <ele>814.9</ele>
        <time>2020-08-21T08:22:32Z</time>
        <sat>10</sat>
      </trkpt>
      <trkpt lat="42.349078" lon="-3.820239">
        <ele>814.8</ele>
        <time>2020-08-21T08:22:40Z</time>
        <sat>10</sat>
      </trkpt>
      <trkpt lat="42.349110" lon="-3.820346">
        <ele>814.3</ele>
        <time>2020-08-21T08:22:48Z</time>
        <sat>10</sat>
      </trkpt>
      <trkpt lat="42.349152" lon="-3.820447">
        <ele>814.0</ele>
        <time>2020-08-21T08:22:57Z</time>
        <sat>10</sat>
      </trkpt>
      <trkpt lat="42.349194" lon="-3.820549">
        <ele>812.9</ele>
        <time>2020-08-21T08:23:04Z</time>
        <sat>9</sat>
      </trkpt>
      <trkpt lat="42.349240" lon="-3.820649">
        <ele>813.4</ele>
        <time>2020-08-21T08:23:11Z</time>
        <sat>10</sat>
      </trkpt>
      <trkpt lat="42.349275" lon="-3.820758">
        <ele>812.5</ele>
        <time>2020-08-21T08:23:18Z</time>
        <sat>10</sat>
      </trkpt>
      <trkpt lat="42.349309" lon="-3.820866">
        <ele>811.9</ele>
        <time>2020-08-21T08:23:25Z</time>
        <sat>10</sat>
      </trkpt>
      <trkpt lat="42.349328" lon="-3.820980">
        <ele>812.3</ele>
        <time>2020-08-21T08:23:32Z</time>
        <sat>10</sat>
      </trkpt>
      <trkpt lat="42.349322" lon="-3.821101">
        <ele>812.8</ele>
        <time>2020-08-21T08:23:40Z</time>
        <sat>10</sat>
      </trkpt>
      <trkpt lat="42.349311" lon="-3.821216">
        <ele>813.1</ele>
        <time>2020-08-21T08:23:46Z</time>
        <sat>10</sat>
      </trkpt>
      <trkpt lat="42.349307" lon="-3.821331">
        <ele>813.1</ele>
        <time>2020-08-21T08:23:52Z</time>
        <sat>10</sat>
      </trkpt>
      <trkpt lat="42.349317" lon="-3.821441">
        <ele>813.2</ele>
        <time>2020-08-21T08:23:58Z</time>
        <sat>10</sat>
      </trkpt>
      <trkpt lat="42.349323" lon="-3.821559">
        <ele>813.2</ele>
        <time>2020-08-21T08:24:05Z</time>
        <sat>10</sat>
      </trkpt>
      <trkpt lat="42.349322" lon="-3.821684">
        <ele>813.1</ele>
        <time>2020-08-21T08:24:12Z</time>
        <sat>10</sat>
      </trkpt>
      <trkpt lat="42.349302" lon="-3.821805">
        <ele>813.1</ele>
        <time>2020-08-21T08:24:19Z</time>
        <sat>10</sat>
      </trkpt>
      <trkpt lat="42.349274" lon="-3.821924">
        <ele>813.0</ele>
        <time>2020-08-21T08:24:26Z</time>
        <sat>10</sat>
      </trkpt>
      <trkpt lat="42.349248" lon="-3.822041">
        <ele>813.0</ele>
        <time>2020-08-21T08:24:33Z</time>
        <sat>10</sat>
      </trkpt>
      <trkpt lat="42.349200" lon="-3.822145">
        <ele>813.2</ele>
        <time>2020-08-21T08:24:41Z</time>
        <sat>10</sat>
      </trkpt>
      <trkpt lat="42.349151" lon="-3.822237">
        <ele>813.2</ele>
        <time>2020-08-21T08:24:47Z</time>
        <sat>10</sat>
      </trkpt>
      <trkpt lat="42.349134" lon="-3.822344">
        <ele>813.3</ele>
        <time>2020-08-21T08:24:53Z</time>
        <sat>10</sat>
      </trkpt>
      <trkpt lat="42.349118" lon="-3.822461">
        <ele>813.3</ele>
        <time>2020-08-21T08:25:00Z</time>
        <sat>10</sat>
      </trkpt>
      <trkpt lat="42.349110" lon="-3.822587">
        <ele>813.3</ele>
        <time>2020-08-21T08:25:08Z</time>
        <sat>10</sat>
      </trkpt>
      <trkpt lat="42.349105" lon="-3.822709">
        <ele>812.9</ele>
        <time>2020-08-21T08:25:15Z</time>
        <sat>10</sat>
      </trkpt>
      <trkpt lat="42.349096" lon="-3.822822">
        <ele>810.8</ele>
        <time>2020-08-21T08:25:22Z</time>
        <sat>10</sat>
      </trkpt>
      <trkpt lat="42.349088" lon="-3.822948">
        <ele>812.1</ele>
        <time>2020-08-21T08:25:31Z</time>
        <sat>10</sat>
      </trkpt>
      <trkpt lat="42.349102" lon="-3.823061">
        <ele>811.2</ele>
        <time>2020-08-21T08:25:38Z</time>
        <sat>10</sat>
      </trkpt>
      <trkpt lat="42.349097" lon="-3.823177">
        <ele>813.8</ele>
        <time>2020-08-21T08:25:45Z</time>
        <sat>10</sat>
      </trkpt>
      <trkpt lat="42.349092" lon="-3.823290">
        <ele>815.1</ele>
        <time>2020-08-21T08:25:51Z</time>
        <sat>10</sat>
      </trkpt>
      <trkpt lat="42.349087" lon="-3.823400">
        <ele>814.6</ele>
        <time>2020-08-21T08:25:57Z</time>
        <sat>10</sat>
      </trkpt>
      <trkpt lat="42.349081" lon="-3.823525">
        <ele>813.8</ele>
        <time>2020-08-21T08:26:04Z</time>
        <sat>10</sat>
      </trkpt>
      <trkpt lat="42.349076" lon="-3.823634">
        <ele>813.4</ele>
        <time>2020-08-21T08:26:10Z</time>
        <sat>10</sat>
      </trkpt>
      <trkpt lat="42.349066" lon="-3.823755">
        <ele>813.1</ele>
        <time>2020-08-21T08:26:17Z</time>
        <sat>10</sat>
      </trkpt>
      <trkpt lat="42.349053" lon="-3.823876">
        <ele>812.9</ele>
        <time>2020-08-21T08:26:24Z</time>
        <sat>10</sat>
      </trkpt>
      <trkpt lat="42.349032" lon="-3.823986">
        <ele>812.9</ele>
        <time>2020-08-21T08:26:31Z</time>
        <sat>10</sat>
      </trkpt>
      <trkpt lat="42.349001" lon="-3.824096">
        <ele>812.8</ele>
        <time>2020-08-21T08:26:38Z</time>
        <sat>10</sat>
      </trkpt>
      <trkpt lat="42.348968" lon="-3.824206">
        <ele>812.7</ele>
        <time>2020-08-21T08:26:45Z</time>
        <sat>10</sat>
      </trkpt>
      <trkpt lat="42.348936" lon="-3.824315">
        <ele>812.7</ele>
        <time>2020-08-21T08:26:52Z</time>
        <sat>10</sat>
      </trkpt>
      <trkpt lat="42.348893" lon="-3.824428">
        <ele>812.8</ele>
        <time>2020-08-21T08:26:59Z</time>
        <sat>10</sat>
      </trkpt>
      <trkpt lat="42.348859" lon="-3.824548">
        <ele>812.8</ele>
        <time>2020-08-21T08:27:06Z</time>
        <sat>10</sat>
      </trkpt>
      <trkpt lat="42.348819" lon="-3.824660">
        <ele>812.8</ele>
        <time>2020-08-21T08:27:13Z</time>
        <sat>10</sat>
      </trkpt>
      <trkpt lat="42.348780" lon="-3.824775">
        <ele>812.8</ele>
        <time>2020-08-21T08:27:20Z</time>
        <sat>10</sat>
      </trkpt>
      <trkpt lat="42.348747" lon="-3.824880">
        <ele>812.9</ele>
        <time>2020-08-21T08:27:26Z</time>
        <sat>10</sat>
      </trkpt>
      <trkpt lat="42.348710" lon="-3.824979">
        <ele>813.0</ele>
        <time>2020-08-21T08:27:32Z</time>
        <sat>10</sat>
      </trkpt>
      <trkpt lat="42.348678" lon="-3.825080">
        <ele>813.0</ele>
        <time>2020-08-21T08:27:38Z</time>
        <sat>10</sat>
      </trkpt>
      <trkpt lat="42.348645" lon="-3.825182">
        <ele>812.9</ele>
        <time>2020-08-21T08:27:44Z</time>
        <sat>10</sat>
      </trkpt>
      <trkpt lat="42.348606" lon="-3.825291">
        <ele>812.7</ele>
        <time>2020-08-21T08:27:51Z</time>
        <sat>10</sat>
      </trkpt>
      <trkpt lat="42.348573" lon="-3.825393">
        <ele>812.7</ele>
        <time>2020-08-21T08:27:58Z</time>
        <sat>10</sat>
      </trkpt>
      <trkpt lat="42.348552" lon="-3.825513">
        <ele>812.9</ele>
        <time>2020-08-21T08:28:04Z</time>
        <sat>10</sat>
      </trkpt>
      <trkpt lat="42.348521" lon="-3.825618">
        <ele>813.0</ele>
        <time>2020-08-21T08:28:10Z</time>
        <sat>10</sat>
      </trkpt>
      <trkpt lat="42.348484" lon="-3.825723">
        <ele>813.0</ele>
        <time>2020-08-21T08:28:16Z</time>
        <sat>10</sat>
      </trkpt>
      <trkpt lat="42.348457" lon="-3.825831">
        <ele>812.9</ele>
        <time>2020-08-21T08:28:22Z</time>
        <sat>10</sat>
      </trkpt>
      <trkpt lat="42.348426" lon="-3.825935">
        <ele>812.8</ele>
        <time>2020-08-21T08:28:28Z</time>
        <sat>10</sat>
      </trkpt>
      <trkpt lat="42.348391" lon="-3.826052">
        <ele>812.6</ele>
        <time>2020-08-21T08:28:35Z</time>
        <sat>10</sat>
      </trkpt>
      <trkpt lat="42.348364" lon="-3.826160">
        <ele>812.5</ele>
        <time>2020-08-21T08:28:41Z</time>
        <sat>10</sat>
      </trkpt>
      <trkpt lat="42.348328" lon="-3.826271">
        <ele>812.4</ele>
        <time>2020-08-21T08:28:48Z</time>
        <sat>10</sat>
      </trkpt>
      <trkpt lat="42.348297" lon="-3.826391">
        <ele>812.3</ele>
        <time>2020-08-21T08:28:55Z</time>
        <sat>10</sat>
      </trkpt>
      <trkpt lat="42.348255" lon="-3.826505">
        <ele>812.3</ele>
        <time>2020-08-21T08:29:02Z</time>
        <sat>10</sat>
      </trkpt>
      <trkpt lat="42.348242" lon="-3.826614">
        <ele>812.3</ele>
        <time>2020-08-21T08:29:08Z</time>
        <sat>10</sat>
      </trkpt>
      <trkpt lat="42.348212" lon="-3.826718">
        <ele>812.3</ele>
        <time>2020-08-21T08:29:14Z</time>
        <sat>10</sat>
      </trkpt>
      <trkpt lat="42.348180" lon="-3.826823">
        <ele>812.2</ele>
        <time>2020-08-21T08:29:20Z</time>
        <sat>10</sat>
      </trkpt>
      <trkpt lat="42.348182" lon="-3.826944">
        <ele>812.1</ele>
        <time>2020-08-21T08:29:26Z</time>
        <sat>10</sat>
      </trkpt>
      <trkpt lat="42.348174" lon="-3.827050">
        <ele>811.1</ele>
        <time>2020-08-21T08:34:37Z</time>
        <sat>10</sat>
      </trkpt>
      <trkpt lat="42.348100" lon="-3.827098">
        <ele>811.3</ele>
        <time>2020-08-21T08:34:46Z</time>
        <sat>10</sat>
      </trkpt>
      <trkpt lat="42.348050" lon="-3.827192">
        <ele>811.4</ele>
        <time>2020-08-21T08:34:53Z</time>
        <sat>10</sat>
      </trkpt>
      <trkpt lat="42.348023" lon="-3.827303">
        <ele>811.5</ele>
        <time>2020-08-21T08:34:59Z</time>
        <sat>9</sat>
      </trkpt>
      <trkpt lat="42.347992" lon="-3.827405">
        <ele>811.8</ele>
        <time>2020-08-21T08:35:06Z</time>
        <sat>10</sat>
      </trkpt>
      <trkpt lat="42.347964" lon="-3.827512">
        <ele>811.8</ele>
        <time>2020-08-21T08:35:15Z</time>
        <sat>10</sat>
      </trkpt>
      <trkpt lat="42.347930" lon="-3.827626">
        <ele>811.8</ele>
        <time>2020-08-21T08:35:23Z</time>
        <sat>10</sat>
      </trkpt>
      <trkpt lat="42.347902" lon="-3.827734">
        <ele>811.7</ele>
        <time>2020-08-21T08:35:30Z</time>
        <sat>10</sat>
      </trkpt>
      <trkpt lat="42.347869" lon="-3.827845">
        <ele>811.7</ele>
        <time>2020-08-21T08:35:37Z</time>
        <sat>10</sat>
      </trkpt>
      <trkpt lat="42.347841" lon="-3.827963">
        <ele>811.7</ele>
        <time>2020-08-21T08:35:44Z</time>
        <sat>10</sat>
      </trkpt>
      <trkpt lat="42.347802" lon="-3.828071">
        <ele>811.7</ele>
        <time>2020-08-21T08:35:52Z</time>
        <sat>10</sat>
      </trkpt>
      <trkpt lat="42.347764" lon="-3.828174">
        <ele>811.8</ele>
        <time>2020-08-21T08:35:59Z</time>
        <sat>10</sat>
      </trkpt>
      <trkpt lat="42.347729" lon="-3.828285">
        <ele>811.8</ele>
        <time>2020-08-21T08:36:06Z</time>
        <sat>10</sat>
      </trkpt>
      <trkpt lat="42.347681" lon="-3.828374">
        <ele>811.6</ele>
        <time>2020-08-21T08:36:14Z</time>
        <sat>10</sat>
      </trkpt>
      <trkpt lat="42.347611" lon="-3.828452">
        <ele>811.7</ele>
        <time>2020-08-21T08:36:22Z</time>
        <sat>10</sat>
      </trkpt>
      <trkpt lat="42.347532" lon="-3.828509">
        <ele>811.7</ele>
        <time>2020-08-21T08:36:30Z</time>
        <sat>10</sat>
      </trkpt>
      <trkpt lat="42.347457" lon="-3.828551">
        <ele>811.7</ele>
        <time>2020-08-21T08:36:37Z</time>
        <sat>10</sat>
      </trkpt>
      <trkpt lat="42.347373" lon="-3.828579">
        <ele>811.6</ele>
        <time>2020-08-21T08:36:44Z</time>
        <sat>10</sat>
      </trkpt>
      <trkpt lat="42.347292" lon="-3.828596">
        <ele>811.7</ele>
        <time>2020-08-21T08:36:50Z</time>
        <sat>10</sat>
      </trkpt>
      <trkpt lat="42.347201" lon="-3.828599">
        <ele>811.8</ele>
        <time>2020-08-21T08:36:57Z</time>
        <sat>10</sat>
      </trkpt>
      <trkpt lat="42.347114" lon="-3.828599">
        <ele>811.8</ele>
        <time>2020-08-21T08:37:04Z</time>
        <sat>10</sat>
      </trkpt>
      <trkpt lat="42.347021" lon="-3.828612">
        <ele>811.7</ele>
        <time>2020-08-21T08:37:11Z</time>
        <sat>10</sat>
      </trkpt>
      <trkpt lat="42.346940" lon="-3.828624">
        <ele>811.9</ele>
        <time>2020-08-21T08:37:18Z</time>
        <sat>10</sat>
      </trkpt>
      <trkpt lat="42.346852" lon="-3.828628">
        <ele>812.1</ele>
        <time>2020-08-21T08:37:26Z</time>
        <sat>10</sat>
      </trkpt>
      <trkpt lat="42.346770" lon="-3.828632">
        <ele>812.1</ele>
        <time>2020-08-21T08:37:32Z</time>
        <sat>10</sat>
      </trkpt>
      <trkpt lat="42.346678" lon="-3.828642">
        <ele>812.4</ele>
        <time>2020-08-21T08:37:39Z</time>
        <sat>10</sat>
      </trkpt>
      <trkpt lat="42.346590" lon="-3.828659">
        <ele>812.7</ele>
        <time>2020-08-21T08:37:46Z</time>
        <sat>10</sat>
      </trkpt>
      <trkpt lat="42.346504" lon="-3.828678">
        <ele>813.3</ele>
        <time>2020-08-21T08:38:02Z</time>
        <sat>10</sat>
      </trkpt>
      <trkpt lat="42.346414" lon="-3.828686">
        <ele>813.5</ele>
        <time>2020-08-21T08:38:09Z</time>
        <sat>10</sat>
      </trkpt>
      <trkpt lat="42.346329" lon="-3.828703">
        <ele>813.7</ele>
        <time>2020-08-21T08:38:15Z</time>
        <sat>10</sat>
      </trkpt>
      <trkpt lat="42.346238" lon="-3.828715">
        <ele>814.0</ele>
        <time>2020-08-21T08:38:22Z</time>
        <sat>10</sat>
      </trkpt>
      <trkpt lat="42.346150" lon="-3.828735">
        <ele>814.4</ele>
        <time>2020-08-21T08:38:29Z</time>
        <sat>10</sat>
      </trkpt>
      <trkpt lat="42.346066" lon="-3.828760">
        <ele>814.9</ele>
        <time>2020-08-21T08:38:39Z</time>
        <sat>10</sat>
      </trkpt>
      <trkpt lat="42.345986" lon="-3.828786">
        <ele>815.1</ele>
        <time>2020-08-21T08:38:45Z</time>
        <sat>10</sat>
      </trkpt>
      <trkpt lat="42.345899" lon="-3.828814">
        <ele>815.5</ele>
        <time>2020-08-21T08:38:52Z</time>
        <sat>10</sat>
      </trkpt>
      <trkpt lat="42.345817" lon="-3.828870">
        <ele>816.0</ele>
        <time>2020-08-21T08:38:59Z</time>
        <sat>10</sat>
      </trkpt>
      <trkpt lat="42.345755" lon="-3.828940">
        <ele>816.4</ele>
        <time>2020-08-21T08:39:09Z</time>
        <sat>10</sat>
      </trkpt>
      <trkpt lat="42.345671" lon="-3.828998">
        <ele>816.6</ele>
        <time>2020-08-21T08:39:16Z</time>
        <sat>10</sat>
      </trkpt>
      <trkpt lat="42.345607" lon="-3.829064">
        <ele>816.9</ele>
        <time>2020-08-21T08:39:23Z</time>
        <sat>10</sat>
      </trkpt>
      <trkpt lat="42.345537" lon="-3.829125">
        <ele>817.0</ele>
        <time>2020-08-21T08:39:29Z</time>
        <sat>10</sat>
      </trkpt>
      <trkpt lat="42.345467" lon="-3.829180">
        <ele>817.2</ele>
        <time>2020-08-21T08:39:35Z</time>
        <sat>10</sat>
      </trkpt>
      <trkpt lat="42.345401" lon="-3.829244">
        <ele>817.4</ele>
        <time>2020-08-21T08:39:41Z</time>
        <sat>10</sat>
      </trkpt>
      <trkpt lat="42.345323" lon="-3.829309">
        <ele>817.5</ele>
        <time>2020-08-21T08:39:48Z</time>
        <sat>10</sat>
      </trkpt>
      <trkpt lat="42.345249" lon="-3.829366">
        <ele>817.6</ele>
        <time>2020-08-21T08:39:55Z</time>
        <sat>9</sat>
      </trkpt>
      <trkpt lat="42.345162" lon="-3.829417">
        <ele>817.8</ele>
        <time>2020-08-21T08:40:03Z</time>
        <sat>10</sat>
      </trkpt>
      <trkpt lat="42.345082" lon="-3.829466">
        <ele>818.0</ele>
        <time>2020-08-21T08:40:09Z</time>
        <sat>10</sat>
      </trkpt>
      <trkpt lat="42.345007" lon="-3.829505">
        <ele>818.0</ele>
        <time>2020-08-21T08:40:15Z</time>
        <sat>10</sat>
      </trkpt>
      <trkpt lat="42.344927" lon="-3.829532">
        <ele>818.1</ele>
        <time>2020-08-21T08:40:21Z</time>
        <sat>10</sat>
      </trkpt>
      <trkpt lat="42.344842" lon="-3.829568">
        <ele>818.2</ele>
        <time>2020-08-21T08:40:30Z</time>
        <sat>10</sat>
      </trkpt>
      <trkpt lat="42.344762" lon="-3.829602">
        <ele>818.2</ele>
        <time>2020-08-21T08:40:36Z</time>
        <sat>10</sat>
      </trkpt>
      <trkpt lat="42.344683" lon="-3.829631">
        <ele>818.2</ele>
        <time>2020-08-21T08:40:42Z</time>
        <sat>9</sat>
      </trkpt>
      <trkpt lat="42.344601" lon="-3.829660">
        <ele>818.2</ele>
        <time>2020-08-21T08:40:50Z</time>
        <sat>9</sat>
      </trkpt>
      <trkpt lat="42.344518" lon="-3.829692">
        <ele>818.1</ele>
        <time>2020-08-21T08:40:56Z</time>
        <sat>10</sat>
      </trkpt>
      <trkpt lat="42.344436" lon="-3.829742">
        <ele>817.9</ele>
        <time>2020-08-21T08:41:07Z</time>
        <sat>10</sat>
      </trkpt>
      <trkpt lat="42.344387" lon="-3.829836">
        <ele>817.8</ele>
        <time>2020-08-21T08:41:14Z</time>
        <sat>10</sat>
      </trkpt>
      <trkpt lat="42.344322" lon="-3.829908">
        <ele>817.8</ele>
        <time>2020-08-21T08:41:21Z</time>
        <sat>10</sat>
      </trkpt>
      <trkpt lat="42.344245" lon="-3.829939">
        <ele>817.9</ele>
        <time>2020-08-21T08:41:28Z</time>
        <sat>9</sat>
      </trkpt>
      <trkpt lat="42.344165" lon="-3.829891">
        <ele>828.0</ele>
        <time>2020-08-21T09:08:56Z</time>
        <sat>10</sat>
      </trkpt>
      <trkpt lat="42.344078" lon="-3.829917">
        <ele>827.9</ele>
        <time>2020-08-21T09:09:03Z</time>
        <sat>10</sat>
      </trkpt>
      <trkpt lat="42.344000" lon="-3.829967">
        <ele>825.9</ele>
        <time>2020-08-21T09:09:40Z</time>
        <sat>10</sat>
      </trkpt>
      <trkpt lat="42.343959" lon="-3.830067">
        <ele>825.3</ele>
        <time>2020-08-21T09:09:49Z</time>
        <sat>10</sat>
      </trkpt>
      <trkpt lat="42.343888" lon="-3.830132">
        <ele>829.2</ele>
        <time>2020-08-21T09:10:01Z</time>
        <sat>10</sat>
      </trkpt>
      <trkpt lat="42.343815" lon="-3.830194">
        <ele>829.0</ele>
        <time>2020-08-21T09:10:12Z</time>
        <sat>9</sat>
      </trkpt>
      <trkpt lat="42.343740" lon="-3.830242">
        <ele>828.0</ele>
        <time>2020-08-21T09:10:22Z</time>
        <sat>9</sat>
      </trkpt>
      <trkpt lat="42.343665" lon="-3.830299">
        <ele>827.4</ele>
        <time>2020-08-21T09:10:31Z</time>
        <sat>9</sat>
      </trkpt>
      <trkpt lat="42.343591" lon="-3.830358">
        <ele>827.2</ele>
        <time>2020-08-21T09:10:39Z</time>
        <sat>9</sat>
      </trkpt>
      <trkpt lat="42.343521" lon="-3.830423">
        <ele>827.0</ele>
        <time>2020-08-21T09:10:47Z</time>
        <sat>9</sat>
      </trkpt>
      <trkpt lat="42.343450" lon="-3.830491">
        <ele>826.8</ele>
        <time>2020-08-21T09:10:55Z</time>
        <sat>9</sat>
      </trkpt>
      <trkpt lat="42.343370" lon="-3.830552">
        <ele>826.8</ele>
        <time>2020-08-21T09:11:03Z</time>
        <sat>9</sat>
      </trkpt>
      <trkpt lat="42.343245" lon="-3.830643">
        <ele>827.0</ele>
        <time>2020-08-21T09:11:23Z</time>
        <sat>9</sat>
      </trkpt>
      <trkpt lat="42.343182" lon="-3.830723">
        <ele>826.7</ele>
        <time>2020-08-21T09:11:33Z</time>
        <sat>9</sat>
      </trkpt>
      <trkpt lat="42.343130" lon="-3.830815">
        <ele>826.6</ele>
        <time>2020-08-21T09:11:42Z</time>
        <sat>9</sat>
      </trkpt>
      <trkpt lat="42.343066" lon="-3.830892">
        <ele>826.6</ele>
        <time>2020-08-21T09:11:51Z</time>
        <sat>9</sat>
      </trkpt>
      <trkpt lat="42.343000" lon="-3.830964">
        <ele>826.8</ele>
        <time>2020-08-21T09:12:00Z</time>
        <sat>10</sat>
      </trkpt>
      <trkpt lat="42.342938" lon="-3.831038">
        <ele>826.9</ele>
        <time>2020-08-21T09:12:08Z</time>
        <sat>10</sat>
      </trkpt>
      <trkpt lat="42.342873" lon="-3.831114">
        <ele>827.0</ele>
        <time>2020-08-21T09:12:17Z</time>
        <sat>10</sat>
      </trkpt>
      <trkpt lat="42.342813" lon="-3.831189">
        <ele>827.0</ele>
        <time>2020-08-21T09:12:25Z</time>
        <sat>9</sat>
      </trkpt>
      <trkpt lat="42.342754" lon="-3.831274">
        <ele>827.1</ele>
        <time>2020-08-21T09:12:34Z</time>
        <sat>10</sat>
      </trkpt>
      <trkpt lat="42.342689" lon="-3.831363">
        <ele>827.1</ele>
        <time>2020-08-21T09:12:42Z</time>
        <sat>9</sat>
      </trkpt>
      <trkpt lat="42.342622" lon="-3.831450">
        <ele>826.7</ele>
        <time>2020-08-21T09:12:50Z</time>
        <sat>10</sat>
      </trkpt>
      <trkpt lat="42.342560" lon="-3.831546">
        <ele>827.1</ele>
        <time>2020-08-21T09:12:59Z</time>
        <sat>10</sat>
      </trkpt>
      <trkpt lat="42.342507" lon="-3.831632">
        <ele>826.7</ele>
        <time>2020-08-21T09:13:06Z</time>
        <sat>10</sat>
      </trkpt>
      <trkpt lat="42.342456" lon="-3.831734">
        <ele>826.8</ele>
        <time>2020-08-21T09:13:17Z</time>
        <sat>10</sat>
      </trkpt>
      <trkpt lat="42.342396" lon="-3.831817">
        <ele>826.6</ele>
        <time>2020-08-21T09:13:25Z</time>
        <sat>10</sat>
      </trkpt>
      <trkpt lat="42.342336" lon="-3.831909">
        <ele>826.7</ele>
        <time>2020-08-21T09:13:33Z</time>
        <sat>10</sat>
      </trkpt>
      <trkpt lat="42.342271" lon="-3.832000">
        <ele>826.7</ele>
        <time>2020-08-21T09:13:41Z</time>
        <sat>10</sat>
      </trkpt>
      <trkpt lat="42.342210" lon="-3.832090">
        <ele>826.5</ele>
        <time>2020-08-21T09:13:49Z</time>
        <sat>10</sat>
      </trkpt>
      <trkpt lat="42.342130" lon="-3.832152">
        <ele>826.5</ele>
        <time>2020-08-21T09:13:59Z</time>
        <sat>10</sat>
      </trkpt>
      <trkpt lat="42.342044" lon="-3.832195">
        <ele>826.5</ele>
        <time>2020-08-21T09:14:07Z</time>
        <sat>10</sat>
      </trkpt>
      <trkpt lat="42.341986" lon="-3.832274">
        <ele>826.5</ele>
        <time>2020-08-21T09:14:15Z</time>
        <sat>10</sat>
      </trkpt>
      <trkpt lat="42.341931" lon="-3.832355">
        <ele>826.4</ele>
        <time>2020-08-21T09:14:22Z</time>
        <sat>10</sat>
      </trkpt>
      <trkpt lat="42.341884" lon="-3.832450">
        <ele>826.3</ele>
        <time>2020-08-21T09:14:30Z</time>
        <sat>11</sat>
      </trkpt>
      <trkpt lat="42.341828" lon="-3.832536">
        <ele>826.3</ele>
        <time>2020-08-21T09:14:38Z</time>
        <sat>11</sat>
      </trkpt>
      <trkpt lat="42.341769" lon="-3.832626">
        <ele>826.4</ele>
        <time>2020-08-21T09:14:46Z</time>
        <sat>11</sat>
      </trkpt>
      <trkpt lat="42.341710" lon="-3.832720">
        <ele>826.5</ele>
        <time>2020-08-21T09:14:54Z</time>
        <sat>11</sat>
      </trkpt>
      <trkpt lat="42.341653" lon="-3.832819">
        <ele>826.7</ele>
        <time>2020-08-21T09:15:02Z</time>
        <sat>11</sat>
      </trkpt>
      <trkpt lat="42.341599" lon="-3.832914">
        <ele>826.8</ele>
        <time>2020-08-21T09:15:10Z</time>
        <sat>11</sat>
      </trkpt>
      <trkpt lat="42.341542" lon="-3.832999">
        <ele>826.8</ele>
        <time>2020-08-21T09:15:18Z</time>
        <sat>11</sat>
      </trkpt>
      <trkpt lat="42.341483" lon="-3.833074">
        <ele>826.8</ele>
        <time>2020-08-21T09:15:25Z</time>
        <sat>11</sat>
      </trkpt>
      <trkpt lat="42.341423" lon="-3.833151">
        <ele>826.8</ele>
        <time>2020-08-21T09:15:32Z</time>
        <sat>11</sat>
      </trkpt>
      <trkpt lat="42.341368" lon="-3.833238">
        <ele>826.8</ele>
        <time>2020-08-21T09:15:40Z</time>
        <sat>11</sat>
      </trkpt>
      <trkpt lat="42.341312" lon="-3.833318">
        <ele>827.0</ele>
        <time>2020-08-21T09:15:48Z</time>
        <sat>11</sat>
      </trkpt>
      <trkpt lat="42.341248" lon="-3.833385">
        <ele>826.8</ele>
        <time>2020-08-21T09:15:56Z</time>
        <sat>11</sat>
      </trkpt>
      <trkpt lat="42.341169" lon="-3.833421">
        <ele>826.7</ele>
        <time>2020-08-21T09:16:04Z</time>
        <sat>11</sat>
      </trkpt>
      <trkpt lat="42.341087" lon="-3.833443">
        <ele>826.6</ele>
        <time>2020-08-21T09:16:12Z</time>
        <sat>10</sat>
      </trkpt>
      <trkpt lat="42.341006" lon="-3.833473">
        <ele>826.2</ele>
        <time>2020-08-21T09:16:20Z</time>
        <sat>11</sat>
      </trkpt>
      <trkpt lat="42.340924" lon="-3.833488">
        <ele>826.0</ele>
        <time>2020-08-21T09:16:28Z</time>
        <sat>9</sat>
      </trkpt>
      <trkpt lat="42.340835" lon="-3.833481">
        <ele>825.7</ele>
        <time>2020-08-21T09:16:37Z</time>
        <sat>10</sat>
      </trkpt>
      <trkpt lat="42.340753" lon="-3.833490">
        <ele>826.2</ele>
        <time>2020-08-21T09:16:48Z</time>
        <sat>10</sat>
      </trkpt>
      <trkpt lat="42.340684" lon="-3.833564">
        <ele>825.3</ele>
        <time>2020-08-21T09:16:58Z</time>
        <sat>9</sat>
      </trkpt>
      <trkpt lat="42.340656" lon="-3.833684">
        <ele>825.5</ele>
        <time>2020-08-21T09:17:06Z</time>
        <sat>7</sat>
      </trkpt>
      <trkpt lat="42.340638" lon="-3.833795">
        <ele>823.2</ele>
        <time>2020-08-21T09:17:14Z</time>
        <sat>9</sat>
      </trkpt>
      <trkpt lat="42.340625" lon="-3.833912">
        <ele>824.5</ele>
        <time>2020-08-21T09:17:22Z</time>
        <sat>10</sat>
      </trkpt>
      <trkpt lat="42.340609" lon="-3.834035">
        <ele>823.3</ele>
        <time>2020-08-21T09:17:30Z</time>
        <sat>10</sat>
      </trkpt>
      <trkpt lat="42.340588" lon="-3.834152">
        <ele>827.0</ele>
        <time>2020-08-21T09:17:37Z</time>
        <sat>11</sat>
      </trkpt>
      <trkpt lat="42.340588" lon="-3.834272">
        <ele>827.6</ele>
        <time>2020-08-21T09:17:45Z</time>
        <sat>10</sat>
      </trkpt>
      <trkpt lat="42.340583" lon="-3.834386">
        <ele>827.8</ele>
        <time>2020-08-21T09:17:53Z</time>
        <sat>10</sat>
      </trkpt>
      <trkpt lat="42.340559" lon="-3.834498">
        <ele>827.8</ele>
        <time>2020-08-21T09:18:01Z</time>
        <sat>10</sat>
      </trkpt>
      <trkpt lat="42.340508" lon="-3.834605">
        <ele>827.8</ele>
        <time>2020-08-21T09:18:10Z</time>
        <sat>9</sat>
      </trkpt>
      <trkpt lat="42.340466" lon="-3.834715">
        <ele>828.3</ele>
        <time>2020-08-21T09:18:19Z</time>
        <sat>10</sat>
      </trkpt>
      <trkpt lat="42.340419" lon="-3.834821">
        <ele>828.7</ele>
        <time>2020-08-21T09:18:26Z</time>
        <sat>10</sat>
      </trkpt>
      <trkpt lat="42.340365" lon="-3.834919">
        <ele>829.3</ele>
        <time>2020-08-21T09:18:34Z</time>
        <sat>11</sat>
      </trkpt>
      <trkpt lat="42.340312" lon="-3.835008">
        <ele>829.9</ele>
        <time>2020-08-21T09:18:44Z</time>
        <sat>11</sat>
      </trkpt>
      <trkpt lat="42.340251" lon="-3.835085">
        <ele>830.5</ele>
        <time>2020-08-21T09:18:51Z</time>
        <sat>10</sat>
      </trkpt>
      <trkpt lat="42.340182" lon="-3.835145">
        <ele>828.7</ele>
        <time>2020-08-21T09:19:01Z</time>
        <sat>10</sat>
      </trkpt>
      <trkpt lat="42.340104" lon="-3.835189">
        <ele>831.4</ele>
        <time>2020-08-21T09:19:10Z</time>
        <sat>9</sat>
      </trkpt>
      <trkpt lat="42.340026" lon="-3.835250">
        <ele>830.9</ele>
        <time>2020-08-21T09:19:19Z</time>
        <sat>9</sat>
      </trkpt>
      <trkpt lat="42.339958" lon="-3.835322">
        <ele>828.5</ele>
        <time>2020-08-21T09:19:30Z</time>
        <sat>9</sat>
      </trkpt>
      <trkpt lat="42.339969" lon="-3.835433">
        <ele>832.4</ele>
        <time>2020-08-21T09:20:09Z</time>
        <sat>10</sat>
      </trkpt>
      <trkpt lat="42.339987" lon="-3.835543">
        <ele>832.2</ele>
        <time>2020-08-21T09:20:17Z</time>
        <sat>10</sat>
      </trkpt>
      <trkpt lat="42.340006" lon="-3.835657">
        <ele>832.0</ele>
        <time>2020-08-21T09:20:25Z</time>
        <sat>10</sat>
      </trkpt>
      <trkpt lat="42.340037" lon="-3.835761">
        <ele>831.6</ele>
        <time>2020-08-21T09:20:33Z</time>
        <sat>10</sat>
      </trkpt>
      <trkpt lat="42.340060" lon="-3.835875">
        <ele>831.0</ele>
        <time>2020-08-21T09:20:42Z</time>
        <sat>10</sat>
      </trkpt>
      <trkpt lat="42.340084" lon="-3.835984">
        <ele>830.5</ele>
        <time>2020-08-21T09:20:51Z</time>
        <sat>10</sat>
      </trkpt>
      <trkpt lat="42.340096" lon="-3.836097">
        <ele>826.4</ele>
        <time>2020-08-21T09:21:00Z</time>
        <sat>10</sat>
      </trkpt>
      <trkpt lat="42.340095" lon="-3.836211">
        <ele>829.7</ele>
        <time>2020-08-21T09:21:11Z</time>
        <sat>10</sat>
      </trkpt>
      <trkpt lat="42.340104" lon="-3.836334">
        <ele>830.1</ele>
        <time>2020-08-21T09:21:19Z</time>
        <sat>10</sat>
      </trkpt>
      <trkpt lat="42.340119" lon="-3.836454">
        <ele>829.6</ele>
        <time>2020-08-21T09:21:27Z</time>
        <sat>10</sat>
      </trkpt>
      <trkpt lat="42.340126" lon="-3.836569">
        <ele>828.7</ele>
        <time>2020-08-21T09:21:35Z</time>
        <sat>10</sat>
      </trkpt>
      <trkpt lat="42.340135" lon="-3.836681">
        <ele>827.9</ele>
        <time>2020-08-21T09:21:43Z</time>
        <sat>10</sat>
      </trkpt>
      <trkpt lat="42.340160" lon="-3.836789">
        <ele>828.7</ele>
        <time>2020-08-21T09:21:51Z</time>
        <sat>10</sat>
      </trkpt>
      <trkpt lat="42.340183" lon="-3.836901">
        <ele>828.6</ele>
        <time>2020-08-21T09:22:00Z</time>
        <sat>9</sat>
      </trkpt>
      <trkpt lat="42.340211" lon="-3.837009">
        <ele>828.4</ele>
        <time>2020-08-21T09:22:08Z</time>
        <sat>10</sat>
      </trkpt>
      <trkpt lat="42.340241" lon="-3.837122">
        <ele>828.7</ele>
        <time>2020-08-21T09:22:16Z</time>
        <sat>10</sat>
      </trkpt>
      <trkpt lat="42.340258" lon="-3.837234">
        <ele>828.2</ele>
        <time>2020-08-21T09:22:24Z</time>
        <sat>10</sat>
      </trkpt>
      <trkpt lat="42.340279" lon="-3.837343">
        <ele>830.0</ele>
        <time>2020-08-21T09:22:32Z</time>
        <sat>10</sat>
      </trkpt>
      <trkpt lat="42.340294" lon="-3.837453">
        <ele>829.4</ele>
        <time>2020-08-21T09:22:40Z</time>
        <sat>10</sat>
      </trkpt>
      <trkpt lat="42.340293" lon="-3.837575">
        <ele>828.8</ele>
        <time>2020-08-21T09:22:50Z</time>
        <sat>10</sat>
      </trkpt>
      <trkpt lat="42.340277" lon="-3.837690">
        <ele>828.3</ele>
        <time>2020-08-21T09:23:00Z</time>
        <sat>10</sat>
      </trkpt>
      <trkpt lat="42.340244" lon="-3.837792">
        <ele>828.1</ele>
        <time>2020-08-21T09:23:09Z</time>
        <sat>10</sat>
      </trkpt>
      <trkpt lat="42.340224" lon="-3.837889">
        <ele>827.4</ele>
        <time>2020-08-21T09:47:06Z</time>
        <sat>11</sat>
      </trkpt>
      <trkpt lat="42.340248" lon="-3.838003">
        <ele>827.1</ele>
        <time>2020-08-21T09:47:24Z</time>
        <sat>11</sat>
      </trkpt>
      <trkpt lat="42.340231" lon="-3.838117">
        <ele>827.1</ele>
        <time>2020-08-21T09:47:33Z</time>
        <sat>10</sat>
      </trkpt>
      <trkpt lat="42.340224" lon="-3.838238">
        <ele>827.4</ele>
        <time>2020-08-21T09:47:42Z</time>
        <sat>10</sat>
      </trkpt>
      <trkpt lat="42.340222" lon="-3.838347">
        <ele>827.6</ele>
        <time>2020-08-21T09:47:52Z</time>
        <sat>11</sat>
      </trkpt>
      <trkpt lat="42.340229" lon="-3.838457">
        <ele>827.7</ele>
        <time>2020-08-21T09:48:00Z</time>
        <sat>11</sat>
      </trkpt>
      <trkpt lat="42.340252" lon="-3.838566">
        <ele>827.9</ele>
        <time>2020-08-21T09:48:10Z</time>
        <sat>10</sat>
      </trkpt>
      <trkpt lat="42.340276" lon="-3.838679">
        <ele>828.1</ele>
        <time>2020-08-21T09:48:18Z</time>
        <sat>11</sat>
      </trkpt>
      <trkpt lat="42.340290" lon="-3.838788">
        <ele>828.1</ele>
        <time>2020-08-21T09:48:26Z</time>
        <sat>11</sat>
      </trkpt>
      <trkpt lat="42.340303" lon="-3.838903">
        <ele>828.1</ele>
        <time>2020-08-21T09:48:34Z</time>
        <sat>11</sat>
      </trkpt>
      <trkpt lat="42.340325" lon="-3.839013">
        <ele>828.1</ele>
        <time>2020-08-21T09:48:42Z</time>
        <sat>11</sat>
      </trkpt>
      <trkpt lat="42.340335" lon="-3.839129">
        <ele>828.2</ele>
        <time>2020-08-21T09:48:50Z</time>
        <sat>12</sat>
      </trkpt>
      <trkpt lat="42.340358" lon="-3.839247">
        <ele>827.7</ele>
        <time>2020-08-21T09:48:58Z</time>
        <sat>11</sat>
      </trkpt>
      <trkpt lat="42.340379" lon="-3.839363">
        <ele>828.2</ele>
        <time>2020-08-21T09:49:06Z</time>
        <sat>11</sat>
      </trkpt>
      <trkpt lat="42.340397" lon="-3.839474">
        <ele>828.0</ele>
        <time>2020-08-21T09:49:14Z</time>
        <sat>11</sat>
      </trkpt>
      <trkpt lat="42.340408" lon="-3.839589">
        <ele>827.6</ele>
        <time>2020-08-21T09:49:22Z</time>
        <sat>11</sat>
      </trkpt>
      <trkpt lat="42.340424" lon="-3.839709">
        <ele>822.0</ele>
        <time>2020-08-21T09:49:30Z</time>
        <sat>12</sat>
      </trkpt>
      <trkpt lat="42.340461" lon="-3.839829">
        <ele>828.1</ele>
        <time>2020-08-21T09:49:39Z</time>
        <sat>11</sat>
      </trkpt>
      <trkpt lat="42.340455" lon="-3.839950">
        <ele>830.2</ele>
        <time>2020-08-21T09:49:48Z</time>
        <sat>11</sat>
      </trkpt>
      <trkpt lat="42.340462" lon="-3.840065">
        <ele>829.5</ele>
        <time>2020-08-21T09:49:55Z</time>
        <sat>11</sat>
      </trkpt>
      <trkpt lat="42.340468" lon="-3.840182">
        <ele>828.6</ele>
        <time>2020-08-21T09:50:03Z</time>
        <sat>11</sat>
      </trkpt>
      <trkpt lat="42.340476" lon="-3.840304">
        <ele>828.0</ele>
        <time>2020-08-21T09:50:11Z</time>
        <sat>12</sat>
      </trkpt>
      <trkpt lat="42.340471" lon="-3.840422">
        <ele>826.7</ele>
        <time>2020-08-21T09:50:19Z</time>
        <sat>11</sat>
      </trkpt>
      <trkpt lat="42.340455" lon="-3.840538">
        <ele>828.3</ele>
        <time>2020-08-21T09:50:26Z</time>
        <sat>11</sat>
      </trkpt>
      <trkpt lat="42.340441" lon="-3.840654">
        <ele>828.5</ele>
        <time>2020-08-21T09:50:33Z</time>
        <sat>11</sat>
      </trkpt>
      <trkpt lat="42.340436" lon="-3.840769">
        <ele>828.5</ele>
        <time>2020-08-21T09:50:40Z</time>
        <sat>12</sat>
      </trkpt>
      <trkpt lat="42.340436" lon="-3.840887">
        <ele>828.4</ele>
        <time>2020-08-21T09:50:47Z</time>
        <sat>12</sat>
      </trkpt>
      <trkpt lat="42.340433" lon="-3.840998">
        <ele>828.0</ele>
        <time>2020-08-21T09:50:54Z</time>
        <sat>11</sat>
      </trkpt>
      <trkpt lat="42.340440" lon="-3.841110">
        <ele>827.8</ele>
        <time>2020-08-21T09:51:01Z</time>
        <sat>12</sat>
      </trkpt>
      <trkpt lat="42.340445" lon="-3.841220">
        <ele>827.7</ele>
        <time>2020-08-21T09:51:08Z</time>
        <sat>12</sat>
      </trkpt>
      <trkpt lat="42.340441" lon="-3.841339">
        <ele>827.6</ele>
        <time>2020-08-21T09:51:15Z</time>
        <sat>12</sat>
      </trkpt>
      <trkpt lat="42.340431" lon="-3.841449">
        <ele>827.6</ele>
        <time>2020-08-21T09:51:22Z</time>
        <sat>12</sat>
      </trkpt>
      <trkpt lat="42.340411" lon="-3.841560">
        <ele>828.2</ele>
        <time>2020-08-21T09:51:29Z</time>
        <sat>12</sat>
      </trkpt>
      <trkpt lat="42.340394" lon="-3.841675">
        <ele>829.0</ele>
        <time>2020-08-21T09:51:37Z</time>
        <sat>12</sat>
      </trkpt>
      <trkpt lat="42.340371" lon="-3.841784">
        <ele>829.2</ele>
        <time>2020-08-21T09:51:45Z</time>
        <sat>12</sat>
      </trkpt>
      <trkpt lat="42.340344" lon="-3.841891">
        <ele>829.2</ele>
        <time>2020-08-21T09:51:53Z</time>
        <sat>12</sat>
      </trkpt>
      <trkpt lat="42.340327" lon="-3.842001">
        <ele>829.8</ele>
        <time>2020-08-21T09:52:00Z</time>
        <sat>12</sat>
      </trkpt>
      <trkpt lat="42.340320" lon="-3.842117">
        <ele>829.6</ele>
        <time>2020-08-21T09:52:07Z</time>
        <sat>12</sat>
      </trkpt>
      <trkpt lat="42.340303" lon="-3.842229">
        <ele>831.5</ele>
        <time>2020-08-21T09:52:14Z</time>
        <sat>12</sat>
      </trkpt>
      <trkpt lat="42.340291" lon="-3.842340">
        <ele>832.1</ele>
        <time>2020-08-21T09:52:21Z</time>
        <sat>12</sat>
      </trkpt>
      <trkpt lat="42.340281" lon="-3.842450">
        <ele>832.9</ele>
        <time>2020-08-21T09:52:28Z</time>
        <sat>12</sat>
      </trkpt>
      <trkpt lat="42.340271" lon="-3.842559">
        <ele>833.5</ele>
        <time>2020-08-21T09:52:35Z</time>
        <sat>12</sat>
      </trkpt>
      <trkpt lat="42.340259" lon="-3.842670">
        <ele>834.2</ele>
        <time>2020-08-21T09:52:42Z</time>
        <sat>12</sat>
      </trkpt>
      <trkpt lat="42.340244" lon="-3.842784">
        <ele>834.7</ele>
        <time>2020-08-21T09:52:49Z</time>
        <sat>12</sat>
      </trkpt>
      <trkpt lat="42.340229" lon="-3.842900">
        <ele>835.2</ele>
        <time>2020-08-21T09:52:56Z</time>
        <sat>12</sat>
      </trkpt>
      <trkpt lat="42.340215" lon="-3.843015">
        <ele>835.7</ele>
        <time>2020-08-21T09:53:03Z</time>
        <sat>12</sat>
      </trkpt>
      <trkpt lat="42.340204" lon="-3.843135">
        <ele>836.1</ele>
        <time>2020-08-21T09:53:10Z</time>
        <sat>12</sat>
      </trkpt>
      <trkpt lat="42.340189" lon="-3.843253">
        <ele>836.5</ele>
        <time>2020-08-21T09:53:17Z</time>
        <sat>12</sat>
      </trkpt>
      <trkpt lat="42.340180" lon="-3.843368">
        <ele>836.9</ele>
        <time>2020-08-21T09:53:24Z</time>
        <sat>12</sat>
      </trkpt>
      <trkpt lat="42.340173" lon="-3.843487">
        <ele>837.3</ele>
        <time>2020-08-21T09:53:31Z</time>
        <sat>12</sat>
      </trkpt>
      <trkpt lat="42.340171" lon="-3.843605">
        <ele>837.5</ele>
        <time>2020-08-21T09:53:38Z</time>
        <sat>12</sat>
      </trkpt>
      <trkpt lat="42.340174" lon="-3.843720">
        <ele>837.8</ele>
        <time>2020-08-21T09:53:45Z</time>
        <sat>12</sat>
      </trkpt>
      <trkpt lat="42.340179" lon="-3.843838">
        <ele>838.2</ele>
        <time>2020-08-21T09:53:52Z</time>
        <sat>12</sat>
      </trkpt>
      <trkpt lat="42.340184" lon="-3.843958">
        <ele>838.4</ele>
        <time>2020-08-21T09:53:59Z</time>
        <sat>12</sat>
      </trkpt>
      <trkpt lat="42.340200" lon="-3.844072">
        <ele>838.6</ele>
        <time>2020-08-21T09:54:06Z</time>
        <sat>12</sat>
      </trkpt>
      <trkpt lat="42.340205" lon="-3.844192">
        <ele>838.7</ele>
        <time>2020-08-21T09:54:13Z</time>
        <sat>12</sat>
      </trkpt>
      <trkpt lat="42.340224" lon="-3.844310">
        <ele>838.8</ele>
        <time>2020-08-21T09:54:20Z</time>
        <sat>12</sat>
      </trkpt>
      <trkpt lat="42.340239" lon="-3.844422">
        <ele>839.0</ele>
        <time>2020-08-21T09:54:27Z</time>
        <sat>12</sat>
      </trkpt>
      <trkpt lat="42.340253" lon="-3.844543">
        <ele>839.0</ele>
        <time>2020-08-21T09:54:34Z</time>
        <sat>12</sat>
      </trkpt>
      <trkpt lat="42.340265" lon="-3.844664">
        <ele>839.2</ele>
        <time>2020-08-21T09:54:41Z</time>
        <sat>12</sat>
      </trkpt>
      <trkpt lat="42.340285" lon="-3.844784">
        <ele>839.2</ele>
        <time>2020-08-21T09:54:48Z</time>
        <sat>12</sat>
      </trkpt>
      <trkpt lat="42.340304" lon="-3.844904">
        <ele>839.3</ele>
        <time>2020-08-21T09:54:55Z</time>
        <sat>12</sat>
      </trkpt>
      <trkpt lat="42.340316" lon="-3.845022">
        <ele>839.3</ele>
        <time>2020-08-21T09:55:02Z</time>
        <sat>12</sat>
      </trkpt>
      <trkpt lat="42.340328" lon="-3.845137">
        <ele>839.4</ele>
        <time>2020-08-21T09:55:09Z</time>
        <sat>12</sat>
      </trkpt>
      <trkpt lat="42.340339" lon="-3.845256">
        <ele>839.5</ele>
        <time>2020-08-21T09:55:16Z</time>
        <sat>12</sat>
      </trkpt>
      <trkpt lat="42.340352" lon="-3.845374">
        <ele>839.5</ele>
        <time>2020-08-21T09:55:23Z</time>
        <sat>12</sat>
      </trkpt>
      <trkpt lat="42.340363" lon="-3.845493">
        <ele>839.6</ele>
        <time>2020-08-21T09:55:30Z</time>
        <sat>12</sat>
      </trkpt>
      <trkpt lat="42.340369" lon="-3.845616">
        <ele>839.6</ele>
        <time>2020-08-21T09:55:37Z</time>
        <sat>12</sat>
      </trkpt>
      <trkpt lat="42.340367" lon="-3.845735">
        <ele>839.6</ele>
        <time>2020-08-21T09:55:44Z</time>
        <sat>12</sat>
      </trkpt>
      <trkpt lat="42.340366" lon="-3.845857">
        <ele>839.5</ele>
        <time>2020-08-21T09:55:51Z</time>
        <sat>12</sat>
      </trkpt>
      <trkpt lat="42.340369" lon="-3.845973">
        <ele>839.3</ele>
        <time>2020-08-21T09:55:58Z</time>
        <sat>12</sat>
      </trkpt>
      <trkpt lat="42.340367" lon="-3.846085">
        <ele>839.2</ele>
        <time>2020-08-21T09:56:05Z</time>
        <sat>12</sat>
      </trkpt>
      <trkpt lat="42.340356" lon="-3.846203">
        <ele>839.2</ele>
        <time>2020-08-21T09:56:12Z</time>
        <sat>12</sat>
      </trkpt>
      <trkpt lat="42.340354" lon="-3.846319">
        <ele>839.3</ele>
        <time>2020-08-21T09:56:19Z</time>
        <sat>12</sat>
      </trkpt>
      <trkpt lat="42.340352" lon="-3.846437">
        <ele>839.3</ele>
        <time>2020-08-21T09:56:26Z</time>
        <sat>12</sat>
      </trkpt>
      <trkpt lat="42.340357" lon="-3.846554">
        <ele>839.4</ele>
        <time>2020-08-21T09:56:33Z</time>
        <sat>12</sat>
      </trkpt>
      <trkpt lat="42.340365" lon="-3.846672">
        <ele>839.6</ele>
        <time>2020-08-21T09:56:40Z</time>
        <sat>12</sat>
      </trkpt>
      <trkpt lat="42.340379" lon="-3.846788">
        <ele>839.6</ele>
        <time>2020-08-21T09:56:47Z</time>
        <sat>12</sat>
      </trkpt>
      <trkpt lat="42.340386" lon="-3.846905">
        <ele>839.7</ele>
        <time>2020-08-21T09:56:54Z</time>
        <sat>12</sat>
      </trkpt>
      <trkpt lat="42.340393" lon="-3.847027">
        <ele>839.8</ele>
        <time>2020-08-21T09:57:01Z</time>
        <sat>12</sat>
      </trkpt>
      <trkpt lat="42.340404" lon="-3.847145">
        <ele>840.0</ele>
        <time>2020-08-21T09:57:08Z</time>
        <sat>12</sat>
      </trkpt>
      <trkpt lat="42.340419" lon="-3.847259">
        <ele>840.1</ele>
        <time>2020-08-21T09:57:15Z</time>
        <sat>12</sat>
      </trkpt>
      <trkpt lat="42.340449" lon="-3.847363">
        <ele>840.4</ele>
        <time>2020-08-21T09:57:43Z</time>
        <sat>12</sat>
      </trkpt>
      <trkpt lat="42.340456" lon="-3.847480">
        <ele>840.4</ele>
        <time>2020-08-21T10:00:09Z</time>
        <sat>12</sat>
      </trkpt>
      <trkpt lat="42.340469" lon="-3.847591">
        <ele>840.4</ele>
        <time>2020-08-21T10:00:17Z</time>
        <sat>12</sat>
      </trkpt>
      <trkpt lat="42.340472" lon="-3.847715">
        <ele>840.5</ele>
        <time>2020-08-21T10:00:25Z</time>
        <sat>11</sat>
      </trkpt>
      <trkpt lat="42.340477" lon="-3.847838">
        <ele>840.6</ele>
        <time>2020-08-21T10:00:33Z</time>
        <sat>12</sat>
      </trkpt>
      <trkpt lat="42.340489" lon="-3.847956">
        <ele>840.8</ele>
        <time>2020-08-21T10:00:41Z</time>
        <sat>12</sat>
      </trkpt>
      <trkpt lat="42.340495" lon="-3.848081">
        <ele>840.9</ele>
        <time>2020-08-21T10:00:49Z</time>
        <sat>11</sat>
      </trkpt>
      <trkpt lat="42.340501" lon="-3.848195">
        <ele>841.1</ele>
        <time>2020-08-21T10:00:56Z</time>
        <sat>11</sat>
      </trkpt>
      <trkpt lat="42.340513" lon="-3.848309">
        <ele>841.1</ele>
        <time>2020-08-21T10:01:03Z</time>
        <sat>12</sat>
      </trkpt>
      <trkpt lat="42.340526" lon="-3.848425">
        <ele>841.1</ele>
        <time>2020-08-21T10:01:10Z</time>
        <sat>12</sat>
      </trkpt>
      <trkpt lat="42.340543" lon="-3.848539">
        <ele>841.2</ele>
        <time>2020-08-21T10:01:17Z</time>
        <sat>12</sat>
      </trkpt>
      <trkpt lat="42.340560" lon="-3.848653">
        <ele>841.3</ele>
        <time>2020-08-21T10:01:24Z</time>
        <sat>11</sat>
      </trkpt>
      <trkpt lat="42.340575" lon="-3.848767">
        <ele>841.5</ele>
        <time>2020-08-21T10:01:31Z</time>
        <sat>11</sat>
      </trkpt>
      <trkpt lat="42.340595" lon="-3.848877">
        <ele>841.5</ele>
        <time>2020-08-21T10:01:38Z</time>
        <sat>12</sat>
      </trkpt>
      <trkpt lat="42.340614" lon="-3.848987">
        <ele>841.6</ele>
        <time>2020-08-21T10:01:45Z</time>
        <sat>11</sat>
      </trkpt>
      <trkpt lat="42.340634" lon="-3.849102">
        <ele>841.8</ele>
        <time>2020-08-21T10:01:52Z</time>
        <sat>12</sat>
      </trkpt>
      <trkpt lat="42.340662" lon="-3.849219">
        <ele>841.9</ele>
        <time>2020-08-21T10:02:00Z</time>
        <sat>11</sat>
      </trkpt>
      <trkpt lat="42.340678" lon="-3.849333">
        <ele>841.9</ele>
        <time>2020-08-21T10:02:07Z</time>
        <sat>11</sat>
      </trkpt>
      <trkpt lat="42.340713" lon="-3.849445">
        <ele>842.0</ele>
        <time>2020-08-21T10:02:14Z</time>
        <sat>11</sat>
      </trkpt>
      <trkpt lat="42.340758" lon="-3.849549">
        <ele>842.2</ele>
        <time>2020-08-21T10:02:21Z</time>
        <sat>12</sat>
      </trkpt>
      <trkpt lat="42.340809" lon="-3.849640">
        <ele>842.1</ele>
        <time>2020-08-21T10:02:28Z</time>
        <sat>11</sat>
      </trkpt>
      <trkpt lat="42.340864" lon="-3.849730">
        <ele>842.2</ele>
        <time>2020-08-21T10:02:35Z</time>
        <sat>10</sat>
      </trkpt>
      <trkpt lat="42.340929" lon="-3.849817">
        <ele>842.3</ele>
        <time>2020-08-21T10:02:42Z</time>
        <sat>11</sat>
      </trkpt>
      <trkpt lat="42.340987" lon="-3.849907">
        <ele>842.4</ele>
        <time>2020-08-21T10:02:49Z</time>
        <sat>10</sat>
      </trkpt>
      <trkpt lat="42.341035" lon="-3.850003">
        <ele>842.5</ele>
        <time>2020-08-21T10:02:56Z</time>
        <sat>12</sat>
      </trkpt>
      <trkpt lat="42.341070" lon="-3.850108">
        <ele>842.6</ele>
        <time>2020-08-21T10:03:03Z</time>
        <sat>12</sat>
      </trkpt>
      <trkpt lat="42.341103" lon="-3.850220">
        <ele>842.9</ele>
        <time>2020-08-21T10:03:10Z</time>
        <sat>12</sat>
      </trkpt>
      <trkpt lat="42.341122" lon="-3.850333">
        <ele>843.0</ele>
        <time>2020-08-21T10:03:17Z</time>
        <sat>12</sat>
      </trkpt>
      <trkpt lat="42.341140" lon="-3.850451">
        <ele>843.1</ele>
        <time>2020-08-21T10:03:24Z</time>
        <sat>11</sat>
      </trkpt>
      <trkpt lat="42.341153" lon="-3.850571">
        <ele>843.3</ele>
        <time>2020-08-21T10:03:31Z</time>
        <sat>12</sat>
      </trkpt>
      <trkpt lat="42.341164" lon="-3.850691">
        <ele>843.4</ele>
        <time>2020-08-21T10:03:38Z</time>
        <sat>11</sat>
      </trkpt>
      <trkpt lat="42.341173" lon="-3.850809">
        <ele>843.6</ele>
        <time>2020-08-21T10:03:45Z</time>
        <sat>11</sat>
      </trkpt>
      <trkpt lat="42.341182" lon="-3.850930">
        <ele>843.8</ele>
        <time>2020-08-21T10:03:52Z</time>
        <sat>12</sat>
      </trkpt>
      <trkpt lat="42.341192" lon="-3.851049">
        <ele>844.1</ele>
        <time>2020-08-21T10:03:59Z</time>
        <sat>11</sat>
      </trkpt>
      <trkpt lat="42.341200" lon="-3.851166">
        <ele>844.2</ele>
        <time>2020-08-21T10:04:06Z</time>
        <sat>11</sat>
      </trkpt>
      <trkpt lat="42.341212" lon="-3.851286">
        <ele>844.5</ele>
        <time>2020-08-21T10:04:13Z</time>
        <sat>11</sat>
      </trkpt>
      <trkpt lat="42.341223" lon="-3.851401">
        <ele>844.6</ele>
        <time>2020-08-21T10:04:20Z</time>
        <sat>12</sat>
      </trkpt>
      <trkpt lat="42.341230" lon="-3.851516">
        <ele>844.8</ele>
        <time>2020-08-21T10:04:27Z</time>
        <sat>12</sat>
      </trkpt>
      <trkpt lat="42.341236" lon="-3.851636">
        <ele>845.3</ele>
        <time>2020-08-21T10:04:34Z</time>
        <sat>11</sat>
      </trkpt>
      <trkpt lat="42.341248" lon="-3.851751">
        <ele>845.7</ele>
        <time>2020-08-21T10:04:41Z</time>
        <sat>12</sat>
      </trkpt>
      <trkpt lat="42.341270" lon="-3.851872">
        <ele>846.4</ele>
        <time>2020-08-21T10:04:50Z</time>
        <sat>11</sat>
      </trkpt>
      <trkpt lat="42.341282" lon="-3.851986">
        <ele>846.8</ele>
        <time>2020-08-21T10:04:57Z</time>
        <sat>12</sat>
      </trkpt>
      <trkpt lat="42.341288" lon="-3.852096">
        <ele>847.3</ele>
        <time>2020-08-21T10:05:03Z</time>
        <sat>12</sat>
      </trkpt>
      <trkpt lat="42.341295" lon="-3.852219">
        <ele>847.7</ele>
        <time>2020-08-21T10:05:10Z</time>
        <sat>12</sat>
      </trkpt>
      <trkpt lat="42.341304" lon="-3.852344">
        <ele>848.3</ele>
        <time>2020-08-21T10:05:17Z</time>
        <sat>12</sat>
      </trkpt>
      <trkpt lat="42.341312" lon="-3.852469">
        <ele>848.8</ele>
        <time>2020-08-21T10:05:24Z</time>
        <sat>12</sat>
      </trkpt>
      <trkpt lat="42.341319" lon="-3.852587">
        <ele>849.4</ele>
        <time>2020-08-21T10:05:31Z</time>
        <sat>12</sat>
      </trkpt>
      <trkpt lat="42.341329" lon="-3.852709">
        <ele>849.7</ele>
        <time>2020-08-21T10:05:38Z</time>
        <sat>11</sat>
      </trkpt>
      <trkpt lat="42.341342" lon="-3.852828">
        <ele>850.2</ele>
        <time>2020-08-21T10:05:45Z</time>
        <sat>11</sat>
      </trkpt>
      <trkpt lat="42.341360" lon="-3.852950">
        <ele>850.6</ele>
        <time>2020-08-21T10:05:52Z</time>
        <sat>11</sat>
      </trkpt>
      <trkpt lat="42.341374" lon="-3.853070">
        <ele>850.8</ele>
        <time>2020-08-21T10:05:59Z</time>
        <sat>11</sat>
      </trkpt>
      <trkpt lat="42.341390" lon="-3.853191">
        <ele>851.0</ele>
        <time>2020-08-21T10:06:06Z</time>
        <sat>11</sat>
      </trkpt>
      <trkpt lat="42.341404" lon="-3.853313">
        <ele>851.2</ele>
        <time>2020-08-21T10:06:13Z</time>
        <sat>12</sat>
      </trkpt>
      <trkpt lat="42.341422" lon="-3.853432">
        <ele>851.5</ele>
        <time>2020-08-21T10:06:20Z</time>
        <sat>12</sat>
      </trkpt>
      <trkpt lat="42.341434" lon="-3.853551">
        <ele>851.9</ele>
        <time>2020-08-21T10:06:27Z</time>
        <sat>12</sat>
      </trkpt>
      <trkpt lat="42.341446" lon="-3.853673">
        <ele>852.2</ele>
        <time>2020-08-21T10:06:34Z</time>
        <sat>12</sat>
      </trkpt>
      <trkpt lat="42.341447" lon="-3.853798">
        <ele>852.5</ele>
        <time>2020-08-21T10:06:41Z</time>
        <sat>12</sat>
      </trkpt>
      <trkpt lat="42.341447" lon="-3.853920">
        <ele>852.7</ele>
        <time>2020-08-21T10:06:48Z</time>
        <sat>12</sat>
      </trkpt>
      <trkpt lat="42.341444" lon="-3.854048">
        <ele>852.9</ele>
        <time>2020-08-21T10:06:55Z</time>
        <sat>12</sat>
      </trkpt>
      <trkpt lat="42.341437" lon="-3.854171">
        <ele>853.1</ele>
        <time>2020-08-21T10:07:02Z</time>
        <sat>12</sat>
      </trkpt>
      <trkpt lat="42.341427" lon="-3.854295">
        <ele>853.3</ele>
        <time>2020-08-21T10:07:09Z</time>
        <sat>12</sat>
      </trkpt>
      <trkpt lat="42.341413" lon="-3.854415">
        <ele>853.5</ele>
        <time>2020-08-21T10:07:16Z</time>
        <sat>12</sat>
      </trkpt>
      <trkpt lat="42.341400" lon="-3.854532">
        <ele>853.8</ele>
        <time>2020-08-21T10:07:23Z</time>
        <sat>12</sat>
      </trkpt>
      <trkpt lat="42.341386" lon="-3.854648">
        <ele>854.1</ele>
        <time>2020-08-21T10:07:30Z</time>
        <sat>12</sat>
      </trkpt>
      <trkpt lat="42.341375" lon="-3.854768">
        <ele>854.4</ele>
        <time>2020-08-21T10:07:37Z</time>
        <sat>12</sat>
      </trkpt>
      <trkpt lat="42.341361" lon="-3.854887">
        <ele>854.8</ele>
        <time>2020-08-21T10:07:44Z</time>
        <sat>12</sat>
      </trkpt>
      <trkpt lat="42.341346" lon="-3.855005">
        <ele>855.0</ele>
        <time>2020-08-21T10:07:51Z</time>
        <sat>11</sat>
      </trkpt>
      <trkpt lat="42.341336" lon="-3.855127">
        <ele>855.2</ele>
        <time>2020-08-21T10:07:58Z</time>
        <sat>12</sat>
      </trkpt>
      <trkpt lat="42.341315" lon="-3.855245">
        <ele>855.3</ele>
        <time>2020-08-21T10:08:05Z</time>
        <sat>12</sat>
      </trkpt>
      <trkpt lat="42.341295" lon="-3.855365">
        <ele>855.4</ele>
        <time>2020-08-21T10:08:12Z</time>
        <sat>12</sat>
      </trkpt>
      <trkpt lat="42.341272" lon="-3.855483">
        <ele>855.4</ele>
        <time>2020-08-21T10:08:19Z</time>
        <sat>12</sat>
      </trkpt>
      <trkpt lat="42.341246" lon="-3.855598">
        <ele>855.4</ele>
        <time>2020-08-21T10:08:26Z</time>
        <sat>12</sat>
      </trkpt>
      <trkpt lat="42.341222" lon="-3.855716">
        <ele>855.3</ele>
        <time>2020-08-21T10:08:33Z</time>
        <sat>12</sat>
      </trkpt>
      <trkpt lat="42.341200" lon="-3.855831">
        <ele>854.8</ele>
        <time>2020-08-21T10:08:40Z</time>
        <sat>12</sat>
      </trkpt>
      <trkpt lat="42.341184" lon="-3.855942">
        <ele>854.6</ele>
        <time>2020-08-21T10:08:47Z</time>
        <sat>11</sat>
      </trkpt>
      <trkpt lat="42.341168" lon="-3.856061">
        <ele>852.1</ele>
        <time>2020-08-21T10:08:54Z</time>
        <sat>12</sat>
      </trkpt>
      <trkpt lat="42.341150" lon="-3.856183">
        <ele>854.0</ele>
        <time>2020-08-21T10:09:01Z</time>
        <sat>12</sat>
      </trkpt>
      <trkpt lat="42.341145" lon="-3.856296">
        <ele>854.1</ele>
        <time>2020-08-21T10:09:08Z</time>
        <sat>12</sat>
      </trkpt>
      <trkpt lat="42.341137" lon="-3.856420">
        <ele>855.0</ele>
        <time>2020-08-21T10:09:15Z</time>
        <sat>12</sat>
      </trkpt>
      <trkpt lat="42.341121" lon="-3.856543">
        <ele>855.4</ele>
        <time>2020-08-21T10:09:22Z</time>
        <sat>12</sat>
      </trkpt>
      <trkpt lat="42.341116" lon="-3.856663">
        <ele>855.6</ele>
        <time>2020-08-21T10:09:30Z</time>
        <sat>12</sat>
      </trkpt>
      <trkpt lat="42.341096" lon="-3.856788">
        <ele>855.7</ele>
        <time>2020-08-21T10:09:37Z</time>
        <sat>12</sat>
      </trkpt>
      <trkpt lat="42.341082" lon="-3.856910">
        <ele>855.8</ele>
        <time>2020-08-21T10:09:44Z</time>
        <sat>12</sat>
      </trkpt>
      <trkpt lat="42.341066" lon="-3.857031">
        <ele>855.8</ele>
        <time>2020-08-21T10:09:51Z</time>
        <sat>12</sat>
      </trkpt>
      <trkpt lat="42.341053" lon="-3.857154">
        <ele>855.8</ele>
        <time>2020-08-21T10:09:58Z</time>
        <sat>12</sat>
      </trkpt>
      <trkpt lat="42.341035" lon="-3.857273">
        <ele>856.0</ele>
        <time>2020-08-21T10:10:05Z</time>
        <sat>12</sat>
      </trkpt>
      <trkpt lat="42.341016" lon="-3.857393">
        <ele>856.2</ele>
        <time>2020-08-21T10:10:12Z</time>
        <sat>12</sat>
      </trkpt>
      <trkpt lat="42.341001" lon="-3.857517">
        <ele>856.4</ele>
        <time>2020-08-21T10:10:19Z</time>
        <sat>12</sat>
      </trkpt>
      <trkpt lat="42.340984" lon="-3.857639">
        <ele>856.6</ele>
        <time>2020-08-21T10:10:26Z</time>
        <sat>12</sat>
      </trkpt>
      <trkpt lat="42.340961" lon="-3.857756">
        <ele>856.6</ele>
        <time>2020-08-21T10:10:33Z</time>
        <sat>12</sat>
      </trkpt>
      <trkpt lat="42.340945" lon="-3.857876">
        <ele>856.7</ele>
        <time>2020-08-21T10:10:40Z</time>
        <sat>12</sat>
      </trkpt>
      <trkpt lat="42.340935" lon="-3.857997">
        <ele>856.9</ele>
        <time>2020-08-21T10:10:47Z</time>
        <sat>12</sat>
      </trkpt>
      <trkpt lat="42.340919" lon="-3.858112">
        <ele>857.1</ele>
        <time>2020-08-21T10:10:54Z</time>
        <sat>11</sat>
      </trkpt>
      <trkpt lat="42.340907" lon="-3.858230">
        <ele>857.3</ele>
        <time>2020-08-21T10:11:01Z</time>
        <sat>11</sat>
      </trkpt>
      <trkpt lat="42.340893" lon="-3.858346">
        <ele>857.8</ele>
        <time>2020-08-21T10:11:08Z</time>
        <sat>11</sat>
      </trkpt>
      <trkpt lat="42.340898" lon="-3.858464">
        <ele>858.4</ele>
        <time>2020-08-21T10:11:15Z</time>
        <sat>12</sat>
      </trkpt>
      <trkpt lat="42.340912" lon="-3.858578">
        <ele>859.5</ele>
        <time>2020-08-21T10:15:12Z</time>
        <sat>12</sat>
      </trkpt>
      <trkpt lat="42.340905" lon="-3.858698">
        <ele>859.7</ele>
        <time>2020-08-21T10:15:21Z</time>
        <sat>12</sat>
      </trkpt>
      <trkpt lat="42.340897" lon="-3.858816">
        <ele>859.6</ele>
        <time>2020-08-21T10:15:29Z</time>
        <sat>12</sat>
      </trkpt>
      <trkpt lat="42.340895" lon="-3.858937">
        <ele>858.8</ele>
        <time>2020-08-21T10:15:37Z</time>
        <sat>12</sat>
      </trkpt>
      <trkpt lat="42.340890" lon="-3.859051">
        <ele>859.0</ele>
        <time>2020-08-21T10:15:44Z</time>
        <sat>12</sat>
      </trkpt>
      <trkpt lat="42.340886" lon="-3.859164">
        <ele>859.1</ele>
        <time>2020-08-21T10:15:51Z</time>
        <sat>12</sat>
      </trkpt>
      <trkpt lat="42.340880" lon="-3.859278">
        <ele>859.0</ele>
        <time>2020-08-21T10:15:58Z</time>
        <sat>12</sat>
      </trkpt>
      <trkpt lat="42.340874" lon="-3.859390">
        <ele>858.6</ele>
        <time>2020-08-21T10:16:06Z</time>
        <sat>12</sat>
      </trkpt>
      <trkpt lat="42.340870" lon="-3.859516">
        <ele>858.6</ele>
        <time>2020-08-21T10:16:14Z</time>
        <sat>12</sat>
      </trkpt>
      <trkpt lat="42.340873" lon="-3.859631">
        <ele>858.7</ele>
        <time>2020-08-21T10:16:21Z</time>
        <sat>12</sat>
      </trkpt>
      <trkpt lat="42.340869" lon="-3.859749">
        <ele>858.6</ele>
        <time>2020-08-21T10:16:28Z</time>
        <sat>12</sat>
      </trkpt>
      <trkpt lat="42.340873" lon="-3.859867">
        <ele>858.6</ele>
        <time>2020-08-21T10:16:35Z</time>
        <sat>12</sat>
      </trkpt>
      <trkpt lat="42.340877" lon="-3.859983">
        <ele>858.7</ele>
        <time>2020-08-21T10:16:42Z</time>
        <sat>12</sat>
      </trkpt>
      <trkpt lat="42.340875" lon="-3.860106">
        <ele>858.7</ele>
        <time>2020-08-21T10:16:49Z</time>
        <sat>12</sat>
      </trkpt>
      <trkpt lat="42.340868" lon="-3.860225">
        <ele>858.5</ele>
        <time>2020-08-21T10:16:56Z</time>
        <sat>12</sat>
      </trkpt>
      <trkpt lat="42.340862" lon="-3.860346">
        <ele>858.4</ele>
        <time>2020-08-21T10:17:03Z</time>
        <sat>12</sat>
      </trkpt>
      <trkpt lat="42.340853" lon="-3.860466">
        <ele>858.4</ele>
        <time>2020-08-21T10:17:10Z</time>
        <sat>12</sat>
      </trkpt>
      <trkpt lat="42.340848" lon="-3.860585">
        <ele>858.5</ele>
        <time>2020-08-21T10:17:17Z</time>
        <sat>12</sat>
      </trkpt>
      <trkpt lat="42.340838" lon="-3.860703">
        <ele>858.6</ele>
        <time>2020-08-21T10:17:24Z</time>
        <sat>12</sat>
      </trkpt>
      <trkpt lat="42.340827" lon="-3.860829">
        <ele>858.8</ele>
        <time>2020-08-21T10:17:31Z</time>
        <sat>12</sat>
      </trkpt>
      <trkpt lat="42.340810" lon="-3.860946">
        <ele>859.0</ele>
        <time>2020-08-21T10:17:38Z</time>
        <sat>12</sat>
      </trkpt>
      <trkpt lat="42.340797" lon="-3.861063">
        <ele>859.2</ele>
        <time>2020-08-21T10:17:45Z</time>
        <sat>12</sat>
      </trkpt>
      <trkpt lat="42.340784" lon="-3.861180">
        <ele>859.4</ele>
        <time>2020-08-21T10:17:52Z</time>
        <sat>12</sat>
      </trkpt>
      <trkpt lat="42.340772" lon="-3.861299">
        <ele>859.4</ele>
        <time>2020-08-21T10:17:59Z</time>
        <sat>12</sat>
      </trkpt>
      <trkpt lat="42.340764" lon="-3.861418">
        <ele>859.6</ele>
        <time>2020-08-21T10:18:06Z</time>
        <sat>12</sat>
      </trkpt>
      <trkpt lat="42.340756" lon="-3.861536">
        <ele>859.9</ele>
        <time>2020-08-21T10:18:13Z</time>
        <sat>12</sat>
      </trkpt>
      <trkpt lat="42.340748" lon="-3.861653">
        <ele>860.0</ele>
        <time>2020-08-21T10:18:20Z</time>
        <sat>12</sat>
      </trkpt>
      <trkpt lat="42.340744" lon="-3.861771">
        <ele>860.3</ele>
        <time>2020-08-21T10:18:27Z</time>
        <sat>12</sat>
      </trkpt>
      <trkpt lat="42.340744" lon="-3.861887">
        <ele>860.6</ele>
        <time>2020-08-21T10:18:34Z</time>
        <sat>12</sat>
      </trkpt>
      <trkpt lat="42.340742" lon="-3.862006">
        <ele>860.8</ele>
        <time>2020-08-21T10:18:41Z</time>
        <sat>12</sat>
      </trkpt>
      <trkpt lat="42.340741" lon="-3.862125">
        <ele>861.0</ele>
        <time>2020-08-21T10:18:48Z</time>
        <sat>12</sat>
      </trkpt>
      <trkpt lat="42.340741" lon="-3.862250">
        <ele>861.2</ele>
        <time>2020-08-21T10:18:55Z</time>
        <sat>12</sat>
      </trkpt>
      <trkpt lat="42.340739" lon="-3.862369">
        <ele>861.5</ele>
        <time>2020-08-21T10:19:02Z</time>
        <sat>12</sat>
      </trkpt>
      <trkpt lat="42.340742" lon="-3.862494">
        <ele>861.5</ele>
        <time>2020-08-21T10:19:09Z</time>
        <sat>12</sat>
      </trkpt>
      <trkpt lat="42.340747" lon="-3.862612">
        <ele>861.6</ele>
        <time>2020-08-21T10:19:16Z</time>
        <sat>12</sat>
      </trkpt>
      <trkpt lat="42.340742" lon="-3.862734">
        <ele>861.8</ele>
        <time>2020-08-21T10:19:23Z</time>
        <sat>12</sat>
      </trkpt>
      <trkpt lat="42.340746" lon="-3.862853">
        <ele>861.8</ele>
        <time>2020-08-21T10:19:30Z</time>
        <sat>12</sat>
      </trkpt>
      <trkpt lat="42.340752" lon="-3.862976">
        <ele>861.8</ele>
        <time>2020-08-21T10:19:37Z</time>
        <sat>12</sat>
      </trkpt>
      <trkpt lat="42.340753" lon="-3.863101">
        <ele>861.8</ele>
        <time>2020-08-21T10:19:44Z</time>
        <sat>11</sat>
      </trkpt>
      <trkpt lat="42.340754" lon="-3.863222">
        <ele>862.0</ele>
        <time>2020-08-21T10:19:51Z</time>
        <sat>12</sat>
      </trkpt>
      <trkpt lat="42.340758" lon="-3.863346">
        <ele>862.2</ele>
        <time>2020-08-21T10:19:58Z</time>
        <sat>12</sat>
      </trkpt>
      <trkpt lat="42.340754" lon="-3.863468">
        <ele>862.2</ele>
        <time>2020-08-21T10:20:05Z</time>
        <sat>12</sat>
      </trkpt>
      <trkpt lat="42.340752" lon="-3.863592">
        <ele>862.3</ele>
        <time>2020-08-21T10:20:13Z</time>
        <sat>11</sat>
      </trkpt>
      <trkpt lat="42.340740" lon="-3.863711">
        <ele>862.4</ele>
        <time>2020-08-21T10:20:20Z</time>
        <sat>12</sat>
      </trkpt>
      <trkpt lat="42.340736" lon="-3.863829">
        <ele>862.4</ele>
        <time>2020-08-21T10:20:27Z</time>
        <sat>12</sat>
      </trkpt>
      <trkpt lat="42.340730" lon="-3.863944">
        <ele>862.4</ele>
        <time>2020-08-21T10:20:34Z</time>
        <sat>11</sat>
      </trkpt>
      <trkpt lat="42.340731" lon="-3.864058">
        <ele>862.5</ele>
        <time>2020-08-21T10:20:41Z</time>
        <sat>12</sat>
      </trkpt>
      <trkpt lat="42.340731" lon="-3.864171">
        <ele>862.6</ele>
        <time>2020-08-21T10:20:48Z</time>
        <sat>11</sat>
      </trkpt>
      <trkpt lat="42.340740" lon="-3.864290">
        <ele>863.0</ele>
        <time>2020-08-21T10:20:55Z</time>
        <sat>11</sat>
      </trkpt>
      <trkpt lat="42.340760" lon="-3.864399">
        <ele>863.2</ele>
        <time>2020-08-21T10:21:02Z</time>
        <sat>11</sat>
      </trkpt>
      <trkpt lat="42.340788" lon="-3.864508">
        <ele>863.4</ele>
        <time>2020-08-21T10:21:09Z</time>
        <sat>11</sat>
      </trkpt>
      <trkpt lat="42.340828" lon="-3.864616">
        <ele>863.5</ele>
        <time>2020-08-21T10:21:16Z</time>
        <sat>11</sat>
      </trkpt>
      <trkpt lat="42.340869" lon="-3.864721">
        <ele>863.6</ele>
        <time>2020-08-21T10:21:23Z</time>
        <sat>10</sat>
      </trkpt>
      <trkpt lat="42.340931" lon="-3.864797">
        <ele>863.7</ele>
        <time>2020-08-21T10:21:30Z</time>
        <sat>10</sat>
      </trkpt>
      <trkpt lat="42.341010" lon="-3.864824">
        <ele>863.9</ele>
        <time>2020-08-21T10:21:37Z</time>
        <sat>10</sat>
      </trkpt>
      <trkpt lat="42.341095" lon="-3.864843">
        <ele>864.0</ele>
        <time>2020-08-21T10:21:44Z</time>
        <sat>10</sat>
      </trkpt>
      <trkpt lat="42.341177" lon="-3.864867">
        <ele>864.0</ele>
        <time>2020-08-21T10:21:51Z</time>
        <sat>10</sat>
      </trkpt>
      <trkpt lat="42.341258" lon="-3.864876">
        <ele>863.9</ele>
        <time>2020-08-21T10:21:58Z</time>
        <sat>10</sat>
      </trkpt>
      <trkpt lat="42.341348" lon="-3.864843">
        <ele>863.6</ele>
        <time>2020-08-21T10:22:06Z</time>
        <sat>10</sat>
      </trkpt>
      <trkpt lat="42.341427" lon="-3.864780">
        <ele>863.2</ele>
        <time>2020-08-21T10:22:14Z</time>
        <sat>11</sat>
      </trkpt>
      <trkpt lat="42.341503" lon="-3.864728">
        <ele>862.3</ele>
        <time>2020-08-21T10:22:22Z</time>
        <sat>11</sat>
      </trkpt>
      <trkpt lat="42.341555" lon="-3.864644">
        <ele>861.6</ele>
        <time>2020-08-21T10:22:31Z</time>
        <sat>11</sat>
      </trkpt>
      <trkpt lat="42.341479" lon="-3.864711">
        <ele>860.9</ele>
        <time>2020-08-21T10:43:12Z</time>
        <sat>11</sat>
      </trkpt>
      <trkpt lat="42.341410" lon="-3.864769">
        <ele>861.0</ele>
        <time>2020-08-21T10:43:19Z</time>
        <sat>10</sat>
      </trkpt>
      <trkpt lat="42.341328" lon="-3.864828">
        <ele>861.4</ele>
        <time>2020-08-21T10:43:27Z</time>
        <sat>11</sat>
      </trkpt>
      <trkpt lat="42.341247" lon="-3.864848">
        <ele>862.4</ele>
        <time>2020-08-21T10:43:34Z</time>
        <sat>11</sat>
      </trkpt>
      <trkpt lat="42.341162" lon="-3.864831">
        <ele>862.3</ele>
        <time>2020-08-21T10:43:41Z</time>
        <sat>11</sat>
      </trkpt>
      <trkpt lat="42.341072" lon="-3.864816">
        <ele>863.3</ele>
        <time>2020-08-21T10:43:48Z</time>
        <sat>10</sat>
      </trkpt>
      <trkpt lat="42.340983" lon="-3.864828">
        <ele>863.6</ele>
        <time>2020-08-21T10:43:56Z</time>
        <sat>11</sat>
      </trkpt>
      <trkpt lat="42.340986" lon="-3.864941">
        <ele>863.9</ele>
        <time>2020-08-21T10:44:03Z</time>
        <sat>10</sat>
      </trkpt>
      <trkpt lat="42.341017" lon="-3.865046">
        <ele>864.1</ele>
        <time>2020-08-21T10:44:10Z</time>
        <sat>11</sat>
      </trkpt>
      <trkpt lat="42.341053" lon="-3.865160">
        <ele>864.3</ele>
        <time>2020-08-21T10:44:17Z</time>
        <sat>11</sat>
      </trkpt>
      <trkpt lat="42.341094" lon="-3.865270">
        <ele>864.5</ele>
        <time>2020-08-21T10:44:24Z</time>
        <sat>11</sat>
      </trkpt>
      <trkpt lat="42.341134" lon="-3.865384">
        <ele>864.7</ele>
        <time>2020-08-21T10:44:31Z</time>
        <sat>11</sat>
      </trkpt>
      <trkpt lat="42.341162" lon="-3.865496">
        <ele>865.0</ele>
        <time>2020-08-21T10:44:38Z</time>
        <sat>11</sat>
      </trkpt>
      <trkpt lat="42.341183" lon="-3.865603">
        <ele>865.2</ele>
        <time>2020-08-21T10:44:44Z</time>
        <sat>11</sat>
      </trkpt>
      <trkpt lat="42.341208" lon="-3.865723">
        <ele>865.4</ele>
        <time>2020-08-21T10:44:51Z</time>
        <sat>11</sat>
      </trkpt>
      <trkpt lat="42.341238" lon="-3.865826">
        <ele>865.7</ele>
        <time>2020-08-21T10:44:57Z</time>
        <sat>11</sat>
      </trkpt>
      <trkpt lat="42.341260" lon="-3.865946">
        <ele>865.9</ele>
        <time>2020-08-21T10:45:04Z</time>
        <sat>10</sat>
      </trkpt>
      <trkpt lat="42.341285" lon="-3.866065">
        <ele>866.1</ele>
        <time>2020-08-21T10:45:11Z</time>
        <sat>11</sat>
      </trkpt>
      <trkpt lat="42.341298" lon="-3.866173">
        <ele>866.2</ele>
        <time>2020-08-21T10:45:17Z</time>
        <sat>11</sat>
      </trkpt>
      <trkpt lat="42.341318" lon="-3.866297">
        <ele>866.6</ele>
        <time>2020-08-21T10:45:24Z</time>
        <sat>11</sat>
      </trkpt>
      <trkpt lat="42.341336" lon="-3.866418">
        <ele>866.7</ele>
        <time>2020-08-21T10:45:31Z</time>
        <sat>11</sat>
      </trkpt>
      <trkpt lat="42.341349" lon="-3.866533">
        <ele>866.9</ele>
        <time>2020-08-21T10:45:38Z</time>
        <sat>11</sat>
      </trkpt>
      <trkpt lat="42.341362" lon="-3.866652">
        <ele>867.2</ele>
        <time>2020-08-21T10:45:45Z</time>
        <sat>11</sat>
      </trkpt>
      <trkpt lat="42.341379" lon="-3.866760">
        <ele>867.5</ele>
        <time>2020-08-21T10:45:51Z</time>
        <sat>11</sat>
      </trkpt>
      <trkpt lat="42.341388" lon="-3.866882">
        <ele>867.8</ele>
        <time>2020-08-21T10:45:58Z</time>
        <sat>11</sat>
      </trkpt>
      <trkpt lat="42.341396" lon="-3.867000">
        <ele>868.3</ele>
        <time>2020-08-21T10:46:05Z</time>
        <sat>11</sat>
      </trkpt>
      <trkpt lat="42.341399" lon="-3.867120">
        <ele>868.8</ele>
        <time>2020-08-21T10:46:12Z</time>
        <sat>11</sat>
      </trkpt>
      <trkpt lat="42.341406" lon="-3.867242">
        <ele>869.3</ele>
        <time>2020-08-21T10:46:19Z</time>
        <sat>11</sat>
      </trkpt>
      <trkpt lat="42.341421" lon="-3.867364">
        <ele>869.9</ele>
        <time>2020-08-21T10:46:26Z</time>
        <sat>11</sat>
      </trkpt>
      <trkpt lat="42.341427" lon="-3.867489">
        <ele>870.5</ele>
        <time>2020-08-21T10:46:33Z</time>
        <sat>11</sat>
      </trkpt>
      <trkpt lat="42.341442" lon="-3.867613">
        <ele>871.0</ele>
        <time>2020-08-21T10:46:40Z</time>
        <sat>11</sat>
      </trkpt>
      <trkpt lat="42.341455" lon="-3.867733">
        <ele>871.5</ele>
        <time>2020-08-21T10:46:47Z</time>
        <sat>11</sat>
      </trkpt>
      <trkpt lat="42.341473" lon="-3.867853">
        <ele>872.1</ele>
        <time>2020-08-21T10:46:54Z</time>
        <sat>11</sat>
      </trkpt>
      <trkpt lat="42.341484" lon="-3.867961">
        <ele>872.5</ele>
        <time>2020-08-21T10:47:00Z</time>
        <sat>11</sat>
      </trkpt>
      <trkpt lat="42.341496" lon="-3.868070">
        <ele>873.0</ele>
        <time>2020-08-21T10:47:06Z</time>
        <sat>11</sat>
      </trkpt>
      <trkpt lat="42.341515" lon="-3.868193">
        <ele>873.5</ele>
        <time>2020-08-21T10:47:13Z</time>
        <sat>11</sat>
      </trkpt>
      <trkpt lat="42.341538" lon="-3.868312">
        <ele>874.2</ele>
        <time>2020-08-21T10:47:20Z</time>
        <sat>11</sat>
      </trkpt>
      <trkpt lat="42.341567" lon="-3.868427">
        <ele>875.0</ele>
        <time>2020-08-21T10:47:27Z</time>
        <sat>11</sat>
      </trkpt>
      <trkpt lat="42.341590" lon="-3.868536">
        <ele>875.5</ele>
        <time>2020-08-21T10:47:33Z</time>
        <sat>11</sat>
      </trkpt>
      <trkpt lat="42.341608" lon="-3.868643">
        <ele>875.9</ele>
        <time>2020-08-21T10:47:39Z</time>
        <sat>11</sat>
      </trkpt>
      <trkpt lat="42.341625" lon="-3.868751">
        <ele>876.0</ele>
        <time>2020-08-21T10:47:45Z</time>
        <sat>11</sat>
      </trkpt>
      <trkpt lat="42.341634" lon="-3.868875">
        <ele>876.3</ele>
        <time>2020-08-21T10:47:52Z</time>
        <sat>11</sat>
      </trkpt>
      <trkpt lat="42.341654" lon="-3.868984">
        <ele>876.3</ele>
        <time>2020-08-21T10:47:58Z</time>
        <sat>11</sat>
      </trkpt>
      <trkpt lat="42.341665" lon="-3.869107">
        <ele>876.3</ele>
        <time>2020-08-21T10:48:05Z</time>
        <sat>11</sat>
      </trkpt>
      <trkpt lat="42.341676" lon="-3.869233">
        <ele>876.4</ele>
        <time>2020-08-21T10:48:12Z</time>
        <sat>11</sat>
      </trkpt>
      <trkpt lat="42.341682" lon="-3.869342">
        <ele>876.5</ele>
        <time>2020-08-21T10:48:18Z</time>
        <sat>11</sat>
      </trkpt>
      <trkpt lat="42.341688" lon="-3.869468">
        <ele>876.7</ele>
        <time>2020-08-21T10:48:25Z</time>
        <sat>11</sat>
      </trkpt>
      <trkpt lat="42.341700" lon="-3.869580">
        <ele>876.7</ele>
        <time>2020-08-21T10:48:31Z</time>
        <sat>11</sat>
      </trkpt>
      <trkpt lat="42.341707" lon="-3.869706">
        <ele>876.8</ele>
        <time>2020-08-21T10:48:38Z</time>
        <sat>11</sat>
      </trkpt>
      <trkpt lat="42.341722" lon="-3.869818">
        <ele>876.8</ele>
        <time>2020-08-21T10:48:44Z</time>
        <sat>11</sat>
      </trkpt>
      <trkpt lat="42.341733" lon="-3.869942">
        <ele>876.9</ele>
        <time>2020-08-21T10:48:51Z</time>
        <sat>11</sat>
      </trkpt>
      <trkpt lat="42.341750" lon="-3.870066">
        <ele>877.1</ele>
        <time>2020-08-21T10:48:58Z</time>
        <sat>11</sat>
      </trkpt>
      <trkpt lat="42.341767" lon="-3.870190">
        <ele>877.2</ele>
        <time>2020-08-21T10:49:05Z</time>
        <sat>11</sat>
      </trkpt>
      <trkpt lat="42.341778" lon="-3.870316">
        <ele>877.4</ele>
        <time>2020-08-21T10:49:12Z</time>
        <sat>11</sat>
      </trkpt>
      <trkpt lat="42.341794" lon="-3.870438">
        <ele>877.3</ele>
        <time>2020-08-21T10:49:19Z</time>
        <sat>11</sat>
      </trkpt>
      <trkpt lat="42.341809" lon="-3.870556">
        <ele>877.4</ele>
        <time>2020-08-21T10:49:26Z</time>
        <sat>11</sat>
      </trkpt>
      <trkpt lat="42.341819" lon="-3.870665">
        <ele>877.5</ele>
        <time>2020-08-21T10:49:32Z</time>
        <sat>11</sat>
      </trkpt>
      <trkpt lat="42.341834" lon="-3.870790">
        <ele>877.6</ele>
        <time>2020-08-21T10:49:39Z</time>
        <sat>11</sat>
      </trkpt>
      <trkpt lat="42.341852" lon="-3.870912">
        <ele>877.7</ele>
        <time>2020-08-21T10:49:46Z</time>
        <sat>11</sat>
      </trkpt>
      <trkpt lat="42.341867" lon="-3.871032">
        <ele>877.9</ele>
        <time>2020-08-21T10:49:53Z</time>
        <sat>11</sat>
      </trkpt>
      <trkpt lat="42.341873" lon="-3.871158">
        <ele>877.9</ele>
        <time>2020-08-21T10:50:00Z</time>
        <sat>11</sat>
      </trkpt>
      <trkpt lat="42.341885" lon="-3.871283">
        <ele>878.1</ele>
        <time>2020-08-21T10:50:07Z</time>
        <sat>11</sat>
      </trkpt>
      <trkpt lat="42.341905" lon="-3.871405">
        <ele>878.3</ele>
        <time>2020-08-21T10:50:14Z</time>
        <sat>11</sat>
      </trkpt>
      <trkpt lat="42.341908" lon="-3.871516">
        <ele>878.3</ele>
        <time>2020-08-21T10:50:20Z</time>
        <sat>11</sat>
      </trkpt>
      <trkpt lat="42.341919" lon="-3.871628">
        <ele>878.3</ele>
        <time>2020-08-21T10:50:26Z</time>
        <sat>11</sat>
      </trkpt>
      <trkpt lat="42.341920" lon="-3.871752">
        <ele>878.4</ele>
        <time>2020-08-21T10:50:33Z</time>
        <sat>11</sat>
      </trkpt>
      <trkpt lat="42.341925" lon="-3.871863">
        <ele>878.3</ele>
        <time>2020-08-21T10:50:39Z</time>
        <sat>11</sat>
      </trkpt>
      <trkpt lat="42.341915" lon="-3.871990">
        <ele>878.3</ele>
        <time>2020-08-21T10:50:46Z</time>
        <sat>11</sat>
      </trkpt>
      <trkpt lat="42.341914" lon="-3.872117">
        <ele>878.3</ele>
        <time>2020-08-21T10:50:53Z</time>
        <sat>11</sat>
      </trkpt>
      <trkpt lat="42.341913" lon="-3.872228">
        <ele>878.4</ele>
        <time>2020-08-21T10:50:59Z</time>
        <sat>11</sat>
      </trkpt>
      <trkpt lat="42.341907" lon="-3.872353">
        <ele>878.7</ele>
        <time>2020-08-21T10:51:06Z</time>
        <sat>11</sat>
      </trkpt>
      <trkpt lat="42.341900" lon="-3.872479">
        <ele>878.8</ele>
        <time>2020-08-21T10:51:13Z</time>
        <sat>11</sat>
      </trkpt>
      <trkpt lat="42.341903" lon="-3.872601">
        <ele>879.0</ele>
        <time>2020-08-21T10:51:20Z</time>
        <sat>10</sat>
      </trkpt>
      <trkpt lat="42.341897" lon="-3.872713">
        <ele>879.3</ele>
        <time>2020-08-21T10:51:26Z</time>
        <sat>11</sat>
      </trkpt>
      <trkpt lat="42.341903" lon="-3.872837">
        <ele>879.5</ele>
        <time>2020-08-21T10:51:33Z</time>
        <sat>11</sat>
      </trkpt>
      <trkpt lat="42.341924" lon="-3.872959">
        <ele>879.9</ele>
        <time>2020-08-21T10:51:40Z</time>
        <sat>11</sat>
      </trkpt>
      <trkpt lat="42.341955" lon="-3.873076">
        <ele>880.2</ele>
        <time>2020-08-21T10:51:47Z</time>
        <sat>11</sat>
      </trkpt>
      <trkpt lat="42.341976" lon="-3.873197">
        <ele>880.5</ele>
        <time>2020-08-21T10:51:54Z</time>
        <sat>11</sat>
      </trkpt>
      <trkpt lat="42.341997" lon="-3.873319">
        <ele>880.7</ele>
        <time>2020-08-21T10:52:01Z</time>
        <sat>11</sat>
      </trkpt>
      <trkpt lat="42.342007" lon="-3.873430">
        <ele>880.8</ele>
        <time>2020-08-21T10:52:07Z</time>
        <sat>11</sat>
      </trkpt>
      <trkpt lat="42.342021" lon="-3.873557">
        <ele>880.8</ele>
        <time>2020-08-21T10:52:14Z</time>
        <sat>11</sat>
      </trkpt>
      <trkpt lat="42.342034" lon="-3.873680">
        <ele>880.9</ele>
        <time>2020-08-21T10:52:21Z</time>
        <sat>11</sat>
      </trkpt>
      <trkpt lat="42.342035" lon="-3.873792">
        <ele>881.1</ele>
        <time>2020-08-21T10:52:27Z</time>
        <sat>11</sat>
      </trkpt>
      <trkpt lat="42.342040" lon="-3.873918">
        <ele>881.4</ele>
        <time>2020-08-21T10:52:34Z</time>
        <sat>11</sat>
      </trkpt>
      <trkpt lat="42.342046" lon="-3.874042">
        <ele>881.7</ele>
        <time>2020-08-21T10:52:41Z</time>
        <sat>11</sat>
      </trkpt>
      <trkpt lat="42.342050" lon="-3.874165">
        <ele>882.0</ele>
        <time>2020-08-21T10:52:48Z</time>
        <sat>11</sat>
      </trkpt>
      <trkpt lat="42.342052" lon="-3.874275">
        <ele>882.5</ele>
        <time>2020-08-21T10:52:55Z</time>
        <sat>11</sat>
      </trkpt>
      <trkpt lat="42.342076" lon="-3.874382">
        <ele>883.7</ele>
        <time>2020-08-21T10:53:12Z</time>
        <sat>11</sat>
      </trkpt>
      <trkpt lat="42.342052" lon="-3.874487">
        <ele>883.9</ele>
        <time>2020-08-21T10:53:52Z</time>
        <sat>11</sat>
      </trkpt>
      <trkpt lat="42.342033" lon="-3.874597">
        <ele>884.3</ele>
        <time>2020-08-21T10:53:58Z</time>
        <sat>11</sat>
      </trkpt>
      <trkpt lat="42.342002" lon="-3.874714">
        <ele>884.7</ele>
        <time>2020-08-21T10:54:05Z</time>
        <sat>11</sat>
      </trkpt>
      <trkpt lat="42.341956" lon="-3.874815">
        <ele>884.8</ele>
        <time>2020-08-21T10:54:12Z</time>
        <sat>11</sat>
      </trkpt>
      <trkpt lat="42.341907" lon="-3.874915">
        <ele>885.5</ele>
        <time>2020-08-21T10:54:19Z</time>
        <sat>11</sat>
      </trkpt>
      <trkpt lat="42.341868" lon="-3.875017">
        <ele>886.1</ele>
        <time>2020-08-21T10:54:26Z</time>
        <sat>11</sat>
      </trkpt>
      <trkpt lat="42.341843" lon="-3.875134">
        <ele>886.6</ele>
        <time>2020-08-21T10:54:33Z</time>
        <sat>11</sat>
      </trkpt>
      <trkpt lat="42.341827" lon="-3.875252">
        <ele>887.2</ele>
        <time>2020-08-21T10:54:40Z</time>
        <sat>11</sat>
      </trkpt>
      <trkpt lat="42.341822" lon="-3.875377">
        <ele>887.7</ele>
        <time>2020-08-21T10:54:47Z</time>
        <sat>11</sat>
      </trkpt>
      <trkpt lat="42.341827" lon="-3.875504">
        <ele>888.0</ele>
        <time>2020-08-21T10:54:54Z</time>
        <sat>11</sat>
      </trkpt>
      <trkpt lat="42.341831" lon="-3.875630">
        <ele>888.3</ele>
        <time>2020-08-21T10:55:01Z</time>
        <sat>11</sat>
      </trkpt>
      <trkpt lat="42.341837" lon="-3.875750">
        <ele>888.5</ele>
        <time>2020-08-21T10:55:08Z</time>
        <sat>11</sat>
      </trkpt>
      <trkpt lat="42.341850" lon="-3.875870">
        <ele>888.9</ele>
        <time>2020-08-21T10:55:15Z</time>
        <sat>11</sat>
      </trkpt>
      <trkpt lat="42.341863" lon="-3.875995">
        <ele>889.3</ele>
        <time>2020-08-21T10:55:22Z</time>
        <sat>11</sat>
      </trkpt>
      <trkpt lat="42.341879" lon="-3.876119">
        <ele>889.8</ele>
        <time>2020-08-21T10:55:29Z</time>
        <sat>10</sat>
      </trkpt>
      <trkpt lat="42.341896" lon="-3.876241">
        <ele>889.9</ele>
        <time>2020-08-21T10:55:36Z</time>
        <sat>11</sat>
      </trkpt>
      <trkpt lat="42.341911" lon="-3.876365">
        <ele>890.3</ele>
        <time>2020-08-21T10:55:43Z</time>
        <sat>11</sat>
      </trkpt>
      <trkpt lat="42.341921" lon="-3.876483">
        <ele>890.8</ele>
        <time>2020-08-21T10:55:50Z</time>
        <sat>10</sat>
      </trkpt>
      <trkpt lat="42.341928" lon="-3.876592">
        <ele>891.1</ele>
        <time>2020-08-21T10:55:56Z</time>
        <sat>11</sat>
      </trkpt>
      <trkpt lat="42.341930" lon="-3.876712">
        <ele>891.4</ele>
        <time>2020-08-21T10:56:03Z</time>
        <sat>11</sat>
      </trkpt>
      <trkpt lat="42.341939" lon="-3.876832">
        <ele>891.7</ele>
        <time>2020-08-21T10:56:10Z</time>
        <sat>11</sat>
      </trkpt>
      <trkpt lat="42.341944" lon="-3.876956">
        <ele>892.0</ele>
        <time>2020-08-21T10:56:17Z</time>
        <sat>11</sat>
      </trkpt>
      <trkpt lat="42.341944" lon="-3.877082">
        <ele>892.2</ele>
        <time>2020-08-21T10:56:24Z</time>
        <sat>11</sat>
      </trkpt>
      <trkpt lat="42.341936" lon="-3.877209">
        <ele>892.7</ele>
        <time>2020-08-21T10:56:31Z</time>
        <sat>11</sat>
      </trkpt>
      <trkpt lat="42.341920" lon="-3.877332">
        <ele>893.3</ele>
        <time>2020-08-21T10:56:38Z</time>
        <sat>11</sat>
      </trkpt>
      <trkpt lat="42.341906" lon="-3.877451">
        <ele>893.9</ele>
        <time>2020-08-21T10:56:45Z</time>
        <sat>11</sat>
      </trkpt>
      <trkpt lat="42.341895" lon="-3.877561">
        <ele>894.3</ele>
        <time>2020-08-21T10:56:52Z</time>
        <sat>11</sat>
      </trkpt>
      <trkpt lat="42.341876" lon="-3.877675">
        <ele>894.8</ele>
        <time>2020-08-21T10:56:58Z</time>
        <sat>11</sat>
      </trkpt>
      <trkpt lat="42.341863" lon="-3.877783">
        <ele>895.3</ele>
        <time>2020-08-21T10:57:04Z</time>
        <sat>11</sat>
      </trkpt>
      <trkpt lat="42.341849" lon="-3.877903">
        <ele>895.7</ele>
        <time>2020-08-21T10:57:11Z</time>
        <sat>11</sat>
      </trkpt>
      <trkpt lat="42.341832" lon="-3.878027">
        <ele>896.1</ele>
        <time>2020-08-21T10:57:18Z</time>
        <sat>11</sat>
      </trkpt>
      <trkpt lat="42.341812" lon="-3.878145">
        <ele>896.5</ele>
        <time>2020-08-21T10:57:25Z</time>
        <sat>11</sat>
      </trkpt>
      <trkpt lat="42.341790" lon="-3.878266">
        <ele>896.8</ele>
        <time>2020-08-21T10:57:32Z</time>
        <sat>11</sat>
      </trkpt>
      <trkpt lat="42.341761" lon="-3.878387">
        <ele>897.3</ele>
        <time>2020-08-21T10:57:39Z</time>
        <sat>11</sat>
      </trkpt>
      <trkpt lat="42.341738" lon="-3.878511">
        <ele>897.7</ele>
        <time>2020-08-21T10:57:46Z</time>
        <sat>11</sat>
      </trkpt>
      <trkpt lat="42.341716" lon="-3.878629">
        <ele>898.1</ele>
        <time>2020-08-21T10:57:53Z</time>
        <sat>11</sat>
      </trkpt>
      <trkpt lat="42.341692" lon="-3.878746">
        <ele>898.6</ele>
        <time>2020-08-21T10:58:00Z</time>
        <sat>11</sat>
      </trkpt>
      <trkpt lat="42.341666" lon="-3.878862">
        <ele>899.0</ele>
        <time>2020-08-21T10:58:07Z</time>
        <sat>11</sat>
      </trkpt>
      <trkpt lat="42.341642" lon="-3.878976">
        <ele>899.7</ele>
        <time>2020-08-21T10:58:14Z</time>
        <sat>11</sat>
      </trkpt>
      <trkpt lat="42.341642" lon="-3.879094">
        <ele>900.2</ele>
        <time>2020-08-21T10:58:21Z</time>
        <sat>11</sat>
      </trkpt>
      <trkpt lat="42.341659" lon="-3.879202">
        <ele>900.9</ele>
        <time>2020-08-21T10:58:28Z</time>
        <sat>11</sat>
      </trkpt>
      <trkpt lat="42.341678" lon="-3.879326">
        <ele>901.7</ele>
        <time>2020-08-21T10:58:36Z</time>
        <sat>11</sat>
      </trkpt>
      <trkpt lat="42.341693" lon="-3.879435">
        <ele>902.4</ele>
        <time>2020-08-21T10:58:43Z</time>
        <sat>11</sat>
      </trkpt>
      <trkpt lat="42.341693" lon="-3.879557">
        <ele>903.1</ele>
        <time>2020-08-21T10:58:50Z</time>
        <sat>11</sat>
      </trkpt>
      <trkpt lat="42.341698" lon="-3.879679">
        <ele>903.7</ele>
        <time>2020-08-21T10:58:57Z</time>
        <sat>11</sat>
      </trkpt>
      <trkpt lat="42.341716" lon="-3.879799">
        <ele>904.2</ele>
        <time>2020-08-21T10:59:04Z</time>
        <sat>10</sat>
      </trkpt>
      <trkpt lat="42.341736" lon="-3.879916">
        <ele>904.8</ele>
        <time>2020-08-21T10:59:11Z</time>
        <sat>10</sat>
      </trkpt>
      <trkpt lat="42.341757" lon="-3.880037">
        <ele>905.3</ele>
        <time>2020-08-21T10:59:18Z</time>
        <sat>10</sat>
      </trkpt>
      <trkpt lat="42.341777" lon="-3.880144">
        <ele>905.7</ele>
        <time>2020-08-21T10:59:24Z</time>
        <sat>11</sat>
      </trkpt>
      <trkpt lat="42.341792" lon="-3.880254">
        <ele>906.1</ele>
        <time>2020-08-21T10:59:30Z</time>
        <sat>10</sat>
      </trkpt>
      <trkpt lat="42.341801" lon="-3.880366">
        <ele>906.4</ele>
        <time>2020-08-21T10:59:36Z</time>
        <sat>10</sat>
      </trkpt>
      <trkpt lat="42.341816" lon="-3.880476">
        <ele>906.7</ele>
        <time>2020-08-21T10:59:42Z</time>
        <sat>10</sat>
      </trkpt>
      <trkpt lat="42.341823" lon="-3.880586">
        <ele>906.9</ele>
        <time>2020-08-21T10:59:48Z</time>
        <sat>10</sat>
      </trkpt>
      <trkpt lat="42.341833" lon="-3.880713">
        <ele>907.3</ele>
        <time>2020-08-21T10:59:55Z</time>
        <sat>10</sat>
      </trkpt>
      <trkpt lat="42.341843" lon="-3.880838">
        <ele>907.5</ele>
        <time>2020-08-21T11:00:02Z</time>
        <sat>10</sat>
      </trkpt>
      <trkpt lat="42.341846" lon="-3.880948">
        <ele>907.9</ele>
        <time>2020-08-21T11:00:08Z</time>
        <sat>10</sat>
      </trkpt>
      <trkpt lat="42.341851" lon="-3.881069">
        <ele>908.1</ele>
        <time>2020-08-21T11:00:15Z</time>
        <sat>10</sat>
      </trkpt>
      <trkpt lat="42.341850" lon="-3.881187">
        <ele>908.6</ele>
        <time>2020-08-21T11:00:22Z</time>
        <sat>10</sat>
      </trkpt>
      <trkpt lat="42.341849" lon="-3.881310">
        <ele>908.9</ele>
        <time>2020-08-21T11:00:29Z</time>
        <sat>10</sat>
      </trkpt>
      <trkpt lat="42.341862" lon="-3.881434">
        <ele>909.1</ele>
        <time>2020-08-21T11:00:36Z</time>
        <sat>10</sat>
      </trkpt>
      <trkpt lat="42.341880" lon="-3.881543">
        <ele>909.3</ele>
        <time>2020-08-21T11:00:42Z</time>
        <sat>10</sat>
      </trkpt>
      <trkpt lat="42.341896" lon="-3.881658">
        <ele>909.5</ele>
        <time>2020-08-21T11:00:49Z</time>
        <sat>10</sat>
      </trkpt>
      <trkpt lat="42.341921" lon="-3.881777">
        <ele>909.6</ele>
        <time>2020-08-21T11:00:56Z</time>
        <sat>10</sat>
      </trkpt>
      <trkpt lat="42.341940" lon="-3.881894">
        <ele>909.7</ele>
        <time>2020-08-21T11:01:03Z</time>
        <sat>10</sat>
      </trkpt>
      <trkpt lat="42.341952" lon="-3.882019">
        <ele>909.8</ele>
        <time>2020-08-21T11:01:10Z</time>
        <sat>11</sat>
      </trkpt>
      <trkpt lat="42.341964" lon="-3.882144">
        <ele>910.0</ele>
        <time>2020-08-21T11:01:17Z</time>
        <sat>11</sat>
      </trkpt>
      <trkpt lat="42.341979" lon="-3.882255">
        <ele>910.3</ele>
        <time>2020-08-21T11:01:25Z</time>
        <sat>11</sat>
      </trkpt>
      <trkpt lat="42.341985" lon="-3.882368">
        <ele>910.4</ele>
        <time>2020-08-21T11:01:31Z</time>
        <sat>11</sat>
      </trkpt>
      <trkpt lat="42.341984" lon="-3.882479">
        <ele>910.5</ele>
        <time>2020-08-21T11:01:37Z</time>
        <sat>11</sat>
      </trkpt>
      <trkpt lat="42.341992" lon="-3.882591">
        <ele>910.6</ele>
        <time>2020-08-21T11:01:43Z</time>
        <sat>11</sat>
      </trkpt>
      <trkpt lat="42.341992" lon="-3.882704">
        <ele>910.8</ele>
        <time>2020-08-21T11:01:49Z</time>
        <sat>11</sat>
      </trkpt>
      <trkpt lat="42.341991" lon="-3.882815">
        <ele>911.1</ele>
        <time>2020-08-21T11:01:55Z</time>
        <sat>11</sat>
      </trkpt>
      <trkpt lat="42.341989" lon="-3.882928">
        <ele>911.3</ele>
        <time>2020-08-21T11:02:01Z</time>
        <sat>11</sat>
      </trkpt>
      <trkpt lat="42.341992" lon="-3.883051">
        <ele>911.5</ele>
        <time>2020-08-21T11:02:08Z</time>
        <sat>11</sat>
      </trkpt>
      <trkpt lat="42.341994" lon="-3.883176">
        <ele>911.6</ele>
        <time>2020-08-21T11:02:15Z</time>
        <sat>11</sat>
      </trkpt>
      <trkpt lat="42.341997" lon="-3.883299">
        <ele>911.8</ele>
        <time>2020-08-21T11:02:22Z</time>
        <sat>11</sat>
      </trkpt>
      <trkpt lat="42.342001" lon="-3.883425">
        <ele>912.0</ele>
        <time>2020-08-21T11:02:29Z</time>
        <sat>11</sat>
      </trkpt>
      <trkpt lat="42.342009" lon="-3.883539">
        <ele>912.3</ele>
        <time>2020-08-21T11:02:36Z</time>
        <sat>11</sat>
      </trkpt>
      <trkpt lat="42.342013" lon="-3.883660">
        <ele>912.5</ele>
        <time>2020-08-21T11:02:43Z</time>
        <sat>11</sat>
      </trkpt>
      <trkpt lat="42.342023" lon="-3.883779">
        <ele>912.8</ele>
        <time>2020-08-21T11:02:50Z</time>
        <sat>11</sat>
      </trkpt>
      <trkpt lat="42.342037" lon="-3.883898">
        <ele>913.1</ele>
        <time>2020-08-21T11:02:57Z</time>
        <sat>11</sat>
      </trkpt>
      <trkpt lat="42.342053" lon="-3.884018">
        <ele>913.4</ele>
        <time>2020-08-21T11:03:04Z</time>
        <sat>11</sat>
      </trkpt>
      <trkpt lat="42.342061" lon="-3.884142">
        <ele>913.7</ele>
        <time>2020-08-21T11:03:11Z</time>
        <sat>11</sat>
      </trkpt>
      <trkpt lat="42.342082" lon="-3.884266">
        <ele>914.0</ele>
        <time>2020-08-21T11:03:18Z</time>
        <sat>11</sat>
      </trkpt>
      <trkpt lat="42.342106" lon="-3.884375">
        <ele>914.2</ele>
        <time>2020-08-21T11:03:24Z</time>
        <sat>11</sat>
      </trkpt>
      <trkpt lat="42.342129" lon="-3.884496">
        <ele>914.7</ele>
        <time>2020-08-21T11:03:31Z</time>
        <sat>11</sat>
      </trkpt>
      <trkpt lat="42.342147" lon="-3.884604">
        <ele>915.4</ele>
        <time>2020-08-21T11:03:38Z</time>
        <sat>11</sat>
      </trkpt>
      <trkpt lat="42.342168" lon="-3.884711">
        <ele>915.8</ele>
        <time>2020-08-21T11:03:45Z</time>
        <sat>11</sat>
      </trkpt>
      <trkpt lat="42.342197" lon="-3.884832">
        <ele>916.2</ele>
        <time>2020-08-21T11:03:52Z</time>
        <sat>11</sat>
      </trkpt>
      <trkpt lat="42.342215" lon="-3.884939">
        <ele>916.3</ele>
        <time>2020-08-21T11:03:58Z</time>
        <sat>11</sat>
      </trkpt>
      <trkpt lat="42.342228" lon="-3.885049">
        <ele>916.4</ele>
        <time>2020-08-21T11:04:04Z</time>
        <sat>11</sat>
      </trkpt>
      <trkpt lat="42.342250" lon="-3.885155">
        <ele>916.4</ele>
        <time>2020-08-21T11:04:11Z</time>
        <sat>11</sat>
      </trkpt>
      <trkpt lat="42.342269" lon="-3.885262">
        <ele>916.5</ele>
        <time>2020-08-21T11:04:17Z</time>
        <sat>11</sat>
      </trkpt>
      <trkpt lat="42.342290" lon="-3.885384">
        <ele>916.6</ele>
        <time>2020-08-21T11:04:24Z</time>
        <sat>11</sat>
      </trkpt>
      <trkpt lat="42.342313" lon="-3.885491">
        <ele>916.7</ele>
        <time>2020-08-21T11:04:30Z</time>
        <sat>11</sat>
      </trkpt>
      <trkpt lat="42.342326" lon="-3.885617">
        <ele>916.6</ele>
        <time>2020-08-21T11:04:37Z</time>
        <sat>11</sat>
      </trkpt>
      <trkpt lat="42.342342" lon="-3.885729">
        <ele>916.6</ele>
        <time>2020-08-21T11:04:43Z</time>
        <sat>11</sat>
      </trkpt>
      <trkpt lat="42.342353" lon="-3.885852">
        <ele>916.6</ele>
        <time>2020-08-21T11:04:50Z</time>
        <sat>11</sat>
      </trkpt>
      <trkpt lat="42.342364" lon="-3.885962">
        <ele>916.5</ele>
        <time>2020-08-21T11:04:56Z</time>
        <sat>11</sat>
      </trkpt>
      <trkpt lat="42.342369" lon="-3.886083">
        <ele>916.5</ele>
        <time>2020-08-21T11:05:03Z</time>
        <sat>11</sat>
      </trkpt>
      <trkpt lat="42.342380" lon="-3.886194">
        <ele>916.5</ele>
        <time>2020-08-21T11:05:09Z</time>
        <sat>11</sat>
      </trkpt>
      <trkpt lat="42.342383" lon="-3.886318">
        <ele>916.4</ele>
        <time>2020-08-21T11:05:16Z</time>
        <sat>11</sat>
      </trkpt>
      <trkpt lat="42.342391" lon="-3.886429">
        <ele>916.3</ele>
        <time>2020-08-21T11:05:22Z</time>
        <sat>11</sat>
      </trkpt>
      <trkpt lat="42.342398" lon="-3.886550">
        <ele>916.2</ele>
        <time>2020-08-21T11:05:29Z</time>
        <sat>11</sat>
      </trkpt>
      <trkpt lat="42.342407" lon="-3.886660">
        <ele>916.1</ele>
        <time>2020-08-21T11:05:35Z</time>
        <sat>11</sat>
      </trkpt>
      <trkpt lat="42.342405" lon="-3.886783">
        <ele>915.7</ele>
        <time>2020-08-21T11:05:42Z</time>
        <sat>11</sat>
      </trkpt>
      <trkpt lat="42.342409" lon="-3.886895">
        <ele>915.3</ele>
        <time>2020-08-21T11:05:48Z</time>
        <sat>11</sat>
      </trkpt>
      <trkpt lat="42.342407" lon="-3.887005">
        <ele>915.2</ele>
        <time>2020-08-21T11:05:54Z</time>
        <sat>11</sat>
      </trkpt>
      <trkpt lat="42.342412" lon="-3.887121">
        <ele>915.0</ele>
        <time>2020-08-21T11:06:00Z</time>
        <sat>11</sat>
      </trkpt>
      <trkpt lat="42.342413" lon="-3.887239">
        <ele>914.7</ele>
        <time>2020-08-21T11:06:07Z</time>
        <sat>11</sat>
      </trkpt>
      <trkpt lat="42.342421" lon="-3.887349">
        <ele>914.7</ele>
        <time>2020-08-21T11:06:13Z</time>
        <sat>10</sat>
      </trkpt>
      <trkpt lat="42.342421" lon="-3.887473">
        <ele>914.6</ele>
        <time>2020-08-21T11:06:20Z</time>
        <sat>11</sat>
      </trkpt>
      <trkpt lat="42.342427" lon="-3.887588">
        <ele>914.4</ele>
        <time>2020-08-21T11:06:27Z</time>
        <sat>11</sat>
      </trkpt>
      <trkpt lat="42.342435" lon="-3.887712">
        <ele>914.1</ele>
        <time>2020-08-21T11:06:34Z</time>
        <sat>11</sat>
      </trkpt>
      <trkpt lat="42.342437" lon="-3.887828">
        <ele>914.0</ele>
        <time>2020-08-21T11:06:41Z</time>
        <sat>11</sat>
      </trkpt>
      <trkpt lat="42.342444" lon="-3.887946">
        <ele>914.0</ele>
        <time>2020-08-21T11:06:48Z</time>
        <sat>11</sat>
      </trkpt>
      <trkpt lat="42.342450" lon="-3.888065">
        <ele>913.6</ele>
        <time>2020-08-21T11:06:55Z</time>
        <sat>11</sat>
      </trkpt>
      <trkpt lat="42.342453" lon="-3.888183">
        <ele>913.6</ele>
        <time>2020-08-21T11:07:02Z</time>
        <sat>11</sat>
      </trkpt>
      <trkpt lat="42.342462" lon="-3.888297">
        <ele>913.4</ele>
        <time>2020-08-21T11:07:09Z</time>
        <sat>11</sat>
      </trkpt>
      <trkpt lat="42.342469" lon="-3.888424">
        <ele>913.2</ele>
        <time>2020-08-21T11:07:16Z</time>
        <sat>11</sat>
      </trkpt>
      <trkpt lat="42.342467" lon="-3.888542">
        <ele>912.9</ele>
        <time>2020-08-21T11:07:23Z</time>
        <sat>11</sat>
      </trkpt>
      <trkpt lat="42.342467" lon="-3.888668">
        <ele>912.7</ele>
        <time>2020-08-21T11:07:30Z</time>
        <sat>11</sat>
      </trkpt>
      <trkpt lat="42.342455" lon="-3.888789">
        <ele>912.6</ele>
        <time>2020-08-21T11:07:37Z</time>
        <sat>11</sat>
      </trkpt>
      <trkpt lat="42.342450" lon="-3.888912">
        <ele>912.4</ele>
        <time>2020-08-21T11:07:44Z</time>
        <sat>11</sat>
      </trkpt>
      <trkpt lat="42.342448" lon="-3.889035">
        <ele>912.2</ele>
        <time>2020-08-21T11:07:51Z</time>
        <sat>11</sat>
      </trkpt>
      <trkpt lat="42.342440" lon="-3.889154">
        <ele>912.2</ele>
        <time>2020-08-21T11:07:58Z</time>
        <sat>11</sat>
      </trkpt>
      <trkpt lat="42.342429" lon="-3.889273">
        <ele>912.0</ele>
        <time>2020-08-21T11:08:05Z</time>
        <sat>10</sat>
      </trkpt>
      <trkpt lat="42.342416" lon="-3.889390">
        <ele>911.8</ele>
        <time>2020-08-21T11:08:12Z</time>
        <sat>11</sat>
      </trkpt>
      <trkpt lat="42.342395" lon="-3.889508">
        <ele>911.5</ele>
        <time>2020-08-21T11:08:19Z</time>
        <sat>11</sat>
      </trkpt>
      <trkpt lat="42.342378" lon="-3.889630">
        <ele>911.5</ele>
        <time>2020-08-21T11:08:26Z</time>
        <sat>11</sat>
      </trkpt>
      <trkpt lat="42.342356" lon="-3.889737">
        <ele>911.6</ele>
        <time>2020-08-21T11:08:33Z</time>
        <sat>11</sat>
      </trkpt>
      <trkpt lat="42.342341" lon="-3.889855">
        <ele>911.6</ele>
        <time>2020-08-21T11:08:40Z</time>
        <sat>11</sat>
      </trkpt>
      <trkpt lat="42.342328" lon="-3.889980">
        <ele>911.8</ele>
        <time>2020-08-21T11:08:47Z</time>
        <sat>11</sat>
      </trkpt>
      <trkpt lat="42.342310" lon="-3.890102">
        <ele>912.0</ele>
        <time>2020-08-21T11:08:54Z</time>
        <sat>11</sat>
      </trkpt>
      <trkpt lat="42.342297" lon="-3.890222">
        <ele>912.0</ele>
        <time>2020-08-21T11:09:01Z</time>
        <sat>10</sat>
      </trkpt>
      <trkpt lat="42.342271" lon="-3.890336">
        <ele>912.1</ele>
        <time>2020-08-21T11:09:08Z</time>
        <sat>11</sat>
      </trkpt>
      <trkpt lat="42.342254" lon="-3.890451">
        <ele>912.1</ele>
        <time>2020-08-21T11:09:15Z</time>
        <sat>11</sat>
      </trkpt>
      <trkpt lat="42.342238" lon="-3.890563">
        <ele>911.7</ele>
        <time>2020-08-21T11:09:47Z</time>
        <sat>11</sat>
      </trkpt>
      <trkpt lat="42.342215" lon="-3.890683">
        <ele>911.8</ele>
        <time>2020-08-21T11:09:55Z</time>
        <sat>11</sat>
      </trkpt>
      <trkpt lat="42.342195" lon="-3.890794">
        <ele>911.9</ele>
        <time>2020-08-21T11:10:02Z</time>
        <sat>11</sat>
      </trkpt>
      <trkpt lat="42.342176" lon="-3.890909">
        <ele>912.0</ele>
        <time>2020-08-21T11:10:09Z</time>
        <sat>11</sat>
      </trkpt>
      <trkpt lat="42.342155" lon="-3.891017">
        <ele>912.1</ele>
        <time>2020-08-21T11:10:16Z</time>
        <sat>11</sat>
      </trkpt>
      <trkpt lat="42.342127" lon="-3.891134">
        <ele>912.4</ele>
        <time>2020-08-21T11:10:24Z</time>
        <sat>11</sat>
      </trkpt>
      <trkpt lat="42.342098" lon="-3.891248">
        <ele>912.7</ele>
        <time>2020-08-21T11:10:32Z</time>
        <sat>11</sat>
      </trkpt>
      <trkpt lat="42.342070" lon="-3.891355">
        <ele>912.9</ele>
        <time>2020-08-21T11:10:39Z</time>
        <sat>11</sat>
      </trkpt>
      <trkpt lat="42.342037" lon="-3.891463">
        <ele>913.2</ele>
        <time>2020-08-21T11:10:46Z</time>
        <sat>11</sat>
      </trkpt>
      <trkpt lat="42.342000" lon="-3.891569">
        <ele>913.4</ele>
        <time>2020-08-21T11:10:53Z</time>
        <sat>11</sat>
      </trkpt>
      <trkpt lat="42.341966" lon="-3.891675">
        <ele>913.7</ele>
        <time>2020-08-21T11:11:00Z</time>
        <sat>11</sat>
      </trkpt>
      <trkpt lat="42.341935" lon="-3.891783">
        <ele>914.0</ele>
        <time>2020-08-21T11:11:07Z</time>
        <sat>11</sat>
      </trkpt>
      <trkpt lat="42.341901" lon="-3.891895">
        <ele>914.2</ele>
        <time>2020-08-21T11:11:14Z</time>
        <sat>11</sat>
      </trkpt>
      <trkpt lat="42.341868" lon="-3.891995">
        <ele>914.4</ele>
        <time>2020-08-21T11:11:21Z</time>
        <sat>11</sat>
      </trkpt>
      <trkpt lat="42.341843" lon="-3.892101">
        <ele>914.5</ele>
        <time>2020-08-21T11:11:28Z</time>
        <sat>11</sat>
      </trkpt>
      <trkpt lat="42.341814" lon="-3.892204">
        <ele>914.6</ele>
        <time>2020-08-21T11:11:35Z</time>
        <sat>10</sat>
      </trkpt>
      <trkpt lat="42.341791" lon="-3.892321">
        <ele>914.9</ele>
        <time>2020-08-21T11:11:43Z</time>
        <sat>10</sat>
      </trkpt>
      <trkpt lat="42.341766" lon="-3.892425">
        <ele>915.0</ele>
        <time>2020-08-21T11:11:50Z</time>
        <sat>10</sat>
      </trkpt>
      <trkpt lat="42.341736" lon="-3.892534">
        <ele>915.1</ele>
        <time>2020-08-21T11:11:58Z</time>
        <sat>10</sat>
      </trkpt>
      <trkpt lat="42.341710" lon="-3.892655">
        <ele>915.1</ele>
        <time>2020-08-21T11:12:06Z</time>
        <sat>10</sat>
      </trkpt>
      <trkpt lat="42.341683" lon="-3.892767">
        <ele>915.2</ele>
        <time>2020-08-21T11:12:13Z</time>
        <sat>10</sat>
      </trkpt>
      <trkpt lat="42.341660" lon="-3.892875">
        <ele>915.3</ele>
        <time>2020-08-21T11:12:20Z</time>
        <sat>10</sat>
      </trkpt>
      <trkpt lat="42.341635" lon="-3.892981">
        <ele>915.5</ele>
        <time>2020-08-21T11:12:27Z</time>
        <sat>10</sat>
      </trkpt>
      <trkpt lat="42.341612" lon="-3.893086">
        <ele>915.7</ele>
        <time>2020-08-21T11:12:34Z</time>
        <sat>10</sat>
      </trkpt>
      <trkpt lat="42.341583" lon="-3.893189">
        <ele>915.9</ele>
        <time>2020-08-21T11:12:41Z</time>
        <sat>10</sat>
      </trkpt>
      <trkpt lat="42.341556" lon="-3.893297">
        <ele>916.0</ele>
        <time>2020-08-21T11:12:48Z</time>
        <sat>10</sat>
      </trkpt>
      <trkpt lat="42.341525" lon="-3.893407">
        <ele>916.3</ele>
        <time>2020-08-21T11:12:55Z</time>
        <sat>10</sat>
      </trkpt>
      <trkpt lat="42.341490" lon="-3.893523">
        <ele>916.5</ele>
        <time>2020-08-21T11:13:03Z</time>
        <sat>10</sat>
      </trkpt>
      <trkpt lat="42.341456" lon="-3.893640">
        <ele>916.8</ele>
        <time>2020-08-21T11:13:10Z</time>
        <sat>10</sat>
      </trkpt>
      <trkpt lat="42.341420" lon="-3.893744">
        <ele>917.0</ele>
        <time>2020-08-21T11:13:17Z</time>
        <sat>10</sat>
      </trkpt>
      <trkpt lat="42.341378" lon="-3.893852">
        <ele>917.1</ele>
        <time>2020-08-21T11:13:24Z</time>
        <sat>10</sat>
      </trkpt>
      <trkpt lat="42.341341" lon="-3.893954">
        <ele>917.2</ele>
        <time>2020-08-21T11:13:31Z</time>
        <sat>10</sat>
      </trkpt>
      <trkpt lat="42.341304" lon="-3.894064">
        <ele>917.4</ele>
        <time>2020-08-21T11:13:38Z</time>
        <sat>10</sat>
      </trkpt>
      <trkpt lat="42.341274" lon="-3.894172">
        <ele>917.5</ele>
        <time>2020-08-21T11:13:45Z</time>
        <sat>10</sat>
      </trkpt>
      <trkpt lat="42.341254" lon="-3.894282">
        <ele>917.7</ele>
        <time>2020-08-21T11:13:52Z</time>
        <sat>9</sat>
      </trkpt>
      <trkpt lat="42.341234" lon="-3.894397">
        <ele>917.7</ele>
        <time>2020-08-21T11:13:59Z</time>
        <sat>10</sat>
      </trkpt>
      <trkpt lat="42.341206" lon="-3.894509">
        <ele>917.7</ele>
        <time>2020-08-21T11:14:06Z</time>
        <sat>10</sat>
      </trkpt>
      <trkpt lat="42.341176" lon="-3.894618">
        <ele>917.8</ele>
        <time>2020-08-21T11:14:13Z</time>
        <sat>10</sat>
      </trkpt>
      <trkpt lat="42.341148" lon="-3.894737">
        <ele>917.7</ele>
        <time>2020-08-21T11:14:20Z</time>
        <sat>10</sat>
      </trkpt>
      <trkpt lat="42.341114" lon="-3.894851">
        <ele>917.7</ele>
        <time>2020-08-21T11:14:27Z</time>
        <sat>10</sat>
      </trkpt>
      <trkpt lat="42.341094" lon="-3.894960">
        <ele>917.6</ele>
        <time>2020-08-21T11:14:34Z</time>
        <sat>10</sat>
      </trkpt>
      <trkpt lat="42.341068" lon="-3.895078">
        <ele>917.6</ele>
        <time>2020-08-21T11:14:42Z</time>
        <sat>10</sat>
      </trkpt>
      <trkpt lat="42.341032" lon="-3.895176">
        <ele>917.1</ele>
        <time>2020-08-21T11:14:51Z</time>
        <sat>10</sat>
      </trkpt>
      <trkpt lat="42.341007" lon="-3.895288">
        <ele>916.2</ele>
        <time>2020-08-21T11:15:10Z</time>
        <sat>10</sat>
      </trkpt>
      <trkpt lat="42.340979" lon="-3.895397">
        <ele>915.8</ele>
        <time>2020-08-21T11:15:19Z</time>
        <sat>10</sat>
      </trkpt>
      <trkpt lat="42.340959" lon="-3.895509">
        <ele>915.1</ele>
        <time>2020-08-21T11:15:27Z</time>
        <sat>10</sat>
      </trkpt>
      <trkpt lat="42.340947" lon="-3.895620">
        <ele>913.7</ele>
        <time>2020-08-21T11:15:38Z</time>
        <sat>10</sat>
      </trkpt>
      <trkpt lat="42.340933" lon="-3.895730">
        <ele>912.5</ele>
        <time>2020-08-21T11:15:48Z</time>
        <sat>10</sat>
      </trkpt>
      <trkpt lat="42.340913" lon="-3.895842">
        <ele>911.0</ele>
        <time>2020-08-21T11:15:59Z</time>
        <sat>10</sat>
      </trkpt>
      <trkpt lat="42.340895" lon="-3.895953">
        <ele>909.2</ele>
        <time>2020-08-21T11:16:10Z</time>
        <sat>10</sat>
      </trkpt>
      <trkpt lat="42.340876" lon="-3.896061">
        <ele>907.6</ele>
        <time>2020-08-21T11:16:21Z</time>
        <sat>10</sat>
      </trkpt>
      <trkpt lat="42.340862" lon="-3.896172">
        <ele>905.7</ele>
        <time>2020-08-21T11:16:34Z</time>
        <sat>10</sat>
      </trkpt>
      <trkpt lat="42.340856" lon="-3.896287">
        <ele>903.5</ele>
        <time>2020-08-21T11:17:01Z</time>
        <sat>10</sat>
      </trkpt>
      <trkpt lat="42.340870" lon="-3.896397">
        <ele>902.2</ele>
        <time>2020-08-21T11:17:11Z</time>
        <sat>10</sat>
      </trkpt>
      <trkpt lat="42.340879" lon="-3.896515">
        <ele>900.8</ele>
        <time>2020-08-21T11:17:21Z</time>
        <sat>10</sat>
      </trkpt>
      <trkpt lat="42.340890" lon="-3.896626">
        <ele>898.7</ele>
        <time>2020-08-21T11:17:36Z</time>
        <sat>10</sat>
      </trkpt>
      <trkpt lat="42.340905" lon="-3.896736">
        <ele>897.4</ele>
        <time>2020-08-21T11:17:48Z</time>
        <sat>10</sat>
      </trkpt>
      <trkpt lat="42.340926" lon="-3.896851">
        <ele>896.3</ele>
        <time>2020-08-21T11:17:58Z</time>
        <sat>10</sat>
      </trkpt>
      <trkpt lat="42.340935" lon="-3.896961">
        <ele>895.4</ele>
        <time>2020-08-21T11:18:06Z</time>
        <sat>10</sat>
      </trkpt>
      <trkpt lat="42.340946" lon="-3.897077">
        <ele>894.0</ele>
        <time>2020-08-21T11:18:15Z</time>
        <sat>10</sat>
      </trkpt>
      <trkpt lat="42.340962" lon="-3.897194">
        <ele>892.7</ele>
        <time>2020-08-21T11:18:25Z</time>
        <sat>10</sat>
      </trkpt>
      <trkpt lat="42.340960" lon="-3.897312">
        <ele>891.8</ele>
        <time>2020-08-21T11:18:33Z</time>
        <sat>10</sat>
      </trkpt>
      <trkpt lat="42.340966" lon="-3.897422">
        <ele>891.0</ele>
        <time>2020-08-21T11:18:41Z</time>
        <sat>10</sat>
      </trkpt>
      <trkpt lat="42.340970" lon="-3.897541">
        <ele>889.8</ele>
        <time>2020-08-21T11:18:50Z</time>
        <sat>10</sat>
      </trkpt>
      <trkpt lat="42.340970" lon="-3.897657">
        <ele>888.8</ele>
        <time>2020-08-21T11:18:59Z</time>
        <sat>10</sat>
      </trkpt>
      <trkpt lat="42.340958" lon="-3.897767">
        <ele>887.6</ele>
        <time>2020-08-21T11:19:07Z</time>
        <sat>10</sat>
      </trkpt>
      <trkpt lat="42.340941" lon="-3.897883">
        <ele>886.4</ele>
        <time>2020-08-21T11:19:16Z</time>
        <sat>10</sat>
      </trkpt>
      <trkpt lat="42.340918" lon="-3.897991">
        <ele>885.3</ele>
        <time>2020-08-21T11:19:25Z</time>
        <sat>10</sat>
      </trkpt>
      <trkpt lat="42.340885" lon="-3.898102">
        <ele>884.1</ele>
        <time>2020-08-21T11:19:35Z</time>
        <sat>10</sat>
      </trkpt>
      <trkpt lat="42.340859" lon="-3.898207">
        <ele>882.8</ele>
        <time>2020-08-21T11:19:44Z</time>
        <sat>10</sat>
      </trkpt>
      <trkpt lat="42.340827" lon="-3.898308">
        <ele>881.7</ele>
        <time>2020-08-21T11:19:52Z</time>
        <sat>10</sat>
      </trkpt>
      <trkpt lat="42.340796" lon="-3.898415">
        <ele>880.2</ele>
        <time>2020-08-21T11:20:00Z</time>
        <sat>10</sat>
      </trkpt>
      <trkpt lat="42.340762" lon="-3.898530">
        <ele>879.0</ele>
        <time>2020-08-21T11:20:09Z</time>
        <sat>10</sat>
      </trkpt>
      <trkpt lat="42.340738" lon="-3.898641">
        <ele>877.9</ele>
        <time>2020-08-21T11:20:17Z</time>
        <sat>10</sat>
      </trkpt>
      <trkpt lat="42.340712" lon="-3.898751">
        <ele>876.7</ele>
        <time>2020-08-21T11:20:25Z</time>
        <sat>10</sat>
      </trkpt>
      <trkpt lat="42.340694" lon="-3.898861">
        <ele>873.4</ele>
        <time>2020-08-21T11:21:18Z</time>
        <sat>10</sat>
      </trkpt>
      <trkpt lat="42.340672" lon="-3.898972">
        <ele>872.4</ele>
        <time>2020-08-21T11:21:32Z</time>
        <sat>9</sat>
      </trkpt>
      <trkpt lat="42.340667" lon="-3.899083">
        <ele>871.6</ele>
        <time>2020-08-21T11:22:01Z</time>
        <sat>10</sat>
      </trkpt>
      <trkpt lat="42.340658" lon="-3.899194">
        <ele>870.1</ele>
        <time>2020-08-21T11:22:22Z</time>
        <sat>9</sat>
      </trkpt>
      <trkpt lat="42.340659" lon="-3.899317">
        <ele>869.4</ele>
        <time>2020-08-21T11:22:40Z</time>
        <sat>10</sat>
      </trkpt>
      <trkpt lat="42.340663" lon="-3.899437">
        <ele>868.6</ele>
        <time>2020-08-21T11:22:50Z</time>
        <sat>10</sat>
      </trkpt>
      <trkpt lat="42.340666" lon="-3.899556">
        <ele>867.9</ele>
        <time>2020-08-21T11:23:00Z</time>
        <sat>10</sat>
      </trkpt>
      <trkpt lat="42.340671" lon="-3.899668">
        <ele>867.1</ele>
        <time>2020-08-21T11:23:09Z</time>
        <sat>10</sat>
      </trkpt>
      <trkpt lat="42.340683" lon="-3.899782">
        <ele>866.0</ele>
        <time>2020-08-21T11:23:17Z</time>
        <sat>10</sat>
      </trkpt>
      <trkpt lat="42.340690" lon="-3.899903">
        <ele>864.8</ele>
        <time>2020-08-21T11:23:25Z</time>
        <sat>10</sat>
      </trkpt>
      <trkpt lat="42.340694" lon="-3.900023">
        <ele>863.9</ele>
        <time>2020-08-21T11:23:34Z</time>
        <sat>10</sat>
      </trkpt>
      <trkpt lat="42.340697" lon="-3.900136">
        <ele>863.0</ele>
        <time>2020-08-21T11:23:42Z</time>
        <sat>10</sat>
      </trkpt>
      <trkpt lat="42.340698" lon="-3.900258">
        <ele>862.1</ele>
        <time>2020-08-21T11:23:50Z</time>
        <sat>10</sat>
      </trkpt>
      <trkpt lat="42.340695" lon="-3.900367">
        <ele>861.3</ele>
        <time>2020-08-21T11:23:57Z</time>
        <sat>10</sat>
      </trkpt>
      <trkpt lat="42.340695" lon="-3.900491">
        <ele>860.5</ele>
        <time>2020-08-21T11:24:05Z</time>
        <sat>10</sat>
      </trkpt>
      <trkpt lat="42.340696" lon="-3.900605">
        <ele>859.8</ele>
        <time>2020-08-21T11:24:13Z</time>
        <sat>10</sat>
      </trkpt>
      <trkpt lat="42.340698" lon="-3.900728">
        <ele>859.2</ele>
        <time>2020-08-21T11:24:21Z</time>
        <sat>10</sat>
      </trkpt>
      <trkpt lat="42.340699" lon="-3.900856">
        <ele>858.4</ele>
        <time>2020-08-21T11:24:29Z</time>
        <sat>10</sat>
      </trkpt>
      <trkpt lat="42.340696" lon="-3.900979">
        <ele>857.7</ele>
        <time>2020-08-21T11:24:37Z</time>
        <sat>10</sat>
      </trkpt>
      <trkpt lat="42.340687" lon="-3.901091">
        <ele>856.9</ele>
        <time>2020-08-21T11:24:48Z</time>
        <sat>10</sat>
      </trkpt>
      <trkpt lat="42.340690" lon="-3.901205">
        <ele>856.3</ele>
        <time>2020-08-21T11:24:55Z</time>
        <sat>10</sat>
      </trkpt>
      <trkpt lat="42.340683" lon="-3.901315">
        <ele>855.7</ele>
        <time>2020-08-21T11:25:02Z</time>
        <sat>10</sat>
      </trkpt>
      <trkpt lat="42.340682" lon="-3.901434">
        <ele>855.1</ele>
        <time>2020-08-21T11:25:10Z</time>
        <sat>10</sat>
      </trkpt>
      <trkpt lat="42.340681" lon="-3.901554">
        <ele>854.7</ele>
        <time>2020-08-21T11:25:19Z</time>
        <sat>10</sat>
      </trkpt>
      <trkpt lat="42.340676" lon="-3.901671">
        <ele>854.3</ele>
        <time>2020-08-21T11:25:28Z</time>
        <sat>10</sat>
      </trkpt>
      <trkpt lat="42.340677" lon="-3.901783">
        <ele>853.9</ele>
        <time>2020-08-21T11:25:36Z</time>
        <sat>10</sat>
      </trkpt>
      <trkpt lat="42.340680" lon="-3.901895">
        <ele>853.4</ele>
        <time>2020-08-21T11:25:44Z</time>
        <sat>10</sat>
      </trkpt>
      <trkpt lat="42.340681" lon="-3.902009">
        <ele>852.8</ele>
        <time>2020-08-21T11:25:56Z</time>
        <sat>10</sat>
      </trkpt>
      <trkpt lat="42.340690" lon="-3.902129">
        <ele>852.1</ele>
        <time>2020-08-21T11:26:05Z</time>
        <sat>10</sat>
      </trkpt>
      <trkpt lat="42.340691" lon="-3.902247">
        <ele>851.9</ele>
        <time>2020-08-21T11:26:14Z</time>
        <sat>10</sat>
      </trkpt>
      <trkpt lat="42.340701" lon="-3.902360">
        <ele>851.5</ele>
        <time>2020-08-21T11:26:22Z</time>
        <sat>10</sat>
      </trkpt>
      <trkpt lat="42.340707" lon="-3.902476">
        <ele>851.0</ele>
        <time>2020-08-21T11:26:30Z</time>
        <sat>10</sat>
      </trkpt>
      <trkpt lat="42.340710" lon="-3.902590">
        <ele>850.5</ele>
        <time>2020-08-21T11:26:38Z</time>
        <sat>10</sat>
      </trkpt>
      <trkpt lat="42.340715" lon="-3.902713">
        <ele>850.1</ele>
        <time>2020-08-21T11:26:46Z</time>
        <sat>10</sat>
      </trkpt>
      <trkpt lat="42.340725" lon="-3.902830">
        <ele>849.6</ele>
        <time>2020-08-21T11:26:54Z</time>
        <sat>10</sat>
      </trkpt>
      <trkpt lat="42.340730" lon="-3.902953">
        <ele>849.1</ele>
        <time>2020-08-21T11:27:02Z</time>
        <sat>10</sat>
      </trkpt>
      <trkpt lat="42.340729" lon="-3.903067">
        <ele>848.6</ele>
        <time>2020-08-21T11:27:10Z</time>
        <sat>10</sat>
      </trkpt>
      <trkpt lat="42.340728" lon="-3.903182">
        <ele>848.1</ele>
        <time>2020-08-21T11:27:18Z</time>
        <sat>10</sat>
      </trkpt>
      <trkpt lat="42.340727" lon="-3.903302">
        <ele>847.5</ele>
        <time>2020-08-21T11:27:26Z</time>
        <sat>10</sat>
      </trkpt>
      <trkpt lat="42.340730" lon="-3.903426">
        <ele>846.8</ele>
        <time>2020-08-21T11:27:34Z</time>
        <sat>10</sat>
      </trkpt>
      <trkpt lat="42.340730" lon="-3.903535">
        <ele>846.3</ele>
        <time>2020-08-21T11:27:41Z</time>
        <sat>9</sat>
      </trkpt>
      <trkpt lat="42.340730" lon="-3.903662">
        <ele>845.5</ele>
        <time>2020-08-21T11:27:49Z</time>
        <sat>10</sat>
      </trkpt>
      <trkpt lat="42.340727" lon="-3.903782">
        <ele>844.9</ele>
        <time>2020-08-21T11:27:57Z</time>
        <sat>10</sat>
      </trkpt>
      <trkpt lat="42.340721" lon="-3.903905">
        <ele>844.4</ele>
        <time>2020-08-21T11:28:05Z</time>
        <sat>10</sat>
      </trkpt>
      <trkpt lat="42.340704" lon="-3.904024">
        <ele>843.5</ele>
        <time>2020-08-21T11:28:15Z</time>
        <sat>10</sat>
      </trkpt>
      <trkpt lat="42.340695" lon="-3.904142">
        <ele>843.2</ele>
        <time>2020-08-21T11:28:24Z</time>
        <sat>10</sat>
      </trkpt>
      <trkpt lat="42.340682" lon="-3.904255">
        <ele>842.9</ele>
        <time>2020-08-21T11:28:33Z</time>
        <sat>9</sat>
      </trkpt>
      <trkpt lat="42.340667" lon="-3.904369">
        <ele>842.6</ele>
        <time>2020-08-21T11:28:44Z</time>
        <sat>10</sat>
      </trkpt>
      <trkpt lat="42.340652" lon="-3.904495">
        <ele>842.2</ele>
        <time>2020-08-21T11:28:52Z</time>
        <sat>10</sat>
      </trkpt>
      <trkpt lat="42.340629" lon="-3.904606">
        <ele>841.5</ele>
        <time>2020-08-21T11:29:00Z</time>
        <sat>10</sat>
      </trkpt>
      <trkpt lat="42.340622" lon="-3.904722">
        <ele>840.9</ele>
        <time>2020-08-21T11:29:08Z</time>
        <sat>10</sat>
      </trkpt>
      <trkpt lat="42.340606" lon="-3.904841">
        <ele>840.8</ele>
        <time>2020-08-21T11:29:16Z</time>
        <sat>10</sat>
      </trkpt>
      <trkpt lat="42.340592" lon="-3.904963">
        <ele>840.4</ele>
        <time>2020-08-21T11:29:24Z</time>
        <sat>9</sat>
      </trkpt>
      <trkpt lat="42.340582" lon="-3.905074">
        <ele>840.5</ele>
        <time>2020-08-21T11:29:31Z</time>
        <sat>10</sat>
      </trkpt>
      <trkpt lat="42.340574" lon="-3.905185">
        <ele>840.3</ele>
        <time>2020-08-21T11:29:38Z</time>
        <sat>9</sat>
      </trkpt>
      <trkpt lat="42.340567" lon="-3.905296">
        <ele>839.8</ele>
        <time>2020-08-21T11:29:45Z</time>
        <sat>10</sat>
      </trkpt>
      <trkpt lat="42.340558" lon="-3.905405">
        <ele>839.4</ele>
        <time>2020-08-21T11:29:52Z</time>
        <sat>10</sat>
      </trkpt>
      <trkpt lat="42.340557" lon="-3.905526">
        <ele>838.9</ele>
        <time>2020-08-21T11:30:00Z</time>
        <sat>10</sat>
      </trkpt>
      <trkpt lat="42.340558" lon="-3.905637">
        <ele>838.7</ele>
        <time>2020-08-21T11:30:07Z</time>
        <sat>10</sat>
      </trkpt>
      <trkpt lat="42.340561" lon="-3.905749">
        <ele>838.5</ele>
        <time>2020-08-21T11:30:14Z</time>
        <sat>10</sat>
      </trkpt>
      <trkpt lat="42.340568" lon="-3.905859">
        <ele>838.2</ele>
        <time>2020-08-21T11:30:21Z</time>
        <sat>9</sat>
      </trkpt>
      <trkpt lat="42.340576" lon="-3.905975">
        <ele>837.4</ele>
        <time>2020-08-21T11:30:28Z</time>
        <sat>9</sat>
      </trkpt>
      <trkpt lat="42.340586" lon="-3.906087">
        <ele>836.9</ele>
        <time>2020-08-21T11:30:35Z</time>
        <sat>9</sat>
      </trkpt>
      <trkpt lat="42.340599" lon="-3.906208">
        <ele>835.2</ele>
        <time>2020-08-21T11:30:43Z</time>
        <sat>9</sat>
      </trkpt>
      <trkpt lat="42.340622" lon="-3.906316">
        <ele>833.8</ele>
        <time>2020-08-21T11:30:51Z</time>
        <sat>10</sat>
      </trkpt>
      <trkpt lat="42.340640" lon="-3.906434">
        <ele>831.6</ele>
        <time>2020-08-21T11:30:59Z</time>
        <sat>10</sat>
      </trkpt>
      <trkpt lat="42.340660" lon="-3.906561">
        <ele>833.7</ele>
        <time>2020-08-21T11:31:07Z</time>
        <sat>10</sat>
      </trkpt>
      <trkpt lat="42.340671" lon="-3.906686">
        <ele>833.7</ele>
        <time>2020-08-21T11:31:15Z</time>
        <sat>10</sat>
      </trkpt>
      <trkpt lat="42.340690" lon="-3.906807">
        <ele>833.5</ele>
        <time>2020-08-21T11:31:23Z</time>
        <sat>10</sat>
      </trkpt>
      <trkpt lat="42.340705" lon="-3.906927">
        <ele>833.6</ele>
        <time>2020-08-21T11:31:31Z</time>
        <sat>10</sat>
      </trkpt>
      <trkpt lat="42.340713" lon="-3.907037">
        <ele>833.3</ele>
        <time>2020-08-21T11:31:41Z</time>
        <sat>10</sat>
      </trkpt>
      <trkpt lat="42.340724" lon="-3.907147">
        <ele>832.5</ele>
        <time>2020-08-21T11:31:48Z</time>
        <sat>10</sat>
      </trkpt>
      <trkpt lat="42.340732" lon="-3.907271">
        <ele>833.6</ele>
        <time>2020-08-21T11:31:56Z</time>
        <sat>10</sat>
      </trkpt>
      <trkpt lat="42.340728" lon="-3.907390">
        <ele>833.9</ele>
        <time>2020-08-21T11:32:04Z</time>
        <sat>10</sat>
      </trkpt>
      <trkpt lat="42.340723" lon="-3.907516">
        <ele>834.1</ele>
        <time>2020-08-21T11:32:12Z</time>
        <sat>9</sat>
      </trkpt>
      <trkpt lat="42.340716" lon="-3.907627">
        <ele>834.2</ele>
        <time>2020-08-21T11:32:19Z</time>
        <sat>9</sat>
      </trkpt>
      <trkpt lat="42.340712" lon="-3.907738">
        <ele>833.7</ele>
        <time>2020-08-21T11:32:26Z</time>
        <sat>10</sat>
      </trkpt>
      <trkpt lat="42.340702" lon="-3.907859">
        <ele>833.8</ele>
        <time>2020-08-21T11:32:34Z</time>
        <sat>10</sat>
      </trkpt>
      <trkpt lat="42.340695" lon="-3.907976">
        <ele>833.6</ele>
        <time>2020-08-21T11:32:42Z</time>
        <sat>10</sat>
      </trkpt>
      <trkpt lat="42.340684" lon="-3.908088">
        <ele>833.3</ele>
        <time>2020-08-21T11:32:50Z</time>
        <sat>10</sat>
      </trkpt>
      <trkpt lat="42.340684" lon="-3.908205">
        <ele>833.2</ele>
        <time>2020-08-21T11:32:57Z</time>
        <sat>10</sat>
      </trkpt>
      <trkpt lat="42.340683" lon="-3.908321">
        <ele>833.3</ele>
        <time>2020-08-21T11:33:04Z</time>
        <sat>10</sat>
      </trkpt>
      <trkpt lat="42.340686" lon="-3.908444">
        <ele>833.4</ele>
        <time>2020-08-21T11:33:11Z</time>
        <sat>10</sat>
      </trkpt>
      <trkpt lat="42.340698" lon="-3.908560">
        <ele>833.3</ele>
        <time>2020-08-21T11:33:18Z</time>
        <sat>10</sat>
      </trkpt>
      <trkpt lat="42.340702" lon="-3.908681">
        <ele>833.3</ele>
        <time>2020-08-21T11:33:26Z</time>
        <sat>10</sat>
      </trkpt>
      <trkpt lat="42.340706" lon="-3.908795">
        <ele>833.3</ele>
        <time>2020-08-21T11:33:33Z</time>
        <sat>10</sat>
      </trkpt>
      <trkpt lat="42.340704" lon="-3.908912">
        <ele>833.4</ele>
        <time>2020-08-21T11:33:40Z</time>
        <sat>10</sat>
      </trkpt>
      <trkpt lat="42.340704" lon="-3.909026">
        <ele>833.3</ele>
        <time>2020-08-21T11:33:47Z</time>
        <sat>10</sat>
      </trkpt>
      <trkpt lat="42.340739" lon="-3.909140">
        <ele>833.1</ele>
        <time>2020-08-21T11:33:57Z</time>
        <sat>9</sat>
      </trkpt>
      <trkpt lat="42.340774" lon="-3.909166">
        <ele>833.2</ele>
        <time>2020-08-21T11:35:04Z</time>
        <sat>10</sat>
      </trkpt>
      <trkpt lat="42.340748" lon="-3.909280">
        <ele>833.2</ele>
        <time>2020-08-21T11:35:12Z</time>
        <sat>10</sat>
      </trkpt>
      <trkpt lat="42.340745" lon="-3.909391">
        <ele>833.2</ele>
        <time>2020-08-21T11:35:19Z</time>
        <sat>10</sat>
      </trkpt>
      <trkpt lat="42.340736" lon="-3.909503">
        <ele>833.1</ele>
        <time>2020-08-21T11:35:26Z</time>
        <sat>10</sat>
      </trkpt>
      <trkpt lat="42.340730" lon="-3.909617">
        <ele>833.0</ele>
        <time>2020-08-21T11:35:33Z</time>
        <sat>10</sat>
      </trkpt>
      <trkpt lat="42.340731" lon="-3.909734">
        <ele>832.9</ele>
        <time>2020-08-21T11:35:40Z</time>
        <sat>10</sat>
      </trkpt>
      <trkpt lat="42.340736" lon="-3.909851">
        <ele>832.9</ele>
        <time>2020-08-21T11:35:47Z</time>
        <sat>10</sat>
      </trkpt>
      <trkpt lat="42.340728" lon="-3.909971">
        <ele>832.9</ele>
        <time>2020-08-21T11:35:54Z</time>
        <sat>10</sat>
      </trkpt>
      <trkpt lat="42.340724" lon="-3.910085">
        <ele>832.8</ele>
        <time>2020-08-21T11:36:01Z</time>
        <sat>10</sat>
      </trkpt>
      <trkpt lat="42.340731" lon="-3.910208">
        <ele>832.5</ele>
        <time>2020-08-21T11:36:08Z</time>
        <sat>10</sat>
      </trkpt>
      <trkpt lat="42.340737" lon="-3.910327">
        <ele>832.1</ele>
        <time>2020-08-21T11:36:15Z</time>
        <sat>10</sat>
      </trkpt>
      <trkpt lat="42.340735" lon="-3.910444">
        <ele>831.5</ele>
        <time>2020-08-21T11:36:22Z</time>
        <sat>10</sat>
      </trkpt>
      <trkpt lat="42.340731" lon="-3.910564">
        <ele>831.2</ele>
        <time>2020-08-21T11:36:29Z</time>
        <sat>10</sat>
      </trkpt>
      <trkpt lat="42.340725" lon="-3.910674">
        <ele>831.1</ele>
        <time>2020-08-21T11:36:35Z</time>
        <sat>10</sat>
      </trkpt>
      <trkpt lat="42.340725" lon="-3.910794">
        <ele>830.9</ele>
        <time>2020-08-21T11:36:42Z</time>
        <sat>10</sat>
      </trkpt>
      <trkpt lat="42.340717" lon="-3.910908">
        <ele>830.6</ele>
        <time>2020-08-21T11:36:49Z</time>
        <sat>10</sat>
      </trkpt>
      <trkpt lat="42.340710" lon="-3.911023">
        <ele>830.5</ele>
        <time>2020-08-21T11:36:56Z</time>
        <sat>10</sat>
      </trkpt>
      <trkpt lat="42.340704" lon="-3.911132">
        <ele>830.1</ele>
        <time>2020-08-21T11:37:03Z</time>
        <sat>10</sat>
      </trkpt>
      <trkpt lat="42.340705" lon="-3.911244">
        <ele>829.7</ele>
        <time>2020-08-21T11:37:10Z</time>
        <sat>9</sat>
      </trkpt>
      <trkpt lat="42.340708" lon="-3.911358">
        <ele>829.4</ele>
        <time>2020-08-21T11:37:17Z</time>
        <sat>10</sat>
      </trkpt>
      <trkpt lat="42.340708" lon="-3.911470">
        <ele>829.2</ele>
        <time>2020-08-21T11:37:24Z</time>
        <sat>10</sat>
      </trkpt>
      <trkpt lat="42.340699" lon="-3.911585">
        <ele>829.2</ele>
        <time>2020-08-21T11:37:31Z</time>
        <sat>9</sat>
      </trkpt>
      <trkpt lat="42.340701" lon="-3.911697">
        <ele>829.1</ele>
        <time>2020-08-21T11:37:38Z</time>
        <sat>10</sat>
      </trkpt>
      <trkpt lat="42.340691" lon="-3.911816">
        <ele>829.0</ele>
        <time>2020-08-21T11:37:45Z</time>
        <sat>10</sat>
      </trkpt>
      <trkpt lat="42.340688" lon="-3.911934">
        <ele>828.8</ele>
        <time>2020-08-21T11:37:52Z</time>
        <sat>10</sat>
      </trkpt>
      <trkpt lat="42.340678" lon="-3.912049">
        <ele>828.8</ele>
        <time>2020-08-21T11:37:59Z</time>
        <sat>10</sat>
      </trkpt>
      <trkpt lat="42.340667" lon="-3.912168">
        <ele>828.6</ele>
        <time>2020-08-21T11:38:06Z</time>
        <sat>9</sat>
      </trkpt>
      <trkpt lat="42.340669" lon="-3.912293">
        <ele>828.3</ele>
        <time>2020-08-21T11:38:14Z</time>
        <sat>10</sat>
      </trkpt>
      <trkpt lat="42.340660" lon="-3.912416">
        <ele>828.2</ele>
        <time>2020-08-21T11:38:22Z</time>
        <sat>9</sat>
      </trkpt>
      <trkpt lat="42.340653" lon="-3.912531">
        <ele>828.1</ele>
        <time>2020-08-21T11:38:29Z</time>
        <sat>10</sat>
      </trkpt>
      <trkpt lat="42.340655" lon="-3.912651">
        <ele>828.1</ele>
        <time>2020-08-21T11:38:36Z</time>
        <sat>10</sat>
      </trkpt>
      <trkpt lat="42.340642" lon="-3.912770">
        <ele>827.9</ele>
        <time>2020-08-21T11:38:43Z</time>
        <sat>9</sat>
      </trkpt>
      <trkpt lat="42.340638" lon="-3.912887">
        <ele>827.9</ele>
        <time>2020-08-21T11:38:50Z</time>
        <sat>10</sat>
      </trkpt>
      <trkpt lat="42.340637" lon="-3.913004">
        <ele>827.9</ele>
        <time>2020-08-21T11:38:57Z</time>
        <sat>10</sat>
      </trkpt>
      <trkpt lat="42.340640" lon="-3.913125">
        <ele>827.8</ele>
        <time>2020-08-21T11:39:04Z</time>
        <sat>10</sat>
      </trkpt>
      <trkpt lat="42.340641" lon="-3.913251">
        <ele>827.7</ele>
        <time>2020-08-21T11:39:12Z</time>
        <sat>10</sat>
      </trkpt>
      <trkpt lat="42.340635" lon="-3.913369">
        <ele>827.6</ele>
        <time>2020-08-21T11:39:19Z</time>
        <sat>9</sat>
      </trkpt>
      <trkpt lat="42.340625" lon="-3.913486">
        <ele>827.3</ele>
        <time>2020-08-21T11:39:26Z</time>
        <sat>10</sat>
      </trkpt>
      <trkpt lat="42.340622" lon="-3.913597">
        <ele>827.3</ele>
        <time>2020-08-21T11:39:32Z</time>
        <sat>10</sat>
      </trkpt>
      <trkpt lat="42.340608" lon="-3.913712">
        <ele>827.1</ele>
        <time>2020-08-21T11:39:39Z</time>
        <sat>10</sat>
      </trkpt>
      <trkpt lat="42.340603" lon="-3.913831">
        <ele>826.9</ele>
        <time>2020-08-21T11:39:46Z</time>
        <sat>10</sat>
      </trkpt>
      <trkpt lat="42.340596" lon="-3.913955">
        <ele>826.7</ele>
        <time>2020-08-21T11:39:53Z</time>
        <sat>10</sat>
      </trkpt>
      <trkpt lat="42.340580" lon="-3.914076">
        <ele>826.4</ele>
        <time>2020-08-21T11:40:00Z</time>
        <sat>10</sat>
      </trkpt>
      <trkpt lat="42.340572" lon="-3.914186">
        <ele>826.3</ele>
        <time>2020-08-21T11:40:06Z</time>
        <sat>9</sat>
      </trkpt>
      <trkpt lat="42.340550" lon="-3.914302">
        <ele>826.3</ele>
        <time>2020-08-21T11:40:13Z</time>
        <sat>10</sat>
      </trkpt>
      <trkpt lat="42.340544" lon="-3.914420">
        <ele>826.2</ele>
        <time>2020-08-21T11:40:20Z</time>
        <sat>10</sat>
      </trkpt>
      <trkpt lat="42.340540" lon="-3.914541">
        <ele>826.1</ele>
        <time>2020-08-21T11:40:27Z</time>
        <sat>10</sat>
      </trkpt>
      <trkpt lat="42.340517" lon="-3.914662">
        <ele>826.0</ele>
        <time>2020-08-21T11:40:34Z</time>
        <sat>10</sat>
      </trkpt>
      <trkpt lat="42.340502" lon="-3.914782">
        <ele>826.0</ele>
        <time>2020-08-21T11:40:41Z</time>
        <sat>10</sat>
      </trkpt>
      <trkpt lat="42.340495" lon="-3.914896">
        <ele>826.1</ele>
        <time>2020-08-21T11:40:47Z</time>
        <sat>10</sat>
      </trkpt>
      <trkpt lat="42.340472" lon="-3.915010">
        <ele>826.1</ele>
        <time>2020-08-21T11:40:54Z</time>
        <sat>10</sat>
      </trkpt>
      <trkpt lat="42.340454" lon="-3.915132">
        <ele>826.0</ele>
        <time>2020-08-21T11:41:01Z</time>
        <sat>10</sat>
      </trkpt>
      <trkpt lat="42.340439" lon="-3.915243">
        <ele>825.9</ele>
        <time>2020-08-21T11:41:07Z</time>
        <sat>9</sat>
      </trkpt>
      <trkpt lat="42.340434" lon="-3.915362">
        <ele>825.8</ele>
        <time>2020-08-21T11:41:14Z</time>
        <sat>10</sat>
      </trkpt>
      <trkpt lat="42.340416" lon="-3.915485">
        <ele>825.5</ele>
        <time>2020-08-21T11:41:21Z</time>
        <sat>10</sat>
      </trkpt>
      <trkpt lat="42.340404" lon="-3.915610">
        <ele>825.5</ele>
        <time>2020-08-21T11:41:28Z</time>
        <sat>10</sat>
      </trkpt>
      <trkpt lat="42.340394" lon="-3.915726">
        <ele>825.4</ele>
        <time>2020-08-21T11:41:35Z</time>
        <sat>10</sat>
      </trkpt>
      <trkpt lat="42.340385" lon="-3.915846">
        <ele>825.3</ele>
        <time>2020-08-21T11:41:42Z</time>
        <sat>9</sat>
      </trkpt>
      <trkpt lat="42.340366" lon="-3.915965">
        <ele>825.0</ele>
        <time>2020-08-21T11:41:49Z</time>
        <sat>10</sat>
      </trkpt>
      <trkpt lat="42.340358" lon="-3.916084">
        <ele>824.9</ele>
        <time>2020-08-21T11:41:56Z</time>
        <sat>9</sat>
      </trkpt>
      <trkpt lat="42.340343" lon="-3.916203">
        <ele>824.7</ele>
        <time>2020-08-21T11:42:03Z</time>
        <sat>9</sat>
      </trkpt>
      <trkpt lat="42.340332" lon="-3.916322">
        <ele>824.5</ele>
        <time>2020-08-21T11:42:10Z</time>
        <sat>9</sat>
      </trkpt>
      <trkpt lat="42.340323" lon="-3.916441">
        <ele>824.1</ele>
        <time>2020-08-21T11:42:17Z</time>
        <sat>10</sat>
      </trkpt>
      <trkpt lat="42.340309" lon="-3.916566">
        <ele>824.0</ele>
        <time>2020-08-21T11:42:24Z</time>
        <sat>10</sat>
      </trkpt>
      <trkpt lat="42.340293" lon="-3.916678">
        <ele>823.9</ele>
        <time>2020-08-21T11:42:30Z</time>
        <sat>10</sat>
      </trkpt>
      <trkpt lat="42.340282" lon="-3.916799">
        <ele>823.5</ele>
        <time>2020-08-21T11:42:37Z</time>
        <sat>10</sat>
      </trkpt>
      <trkpt lat="42.340268" lon="-3.916917">
        <ele>823.0</ele>
        <time>2020-08-21T11:42:44Z</time>
        <sat>10</sat>
      </trkpt>
      <trkpt lat="42.340244" lon="-3.917034">
        <ele>822.6</ele>
        <time>2020-08-21T11:42:51Z</time>
        <sat>10</sat>
      </trkpt>
      <trkpt lat="42.340241" lon="-3.917150">
        <ele>822.2</ele>
        <time>2020-08-21T11:42:58Z</time>
        <sat>10</sat>
      </trkpt>
      <trkpt lat="42.340232" lon="-3.917273">
        <ele>821.8</ele>
        <time>2020-08-21T11:43:05Z</time>
        <sat>10</sat>
      </trkpt>
      <trkpt lat="42.340219" lon="-3.917385">
        <ele>821.3</ele>
        <time>2020-08-21T11:43:12Z</time>
        <sat>10</sat>
      </trkpt>
      <trkpt lat="42.340210" lon="-3.917507">
        <ele>820.9</ele>
        <time>2020-08-21T11:43:19Z</time>
        <sat>10</sat>
      </trkpt>
      <trkpt lat="42.340193" lon="-3.917631">
        <ele>820.5</ele>
        <time>2020-08-21T11:43:26Z</time>
        <sat>10</sat>
      </trkpt>
      <trkpt lat="42.340178" lon="-3.917751">
        <ele>820.2</ele>
        <time>2020-08-21T11:43:33Z</time>
        <sat>10</sat>
      </trkpt>
      <trkpt lat="42.340170" lon="-3.917860">
        <ele>819.9</ele>
        <time>2020-08-21T11:43:40Z</time>
        <sat>10</sat>
      </trkpt>
      <trkpt lat="42.340153" lon="-3.917969">
        <ele>819.6</ele>
        <time>2020-08-21T11:43:46Z</time>
        <sat>10</sat>
      </trkpt>
      <trkpt lat="42.340148" lon="-3.918080">
        <ele>819.5</ele>
        <time>2020-08-21T11:43:53Z</time>
        <sat>10</sat>
      </trkpt>
      <trkpt lat="42.340141" lon="-3.918197">
        <ele>819.4</ele>
        <time>2020-08-21T11:44:00Z</time>
        <sat>9</sat>
      </trkpt>
      <trkpt lat="42.340120" lon="-3.918319">
        <ele>819.3</ele>
        <time>2020-08-21T11:44:07Z</time>
        <sat>10</sat>
      </trkpt>
      <trkpt lat="42.340101" lon="-3.918431">
        <ele>819.3</ele>
        <time>2020-08-21T11:44:14Z</time>
        <sat>10</sat>
      </trkpt>
      <trkpt lat="42.340092" lon="-3.918544">
        <ele>819.2</ele>
        <time>2020-08-21T11:44:20Z</time>
        <sat>10</sat>
      </trkpt>
      <trkpt lat="42.340075" lon="-3.918668">
        <ele>819.0</ele>
        <time>2020-08-21T11:44:27Z</time>
        <sat>10</sat>
      </trkpt>
      <trkpt lat="42.340066" lon="-3.918790">
        <ele>818.9</ele>
        <time>2020-08-21T11:44:34Z</time>
        <sat>10</sat>
      </trkpt>
      <trkpt lat="42.340050" lon="-3.918914">
        <ele>819.0</ele>
        <time>2020-08-21T11:44:41Z</time>
        <sat>10</sat>
      </trkpt>
      <trkpt lat="42.340036" lon="-3.919038">
        <ele>818.8</ele>
        <time>2020-08-21T11:44:48Z</time>
        <sat>10</sat>
      </trkpt>
      <trkpt lat="42.340019" lon="-3.919151">
        <ele>818.5</ele>
        <time>2020-08-21T11:44:55Z</time>
        <sat>10</sat>
      </trkpt>
      <trkpt lat="42.339973" lon="-3.919245">
        <ele>818.3</ele>
        <time>2020-08-21T11:45:01Z</time>
        <sat>10</sat>
      </trkpt>
      <trkpt lat="42.339925" lon="-3.919334">
        <ele>818.0</ele>
        <time>2020-08-21T11:45:07Z</time>
        <sat>10</sat>
      </trkpt>
      <trkpt lat="42.339891" lon="-3.919436">
        <ele>817.6</ele>
        <time>2020-08-21T11:45:15Z</time>
        <sat>10</sat>
      </trkpt>
      <trkpt lat="42.339863" lon="-3.919539">
        <ele>817.2</ele>
        <time>2020-08-21T11:45:22Z</time>
        <sat>10</sat>
      </trkpt>
      <trkpt lat="42.339836" lon="-3.919651">
        <ele>817.1</ele>
        <time>2020-08-21T11:45:29Z</time>
        <sat>10</sat>
      </trkpt>
      <trkpt lat="42.339814" lon="-3.919769">
        <ele>817.1</ele>
        <time>2020-08-21T11:45:36Z</time>
        <sat>10</sat>
      </trkpt>
      <trkpt lat="42.339777" lon="-3.919877">
        <ele>817.1</ele>
        <time>2020-08-21T11:45:43Z</time>
        <sat>10</sat>
      </trkpt>
      <trkpt lat="42.339746" lon="-3.919987">
        <ele>817.1</ele>
        <time>2020-08-21T11:45:50Z</time>
        <sat>10</sat>
      </trkpt>
      <trkpt lat="42.339713" lon="-3.920097">
        <ele>816.9</ele>
        <time>2020-08-21T11:45:57Z</time>
        <sat>10</sat>
      </trkpt>
      <trkpt lat="42.339679" lon="-3.920205">
        <ele>816.7</ele>
        <time>2020-08-21T11:46:04Z</time>
        <sat>10</sat>
      </trkpt>
      <trkpt lat="42.339647" lon="-3.920312">
        <ele>816.8</ele>
        <time>2020-08-21T11:46:11Z</time>
        <sat>10</sat>
      </trkpt>
      <trkpt lat="42.339609" lon="-3.920424">
        <ele>816.9</ele>
        <time>2020-08-21T11:46:18Z</time>
        <sat>10</sat>
      </trkpt>
      <trkpt lat="42.339566" lon="-3.920527">
        <ele>817.0</ele>
        <time>2020-08-21T11:46:25Z</time>
        <sat>10</sat>
      </trkpt>
      <trkpt lat="42.339525" lon="-3.920632">
        <ele>816.9</ele>
        <time>2020-08-21T11:46:32Z</time>
        <sat>10</sat>
      </trkpt>
      <trkpt lat="42.339473" lon="-3.920728">
        <ele>816.8</ele>
        <time>2020-08-21T11:46:39Z</time>
        <sat>9</sat>
      </trkpt>
      <trkpt lat="42.339418" lon="-3.920818">
        <ele>816.6</ele>
        <time>2020-08-21T11:46:46Z</time>
        <sat>9</sat>
      </trkpt>
      <trkpt lat="42.339366" lon="-3.920918">
        <ele>816.5</ele>
        <time>2020-08-21T11:46:53Z</time>
        <sat>10</sat>
      </trkpt>
      <trkpt lat="42.339309" lon="-3.921013">
        <ele>816.3</ele>
        <time>2020-08-21T11:47:00Z</time>
        <sat>10</sat>
      </trkpt>
      <trkpt lat="42.339259" lon="-3.921111">
        <ele>816.2</ele>
        <time>2020-08-21T11:47:07Z</time>
        <sat>10</sat>
      </trkpt>
      <trkpt lat="42.339218" lon="-3.921218">
        <ele>816.2</ele>
        <time>2020-08-21T11:47:14Z</time>
        <sat>10</sat>
      </trkpt>
      <trkpt lat="42.339172" lon="-3.921321">
        <ele>816.3</ele>
        <time>2020-08-21T11:47:21Z</time>
        <sat>10</sat>
      </trkpt>
      <trkpt lat="42.339129" lon="-3.921426">
        <ele>816.4</ele>
        <time>2020-08-21T11:47:30Z</time>
        <sat>10</sat>
      </trkpt>
      <trkpt lat="42.339077" lon="-3.921531">
        <ele>816.3</ele>
        <time>2020-08-21T11:47:37Z</time>
        <sat>10</sat>
      </trkpt>
      <trkpt lat="42.339012" lon="-3.921617">
        <ele>816.2</ele>
        <time>2020-08-21T11:47:44Z</time>
        <sat>10</sat>
      </trkpt>
      <trkpt lat="42.338957" lon="-3.921708">
        <ele>816.4</ele>
        <time>2020-08-21T11:47:51Z</time>
        <sat>10</sat>
      </trkpt>
      <trkpt lat="42.338899" lon="-3.921785">
        <ele>816.4</ele>
        <time>2020-08-21T11:48:05Z</time>
        <sat>10</sat>
      </trkpt>
      <trkpt lat="42.338859" lon="-3.921891">
        <ele>816.7</ele>
        <time>2020-08-21T11:48:20Z</time>
        <sat>10</sat>
      </trkpt>
      <trkpt lat="42.338832" lon="-3.922007">
        <ele>816.8</ele>
        <time>2020-08-21T11:48:27Z</time>
        <sat>10</sat>
      </trkpt>
      <trkpt lat="42.338819" lon="-3.922121">
        <ele>816.7</ele>
        <time>2020-08-21T11:48:34Z</time>
        <sat>10</sat>
      </trkpt>
      <trkpt lat="42.338806" lon="-3.922239">
        <ele>816.7</ele>
        <time>2020-08-21T11:48:41Z</time>
        <sat>10</sat>
      </trkpt>
      <trkpt lat="42.338788" lon="-3.922349">
        <ele>816.6</ele>
        <time>2020-08-21T11:48:48Z</time>
        <sat>10</sat>
      </trkpt>
      <trkpt lat="42.338776" lon="-3.922461">
        <ele>816.6</ele>
        <time>2020-08-21T11:48:55Z</time>
        <sat>10</sat>
      </trkpt>
      <trkpt lat="42.338763" lon="-3.922582">
        <ele>816.4</ele>
        <time>2020-08-21T11:49:03Z</time>
        <sat>10</sat>
      </trkpt>
      <trkpt lat="42.338751" lon="-3.922693">
        <ele>816.3</ele>
        <time>2020-08-21T11:49:10Z</time>
        <sat>10</sat>
      </trkpt>
      <trkpt lat="42.338744" lon="-3.922809">
        <ele>816.3</ele>
        <time>2020-08-21T11:49:18Z</time>
        <sat>10</sat>
      </trkpt>
      <trkpt lat="42.338723" lon="-3.922923">
        <ele>816.5</ele>
        <time>2020-08-21T11:49:27Z</time>
        <sat>10</sat>
      </trkpt>
      <trkpt lat="42.338699" lon="-3.923028">
        <ele>816.5</ele>
        <time>2020-08-21T11:49:34Z</time>
        <sat>10</sat>
      </trkpt>
      <trkpt lat="42.338684" lon="-3.923136">
        <ele>816.5</ele>
        <time>2020-08-21T11:49:41Z</time>
        <sat>10</sat>
      </trkpt>
      <trkpt lat="42.338669" lon="-3.923250">
        <ele>816.3</ele>
        <time>2020-08-21T11:49:48Z</time>
        <sat>10</sat>
      </trkpt>
      <trkpt lat="42.338651" lon="-3.923369">
        <ele>816.4</ele>
        <time>2020-08-21T11:49:56Z</time>
        <sat>10</sat>
      </trkpt>
      <trkpt lat="42.338597" lon="-3.923455">
        <ele>816.4</ele>
        <time>2020-08-21T11:50:04Z</time>
        <sat>9</sat>
      </trkpt>
      <trkpt lat="42.338590" lon="-3.923577">
        <ele>816.2</ele>
        <time>2020-08-21T11:50:19Z</time>
        <sat>10</sat>
      </trkpt>
      <trkpt lat="42.338583" lon="-3.923696">
        <ele>816.2</ele>
        <time>2020-08-21T11:50:26Z</time>
        <sat>10</sat>
      </trkpt>
      <trkpt lat="42.338573" lon="-3.923822">
        <ele>816.2</ele>
        <time>2020-08-21T11:50:34Z</time>
        <sat>10</sat>
      </trkpt>
      <trkpt lat="42.338552" lon="-3.923938">
        <ele>816.1</ele>
        <time>2020-08-21T11:50:41Z</time>
        <sat>10</sat>
      </trkpt>
      <trkpt lat="42.338525" lon="-3.924051">
        <ele>814.5</ele>
        <time>2020-08-21T11:50:49Z</time>
        <sat>10</sat>
      </trkpt>
      <trkpt lat="42.338501" lon="-3.924157">
        <ele>810.4</ele>
        <time>2020-08-21T11:51:01Z</time>
        <sat>9</sat>
      </trkpt>
      <trkpt lat="42.338481" lon="-3.924241">
        <ele>777.4</ele>
        <time>2020-08-22T04:47:47Z</time>
        <sat>5</sat>
      </trkpt>
      <trkpt lat="42.338445" lon="-3.924349">
        <ele>777.5</ele>
        <time>2020-08-22T04:48:27Z</time>
        <sat>5</sat>
      </trkpt>
      <trkpt lat="42.338396" lon="-3.924440">
        <ele>777.8</ele>
        <time>2020-08-22T04:48:35Z</time>
        <sat>5</sat>
      </trkpt>
      <trkpt lat="42.338339" lon="-3.924543">
        <ele>779.2</ele>
        <time>2020-08-22T04:48:44Z</time>
        <sat>5</sat>
      </trkpt>
      <trkpt lat="42.338294" lon="-3.924635">
        <ele>779.9</ele>
        <time>2020-08-22T04:48:52Z</time>
        <sat>5</sat>
      </trkpt>
      <trkpt lat="42.338271" lon="-3.924745">
        <ele>780.7</ele>
        <time>2020-08-22T04:48:59Z</time>
        <sat>5</sat>
      </trkpt>
      <trkpt lat="42.338261" lon="-3.924854">
        <ele>780.9</ele>
        <time>2020-08-22T04:49:06Z</time>
        <sat>5</sat>
      </trkpt>
      <trkpt lat="42.338262" lon="-3.924969">
        <ele>780.8</ele>
        <time>2020-08-22T04:49:13Z</time>
        <sat>5</sat>
      </trkpt>
      <trkpt lat="42.338280" lon="-3.925084">
        <ele>779.9</ele>
        <time>2020-08-22T04:49:20Z</time>
        <sat>4</sat>
      </trkpt>
      <trkpt lat="42.338295" lon="-3.925196">
        <ele>780.8</ele>
        <time>2020-08-22T04:49:27Z</time>
        <sat>5</sat>
      </trkpt>
      <trkpt lat="42.338328" lon="-3.925298">
        <ele>780.7</ele>
        <time>2020-08-22T04:49:34Z</time>
        <sat>5</sat>
      </trkpt>
      <trkpt lat="42.338336" lon="-3.925407">
        <ele>780.8</ele>
        <time>2020-08-22T04:49:41Z</time>
        <sat>5</sat>
      </trkpt>
      <trkpt lat="42.338350" lon="-3.925521">
        <ele>781.2</ele>
        <time>2020-08-22T04:49:48Z</time>
        <sat>5</sat>
      </trkpt>
      <trkpt lat="42.338371" lon="-3.925651">
        <ele>781.6</ele>
        <time>2020-08-22T04:49:55Z</time>
        <sat>5</sat>
      </trkpt>
      <trkpt lat="42.338410" lon="-3.925750">
        <ele>802.3</ele>
        <time>2020-08-22T04:50:01Z</time>
        <sat>6</sat>
      </trkpt>
      <trkpt lat="42.338427" lon="-3.925867">
        <ele>816.5</ele>
        <time>2020-08-22T04:50:08Z</time>
        <sat>6</sat>
      </trkpt>
      <trkpt lat="42.338438" lon="-3.925978">
        <ele>819.5</ele>
        <time>2020-08-22T04:50:15Z</time>
        <sat>6</sat>
      </trkpt>
      <trkpt lat="42.338457" lon="-3.926098">
        <ele>820.7</ele>
        <time>2020-08-22T04:50:26Z</time>
        <sat>6</sat>
      </trkpt>
      <trkpt lat="42.338475" lon="-3.926205">
        <ele>821.0</ele>
        <time>2020-08-22T04:50:32Z</time>
        <sat>6</sat>
      </trkpt>
      <trkpt lat="42.338502" lon="-3.926318">
        <ele>821.3</ele>
        <time>2020-08-22T04:50:39Z</time>
        <sat>6</sat>
      </trkpt>
      <trkpt lat="42.338530" lon="-3.926421">
        <ele>821.6</ele>
        <time>2020-08-22T04:50:45Z</time>
        <sat>6</sat>
      </trkpt>
      <trkpt lat="42.338549" lon="-3.926530">
        <ele>821.8</ele>
        <time>2020-08-22T04:50:52Z</time>
        <sat>6</sat>
      </trkpt>
      <trkpt lat="42.338567" lon="-3.926647">
        <ele>822.0</ele>
        <time>2020-08-22T04:50:59Z</time>
        <sat>6</sat>
      </trkpt>
      <trkpt lat="42.338586" lon="-3.926754">
        <ele>822.2</ele>
        <time>2020-08-22T04:51:06Z</time>
        <sat>6</sat>
      </trkpt>
      <trkpt lat="42.338602" lon="-3.926873">
        <ele>822.4</ele>
        <time>2020-08-22T04:51:13Z</time>
        <sat>6</sat>
      </trkpt>
      <trkpt lat="42.338599" lon="-3.926998">
        <ele>822.5</ele>
        <time>2020-08-22T04:51:20Z</time>
        <sat>6</sat>
      </trkpt>
      <trkpt lat="42.338578" lon="-3.927105">
        <ele>822.2</ele>
        <time>2020-08-22T04:51:28Z</time>
        <sat>6</sat>
      </trkpt>
      <trkpt lat="42.338531" lon="-3.927209">
        <ele>822.3</ele>
        <time>2020-08-22T04:51:35Z</time>
        <sat>6</sat>
      </trkpt>
      <trkpt lat="42.338497" lon="-3.927319">
        <ele>823.4</ele>
        <time>2020-08-22T04:51:41Z</time>
        <sat>6</sat>
      </trkpt>
      <trkpt lat="42.338483" lon="-3.927428">
        <ele>823.9</ele>
        <time>2020-08-22T04:51:49Z</time>
        <sat>6</sat>
      </trkpt>
      <trkpt lat="42.338470" lon="-3.927549">
        <ele>824.0</ele>
        <time>2020-08-22T04:51:57Z</time>
        <sat>6</sat>
      </trkpt>
      <trkpt lat="42.338459" lon="-3.927662">
        <ele>824.0</ele>
        <time>2020-08-22T04:52:04Z</time>
        <sat>6</sat>
      </trkpt>
      <trkpt lat="42.338439" lon="-3.927789">
        <ele>824.2</ele>
        <time>2020-08-22T04:52:46Z</time>
        <sat>6</sat>
      </trkpt>
      <trkpt lat="42.338392" lon="-3.927898">
        <ele>823.3</ele>
        <time>2020-08-22T04:52:53Z</time>
        <sat>6</sat>
      </trkpt>
      <trkpt lat="42.338347" lon="-3.928001">
        <ele>823.3</ele>
        <time>2020-08-22T04:53:00Z</time>
        <sat>6</sat>
      </trkpt>
      <trkpt lat="42.338283" lon="-3.928091">
        <ele>823.9</ele>
        <time>2020-08-22T04:53:07Z</time>
        <sat>6</sat>
      </trkpt>
      <trkpt lat="42.338228" lon="-3.928183">
        <ele>825.7</ele>
        <time>2020-08-22T04:53:14Z</time>
        <sat>6</sat>
      </trkpt>
      <trkpt lat="42.338185" lon="-3.928294">
        <ele>826.7</ele>
        <time>2020-08-22T04:53:21Z</time>
        <sat>6</sat>
      </trkpt>
      <trkpt lat="42.338160" lon="-3.928417">
        <ele>826.3</ele>
        <time>2020-08-22T04:53:28Z</time>
        <sat>6</sat>
      </trkpt>
      <trkpt lat="42.338119" lon="-3.928534">
        <ele>826.1</ele>
        <time>2020-08-22T04:53:35Z</time>
        <sat>6</sat>
      </trkpt>
      <trkpt lat="42.338085" lon="-3.928654">
        <ele>826.0</ele>
        <time>2020-08-22T04:53:42Z</time>
        <sat>6</sat>
      </trkpt>
      <trkpt lat="42.338051" lon="-3.928755">
        <ele>825.9</ele>
        <time>2020-08-22T04:53:48Z</time>
        <sat>6</sat>
      </trkpt>
      <trkpt lat="42.338008" lon="-3.928849">
        <ele>826.0</ele>
        <time>2020-08-22T04:53:54Z</time>
        <sat>6</sat>
      </trkpt>
      <trkpt lat="42.337972" lon="-3.928949">
        <ele>826.1</ele>
        <time>2020-08-22T04:54:00Z</time>
        <sat>6</sat>
      </trkpt>
      <trkpt lat="42.337936" lon="-3.929047">
        <ele>826.3</ele>
        <time>2020-08-22T04:54:07Z</time>
        <sat>6</sat>
      </trkpt>
      <trkpt lat="42.337891" lon="-3.929151">
        <ele>826.4</ele>
        <time>2020-08-22T04:54:14Z</time>
        <sat>6</sat>
      </trkpt>
      <trkpt lat="42.337853" lon="-3.929267">
        <ele>826.6</ele>
        <time>2020-08-22T04:54:21Z</time>
        <sat>6</sat>
      </trkpt>
      <trkpt lat="42.337813" lon="-3.929377">
        <ele>826.8</ele>
        <time>2020-08-22T04:54:28Z</time>
        <sat>6</sat>
      </trkpt>
      <trkpt lat="42.337760" lon="-3.929484">
        <ele>826.9</ele>
        <time>2020-08-22T04:54:35Z</time>
        <sat>6</sat>
      </trkpt>
      <trkpt lat="42.337719" lon="-3.929592">
        <ele>827.1</ele>
        <time>2020-08-22T04:54:42Z</time>
        <sat>6</sat>
      </trkpt>
      <trkpt lat="42.337691" lon="-3.929695">
        <ele>827.2</ele>
        <time>2020-08-22T04:54:48Z</time>
        <sat>6</sat>
      </trkpt>
      <trkpt lat="42.337655" lon="-3.929806">
        <ele>827.4</ele>
        <time>2020-08-22T04:54:55Z</time>
        <sat>6</sat>
      </trkpt>
      <trkpt lat="42.337624" lon="-3.929920">
        <ele>827.5</ele>
        <time>2020-08-22T04:55:02Z</time>
        <sat>6</sat>
      </trkpt>
      <trkpt lat="42.337610" lon="-3.930040">
        <ele>827.7</ele>
        <time>2020-08-22T04:55:09Z</time>
        <sat>6</sat>
      </trkpt>
      <trkpt lat="42.337618" lon="-3.930160">
        <ele>827.8</ele>
        <time>2020-08-22T04:55:16Z</time>
        <sat>6</sat>
      </trkpt>
      <trkpt lat="42.337623" lon="-3.930280">
        <ele>828.0</ele>
        <time>2020-08-22T04:55:23Z</time>
        <sat>6</sat>
      </trkpt>
      <trkpt lat="42.337651" lon="-3.930400">
        <ele>828.2</ele>
        <time>2020-08-22T04:55:30Z</time>
        <sat>6</sat>
      </trkpt>
      <trkpt lat="42.337677" lon="-3.930505">
        <ele>828.3</ele>
        <time>2020-08-22T04:55:36Z</time>
        <sat>7</sat>
      </trkpt>
      <trkpt lat="42.337701" lon="-3.930624">
        <ele>828.4</ele>
        <time>2020-08-22T04:55:43Z</time>
        <sat>7</sat>
      </trkpt>
      <trkpt lat="42.337726" lon="-3.930734">
        <ele>828.5</ele>
        <time>2020-08-22T04:55:50Z</time>
        <sat>7</sat>
      </trkpt>
      <trkpt lat="42.337738" lon="-3.930854">
        <ele>828.8</ele>
        <time>2020-08-22T04:55:57Z</time>
        <sat>8</sat>
      </trkpt>
      <trkpt lat="42.337747" lon="-3.930963">
        <ele>829.0</ele>
        <time>2020-08-22T04:56:03Z</time>
        <sat>7</sat>
      </trkpt>
      <trkpt lat="42.337769" lon="-3.931076">
        <ele>829.1</ele>
        <time>2020-08-22T04:56:10Z</time>
        <sat>7</sat>
      </trkpt>
      <trkpt lat="42.337790" lon="-3.931193">
        <ele>829.1</ele>
        <time>2020-08-22T04:56:17Z</time>
        <sat>7</sat>
      </trkpt>
      <trkpt lat="42.337812" lon="-3.931313">
        <ele>829.3</ele>
        <time>2020-08-22T04:56:24Z</time>
        <sat>7</sat>
      </trkpt>
      <trkpt lat="42.337814" lon="-3.931423">
        <ele>829.5</ele>
        <time>2020-08-22T04:56:31Z</time>
        <sat>7</sat>
      </trkpt>
      <trkpt lat="42.337839" lon="-3.931545">
        <ele>829.7</ele>
        <time>2020-08-22T04:56:38Z</time>
        <sat>8</sat>
      </trkpt>
      <trkpt lat="42.337867" lon="-3.931650">
        <ele>830.1</ele>
        <time>2020-08-22T04:56:44Z</time>
        <sat>8</sat>
      </trkpt>
      <trkpt lat="42.337879" lon="-3.931772">
        <ele>830.4</ele>
        <time>2020-08-22T04:56:51Z</time>
        <sat>8</sat>
      </trkpt>
      <trkpt lat="42.337899" lon="-3.931888">
        <ele>830.8</ele>
        <time>2020-08-22T04:56:58Z</time>
        <sat>8</sat>
      </trkpt>
      <trkpt lat="42.337917" lon="-3.931996">
        <ele>831.1</ele>
        <time>2020-08-22T04:57:04Z</time>
        <sat>7</sat>
      </trkpt>
      <trkpt lat="42.337926" lon="-3.932112">
        <ele>831.3</ele>
        <time>2020-08-22T04:57:11Z</time>
        <sat>7</sat>
      </trkpt>
      <trkpt lat="42.337936" lon="-3.932238">
        <ele>831.6</ele>
        <time>2020-08-22T04:57:18Z</time>
        <sat>7</sat>
      </trkpt>
      <trkpt lat="42.337941" lon="-3.932365">
        <ele>831.8</ele>
        <time>2020-08-22T04:57:25Z</time>
        <sat>7</sat>
      </trkpt>
      <trkpt lat="42.337947" lon="-3.932484">
        <ele>832.2</ele>
        <time>2020-08-22T04:57:32Z</time>
        <sat>7</sat>
      </trkpt>
      <trkpt lat="42.337967" lon="-3.932604">
        <ele>832.4</ele>
        <time>2020-08-22T04:57:39Z</time>
        <sat>7</sat>
      </trkpt>
      <trkpt lat="42.337969" lon="-3.932731">
        <ele>832.6</ele>
        <time>2020-08-22T04:57:46Z</time>
        <sat>7</sat>
      </trkpt>
      <trkpt lat="42.337974" lon="-3.932851">
        <ele>832.8</ele>
        <time>2020-08-22T04:57:53Z</time>
        <sat>8</sat>
      </trkpt>
      <trkpt lat="42.337976" lon="-3.932972">
        <ele>833.1</ele>
        <time>2020-08-22T04:58:00Z</time>
        <sat>8</sat>
      </trkpt>
      <trkpt lat="42.337972" lon="-3.933096">
        <ele>833.4</ele>
        <time>2020-08-22T04:58:07Z</time>
        <sat>8</sat>
      </trkpt>
      <trkpt lat="42.337955" lon="-3.933217">
        <ele>833.6</ele>
        <time>2020-08-22T04:58:14Z</time>
        <sat>8</sat>
      </trkpt>
      <trkpt lat="42.337943" lon="-3.933340">
        <ele>834.1</ele>
        <time>2020-08-22T04:58:21Z</time>
        <sat>8</sat>
      </trkpt>
      <trkpt lat="42.337906" lon="-3.933453">
        <ele>834.3</ele>
        <time>2020-08-22T04:58:28Z</time>
        <sat>7</sat>
      </trkpt>
      <trkpt lat="42.337872" lon="-3.933556">
        <ele>834.4</ele>
        <time>2020-08-22T04:58:34Z</time>
        <sat>8</sat>
      </trkpt>
      <trkpt lat="42.337824" lon="-3.933661">
        <ele>834.5</ele>
        <time>2020-08-22T04:58:41Z</time>
        <sat>8</sat>
      </trkpt>
      <trkpt lat="42.337779" lon="-3.933768">
        <ele>834.7</ele>
        <time>2020-08-22T04:58:48Z</time>
        <sat>8</sat>
      </trkpt>
      <trkpt lat="42.337741" lon="-3.933870">
        <ele>834.8</ele>
        <time>2020-08-22T04:58:55Z</time>
        <sat>8</sat>
      </trkpt>
      <trkpt lat="42.337700" lon="-3.933972">
        <ele>834.8</ele>
        <time>2020-08-22T04:59:02Z</time>
        <sat>8</sat>
      </trkpt>
      <trkpt lat="42.337659" lon="-3.934082">
        <ele>834.8</ele>
        <time>2020-08-22T04:59:09Z</time>
        <sat>8</sat>
      </trkpt>
      <trkpt lat="42.337616" lon="-3.934192">
        <ele>834.7</ele>
        <time>2020-08-22T04:59:16Z</time>
        <sat>7</sat>
      </trkpt>
      <trkpt lat="42.337567" lon="-3.934296">
        <ele>834.7</ele>
        <time>2020-08-22T04:59:23Z</time>
        <sat>7</sat>
      </trkpt>
      <trkpt lat="42.337526" lon="-3.934409">
        <ele>834.6</ele>
        <time>2020-08-22T04:59:30Z</time>
        <sat>8</sat>
      </trkpt>
      <trkpt lat="42.337480" lon="-3.934515">
        <ele>834.6</ele>
        <time>2020-08-22T04:59:37Z</time>
        <sat>7</sat>
      </trkpt>
      <trkpt lat="42.337449" lon="-3.934616">
        <ele>834.6</ele>
        <time>2020-08-22T04:59:43Z</time>
        <sat>7</sat>
      </trkpt>
      <trkpt lat="42.337413" lon="-3.934721">
        <ele>834.6</ele>
        <time>2020-08-22T04:59:50Z</time>
        <sat>8</sat>
      </trkpt>
      <trkpt lat="42.337385" lon="-3.934825">
        <ele>834.6</ele>
        <time>2020-08-22T04:59:56Z</time>
        <sat>8</sat>
      </trkpt>
      <trkpt lat="42.337357" lon="-3.934932">
        <ele>834.6</ele>
        <time>2020-08-22T05:00:03Z</time>
        <sat>8</sat>
      </trkpt>
      <trkpt lat="42.337326" lon="-3.935043">
        <ele>834.5</ele>
        <time>2020-08-22T05:00:10Z</time>
        <sat>8</sat>
      </trkpt>
      <trkpt lat="42.337307" lon="-3.935152">
        <ele>834.5</ele>
        <time>2020-08-22T05:00:16Z</time>
        <sat>8</sat>
      </trkpt>
      <trkpt lat="42.337277" lon="-3.935274">
        <ele>834.6</ele>
        <time>2020-08-22T05:00:23Z</time>
        <sat>8</sat>
      </trkpt>
      <trkpt lat="42.337253" lon="-3.935390">
        <ele>834.6</ele>
        <time>2020-08-22T05:00:30Z</time>
        <sat>8</sat>
      </trkpt>
      <trkpt lat="42.337232" lon="-3.935507">
        <ele>834.7</ele>
        <time>2020-08-22T05:00:37Z</time>
        <sat>8</sat>
      </trkpt>
      <trkpt lat="42.337200" lon="-3.935621">
        <ele>834.8</ele>
        <time>2020-08-22T05:00:44Z</time>
        <sat>8</sat>
      </trkpt>
      <trkpt lat="42.337180" lon="-3.935740">
        <ele>835.0</ele>
        <time>2020-08-22T05:00:51Z</time>
        <sat>8</sat>
      </trkpt>
      <trkpt lat="42.337157" lon="-3.935859">
        <ele>835.2</ele>
        <time>2020-08-22T05:00:58Z</time>
        <sat>8</sat>
      </trkpt>
      <trkpt lat="42.337132" lon="-3.935968">
        <ele>835.3</ele>
        <time>2020-08-22T05:01:05Z</time>
        <sat>8</sat>
      </trkpt>
      <trkpt lat="42.337111" lon="-3.936088">
        <ele>835.4</ele>
        <time>2020-08-22T05:01:12Z</time>
        <sat>7</sat>
      </trkpt>
      <trkpt lat="42.337089" lon="-3.936211">
        <ele>835.5</ele>
        <time>2020-08-22T05:01:19Z</time>
        <sat>7</sat>
      </trkpt>
      <trkpt lat="42.337079" lon="-3.936330">
        <ele>835.8</ele>
        <time>2020-08-22T05:01:26Z</time>
        <sat>7</sat>
      </trkpt>
      <trkpt lat="42.337067" lon="-3.936443">
        <ele>836.1</ele>
        <time>2020-08-22T05:01:33Z</time>
        <sat>7</sat>
      </trkpt>
      <trkpt lat="42.337064" lon="-3.936562">
        <ele>836.4</ele>
        <time>2020-08-22T05:01:40Z</time>
        <sat>6</sat>
      </trkpt>
      <trkpt lat="42.337058" lon="-3.936684">
        <ele>836.7</ele>
        <time>2020-08-22T05:01:47Z</time>
        <sat>7</sat>
      </trkpt>
      <trkpt lat="42.337034" lon="-3.936792">
        <ele>837.0</ele>
        <time>2020-08-22T05:01:53Z</time>
        <sat>6</sat>
      </trkpt>
      <trkpt lat="42.337020" lon="-3.936913">
        <ele>837.5</ele>
        <time>2020-08-22T05:02:00Z</time>
        <sat>7</sat>
      </trkpt>
      <trkpt lat="42.337014" lon="-3.937030">
        <ele>837.9</ele>
        <time>2020-08-22T05:02:07Z</time>
        <sat>8</sat>
      </trkpt>
      <trkpt lat="42.337005" lon="-3.937156">
        <ele>838.4</ele>
        <time>2020-08-22T05:02:14Z</time>
        <sat>8</sat>
      </trkpt>
      <trkpt lat="42.336973" lon="-3.937263">
        <ele>838.7</ele>
        <time>2020-08-22T05:02:21Z</time>
        <sat>8</sat>
      </trkpt>
      <trkpt lat="42.336916" lon="-3.937360">
        <ele>839.0</ele>
        <time>2020-08-22T05:02:28Z</time>
        <sat>7</sat>
      </trkpt>
      <trkpt lat="42.336850" lon="-3.937438">
        <ele>839.3</ele>
        <time>2020-08-22T05:02:35Z</time>
        <sat>6</sat>
      </trkpt>
      <trkpt lat="42.336806" lon="-3.937538">
        <ele>839.8</ele>
        <time>2020-08-22T05:02:43Z</time>
        <sat>6</sat>
      </trkpt>
      <trkpt lat="42.336772" lon="-3.937645">
        <ele>840.3</ele>
        <time>2020-08-22T05:02:50Z</time>
        <sat>7</sat>
      </trkpt>
      <trkpt lat="42.336738" lon="-3.937754">
        <ele>840.6</ele>
        <time>2020-08-22T05:02:58Z</time>
        <sat>6</sat>
      </trkpt>
      <trkpt lat="42.336714" lon="-3.937860">
        <ele>840.8</ele>
        <time>2020-08-22T05:03:05Z</time>
        <sat>6</sat>
      </trkpt>
      <trkpt lat="42.336676" lon="-3.937965">
        <ele>841.0</ele>
        <time>2020-08-22T05:03:14Z</time>
        <sat>6</sat>
      </trkpt>
      <trkpt lat="42.336646" lon="-3.938067">
        <ele>841.2</ele>
        <time>2020-08-22T05:03:25Z</time>
        <sat>6</sat>
      </trkpt>
      <trkpt lat="42.336610" lon="-3.938166">
        <ele>841.2</ele>
        <time>2020-08-22T05:03:33Z</time>
        <sat>6</sat>
      </trkpt>
      <trkpt lat="42.336561" lon="-3.938273">
        <ele>841.2</ele>
        <time>2020-08-22T05:03:43Z</time>
        <sat>6</sat>
      </trkpt>
      <trkpt lat="42.336519" lon="-3.938377">
        <ele>841.2</ele>
        <time>2020-08-22T05:03:50Z</time>
        <sat>6</sat>
      </trkpt>
      <trkpt lat="42.336477" lon="-3.938473">
        <ele>841.6</ele>
        <time>2020-08-22T05:03:57Z</time>
        <sat>6</sat>
      </trkpt>
      <trkpt lat="42.336436" lon="-3.938575">
        <ele>841.9</ele>
        <time>2020-08-22T05:04:04Z</time>
        <sat>6</sat>
      </trkpt>
      <trkpt lat="42.336400" lon="-3.938677">
        <ele>842.1</ele>
        <time>2020-08-22T05:04:11Z</time>
        <sat>6</sat>
      </trkpt>
      <trkpt lat="42.336359" lon="-3.938783">
        <ele>842.3</ele>
        <time>2020-08-22T05:04:18Z</time>
        <sat>7</sat>
      </trkpt>
      <trkpt lat="42.336326" lon="-3.938888">
        <ele>842.6</ele>
        <time>2020-08-22T05:04:25Z</time>
        <sat>7</sat>
      </trkpt>
      <trkpt lat="42.336297" lon="-3.938998">
        <ele>842.9</ele>
        <time>2020-08-22T05:04:32Z</time>
        <sat>7</sat>
      </trkpt>
      <trkpt lat="42.336272" lon="-3.939120">
        <ele>843.3</ele>
        <time>2020-08-22T05:04:39Z</time>
        <sat>7</sat>
      </trkpt>
      <trkpt lat="42.336245" lon="-3.939225">
        <ele>843.5</ele>
        <time>2020-08-22T05:04:45Z</time>
        <sat>7</sat>
      </trkpt>
      <trkpt lat="42.336218" lon="-3.939335">
        <ele>843.8</ele>
        <time>2020-08-22T05:04:52Z</time>
        <sat>7</sat>
      </trkpt>
      <trkpt lat="42.336189" lon="-3.939452">
        <ele>844.1</ele>
        <time>2020-08-22T05:04:59Z</time>
        <sat>7</sat>
      </trkpt>
      <trkpt lat="42.336154" lon="-3.939571">
        <ele>844.3</ele>
        <time>2020-08-22T05:05:06Z</time>
        <sat>7</sat>
      </trkpt>
      <trkpt lat="42.336128" lon="-3.939683">
        <ele>844.5</ele>
        <time>2020-08-22T05:05:13Z</time>
        <sat>7</sat>
      </trkpt>
      <trkpt lat="42.336105" lon="-3.939801">
        <ele>844.7</ele>
        <time>2020-08-22T05:05:20Z</time>
        <sat>7</sat>
      </trkpt>
      <trkpt lat="42.336075" lon="-3.939921">
        <ele>844.3</ele>
        <time>2020-08-22T05:05:27Z</time>
        <sat>7</sat>
      </trkpt>
      <trkpt lat="42.336058" lon="-3.940036">
        <ele>845.4</ele>
        <time>2020-08-22T05:05:34Z</time>
        <sat>7</sat>
      </trkpt>
      <trkpt lat="42.336029" lon="-3.940151">
        <ele>844.8</ele>
        <time>2020-08-22T05:05:41Z</time>
        <sat>7</sat>
      </trkpt>
      <trkpt lat="42.336003" lon="-3.940269">
        <ele>845.8</ele>
        <time>2020-08-22T05:05:48Z</time>
        <sat>7</sat>
      </trkpt>
      <trkpt lat="42.335977" lon="-3.940386">
        <ele>845.9</ele>
        <time>2020-08-22T05:05:55Z</time>
        <sat>7</sat>
      </trkpt>
      <trkpt lat="42.335947" lon="-3.940506">
        <ele>845.8</ele>
        <time>2020-08-22T05:06:03Z</time>
        <sat>7</sat>
      </trkpt>
      <trkpt lat="42.335935" lon="-3.940628">
        <ele>845.9</ele>
        <time>2020-08-22T05:06:10Z</time>
        <sat>7</sat>
      </trkpt>
      <trkpt lat="42.335930" lon="-3.940738">
        <ele>846.1</ele>
        <time>2020-08-22T05:06:16Z</time>
        <sat>7</sat>
      </trkpt>
      <trkpt lat="42.335910" lon="-3.940845">
        <ele>846.3</ele>
        <time>2020-08-22T05:06:22Z</time>
        <sat>7</sat>
      </trkpt>
      <trkpt lat="42.335891" lon="-3.940962">
        <ele>846.5</ele>
        <time>2020-08-22T05:06:29Z</time>
        <sat>7</sat>
      </trkpt>
      <trkpt lat="42.335871" lon="-3.941079">
        <ele>846.8</ele>
        <time>2020-08-22T05:06:36Z</time>
        <sat>7</sat>
      </trkpt>
      <trkpt lat="42.335847" lon="-3.941200">
        <ele>847.1</ele>
        <time>2020-08-22T05:06:43Z</time>
        <sat>7</sat>
      </trkpt>
      <trkpt lat="42.335829" lon="-3.941315">
        <ele>847.4</ele>
        <time>2020-08-22T05:06:50Z</time>
        <sat>7</sat>
      </trkpt>
      <trkpt lat="42.335798" lon="-3.941425">
        <ele>847.5</ele>
        <time>2020-08-22T05:06:57Z</time>
        <sat>7</sat>
      </trkpt>
      <trkpt lat="42.335764" lon="-3.941540">
        <ele>847.7</ele>
        <time>2020-08-22T05:07:04Z</time>
        <sat>7</sat>
      </trkpt>
      <trkpt lat="42.335737" lon="-3.941653">
        <ele>848.0</ele>
        <time>2020-08-22T05:07:11Z</time>
        <sat>7</sat>
      </trkpt>
      <trkpt lat="42.335703" lon="-3.941761">
        <ele>848.2</ele>
        <time>2020-08-22T05:07:18Z</time>
        <sat>7</sat>
      </trkpt>
      <trkpt lat="42.335668" lon="-3.941872">
        <ele>848.5</ele>
        <time>2020-08-22T05:07:25Z</time>
        <sat>7</sat>
      </trkpt>
      <trkpt lat="42.335634" lon="-3.941979">
        <ele>848.8</ele>
        <time>2020-08-22T05:07:32Z</time>
        <sat>7</sat>
      </trkpt>
      <trkpt lat="42.335603" lon="-3.942094">
        <ele>849.0</ele>
        <time>2020-08-22T05:07:40Z</time>
        <sat>7</sat>
      </trkpt>
      <trkpt lat="42.335574" lon="-3.942201">
        <ele>849.2</ele>
        <time>2020-08-22T05:07:47Z</time>
        <sat>7</sat>
      </trkpt>
      <trkpt lat="42.335552" lon="-3.942314">
        <ele>849.4</ele>
        <time>2020-08-22T05:07:54Z</time>
        <sat>7</sat>
      </trkpt>
      <trkpt lat="42.335535" lon="-3.942424">
        <ele>849.6</ele>
        <time>2020-08-22T05:08:01Z</time>
        <sat>7</sat>
      </trkpt>
      <trkpt lat="42.335517" lon="-3.942537">
        <ele>849.7</ele>
        <time>2020-08-22T05:08:08Z</time>
        <sat>7</sat>
      </trkpt>
      <trkpt lat="42.335491" lon="-3.942644">
        <ele>850.0</ele>
        <time>2020-08-22T05:08:17Z</time>
        <sat>7</sat>
      </trkpt>
      <trkpt lat="42.335469" lon="-3.942764">
        <ele>850.1</ele>
        <time>2020-08-22T05:08:25Z</time>
        <sat>7</sat>
      </trkpt>
      <trkpt lat="42.335438" lon="-3.942871">
        <ele>850.4</ele>
        <time>2020-08-22T05:08:33Z</time>
        <sat>7</sat>
      </trkpt>
      <trkpt lat="42.335404" lon="-3.942972">
        <ele>850.6</ele>
        <time>2020-08-22T05:08:41Z</time>
        <sat>7</sat>
      </trkpt>
      <trkpt lat="42.335360" lon="-3.943072">
        <ele>851.0</ele>
        <time>2020-08-22T05:08:49Z</time>
        <sat>7</sat>
      </trkpt>
      <trkpt lat="42.335316" lon="-3.943170">
        <ele>851.5</ele>
        <time>2020-08-22T05:08:57Z</time>
        <sat>7</sat>
      </trkpt>
      <trkpt lat="42.335257" lon="-3.943260">
        <ele>852.2</ele>
        <time>2020-08-22T05:09:05Z</time>
        <sat>7</sat>
      </trkpt>
      <trkpt lat="42.335202" lon="-3.943349">
        <ele>852.9</ele>
        <time>2020-08-22T05:09:13Z</time>
        <sat>7</sat>
      </trkpt>
      <trkpt lat="42.335150" lon="-3.943442">
        <ele>853.6</ele>
        <time>2020-08-22T05:09:21Z</time>
        <sat>6</sat>
      </trkpt>
      <trkpt lat="42.335091" lon="-3.943529">
        <ele>854.4</ele>
        <time>2020-08-22T05:09:29Z</time>
        <sat>6</sat>
      </trkpt>
      <trkpt lat="42.335040" lon="-3.943633">
        <ele>854.9</ele>
        <time>2020-08-22T05:09:37Z</time>
        <sat>7</sat>
      </trkpt>
      <trkpt lat="42.334981" lon="-3.943720">
        <ele>855.2</ele>
        <time>2020-08-22T05:09:44Z</time>
        <sat>6</sat>
      </trkpt>
      <trkpt lat="42.334925" lon="-3.943817">
        <ele>855.4</ele>
        <time>2020-08-22T05:09:51Z</time>
        <sat>6</sat>
      </trkpt>
      <trkpt lat="42.334862" lon="-3.943905">
        <ele>855.7</ele>
        <time>2020-08-22T05:09:58Z</time>
        <sat>7</sat>
      </trkpt>
      <trkpt lat="42.334804" lon="-3.943993">
        <ele>855.8</ele>
        <time>2020-08-22T05:10:05Z</time>
        <sat>6</sat>
      </trkpt>
      <trkpt lat="42.334747" lon="-3.944082">
        <ele>856.0</ele>
        <time>2020-08-22T05:10:12Z</time>
        <sat>6</sat>
      </trkpt>
      <trkpt lat="42.334696" lon="-3.944172">
        <ele>856.1</ele>
        <time>2020-08-22T05:10:19Z</time>
        <sat>7</sat>
      </trkpt>
      <trkpt lat="42.334653" lon="-3.944270">
        <ele>856.1</ele>
        <time>2020-08-22T05:10:26Z</time>
        <sat>7</sat>
      </trkpt>
      <trkpt lat="42.334594" lon="-3.944365">
        <ele>856.2</ele>
        <time>2020-08-22T05:10:33Z</time>
        <sat>7</sat>
      </trkpt>
      <trkpt lat="42.334536" lon="-3.944455">
        <ele>856.1</ele>
        <time>2020-08-22T05:10:40Z</time>
        <sat>7</sat>
      </trkpt>
      <trkpt lat="42.334479" lon="-3.944541">
        <ele>856.0</ele>
        <time>2020-08-22T05:10:47Z</time>
        <sat>7</sat>
      </trkpt>
      <trkpt lat="42.334421" lon="-3.944629">
        <ele>855.8</ele>
        <time>2020-08-22T05:10:54Z</time>
        <sat>7</sat>
      </trkpt>
      <trkpt lat="42.334360" lon="-3.944714">
        <ele>855.7</ele>
        <time>2020-08-22T05:11:01Z</time>
        <sat>7</sat>
      </trkpt>
      <trkpt lat="42.334309" lon="-3.944812">
        <ele>855.6</ele>
        <time>2020-08-22T05:11:08Z</time>
        <sat>7</sat>
      </trkpt>
      <trkpt lat="42.334267" lon="-3.944923">
        <ele>855.5</ele>
        <time>2020-08-22T05:11:15Z</time>
        <sat>7</sat>
      </trkpt>
      <trkpt lat="42.334229" lon="-3.945024">
        <ele>855.4</ele>
        <time>2020-08-22T05:11:22Z</time>
        <sat>7</sat>
      </trkpt>
      <trkpt lat="42.334203" lon="-3.945143">
        <ele>855.4</ele>
        <time>2020-08-22T05:11:29Z</time>
        <sat>7</sat>
      </trkpt>
      <trkpt lat="42.334173" lon="-3.945247">
        <ele>855.3</ele>
        <time>2020-08-22T05:11:35Z</time>
        <sat>7</sat>
      </trkpt>
      <trkpt lat="42.334140" lon="-3.945355">
        <ele>855.3</ele>
        <time>2020-08-22T05:11:42Z</time>
        <sat>7</sat>
      </trkpt>
      <trkpt lat="42.334105" lon="-3.945466">
        <ele>855.3</ele>
        <time>2020-08-22T05:11:49Z</time>
        <sat>7</sat>
      </trkpt>
      <trkpt lat="42.334074" lon="-3.945571">
        <ele>855.2</ele>
        <time>2020-08-22T05:11:56Z</time>
        <sat>7</sat>
      </trkpt>
      <trkpt lat="42.334043" lon="-3.945684">
        <ele>855.5</ele>
        <time>2020-08-22T05:12:03Z</time>
        <sat>7</sat>
      </trkpt>
      <trkpt lat="42.334009" lon="-3.945791">
        <ele>855.7</ele>
        <time>2020-08-22T05:12:10Z</time>
        <sat>7</sat>
      </trkpt>
      <trkpt lat="42.333978" lon="-3.945906">
        <ele>856.0</ele>
        <time>2020-08-22T05:12:17Z</time>
        <sat>7</sat>
      </trkpt>
      <trkpt lat="42.333947" lon="-3.946016">
        <ele>856.3</ele>
        <time>2020-08-22T05:12:24Z</time>
        <sat>7</sat>
      </trkpt>
      <trkpt lat="42.333914" lon="-3.946121">
        <ele>856.7</ele>
        <time>2020-08-22T05:12:31Z</time>
        <sat>7</sat>
      </trkpt>
      <trkpt lat="42.333880" lon="-3.946222">
        <ele>856.9</ele>
        <time>2020-08-22T05:12:38Z</time>
        <sat>7</sat>
      </trkpt>
      <trkpt lat="42.333844" lon="-3.946329">
        <ele>857.1</ele>
        <time>2020-08-22T05:12:46Z</time>
        <sat>7</sat>
      </trkpt>
      <trkpt lat="42.333800" lon="-3.946430">
        <ele>857.4</ele>
        <time>2020-08-22T05:12:54Z</time>
        <sat>7</sat>
      </trkpt>
      <trkpt lat="42.333761" lon="-3.946543">
        <ele>857.7</ele>
        <time>2020-08-22T05:13:02Z</time>
        <sat>7</sat>
      </trkpt>
      <trkpt lat="42.333731" lon="-3.946649">
        <ele>857.9</ele>
        <time>2020-08-22T05:13:09Z</time>
        <sat>7</sat>
      </trkpt>
      <trkpt lat="42.333699" lon="-3.946760">
        <ele>858.3</ele>
        <time>2020-08-22T05:13:16Z</time>
        <sat>7</sat>
      </trkpt>
      <trkpt lat="42.333670" lon="-3.946871">
        <ele>858.5</ele>
        <time>2020-08-22T05:13:23Z</time>
        <sat>7</sat>
      </trkpt>
      <trkpt lat="42.333644" lon="-3.946986">
        <ele>858.7</ele>
        <time>2020-08-22T05:13:30Z</time>
        <sat>7</sat>
      </trkpt>
      <trkpt lat="42.333601" lon="-3.947086">
        <ele>859.1</ele>
        <time>2020-08-22T05:13:37Z</time>
        <sat>7</sat>
      </trkpt>
      <trkpt lat="42.333552" lon="-3.947188">
        <ele>858.7</ele>
        <time>2020-08-22T05:13:45Z</time>
        <sat>7</sat>
      </trkpt>
      <trkpt lat="42.333516" lon="-3.947296">
        <ele>859.9</ele>
        <time>2020-08-22T05:13:52Z</time>
        <sat>7</sat>
      </trkpt>
      <trkpt lat="42.333481" lon="-3.947397">
        <ele>860.4</ele>
        <time>2020-08-22T05:13:59Z</time>
        <sat>7</sat>
      </trkpt>
      <trkpt lat="42.333448" lon="-3.947506">
        <ele>861.0</ele>
        <time>2020-08-22T05:14:06Z</time>
        <sat>7</sat>
      </trkpt>
      <trkpt lat="42.333427" lon="-3.947612">
        <ele>861.6</ele>
        <time>2020-08-22T05:14:13Z</time>
        <sat>7</sat>
      </trkpt>
      <trkpt lat="42.333401" lon="-3.947717">
        <ele>862.2</ele>
        <time>2020-08-22T05:14:20Z</time>
        <sat>7</sat>
      </trkpt>
      <trkpt lat="42.333375" lon="-3.947827">
        <ele>862.9</ele>
        <time>2020-08-22T05:14:29Z</time>
        <sat>7</sat>
      </trkpt>
      <trkpt lat="42.333324" lon="-3.947927">
        <ele>864.0</ele>
        <time>2020-08-22T05:14:54Z</time>
        <sat>7</sat>
      </trkpt>
      <trkpt lat="42.333278" lon="-3.948028">
        <ele>864.0</ele>
        <time>2020-08-22T05:15:03Z</time>
        <sat>7</sat>
      </trkpt>
      <trkpt lat="42.333222" lon="-3.948130">
        <ele>864.1</ele>
        <time>2020-08-22T05:15:12Z</time>
        <sat>7</sat>
      </trkpt>
      <trkpt lat="42.333179" lon="-3.948240">
        <ele>864.1</ele>
        <time>2020-08-22T05:15:20Z</time>
        <sat>7</sat>
      </trkpt>
      <trkpt lat="42.333138" lon="-3.948336">
        <ele>864.1</ele>
        <time>2020-08-22T05:15:27Z</time>
        <sat>7</sat>
      </trkpt>
      <trkpt lat="42.333096" lon="-3.948430">
        <ele>864.1</ele>
        <time>2020-08-22T05:15:34Z</time>
        <sat>7</sat>
      </trkpt>
      <trkpt lat="42.333056" lon="-3.948541">
        <ele>864.1</ele>
        <time>2020-08-22T05:15:42Z</time>
        <sat>7</sat>
      </trkpt>
      <trkpt lat="42.333015" lon="-3.948646">
        <ele>864.0</ele>
        <time>2020-08-22T05:15:49Z</time>
        <sat>7</sat>
      </trkpt>
      <trkpt lat="42.332975" lon="-3.948743">
        <ele>864.0</ele>
        <time>2020-08-22T05:15:56Z</time>
        <sat>7</sat>
      </trkpt>
      <trkpt lat="42.332922" lon="-3.948834">
        <ele>864.0</ele>
        <time>2020-08-22T05:16:03Z</time>
        <sat>7</sat>
      </trkpt>
      <trkpt lat="42.332869" lon="-3.948923">
        <ele>864.2</ele>
        <time>2020-08-22T05:16:10Z</time>
        <sat>7</sat>
      </trkpt>
      <trkpt lat="42.332816" lon="-3.949011">
        <ele>864.5</ele>
        <time>2020-08-22T05:16:17Z</time>
        <sat>7</sat>
      </trkpt>
      <trkpt lat="42.332761" lon="-3.949114">
        <ele>864.7</ele>
        <time>2020-08-22T05:16:25Z</time>
        <sat>7</sat>
      </trkpt>
      <trkpt lat="42.332713" lon="-3.949207">
        <ele>864.7</ele>
        <time>2020-08-22T05:16:32Z</time>
        <sat>7</sat>
      </trkpt>
      <trkpt lat="42.332667" lon="-3.949312">
        <ele>865.1</ele>
        <time>2020-08-22T05:16:40Z</time>
        <sat>7</sat>
      </trkpt>
      <trkpt lat="42.332616" lon="-3.949404">
        <ele>865.4</ele>
        <time>2020-08-22T05:16:47Z</time>
        <sat>7</sat>
      </trkpt>
      <trkpt lat="42.332567" lon="-3.949494">
        <ele>865.7</ele>
        <time>2020-08-22T05:16:54Z</time>
        <sat>7</sat>
      </trkpt>
      <trkpt lat="42.332511" lon="-3.949583">
        <ele>866.0</ele>
        <time>2020-08-22T05:17:01Z</time>
        <sat>7</sat>
      </trkpt>
      <trkpt lat="42.332456" lon="-3.949668">
        <ele>866.3</ele>
        <time>2020-08-22T05:17:08Z</time>
        <sat>7</sat>
      </trkpt>
      <trkpt lat="42.332401" lon="-3.949759">
        <ele>866.4</ele>
        <time>2020-08-22T05:17:15Z</time>
        <sat>7</sat>
      </trkpt>
      <trkpt lat="42.332353" lon="-3.949852">
        <ele>866.6</ele>
        <time>2020-08-22T05:17:22Z</time>
        <sat>7</sat>
      </trkpt>
      <trkpt lat="42.332307" lon="-3.949949">
        <ele>866.6</ele>
        <time>2020-08-22T05:17:29Z</time>
        <sat>7</sat>
      </trkpt>
      <trkpt lat="42.332271" lon="-3.950048">
        <ele>866.7</ele>
        <time>2020-08-22T05:17:36Z</time>
        <sat>7</sat>
      </trkpt>
      <trkpt lat="42.332246" lon="-3.950159">
        <ele>866.8</ele>
        <time>2020-08-22T05:17:43Z</time>
        <sat>7</sat>
      </trkpt>
      <trkpt lat="42.332237" lon="-3.950278">
        <ele>866.9</ele>
        <time>2020-08-22T05:17:50Z</time>
        <sat>7</sat>
      </trkpt>
      <trkpt lat="42.332257" lon="-3.950386">
        <ele>866.9</ele>
        <time>2020-08-22T05:17:57Z</time>
        <sat>7</sat>
      </trkpt>
      <trkpt lat="42.332293" lon="-3.950489">
        <ele>866.8</ele>
        <time>2020-08-22T05:18:04Z</time>
        <sat>7</sat>
      </trkpt>
      <trkpt lat="42.332327" lon="-3.950601">
        <ele>866.9</ele>
        <time>2020-08-22T05:18:12Z</time>
        <sat>7</sat>
      </trkpt>
      <trkpt lat="42.332334" lon="-3.950712">
        <ele>867.2</ele>
        <time>2020-08-22T05:18:27Z</time>
        <sat>7</sat>
      </trkpt>
      <trkpt lat="42.332253" lon="-3.950912">
        <ele>866.1</ele>
        <time>2020-08-22T05:22:38Z</time>
        <sat>7</sat>
      </trkpt>
      <trkpt lat="42.332202" lon="-3.950903">
        <ele>866.9</ele>
        <time>2020-08-22T05:27:43Z</time>
        <sat>8</sat>
      </trkpt>
      <trkpt lat="42.332138" lon="-3.950981">
        <ele>867.6</ele>
        <time>2020-08-22T05:27:53Z</time>
        <sat>8</sat>
      </trkpt>
      <trkpt lat="42.332066" lon="-3.951056">
        <ele>868.0</ele>
        <time>2020-08-22T05:28:01Z</time>
        <sat>8</sat>
      </trkpt>
      <trkpt lat="42.331999" lon="-3.951130">
        <ele>868.2</ele>
        <time>2020-08-22T05:28:10Z</time>
        <sat>8</sat>
      </trkpt>
      <trkpt lat="42.331930" lon="-3.951200">
        <ele>868.3</ele>
        <time>2020-08-22T05:28:18Z</time>
        <sat>8</sat>
      </trkpt>
      <trkpt lat="42.331861" lon="-3.951272">
        <ele>868.4</ele>
        <time>2020-08-22T05:28:26Z</time>
        <sat>8</sat>
      </trkpt>
      <trkpt lat="42.331793" lon="-3.951343">
        <ele>868.5</ele>
        <time>2020-08-22T05:28:33Z</time>
        <sat>8</sat>
      </trkpt>
      <trkpt lat="42.331729" lon="-3.951422">
        <ele>868.6</ele>
        <time>2020-08-22T05:28:41Z</time>
        <sat>8</sat>
      </trkpt>
      <trkpt lat="42.331666" lon="-3.951496">
        <ele>868.7</ele>
        <time>2020-08-22T05:28:48Z</time>
        <sat>8</sat>
      </trkpt>
      <trkpt lat="42.331602" lon="-3.951583">
        <ele>868.9</ele>
        <time>2020-08-22T05:28:56Z</time>
        <sat>8</sat>
      </trkpt>
      <trkpt lat="42.331544" lon="-3.951665">
        <ele>869.1</ele>
        <time>2020-08-22T05:29:03Z</time>
        <sat>8</sat>
      </trkpt>
      <trkpt lat="42.331488" lon="-3.951746">
        <ele>869.4</ele>
        <time>2020-08-22T05:29:10Z</time>
        <sat>8</sat>
      </trkpt>
      <trkpt lat="42.331430" lon="-3.951825">
        <ele>869.5</ele>
        <time>2020-08-22T05:29:17Z</time>
        <sat>8</sat>
      </trkpt>
      <trkpt lat="42.331372" lon="-3.951915">
        <ele>869.8</ele>
        <time>2020-08-22T05:29:25Z</time>
        <sat>9</sat>
      </trkpt>
      <trkpt lat="42.331321" lon="-3.952000">
        <ele>870.0</ele>
        <time>2020-08-22T05:29:32Z</time>
        <sat>9</sat>
      </trkpt>
      <trkpt lat="42.331265" lon="-3.952091">
        <ele>870.3</ele>
        <time>2020-08-22T05:29:40Z</time>
        <sat>9</sat>
      </trkpt>
      <trkpt lat="42.331212" lon="-3.952184">
        <ele>870.7</ele>
        <time>2020-08-22T05:29:48Z</time>
        <sat>9</sat>
      </trkpt>
      <trkpt lat="42.331161" lon="-3.952272">
        <ele>871.1</ele>
        <time>2020-08-22T05:29:55Z</time>
        <sat>9</sat>
      </trkpt>
      <trkpt lat="42.331106" lon="-3.952367">
        <ele>871.5</ele>
        <time>2020-08-22T05:30:03Z</time>
        <sat>9</sat>
      </trkpt>
      <trkpt lat="42.331062" lon="-3.952464">
        <ele>871.9</ele>
        <time>2020-08-22T05:30:11Z</time>
        <sat>9</sat>
      </trkpt>
      <trkpt lat="42.331013" lon="-3.952561">
        <ele>872.2</ele>
        <time>2020-08-22T05:30:19Z</time>
        <sat>8</sat>
      </trkpt>
      <trkpt lat="42.330973" lon="-3.952658">
        <ele>872.7</ele>
        <time>2020-08-22T05:30:27Z</time>
        <sat>9</sat>
      </trkpt>
      <trkpt lat="42.330922" lon="-3.952755">
        <ele>873.1</ele>
        <time>2020-08-22T05:30:35Z</time>
        <sat>9</sat>
      </trkpt>
      <trkpt lat="42.330872" lon="-3.952854">
        <ele>872.2</ele>
        <time>2020-08-22T05:30:44Z</time>
        <sat>9</sat>
      </trkpt>
      <trkpt lat="42.330809" lon="-3.952932">
        <ele>873.8</ele>
        <time>2020-08-22T05:30:52Z</time>
        <sat>9</sat>
      </trkpt>
      <trkpt lat="42.330752" lon="-3.953012">
        <ele>874.0</ele>
        <time>2020-08-22T05:31:00Z</time>
        <sat>9</sat>
      </trkpt>
      <trkpt lat="42.330690" lon="-3.953098">
        <ele>873.7</ele>
        <time>2020-08-22T05:31:08Z</time>
        <sat>9</sat>
      </trkpt>
      <trkpt lat="42.330634" lon="-3.953192">
        <ele>873.6</ele>
        <time>2020-08-22T05:31:16Z</time>
        <sat>9</sat>
      </trkpt>
      <trkpt lat="42.330579" lon="-3.953282">
        <ele>873.6</ele>
        <time>2020-08-22T05:31:24Z</time>
        <sat>9</sat>
      </trkpt>
      <trkpt lat="42.330529" lon="-3.953372">
        <ele>873.8</ele>
        <time>2020-08-22T05:31:32Z</time>
        <sat>9</sat>
      </trkpt>
      <trkpt lat="42.330479" lon="-3.953459">
        <ele>873.9</ele>
        <time>2020-08-22T05:31:40Z</time>
        <sat>9</sat>
      </trkpt>
      <trkpt lat="42.330424" lon="-3.953556">
        <ele>874.1</ele>
        <time>2020-08-22T05:31:48Z</time>
        <sat>9</sat>
      </trkpt>
      <trkpt lat="42.330374" lon="-3.953649">
        <ele>874.3</ele>
        <time>2020-08-22T05:31:56Z</time>
        <sat>9</sat>
      </trkpt>
      <trkpt lat="42.330315" lon="-3.953728">
        <ele>874.9</ele>
        <time>2020-08-22T05:32:03Z</time>
        <sat>9</sat>
      </trkpt>
      <trkpt lat="42.330263" lon="-3.953816">
        <ele>875.3</ele>
        <time>2020-08-22T05:32:11Z</time>
        <sat>9</sat>
      </trkpt>
      <trkpt lat="42.330207" lon="-3.953900">
        <ele>875.6</ele>
        <time>2020-08-22T05:32:18Z</time>
        <sat>9</sat>
      </trkpt>
      <trkpt lat="42.330143" lon="-3.953982">
        <ele>875.9</ele>
        <time>2020-08-22T05:32:25Z</time>
        <sat>9</sat>
      </trkpt>
      <trkpt lat="42.330081" lon="-3.954074">
        <ele>875.1</ele>
        <time>2020-08-22T05:32:33Z</time>
        <sat>9</sat>
      </trkpt>
      <trkpt lat="42.330020" lon="-3.954162">
        <ele>876.8</ele>
        <time>2020-08-22T05:32:41Z</time>
        <sat>9</sat>
      </trkpt>
      <trkpt lat="42.329963" lon="-3.954253">
        <ele>877.9</ele>
        <time>2020-08-22T05:32:53Z</time>
        <sat>9</sat>
      </trkpt>
      <trkpt lat="42.329908" lon="-3.954347">
        <ele>878.3</ele>
        <time>2020-08-22T05:33:01Z</time>
        <sat>9</sat>
      </trkpt>
      <trkpt lat="42.329857" lon="-3.954439">
        <ele>878.6</ele>
        <time>2020-08-22T05:33:09Z</time>
        <sat>9</sat>
      </trkpt>
      <trkpt lat="42.329802" lon="-3.954539">
        <ele>879.0</ele>
        <time>2020-08-22T05:33:23Z</time>
        <sat>9</sat>
      </trkpt>
      <trkpt lat="42.329754" lon="-3.954630">
        <ele>879.2</ele>
        <time>2020-08-22T05:33:30Z</time>
        <sat>9</sat>
      </trkpt>
      <trkpt lat="42.329700" lon="-3.954726">
        <ele>879.3</ele>
        <time>2020-08-22T05:33:38Z</time>
        <sat>9</sat>
      </trkpt>
      <trkpt lat="42.329648" lon="-3.954819">
        <ele>879.5</ele>
        <time>2020-08-22T05:33:46Z</time>
        <sat>9</sat>
      </trkpt>
      <trkpt lat="42.329591" lon="-3.954915">
        <ele>879.8</ele>
        <time>2020-08-22T05:33:54Z</time>
        <sat>9</sat>
      </trkpt>
      <trkpt lat="42.329541" lon="-3.955008">
        <ele>880.0</ele>
        <time>2020-08-22T05:34:02Z</time>
        <sat>9</sat>
      </trkpt>
      <trkpt lat="42.329486" lon="-3.955099">
        <ele>880.2</ele>
        <time>2020-08-22T05:34:11Z</time>
        <sat>9</sat>
      </trkpt>
      <trkpt lat="42.329436" lon="-3.955202">
        <ele>880.4</ele>
        <time>2020-08-22T05:34:20Z</time>
        <sat>9</sat>
      </trkpt>
      <trkpt lat="42.329386" lon="-3.955299">
        <ele>880.5</ele>
        <time>2020-08-22T05:34:28Z</time>
        <sat>9</sat>
      </trkpt>
      <trkpt lat="42.329328" lon="-3.955399">
        <ele>880.9</ele>
        <time>2020-08-22T05:34:36Z</time>
        <sat>9</sat>
      </trkpt>
      <trkpt lat="42.329277" lon="-3.955485">
        <ele>881.2</ele>
        <time>2020-08-22T05:34:43Z</time>
        <sat>9</sat>
      </trkpt>
      <trkpt lat="42.329228" lon="-3.955591">
        <ele>881.4</ele>
        <time>2020-08-22T05:34:51Z</time>
        <sat>9</sat>
      </trkpt>
      <trkpt lat="42.329183" lon="-3.955685">
        <ele>881.7</ele>
        <time>2020-08-22T05:34:59Z</time>
        <sat>9</sat>
      </trkpt>
      <trkpt lat="42.329137" lon="-3.955780">
        <ele>882.0</ele>
        <time>2020-08-22T05:35:07Z</time>
        <sat>9</sat>
      </trkpt>
      <trkpt lat="42.329095" lon="-3.955876">
        <ele>882.3</ele>
        <time>2020-08-22T05:35:15Z</time>
        <sat>9</sat>
      </trkpt>
      <trkpt lat="42.329045" lon="-3.955968">
        <ele>882.8</ele>
        <time>2020-08-22T05:35:23Z</time>
        <sat>9</sat>
      </trkpt>
      <trkpt lat="42.329001" lon="-3.956069">
        <ele>883.1</ele>
        <time>2020-08-22T05:35:31Z</time>
        <sat>9</sat>
      </trkpt>
      <trkpt lat="42.328959" lon="-3.956171">
        <ele>883.4</ele>
        <time>2020-08-22T05:35:39Z</time>
        <sat>9</sat>
      </trkpt>
      <trkpt lat="42.328914" lon="-3.956274">
        <ele>883.9</ele>
        <time>2020-08-22T05:35:48Z</time>
        <sat>9</sat>
      </trkpt>
      <trkpt lat="42.328873" lon="-3.956369">
        <ele>884.2</ele>
        <time>2020-08-22T05:35:55Z</time>
        <sat>9</sat>
      </trkpt>
      <trkpt lat="42.328831" lon="-3.956474">
        <ele>884.8</ele>
        <time>2020-08-22T05:36:03Z</time>
        <sat>9</sat>
      </trkpt>
      <trkpt lat="42.328797" lon="-3.956575">
        <ele>885.4</ele>
        <time>2020-08-22T05:36:11Z</time>
        <sat>9</sat>
      </trkpt>
      <trkpt lat="42.328758" lon="-3.956673">
        <ele>886.1</ele>
        <time>2020-08-22T05:36:19Z</time>
        <sat>9</sat>
      </trkpt>
      <trkpt lat="42.328718" lon="-3.956771">
        <ele>886.7</ele>
        <time>2020-08-22T05:36:27Z</time>
        <sat>8</sat>
      </trkpt>
      <trkpt lat="42.328683" lon="-3.956870">
        <ele>887.0</ele>
        <time>2020-08-22T05:36:34Z</time>
        <sat>9</sat>
      </trkpt>
      <trkpt lat="42.328649" lon="-3.956970">
        <ele>887.5</ele>
        <time>2020-08-22T05:36:42Z</time>
        <sat>9</sat>
      </trkpt>
      <trkpt lat="42.328610" lon="-3.957068">
        <ele>887.9</ele>
        <time>2020-08-22T05:36:51Z</time>
        <sat>9</sat>
      </trkpt>
      <trkpt lat="42.328585" lon="-3.957172">
        <ele>888.2</ele>
        <time>2020-08-22T05:36:59Z</time>
        <sat>9</sat>
      </trkpt>
      <trkpt lat="42.328554" lon="-3.957282">
        <ele>888.7</ele>
        <time>2020-08-22T05:37:07Z</time>
        <sat>9</sat>
      </trkpt>
      <trkpt lat="42.328521" lon="-3.957399">
        <ele>889.0</ele>
        <time>2020-08-22T05:37:15Z</time>
        <sat>9</sat>
      </trkpt>
      <trkpt lat="42.328499" lon="-3.957511">
        <ele>889.6</ele>
        <time>2020-08-22T05:37:23Z</time>
        <sat>9</sat>
      </trkpt>
      <trkpt lat="42.328479" lon="-3.957620">
        <ele>890.1</ele>
        <time>2020-08-22T05:37:31Z</time>
        <sat>9</sat>
      </trkpt>
      <trkpt lat="42.328450" lon="-3.957724">
        <ele>890.7</ele>
        <time>2020-08-22T05:37:39Z</time>
        <sat>8</sat>
      </trkpt>
      <trkpt lat="42.328420" lon="-3.957832">
        <ele>891.2</ele>
        <time>2020-08-22T05:37:47Z</time>
        <sat>9</sat>
      </trkpt>
      <trkpt lat="42.328390" lon="-3.957946">
        <ele>891.9</ele>
        <time>2020-08-22T05:37:55Z</time>
        <sat>8</sat>
      </trkpt>
      <trkpt lat="42.328363" lon="-3.958060">
        <ele>892.3</ele>
        <time>2020-08-22T05:38:03Z</time>
        <sat>9</sat>
      </trkpt>
      <trkpt lat="42.328334" lon="-3.958178">
        <ele>892.7</ele>
        <time>2020-08-22T05:38:11Z</time>
        <sat>8</sat>
      </trkpt>
      <trkpt lat="42.328304" lon="-3.958296">
        <ele>893.1</ele>
        <time>2020-08-22T05:38:19Z</time>
        <sat>8</sat>
      </trkpt>
      <trkpt lat="42.328281" lon="-3.958411">
        <ele>893.6</ele>
        <time>2020-08-22T05:38:28Z</time>
        <sat>8</sat>
      </trkpt>
      <trkpt lat="42.328262" lon="-3.958531">
        <ele>894.2</ele>
        <time>2020-08-22T05:38:38Z</time>
        <sat>8</sat>
      </trkpt>
      <trkpt lat="42.328244" lon="-3.958639">
        <ele>894.7</ele>
        <time>2020-08-22T05:38:47Z</time>
        <sat>8</sat>
      </trkpt>
      <trkpt lat="42.328248" lon="-3.958759">
        <ele>895.5</ele>
        <time>2020-08-22T05:38:57Z</time>
        <sat>8</sat>
      </trkpt>
      <trkpt lat="42.328243" lon="-3.958873">
        <ele>896.5</ele>
        <time>2020-08-22T05:39:18Z</time>
        <sat>8</sat>
      </trkpt>
      <trkpt lat="42.328239" lon="-3.958994">
        <ele>897.1</ele>
        <time>2020-08-22T05:39:28Z</time>
        <sat>9</sat>
      </trkpt>
      <trkpt lat="42.328238" lon="-3.959109">
        <ele>897.7</ele>
        <time>2020-08-22T05:39:39Z</time>
        <sat>8</sat>
      </trkpt>
      <trkpt lat="42.328227" lon="-3.959223">
        <ele>898.2</ele>
        <time>2020-08-22T05:39:48Z</time>
        <sat>9</sat>
      </trkpt>
      <trkpt lat="42.328210" lon="-3.959333">
        <ele>899.0</ele>
        <time>2020-08-22T05:39:57Z</time>
        <sat>9</sat>
      </trkpt>
      <trkpt lat="42.328211" lon="-3.959456">
        <ele>899.5</ele>
        <time>2020-08-22T05:40:06Z</time>
        <sat>9</sat>
      </trkpt>
      <trkpt lat="42.328216" lon="-3.959568">
        <ele>900.4</ele>
        <time>2020-08-22T05:40:15Z</time>
        <sat>9</sat>
      </trkpt>
      <trkpt lat="42.328231" lon="-3.959685">
        <ele>901.2</ele>
        <time>2020-08-22T05:40:24Z</time>
        <sat>9</sat>
      </trkpt>
      <trkpt lat="42.328243" lon="-3.959804">
        <ele>902.0</ele>
        <time>2020-08-22T05:40:33Z</time>
        <sat>9</sat>
      </trkpt>
      <trkpt lat="42.328249" lon="-3.959918">
        <ele>902.7</ele>
        <time>2020-08-22T05:40:41Z</time>
        <sat>9</sat>
      </trkpt>
      <trkpt lat="42.328258" lon="-3.960037">
        <ele>903.3</ele>
        <time>2020-08-22T05:40:50Z</time>
        <sat>9</sat>
      </trkpt>
      <trkpt lat="42.328268" lon="-3.960153">
        <ele>903.7</ele>
        <time>2020-08-22T05:40:58Z</time>
        <sat>9</sat>
      </trkpt>
      <trkpt lat="42.328281" lon="-3.960269">
        <ele>904.0</ele>
        <time>2020-08-22T05:41:06Z</time>
        <sat>9</sat>
      </trkpt>
      <trkpt lat="42.328299" lon="-3.960384">
        <ele>904.5</ele>
        <time>2020-08-22T05:41:14Z</time>
        <sat>9</sat>
      </trkpt>
      <trkpt lat="42.328320" lon="-3.960493">
        <ele>905.0</ele>
        <time>2020-08-22T05:41:22Z</time>
        <sat>9</sat>
      </trkpt>
      <trkpt lat="42.328347" lon="-3.960608">
        <ele>905.7</ele>
        <time>2020-08-22T05:41:30Z</time>
        <sat>9</sat>
      </trkpt>
      <trkpt lat="42.328352" lon="-3.960719">
        <ele>906.2</ele>
        <time>2020-08-22T05:41:38Z</time>
        <sat>9</sat>
      </trkpt>
      <trkpt lat="42.328370" lon="-3.960838">
        <ele>906.9</ele>
        <time>2020-08-22T05:41:48Z</time>
        <sat>9</sat>
      </trkpt>
      <trkpt lat="42.328389" lon="-3.960953">
        <ele>907.6</ele>
        <time>2020-08-22T05:41:58Z</time>
        <sat>9</sat>
      </trkpt>
      <trkpt lat="42.328400" lon="-3.961066">
        <ele>908.1</ele>
        <time>2020-08-22T05:42:06Z</time>
        <sat>8</sat>
      </trkpt>
      <trkpt lat="42.328412" lon="-3.961178">
        <ele>908.5</ele>
        <time>2020-08-22T05:42:14Z</time>
        <sat>9</sat>
      </trkpt>
      <trkpt lat="42.328427" lon="-3.961299">
        <ele>908.8</ele>
        <time>2020-08-22T05:42:23Z</time>
        <sat>9</sat>
      </trkpt>
      <trkpt lat="42.328437" lon="-3.961419">
        <ele>909.4</ele>
        <time>2020-08-22T05:42:32Z</time>
        <sat>9</sat>
      </trkpt>
      <trkpt lat="42.328448" lon="-3.961532">
        <ele>909.7</ele>
        <time>2020-08-22T05:42:40Z</time>
        <sat>9</sat>
      </trkpt>
      <trkpt lat="42.328467" lon="-3.961651">
        <ele>910.2</ele>
        <time>2020-08-22T05:42:49Z</time>
        <sat>9</sat>
      </trkpt>
      <trkpt lat="42.328494" lon="-3.961761">
        <ele>910.7</ele>
        <time>2020-08-22T05:42:59Z</time>
        <sat>9</sat>
      </trkpt>
      <trkpt lat="42.328514" lon="-3.961877">
        <ele>911.3</ele>
        <time>2020-08-22T05:43:09Z</time>
        <sat>9</sat>
      </trkpt>
      <trkpt lat="42.328543" lon="-3.961989">
        <ele>911.9</ele>
        <time>2020-08-22T05:43:19Z</time>
        <sat>9</sat>
      </trkpt>
      <trkpt lat="42.328557" lon="-3.962100">
        <ele>912.8</ele>
        <time>2020-08-22T05:43:28Z</time>
        <sat>9</sat>
      </trkpt>
      <trkpt lat="42.328564" lon="-3.962219">
        <ele>913.9</ele>
        <time>2020-08-22T05:43:37Z</time>
        <sat>9</sat>
      </trkpt>
      <trkpt lat="42.328568" lon="-3.962335">
        <ele>914.7</ele>
        <time>2020-08-22T05:43:46Z</time>
        <sat>9</sat>
      </trkpt>
      <trkpt lat="42.328557" lon="-3.962449">
        <ele>915.5</ele>
        <time>2020-08-22T05:43:55Z</time>
        <sat>8</sat>
      </trkpt>
      <trkpt lat="42.328553" lon="-3.962567">
        <ele>916.4</ele>
        <time>2020-08-22T05:44:04Z</time>
        <sat>9</sat>
      </trkpt>
      <trkpt lat="42.328551" lon="-3.962683">
        <ele>917.5</ele>
        <time>2020-08-22T05:44:13Z</time>
        <sat>9</sat>
      </trkpt>
      <trkpt lat="42.328545" lon="-3.962793">
        <ele>918.7</ele>
        <time>2020-08-22T05:44:22Z</time>
        <sat>9</sat>
      </trkpt>
      <trkpt lat="42.328544" lon="-3.962905">
        <ele>919.8</ele>
        <time>2020-08-22T05:44:31Z</time>
        <sat>9</sat>
      </trkpt>
      <trkpt lat="42.328546" lon="-3.963018">
        <ele>920.9</ele>
        <time>2020-08-22T05:44:40Z</time>
        <sat>9</sat>
      </trkpt>
      <trkpt lat="42.328557" lon="-3.963129">
        <ele>922.1</ele>
        <time>2020-08-22T05:44:49Z</time>
        <sat>9</sat>
      </trkpt>
      <trkpt lat="42.328568" lon="-3.963237">
        <ele>923.2</ele>
        <time>2020-08-22T05:44:57Z</time>
        <sat>9</sat>
      </trkpt>
      <trkpt lat="42.328598" lon="-3.963351">
        <ele>924.1</ele>
        <time>2020-08-22T05:45:05Z</time>
        <sat>9</sat>
      </trkpt>
      <trkpt lat="42.328628" lon="-3.963464">
        <ele>924.0</ele>
        <time>2020-08-22T05:45:14Z</time>
        <sat>8</sat>
      </trkpt>
      <trkpt lat="42.328666" lon="-3.963573">
        <ele>925.8</ele>
        <time>2020-08-22T05:45:23Z</time>
        <sat>9</sat>
      </trkpt>
      <trkpt lat="42.328691" lon="-3.963681">
        <ele>926.4</ele>
        <time>2020-08-22T05:45:31Z</time>
        <sat>9</sat>
      </trkpt>
      <trkpt lat="42.328683" lon="-3.963800">
        <ele>926.5</ele>
        <time>2020-08-22T05:45:40Z</time>
        <sat>9</sat>
      </trkpt>
      <trkpt lat="42.328662" lon="-3.963907">
        <ele>926.9</ele>
        <time>2020-08-22T05:46:06Z</time>
        <sat>9</sat>
      </trkpt>
      <trkpt lat="42.328648" lon="-3.964023">
        <ele>927.0</ele>
        <time>2020-08-22T05:51:38Z</time>
        <sat>11</sat>
      </trkpt>
      <trkpt lat="42.328629" lon="-3.964136">
        <ele>927.1</ele>
        <time>2020-08-22T05:51:46Z</time>
        <sat>10</sat>
      </trkpt>
      <trkpt lat="42.328616" lon="-3.964254">
        <ele>927.3</ele>
        <time>2020-08-22T05:51:54Z</time>
        <sat>10</sat>
      </trkpt>
      <trkpt lat="42.328602" lon="-3.964373">
        <ele>927.3</ele>
        <time>2020-08-22T05:52:02Z</time>
        <sat>10</sat>
      </trkpt>
      <trkpt lat="42.328590" lon="-3.964492">
        <ele>927.4</ele>
        <time>2020-08-22T05:52:10Z</time>
        <sat>11</sat>
      </trkpt>
      <trkpt lat="42.328577" lon="-3.964605">
        <ele>927.6</ele>
        <time>2020-08-22T05:52:18Z</time>
        <sat>10</sat>
      </trkpt>
      <trkpt lat="42.328567" lon="-3.964727">
        <ele>927.7</ele>
        <time>2020-08-22T05:52:27Z</time>
        <sat>10</sat>
      </trkpt>
      <trkpt lat="42.328558" lon="-3.964837">
        <ele>928.0</ele>
        <time>2020-08-22T05:52:35Z</time>
        <sat>11</sat>
      </trkpt>
      <trkpt lat="42.328550" lon="-3.964947">
        <ele>928.1</ele>
        <time>2020-08-22T05:52:43Z</time>
        <sat>10</sat>
      </trkpt>
      <trkpt lat="42.328541" lon="-3.965058">
        <ele>928.3</ele>
        <time>2020-08-22T05:52:51Z</time>
        <sat>11</sat>
      </trkpt>
      <trkpt lat="42.328534" lon="-3.965167">
        <ele>928.4</ele>
        <time>2020-08-22T05:52:59Z</time>
        <sat>11</sat>
      </trkpt>
      <trkpt lat="42.328529" lon="-3.965284">
        <ele>928.6</ele>
        <time>2020-08-22T05:53:07Z</time>
        <sat>10</sat>
      </trkpt>
      <trkpt lat="42.328524" lon="-3.965404">
        <ele>928.7</ele>
        <time>2020-08-22T05:53:16Z</time>
        <sat>11</sat>
      </trkpt>
      <trkpt lat="42.328518" lon="-3.965514">
        <ele>928.8</ele>
        <time>2020-08-22T05:53:24Z</time>
        <sat>11</sat>
      </trkpt>
      <trkpt lat="42.328516" lon="-3.965634">
        <ele>928.9</ele>
        <time>2020-08-22T05:53:32Z</time>
        <sat>11</sat>
      </trkpt>
      <trkpt lat="42.328508" lon="-3.965758">
        <ele>928.9</ele>
        <time>2020-08-22T05:53:40Z</time>
        <sat>10</sat>
      </trkpt>
      <trkpt lat="42.328492" lon="-3.965875">
        <ele>929.0</ele>
        <time>2020-08-22T05:53:48Z</time>
        <sat>11</sat>
      </trkpt>
      <trkpt lat="42.328473" lon="-3.965995">
        <ele>929.0</ele>
        <time>2020-08-22T05:53:56Z</time>
        <sat>11</sat>
      </trkpt>
      <trkpt lat="42.328451" lon="-3.966115">
        <ele>929.2</ele>
        <time>2020-08-22T05:54:04Z</time>
        <sat>11</sat>
      </trkpt>
      <trkpt lat="42.328427" lon="-3.966235">
        <ele>929.2</ele>
        <time>2020-08-22T05:54:12Z</time>
        <sat>11</sat>
      </trkpt>
      <trkpt lat="42.328397" lon="-3.966351">
        <ele>929.3</ele>
        <time>2020-08-22T05:54:20Z</time>
        <sat>11</sat>
      </trkpt>
      <trkpt lat="42.328370" lon="-3.966455">
        <ele>929.3</ele>
        <time>2020-08-22T05:54:27Z</time>
        <sat>11</sat>
      </trkpt>
      <trkpt lat="42.328342" lon="-3.966558">
        <ele>929.4</ele>
        <time>2020-08-22T05:54:34Z</time>
        <sat>11</sat>
      </trkpt>
      <trkpt lat="42.328314" lon="-3.966675">
        <ele>929.4</ele>
        <time>2020-08-22T05:54:42Z</time>
        <sat>11</sat>
      </trkpt>
      <trkpt lat="42.328282" lon="-3.966789">
        <ele>929.4</ele>
        <time>2020-08-22T05:54:50Z</time>
        <sat>11</sat>
      </trkpt>
      <trkpt lat="42.328250" lon="-3.966907">
        <ele>929.4</ele>
        <time>2020-08-22T05:54:58Z</time>
        <sat>11</sat>
      </trkpt>
      <trkpt lat="42.328222" lon="-3.967027">
        <ele>929.4</ele>
        <time>2020-08-22T05:55:06Z</time>
        <sat>11</sat>
      </trkpt>
      <trkpt lat="42.328198" lon="-3.967132">
        <ele>929.3</ele>
        <time>2020-08-22T05:55:13Z</time>
        <sat>11</sat>
      </trkpt>
      <trkpt lat="42.328175" lon="-3.967247">
        <ele>929.2</ele>
        <time>2020-08-22T05:55:20Z</time>
        <sat>11</sat>
      </trkpt>
      <trkpt lat="42.328155" lon="-3.967359">
        <ele>929.2</ele>
        <time>2020-08-22T05:55:27Z</time>
        <sat>11</sat>
      </trkpt>
      <trkpt lat="42.328131" lon="-3.967469">
        <ele>928.9</ele>
        <time>2020-08-22T05:55:34Z</time>
        <sat>11</sat>
      </trkpt>
      <trkpt lat="42.328108" lon="-3.967581">
        <ele>928.8</ele>
        <time>2020-08-22T05:55:41Z</time>
        <sat>11</sat>
      </trkpt>
      <trkpt lat="42.328086" lon="-3.967696">
        <ele>928.8</ele>
        <time>2020-08-22T05:55:48Z</time>
        <sat>11</sat>
      </trkpt>
      <trkpt lat="42.328068" lon="-3.967806">
        <ele>928.7</ele>
        <time>2020-08-22T05:55:55Z</time>
        <sat>11</sat>
      </trkpt>
      <trkpt lat="42.328049" lon="-3.967916">
        <ele>928.6</ele>
        <time>2020-08-22T05:56:02Z</time>
        <sat>11</sat>
      </trkpt>
      <trkpt lat="42.328030" lon="-3.968032">
        <ele>928.6</ele>
        <time>2020-08-22T05:56:09Z</time>
        <sat>11</sat>
      </trkpt>
      <trkpt lat="42.328014" lon="-3.968142">
        <ele>928.5</ele>
        <time>2020-08-22T05:56:16Z</time>
        <sat>11</sat>
      </trkpt>
      <trkpt lat="42.328001" lon="-3.968258">
        <ele>928.4</ele>
        <time>2020-08-22T05:56:23Z</time>
        <sat>11</sat>
      </trkpt>
      <trkpt lat="42.327984" lon="-3.968373">
        <ele>928.2</ele>
        <time>2020-08-22T05:56:30Z</time>
        <sat>11</sat>
      </trkpt>
      <trkpt lat="42.327970" lon="-3.968486">
        <ele>928.1</ele>
        <time>2020-08-22T05:56:37Z</time>
        <sat>11</sat>
      </trkpt>
      <trkpt lat="42.327952" lon="-3.968603">
        <ele>928.1</ele>
        <time>2020-08-22T05:56:44Z</time>
        <sat>11</sat>
      </trkpt>
      <trkpt lat="42.327937" lon="-3.968715">
        <ele>928.0</ele>
        <time>2020-08-22T05:56:51Z</time>
        <sat>11</sat>
      </trkpt>
      <trkpt lat="42.327928" lon="-3.968832">
        <ele>927.9</ele>
        <time>2020-08-22T05:56:58Z</time>
        <sat>11</sat>
      </trkpt>
      <trkpt lat="42.327920" lon="-3.968955">
        <ele>927.9</ele>
        <time>2020-08-22T05:57:06Z</time>
        <sat>11</sat>
      </trkpt>
      <trkpt lat="42.327914" lon="-3.969068">
        <ele>927.8</ele>
        <time>2020-08-22T05:57:13Z</time>
        <sat>11</sat>
      </trkpt>
      <trkpt lat="42.327911" lon="-3.969183">
        <ele>927.7</ele>
        <time>2020-08-22T05:57:20Z</time>
        <sat>11</sat>
      </trkpt>
      <trkpt lat="42.327906" lon="-3.969298">
        <ele>927.6</ele>
        <time>2020-08-22T05:57:27Z</time>
        <sat>11</sat>
      </trkpt>
      <trkpt lat="42.327897" lon="-3.969410">
        <ele>927.5</ele>
        <time>2020-08-22T05:57:34Z</time>
        <sat>11</sat>
      </trkpt>
      <trkpt lat="42.327883" lon="-3.969523">
        <ele>927.5</ele>
        <time>2020-08-22T05:57:41Z</time>
        <sat>11</sat>
      </trkpt>
      <trkpt lat="42.327866" lon="-3.969634">
        <ele>927.5</ele>
        <time>2020-08-22T05:57:48Z</time>
        <sat>11</sat>
      </trkpt>
      <trkpt lat="42.327849" lon="-3.969745">
        <ele>927.5</ele>
        <time>2020-08-22T05:57:55Z</time>
        <sat>11</sat>
      </trkpt>
      <trkpt lat="42.327831" lon="-3.969866">
        <ele>927.5</ele>
        <time>2020-08-22T05:58:03Z</time>
        <sat>11</sat>
      </trkpt>
      <trkpt lat="42.327804" lon="-3.969975">
        <ele>927.5</ele>
        <time>2020-08-22T05:58:10Z</time>
        <sat>10</sat>
      </trkpt>
      <trkpt lat="42.327781" lon="-3.970082">
        <ele>927.4</ele>
        <time>2020-08-22T05:58:17Z</time>
        <sat>11</sat>
      </trkpt>
      <trkpt lat="42.327758" lon="-3.970195">
        <ele>927.4</ele>
        <time>2020-08-22T05:58:24Z</time>
        <sat>11</sat>
      </trkpt>
      <trkpt lat="42.327729" lon="-3.970300">
        <ele>927.5</ele>
        <time>2020-08-22T05:58:31Z</time>
        <sat>11</sat>
      </trkpt>
      <trkpt lat="42.327680" lon="-3.970400">
        <ele>927.5</ele>
        <time>2020-08-22T05:58:39Z</time>
        <sat>10</sat>
      </trkpt>
      <trkpt lat="42.327645" lon="-3.970509">
        <ele>927.7</ele>
        <time>2020-08-22T05:58:47Z</time>
        <sat>11</sat>
      </trkpt>
      <trkpt lat="42.327622" lon="-3.970616">
        <ele>927.8</ele>
        <time>2020-08-22T05:58:54Z</time>
        <sat>11</sat>
      </trkpt>
      <trkpt lat="42.327603" lon="-3.970724">
        <ele>927.9</ele>
        <time>2020-08-22T05:59:01Z</time>
        <sat>11</sat>
      </trkpt>
      <trkpt lat="42.327586" lon="-3.970833">
        <ele>928.0</ele>
        <time>2020-08-22T05:59:08Z</time>
        <sat>11</sat>
      </trkpt>
      <trkpt lat="42.327570" lon="-3.970943">
        <ele>928.0</ele>
        <time>2020-08-22T05:59:15Z</time>
        <sat>11</sat>
      </trkpt>
      <trkpt lat="42.327556" lon="-3.971054">
        <ele>927.9</ele>
        <time>2020-08-22T05:59:22Z</time>
        <sat>11</sat>
      </trkpt>
      <trkpt lat="42.327541" lon="-3.971176">
        <ele>927.9</ele>
        <time>2020-08-22T05:59:30Z</time>
        <sat>11</sat>
      </trkpt>
      <trkpt lat="42.327530" lon="-3.971284">
        <ele>928.0</ele>
        <time>2020-08-22T05:59:37Z</time>
        <sat>11</sat>
      </trkpt>
      <trkpt lat="42.327519" lon="-3.971396">
        <ele>928.0</ele>
        <time>2020-08-22T05:59:44Z</time>
        <sat>11</sat>
      </trkpt>
      <trkpt lat="42.327508" lon="-3.971520">
        <ele>928.2</ele>
        <time>2020-08-22T05:59:52Z</time>
        <sat>11</sat>
      </trkpt>
      <trkpt lat="42.327495" lon="-3.971646">
        <ele>928.2</ele>
        <time>2020-08-22T06:00:00Z</time>
        <sat>11</sat>
      </trkpt>
      <trkpt lat="42.327488" lon="-3.971756">
        <ele>928.2</ele>
        <time>2020-08-22T06:00:07Z</time>
        <sat>11</sat>
      </trkpt>
      <trkpt lat="42.327484" lon="-3.971870">
        <ele>928.1</ele>
        <time>2020-08-22T06:00:14Z</time>
        <sat>11</sat>
      </trkpt>
      <trkpt lat="42.327471" lon="-3.971992">
        <ele>928.0</ele>
        <time>2020-08-22T06:00:22Z</time>
        <sat>11</sat>
      </trkpt>
      <trkpt lat="42.327469" lon="-3.972102">
        <ele>927.9</ele>
        <time>2020-08-22T06:00:29Z</time>
        <sat>11</sat>
      </trkpt>
      <trkpt lat="42.327466" lon="-3.972216">
        <ele>928.0</ele>
        <time>2020-08-22T06:00:36Z</time>
        <sat>11</sat>
      </trkpt>
      <trkpt lat="42.327464" lon="-3.972330">
        <ele>927.9</ele>
        <time>2020-08-22T06:00:43Z</time>
        <sat>11</sat>
      </trkpt>
      <trkpt lat="42.327459" lon="-3.972440">
        <ele>927.8</ele>
        <time>2020-08-22T06:00:50Z</time>
        <sat>11</sat>
      </trkpt>
      <trkpt lat="42.327455" lon="-3.972557">
        <ele>926.8</ele>
        <time>2020-08-22T06:00:58Z</time>
        <sat>11</sat>
      </trkpt>
      <trkpt lat="42.327455" lon="-3.972678">
        <ele>927.7</ele>
        <time>2020-08-22T06:01:06Z</time>
        <sat>11</sat>
      </trkpt>
      <trkpt lat="42.327458" lon="-3.972804">
        <ele>927.3</ele>
        <time>2020-08-22T06:01:14Z</time>
        <sat>11</sat>
      </trkpt>
      <trkpt lat="42.327453" lon="-3.972930">
        <ele>928.1</ele>
        <time>2020-08-22T06:01:22Z</time>
        <sat>11</sat>
      </trkpt>
      <trkpt lat="42.327451" lon="-3.973044">
        <ele>928.0</ele>
        <time>2020-08-22T06:01:29Z</time>
        <sat>11</sat>
      </trkpt>
      <trkpt lat="42.327453" lon="-3.973156">
        <ele>927.7</ele>
        <time>2020-08-22T06:01:36Z</time>
        <sat>10</sat>
      </trkpt>
      <trkpt lat="42.327454" lon="-3.973268">
        <ele>927.6</ele>
        <time>2020-08-22T06:01:43Z</time>
        <sat>11</sat>
      </trkpt>
      <trkpt lat="42.327457" lon="-3.973393">
        <ele>927.5</ele>
        <time>2020-08-22T06:01:51Z</time>
        <sat>11</sat>
      </trkpt>
      <trkpt lat="42.327458" lon="-3.973504">
        <ele>927.4</ele>
        <time>2020-08-22T06:01:58Z</time>
        <sat>11</sat>
      </trkpt>
      <trkpt lat="42.327459" lon="-3.973615">
        <ele>927.3</ele>
        <time>2020-08-22T06:02:05Z</time>
        <sat>11</sat>
      </trkpt>
      <trkpt lat="42.327464" lon="-3.973728">
        <ele>927.3</ele>
        <time>2020-08-22T06:02:12Z</time>
        <sat>11</sat>
      </trkpt>
      <trkpt lat="42.327473" lon="-3.973842">
        <ele>927.3</ele>
        <time>2020-08-22T06:02:19Z</time>
        <sat>11</sat>
      </trkpt>
      <trkpt lat="42.327473" lon="-3.973966">
        <ele>927.2</ele>
        <time>2020-08-22T06:02:27Z</time>
        <sat>11</sat>
      </trkpt>
      <trkpt lat="42.327478" lon="-3.974078">
        <ele>927.2</ele>
        <time>2020-08-22T06:02:34Z</time>
        <sat>11</sat>
      </trkpt>
      <trkpt lat="42.327487" lon="-3.974187">
        <ele>927.2</ele>
        <time>2020-08-22T06:02:41Z</time>
        <sat>10</sat>
      </trkpt>
      <trkpt lat="42.327497" lon="-3.974303">
        <ele>927.3</ele>
        <time>2020-08-22T06:02:48Z</time>
        <sat>11</sat>
      </trkpt>
      <trkpt lat="42.327510" lon="-3.974413">
        <ele>927.2</ele>
        <time>2020-08-22T06:02:55Z</time>
        <sat>10</sat>
      </trkpt>
      <trkpt lat="42.327522" lon="-3.974525">
        <ele>927.1</ele>
        <time>2020-08-22T06:03:02Z</time>
        <sat>10</sat>
      </trkpt>
      <trkpt lat="42.327538" lon="-3.974641">
        <ele>927.0</ele>
        <time>2020-08-22T06:03:09Z</time>
        <sat>10</sat>
      </trkpt>
      <trkpt lat="42.327551" lon="-3.974753">
        <ele>926.9</ele>
        <time>2020-08-22T06:03:16Z</time>
        <sat>11</sat>
      </trkpt>
      <trkpt lat="42.327572" lon="-3.974868">
        <ele>927.0</ele>
        <time>2020-08-22T06:03:23Z</time>
        <sat>11</sat>
      </trkpt>
      <trkpt lat="42.327589" lon="-3.974981">
        <ele>926.9</ele>
        <time>2020-08-22T06:03:30Z</time>
        <sat>11</sat>
      </trkpt>
      <trkpt lat="42.327607" lon="-3.975094">
        <ele>926.8</ele>
        <time>2020-08-22T06:03:37Z</time>
        <sat>11</sat>
      </trkpt>
      <trkpt lat="42.327631" lon="-3.975212">
        <ele>926.8</ele>
        <time>2020-08-22T06:03:44Z</time>
        <sat>11</sat>
      </trkpt>
      <trkpt lat="42.327654" lon="-3.975329">
        <ele>926.9</ele>
        <time>2020-08-22T06:03:51Z</time>
        <sat>11</sat>
      </trkpt>
      <trkpt lat="42.327665" lon="-3.975442">
        <ele>926.7</ele>
        <time>2020-08-22T06:03:58Z</time>
        <sat>10</sat>
      </trkpt>
      <trkpt lat="42.327675" lon="-3.975553">
        <ele>926.7</ele>
        <time>2020-08-22T06:04:05Z</time>
        <sat>11</sat>
      </trkpt>
      <trkpt lat="42.327689" lon="-3.975677">
        <ele>926.7</ele>
        <time>2020-08-22T06:04:13Z</time>
        <sat>11</sat>
      </trkpt>
      <trkpt lat="42.327700" lon="-3.975786">
        <ele>926.7</ele>
        <time>2020-08-22T06:04:20Z</time>
        <sat>11</sat>
      </trkpt>
      <trkpt lat="42.327710" lon="-3.975895">
        <ele>926.7</ele>
        <time>2020-08-22T06:04:27Z</time>
        <sat>11</sat>
      </trkpt>
      <trkpt lat="42.327721" lon="-3.976004">
        <ele>926.8</ele>
        <time>2020-08-22T06:04:34Z</time>
        <sat>10</sat>
      </trkpt>
      <trkpt lat="42.327732" lon="-3.976119">
        <ele>926.9</ele>
        <time>2020-08-22T06:04:41Z</time>
        <sat>11</sat>
      </trkpt>
      <trkpt lat="42.327739" lon="-3.976238">
        <ele>926.8</ele>
        <time>2020-08-22T06:04:48Z</time>
        <sat>10</sat>
      </trkpt>
      <trkpt lat="42.327744" lon="-3.976355">
        <ele>926.8</ele>
        <time>2020-08-22T06:04:55Z</time>
        <sat>11</sat>
      </trkpt>
      <trkpt lat="42.327750" lon="-3.976471">
        <ele>926.7</ele>
        <time>2020-08-22T06:05:02Z</time>
        <sat>11</sat>
      </trkpt>
      <trkpt lat="42.327765" lon="-3.976584">
        <ele>926.7</ele>
        <time>2020-08-22T06:05:09Z</time>
        <sat>11</sat>
      </trkpt>
      <trkpt lat="42.327777" lon="-3.976701">
        <ele>926.6</ele>
        <time>2020-08-22T06:05:16Z</time>
        <sat>11</sat>
      </trkpt>
      <trkpt lat="42.327782" lon="-3.976816">
        <ele>926.6</ele>
        <time>2020-08-22T06:05:23Z</time>
        <sat>10</sat>
      </trkpt>
      <trkpt lat="42.327793" lon="-3.976929">
        <ele>926.5</ele>
        <time>2020-08-22T06:05:30Z</time>
        <sat>11</sat>
      </trkpt>
      <trkpt lat="42.327794" lon="-3.977042">
        <ele>926.5</ele>
        <time>2020-08-22T06:05:37Z</time>
        <sat>10</sat>
      </trkpt>
      <trkpt lat="42.327798" lon="-3.977154">
        <ele>926.5</ele>
        <time>2020-08-22T06:05:44Z</time>
        <sat>10</sat>
      </trkpt>
      <trkpt lat="42.327795" lon="-3.977268">
        <ele>926.4</ele>
        <time>2020-08-22T06:05:51Z</time>
        <sat>10</sat>
      </trkpt>
      <trkpt lat="42.327798" lon="-3.977379">
        <ele>926.5</ele>
        <time>2020-08-22T06:05:58Z</time>
        <sat>10</sat>
      </trkpt>
      <trkpt lat="42.327808" lon="-3.977500">
        <ele>926.6</ele>
        <time>2020-08-22T06:06:06Z</time>
        <sat>11</sat>
      </trkpt>
      <trkpt lat="42.327809" lon="-3.977620">
        <ele>926.6</ele>
        <time>2020-08-22T06:06:14Z</time>
        <sat>10</sat>
      </trkpt>
      <trkpt lat="42.327802" lon="-3.977735">
        <ele>926.7</ele>
        <time>2020-08-22T06:06:28Z</time>
        <sat>10</sat>
      </trkpt>
      <trkpt lat="42.327803" lon="-3.977851">
        <ele>926.7</ele>
        <time>2020-08-22T06:06:37Z</time>
        <sat>10</sat>
      </trkpt>
      <trkpt lat="42.327800" lon="-3.977975">
        <ele>926.7</ele>
        <time>2020-08-22T06:06:46Z</time>
        <sat>10</sat>
      </trkpt>
      <trkpt lat="42.327799" lon="-3.978097">
        <ele>926.6</ele>
        <time>2020-08-22T06:06:54Z</time>
        <sat>10</sat>
      </trkpt>
      <trkpt lat="42.327801" lon="-3.978213">
        <ele>926.4</ele>
        <time>2020-08-22T06:07:02Z</time>
        <sat>10</sat>
      </trkpt>
      <trkpt lat="42.327797" lon="-3.978325">
        <ele>926.2</ele>
        <time>2020-08-22T06:07:09Z</time>
        <sat>10</sat>
      </trkpt>
      <trkpt lat="42.327792" lon="-3.978441">
        <ele>926.1</ele>
        <time>2020-08-22T06:07:16Z</time>
        <sat>10</sat>
      </trkpt>
      <trkpt lat="42.327789" lon="-3.978555">
        <ele>925.8</ele>
        <time>2020-08-22T06:07:23Z</time>
        <sat>10</sat>
      </trkpt>
      <trkpt lat="42.327793" lon="-3.978672">
        <ele>925.5</ele>
        <time>2020-08-22T06:07:30Z</time>
        <sat>9</sat>
      </trkpt>
      <trkpt lat="42.327794" lon="-3.978786">
        <ele>925.3</ele>
        <time>2020-08-22T06:07:37Z</time>
        <sat>9</sat>
      </trkpt>
      <trkpt lat="42.327795" lon="-3.978901">
        <ele>925.1</ele>
        <time>2020-08-22T06:07:44Z</time>
        <sat>9</sat>
      </trkpt>
      <trkpt lat="42.327795" lon="-3.979017">
        <ele>924.9</ele>
        <time>2020-08-22T06:07:51Z</time>
        <sat>9</sat>
      </trkpt>
      <trkpt lat="42.327801" lon="-3.979131">
        <ele>924.7</ele>
        <time>2020-08-22T06:07:58Z</time>
        <sat>10</sat>
      </trkpt>
      <trkpt lat="42.327808" lon="-3.979250">
        <ele>924.4</ele>
        <time>2020-08-22T06:08:06Z</time>
        <sat>9</sat>
      </trkpt>
      <trkpt lat="42.327809" lon="-3.979361">
        <ele>924.2</ele>
        <time>2020-08-22T06:08:13Z</time>
        <sat>9</sat>
      </trkpt>
      <trkpt lat="42.327809" lon="-3.979473">
        <ele>924.0</ele>
        <time>2020-08-22T06:08:20Z</time>
        <sat>9</sat>
      </trkpt>
      <trkpt lat="42.327811" lon="-3.979585">
        <ele>924.0</ele>
        <time>2020-08-22T06:08:27Z</time>
        <sat>9</sat>
      </trkpt>
      <trkpt lat="42.327810" lon="-3.979697">
        <ele>923.9</ele>
        <time>2020-08-22T06:08:34Z</time>
        <sat>9</sat>
      </trkpt>
      <trkpt lat="42.327819" lon="-3.979823">
        <ele>923.6</ele>
        <time>2020-08-22T06:08:42Z</time>
        <sat>9</sat>
      </trkpt>
      <trkpt lat="42.327821" lon="-3.979944">
        <ele>923.6</ele>
        <time>2020-08-22T06:08:49Z</time>
        <sat>9</sat>
      </trkpt>
      <trkpt lat="42.327819" lon="-3.980058">
        <ele>923.4</ele>
        <time>2020-08-22T06:09:38Z</time>
        <sat>10</sat>
      </trkpt>
      <trkpt lat="42.327808" lon="-3.980182">
        <ele>923.4</ele>
        <time>2020-08-22T06:09:45Z</time>
        <sat>10</sat>
      </trkpt>
      <trkpt lat="42.327809" lon="-3.980304">
        <ele>923.4</ele>
        <time>2020-08-22T06:09:52Z</time>
        <sat>10</sat>
      </trkpt>
      <trkpt lat="42.327806" lon="-3.980424">
        <ele>923.2</ele>
        <time>2020-08-22T06:09:59Z</time>
        <sat>10</sat>
      </trkpt>
      <trkpt lat="42.327804" lon="-3.980536">
        <ele>923.8</ele>
        <time>2020-08-22T06:10:06Z</time>
        <sat>9</sat>
      </trkpt>
      <trkpt lat="42.327800" lon="-3.980650">
        <ele>923.9</ele>
        <time>2020-08-22T06:10:13Z</time>
        <sat>9</sat>
      </trkpt>
      <trkpt lat="42.327804" lon="-3.980773">
        <ele>924.0</ele>
        <time>2020-08-22T06:10:20Z</time>
        <sat>9</sat>
      </trkpt>
      <trkpt lat="42.327804" lon="-3.980886">
        <ele>924.0</ele>
        <time>2020-08-22T06:10:27Z</time>
        <sat>9</sat>
      </trkpt>
      <trkpt lat="42.327803" lon="-3.981002">
        <ele>924.1</ele>
        <time>2020-08-22T06:10:34Z</time>
        <sat>10</sat>
      </trkpt>
      <trkpt lat="42.327813" lon="-3.981124">
        <ele>924.1</ele>
        <time>2020-08-22T06:10:41Z</time>
        <sat>10</sat>
      </trkpt>
      <trkpt lat="42.327822" lon="-3.981241">
        <ele>924.0</ele>
        <time>2020-08-22T06:10:48Z</time>
        <sat>10</sat>
      </trkpt>
      <trkpt lat="42.327831" lon="-3.981356">
        <ele>923.7</ele>
        <time>2020-08-22T06:10:55Z</time>
        <sat>9</sat>
      </trkpt>
      <trkpt lat="42.327838" lon="-3.981469">
        <ele>923.3</ele>
        <time>2020-08-22T06:11:02Z</time>
        <sat>10</sat>
      </trkpt>
      <trkpt lat="42.327847" lon="-3.981584">
        <ele>923.0</ele>
        <time>2020-08-22T06:11:10Z</time>
        <sat>10</sat>
      </trkpt>
      <trkpt lat="42.327859" lon="-3.981700">
        <ele>922.6</ele>
        <time>2020-08-22T06:11:20Z</time>
        <sat>9</sat>
      </trkpt>
      <trkpt lat="42.327877" lon="-3.981812">
        <ele>921.3</ele>
        <time>2020-08-22T06:11:48Z</time>
        <sat>10</sat>
      </trkpt>
      <trkpt lat="42.327871" lon="-3.981935">
        <ele>920.2</ele>
        <time>2020-08-22T06:14:36Z</time>
        <sat>10</sat>
      </trkpt>
      <trkpt lat="42.327845" lon="-3.982047">
        <ele>919.9</ele>
        <time>2020-08-22T06:14:44Z</time>
        <sat>10</sat>
      </trkpt>
      <trkpt lat="42.327811" lon="-3.982147">
        <ele>919.4</ele>
        <time>2020-08-22T06:14:51Z</time>
        <sat>10</sat>
      </trkpt>
      <trkpt lat="42.327771" lon="-3.982255">
        <ele>918.2</ele>
        <time>2020-08-22T06:14:59Z</time>
        <sat>10</sat>
      </trkpt>
      <trkpt lat="42.327727" lon="-3.982358">
        <ele>917.0</ele>
        <time>2020-08-22T06:15:08Z</time>
        <sat>9</sat>
      </trkpt>
      <trkpt lat="42.327683" lon="-3.982451">
        <ele>916.2</ele>
        <time>2020-08-22T06:15:16Z</time>
        <sat>10</sat>
      </trkpt>
      <trkpt lat="42.327632" lon="-3.982541">
        <ele>915.2</ele>
        <time>2020-08-22T06:15:24Z</time>
        <sat>9</sat>
      </trkpt>
      <trkpt lat="42.327588" lon="-3.982634">
        <ele>914.4</ele>
        <time>2020-08-22T06:15:31Z</time>
        <sat>9</sat>
      </trkpt>
      <trkpt lat="42.327543" lon="-3.982727">
        <ele>913.4</ele>
        <time>2020-08-22T06:15:38Z</time>
        <sat>10</sat>
      </trkpt>
      <trkpt lat="42.327499" lon="-3.982830">
        <ele>912.4</ele>
        <time>2020-08-22T06:15:46Z</time>
        <sat>10</sat>
      </trkpt>
      <trkpt lat="42.327442" lon="-3.982914">
        <ele>911.1</ele>
        <time>2020-08-22T06:15:57Z</time>
        <sat>10</sat>
      </trkpt>
      <trkpt lat="42.327381" lon="-3.983005">
        <ele>909.9</ele>
        <time>2020-08-22T06:16:06Z</time>
        <sat>10</sat>
      </trkpt>
      <trkpt lat="42.327327" lon="-3.983098">
        <ele>909.0</ele>
        <time>2020-08-22T06:16:13Z</time>
        <sat>10</sat>
      </trkpt>
      <trkpt lat="42.327264" lon="-3.983186">
        <ele>907.9</ele>
        <time>2020-08-22T06:16:20Z</time>
        <sat>10</sat>
      </trkpt>
      <trkpt lat="42.327202" lon="-3.983269">
        <ele>906.5</ele>
        <time>2020-08-22T06:16:27Z</time>
        <sat>9</sat>
      </trkpt>
      <trkpt lat="42.327142" lon="-3.983346">
        <ele>905.2</ele>
        <time>2020-08-22T06:16:34Z</time>
        <sat>10</sat>
      </trkpt>
      <trkpt lat="42.327077" lon="-3.983418">
        <ele>904.0</ele>
        <time>2020-08-22T06:16:41Z</time>
        <sat>10</sat>
      </trkpt>
      <trkpt lat="42.327011" lon="-3.983487">
        <ele>903.0</ele>
        <time>2020-08-22T06:16:48Z</time>
        <sat>9</sat>
      </trkpt>
      <trkpt lat="42.326952" lon="-3.983578">
        <ele>902.0</ele>
        <time>2020-08-22T06:16:55Z</time>
        <sat>9</sat>
      </trkpt>
      <trkpt lat="42.326889" lon="-3.983663">
        <ele>901.1</ele>
        <time>2020-08-22T06:17:02Z</time>
        <sat>9</sat>
      </trkpt>
      <trkpt lat="42.326827" lon="-3.983749">
        <ele>900.3</ele>
        <time>2020-08-22T06:17:09Z</time>
        <sat>9</sat>
      </trkpt>
      <trkpt lat="42.326768" lon="-3.983840">
        <ele>899.3</ele>
        <time>2020-08-22T06:17:16Z</time>
        <sat>9</sat>
      </trkpt>
      <trkpt lat="42.326710" lon="-3.983927">
        <ele>898.6</ele>
        <time>2020-08-22T06:17:23Z</time>
        <sat>9</sat>
      </trkpt>
      <trkpt lat="42.326663" lon="-3.984026">
        <ele>897.9</ele>
        <time>2020-08-22T06:17:30Z</time>
        <sat>9</sat>
      </trkpt>
      <trkpt lat="42.326630" lon="-3.984135">
        <ele>897.3</ele>
        <time>2020-08-22T06:17:37Z</time>
        <sat>9</sat>
      </trkpt>
      <trkpt lat="42.326595" lon="-3.984247">
        <ele>896.7</ele>
        <time>2020-08-22T06:17:44Z</time>
        <sat>9</sat>
      </trkpt>
      <trkpt lat="42.326570" lon="-3.984359">
        <ele>896.1</ele>
        <time>2020-08-22T06:17:51Z</time>
        <sat>9</sat>
      </trkpt>
      <trkpt lat="42.326548" lon="-3.984480">
        <ele>895.6</ele>
        <time>2020-08-22T06:17:58Z</time>
        <sat>10</sat>
      </trkpt>
      <trkpt lat="42.326523" lon="-3.984591">
        <ele>895.1</ele>
        <time>2020-08-22T06:18:05Z</time>
        <sat>10</sat>
      </trkpt>
      <trkpt lat="42.326499" lon="-3.984704">
        <ele>894.7</ele>
        <time>2020-08-22T06:18:12Z</time>
        <sat>10</sat>
      </trkpt>
      <trkpt lat="42.326476" lon="-3.984823">
        <ele>894.3</ele>
        <time>2020-08-22T06:18:19Z</time>
        <sat>10</sat>
      </trkpt>
      <trkpt lat="42.326453" lon="-3.984929">
        <ele>893.9</ele>
        <time>2020-08-22T06:18:26Z</time>
        <sat>10</sat>
      </trkpt>
      <trkpt lat="42.326433" lon="-3.985048">
        <ele>893.5</ele>
        <time>2020-08-22T06:18:33Z</time>
        <sat>10</sat>
      </trkpt>
      <trkpt lat="42.326410" lon="-3.985166">
        <ele>893.1</ele>
        <time>2020-08-22T06:18:40Z</time>
        <sat>10</sat>
      </trkpt>
      <trkpt lat="42.326389" lon="-3.985282">
        <ele>892.7</ele>
        <time>2020-08-22T06:18:47Z</time>
        <sat>9</sat>
      </trkpt>
      <trkpt lat="42.326369" lon="-3.985402">
        <ele>892.2</ele>
        <time>2020-08-22T06:18:54Z</time>
        <sat>10</sat>
      </trkpt>
      <trkpt lat="42.326347" lon="-3.985515">
        <ele>891.8</ele>
        <time>2020-08-22T06:19:01Z</time>
        <sat>9</sat>
      </trkpt>
      <trkpt lat="42.326330" lon="-3.985636">
        <ele>891.4</ele>
        <time>2020-08-22T06:19:08Z</time>
        <sat>10</sat>
      </trkpt>
      <trkpt lat="42.326314" lon="-3.985755">
        <ele>890.9</ele>
        <time>2020-08-22T06:19:15Z</time>
        <sat>9</sat>
      </trkpt>
      <trkpt lat="42.326296" lon="-3.985867">
        <ele>890.4</ele>
        <time>2020-08-22T06:19:22Z</time>
        <sat>10</sat>
      </trkpt>
      <trkpt lat="42.326289" lon="-3.985979">
        <ele>889.4</ele>
        <time>2020-08-22T06:19:32Z</time>
        <sat>9</sat>
      </trkpt>
      <trkpt lat="42.326267" lon="-3.986102">
        <ele>889.1</ele>
        <time>2020-08-22T06:19:40Z</time>
        <sat>10</sat>
      </trkpt>
      <trkpt lat="42.326249" lon="-3.986218">
        <ele>888.7</ele>
        <time>2020-08-22T06:19:47Z</time>
        <sat>9</sat>
      </trkpt>
      <trkpt lat="42.326237" lon="-3.986342">
        <ele>888.1</ele>
        <time>2020-08-22T06:19:54Z</time>
        <sat>10</sat>
      </trkpt>
      <trkpt lat="42.326218" lon="-3.986462">
        <ele>887.6</ele>
        <time>2020-08-22T06:20:01Z</time>
        <sat>10</sat>
      </trkpt>
      <trkpt lat="42.326195" lon="-3.986579">
        <ele>887.0</ele>
        <time>2020-08-22T06:20:08Z</time>
        <sat>9</sat>
      </trkpt>
      <trkpt lat="42.326177" lon="-3.986705">
        <ele>886.7</ele>
        <time>2020-08-22T06:20:15Z</time>
        <sat>10</sat>
      </trkpt>
      <trkpt lat="42.326153" lon="-3.986822">
        <ele>886.3</ele>
        <time>2020-08-22T06:20:22Z</time>
        <sat>10</sat>
      </trkpt>
      <trkpt lat="42.326134" lon="-3.986930">
        <ele>885.9</ele>
        <time>2020-08-22T06:20:28Z</time>
        <sat>10</sat>
      </trkpt>
      <trkpt lat="42.326103" lon="-3.987040">
        <ele>885.4</ele>
        <time>2020-08-22T06:20:35Z</time>
        <sat>9</sat>
      </trkpt>
      <trkpt lat="42.326074" lon="-3.987158">
        <ele>884.9</ele>
        <time>2020-08-22T06:20:42Z</time>
        <sat>9</sat>
      </trkpt>
      <trkpt lat="42.326034" lon="-3.987266">
        <ele>884.5</ele>
        <time>2020-08-22T06:20:49Z</time>
        <sat>10</sat>
      </trkpt>
      <trkpt lat="42.325995" lon="-3.987379">
        <ele>884.0</ele>
        <time>2020-08-22T06:20:56Z</time>
        <sat>10</sat>
      </trkpt>
      <trkpt lat="42.325957" lon="-3.987478">
        <ele>883.7</ele>
        <time>2020-08-22T06:21:02Z</time>
        <sat>10</sat>
      </trkpt>
      <trkpt lat="42.325924" lon="-3.987592">
        <ele>883.6</ele>
        <time>2020-08-22T06:21:09Z</time>
        <sat>9</sat>
      </trkpt>
      <trkpt lat="42.325915" lon="-3.987705">
        <ele>883.3</ele>
        <time>2020-08-22T06:21:15Z</time>
        <sat>10</sat>
      </trkpt>
      <trkpt lat="42.325922" lon="-3.987833">
        <ele>883.0</ele>
        <time>2020-08-22T06:21:22Z</time>
        <sat>10</sat>
      </trkpt>
      <trkpt lat="42.325945" lon="-3.987950">
        <ele>882.7</ele>
        <time>2020-08-22T06:21:29Z</time>
        <sat>10</sat>
      </trkpt>
      <trkpt lat="42.325959" lon="-3.988061">
        <ele>882.5</ele>
        <time>2020-08-22T06:21:36Z</time>
        <sat>10</sat>
      </trkpt>
      <trkpt lat="42.325969" lon="-3.988170">
        <ele>882.4</ele>
        <time>2020-08-22T06:21:43Z</time>
        <sat>10</sat>
      </trkpt>
      <trkpt lat="42.325977" lon="-3.988286">
        <ele>882.6</ele>
        <time>2020-08-22T06:21:51Z</time>
        <sat>9</sat>
      </trkpt>
      <trkpt lat="42.325978" lon="-3.988409">
        <ele>882.7</ele>
        <time>2020-08-22T06:21:59Z</time>
        <sat>9</sat>
      </trkpt>
      <trkpt lat="42.325979" lon="-3.988525">
        <ele>882.7</ele>
        <time>2020-08-22T06:22:06Z</time>
        <sat>9</sat>
      </trkpt>
      <trkpt lat="42.325980" lon="-3.988642">
        <ele>882.9</ele>
        <time>2020-08-22T06:22:13Z</time>
        <sat>9</sat>
      </trkpt>
      <trkpt lat="42.325993" lon="-3.988767">
        <ele>883.2</ele>
        <time>2020-08-22T06:22:21Z</time>
        <sat>10</sat>
      </trkpt>
      <trkpt lat="42.325997" lon="-3.988888">
        <ele>883.6</ele>
        <time>2020-08-22T06:22:28Z</time>
        <sat>10</sat>
      </trkpt>
      <trkpt lat="42.325996" lon="-3.989008">
        <ele>884.0</ele>
        <time>2020-08-22T06:22:35Z</time>
        <sat>9</sat>
      </trkpt>
      <trkpt lat="42.325999" lon="-3.989126">
        <ele>884.5</ele>
        <time>2020-08-22T06:22:42Z</time>
        <sat>10</sat>
      </trkpt>
      <trkpt lat="42.325999" lon="-3.989248">
        <ele>885.1</ele>
        <time>2020-08-22T06:22:49Z</time>
        <sat>10</sat>
      </trkpt>
      <trkpt lat="42.325999" lon="-3.989370">
        <ele>885.6</ele>
        <time>2020-08-22T06:22:56Z</time>
        <sat>10</sat>
      </trkpt>
      <trkpt lat="42.326003" lon="-3.989490">
        <ele>886.0</ele>
        <time>2020-08-22T06:23:03Z</time>
        <sat>10</sat>
      </trkpt>
      <trkpt lat="42.326005" lon="-3.989604">
        <ele>886.3</ele>
        <time>2020-08-22T06:23:10Z</time>
        <sat>10</sat>
      </trkpt>
      <trkpt lat="42.326009" lon="-3.989723">
        <ele>886.6</ele>
        <time>2020-08-22T06:23:17Z</time>
        <sat>10</sat>
      </trkpt>
      <trkpt lat="42.326021" lon="-3.989842">
        <ele>886.9</ele>
        <time>2020-08-22T06:23:24Z</time>
        <sat>10</sat>
      </trkpt>
      <trkpt lat="42.326032" lon="-3.989967">
        <ele>887.1</ele>
        <time>2020-08-22T06:23:31Z</time>
        <sat>10</sat>
      </trkpt>
      <trkpt lat="42.326041" lon="-3.990089">
        <ele>887.2</ele>
        <time>2020-08-22T06:23:39Z</time>
        <sat>10</sat>
      </trkpt>
      <trkpt lat="42.326056" lon="-3.990198">
        <ele>887.4</ele>
        <time>2020-08-22T06:23:46Z</time>
        <sat>10</sat>
      </trkpt>
      <trkpt lat="42.326062" lon="-3.990308">
        <ele>887.8</ele>
        <time>2020-08-22T06:23:55Z</time>
        <sat>10</sat>
      </trkpt>
      <trkpt lat="42.326100" lon="-3.990477">
        <ele>888.9</ele>
        <time>2020-08-22T06:26:25Z</time>
        <sat>10</sat>
      </trkpt>
      <trkpt lat="42.326104" lon="-3.990597">
        <ele>888.9</ele>
        <time>2020-08-22T06:26:32Z</time>
        <sat>10</sat>
      </trkpt>
      <trkpt lat="42.326110" lon="-3.990717">
        <ele>888.8</ele>
        <time>2020-08-22T06:26:39Z</time>
        <sat>9</sat>
      </trkpt>
      <trkpt lat="42.326102" lon="-3.990826">
        <ele>888.7</ele>
        <time>2020-08-22T06:26:46Z</time>
        <sat>9</sat>
      </trkpt>
      <trkpt lat="42.326104" lon="-3.990944">
        <ele>888.9</ele>
        <time>2020-08-22T06:26:53Z</time>
        <sat>9</sat>
      </trkpt>
      <trkpt lat="42.326103" lon="-3.991062">
        <ele>889.1</ele>
        <time>2020-08-22T06:27:00Z</time>
        <sat>9</sat>
      </trkpt>
      <trkpt lat="42.326104" lon="-3.991177">
        <ele>889.3</ele>
        <time>2020-08-22T06:27:07Z</time>
        <sat>9</sat>
      </trkpt>
      <trkpt lat="42.326120" lon="-3.991301">
        <ele>889.5</ele>
        <time>2020-08-22T06:27:14Z</time>
        <sat>9</sat>
      </trkpt>
      <trkpt lat="42.326124" lon="-3.991419">
        <ele>889.6</ele>
        <time>2020-08-22T06:27:21Z</time>
        <sat>9</sat>
      </trkpt>
      <trkpt lat="42.326130" lon="-3.991538">
        <ele>889.9</ele>
        <time>2020-08-22T06:27:28Z</time>
        <sat>9</sat>
      </trkpt>
      <trkpt lat="42.326133" lon="-3.991653">
        <ele>890.0</ele>
        <time>2020-08-22T06:27:35Z</time>
        <sat>9</sat>
      </trkpt>
      <trkpt lat="42.326135" lon="-3.991774">
        <ele>890.3</ele>
        <time>2020-08-22T06:27:42Z</time>
        <sat>9</sat>
      </trkpt>
      <trkpt lat="42.326140" lon="-3.991895">
        <ele>890.5</ele>
        <time>2020-08-22T06:27:49Z</time>
        <sat>9</sat>
      </trkpt>
      <trkpt lat="42.326137" lon="-3.992014">
        <ele>890.8</ele>
        <time>2020-08-22T06:27:56Z</time>
        <sat>9</sat>
      </trkpt>
      <trkpt lat="42.326135" lon="-3.992129">
        <ele>891.2</ele>
        <time>2020-08-22T06:28:03Z</time>
        <sat>9</sat>
      </trkpt>
      <trkpt lat="42.326133" lon="-3.992247">
        <ele>891.7</ele>
        <time>2020-08-22T06:28:10Z</time>
        <sat>9</sat>
      </trkpt>
      <trkpt lat="42.326127" lon="-3.992364">
        <ele>892.1</ele>
        <time>2020-08-22T06:28:17Z</time>
        <sat>9</sat>
      </trkpt>
      <trkpt lat="42.326116" lon="-3.992482">
        <ele>892.5</ele>
        <time>2020-08-22T06:28:24Z</time>
        <sat>9</sat>
      </trkpt>
      <trkpt lat="42.326101" lon="-3.992596">
        <ele>893.0</ele>
        <time>2020-08-22T06:28:31Z</time>
        <sat>9</sat>
      </trkpt>
      <trkpt lat="42.326082" lon="-3.992710">
        <ele>893.4</ele>
        <time>2020-08-22T06:28:38Z</time>
        <sat>9</sat>
      </trkpt>
      <trkpt lat="42.326044" lon="-3.992811">
        <ele>894.0</ele>
        <time>2020-08-22T06:28:45Z</time>
        <sat>9</sat>
      </trkpt>
      <trkpt lat="42.326031" lon="-3.992930">
        <ele>894.5</ele>
        <time>2020-08-22T06:28:52Z</time>
        <sat>9</sat>
      </trkpt>
      <trkpt lat="42.326001" lon="-3.993041">
        <ele>895.1</ele>
        <time>2020-08-22T06:28:59Z</time>
        <sat>9</sat>
      </trkpt>
      <trkpt lat="42.325977" lon="-3.993159">
        <ele>895.9</ele>
        <time>2020-08-22T06:29:07Z</time>
        <sat>9</sat>
      </trkpt>
      <trkpt lat="42.325938" lon="-3.993271">
        <ele>896.6</ele>
        <time>2020-08-22T06:29:15Z</time>
        <sat>9</sat>
      </trkpt>
      <trkpt lat="42.325901" lon="-3.993369">
        <ele>897.7</ele>
        <time>2020-08-22T06:29:23Z</time>
        <sat>9</sat>
      </trkpt>
      <trkpt lat="42.325862" lon="-3.993477">
        <ele>898.9</ele>
        <time>2020-08-22T06:29:37Z</time>
        <sat>9</sat>
      </trkpt>
      <trkpt lat="42.325807" lon="-3.993565">
        <ele>900.3</ele>
        <time>2020-08-22T06:30:05Z</time>
        <sat>9</sat>
      </trkpt>
      <trkpt lat="42.325748" lon="-3.993645">
        <ele>900.8</ele>
        <time>2020-08-22T06:30:16Z</time>
        <sat>9</sat>
      </trkpt>
      <trkpt lat="42.325686" lon="-3.993726">
        <ele>901.6</ele>
        <time>2020-08-22T06:30:27Z</time>
        <sat>9</sat>
      </trkpt>
      <trkpt lat="42.325621" lon="-3.993798">
        <ele>902.6</ele>
        <time>2020-08-22T06:30:36Z</time>
        <sat>9</sat>
      </trkpt>
      <trkpt lat="42.325570" lon="-3.993883">
        <ele>903.6</ele>
        <time>2020-08-22T06:30:44Z</time>
        <sat>9</sat>
      </trkpt>
      <trkpt lat="42.325518" lon="-3.993973">
        <ele>904.3</ele>
        <time>2020-08-22T06:30:52Z</time>
        <sat>8</sat>
      </trkpt>
      <trkpt lat="42.325463" lon="-3.994066">
        <ele>905.0</ele>
        <time>2020-08-22T06:31:01Z</time>
        <sat>9</sat>
      </trkpt>
      <trkpt lat="42.325429" lon="-3.994168">
        <ele>905.6</ele>
        <time>2020-08-22T06:31:09Z</time>
        <sat>9</sat>
      </trkpt>
      <trkpt lat="42.325406" lon="-3.994287">
        <ele>906.4</ele>
        <time>2020-08-22T06:31:18Z</time>
        <sat>9</sat>
      </trkpt>
      <trkpt lat="42.325404" lon="-3.994403">
        <ele>907.4</ele>
        <time>2020-08-22T06:31:27Z</time>
        <sat>9</sat>
      </trkpt>
      <trkpt lat="42.325399" lon="-3.994521">
        <ele>908.3</ele>
        <time>2020-08-22T06:31:36Z</time>
        <sat>9</sat>
      </trkpt>
      <trkpt lat="42.325390" lon="-3.994641">
        <ele>909.1</ele>
        <time>2020-08-22T06:31:44Z</time>
        <sat>9</sat>
      </trkpt>
      <trkpt lat="42.325375" lon="-3.994756">
        <ele>909.7</ele>
        <time>2020-08-22T06:31:52Z</time>
        <sat>9</sat>
      </trkpt>
      <trkpt lat="42.325358" lon="-3.994863">
        <ele>910.2</ele>
        <time>2020-08-22T06:31:59Z</time>
        <sat>9</sat>
      </trkpt>
      <trkpt lat="42.325340" lon="-3.994975">
        <ele>910.7</ele>
        <time>2020-08-22T06:32:06Z</time>
        <sat>9</sat>
      </trkpt>
      <trkpt lat="42.325322" lon="-3.995097">
        <ele>911.2</ele>
        <time>2020-08-22T06:32:14Z</time>
        <sat>9</sat>
      </trkpt>
      <trkpt lat="42.325301" lon="-3.995204">
        <ele>911.7</ele>
        <time>2020-08-22T06:32:21Z</time>
        <sat>9</sat>
      </trkpt>
      <trkpt lat="42.325278" lon="-3.995312">
        <ele>912.3</ele>
        <time>2020-08-22T06:32:28Z</time>
        <sat>9</sat>
      </trkpt>
      <trkpt lat="42.325254" lon="-3.995425">
        <ele>912.9</ele>
        <time>2020-08-22T06:32:35Z</time>
        <sat>9</sat>
      </trkpt>
      <trkpt lat="42.325227" lon="-3.995540">
        <ele>913.4</ele>
        <time>2020-08-22T06:32:42Z</time>
        <sat>9</sat>
      </trkpt>
      <trkpt lat="42.325199" lon="-3.995647">
        <ele>914.0</ele>
        <time>2020-08-22T06:32:49Z</time>
        <sat>8</sat>
      </trkpt>
      <trkpt lat="42.325169" lon="-3.995755">
        <ele>914.5</ele>
        <time>2020-08-22T06:32:56Z</time>
        <sat>8</sat>
      </trkpt>
      <trkpt lat="42.325134" lon="-3.995857">
        <ele>913.9</ele>
        <time>2020-08-22T06:33:03Z</time>
        <sat>7</sat>
      </trkpt>
      <trkpt lat="42.325088" lon="-3.995954">
        <ele>916.1</ele>
        <time>2020-08-22T06:33:10Z</time>
        <sat>8</sat>
      </trkpt>
      <trkpt lat="42.325020" lon="-3.996030">
        <ele>916.6</ele>
        <time>2020-08-22T06:33:18Z</time>
        <sat>8</sat>
      </trkpt>
      <trkpt lat="42.324951" lon="-3.996109">
        <ele>916.8</ele>
        <time>2020-08-22T06:33:26Z</time>
        <sat>8</sat>
      </trkpt>
      <trkpt lat="42.324882" lon="-3.996183">
        <ele>916.8</ele>
        <time>2020-08-22T06:33:34Z</time>
        <sat>8</sat>
      </trkpt>
      <trkpt lat="42.324823" lon="-3.996271">
        <ele>917.0</ele>
        <time>2020-08-22T06:33:42Z</time>
        <sat>8</sat>
      </trkpt>
      <trkpt lat="42.324780" lon="-3.996380">
        <ele>917.0</ele>
        <time>2020-08-22T06:33:50Z</time>
        <sat>8</sat>
      </trkpt>
      <trkpt lat="42.324733" lon="-3.996477">
        <ele>916.9</ele>
        <time>2020-08-22T06:33:57Z</time>
        <sat>7</sat>
      </trkpt>
      <trkpt lat="42.324692" lon="-3.996584">
        <ele>917.6</ele>
        <time>2020-08-22T06:34:04Z</time>
        <sat>8</sat>
      </trkpt>
      <trkpt lat="42.324652" lon="-3.996691">
        <ele>918.0</ele>
        <time>2020-08-22T06:34:11Z</time>
        <sat>8</sat>
      </trkpt>
      <trkpt lat="42.324614" lon="-3.996797">
        <ele>918.4</ele>
        <time>2020-08-22T06:34:18Z</time>
        <sat>7</sat>
      </trkpt>
      <trkpt lat="42.324579" lon="-3.996904">
        <ele>918.5</ele>
        <time>2020-08-22T06:34:25Z</time>
        <sat>8</sat>
      </trkpt>
      <trkpt lat="42.324540" lon="-3.997008">
        <ele>918.7</ele>
        <time>2020-08-22T06:34:32Z</time>
        <sat>8</sat>
      </trkpt>
      <trkpt lat="42.324499" lon="-3.997113">
        <ele>918.7</ele>
        <time>2020-08-22T06:34:39Z</time>
        <sat>8</sat>
      </trkpt>
      <trkpt lat="42.324456" lon="-3.997222">
        <ele>918.8</ele>
        <time>2020-08-22T06:34:47Z</time>
        <sat>8</sat>
      </trkpt>
      <trkpt lat="42.324408" lon="-3.997329">
        <ele>918.9</ele>
        <time>2020-08-22T06:34:55Z</time>
        <sat>8</sat>
      </trkpt>
      <trkpt lat="42.324364" lon="-3.997429">
        <ele>919.1</ele>
        <time>2020-08-22T06:35:02Z</time>
        <sat>8</sat>
      </trkpt>
      <trkpt lat="42.324316" lon="-3.997531">
        <ele>919.2</ele>
        <time>2020-08-22T06:35:09Z</time>
        <sat>8</sat>
      </trkpt>
      <trkpt lat="42.324267" lon="-3.997631">
        <ele>919.2</ele>
        <time>2020-08-22T06:35:16Z</time>
        <sat>8</sat>
      </trkpt>
      <trkpt lat="42.324221" lon="-3.997727">
        <ele>919.3</ele>
        <time>2020-08-22T06:35:23Z</time>
        <sat>8</sat>
      </trkpt>
      <trkpt lat="42.324180" lon="-3.997831">
        <ele>919.3</ele>
        <time>2020-08-22T06:35:30Z</time>
        <sat>8</sat>
      </trkpt>
      <trkpt lat="42.324142" lon="-3.997944">
        <ele>919.6</ele>
        <time>2020-08-22T06:35:38Z</time>
        <sat>8</sat>
      </trkpt>
      <trkpt lat="42.324110" lon="-3.998047">
        <ele>919.7</ele>
        <time>2020-08-22T06:35:45Z</time>
        <sat>8</sat>
      </trkpt>
      <trkpt lat="42.324073" lon="-3.998163">
        <ele>920.1</ele>
        <time>2020-08-22T06:35:53Z</time>
        <sat>8</sat>
      </trkpt>
      <trkpt lat="42.324046" lon="-3.998275">
        <ele>920.3</ele>
        <time>2020-08-22T06:36:00Z</time>
        <sat>8</sat>
      </trkpt>
      <trkpt lat="42.324002" lon="-3.998384">
        <ele>920.6</ele>
        <time>2020-08-22T06:36:07Z</time>
        <sat>8</sat>
      </trkpt>
      <trkpt lat="42.323959" lon="-3.998485">
        <ele>920.9</ele>
        <time>2020-08-22T06:36:14Z</time>
        <sat>8</sat>
      </trkpt>
      <trkpt lat="42.323918" lon="-3.998588">
        <ele>921.0</ele>
        <time>2020-08-22T06:36:21Z</time>
        <sat>8</sat>
      </trkpt>
      <trkpt lat="42.323882" lon="-3.998696">
        <ele>921.0</ele>
        <time>2020-08-22T06:36:28Z</time>
        <sat>8</sat>
      </trkpt>
      <trkpt lat="42.323845" lon="-3.998807">
        <ele>921.1</ele>
        <time>2020-08-22T06:36:35Z</time>
        <sat>8</sat>
      </trkpt>
      <trkpt lat="42.323814" lon="-3.998915">
        <ele>921.1</ele>
        <time>2020-08-22T06:36:42Z</time>
        <sat>8</sat>
      </trkpt>
      <trkpt lat="42.323794" lon="-3.999027">
        <ele>921.2</ele>
        <time>2020-08-22T06:36:49Z</time>
        <sat>7</sat>
      </trkpt>
      <trkpt lat="42.323782" lon="-3.999148">
        <ele>921.3</ele>
        <time>2020-08-22T06:36:57Z</time>
        <sat>7</sat>
      </trkpt>
      <trkpt lat="42.323765" lon="-3.999261">
        <ele>921.4</ele>
        <time>2020-08-22T06:37:04Z</time>
        <sat>7</sat>
      </trkpt>
      <trkpt lat="42.323742" lon="-3.999378">
        <ele>921.3</ele>
        <time>2020-08-22T06:37:11Z</time>
        <sat>8</sat>
      </trkpt>
      <trkpt lat="42.323716" lon="-3.999487">
        <ele>921.3</ele>
        <time>2020-08-22T06:37:18Z</time>
        <sat>7</sat>
      </trkpt>
      <trkpt lat="42.323685" lon="-3.999594">
        <ele>921.3</ele>
        <time>2020-08-22T06:37:25Z</time>
        <sat>7</sat>
      </trkpt>
      <trkpt lat="42.323651" lon="-3.999702">
        <ele>921.4</ele>
        <time>2020-08-22T06:37:32Z</time>
        <sat>7</sat>
      </trkpt>
      <trkpt lat="42.323610" lon="-3.999803">
        <ele>921.4</ele>
        <time>2020-08-22T06:37:39Z</time>
        <sat>8</sat>
      </trkpt>
      <trkpt lat="42.323573" lon="-3.999906">
        <ele>921.4</ele>
        <time>2020-08-22T06:37:46Z</time>
        <sat>8</sat>
      </trkpt>
      <trkpt lat="42.323536" lon="-4.000009">
        <ele>921.5</ele>
        <time>2020-08-22T06:37:53Z</time>
        <sat>7</sat>
      </trkpt>
      <trkpt lat="42.323506" lon="-4.000114">
        <ele>921.6</ele>
        <time>2020-08-22T06:38:00Z</time>
        <sat>7</sat>
      </trkpt>
      <trkpt lat="42.323480" lon="-4.000229">
        <ele>921.8</ele>
        <time>2020-08-22T06:38:07Z</time>
        <sat>7</sat>
      </trkpt>
      <trkpt lat="42.323456" lon="-4.000345">
        <ele>921.8</ele>
        <time>2020-08-22T06:38:14Z</time>
        <sat>7</sat>
      </trkpt>
      <trkpt lat="42.323428" lon="-4.000456">
        <ele>922.0</ele>
        <time>2020-08-22T06:38:21Z</time>
        <sat>7</sat>
      </trkpt>
      <trkpt lat="42.323398" lon="-4.000566">
        <ele>922.0</ele>
        <time>2020-08-22T06:38:28Z</time>
        <sat>7</sat>
      </trkpt>
      <trkpt lat="42.323370" lon="-4.000674">
        <ele>922.0</ele>
        <time>2020-08-22T06:38:35Z</time>
        <sat>7</sat>
      </trkpt>
      <trkpt lat="42.323342" lon="-4.000785">
        <ele>922.0</ele>
        <time>2020-08-22T06:38:42Z</time>
        <sat>7</sat>
      </trkpt>
      <trkpt lat="42.323318" lon="-4.000893">
        <ele>922.1</ele>
        <time>2020-08-22T06:38:49Z</time>
        <sat>7</sat>
      </trkpt>
      <trkpt lat="42.323291" lon="-4.001011">
        <ele>922.1</ele>
        <time>2020-08-22T06:38:56Z</time>
        <sat>8</sat>
      </trkpt>
      <trkpt lat="42.323264" lon="-4.001127">
        <ele>922.0</ele>
        <time>2020-08-22T06:39:03Z</time>
        <sat>7</sat>
      </trkpt>
      <trkpt lat="42.323241" lon="-4.001239">
        <ele>921.9</ele>
        <time>2020-08-22T06:39:10Z</time>
        <sat>7</sat>
      </trkpt>
      <trkpt lat="42.323218" lon="-4.001344">
        <ele>921.9</ele>
        <time>2020-08-22T06:39:17Z</time>
        <sat>8</sat>
      </trkpt>
      <trkpt lat="42.323188" lon="-4.001460">
        <ele>921.8</ele>
        <time>2020-08-22T06:39:24Z</time>
        <sat>8</sat>
      </trkpt>
      <trkpt lat="42.323162" lon="-4.001575">
        <ele>921.7</ele>
        <time>2020-08-22T06:39:31Z</time>
        <sat>8</sat>
      </trkpt>
      <trkpt lat="42.323138" lon="-4.001680">
        <ele>921.6</ele>
        <time>2020-08-22T06:39:37Z</time>
        <sat>8</sat>
      </trkpt>
      <trkpt lat="42.323107" lon="-4.001794">
        <ele>921.5</ele>
        <time>2020-08-22T06:39:44Z</time>
        <sat>7</sat>
      </trkpt>
      <trkpt lat="42.323080" lon="-4.001906">
        <ele>921.6</ele>
        <time>2020-08-22T06:39:51Z</time>
        <sat>8</sat>
      </trkpt>
      <trkpt lat="42.323061" lon="-4.002020">
        <ele>921.6</ele>
        <time>2020-08-22T06:39:58Z</time>
        <sat>7</sat>
      </trkpt>
      <trkpt lat="42.323053" lon="-4.002137">
        <ele>921.6</ele>
        <time>2020-08-22T06:40:05Z</time>
        <sat>8</sat>
      </trkpt>
      <trkpt lat="42.323047" lon="-4.002261">
        <ele>921.6</ele>
        <time>2020-08-22T06:40:12Z</time>
        <sat>7</sat>
      </trkpt>
      <trkpt lat="42.323031" lon="-4.002375">
        <ele>921.5</ele>
        <time>2020-08-22T06:40:19Z</time>
        <sat>8</sat>
      </trkpt>
      <trkpt lat="42.323015" lon="-4.002499">
        <ele>921.3</ele>
        <time>2020-08-22T06:40:34Z</time>
        <sat>8</sat>
      </trkpt>
      <trkpt lat="42.322990" lon="-4.002609">
        <ele>921.1</ele>
        <time>2020-08-22T06:40:40Z</time>
        <sat>8</sat>
      </trkpt>
      <trkpt lat="42.322965" lon="-4.002720">
        <ele>920.9</ele>
        <time>2020-08-22T06:40:46Z</time>
        <sat>8</sat>
      </trkpt>
      <trkpt lat="42.322939" lon="-4.002831">
        <ele>920.7</ele>
        <time>2020-08-22T06:40:52Z</time>
        <sat>8</sat>
      </trkpt>
      <trkpt lat="42.322902" lon="-4.002943">
        <ele>920.6</ele>
        <time>2020-08-22T06:40:59Z</time>
        <sat>7</sat>
      </trkpt>
      <trkpt lat="42.322879" lon="-4.003063">
        <ele>920.4</ele>
        <time>2020-08-22T06:41:06Z</time>
        <sat>8</sat>
      </trkpt>
      <trkpt lat="42.322854" lon="-4.003168">
        <ele>920.3</ele>
        <time>2020-08-22T06:41:12Z</time>
        <sat>7</sat>
      </trkpt>
      <trkpt lat="42.322826" lon="-4.003280">
        <ele>920.2</ele>
        <time>2020-08-22T06:41:19Z</time>
        <sat>7</sat>
      </trkpt>
      <trkpt lat="42.322801" lon="-4.003394">
        <ele>920.0</ele>
        <time>2020-08-22T06:41:26Z</time>
        <sat>7</sat>
      </trkpt>
      <trkpt lat="42.322775" lon="-4.003509">
        <ele>920.1</ele>
        <time>2020-08-22T06:41:33Z</time>
        <sat>8</sat>
      </trkpt>
      <trkpt lat="42.322745" lon="-4.003626">
        <ele>920.1</ele>
        <time>2020-08-22T06:41:40Z</time>
        <sat>8</sat>
      </trkpt>
      <trkpt lat="42.322726" lon="-4.003733">
        <ele>920.1</ele>
        <time>2020-08-22T06:41:46Z</time>
        <sat>8</sat>
      </trkpt>
      <trkpt lat="42.322699" lon="-4.003837">
        <ele>920.2</ele>
        <time>2020-08-22T06:41:52Z</time>
        <sat>8</sat>
      </trkpt>
      <trkpt lat="42.322680" lon="-4.003944">
        <ele>920.1</ele>
        <time>2020-08-22T06:41:58Z</time>
        <sat>7</sat>
      </trkpt>
      <trkpt lat="42.322650" lon="-4.004062">
        <ele>919.9</ele>
        <time>2020-08-22T06:42:05Z</time>
        <sat>7</sat>
      </trkpt>
      <trkpt lat="42.322625" lon="-4.004172">
        <ele>919.8</ele>
        <time>2020-08-22T06:42:12Z</time>
        <sat>7</sat>
      </trkpt>
      <trkpt lat="42.322603" lon="-4.004287">
        <ele>919.8</ele>
        <time>2020-08-22T06:42:19Z</time>
        <sat>7</sat>
      </trkpt>
      <trkpt lat="42.322579" lon="-4.004397">
        <ele>919.7</ele>
        <time>2020-08-22T06:42:26Z</time>
        <sat>7</sat>
      </trkpt>
      <trkpt lat="42.322556" lon="-4.004511">
        <ele>919.7</ele>
        <time>2020-08-22T06:42:34Z</time>
        <sat>7</sat>
      </trkpt>
      <trkpt lat="42.322539" lon="-4.004630">
        <ele>919.6</ele>
        <time>2020-08-22T06:42:42Z</time>
        <sat>7</sat>
      </trkpt>
      <trkpt lat="42.322521" lon="-4.004749">
        <ele>919.5</ele>
        <time>2020-08-22T06:42:50Z</time>
        <sat>7</sat>
      </trkpt>
      <trkpt lat="42.322508" lon="-4.004862">
        <ele>919.4</ele>
        <time>2020-08-22T06:42:57Z</time>
        <sat>7</sat>
      </trkpt>
      <trkpt lat="42.322496" lon="-4.004979">
        <ele>919.3</ele>
        <time>2020-08-22T06:43:04Z</time>
        <sat>7</sat>
      </trkpt>
      <trkpt lat="42.322481" lon="-4.005098">
        <ele>919.2</ele>
        <time>2020-08-22T06:43:11Z</time>
        <sat>7</sat>
      </trkpt>
      <trkpt lat="42.322460" lon="-4.005211">
        <ele>919.1</ele>
        <time>2020-08-22T06:43:18Z</time>
        <sat>7</sat>
      </trkpt>
      <trkpt lat="42.322440" lon="-4.005328">
        <ele>919.0</ele>
        <time>2020-08-22T06:43:25Z</time>
        <sat>7</sat>
      </trkpt>
      <trkpt lat="42.322417" lon="-4.005437">
        <ele>918.9</ele>
        <time>2020-08-22T06:43:32Z</time>
        <sat>7</sat>
      </trkpt>
      <trkpt lat="42.322394" lon="-4.005554">
        <ele>918.9</ele>
        <time>2020-08-22T06:43:39Z</time>
        <sat>7</sat>
      </trkpt>
      <trkpt lat="42.322369" lon="-4.005670">
        <ele>918.9</ele>
        <time>2020-08-22T06:43:46Z</time>
        <sat>7</sat>
      </trkpt>
      <trkpt lat="42.322344" lon="-4.005788">
        <ele>918.8</ele>
        <time>2020-08-22T06:43:53Z</time>
        <sat>7</sat>
      </trkpt>
      <trkpt lat="42.322319" lon="-4.005909">
        <ele>918.6</ele>
        <time>2020-08-22T06:44:00Z</time>
        <sat>7</sat>
      </trkpt>
      <trkpt lat="42.322284" lon="-4.006023">
        <ele>918.5</ele>
        <time>2020-08-22T06:44:07Z</time>
        <sat>7</sat>
      </trkpt>
      <trkpt lat="42.322253" lon="-4.006144">
        <ele>918.4</ele>
        <time>2020-08-22T06:44:14Z</time>
        <sat>7</sat>
      </trkpt>
      <trkpt lat="42.322224" lon="-4.006247">
        <ele>918.3</ele>
        <time>2020-08-22T06:44:20Z</time>
        <sat>7</sat>
      </trkpt>
      <trkpt lat="42.322189" lon="-4.006363">
        <ele>918.3</ele>
        <time>2020-08-22T06:44:27Z</time>
        <sat>7</sat>
      </trkpt>
      <trkpt lat="42.322159" lon="-4.006467">
        <ele>918.2</ele>
        <time>2020-08-22T06:44:33Z</time>
        <sat>7</sat>
      </trkpt>
      <trkpt lat="42.322127" lon="-4.006574">
        <ele>918.2</ele>
        <time>2020-08-22T06:44:40Z</time>
        <sat>7</sat>
      </trkpt>
      <trkpt lat="42.322101" lon="-4.006689">
        <ele>918.1</ele>
        <time>2020-08-22T06:44:47Z</time>
        <sat>7</sat>
      </trkpt>
      <trkpt lat="42.322078" lon="-4.006801">
        <ele>918.1</ele>
        <time>2020-08-22T06:44:54Z</time>
        <sat>7</sat>
      </trkpt>
      <trkpt lat="42.322051" lon="-4.006914">
        <ele>918.0</ele>
        <time>2020-08-22T06:45:01Z</time>
        <sat>7</sat>
      </trkpt>
      <trkpt lat="42.322027" lon="-4.007025">
        <ele>918.0</ele>
        <time>2020-08-22T06:45:08Z</time>
        <sat>7</sat>
      </trkpt>
      <trkpt lat="42.321984" lon="-4.007127">
        <ele>918.0</ele>
        <time>2020-08-22T06:45:18Z</time>
        <sat>8</sat>
      </trkpt>
      <trkpt lat="42.321954" lon="-4.007246">
        <ele>918.1</ele>
        <time>2020-08-22T06:45:28Z</time>
        <sat>8</sat>
      </trkpt>
      <trkpt lat="42.321985" lon="-4.007144">
        <ele>918.0</ele>
        <time>2020-08-22T06:45:36Z</time>
        <sat>8</sat>
      </trkpt>
      <trkpt lat="42.321966" lon="-4.007261">
        <ele>917.9</ele>
        <time>2020-08-22T06:46:27Z</time>
        <sat>8</sat>
      </trkpt>
      <trkpt lat="42.321940" lon="-4.007373">
        <ele>917.7</ele>
        <time>2020-08-22T06:46:35Z</time>
        <sat>8</sat>
      </trkpt>
      <trkpt lat="42.321912" lon="-4.007479">
        <ele>917.6</ele>
        <time>2020-08-22T06:46:42Z</time>
        <sat>8</sat>
      </trkpt>
      <trkpt lat="42.321882" lon="-4.007591">
        <ele>917.5</ele>
        <time>2020-08-22T06:46:49Z</time>
        <sat>7</sat>
      </trkpt>
      <trkpt lat="42.321857" lon="-4.007710">
        <ele>917.5</ele>
        <time>2020-08-22T06:46:56Z</time>
        <sat>8</sat>
      </trkpt>
      <trkpt lat="42.321826" lon="-4.007822">
        <ele>917.5</ele>
        <time>2020-08-22T06:47:03Z</time>
        <sat>7</sat>
      </trkpt>
      <trkpt lat="42.321797" lon="-4.007931">
        <ele>917.4</ele>
        <time>2020-08-22T06:47:10Z</time>
        <sat>7</sat>
      </trkpt>
      <trkpt lat="42.321775" lon="-4.008046">
        <ele>917.3</ele>
        <time>2020-08-22T06:47:17Z</time>
        <sat>7</sat>
      </trkpt>
      <trkpt lat="42.321744" lon="-4.008159">
        <ele>917.2</ele>
        <time>2020-08-22T06:47:24Z</time>
        <sat>8</sat>
      </trkpt>
      <trkpt lat="42.321709" lon="-4.008269">
        <ele>917.2</ele>
        <time>2020-08-22T06:47:31Z</time>
        <sat>8</sat>
      </trkpt>
      <trkpt lat="42.321685" lon="-4.008375">
        <ele>917.2</ele>
        <time>2020-08-22T06:47:37Z</time>
        <sat>7</sat>
      </trkpt>
      <trkpt lat="42.321655" lon="-4.008495">
        <ele>917.2</ele>
        <time>2020-08-22T06:47:44Z</time>
        <sat>8</sat>
      </trkpt>
      <trkpt lat="42.321619" lon="-4.008599">
        <ele>917.3</ele>
        <time>2020-08-22T06:47:51Z</time>
        <sat>7</sat>
      </trkpt>
      <trkpt lat="42.321586" lon="-4.008707">
        <ele>917.3</ele>
        <time>2020-08-22T06:47:58Z</time>
        <sat>9</sat>
      </trkpt>
      <trkpt lat="42.321555" lon="-4.008823">
        <ele>917.2</ele>
        <time>2020-08-22T06:48:05Z</time>
        <sat>8</sat>
      </trkpt>
      <trkpt lat="42.321514" lon="-4.008934">
        <ele>917.2</ele>
        <time>2020-08-22T06:48:12Z</time>
        <sat>9</sat>
      </trkpt>
      <trkpt lat="42.321477" lon="-4.009047">
        <ele>917.3</ele>
        <time>2020-08-22T06:48:19Z</time>
        <sat>9</sat>
      </trkpt>
      <trkpt lat="42.321447" lon="-4.009161">
        <ele>917.3</ele>
        <time>2020-08-22T06:48:26Z</time>
        <sat>9</sat>
      </trkpt>
      <trkpt lat="42.321411" lon="-4.009274">
        <ele>917.4</ele>
        <time>2020-08-22T06:48:33Z</time>
        <sat>9</sat>
      </trkpt>
      <trkpt lat="42.321381" lon="-4.009381">
        <ele>917.3</ele>
        <time>2020-08-22T06:48:40Z</time>
        <sat>8</sat>
      </trkpt>
      <trkpt lat="42.321381" lon="-4.009403">
        <ele>917.2</ele>
        <time>2020-08-22T06:49:49Z</time>
        <sat>9</sat>
      </trkpt>
      <trkpt lat="42.321358" lon="-4.009517">
        <ele>917.2</ele>
        <time>2020-08-22T06:49:57Z</time>
        <sat>8</sat>
      </trkpt>
      <trkpt lat="42.321339" lon="-4.009626">
        <ele>917.3</ele>
        <time>2020-08-22T06:50:04Z</time>
        <sat>9</sat>
      </trkpt>
      <trkpt lat="42.321312" lon="-4.009745">
        <ele>917.4</ele>
        <time>2020-08-22T06:50:11Z</time>
        <sat>9</sat>
      </trkpt>
      <trkpt lat="42.321291" lon="-4.009865">
        <ele>917.4</ele>
        <time>2020-08-22T06:50:19Z</time>
        <sat>9</sat>
      </trkpt>
      <trkpt lat="42.321272" lon="-4.009978">
        <ele>917.3</ele>
        <time>2020-08-22T06:50:26Z</time>
        <sat>9</sat>
      </trkpt>
      <trkpt lat="42.321248" lon="-4.010092">
        <ele>917.2</ele>
        <time>2020-08-22T06:50:33Z</time>
        <sat>8</sat>
      </trkpt>
      <trkpt lat="42.321224" lon="-4.010209">
        <ele>917.2</ele>
        <time>2020-08-22T06:50:40Z</time>
        <sat>9</sat>
      </trkpt>
      <trkpt lat="42.321197" lon="-4.010325">
        <ele>917.2</ele>
        <time>2020-08-22T06:50:47Z</time>
        <sat>8</sat>
      </trkpt>
      <trkpt lat="42.321162" lon="-4.010441">
        <ele>917.2</ele>
        <time>2020-08-22T06:50:54Z</time>
        <sat>8</sat>
      </trkpt>
      <trkpt lat="42.321134" lon="-4.010559">
        <ele>917.2</ele>
        <time>2020-08-22T06:51:01Z</time>
        <sat>8</sat>
      </trkpt>
      <trkpt lat="42.321103" lon="-4.010679">
        <ele>917.2</ele>
        <time>2020-08-22T06:51:08Z</time>
        <sat>9</sat>
      </trkpt>
      <trkpt lat="42.321070" lon="-4.010792">
        <ele>917.2</ele>
        <time>2020-08-22T06:51:15Z</time>
        <sat>8</sat>
      </trkpt>
      <trkpt lat="42.321059" lon="-4.010902">
        <ele>917.1</ele>
        <time>2020-08-22T06:51:21Z</time>
        <sat>9</sat>
      </trkpt>
      <trkpt lat="42.321031" lon="-4.011017">
        <ele>917.1</ele>
        <time>2020-08-22T06:51:28Z</time>
        <sat>9</sat>
      </trkpt>
      <trkpt lat="42.321007" lon="-4.011134">
        <ele>917.1</ele>
        <time>2020-08-22T06:51:35Z</time>
        <sat>9</sat>
      </trkpt>
      <trkpt lat="42.320981" lon="-4.011247">
        <ele>917.2</ele>
        <time>2020-08-22T06:51:42Z</time>
        <sat>9</sat>
      </trkpt>
      <trkpt lat="42.320945" lon="-4.011356">
        <ele>917.2</ele>
        <time>2020-08-22T06:51:49Z</time>
        <sat>8</sat>
      </trkpt>
      <trkpt lat="42.320916" lon="-4.011467">
        <ele>917.3</ele>
        <time>2020-08-22T06:51:56Z</time>
        <sat>9</sat>
      </trkpt>
      <trkpt lat="42.320889" lon="-4.011586">
        <ele>917.3</ele>
        <time>2020-08-22T06:52:03Z</time>
        <sat>8</sat>
      </trkpt>
      <trkpt lat="42.320865" lon="-4.011701">
        <ele>917.4</ele>
        <time>2020-08-22T06:52:10Z</time>
        <sat>9</sat>
      </trkpt>
      <trkpt lat="42.320838" lon="-4.011815">
        <ele>917.4</ele>
        <time>2020-08-22T06:52:17Z</time>
        <sat>8</sat>
      </trkpt>
      <trkpt lat="42.320815" lon="-4.011931">
        <ele>917.4</ele>
        <time>2020-08-22T06:52:24Z</time>
        <sat>9</sat>
      </trkpt>
      <trkpt lat="42.320794" lon="-4.012046">
        <ele>917.2</ele>
        <time>2020-08-22T06:52:31Z</time>
        <sat>9</sat>
      </trkpt>
      <trkpt lat="42.320769" lon="-4.012155">
        <ele>917.2</ele>
        <time>2020-08-22T06:52:38Z</time>
        <sat>9</sat>
      </trkpt>
      <trkpt lat="42.320745" lon="-4.012263">
        <ele>917.3</ele>
        <time>2020-08-22T06:52:45Z</time>
        <sat>9</sat>
      </trkpt>
      <trkpt lat="42.320723" lon="-4.012372">
        <ele>917.4</ele>
        <time>2020-08-22T06:52:52Z</time>
        <sat>9</sat>
      </trkpt>
      <trkpt lat="42.320701" lon="-4.012483">
        <ele>917.5</ele>
        <time>2020-08-22T06:52:59Z</time>
        <sat>9</sat>
      </trkpt>
      <trkpt lat="42.320680" lon="-4.012602">
        <ele>917.5</ele>
        <time>2020-08-22T06:53:06Z</time>
        <sat>9</sat>
      </trkpt>
      <trkpt lat="42.320656" lon="-4.012723">
        <ele>917.6</ele>
        <time>2020-08-22T06:53:13Z</time>
        <sat>9</sat>
      </trkpt>
      <trkpt lat="42.320628" lon="-4.012840">
        <ele>917.6</ele>
        <time>2020-08-22T06:53:20Z</time>
        <sat>9</sat>
      </trkpt>
      <trkpt lat="42.320607" lon="-4.012958">
        <ele>917.5</ele>
        <time>2020-08-22T06:53:27Z</time>
        <sat>8</sat>
      </trkpt>
      <trkpt lat="42.320577" lon="-4.013078">
        <ele>917.6</ele>
        <time>2020-08-22T06:53:34Z</time>
        <sat>8</sat>
      </trkpt>
      <trkpt lat="42.320559" lon="-4.013186">
        <ele>917.6</ele>
        <time>2020-08-22T06:53:40Z</time>
        <sat>9</sat>
      </trkpt>
      <trkpt lat="42.320532" lon="-4.013308">
        <ele>917.5</ele>
        <time>2020-08-22T06:53:47Z</time>
        <sat>8</sat>
      </trkpt>
      <trkpt lat="42.320506" lon="-4.013421">
        <ele>917.6</ele>
        <time>2020-08-22T06:53:54Z</time>
        <sat>9</sat>
      </trkpt>
      <trkpt lat="42.320489" lon="-4.013528">
        <ele>917.6</ele>
        <time>2020-08-22T06:54:00Z</time>
        <sat>9</sat>
      </trkpt>
      <trkpt lat="42.320462" lon="-4.013648">
        <ele>917.7</ele>
        <time>2020-08-22T06:54:07Z</time>
        <sat>9</sat>
      </trkpt>
      <trkpt lat="42.320441" lon="-4.013767">
        <ele>917.8</ele>
        <time>2020-08-22T06:54:14Z</time>
        <sat>8</sat>
      </trkpt>
      <trkpt lat="42.320418" lon="-4.013889">
        <ele>917.8</ele>
        <time>2020-08-22T06:54:21Z</time>
        <sat>9</sat>
      </trkpt>
      <trkpt lat="42.320392" lon="-4.014008">
        <ele>917.8</ele>
        <time>2020-08-22T06:54:28Z</time>
        <sat>9</sat>
      </trkpt>
      <trkpt lat="42.320376" lon="-4.014128">
        <ele>917.8</ele>
        <time>2020-08-22T06:54:35Z</time>
        <sat>8</sat>
      </trkpt>
      <trkpt lat="42.320348" lon="-4.014243">
        <ele>917.9</ele>
        <time>2020-08-22T06:54:42Z</time>
        <sat>8</sat>
      </trkpt>
      <trkpt lat="42.320329" lon="-4.014364">
        <ele>917.7</ele>
        <time>2020-08-22T06:54:49Z</time>
        <sat>9</sat>
      </trkpt>
      <trkpt lat="42.320313" lon="-4.014486">
        <ele>917.7</ele>
        <time>2020-08-22T06:54:56Z</time>
        <sat>9</sat>
      </trkpt>
      <trkpt lat="42.320289" lon="-4.014601">
        <ele>917.7</ele>
        <time>2020-08-22T06:55:03Z</time>
        <sat>9</sat>
      </trkpt>
      <trkpt lat="42.320266" lon="-4.014712">
        <ele>917.7</ele>
        <time>2020-08-22T06:55:10Z</time>
        <sat>9</sat>
      </trkpt>
      <trkpt lat="42.320247" lon="-4.014835">
        <ele>917.9</ele>
        <time>2020-08-22T06:55:17Z</time>
        <sat>8</sat>
      </trkpt>
      <trkpt lat="42.320216" lon="-4.014949">
        <ele>917.8</ele>
        <time>2020-08-22T06:55:24Z</time>
        <sat>8</sat>
      </trkpt>
      <trkpt lat="42.320195" lon="-4.015070">
        <ele>917.8</ele>
        <time>2020-08-22T06:55:31Z</time>
        <sat>8</sat>
      </trkpt>
      <trkpt lat="42.320160" lon="-4.015189">
        <ele>917.8</ele>
        <time>2020-08-22T06:55:38Z</time>
        <sat>9</sat>
      </trkpt>
      <trkpt lat="42.320137" lon="-4.015296">
        <ele>917.8</ele>
        <time>2020-08-22T06:55:44Z</time>
        <sat>9</sat>
      </trkpt>
      <trkpt lat="42.320106" lon="-4.015399">
        <ele>917.7</ele>
        <time>2020-08-22T06:55:50Z</time>
        <sat>9</sat>
      </trkpt>
      <trkpt lat="42.320081" lon="-4.015517">
        <ele>917.7</ele>
        <time>2020-08-22T06:55:57Z</time>
        <sat>8</sat>
      </trkpt>
      <trkpt lat="42.320050" lon="-4.015627">
        <ele>917.6</ele>
        <time>2020-08-22T06:56:04Z</time>
        <sat>9</sat>
      </trkpt>
      <trkpt lat="42.320022" lon="-4.015747">
        <ele>917.6</ele>
        <time>2020-08-22T06:56:11Z</time>
        <sat>8</sat>
      </trkpt>
      <trkpt lat="42.319987" lon="-4.015864">
        <ele>917.6</ele>
        <time>2020-08-22T06:56:18Z</time>
        <sat>9</sat>
      </trkpt>
      <trkpt lat="42.319952" lon="-4.015970">
        <ele>917.5</ele>
        <time>2020-08-22T06:56:25Z</time>
        <sat>9</sat>
      </trkpt>
      <trkpt lat="42.319923" lon="-4.016073">
        <ele>917.7</ele>
        <time>2020-08-22T06:56:31Z</time>
        <sat>9</sat>
      </trkpt>
      <trkpt lat="42.319888" lon="-4.016188">
        <ele>917.8</ele>
        <time>2020-08-22T06:56:38Z</time>
        <sat>9</sat>
      </trkpt>
      <trkpt lat="42.319857" lon="-4.016309">
        <ele>917.7</ele>
        <time>2020-08-22T06:56:45Z</time>
        <sat>9</sat>
      </trkpt>
      <trkpt lat="42.319823" lon="-4.016424">
        <ele>917.7</ele>
        <time>2020-08-22T06:56:52Z</time>
        <sat>9</sat>
      </trkpt>
      <trkpt lat="42.319797" lon="-4.016530">
        <ele>917.7</ele>
        <time>2020-08-22T06:56:58Z</time>
        <sat>10</sat>
      </trkpt>
      <trkpt lat="42.319762" lon="-4.016644">
        <ele>917.8</ele>
        <time>2020-08-22T06:57:05Z</time>
        <sat>10</sat>
      </trkpt>
      <trkpt lat="42.319729" lon="-4.016747">
        <ele>917.8</ele>
        <time>2020-08-22T06:57:11Z</time>
        <sat>10</sat>
      </trkpt>
      <trkpt lat="42.319696" lon="-4.016860">
        <ele>917.9</ele>
        <time>2020-08-22T06:57:18Z</time>
        <sat>10</sat>
      </trkpt>
      <trkpt lat="42.319657" lon="-4.016974">
        <ele>918.0</ele>
        <time>2020-08-22T06:57:25Z</time>
        <sat>10</sat>
      </trkpt>
      <trkpt lat="42.319616" lon="-4.017079">
        <ele>918.0</ele>
        <time>2020-08-22T06:57:32Z</time>
        <sat>10</sat>
      </trkpt>
      <trkpt lat="42.319573" lon="-4.017183">
        <ele>918.0</ele>
        <time>2020-08-22T06:57:39Z</time>
        <sat>10</sat>
      </trkpt>
      <trkpt lat="42.319528" lon="-4.017288">
        <ele>918.1</ele>
        <time>2020-08-22T06:57:46Z</time>
        <sat>10</sat>
      </trkpt>
      <trkpt lat="42.319483" lon="-4.017392">
        <ele>918.1</ele>
        <time>2020-08-22T06:57:53Z</time>
        <sat>10</sat>
      </trkpt>
      <trkpt lat="42.319436" lon="-4.017498">
        <ele>918.1</ele>
        <time>2020-08-22T06:58:00Z</time>
        <sat>10</sat>
      </trkpt>
      <trkpt lat="42.319397" lon="-4.017600">
        <ele>918.2</ele>
        <time>2020-08-22T06:58:07Z</time>
        <sat>10</sat>
      </trkpt>
      <trkpt lat="42.319357" lon="-4.017713">
        <ele>918.3</ele>
        <time>2020-08-22T06:58:14Z</time>
        <sat>10</sat>
      </trkpt>
      <trkpt lat="42.319315" lon="-4.017824">
        <ele>918.5</ele>
        <time>2020-08-22T06:58:21Z</time>
        <sat>10</sat>
      </trkpt>
      <trkpt lat="42.319271" lon="-4.017921">
        <ele>918.7</ele>
        <time>2020-08-22T06:58:28Z</time>
        <sat>10</sat>
      </trkpt>
      <trkpt lat="42.319232" lon="-4.018031">
        <ele>918.9</ele>
        <time>2020-08-22T06:58:35Z</time>
        <sat>10</sat>
      </trkpt>
      <trkpt lat="42.319194" lon="-4.018143">
        <ele>919.0</ele>
        <time>2020-08-22T06:58:42Z</time>
        <sat>10</sat>
      </trkpt>
      <trkpt lat="42.319152" lon="-4.018250">
        <ele>919.2</ele>
        <time>2020-08-22T06:58:49Z</time>
        <sat>10</sat>
      </trkpt>
      <trkpt lat="42.319118" lon="-4.018363">
        <ele>919.2</ele>
        <time>2020-08-22T06:58:56Z</time>
        <sat>10</sat>
      </trkpt>
      <trkpt lat="42.319085" lon="-4.018469">
        <ele>919.2</ele>
        <time>2020-08-22T06:59:03Z</time>
        <sat>10</sat>
      </trkpt>
      <trkpt lat="42.319044" lon="-4.018575">
        <ele>919.2</ele>
        <time>2020-08-22T06:59:10Z</time>
        <sat>10</sat>
      </trkpt>
      <trkpt lat="42.319003" lon="-4.018692">
        <ele>919.0</ele>
        <time>2020-08-22T06:59:17Z</time>
        <sat>10</sat>
      </trkpt>
      <trkpt lat="42.318961" lon="-4.018802">
        <ele>918.9</ele>
        <time>2020-08-22T06:59:24Z</time>
        <sat>10</sat>
      </trkpt>
      <trkpt lat="42.318921" lon="-4.018901">
        <ele>918.8</ele>
        <time>2020-08-22T06:59:30Z</time>
        <sat>10</sat>
      </trkpt>
      <trkpt lat="42.318880" lon="-4.019008">
        <ele>918.7</ele>
        <time>2020-08-22T06:59:37Z</time>
        <sat>10</sat>
      </trkpt>
      <trkpt lat="42.318845" lon="-4.019121">
        <ele>918.7</ele>
        <time>2020-08-22T06:59:44Z</time>
        <sat>10</sat>
      </trkpt>
      <trkpt lat="42.318800" lon="-4.019223">
        <ele>918.7</ele>
        <time>2020-08-22T06:59:51Z</time>
        <sat>10</sat>
      </trkpt>
      <trkpt lat="42.318765" lon="-4.019337">
        <ele>918.7</ele>
        <time>2020-08-22T06:59:58Z</time>
        <sat>10</sat>
      </trkpt>
      <trkpt lat="42.318722" lon="-4.019447">
        <ele>918.7</ele>
        <time>2020-08-22T07:00:05Z</time>
        <sat>10</sat>
      </trkpt>
      <trkpt lat="42.318679" lon="-4.019556">
        <ele>918.7</ele>
        <time>2020-08-22T07:00:12Z</time>
        <sat>10</sat>
      </trkpt>
      <trkpt lat="42.318639" lon="-4.019669">
        <ele>918.6</ele>
        <time>2020-08-22T07:00:19Z</time>
        <sat>10</sat>
      </trkpt>
      <trkpt lat="42.318598" lon="-4.019766">
        <ele>918.6</ele>
        <time>2020-08-22T07:00:25Z</time>
        <sat>10</sat>
      </trkpt>
      <trkpt lat="42.318564" lon="-4.019871">
        <ele>918.6</ele>
        <time>2020-08-22T07:00:31Z</time>
        <sat>10</sat>
      </trkpt>
      <trkpt lat="42.318525" lon="-4.019969">
        <ele>918.7</ele>
        <time>2020-08-22T07:00:37Z</time>
        <sat>10</sat>
      </trkpt>
      <trkpt lat="42.318491" lon="-4.020070">
        <ele>918.7</ele>
        <time>2020-08-22T07:00:43Z</time>
        <sat>10</sat>
      </trkpt>
      <trkpt lat="42.318451" lon="-4.020180">
        <ele>918.8</ele>
        <time>2020-08-22T07:00:50Z</time>
        <sat>10</sat>
      </trkpt>
      <trkpt lat="42.318415" lon="-4.020293">
        <ele>918.8</ele>
        <time>2020-08-22T07:00:57Z</time>
        <sat>10</sat>
      </trkpt>
      <trkpt lat="42.318375" lon="-4.020407">
        <ele>918.9</ele>
        <time>2020-08-22T07:01:04Z</time>
        <sat>10</sat>
      </trkpt>
      <trkpt lat="42.318335" lon="-4.020520">
        <ele>919.0</ele>
        <time>2020-08-22T07:01:11Z</time>
        <sat>9</sat>
      </trkpt>
      <trkpt lat="42.318300" lon="-4.020619">
        <ele>919.0</ele>
        <time>2020-08-22T07:01:17Z</time>
        <sat>10</sat>
      </trkpt>
      <trkpt lat="42.318259" lon="-4.020727">
        <ele>918.9</ele>
        <time>2020-08-22T07:01:24Z</time>
        <sat>10</sat>
      </trkpt>
      <trkpt lat="42.318215" lon="-4.020842">
        <ele>918.9</ele>
        <time>2020-08-22T07:01:31Z</time>
        <sat>10</sat>
      </trkpt>
      <trkpt lat="42.318177" lon="-4.020953">
        <ele>918.9</ele>
        <time>2020-08-22T07:01:38Z</time>
        <sat>10</sat>
      </trkpt>
      <trkpt lat="42.318139" lon="-4.021053">
        <ele>918.9</ele>
        <time>2020-08-22T07:01:44Z</time>
        <sat>10</sat>
      </trkpt>
      <trkpt lat="42.318094" lon="-4.021161">
        <ele>918.9</ele>
        <time>2020-08-22T07:01:51Z</time>
        <sat>10</sat>
      </trkpt>
      <trkpt lat="42.318057" lon="-4.021261">
        <ele>918.8</ele>
        <time>2020-08-22T07:01:57Z</time>
        <sat>10</sat>
      </trkpt>
      <trkpt lat="42.318006" lon="-4.021373">
        <ele>917.8</ele>
        <time>2020-08-22T07:02:04Z</time>
        <sat>10</sat>
      </trkpt>
      <trkpt lat="42.317963" lon="-4.021482">
        <ele>917.9</ele>
        <time>2020-08-22T07:02:11Z</time>
        <sat>10</sat>
      </trkpt>
      <trkpt lat="42.317916" lon="-4.021582">
        <ele>917.9</ele>
        <time>2020-08-22T07:02:18Z</time>
        <sat>10</sat>
      </trkpt>
      <trkpt lat="42.317874" lon="-4.021680">
        <ele>916.8</ele>
        <time>2020-08-22T07:02:25Z</time>
        <sat>10</sat>
      </trkpt>
      <trkpt lat="42.317839" lon="-4.021788">
        <ele>916.5</ele>
        <time>2020-08-22T07:02:32Z</time>
        <sat>10</sat>
      </trkpt>
      <trkpt lat="42.317794" lon="-4.021888">
        <ele>917.3</ele>
        <time>2020-08-22T07:02:39Z</time>
        <sat>10</sat>
      </trkpt>
      <trkpt lat="42.317750" lon="-4.021982">
        <ele>917.6</ele>
        <time>2020-08-22T07:02:46Z</time>
        <sat>10</sat>
      </trkpt>
      <trkpt lat="42.317708" lon="-4.022088">
        <ele>917.3</ele>
        <time>2020-08-22T07:02:53Z</time>
        <sat>10</sat>
      </trkpt>
      <trkpt lat="42.317668" lon="-4.022195">
        <ele>917.5</ele>
        <time>2020-08-22T07:03:00Z</time>
        <sat>10</sat>
      </trkpt>
      <trkpt lat="42.317626" lon="-4.022302">
        <ele>918.0</ele>
        <time>2020-08-22T07:03:07Z</time>
        <sat>10</sat>
      </trkpt>
      <trkpt lat="42.317583" lon="-4.022409">
        <ele>917.5</ele>
        <time>2020-08-22T07:03:14Z</time>
        <sat>10</sat>
      </trkpt>
      <trkpt lat="42.317539" lon="-4.022517">
        <ele>915.9</ele>
        <time>2020-08-22T07:03:21Z</time>
        <sat>10</sat>
      </trkpt>
      <trkpt lat="42.317492" lon="-4.022625">
        <ele>916.9</ele>
        <time>2020-08-22T07:03:28Z</time>
        <sat>10</sat>
      </trkpt>
      <trkpt lat="42.317464" lon="-4.022744">
        <ele>918.3</ele>
        <time>2020-08-22T07:03:35Z</time>
        <sat>9</sat>
      </trkpt>
      <trkpt lat="42.317416" lon="-4.022839">
        <ele>917.5</ele>
        <time>2020-08-22T07:03:42Z</time>
        <sat>10</sat>
      </trkpt>
      <trkpt lat="42.317374" lon="-4.022943">
        <ele>917.7</ele>
        <time>2020-08-22T07:03:49Z</time>
        <sat>10</sat>
      </trkpt>
      <trkpt lat="42.317334" lon="-4.023039">
        <ele>918.0</ele>
        <time>2020-08-22T07:03:55Z</time>
        <sat>10</sat>
      </trkpt>
      <trkpt lat="42.317291" lon="-4.023150">
        <ele>918.3</ele>
        <time>2020-08-22T07:04:02Z</time>
        <sat>10</sat>
      </trkpt>
      <trkpt lat="42.317247" lon="-4.023245">
        <ele>918.4</ele>
        <time>2020-08-22T07:04:08Z</time>
        <sat>10</sat>
      </trkpt>
      <trkpt lat="42.317201" lon="-4.023349">
        <ele>918.4</ele>
        <time>2020-08-22T07:04:15Z</time>
        <sat>10</sat>
      </trkpt>
      <trkpt lat="42.317156" lon="-4.023444">
        <ele>918.4</ele>
        <time>2020-08-22T07:04:21Z</time>
        <sat>10</sat>
      </trkpt>
      <trkpt lat="42.317116" lon="-4.023542">
        <ele>918.4</ele>
        <time>2020-08-22T07:04:27Z</time>
        <sat>10</sat>
      </trkpt>
      <trkpt lat="42.317067" lon="-4.023650">
        <ele>918.4</ele>
        <time>2020-08-22T07:04:34Z</time>
        <sat>10</sat>
      </trkpt>
      <trkpt lat="42.317023" lon="-4.023743">
        <ele>918.4</ele>
        <time>2020-08-22T07:04:40Z</time>
        <sat>10</sat>
      </trkpt>
      <trkpt lat="42.316985" lon="-4.023841">
        <ele>918.4</ele>
        <time>2020-08-22T07:04:46Z</time>
        <sat>10</sat>
      </trkpt>
      <trkpt lat="42.316937" lon="-4.023945">
        <ele>918.5</ele>
        <time>2020-08-22T07:04:53Z</time>
        <sat>10</sat>
      </trkpt>
      <trkpt lat="42.316892" lon="-4.024052">
        <ele>918.6</ele>
        <time>2020-08-22T07:05:00Z</time>
        <sat>10</sat>
      </trkpt>
      <trkpt lat="42.316845" lon="-4.024155">
        <ele>918.7</ele>
        <time>2020-08-22T07:05:07Z</time>
        <sat>10</sat>
      </trkpt>
      <trkpt lat="42.316806" lon="-4.024253">
        <ele>918.7</ele>
        <time>2020-08-22T07:05:14Z</time>
        <sat>9</sat>
      </trkpt>
      <trkpt lat="42.316772" lon="-4.024356">
        <ele>918.7</ele>
        <time>2020-08-22T07:05:21Z</time>
        <sat>10</sat>
      </trkpt>
      <trkpt lat="42.316724" lon="-4.024453">
        <ele>918.1</ele>
        <time>2020-08-22T07:05:27Z</time>
        <sat>10</sat>
      </trkpt>
      <trkpt lat="42.316686" lon="-4.024566">
        <ele>917.4</ele>
        <time>2020-08-22T07:05:34Z</time>
        <sat>10</sat>
      </trkpt>
      <trkpt lat="42.316647" lon="-4.024664">
        <ele>916.9</ele>
        <time>2020-08-22T07:05:40Z</time>
        <sat>9</sat>
      </trkpt>
      <trkpt lat="42.316605" lon="-4.024766">
        <ele>916.3</ele>
        <time>2020-08-22T07:05:47Z</time>
        <sat>9</sat>
      </trkpt>
      <trkpt lat="42.316558" lon="-4.024868">
        <ele>916.0</ele>
        <time>2020-08-22T07:05:54Z</time>
        <sat>10</sat>
      </trkpt>
      <trkpt lat="42.316508" lon="-4.024969">
        <ele>915.7</ele>
        <time>2020-08-22T07:06:01Z</time>
        <sat>10</sat>
      </trkpt>
      <trkpt lat="42.316461" lon="-4.025067">
        <ele>916.3</ele>
        <time>2020-08-22T07:06:07Z</time>
        <sat>10</sat>
      </trkpt>
      <trkpt lat="42.316412" lon="-4.025156">
        <ele>916.5</ele>
        <time>2020-08-22T07:06:13Z</time>
        <sat>10</sat>
      </trkpt>
      <trkpt lat="42.316371" lon="-4.025251">
        <ele>916.7</ele>
        <time>2020-08-22T07:06:19Z</time>
        <sat>10</sat>
      </trkpt>
      <trkpt lat="42.316324" lon="-4.025357">
        <ele>916.7</ele>
        <time>2020-08-22T07:06:26Z</time>
        <sat>10</sat>
      </trkpt>
      <trkpt lat="42.316284" lon="-4.025454">
        <ele>916.7</ele>
        <time>2020-08-22T07:06:32Z</time>
        <sat>10</sat>
      </trkpt>
      <trkpt lat="42.316245" lon="-4.025551">
        <ele>916.7</ele>
        <time>2020-08-22T07:06:38Z</time>
        <sat>10</sat>
      </trkpt>
      <trkpt lat="42.316199" lon="-4.025662">
        <ele>916.8</ele>
        <time>2020-08-22T07:06:45Z</time>
        <sat>10</sat>
      </trkpt>
      <trkpt lat="42.316154" lon="-4.025770">
        <ele>916.7</ele>
        <time>2020-08-22T07:06:52Z</time>
        <sat>10</sat>
      </trkpt>
      <trkpt lat="42.316110" lon="-4.025883">
        <ele>916.5</ele>
        <time>2020-08-22T07:06:59Z</time>
        <sat>10</sat>
      </trkpt>
      <trkpt lat="42.316058" lon="-4.025987">
        <ele>916.2</ele>
        <time>2020-08-22T07:07:06Z</time>
        <sat>10</sat>
      </trkpt>
      <trkpt lat="42.316015" lon="-4.026083">
        <ele>916.0</ele>
        <time>2020-08-22T07:07:12Z</time>
        <sat>10</sat>
      </trkpt>
      <trkpt lat="42.315960" lon="-4.026184">
        <ele>915.9</ele>
        <time>2020-08-22T07:07:19Z</time>
        <sat>10</sat>
      </trkpt>
      <trkpt lat="42.315913" lon="-4.026278">
        <ele>915.7</ele>
        <time>2020-08-22T07:07:25Z</time>
        <sat>9</sat>
      </trkpt>
      <trkpt lat="42.315857" lon="-4.026377">
        <ele>915.6</ele>
        <time>2020-08-22T07:07:32Z</time>
        <sat>10</sat>
      </trkpt>
      <trkpt lat="42.315805" lon="-4.026478">
        <ele>915.3</ele>
        <time>2020-08-22T07:07:39Z</time>
        <sat>10</sat>
      </trkpt>
      <trkpt lat="42.315758" lon="-4.026569">
        <ele>914.9</ele>
        <time>2020-08-22T07:07:45Z</time>
        <sat>9</sat>
      </trkpt>
      <trkpt lat="42.315720" lon="-4.026666">
        <ele>914.7</ele>
        <time>2020-08-22T07:07:51Z</time>
        <sat>9</sat>
      </trkpt>
      <trkpt lat="42.315677" lon="-4.026758">
        <ele>914.5</ele>
        <time>2020-08-22T07:07:57Z</time>
        <sat>10</sat>
      </trkpt>
      <trkpt lat="42.315634" lon="-4.026869">
        <ele>914.3</ele>
        <time>2020-08-22T07:08:04Z</time>
        <sat>10</sat>
      </trkpt>
      <trkpt lat="42.315584" lon="-4.026973">
        <ele>914.1</ele>
        <time>2020-08-22T07:08:11Z</time>
        <sat>10</sat>
      </trkpt>
      <trkpt lat="42.315541" lon="-4.027078">
        <ele>913.9</ele>
        <time>2020-08-22T07:08:18Z</time>
        <sat>10</sat>
      </trkpt>
      <trkpt lat="42.315493" lon="-4.027182">
        <ele>913.8</ele>
        <time>2020-08-22T07:08:28Z</time>
        <sat>10</sat>
      </trkpt>
      <trkpt lat="42.315451" lon="-4.027290">
        <ele>913.7</ele>
        <time>2020-08-22T07:08:35Z</time>
        <sat>10</sat>
      </trkpt>
      <trkpt lat="42.315406" lon="-4.027397">
        <ele>913.0</ele>
        <time>2020-08-22T07:08:42Z</time>
        <sat>10</sat>
      </trkpt>
      <trkpt lat="42.315364" lon="-4.027500">
        <ele>913.6</ele>
        <time>2020-08-22T07:08:49Z</time>
        <sat>10</sat>
      </trkpt>
      <trkpt lat="42.315328" lon="-4.027607">
        <ele>913.5</ele>
        <time>2020-08-22T07:08:56Z</time>
        <sat>10</sat>
      </trkpt>
      <trkpt lat="42.315289" lon="-4.027713">
        <ele>913.3</ele>
        <time>2020-08-22T07:09:03Z</time>
        <sat>10</sat>
      </trkpt>
      <trkpt lat="42.315248" lon="-4.027819">
        <ele>913.1</ele>
        <time>2020-08-22T07:09:10Z</time>
        <sat>10</sat>
      </trkpt>
      <trkpt lat="42.315209" lon="-4.027927">
        <ele>912.8</ele>
        <time>2020-08-22T07:09:17Z</time>
        <sat>10</sat>
      </trkpt>
      <trkpt lat="42.315166" lon="-4.028039">
        <ele>912.7</ele>
        <time>2020-08-22T07:09:24Z</time>
        <sat>10</sat>
      </trkpt>
      <trkpt lat="42.315127" lon="-4.028150">
        <ele>912.7</ele>
        <time>2020-08-22T07:09:31Z</time>
        <sat>10</sat>
      </trkpt>
      <trkpt lat="42.315097" lon="-4.028252">
        <ele>912.6</ele>
        <time>2020-08-22T07:09:37Z</time>
        <sat>10</sat>
      </trkpt>
      <trkpt lat="42.315057" lon="-4.028363">
        <ele>912.6</ele>
        <time>2020-08-22T07:09:44Z</time>
        <sat>10</sat>
      </trkpt>
      <trkpt lat="42.315024" lon="-4.028476">
        <ele>912.5</ele>
        <time>2020-08-22T07:09:51Z</time>
        <sat>10</sat>
      </trkpt>
      <trkpt lat="42.314986" lon="-4.028575">
        <ele>912.5</ele>
        <time>2020-08-22T07:09:57Z</time>
        <sat>10</sat>
      </trkpt>
      <trkpt lat="42.314951" lon="-4.028685">
        <ele>912.0</ele>
        <time>2020-08-22T07:10:03Z</time>
        <sat>10</sat>
      </trkpt>
      <trkpt lat="42.314902" lon="-4.028792">
        <ele>911.8</ele>
        <time>2020-08-22T07:10:10Z</time>
        <sat>10</sat>
      </trkpt>
      <trkpt lat="42.314862" lon="-4.028898">
        <ele>911.5</ele>
        <time>2020-08-22T07:10:17Z</time>
        <sat>10</sat>
      </trkpt>
      <trkpt lat="42.314821" lon="-4.029000">
        <ele>910.9</ele>
        <time>2020-08-22T07:10:24Z</time>
        <sat>10</sat>
      </trkpt>
      <trkpt lat="42.314783" lon="-4.029112">
        <ele>910.9</ele>
        <time>2020-08-22T07:10:31Z</time>
        <sat>10</sat>
      </trkpt>
      <trkpt lat="42.314742" lon="-4.029218">
        <ele>910.9</ele>
        <time>2020-08-22T07:10:38Z</time>
        <sat>10</sat>
      </trkpt>
      <trkpt lat="42.314696" lon="-4.029324">
        <ele>911.0</ele>
        <time>2020-08-22T07:10:45Z</time>
        <sat>10</sat>
      </trkpt>
      <trkpt lat="42.314655" lon="-4.029425">
        <ele>911.1</ele>
        <time>2020-08-22T07:10:52Z</time>
        <sat>10</sat>
      </trkpt>
      <trkpt lat="42.314586" lon="-4.029502">
        <ele>910.9</ele>
        <time>2020-08-22T07:10:59Z</time>
        <sat>10</sat>
      </trkpt>
      <trkpt lat="42.314512" lon="-4.029566">
        <ele>910.8</ele>
        <time>2020-08-22T07:11:06Z</time>
        <sat>10</sat>
      </trkpt>
      <trkpt lat="42.314444" lon="-4.029643">
        <ele>910.8</ele>
        <time>2020-08-22T07:11:13Z</time>
        <sat>10</sat>
      </trkpt>
      <trkpt lat="42.314367" lon="-4.029713">
        <ele>910.2</ele>
        <time>2020-08-22T07:11:20Z</time>
        <sat>10</sat>
      </trkpt>
      <trkpt lat="42.314290" lon="-4.029782">
        <ele>910.5</ele>
        <time>2020-08-22T07:11:27Z</time>
        <sat>10</sat>
      </trkpt>
      <trkpt lat="42.314224" lon="-4.029868">
        <ele>910.7</ele>
        <time>2020-08-22T07:11:34Z</time>
        <sat>10</sat>
      </trkpt>
      <trkpt lat="42.314177" lon="-4.029957">
        <ele>910.7</ele>
        <time>2020-08-22T07:11:40Z</time>
        <sat>10</sat>
      </trkpt>
      <trkpt lat="42.314158" lon="-4.030074">
        <ele>910.6</ele>
        <time>2020-08-22T07:11:47Z</time>
        <sat>10</sat>
      </trkpt>
      <trkpt lat="42.314144" lon="-4.030194">
        <ele>910.4</ele>
        <time>2020-08-22T07:11:54Z</time>
        <sat>10</sat>
      </trkpt>
      <trkpt lat="42.314145" lon="-4.030322">
        <ele>910.5</ele>
        <time>2020-08-22T07:12:01Z</time>
        <sat>10</sat>
      </trkpt>
      <trkpt lat="42.314158" lon="-4.030434">
        <ele>910.8</ele>
        <time>2020-08-22T07:12:08Z</time>
        <sat>10</sat>
      </trkpt>
      <trkpt lat="42.314162" lon="-4.030553">
        <ele>911.5</ele>
        <time>2020-08-22T07:12:15Z</time>
        <sat>10</sat>
      </trkpt>
      <trkpt lat="42.314163" lon="-4.030677">
        <ele>912.0</ele>
        <time>2020-08-22T07:12:22Z</time>
        <sat>10</sat>
      </trkpt>
      <trkpt lat="42.314145" lon="-4.030796">
        <ele>912.2</ele>
        <time>2020-08-22T07:12:29Z</time>
        <sat>10</sat>
      </trkpt>
      <trkpt lat="42.314128" lon="-4.030910">
        <ele>912.3</ele>
        <time>2020-08-22T07:12:36Z</time>
        <sat>10</sat>
      </trkpt>
      <trkpt lat="42.314102" lon="-4.031027">
        <ele>912.3</ele>
        <time>2020-08-22T07:12:43Z</time>
        <sat>10</sat>
      </trkpt>
      <trkpt lat="42.314074" lon="-4.031136">
        <ele>912.4</ele>
        <time>2020-08-22T07:12:50Z</time>
        <sat>10</sat>
      </trkpt>
      <trkpt lat="42.314049" lon="-4.031248">
        <ele>912.4</ele>
        <time>2020-08-22T07:12:57Z</time>
        <sat>10</sat>
      </trkpt>
      <trkpt lat="42.314021" lon="-4.031362">
        <ele>912.5</ele>
        <time>2020-08-22T07:13:04Z</time>
        <sat>10</sat>
      </trkpt>
      <trkpt lat="42.313990" lon="-4.031475">
        <ele>912.5</ele>
        <time>2020-08-22T07:13:16Z</time>
        <sat>10</sat>
      </trkpt>
      <trkpt lat="42.313961" lon="-4.031588">
        <ele>912.2</ele>
        <time>2020-08-22T07:13:26Z</time>
        <sat>10</sat>
      </trkpt>
      <trkpt lat="42.313934" lon="-4.031697">
        <ele>912.1</ele>
        <time>2020-08-22T07:13:35Z</time>
        <sat>9</sat>
      </trkpt>
      <trkpt lat="42.313908" lon="-4.031809">
        <ele>912.0</ele>
        <time>2020-08-22T07:13:43Z</time>
        <sat>10</sat>
      </trkpt>
      <trkpt lat="42.313879" lon="-4.031920">
        <ele>911.9</ele>
        <time>2020-08-22T07:13:51Z</time>
        <sat>10</sat>
      </trkpt>
      <trkpt lat="42.313852" lon="-4.032035">
        <ele>911.8</ele>
        <time>2020-08-22T07:13:59Z</time>
        <sat>10</sat>
      </trkpt>
      <trkpt lat="42.313831" lon="-4.032141">
        <ele>911.7</ele>
        <time>2020-08-22T07:14:07Z</time>
        <sat>10</sat>
      </trkpt>
      <trkpt lat="42.313808" lon="-4.032246">
        <ele>911.7</ele>
        <time>2020-08-22T07:14:14Z</time>
        <sat>10</sat>
      </trkpt>
      <trkpt lat="42.313784" lon="-4.032365">
        <ele>911.6</ele>
        <time>2020-08-22T07:14:22Z</time>
        <sat>10</sat>
      </trkpt>
      <trkpt lat="42.313766" lon="-4.032480">
        <ele>911.6</ele>
        <time>2020-08-22T07:14:29Z</time>
        <sat>10</sat>
      </trkpt>
      <trkpt lat="42.313745" lon="-4.032602">
        <ele>911.6</ele>
        <time>2020-08-22T07:14:36Z</time>
        <sat>10</sat>
      </trkpt>
      <trkpt lat="42.313727" lon="-4.032721">
        <ele>911.6</ele>
        <time>2020-08-22T07:14:43Z</time>
        <sat>10</sat>
      </trkpt>
      <trkpt lat="42.313718" lon="-4.032845">
        <ele>911.6</ele>
        <time>2020-08-22T07:14:50Z</time>
        <sat>10</sat>
      </trkpt>
      <trkpt lat="42.313711" lon="-4.032970">
        <ele>911.4</ele>
        <time>2020-08-22T07:14:57Z</time>
        <sat>10</sat>
      </trkpt>
      <trkpt lat="42.313710" lon="-4.033084">
        <ele>911.3</ele>
        <time>2020-08-22T07:15:04Z</time>
        <sat>10</sat>
      </trkpt>
      <trkpt lat="42.313707" lon="-4.033207">
        <ele>911.3</ele>
        <time>2020-08-22T07:15:11Z</time>
        <sat>10</sat>
      </trkpt>
      <trkpt lat="42.313695" lon="-4.033333">
        <ele>911.2</ele>
        <time>2020-08-22T07:15:18Z</time>
        <sat>10</sat>
      </trkpt>
      <trkpt lat="42.313679" lon="-4.033456">
        <ele>911.0</ele>
        <time>2020-08-22T07:15:25Z</time>
        <sat>10</sat>
      </trkpt>
      <trkpt lat="42.313663" lon="-4.033578">
        <ele>910.8</ele>
        <time>2020-08-22T07:15:32Z</time>
        <sat>10</sat>
      </trkpt>
      <trkpt lat="42.313645" lon="-4.033700">
        <ele>910.7</ele>
        <time>2020-08-22T07:15:39Z</time>
        <sat>10</sat>
      </trkpt>
      <trkpt lat="42.313628" lon="-4.033824">
        <ele>910.6</ele>
        <time>2020-08-22T07:15:46Z</time>
        <sat>10</sat>
      </trkpt>
      <trkpt lat="42.313610" lon="-4.033944">
        <ele>910.7</ele>
        <time>2020-08-22T07:15:53Z</time>
        <sat>10</sat>
      </trkpt>
      <trkpt lat="42.313581" lon="-4.034064">
        <ele>910.9</ele>
        <time>2020-08-22T07:16:00Z</time>
        <sat>10</sat>
      </trkpt>
      <trkpt lat="42.313547" lon="-4.034176">
        <ele>910.9</ele>
        <time>2020-08-22T07:16:07Z</time>
        <sat>10</sat>
      </trkpt>
      <trkpt lat="42.313521" lon="-4.034297">
        <ele>911.0</ele>
        <time>2020-08-22T07:16:14Z</time>
        <sat>10</sat>
      </trkpt>
      <trkpt lat="42.313493" lon="-4.034412">
        <ele>911.2</ele>
        <time>2020-08-22T07:16:21Z</time>
        <sat>10</sat>
      </trkpt>
      <trkpt lat="42.313464" lon="-4.034529">
        <ele>911.3</ele>
        <time>2020-08-22T07:16:28Z</time>
        <sat>9</sat>
      </trkpt>
      <trkpt lat="42.313436" lon="-4.034647">
        <ele>911.4</ele>
        <time>2020-08-22T07:16:35Z</time>
        <sat>10</sat>
      </trkpt>
      <trkpt lat="42.313418" lon="-4.034763">
        <ele>911.6</ele>
        <time>2020-08-22T07:16:42Z</time>
        <sat>10</sat>
      </trkpt>
      <trkpt lat="42.313394" lon="-4.034884">
        <ele>911.6</ele>
        <time>2020-08-22T07:16:49Z</time>
        <sat>10</sat>
      </trkpt>
      <trkpt lat="42.313376" lon="-4.035007">
        <ele>911.5</ele>
        <time>2020-08-22T07:16:56Z</time>
        <sat>10</sat>
      </trkpt>
      <trkpt lat="42.313359" lon="-4.035118">
        <ele>911.5</ele>
        <time>2020-08-22T07:17:02Z</time>
        <sat>10</sat>
      </trkpt>
      <trkpt lat="42.313334" lon="-4.035239">
        <ele>911.4</ele>
        <time>2020-08-22T07:17:09Z</time>
        <sat>9</sat>
      </trkpt>
      <trkpt lat="42.313314" lon="-4.035357">
        <ele>911.2</ele>
        <time>2020-08-22T07:17:16Z</time>
        <sat>10</sat>
      </trkpt>
      <trkpt lat="42.313291" lon="-4.035477">
        <ele>911.1</ele>
        <time>2020-08-22T07:17:23Z</time>
        <sat>9</sat>
      </trkpt>
      <trkpt lat="42.313265" lon="-4.035589">
        <ele>911.1</ele>
        <time>2020-08-22T07:17:30Z</time>
        <sat>10</sat>
      </trkpt>
      <trkpt lat="42.313243" lon="-4.035708">
        <ele>911.1</ele>
        <time>2020-08-22T07:17:37Z</time>
        <sat>10</sat>
      </trkpt>
      <trkpt lat="42.313217" lon="-4.035831">
        <ele>910.9</ele>
        <time>2020-08-22T07:17:44Z</time>
        <sat>9</sat>
      </trkpt>
      <trkpt lat="42.313195" lon="-4.035944">
        <ele>910.7</ele>
        <time>2020-08-22T07:17:51Z</time>
        <sat>10</sat>
      </trkpt>
      <trkpt lat="42.313175" lon="-4.036064">
        <ele>910.6</ele>
        <time>2020-08-22T07:17:58Z</time>
        <sat>10</sat>
      </trkpt>
      <trkpt lat="42.313154" lon="-4.036184">
        <ele>910.6</ele>
        <time>2020-08-22T07:18:05Z</time>
        <sat>10</sat>
      </trkpt>
      <trkpt lat="42.313132" lon="-4.036296">
        <ele>910.3</ele>
        <time>2020-08-22T07:18:12Z</time>
        <sat>9</sat>
      </trkpt>
      <trkpt lat="42.313117" lon="-4.036414">
        <ele>910.4</ele>
        <time>2020-08-22T07:18:19Z</time>
        <sat>10</sat>
      </trkpt>
      <trkpt lat="42.313090" lon="-4.036536">
        <ele>910.3</ele>
        <time>2020-08-22T07:18:26Z</time>
        <sat>10</sat>
      </trkpt>
      <trkpt lat="42.313075" lon="-4.036643">
        <ele>910.2</ele>
        <time>2020-08-22T07:18:32Z</time>
        <sat>10</sat>
      </trkpt>
      <trkpt lat="42.313050" lon="-4.036749">
        <ele>910.1</ele>
        <time>2020-08-22T07:18:38Z</time>
        <sat>10</sat>
      </trkpt>
      <trkpt lat="42.313031" lon="-4.036868">
        <ele>910.0</ele>
        <time>2020-08-22T07:18:45Z</time>
        <sat>10</sat>
      </trkpt>
      <trkpt lat="42.313008" lon="-4.036974">
        <ele>910.0</ele>
        <time>2020-08-22T07:18:51Z</time>
        <sat>10</sat>
      </trkpt>
      <trkpt lat="42.312988" lon="-4.037096">
        <ele>909.9</ele>
        <time>2020-08-22T07:18:58Z</time>
        <sat>10</sat>
      </trkpt>
      <trkpt lat="42.312968" lon="-4.037203">
        <ele>909.7</ele>
        <time>2020-08-22T07:19:04Z</time>
        <sat>10</sat>
      </trkpt>
      <trkpt lat="42.312943" lon="-4.037321">
        <ele>909.6</ele>
        <time>2020-08-22T07:19:11Z</time>
        <sat>9</sat>
      </trkpt>
      <trkpt lat="42.312914" lon="-4.037436">
        <ele>909.6</ele>
        <time>2020-08-22T07:19:30Z</time>
        <sat>9</sat>
      </trkpt>
      <trkpt lat="42.312903" lon="-4.037551">
        <ele>909.5</ele>
        <time>2020-08-22T07:19:37Z</time>
        <sat>9</sat>
      </trkpt>
      <trkpt lat="42.312887" lon="-4.037673">
        <ele>909.4</ele>
        <time>2020-08-22T07:19:44Z</time>
        <sat>10</sat>
      </trkpt>
      <trkpt lat="42.312871" lon="-4.037788">
        <ele>909.4</ele>
        <time>2020-08-22T07:19:51Z</time>
        <sat>9</sat>
      </trkpt>
      <trkpt lat="42.312857" lon="-4.037903">
        <ele>909.4</ele>
        <time>2020-08-22T07:19:58Z</time>
        <sat>9</sat>
      </trkpt>
      <trkpt lat="42.312838" lon="-4.038023">
        <ele>909.5</ele>
        <time>2020-08-22T07:20:05Z</time>
        <sat>10</sat>
      </trkpt>
      <trkpt lat="42.312802" lon="-4.038136">
        <ele>909.5</ele>
        <time>2020-08-22T07:20:12Z</time>
        <sat>9</sat>
      </trkpt>
      <trkpt lat="42.312754" lon="-4.038233">
        <ele>909.6</ele>
        <time>2020-08-22T07:20:19Z</time>
        <sat>9</sat>
      </trkpt>
      <trkpt lat="42.312704" lon="-4.038333">
        <ele>909.5</ele>
        <time>2020-08-22T07:20:26Z</time>
        <sat>9</sat>
      </trkpt>
      <trkpt lat="42.312657" lon="-4.038439">
        <ele>909.4</ele>
        <time>2020-08-22T07:20:33Z</time>
        <sat>9</sat>
      </trkpt>
      <trkpt lat="42.312637" lon="-4.038553">
        <ele>909.4</ele>
        <time>2020-08-22T07:20:40Z</time>
        <sat>9</sat>
      </trkpt>
      <trkpt lat="42.312629" lon="-4.038662">
        <ele>909.3</ele>
        <time>2020-08-22T07:20:46Z</time>
        <sat>10</sat>
      </trkpt>
      <trkpt lat="42.312620" lon="-4.038781">
        <ele>909.2</ele>
        <time>2020-08-22T07:20:53Z</time>
        <sat>10</sat>
      </trkpt>
      <trkpt lat="42.312622" lon="-4.038896">
        <ele>909.1</ele>
        <time>2020-08-22T07:21:00Z</time>
        <sat>10</sat>
      </trkpt>
      <trkpt lat="42.312620" lon="-4.039011">
        <ele>908.7</ele>
        <time>2020-08-22T07:21:07Z</time>
        <sat>9</sat>
      </trkpt>
      <trkpt lat="42.312608" lon="-4.039128">
        <ele>908.3</ele>
        <time>2020-08-22T07:21:15Z</time>
        <sat>10</sat>
      </trkpt>
      <trkpt lat="42.312591" lon="-4.039247">
        <ele>907.6</ele>
        <time>2020-08-22T07:21:23Z</time>
        <sat>9</sat>
      </trkpt>
      <trkpt lat="42.312571" lon="-4.039359">
        <ele>906.9</ele>
        <time>2020-08-22T07:21:30Z</time>
        <sat>10</sat>
      </trkpt>
      <trkpt lat="42.312539" lon="-4.039471">
        <ele>905.8</ele>
        <time>2020-08-22T07:21:37Z</time>
        <sat>9</sat>
      </trkpt>
      <trkpt lat="42.312520" lon="-4.039579">
        <ele>905.0</ele>
        <time>2020-08-22T07:21:44Z</time>
        <sat>10</sat>
      </trkpt>
      <trkpt lat="42.312492" lon="-4.039685">
        <ele>904.4</ele>
        <time>2020-08-22T07:21:51Z</time>
        <sat>9</sat>
      </trkpt>
      <trkpt lat="42.312485" lon="-4.039802">
        <ele>902.9</ele>
        <time>2020-08-22T07:22:07Z</time>
        <sat>10</sat>
      </trkpt>
      <trkpt lat="42.312505" lon="-4.039914">
        <ele>901.4</ele>
        <time>2020-08-22T07:22:56Z</time>
        <sat>10</sat>
      </trkpt>
      <trkpt lat="42.312516" lon="-4.040028">
        <ele>900.9</ele>
        <time>2020-08-22T07:23:03Z</time>
        <sat>8</sat>
      </trkpt>
      <trkpt lat="42.312509" lon="-4.040150">
        <ele>900.1</ele>
        <time>2020-08-22T07:23:11Z</time>
        <sat>10</sat>
      </trkpt>
      <trkpt lat="42.312509" lon="-4.040263">
        <ele>899.2</ele>
        <time>2020-08-22T07:23:18Z</time>
        <sat>9</sat>
      </trkpt>
      <trkpt lat="42.312521" lon="-4.040376">
        <ele>898.3</ele>
        <time>2020-08-22T07:23:25Z</time>
        <sat>10</sat>
      </trkpt>
      <trkpt lat="42.312533" lon="-4.040493">
        <ele>897.3</ele>
        <time>2020-08-22T07:23:32Z</time>
        <sat>10</sat>
      </trkpt>
      <trkpt lat="42.312547" lon="-4.040618">
        <ele>896.1</ele>
        <time>2020-08-22T07:23:40Z</time>
        <sat>9</sat>
      </trkpt>
      <trkpt lat="42.312576" lon="-4.040735">
        <ele>894.9</ele>
        <time>2020-08-22T07:23:48Z</time>
        <sat>10</sat>
      </trkpt>
      <trkpt lat="42.312611" lon="-4.040846">
        <ele>893.8</ele>
        <time>2020-08-22T07:23:56Z</time>
        <sat>10</sat>
      </trkpt>
      <trkpt lat="42.312653" lon="-4.040955">
        <ele>892.5</ele>
        <time>2020-08-22T07:24:04Z</time>
        <sat>9</sat>
      </trkpt>
      <trkpt lat="42.312675" lon="-4.041072">
        <ele>891.3</ele>
        <time>2020-08-22T07:24:12Z</time>
        <sat>9</sat>
      </trkpt>
      <trkpt lat="42.312697" lon="-4.041191">
        <ele>889.8</ele>
        <time>2020-08-22T07:24:20Z</time>
        <sat>9</sat>
      </trkpt>
      <trkpt lat="42.312716" lon="-4.041299">
        <ele>888.5</ele>
        <time>2020-08-22T07:24:27Z</time>
        <sat>9</sat>
      </trkpt>
      <trkpt lat="42.312735" lon="-4.041411">
        <ele>887.1</ele>
        <time>2020-08-22T07:24:34Z</time>
        <sat>9</sat>
      </trkpt>
      <trkpt lat="42.312763" lon="-4.041519">
        <ele>884.6</ele>
        <time>2020-08-22T07:24:55Z</time>
        <sat>9</sat>
      </trkpt>
      <trkpt lat="42.312768" lon="-4.041633">
        <ele>884.0</ele>
        <time>2020-08-22T07:25:03Z</time>
        <sat>9</sat>
      </trkpt>
      <trkpt lat="42.312775" lon="-4.041743">
        <ele>882.9</ele>
        <time>2020-08-22T07:25:12Z</time>
        <sat>9</sat>
      </trkpt>
      <trkpt lat="42.312773" lon="-4.041857">
        <ele>881.5</ele>
        <time>2020-08-22T07:25:21Z</time>
        <sat>9</sat>
      </trkpt>
      <trkpt lat="42.312768" lon="-4.041978">
        <ele>880.1</ele>
        <time>2020-08-22T07:25:30Z</time>
        <sat>8</sat>
      </trkpt>
      <trkpt lat="42.312761" lon="-4.042092">
        <ele>878.8</ele>
        <time>2020-08-22T07:25:38Z</time>
        <sat>9</sat>
      </trkpt>
      <trkpt lat="42.312758" lon="-4.042202">
        <ele>875.8</ele>
        <time>2020-08-22T07:26:18Z</time>
        <sat>8</sat>
      </trkpt>
      <trkpt lat="42.312752" lon="-4.042321">
        <ele>875.4</ele>
        <time>2020-08-22T07:26:59Z</time>
        <sat>8</sat>
      </trkpt>
      <trkpt lat="42.312754" lon="-4.042434">
        <ele>874.7</ele>
        <time>2020-08-22T07:27:13Z</time>
        <sat>9</sat>
      </trkpt>
      <trkpt lat="42.312763" lon="-4.042547">
        <ele>873.7</ele>
        <time>2020-08-22T07:27:25Z</time>
        <sat>9</sat>
      </trkpt>
      <trkpt lat="42.312765" lon="-4.042657">
        <ele>872.8</ele>
        <time>2020-08-22T07:27:34Z</time>
        <sat>9</sat>
      </trkpt>
      <trkpt lat="42.312758" lon="-4.042779">
        <ele>871.6</ele>
        <time>2020-08-22T07:27:43Z</time>
        <sat>8</sat>
      </trkpt>
      <trkpt lat="42.312764" lon="-4.042895">
        <ele>870.4</ele>
        <time>2020-08-22T07:27:52Z</time>
        <sat>9</sat>
      </trkpt>
      <trkpt lat="42.312763" lon="-4.043008">
        <ele>869.0</ele>
        <time>2020-08-22T07:28:02Z</time>
        <sat>9</sat>
      </trkpt>
      <trkpt lat="42.312742" lon="-4.043115">
        <ele>868.0</ele>
        <time>2020-08-22T07:28:12Z</time>
        <sat>9</sat>
      </trkpt>
      <trkpt lat="42.312734" lon="-4.043236">
        <ele>867.1</ele>
        <time>2020-08-22T07:28:22Z</time>
        <sat>9</sat>
      </trkpt>
      <trkpt lat="42.312736" lon="-4.043354">
        <ele>864.9</ele>
        <time>2020-08-22T07:28:31Z</time>
        <sat>8</sat>
      </trkpt>
      <trkpt lat="42.312730" lon="-4.043471">
        <ele>865.1</ele>
        <time>2020-08-22T07:28:41Z</time>
        <sat>8</sat>
      </trkpt>
      <trkpt lat="42.312729" lon="-4.043583">
        <ele>864.2</ele>
        <time>2020-08-22T07:28:54Z</time>
        <sat>8</sat>
      </trkpt>
      <trkpt lat="42.312744" lon="-4.043692">
        <ele>863.3</ele>
        <time>2020-08-22T07:29:03Z</time>
        <sat>8</sat>
      </trkpt>
      <trkpt lat="42.312748" lon="-4.043802">
        <ele>862.4</ele>
        <time>2020-08-22T07:29:11Z</time>
        <sat>9</sat>
      </trkpt>
      <trkpt lat="42.312757" lon="-4.043914">
        <ele>860.9</ele>
        <time>2020-08-22T07:29:29Z</time>
        <sat>9</sat>
      </trkpt>
      <trkpt lat="42.312742" lon="-4.044024">
        <ele>860.0</ele>
        <time>2020-08-22T07:29:41Z</time>
        <sat>9</sat>
      </trkpt>
      <trkpt lat="42.312734" lon="-4.044139">
        <ele>858.5</ele>
        <time>2020-08-22T07:30:02Z</time>
        <sat>8</sat>
      </trkpt>
      <trkpt lat="42.312706" lon="-4.044246">
        <ele>857.8</ele>
        <time>2020-08-22T07:30:18Z</time>
        <sat>7</sat>
      </trkpt>
      <trkpt lat="42.312696" lon="-4.044370">
        <ele>857.3</ele>
        <time>2020-08-22T07:30:26Z</time>
        <sat>8</sat>
      </trkpt>
      <trkpt lat="42.312716" lon="-4.044560">
        <ele>854.9</ele>
        <time>2020-08-22T07:43:12Z</time>
        <sat>9</sat>
      </trkpt>
      <trkpt lat="42.312719" lon="-4.044680">
        <ele>854.4</ele>
        <time>2020-08-22T07:43:29Z</time>
        <sat>9</sat>
      </trkpt>
      <trkpt lat="42.312701" lon="-4.044791">
        <ele>853.9</ele>
        <time>2020-08-22T07:43:41Z</time>
        <sat>8</sat>
      </trkpt>
      <trkpt lat="42.312671" lon="-4.044903">
        <ele>853.4</ele>
        <time>2020-08-22T07:43:52Z</time>
        <sat>9</sat>
      </trkpt>
      <trkpt lat="42.312664" lon="-4.045013">
        <ele>853.2</ele>
        <time>2020-08-22T07:44:04Z</time>
        <sat>8</sat>
      </trkpt>
      <trkpt lat="42.312659" lon="-4.045124">
        <ele>852.9</ele>
        <time>2020-08-22T07:44:16Z</time>
        <sat>8</sat>
      </trkpt>
      <trkpt lat="42.312643" lon="-4.045362">
        <ele>846.3</ele>
        <time>2020-08-22T07:55:31Z</time>
        <sat>7</sat>
      </trkpt>
      <trkpt lat="42.312650" lon="-4.045479">
        <ele>845.6</ele>
        <time>2020-08-22T07:55:39Z</time>
        <sat>6</sat>
      </trkpt>
      <trkpt lat="42.312722" lon="-4.045530">
        <ele>853.3</ele>
        <time>2020-08-22T07:55:45Z</time>
        <sat>8</sat>
      </trkpt>
      <trkpt lat="42.312728" lon="-4.045652">
        <ele>853.9</ele>
        <time>2020-08-22T07:55:54Z</time>
        <sat>8</sat>
      </trkpt>
      <trkpt lat="42.312778" lon="-4.045741">
        <ele>852.4</ele>
        <time>2020-08-22T07:56:02Z</time>
        <sat>8</sat>
      </trkpt>
      <trkpt lat="42.312804" lon="-4.045848">
        <ele>851.5</ele>
        <time>2020-08-22T07:56:10Z</time>
        <sat>7</sat>
      </trkpt>
      <trkpt lat="42.312847" lon="-4.045944">
        <ele>851.1</ele>
        <time>2020-08-22T07:56:19Z</time>
        <sat>8</sat>
      </trkpt>
      <trkpt lat="42.312895" lon="-4.046038">
        <ele>850.9</ele>
        <time>2020-08-22T07:56:28Z</time>
        <sat>8</sat>
      </trkpt>
      <trkpt lat="42.312943" lon="-4.046139">
        <ele>850.8</ele>
        <time>2020-08-22T07:56:37Z</time>
        <sat>8</sat>
      </trkpt>
      <trkpt lat="42.312997" lon="-4.046225">
        <ele>851.0</ele>
        <time>2020-08-22T07:56:46Z</time>
        <sat>8</sat>
      </trkpt>
      <trkpt lat="42.313062" lon="-4.046301">
        <ele>850.7</ele>
        <time>2020-08-22T07:57:00Z</time>
        <sat>9</sat>
      </trkpt>
      <trkpt lat="42.313119" lon="-4.046391">
        <ele>850.5</ele>
        <time>2020-08-22T07:57:09Z</time>
        <sat>9</sat>
      </trkpt>
      <trkpt lat="42.313176" lon="-4.046470">
        <ele>850.2</ele>
        <time>2020-08-22T07:57:17Z</time>
        <sat>9</sat>
      </trkpt>
      <trkpt lat="42.313227" lon="-4.046560">
        <ele>850.1</ele>
        <time>2020-08-22T07:57:25Z</time>
        <sat>9</sat>
      </trkpt>
      <trkpt lat="42.313268" lon="-4.046662">
        <ele>849.0</ele>
        <time>2020-08-22T07:57:34Z</time>
        <sat>9</sat>
      </trkpt>
      <trkpt lat="42.313339" lon="-4.046733">
        <ele>849.2</ele>
        <time>2020-08-22T07:57:44Z</time>
        <sat>8</sat>
      </trkpt>
      <trkpt lat="42.313390" lon="-4.046822">
        <ele>849.8</ele>
        <time>2020-08-22T07:57:52Z</time>
        <sat>9</sat>
      </trkpt>
      <trkpt lat="42.313444" lon="-4.046913">
        <ele>849.5</ele>
        <time>2020-08-22T07:58:00Z</time>
        <sat>9</sat>
      </trkpt>
      <trkpt lat="42.313509" lon="-4.046990">
        <ele>849.3</ele>
        <time>2020-08-22T07:58:08Z</time>
        <sat>9</sat>
      </trkpt>
      <trkpt lat="42.313548" lon="-4.047090">
        <ele>847.9</ele>
        <time>2020-08-22T07:58:17Z</time>
        <sat>9</sat>
      </trkpt>
      <trkpt lat="42.313580" lon="-4.047200">
        <ele>849.5</ele>
        <time>2020-08-22T07:58:25Z</time>
        <sat>9</sat>
      </trkpt>
      <trkpt lat="42.313606" lon="-4.047314">
        <ele>849.2</ele>
        <time>2020-08-22T07:58:34Z</time>
        <sat>9</sat>
      </trkpt>
      <trkpt lat="42.313621" lon="-4.047424">
        <ele>848.9</ele>
        <time>2020-08-22T07:58:42Z</time>
        <sat>9</sat>
      </trkpt>
      <trkpt lat="42.313642" lon="-4.047534">
        <ele>848.9</ele>
        <time>2020-08-22T07:58:51Z</time>
        <sat>9</sat>
      </trkpt>
      <trkpt lat="42.313646" lon="-4.047655">
        <ele>848.7</ele>
        <time>2020-08-22T07:59:00Z</time>
        <sat>9</sat>
      </trkpt>
      <trkpt lat="42.313659" lon="-4.047765">
        <ele>848.6</ele>
        <time>2020-08-22T07:59:08Z</time>
        <sat>9</sat>
      </trkpt>
      <trkpt lat="42.313674" lon="-4.047874">
        <ele>848.6</ele>
        <time>2020-08-22T07:59:17Z</time>
        <sat>9</sat>
      </trkpt>
      <trkpt lat="42.313685" lon="-4.047984">
        <ele>848.5</ele>
        <time>2020-08-22T07:59:26Z</time>
        <sat>9</sat>
      </trkpt>
      <trkpt lat="42.313684" lon="-4.048099">
        <ele>848.4</ele>
        <time>2020-08-22T07:59:36Z</time>
        <sat>9</sat>
      </trkpt>
      <trkpt lat="42.313696" lon="-4.048209">
        <ele>848.3</ele>
        <time>2020-08-22T07:59:46Z</time>
        <sat>9</sat>
      </trkpt>
      <trkpt lat="42.313724" lon="-4.048316">
        <ele>847.5</ele>
        <time>2020-08-22T08:00:10Z</time>
        <sat>9</sat>
      </trkpt>
      <trkpt lat="42.313732" lon="-4.048430">
        <ele>847.2</ele>
        <time>2020-08-22T08:00:23Z</time>
        <sat>9</sat>
      </trkpt>
      <trkpt lat="42.313759" lon="-4.048536">
        <ele>846.8</ele>
        <time>2020-08-22T08:00:36Z</time>
        <sat>10</sat>
      </trkpt>
      <trkpt lat="42.313796" lon="-4.048643">
        <ele>846.5</ele>
        <time>2020-08-22T08:00:50Z</time>
        <sat>10</sat>
      </trkpt>
      <trkpt lat="42.313825" lon="-4.048754">
        <ele>846.0</ele>
        <time>2020-08-22T08:01:03Z</time>
        <sat>10</sat>
      </trkpt>
      <trkpt lat="42.313855" lon="-4.048859">
        <ele>845.5</ele>
        <time>2020-08-22T08:01:14Z</time>
        <sat>10</sat>
      </trkpt>
      <trkpt lat="42.313885" lon="-4.048968">
        <ele>844.9</ele>
        <time>2020-08-22T08:01:26Z</time>
        <sat>10</sat>
      </trkpt>
      <trkpt lat="42.313921" lon="-4.049071">
        <ele>844.0</ele>
        <time>2020-08-22T08:01:44Z</time>
        <sat>10</sat>
      </trkpt>
      <trkpt lat="42.313959" lon="-4.049173">
        <ele>843.4</ele>
        <time>2020-08-22T08:01:58Z</time>
        <sat>10</sat>
      </trkpt>
      <trkpt lat="42.313982" lon="-4.049279">
        <ele>842.7</ele>
        <time>2020-08-22T08:02:10Z</time>
        <sat>9</sat>
      </trkpt>
      <trkpt lat="42.313994" lon="-4.049391">
        <ele>841.8</ele>
        <time>2020-08-22T08:02:24Z</time>
        <sat>10</sat>
      </trkpt>
      <trkpt lat="42.314013" lon="-4.049508">
        <ele>841.4</ele>
        <time>2020-08-22T08:02:37Z</time>
        <sat>10</sat>
      </trkpt>
      <trkpt lat="42.314038" lon="-4.049623">
        <ele>840.8</ele>
        <time>2020-08-22T08:03:05Z</time>
        <sat>10</sat>
      </trkpt>
      <trkpt lat="42.314015" lon="-4.049733">
        <ele>840.4</ele>
        <time>2020-08-22T08:03:22Z</time>
        <sat>10</sat>
      </trkpt>
      <trkpt lat="42.313990" lon="-4.049843">
        <ele>840.0</ele>
        <time>2020-08-22T08:03:36Z</time>
        <sat>10</sat>
      </trkpt>
      <trkpt lat="42.313965" lon="-4.049948">
        <ele>839.4</ele>
        <time>2020-08-22T08:03:51Z</time>
        <sat>9</sat>
      </trkpt>
      <trkpt lat="42.313932" lon="-4.050054">
        <ele>839.1</ele>
        <time>2020-08-22T08:04:02Z</time>
        <sat>9</sat>
      </trkpt>
      <trkpt lat="42.313895" lon="-4.050161">
        <ele>838.6</ele>
        <time>2020-08-22T08:04:15Z</time>
        <sat>10</sat>
      </trkpt>
      <trkpt lat="42.313873" lon="-4.050279">
        <ele>838.1</ele>
        <time>2020-08-22T08:04:29Z</time>
        <sat>10</sat>
      </trkpt>
      <trkpt lat="42.313837" lon="-4.050383">
        <ele>837.6</ele>
        <time>2020-08-22T08:04:41Z</time>
        <sat>9</sat>
      </trkpt>
      <trkpt lat="42.313807" lon="-4.050495">
        <ele>836.9</ele>
        <time>2020-08-22T08:04:52Z</time>
        <sat>10</sat>
      </trkpt>
      <trkpt lat="42.313783" lon="-4.050607">
        <ele>836.1</ele>
        <time>2020-08-22T08:05:03Z</time>
        <sat>10</sat>
      </trkpt>
      <trkpt lat="42.313761" lon="-4.050713">
        <ele>835.5</ele>
        <time>2020-08-22T08:05:12Z</time>
        <sat>9</sat>
      </trkpt>
      <trkpt lat="42.313738" lon="-4.050821">
        <ele>834.9</ele>
        <time>2020-08-22T08:05:21Z</time>
        <sat>9</sat>
      </trkpt>
      <trkpt lat="42.313743" lon="-4.050939">
        <ele>834.4</ele>
        <time>2020-08-22T08:05:30Z</time>
        <sat>9</sat>
      </trkpt>
      <trkpt lat="42.313734" lon="-4.051055">
        <ele>833.7</ele>
        <time>2020-08-22T08:05:39Z</time>
        <sat>10</sat>
      </trkpt>
      <trkpt lat="42.313736" lon="-4.051176">
        <ele>833.1</ele>
        <time>2020-08-22T08:05:49Z</time>
        <sat>10</sat>
      </trkpt>
      <trkpt lat="42.313752" lon="-4.051292">
        <ele>832.8</ele>
        <time>2020-08-22T08:06:01Z</time>
        <sat>10</sat>
      </trkpt>
      <trkpt lat="42.313761" lon="-4.051407">
        <ele>832.4</ele>
        <time>2020-08-22T08:06:12Z</time>
        <sat>9</sat>
      </trkpt>
      <trkpt lat="42.313780" lon="-4.051526">
        <ele>832.2</ele>
        <time>2020-08-22T08:06:23Z</time>
        <sat>10</sat>
      </trkpt>
      <trkpt lat="42.313801" lon="-4.051637">
        <ele>832.1</ele>
        <time>2020-08-22T08:06:34Z</time>
        <sat>9</sat>
      </trkpt>
      <trkpt lat="42.313828" lon="-4.051749">
        <ele>832.2</ele>
        <time>2020-08-22T08:06:45Z</time>
        <sat>9</sat>
      </trkpt>
      <trkpt lat="42.313844" lon="-4.051862">
        <ele>832.2</ele>
        <time>2020-08-22T08:06:56Z</time>
        <sat>9</sat>
      </trkpt>
      <trkpt lat="42.313844" lon="-4.051981">
        <ele>832.1</ele>
        <time>2020-08-22T08:07:06Z</time>
        <sat>8</sat>
      </trkpt>
      <trkpt lat="42.313846" lon="-4.052099">
        <ele>832.3</ele>
        <time>2020-08-22T08:07:15Z</time>
        <sat>9</sat>
      </trkpt>
      <trkpt lat="42.313858" lon="-4.052208">
        <ele>832.3</ele>
        <time>2020-08-22T08:07:25Z</time>
        <sat>10</sat>
      </trkpt>
      <trkpt lat="42.313871" lon="-4.052322">
        <ele>832.5</ele>
        <time>2020-08-22T08:07:35Z</time>
        <sat>10</sat>
      </trkpt>
      <trkpt lat="42.313882" lon="-4.052432">
        <ele>832.8</ele>
        <time>2020-08-22T08:07:45Z</time>
        <sat>10</sat>
      </trkpt>
      <trkpt lat="42.313905" lon="-4.052536">
        <ele>833.0</ele>
        <time>2020-08-22T08:07:55Z</time>
        <sat>8</sat>
      </trkpt>
      <trkpt lat="42.313920" lon="-4.052649">
        <ele>833.3</ele>
        <time>2020-08-22T08:08:04Z</time>
        <sat>10</sat>
      </trkpt>
      <trkpt lat="42.313931" lon="-4.052760">
        <ele>833.6</ele>
        <time>2020-08-22T08:08:14Z</time>
        <sat>9</sat>
      </trkpt>
      <trkpt lat="42.313942" lon="-4.052878">
        <ele>833.9</ele>
        <time>2020-08-22T08:08:23Z</time>
        <sat>8</sat>
      </trkpt>
      <trkpt lat="42.313953" lon="-4.052992">
        <ele>834.2</ele>
        <time>2020-08-22T08:08:32Z</time>
        <sat>9</sat>
      </trkpt>
      <trkpt lat="42.313959" lon="-4.053108">
        <ele>834.6</ele>
        <time>2020-08-22T08:08:43Z</time>
        <sat>9</sat>
      </trkpt>
      <trkpt lat="42.313969" lon="-4.053230">
        <ele>835.1</ele>
        <time>2020-08-22T08:08:53Z</time>
        <sat>8</sat>
      </trkpt>
      <trkpt lat="42.313990" lon="-4.053336">
        <ele>835.4</ele>
        <time>2020-08-22T08:09:02Z</time>
        <sat>9</sat>
      </trkpt>
      <trkpt lat="42.314029" lon="-4.053445">
        <ele>836.0</ele>
        <time>2020-08-22T08:09:12Z</time>
        <sat>9</sat>
      </trkpt>
      <trkpt lat="42.314031" lon="-4.053557">
        <ele>836.6</ele>
        <time>2020-08-22T08:09:25Z</time>
        <sat>9</sat>
      </trkpt>
      <trkpt lat="42.314004" lon="-4.053669">
        <ele>836.9</ele>
        <time>2020-08-22T08:09:35Z</time>
        <sat>10</sat>
      </trkpt>
      <trkpt lat="42.313973" lon="-4.053774">
        <ele>837.0</ele>
        <time>2020-08-22T08:09:44Z</time>
        <sat>9</sat>
      </trkpt>
      <trkpt lat="42.313934" lon="-4.053881">
        <ele>837.1</ele>
        <time>2020-08-22T08:09:53Z</time>
        <sat>9</sat>
      </trkpt>
      <trkpt lat="42.313902" lon="-4.053985">
        <ele>837.3</ele>
        <time>2020-08-22T08:10:01Z</time>
        <sat>10</sat>
      </trkpt>
      <trkpt lat="42.313878" lon="-4.054101">
        <ele>837.8</ele>
        <time>2020-08-22T08:10:10Z</time>
        <sat>10</sat>
      </trkpt>
      <trkpt lat="42.313847" lon="-4.054218">
        <ele>837.9</ele>
        <time>2020-08-22T08:10:19Z</time>
        <sat>10</sat>
      </trkpt>
      <trkpt lat="42.313817" lon="-4.054323">
        <ele>838.1</ele>
        <time>2020-08-22T08:10:27Z</time>
        <sat>10</sat>
      </trkpt>
      <trkpt lat="42.313787" lon="-4.054427">
        <ele>837.9</ele>
        <time>2020-08-22T08:10:35Z</time>
        <sat>10</sat>
      </trkpt>
      <trkpt lat="42.313761" lon="-4.054531">
        <ele>837.8</ele>
        <time>2020-08-22T08:10:42Z</time>
        <sat>10</sat>
      </trkpt>
      <trkpt lat="42.313737" lon="-4.054647">
        <ele>837.6</ele>
        <time>2020-08-22T08:10:51Z</time>
        <sat>9</sat>
      </trkpt>
      <trkpt lat="42.313714" lon="-4.054757">
        <ele>837.6</ele>
        <time>2020-08-22T08:11:08Z</time>
        <sat>10</sat>
      </trkpt>
      <trkpt lat="42.313692" lon="-4.054868">
        <ele>837.8</ele>
        <time>2020-08-22T08:11:18Z</time>
        <sat>10</sat>
      </trkpt>
      <trkpt lat="42.313676" lon="-4.054980">
        <ele>837.9</ele>
        <time>2020-08-22T08:11:27Z</time>
        <sat>10</sat>
      </trkpt>
      <trkpt lat="42.313655" lon="-4.055097">
        <ele>838.0</ele>
        <time>2020-08-22T08:11:37Z</time>
        <sat>10</sat>
      </trkpt>
      <trkpt lat="42.313639" lon="-4.055220">
        <ele>837.6</ele>
        <time>2020-08-22T08:11:46Z</time>
        <sat>10</sat>
      </trkpt>
      <trkpt lat="42.313621" lon="-4.055330">
        <ele>837.2</ele>
        <time>2020-08-22T08:11:54Z</time>
        <sat>10</sat>
      </trkpt>
      <trkpt lat="42.313611" lon="-4.055441">
        <ele>837.2</ele>
        <time>2020-08-22T08:12:02Z</time>
        <sat>10</sat>
      </trkpt>
      <trkpt lat="42.313598" lon="-4.055552">
        <ele>837.1</ele>
        <time>2020-08-22T08:12:10Z</time>
        <sat>10</sat>
      </trkpt>
      <trkpt lat="42.313573" lon="-4.055659">
        <ele>837.1</ele>
        <time>2020-08-22T08:12:18Z</time>
        <sat>10</sat>
      </trkpt>
      <trkpt lat="42.313551" lon="-4.055773">
        <ele>837.0</ele>
        <time>2020-08-22T08:12:27Z</time>
        <sat>10</sat>
      </trkpt>
      <trkpt lat="42.313524" lon="-4.055878">
        <ele>837.1</ele>
        <time>2020-08-22T08:12:35Z</time>
        <sat>10</sat>
      </trkpt>
      <trkpt lat="42.313499" lon="-4.055986">
        <ele>837.3</ele>
        <time>2020-08-22T08:12:43Z</time>
        <sat>10</sat>
      </trkpt>
      <trkpt lat="42.313480" lon="-4.056102">
        <ele>837.6</ele>
        <time>2020-08-22T08:12:51Z</time>
        <sat>10</sat>
      </trkpt>
      <trkpt lat="42.313450" lon="-4.056219">
        <ele>837.9</ele>
        <time>2020-08-22T08:12:59Z</time>
        <sat>10</sat>
      </trkpt>
      <trkpt lat="42.313433" lon="-4.056332">
        <ele>837.9</ele>
        <time>2020-08-22T08:13:07Z</time>
        <sat>10</sat>
      </trkpt>
      <trkpt lat="42.313413" lon="-4.056449">
        <ele>835.2</ele>
        <time>2020-08-22T08:13:15Z</time>
        <sat>10</sat>
      </trkpt>
      <trkpt lat="42.313389" lon="-4.056561">
        <ele>838.0</ele>
        <time>2020-08-22T08:13:23Z</time>
        <sat>10</sat>
      </trkpt>
      <trkpt lat="42.313352" lon="-4.056660">
        <ele>838.3</ele>
        <time>2020-08-22T08:13:32Z</time>
        <sat>10</sat>
      </trkpt>
      <trkpt lat="42.313316" lon="-4.056764">
        <ele>835.9</ele>
        <time>2020-08-22T08:14:34Z</time>
        <sat>9</sat>
      </trkpt>
      <trkpt lat="42.313273" lon="-4.056866">
        <ele>837.7</ele>
        <time>2020-08-22T08:15:22Z</time>
        <sat>10</sat>
      </trkpt>
      <trkpt lat="42.313231" lon="-4.056973">
        <ele>837.3</ele>
        <time>2020-08-22T08:15:31Z</time>
        <sat>10</sat>
      </trkpt>
      <trkpt lat="42.313195" lon="-4.057084">
        <ele>837.1</ele>
        <time>2020-08-22T08:15:42Z</time>
        <sat>10</sat>
      </trkpt>
      <trkpt lat="42.313153" lon="-4.057186">
        <ele>837.1</ele>
        <time>2020-08-22T08:15:50Z</time>
        <sat>10</sat>
      </trkpt>
      <trkpt lat="42.313124" lon="-4.057297">
        <ele>837.1</ele>
        <time>2020-08-22T08:15:59Z</time>
        <sat>10</sat>
      </trkpt>
      <trkpt lat="42.313093" lon="-4.057408">
        <ele>837.2</ele>
        <time>2020-08-22T08:16:08Z</time>
        <sat>10</sat>
      </trkpt>
      <trkpt lat="42.313054" lon="-4.057517">
        <ele>837.3</ele>
        <time>2020-08-22T08:16:16Z</time>
        <sat>10</sat>
      </trkpt>
      <trkpt lat="42.313012" lon="-4.057616">
        <ele>837.5</ele>
        <time>2020-08-22T08:16:24Z</time>
        <sat>10</sat>
      </trkpt>
      <trkpt lat="42.312969" lon="-4.057722">
        <ele>837.6</ele>
        <time>2020-08-22T08:16:33Z</time>
        <sat>10</sat>
      </trkpt>
      <trkpt lat="42.312928" lon="-4.057825">
        <ele>837.6</ele>
        <time>2020-08-22T08:16:42Z</time>
        <sat>9</sat>
      </trkpt>
      <trkpt lat="42.312900" lon="-4.057929">
        <ele>837.7</ele>
        <time>2020-08-22T08:16:50Z</time>
        <sat>10</sat>
      </trkpt>
      <trkpt lat="42.312874" lon="-4.058042">
        <ele>838.0</ele>
        <time>2020-08-22T08:16:58Z</time>
        <sat>10</sat>
      </trkpt>
      <trkpt lat="42.312858" lon="-4.058161">
        <ele>838.3</ele>
        <time>2020-08-22T08:17:06Z</time>
        <sat>9</sat>
      </trkpt>
      <trkpt lat="42.312824" lon="-4.058268">
        <ele>838.9</ele>
        <time>2020-08-22T08:17:14Z</time>
        <sat>10</sat>
      </trkpt>
      <trkpt lat="42.312793" lon="-4.058369">
        <ele>839.3</ele>
        <time>2020-08-22T08:17:21Z</time>
        <sat>10</sat>
      </trkpt>
      <trkpt lat="42.312764" lon="-4.058483">
        <ele>839.9</ele>
        <time>2020-08-22T08:17:30Z</time>
        <sat>10</sat>
      </trkpt>
      <trkpt lat="42.312727" lon="-4.058593">
        <ele>840.5</ele>
        <time>2020-08-22T08:17:38Z</time>
        <sat>10</sat>
      </trkpt>
      <trkpt lat="42.312694" lon="-4.058700">
        <ele>840.8</ele>
        <time>2020-08-22T08:17:46Z</time>
        <sat>10</sat>
      </trkpt>
      <trkpt lat="42.312653" lon="-4.058810">
        <ele>841.0</ele>
        <time>2020-08-22T08:17:54Z</time>
        <sat>10</sat>
      </trkpt>
      <trkpt lat="42.312612" lon="-4.058920">
        <ele>841.0</ele>
        <time>2020-08-22T08:18:02Z</time>
        <sat>10</sat>
      </trkpt>
      <trkpt lat="42.312566" lon="-4.059014">
        <ele>841.1</ele>
        <time>2020-08-22T08:18:09Z</time>
        <sat>10</sat>
      </trkpt>
      <trkpt lat="42.312522" lon="-4.059115">
        <ele>841.0</ele>
        <time>2020-08-22T08:18:17Z</time>
        <sat>10</sat>
      </trkpt>
      <trkpt lat="42.312482" lon="-4.059222">
        <ele>841.1</ele>
        <time>2020-08-22T08:18:25Z</time>
        <sat>10</sat>
      </trkpt>
      <trkpt lat="42.312439" lon="-4.059325">
        <ele>841.1</ele>
        <time>2020-08-22T08:18:33Z</time>
        <sat>10</sat>
      </trkpt>
      <trkpt lat="42.312401" lon="-4.059428">
        <ele>841.0</ele>
        <time>2020-08-22T08:18:41Z</time>
        <sat>10</sat>
      </trkpt>
      <trkpt lat="42.312368" lon="-4.059530">
        <ele>841.1</ele>
        <time>2020-08-22T08:18:48Z</time>
        <sat>10</sat>
      </trkpt>
      <trkpt lat="42.312343" lon="-4.059634">
        <ele>841.1</ele>
        <time>2020-08-22T08:18:55Z</time>
        <sat>10</sat>
      </trkpt>
      <trkpt lat="42.312308" lon="-4.059744">
        <ele>841.1</ele>
        <time>2020-08-22T08:19:03Z</time>
        <sat>10</sat>
      </trkpt>
      <trkpt lat="42.312276" lon="-4.059854">
        <ele>841.1</ele>
        <time>2020-08-22T08:19:11Z</time>
        <sat>10</sat>
      </trkpt>
      <trkpt lat="42.312238" lon="-4.059951">
        <ele>841.2</ele>
        <time>2020-08-22T08:19:18Z</time>
        <sat>10</sat>
      </trkpt>
      <trkpt lat="42.312203" lon="-4.060057">
        <ele>841.0</ele>
        <time>2020-08-22T08:19:25Z</time>
        <sat>10</sat>
      </trkpt>
      <trkpt lat="42.312171" lon="-4.060173">
        <ele>841.0</ele>
        <time>2020-08-22T08:19:33Z</time>
        <sat>10</sat>
      </trkpt>
      <trkpt lat="42.312147" lon="-4.060278">
        <ele>841.0</ele>
        <time>2020-08-22T08:19:40Z</time>
        <sat>10</sat>
      </trkpt>
      <trkpt lat="42.312131" lon="-4.060400">
        <ele>841.2</ele>
        <time>2020-08-22T08:19:48Z</time>
        <sat>10</sat>
      </trkpt>
      <trkpt lat="42.312108" lon="-4.060518">
        <ele>841.2</ele>
        <time>2020-08-22T08:19:56Z</time>
        <sat>10</sat>
      </trkpt>
      <trkpt lat="42.312075" lon="-4.060624">
        <ele>841.2</ele>
        <time>2020-08-22T08:20:04Z</time>
        <sat>10</sat>
      </trkpt>
      <trkpt lat="42.312018" lon="-4.060720">
        <ele>841.0</ele>
        <time>2020-08-22T08:20:12Z</time>
        <sat>9</sat>
      </trkpt>
      <trkpt lat="42.311957" lon="-4.060812">
        <ele>840.9</ele>
        <time>2020-08-22T08:20:20Z</time>
        <sat>9</sat>
      </trkpt>
      <trkpt lat="42.311900" lon="-4.060896">
        <ele>840.8</ele>
        <time>2020-08-22T08:20:27Z</time>
        <sat>9</sat>
      </trkpt>
      <trkpt lat="42.311848" lon="-4.060996">
        <ele>840.8</ele>
        <time>2020-08-22T08:20:35Z</time>
        <sat>8</sat>
      </trkpt>
      <trkpt lat="42.311798" lon="-4.061097">
        <ele>840.8</ele>
        <time>2020-08-22T08:20:43Z</time>
        <sat>9</sat>
      </trkpt>
      <trkpt lat="42.311748" lon="-4.061200">
        <ele>840.9</ele>
        <time>2020-08-22T08:20:51Z</time>
        <sat>9</sat>
      </trkpt>
      <trkpt lat="42.311705" lon="-4.061309">
        <ele>841.0</ele>
        <time>2020-08-22T08:20:59Z</time>
        <sat>9</sat>
      </trkpt>
      <trkpt lat="42.311653" lon="-4.061407">
        <ele>841.1</ele>
        <time>2020-08-22T08:21:07Z</time>
        <sat>10</sat>
      </trkpt>
      <trkpt lat="42.311606" lon="-4.061499">
        <ele>841.3</ele>
        <time>2020-08-22T08:21:14Z</time>
        <sat>9</sat>
      </trkpt>
      <trkpt lat="42.311556" lon="-4.061588">
        <ele>841.4</ele>
        <time>2020-08-22T08:21:21Z</time>
        <sat>9</sat>
      </trkpt>
      <trkpt lat="42.311514" lon="-4.061696">
        <ele>841.5</ele>
        <time>2020-08-22T08:21:29Z</time>
        <sat>9</sat>
      </trkpt>
      <trkpt lat="42.311478" lon="-4.061800">
        <ele>841.4</ele>
        <time>2020-08-22T08:21:36Z</time>
        <sat>10</sat>
      </trkpt>
      <trkpt lat="42.311439" lon="-4.061903">
        <ele>841.5</ele>
        <time>2020-08-22T08:21:43Z</time>
        <sat>10</sat>
      </trkpt>
      <trkpt lat="42.311403" lon="-4.062004">
        <ele>841.5</ele>
        <time>2020-08-22T08:21:50Z</time>
        <sat>10</sat>
      </trkpt>
      <trkpt lat="42.311366" lon="-4.062103">
        <ele>841.5</ele>
        <time>2020-08-22T08:21:57Z</time>
        <sat>10</sat>
      </trkpt>
      <trkpt lat="42.311324" lon="-4.062196">
        <ele>841.5</ele>
        <time>2020-08-22T08:22:04Z</time>
        <sat>9</sat>
      </trkpt>
      <trkpt lat="42.311273" lon="-4.062298">
        <ele>841.5</ele>
        <time>2020-08-22T08:22:12Z</time>
        <sat>9</sat>
      </trkpt>
      <trkpt lat="42.311222" lon="-4.062396">
        <ele>841.4</ele>
        <time>2020-08-22T08:22:20Z</time>
        <sat>10</sat>
      </trkpt>
      <trkpt lat="42.311170" lon="-4.062481">
        <ele>841.1</ele>
        <time>2020-08-22T08:22:27Z</time>
        <sat>10</sat>
      </trkpt>
      <trkpt lat="42.311111" lon="-4.062571">
        <ele>840.7</ele>
        <time>2020-08-22T08:22:35Z</time>
        <sat>10</sat>
      </trkpt>
      <trkpt lat="42.311062" lon="-4.062669">
        <ele>840.5</ele>
        <time>2020-08-22T08:22:42Z</time>
        <sat>10</sat>
      </trkpt>
      <trkpt lat="42.311033" lon="-4.062776">
        <ele>840.0</ele>
        <time>2020-08-22T08:22:49Z</time>
        <sat>10</sat>
      </trkpt>
      <trkpt lat="42.311008" lon="-4.062892">
        <ele>839.6</ele>
        <time>2020-08-22T08:22:57Z</time>
        <sat>10</sat>
      </trkpt>
      <trkpt lat="42.310994" lon="-4.063004">
        <ele>839.2</ele>
        <time>2020-08-22T08:23:04Z</time>
        <sat>10</sat>
      </trkpt>
      <trkpt lat="42.310978" lon="-4.063120">
        <ele>839.1</ele>
        <time>2020-08-22T08:23:11Z</time>
        <sat>10</sat>
      </trkpt>
      <trkpt lat="42.310964" lon="-4.063230">
        <ele>839.0</ele>
        <time>2020-08-22T08:23:19Z</time>
        <sat>10</sat>
      </trkpt>
      <trkpt lat="42.310938" lon="-4.063350">
        <ele>838.9</ele>
        <time>2020-08-22T08:23:27Z</time>
        <sat>10</sat>
      </trkpt>
      <trkpt lat="42.310901" lon="-4.063451">
        <ele>838.8</ele>
        <time>2020-08-22T08:23:34Z</time>
        <sat>10</sat>
      </trkpt>
      <trkpt lat="42.310868" lon="-4.063552">
        <ele>838.7</ele>
        <time>2020-08-22T08:23:41Z</time>
        <sat>10</sat>
      </trkpt>
      <trkpt lat="42.310836" lon="-4.063660">
        <ele>838.4</ele>
        <time>2020-08-22T08:23:48Z</time>
        <sat>10</sat>
      </trkpt>
      <trkpt lat="42.310814" lon="-4.063778">
        <ele>838.2</ele>
        <time>2020-08-22T08:23:56Z</time>
        <sat>10</sat>
      </trkpt>
      <trkpt lat="42.310781" lon="-4.063892">
        <ele>837.6</ele>
        <time>2020-08-22T08:24:04Z</time>
        <sat>10</sat>
      </trkpt>
      <trkpt lat="42.310729" lon="-4.063983">
        <ele>836.9</ele>
        <time>2020-08-22T08:24:12Z</time>
        <sat>10</sat>
      </trkpt>
      <trkpt lat="42.310686" lon="-4.064084">
        <ele>836.6</ele>
        <time>2020-08-22T08:24:20Z</time>
        <sat>10</sat>
      </trkpt>
      <trkpt lat="42.310650" lon="-4.064191">
        <ele>836.2</ele>
        <time>2020-08-22T08:24:27Z</time>
        <sat>10</sat>
      </trkpt>
      <trkpt lat="42.310614" lon="-4.064296">
        <ele>835.8</ele>
        <time>2020-08-22T08:24:40Z</time>
        <sat>10</sat>
      </trkpt>
      <trkpt lat="42.310614" lon="-4.064405">
        <ele>835.8</ele>
        <time>2020-08-22T08:24:47Z</time>
        <sat>10</sat>
      </trkpt>
      <trkpt lat="42.310616" lon="-4.064520">
        <ele>835.8</ele>
        <time>2020-08-22T08:24:54Z</time>
        <sat>10</sat>
      </trkpt>
      <trkpt lat="42.310617" lon="-4.064633">
        <ele>835.7</ele>
        <time>2020-08-22T08:25:01Z</time>
        <sat>10</sat>
      </trkpt>
      <trkpt lat="42.310616" lon="-4.064745">
        <ele>835.6</ele>
        <time>2020-08-22T08:25:08Z</time>
        <sat>10</sat>
      </trkpt>
      <trkpt lat="42.310622" lon="-4.064869">
        <ele>835.5</ele>
        <time>2020-08-22T08:25:16Z</time>
        <sat>10</sat>
      </trkpt>
      <trkpt lat="42.310623" lon="-4.064982">
        <ele>835.5</ele>
        <time>2020-08-22T08:25:23Z</time>
        <sat>10</sat>
      </trkpt>
      <trkpt lat="42.310624" lon="-4.065097">
        <ele>835.5</ele>
        <time>2020-08-22T08:25:31Z</time>
        <sat>10</sat>
      </trkpt>
      <trkpt lat="42.310619" lon="-4.065217">
        <ele>835.7</ele>
        <time>2020-08-22T08:25:39Z</time>
        <sat>10</sat>
      </trkpt>
      <trkpt lat="42.310623" lon="-4.065339">
        <ele>835.8</ele>
        <time>2020-08-22T08:25:47Z</time>
        <sat>10</sat>
      </trkpt>
      <trkpt lat="42.310634" lon="-4.065456">
        <ele>835.8</ele>
        <time>2020-08-22T08:25:55Z</time>
        <sat>10</sat>
      </trkpt>
      <trkpt lat="42.310647" lon="-4.065574">
        <ele>835.9</ele>
        <time>2020-08-22T08:26:03Z</time>
        <sat>10</sat>
      </trkpt>
      <trkpt lat="42.310660" lon="-4.065686">
        <ele>836.1</ele>
        <time>2020-08-22T08:26:15Z</time>
        <sat>10</sat>
      </trkpt>
      <trkpt lat="42.310678" lon="-4.065802">
        <ele>835.8</ele>
        <time>2020-08-22T08:26:25Z</time>
        <sat>10</sat>
      </trkpt>
      <trkpt lat="42.310696" lon="-4.065910">
        <ele>835.4</ele>
        <time>2020-08-22T08:26:33Z</time>
        <sat>10</sat>
      </trkpt>
      <trkpt lat="42.310715" lon="-4.066027">
        <ele>835.0</ele>
        <time>2020-08-22T08:26:42Z</time>
        <sat>10</sat>
      </trkpt>
      <trkpt lat="42.310724" lon="-4.066145">
        <ele>834.6</ele>
        <time>2020-08-22T08:26:50Z</time>
        <sat>10</sat>
      </trkpt>
      <trkpt lat="42.310725" lon="-4.066267">
        <ele>834.4</ele>
        <time>2020-08-22T08:26:58Z</time>
        <sat>10</sat>
      </trkpt>
      <trkpt lat="42.310721" lon="-4.066393">
        <ele>834.2</ele>
        <time>2020-08-22T08:27:06Z</time>
        <sat>10</sat>
      </trkpt>
      <trkpt lat="42.310716" lon="-4.066509">
        <ele>834.0</ele>
        <time>2020-08-22T08:27:13Z</time>
        <sat>10</sat>
      </trkpt>
      <trkpt lat="42.310703" lon="-4.066622">
        <ele>833.8</ele>
        <time>2020-08-22T08:27:20Z</time>
        <sat>10</sat>
      </trkpt>
      <trkpt lat="42.310699" lon="-4.066737">
        <ele>833.6</ele>
        <time>2020-08-22T08:27:27Z</time>
        <sat>10</sat>
      </trkpt>
      <trkpt lat="42.310695" lon="-4.066851">
        <ele>833.5</ele>
        <time>2020-08-22T08:27:34Z</time>
        <sat>10</sat>
      </trkpt>
      <trkpt lat="42.310682" lon="-4.066968">
        <ele>833.4</ele>
        <time>2020-08-22T08:27:41Z</time>
        <sat>10</sat>
      </trkpt>
      <trkpt lat="42.310669" lon="-4.067081">
        <ele>833.4</ele>
        <time>2020-08-22T08:27:48Z</time>
        <sat>10</sat>
      </trkpt>
      <trkpt lat="42.310663" lon="-4.067193">
        <ele>833.3</ele>
        <time>2020-08-22T08:27:55Z</time>
        <sat>10</sat>
      </trkpt>
      <trkpt lat="42.310655" lon="-4.067306">
        <ele>833.3</ele>
        <time>2020-08-22T08:28:02Z</time>
        <sat>10</sat>
      </trkpt>
      <trkpt lat="42.310660" lon="-4.067417">
        <ele>833.4</ele>
        <time>2020-08-22T08:28:09Z</time>
        <sat>10</sat>
      </trkpt>
      <trkpt lat="42.310670" lon="-4.067526">
        <ele>833.5</ele>
        <time>2020-08-22T08:28:16Z</time>
        <sat>10</sat>
      </trkpt>
      <trkpt lat="42.310691" lon="-4.067635">
        <ele>833.8</ele>
        <time>2020-08-22T08:28:23Z</time>
        <sat>10</sat>
      </trkpt>
      <trkpt lat="42.310717" lon="-4.067753">
        <ele>834.1</ele>
        <time>2020-08-22T08:28:31Z</time>
        <sat>10</sat>
      </trkpt>
      <trkpt lat="42.310723" lon="-4.067865">
        <ele>834.3</ele>
        <time>2020-08-22T08:28:38Z</time>
        <sat>10</sat>
      </trkpt>
      <trkpt lat="42.310707" lon="-4.067985">
        <ele>834.5</ele>
        <time>2020-08-22T08:28:49Z</time>
        <sat>10</sat>
      </trkpt>
      <trkpt lat="42.310692" lon="-4.068108">
        <ele>834.5</ele>
        <time>2020-08-22T08:28:56Z</time>
        <sat>10</sat>
      </trkpt>
      <trkpt lat="42.310664" lon="-4.068214">
        <ele>834.4</ele>
        <time>2020-08-22T08:29:02Z</time>
        <sat>10</sat>
      </trkpt>
      <trkpt lat="42.310653" lon="-4.068330">
        <ele>834.3</ele>
        <time>2020-08-22T08:29:09Z</time>
        <sat>10</sat>
      </trkpt>
      <trkpt lat="42.310664" lon="-4.068457">
        <ele>833.8</ele>
        <time>2020-08-22T08:29:35Z</time>
        <sat>10</sat>
      </trkpt>
      <trkpt lat="42.310693" lon="-4.068563">
        <ele>833.5</ele>
        <time>2020-08-22T08:29:43Z</time>
        <sat>9</sat>
      </trkpt>
      <trkpt lat="42.310750" lon="-4.068642">
        <ele>833.8</ele>
        <time>2020-08-22T08:30:06Z</time>
        <sat>10</sat>
      </trkpt>
      <trkpt lat="42.310766" lon="-4.068634">
        <ele>836.1</ele>
        <time>2020-08-22T08:30:54Z</time>
        <sat>10</sat>
      </trkpt>
      <trkpt lat="42.310713" lon="-4.068724">
        <ele>833.9</ele>
        <time>2020-08-22T08:32:19Z</time>
        <sat>10</sat>
      </trkpt>
      <trkpt lat="42.310719" lon="-4.068836">
        <ele>833.1</ele>
        <time>2020-08-22T08:32:29Z</time>
        <sat>10</sat>
      </trkpt>
      <trkpt lat="42.310731" lon="-4.068951">
        <ele>832.3</ele>
        <time>2020-08-22T08:32:39Z</time>
        <sat>10</sat>
      </trkpt>
      <trkpt lat="42.310720" lon="-4.069072">
        <ele>831.4</ele>
        <time>2020-08-22T08:32:50Z</time>
        <sat>10</sat>
      </trkpt>
      <trkpt lat="42.310717" lon="-4.069189">
        <ele>830.7</ele>
        <time>2020-08-22T08:32:59Z</time>
        <sat>10</sat>
      </trkpt>
      <trkpt lat="42.310745" lon="-4.069303">
        <ele>829.9</ele>
        <time>2020-08-22T08:33:11Z</time>
        <sat>10</sat>
      </trkpt>
      <trkpt lat="42.310769" lon="-4.069414">
        <ele>829.4</ele>
        <time>2020-08-22T08:33:20Z</time>
        <sat>10</sat>
      </trkpt>
      <trkpt lat="42.310797" lon="-4.069523">
        <ele>828.7</ele>
        <time>2020-08-22T08:33:31Z</time>
        <sat>10</sat>
      </trkpt>
      <trkpt lat="42.310814" lon="-4.069633">
        <ele>828.0</ele>
        <time>2020-08-22T08:33:40Z</time>
        <sat>10</sat>
      </trkpt>
      <trkpt lat="42.310822" lon="-4.069749">
        <ele>827.4</ele>
        <time>2020-08-22T08:33:50Z</time>
        <sat>10</sat>
      </trkpt>
      <trkpt lat="42.310814" lon="-4.069862">
        <ele>826.4</ele>
        <time>2020-08-22T08:34:03Z</time>
        <sat>10</sat>
      </trkpt>
      <trkpt lat="42.310798" lon="-4.069970">
        <ele>825.2</ele>
        <time>2020-08-22T08:34:16Z</time>
        <sat>10</sat>
      </trkpt>
      <trkpt lat="42.310792" lon="-4.070082">
        <ele>824.2</ele>
        <time>2020-08-22T08:34:27Z</time>
        <sat>10</sat>
      </trkpt>
      <trkpt lat="42.310811" lon="-4.070202">
        <ele>823.4</ele>
        <time>2020-08-22T08:34:36Z</time>
        <sat>10</sat>
      </trkpt>
      <trkpt lat="42.310818" lon="-4.070324">
        <ele>822.6</ele>
        <time>2020-08-22T08:34:47Z</time>
        <sat>10</sat>
      </trkpt>
      <trkpt lat="42.310804" lon="-4.070433">
        <ele>822.0</ele>
        <time>2020-08-22T08:34:56Z</time>
        <sat>10</sat>
      </trkpt>
      <trkpt lat="42.310781" lon="-4.070551">
        <ele>821.5</ele>
        <time>2020-08-22T08:35:06Z</time>
        <sat>10</sat>
      </trkpt>
      <trkpt lat="42.310710" lon="-4.070622">
        <ele>820.9</ele>
        <time>2020-08-22T08:35:15Z</time>
        <sat>10</sat>
      </trkpt>
      <trkpt lat="42.310655" lon="-4.070711">
        <ele>820.3</ele>
        <time>2020-08-22T08:35:23Z</time>
        <sat>10</sat>
      </trkpt>
      <trkpt lat="42.310615" lon="-4.070809">
        <ele>819.8</ele>
        <time>2020-08-22T08:35:31Z</time>
        <sat>10</sat>
      </trkpt>
      <trkpt lat="42.310567" lon="-4.070902">
        <ele>819.4</ele>
        <time>2020-08-22T08:35:40Z</time>
        <sat>10</sat>
      </trkpt>
      <trkpt lat="42.310510" lon="-4.070991">
        <ele>819.3</ele>
        <time>2020-08-22T08:35:50Z</time>
        <sat>10</sat>
      </trkpt>
      <trkpt lat="42.310455" lon="-4.071071">
        <ele>818.9</ele>
        <time>2020-08-22T08:35:59Z</time>
        <sat>10</sat>
      </trkpt>
      <trkpt lat="42.310418" lon="-4.071176">
        <ele>818.6</ele>
        <time>2020-08-22T08:36:07Z</time>
        <sat>10</sat>
      </trkpt>
      <trkpt lat="42.310377" lon="-4.071278">
        <ele>818.5</ele>
        <time>2020-08-22T08:36:15Z</time>
        <sat>10</sat>
      </trkpt>
      <trkpt lat="42.310326" lon="-4.071369">
        <ele>818.4</ele>
        <time>2020-08-22T08:36:23Z</time>
        <sat>10</sat>
      </trkpt>
      <trkpt lat="42.310277" lon="-4.071473">
        <ele>818.2</ele>
        <time>2020-08-22T08:36:33Z</time>
        <sat>10</sat>
      </trkpt>
      <trkpt lat="42.310241" lon="-4.071574">
        <ele>817.8</ele>
        <time>2020-08-22T08:36:46Z</time>
        <sat>10</sat>
      </trkpt>
      <trkpt lat="42.310200" lon="-4.071674">
        <ele>817.7</ele>
        <time>2020-08-22T08:36:54Z</time>
        <sat>10</sat>
      </trkpt>
      <trkpt lat="42.310163" lon="-4.071778">
        <ele>817.7</ele>
        <time>2020-08-22T08:37:04Z</time>
        <sat>10</sat>
      </trkpt>
      <trkpt lat="42.310119" lon="-4.071879">
        <ele>817.5</ele>
        <time>2020-08-22T08:37:12Z</time>
        <sat>10</sat>
      </trkpt>
      <trkpt lat="42.310080" lon="-4.071985">
        <ele>817.4</ele>
        <time>2020-08-22T08:37:20Z</time>
        <sat>10</sat>
      </trkpt>
      <trkpt lat="42.310055" lon="-4.072091">
        <ele>816.8</ele>
        <time>2020-08-22T08:39:06Z</time>
        <sat>9</sat>
      </trkpt>
      <trkpt lat="42.310025" lon="-4.072196">
        <ele>816.8</ele>
        <time>2020-08-22T08:39:12Z</time>
        <sat>10</sat>
      </trkpt>
      <trkpt lat="42.309996" lon="-4.072303">
        <ele>816.8</ele>
        <time>2020-08-22T08:39:19Z</time>
        <sat>10</sat>
      </trkpt>
      <trkpt lat="42.309963" lon="-4.072413">
        <ele>816.6</ele>
        <time>2020-08-22T08:39:26Z</time>
        <sat>10</sat>
      </trkpt>
      <trkpt lat="42.309941" lon="-4.072518">
        <ele>816.5</ele>
        <time>2020-08-22T08:39:32Z</time>
        <sat>10</sat>
      </trkpt>
      <trkpt lat="42.309919" lon="-4.072634">
        <ele>816.4</ele>
        <time>2020-08-22T08:39:39Z</time>
        <sat>10</sat>
      </trkpt>
      <trkpt lat="42.309898" lon="-4.072751">
        <ele>815.5</ele>
        <time>2020-08-22T08:39:47Z</time>
        <sat>10</sat>
      </trkpt>
      <trkpt lat="42.309864" lon="-4.072866">
        <ele>815.5</ele>
        <time>2020-08-22T08:39:56Z</time>
        <sat>10</sat>
      </trkpt>
      <trkpt lat="42.309848" lon="-4.072983">
        <ele>815.1</ele>
        <time>2020-08-22T08:40:04Z</time>
        <sat>10</sat>
      </trkpt>
      <trkpt lat="42.309837" lon="-4.073097">
        <ele>816.4</ele>
        <time>2020-08-22T08:40:11Z</time>
        <sat>10</sat>
      </trkpt>
      <trkpt lat="42.309818" lon="-4.073212">
        <ele>813.7</ele>
        <time>2020-08-22T08:40:20Z</time>
        <sat>9</sat>
      </trkpt>
      <trkpt lat="42.309799" lon="-4.073320">
        <ele>817.5</ele>
        <time>2020-08-22T08:40:27Z</time>
        <sat>10</sat>
      </trkpt>
      <trkpt lat="42.309779" lon="-4.073427">
        <ele>817.1</ele>
        <time>2020-08-22T08:40:34Z</time>
        <sat>10</sat>
      </trkpt>
      <trkpt lat="42.309751" lon="-4.073540">
        <ele>816.4</ele>
        <time>2020-08-22T08:40:42Z</time>
        <sat>9</sat>
      </trkpt>
      <trkpt lat="42.309730" lon="-4.073660">
        <ele>815.9</ele>
        <time>2020-08-22T08:40:51Z</time>
        <sat>10</sat>
      </trkpt>
      <trkpt lat="42.309714" lon="-4.073776">
        <ele>815.5</ele>
        <time>2020-08-22T08:40:59Z</time>
        <sat>9</sat>
      </trkpt>
      <trkpt lat="42.309702" lon="-4.073896">
        <ele>815.4</ele>
        <time>2020-08-22T08:41:07Z</time>
        <sat>10</sat>
      </trkpt>
      <trkpt lat="42.309702" lon="-4.074014">
        <ele>815.4</ele>
        <time>2020-08-22T08:41:15Z</time>
        <sat>10</sat>
      </trkpt>
      <trkpt lat="42.309707" lon="-4.074139">
        <ele>815.4</ele>
        <time>2020-08-22T08:41:23Z</time>
        <sat>10</sat>
      </trkpt>
      <trkpt lat="42.309703" lon="-4.074253">
        <ele>815.4</ele>
        <time>2020-08-22T08:41:31Z</time>
        <sat>10</sat>
      </trkpt>
      <trkpt lat="42.309701" lon="-4.074372">
        <ele>815.4</ele>
        <time>2020-08-22T08:41:39Z</time>
        <sat>10</sat>
      </trkpt>
      <trkpt lat="42.309702" lon="-4.074491">
        <ele>815.3</ele>
        <time>2020-08-22T08:41:47Z</time>
        <sat>9</sat>
      </trkpt>
      <trkpt lat="42.309696" lon="-4.074607">
        <ele>815.4</ele>
        <time>2020-08-22T08:41:55Z</time>
        <sat>10</sat>
      </trkpt>
      <trkpt lat="42.309681" lon="-4.074727">
        <ele>815.4</ele>
        <time>2020-08-22T08:42:03Z</time>
        <sat>10</sat>
      </trkpt>
      <trkpt lat="42.309667" lon="-4.074844">
        <ele>815.3</ele>
        <time>2020-08-22T08:42:11Z</time>
        <sat>9</sat>
      </trkpt>
      <trkpt lat="42.309644" lon="-4.074952">
        <ele>815.2</ele>
        <time>2020-08-22T08:42:19Z</time>
        <sat>9</sat>
      </trkpt>
      <trkpt lat="42.309622" lon="-4.075068">
        <ele>815.0</ele>
        <time>2020-08-22T08:42:27Z</time>
        <sat>10</sat>
      </trkpt>
      <trkpt lat="42.309598" lon="-4.075175">
        <ele>815.0</ele>
        <time>2020-08-22T08:42:35Z</time>
        <sat>10</sat>
      </trkpt>
      <trkpt lat="42.309572" lon="-4.075291">
        <ele>815.0</ele>
        <time>2020-08-22T08:42:43Z</time>
        <sat>10</sat>
      </trkpt>
      <trkpt lat="42.309538" lon="-4.075404">
        <ele>815.1</ele>
        <time>2020-08-22T08:42:51Z</time>
        <sat>10</sat>
      </trkpt>
      <trkpt lat="42.309517" lon="-4.075515">
        <ele>814.9</ele>
        <time>2020-08-22T08:42:59Z</time>
        <sat>10</sat>
      </trkpt>
      <trkpt lat="42.309493" lon="-4.075627">
        <ele>814.6</ele>
        <time>2020-08-22T08:43:07Z</time>
        <sat>9</sat>
      </trkpt>
      <trkpt lat="42.309460" lon="-4.075739">
        <ele>814.4</ele>
        <time>2020-08-22T08:43:15Z</time>
        <sat>10</sat>
      </trkpt>
      <trkpt lat="42.309423" lon="-4.075849">
        <ele>814.3</ele>
        <time>2020-08-22T08:43:23Z</time>
        <sat>10</sat>
      </trkpt>
      <trkpt lat="42.309384" lon="-4.075954">
        <ele>814.2</ele>
        <time>2020-08-22T08:43:31Z</time>
        <sat>10</sat>
      </trkpt>
      <trkpt lat="42.309346" lon="-4.076063">
        <ele>814.1</ele>
        <time>2020-08-22T08:43:39Z</time>
        <sat>10</sat>
      </trkpt>
      <trkpt lat="42.309309" lon="-4.076173">
        <ele>814.1</ele>
        <time>2020-08-22T08:43:47Z</time>
        <sat>10</sat>
      </trkpt>
      <trkpt lat="42.309278" lon="-4.076289">
        <ele>814.1</ele>
        <time>2020-08-22T08:43:55Z</time>
        <sat>10</sat>
      </trkpt>
      <trkpt lat="42.309250" lon="-4.076392">
        <ele>814.2</ele>
        <time>2020-08-22T08:44:02Z</time>
        <sat>10</sat>
      </trkpt>
      <trkpt lat="42.309231" lon="-4.076508">
        <ele>814.2</ele>
        <time>2020-08-22T08:44:10Z</time>
        <sat>10</sat>
      </trkpt>
      <trkpt lat="42.309204" lon="-4.076624">
        <ele>814.3</ele>
        <time>2020-08-22T08:44:18Z</time>
        <sat>10</sat>
      </trkpt>
      <trkpt lat="42.309178" lon="-4.076744">
        <ele>814.5</ele>
        <time>2020-08-22T08:44:26Z</time>
        <sat>9</sat>
      </trkpt>
      <trkpt lat="42.309162" lon="-4.076859">
        <ele>814.4</ele>
        <time>2020-08-22T08:44:34Z</time>
        <sat>10</sat>
      </trkpt>
      <trkpt lat="42.309159" lon="-4.076969">
        <ele>814.4</ele>
        <time>2020-08-22T08:44:41Z</time>
        <sat>10</sat>
      </trkpt>
      <trkpt lat="42.309151" lon="-4.077078">
        <ele>814.3</ele>
        <time>2020-08-22T08:44:48Z</time>
        <sat>9</sat>
      </trkpt>
      <trkpt lat="42.309134" lon="-4.077202">
        <ele>814.2</ele>
        <time>2020-08-22T08:44:56Z</time>
        <sat>9</sat>
      </trkpt>
      <trkpt lat="42.309116" lon="-4.077309">
        <ele>814.2</ele>
        <time>2020-08-22T08:45:03Z</time>
        <sat>10</sat>
      </trkpt>
      <trkpt lat="42.309085" lon="-4.077414">
        <ele>814.0</ele>
        <time>2020-08-22T08:45:10Z</time>
        <sat>10</sat>
      </trkpt>
      <trkpt lat="42.309052" lon="-4.077529">
        <ele>813.9</ele>
        <time>2020-08-22T08:45:18Z</time>
        <sat>10</sat>
      </trkpt>
      <trkpt lat="42.309023" lon="-4.077634">
        <ele>813.8</ele>
        <time>2020-08-22T08:45:25Z</time>
        <sat>10</sat>
      </trkpt>
      <trkpt lat="42.308992" lon="-4.077742">
        <ele>813.9</ele>
        <time>2020-08-22T08:45:32Z</time>
        <sat>10</sat>
      </trkpt>
      <trkpt lat="42.308960" lon="-4.077848">
        <ele>813.9</ele>
        <time>2020-08-22T08:45:39Z</time>
        <sat>10</sat>
      </trkpt>
      <trkpt lat="42.308922" lon="-4.077947">
        <ele>813.8</ele>
        <time>2020-08-22T08:45:46Z</time>
        <sat>10</sat>
      </trkpt>
      <trkpt lat="42.308879" lon="-4.078059">
        <ele>813.7</ele>
        <time>2020-08-22T08:45:54Z</time>
        <sat>10</sat>
      </trkpt>
      <trkpt lat="42.308839" lon="-4.078170">
        <ele>813.7</ele>
        <time>2020-08-22T08:46:02Z</time>
        <sat>10</sat>
      </trkpt>
      <trkpt lat="42.308801" lon="-4.078279">
        <ele>813.6</ele>
        <time>2020-08-22T08:46:10Z</time>
        <sat>10</sat>
      </trkpt>
      <trkpt lat="42.308768" lon="-4.078387">
        <ele>813.6</ele>
        <time>2020-08-22T08:46:18Z</time>
        <sat>10</sat>
      </trkpt>
      <trkpt lat="42.308734" lon="-4.078487">
        <ele>813.8</ele>
        <time>2020-08-22T08:46:25Z</time>
        <sat>10</sat>
      </trkpt>
      <trkpt lat="42.308705" lon="-4.078593">
        <ele>813.9</ele>
        <time>2020-08-22T08:46:32Z</time>
        <sat>10</sat>
      </trkpt>
      <trkpt lat="42.308681" lon="-4.078704">
        <ele>813.9</ele>
        <time>2020-08-22T08:46:39Z</time>
        <sat>10</sat>
      </trkpt>
      <trkpt lat="42.308658" lon="-4.078816">
        <ele>813.8</ele>
        <time>2020-08-22T08:46:46Z</time>
        <sat>10</sat>
      </trkpt>
      <trkpt lat="42.308643" lon="-4.078925">
        <ele>813.8</ele>
        <time>2020-08-22T08:46:53Z</time>
        <sat>10</sat>
      </trkpt>
      <trkpt lat="42.308631" lon="-4.079033">
        <ele>813.5</ele>
        <time>2020-08-22T08:47:00Z</time>
        <sat>10</sat>
      </trkpt>
      <trkpt lat="42.308602" lon="-4.079145">
        <ele>813.2</ele>
        <time>2020-08-22T08:47:07Z</time>
        <sat>10</sat>
      </trkpt>
      <trkpt lat="42.308559" lon="-4.079251">
        <ele>812.8</ele>
        <time>2020-08-22T08:47:15Z</time>
        <sat>10</sat>
      </trkpt>
      <trkpt lat="42.308534" lon="-4.079373">
        <ele>812.5</ele>
        <time>2020-08-22T08:47:23Z</time>
        <sat>10</sat>
      </trkpt>
      <trkpt lat="42.308519" lon="-4.079485">
        <ele>812.3</ele>
        <time>2020-08-22T08:47:30Z</time>
        <sat>10</sat>
      </trkpt>
      <trkpt lat="42.308499" lon="-4.079591">
        <ele>812.1</ele>
        <time>2020-08-22T08:47:37Z</time>
        <sat>10</sat>
      </trkpt>
      <trkpt lat="42.308461" lon="-4.079702">
        <ele>811.8</ele>
        <time>2020-08-22T08:47:45Z</time>
        <sat>10</sat>
      </trkpt>
      <trkpt lat="42.308423" lon="-4.079810">
        <ele>811.7</ele>
        <time>2020-08-22T08:47:53Z</time>
        <sat>10</sat>
      </trkpt>
      <trkpt lat="42.308388" lon="-4.079914">
        <ele>811.5</ele>
        <time>2020-08-22T08:48:10Z</time>
        <sat>10</sat>
      </trkpt>
      <trkpt lat="42.308350" lon="-4.080015">
        <ele>811.5</ele>
        <time>2020-08-22T08:48:17Z</time>
        <sat>10</sat>
      </trkpt>
      <trkpt lat="42.308313" lon="-4.080122">
        <ele>811.2</ele>
        <time>2020-08-22T08:48:24Z</time>
        <sat>10</sat>
      </trkpt>
      <trkpt lat="42.308266" lon="-4.080221">
        <ele>811.2</ele>
        <time>2020-08-22T08:48:32Z</time>
        <sat>10</sat>
      </trkpt>
      <trkpt lat="42.308232" lon="-4.080328">
        <ele>811.1</ele>
        <time>2020-08-22T08:48:39Z</time>
        <sat>10</sat>
      </trkpt>
      <trkpt lat="42.308199" lon="-4.080431">
        <ele>810.8</ele>
        <time>2020-08-22T08:48:46Z</time>
        <sat>10</sat>
      </trkpt>
      <trkpt lat="42.308172" lon="-4.080537">
        <ele>810.8</ele>
        <time>2020-08-22T08:48:53Z</time>
        <sat>10</sat>
      </trkpt>
      <trkpt lat="42.308146" lon="-4.080642">
        <ele>810.7</ele>
        <time>2020-08-22T08:49:00Z</time>
        <sat>10</sat>
      </trkpt>
      <trkpt lat="42.308121" lon="-4.080758">
        <ele>810.6</ele>
        <time>2020-08-22T08:49:08Z</time>
        <sat>10</sat>
      </trkpt>
      <trkpt lat="42.308095" lon="-4.080876">
        <ele>810.4</ele>
        <time>2020-08-22T08:49:16Z</time>
        <sat>10</sat>
      </trkpt>
      <trkpt lat="42.308068" lon="-4.080985">
        <ele>810.4</ele>
        <time>2020-08-22T08:49:25Z</time>
        <sat>9</sat>
      </trkpt>
      <trkpt lat="42.308034" lon="-4.081092">
        <ele>810.5</ele>
        <time>2020-08-22T08:49:34Z</time>
        <sat>10</sat>
      </trkpt>
      <trkpt lat="42.307993" lon="-4.081202">
        <ele>810.5</ele>
        <time>2020-08-22T08:49:43Z</time>
        <sat>10</sat>
      </trkpt>
      <trkpt lat="42.307952" lon="-4.081299">
        <ele>810.7</ele>
        <time>2020-08-22T08:49:51Z</time>
        <sat>10</sat>
      </trkpt>
      <trkpt lat="42.307908" lon="-4.081401">
        <ele>810.7</ele>
        <time>2020-08-22T08:50:00Z</time>
        <sat>10</sat>
      </trkpt>
      <trkpt lat="42.307855" lon="-4.081498">
        <ele>810.6</ele>
        <time>2020-08-22T08:50:10Z</time>
        <sat>10</sat>
      </trkpt>
      <trkpt lat="42.307803" lon="-4.081598">
        <ele>810.4</ele>
        <time>2020-08-22T08:50:19Z</time>
        <sat>10</sat>
      </trkpt>
      <trkpt lat="42.307756" lon="-4.081705">
        <ele>810.2</ele>
        <time>2020-08-22T08:50:28Z</time>
        <sat>10</sat>
      </trkpt>
      <trkpt lat="42.307708" lon="-4.081803">
        <ele>809.9</ele>
        <time>2020-08-22T08:50:36Z</time>
        <sat>10</sat>
      </trkpt>
      <trkpt lat="42.307666" lon="-4.081907">
        <ele>809.7</ele>
        <time>2020-08-22T08:50:44Z</time>
        <sat>10</sat>
      </trkpt>
      <trkpt lat="42.307615" lon="-4.082004">
        <ele>809.5</ele>
        <time>2020-08-22T08:50:52Z</time>
        <sat>10</sat>
      </trkpt>
      <trkpt lat="42.307572" lon="-4.082108">
        <ele>809.4</ele>
        <time>2020-08-22T08:51:00Z</time>
        <sat>10</sat>
      </trkpt>
      <trkpt lat="42.307520" lon="-4.082193">
        <ele>809.1</ele>
        <time>2020-08-22T08:51:08Z</time>
        <sat>10</sat>
      </trkpt>
      <trkpt lat="42.307472" lon="-4.082299">
        <ele>809.5</ele>
        <time>2020-08-22T08:51:16Z</time>
        <sat>10</sat>
      </trkpt>
      <trkpt lat="42.307423" lon="-4.082387">
        <ele>809.3</ele>
        <time>2020-08-22T08:51:23Z</time>
        <sat>10</sat>
      </trkpt>
      <trkpt lat="42.307372" lon="-4.082488">
        <ele>809.3</ele>
        <time>2020-08-22T08:51:31Z</time>
        <sat>10</sat>
      </trkpt>
      <trkpt lat="42.307329" lon="-4.082593">
        <ele>809.3</ele>
        <time>2020-08-22T08:51:39Z</time>
        <sat>10</sat>
      </trkpt>
      <trkpt lat="42.307288" lon="-4.082696">
        <ele>809.3</ele>
        <time>2020-08-22T08:51:47Z</time>
        <sat>10</sat>
      </trkpt>
      <trkpt lat="42.307250" lon="-4.082802">
        <ele>809.3</ele>
        <time>2020-08-22T08:51:55Z</time>
        <sat>10</sat>
      </trkpt>
      <trkpt lat="42.307207" lon="-4.082911">
        <ele>809.3</ele>
        <time>2020-08-22T08:52:03Z</time>
        <sat>10</sat>
      </trkpt>
      <trkpt lat="42.307172" lon="-4.083023">
        <ele>809.2</ele>
        <time>2020-08-22T08:52:11Z</time>
        <sat>10</sat>
      </trkpt>
      <trkpt lat="42.307134" lon="-4.083138">
        <ele>809.2</ele>
        <time>2020-08-22T08:52:19Z</time>
        <sat>10</sat>
      </trkpt>
      <trkpt lat="42.307096" lon="-4.083252">
        <ele>809.2</ele>
        <time>2020-08-22T08:52:27Z</time>
        <sat>10</sat>
      </trkpt>
      <trkpt lat="42.307049" lon="-4.083357">
        <ele>809.3</ele>
        <time>2020-08-22T08:52:35Z</time>
        <sat>10</sat>
      </trkpt>
      <trkpt lat="42.307011" lon="-4.083455">
        <ele>809.4</ele>
        <time>2020-08-22T08:52:42Z</time>
        <sat>10</sat>
      </trkpt>
      <trkpt lat="42.306970" lon="-4.083564">
        <ele>809.4</ele>
        <time>2020-08-22T08:52:50Z</time>
        <sat>10</sat>
      </trkpt>
      <trkpt lat="42.306925" lon="-4.083670">
        <ele>809.4</ele>
        <time>2020-08-22T08:52:58Z</time>
        <sat>10</sat>
      </trkpt>
      <trkpt lat="42.306878" lon="-4.083769">
        <ele>809.5</ele>
        <time>2020-08-22T08:53:06Z</time>
        <sat>10</sat>
      </trkpt>
      <trkpt lat="42.306821" lon="-4.083853">
        <ele>809.4</ele>
        <time>2020-08-22T08:53:13Z</time>
        <sat>10</sat>
      </trkpt>
      <trkpt lat="42.306763" lon="-4.083945">
        <ele>809.3</ele>
        <time>2020-08-22T08:53:20Z</time>
        <sat>10</sat>
      </trkpt>
      <trkpt lat="42.306703" lon="-4.084039">
        <ele>809.2</ele>
        <time>2020-08-22T08:53:27Z</time>
        <sat>10</sat>
      </trkpt>
      <trkpt lat="42.306645" lon="-4.084137">
        <ele>809.1</ele>
        <time>2020-08-22T08:53:35Z</time>
        <sat>10</sat>
      </trkpt>
      <trkpt lat="42.306587" lon="-4.084224">
        <ele>809.2</ele>
        <time>2020-08-22T08:53:42Z</time>
        <sat>10</sat>
      </trkpt>
      <trkpt lat="42.306534" lon="-4.084314">
        <ele>809.1</ele>
        <time>2020-08-22T08:53:49Z</time>
        <sat>10</sat>
      </trkpt>
      <trkpt lat="42.306475" lon="-4.084392">
        <ele>808.6</ele>
        <time>2020-08-22T08:53:56Z</time>
        <sat>10</sat>
      </trkpt>
      <trkpt lat="42.306410" lon="-4.084465">
        <ele>809.4</ele>
        <time>2020-08-22T08:54:03Z</time>
        <sat>10</sat>
      </trkpt>
      <trkpt lat="42.306337" lon="-4.084538">
        <ele>809.3</ele>
        <time>2020-08-22T08:54:11Z</time>
        <sat>10</sat>
      </trkpt>
      <trkpt lat="42.306267" lon="-4.084615">
        <ele>809.2</ele>
        <time>2020-08-22T08:54:19Z</time>
        <sat>10</sat>
      </trkpt>
      <trkpt lat="42.306202" lon="-4.084681">
        <ele>809.2</ele>
        <time>2020-08-22T08:54:26Z</time>
        <sat>10</sat>
      </trkpt>
      <trkpt lat="42.306139" lon="-4.084759">
        <ele>809.1</ele>
        <time>2020-08-22T08:54:33Z</time>
        <sat>10</sat>
      </trkpt>
      <trkpt lat="42.306075" lon="-4.084848">
        <ele>809.0</ele>
        <time>2020-08-22T08:54:41Z</time>
        <sat>10</sat>
      </trkpt>
      <trkpt lat="42.306024" lon="-4.084934">
        <ele>809.1</ele>
        <time>2020-08-22T08:54:48Z</time>
        <sat>10</sat>
      </trkpt>
      <trkpt lat="42.305972" lon="-4.085022">
        <ele>808.9</ele>
        <time>2020-08-22T08:54:55Z</time>
        <sat>10</sat>
      </trkpt>
      <trkpt lat="42.305917" lon="-4.085117">
        <ele>808.8</ele>
        <time>2020-08-22T08:55:02Z</time>
        <sat>9</sat>
      </trkpt>
      <trkpt lat="42.305866" lon="-4.085211">
        <ele>808.7</ele>
        <time>2020-08-22T08:55:09Z</time>
        <sat>10</sat>
      </trkpt>
      <trkpt lat="42.305812" lon="-4.085297">
        <ele>808.7</ele>
        <time>2020-08-22T08:55:16Z</time>
        <sat>10</sat>
      </trkpt>
      <trkpt lat="42.305753" lon="-4.085380">
        <ele>808.7</ele>
        <time>2020-08-22T08:55:23Z</time>
        <sat>10</sat>
      </trkpt>
      <trkpt lat="42.305692" lon="-4.085466">
        <ele>808.6</ele>
        <time>2020-08-22T08:55:31Z</time>
        <sat>10</sat>
      </trkpt>
      <trkpt lat="42.305639" lon="-4.085552">
        <ele>808.6</ele>
        <time>2020-08-22T08:55:38Z</time>
        <sat>10</sat>
      </trkpt>
      <trkpt lat="42.305580" lon="-4.085631">
        <ele>808.7</ele>
        <time>2020-08-22T08:55:45Z</time>
        <sat>10</sat>
      </trkpt>
      <trkpt lat="42.305521" lon="-4.085709">
        <ele>808.7</ele>
        <time>2020-08-22T08:55:52Z</time>
        <sat>10</sat>
      </trkpt>
      <trkpt lat="42.305459" lon="-4.085781">
        <ele>808.7</ele>
        <time>2020-08-22T08:55:59Z</time>
        <sat>10</sat>
      </trkpt>
      <trkpt lat="42.305391" lon="-4.085865">
        <ele>808.7</ele>
        <time>2020-08-22T08:56:07Z</time>
        <sat>10</sat>
      </trkpt>
      <trkpt lat="42.305322" lon="-4.085948">
        <ele>808.7</ele>
        <time>2020-08-22T08:56:15Z</time>
        <sat>10</sat>
      </trkpt>
      <trkpt lat="42.305254" lon="-4.086026">
        <ele>808.8</ele>
        <time>2020-08-22T08:56:23Z</time>
        <sat>10</sat>
      </trkpt>
      <trkpt lat="42.305190" lon="-4.086100">
        <ele>809.0</ele>
        <time>2020-08-22T08:56:37Z</time>
        <sat>10</sat>
      </trkpt>
      <trkpt lat="42.305120" lon="-4.086159">
        <ele>809.2</ele>
        <time>2020-08-22T08:56:45Z</time>
        <sat>10</sat>
      </trkpt>
      <trkpt lat="42.305044" lon="-4.086228">
        <ele>809.4</ele>
        <time>2020-08-22T08:56:53Z</time>
        <sat>10</sat>
      </trkpt>
      <trkpt lat="42.304985" lon="-4.086300">
        <ele>809.6</ele>
        <time>2020-08-22T08:57:01Z</time>
        <sat>10</sat>
      </trkpt>
      <trkpt lat="42.304922" lon="-4.086380">
        <ele>809.9</ele>
        <time>2020-08-22T08:57:09Z</time>
        <sat>10</sat>
      </trkpt>
      <trkpt lat="42.304862" lon="-4.086466">
        <ele>810.3</ele>
        <time>2020-08-22T08:57:17Z</time>
        <sat>10</sat>
      </trkpt>
      <trkpt lat="42.304804" lon="-4.086564">
        <ele>810.5</ele>
        <time>2020-08-22T08:57:26Z</time>
        <sat>10</sat>
      </trkpt>
      <trkpt lat="42.304753" lon="-4.086652">
        <ele>810.8</ele>
        <time>2020-08-22T08:57:34Z</time>
        <sat>10</sat>
      </trkpt>
      <trkpt lat="42.304697" lon="-4.086738">
        <ele>811.4</ele>
        <time>2020-08-22T08:57:46Z</time>
        <sat>10</sat>
      </trkpt>
      <trkpt lat="42.304644" lon="-4.086831">
        <ele>811.7</ele>
        <time>2020-08-22T08:57:53Z</time>
        <sat>10</sat>
      </trkpt>
      <trkpt lat="42.304590" lon="-4.086917">
        <ele>811.8</ele>
        <time>2020-08-22T08:58:00Z</time>
        <sat>11</sat>
      </trkpt>
      <trkpt lat="42.304538" lon="-4.087016">
        <ele>811.6</ele>
        <time>2020-08-22T08:58:08Z</time>
        <sat>11</sat>
      </trkpt>
      <trkpt lat="42.304476" lon="-4.087106">
        <ele>811.5</ele>
        <time>2020-08-22T08:58:16Z</time>
        <sat>11</sat>
      </trkpt>
      <trkpt lat="42.304408" lon="-4.087182">
        <ele>811.3</ele>
        <time>2020-08-22T08:58:24Z</time>
        <sat>11</sat>
      </trkpt>
      <trkpt lat="42.304339" lon="-4.087255">
        <ele>811.2</ele>
        <time>2020-08-22T08:58:32Z</time>
        <sat>11</sat>
      </trkpt>
      <trkpt lat="42.304277" lon="-4.087334">
        <ele>811.2</ele>
        <time>2020-08-22T08:58:40Z</time>
        <sat>11</sat>
      </trkpt>
      <trkpt lat="42.304208" lon="-4.087413">
        <ele>811.2</ele>
        <time>2020-08-22T08:58:48Z</time>
        <sat>11</sat>
      </trkpt>
      <trkpt lat="42.304150" lon="-4.087499">
        <ele>811.2</ele>
        <time>2020-08-22T08:58:56Z</time>
        <sat>10</sat>
      </trkpt>
      <trkpt lat="42.304085" lon="-4.087584">
        <ele>811.1</ele>
        <time>2020-08-22T08:59:04Z</time>
        <sat>11</sat>
      </trkpt>
      <trkpt lat="42.304026" lon="-4.087671">
        <ele>811.0</ele>
        <time>2020-08-22T08:59:12Z</time>
        <sat>11</sat>
      </trkpt>
      <trkpt lat="42.303939" lon="-4.087699">
        <ele>810.9</ele>
        <time>2020-08-22T08:59:23Z</time>
        <sat>11</sat>
      </trkpt>
      <trkpt lat="42.303866" lon="-4.087654">
        <ele>810.8</ele>
        <time>2020-08-22T08:59:31Z</time>
        <sat>10</sat>
      </trkpt>
      <trkpt lat="42.303775" lon="-4.087630">
        <ele>810.6</ele>
        <time>2020-08-22T08:59:39Z</time>
        <sat>11</sat>
      </trkpt>
      <trkpt lat="42.303691" lon="-4.087594">
        <ele>810.3</ele>
        <time>2020-08-22T08:59:47Z</time>
        <sat>11</sat>
      </trkpt>
      <trkpt lat="42.303599" lon="-4.087566">
        <ele>809.8</ele>
        <time>2020-08-22T08:59:56Z</time>
        <sat>11</sat>
      </trkpt>
      <trkpt lat="42.303518" lon="-4.087545">
        <ele>809.5</ele>
        <time>2020-08-22T09:00:03Z</time>
        <sat>11</sat>
      </trkpt>
      <trkpt lat="42.303437" lon="-4.087510">
        <ele>809.3</ele>
        <time>2020-08-22T09:00:10Z</time>
        <sat>11</sat>
      </trkpt>
      <trkpt lat="42.303358" lon="-4.087478">
        <ele>809.1</ele>
        <time>2020-08-22T09:00:17Z</time>
        <sat>11</sat>
      </trkpt>
      <trkpt lat="42.303280" lon="-4.087437">
        <ele>808.8</ele>
        <time>2020-08-22T09:00:25Z</time>
        <sat>11</sat>
      </trkpt>
      <trkpt lat="42.303194" lon="-4.087413">
        <ele>808.2</ele>
        <time>2020-08-22T09:00:36Z</time>
        <sat>11</sat>
      </trkpt>
      <trkpt lat="42.303108" lon="-4.087413">
        <ele>807.5</ele>
        <time>2020-08-22T09:00:44Z</time>
        <sat>11</sat>
      </trkpt>
      <trkpt lat="42.303024" lon="-4.087434">
        <ele>806.8</ele>
        <time>2020-08-22T09:00:55Z</time>
        <sat>11</sat>
      </trkpt>
      <trkpt lat="42.302985" lon="-4.087539">
        <ele>806.6</ele>
        <time>2020-08-22T09:01:05Z</time>
        <sat>11</sat>
      </trkpt>
      <trkpt lat="42.302955" lon="-4.087643">
        <ele>806.7</ele>
        <time>2020-08-22T09:01:14Z</time>
        <sat>11</sat>
      </trkpt>
      <trkpt lat="42.302916" lon="-4.087748">
        <ele>806.7</ele>
        <time>2020-08-22T09:01:23Z</time>
        <sat>11</sat>
      </trkpt>
      <trkpt lat="42.302875" lon="-4.087845">
        <ele>806.7</ele>
        <time>2020-08-22T09:01:33Z</time>
        <sat>11</sat>
      </trkpt>
      <trkpt lat="42.302842" lon="-4.087951">
        <ele>806.8</ele>
        <time>2020-08-22T09:01:42Z</time>
        <sat>11</sat>
      </trkpt>
      <trkpt lat="42.302806" lon="-4.088051">
        <ele>806.8</ele>
        <time>2020-08-22T09:01:51Z</time>
        <sat>11</sat>
      </trkpt>
      <trkpt lat="42.302767" lon="-4.088148">
        <ele>806.7</ele>
        <time>2020-08-22T09:01:59Z</time>
        <sat>11</sat>
      </trkpt>
      <trkpt lat="42.302727" lon="-4.088245">
        <ele>806.6</ele>
        <time>2020-08-22T09:02:07Z</time>
        <sat>11</sat>
      </trkpt>
      <trkpt lat="42.302691" lon="-4.088344">
        <ele>806.6</ele>
        <time>2020-08-22T09:02:15Z</time>
        <sat>11</sat>
      </trkpt>
      <trkpt lat="42.302655" lon="-4.088448">
        <ele>806.7</ele>
        <time>2020-08-22T09:02:23Z</time>
        <sat>11</sat>
      </trkpt>
      <trkpt lat="42.302619" lon="-4.088545">
        <ele>806.7</ele>
        <time>2020-08-22T09:02:31Z</time>
        <sat>11</sat>
      </trkpt>
      <trkpt lat="42.302578" lon="-4.088652">
        <ele>806.7</ele>
        <time>2020-08-22T09:02:40Z</time>
        <sat>11</sat>
      </trkpt>
      <trkpt lat="42.302536" lon="-4.088753">
        <ele>806.6</ele>
        <time>2020-08-22T09:02:50Z</time>
        <sat>11</sat>
      </trkpt>
      <trkpt lat="42.302499" lon="-4.088857">
        <ele>806.6</ele>
        <time>2020-08-22T09:02:59Z</time>
        <sat>11</sat>
      </trkpt>
      <trkpt lat="42.302459" lon="-4.088971">
        <ele>806.6</ele>
        <time>2020-08-22T09:03:08Z</time>
        <sat>11</sat>
      </trkpt>
      <trkpt lat="42.302422" lon="-4.089078">
        <ele>806.7</ele>
        <time>2020-08-22T09:03:17Z</time>
        <sat>11</sat>
      </trkpt>
      <trkpt lat="42.302383" lon="-4.089181">
        <ele>806.6</ele>
        <time>2020-08-22T09:03:26Z</time>
        <sat>11</sat>
      </trkpt>
      <trkpt lat="42.302349" lon="-4.089281">
        <ele>806.7</ele>
        <time>2020-08-22T09:03:34Z</time>
        <sat>11</sat>
      </trkpt>
      <trkpt lat="42.302303" lon="-4.089378">
        <ele>806.7</ele>
        <time>2020-08-22T09:03:42Z</time>
        <sat>11</sat>
      </trkpt>
      <trkpt lat="42.302263" lon="-4.089487">
        <ele>806.8</ele>
        <time>2020-08-22T09:03:51Z</time>
        <sat>11</sat>
      </trkpt>
      <trkpt lat="42.302219" lon="-4.089592">
        <ele>806.8</ele>
        <time>2020-08-22T09:04:00Z</time>
        <sat>11</sat>
      </trkpt>
      <trkpt lat="42.302180" lon="-4.089702">
        <ele>806.9</ele>
        <time>2020-08-22T09:04:09Z</time>
        <sat>11</sat>
      </trkpt>
      <trkpt lat="42.302142" lon="-4.089799">
        <ele>806.9</ele>
        <time>2020-08-22T09:04:17Z</time>
        <sat>11</sat>
      </trkpt>
      <trkpt lat="42.302098" lon="-4.089892">
        <ele>806.7</ele>
        <time>2020-08-22T09:04:25Z</time>
        <sat>11</sat>
      </trkpt>
      <trkpt lat="42.302059" lon="-4.089996">
        <ele>806.8</ele>
        <time>2020-08-22T09:04:34Z</time>
        <sat>11</sat>
      </trkpt>
      <trkpt lat="42.302022" lon="-4.090107">
        <ele>806.7</ele>
        <time>2020-08-22T09:04:43Z</time>
        <sat>11</sat>
      </trkpt>
      <trkpt lat="42.301984" lon="-4.090209">
        <ele>806.7</ele>
        <time>2020-08-22T09:04:51Z</time>
        <sat>11</sat>
      </trkpt>
      <trkpt lat="42.301948" lon="-4.090310">
        <ele>806.7</ele>
        <time>2020-08-22T09:04:59Z</time>
        <sat>11</sat>
      </trkpt>
      <trkpt lat="42.301911" lon="-4.090415">
        <ele>806.6</ele>
        <time>2020-08-22T09:05:07Z</time>
        <sat>11</sat>
      </trkpt>
      <trkpt lat="42.301875" lon="-4.090521">
        <ele>806.6</ele>
        <time>2020-08-22T09:05:15Z</time>
        <sat>11</sat>
      </trkpt>
      <trkpt lat="42.301831" lon="-4.090618">
        <ele>806.5</ele>
        <time>2020-08-22T09:05:23Z</time>
        <sat>11</sat>
      </trkpt>
      <trkpt lat="42.301788" lon="-4.090725">
        <ele>806.5</ele>
        <time>2020-08-22T09:05:32Z</time>
        <sat>11</sat>
      </trkpt>
      <trkpt lat="42.301736" lon="-4.090821">
        <ele>806.5</ele>
        <time>2020-08-22T09:05:40Z</time>
        <sat>11</sat>
      </trkpt>
      <trkpt lat="42.301695" lon="-4.090920">
        <ele>806.4</ele>
        <time>2020-08-22T09:05:47Z</time>
        <sat>11</sat>
      </trkpt>
      <trkpt lat="42.301647" lon="-4.091026">
        <ele>806.4</ele>
        <time>2020-08-22T09:05:55Z</time>
        <sat>11</sat>
      </trkpt>
      <trkpt lat="42.301594" lon="-4.091114">
        <ele>806.4</ele>
        <time>2020-08-22T09:06:02Z</time>
        <sat>11</sat>
      </trkpt>
      <trkpt lat="42.301537" lon="-4.091192">
        <ele>806.4</ele>
        <time>2020-08-22T09:06:09Z</time>
        <sat>11</sat>
      </trkpt>
      <trkpt lat="42.301474" lon="-4.091266">
        <ele>806.3</ele>
        <time>2020-08-22T09:06:16Z</time>
        <sat>11</sat>
      </trkpt>
      <trkpt lat="42.301407" lon="-4.091332">
        <ele>806.3</ele>
        <time>2020-08-22T09:06:24Z</time>
        <sat>11</sat>
      </trkpt>
      <trkpt lat="42.301333" lon="-4.091399">
        <ele>806.4</ele>
        <time>2020-08-22T09:06:32Z</time>
        <sat>11</sat>
      </trkpt>
      <trkpt lat="42.301254" lon="-4.091448">
        <ele>806.4</ele>
        <time>2020-08-22T09:06:40Z</time>
        <sat>11</sat>
      </trkpt>
      <trkpt lat="42.301171" lon="-4.091501">
        <ele>806.3</ele>
        <time>2020-08-22T09:06:50Z</time>
        <sat>10</sat>
      </trkpt>
      <trkpt lat="42.301094" lon="-4.091543">
        <ele>806.1</ele>
        <time>2020-08-22T09:06:57Z</time>
        <sat>11</sat>
      </trkpt>
      <trkpt lat="42.301003" lon="-4.091591">
        <ele>806.1</ele>
        <time>2020-08-22T09:07:05Z</time>
        <sat>10</sat>
      </trkpt>
      <trkpt lat="42.300928" lon="-4.091632">
        <ele>805.9</ele>
        <time>2020-08-22T09:07:12Z</time>
        <sat>10</sat>
      </trkpt>
      <trkpt lat="42.300850" lon="-4.091677">
        <ele>805.9</ele>
        <time>2020-08-22T09:07:21Z</time>
        <sat>10</sat>
      </trkpt>
      <trkpt lat="42.300778" lon="-4.091732">
        <ele>805.9</ele>
        <time>2020-08-22T09:07:28Z</time>
        <sat>10</sat>
      </trkpt>
      <trkpt lat="42.300698" lon="-4.091779">
        <ele>805.9</ele>
        <time>2020-08-22T09:07:36Z</time>
        <sat>10</sat>
      </trkpt>
      <trkpt lat="42.300618" lon="-4.091822">
        <ele>805.8</ele>
        <time>2020-08-22T09:07:44Z</time>
        <sat>10</sat>
      </trkpt>
      <trkpt lat="42.300546" lon="-4.091872">
        <ele>805.7</ele>
        <time>2020-08-22T09:07:51Z</time>
        <sat>10</sat>
      </trkpt>
      <trkpt lat="42.300466" lon="-4.091915">
        <ele>805.6</ele>
        <time>2020-08-22T09:07:58Z</time>
        <sat>11</sat>
      </trkpt>
      <trkpt lat="42.300392" lon="-4.091984">
        <ele>805.7</ele>
        <time>2020-08-22T09:08:06Z</time>
        <sat>11</sat>
      </trkpt>
      <trkpt lat="42.300316" lon="-4.092021">
        <ele>805.6</ele>
        <time>2020-08-22T09:08:13Z</time>
        <sat>10</sat>
      </trkpt>
      <trkpt lat="42.300240" lon="-4.092066">
        <ele>805.6</ele>
        <time>2020-08-22T09:08:21Z</time>
        <sat>11</sat>
      </trkpt>
      <trkpt lat="42.300161" lon="-4.092114">
        <ele>805.6</ele>
        <time>2020-08-22T09:08:31Z</time>
        <sat>11</sat>
      </trkpt>
      <trkpt lat="42.300084" lon="-4.092158">
        <ele>805.6</ele>
        <time>2020-08-22T09:08:37Z</time>
        <sat>11</sat>
      </trkpt>
      <trkpt lat="42.300002" lon="-4.092208">
        <ele>805.7</ele>
        <time>2020-08-22T09:08:44Z</time>
        <sat>10</sat>
      </trkpt>
      <trkpt lat="42.299926" lon="-4.092266">
        <ele>805.7</ele>
        <time>2020-08-22T09:08:51Z</time>
        <sat>11</sat>
      </trkpt>
      <trkpt lat="42.299849" lon="-4.092322">
        <ele>805.6</ele>
        <time>2020-08-22T09:08:59Z</time>
        <sat>11</sat>
      </trkpt>
      <trkpt lat="42.299767" lon="-4.092371">
        <ele>805.6</ele>
        <time>2020-08-22T09:09:07Z</time>
        <sat>11</sat>
      </trkpt>
      <trkpt lat="42.299693" lon="-4.092418">
        <ele>805.7</ele>
        <time>2020-08-22T09:09:14Z</time>
        <sat>11</sat>
      </trkpt>
      <trkpt lat="42.299622" lon="-4.092469">
        <ele>805.8</ele>
        <time>2020-08-22T09:09:21Z</time>
        <sat>11</sat>
      </trkpt>
      <trkpt lat="42.299539" lon="-4.092524">
        <ele>805.8</ele>
        <time>2020-08-22T09:09:29Z</time>
        <sat>11</sat>
      </trkpt>
      <trkpt lat="42.299456" lon="-4.092562">
        <ele>805.9</ele>
        <time>2020-08-22T09:09:36Z</time>
        <sat>11</sat>
      </trkpt>
      <trkpt lat="42.299380" lon="-4.092613">
        <ele>805.9</ele>
        <time>2020-08-22T09:09:43Z</time>
        <sat>11</sat>
      </trkpt>
      <trkpt lat="42.299294" lon="-4.092660">
        <ele>806.0</ele>
        <time>2020-08-22T09:09:51Z</time>
        <sat>11</sat>
      </trkpt>
      <trkpt lat="42.299212" lon="-4.092711">
        <ele>806.0</ele>
        <time>2020-08-22T09:09:58Z</time>
        <sat>11</sat>
      </trkpt>
      <trkpt lat="42.299137" lon="-4.092754">
        <ele>805.4</ele>
        <time>2020-08-22T09:10:05Z</time>
        <sat>11</sat>
      </trkpt>
      <trkpt lat="42.299058" lon="-4.092804">
        <ele>805.5</ele>
        <time>2020-08-22T09:10:14Z</time>
        <sat>11</sat>
      </trkpt>
      <trkpt lat="42.298984" lon="-4.092856">
        <ele>805.9</ele>
        <time>2020-08-22T09:10:21Z</time>
        <sat>11</sat>
      </trkpt>
      <trkpt lat="42.298900" lon="-4.092906">
        <ele>805.9</ele>
        <time>2020-08-22T09:10:29Z</time>
        <sat>11</sat>
      </trkpt>
      <trkpt lat="42.298824" lon="-4.092958">
        <ele>806.0</ele>
        <time>2020-08-22T09:10:37Z</time>
        <sat>11</sat>
      </trkpt>
      <trkpt lat="42.298753" lon="-4.093020">
        <ele>806.4</ele>
        <time>2020-08-22T09:10:44Z</time>
        <sat>11</sat>
      </trkpt>
      <trkpt lat="42.298677" lon="-4.093079">
        <ele>806.5</ele>
        <time>2020-08-22T09:10:53Z</time>
        <sat>11</sat>
      </trkpt>
      <trkpt lat="42.298597" lon="-4.093142">
        <ele>806.5</ele>
        <time>2020-08-22T09:11:01Z</time>
        <sat>11</sat>
      </trkpt>
      <trkpt lat="42.298529" lon="-4.093209">
        <ele>806.1</ele>
        <time>2020-08-22T09:11:08Z</time>
        <sat>11</sat>
      </trkpt>
      <trkpt lat="42.298453" lon="-4.093273">
        <ele>806.1</ele>
        <time>2020-08-22T09:11:16Z</time>
        <sat>11</sat>
      </trkpt>
      <trkpt lat="42.298384" lon="-4.093340">
        <ele>810.6</ele>
        <time>2020-08-22T09:41:03Z</time>
        <sat>11</sat>
      </trkpt>
      <trkpt lat="42.298308" lon="-4.093396">
        <ele>810.6</ele>
        <time>2020-08-22T09:41:15Z</time>
        <sat>10</sat>
      </trkpt>
      <trkpt lat="42.298239" lon="-4.093455">
        <ele>810.6</ele>
        <time>2020-08-22T09:41:25Z</time>
        <sat>10</sat>
      </trkpt>
      <trkpt lat="42.298163" lon="-4.093514">
        <ele>810.7</ele>
        <time>2020-08-22T09:41:35Z</time>
        <sat>11</sat>
      </trkpt>
      <trkpt lat="42.298088" lon="-4.093565">
        <ele>810.6</ele>
        <time>2020-08-22T09:41:48Z</time>
        <sat>11</sat>
      </trkpt>
      <trkpt lat="42.298011" lon="-4.093629">
        <ele>810.4</ele>
        <time>2020-08-22T09:41:58Z</time>
        <sat>11</sat>
      </trkpt>
      <trkpt lat="42.297939" lon="-4.093690">
        <ele>810.3</ele>
        <time>2020-08-22T09:42:09Z</time>
        <sat>11</sat>
      </trkpt>
      <trkpt lat="42.297868" lon="-4.093754">
        <ele>810.2</ele>
        <time>2020-08-22T09:42:21Z</time>
        <sat>11</sat>
      </trkpt>
      <trkpt lat="42.297789" lon="-4.093804">
        <ele>810.2</ele>
        <time>2020-08-22T09:42:30Z</time>
        <sat>9</sat>
      </trkpt>
      <trkpt lat="42.297715" lon="-4.093863">
        <ele>810.1</ele>
        <time>2020-08-22T09:42:39Z</time>
        <sat>11</sat>
      </trkpt>
      <trkpt lat="42.297641" lon="-4.093923">
        <ele>810.0</ele>
        <time>2020-08-22T09:42:48Z</time>
        <sat>10</sat>
      </trkpt>
      <trkpt lat="42.297568" lon="-4.093993">
        <ele>809.9</ele>
        <time>2020-08-22T09:42:58Z</time>
        <sat>11</sat>
      </trkpt>
      <trkpt lat="42.297500" lon="-4.094052">
        <ele>809.4</ele>
        <time>2020-08-22T09:43:30Z</time>
        <sat>11</sat>
      </trkpt>
      <trkpt lat="42.297437" lon="-4.094124">
        <ele>809.7</ele>
        <time>2020-08-22T09:43:53Z</time>
        <sat>11</sat>
      </trkpt>
      <trkpt lat="42.297364" lon="-4.094177">
        <ele>809.8</ele>
        <time>2020-08-22T09:44:03Z</time>
        <sat>11</sat>
      </trkpt>
      <trkpt lat="42.297288" lon="-4.094230">
        <ele>809.5</ele>
        <time>2020-08-22T09:44:12Z</time>
        <sat>11</sat>
      </trkpt>
      <trkpt lat="42.297215" lon="-4.094286">
        <ele>809.5</ele>
        <time>2020-08-22T09:44:21Z</time>
        <sat>12</sat>
      </trkpt>
      <trkpt lat="42.297143" lon="-4.094348">
        <ele>809.3</ele>
        <time>2020-08-22T09:44:32Z</time>
        <sat>12</sat>
      </trkpt>
      <trkpt lat="42.297072" lon="-4.094411">
        <ele>809.2</ele>
        <time>2020-08-22T09:44:40Z</time>
        <sat>11</sat>
      </trkpt>
      <trkpt lat="42.296996" lon="-4.094461">
        <ele>809.0</ele>
        <time>2020-08-22T09:44:50Z</time>
        <sat>11</sat>
      </trkpt>
      <trkpt lat="42.296923" lon="-4.094514">
        <ele>808.9</ele>
        <time>2020-08-22T09:44:57Z</time>
        <sat>11</sat>
      </trkpt>
      <trkpt lat="42.296847" lon="-4.094587">
        <ele>808.9</ele>
        <time>2020-08-22T09:45:05Z</time>
        <sat>12</sat>
      </trkpt>
      <trkpt lat="42.296773" lon="-4.094651">
        <ele>808.9</ele>
        <time>2020-08-22T09:45:13Z</time>
        <sat>12</sat>
      </trkpt>
      <trkpt lat="42.296692" lon="-4.094709">
        <ele>808.8</ele>
        <time>2020-08-22T09:45:22Z</time>
        <sat>12</sat>
      </trkpt>
      <trkpt lat="42.296621" lon="-4.094768">
        <ele>808.7</ele>
        <time>2020-08-22T09:45:30Z</time>
        <sat>10</sat>
      </trkpt>
      <trkpt lat="42.296546" lon="-4.094827">
        <ele>808.6</ele>
        <time>2020-08-22T09:45:38Z</time>
        <sat>12</sat>
      </trkpt>
      <trkpt lat="42.296477" lon="-4.094889">
        <ele>808.5</ele>
        <time>2020-08-22T09:45:46Z</time>
        <sat>12</sat>
      </trkpt>
      <trkpt lat="42.296402" lon="-4.094955">
        <ele>808.5</ele>
        <time>2020-08-22T09:45:53Z</time>
        <sat>11</sat>
      </trkpt>
      <trkpt lat="42.296332" lon="-4.095014">
        <ele>808.5</ele>
        <time>2020-08-22T09:46:00Z</time>
        <sat>12</sat>
      </trkpt>
      <trkpt lat="42.296260" lon="-4.095081">
        <ele>808.6</ele>
        <time>2020-08-22T09:46:07Z</time>
        <sat>12</sat>
      </trkpt>
      <trkpt lat="42.296187" lon="-4.095141">
        <ele>808.6</ele>
        <time>2020-08-22T09:46:14Z</time>
        <sat>12</sat>
      </trkpt>
      <trkpt lat="42.296109" lon="-4.095205">
        <ele>808.6</ele>
        <time>2020-08-22T09:46:22Z</time>
        <sat>12</sat>
      </trkpt>
      <trkpt lat="42.296032" lon="-4.095263">
        <ele>808.6</ele>
        <time>2020-08-22T09:46:30Z</time>
        <sat>12</sat>
      </trkpt>
      <trkpt lat="42.295958" lon="-4.095326">
        <ele>808.6</ele>
        <time>2020-08-22T09:46:38Z</time>
        <sat>12</sat>
      </trkpt>
      <trkpt lat="42.295888" lon="-4.095383">
        <ele>808.6</ele>
        <time>2020-08-22T09:46:46Z</time>
        <sat>12</sat>
      </trkpt>
      <trkpt lat="42.295805" lon="-4.095446">
        <ele>808.5</ele>
        <time>2020-08-22T09:46:54Z</time>
        <sat>10</sat>
      </trkpt>
      <trkpt lat="42.295733" lon="-4.095501">
        <ele>808.4</ele>
        <time>2020-08-22T09:47:01Z</time>
        <sat>12</sat>
      </trkpt>
      <trkpt lat="42.295658" lon="-4.095563">
        <ele>808.4</ele>
        <time>2020-08-22T09:47:10Z</time>
        <sat>11</sat>
      </trkpt>
      <trkpt lat="42.295584" lon="-4.095614">
        <ele>808.5</ele>
        <time>2020-08-22T09:47:18Z</time>
        <sat>11</sat>
      </trkpt>
      <trkpt lat="42.295506" lon="-4.095671">
        <ele>808.4</ele>
        <time>2020-08-22T09:47:25Z</time>
        <sat>11</sat>
      </trkpt>
      <trkpt lat="42.295433" lon="-4.095729">
        <ele>808.4</ele>
        <time>2020-08-22T09:47:32Z</time>
        <sat>11</sat>
      </trkpt>
      <trkpt lat="42.295356" lon="-4.095796">
        <ele>808.4</ele>
        <time>2020-08-22T09:47:41Z</time>
        <sat>11</sat>
      </trkpt>
      <trkpt lat="42.295282" lon="-4.095859">
        <ele>808.5</ele>
        <time>2020-08-22T09:47:49Z</time>
        <sat>11</sat>
      </trkpt>
      <trkpt lat="42.295210" lon="-4.095923">
        <ele>808.7</ele>
        <time>2020-08-22T09:47:56Z</time>
        <sat>10</sat>
      </trkpt>
      <trkpt lat="42.295141" lon="-4.096002">
        <ele>808.8</ele>
        <time>2020-08-22T09:48:03Z</time>
        <sat>11</sat>
      </trkpt>
      <trkpt lat="42.295069" lon="-4.096080">
        <ele>808.8</ele>
        <time>2020-08-22T09:48:11Z</time>
        <sat>11</sat>
      </trkpt>
      <trkpt lat="42.295000" lon="-4.096161">
        <ele>808.8</ele>
        <time>2020-08-22T09:48:19Z</time>
        <sat>11</sat>
      </trkpt>
      <trkpt lat="42.294941" lon="-4.096239">
        <ele>808.8</ele>
        <time>2020-08-22T09:48:27Z</time>
        <sat>11</sat>
      </trkpt>
      <trkpt lat="42.294874" lon="-4.096323">
        <ele>808.7</ele>
        <time>2020-08-22T09:48:35Z</time>
        <sat>11</sat>
      </trkpt>
      <trkpt lat="42.294808" lon="-4.096410">
        <ele>808.6</ele>
        <time>2020-08-22T09:48:43Z</time>
        <sat>11</sat>
      </trkpt>
      <trkpt lat="42.294745" lon="-4.096494">
        <ele>808.6</ele>
        <time>2020-08-22T09:48:51Z</time>
        <sat>11</sat>
      </trkpt>
      <trkpt lat="42.294681" lon="-4.096584">
        <ele>808.5</ele>
        <time>2020-08-22T09:48:59Z</time>
        <sat>11</sat>
      </trkpt>
      <trkpt lat="42.294615" lon="-4.096666">
        <ele>808.6</ele>
        <time>2020-08-22T09:49:07Z</time>
        <sat>11</sat>
      </trkpt>
      <trkpt lat="42.294553" lon="-4.096753">
        <ele>808.6</ele>
        <time>2020-08-22T09:49:15Z</time>
        <sat>11</sat>
      </trkpt>
      <trkpt lat="42.294490" lon="-4.096835">
        <ele>808.4</ele>
        <time>2020-08-22T09:49:23Z</time>
        <sat>11</sat>
      </trkpt>
      <trkpt lat="42.294426" lon="-4.096917">
        <ele>808.3</ele>
        <time>2020-08-22T09:49:31Z</time>
        <sat>11</sat>
      </trkpt>
      <trkpt lat="42.294367" lon="-4.096995">
        <ele>808.0</ele>
        <time>2020-08-22T09:49:38Z</time>
        <sat>11</sat>
      </trkpt>
      <trkpt lat="42.294303" lon="-4.097077">
        <ele>807.8</ele>
        <time>2020-08-22T09:49:46Z</time>
        <sat>11</sat>
      </trkpt>
      <trkpt lat="42.294240" lon="-4.097158">
        <ele>807.6</ele>
        <time>2020-08-22T09:49:54Z</time>
        <sat>11</sat>
      </trkpt>
      <trkpt lat="42.294179" lon="-4.097239">
        <ele>807.5</ele>
        <time>2020-08-22T09:50:02Z</time>
        <sat>12</sat>
      </trkpt>
      <trkpt lat="42.294121" lon="-4.097323">
        <ele>807.4</ele>
        <time>2020-08-22T09:50:09Z</time>
        <sat>11</sat>
      </trkpt>
      <trkpt lat="42.294061" lon="-4.097404">
        <ele>807.4</ele>
        <time>2020-08-22T09:50:17Z</time>
        <sat>12</sat>
      </trkpt>
      <trkpt lat="42.294002" lon="-4.097482">
        <ele>807.2</ele>
        <time>2020-08-22T09:50:24Z</time>
        <sat>12</sat>
      </trkpt>
      <trkpt lat="42.293943" lon="-4.097565">
        <ele>807.2</ele>
        <time>2020-08-22T09:50:31Z</time>
        <sat>11</sat>
      </trkpt>
      <trkpt lat="42.293883" lon="-4.097639">
        <ele>807.0</ele>
        <time>2020-08-22T09:50:38Z</time>
        <sat>11</sat>
      </trkpt>
      <trkpt lat="42.293820" lon="-4.097720">
        <ele>806.9</ele>
        <time>2020-08-22T09:50:47Z</time>
        <sat>9</sat>
      </trkpt>
      <trkpt lat="42.293754" lon="-4.097804">
        <ele>806.6</ele>
        <time>2020-08-22T09:50:56Z</time>
        <sat>11</sat>
      </trkpt>
      <trkpt lat="42.293691" lon="-4.097890">
        <ele>805.6</ele>
        <time>2020-08-22T09:51:06Z</time>
        <sat>10</sat>
      </trkpt>
      <trkpt lat="42.293633" lon="-4.097972">
        <ele>806.5</ele>
        <time>2020-08-22T09:51:13Z</time>
        <sat>11</sat>
      </trkpt>
      <trkpt lat="42.293570" lon="-4.098057">
        <ele>806.3</ele>
        <time>2020-08-22T09:51:21Z</time>
        <sat>11</sat>
      </trkpt>
      <trkpt lat="42.293504" lon="-4.098147">
        <ele>806.2</ele>
        <time>2020-08-22T09:51:29Z</time>
        <sat>11</sat>
      </trkpt>
      <trkpt lat="42.293443" lon="-4.098225">
        <ele>806.2</ele>
        <time>2020-08-22T09:51:36Z</time>
        <sat>11</sat>
      </trkpt>
      <trkpt lat="42.293384" lon="-4.098322">
        <ele>806.0</ele>
        <time>2020-08-22T09:51:49Z</time>
        <sat>10</sat>
      </trkpt>
      <trkpt lat="42.293313" lon="-4.098391">
        <ele>806.0</ele>
        <time>2020-08-22T09:51:56Z</time>
        <sat>10</sat>
      </trkpt>
      <trkpt lat="42.293253" lon="-4.098473">
        <ele>805.9</ele>
        <time>2020-08-22T09:52:03Z</time>
        <sat>11</sat>
      </trkpt>
      <trkpt lat="42.293189" lon="-4.098562">
        <ele>805.6</ele>
        <time>2020-08-22T09:52:11Z</time>
        <sat>11</sat>
      </trkpt>
      <trkpt lat="42.293118" lon="-4.098617">
        <ele>805.4</ele>
        <time>2020-08-22T09:52:23Z</time>
        <sat>11</sat>
      </trkpt>
      <trkpt lat="42.293045" lon="-4.098687">
        <ele>805.3</ele>
        <time>2020-08-22T09:52:41Z</time>
        <sat>9</sat>
      </trkpt>
      <trkpt lat="42.292962" lon="-4.098718">
        <ele>805.0</ele>
        <time>2020-08-22T09:53:20Z</time>
        <sat>10</sat>
      </trkpt>
      <trkpt lat="42.292887" lon="-4.098786">
        <ele>804.8</ele>
        <time>2020-08-22T09:53:33Z</time>
        <sat>9</sat>
      </trkpt>
      <trkpt lat="42.292820" lon="-4.098857">
        <ele>804.8</ele>
        <time>2020-08-22T09:53:40Z</time>
        <sat>10</sat>
      </trkpt>
      <trkpt lat="42.292758" lon="-4.098936">
        <ele>804.4</ele>
        <time>2020-08-22T09:54:20Z</time>
        <sat>10</sat>
      </trkpt>
      <trkpt lat="42.292734" lon="-4.099048">
        <ele>804.5</ele>
        <time>2020-08-22T09:54:55Z</time>
        <sat>9</sat>
      </trkpt>
      <trkpt lat="42.292688" lon="-4.099143">
        <ele>804.1</ele>
        <time>2020-08-22T09:55:14Z</time>
        <sat>10</sat>
      </trkpt>
      <trkpt lat="42.292658" lon="-4.099265">
        <ele>803.9</ele>
        <time>2020-08-22T09:55:23Z</time>
        <sat>9</sat>
      </trkpt>
      <trkpt lat="42.292630" lon="-4.099372">
        <ele>804.1</ele>
        <time>2020-08-22T09:55:52Z</time>
        <sat>9</sat>
      </trkpt>
      <trkpt lat="42.292591" lon="-4.099478">
        <ele>804.1</ele>
        <time>2020-08-22T09:55:59Z</time>
        <sat>11</sat>
      </trkpt>
      <trkpt lat="42.292547" lon="-4.099572">
        <ele>804.0</ele>
        <time>2020-08-22T09:56:05Z</time>
        <sat>10</sat>
      </trkpt>
      <trkpt lat="42.292491" lon="-4.099672">
        <ele>804.0</ele>
        <time>2020-08-22T09:56:14Z</time>
        <sat>10</sat>
      </trkpt>
      <trkpt lat="42.292448" lon="-4.099774">
        <ele>804.2</ele>
        <time>2020-08-22T09:56:22Z</time>
        <sat>10</sat>
      </trkpt>
      <trkpt lat="42.292402" lon="-4.099879">
        <ele>804.6</ele>
        <time>2020-08-22T09:56:52Z</time>
        <sat>11</sat>
      </trkpt>
      <trkpt lat="42.292367" lon="-4.099988">
        <ele>804.4</ele>
        <time>2020-08-22T09:57:04Z</time>
        <sat>11</sat>
      </trkpt>
      <trkpt lat="42.292325" lon="-4.100093">
        <ele>804.4</ele>
        <time>2020-08-22T09:57:13Z</time>
        <sat>11</sat>
      </trkpt>
      <trkpt lat="42.292286" lon="-4.100200">
        <ele>804.5</ele>
        <time>2020-08-22T09:57:21Z</time>
        <sat>11</sat>
      </trkpt>
      <trkpt lat="42.292240" lon="-4.100297">
        <ele>802.3</ele>
        <time>2020-08-22T09:57:31Z</time>
        <sat>11</sat>
      </trkpt>
      <trkpt lat="42.292202" lon="-4.100409">
        <ele>805.9</ele>
        <time>2020-08-22T09:57:40Z</time>
        <sat>11</sat>
      </trkpt>
      <trkpt lat="42.292166" lon="-4.100517">
        <ele>805.3</ele>
        <time>2020-08-22T09:57:48Z</time>
        <sat>11</sat>
      </trkpt>
      <trkpt lat="42.292128" lon="-4.100618">
        <ele>804.7</ele>
        <time>2020-08-22T09:57:56Z</time>
        <sat>11</sat>
      </trkpt>
      <trkpt lat="42.292088" lon="-4.100725">
        <ele>804.5</ele>
        <time>2020-08-22T09:58:04Z</time>
        <sat>11</sat>
      </trkpt>
      <trkpt lat="42.292050" lon="-4.100830">
        <ele>804.4</ele>
        <time>2020-08-22T09:58:12Z</time>
        <sat>10</sat>
      </trkpt>
      <trkpt lat="42.292006" lon="-4.100936">
        <ele>804.3</ele>
        <time>2020-08-22T09:58:20Z</time>
        <sat>11</sat>
      </trkpt>
      <trkpt lat="42.291970" lon="-4.101040">
        <ele>804.1</ele>
        <time>2020-08-22T09:58:28Z</time>
        <sat>11</sat>
      </trkpt>
      <trkpt lat="42.291934" lon="-4.101141">
        <ele>804.3</ele>
        <time>2020-08-22T09:58:36Z</time>
        <sat>11</sat>
      </trkpt>
      <trkpt lat="42.291894" lon="-4.101243">
        <ele>804.3</ele>
        <time>2020-08-22T09:58:43Z</time>
        <sat>11</sat>
      </trkpt>
      <trkpt lat="42.291844" lon="-4.101334">
        <ele>804.3</ele>
        <time>2020-08-22T09:58:55Z</time>
        <sat>11</sat>
      </trkpt>
      <trkpt lat="42.291796" lon="-4.101434">
        <ele>804.3</ele>
        <time>2020-08-22T09:59:10Z</time>
        <sat>11</sat>
      </trkpt>
      <trkpt lat="42.291758" lon="-4.101536">
        <ele>804.2</ele>
        <time>2020-08-22T09:59:16Z</time>
        <sat>11</sat>
      </trkpt>
      <trkpt lat="42.291721" lon="-4.101638">
        <ele>804.2</ele>
        <time>2020-08-22T09:59:23Z</time>
        <sat>11</sat>
      </trkpt>
      <trkpt lat="42.291680" lon="-4.101738">
        <ele>804.2</ele>
        <time>2020-08-22T09:59:30Z</time>
        <sat>11</sat>
      </trkpt>
      <trkpt lat="42.291652" lon="-4.101847">
        <ele>804.1</ele>
        <time>2020-08-22T09:59:38Z</time>
        <sat>11</sat>
      </trkpt>
      <trkpt lat="42.291626" lon="-4.101962">
        <ele>803.8</ele>
        <time>2020-08-22T09:59:47Z</time>
        <sat>10</sat>
      </trkpt>
      <trkpt lat="42.291603" lon="-4.102080">
        <ele>803.7</ele>
        <time>2020-08-22T09:59:55Z</time>
        <sat>11</sat>
      </trkpt>
      <trkpt lat="42.291586" lon="-4.102197">
        <ele>803.6</ele>
        <time>2020-08-22T10:00:03Z</time>
        <sat>11</sat>
      </trkpt>
      <trkpt lat="42.291561" lon="-4.102315">
        <ele>803.4</ele>
        <time>2020-08-22T10:00:11Z</time>
        <sat>11</sat>
      </trkpt>
      <trkpt lat="42.291543" lon="-4.102437">
        <ele>803.4</ele>
        <time>2020-08-22T10:00:19Z</time>
        <sat>11</sat>
      </trkpt>
      <trkpt lat="42.291530" lon="-4.102548">
        <ele>803.4</ele>
        <time>2020-08-22T10:00:26Z</time>
        <sat>11</sat>
      </trkpt>
      <trkpt lat="42.291515" lon="-4.102666">
        <ele>803.3</ele>
        <time>2020-08-22T10:00:34Z</time>
        <sat>12</sat>
      </trkpt>
      <trkpt lat="42.291507" lon="-4.102776">
        <ele>803.3</ele>
        <time>2020-08-22T10:00:41Z</time>
        <sat>11</sat>
      </trkpt>
      <trkpt lat="42.291500" lon="-4.102885">
        <ele>803.0</ele>
        <time>2020-08-22T10:00:48Z</time>
        <sat>12</sat>
      </trkpt>
      <trkpt lat="42.291491" lon="-4.103001">
        <ele>802.7</ele>
        <time>2020-08-22T10:00:55Z</time>
        <sat>11</sat>
      </trkpt>
      <trkpt lat="42.291496" lon="-4.103113">
        <ele>802.1</ele>
        <time>2020-08-22T10:01:03Z</time>
        <sat>11</sat>
      </trkpt>
      <trkpt lat="42.291492" lon="-4.103223">
        <ele>802.2</ele>
        <time>2020-08-22T10:01:10Z</time>
        <sat>12</sat>
      </trkpt>
      <trkpt lat="42.291496" lon="-4.103332">
        <ele>802.4</ele>
        <time>2020-08-22T10:01:17Z</time>
        <sat>12</sat>
      </trkpt>
      <trkpt lat="42.291498" lon="-4.103448">
        <ele>802.5</ele>
        <time>2020-08-22T10:01:25Z</time>
        <sat>12</sat>
      </trkpt>
      <trkpt lat="42.291501" lon="-4.103557">
        <ele>802.7</ele>
        <time>2020-08-22T10:01:32Z</time>
        <sat>12</sat>
      </trkpt>
      <trkpt lat="42.291508" lon="-4.103677">
        <ele>802.8</ele>
        <time>2020-08-22T10:01:40Z</time>
        <sat>12</sat>
      </trkpt>
      <trkpt lat="42.291507" lon="-4.103787">
        <ele>802.8</ele>
        <time>2020-08-22T10:01:47Z</time>
        <sat>12</sat>
      </trkpt>
      <trkpt lat="42.291513" lon="-4.103911">
        <ele>802.7</ele>
        <time>2020-08-22T10:01:55Z</time>
        <sat>12</sat>
      </trkpt>
      <trkpt lat="42.291520" lon="-4.104037">
        <ele>802.6</ele>
        <time>2020-08-22T10:02:03Z</time>
        <sat>12</sat>
      </trkpt>
      <trkpt lat="42.291524" lon="-4.104150">
        <ele>802.6</ele>
        <time>2020-08-22T10:02:10Z</time>
        <sat>12</sat>
      </trkpt>
      <trkpt lat="42.291531" lon="-4.104265">
        <ele>802.5</ele>
        <time>2020-08-22T10:02:17Z</time>
        <sat>12</sat>
      </trkpt>
      <trkpt lat="42.291539" lon="-4.104382">
        <ele>802.4</ele>
        <time>2020-08-22T10:02:24Z</time>
        <sat>12</sat>
      </trkpt>
      <trkpt lat="42.291549" lon="-4.104495">
        <ele>802.3</ele>
        <time>2020-08-22T10:02:34Z</time>
        <sat>12</sat>
      </trkpt>
      <trkpt lat="42.291548" lon="-4.104618">
        <ele>802.1</ele>
        <time>2020-08-22T10:02:41Z</time>
        <sat>12</sat>
      </trkpt>
      <trkpt lat="42.291548" lon="-4.104738">
        <ele>802.1</ele>
        <time>2020-08-22T10:02:48Z</time>
        <sat>12</sat>
      </trkpt>
      <trkpt lat="42.291550" lon="-4.104850">
        <ele>801.9</ele>
        <time>2020-08-22T10:02:55Z</time>
        <sat>12</sat>
      </trkpt>
      <trkpt lat="42.291554" lon="-4.104961">
        <ele>801.6</ele>
        <time>2020-08-22T10:03:02Z</time>
        <sat>12</sat>
      </trkpt>
      <trkpt lat="42.291557" lon="-4.105072">
        <ele>801.4</ele>
        <time>2020-08-22T10:03:09Z</time>
        <sat>12</sat>
      </trkpt>
      <trkpt lat="42.291565" lon="-4.105196">
        <ele>801.2</ele>
        <time>2020-08-22T10:03:17Z</time>
        <sat>12</sat>
      </trkpt>
      <trkpt lat="42.291572" lon="-4.105316">
        <ele>800.9</ele>
        <time>2020-08-22T10:03:24Z</time>
        <sat>12</sat>
      </trkpt>
      <trkpt lat="42.291578" lon="-4.105430">
        <ele>800.8</ele>
        <time>2020-08-22T10:03:31Z</time>
        <sat>12</sat>
      </trkpt>
      <trkpt lat="42.291585" lon="-4.105552">
        <ele>800.6</ele>
        <time>2020-08-22T10:03:39Z</time>
        <sat>12</sat>
      </trkpt>
      <trkpt lat="42.291584" lon="-4.105666">
        <ele>800.4</ele>
        <time>2020-08-22T10:03:46Z</time>
        <sat>12</sat>
      </trkpt>
      <trkpt lat="42.291588" lon="-4.105775">
        <ele>800.4</ele>
        <time>2020-08-22T10:03:53Z</time>
        <sat>12</sat>
      </trkpt>
      <trkpt lat="42.291591" lon="-4.105899">
        <ele>800.2</ele>
        <time>2020-08-22T10:04:01Z</time>
        <sat>12</sat>
      </trkpt>
      <trkpt lat="42.291596" lon="-4.106011">
        <ele>800.0</ele>
        <time>2020-08-22T10:04:09Z</time>
        <sat>12</sat>
      </trkpt>
      <trkpt lat="42.291601" lon="-4.106122">
        <ele>799.8</ele>
        <time>2020-08-22T10:04:16Z</time>
        <sat>12</sat>
      </trkpt>
      <trkpt lat="42.291601" lon="-4.106233">
        <ele>799.6</ele>
        <time>2020-08-22T10:04:23Z</time>
        <sat>12</sat>
      </trkpt>
      <trkpt lat="42.291606" lon="-4.106354">
        <ele>799.2</ele>
        <time>2020-08-22T10:04:31Z</time>
        <sat>12</sat>
      </trkpt>
      <trkpt lat="42.291615" lon="-4.106476">
        <ele>798.9</ele>
        <time>2020-08-22T10:04:39Z</time>
        <sat>12</sat>
      </trkpt>
      <trkpt lat="42.291619" lon="-4.106597">
        <ele>798.8</ele>
        <time>2020-08-22T10:04:47Z</time>
        <sat>12</sat>
      </trkpt>
      <trkpt lat="42.291625" lon="-4.106717">
        <ele>798.7</ele>
        <time>2020-08-22T10:04:55Z</time>
        <sat>12</sat>
      </trkpt>
      <trkpt lat="42.291629" lon="-4.106832">
        <ele>798.7</ele>
        <time>2020-08-22T10:05:02Z</time>
        <sat>12</sat>
      </trkpt>
      <trkpt lat="42.291632" lon="-4.106955">
        <ele>798.7</ele>
        <time>2020-08-22T10:05:10Z</time>
        <sat>12</sat>
      </trkpt>
      <trkpt lat="42.291636" lon="-4.107067">
        <ele>798.7</ele>
        <time>2020-08-22T10:05:17Z</time>
        <sat>12</sat>
      </trkpt>
      <trkpt lat="42.291642" lon="-4.107179">
        <ele>798.7</ele>
        <time>2020-08-22T10:05:24Z</time>
        <sat>12</sat>
      </trkpt>
      <trkpt lat="42.291633" lon="-4.107290">
        <ele>798.6</ele>
        <time>2020-08-22T10:05:41Z</time>
        <sat>12</sat>
      </trkpt>
      <trkpt lat="42.291646" lon="-4.107398">
        <ele>798.5</ele>
        <time>2020-08-22T10:05:48Z</time>
        <sat>12</sat>
      </trkpt>
      <trkpt lat="42.291646" lon="-4.107519">
        <ele>798.5</ele>
        <time>2020-08-22T10:06:01Z</time>
        <sat>12</sat>
      </trkpt>
      <trkpt lat="42.291650" lon="-4.107631">
        <ele>798.4</ele>
        <time>2020-08-22T10:06:08Z</time>
        <sat>12</sat>
      </trkpt>
      <trkpt lat="42.291648" lon="-4.107742">
        <ele>798.2</ele>
        <time>2020-08-22T10:06:14Z</time>
        <sat>12</sat>
      </trkpt>
      <trkpt lat="42.291649" lon="-4.107866">
        <ele>798.1</ele>
        <time>2020-08-22T10:06:21Z</time>
        <sat>12</sat>
      </trkpt>
      <trkpt lat="42.291654" lon="-4.107980">
        <ele>797.9</ele>
        <time>2020-08-22T10:06:30Z</time>
        <sat>12</sat>
      </trkpt>
      <trkpt lat="42.291655" lon="-4.108095">
        <ele>797.8</ele>
        <time>2020-08-22T10:06:37Z</time>
        <sat>12</sat>
      </trkpt>
      <trkpt lat="42.291655" lon="-4.108218">
        <ele>797.7</ele>
        <time>2020-08-22T10:06:45Z</time>
        <sat>12</sat>
      </trkpt>
      <trkpt lat="42.291661" lon="-4.108332">
        <ele>797.5</ele>
        <time>2020-08-22T10:06:52Z</time>
        <sat>12</sat>
      </trkpt>
      <trkpt lat="42.291658" lon="-4.108459">
        <ele>797.2</ele>
        <time>2020-08-22T10:06:59Z</time>
        <sat>12</sat>
      </trkpt>
      <trkpt lat="42.291664" lon="-4.108573">
        <ele>797.2</ele>
        <time>2020-08-22T10:07:05Z</time>
        <sat>12</sat>
      </trkpt>
      <trkpt lat="42.291671" lon="-4.108700">
        <ele>797.1</ele>
        <time>2020-08-22T10:07:12Z</time>
        <sat>12</sat>
      </trkpt>
      <trkpt lat="42.291682" lon="-4.108823">
        <ele>796.8</ele>
        <time>2020-08-22T10:07:19Z</time>
        <sat>12</sat>
      </trkpt>
      <trkpt lat="42.291686" lon="-4.108933">
        <ele>796.6</ele>
        <time>2020-08-22T10:07:27Z</time>
        <sat>12</sat>
      </trkpt>
      <trkpt lat="42.291683" lon="-4.109047">
        <ele>796.5</ele>
        <time>2020-08-22T10:07:34Z</time>
        <sat>12</sat>
      </trkpt>
      <trkpt lat="42.291687" lon="-4.109164">
        <ele>796.4</ele>
        <time>2020-08-22T10:07:41Z</time>
        <sat>12</sat>
      </trkpt>
      <trkpt lat="42.291693" lon="-4.109283">
        <ele>796.3</ele>
        <time>2020-08-22T10:07:48Z</time>
        <sat>12</sat>
      </trkpt>
      <trkpt lat="42.291698" lon="-4.109405">
        <ele>796.3</ele>
        <time>2020-08-22T10:07:56Z</time>
        <sat>12</sat>
      </trkpt>
      <trkpt lat="42.291704" lon="-4.109524">
        <ele>796.0</ele>
        <time>2020-08-22T10:08:03Z</time>
        <sat>12</sat>
      </trkpt>
      <trkpt lat="42.291709" lon="-4.109642">
        <ele>795.8</ele>
        <time>2020-08-22T10:08:11Z</time>
        <sat>12</sat>
      </trkpt>
      <trkpt lat="42.291712" lon="-4.109769">
        <ele>795.7</ele>
        <time>2020-08-22T10:08:18Z</time>
        <sat>12</sat>
      </trkpt>
      <trkpt lat="42.291715" lon="-4.109892">
        <ele>795.5</ele>
        <time>2020-08-22T10:08:25Z</time>
        <sat>12</sat>
      </trkpt>
      <trkpt lat="42.291725" lon="-4.110016">
        <ele>795.2</ele>
        <time>2020-08-22T10:08:32Z</time>
        <sat>12</sat>
      </trkpt>
      <trkpt lat="42.291727" lon="-4.110141">
        <ele>795.1</ele>
        <time>2020-08-22T10:08:39Z</time>
        <sat>12</sat>
      </trkpt>
      <trkpt lat="42.291730" lon="-4.110260">
        <ele>795.0</ele>
        <time>2020-08-22T10:08:46Z</time>
        <sat>12</sat>
      </trkpt>
      <trkpt lat="42.291738" lon="-4.110377">
        <ele>794.9</ele>
        <time>2020-08-22T10:08:53Z</time>
        <sat>12</sat>
      </trkpt>
      <trkpt lat="42.291742" lon="-4.110495">
        <ele>794.9</ele>
        <time>2020-08-22T10:09:00Z</time>
        <sat>12</sat>
      </trkpt>
      <trkpt lat="42.291746" lon="-4.110609">
        <ele>794.8</ele>
        <time>2020-08-22T10:09:07Z</time>
        <sat>12</sat>
      </trkpt>
      <trkpt lat="42.291743" lon="-4.110724">
        <ele>794.7</ele>
        <time>2020-08-22T10:09:15Z</time>
        <sat>12</sat>
      </trkpt>
      <trkpt lat="42.291752" lon="-4.110835">
        <ele>794.5</ele>
        <time>2020-08-22T10:09:21Z</time>
        <sat>12</sat>
      </trkpt>
      <trkpt lat="42.291754" lon="-4.110959">
        <ele>794.3</ele>
        <time>2020-08-22T10:09:28Z</time>
        <sat>12</sat>
      </trkpt>
      <trkpt lat="42.291761" lon="-4.111081">
        <ele>794.2</ele>
        <time>2020-08-22T10:09:35Z</time>
        <sat>12</sat>
      </trkpt>
      <trkpt lat="42.291767" lon="-4.111194">
        <ele>794.2</ele>
        <time>2020-08-22T10:09:43Z</time>
        <sat>12</sat>
      </trkpt>
      <trkpt lat="42.291767" lon="-4.111307">
        <ele>794.2</ele>
        <time>2020-08-22T10:09:50Z</time>
        <sat>12</sat>
      </trkpt>
      <trkpt lat="42.291772" lon="-4.111425">
        <ele>794.1</ele>
        <time>2020-08-22T10:09:57Z</time>
        <sat>12</sat>
      </trkpt>
      <trkpt lat="42.291775" lon="-4.111547">
        <ele>794.1</ele>
        <time>2020-08-22T10:10:04Z</time>
        <sat>12</sat>
      </trkpt>
      <trkpt lat="42.291778" lon="-4.111665">
        <ele>794.1</ele>
        <time>2020-08-22T10:10:11Z</time>
        <sat>12</sat>
      </trkpt>
      <trkpt lat="42.291787" lon="-4.111785">
        <ele>794.0</ele>
        <time>2020-08-22T10:10:18Z</time>
        <sat>12</sat>
      </trkpt>
      <trkpt lat="42.291795" lon="-4.111905">
        <ele>794.0</ele>
        <time>2020-08-22T10:10:25Z</time>
        <sat>12</sat>
      </trkpt>
      <trkpt lat="42.291801" lon="-4.112027">
        <ele>793.9</ele>
        <time>2020-08-22T10:10:33Z</time>
        <sat>12</sat>
      </trkpt>
      <trkpt lat="42.291808" lon="-4.112144">
        <ele>793.9</ele>
        <time>2020-08-22T10:10:40Z</time>
        <sat>12</sat>
      </trkpt>
      <trkpt lat="42.291811" lon="-4.112268">
        <ele>793.9</ele>
        <time>2020-08-22T10:10:47Z</time>
        <sat>12</sat>
      </trkpt>
      <trkpt lat="42.291813" lon="-4.112384">
        <ele>793.8</ele>
        <time>2020-08-22T10:10:54Z</time>
        <sat>12</sat>
      </trkpt>
      <trkpt lat="42.291814" lon="-4.112497">
        <ele>793.8</ele>
        <time>2020-08-22T10:11:01Z</time>
        <sat>12</sat>
      </trkpt>
      <trkpt lat="42.291822" lon="-4.112619">
        <ele>793.7</ele>
        <time>2020-08-22T10:11:08Z</time>
        <sat>12</sat>
      </trkpt>
      <trkpt lat="42.291826" lon="-4.112735">
        <ele>793.8</ele>
        <time>2020-08-22T10:11:15Z</time>
        <sat>12</sat>
      </trkpt>
      <trkpt lat="42.291824" lon="-4.112856">
        <ele>793.8</ele>
        <time>2020-08-22T10:11:22Z</time>
        <sat>12</sat>
      </trkpt>
      <trkpt lat="42.291830" lon="-4.112975">
        <ele>793.8</ele>
        <time>2020-08-22T10:11:29Z</time>
        <sat>12</sat>
      </trkpt>
      <trkpt lat="42.291840" lon="-4.113095">
        <ele>793.9</ele>
        <time>2020-08-22T10:11:36Z</time>
        <sat>12</sat>
      </trkpt>
      <trkpt lat="42.291845" lon="-4.113209">
        <ele>793.9</ele>
        <time>2020-08-22T10:11:43Z</time>
        <sat>12</sat>
      </trkpt>
      <trkpt lat="42.291844" lon="-4.113330">
        <ele>793.6</ele>
        <time>2020-08-22T10:11:55Z</time>
        <sat>12</sat>
      </trkpt>
      <trkpt lat="42.291858" lon="-4.113453">
        <ele>793.6</ele>
        <time>2020-08-22T10:12:02Z</time>
        <sat>12</sat>
      </trkpt>
      <trkpt lat="42.291861" lon="-4.113578">
        <ele>793.6</ele>
        <time>2020-08-22T10:12:09Z</time>
        <sat>12</sat>
      </trkpt>
      <trkpt lat="42.291871" lon="-4.113698">
        <ele>793.6</ele>
        <time>2020-08-22T10:12:16Z</time>
        <sat>12</sat>
      </trkpt>
      <trkpt lat="42.291881" lon="-4.113807">
        <ele>793.6</ele>
        <time>2020-08-22T10:12:22Z</time>
        <sat>12</sat>
      </trkpt>
      <trkpt lat="42.291883" lon="-4.113931">
        <ele>793.6</ele>
        <time>2020-08-22T10:12:29Z</time>
        <sat>12</sat>
      </trkpt>
      <trkpt lat="42.291895" lon="-4.114054">
        <ele>793.6</ele>
        <time>2020-08-22T10:12:36Z</time>
        <sat>12</sat>
      </trkpt>
      <trkpt lat="42.291894" lon="-4.114180">
        <ele>793.6</ele>
        <time>2020-08-22T10:12:43Z</time>
        <sat>12</sat>
      </trkpt>
      <trkpt lat="42.291901" lon="-4.114306">
        <ele>793.6</ele>
        <time>2020-08-22T10:12:50Z</time>
        <sat>12</sat>
      </trkpt>
      <trkpt lat="42.291897" lon="-4.114417">
        <ele>793.6</ele>
        <time>2020-08-22T10:12:56Z</time>
        <sat>12</sat>
      </trkpt>
      <trkpt lat="42.291905" lon="-4.114540">
        <ele>793.7</ele>
        <time>2020-08-22T10:13:03Z</time>
        <sat>12</sat>
      </trkpt>
      <trkpt lat="42.291903" lon="-4.114664">
        <ele>793.7</ele>
        <time>2020-08-22T10:13:10Z</time>
        <sat>12</sat>
      </trkpt>
      <trkpt lat="42.291908" lon="-4.114786">
        <ele>793.6</ele>
        <time>2020-08-22T10:13:17Z</time>
        <sat>12</sat>
      </trkpt>
      <trkpt lat="42.291916" lon="-4.114906">
        <ele>793.6</ele>
        <time>2020-08-22T10:13:24Z</time>
        <sat>12</sat>
      </trkpt>
      <trkpt lat="42.291918" lon="-4.115030">
        <ele>793.5</ele>
        <time>2020-08-22T10:13:31Z</time>
        <sat>12</sat>
      </trkpt>
      <trkpt lat="42.291919" lon="-4.115153">
        <ele>793.5</ele>
        <time>2020-08-22T10:13:38Z</time>
        <sat>12</sat>
      </trkpt>
      <trkpt lat="42.291923" lon="-4.115279">
        <ele>793.5</ele>
        <time>2020-08-22T10:13:45Z</time>
        <sat>12</sat>
      </trkpt>
      <trkpt lat="42.291931" lon="-4.115393">
        <ele>793.5</ele>
        <time>2020-08-22T10:13:51Z</time>
        <sat>12</sat>
      </trkpt>
      <trkpt lat="42.291933" lon="-4.115514">
        <ele>793.6</ele>
        <time>2020-08-22T10:13:58Z</time>
        <sat>12</sat>
      </trkpt>
      <trkpt lat="42.291938" lon="-4.115626">
        <ele>793.8</ele>
        <time>2020-08-22T10:14:04Z</time>
        <sat>12</sat>
      </trkpt>
      <trkpt lat="42.291938" lon="-4.115750">
        <ele>793.8</ele>
        <time>2020-08-22T10:14:11Z</time>
        <sat>12</sat>
      </trkpt>
      <trkpt lat="42.291946" lon="-4.115876">
        <ele>794.0</ele>
        <time>2020-08-22T10:14:18Z</time>
        <sat>12</sat>
      </trkpt>
      <trkpt lat="42.291946" lon="-4.115986">
        <ele>794.1</ele>
        <time>2020-08-22T10:14:24Z</time>
        <sat>12</sat>
      </trkpt>
      <trkpt lat="42.291952" lon="-4.116111">
        <ele>794.2</ele>
        <time>2020-08-22T10:14:31Z</time>
        <sat>12</sat>
      </trkpt>
      <trkpt lat="42.291952" lon="-4.116232">
        <ele>794.5</ele>
        <time>2020-08-22T10:14:38Z</time>
        <sat>12</sat>
      </trkpt>
      <trkpt lat="42.291954" lon="-4.116342">
        <ele>794.6</ele>
        <time>2020-08-22T10:14:44Z</time>
        <sat>12</sat>
      </trkpt>
      <trkpt lat="42.291960" lon="-4.116451">
        <ele>794.6</ele>
        <time>2020-08-22T10:14:50Z</time>
        <sat>12</sat>
      </trkpt>
      <trkpt lat="42.291962" lon="-4.116578">
        <ele>794.6</ele>
        <time>2020-08-22T10:14:57Z</time>
        <sat>12</sat>
      </trkpt>
      <trkpt lat="42.291971" lon="-4.116689">
        <ele>794.6</ele>
        <time>2020-08-22T10:15:03Z</time>
        <sat>12</sat>
      </trkpt>
      <trkpt lat="42.291975" lon="-4.116814">
        <ele>794.6</ele>
        <time>2020-08-22T10:15:10Z</time>
        <sat>12</sat>
      </trkpt>
      <trkpt lat="42.291985" lon="-4.116937">
        <ele>794.6</ele>
        <time>2020-08-22T10:15:17Z</time>
        <sat>12</sat>
      </trkpt>
      <trkpt lat="42.291988" lon="-4.117055">
        <ele>794.6</ele>
        <time>2020-08-22T10:15:24Z</time>
        <sat>12</sat>
      </trkpt>
      <trkpt lat="42.291991" lon="-4.117167">
        <ele>794.6</ele>
        <time>2020-08-22T10:15:31Z</time>
        <sat>12</sat>
      </trkpt>
      <trkpt lat="42.291999" lon="-4.117281">
        <ele>794.6</ele>
        <time>2020-08-22T10:15:38Z</time>
        <sat>12</sat>
      </trkpt>
      <trkpt lat="42.291997" lon="-4.117406">
        <ele>794.7</ele>
        <time>2020-08-22T10:15:45Z</time>
        <sat>12</sat>
      </trkpt>
      <trkpt lat="42.292000" lon="-4.117528">
        <ele>794.8</ele>
        <time>2020-08-22T10:15:52Z</time>
        <sat>12</sat>
      </trkpt>
      <trkpt lat="42.292007" lon="-4.117641">
        <ele>795.0</ele>
        <time>2020-08-22T10:15:59Z</time>
        <sat>12</sat>
      </trkpt>
      <trkpt lat="42.292011" lon="-4.117767">
        <ele>795.1</ele>
        <time>2020-08-22T10:16:06Z</time>
        <sat>11</sat>
      </trkpt>
      <trkpt lat="42.292017" lon="-4.117884">
        <ele>795.1</ele>
        <time>2020-08-22T10:16:13Z</time>
        <sat>11</sat>
      </trkpt>
      <trkpt lat="42.292026" lon="-4.118008">
        <ele>795.1</ele>
        <time>2020-08-22T10:16:20Z</time>
        <sat>12</sat>
      </trkpt>
      <trkpt lat="42.292030" lon="-4.118134">
        <ele>795.0</ele>
        <time>2020-08-22T10:16:27Z</time>
        <sat>12</sat>
      </trkpt>
      <trkpt lat="42.292039" lon="-4.118258">
        <ele>795.0</ele>
        <time>2020-08-22T10:16:34Z</time>
        <sat>12</sat>
      </trkpt>
      <trkpt lat="42.292038" lon="-4.118379">
        <ele>795.0</ele>
        <time>2020-08-22T10:16:41Z</time>
        <sat>12</sat>
      </trkpt>
      <trkpt lat="42.292043" lon="-4.118501">
        <ele>794.8</ele>
        <time>2020-08-22T10:16:48Z</time>
        <sat>12</sat>
      </trkpt>
      <trkpt lat="42.292043" lon="-4.118625">
        <ele>794.8</ele>
        <time>2020-08-22T10:16:55Z</time>
        <sat>12</sat>
      </trkpt>
      <trkpt lat="42.292052" lon="-4.118750">
        <ele>794.6</ele>
        <time>2020-08-22T10:17:02Z</time>
        <sat>12</sat>
      </trkpt>
      <trkpt lat="42.292052" lon="-4.118863">
        <ele>794.5</ele>
        <time>2020-08-22T10:17:08Z</time>
        <sat>12</sat>
      </trkpt>
      <trkpt lat="42.292060" lon="-4.118988">
        <ele>794.4</ele>
        <time>2020-08-22T10:17:15Z</time>
        <sat>12</sat>
      </trkpt>
      <trkpt lat="42.292061" lon="-4.119097">
        <ele>794.4</ele>
        <time>2020-08-22T10:17:21Z</time>
        <sat>12</sat>
      </trkpt>
      <trkpt lat="42.292064" lon="-4.119218">
        <ele>794.3</ele>
        <time>2020-08-22T10:17:28Z</time>
        <sat>12</sat>
      </trkpt>
      <trkpt lat="42.292071" lon="-4.119332">
        <ele>794.2</ele>
        <time>2020-08-22T10:17:35Z</time>
        <sat>11</sat>
      </trkpt>
      <trkpt lat="42.292072" lon="-4.119443">
        <ele>794.1</ele>
        <time>2020-08-22T10:17:42Z</time>
        <sat>11</sat>
      </trkpt>
      <trkpt lat="42.292077" lon="-4.119562">
        <ele>794.0</ele>
        <time>2020-08-22T10:17:49Z</time>
        <sat>11</sat>
      </trkpt>
      <trkpt lat="42.292083" lon="-4.119684">
        <ele>793.9</ele>
        <time>2020-08-22T10:17:56Z</time>
        <sat>11</sat>
      </trkpt>
      <trkpt lat="42.292088" lon="-4.119794">
        <ele>793.7</ele>
        <time>2020-08-22T10:18:03Z</time>
        <sat>11</sat>
      </trkpt>
      <trkpt lat="42.292090" lon="-4.119908">
        <ele>793.6</ele>
        <time>2020-08-22T10:18:10Z</time>
        <sat>11</sat>
      </trkpt>
      <trkpt lat="42.292095" lon="-4.120026">
        <ele>793.4</ele>
        <time>2020-08-22T10:18:17Z</time>
        <sat>11</sat>
      </trkpt>
      <trkpt lat="42.292101" lon="-4.120136">
        <ele>793.4</ele>
        <time>2020-08-22T10:18:24Z</time>
        <sat>11</sat>
      </trkpt>
      <trkpt lat="42.292100" lon="-4.120257">
        <ele>793.1</ele>
        <time>2020-08-22T10:18:31Z</time>
        <sat>11</sat>
      </trkpt>
      <trkpt lat="42.292107" lon="-4.120378">
        <ele>792.8</ele>
        <time>2020-08-22T10:18:38Z</time>
        <sat>10</sat>
      </trkpt>
      <trkpt lat="42.292112" lon="-4.120492">
        <ele>792.7</ele>
        <time>2020-08-22T10:18:45Z</time>
        <sat>10</sat>
      </trkpt>
      <trkpt lat="42.292120" lon="-4.120614">
        <ele>792.6</ele>
        <time>2020-08-22T10:18:52Z</time>
        <sat>10</sat>
      </trkpt>
      <trkpt lat="42.292124" lon="-4.120738">
        <ele>792.6</ele>
        <time>2020-08-22T10:18:59Z</time>
        <sat>10</sat>
      </trkpt>
      <trkpt lat="42.292128" lon="-4.120857">
        <ele>792.5</ele>
        <time>2020-08-22T10:19:06Z</time>
        <sat>10</sat>
      </trkpt>
      <trkpt lat="42.292130" lon="-4.120980">
        <ele>792.3</ele>
        <time>2020-08-22T10:19:13Z</time>
        <sat>10</sat>
      </trkpt>
      <trkpt lat="42.292133" lon="-4.121098">
        <ele>792.1</ele>
        <time>2020-08-22T10:19:20Z</time>
        <sat>10</sat>
      </trkpt>
      <trkpt lat="42.292140" lon="-4.121224">
        <ele>792.0</ele>
        <time>2020-08-22T10:19:27Z</time>
        <sat>10</sat>
      </trkpt>
      <trkpt lat="42.292145" lon="-4.121350">
        <ele>791.9</ele>
        <time>2020-08-22T10:19:34Z</time>
        <sat>10</sat>
      </trkpt>
      <trkpt lat="42.292149" lon="-4.121463">
        <ele>791.8</ele>
        <time>2020-08-22T10:19:41Z</time>
        <sat>10</sat>
      </trkpt>
      <trkpt lat="42.292151" lon="-4.121585">
        <ele>791.8</ele>
        <time>2020-08-22T10:19:48Z</time>
        <sat>10</sat>
      </trkpt>
      <trkpt lat="42.292150" lon="-4.121705">
        <ele>791.6</ele>
        <time>2020-08-22T10:19:55Z</time>
        <sat>10</sat>
      </trkpt>
      <trkpt lat="42.292160" lon="-4.121827">
        <ele>791.3</ele>
        <time>2020-08-22T10:20:02Z</time>
        <sat>10</sat>
      </trkpt>
      <trkpt lat="42.292165" lon="-4.121944">
        <ele>791.1</ele>
        <time>2020-08-22T10:20:09Z</time>
        <sat>10</sat>
      </trkpt>
      <trkpt lat="42.292170" lon="-4.122058">
        <ele>790.8</ele>
        <time>2020-08-22T10:20:16Z</time>
        <sat>10</sat>
      </trkpt>
      <trkpt lat="42.292174" lon="-4.122170">
        <ele>790.7</ele>
        <time>2020-08-22T10:20:23Z</time>
        <sat>10</sat>
      </trkpt>
      <trkpt lat="42.292181" lon="-4.122283">
        <ele>790.5</ele>
        <time>2020-08-22T10:20:30Z</time>
        <sat>9</sat>
      </trkpt>
      <trkpt lat="42.292180" lon="-4.122399">
        <ele>790.3</ele>
        <time>2020-08-22T10:20:37Z</time>
        <sat>10</sat>
      </trkpt>
      <trkpt lat="42.292188" lon="-4.122527">
        <ele>789.8</ele>
        <time>2020-08-22T10:20:54Z</time>
        <sat>10</sat>
      </trkpt>
      <trkpt lat="42.292194" lon="-4.122644">
        <ele>789.7</ele>
        <time>2020-08-22T10:21:00Z</time>
        <sat>10</sat>
      </trkpt>
      <trkpt lat="42.292196" lon="-4.122757">
        <ele>789.6</ele>
        <time>2020-08-22T10:21:06Z</time>
        <sat>10</sat>
      </trkpt>
      <trkpt lat="42.292204" lon="-4.122869">
        <ele>789.5</ele>
        <time>2020-08-22T10:21:12Z</time>
        <sat>9</sat>
      </trkpt>
      <trkpt lat="42.292214" lon="-4.122991">
        <ele>789.4</ele>
        <time>2020-08-22T10:21:18Z</time>
        <sat>10</sat>
      </trkpt>
      <trkpt lat="42.292217" lon="-4.123117">
        <ele>789.4</ele>
        <time>2020-08-22T10:21:25Z</time>
        <sat>10</sat>
      </trkpt>
      <trkpt lat="42.292227" lon="-4.123241">
        <ele>789.1</ele>
        <time>2020-08-22T10:21:32Z</time>
        <sat>10</sat>
      </trkpt>
      <trkpt lat="42.292223" lon="-4.123354">
        <ele>788.9</ele>
        <time>2020-08-22T10:21:39Z</time>
        <sat>10</sat>
      </trkpt>
      <trkpt lat="42.292228" lon="-4.123478">
        <ele>788.7</ele>
        <time>2020-08-22T10:21:47Z</time>
        <sat>10</sat>
      </trkpt>
      <trkpt lat="42.292235" lon="-4.123599">
        <ele>788.6</ele>
        <time>2020-08-22T10:21:54Z</time>
        <sat>10</sat>
      </trkpt>
      <trkpt lat="42.292245" lon="-4.123713">
        <ele>788.5</ele>
        <time>2020-08-22T10:22:01Z</time>
        <sat>10</sat>
      </trkpt>
      <trkpt lat="42.292246" lon="-4.123840">
        <ele>788.4</ele>
        <time>2020-08-22T10:22:08Z</time>
        <sat>10</sat>
      </trkpt>
      <trkpt lat="42.292253" lon="-4.123960">
        <ele>788.4</ele>
        <time>2020-08-22T10:22:29Z</time>
        <sat>10</sat>
      </trkpt>
      <trkpt lat="42.292263" lon="-4.124083">
        <ele>788.5</ele>
        <time>2020-08-22T10:22:53Z</time>
        <sat>10</sat>
      </trkpt>
      <trkpt lat="42.292255" lon="-4.124203">
        <ele>788.3</ele>
        <time>2020-08-22T10:22:59Z</time>
        <sat>10</sat>
      </trkpt>
      <trkpt lat="42.292235" lon="-4.124309">
        <ele>788.1</ele>
        <time>2020-08-22T10:23:05Z</time>
        <sat>10</sat>
      </trkpt>
      <trkpt lat="42.292206" lon="-4.124418">
        <ele>788.0</ele>
        <time>2020-08-22T10:23:11Z</time>
        <sat>10</sat>
      </trkpt>
      <trkpt lat="42.292210" lon="-4.124530">
        <ele>788.0</ele>
        <time>2020-08-22T10:23:19Z</time>
        <sat>10</sat>
      </trkpt>
      <trkpt lat="42.292193" lon="-4.124643">
        <ele>787.9</ele>
        <time>2020-08-22T10:23:31Z</time>
        <sat>10</sat>
      </trkpt>
      <trkpt lat="42.292178" lon="-4.124754">
        <ele>787.9</ele>
        <time>2020-08-22T10:23:37Z</time>
        <sat>10</sat>
      </trkpt>
      <trkpt lat="42.292157" lon="-4.124870">
        <ele>787.8</ele>
        <time>2020-08-22T10:23:44Z</time>
        <sat>10</sat>
      </trkpt>
      <trkpt lat="42.292117" lon="-4.124975">
        <ele>787.5</ele>
        <time>2020-08-22T10:23:55Z</time>
        <sat>10</sat>
      </trkpt>
      <trkpt lat="42.292100" lon="-4.125084">
        <ele>787.6</ele>
        <time>2020-08-22T10:24:02Z</time>
        <sat>10</sat>
      </trkpt>
      <trkpt lat="42.292117" lon="-4.125202">
        <ele>787.2</ele>
        <time>2020-08-22T10:24:17Z</time>
        <sat>10</sat>
      </trkpt>
      <trkpt lat="42.292079" lon="-4.125308">
        <ele>787.1</ele>
        <time>2020-08-22T10:24:30Z</time>
        <sat>10</sat>
      </trkpt>
      <trkpt lat="42.292066" lon="-4.125425">
        <ele>787.0</ele>
        <time>2020-08-22T10:24:38Z</time>
        <sat>10</sat>
      </trkpt>
      <trkpt lat="42.292051" lon="-4.125542">
        <ele>787.0</ele>
        <time>2020-08-22T10:24:46Z</time>
        <sat>10</sat>
      </trkpt>
      <trkpt lat="42.292053" lon="-4.125658">
        <ele>787.0</ele>
        <time>2020-08-22T10:24:53Z</time>
        <sat>10</sat>
      </trkpt>
      <trkpt lat="42.292048" lon="-4.125777">
        <ele>787.0</ele>
        <time>2020-08-22T10:25:02Z</time>
        <sat>10</sat>
      </trkpt>
      <trkpt lat="42.292046" lon="-4.125890">
        <ele>787.0</ele>
        <time>2020-08-22T10:25:11Z</time>
        <sat>10</sat>
      </trkpt>
      <trkpt lat="42.292044" lon="-4.126008">
        <ele>787.0</ele>
        <time>2020-08-22T10:25:19Z</time>
        <sat>8</sat>
      </trkpt>
      <trkpt lat="42.292046" lon="-4.126126">
        <ele>787.0</ele>
        <time>2020-08-22T10:25:27Z</time>
        <sat>10</sat>
      </trkpt>
      <trkpt lat="42.292059" lon="-4.126245">
        <ele>787.0</ele>
        <time>2020-08-22T10:25:35Z</time>
        <sat>10</sat>
      </trkpt>
      <trkpt lat="42.292073" lon="-4.126357">
        <ele>787.1</ele>
        <time>2020-08-22T10:25:43Z</time>
        <sat>10</sat>
      </trkpt>
      <trkpt lat="42.292090" lon="-4.126466">
        <ele>787.3</ele>
        <time>2020-08-22T10:25:50Z</time>
        <sat>10</sat>
      </trkpt>
      <trkpt lat="42.292108" lon="-4.126576">
        <ele>787.3</ele>
        <time>2020-08-22T10:25:57Z</time>
        <sat>10</sat>
      </trkpt>
      <trkpt lat="42.292127" lon="-4.126687">
        <ele>787.3</ele>
        <time>2020-08-22T10:26:04Z</time>
        <sat>10</sat>
      </trkpt>
      <trkpt lat="42.292145" lon="-4.126804">
        <ele>787.3</ele>
        <time>2020-08-22T10:26:11Z</time>
        <sat>11</sat>
      </trkpt>
      <trkpt lat="42.292158" lon="-4.126921">
        <ele>787.5</ele>
        <time>2020-08-22T10:26:31Z</time>
        <sat>11</sat>
      </trkpt>
      <trkpt lat="42.292179" lon="-4.127033">
        <ele>787.6</ele>
        <time>2020-08-22T10:26:37Z</time>
        <sat>12</sat>
      </trkpt>
      <trkpt lat="42.292213" lon="-4.127136">
        <ele>787.6</ele>
        <time>2020-08-22T10:26:45Z</time>
        <sat>11</sat>
      </trkpt>
      <trkpt lat="42.292289" lon="-4.127196">
        <ele>787.7</ele>
        <time>2020-08-22T10:26:53Z</time>
        <sat>11</sat>
      </trkpt>
      <trkpt lat="42.292347" lon="-4.127281">
        <ele>788.1</ele>
        <time>2020-08-22T10:27:04Z</time>
        <sat>10</sat>
      </trkpt>
      <trkpt lat="42.292386" lon="-4.127385">
        <ele>788.3</ele>
        <time>2020-08-22T10:27:11Z</time>
        <sat>9</sat>
      </trkpt>
      <trkpt lat="42.292444" lon="-4.127477">
        <ele>788.6</ele>
        <time>2020-08-22T10:27:18Z</time>
        <sat>11</sat>
      </trkpt>
      <trkpt lat="42.292438" lon="-4.127587">
        <ele>789.0</ele>
        <time>2020-08-22T10:27:25Z</time>
        <sat>11</sat>
      </trkpt>
      <trkpt lat="42.292452" lon="-4.127697">
        <ele>789.4</ele>
        <time>2020-08-22T10:27:32Z</time>
        <sat>10</sat>
      </trkpt>
      <trkpt lat="42.292477" lon="-4.127804">
        <ele>789.9</ele>
        <time>2020-08-22T10:27:39Z</time>
        <sat>10</sat>
      </trkpt>
      <trkpt lat="42.292526" lon="-4.127900">
        <ele>790.5</ele>
        <time>2020-08-22T10:27:47Z</time>
        <sat>10</sat>
      </trkpt>
      <trkpt lat="42.292531" lon="-4.128012">
        <ele>791.0</ele>
        <time>2020-08-22T10:27:54Z</time>
        <sat>11</sat>
      </trkpt>
      <trkpt lat="42.292541" lon="-4.128129">
        <ele>791.2</ele>
        <time>2020-08-22T10:28:01Z</time>
        <sat>10</sat>
      </trkpt>
      <trkpt lat="42.292574" lon="-4.128245">
        <ele>791.4</ele>
        <time>2020-08-22T10:28:08Z</time>
        <sat>11</sat>
      </trkpt>
      <trkpt lat="42.292617" lon="-4.128350">
        <ele>791.3</ele>
        <time>2020-08-22T10:28:16Z</time>
        <sat>11</sat>
      </trkpt>
      <trkpt lat="42.292683" lon="-4.128275">
        <ele>791.0</ele>
        <time>2020-08-22T10:28:39Z</time>
        <sat>12</sat>
      </trkpt>
      <trkpt lat="42.292757" lon="-4.128226">
        <ele>791.2</ele>
        <time>2020-08-22T10:28:48Z</time>
        <sat>11</sat>
      </trkpt>
      <trkpt lat="42.292688" lon="-4.128286">
        <ele>791.3</ele>
        <time>2020-08-22T10:30:03Z</time>
        <sat>11</sat>
      </trkpt>
      <trkpt lat="42.292639" lon="-4.128382">
        <ele>791.2</ele>
        <time>2020-08-22T10:30:12Z</time>
        <sat>12</sat>
      </trkpt>
      <trkpt lat="42.292595" lon="-4.128481">
        <ele>790.8</ele>
        <time>2020-08-22T10:30:19Z</time>
        <sat>12</sat>
      </trkpt>
      <trkpt lat="42.292548" lon="-4.128582">
        <ele>790.4</ele>
        <time>2020-08-22T10:30:27Z</time>
        <sat>11</sat>
      </trkpt>
      <trkpt lat="42.292509" lon="-4.128688">
        <ele>790.2</ele>
        <time>2020-08-22T10:30:35Z</time>
        <sat>11</sat>
      </trkpt>
      <trkpt lat="42.292456" lon="-4.128779">
        <ele>789.4</ele>
        <time>2020-08-22T10:31:04Z</time>
        <sat>11</sat>
      </trkpt>
      <trkpt lat="42.292387" lon="-4.128842">
        <ele>790.2</ele>
        <time>2020-08-22T10:31:11Z</time>
        <sat>12</sat>
      </trkpt>
      <trkpt lat="42.292309" lon="-4.128905">
        <ele>790.2</ele>
        <time>2020-08-22T10:31:18Z</time>
        <sat>11</sat>
      </trkpt>
      <trkpt lat="42.292237" lon="-4.128974">
        <ele>789.9</ele>
        <time>2020-08-22T10:31:26Z</time>
        <sat>11</sat>
      </trkpt>
      <trkpt lat="42.292237" lon="-4.129095">
        <ele>790.0</ele>
        <time>2020-08-22T10:32:50Z</time>
        <sat>11</sat>
      </trkpt>
      <trkpt lat="42.292274" lon="-4.129208">
        <ele>790.3</ele>
        <time>2020-08-22T10:32:59Z</time>
        <sat>10</sat>
      </trkpt>
      <trkpt lat="42.292306" lon="-4.129326">
        <ele>790.6</ele>
        <time>2020-08-22T10:33:07Z</time>
        <sat>11</sat>
      </trkpt>
      <trkpt lat="42.292314" lon="-4.129448">
        <ele>791.0</ele>
        <time>2020-08-22T10:33:15Z</time>
        <sat>11</sat>
      </trkpt>
      <trkpt lat="42.292308" lon="-4.129560">
        <ele>791.3</ele>
        <time>2020-08-22T10:33:22Z</time>
        <sat>10</sat>
      </trkpt>
      <trkpt lat="42.292296" lon="-4.129684">
        <ele>792.0</ele>
        <time>2020-08-22T10:33:30Z</time>
        <sat>9</sat>
      </trkpt>
      <trkpt lat="42.292290" lon="-4.129802">
        <ele>792.5</ele>
        <time>2020-08-22T10:33:38Z</time>
        <sat>9</sat>
      </trkpt>
      <trkpt lat="42.292303" lon="-4.129912">
        <ele>793.2</ele>
        <time>2020-08-22T10:33:46Z</time>
        <sat>11</sat>
      </trkpt>
      <trkpt lat="42.292326" lon="-4.130019">
        <ele>793.6</ele>
        <time>2020-08-22T10:33:53Z</time>
        <sat>10</sat>
      </trkpt>
      <trkpt lat="42.292344" lon="-4.130137">
        <ele>794.2</ele>
        <time>2020-08-22T10:34:01Z</time>
        <sat>11</sat>
      </trkpt>
      <trkpt lat="42.292360" lon="-4.130249">
        <ele>795.0</ele>
        <time>2020-08-22T10:34:09Z</time>
        <sat>11</sat>
      </trkpt>
      <trkpt lat="42.292386" lon="-4.130355">
        <ele>794.9</ele>
        <time>2020-08-22T10:34:16Z</time>
        <sat>11</sat>
      </trkpt>
      <trkpt lat="42.292406" lon="-4.130467">
        <ele>796.3</ele>
        <time>2020-08-22T10:34:23Z</time>
        <sat>10</sat>
      </trkpt>
      <trkpt lat="42.292411" lon="-4.130578">
        <ele>797.4</ele>
        <time>2020-08-22T10:34:30Z</time>
        <sat>9</sat>
      </trkpt>
      <trkpt lat="42.292403" lon="-4.130702">
        <ele>798.3</ele>
        <time>2020-08-22T10:34:38Z</time>
        <sat>10</sat>
      </trkpt>
      <trkpt lat="42.292411" lon="-4.130814">
        <ele>798.8</ele>
        <time>2020-08-22T10:34:45Z</time>
        <sat>9</sat>
      </trkpt>
      <trkpt lat="42.292418" lon="-4.130928">
        <ele>799.3</ele>
        <time>2020-08-22T10:34:53Z</time>
        <sat>9</sat>
      </trkpt>
      <trkpt lat="42.292434" lon="-4.131050">
        <ele>799.7</ele>
        <time>2020-08-22T10:35:00Z</time>
        <sat>10</sat>
      </trkpt>
      <trkpt lat="42.292444" lon="-4.131165">
        <ele>799.8</ele>
        <time>2020-08-22T10:35:07Z</time>
        <sat>11</sat>
      </trkpt>
      <trkpt lat="42.292461" lon="-4.131290">
        <ele>799.7</ele>
        <time>2020-08-22T10:35:14Z</time>
        <sat>11</sat>
      </trkpt>
      <trkpt lat="42.292476" lon="-4.131407">
        <ele>799.5</ele>
        <time>2020-08-22T10:35:21Z</time>
        <sat>11</sat>
      </trkpt>
      <trkpt lat="42.292482" lon="-4.131522">
        <ele>799.4</ele>
        <time>2020-08-22T10:35:28Z</time>
        <sat>11</sat>
      </trkpt>
      <trkpt lat="42.292467" lon="-4.131633">
        <ele>799.5</ele>
        <time>2020-08-22T10:35:35Z</time>
        <sat>11</sat>
      </trkpt>
      <trkpt lat="42.292426" lon="-4.131736">
        <ele>799.7</ele>
        <time>2020-08-22T10:35:42Z</time>
        <sat>11</sat>
      </trkpt>
      <trkpt lat="42.292360" lon="-4.131803">
        <ele>799.9</ele>
        <time>2020-08-22T10:35:48Z</time>
        <sat>11</sat>
      </trkpt>
      <trkpt lat="42.292282" lon="-4.131856">
        <ele>800.2</ele>
        <time>2020-08-22T10:35:55Z</time>
        <sat>11</sat>
      </trkpt>
      <trkpt lat="42.292201" lon="-4.131869">
        <ele>800.6</ele>
        <time>2020-08-22T10:36:03Z</time>
        <sat>11</sat>
      </trkpt>
      <trkpt lat="42.292118" lon="-4.131907">
        <ele>800.8</ele>
        <time>2020-08-22T10:36:11Z</time>
        <sat>10</sat>
      </trkpt>
      <trkpt lat="42.292041" lon="-4.131953">
        <ele>801.1</ele>
        <time>2020-08-22T10:36:18Z</time>
        <sat>9</sat>
      </trkpt>
      <trkpt lat="42.291964" lon="-4.131994">
        <ele>801.2</ele>
        <time>2020-08-22T10:36:25Z</time>
        <sat>11</sat>
      </trkpt>
      <trkpt lat="42.291889" lon="-4.132051">
        <ele>801.6</ele>
        <time>2020-08-22T10:36:32Z</time>
        <sat>10</sat>
      </trkpt>
      <trkpt lat="42.291813" lon="-4.132113">
        <ele>802.0</ele>
        <time>2020-08-22T10:36:38Z</time>
        <sat>10</sat>
      </trkpt>
      <trkpt lat="42.291734" lon="-4.132177">
        <ele>802.0</ele>
        <time>2020-08-22T10:36:45Z</time>
        <sat>10</sat>
      </trkpt>
      <trkpt lat="42.291656" lon="-4.132226">
        <ele>802.0</ele>
        <time>2020-08-22T10:36:51Z</time>
        <sat>10</sat>
      </trkpt>
      <trkpt lat="42.291584" lon="-4.132277">
        <ele>801.9</ele>
        <time>2020-08-22T10:36:57Z</time>
        <sat>9</sat>
      </trkpt>
      <trkpt lat="42.291504" lon="-4.132336">
        <ele>801.6</ele>
        <time>2020-08-22T10:37:04Z</time>
        <sat>10</sat>
      </trkpt>
      <trkpt lat="42.291427" lon="-4.132376">
        <ele>801.2</ele>
        <time>2020-08-22T10:37:11Z</time>
        <sat>10</sat>
      </trkpt>
      <trkpt lat="42.291354" lon="-4.132451">
        <ele>800.7</ele>
        <time>2020-08-22T10:37:19Z</time>
        <sat>9</sat>
      </trkpt>
      <trkpt lat="42.291266" lon="-4.132492">
        <ele>800.5</ele>
        <time>2020-08-22T10:37:26Z</time>
        <sat>10</sat>
      </trkpt>
      <trkpt lat="42.291180" lon="-4.132537">
        <ele>800.2</ele>
        <time>2020-08-22T10:37:33Z</time>
        <sat>10</sat>
      </trkpt>
      <trkpt lat="42.291095" lon="-4.132572">
        <ele>799.9</ele>
        <time>2020-08-22T10:37:40Z</time>
        <sat>10</sat>
      </trkpt>
      <trkpt lat="42.291016" lon="-4.132611">
        <ele>799.7</ele>
        <time>2020-08-22T10:37:47Z</time>
        <sat>10</sat>
      </trkpt>
      <trkpt lat="42.290935" lon="-4.132645">
        <ele>799.5</ele>
        <time>2020-08-22T10:37:54Z</time>
        <sat>10</sat>
      </trkpt>
      <trkpt lat="42.290856" lon="-4.132676">
        <ele>799.2</ele>
        <time>2020-08-22T10:38:01Z</time>
        <sat>10</sat>
      </trkpt>
      <trkpt lat="42.290769" lon="-4.132723">
        <ele>799.0</ele>
        <time>2020-08-22T10:38:09Z</time>
        <sat>9</sat>
      </trkpt>
      <trkpt lat="42.290691" lon="-4.132754">
        <ele>798.8</ele>
        <time>2020-08-22T10:38:15Z</time>
        <sat>10</sat>
      </trkpt>
      <trkpt lat="42.290606" lon="-4.132782">
        <ele>798.6</ele>
        <time>2020-08-22T10:38:22Z</time>
        <sat>10</sat>
      </trkpt>
      <trkpt lat="42.290521" lon="-4.132820">
        <ele>798.2</ele>
        <time>2020-08-22T10:38:29Z</time>
        <sat>10</sat>
      </trkpt>
      <trkpt lat="42.290439" lon="-4.132864">
        <ele>798.0</ele>
        <time>2020-08-22T10:38:37Z</time>
        <sat>9</sat>
      </trkpt>
      <trkpt lat="42.290365" lon="-4.132934">
        <ele>797.5</ele>
        <time>2020-08-22T10:38:45Z</time>
        <sat>10</sat>
      </trkpt>
      <trkpt lat="42.290285" lon="-4.132974">
        <ele>797.2</ele>
        <time>2020-08-22T10:38:51Z</time>
        <sat>10</sat>
      </trkpt>
      <trkpt lat="42.290203" lon="-4.133032">
        <ele>797.0</ele>
        <time>2020-08-22T10:38:58Z</time>
        <sat>9</sat>
      </trkpt>
      <trkpt lat="42.290131" lon="-4.133096">
        <ele>796.6</ele>
        <time>2020-08-22T10:39:05Z</time>
        <sat>9</sat>
      </trkpt>
      <trkpt lat="42.290064" lon="-4.133161">
        <ele>796.2</ele>
        <time>2020-08-22T10:39:12Z</time>
        <sat>10</sat>
      </trkpt>
      <trkpt lat="42.289994" lon="-4.133225">
        <ele>795.9</ele>
        <time>2020-08-22T10:39:19Z</time>
        <sat>9</sat>
      </trkpt>
      <trkpt lat="42.289920" lon="-4.133286">
        <ele>795.8</ele>
        <time>2020-08-22T10:39:26Z</time>
        <sat>8</sat>
      </trkpt>
      <trkpt lat="42.289840" lon="-4.133348">
        <ele>795.8</ele>
        <time>2020-08-22T10:39:34Z</time>
        <sat>9</sat>
      </trkpt>
      <trkpt lat="42.289774" lon="-4.133411">
        <ele>796.0</ele>
        <time>2020-08-22T10:39:41Z</time>
        <sat>8</sat>
      </trkpt>
      <trkpt lat="42.289704" lon="-4.133473">
        <ele>796.4</ele>
        <time>2020-08-22T10:39:47Z</time>
        <sat>10</sat>
      </trkpt>
      <trkpt lat="42.289632" lon="-4.133530">
        <ele>796.5</ele>
        <time>2020-08-22T10:39:54Z</time>
        <sat>10</sat>
      </trkpt>
      <trkpt lat="42.289568" lon="-4.133606">
        <ele>796.5</ele>
        <time>2020-08-22T10:40:00Z</time>
        <sat>9</sat>
      </trkpt>
      <trkpt lat="42.289502" lon="-4.133673">
        <ele>796.5</ele>
        <time>2020-08-22T10:40:06Z</time>
        <sat>8</sat>
      </trkpt>
      <trkpt lat="42.289436" lon="-4.133738">
        <ele>796.5</ele>
        <time>2020-08-22T10:40:12Z</time>
        <sat>9</sat>
      </trkpt>
      <trkpt lat="42.289367" lon="-4.133811">
        <ele>796.7</ele>
        <time>2020-08-22T10:40:19Z</time>
        <sat>9</sat>
      </trkpt>
      <trkpt lat="42.289315" lon="-4.133912">
        <ele>797.2</ele>
        <time>2020-08-22T10:40:26Z</time>
        <sat>8</sat>
      </trkpt>
      <trkpt lat="42.289267" lon="-4.134009">
        <ele>798.0</ele>
        <time>2020-08-22T10:40:33Z</time>
        <sat>9</sat>
      </trkpt>
      <trkpt lat="42.289228" lon="-4.134113">
        <ele>792.6</ele>
        <time>2020-08-22T10:40:42Z</time>
        <sat>10</sat>
      </trkpt>
      <trkpt lat="42.289176" lon="-4.134210">
        <ele>799.6</ele>
        <time>2020-08-22T10:40:48Z</time>
        <sat>9</sat>
      </trkpt>
      <trkpt lat="42.289112" lon="-4.134277">
        <ele>801.8</ele>
        <time>2020-08-22T10:40:56Z</time>
        <sat>10</sat>
      </trkpt>
      <trkpt lat="42.289066" lon="-4.134368">
        <ele>802.1</ele>
        <time>2020-08-22T10:41:03Z</time>
        <sat>10</sat>
      </trkpt>
      <trkpt lat="42.289015" lon="-4.134455">
        <ele>802.3</ele>
        <time>2020-08-22T10:41:10Z</time>
        <sat>10</sat>
      </trkpt>
      <trkpt lat="42.288989" lon="-4.134566">
        <ele>802.5</ele>
        <time>2020-08-22T10:41:17Z</time>
        <sat>9</sat>
      </trkpt>
      <trkpt lat="42.288948" lon="-4.134678">
        <ele>802.8</ele>
        <time>2020-08-22T10:41:25Z</time>
        <sat>10</sat>
      </trkpt>
      <trkpt lat="42.288905" lon="-4.134777">
        <ele>802.8</ele>
        <time>2020-08-22T10:41:32Z</time>
        <sat>10</sat>
      </trkpt>
      <trkpt lat="42.288860" lon="-4.134868">
        <ele>802.6</ele>
        <time>2020-08-22T10:41:38Z</time>
        <sat>10</sat>
      </trkpt>
      <trkpt lat="42.288810" lon="-4.134969">
        <ele>802.6</ele>
        <time>2020-08-22T10:41:45Z</time>
        <sat>10</sat>
      </trkpt>
      <trkpt lat="42.288762" lon="-4.135063">
        <ele>802.7</ele>
        <time>2020-08-22T10:41:53Z</time>
        <sat>9</sat>
      </trkpt>
      <trkpt lat="42.288699" lon="-4.135146">
        <ele>803.1</ele>
        <time>2020-08-22T10:42:01Z</time>
        <sat>8</sat>
      </trkpt>
      <trkpt lat="42.288667" lon="-4.135259">
        <ele>803.9</ele>
        <time>2020-08-22T10:42:09Z</time>
        <sat>10</sat>
      </trkpt>
      <trkpt lat="42.288651" lon="-4.135369">
        <ele>805.0</ele>
        <time>2020-08-22T10:42:17Z</time>
        <sat>10</sat>
      </trkpt>
      <trkpt lat="42.288653" lon="-4.135484">
        <ele>805.4</ele>
        <time>2020-08-22T10:42:24Z</time>
        <sat>10</sat>
      </trkpt>
      <trkpt lat="42.288614" lon="-4.135647">
        <ele>807.3</ele>
        <time>2020-08-22T10:43:59Z</time>
        <sat>10</sat>
      </trkpt>
      <trkpt lat="42.288597" lon="-4.135767">
        <ele>806.3</ele>
        <time>2020-08-22T10:44:30Z</time>
        <sat>10</sat>
      </trkpt>
      <trkpt lat="42.288570" lon="-4.135883">
        <ele>806.4</ele>
        <time>2020-08-22T10:44:38Z</time>
        <sat>10</sat>
      </trkpt>
      <trkpt lat="42.288540" lon="-4.135993">
        <ele>806.6</ele>
        <time>2020-08-22T10:44:46Z</time>
        <sat>10</sat>
      </trkpt>
      <trkpt lat="42.288507" lon="-4.136105">
        <ele>806.5</ele>
        <time>2020-08-22T10:44:54Z</time>
        <sat>10</sat>
      </trkpt>
      <trkpt lat="42.288463" lon="-4.136213">
        <ele>806.6</ele>
        <time>2020-08-22T10:45:02Z</time>
        <sat>10</sat>
      </trkpt>
      <trkpt lat="42.288428" lon="-4.136325">
        <ele>806.8</ele>
        <time>2020-08-22T10:45:10Z</time>
        <sat>9</sat>
      </trkpt>
      <trkpt lat="42.288375" lon="-4.136414">
        <ele>805.2</ele>
        <time>2020-08-22T10:45:28Z</time>
        <sat>10</sat>
      </trkpt>
      <trkpt lat="42.288359" lon="-4.136541">
        <ele>805.2</ele>
        <time>2020-08-22T10:48:56Z</time>
        <sat>10</sat>
      </trkpt>
      <trkpt lat="42.288329" lon="-4.136661">
        <ele>806.0</ele>
        <time>2020-08-22T10:49:03Z</time>
        <sat>10</sat>
      </trkpt>
      <trkpt lat="42.288304" lon="-4.136778">
        <ele>806.9</ele>
        <time>2020-08-22T10:49:14Z</time>
        <sat>10</sat>
      </trkpt>
      <trkpt lat="42.288274" lon="-4.136897">
        <ele>807.5</ele>
        <time>2020-08-22T10:49:22Z</time>
        <sat>10</sat>
      </trkpt>
      <trkpt lat="42.288243" lon="-4.137006">
        <ele>808.2</ele>
        <time>2020-08-22T10:49:29Z</time>
        <sat>9</sat>
      </trkpt>
      <trkpt lat="42.288215" lon="-4.137119">
        <ele>808.9</ele>
        <time>2020-08-22T10:49:36Z</time>
        <sat>9</sat>
      </trkpt>
      <trkpt lat="42.288182" lon="-4.137230">
        <ele>809.4</ele>
        <time>2020-08-22T10:49:43Z</time>
        <sat>10</sat>
      </trkpt>
      <trkpt lat="42.288163" lon="-4.137349">
        <ele>809.6</ele>
        <time>2020-08-22T10:49:50Z</time>
        <sat>10</sat>
      </trkpt>
      <trkpt lat="42.288126" lon="-4.137459">
        <ele>809.5</ele>
        <time>2020-08-22T10:49:57Z</time>
        <sat>10</sat>
      </trkpt>
      <trkpt lat="42.288099" lon="-4.137574">
        <ele>809.2</ele>
        <time>2020-08-22T10:50:04Z</time>
        <sat>9</sat>
      </trkpt>
      <trkpt lat="42.288075" lon="-4.137688">
        <ele>808.5</ele>
        <time>2020-08-22T10:50:11Z</time>
        <sat>10</sat>
      </trkpt>
      <trkpt lat="42.288059" lon="-4.137800">
        <ele>808.3</ele>
        <time>2020-08-22T10:50:17Z</time>
        <sat>9</sat>
      </trkpt>
      <trkpt lat="42.288040" lon="-4.137908">
        <ele>808.0</ele>
        <time>2020-08-22T10:50:23Z</time>
        <sat>9</sat>
      </trkpt>
      <trkpt lat="42.288041" lon="-4.138034">
        <ele>808.1</ele>
        <time>2020-08-22T10:50:30Z</time>
        <sat>9</sat>
      </trkpt>
      <trkpt lat="42.288039" lon="-4.138164">
        <ele>808.2</ele>
        <time>2020-08-22T10:50:37Z</time>
        <sat>9</sat>
      </trkpt>
      <trkpt lat="42.288009" lon="-4.138273">
        <ele>808.4</ele>
        <time>2020-08-22T10:50:43Z</time>
        <sat>10</sat>
      </trkpt>
      <trkpt lat="42.287963" lon="-4.138373">
        <ele>808.6</ele>
        <time>2020-08-22T10:50:49Z</time>
        <sat>9</sat>
      </trkpt>
      <trkpt lat="42.287972" lon="-4.138486">
        <ele>808.6</ele>
        <time>2020-08-22T10:50:55Z</time>
        <sat>10</sat>
      </trkpt>
      <trkpt lat="42.287987" lon="-4.138603">
        <ele>808.7</ele>
        <time>2020-08-22T10:51:02Z</time>
        <sat>10</sat>
      </trkpt>
      <trkpt lat="42.288021" lon="-4.138714">
        <ele>808.6</ele>
        <time>2020-08-22T10:51:09Z</time>
        <sat>9</sat>
      </trkpt>
      <trkpt lat="42.288077" lon="-4.138811">
        <ele>808.9</ele>
        <time>2020-08-22T10:51:17Z</time>
        <sat>8</sat>
      </trkpt>
      <trkpt lat="42.288109" lon="-4.138926">
        <ele>809.3</ele>
        <time>2020-08-22T10:51:25Z</time>
        <sat>8</sat>
      </trkpt>
      <trkpt lat="42.288122" lon="-4.139058">
        <ele>809.7</ele>
        <time>2020-08-22T10:51:33Z</time>
        <sat>10</sat>
      </trkpt>
      <trkpt lat="42.288159" lon="-4.139164">
        <ele>810.1</ele>
        <time>2020-08-22T10:51:39Z</time>
        <sat>10</sat>
      </trkpt>
      <trkpt lat="42.288180" lon="-4.139279">
        <ele>810.5</ele>
        <time>2020-08-22T10:51:45Z</time>
        <sat>10</sat>
      </trkpt>
      <trkpt lat="42.288195" lon="-4.139405">
        <ele>810.9</ele>
        <time>2020-08-22T10:51:52Z</time>
        <sat>11</sat>
      </trkpt>
      <trkpt lat="42.288220" lon="-4.139526">
        <ele>811.3</ele>
        <time>2020-08-22T10:51:59Z</time>
        <sat>11</sat>
      </trkpt>
      <trkpt lat="42.288244" lon="-4.139640">
        <ele>811.7</ele>
        <time>2020-08-22T10:52:06Z</time>
        <sat>11</sat>
      </trkpt>
      <trkpt lat="42.288257" lon="-4.139750">
        <ele>812.0</ele>
        <time>2020-08-22T10:52:12Z</time>
        <sat>11</sat>
      </trkpt>
      <trkpt lat="42.288297" lon="-4.139865">
        <ele>812.3</ele>
        <time>2020-08-22T10:52:19Z</time>
        <sat>11</sat>
      </trkpt>
      <trkpt lat="42.288338" lon="-4.139962">
        <ele>812.5</ele>
        <time>2020-08-22T10:52:25Z</time>
        <sat>10</sat>
      </trkpt>
      <trkpt lat="42.288390" lon="-4.140064">
        <ele>812.9</ele>
        <time>2020-08-22T10:52:32Z</time>
        <sat>11</sat>
      </trkpt>
      <trkpt lat="42.288440" lon="-4.140165">
        <ele>813.2</ele>
        <time>2020-08-22T10:52:39Z</time>
        <sat>11</sat>
      </trkpt>
      <trkpt lat="42.288479" lon="-4.140278">
        <ele>813.6</ele>
        <time>2020-08-22T10:52:46Z</time>
        <sat>11</sat>
      </trkpt>
      <trkpt lat="42.288528" lon="-4.140385">
        <ele>814.0</ele>
        <time>2020-08-22T10:52:54Z</time>
        <sat>10</sat>
      </trkpt>
      <trkpt lat="42.288564" lon="-4.140499">
        <ele>814.3</ele>
        <time>2020-08-22T10:53:01Z</time>
        <sat>10</sat>
      </trkpt>
      <trkpt lat="42.288615" lon="-4.140590">
        <ele>814.4</ele>
        <time>2020-08-22T10:53:08Z</time>
        <sat>11</sat>
      </trkpt>
      <trkpt lat="42.288658" lon="-4.140685">
        <ele>814.5</ele>
        <time>2020-08-22T10:53:15Z</time>
        <sat>10</sat>
      </trkpt>
      <trkpt lat="42.288698" lon="-4.140791">
        <ele>814.5</ele>
        <time>2020-08-22T10:53:22Z</time>
        <sat>9</sat>
      </trkpt>
      <trkpt lat="42.288750" lon="-4.140879">
        <ele>814.4</ele>
        <time>2020-08-22T10:53:29Z</time>
        <sat>9</sat>
      </trkpt>
      <trkpt lat="42.288813" lon="-4.140964">
        <ele>814.2</ele>
        <time>2020-08-22T10:53:37Z</time>
        <sat>11</sat>
      </trkpt>
      <trkpt lat="42.288867" lon="-4.141043">
        <ele>813.1</ele>
        <time>2020-08-23T05:14:30Z</time>
        <sat>4</sat>
      </trkpt>
      <trkpt lat="42.288940" lon="-4.141091">
        <ele>814.8</ele>
        <time>2020-08-23T05:14:51Z</time>
        <sat>5</sat>
      </trkpt>
      <trkpt lat="42.288982" lon="-4.141195">
        <ele>814.0</ele>
        <time>2020-08-23T05:14:57Z</time>
        <sat>5</sat>
      </trkpt>
      <trkpt lat="42.289014" lon="-4.141313">
        <ele>811.9</ele>
        <time>2020-08-23T05:15:06Z</time>
        <sat>5</sat>
      </trkpt>
      <trkpt lat="42.289061" lon="-4.141420">
        <ele>813.8</ele>
        <time>2020-08-23T05:15:14Z</time>
        <sat>5</sat>
      </trkpt>
      <trkpt lat="42.289103" lon="-4.141528">
        <ele>814.1</ele>
        <time>2020-08-23T05:15:22Z</time>
        <sat>5</sat>
      </trkpt>
      <trkpt lat="42.289150" lon="-4.141635">
        <ele>810.8</ele>
        <time>2020-08-23T05:15:30Z</time>
        <sat>5</sat>
      </trkpt>
      <trkpt lat="42.289202" lon="-4.141724">
        <ele>812.4</ele>
        <time>2020-08-23T05:15:38Z</time>
        <sat>5</sat>
      </trkpt>
      <trkpt lat="42.289255" lon="-4.141808">
        <ele>814.6</ele>
        <time>2020-08-23T05:15:48Z</time>
        <sat>4</sat>
      </trkpt>
      <trkpt lat="42.289308" lon="-4.141895">
        <ele>813.5</ele>
        <time>2020-08-23T05:15:55Z</time>
        <sat>5</sat>
      </trkpt>
      <trkpt lat="42.289386" lon="-4.141946">
        <ele>811.7</ele>
        <time>2020-08-23T05:16:09Z</time>
        <sat>5</sat>
      </trkpt>
      <trkpt lat="42.289418" lon="-4.142058">
        <ele>811.0</ele>
        <time>2020-08-23T05:16:17Z</time>
        <sat>5</sat>
      </trkpt>
      <trkpt lat="42.289459" lon="-4.142162">
        <ele>810.4</ele>
        <time>2020-08-23T05:16:25Z</time>
        <sat>5</sat>
      </trkpt>
      <trkpt lat="42.289500" lon="-4.142270">
        <ele>803.7</ele>
        <time>2020-08-23T05:16:34Z</time>
        <sat>6</sat>
      </trkpt>
      <trkpt lat="42.289545" lon="-4.142363">
        <ele>802.0</ele>
        <time>2020-08-23T05:16:41Z</time>
        <sat>6</sat>
      </trkpt>
      <trkpt lat="42.289595" lon="-4.142459">
        <ele>801.2</ele>
        <time>2020-08-23T05:16:48Z</time>
        <sat>6</sat>
      </trkpt>
      <trkpt lat="42.289644" lon="-4.142559">
        <ele>800.9</ele>
        <time>2020-08-23T05:16:55Z</time>
        <sat>6</sat>
      </trkpt>
      <trkpt lat="42.289668" lon="-4.142665">
        <ele>800.8</ele>
        <time>2020-08-23T05:17:02Z</time>
        <sat>6</sat>
      </trkpt>
      <trkpt lat="42.289715" lon="-4.142763">
        <ele>800.7</ele>
        <time>2020-08-23T05:17:09Z</time>
        <sat>6</sat>
      </trkpt>
      <trkpt lat="42.289778" lon="-4.142838">
        <ele>800.7</ele>
        <time>2020-08-23T05:17:17Z</time>
        <sat>6</sat>
      </trkpt>
      <trkpt lat="42.289842" lon="-4.142921">
        <ele>800.6</ele>
        <time>2020-08-23T05:17:25Z</time>
        <sat>6</sat>
      </trkpt>
      <trkpt lat="42.289880" lon="-4.143029">
        <ele>800.3</ele>
        <time>2020-08-23T05:17:32Z</time>
        <sat>6</sat>
      </trkpt>
      <trkpt lat="42.289877" lon="-4.143158">
        <ele>800.3</ele>
        <time>2020-08-23T05:17:37Z</time>
        <sat>6</sat>
      </trkpt>
      <trkpt lat="42.289887" lon="-4.143268">
        <ele>801.0</ele>
        <time>2020-08-23T05:17:43Z</time>
        <sat>6</sat>
      </trkpt>
      <trkpt lat="42.289896" lon="-4.143378">
        <ele>801.3</ele>
        <time>2020-08-23T05:17:49Z</time>
        <sat>6</sat>
      </trkpt>
      <trkpt lat="42.289928" lon="-4.143481">
        <ele>801.3</ele>
        <time>2020-08-23T05:17:55Z</time>
        <sat>6</sat>
      </trkpt>
      <trkpt lat="42.289966" lon="-4.143583">
        <ele>801.4</ele>
        <time>2020-08-23T05:18:02Z</time>
        <sat>6</sat>
      </trkpt>
      <trkpt lat="42.289996" lon="-4.143694">
        <ele>801.3</ele>
        <time>2020-08-23T05:18:10Z</time>
        <sat>6</sat>
      </trkpt>
      <trkpt lat="42.290044" lon="-4.143783">
        <ele>801.1</ele>
        <time>2020-08-23T05:18:21Z</time>
        <sat>6</sat>
      </trkpt>
      <trkpt lat="42.290070" lon="-4.143887">
        <ele>800.9</ele>
        <time>2020-08-23T05:18:43Z</time>
        <sat>6</sat>
      </trkpt>
      <trkpt lat="42.290091" lon="-4.143995">
        <ele>800.9</ele>
        <time>2020-08-23T05:18:57Z</time>
        <sat>6</sat>
      </trkpt>
      <trkpt lat="42.290144" lon="-4.144086">
        <ele>800.9</ele>
        <time>2020-08-23T05:19:08Z</time>
        <sat>6</sat>
      </trkpt>
      <trkpt lat="42.290163" lon="-4.144197">
        <ele>801.0</ele>
        <time>2020-08-23T05:19:15Z</time>
        <sat>6</sat>
      </trkpt>
      <trkpt lat="42.290196" lon="-4.144307">
        <ele>800.9</ele>
        <time>2020-08-23T05:19:23Z</time>
        <sat>6</sat>
      </trkpt>
      <trkpt lat="42.290270" lon="-4.144376">
        <ele>800.7</ele>
        <time>2020-08-23T05:19:30Z</time>
        <sat>6</sat>
      </trkpt>
      <trkpt lat="42.290307" lon="-4.144480">
        <ele>800.3</ele>
        <time>2020-08-23T05:19:37Z</time>
        <sat>6</sat>
      </trkpt>
      <trkpt lat="42.290339" lon="-4.144584">
        <ele>799.9</ele>
        <time>2020-08-23T05:19:42Z</time>
        <sat>6</sat>
      </trkpt>
      <trkpt lat="42.290353" lon="-4.144695">
        <ele>799.1</ele>
        <time>2020-08-23T05:19:49Z</time>
        <sat>5</sat>
      </trkpt>
      <trkpt lat="42.290333" lon="-4.144823">
        <ele>798.5</ele>
        <time>2020-08-23T05:19:55Z</time>
        <sat>6</sat>
      </trkpt>
      <trkpt lat="42.290311" lon="-4.144942">
        <ele>797.9</ele>
        <time>2020-08-23T05:20:02Z</time>
        <sat>6</sat>
      </trkpt>
      <trkpt lat="42.290262" lon="-4.145030">
        <ele>797.2</ele>
        <time>2020-08-23T05:20:09Z</time>
        <sat>6</sat>
      </trkpt>
      <trkpt lat="42.290196" lon="-4.145112">
        <ele>796.7</ele>
        <time>2020-08-23T05:20:16Z</time>
        <sat>5</sat>
      </trkpt>
      <trkpt lat="42.290129" lon="-4.145193">
        <ele>796.1</ele>
        <time>2020-08-23T05:20:24Z</time>
        <sat>5</sat>
      </trkpt>
      <trkpt lat="42.290077" lon="-4.145293">
        <ele>795.4</ele>
        <time>2020-08-23T05:20:34Z</time>
        <sat>6</sat>
      </trkpt>
      <trkpt lat="42.290055" lon="-4.145405">
        <ele>794.8</ele>
        <time>2020-08-23T05:20:42Z</time>
        <sat>6</sat>
      </trkpt>
      <trkpt lat="42.290037" lon="-4.145523">
        <ele>794.0</ele>
        <time>2020-08-23T05:20:51Z</time>
        <sat>6</sat>
      </trkpt>
      <trkpt lat="42.290016" lon="-4.145642">
        <ele>793.1</ele>
        <time>2020-08-23T05:21:00Z</time>
        <sat>6</sat>
      </trkpt>
      <trkpt lat="42.290000" lon="-4.145751">
        <ele>792.5</ele>
        <time>2020-08-23T05:21:08Z</time>
        <sat>6</sat>
      </trkpt>
      <trkpt lat="42.289989" lon="-4.145874">
        <ele>791.8</ele>
        <time>2020-08-23T05:21:16Z</time>
        <sat>6</sat>
      </trkpt>
      <trkpt lat="42.289987" lon="-4.145989">
        <ele>791.0</ele>
        <time>2020-08-23T05:21:23Z</time>
        <sat>6</sat>
      </trkpt>
      <trkpt lat="42.289984" lon="-4.146109">
        <ele>789.4</ele>
        <time>2020-08-23T05:21:31Z</time>
        <sat>6</sat>
      </trkpt>
      <trkpt lat="42.289989" lon="-4.146222">
        <ele>788.6</ele>
        <time>2020-08-23T05:21:40Z</time>
        <sat>6</sat>
      </trkpt>
      <trkpt lat="42.290000" lon="-4.146335">
        <ele>787.9</ele>
        <time>2020-08-23T05:21:49Z</time>
        <sat>6</sat>
      </trkpt>
      <trkpt lat="42.289992" lon="-4.146452">
        <ele>786.7</ele>
        <time>2020-08-23T05:21:57Z</time>
        <sat>6</sat>
      </trkpt>
      <trkpt lat="42.290000" lon="-4.146569">
        <ele>786.4</ele>
        <time>2020-08-23T05:22:06Z</time>
        <sat>5</sat>
      </trkpt>
      <trkpt lat="42.289984" lon="-4.146800">
        <ele>785.2</ele>
        <time>2020-08-23T05:22:22Z</time>
        <sat>6</sat>
      </trkpt>
      <trkpt lat="42.289969" lon="-4.146920">
        <ele>787.0</ele>
        <time>2020-08-23T05:22:29Z</time>
        <sat>6</sat>
      </trkpt>
      <trkpt lat="42.289958" lon="-4.147039">
        <ele>786.1</ele>
        <time>2020-08-23T05:22:37Z</time>
        <sat>6</sat>
      </trkpt>
      <trkpt lat="42.289954" lon="-4.147159">
        <ele>785.4</ele>
        <time>2020-08-23T05:22:45Z</time>
        <sat>6</sat>
      </trkpt>
      <trkpt lat="42.289956" lon="-4.147271">
        <ele>784.9</ele>
        <time>2020-08-23T05:22:52Z</time>
        <sat>6</sat>
      </trkpt>
      <trkpt lat="42.289953" lon="-4.147380">
        <ele>784.5</ele>
        <time>2020-08-23T05:22:59Z</time>
        <sat>6</sat>
      </trkpt>
      <trkpt lat="42.289950" lon="-4.147492">
        <ele>784.2</ele>
        <time>2020-08-23T05:23:06Z</time>
        <sat>6</sat>
      </trkpt>
      <trkpt lat="42.289965" lon="-4.147613">
        <ele>783.9</ele>
        <time>2020-08-23T05:23:14Z</time>
        <sat>6</sat>
      </trkpt>
      <trkpt lat="42.289959" lon="-4.147729">
        <ele>783.8</ele>
        <time>2020-08-23T05:23:22Z</time>
        <sat>6</sat>
      </trkpt>
      <trkpt lat="42.289932" lon="-4.147834">
        <ele>783.7</ele>
        <time>2020-08-23T05:23:30Z</time>
        <sat>7</sat>
      </trkpt>
      <trkpt lat="42.289917" lon="-4.147954">
        <ele>783.2</ele>
        <time>2020-08-23T05:23:39Z</time>
        <sat>7</sat>
      </trkpt>
      <trkpt lat="42.289897" lon="-4.148066">
        <ele>782.6</ele>
        <time>2020-08-23T05:23:46Z</time>
        <sat>7</sat>
      </trkpt>
      <trkpt lat="42.289879" lon="-4.148185">
        <ele>782.1</ele>
        <time>2020-08-23T05:23:53Z</time>
        <sat>7</sat>
      </trkpt>
      <trkpt lat="42.289888" lon="-4.148306">
        <ele>781.5</ele>
        <time>2020-08-23T05:24:00Z</time>
        <sat>7</sat>
      </trkpt>
      <trkpt lat="42.289884" lon="-4.148428">
        <ele>781.1</ele>
        <time>2020-08-23T05:24:07Z</time>
        <sat>7</sat>
      </trkpt>
      <trkpt lat="42.289890" lon="-4.148552">
        <ele>780.7</ele>
        <time>2020-08-23T05:24:14Z</time>
        <sat>7</sat>
      </trkpt>
      <trkpt lat="42.289899" lon="-4.148675">
        <ele>780.3</ele>
        <time>2020-08-23T05:24:21Z</time>
        <sat>7</sat>
      </trkpt>
      <trkpt lat="42.289913" lon="-4.148790">
        <ele>780.1</ele>
        <time>2020-08-23T05:24:28Z</time>
        <sat>8</sat>
      </trkpt>
      <trkpt lat="42.289927" lon="-4.148902">
        <ele>779.8</ele>
        <time>2020-08-23T05:24:35Z</time>
        <sat>8</sat>
      </trkpt>
      <trkpt lat="42.289937" lon="-4.149017">
        <ele>779.6</ele>
        <time>2020-08-23T05:24:42Z</time>
        <sat>8</sat>
      </trkpt>
      <trkpt lat="42.289956" lon="-4.149138">
        <ele>779.4</ele>
        <time>2020-08-23T05:24:49Z</time>
        <sat>8</sat>
      </trkpt>
      <trkpt lat="42.289965" lon="-4.149263">
        <ele>779.2</ele>
        <time>2020-08-23T05:24:56Z</time>
        <sat>9</sat>
      </trkpt>
      <trkpt lat="42.289980" lon="-4.149382">
        <ele>779.0</ele>
        <time>2020-08-23T05:25:03Z</time>
        <sat>9</sat>
      </trkpt>
      <trkpt lat="42.289994" lon="-4.149499">
        <ele>778.8</ele>
        <time>2020-08-23T05:25:10Z</time>
        <sat>9</sat>
      </trkpt>
      <trkpt lat="42.290009" lon="-4.149614">
        <ele>778.8</ele>
        <time>2020-08-23T05:25:17Z</time>
        <sat>9</sat>
      </trkpt>
      <trkpt lat="42.290024" lon="-4.149729">
        <ele>778.6</ele>
        <time>2020-08-23T05:25:24Z</time>
        <sat>9</sat>
      </trkpt>
      <trkpt lat="42.290042" lon="-4.149843">
        <ele>778.5</ele>
        <time>2020-08-23T05:25:31Z</time>
        <sat>9</sat>
      </trkpt>
      <trkpt lat="42.290049" lon="-4.149956">
        <ele>778.4</ele>
        <time>2020-08-23T05:25:38Z</time>
        <sat>9</sat>
      </trkpt>
      <trkpt lat="42.290055" lon="-4.150069">
        <ele>778.3</ele>
        <time>2020-08-23T05:25:45Z</time>
        <sat>9</sat>
      </trkpt>
      <trkpt lat="42.290062" lon="-4.150186">
        <ele>778.2</ele>
        <time>2020-08-23T05:25:52Z</time>
        <sat>9</sat>
      </trkpt>
      <trkpt lat="42.290066" lon="-4.150307">
        <ele>778.1</ele>
        <time>2020-08-23T05:25:59Z</time>
        <sat>9</sat>
      </trkpt>
      <trkpt lat="42.290064" lon="-4.150424">
        <ele>777.9</ele>
        <time>2020-08-23T05:26:06Z</time>
        <sat>9</sat>
      </trkpt>
      <trkpt lat="42.290060" lon="-4.150542">
        <ele>777.7</ele>
        <time>2020-08-23T05:26:13Z</time>
        <sat>9</sat>
      </trkpt>
      <trkpt lat="42.290050" lon="-4.150661">
        <ele>777.4</ele>
        <time>2020-08-23T05:26:20Z</time>
        <sat>9</sat>
      </trkpt>
      <trkpt lat="42.290038" lon="-4.150779">
        <ele>777.3</ele>
        <time>2020-08-23T05:26:27Z</time>
        <sat>9</sat>
      </trkpt>
      <trkpt lat="42.290035" lon="-4.150900">
        <ele>777.2</ele>
        <time>2020-08-23T05:26:34Z</time>
        <sat>9</sat>
      </trkpt>
      <trkpt lat="42.290023" lon="-4.151017">
        <ele>777.1</ele>
        <time>2020-08-23T05:26:41Z</time>
        <sat>9</sat>
      </trkpt>
      <trkpt lat="42.290014" lon="-4.151137">
        <ele>777.0</ele>
        <time>2020-08-23T05:26:48Z</time>
        <sat>9</sat>
      </trkpt>
      <trkpt lat="42.290012" lon="-4.151256">
        <ele>776.8</ele>
        <time>2020-08-23T05:26:55Z</time>
        <sat>9</sat>
      </trkpt>
      <trkpt lat="42.290000" lon="-4.151377">
        <ele>776.6</ele>
        <time>2020-08-23T05:27:02Z</time>
        <sat>9</sat>
      </trkpt>
      <trkpt lat="42.289998" lon="-4.151499">
        <ele>776.3</ele>
        <time>2020-08-23T05:27:09Z</time>
        <sat>9</sat>
      </trkpt>
      <trkpt lat="42.289990" lon="-4.151621">
        <ele>776.2</ele>
        <time>2020-08-23T05:27:16Z</time>
        <sat>9</sat>
      </trkpt>
      <trkpt lat="42.289990" lon="-4.151744">
        <ele>776.1</ele>
        <time>2020-08-23T05:27:23Z</time>
        <sat>9</sat>
      </trkpt>
      <trkpt lat="42.289990" lon="-4.151861">
        <ele>775.9</ele>
        <time>2020-08-23T05:27:30Z</time>
        <sat>9</sat>
      </trkpt>
      <trkpt lat="42.289978" lon="-4.151971">
        <ele>775.9</ele>
        <time>2020-08-23T05:27:37Z</time>
        <sat>9</sat>
      </trkpt>
      <trkpt lat="42.289973" lon="-4.152090">
        <ele>775.8</ele>
        <time>2020-08-23T05:27:44Z</time>
        <sat>9</sat>
      </trkpt>
      <trkpt lat="42.289966" lon="-4.152213">
        <ele>775.7</ele>
        <time>2020-08-23T05:27:51Z</time>
        <sat>9</sat>
      </trkpt>
      <trkpt lat="42.289954" lon="-4.152333">
        <ele>775.7</ele>
        <time>2020-08-23T05:27:58Z</time>
        <sat>9</sat>
      </trkpt>
      <trkpt lat="42.289947" lon="-4.152449">
        <ele>775.6</ele>
        <time>2020-08-23T05:28:05Z</time>
        <sat>9</sat>
      </trkpt>
      <trkpt lat="42.289946" lon="-4.152575">
        <ele>775.4</ele>
        <time>2020-08-23T05:28:12Z</time>
        <sat>9</sat>
      </trkpt>
      <trkpt lat="42.289930" lon="-4.152695">
        <ele>775.4</ele>
        <time>2020-08-23T05:28:19Z</time>
        <sat>9</sat>
      </trkpt>
      <trkpt lat="42.289930" lon="-4.152811">
        <ele>775.4</ele>
        <time>2020-08-23T05:28:26Z</time>
        <sat>9</sat>
      </trkpt>
      <trkpt lat="42.289925" lon="-4.152933">
        <ele>775.2</ele>
        <time>2020-08-23T05:28:33Z</time>
        <sat>9</sat>
      </trkpt>
      <trkpt lat="42.289918" lon="-4.153050">
        <ele>775.1</ele>
        <time>2020-08-23T05:28:40Z</time>
        <sat>9</sat>
      </trkpt>
      <trkpt lat="42.289913" lon="-4.153160">
        <ele>775.1</ele>
        <time>2020-08-23T05:28:46Z</time>
        <sat>9</sat>
      </trkpt>
      <trkpt lat="42.289918" lon="-4.153279">
        <ele>775.0</ele>
        <time>2020-08-23T05:28:53Z</time>
        <sat>9</sat>
      </trkpt>
      <trkpt lat="42.289907" lon="-4.153397">
        <ele>774.8</ele>
        <time>2020-08-23T05:29:00Z</time>
        <sat>9</sat>
      </trkpt>
      <trkpt lat="42.289904" lon="-4.153524">
        <ele>774.6</ele>
        <time>2020-08-23T05:29:07Z</time>
        <sat>9</sat>
      </trkpt>
      <trkpt lat="42.289891" lon="-4.153649">
        <ele>774.5</ele>
        <time>2020-08-23T05:29:14Z</time>
        <sat>9</sat>
      </trkpt>
      <trkpt lat="42.289887" lon="-4.153763">
        <ele>774.3</ele>
        <time>2020-08-23T05:29:20Z</time>
        <sat>9</sat>
      </trkpt>
      <trkpt lat="42.289890" lon="-4.153889">
        <ele>774.2</ele>
        <time>2020-08-23T05:29:27Z</time>
        <sat>9</sat>
      </trkpt>
      <trkpt lat="42.289879" lon="-4.154015">
        <ele>774.0</ele>
        <time>2020-08-23T05:29:34Z</time>
        <sat>9</sat>
      </trkpt>
      <trkpt lat="42.289878" lon="-4.154140">
        <ele>773.7</ele>
        <time>2020-08-23T05:29:41Z</time>
        <sat>9</sat>
      </trkpt>
      <trkpt lat="42.289868" lon="-4.154263">
        <ele>773.5</ele>
        <time>2020-08-23T05:29:48Z</time>
        <sat>9</sat>
      </trkpt>
      <trkpt lat="42.289865" lon="-4.154382">
        <ele>773.3</ele>
        <time>2020-08-23T05:29:55Z</time>
        <sat>8</sat>
      </trkpt>
      <trkpt lat="42.289854" lon="-4.154508">
        <ele>773.2</ele>
        <time>2020-08-23T05:30:02Z</time>
        <sat>9</sat>
      </trkpt>
      <trkpt lat="42.289852" lon="-4.154632">
        <ele>773.1</ele>
        <time>2020-08-23T05:30:09Z</time>
        <sat>9</sat>
      </trkpt>
      <trkpt lat="42.289832" lon="-4.154757">
        <ele>773.0</ele>
        <time>2020-08-23T05:30:16Z</time>
        <sat>9</sat>
      </trkpt>
      <trkpt lat="42.289830" lon="-4.154877">
        <ele>772.7</ele>
        <time>2020-08-23T05:30:23Z</time>
        <sat>9</sat>
      </trkpt>
      <trkpt lat="42.289813" lon="-4.155003">
        <ele>772.6</ele>
        <time>2020-08-23T05:30:30Z</time>
        <sat>8</sat>
      </trkpt>
      <trkpt lat="42.289801" lon="-4.155117">
        <ele>772.5</ele>
        <time>2020-08-23T05:30:36Z</time>
        <sat>9</sat>
      </trkpt>
      <trkpt lat="42.289793" lon="-4.155227">
        <ele>772.3</ele>
        <time>2020-08-23T05:30:42Z</time>
        <sat>9</sat>
      </trkpt>
      <trkpt lat="42.289781" lon="-4.155337">
        <ele>772.1</ele>
        <time>2020-08-23T05:30:48Z</time>
        <sat>9</sat>
      </trkpt>
      <trkpt lat="42.289777" lon="-4.155463">
        <ele>771.8</ele>
        <time>2020-08-23T05:30:55Z</time>
        <sat>9</sat>
      </trkpt>
      <trkpt lat="42.289766" lon="-4.155582">
        <ele>771.7</ele>
        <time>2020-08-23T05:31:02Z</time>
        <sat>9</sat>
      </trkpt>
      <trkpt lat="42.289761" lon="-4.155710">
        <ele>771.5</ele>
        <time>2020-08-23T05:31:09Z</time>
        <sat>9</sat>
      </trkpt>
      <trkpt lat="42.289751" lon="-4.155834">
        <ele>771.1</ele>
        <time>2020-08-23T05:31:16Z</time>
        <sat>9</sat>
      </trkpt>
      <trkpt lat="42.289751" lon="-4.155956">
        <ele>770.7</ele>
        <time>2020-08-23T05:31:23Z</time>
        <sat>9</sat>
      </trkpt>
      <trkpt lat="42.289749" lon="-4.156082">
        <ele>770.2</ele>
        <time>2020-08-23T05:31:30Z</time>
        <sat>9</sat>
      </trkpt>
      <trkpt lat="42.289747" lon="-4.156210">
        <ele>769.8</ele>
        <time>2020-08-23T05:31:37Z</time>
        <sat>9</sat>
      </trkpt>
      <trkpt lat="42.289744" lon="-4.156323">
        <ele>769.4</ele>
        <time>2020-08-23T05:31:43Z</time>
        <sat>9</sat>
      </trkpt>
      <trkpt lat="42.289739" lon="-4.156446">
        <ele>768.9</ele>
        <time>2020-08-23T05:31:50Z</time>
        <sat>9</sat>
      </trkpt>
      <trkpt lat="42.289726" lon="-4.156555">
        <ele>768.5</ele>
        <time>2020-08-23T05:31:56Z</time>
        <sat>9</sat>
      </trkpt>
      <trkpt lat="42.289723" lon="-4.156675">
        <ele>768.1</ele>
        <time>2020-08-23T05:32:03Z</time>
        <sat>9</sat>
      </trkpt>
      <trkpt lat="42.289712" lon="-4.156784">
        <ele>767.8</ele>
        <time>2020-08-23T05:32:09Z</time>
        <sat>9</sat>
      </trkpt>
      <trkpt lat="42.289708" lon="-4.156910">
        <ele>767.6</ele>
        <time>2020-08-23T05:32:16Z</time>
        <sat>9</sat>
      </trkpt>
      <trkpt lat="42.289696" lon="-4.157035">
        <ele>767.3</ele>
        <time>2020-08-23T05:32:23Z</time>
        <sat>9</sat>
      </trkpt>
      <trkpt lat="42.289696" lon="-4.157145">
        <ele>767.1</ele>
        <time>2020-08-23T05:32:29Z</time>
        <sat>9</sat>
      </trkpt>
      <trkpt lat="42.289686" lon="-4.157256">
        <ele>767.0</ele>
        <time>2020-08-23T05:32:35Z</time>
        <sat>9</sat>
      </trkpt>
      <trkpt lat="42.289689" lon="-4.157380">
        <ele>766.8</ele>
        <time>2020-08-23T05:32:42Z</time>
        <sat>9</sat>
      </trkpt>
      <trkpt lat="42.289684" lon="-4.157508">
        <ele>766.6</ele>
        <time>2020-08-23T05:32:49Z</time>
        <sat>9</sat>
      </trkpt>
      <trkpt lat="42.289694" lon="-4.157618">
        <ele>766.4</ele>
        <time>2020-08-23T05:32:55Z</time>
        <sat>9</sat>
      </trkpt>
      <trkpt lat="42.289699" lon="-4.157744">
        <ele>766.3</ele>
        <time>2020-08-23T05:33:02Z</time>
        <sat>9</sat>
      </trkpt>
      <trkpt lat="42.289714" lon="-4.157856">
        <ele>766.2</ele>
        <time>2020-08-23T05:33:08Z</time>
        <sat>9</sat>
      </trkpt>
      <trkpt lat="42.289723" lon="-4.157981">
        <ele>766.0</ele>
        <time>2020-08-23T05:33:15Z</time>
        <sat>9</sat>
      </trkpt>
      <trkpt lat="42.289740" lon="-4.158091">
        <ele>765.9</ele>
        <time>2020-08-23T05:33:21Z</time>
        <sat>9</sat>
      </trkpt>
      <trkpt lat="42.289752" lon="-4.158219">
        <ele>765.6</ele>
        <time>2020-08-23T05:33:28Z</time>
        <sat>9</sat>
      </trkpt>
      <trkpt lat="42.289773" lon="-4.158344">
        <ele>765.4</ele>
        <time>2020-08-23T05:33:35Z</time>
        <sat>9</sat>
      </trkpt>
      <trkpt lat="42.289793" lon="-4.158469">
        <ele>765.3</ele>
        <time>2020-08-23T05:33:42Z</time>
        <sat>9</sat>
      </trkpt>
      <trkpt lat="42.289807" lon="-4.158579">
        <ele>765.2</ele>
        <time>2020-08-23T05:33:48Z</time>
        <sat>9</sat>
      </trkpt>
      <trkpt lat="42.289832" lon="-4.158683">
        <ele>765.0</ele>
        <time>2020-08-23T05:33:54Z</time>
        <sat>9</sat>
      </trkpt>
      <trkpt lat="42.289842" lon="-4.158810">
        <ele>764.9</ele>
        <time>2020-08-23T05:34:01Z</time>
        <sat>9</sat>
      </trkpt>
      <trkpt lat="42.289860" lon="-4.158922">
        <ele>764.8</ele>
        <time>2020-08-23T05:34:07Z</time>
        <sat>9</sat>
      </trkpt>
      <trkpt lat="42.289875" lon="-4.159044">
        <ele>764.8</ele>
        <time>2020-08-23T05:34:14Z</time>
        <sat>9</sat>
      </trkpt>
      <trkpt lat="42.289890" lon="-4.159156">
        <ele>764.6</ele>
        <time>2020-08-23T05:34:20Z</time>
        <sat>9</sat>
      </trkpt>
      <trkpt lat="42.289917" lon="-4.159263">
        <ele>764.6</ele>
        <time>2020-08-23T05:34:26Z</time>
        <sat>9</sat>
      </trkpt>
      <trkpt lat="42.289927" lon="-4.159372">
        <ele>764.5</ele>
        <time>2020-08-23T05:34:32Z</time>
        <sat>9</sat>
      </trkpt>
      <trkpt lat="42.289942" lon="-4.159484">
        <ele>764.4</ele>
        <time>2020-08-23T05:34:38Z</time>
        <sat>9</sat>
      </trkpt>
      <trkpt lat="42.289945" lon="-4.159604">
        <ele>764.3</ele>
        <time>2020-08-23T05:34:45Z</time>
        <sat>9</sat>
      </trkpt>
      <trkpt lat="42.289960" lon="-4.159721">
        <ele>764.2</ele>
        <time>2020-08-23T05:34:52Z</time>
        <sat>9</sat>
      </trkpt>
      <trkpt lat="42.289971" lon="-4.159840">
        <ele>764.3</ele>
        <time>2020-08-23T05:34:59Z</time>
        <sat>9</sat>
      </trkpt>
      <trkpt lat="42.289970" lon="-4.159957">
        <ele>764.6</ele>
        <time>2020-08-23T05:35:06Z</time>
        <sat>9</sat>
      </trkpt>
      <trkpt lat="42.289975" lon="-4.160072">
        <ele>764.8</ele>
        <time>2020-08-23T05:35:13Z</time>
        <sat>9</sat>
      </trkpt>
      <trkpt lat="42.289984" lon="-4.160196">
        <ele>764.8</ele>
        <time>2020-08-23T05:35:20Z</time>
        <sat>9</sat>
      </trkpt>
      <trkpt lat="42.289982" lon="-4.160319">
        <ele>764.8</ele>
        <time>2020-08-23T05:35:27Z</time>
        <sat>9</sat>
      </trkpt>
      <trkpt lat="42.289986" lon="-4.160433">
        <ele>764.8</ele>
        <time>2020-08-23T05:35:34Z</time>
        <sat>9</sat>
      </trkpt>
      <trkpt lat="42.289981" lon="-4.160551">
        <ele>764.9</ele>
        <time>2020-08-23T05:35:41Z</time>
        <sat>9</sat>
      </trkpt>
      <trkpt lat="42.289975" lon="-4.160671">
        <ele>764.8</ele>
        <time>2020-08-23T05:35:48Z</time>
        <sat>9</sat>
      </trkpt>
      <trkpt lat="42.289972" lon="-4.160782">
        <ele>764.8</ele>
        <time>2020-08-23T05:35:54Z</time>
        <sat>9</sat>
      </trkpt>
      <trkpt lat="42.289966" lon="-4.160899">
        <ele>764.8</ele>
        <time>2020-08-23T05:36:01Z</time>
        <sat>9</sat>
      </trkpt>
      <trkpt lat="42.289966" lon="-4.161021">
        <ele>764.7</ele>
        <time>2020-08-23T05:36:08Z</time>
        <sat>9</sat>
      </trkpt>
      <trkpt lat="42.289959" lon="-4.161143">
        <ele>764.7</ele>
        <time>2020-08-23T05:36:15Z</time>
        <sat>9</sat>
      </trkpt>
      <trkpt lat="42.289959" lon="-4.161261">
        <ele>764.7</ele>
        <time>2020-08-23T05:36:22Z</time>
        <sat>9</sat>
      </trkpt>
      <trkpt lat="42.289959" lon="-4.161375">
        <ele>764.7</ele>
        <time>2020-08-23T05:36:29Z</time>
        <sat>9</sat>
      </trkpt>
      <trkpt lat="42.289954" lon="-4.161490">
        <ele>764.7</ele>
        <time>2020-08-23T05:36:36Z</time>
        <sat>9</sat>
      </trkpt>
      <trkpt lat="42.289956" lon="-4.161604">
        <ele>764.7</ele>
        <time>2020-08-23T05:36:43Z</time>
        <sat>9</sat>
      </trkpt>
      <trkpt lat="42.289955" lon="-4.161723">
        <ele>764.7</ele>
        <time>2020-08-23T05:36:50Z</time>
        <sat>9</sat>
      </trkpt>
      <trkpt lat="42.289954" lon="-4.161843">
        <ele>764.8</ele>
        <time>2020-08-23T05:36:57Z</time>
        <sat>9</sat>
      </trkpt>
      <trkpt lat="42.289946" lon="-4.161967">
        <ele>764.9</ele>
        <time>2020-08-23T05:37:04Z</time>
        <sat>9</sat>
      </trkpt>
      <trkpt lat="42.289946" lon="-4.162088">
        <ele>764.9</ele>
        <time>2020-08-23T05:37:11Z</time>
        <sat>9</sat>
      </trkpt>
      <trkpt lat="42.289946" lon="-4.162208">
        <ele>765.0</ele>
        <time>2020-08-23T05:37:18Z</time>
        <sat>9</sat>
      </trkpt>
      <trkpt lat="42.289942" lon="-4.162327">
        <ele>765.1</ele>
        <time>2020-08-23T05:37:25Z</time>
        <sat>9</sat>
      </trkpt>
      <trkpt lat="42.289948" lon="-4.162449">
        <ele>765.2</ele>
        <time>2020-08-23T05:37:32Z</time>
        <sat>9</sat>
      </trkpt>
      <trkpt lat="42.289942" lon="-4.162571">
        <ele>765.2</ele>
        <time>2020-08-23T05:37:39Z</time>
        <sat>9</sat>
      </trkpt>
      <trkpt lat="42.289941" lon="-4.162688">
        <ele>765.1</ele>
        <time>2020-08-23T05:37:46Z</time>
        <sat>9</sat>
      </trkpt>
      <trkpt lat="42.289948" lon="-4.162812">
        <ele>765.0</ele>
        <time>2020-08-23T05:37:53Z</time>
        <sat>9</sat>
      </trkpt>
      <trkpt lat="42.289977" lon="-4.162926">
        <ele>765.0</ele>
        <time>2020-08-23T05:38:00Z</time>
        <sat>9</sat>
      </trkpt>
      <trkpt lat="42.290020" lon="-4.163026">
        <ele>765.1</ele>
        <time>2020-08-23T05:38:07Z</time>
        <sat>9</sat>
      </trkpt>
      <trkpt lat="42.290064" lon="-4.163135">
        <ele>765.3</ele>
        <time>2020-08-23T05:38:14Z</time>
        <sat>9</sat>
      </trkpt>
      <trkpt lat="42.290106" lon="-4.163244">
        <ele>765.5</ele>
        <time>2020-08-23T05:38:21Z</time>
        <sat>9</sat>
      </trkpt>
      <trkpt lat="42.290153" lon="-4.163352">
        <ele>765.6</ele>
        <time>2020-08-23T05:38:28Z</time>
        <sat>9</sat>
      </trkpt>
      <trkpt lat="42.290192" lon="-4.163459">
        <ele>765.8</ele>
        <time>2020-08-23T05:38:35Z</time>
        <sat>9</sat>
      </trkpt>
      <trkpt lat="42.290223" lon="-4.163574">
        <ele>765.8</ele>
        <time>2020-08-23T05:38:42Z</time>
        <sat>9</sat>
      </trkpt>
      <trkpt lat="42.290266" lon="-4.163681">
        <ele>765.5</ele>
        <time>2020-08-23T05:38:49Z</time>
        <sat>9</sat>
      </trkpt>
      <trkpt lat="42.290313" lon="-4.163777">
        <ele>765.1</ele>
        <time>2020-08-23T05:38:56Z</time>
        <sat>9</sat>
      </trkpt>
      <trkpt lat="42.290362" lon="-4.163878">
        <ele>764.8</ele>
        <time>2020-08-23T05:39:03Z</time>
        <sat>9</sat>
      </trkpt>
      <trkpt lat="42.290418" lon="-4.163970">
        <ele>764.5</ele>
        <time>2020-08-23T05:39:10Z</time>
        <sat>9</sat>
      </trkpt>
      <trkpt lat="42.290463" lon="-4.164070">
        <ele>764.4</ele>
        <time>2020-08-23T05:39:17Z</time>
        <sat>9</sat>
      </trkpt>
      <trkpt lat="42.290522" lon="-4.164162">
        <ele>764.3</ele>
        <time>2020-08-23T05:39:24Z</time>
        <sat>9</sat>
      </trkpt>
      <trkpt lat="42.290566" lon="-4.164261">
        <ele>764.3</ele>
        <time>2020-08-23T05:39:32Z</time>
        <sat>9</sat>
      </trkpt>
      <trkpt lat="42.290617" lon="-4.164348">
        <ele>764.3</ele>
        <time>2020-08-23T05:39:38Z</time>
        <sat>9</sat>
      </trkpt>
      <trkpt lat="42.290655" lon="-4.164444">
        <ele>764.4</ele>
        <time>2020-08-23T05:39:44Z</time>
        <sat>9</sat>
      </trkpt>
      <trkpt lat="42.290703" lon="-4.164535">
        <ele>764.4</ele>
        <time>2020-08-23T05:39:50Z</time>
        <sat>9</sat>
      </trkpt>
      <trkpt lat="42.290746" lon="-4.164647">
        <ele>764.4</ele>
        <time>2020-08-23T05:39:57Z</time>
        <sat>8</sat>
      </trkpt>
      <trkpt lat="42.290794" lon="-4.164737">
        <ele>764.3</ele>
        <time>2020-08-23T05:40:03Z</time>
        <sat>8</sat>
      </trkpt>
      <trkpt lat="42.290833" lon="-4.164833">
        <ele>764.3</ele>
        <time>2020-08-23T05:40:09Z</time>
        <sat>8</sat>
      </trkpt>
      <trkpt lat="42.290884" lon="-4.164936">
        <ele>764.4</ele>
        <time>2020-08-23T05:40:16Z</time>
        <sat>8</sat>
      </trkpt>
      <trkpt lat="42.290927" lon="-4.165049">
        <ele>764.7</ele>
        <time>2020-08-23T05:40:23Z</time>
        <sat>8</sat>
      </trkpt>
      <trkpt lat="42.290978" lon="-4.165150">
        <ele>764.7</ele>
        <time>2020-08-23T05:40:30Z</time>
        <sat>8</sat>
      </trkpt>
      <trkpt lat="42.291014" lon="-4.165249">
        <ele>764.7</ele>
        <time>2020-08-23T05:40:36Z</time>
        <sat>8</sat>
      </trkpt>
      <trkpt lat="42.291056" lon="-4.165354">
        <ele>764.8</ele>
        <time>2020-08-23T05:40:43Z</time>
        <sat>8</sat>
      </trkpt>
      <trkpt lat="42.291082" lon="-4.165460">
        <ele>764.8</ele>
        <time>2020-08-23T05:40:49Z</time>
        <sat>8</sat>
      </trkpt>
      <trkpt lat="42.291100" lon="-4.165579">
        <ele>765.1</ele>
        <time>2020-08-23T05:40:56Z</time>
        <sat>8</sat>
      </trkpt>
      <trkpt lat="42.291102" lon="-4.165703">
        <ele>765.3</ele>
        <time>2020-08-23T05:41:03Z</time>
        <sat>8</sat>
      </trkpt>
      <trkpt lat="42.291083" lon="-4.165819">
        <ele>765.7</ele>
        <time>2020-08-23T05:41:10Z</time>
        <sat>8</sat>
      </trkpt>
      <trkpt lat="42.291067" lon="-4.165929">
        <ele>766.0</ele>
        <time>2020-08-23T05:41:17Z</time>
        <sat>8</sat>
      </trkpt>
      <trkpt lat="42.291052" lon="-4.166044">
        <ele>766.1</ele>
        <time>2020-08-23T05:41:24Z</time>
        <sat>8</sat>
      </trkpt>
      <trkpt lat="42.291035" lon="-4.166164">
        <ele>766.3</ele>
        <time>2020-08-23T05:41:31Z</time>
        <sat>8</sat>
      </trkpt>
      <trkpt lat="42.291019" lon="-4.166281">
        <ele>766.5</ele>
        <time>2020-08-23T05:41:38Z</time>
        <sat>8</sat>
      </trkpt>
      <trkpt lat="42.290997" lon="-4.166399">
        <ele>766.8</ele>
        <time>2020-08-23T05:41:45Z</time>
        <sat>8</sat>
      </trkpt>
      <trkpt lat="42.290979" lon="-4.166513">
        <ele>767.1</ele>
        <time>2020-08-23T05:41:52Z</time>
        <sat>8</sat>
      </trkpt>
      <trkpt lat="42.290962" lon="-4.166623">
        <ele>767.6</ele>
        <time>2020-08-23T05:41:59Z</time>
        <sat>8</sat>
      </trkpt>
      <trkpt lat="42.290949" lon="-4.166736">
        <ele>767.9</ele>
        <time>2020-08-23T05:42:06Z</time>
        <sat>8</sat>
      </trkpt>
      <trkpt lat="42.290939" lon="-4.166859">
        <ele>768.3</ele>
        <time>2020-08-23T05:42:14Z</time>
        <sat>8</sat>
      </trkpt>
      <trkpt lat="42.290923" lon="-4.166968">
        <ele>768.7</ele>
        <time>2020-08-23T05:42:21Z</time>
        <sat>8</sat>
      </trkpt>
      <trkpt lat="42.290912" lon="-4.167085">
        <ele>769.1</ele>
        <time>2020-08-23T05:42:28Z</time>
        <sat>8</sat>
      </trkpt>
      <trkpt lat="42.290900" lon="-4.167197">
        <ele>769.5</ele>
        <time>2020-08-23T05:42:35Z</time>
        <sat>8</sat>
      </trkpt>
      <trkpt lat="42.290897" lon="-4.167319">
        <ele>769.9</ele>
        <time>2020-08-23T05:42:42Z</time>
        <sat>8</sat>
      </trkpt>
      <trkpt lat="42.290900" lon="-4.167432">
        <ele>770.2</ele>
        <time>2020-08-23T05:42:49Z</time>
        <sat>8</sat>
      </trkpt>
      <trkpt lat="42.290903" lon="-4.167544">
        <ele>767.7</ele>
        <time>2020-08-23T05:42:57Z</time>
        <sat>8</sat>
      </trkpt>
      <trkpt lat="42.290903" lon="-4.167658">
        <ele>770.6</ele>
        <time>2020-08-23T05:43:04Z</time>
        <sat>8</sat>
      </trkpt>
      <trkpt lat="42.290881" lon="-4.167768">
        <ele>773.0</ele>
        <time>2020-08-23T05:43:11Z</time>
        <sat>8</sat>
      </trkpt>
      <trkpt lat="42.290848" lon="-4.167871">
        <ele>773.6</ele>
        <time>2020-08-23T05:44:04Z</time>
        <sat>8</sat>
      </trkpt>
      <trkpt lat="42.290812" lon="-4.167974">
        <ele>773.6</ele>
        <time>2020-08-23T05:44:13Z</time>
        <sat>8</sat>
      </trkpt>
      <trkpt lat="42.290783" lon="-4.168078">
        <ele>773.9</ele>
        <time>2020-08-23T05:44:26Z</time>
        <sat>8</sat>
      </trkpt>
      <trkpt lat="42.290745" lon="-4.168178">
        <ele>774.5</ele>
        <time>2020-08-23T05:44:35Z</time>
        <sat>8</sat>
      </trkpt>
      <trkpt lat="42.290749" lon="-4.168290">
        <ele>775.5</ele>
        <time>2020-08-23T05:44:46Z</time>
        <sat>8</sat>
      </trkpt>
      <trkpt lat="42.290742" lon="-4.168410">
        <ele>777.1</ele>
        <time>2020-08-23T05:44:56Z</time>
        <sat>8</sat>
      </trkpt>
      <trkpt lat="42.290725" lon="-4.168528">
        <ele>778.8</ele>
        <time>2020-08-23T05:45:07Z</time>
        <sat>8</sat>
      </trkpt>
      <trkpt lat="42.290713" lon="-4.168642">
        <ele>779.8</ele>
        <time>2020-08-23T05:45:16Z</time>
        <sat>8</sat>
      </trkpt>
      <trkpt lat="42.290712" lon="-4.168752">
        <ele>782.7</ele>
        <time>2020-08-23T05:45:24Z</time>
        <sat>9</sat>
      </trkpt>
      <trkpt lat="42.290727" lon="-4.168861">
        <ele>784.0</ele>
        <time>2020-08-23T05:45:33Z</time>
        <sat>9</sat>
      </trkpt>
      <trkpt lat="42.290753" lon="-4.168976">
        <ele>783.9</ele>
        <time>2020-08-23T05:45:43Z</time>
        <sat>9</sat>
      </trkpt>
      <trkpt lat="42.290779" lon="-4.169084">
        <ele>787.3</ele>
        <time>2020-08-23T05:45:53Z</time>
        <sat>9</sat>
      </trkpt>
      <trkpt lat="42.290818" lon="-4.169188">
        <ele>788.2</ele>
        <time>2020-08-23T05:46:02Z</time>
        <sat>9</sat>
      </trkpt>
      <trkpt lat="42.290840" lon="-4.169303">
        <ele>789.2</ele>
        <time>2020-08-23T05:46:11Z</time>
        <sat>9</sat>
      </trkpt>
      <trkpt lat="42.290841" lon="-4.169417">
        <ele>790.8</ele>
        <time>2020-08-23T05:46:20Z</time>
        <sat>10</sat>
      </trkpt>
      <trkpt lat="42.290816" lon="-4.169523">
        <ele>792.3</ele>
        <time>2020-08-23T05:46:30Z</time>
        <sat>8</sat>
      </trkpt>
      <trkpt lat="42.290771" lon="-4.169619">
        <ele>793.7</ele>
        <time>2020-08-23T05:46:39Z</time>
        <sat>9</sat>
      </trkpt>
      <trkpt lat="42.290704" lon="-4.169692">
        <ele>795.4</ele>
        <time>2020-08-23T05:46:49Z</time>
        <sat>9</sat>
      </trkpt>
      <trkpt lat="42.290634" lon="-4.169765">
        <ele>797.3</ele>
        <time>2020-08-23T05:46:59Z</time>
        <sat>10</sat>
      </trkpt>
      <trkpt lat="42.290563" lon="-4.169817">
        <ele>798.9</ele>
        <time>2020-08-23T05:47:08Z</time>
        <sat>10</sat>
      </trkpt>
      <trkpt lat="42.290490" lon="-4.169865">
        <ele>800.4</ele>
        <time>2020-08-23T05:47:17Z</time>
        <sat>9</sat>
      </trkpt>
      <trkpt lat="42.290429" lon="-4.169938">
        <ele>801.8</ele>
        <time>2020-08-23T05:47:26Z</time>
        <sat>10</sat>
      </trkpt>
      <trkpt lat="42.290361" lon="-4.170002">
        <ele>802.9</ele>
        <time>2020-08-23T05:47:34Z</time>
        <sat>10</sat>
      </trkpt>
      <trkpt lat="42.290293" lon="-4.170085">
        <ele>804.2</ele>
        <time>2020-08-23T05:47:43Z</time>
        <sat>9</sat>
      </trkpt>
      <trkpt lat="42.290246" lon="-4.170181">
        <ele>805.4</ele>
        <time>2020-08-23T05:47:51Z</time>
        <sat>8</sat>
      </trkpt>
      <trkpt lat="42.290216" lon="-4.170288">
        <ele>806.6</ele>
        <time>2020-08-23T05:48:00Z</time>
        <sat>10</sat>
      </trkpt>
      <trkpt lat="42.290185" lon="-4.170398">
        <ele>807.5</ele>
        <time>2020-08-23T05:48:09Z</time>
        <sat>10</sat>
      </trkpt>
      <trkpt lat="42.290153" lon="-4.170510">
        <ele>808.4</ele>
        <time>2020-08-23T05:48:18Z</time>
        <sat>9</sat>
      </trkpt>
      <trkpt lat="42.290126" lon="-4.170616">
        <ele>809.3</ele>
        <time>2020-08-23T05:48:27Z</time>
        <sat>10</sat>
      </trkpt>
      <trkpt lat="42.290113" lon="-4.170727">
        <ele>810.5</ele>
        <time>2020-08-23T05:48:36Z</time>
        <sat>10</sat>
      </trkpt>
      <trkpt lat="42.290106" lon="-4.170846">
        <ele>811.6</ele>
        <time>2020-08-23T05:48:45Z</time>
        <sat>10</sat>
      </trkpt>
      <trkpt lat="42.290091" lon="-4.170957">
        <ele>812.6</ele>
        <time>2020-08-23T05:48:54Z</time>
        <sat>10</sat>
      </trkpt>
      <trkpt lat="42.290074" lon="-4.171066">
        <ele>813.6</ele>
        <time>2020-08-23T05:49:03Z</time>
        <sat>9</sat>
      </trkpt>
      <trkpt lat="42.290069" lon="-4.171179">
        <ele>815.4</ele>
        <time>2020-08-23T05:49:13Z</time>
        <sat>9</sat>
      </trkpt>
      <trkpt lat="42.290071" lon="-4.171296">
        <ele>816.8</ele>
        <time>2020-08-23T05:49:23Z</time>
        <sat>9</sat>
      </trkpt>
      <trkpt lat="42.290061" lon="-4.171408">
        <ele>818.1</ele>
        <time>2020-08-23T05:49:33Z</time>
        <sat>9</sat>
      </trkpt>
      <trkpt lat="42.290052" lon="-4.171524">
        <ele>819.6</ele>
        <time>2020-08-23T05:49:43Z</time>
        <sat>9</sat>
      </trkpt>
      <trkpt lat="42.290015" lon="-4.171632">
        <ele>821.2</ele>
        <time>2020-08-23T05:49:54Z</time>
        <sat>7</sat>
      </trkpt>
      <trkpt lat="42.289949" lon="-4.171709">
        <ele>822.8</ele>
        <time>2020-08-23T05:50:04Z</time>
        <sat>8</sat>
      </trkpt>
      <trkpt lat="42.289874" lon="-4.171754">
        <ele>824.5</ele>
        <time>2020-08-23T05:50:15Z</time>
        <sat>8</sat>
      </trkpt>
      <trkpt lat="42.289802" lon="-4.171813">
        <ele>825.9</ele>
        <time>2020-08-23T05:50:26Z</time>
        <sat>10</sat>
      </trkpt>
      <trkpt lat="42.289737" lon="-4.171883">
        <ele>827.1</ele>
        <time>2020-08-23T05:50:35Z</time>
        <sat>10</sat>
      </trkpt>
      <trkpt lat="42.289681" lon="-4.171966">
        <ele>828.5</ele>
        <time>2020-08-23T05:50:44Z</time>
        <sat>10</sat>
      </trkpt>
      <trkpt lat="42.289637" lon="-4.172062">
        <ele>829.7</ele>
        <time>2020-08-23T05:50:52Z</time>
        <sat>10</sat>
      </trkpt>
      <trkpt lat="42.289602" lon="-4.172169">
        <ele>830.8</ele>
        <time>2020-08-23T05:51:00Z</time>
        <sat>10</sat>
      </trkpt>
      <trkpt lat="42.289578" lon="-4.172278">
        <ele>831.6</ele>
        <time>2020-08-23T05:51:08Z</time>
        <sat>10</sat>
      </trkpt>
      <trkpt lat="42.289563" lon="-4.172396">
        <ele>832.2</ele>
        <time>2020-08-23T05:51:16Z</time>
        <sat>10</sat>
      </trkpt>
      <trkpt lat="42.289539" lon="-4.172502">
        <ele>832.8</ele>
        <time>2020-08-23T05:51:23Z</time>
        <sat>10</sat>
      </trkpt>
      <trkpt lat="42.289519" lon="-4.172613">
        <ele>833.3</ele>
        <time>2020-08-23T05:51:31Z</time>
        <sat>9</sat>
      </trkpt>
      <trkpt lat="42.289497" lon="-4.172723">
        <ele>833.9</ele>
        <time>2020-08-23T05:51:39Z</time>
        <sat>10</sat>
      </trkpt>
      <trkpt lat="42.289460" lon="-4.172830">
        <ele>834.5</ele>
        <time>2020-08-23T05:51:48Z</time>
        <sat>10</sat>
      </trkpt>
      <trkpt lat="42.289404" lon="-4.172926">
        <ele>835.3</ele>
        <time>2020-08-23T05:51:57Z</time>
        <sat>10</sat>
      </trkpt>
      <trkpt lat="42.289335" lon="-4.173007">
        <ele>836.1</ele>
        <time>2020-08-23T05:52:05Z</time>
        <sat>10</sat>
      </trkpt>
      <trkpt lat="42.289272" lon="-4.173086">
        <ele>837.2</ele>
        <time>2020-08-23T05:52:14Z</time>
        <sat>10</sat>
      </trkpt>
      <trkpt lat="42.289209" lon="-4.173158">
        <ele>838.3</ele>
        <time>2020-08-23T05:52:22Z</time>
        <sat>10</sat>
      </trkpt>
      <trkpt lat="42.289152" lon="-4.173243">
        <ele>840.0</ele>
        <time>2020-08-23T05:52:32Z</time>
        <sat>9</sat>
      </trkpt>
      <trkpt lat="42.289109" lon="-4.173346">
        <ele>841.4</ele>
        <time>2020-08-23T05:52:42Z</time>
        <sat>10</sat>
      </trkpt>
      <trkpt lat="42.289076" lon="-4.173460">
        <ele>842.5</ele>
        <time>2020-08-23T05:52:50Z</time>
        <sat>10</sat>
      </trkpt>
      <trkpt lat="42.289060" lon="-4.173580">
        <ele>843.6</ele>
        <time>2020-08-23T05:52:58Z</time>
        <sat>10</sat>
      </trkpt>
      <trkpt lat="42.289058" lon="-4.173699">
        <ele>844.5</ele>
        <time>2020-08-23T05:53:06Z</time>
        <sat>10</sat>
      </trkpt>
      <trkpt lat="42.289058" lon="-4.173813">
        <ele>845.3</ele>
        <time>2020-08-23T05:53:15Z</time>
        <sat>10</sat>
      </trkpt>
      <trkpt lat="42.289052" lon="-4.173937">
        <ele>846.1</ele>
        <time>2020-08-23T05:53:26Z</time>
        <sat>9</sat>
      </trkpt>
      <trkpt lat="42.289049" lon="-4.174057">
        <ele>846.4</ele>
        <time>2020-08-23T05:53:33Z</time>
        <sat>9</sat>
      </trkpt>
      <trkpt lat="42.289014" lon="-4.174170">
        <ele>846.9</ele>
        <time>2020-08-23T05:53:40Z</time>
        <sat>9</sat>
      </trkpt>
      <trkpt lat="42.288985" lon="-4.174285">
        <ele>847.9</ele>
        <time>2020-08-23T05:53:49Z</time>
        <sat>10</sat>
      </trkpt>
      <trkpt lat="42.288947" lon="-4.174382">
        <ele>848.8</ele>
        <time>2020-08-23T05:53:57Z</time>
        <sat>9</sat>
      </trkpt>
      <trkpt lat="42.288916" lon="-4.174492">
        <ele>849.9</ele>
        <time>2020-08-23T05:54:05Z</time>
        <sat>10</sat>
      </trkpt>
      <trkpt lat="42.288894" lon="-4.174606">
        <ele>850.9</ele>
        <time>2020-08-23T05:54:13Z</time>
        <sat>10</sat>
      </trkpt>
      <trkpt lat="42.288883" lon="-4.174726">
        <ele>852.0</ele>
        <time>2020-08-23T05:54:21Z</time>
        <sat>10</sat>
      </trkpt>
      <trkpt lat="42.288874" lon="-4.174838">
        <ele>852.9</ele>
        <time>2020-08-23T05:54:29Z</time>
        <sat>10</sat>
      </trkpt>
      <trkpt lat="42.288882" lon="-4.174950">
        <ele>853.7</ele>
        <time>2020-08-23T05:54:37Z</time>
        <sat>10</sat>
      </trkpt>
      <trkpt lat="42.288880" lon="-4.175064">
        <ele>854.5</ele>
        <time>2020-08-23T05:54:46Z</time>
        <sat>10</sat>
      </trkpt>
      <trkpt lat="42.288866" lon="-4.175181">
        <ele>855.3</ele>
        <time>2020-08-23T05:54:55Z</time>
        <sat>10</sat>
      </trkpt>
      <trkpt lat="42.288845" lon="-4.175297">
        <ele>856.2</ele>
        <time>2020-08-23T05:55:05Z</time>
        <sat>10</sat>
      </trkpt>
      <trkpt lat="42.288836" lon="-4.175406">
        <ele>857.1</ele>
        <time>2020-08-23T05:55:14Z</time>
        <sat>10</sat>
      </trkpt>
      <trkpt lat="42.288830" lon="-4.175520">
        <ele>857.8</ele>
        <time>2020-08-23T05:55:23Z</time>
        <sat>10</sat>
      </trkpt>
      <trkpt lat="42.288815" lon="-4.175635">
        <ele>858.6</ele>
        <time>2020-08-23T05:55:33Z</time>
        <sat>10</sat>
      </trkpt>
      <trkpt lat="42.288804" lon="-4.175749">
        <ele>859.6</ele>
        <time>2020-08-23T05:55:43Z</time>
        <sat>10</sat>
      </trkpt>
      <trkpt lat="42.288778" lon="-4.175860">
        <ele>861.0</ele>
        <time>2020-08-23T05:55:55Z</time>
        <sat>10</sat>
      </trkpt>
      <trkpt lat="42.288768" lon="-4.175971">
        <ele>862.6</ele>
        <time>2020-08-23T05:56:07Z</time>
        <sat>10</sat>
      </trkpt>
      <trkpt lat="42.288744" lon="-4.176076">
        <ele>863.7</ele>
        <time>2020-08-23T05:56:17Z</time>
        <sat>10</sat>
      </trkpt>
      <trkpt lat="42.288715" lon="-4.176179">
        <ele>865.1</ele>
        <time>2020-08-23T05:56:27Z</time>
        <sat>10</sat>
      </trkpt>
      <trkpt lat="42.288672" lon="-4.176278">
        <ele>866.7</ele>
        <time>2020-08-23T05:56:38Z</time>
        <sat>9</sat>
      </trkpt>
      <trkpt lat="42.288607" lon="-4.176365">
        <ele>867.9</ele>
        <time>2020-08-23T05:56:48Z</time>
        <sat>10</sat>
      </trkpt>
      <trkpt lat="42.288542" lon="-4.176451">
        <ele>869.3</ele>
        <time>2020-08-23T05:56:59Z</time>
        <sat>10</sat>
      </trkpt>
      <trkpt lat="42.288478" lon="-4.176530">
        <ele>870.5</ele>
        <time>2020-08-23T05:57:09Z</time>
        <sat>10</sat>
      </trkpt>
      <trkpt lat="42.288415" lon="-4.176606">
        <ele>871.4</ele>
        <time>2020-08-23T05:57:17Z</time>
        <sat>10</sat>
      </trkpt>
      <trkpt lat="42.288354" lon="-4.176691">
        <ele>872.3</ele>
        <time>2020-08-23T05:57:26Z</time>
        <sat>10</sat>
      </trkpt>
      <trkpt lat="42.288294" lon="-4.176778">
        <ele>873.0</ele>
        <time>2020-08-23T05:57:34Z</time>
        <sat>10</sat>
      </trkpt>
      <trkpt lat="42.288231" lon="-4.176849">
        <ele>873.7</ele>
        <time>2020-08-23T05:57:43Z</time>
        <sat>10</sat>
      </trkpt>
      <trkpt lat="42.288178" lon="-4.176944">
        <ele>874.6</ele>
        <time>2020-08-23T05:57:52Z</time>
        <sat>9</sat>
      </trkpt>
      <trkpt lat="42.288137" lon="-4.177046">
        <ele>875.4</ele>
        <time>2020-08-23T05:58:00Z</time>
        <sat>10</sat>
      </trkpt>
      <trkpt lat="42.288120" lon="-4.177163">
        <ele>876.1</ele>
        <time>2020-08-23T05:58:09Z</time>
        <sat>11</sat>
      </trkpt>
      <trkpt lat="42.288114" lon="-4.177277">
        <ele>877.1</ele>
        <time>2020-08-23T05:58:18Z</time>
        <sat>10</sat>
      </trkpt>
      <trkpt lat="42.288100" lon="-4.177386">
        <ele>877.9</ele>
        <time>2020-08-23T05:58:27Z</time>
        <sat>10</sat>
      </trkpt>
      <trkpt lat="42.288082" lon="-4.177498">
        <ele>878.8</ele>
        <time>2020-08-23T05:58:37Z</time>
        <sat>10</sat>
      </trkpt>
      <trkpt lat="42.288047" lon="-4.177602">
        <ele>879.8</ele>
        <time>2020-08-23T05:58:46Z</time>
        <sat>10</sat>
      </trkpt>
      <trkpt lat="42.288014" lon="-4.177706">
        <ele>880.7</ele>
        <time>2020-08-23T05:58:55Z</time>
        <sat>10</sat>
      </trkpt>
      <trkpt lat="42.287986" lon="-4.177812">
        <ele>881.9</ele>
        <time>2020-08-23T05:59:05Z</time>
        <sat>9</sat>
      </trkpt>
      <trkpt lat="42.287942" lon="-4.177906">
        <ele>883.3</ele>
        <time>2020-08-23T05:59:15Z</time>
        <sat>10</sat>
      </trkpt>
      <trkpt lat="42.287883" lon="-4.177983">
        <ele>884.7</ele>
        <time>2020-08-23T05:59:25Z</time>
        <sat>10</sat>
      </trkpt>
      <trkpt lat="42.287813" lon="-4.178051">
        <ele>885.9</ele>
        <time>2020-08-23T05:59:35Z</time>
        <sat>10</sat>
      </trkpt>
      <trkpt lat="42.287736" lon="-4.178114">
        <ele>887.2</ele>
        <time>2020-08-23T05:59:45Z</time>
        <sat>10</sat>
      </trkpt>
      <trkpt lat="42.287663" lon="-4.178174">
        <ele>888.3</ele>
        <time>2020-08-23T05:59:54Z</time>
        <sat>10</sat>
      </trkpt>
      <trkpt lat="42.287594" lon="-4.178253">
        <ele>889.9</ele>
        <time>2020-08-23T06:00:03Z</time>
        <sat>10</sat>
      </trkpt>
      <trkpt lat="42.287545" lon="-4.178345">
        <ele>891.2</ele>
        <time>2020-08-23T06:00:12Z</time>
        <sat>10</sat>
      </trkpt>
      <trkpt lat="42.287495" lon="-4.178446">
        <ele>892.2</ele>
        <time>2020-08-23T06:00:21Z</time>
        <sat>10</sat>
      </trkpt>
      <trkpt lat="42.287453" lon="-4.178546">
        <ele>893.4</ele>
        <time>2020-08-23T06:00:31Z</time>
        <sat>10</sat>
      </trkpt>
      <trkpt lat="42.287410" lon="-4.178652">
        <ele>894.5</ele>
        <time>2020-08-23T06:00:41Z</time>
        <sat>11</sat>
      </trkpt>
      <trkpt lat="42.287372" lon="-4.178756">
        <ele>895.8</ele>
        <time>2020-08-23T06:00:51Z</time>
        <sat>11</sat>
      </trkpt>
      <trkpt lat="42.287342" lon="-4.178862">
        <ele>897.8</ele>
        <time>2020-08-23T06:01:19Z</time>
        <sat>11</sat>
      </trkpt>
      <trkpt lat="42.287305" lon="-4.178969">
        <ele>898.6</ele>
        <time>2020-08-23T06:01:29Z</time>
        <sat>10</sat>
      </trkpt>
      <trkpt lat="42.287280" lon="-4.179082">
        <ele>899.8</ele>
        <time>2020-08-23T06:01:40Z</time>
        <sat>10</sat>
      </trkpt>
      <trkpt lat="42.287261" lon="-4.179190">
        <ele>900.9</ele>
        <time>2020-08-23T06:02:04Z</time>
        <sat>10</sat>
      </trkpt>
      <trkpt lat="42.287277" lon="-4.179305">
        <ele>901.6</ele>
        <time>2020-08-23T06:02:15Z</time>
        <sat>9</sat>
      </trkpt>
      <trkpt lat="42.287320" lon="-4.179414">
        <ele>901.5</ele>
        <time>2020-08-23T06:02:57Z</time>
        <sat>9</sat>
      </trkpt>
      <trkpt lat="42.287335" lon="-4.179533">
        <ele>901.5</ele>
        <time>2020-08-23T06:03:05Z</time>
        <sat>9</sat>
      </trkpt>
      <trkpt lat="42.287349" lon="-4.179651">
        <ele>901.5</ele>
        <time>2020-08-23T06:03:13Z</time>
        <sat>9</sat>
      </trkpt>
      <trkpt lat="42.287365" lon="-4.179759">
        <ele>901.4</ele>
        <time>2020-08-23T06:03:20Z</time>
        <sat>9</sat>
      </trkpt>
      <trkpt lat="42.287379" lon="-4.179876">
        <ele>901.2</ele>
        <time>2020-08-23T06:03:27Z</time>
        <sat>9</sat>
      </trkpt>
      <trkpt lat="42.287383" lon="-4.179995">
        <ele>901.3</ele>
        <time>2020-08-23T06:03:34Z</time>
        <sat>9</sat>
      </trkpt>
      <trkpt lat="42.287387" lon="-4.180106">
        <ele>901.4</ele>
        <time>2020-08-23T06:03:41Z</time>
        <sat>9</sat>
      </trkpt>
      <trkpt lat="42.287380" lon="-4.180221">
        <ele>901.4</ele>
        <time>2020-08-23T06:03:48Z</time>
        <sat>9</sat>
      </trkpt>
      <trkpt lat="42.287371" lon="-4.180337">
        <ele>901.4</ele>
        <time>2020-08-23T06:03:55Z</time>
        <sat>9</sat>
      </trkpt>
      <trkpt lat="42.287359" lon="-4.180458">
        <ele>901.6</ele>
        <time>2020-08-23T06:04:02Z</time>
        <sat>9</sat>
      </trkpt>
      <trkpt lat="42.287359" lon="-4.180577">
        <ele>901.6</ele>
        <time>2020-08-23T06:04:09Z</time>
        <sat>9</sat>
      </trkpt>
      <trkpt lat="42.287367" lon="-4.180694">
        <ele>901.6</ele>
        <time>2020-08-23T06:04:16Z</time>
        <sat>10</sat>
      </trkpt>
      <trkpt lat="42.287374" lon="-4.180814">
        <ele>901.6</ele>
        <time>2020-08-23T06:04:23Z</time>
        <sat>10</sat>
      </trkpt>
      <trkpt lat="42.287381" lon="-4.180934">
        <ele>901.5</ele>
        <time>2020-08-23T06:04:30Z</time>
        <sat>9</sat>
      </trkpt>
      <trkpt lat="42.287386" lon="-4.181055">
        <ele>901.5</ele>
        <time>2020-08-23T06:04:37Z</time>
        <sat>9</sat>
      </trkpt>
      <trkpt lat="42.287396" lon="-4.181173">
        <ele>901.5</ele>
        <time>2020-08-23T06:04:44Z</time>
        <sat>10</sat>
      </trkpt>
      <trkpt lat="42.287402" lon="-4.181290">
        <ele>901.5</ele>
        <time>2020-08-23T06:04:51Z</time>
        <sat>9</sat>
      </trkpt>
      <trkpt lat="42.287404" lon="-4.181405">
        <ele>901.4</ele>
        <time>2020-08-23T06:04:58Z</time>
        <sat>9</sat>
      </trkpt>
      <trkpt lat="42.287409" lon="-4.181527">
        <ele>901.5</ele>
        <time>2020-08-23T06:05:05Z</time>
        <sat>10</sat>
      </trkpt>
      <trkpt lat="42.287416" lon="-4.181649">
        <ele>901.6</ele>
        <time>2020-08-23T06:05:12Z</time>
        <sat>10</sat>
      </trkpt>
      <trkpt lat="42.287412" lon="-4.181771">
        <ele>901.7</ele>
        <time>2020-08-23T06:05:19Z</time>
        <sat>9</sat>
      </trkpt>
      <trkpt lat="42.287408" lon="-4.181894">
        <ele>901.7</ele>
        <time>2020-08-23T06:05:26Z</time>
        <sat>10</sat>
      </trkpt>
      <trkpt lat="42.287402" lon="-4.182018">
        <ele>901.7</ele>
        <time>2020-08-23T06:05:33Z</time>
        <sat>9</sat>
      </trkpt>
      <trkpt lat="42.287388" lon="-4.182133">
        <ele>901.7</ele>
        <time>2020-08-23T06:05:40Z</time>
        <sat>9</sat>
      </trkpt>
      <trkpt lat="42.287383" lon="-4.182250">
        <ele>901.6</ele>
        <time>2020-08-23T06:05:47Z</time>
        <sat>9</sat>
      </trkpt>
      <trkpt lat="42.287368" lon="-4.182369">
        <ele>901.3</ele>
        <time>2020-08-23T06:05:54Z</time>
        <sat>9</sat>
      </trkpt>
      <trkpt lat="42.287357" lon="-4.182486">
        <ele>901.2</ele>
        <time>2020-08-23T06:06:02Z</time>
        <sat>10</sat>
      </trkpt>
      <trkpt lat="42.287343" lon="-4.182599">
        <ele>901.2</ele>
        <time>2020-08-23T06:06:08Z</time>
        <sat>9</sat>
      </trkpt>
      <trkpt lat="42.287329" lon="-4.182719">
        <ele>901.2</ele>
        <time>2020-08-23T06:06:15Z</time>
        <sat>10</sat>
      </trkpt>
      <trkpt lat="42.287318" lon="-4.182842">
        <ele>901.2</ele>
        <time>2020-08-23T06:06:22Z</time>
        <sat>9</sat>
      </trkpt>
      <trkpt lat="42.287301" lon="-4.182961">
        <ele>901.2</ele>
        <time>2020-08-23T06:06:29Z</time>
        <sat>9</sat>
      </trkpt>
      <trkpt lat="42.287291" lon="-4.183077">
        <ele>901.1</ele>
        <time>2020-08-23T06:06:36Z</time>
        <sat>8</sat>
      </trkpt>
      <trkpt lat="42.287280" lon="-4.183196">
        <ele>901.2</ele>
        <time>2020-08-23T06:06:43Z</time>
        <sat>10</sat>
      </trkpt>
      <trkpt lat="42.287266" lon="-4.183315">
        <ele>901.2</ele>
        <time>2020-08-23T06:06:50Z</time>
        <sat>9</sat>
      </trkpt>
      <trkpt lat="42.287258" lon="-4.183440">
        <ele>901.2</ele>
        <time>2020-08-23T06:06:57Z</time>
        <sat>10</sat>
      </trkpt>
      <trkpt lat="42.287243" lon="-4.183560">
        <ele>901.3</ele>
        <time>2020-08-23T06:07:04Z</time>
        <sat>9</sat>
      </trkpt>
      <trkpt lat="42.287234" lon="-4.183684">
        <ele>901.3</ele>
        <time>2020-08-23T06:07:11Z</time>
        <sat>9</sat>
      </trkpt>
      <trkpt lat="42.287217" lon="-4.183806">
        <ele>901.3</ele>
        <time>2020-08-23T06:07:18Z</time>
        <sat>9</sat>
      </trkpt>
      <trkpt lat="42.287201" lon="-4.183922">
        <ele>901.5</ele>
        <time>2020-08-23T06:07:25Z</time>
        <sat>9</sat>
      </trkpt>
      <trkpt lat="42.287186" lon="-4.184038">
        <ele>901.6</ele>
        <time>2020-08-23T06:07:32Z</time>
        <sat>9</sat>
      </trkpt>
      <trkpt lat="42.287164" lon="-4.184155">
        <ele>901.8</ele>
        <time>2020-08-23T06:07:39Z</time>
        <sat>9</sat>
      </trkpt>
      <trkpt lat="42.287142" lon="-4.184267">
        <ele>902.1</ele>
        <time>2020-08-23T06:07:46Z</time>
        <sat>9</sat>
      </trkpt>
      <trkpt lat="42.287118" lon="-4.184383">
        <ele>902.3</ele>
        <time>2020-08-23T06:07:53Z</time>
        <sat>9</sat>
      </trkpt>
      <trkpt lat="42.287089" lon="-4.184488">
        <ele>902.6</ele>
        <time>2020-08-23T06:08:00Z</time>
        <sat>10</sat>
      </trkpt>
      <trkpt lat="42.287052" lon="-4.184589">
        <ele>902.7</ele>
        <time>2020-08-23T06:08:07Z</time>
        <sat>10</sat>
      </trkpt>
      <trkpt lat="42.287007" lon="-4.184697">
        <ele>902.8</ele>
        <time>2020-08-23T06:08:15Z</time>
        <sat>10</sat>
      </trkpt>
      <trkpt lat="42.286967" lon="-4.184799">
        <ele>902.7</ele>
        <time>2020-08-23T06:08:22Z</time>
        <sat>10</sat>
      </trkpt>
      <trkpt lat="42.286927" lon="-4.184907">
        <ele>902.5</ele>
        <time>2020-08-23T06:08:29Z</time>
        <sat>10</sat>
      </trkpt>
      <trkpt lat="42.286880" lon="-4.185006">
        <ele>902.3</ele>
        <time>2020-08-23T06:08:36Z</time>
        <sat>10</sat>
      </trkpt>
      <trkpt lat="42.286836" lon="-4.185116">
        <ele>902.0</ele>
        <time>2020-08-23T06:08:44Z</time>
        <sat>10</sat>
      </trkpt>
      <trkpt lat="42.286789" lon="-4.185216">
        <ele>901.4</ele>
        <time>2020-08-23T06:08:53Z</time>
        <sat>10</sat>
      </trkpt>
      <trkpt lat="42.286739" lon="-4.185306">
        <ele>899.8</ele>
        <time>2020-08-23T06:09:02Z</time>
        <sat>10</sat>
      </trkpt>
      <trkpt lat="42.286684" lon="-4.185389">
        <ele>897.4</ele>
        <time>2020-08-23T06:09:12Z</time>
        <sat>10</sat>
      </trkpt>
      <trkpt lat="42.286637" lon="-4.185481">
        <ele>894.2</ele>
        <time>2020-08-23T06:09:39Z</time>
        <sat>9</sat>
      </trkpt>
      <trkpt lat="42.286608" lon="-4.185595">
        <ele>893.1</ele>
        <time>2020-08-23T06:09:52Z</time>
        <sat>9</sat>
      </trkpt>
      <trkpt lat="42.286580" lon="-4.185702">
        <ele>891.9</ele>
        <time>2020-08-23T06:10:01Z</time>
        <sat>9</sat>
      </trkpt>
      <trkpt lat="42.286553" lon="-4.185813">
        <ele>890.4</ele>
        <time>2020-08-23T06:10:12Z</time>
        <sat>10</sat>
      </trkpt>
      <trkpt lat="42.286537" lon="-4.185925">
        <ele>889.1</ele>
        <time>2020-08-23T06:10:21Z</time>
        <sat>10</sat>
      </trkpt>
      <trkpt lat="42.286511" lon="-4.186039">
        <ele>886.9</ele>
        <time>2020-08-23T06:10:42Z</time>
        <sat>10</sat>
      </trkpt>
      <trkpt lat="42.286496" lon="-4.186148">
        <ele>885.8</ele>
        <time>2020-08-23T06:10:50Z</time>
        <sat>10</sat>
      </trkpt>
      <trkpt lat="42.286473" lon="-4.186261">
        <ele>884.9</ele>
        <time>2020-08-23T06:10:59Z</time>
        <sat>10</sat>
      </trkpt>
      <trkpt lat="42.286453" lon="-4.186375">
        <ele>883.3</ele>
        <time>2020-08-23T06:11:10Z</time>
        <sat>10</sat>
      </trkpt>
      <trkpt lat="42.286439" lon="-4.186485">
        <ele>881.7</ele>
        <time>2020-08-23T06:11:20Z</time>
        <sat>10</sat>
      </trkpt>
      <trkpt lat="42.286415" lon="-4.186598">
        <ele>880.1</ele>
        <time>2020-08-23T06:11:29Z</time>
        <sat>9</sat>
      </trkpt>
      <trkpt lat="42.286387" lon="-4.186709">
        <ele>878.2</ele>
        <time>2020-08-23T06:11:39Z</time>
        <sat>9</sat>
      </trkpt>
      <trkpt lat="42.286368" lon="-4.186818">
        <ele>875.0</ele>
        <time>2020-08-23T06:11:59Z</time>
        <sat>10</sat>
      </trkpt>
      <trkpt lat="42.286345" lon="-4.186923">
        <ele>874.1</ele>
        <time>2020-08-23T06:12:10Z</time>
        <sat>9</sat>
      </trkpt>
      <trkpt lat="42.286322" lon="-4.187034">
        <ele>872.1</ele>
        <time>2020-08-23T06:12:21Z</time>
        <sat>9</sat>
      </trkpt>
      <trkpt lat="42.286294" lon="-4.187139">
        <ele>870.5</ele>
        <time>2020-08-23T06:12:31Z</time>
        <sat>8</sat>
      </trkpt>
      <trkpt lat="42.286281" lon="-4.187250">
        <ele>867.6</ele>
        <time>2020-08-23T06:12:46Z</time>
        <sat>9</sat>
      </trkpt>
      <trkpt lat="42.286255" lon="-4.187359">
        <ele>866.2</ele>
        <time>2020-08-23T06:12:57Z</time>
        <sat>9</sat>
      </trkpt>
      <trkpt lat="42.286224" lon="-4.187467">
        <ele>864.4</ele>
        <time>2020-08-23T06:13:10Z</time>
        <sat>9</sat>
      </trkpt>
      <trkpt lat="42.286198" lon="-4.187576">
        <ele>863.0</ele>
        <time>2020-08-23T06:13:20Z</time>
        <sat>9</sat>
      </trkpt>
      <trkpt lat="42.286171" lon="-4.187684">
        <ele>861.2</ele>
        <time>2020-08-23T06:13:30Z</time>
        <sat>9</sat>
      </trkpt>
      <trkpt lat="42.286139" lon="-4.187789">
        <ele>859.4</ele>
        <time>2020-08-23T06:13:39Z</time>
        <sat>9</sat>
      </trkpt>
      <trkpt lat="42.286091" lon="-4.187884">
        <ele>856.7</ele>
        <time>2020-08-23T06:13:54Z</time>
        <sat>9</sat>
      </trkpt>
      <trkpt lat="42.286033" lon="-4.187965">
        <ele>855.5</ele>
        <time>2020-08-23T06:14:03Z</time>
        <sat>9</sat>
      </trkpt>
      <trkpt lat="42.285983" lon="-4.188059">
        <ele>854.2</ele>
        <time>2020-08-23T06:14:11Z</time>
        <sat>9</sat>
      </trkpt>
      <trkpt lat="42.285955" lon="-4.188166">
        <ele>852.7</ele>
        <time>2020-08-23T06:14:20Z</time>
        <sat>9</sat>
      </trkpt>
      <trkpt lat="42.285939" lon="-4.188286">
        <ele>851.1</ele>
        <time>2020-08-23T06:14:31Z</time>
        <sat>9</sat>
      </trkpt>
      <trkpt lat="42.285923" lon="-4.188405">
        <ele>849.9</ele>
        <time>2020-08-23T06:14:40Z</time>
        <sat>9</sat>
      </trkpt>
      <trkpt lat="42.285912" lon="-4.188528">
        <ele>848.7</ele>
        <time>2020-08-23T06:14:49Z</time>
        <sat>9</sat>
      </trkpt>
      <trkpt lat="42.285920" lon="-4.188647">
        <ele>847.6</ele>
        <time>2020-08-23T06:14:58Z</time>
        <sat>9</sat>
      </trkpt>
      <trkpt lat="42.285924" lon="-4.188765">
        <ele>846.4</ele>
        <time>2020-08-23T06:15:07Z</time>
        <sat>9</sat>
      </trkpt>
      <trkpt lat="42.285923" lon="-4.188875">
        <ele>845.2</ele>
        <time>2020-08-23T06:15:15Z</time>
        <sat>9</sat>
      </trkpt>
      <trkpt lat="42.285919" lon="-4.188991">
        <ele>844.2</ele>
        <time>2020-08-23T06:15:23Z</time>
        <sat>9</sat>
      </trkpt>
      <trkpt lat="42.285917" lon="-4.189113">
        <ele>843.3</ele>
        <time>2020-08-23T06:15:32Z</time>
        <sat>9</sat>
      </trkpt>
      <trkpt lat="42.285923" lon="-4.189225">
        <ele>842.4</ele>
        <time>2020-08-23T06:15:40Z</time>
        <sat>9</sat>
      </trkpt>
      <trkpt lat="42.285933" lon="-4.189337">
        <ele>841.8</ele>
        <time>2020-08-23T06:15:48Z</time>
        <sat>9</sat>
      </trkpt>
      <trkpt lat="42.285950" lon="-4.189454">
        <ele>841.0</ele>
        <time>2020-08-23T06:15:57Z</time>
        <sat>9</sat>
      </trkpt>
      <trkpt lat="42.285974" lon="-4.189569">
        <ele>840.1</ele>
        <time>2020-08-23T06:16:05Z</time>
        <sat>9</sat>
      </trkpt>
      <trkpt lat="42.285996" lon="-4.189683">
        <ele>839.1</ele>
        <time>2020-08-23T06:16:13Z</time>
        <sat>10</sat>
      </trkpt>
      <trkpt lat="42.286018" lon="-4.189792">
        <ele>838.2</ele>
        <time>2020-08-23T06:16:21Z</time>
        <sat>10</sat>
      </trkpt>
      <trkpt lat="42.286032" lon="-4.189906">
        <ele>837.5</ele>
        <time>2020-08-23T06:16:29Z</time>
        <sat>10</sat>
      </trkpt>
      <trkpt lat="42.286040" lon="-4.190029">
        <ele>836.8</ele>
        <time>2020-08-23T06:16:37Z</time>
        <sat>10</sat>
      </trkpt>
      <trkpt lat="42.286050" lon="-4.190140">
        <ele>836.2</ele>
        <time>2020-08-23T06:16:44Z</time>
        <sat>10</sat>
      </trkpt>
      <trkpt lat="42.286064" lon="-4.190253">
        <ele>835.5</ele>
        <time>2020-08-23T06:16:51Z</time>
        <sat>10</sat>
      </trkpt>
      <trkpt lat="42.286071" lon="-4.190378">
        <ele>834.9</ele>
        <time>2020-08-23T06:16:59Z</time>
        <sat>10</sat>
      </trkpt>
      <trkpt lat="42.286074" lon="-4.190489">
        <ele>834.2</ele>
        <time>2020-08-23T06:17:06Z</time>
        <sat>10</sat>
      </trkpt>
      <trkpt lat="42.286072" lon="-4.190606">
        <ele>833.7</ele>
        <time>2020-08-23T06:17:13Z</time>
        <sat>10</sat>
      </trkpt>
      <trkpt lat="42.286079" lon="-4.190721">
        <ele>833.4</ele>
        <time>2020-08-23T06:17:20Z</time>
        <sat>10</sat>
      </trkpt>
      <trkpt lat="42.286084" lon="-4.190835">
        <ele>833.0</ele>
        <time>2020-08-23T06:17:27Z</time>
        <sat>9</sat>
      </trkpt>
      <trkpt lat="42.286086" lon="-4.190946">
        <ele>832.7</ele>
        <time>2020-08-23T06:17:34Z</time>
        <sat>9</sat>
      </trkpt>
      <trkpt lat="42.286099" lon="-4.191066">
        <ele>832.3</ele>
        <time>2020-08-23T06:17:42Z</time>
        <sat>10</sat>
      </trkpt>
      <trkpt lat="42.286114" lon="-4.191180">
        <ele>832.0</ele>
        <time>2020-08-23T06:17:49Z</time>
        <sat>10</sat>
      </trkpt>
      <trkpt lat="42.286131" lon="-4.191290">
        <ele>831.7</ele>
        <time>2020-08-23T06:17:56Z</time>
        <sat>10</sat>
      </trkpt>
      <trkpt lat="42.286145" lon="-4.191404">
        <ele>831.4</ele>
        <time>2020-08-23T06:18:03Z</time>
        <sat>10</sat>
      </trkpt>
      <trkpt lat="42.286154" lon="-4.191521">
        <ele>831.3</ele>
        <time>2020-08-23T06:18:10Z</time>
        <sat>10</sat>
      </trkpt>
      <trkpt lat="42.286157" lon="-4.191636">
        <ele>831.2</ele>
        <time>2020-08-23T06:18:17Z</time>
        <sat>10</sat>
      </trkpt>
      <trkpt lat="42.286161" lon="-4.191755">
        <ele>831.1</ele>
        <time>2020-08-23T06:18:24Z</time>
        <sat>10</sat>
      </trkpt>
      <trkpt lat="42.286169" lon="-4.191868">
        <ele>830.8</ele>
        <time>2020-08-23T06:18:31Z</time>
        <sat>10</sat>
      </trkpt>
      <trkpt lat="42.286175" lon="-4.191982">
        <ele>830.6</ele>
        <time>2020-08-23T06:18:38Z</time>
        <sat>10</sat>
      </trkpt>
      <trkpt lat="42.286177" lon="-4.192099">
        <ele>830.3</ele>
        <time>2020-08-23T06:18:45Z</time>
        <sat>10</sat>
      </trkpt>
      <trkpt lat="42.286187" lon="-4.192219">
        <ele>830.0</ele>
        <time>2020-08-23T06:18:52Z</time>
        <sat>10</sat>
      </trkpt>
      <trkpt lat="42.286193" lon="-4.192339">
        <ele>829.8</ele>
        <time>2020-08-23T06:18:59Z</time>
        <sat>10</sat>
      </trkpt>
      <trkpt lat="42.286199" lon="-4.192454">
        <ele>829.5</ele>
        <time>2020-08-23T06:19:06Z</time>
        <sat>10</sat>
      </trkpt>
      <trkpt lat="42.286204" lon="-4.192570">
        <ele>829.1</ele>
        <time>2020-08-23T06:19:13Z</time>
        <sat>10</sat>
      </trkpt>
      <trkpt lat="42.286209" lon="-4.192689">
        <ele>828.9</ele>
        <time>2020-08-23T06:19:20Z</time>
        <sat>10</sat>
      </trkpt>
      <trkpt lat="42.286207" lon="-4.192802">
        <ele>828.5</ele>
        <time>2020-08-23T06:19:27Z</time>
        <sat>10</sat>
      </trkpt>
      <trkpt lat="42.286210" lon="-4.192922">
        <ele>828.1</ele>
        <time>2020-08-23T06:19:34Z</time>
        <sat>10</sat>
      </trkpt>
      <trkpt lat="42.286204" lon="-4.193046">
        <ele>827.8</ele>
        <time>2020-08-23T06:19:41Z</time>
        <sat>10</sat>
      </trkpt>
      <trkpt lat="42.286199" lon="-4.193166">
        <ele>827.6</ele>
        <time>2020-08-23T06:19:48Z</time>
        <sat>10</sat>
      </trkpt>
      <trkpt lat="42.286201" lon="-4.193285">
        <ele>827.4</ele>
        <time>2020-08-23T06:19:55Z</time>
        <sat>10</sat>
      </trkpt>
      <trkpt lat="42.286193" lon="-4.193403">
        <ele>827.1</ele>
        <time>2020-08-23T06:20:02Z</time>
        <sat>10</sat>
      </trkpt>
      <trkpt lat="42.286191" lon="-4.193521">
        <ele>826.8</ele>
        <time>2020-08-23T06:20:09Z</time>
        <sat>10</sat>
      </trkpt>
      <trkpt lat="42.286191" lon="-4.193645">
        <ele>826.8</ele>
        <time>2020-08-23T06:20:16Z</time>
        <sat>10</sat>
      </trkpt>
      <trkpt lat="42.286185" lon="-4.193764">
        <ele>826.7</ele>
        <time>2020-08-23T06:20:23Z</time>
        <sat>10</sat>
      </trkpt>
      <trkpt lat="42.286181" lon="-4.193886">
        <ele>826.4</ele>
        <time>2020-08-23T06:20:30Z</time>
        <sat>10</sat>
      </trkpt>
      <trkpt lat="42.286180" lon="-4.194008">
        <ele>826.1</ele>
        <time>2020-08-23T06:20:37Z</time>
        <sat>10</sat>
      </trkpt>
      <trkpt lat="42.286174" lon="-4.194124">
        <ele>825.7</ele>
        <time>2020-08-23T06:20:44Z</time>
        <sat>10</sat>
      </trkpt>
      <trkpt lat="42.286168" lon="-4.194244">
        <ele>825.5</ele>
        <time>2020-08-23T06:20:51Z</time>
        <sat>10</sat>
      </trkpt>
      <trkpt lat="42.286164" lon="-4.194361">
        <ele>825.4</ele>
        <time>2020-08-23T06:20:58Z</time>
        <sat>10</sat>
      </trkpt>
      <trkpt lat="42.286136" lon="-4.194478">
        <ele>825.3</ele>
        <time>2020-08-23T06:21:06Z</time>
        <sat>10</sat>
      </trkpt>
      <trkpt lat="42.286108" lon="-4.194581">
        <ele>825.1</ele>
        <time>2020-08-23T06:21:13Z</time>
        <sat>10</sat>
      </trkpt>
      <trkpt lat="42.286081" lon="-4.194702">
        <ele>824.8</ele>
        <time>2020-08-23T06:21:21Z</time>
        <sat>10</sat>
      </trkpt>
      <trkpt lat="42.286068" lon="-4.194817">
        <ele>824.5</ele>
        <time>2020-08-23T06:21:28Z</time>
        <sat>10</sat>
      </trkpt>
      <trkpt lat="42.286059" lon="-4.194933">
        <ele>824.1</ele>
        <time>2020-08-23T06:21:35Z</time>
        <sat>10</sat>
      </trkpt>
      <trkpt lat="42.286056" lon="-4.195049">
        <ele>823.9</ele>
        <time>2020-08-23T06:21:42Z</time>
        <sat>10</sat>
      </trkpt>
      <trkpt lat="42.286048" lon="-4.195163">
        <ele>823.5</ele>
        <time>2020-08-23T06:21:49Z</time>
        <sat>10</sat>
      </trkpt>
      <trkpt lat="42.286048" lon="-4.195275">
        <ele>823.1</ele>
        <time>2020-08-23T06:21:56Z</time>
        <sat>10</sat>
      </trkpt>
      <trkpt lat="42.286044" lon="-4.195397">
        <ele>822.7</ele>
        <time>2020-08-23T06:22:03Z</time>
        <sat>10</sat>
      </trkpt>
      <trkpt lat="42.286044" lon="-4.195510">
        <ele>822.2</ele>
        <time>2020-08-23T06:22:10Z</time>
        <sat>10</sat>
      </trkpt>
      <trkpt lat="42.286041" lon="-4.195635">
        <ele>821.6</ele>
        <time>2020-08-23T06:22:18Z</time>
        <sat>10</sat>
      </trkpt>
      <trkpt lat="42.286039" lon="-4.195756">
        <ele>821.1</ele>
        <time>2020-08-23T06:22:25Z</time>
        <sat>10</sat>
      </trkpt>
      <trkpt lat="42.286038" lon="-4.195869">
        <ele>820.6</ele>
        <time>2020-08-23T06:22:32Z</time>
        <sat>10</sat>
      </trkpt>
      <trkpt lat="42.286037" lon="-4.195990">
        <ele>820.4</ele>
        <time>2020-08-23T06:22:39Z</time>
        <sat>10</sat>
      </trkpt>
      <trkpt lat="42.286043" lon="-4.196109">
        <ele>820.0</ele>
        <time>2020-08-23T06:22:46Z</time>
        <sat>10</sat>
      </trkpt>
      <trkpt lat="42.286038" lon="-4.196220">
        <ele>819.7</ele>
        <time>2020-08-23T06:22:53Z</time>
        <sat>10</sat>
      </trkpt>
      <trkpt lat="42.286042" lon="-4.196336">
        <ele>819.5</ele>
        <time>2020-08-23T06:23:00Z</time>
        <sat>10</sat>
      </trkpt>
      <trkpt lat="42.286042" lon="-4.196449">
        <ele>819.1</ele>
        <time>2020-08-23T06:23:07Z</time>
        <sat>10</sat>
      </trkpt>
      <trkpt lat="42.286039" lon="-4.196567">
        <ele>818.9</ele>
        <time>2020-08-23T06:23:14Z</time>
        <sat>10</sat>
      </trkpt>
      <trkpt lat="42.286043" lon="-4.196690">
        <ele>818.8</ele>
        <time>2020-08-23T06:23:21Z</time>
        <sat>10</sat>
      </trkpt>
      <trkpt lat="42.286040" lon="-4.196808">
        <ele>818.5</ele>
        <time>2020-08-23T06:23:28Z</time>
        <sat>9</sat>
      </trkpt>
      <trkpt lat="42.286040" lon="-4.196927">
        <ele>818.4</ele>
        <time>2020-08-23T06:23:35Z</time>
        <sat>9</sat>
      </trkpt>
      <trkpt lat="42.286043" lon="-4.197045">
        <ele>818.3</ele>
        <time>2020-08-23T06:23:42Z</time>
        <sat>9</sat>
      </trkpt>
      <trkpt lat="42.286039" lon="-4.197172">
        <ele>818.1</ele>
        <time>2020-08-23T06:23:49Z</time>
        <sat>9</sat>
      </trkpt>
      <trkpt lat="42.286034" lon="-4.197291">
        <ele>818.1</ele>
        <time>2020-08-23T06:23:56Z</time>
        <sat>9</sat>
      </trkpt>
      <trkpt lat="42.286028" lon="-4.197400">
        <ele>818.0</ele>
        <time>2020-08-23T06:24:02Z</time>
        <sat>9</sat>
      </trkpt>
      <trkpt lat="42.286014" lon="-4.197519">
        <ele>817.9</ele>
        <time>2020-08-23T06:24:09Z</time>
        <sat>9</sat>
      </trkpt>
      <trkpt lat="42.286005" lon="-4.197637">
        <ele>817.9</ele>
        <time>2020-08-23T06:24:16Z</time>
        <sat>9</sat>
      </trkpt>
      <trkpt lat="42.286013" lon="-4.197761">
        <ele>817.7</ele>
        <time>2020-08-23T06:24:23Z</time>
        <sat>9</sat>
      </trkpt>
      <trkpt lat="42.286016" lon="-4.197883">
        <ele>817.8</ele>
        <time>2020-08-23T06:24:30Z</time>
        <sat>9</sat>
      </trkpt>
      <trkpt lat="42.286034" lon="-4.198001">
        <ele>817.8</ele>
        <time>2020-08-23T06:24:37Z</time>
        <sat>9</sat>
      </trkpt>
      <trkpt lat="42.286044" lon="-4.198126">
        <ele>817.7</ele>
        <time>2020-08-23T06:24:44Z</time>
        <sat>9</sat>
      </trkpt>
      <trkpt lat="42.286057" lon="-4.198249">
        <ele>817.7</ele>
        <time>2020-08-23T06:24:51Z</time>
        <sat>9</sat>
      </trkpt>
      <trkpt lat="42.286064" lon="-4.198359">
        <ele>817.8</ele>
        <time>2020-08-23T06:24:57Z</time>
        <sat>9</sat>
      </trkpt>
      <trkpt lat="42.286071" lon="-4.198483">
        <ele>817.8</ele>
        <time>2020-08-23T06:25:04Z</time>
        <sat>9</sat>
      </trkpt>
      <trkpt lat="42.286077" lon="-4.198603">
        <ele>817.8</ele>
        <time>2020-08-23T06:25:11Z</time>
        <sat>9</sat>
      </trkpt>
      <trkpt lat="42.286081" lon="-4.198717">
        <ele>817.9</ele>
        <time>2020-08-23T06:25:18Z</time>
        <sat>9</sat>
      </trkpt>
      <trkpt lat="42.286092" lon="-4.198835">
        <ele>817.8</ele>
        <time>2020-08-23T06:25:25Z</time>
        <sat>9</sat>
      </trkpt>
      <trkpt lat="42.286106" lon="-4.198947">
        <ele>817.5</ele>
        <time>2020-08-23T06:25:32Z</time>
        <sat>9</sat>
      </trkpt>
      <trkpt lat="42.286119" lon="-4.199067">
        <ele>817.4</ele>
        <time>2020-08-23T06:25:39Z</time>
        <sat>9</sat>
      </trkpt>
      <trkpt lat="42.286130" lon="-4.199184">
        <ele>817.4</ele>
        <time>2020-08-23T06:25:46Z</time>
        <sat>9</sat>
      </trkpt>
      <trkpt lat="42.286148" lon="-4.199300">
        <ele>817.1</ele>
        <time>2020-08-23T06:25:53Z</time>
        <sat>9</sat>
      </trkpt>
      <trkpt lat="42.286161" lon="-4.199421">
        <ele>816.9</ele>
        <time>2020-08-23T06:26:00Z</time>
        <sat>9</sat>
      </trkpt>
      <trkpt lat="42.286172" lon="-4.199538">
        <ele>816.6</ele>
        <time>2020-08-23T06:26:07Z</time>
        <sat>9</sat>
      </trkpt>
      <trkpt lat="42.286188" lon="-4.199661">
        <ele>816.5</ele>
        <time>2020-08-23T06:26:14Z</time>
        <sat>9</sat>
      </trkpt>
      <trkpt lat="42.286194" lon="-4.199779">
        <ele>816.4</ele>
        <time>2020-08-23T06:26:21Z</time>
        <sat>9</sat>
      </trkpt>
      <trkpt lat="42.286206" lon="-4.199899">
        <ele>816.4</ele>
        <time>2020-08-23T06:26:28Z</time>
        <sat>9</sat>
      </trkpt>
      <trkpt lat="42.286214" lon="-4.200022">
        <ele>816.3</ele>
        <time>2020-08-23T06:26:35Z</time>
        <sat>9</sat>
      </trkpt>
      <trkpt lat="42.286225" lon="-4.200141">
        <ele>816.2</ele>
        <time>2020-08-23T06:26:42Z</time>
        <sat>9</sat>
      </trkpt>
      <trkpt lat="42.286242" lon="-4.200263">
        <ele>816.1</ele>
        <time>2020-08-23T06:26:49Z</time>
        <sat>9</sat>
      </trkpt>
      <trkpt lat="42.286255" lon="-4.200381">
        <ele>816.1</ele>
        <time>2020-08-23T06:26:56Z</time>
        <sat>9</sat>
      </trkpt>
      <trkpt lat="42.286267" lon="-4.200502">
        <ele>816.2</ele>
        <time>2020-08-23T06:27:03Z</time>
        <sat>9</sat>
      </trkpt>
      <trkpt lat="42.286288" lon="-4.200618">
        <ele>816.1</ele>
        <time>2020-08-23T06:27:10Z</time>
        <sat>9</sat>
      </trkpt>
      <trkpt lat="42.286309" lon="-4.200733">
        <ele>812.2</ele>
        <time>2020-08-23T06:27:17Z</time>
        <sat>9</sat>
      </trkpt>
      <trkpt lat="42.286329" lon="-4.200847">
        <ele>817.0</ele>
        <time>2020-08-23T06:27:24Z</time>
        <sat>9</sat>
      </trkpt>
      <trkpt lat="42.286365" lon="-4.200962">
        <ele>815.2</ele>
        <time>2020-08-23T06:28:26Z</time>
        <sat>9</sat>
      </trkpt>
      <trkpt lat="42.286383" lon="-4.201072">
        <ele>814.8</ele>
        <time>2020-08-23T06:28:33Z</time>
        <sat>8</sat>
      </trkpt>
      <trkpt lat="42.286373" lon="-4.201184">
        <ele>814.6</ele>
        <time>2020-08-23T06:28:41Z</time>
        <sat>8</sat>
      </trkpt>
      <trkpt lat="42.286336" lon="-4.201285">
        <ele>814.3</ele>
        <time>2020-08-23T06:28:49Z</time>
        <sat>8</sat>
      </trkpt>
      <trkpt lat="42.286277" lon="-4.201373">
        <ele>813.3</ele>
        <time>2020-08-23T06:28:58Z</time>
        <sat>8</sat>
      </trkpt>
      <trkpt lat="42.286217" lon="-4.201453">
        <ele>812.1</ele>
        <time>2020-08-23T06:29:06Z</time>
        <sat>8</sat>
      </trkpt>
      <trkpt lat="42.286164" lon="-4.201544">
        <ele>811.0</ele>
        <time>2020-08-23T06:29:14Z</time>
        <sat>8</sat>
      </trkpt>
      <trkpt lat="42.286103" lon="-4.201625">
        <ele>809.8</ele>
        <time>2020-08-23T06:29:22Z</time>
        <sat>8</sat>
      </trkpt>
      <trkpt lat="42.286048" lon="-4.201714">
        <ele>808.6</ele>
        <time>2020-08-23T06:29:30Z</time>
        <sat>8</sat>
      </trkpt>
      <trkpt lat="42.286031" lon="-4.201831">
        <ele>807.7</ele>
        <time>2020-08-23T06:29:37Z</time>
        <sat>8</sat>
      </trkpt>
      <trkpt lat="42.286033" lon="-4.201947">
        <ele>806.8</ele>
        <time>2020-08-23T06:29:44Z</time>
        <sat>8</sat>
      </trkpt>
      <trkpt lat="42.286042" lon="-4.202062">
        <ele>806.1</ele>
        <time>2020-08-23T06:29:51Z</time>
        <sat>8</sat>
      </trkpt>
      <trkpt lat="42.286029" lon="-4.202178">
        <ele>805.4</ele>
        <time>2020-08-23T06:29:58Z</time>
        <sat>8</sat>
      </trkpt>
      <trkpt lat="42.286014" lon="-4.202294">
        <ele>804.8</ele>
        <time>2020-08-23T06:30:05Z</time>
        <sat>8</sat>
      </trkpt>
      <trkpt lat="42.285990" lon="-4.202412">
        <ele>804.3</ele>
        <time>2020-08-23T06:30:12Z</time>
        <sat>8</sat>
      </trkpt>
      <trkpt lat="42.285955" lon="-4.202518">
        <ele>803.9</ele>
        <time>2020-08-23T06:30:19Z</time>
        <sat>7</sat>
      </trkpt>
      <trkpt lat="42.285928" lon="-4.202629">
        <ele>803.5</ele>
        <time>2020-08-23T06:30:26Z</time>
        <sat>8</sat>
      </trkpt>
      <trkpt lat="42.285902" lon="-4.202740">
        <ele>803.1</ele>
        <time>2020-08-23T06:30:33Z</time>
        <sat>7</sat>
      </trkpt>
      <trkpt lat="42.285874" lon="-4.202848">
        <ele>802.8</ele>
        <time>2020-08-23T06:30:40Z</time>
        <sat>7</sat>
      </trkpt>
      <trkpt lat="42.285848" lon="-4.202955">
        <ele>802.3</ele>
        <time>2020-08-23T06:30:47Z</time>
        <sat>7</sat>
      </trkpt>
      <trkpt lat="42.285828" lon="-4.203074">
        <ele>801.9</ele>
        <time>2020-08-23T06:30:55Z</time>
        <sat>7</sat>
      </trkpt>
      <trkpt lat="42.285812" lon="-4.203185">
        <ele>801.0</ele>
        <time>2020-08-23T06:31:02Z</time>
        <sat>7</sat>
      </trkpt>
      <trkpt lat="42.285796" lon="-4.203297">
        <ele>800.7</ele>
        <time>2020-08-23T06:31:09Z</time>
        <sat>8</sat>
      </trkpt>
      <trkpt lat="42.285783" lon="-4.203405">
        <ele>800.3</ele>
        <time>2020-08-23T06:31:16Z</time>
        <sat>8</sat>
      </trkpt>
      <trkpt lat="42.285775" lon="-4.203525">
        <ele>800.0</ele>
        <time>2020-08-23T06:31:24Z</time>
        <sat>8</sat>
      </trkpt>
      <trkpt lat="42.285773" lon="-4.203641">
        <ele>799.8</ele>
        <time>2020-08-23T06:31:30Z</time>
        <sat>8</sat>
      </trkpt>
      <trkpt lat="42.285769" lon="-4.203765">
        <ele>799.6</ele>
        <time>2020-08-23T06:31:37Z</time>
        <sat>8</sat>
      </trkpt>
      <trkpt lat="42.285768" lon="-4.203880">
        <ele>799.4</ele>
        <time>2020-08-23T06:31:44Z</time>
        <sat>7</sat>
      </trkpt>
      <trkpt lat="42.285768" lon="-4.203996">
        <ele>799.4</ele>
        <time>2020-08-23T06:31:51Z</time>
        <sat>7</sat>
      </trkpt>
      <trkpt lat="42.285767" lon="-4.204110">
        <ele>799.2</ele>
        <time>2020-08-23T06:31:58Z</time>
        <sat>8</sat>
      </trkpt>
      <trkpt lat="42.285771" lon="-4.204221">
        <ele>799.1</ele>
        <time>2020-08-23T06:32:05Z</time>
        <sat>8</sat>
      </trkpt>
      <trkpt lat="42.285776" lon="-4.204339">
        <ele>799.0</ele>
        <time>2020-08-23T06:32:12Z</time>
        <sat>8</sat>
      </trkpt>
      <trkpt lat="42.285778" lon="-4.204451">
        <ele>798.9</ele>
        <time>2020-08-23T06:32:19Z</time>
        <sat>8</sat>
      </trkpt>
      <trkpt lat="42.285779" lon="-4.204568">
        <ele>798.8</ele>
        <time>2020-08-23T06:32:26Z</time>
        <sat>8</sat>
      </trkpt>
      <trkpt lat="42.285773" lon="-4.204684">
        <ele>798.8</ele>
        <time>2020-08-23T06:32:33Z</time>
        <sat>8</sat>
      </trkpt>
      <trkpt lat="42.285777" lon="-4.204804">
        <ele>798.6</ele>
        <time>2020-08-23T06:32:40Z</time>
        <sat>7</sat>
      </trkpt>
      <trkpt lat="42.285774" lon="-4.204920">
        <ele>798.6</ele>
        <time>2020-08-23T06:32:47Z</time>
        <sat>8</sat>
      </trkpt>
      <trkpt lat="42.285773" lon="-4.205041">
        <ele>798.5</ele>
        <time>2020-08-23T06:32:54Z</time>
        <sat>8</sat>
      </trkpt>
      <trkpt lat="42.285775" lon="-4.205164">
        <ele>798.4</ele>
        <time>2020-08-23T06:33:01Z</time>
        <sat>8</sat>
      </trkpt>
      <trkpt lat="42.285771" lon="-4.205283">
        <ele>798.4</ele>
        <time>2020-08-23T06:33:08Z</time>
        <sat>8</sat>
      </trkpt>
      <trkpt lat="42.285771" lon="-4.205393">
        <ele>798.1</ele>
        <time>2020-08-23T06:33:14Z</time>
        <sat>8</sat>
      </trkpt>
      <trkpt lat="42.285773" lon="-4.205514">
        <ele>798.0</ele>
        <time>2020-08-23T06:33:21Z</time>
        <sat>8</sat>
      </trkpt>
      <trkpt lat="42.285771" lon="-4.205629">
        <ele>798.0</ele>
        <time>2020-08-23T06:33:28Z</time>
        <sat>8</sat>
      </trkpt>
      <trkpt lat="42.285775" lon="-4.205741">
        <ele>797.9</ele>
        <time>2020-08-23T06:33:35Z</time>
        <sat>8</sat>
      </trkpt>
      <trkpt lat="42.285783" lon="-4.205863">
        <ele>797.7</ele>
        <time>2020-08-23T06:33:42Z</time>
        <sat>8</sat>
      </trkpt>
      <trkpt lat="42.285769" lon="-4.205978">
        <ele>797.7</ele>
        <time>2020-08-23T06:33:49Z</time>
        <sat>8</sat>
      </trkpt>
      <trkpt lat="42.285773" lon="-4.206099">
        <ele>797.6</ele>
        <time>2020-08-23T06:33:56Z</time>
        <sat>8</sat>
      </trkpt>
      <trkpt lat="42.285774" lon="-4.206218">
        <ele>797.6</ele>
        <time>2020-08-23T06:34:03Z</time>
        <sat>8</sat>
      </trkpt>
      <trkpt lat="42.285772" lon="-4.206333">
        <ele>797.6</ele>
        <time>2020-08-23T06:34:10Z</time>
        <sat>8</sat>
      </trkpt>
      <trkpt lat="42.285761" lon="-4.206450">
        <ele>797.6</ele>
        <time>2020-08-23T06:34:17Z</time>
        <sat>7</sat>
      </trkpt>
      <trkpt lat="42.285750" lon="-4.206572">
        <ele>797.6</ele>
        <time>2020-08-23T06:34:24Z</time>
        <sat>8</sat>
      </trkpt>
      <trkpt lat="42.285738" lon="-4.206694">
        <ele>797.6</ele>
        <time>2020-08-23T06:34:31Z</time>
        <sat>8</sat>
      </trkpt>
      <trkpt lat="42.285728" lon="-4.206808">
        <ele>797.6</ele>
        <time>2020-08-23T06:34:38Z</time>
        <sat>8</sat>
      </trkpt>
      <trkpt lat="42.285723" lon="-4.206928">
        <ele>797.6</ele>
        <time>2020-08-23T06:34:45Z</time>
        <sat>8</sat>
      </trkpt>
      <trkpt lat="42.285704" lon="-4.207043">
        <ele>797.5</ele>
        <time>2020-08-23T06:34:52Z</time>
        <sat>8</sat>
      </trkpt>
      <trkpt lat="42.285700" lon="-4.207159">
        <ele>797.5</ele>
        <time>2020-08-23T06:34:59Z</time>
        <sat>8</sat>
      </trkpt>
      <trkpt lat="42.285689" lon="-4.207281">
        <ele>797.4</ele>
        <time>2020-08-23T06:35:07Z</time>
        <sat>8</sat>
      </trkpt>
      <trkpt lat="42.285680" lon="-4.207399">
        <ele>797.3</ele>
        <time>2020-08-23T06:35:14Z</time>
        <sat>8</sat>
      </trkpt>
      <trkpt lat="42.285671" lon="-4.207518">
        <ele>797.2</ele>
        <time>2020-08-23T06:35:21Z</time>
        <sat>8</sat>
      </trkpt>
      <trkpt lat="42.285668" lon="-4.207633">
        <ele>797.1</ele>
        <time>2020-08-23T06:35:28Z</time>
        <sat>8</sat>
      </trkpt>
      <trkpt lat="42.285669" lon="-4.207753">
        <ele>797.1</ele>
        <time>2020-08-23T06:35:35Z</time>
        <sat>8</sat>
      </trkpt>
      <trkpt lat="42.285665" lon="-4.207869">
        <ele>797.1</ele>
        <time>2020-08-23T06:35:42Z</time>
        <sat>8</sat>
      </trkpt>
      <trkpt lat="42.285668" lon="-4.207985">
        <ele>797.1</ele>
        <time>2020-08-23T06:35:49Z</time>
        <sat>8</sat>
      </trkpt>
      <trkpt lat="42.285663" lon="-4.208101">
        <ele>797.1</ele>
        <time>2020-08-23T06:35:56Z</time>
        <sat>8</sat>
      </trkpt>
      <trkpt lat="42.285664" lon="-4.208214">
        <ele>797.0</ele>
        <time>2020-08-23T06:36:02Z</time>
        <sat>8</sat>
      </trkpt>
      <trkpt lat="42.285648" lon="-4.208336">
        <ele>797.0</ele>
        <time>2020-08-23T06:36:09Z</time>
        <sat>8</sat>
      </trkpt>
      <trkpt lat="42.285639" lon="-4.208452">
        <ele>796.9</ele>
        <time>2020-08-23T06:36:16Z</time>
        <sat>8</sat>
      </trkpt>
      <trkpt lat="42.285636" lon="-4.208574">
        <ele>796.9</ele>
        <time>2020-08-23T06:36:23Z</time>
        <sat>7</sat>
      </trkpt>
      <trkpt lat="42.285628" lon="-4.208693">
        <ele>796.8</ele>
        <time>2020-08-23T06:36:30Z</time>
        <sat>8</sat>
      </trkpt>
      <trkpt lat="42.285613" lon="-4.208812">
        <ele>796.8</ele>
        <time>2020-08-23T06:36:37Z</time>
        <sat>8</sat>
      </trkpt>
      <trkpt lat="42.285603" lon="-4.208929">
        <ele>796.7</ele>
        <time>2020-08-23T06:36:44Z</time>
        <sat>8</sat>
      </trkpt>
      <trkpt lat="42.285597" lon="-4.209045">
        <ele>796.6</ele>
        <time>2020-08-23T06:36:51Z</time>
        <sat>8</sat>
      </trkpt>
      <trkpt lat="42.285588" lon="-4.209166">
        <ele>796.7</ele>
        <time>2020-08-23T06:36:58Z</time>
        <sat>8</sat>
      </trkpt>
      <trkpt lat="42.285579" lon="-4.209281">
        <ele>796.6</ele>
        <time>2020-08-23T06:37:05Z</time>
        <sat>8</sat>
      </trkpt>
      <trkpt lat="42.285572" lon="-4.209397">
        <ele>796.5</ele>
        <time>2020-08-23T06:37:12Z</time>
        <sat>8</sat>
      </trkpt>
      <trkpt lat="42.285562" lon="-4.209516">
        <ele>796.3</ele>
        <time>2020-08-23T06:37:19Z</time>
        <sat>7</sat>
      </trkpt>
      <trkpt lat="42.285545" lon="-4.209633">
        <ele>796.2</ele>
        <time>2020-08-23T06:37:26Z</time>
        <sat>8</sat>
      </trkpt>
      <trkpt lat="42.285527" lon="-4.209750">
        <ele>796.1</ele>
        <time>2020-08-23T06:37:33Z</time>
        <sat>7</sat>
      </trkpt>
      <trkpt lat="42.285521" lon="-4.209871">
        <ele>796.0</ele>
        <time>2020-08-23T06:37:40Z</time>
        <sat>8</sat>
      </trkpt>
      <trkpt lat="42.285500" lon="-4.209988">
        <ele>796.0</ele>
        <time>2020-08-23T06:37:47Z</time>
        <sat>8</sat>
      </trkpt>
      <trkpt lat="42.285484" lon="-4.210103">
        <ele>795.9</ele>
        <time>2020-08-23T06:37:54Z</time>
        <sat>8</sat>
      </trkpt>
      <trkpt lat="42.285460" lon="-4.210220">
        <ele>795.8</ele>
        <time>2020-08-23T06:38:01Z</time>
        <sat>7</sat>
      </trkpt>
      <trkpt lat="42.285429" lon="-4.210329">
        <ele>795.8</ele>
        <time>2020-08-23T06:38:08Z</time>
        <sat>8</sat>
      </trkpt>
      <trkpt lat="42.285417" lon="-4.210450">
        <ele>795.8</ele>
        <time>2020-08-23T06:38:15Z</time>
        <sat>7</sat>
      </trkpt>
      <trkpt lat="42.285379" lon="-4.210546">
        <ele>795.7</ele>
        <time>2020-08-23T06:38:21Z</time>
        <sat>8</sat>
      </trkpt>
      <trkpt lat="42.285340" lon="-4.210652">
        <ele>795.6</ele>
        <time>2020-08-23T06:38:28Z</time>
        <sat>8</sat>
      </trkpt>
      <trkpt lat="42.285303" lon="-4.210764">
        <ele>795.6</ele>
        <time>2020-08-23T06:38:35Z</time>
        <sat>8</sat>
      </trkpt>
      <trkpt lat="42.285258" lon="-4.210870">
        <ele>795.6</ele>
        <time>2020-08-23T06:38:42Z</time>
        <sat>8</sat>
      </trkpt>
      <trkpt lat="42.285213" lon="-4.210974">
        <ele>795.6</ele>
        <time>2020-08-23T06:38:49Z</time>
        <sat>7</sat>
      </trkpt>
      <trkpt lat="42.285177" lon="-4.211084">
        <ele>795.5</ele>
        <time>2020-08-23T06:38:56Z</time>
        <sat>7</sat>
      </trkpt>
      <trkpt lat="42.285139" lon="-4.211194">
        <ele>795.5</ele>
        <time>2020-08-23T06:39:03Z</time>
        <sat>7</sat>
      </trkpt>
      <trkpt lat="42.285100" lon="-4.211301">
        <ele>795.5</ele>
        <time>2020-08-23T06:39:10Z</time>
        <sat>7</sat>
      </trkpt>
      <trkpt lat="42.285064" lon="-4.211403">
        <ele>795.5</ele>
        <time>2020-08-23T06:39:17Z</time>
        <sat>7</sat>
      </trkpt>
      <trkpt lat="42.285035" lon="-4.211506">
        <ele>795.6</ele>
        <time>2020-08-23T06:39:23Z</time>
        <sat>7</sat>
      </trkpt>
      <trkpt lat="42.284996" lon="-4.211613">
        <ele>795.6</ele>
        <time>2020-08-23T06:39:30Z</time>
        <sat>7</sat>
      </trkpt>
      <trkpt lat="42.284961" lon="-4.211728">
        <ele>795.6</ele>
        <time>2020-08-23T06:39:37Z</time>
        <sat>7</sat>
      </trkpt>
      <trkpt lat="42.284928" lon="-4.211845">
        <ele>795.7</ele>
        <time>2020-08-23T06:39:44Z</time>
        <sat>7</sat>
      </trkpt>
      <trkpt lat="42.284890" lon="-4.211954">
        <ele>795.7</ele>
        <time>2020-08-23T06:39:51Z</time>
        <sat>7</sat>
      </trkpt>
      <trkpt lat="42.284860" lon="-4.212071">
        <ele>795.7</ele>
        <time>2020-08-23T06:39:58Z</time>
        <sat>8</sat>
      </trkpt>
      <trkpt lat="42.284829" lon="-4.212182">
        <ele>795.7</ele>
        <time>2020-08-23T06:40:05Z</time>
        <sat>7</sat>
      </trkpt>
      <trkpt lat="42.284794" lon="-4.212296">
        <ele>795.8</ele>
        <time>2020-08-23T06:40:12Z</time>
        <sat>7</sat>
      </trkpt>
      <trkpt lat="42.284774" lon="-4.212403">
        <ele>795.8</ele>
        <time>2020-08-23T06:40:18Z</time>
        <sat>7</sat>
      </trkpt>
      <trkpt lat="42.284740" lon="-4.212515">
        <ele>795.7</ele>
        <time>2020-08-23T06:40:25Z</time>
        <sat>7</sat>
      </trkpt>
      <trkpt lat="42.284717" lon="-4.212638">
        <ele>795.6</ele>
        <time>2020-08-23T06:40:32Z</time>
        <sat>8</sat>
      </trkpt>
      <trkpt lat="42.284688" lon="-4.212760">
        <ele>795.4</ele>
        <time>2020-08-23T06:40:39Z</time>
        <sat>8</sat>
      </trkpt>
      <trkpt lat="42.284654" lon="-4.212875">
        <ele>795.3</ele>
        <time>2020-08-23T06:40:46Z</time>
        <sat>7</sat>
      </trkpt>
      <trkpt lat="42.284621" lon="-4.212993">
        <ele>795.2</ele>
        <time>2020-08-23T06:40:53Z</time>
        <sat>7</sat>
      </trkpt>
      <trkpt lat="42.284586" lon="-4.213108">
        <ele>795.1</ele>
        <time>2020-08-23T06:41:00Z</time>
        <sat>7</sat>
      </trkpt>
      <trkpt lat="42.284557" lon="-4.213228">
        <ele>794.8</ele>
        <time>2020-08-23T06:41:07Z</time>
        <sat>7</sat>
      </trkpt>
      <trkpt lat="42.284520" lon="-4.213342">
        <ele>794.7</ele>
        <time>2020-08-23T06:41:14Z</time>
        <sat>7</sat>
      </trkpt>
      <trkpt lat="42.284493" lon="-4.213459">
        <ele>794.6</ele>
        <time>2020-08-23T06:41:21Z</time>
        <sat>7</sat>
      </trkpt>
      <trkpt lat="42.284453" lon="-4.213569">
        <ele>794.5</ele>
        <time>2020-08-23T06:41:28Z</time>
        <sat>7</sat>
      </trkpt>
      <trkpt lat="42.284420" lon="-4.213688">
        <ele>794.4</ele>
        <time>2020-08-23T06:41:35Z</time>
        <sat>7</sat>
      </trkpt>
      <trkpt lat="42.284383" lon="-4.213800">
        <ele>794.3</ele>
        <time>2020-08-23T06:41:42Z</time>
        <sat>7</sat>
      </trkpt>
      <trkpt lat="42.284350" lon="-4.213915">
        <ele>794.3</ele>
        <time>2020-08-23T06:41:49Z</time>
        <sat>8</sat>
      </trkpt>
      <trkpt lat="42.284318" lon="-4.214027">
        <ele>794.2</ele>
        <time>2020-08-23T06:41:56Z</time>
        <sat>8</sat>
      </trkpt>
      <trkpt lat="42.284280" lon="-4.214139">
        <ele>794.1</ele>
        <time>2020-08-23T06:42:03Z</time>
        <sat>7</sat>
      </trkpt>
      <trkpt lat="42.284244" lon="-4.214252">
        <ele>794.1</ele>
        <time>2020-08-23T06:42:10Z</time>
        <sat>8</sat>
      </trkpt>
      <trkpt lat="42.284224" lon="-4.214358">
        <ele>794.1</ele>
        <time>2020-08-23T06:42:16Z</time>
        <sat>7</sat>
      </trkpt>
      <trkpt lat="42.284185" lon="-4.214471">
        <ele>794.0</ele>
        <time>2020-08-23T06:42:23Z</time>
        <sat>8</sat>
      </trkpt>
      <trkpt lat="42.284152" lon="-4.214583">
        <ele>793.9</ele>
        <time>2020-08-23T06:42:30Z</time>
        <sat>8</sat>
      </trkpt>
      <trkpt lat="42.284124" lon="-4.214694">
        <ele>793.9</ele>
        <time>2020-08-23T06:42:37Z</time>
        <sat>7</sat>
      </trkpt>
      <trkpt lat="42.284089" lon="-4.214796">
        <ele>793.9</ele>
        <time>2020-08-23T06:42:44Z</time>
        <sat>8</sat>
      </trkpt>
      <trkpt lat="42.284059" lon="-4.214899">
        <ele>793.9</ele>
        <time>2020-08-23T06:42:50Z</time>
        <sat>7</sat>
      </trkpt>
      <trkpt lat="42.284016" lon="-4.215010">
        <ele>793.9</ele>
        <time>2020-08-23T06:42:57Z</time>
        <sat>7</sat>
      </trkpt>
      <trkpt lat="42.283981" lon="-4.215123">
        <ele>793.8</ele>
        <time>2020-08-23T06:43:04Z</time>
        <sat>8</sat>
      </trkpt>
      <trkpt lat="42.283943" lon="-4.215235">
        <ele>793.7</ele>
        <time>2020-08-23T06:43:11Z</time>
        <sat>8</sat>
      </trkpt>
      <trkpt lat="42.283900" lon="-4.215347">
        <ele>793.5</ele>
        <time>2020-08-23T06:43:18Z</time>
        <sat>8</sat>
      </trkpt>
      <trkpt lat="42.283865" lon="-4.215461">
        <ele>793.4</ele>
        <time>2020-08-23T06:43:25Z</time>
        <sat>8</sat>
      </trkpt>
      <trkpt lat="42.283824" lon="-4.215568">
        <ele>793.3</ele>
        <time>2020-08-23T06:43:32Z</time>
        <sat>8</sat>
      </trkpt>
      <trkpt lat="42.283799" lon="-4.215674">
        <ele>793.1</ele>
        <time>2020-08-23T06:43:38Z</time>
        <sat>7</sat>
      </trkpt>
      <trkpt lat="42.283763" lon="-4.215786">
        <ele>793.0</ele>
        <time>2020-08-23T06:43:45Z</time>
        <sat>7</sat>
      </trkpt>
      <trkpt lat="42.283739" lon="-4.215907">
        <ele>793.0</ele>
        <time>2020-08-23T06:43:52Z</time>
        <sat>8</sat>
      </trkpt>
      <trkpt lat="42.283716" lon="-4.216024">
        <ele>792.8</ele>
        <time>2020-08-23T06:43:59Z</time>
        <sat>9</sat>
      </trkpt>
      <trkpt lat="42.283692" lon="-4.216143">
        <ele>792.6</ele>
        <time>2020-08-23T06:44:06Z</time>
        <sat>8</sat>
      </trkpt>
      <trkpt lat="42.283671" lon="-4.216264">
        <ele>792.5</ele>
        <time>2020-08-23T06:44:13Z</time>
        <sat>7</sat>
      </trkpt>
      <trkpt lat="42.283652" lon="-4.216380">
        <ele>792.4</ele>
        <time>2020-08-23T06:44:20Z</time>
        <sat>8</sat>
      </trkpt>
      <trkpt lat="42.283634" lon="-4.216489">
        <ele>792.3</ele>
        <time>2020-08-23T06:44:26Z</time>
        <sat>9</sat>
      </trkpt>
      <trkpt lat="42.283620" lon="-4.216598">
        <ele>792.3</ele>
        <time>2020-08-23T06:44:32Z</time>
        <sat>8</sat>
      </trkpt>
      <trkpt lat="42.283598" lon="-4.216705">
        <ele>792.2</ele>
        <time>2020-08-23T06:44:38Z</time>
        <sat>8</sat>
      </trkpt>
      <trkpt lat="42.283585" lon="-4.216822">
        <ele>792.1</ele>
        <time>2020-08-23T06:44:45Z</time>
        <sat>8</sat>
      </trkpt>
      <trkpt lat="42.283574" lon="-4.216944">
        <ele>792.0</ele>
        <time>2020-08-23T06:44:52Z</time>
        <sat>7</sat>
      </trkpt>
      <trkpt lat="42.283560" lon="-4.217060">
        <ele>791.9</ele>
        <time>2020-08-23T06:44:59Z</time>
        <sat>8</sat>
      </trkpt>
      <trkpt lat="42.283551" lon="-4.217185">
        <ele>791.8</ele>
        <time>2020-08-23T06:45:06Z</time>
        <sat>9</sat>
      </trkpt>
      <trkpt lat="42.283541" lon="-4.217307">
        <ele>791.6</ele>
        <time>2020-08-23T06:45:13Z</time>
        <sat>9</sat>
      </trkpt>
      <trkpt lat="42.283527" lon="-4.217426">
        <ele>791.4</ele>
        <time>2020-08-23T06:45:20Z</time>
        <sat>9</sat>
      </trkpt>
      <trkpt lat="42.283521" lon="-4.217546">
        <ele>791.3</ele>
        <time>2020-08-23T06:45:27Z</time>
        <sat>8</sat>
      </trkpt>
      <trkpt lat="42.283509" lon="-4.217669">
        <ele>791.3</ele>
        <time>2020-08-23T06:45:34Z</time>
        <sat>8</sat>
      </trkpt>
      <trkpt lat="42.283500" lon="-4.217792">
        <ele>791.0</ele>
        <time>2020-08-23T06:45:41Z</time>
        <sat>8</sat>
      </trkpt>
      <trkpt lat="42.283495" lon="-4.217919">
        <ele>791.0</ele>
        <time>2020-08-23T06:45:48Z</time>
        <sat>9</sat>
      </trkpt>
      <trkpt lat="42.283487" lon="-4.218027">
        <ele>790.9</ele>
        <time>2020-08-23T06:45:54Z</time>
        <sat>8</sat>
      </trkpt>
      <trkpt lat="42.283471" lon="-4.218152">
        <ele>790.9</ele>
        <time>2020-08-23T06:46:01Z</time>
        <sat>9</sat>
      </trkpt>
      <trkpt lat="42.283460" lon="-4.218273">
        <ele>790.8</ele>
        <time>2020-08-23T06:46:08Z</time>
        <sat>9</sat>
      </trkpt>
      <trkpt lat="42.283442" lon="-4.218380">
        <ele>790.8</ele>
        <time>2020-08-23T06:46:14Z</time>
        <sat>8</sat>
      </trkpt>
      <trkpt lat="42.283434" lon="-4.218492">
        <ele>790.8</ele>
        <time>2020-08-23T06:46:20Z</time>
        <sat>8</sat>
      </trkpt>
      <trkpt lat="42.283416" lon="-4.218615">
        <ele>790.6</ele>
        <time>2020-08-23T06:46:27Z</time>
        <sat>8</sat>
      </trkpt>
      <trkpt lat="42.283407" lon="-4.218741">
        <ele>790.4</ele>
        <time>2020-08-23T06:46:34Z</time>
        <sat>9</sat>
      </trkpt>
      <trkpt lat="42.283387" lon="-4.218863">
        <ele>790.3</ele>
        <time>2020-08-23T06:46:41Z</time>
        <sat>9</sat>
      </trkpt>
      <trkpt lat="42.283377" lon="-4.218989">
        <ele>790.2</ele>
        <time>2020-08-23T06:46:48Z</time>
        <sat>8</sat>
      </trkpt>
      <trkpt lat="42.283357" lon="-4.219109">
        <ele>790.2</ele>
        <time>2020-08-23T06:46:55Z</time>
        <sat>8</sat>
      </trkpt>
      <trkpt lat="42.283342" lon="-4.219222">
        <ele>790.1</ele>
        <time>2020-08-23T06:47:01Z</time>
        <sat>8</sat>
      </trkpt>
      <trkpt lat="42.283318" lon="-4.219332">
        <ele>790.0</ele>
        <time>2020-08-23T06:47:08Z</time>
        <sat>8</sat>
      </trkpt>
      <trkpt lat="42.283308" lon="-4.219456">
        <ele>789.8</ele>
        <time>2020-08-23T06:47:15Z</time>
        <sat>8</sat>
      </trkpt>
      <trkpt lat="42.283289" lon="-4.219575">
        <ele>789.8</ele>
        <time>2020-08-23T06:47:22Z</time>
        <sat>8</sat>
      </trkpt>
      <trkpt lat="42.283286" lon="-4.219687">
        <ele>789.8</ele>
        <time>2020-08-23T06:47:34Z</time>
        <sat>9</sat>
      </trkpt>
      <trkpt lat="42.283267" lon="-4.219796">
        <ele>789.8</ele>
        <time>2020-08-23T06:47:40Z</time>
        <sat>8</sat>
      </trkpt>
      <trkpt lat="42.283243" lon="-4.219920">
        <ele>789.7</ele>
        <time>2020-08-23T06:47:47Z</time>
        <sat>9</sat>
      </trkpt>
      <trkpt lat="42.283238" lon="-4.220037">
        <ele>789.6</ele>
        <time>2020-08-23T06:47:53Z</time>
        <sat>9</sat>
      </trkpt>
      <trkpt lat="42.283219" lon="-4.220160">
        <ele>789.5</ele>
        <time>2020-08-23T06:48:00Z</time>
        <sat>9</sat>
      </trkpt>
      <trkpt lat="42.283209" lon="-4.220273">
        <ele>789.3</ele>
        <time>2020-08-23T06:48:06Z</time>
        <sat>8</sat>
      </trkpt>
      <trkpt lat="42.283192" lon="-4.220396">
        <ele>789.2</ele>
        <time>2020-08-23T06:48:13Z</time>
        <sat>8</sat>
      </trkpt>
      <trkpt lat="42.283172" lon="-4.220503">
        <ele>789.2</ele>
        <time>2020-08-23T06:48:19Z</time>
        <sat>9</sat>
      </trkpt>
      <trkpt lat="42.283158" lon="-4.220629">
        <ele>789.1</ele>
        <time>2020-08-23T06:48:26Z</time>
        <sat>9</sat>
      </trkpt>
      <trkpt lat="42.283138" lon="-4.220735">
        <ele>789.2</ele>
        <time>2020-08-23T06:48:32Z</time>
        <sat>8</sat>
      </trkpt>
      <trkpt lat="42.283124" lon="-4.220846">
        <ele>789.2</ele>
        <time>2020-08-23T06:48:38Z</time>
        <sat>8</sat>
      </trkpt>
      <trkpt lat="42.283097" lon="-4.220965">
        <ele>789.1</ele>
        <time>2020-08-23T06:48:45Z</time>
        <sat>9</sat>
      </trkpt>
      <trkpt lat="42.283079" lon="-4.221072">
        <ele>789.0</ele>
        <time>2020-08-23T06:48:51Z</time>
        <sat>9</sat>
      </trkpt>
      <trkpt lat="42.283057" lon="-4.221179">
        <ele>789.1</ele>
        <time>2020-08-23T06:49:09Z</time>
        <sat>9</sat>
      </trkpt>
      <trkpt lat="42.283036" lon="-4.221288">
        <ele>789.0</ele>
        <time>2020-08-23T06:49:16Z</time>
        <sat>9</sat>
      </trkpt>
      <trkpt lat="42.283012" lon="-4.221401">
        <ele>788.9</ele>
        <time>2020-08-23T06:49:23Z</time>
        <sat>9</sat>
      </trkpt>
      <trkpt lat="42.282989" lon="-4.221506">
        <ele>788.9</ele>
        <time>2020-08-23T06:49:30Z</time>
        <sat>9</sat>
      </trkpt>
      <trkpt lat="42.282964" lon="-4.221616">
        <ele>788.9</ele>
        <time>2020-08-23T06:49:37Z</time>
        <sat>8</sat>
      </trkpt>
      <trkpt lat="42.282940" lon="-4.221728">
        <ele>788.8</ele>
        <time>2020-08-23T06:49:44Z</time>
        <sat>8</sat>
      </trkpt>
      <trkpt lat="42.282911" lon="-4.221844">
        <ele>788.8</ele>
        <time>2020-08-23T06:49:51Z</time>
        <sat>8</sat>
      </trkpt>
      <trkpt lat="42.282885" lon="-4.221961">
        <ele>788.8</ele>
        <time>2020-08-23T06:49:58Z</time>
        <sat>8</sat>
      </trkpt>
      <trkpt lat="42.282859" lon="-4.222064">
        <ele>788.7</ele>
        <time>2020-08-23T06:50:04Z</time>
        <sat>8</sat>
      </trkpt>
      <trkpt lat="42.282830" lon="-4.222182">
        <ele>788.6</ele>
        <time>2020-08-23T06:50:11Z</time>
        <sat>8</sat>
      </trkpt>
      <trkpt lat="42.282800" lon="-4.222298">
        <ele>788.5</ele>
        <time>2020-08-23T06:50:18Z</time>
        <sat>8</sat>
      </trkpt>
      <trkpt lat="42.282769" lon="-4.222415">
        <ele>788.4</ele>
        <time>2020-08-23T06:50:25Z</time>
        <sat>8</sat>
      </trkpt>
      <trkpt lat="42.282744" lon="-4.222537">
        <ele>788.4</ele>
        <time>2020-08-23T06:50:32Z</time>
        <sat>8</sat>
      </trkpt>
      <trkpt lat="42.282709" lon="-4.222649">
        <ele>788.2</ele>
        <time>2020-08-23T06:50:39Z</time>
        <sat>9</sat>
      </trkpt>
      <trkpt lat="42.282684" lon="-4.222767">
        <ele>788.2</ele>
        <time>2020-08-23T06:50:46Z</time>
        <sat>9</sat>
      </trkpt>
      <trkpt lat="42.282651" lon="-4.222887">
        <ele>788.2</ele>
        <time>2020-08-23T06:50:53Z</time>
        <sat>9</sat>
      </trkpt>
      <trkpt lat="42.282624" lon="-4.222999">
        <ele>788.2</ele>
        <time>2020-08-23T06:51:00Z</time>
        <sat>9</sat>
      </trkpt>
      <trkpt lat="42.282593" lon="-4.223111">
        <ele>788.2</ele>
        <time>2020-08-23T06:51:07Z</time>
        <sat>9</sat>
      </trkpt>
      <trkpt lat="42.282554" lon="-4.223219">
        <ele>788.2</ele>
        <time>2020-08-23T06:51:14Z</time>
        <sat>9</sat>
      </trkpt>
      <trkpt lat="42.282513" lon="-4.223325">
        <ele>788.2</ele>
        <time>2020-08-23T06:51:21Z</time>
        <sat>9</sat>
      </trkpt>
      <trkpt lat="42.282468" lon="-4.223426">
        <ele>788.5</ele>
        <time>2020-08-23T06:51:28Z</time>
        <sat>9</sat>
      </trkpt>
      <trkpt lat="42.282435" lon="-4.223543">
        <ele>788.4</ele>
        <time>2020-08-23T06:51:35Z</time>
        <sat>8</sat>
      </trkpt>
      <trkpt lat="42.282392" lon="-4.223645">
        <ele>788.5</ele>
        <time>2020-08-23T06:51:42Z</time>
        <sat>8</sat>
      </trkpt>
      <trkpt lat="42.282349" lon="-4.223746">
        <ele>788.5</ele>
        <time>2020-08-23T06:51:49Z</time>
        <sat>9</sat>
      </trkpt>
      <trkpt lat="42.282302" lon="-4.223846">
        <ele>788.5</ele>
        <time>2020-08-23T06:51:57Z</time>
        <sat>9</sat>
      </trkpt>
      <trkpt lat="42.282263" lon="-4.223954">
        <ele>788.7</ele>
        <time>2020-08-23T06:52:05Z</time>
        <sat>9</sat>
      </trkpt>
      <trkpt lat="42.282223" lon="-4.224067">
        <ele>788.7</ele>
        <time>2020-08-23T06:52:13Z</time>
        <sat>9</sat>
      </trkpt>
      <trkpt lat="42.282183" lon="-4.224178">
        <ele>788.9</ele>
        <time>2020-08-23T06:52:21Z</time>
        <sat>10</sat>
      </trkpt>
      <trkpt lat="42.282153" lon="-4.224285">
        <ele>789.0</ele>
        <time>2020-08-23T06:52:28Z</time>
        <sat>10</sat>
      </trkpt>
      <trkpt lat="42.282123" lon="-4.224391">
        <ele>789.1</ele>
        <time>2020-08-23T06:52:35Z</time>
        <sat>9</sat>
      </trkpt>
      <trkpt lat="42.282096" lon="-4.224496">
        <ele>789.1</ele>
        <time>2020-08-23T06:52:42Z</time>
        <sat>9</sat>
      </trkpt>
      <trkpt lat="42.282064" lon="-4.224613">
        <ele>789.1</ele>
        <time>2020-08-23T06:52:49Z</time>
        <sat>9</sat>
      </trkpt>
      <trkpt lat="42.282030" lon="-4.224721">
        <ele>789.2</ele>
        <time>2020-08-23T06:53:07Z</time>
        <sat>10</sat>
      </trkpt>
      <trkpt lat="42.282002" lon="-4.224833">
        <ele>789.2</ele>
        <time>2020-08-23T06:53:14Z</time>
        <sat>10</sat>
      </trkpt>
      <trkpt lat="42.281973" lon="-4.224941">
        <ele>789.3</ele>
        <time>2020-08-23T06:53:21Z</time>
        <sat>10</sat>
      </trkpt>
      <trkpt lat="42.281941" lon="-4.225046">
        <ele>789.3</ele>
        <time>2020-08-23T06:53:28Z</time>
        <sat>9</sat>
      </trkpt>
      <trkpt lat="42.281912" lon="-4.225151">
        <ele>789.3</ele>
        <time>2020-08-23T06:53:35Z</time>
        <sat>9</sat>
      </trkpt>
      <trkpt lat="42.281878" lon="-4.225259">
        <ele>789.3</ele>
        <time>2020-08-23T06:53:42Z</time>
        <sat>9</sat>
      </trkpt>
      <trkpt lat="42.281836" lon="-4.225362">
        <ele>789.3</ele>
        <time>2020-08-23T06:53:50Z</time>
        <sat>8</sat>
      </trkpt>
      <trkpt lat="42.281801" lon="-4.225464">
        <ele>789.4</ele>
        <time>2020-08-23T06:53:58Z</time>
        <sat>9</sat>
      </trkpt>
      <trkpt lat="42.281758" lon="-4.225564">
        <ele>789.7</ele>
        <time>2020-08-23T06:54:05Z</time>
        <sat>9</sat>
      </trkpt>
      <trkpt lat="42.281711" lon="-4.225657">
        <ele>789.8</ele>
        <time>2020-08-23T06:54:12Z</time>
        <sat>8</sat>
      </trkpt>
      <trkpt lat="42.281658" lon="-4.225752">
        <ele>790.1</ele>
        <time>2020-08-23T06:54:19Z</time>
        <sat>9</sat>
      </trkpt>
      <trkpt lat="42.281600" lon="-4.225848">
        <ele>790.4</ele>
        <time>2020-08-23T06:54:27Z</time>
        <sat>9</sat>
      </trkpt>
      <trkpt lat="42.281547" lon="-4.225938">
        <ele>790.8</ele>
        <time>2020-08-23T06:54:38Z</time>
        <sat>9</sat>
      </trkpt>
      <trkpt lat="42.281489" lon="-4.226031">
        <ele>791.3</ele>
        <time>2020-08-23T06:54:46Z</time>
        <sat>9</sat>
      </trkpt>
      <trkpt lat="42.281432" lon="-4.226118">
        <ele>791.6</ele>
        <time>2020-08-23T06:54:53Z</time>
        <sat>8</sat>
      </trkpt>
      <trkpt lat="42.281378" lon="-4.226200">
        <ele>792.5</ele>
        <time>2020-08-23T06:55:09Z</time>
        <sat>10</sat>
      </trkpt>
      <trkpt lat="42.281333" lon="-4.226291">
        <ele>793.3</ele>
        <time>2020-08-23T06:55:21Z</time>
        <sat>10</sat>
      </trkpt>
      <trkpt lat="42.281294" lon="-4.226397">
        <ele>794.0</ele>
        <time>2020-08-23T06:55:31Z</time>
        <sat>10</sat>
      </trkpt>
      <trkpt lat="42.281262" lon="-4.226499">
        <ele>794.5</ele>
        <time>2020-08-23T06:55:39Z</time>
        <sat>10</sat>
      </trkpt>
      <trkpt lat="42.281242" lon="-4.226609">
        <ele>795.0</ele>
        <time>2020-08-23T06:55:47Z</time>
        <sat>10</sat>
      </trkpt>
      <trkpt lat="42.281227" lon="-4.226732">
        <ele>795.4</ele>
        <time>2020-08-23T06:55:55Z</time>
        <sat>10</sat>
      </trkpt>
      <trkpt lat="42.281196" lon="-4.226838">
        <ele>797.0</ele>
        <time>2020-08-23T06:56:27Z</time>
        <sat>10</sat>
      </trkpt>
      <trkpt lat="42.281183" lon="-4.226960">
        <ele>797.0</ele>
        <time>2020-08-23T06:56:34Z</time>
        <sat>10</sat>
      </trkpt>
      <trkpt lat="42.281179" lon="-4.227075">
        <ele>797.1</ele>
        <time>2020-08-23T06:56:41Z</time>
        <sat>10</sat>
      </trkpt>
      <trkpt lat="42.281182" lon="-4.227187">
        <ele>797.5</ele>
        <time>2020-08-23T06:56:49Z</time>
        <sat>10</sat>
      </trkpt>
      <trkpt lat="42.281196" lon="-4.227308">
        <ele>797.9</ele>
        <time>2020-08-23T06:56:58Z</time>
        <sat>10</sat>
      </trkpt>
      <trkpt lat="42.281206" lon="-4.227433">
        <ele>798.3</ele>
        <time>2020-08-23T06:57:06Z</time>
        <sat>10</sat>
      </trkpt>
      <trkpt lat="42.281209" lon="-4.227543">
        <ele>798.6</ele>
        <time>2020-08-23T06:57:13Z</time>
        <sat>10</sat>
      </trkpt>
      <trkpt lat="42.281215" lon="-4.227662">
        <ele>798.8</ele>
        <time>2020-08-23T06:57:20Z</time>
        <sat>10</sat>
      </trkpt>
      <trkpt lat="42.281227" lon="-4.227786">
        <ele>799.3</ele>
        <time>2020-08-23T06:57:28Z</time>
        <sat>10</sat>
      </trkpt>
      <trkpt lat="42.281237" lon="-4.227906">
        <ele>799.5</ele>
        <time>2020-08-23T06:57:35Z</time>
        <sat>10</sat>
      </trkpt>
      <trkpt lat="42.281241" lon="-4.228025">
        <ele>799.7</ele>
        <time>2020-08-23T06:57:42Z</time>
        <sat>10</sat>
      </trkpt>
      <trkpt lat="42.281249" lon="-4.228138">
        <ele>800.2</ele>
        <time>2020-08-23T06:57:49Z</time>
        <sat>10</sat>
      </trkpt>
      <trkpt lat="42.281263" lon="-4.228250">
        <ele>800.7</ele>
        <time>2020-08-23T06:57:56Z</time>
        <sat>8</sat>
      </trkpt>
      <trkpt lat="42.281280" lon="-4.228366">
        <ele>800.9</ele>
        <time>2020-08-23T06:58:03Z</time>
        <sat>10</sat>
      </trkpt>
      <trkpt lat="42.281293" lon="-4.228484">
        <ele>801.3</ele>
        <time>2020-08-23T06:58:10Z</time>
        <sat>10</sat>
      </trkpt>
      <trkpt lat="42.281294" lon="-4.228609">
        <ele>801.4</ele>
        <time>2020-08-23T06:58:18Z</time>
        <sat>10</sat>
      </trkpt>
      <trkpt lat="42.281298" lon="-4.228719">
        <ele>801.0</ele>
        <time>2020-08-23T06:58:25Z</time>
        <sat>10</sat>
      </trkpt>
      <trkpt lat="42.281309" lon="-4.228835">
        <ele>801.4</ele>
        <time>2020-08-23T06:58:32Z</time>
        <sat>10</sat>
      </trkpt>
      <trkpt lat="42.281314" lon="-4.228953">
        <ele>801.4</ele>
        <time>2020-08-23T06:58:39Z</time>
        <sat>9</sat>
      </trkpt>
      <trkpt lat="42.281324" lon="-4.229067">
        <ele>801.2</ele>
        <time>2020-08-23T06:58:46Z</time>
        <sat>10</sat>
      </trkpt>
      <trkpt lat="42.281337" lon="-4.229185">
        <ele>801.1</ele>
        <time>2020-08-23T06:58:53Z</time>
        <sat>10</sat>
      </trkpt>
      <trkpt lat="42.281341" lon="-4.229295">
        <ele>801.1</ele>
        <time>2020-08-23T06:59:00Z</time>
        <sat>9</sat>
      </trkpt>
      <trkpt lat="42.281352" lon="-4.229403">
        <ele>800.9</ele>
        <time>2020-08-23T06:59:08Z</time>
        <sat>9</sat>
      </trkpt>
      <trkpt lat="42.281367" lon="-4.229521">
        <ele>800.8</ele>
        <time>2020-08-23T06:59:16Z</time>
        <sat>9</sat>
      </trkpt>
      <trkpt lat="42.281378" lon="-4.229631">
        <ele>800.6</ele>
        <time>2020-08-23T06:59:23Z</time>
        <sat>9</sat>
      </trkpt>
      <trkpt lat="42.281389" lon="-4.229752">
        <ele>800.6</ele>
        <time>2020-08-23T06:59:31Z</time>
        <sat>9</sat>
      </trkpt>
      <trkpt lat="42.281398" lon="-4.229877">
        <ele>800.4</ele>
        <time>2020-08-23T06:59:39Z</time>
        <sat>9</sat>
      </trkpt>
      <trkpt lat="42.281407" lon="-4.229992">
        <ele>800.0</ele>
        <time>2020-08-23T06:59:46Z</time>
        <sat>9</sat>
      </trkpt>
      <trkpt lat="42.281423" lon="-4.230107">
        <ele>799.8</ele>
        <time>2020-08-23T06:59:53Z</time>
        <sat>9</sat>
      </trkpt>
      <trkpt lat="42.281433" lon="-4.230216">
        <ele>799.6</ele>
        <time>2020-08-23T07:00:00Z</time>
        <sat>9</sat>
      </trkpt>
      <trkpt lat="42.281442" lon="-4.230326">
        <ele>799.5</ele>
        <time>2020-08-23T07:00:07Z</time>
        <sat>9</sat>
      </trkpt>
      <trkpt lat="42.281460" lon="-4.230438">
        <ele>799.3</ele>
        <time>2020-08-23T07:00:14Z</time>
        <sat>9</sat>
      </trkpt>
      <trkpt lat="42.281478" lon="-4.230563">
        <ele>799.0</ele>
        <time>2020-08-23T07:00:22Z</time>
        <sat>9</sat>
      </trkpt>
      <trkpt lat="42.281491" lon="-4.230686">
        <ele>798.8</ele>
        <time>2020-08-23T07:00:29Z</time>
        <sat>9</sat>
      </trkpt>
      <trkpt lat="42.281493" lon="-4.230811">
        <ele>798.6</ele>
        <time>2020-08-23T07:00:36Z</time>
        <sat>9</sat>
      </trkpt>
      <trkpt lat="42.281510" lon="-4.230918">
        <ele>798.4</ele>
        <time>2020-08-23T07:00:42Z</time>
        <sat>10</sat>
      </trkpt>
      <trkpt lat="42.281516" lon="-4.231039">
        <ele>798.3</ele>
        <time>2020-08-23T07:00:49Z</time>
        <sat>10</sat>
      </trkpt>
      <trkpt lat="42.281530" lon="-4.231158">
        <ele>798.3</ele>
        <time>2020-08-23T07:00:56Z</time>
        <sat>10</sat>
      </trkpt>
      <trkpt lat="42.281535" lon="-4.231280">
        <ele>798.3</ele>
        <time>2020-08-23T07:01:03Z</time>
        <sat>10</sat>
      </trkpt>
      <trkpt lat="42.281546" lon="-4.231399">
        <ele>798.3</ele>
        <time>2020-08-23T07:01:10Z</time>
        <sat>10</sat>
      </trkpt>
      <trkpt lat="42.281548" lon="-4.231515">
        <ele>798.1</ele>
        <time>2020-08-23T07:01:17Z</time>
        <sat>10</sat>
      </trkpt>
      <trkpt lat="42.281561" lon="-4.231635">
        <ele>798.1</ele>
        <time>2020-08-23T07:01:24Z</time>
        <sat>10</sat>
      </trkpt>
      <trkpt lat="42.281570" lon="-4.231759">
        <ele>798.0</ele>
        <time>2020-08-23T07:01:31Z</time>
        <sat>10</sat>
      </trkpt>
      <trkpt lat="42.281582" lon="-4.231868">
        <ele>797.9</ele>
        <time>2020-08-23T07:01:37Z</time>
        <sat>10</sat>
      </trkpt>
      <trkpt lat="42.281585" lon="-4.231987">
        <ele>797.8</ele>
        <time>2020-08-23T07:01:44Z</time>
        <sat>10</sat>
      </trkpt>
      <trkpt lat="42.281597" lon="-4.232096">
        <ele>797.8</ele>
        <time>2020-08-23T07:01:50Z</time>
        <sat>10</sat>
      </trkpt>
      <trkpt lat="42.281611" lon="-4.232220">
        <ele>797.7</ele>
        <time>2020-08-23T07:01:57Z</time>
        <sat>9</sat>
      </trkpt>
      <trkpt lat="42.281620" lon="-4.232330">
        <ele>797.4</ele>
        <time>2020-08-23T07:02:03Z</time>
        <sat>9</sat>
      </trkpt>
      <trkpt lat="42.281634" lon="-4.232455">
        <ele>797.3</ele>
        <time>2020-08-23T07:02:10Z</time>
        <sat>9</sat>
      </trkpt>
      <trkpt lat="42.281642" lon="-4.232567">
        <ele>797.2</ele>
        <time>2020-08-23T07:02:16Z</time>
        <sat>9</sat>
      </trkpt>
      <trkpt lat="42.281659" lon="-4.232676">
        <ele>797.1</ele>
        <time>2020-08-23T07:02:24Z</time>
        <sat>10</sat>
      </trkpt>
      <trkpt lat="42.281667" lon="-4.232802">
        <ele>797.0</ele>
        <time>2020-08-23T07:02:31Z</time>
        <sat>10</sat>
      </trkpt>
      <trkpt lat="42.281675" lon="-4.232915">
        <ele>796.9</ele>
        <time>2020-08-23T07:02:37Z</time>
        <sat>10</sat>
      </trkpt>
      <trkpt lat="42.281678" lon="-4.233040">
        <ele>796.8</ele>
        <time>2020-08-23T07:02:44Z</time>
        <sat>10</sat>
      </trkpt>
      <trkpt lat="42.281692" lon="-4.233149">
        <ele>796.8</ele>
        <time>2020-08-23T07:02:50Z</time>
        <sat>10</sat>
      </trkpt>
      <trkpt lat="42.281690" lon="-4.233269">
        <ele>796.9</ele>
        <time>2020-08-23T07:02:57Z</time>
        <sat>9</sat>
      </trkpt>
      <trkpt lat="42.281684" lon="-4.233383">
        <ele>796.9</ele>
        <time>2020-08-23T07:03:06Z</time>
        <sat>10</sat>
      </trkpt>
      <trkpt lat="42.281683" lon="-4.233505">
        <ele>796.9</ele>
        <time>2020-08-23T07:03:14Z</time>
        <sat>10</sat>
      </trkpt>
      <trkpt lat="42.281695" lon="-4.233619">
        <ele>797.2</ele>
        <time>2020-08-23T07:03:21Z</time>
        <sat>10</sat>
      </trkpt>
      <trkpt lat="42.281704" lon="-4.233738">
        <ele>797.3</ele>
        <time>2020-08-23T07:03:28Z</time>
        <sat>10</sat>
      </trkpt>
      <trkpt lat="42.281701" lon="-4.233856">
        <ele>797.3</ele>
        <time>2020-08-23T07:03:35Z</time>
        <sat>10</sat>
      </trkpt>
      <trkpt lat="42.281716" lon="-4.233973">
        <ele>797.4</ele>
        <time>2020-08-23T07:03:42Z</time>
        <sat>10</sat>
      </trkpt>
      <trkpt lat="42.281723" lon="-4.234083">
        <ele>797.3</ele>
        <time>2020-08-23T07:03:48Z</time>
        <sat>10</sat>
      </trkpt>
      <trkpt lat="42.281741" lon="-4.234203">
        <ele>797.1</ele>
        <time>2020-08-23T07:03:55Z</time>
        <sat>10</sat>
      </trkpt>
      <trkpt lat="42.281741" lon="-4.234325">
        <ele>796.7</ele>
        <time>2020-08-23T07:04:02Z</time>
        <sat>9</sat>
      </trkpt>
      <trkpt lat="42.281737" lon="-4.234435">
        <ele>796.6</ele>
        <time>2020-08-23T07:04:09Z</time>
        <sat>10</sat>
      </trkpt>
      <trkpt lat="42.281731" lon="-4.234553">
        <ele>796.2</ele>
        <time>2020-08-23T07:04:16Z</time>
        <sat>10</sat>
      </trkpt>
      <trkpt lat="42.281716" lon="-4.234667">
        <ele>795.9</ele>
        <time>2020-08-23T07:04:23Z</time>
        <sat>9</sat>
      </trkpt>
      <trkpt lat="42.281708" lon="-4.234786">
        <ele>795.3</ele>
        <time>2020-08-23T07:04:30Z</time>
        <sat>9</sat>
      </trkpt>
      <trkpt lat="42.281702" lon="-4.234905">
        <ele>794.7</ele>
        <time>2020-08-23T07:04:37Z</time>
        <sat>9</sat>
      </trkpt>
      <trkpt lat="42.281694" lon="-4.235027">
        <ele>794.2</ele>
        <time>2020-08-23T07:04:44Z</time>
        <sat>10</sat>
      </trkpt>
      <trkpt lat="42.281682" lon="-4.235154">
        <ele>793.7</ele>
        <time>2020-08-23T07:04:51Z</time>
        <sat>10</sat>
      </trkpt>
      <trkpt lat="42.281652" lon="-4.235260">
        <ele>792.8</ele>
        <time>2020-08-23T07:05:17Z</time>
        <sat>10</sat>
      </trkpt>
      <trkpt lat="42.281647" lon="-4.235373">
        <ele>792.6</ele>
        <time>2020-08-23T07:05:24Z</time>
        <sat>10</sat>
      </trkpt>
      <trkpt lat="42.281645" lon="-4.235487">
        <ele>792.4</ele>
        <time>2020-08-23T07:05:31Z</time>
        <sat>10</sat>
      </trkpt>
      <trkpt lat="42.281643" lon="-4.235603">
        <ele>792.1</ele>
        <time>2020-08-23T07:05:38Z</time>
        <sat>10</sat>
      </trkpt>
      <trkpt lat="42.281635" lon="-4.235720">
        <ele>791.9</ele>
        <time>2020-08-23T07:05:45Z</time>
        <sat>10</sat>
      </trkpt>
      <trkpt lat="42.281631" lon="-4.235835">
        <ele>791.4</ele>
        <time>2020-08-23T07:05:52Z</time>
        <sat>10</sat>
      </trkpt>
      <trkpt lat="42.281632" lon="-4.235958">
        <ele>791.2</ele>
        <time>2020-08-23T07:05:59Z</time>
        <sat>10</sat>
      </trkpt>
      <trkpt lat="42.281627" lon="-4.236079">
        <ele>791.0</ele>
        <time>2020-08-23T07:06:06Z</time>
        <sat>10</sat>
      </trkpt>
      <trkpt lat="42.281632" lon="-4.236201">
        <ele>790.9</ele>
        <time>2020-08-23T07:06:13Z</time>
        <sat>10</sat>
      </trkpt>
      <trkpt lat="42.281636" lon="-4.236319">
        <ele>790.5</ele>
        <time>2020-08-23T07:06:20Z</time>
        <sat>10</sat>
      </trkpt>
      <trkpt lat="42.281635" lon="-4.236434">
        <ele>790.1</ele>
        <time>2020-08-23T07:06:27Z</time>
        <sat>10</sat>
      </trkpt>
      <trkpt lat="42.281639" lon="-4.236550">
        <ele>789.8</ele>
        <time>2020-08-23T07:06:34Z</time>
        <sat>9</sat>
      </trkpt>
      <trkpt lat="42.281650" lon="-4.236670">
        <ele>789.4</ele>
        <time>2020-08-23T07:06:42Z</time>
        <sat>10</sat>
      </trkpt>
      <trkpt lat="42.281615" lon="-4.236774">
        <ele>789.2</ele>
        <time>2020-08-23T07:06:50Z</time>
        <sat>9</sat>
      </trkpt>
      <trkpt lat="42.281586" lon="-4.236892">
        <ele>789.0</ele>
        <time>2020-08-23T07:06:58Z</time>
        <sat>10</sat>
      </trkpt>
      <trkpt lat="42.281565" lon="-4.237004">
        <ele>788.9</ele>
        <time>2020-08-23T07:07:05Z</time>
        <sat>10</sat>
      </trkpt>
      <trkpt lat="42.281546" lon="-4.237116">
        <ele>788.4</ele>
        <time>2020-08-23T07:07:12Z</time>
        <sat>10</sat>
      </trkpt>
      <trkpt lat="42.281520" lon="-4.237224">
        <ele>788.1</ele>
        <time>2020-08-23T07:07:19Z</time>
        <sat>10</sat>
      </trkpt>
      <trkpt lat="42.281493" lon="-4.237331">
        <ele>787.7</ele>
        <time>2020-08-23T07:07:26Z</time>
        <sat>10</sat>
      </trkpt>
      <trkpt lat="42.281466" lon="-4.237440">
        <ele>787.5</ele>
        <time>2020-08-23T07:07:34Z</time>
        <sat>10</sat>
      </trkpt>
      <trkpt lat="42.281436" lon="-4.237544">
        <ele>787.1</ele>
        <time>2020-08-23T07:07:41Z</time>
        <sat>10</sat>
      </trkpt>
      <trkpt lat="42.281402" lon="-4.237649">
        <ele>786.7</ele>
        <time>2020-08-23T07:07:49Z</time>
        <sat>10</sat>
      </trkpt>
      <trkpt lat="42.281364" lon="-4.237745">
        <ele>786.2</ele>
        <time>2020-08-23T07:07:59Z</time>
        <sat>10</sat>
      </trkpt>
      <trkpt lat="42.281336" lon="-4.237861">
        <ele>785.6</ele>
        <time>2020-08-23T07:08:13Z</time>
        <sat>10</sat>
      </trkpt>
      <trkpt lat="42.281297" lon="-4.237965">
        <ele>785.2</ele>
        <time>2020-08-23T07:08:22Z</time>
        <sat>10</sat>
      </trkpt>
      <trkpt lat="42.281258" lon="-4.238067">
        <ele>784.9</ele>
        <time>2020-08-23T07:08:31Z</time>
        <sat>10</sat>
      </trkpt>
      <trkpt lat="42.281217" lon="-4.238168">
        <ele>784.5</ele>
        <time>2020-08-23T07:08:39Z</time>
        <sat>10</sat>
      </trkpt>
      <trkpt lat="42.281181" lon="-4.238269">
        <ele>784.1</ele>
        <time>2020-08-23T07:08:47Z</time>
        <sat>10</sat>
      </trkpt>
      <trkpt lat="42.281148" lon="-4.238380">
        <ele>783.7</ele>
        <time>2020-08-23T07:08:55Z</time>
        <sat>10</sat>
      </trkpt>
      <trkpt lat="42.281110" lon="-4.238480">
        <ele>783.4</ele>
        <time>2020-08-23T07:09:02Z</time>
        <sat>10</sat>
      </trkpt>
      <trkpt lat="42.281073" lon="-4.238578">
        <ele>783.2</ele>
        <time>2020-08-23T07:09:09Z</time>
        <sat>10</sat>
      </trkpt>
      <trkpt lat="42.281036" lon="-4.238680">
        <ele>782.7</ele>
        <time>2020-08-23T07:09:16Z</time>
        <sat>10</sat>
      </trkpt>
      <trkpt lat="42.281001" lon="-4.238781">
        <ele>782.3</ele>
        <time>2020-08-23T07:09:23Z</time>
        <sat>10</sat>
      </trkpt>
      <trkpt lat="42.280970" lon="-4.238893">
        <ele>782.0</ele>
        <time>2020-08-23T07:09:30Z</time>
        <sat>10</sat>
      </trkpt>
      <trkpt lat="42.280937" lon="-4.239005">
        <ele>781.5</ele>
        <time>2020-08-23T07:09:38Z</time>
        <sat>10</sat>
      </trkpt>
      <trkpt lat="42.280898" lon="-4.239112">
        <ele>781.1</ele>
        <time>2020-08-23T07:09:45Z</time>
        <sat>9</sat>
      </trkpt>
      <trkpt lat="42.280856" lon="-4.239211">
        <ele>780.6</ele>
        <time>2020-08-23T07:09:52Z</time>
        <sat>9</sat>
      </trkpt>
      <trkpt lat="42.280817" lon="-4.239308">
        <ele>780.3</ele>
        <time>2020-08-23T07:09:59Z</time>
        <sat>9</sat>
      </trkpt>
      <trkpt lat="42.280772" lon="-4.239414">
        <ele>780.1</ele>
        <time>2020-08-23T07:10:06Z</time>
        <sat>10</sat>
      </trkpt>
      <trkpt lat="42.280718" lon="-4.239509">
        <ele>780.0</ele>
        <time>2020-08-23T07:10:13Z</time>
        <sat>10</sat>
      </trkpt>
      <trkpt lat="42.280675" lon="-4.239611">
        <ele>779.8</ele>
        <time>2020-08-23T07:10:20Z</time>
        <sat>10</sat>
      </trkpt>
      <trkpt lat="42.280637" lon="-4.239714">
        <ele>779.7</ele>
        <time>2020-08-23T07:10:27Z</time>
        <sat>9</sat>
      </trkpt>
      <trkpt lat="42.280590" lon="-4.239815">
        <ele>779.6</ele>
        <time>2020-08-23T07:10:34Z</time>
        <sat>10</sat>
      </trkpt>
      <trkpt lat="42.280548" lon="-4.239919">
        <ele>779.5</ele>
        <time>2020-08-23T07:10:41Z</time>
        <sat>10</sat>
      </trkpt>
      <trkpt lat="42.280505" lon="-4.240023">
        <ele>779.4</ele>
        <time>2020-08-23T07:10:48Z</time>
        <sat>10</sat>
      </trkpt>
      <trkpt lat="42.280459" lon="-4.240118">
        <ele>779.2</ele>
        <time>2020-08-23T07:10:56Z</time>
        <sat>10</sat>
      </trkpt>
      <trkpt lat="42.280415" lon="-4.240209">
        <ele>779.1</ele>
        <time>2020-08-23T07:11:02Z</time>
        <sat>10</sat>
      </trkpt>
      <trkpt lat="42.280369" lon="-4.240305">
        <ele>779.0</ele>
        <time>2020-08-23T07:11:09Z</time>
        <sat>9</sat>
      </trkpt>
      <trkpt lat="42.280326" lon="-4.240406">
        <ele>779.1</ele>
        <time>2020-08-23T07:11:16Z</time>
        <sat>10</sat>
      </trkpt>
      <trkpt lat="42.280273" lon="-4.240505">
        <ele>779.1</ele>
        <time>2020-08-23T07:11:23Z</time>
        <sat>10</sat>
      </trkpt>
      <trkpt lat="42.280234" lon="-4.240604">
        <ele>779.1</ele>
        <time>2020-08-23T07:11:29Z</time>
        <sat>10</sat>
      </trkpt>
      <trkpt lat="42.280192" lon="-4.240698">
        <ele>779.1</ele>
        <time>2020-08-23T07:11:35Z</time>
        <sat>10</sat>
      </trkpt>
      <trkpt lat="42.280146" lon="-4.240809">
        <ele>778.9</ele>
        <time>2020-08-23T07:11:42Z</time>
        <sat>10</sat>
      </trkpt>
      <trkpt lat="42.280097" lon="-4.240921">
        <ele>778.7</ele>
        <time>2020-08-23T07:11:49Z</time>
        <sat>10</sat>
      </trkpt>
      <trkpt lat="42.280051" lon="-4.241031">
        <ele>778.4</ele>
        <time>2020-08-23T07:11:56Z</time>
        <sat>10</sat>
      </trkpt>
      <trkpt lat="42.280002" lon="-4.241141">
        <ele>778.1</ele>
        <time>2020-08-23T07:12:03Z</time>
        <sat>9</sat>
      </trkpt>
      <trkpt lat="42.279949" lon="-4.241245">
        <ele>777.6</ele>
        <time>2020-08-23T07:12:10Z</time>
        <sat>10</sat>
      </trkpt>
      <trkpt lat="42.279904" lon="-4.241339">
        <ele>777.1</ele>
        <time>2020-08-23T07:12:17Z</time>
        <sat>9</sat>
      </trkpt>
      <trkpt lat="42.279863" lon="-4.241435">
        <ele>776.5</ele>
        <time>2020-08-23T07:12:24Z</time>
        <sat>10</sat>
      </trkpt>
      <trkpt lat="42.279810" lon="-4.241526">
        <ele>775.7</ele>
        <time>2020-08-23T07:12:31Z</time>
        <sat>9</sat>
      </trkpt>
      <trkpt lat="42.279759" lon="-4.241628">
        <ele>774.5</ele>
        <time>2020-08-23T07:12:38Z</time>
        <sat>9</sat>
      </trkpt>
      <trkpt lat="42.279700" lon="-4.241722">
        <ele>773.6</ele>
        <time>2020-08-23T07:12:45Z</time>
        <sat>10</sat>
      </trkpt>
      <trkpt lat="42.279653" lon="-4.241812">
        <ele>772.7</ele>
        <time>2020-08-23T07:12:51Z</time>
        <sat>10</sat>
      </trkpt>
      <trkpt lat="42.279597" lon="-4.241903">
        <ele>771.8</ele>
        <time>2020-08-23T07:12:58Z</time>
        <sat>10</sat>
      </trkpt>
      <trkpt lat="42.279542" lon="-4.242005">
        <ele>770.9</ele>
        <time>2020-08-23T07:13:05Z</time>
        <sat>10</sat>
      </trkpt>
      <trkpt lat="42.279487" lon="-4.242097">
        <ele>770.1</ele>
        <time>2020-08-23T07:13:12Z</time>
        <sat>10</sat>
      </trkpt>
      <trkpt lat="42.279430" lon="-4.242188">
        <ele>769.4</ele>
        <time>2020-08-23T07:13:19Z</time>
        <sat>10</sat>
      </trkpt>
      <trkpt lat="42.279368" lon="-4.242275">
        <ele>768.8</ele>
        <time>2020-08-23T07:13:26Z</time>
        <sat>10</sat>
      </trkpt>
      <trkpt lat="42.279319" lon="-4.242364">
        <ele>766.9</ele>
        <time>2020-08-23T07:13:32Z</time>
        <sat>9</sat>
      </trkpt>
      <trkpt lat="42.279269" lon="-4.242458">
        <ele>762.6</ele>
        <time>2020-08-23T07:13:39Z</time>
        <sat>9</sat>
      </trkpt>
      <trkpt lat="42.279224" lon="-4.242565">
        <ele>768.1</ele>
        <time>2020-08-23T07:13:46Z</time>
        <sat>9</sat>
      </trkpt>
      <trkpt lat="42.279175" lon="-4.242652">
        <ele>767.5</ele>
        <time>2020-08-23T07:14:35Z</time>
        <sat>10</sat>
      </trkpt>
      <trkpt lat="42.279141" lon="-4.242753">
        <ele>767.3</ele>
        <time>2020-08-23T07:14:53Z</time>
        <sat>10</sat>
      </trkpt>
      <trkpt lat="42.279106" lon="-4.242855">
        <ele>767.3</ele>
        <time>2020-08-23T07:15:00Z</time>
        <sat>9</sat>
      </trkpt>
      <trkpt lat="42.279060" lon="-4.242958">
        <ele>767.2</ele>
        <time>2020-08-23T07:15:09Z</time>
        <sat>8</sat>
      </trkpt>
      <trkpt lat="42.279002" lon="-4.243104">
        <ele>767.4</ele>
        <time>2020-08-23T07:16:19Z</time>
        <sat>9</sat>
      </trkpt>
      <trkpt lat="42.278989" lon="-4.243221">
        <ele>767.2</ele>
        <time>2020-08-23T07:16:27Z</time>
        <sat>10</sat>
      </trkpt>
      <trkpt lat="42.278937" lon="-4.243307">
        <ele>766.9</ele>
        <time>2020-08-23T07:16:55Z</time>
        <sat>9</sat>
      </trkpt>
      <trkpt lat="42.278920" lon="-4.243418">
        <ele>766.6</ele>
        <time>2020-08-23T07:17:15Z</time>
        <sat>10</sat>
      </trkpt>
      <trkpt lat="42.278879" lon="-4.243523">
        <ele>767.0</ele>
        <time>2020-08-23T07:17:23Z</time>
        <sat>8</sat>
      </trkpt>
      <trkpt lat="42.278857" lon="-4.243638">
        <ele>767.3</ele>
        <time>2020-08-23T07:17:33Z</time>
        <sat>9</sat>
      </trkpt>
      <trkpt lat="42.278839" lon="-4.243746">
        <ele>767.5</ele>
        <time>2020-08-23T07:17:39Z</time>
        <sat>8</sat>
      </trkpt>
      <trkpt lat="42.278804" lon="-4.243845">
        <ele>767.6</ele>
        <time>2020-08-23T07:17:45Z</time>
        <sat>8</sat>
      </trkpt>
      <trkpt lat="42.278791" lon="-4.243958">
        <ele>767.8</ele>
        <time>2020-08-23T07:17:52Z</time>
        <sat>9</sat>
      </trkpt>
      <trkpt lat="42.278770" lon="-4.244070">
        <ele>767.8</ele>
        <time>2020-08-23T07:17:59Z</time>
        <sat>10</sat>
      </trkpt>
      <trkpt lat="42.278753" lon="-4.244193">
        <ele>767.9</ele>
        <time>2020-08-23T07:18:07Z</time>
        <sat>9</sat>
      </trkpt>
      <trkpt lat="42.278731" lon="-4.244307">
        <ele>767.9</ele>
        <time>2020-08-23T07:18:14Z</time>
        <sat>10</sat>
      </trkpt>
      <trkpt lat="42.278713" lon="-4.244420">
        <ele>768.0</ele>
        <time>2020-08-23T07:18:22Z</time>
        <sat>9</sat>
      </trkpt>
      <trkpt lat="42.278708" lon="-4.244541">
        <ele>767.9</ele>
        <time>2020-08-23T07:18:32Z</time>
        <sat>10</sat>
      </trkpt>
      <trkpt lat="42.278753" lon="-4.244668">
        <ele>768.1</ele>
        <time>2020-08-23T07:19:19Z</time>
        <sat>10</sat>
      </trkpt>
      <trkpt lat="42.278687" lon="-4.244743">
        <ele>768.5</ele>
        <time>2020-08-23T07:19:35Z</time>
        <sat>9</sat>
      </trkpt>
      <trkpt lat="42.278640" lon="-4.244837">
        <ele>768.9</ele>
        <time>2020-08-23T07:19:44Z</time>
        <sat>9</sat>
      </trkpt>
      <trkpt lat="42.278606" lon="-4.244939">
        <ele>769.3</ele>
        <time>2020-08-23T07:19:53Z</time>
        <sat>10</sat>
      </trkpt>
      <trkpt lat="42.278558" lon="-4.245032">
        <ele>770.2</ele>
        <time>2020-08-23T07:20:03Z</time>
        <sat>8</sat>
      </trkpt>
      <trkpt lat="42.278513" lon="-4.245130">
        <ele>770.5</ele>
        <time>2020-08-23T07:20:13Z</time>
        <sat>9</sat>
      </trkpt>
      <trkpt lat="42.278468" lon="-4.245238">
        <ele>771.4</ele>
        <time>2020-08-23T07:20:31Z</time>
        <sat>9</sat>
      </trkpt>
      <trkpt lat="42.278403" lon="-4.245315">
        <ele>771.9</ele>
        <time>2020-08-23T07:20:41Z</time>
        <sat>9</sat>
      </trkpt>
      <trkpt lat="42.278375" lon="-4.245421">
        <ele>772.2</ele>
        <time>2020-08-23T07:20:56Z</time>
        <sat>9</sat>
      </trkpt>
      <trkpt lat="42.278331" lon="-4.245522">
        <ele>772.4</ele>
        <time>2020-08-23T07:21:09Z</time>
        <sat>8</sat>
      </trkpt>
      <trkpt lat="42.278305" lon="-4.245635">
        <ele>772.7</ele>
        <time>2020-08-23T07:21:20Z</time>
        <sat>8</sat>
      </trkpt>
      <trkpt lat="42.278259" lon="-4.245736">
        <ele>772.9</ele>
        <time>2020-08-23T07:21:41Z</time>
        <sat>9</sat>
      </trkpt>
      <trkpt lat="42.278213" lon="-4.245826">
        <ele>772.8</ele>
        <time>2020-08-23T07:21:53Z</time>
        <sat>8</sat>
      </trkpt>
      <trkpt lat="42.278168" lon="-4.245930">
        <ele>772.6</ele>
        <time>2020-08-23T07:22:10Z</time>
        <sat>9</sat>
      </trkpt>
      <trkpt lat="42.278128" lon="-4.246030">
        <ele>772.1</ele>
        <time>2020-08-23T07:22:20Z</time>
        <sat>8</sat>
      </trkpt>
      <trkpt lat="42.278088" lon="-4.246127">
        <ele>771.7</ele>
        <time>2020-08-23T07:22:29Z</time>
        <sat>8</sat>
      </trkpt>
      <trkpt lat="42.278043" lon="-4.246233">
        <ele>771.1</ele>
        <time>2020-08-23T07:22:38Z</time>
        <sat>9</sat>
      </trkpt>
      <trkpt lat="42.278002" lon="-4.246326">
        <ele>770.6</ele>
        <time>2020-08-23T07:22:46Z</time>
        <sat>9</sat>
      </trkpt>
      <trkpt lat="42.277958" lon="-4.246432">
        <ele>769.9</ele>
        <time>2020-08-23T07:22:55Z</time>
        <sat>9</sat>
      </trkpt>
      <trkpt lat="42.277917" lon="-4.246530">
        <ele>769.3</ele>
        <time>2020-08-23T07:23:02Z</time>
        <sat>9</sat>
      </trkpt>
      <trkpt lat="42.277880" lon="-4.246637">
        <ele>768.6</ele>
        <time>2020-08-23T07:23:16Z</time>
        <sat>9</sat>
      </trkpt>
      <trkpt lat="42.277836" lon="-4.246735">
        <ele>768.3</ele>
        <time>2020-08-23T07:23:33Z</time>
        <sat>9</sat>
      </trkpt>
      <trkpt lat="42.277794" lon="-4.246834">
        <ele>768.2</ele>
        <time>2020-08-23T07:23:42Z</time>
        <sat>9</sat>
      </trkpt>
      <trkpt lat="42.277746" lon="-4.246934">
        <ele>767.7</ele>
        <time>2020-08-23T07:24:15Z</time>
        <sat>9</sat>
      </trkpt>
      <trkpt lat="42.277720" lon="-4.247038">
        <ele>767.6</ele>
        <time>2020-08-23T07:24:26Z</time>
        <sat>9</sat>
      </trkpt>
      <trkpt lat="42.277646" lon="-4.247097">
        <ele>767.3</ele>
        <time>2020-08-23T07:25:23Z</time>
        <sat>8</sat>
      </trkpt>
      <trkpt lat="42.277594" lon="-4.247281">
        <ele>767.5</ele>
        <time>2020-08-23T07:28:21Z</time>
        <sat>8</sat>
      </trkpt>
      <trkpt lat="42.277554" lon="-4.247390">
        <ele>767.3</ele>
        <time>2020-08-23T07:28:31Z</time>
        <sat>8</sat>
      </trkpt>
      <trkpt lat="42.277549" lon="-4.247501">
        <ele>767.4</ele>
        <time>2020-08-23T07:28:58Z</time>
        <sat>9</sat>
      </trkpt>
      <trkpt lat="42.277537" lon="-4.247610">
        <ele>764.4</ele>
        <time>2020-08-23T07:29:06Z</time>
        <sat>9</sat>
      </trkpt>
      <trkpt lat="42.277522" lon="-4.247725">
        <ele>766.3</ele>
        <time>2020-08-23T07:29:20Z</time>
        <sat>9</sat>
      </trkpt>
      <trkpt lat="42.277513" lon="-4.247846">
        <ele>772.1</ele>
        <time>2020-08-23T07:29:29Z</time>
        <sat>9</sat>
      </trkpt>
      <trkpt lat="42.277520" lon="-4.247963">
        <ele>769.4</ele>
        <time>2020-08-23T07:29:39Z</time>
        <sat>9</sat>
      </trkpt>
      <trkpt lat="42.277526" lon="-4.248087">
        <ele>768.2</ele>
        <time>2020-08-23T07:29:47Z</time>
        <sat>9</sat>
      </trkpt>
      <trkpt lat="42.277561" lon="-4.248192">
        <ele>767.4</ele>
        <time>2020-08-23T07:29:55Z</time>
        <sat>9</sat>
      </trkpt>
      <trkpt lat="42.277592" lon="-4.248305">
        <ele>767.1</ele>
        <time>2020-08-23T07:30:03Z</time>
        <sat>9</sat>
      </trkpt>
      <trkpt lat="42.277633" lon="-4.248404">
        <ele>766.9</ele>
        <time>2020-08-23T07:30:12Z</time>
        <sat>9</sat>
      </trkpt>
      <trkpt lat="42.277681" lon="-4.248497">
        <ele>766.8</ele>
        <time>2020-08-23T07:30:22Z</time>
        <sat>9</sat>
      </trkpt>
      <trkpt lat="42.277731" lon="-4.248587">
        <ele>766.8</ele>
        <time>2020-08-23T07:30:30Z</time>
        <sat>9</sat>
      </trkpt>
      <trkpt lat="42.277784" lon="-4.248673">
        <ele>766.9</ele>
        <time>2020-08-23T07:30:39Z</time>
        <sat>9</sat>
      </trkpt>
      <trkpt lat="42.277838" lon="-4.248755">
        <ele>766.8</ele>
        <time>2020-08-23T07:30:47Z</time>
        <sat>9</sat>
      </trkpt>
      <trkpt lat="42.277904" lon="-4.248839">
        <ele>766.7</ele>
        <time>2020-08-23T07:30:57Z</time>
        <sat>9</sat>
      </trkpt>
      <trkpt lat="42.277970" lon="-4.248905">
        <ele>766.8</ele>
        <time>2020-08-23T07:31:06Z</time>
        <sat>9</sat>
      </trkpt>
      <trkpt lat="42.278042" lon="-4.248974">
        <ele>766.8</ele>
        <time>2020-08-23T07:31:14Z</time>
        <sat>9</sat>
      </trkpt>
      <trkpt lat="42.278106" lon="-4.249056">
        <ele>766.7</ele>
        <time>2020-08-23T07:31:22Z</time>
        <sat>9</sat>
      </trkpt>
      <trkpt lat="42.278174" lon="-4.249121">
        <ele>766.6</ele>
        <time>2020-08-23T07:31:30Z</time>
        <sat>9</sat>
      </trkpt>
      <trkpt lat="42.278247" lon="-4.249190">
        <ele>766.6</ele>
        <time>2020-08-23T07:31:39Z</time>
        <sat>9</sat>
      </trkpt>
      <trkpt lat="42.278318" lon="-4.249259">
        <ele>766.5</ele>
        <time>2020-08-23T07:31:47Z</time>
        <sat>9</sat>
      </trkpt>
      <trkpt lat="42.278390" lon="-4.249325">
        <ele>766.3</ele>
        <time>2020-08-23T07:31:55Z</time>
        <sat>9</sat>
      </trkpt>
      <trkpt lat="42.278453" lon="-4.249394">
        <ele>766.2</ele>
        <time>2020-08-23T07:32:02Z</time>
        <sat>9</sat>
      </trkpt>
      <trkpt lat="42.278523" lon="-4.249452">
        <ele>766.1</ele>
        <time>2020-08-23T07:32:09Z</time>
        <sat>9</sat>
      </trkpt>
      <trkpt lat="42.278588" lon="-4.249520">
        <ele>766.1</ele>
        <time>2020-08-23T07:32:16Z</time>
        <sat>9</sat>
      </trkpt>
      <trkpt lat="42.278657" lon="-4.249580">
        <ele>766.1</ele>
        <time>2020-08-23T07:32:23Z</time>
        <sat>9</sat>
      </trkpt>
      <trkpt lat="42.278725" lon="-4.249647">
        <ele>766.2</ele>
        <time>2020-08-23T07:32:34Z</time>
        <sat>9</sat>
      </trkpt>
      <trkpt lat="42.278797" lon="-4.249714">
        <ele>766.3</ele>
        <time>2020-08-23T07:32:44Z</time>
        <sat>9</sat>
      </trkpt>
      <trkpt lat="42.278874" lon="-4.249773">
        <ele>766.4</ele>
        <time>2020-08-23T07:32:53Z</time>
        <sat>9</sat>
      </trkpt>
      <trkpt lat="42.278951" lon="-4.249820">
        <ele>766.4</ele>
        <time>2020-08-23T07:33:01Z</time>
        <sat>9</sat>
      </trkpt>
      <trkpt lat="42.279024" lon="-4.249877">
        <ele>766.2</ele>
        <time>2020-08-23T07:33:10Z</time>
        <sat>8</sat>
      </trkpt>
      <trkpt lat="42.279094" lon="-4.249933">
        <ele>766.1</ele>
        <time>2020-08-23T07:33:19Z</time>
        <sat>9</sat>
      </trkpt>
      <trkpt lat="42.279171" lon="-4.249981">
        <ele>766.3</ele>
        <time>2020-08-23T07:33:28Z</time>
        <sat>8</sat>
      </trkpt>
      <trkpt lat="42.279251" lon="-4.250024">
        <ele>766.3</ele>
        <time>2020-08-23T07:33:37Z</time>
        <sat>9</sat>
      </trkpt>
      <trkpt lat="42.279332" lon="-4.250066">
        <ele>766.2</ele>
        <time>2020-08-23T07:33:46Z</time>
        <sat>8</sat>
      </trkpt>
      <trkpt lat="42.279424" lon="-4.250058">
        <ele>766.2</ele>
        <time>2020-08-23T07:33:55Z</time>
        <sat>8</sat>
      </trkpt>
      <trkpt lat="42.279510" lon="-4.250093">
        <ele>766.1</ele>
        <time>2020-08-23T07:34:03Z</time>
        <sat>9</sat>
      </trkpt>
      <trkpt lat="42.279596" lon="-4.250111">
        <ele>766.1</ele>
        <time>2020-08-23T07:34:11Z</time>
        <sat>9</sat>
      </trkpt>
      <trkpt lat="42.279685" lon="-4.250125">
        <ele>765.9</ele>
        <time>2020-08-23T07:34:21Z</time>
        <sat>9</sat>
      </trkpt>
      <trkpt lat="42.279773" lon="-4.250125">
        <ele>765.9</ele>
        <time>2020-08-23T07:34:29Z</time>
        <sat>9</sat>
      </trkpt>
      <trkpt lat="42.279866" lon="-4.250111">
        <ele>766.0</ele>
        <time>2020-08-23T07:34:40Z</time>
        <sat>9</sat>
      </trkpt>
      <trkpt lat="42.279950" lon="-4.250100">
        <ele>765.4</ele>
        <time>2020-08-23T07:34:47Z</time>
        <sat>9</sat>
      </trkpt>
      <trkpt lat="42.280032" lon="-4.250088">
        <ele>766.3</ele>
        <time>2020-08-23T07:34:54Z</time>
        <sat>9</sat>
      </trkpt>
      <trkpt lat="42.280119" lon="-4.250093">
        <ele>766.1</ele>
        <time>2020-08-23T07:35:06Z</time>
        <sat>9</sat>
      </trkpt>
      <trkpt lat="42.280201" lon="-4.250086">
        <ele>765.9</ele>
        <time>2020-08-23T07:35:24Z</time>
        <sat>8</sat>
      </trkpt>
      <trkpt lat="42.280291" lon="-4.250093">
        <ele>766.1</ele>
        <time>2020-08-23T07:35:32Z</time>
        <sat>8</sat>
      </trkpt>
      <trkpt lat="42.280378" lon="-4.250088">
        <ele>766.2</ele>
        <time>2020-08-23T07:35:40Z</time>
        <sat>9</sat>
      </trkpt>
      <trkpt lat="42.280465" lon="-4.250091">
        <ele>766.3</ele>
        <time>2020-08-23T07:35:48Z</time>
        <sat>8</sat>
      </trkpt>
      <trkpt lat="42.280546" lon="-4.250099">
        <ele>766.3</ele>
        <time>2020-08-23T07:35:55Z</time>
        <sat>8</sat>
      </trkpt>
      <trkpt lat="42.280638" lon="-4.250112">
        <ele>766.3</ele>
        <time>2020-08-23T07:36:03Z</time>
        <sat>8</sat>
      </trkpt>
      <trkpt lat="42.280720" lon="-4.250126">
        <ele>766.3</ele>
        <time>2020-08-23T07:36:11Z</time>
        <sat>8</sat>
      </trkpt>
      <trkpt lat="42.280809" lon="-4.250140">
        <ele>766.3</ele>
        <time>2020-08-23T07:36:19Z</time>
        <sat>9</sat>
      </trkpt>
      <trkpt lat="42.280889" lon="-4.250164">
        <ele>766.3</ele>
        <time>2020-08-23T07:36:27Z</time>
        <sat>9</sat>
      </trkpt>
      <trkpt lat="42.280973" lon="-4.250175">
        <ele>766.4</ele>
        <time>2020-08-23T07:36:35Z</time>
        <sat>9</sat>
      </trkpt>
      <trkpt lat="42.281056" lon="-4.250199">
        <ele>766.4</ele>
        <time>2020-08-23T07:36:42Z</time>
        <sat>9</sat>
      </trkpt>
      <trkpt lat="42.281142" lon="-4.250221">
        <ele>766.4</ele>
        <time>2020-08-23T07:36:50Z</time>
        <sat>8</sat>
      </trkpt>
      <trkpt lat="42.281231" lon="-4.250247">
        <ele>766.5</ele>
        <time>2020-08-23T07:36:59Z</time>
        <sat>9</sat>
      </trkpt>
      <trkpt lat="42.281318" lon="-4.250262">
        <ele>766.4</ele>
        <time>2020-08-23T07:37:22Z</time>
        <sat>9</sat>
      </trkpt>
      <trkpt lat="42.281402" lon="-4.250296">
        <ele>766.4</ele>
        <time>2020-08-23T07:37:31Z</time>
        <sat>9</sat>
      </trkpt>
      <trkpt lat="42.281486" lon="-4.250325">
        <ele>766.6</ele>
        <time>2020-08-23T07:37:39Z</time>
        <sat>9</sat>
      </trkpt>
      <trkpt lat="42.281571" lon="-4.250348">
        <ele>766.6</ele>
        <time>2020-08-23T07:37:47Z</time>
        <sat>9</sat>
      </trkpt>
      <trkpt lat="42.281651" lon="-4.250379">
        <ele>766.5</ele>
        <time>2020-08-23T07:37:55Z</time>
        <sat>9</sat>
      </trkpt>
      <trkpt lat="42.281734" lon="-4.250412">
        <ele>766.4</ele>
        <time>2020-08-23T07:38:04Z</time>
        <sat>9</sat>
      </trkpt>
      <trkpt lat="42.281815" lon="-4.250439">
        <ele>766.2</ele>
        <time>2020-08-23T07:38:12Z</time>
        <sat>9</sat>
      </trkpt>
      <trkpt lat="42.281898" lon="-4.250475">
        <ele>766.1</ele>
        <time>2020-08-23T07:38:20Z</time>
        <sat>9</sat>
      </trkpt>
      <trkpt lat="42.281971" lon="-4.250531">
        <ele>766.0</ele>
        <time>2020-08-23T07:38:28Z</time>
        <sat>9</sat>
      </trkpt>
      <trkpt lat="42.282045" lon="-4.250592">
        <ele>766.0</ele>
        <time>2020-08-23T07:38:36Z</time>
        <sat>9</sat>
      </trkpt>
      <trkpt lat="42.282117" lon="-4.250663">
        <ele>766.0</ele>
        <time>2020-08-23T07:38:44Z</time>
        <sat>9</sat>
      </trkpt>
      <trkpt lat="42.282187" lon="-4.250740">
        <ele>766.2</ele>
        <time>2020-08-23T07:38:55Z</time>
        <sat>8</sat>
      </trkpt>
      <trkpt lat="42.282242" lon="-4.250821">
        <ele>766.3</ele>
        <time>2020-08-23T07:39:05Z</time>
        <sat>9</sat>
      </trkpt>
      <trkpt lat="42.282299" lon="-4.250912">
        <ele>766.4</ele>
        <time>2020-08-23T07:39:14Z</time>
        <sat>9</sat>
      </trkpt>
      <trkpt lat="42.282348" lon="-4.251000">
        <ele>766.4</ele>
        <time>2020-08-23T07:39:22Z</time>
        <sat>9</sat>
      </trkpt>
      <trkpt lat="42.282423" lon="-4.251058">
        <ele>766.4</ele>
        <time>2020-08-23T07:39:55Z</time>
        <sat>10</sat>
      </trkpt>
      <trkpt lat="42.282488" lon="-4.251139">
        <ele>766.3</ele>
        <time>2020-08-23T07:40:10Z</time>
        <sat>9</sat>
      </trkpt>
      <trkpt lat="42.282559" lon="-4.251210">
        <ele>766.2</ele>
        <time>2020-08-23T07:40:19Z</time>
        <sat>9</sat>
      </trkpt>
      <trkpt lat="42.282635" lon="-4.251268">
        <ele>766.0</ele>
        <time>2020-08-23T07:40:29Z</time>
        <sat>9</sat>
      </trkpt>
      <trkpt lat="42.282706" lon="-4.251324">
        <ele>765.9</ele>
        <time>2020-08-23T07:40:40Z</time>
        <sat>9</sat>
      </trkpt>
      <trkpt lat="42.282776" lon="-4.251390">
        <ele>765.8</ele>
        <time>2020-08-23T07:40:48Z</time>
        <sat>10</sat>
      </trkpt>
      <trkpt lat="42.282848" lon="-4.251466">
        <ele>765.4</ele>
        <time>2020-08-23T07:40:57Z</time>
        <sat>9</sat>
      </trkpt>
      <trkpt lat="42.282912" lon="-4.251548">
        <ele>765.5</ele>
        <time>2020-08-23T07:41:06Z</time>
        <sat>9</sat>
      </trkpt>
      <trkpt lat="42.282971" lon="-4.251630">
        <ele>765.6</ele>
        <time>2020-08-23T07:41:14Z</time>
        <sat>10</sat>
      </trkpt>
      <trkpt lat="42.283028" lon="-4.251708">
        <ele>765.6</ele>
        <time>2020-08-23T07:41:22Z</time>
        <sat>9</sat>
      </trkpt>
      <trkpt lat="42.283086" lon="-4.251791">
        <ele>765.5</ele>
        <time>2020-08-23T07:41:30Z</time>
        <sat>10</sat>
      </trkpt>
      <trkpt lat="42.283151" lon="-4.251875">
        <ele>765.6</ele>
        <time>2020-08-23T07:41:39Z</time>
        <sat>10</sat>
      </trkpt>
      <trkpt lat="42.283208" lon="-4.251954">
        <ele>765.7</ele>
        <time>2020-08-23T07:41:47Z</time>
        <sat>9</sat>
      </trkpt>
      <trkpt lat="42.283270" lon="-4.252028">
        <ele>765.7</ele>
        <time>2020-08-23T07:41:55Z</time>
        <sat>10</sat>
      </trkpt>
      <trkpt lat="42.283328" lon="-4.252108">
        <ele>765.6</ele>
        <time>2020-08-23T07:42:03Z</time>
        <sat>9</sat>
      </trkpt>
      <trkpt lat="42.283390" lon="-4.252189">
        <ele>765.6</ele>
        <time>2020-08-23T07:42:11Z</time>
        <sat>9</sat>
      </trkpt>
      <trkpt lat="42.283456" lon="-4.252271">
        <ele>765.7</ele>
        <time>2020-08-23T07:42:19Z</time>
        <sat>9</sat>
      </trkpt>
      <trkpt lat="42.283522" lon="-4.252354">
        <ele>765.8</ele>
        <time>2020-08-23T07:42:28Z</time>
        <sat>9</sat>
      </trkpt>
      <trkpt lat="42.283583" lon="-4.252433">
        <ele>765.6</ele>
        <time>2020-08-23T07:42:36Z</time>
        <sat>9</sat>
      </trkpt>
      <trkpt lat="42.283650" lon="-4.252512">
        <ele>765.6</ele>
        <time>2020-08-23T07:42:44Z</time>
        <sat>9</sat>
      </trkpt>
      <trkpt lat="42.283720" lon="-4.252582">
        <ele>765.6</ele>
        <time>2020-08-23T07:42:52Z</time>
        <sat>9</sat>
      </trkpt>
      <trkpt lat="42.283794" lon="-4.252648">
        <ele>765.4</ele>
        <time>2020-08-23T07:43:00Z</time>
        <sat>10</sat>
      </trkpt>
      <trkpt lat="42.283867" lon="-4.252699">
        <ele>765.5</ele>
        <time>2020-08-23T07:43:07Z</time>
        <sat>10</sat>
      </trkpt>
      <trkpt lat="42.283943" lon="-4.252744">
        <ele>765.5</ele>
        <time>2020-08-23T07:43:14Z</time>
        <sat>10</sat>
      </trkpt>
      <trkpt lat="42.284021" lon="-4.252796">
        <ele>765.5</ele>
        <time>2020-08-23T07:43:22Z</time>
        <sat>10</sat>
      </trkpt>
      <trkpt lat="42.284097" lon="-4.252843">
        <ele>765.5</ele>
        <time>2020-08-23T07:43:29Z</time>
        <sat>10</sat>
      </trkpt>
      <trkpt lat="42.284172" lon="-4.252893">
        <ele>765.8</ele>
        <time>2020-08-23T07:43:36Z</time>
        <sat>10</sat>
      </trkpt>
      <trkpt lat="42.284254" lon="-4.252951">
        <ele>766.0</ele>
        <time>2020-08-23T07:43:44Z</time>
        <sat>9</sat>
      </trkpt>
      <trkpt lat="42.284338" lon="-4.253001">
        <ele>766.3</ele>
        <time>2020-08-23T07:43:52Z</time>
        <sat>9</sat>
      </trkpt>
      <trkpt lat="42.284411" lon="-4.253052">
        <ele>766.5</ele>
        <time>2020-08-23T07:43:59Z</time>
        <sat>9</sat>
      </trkpt>
      <trkpt lat="42.284488" lon="-4.253104">
        <ele>766.5</ele>
        <time>2020-08-23T07:44:06Z</time>
        <sat>9</sat>
      </trkpt>
      <trkpt lat="42.284566" lon="-4.253163">
        <ele>766.6</ele>
        <time>2020-08-23T07:44:13Z</time>
        <sat>9</sat>
      </trkpt>
      <trkpt lat="42.284639" lon="-4.253221">
        <ele>766.6</ele>
        <time>2020-08-23T07:44:20Z</time>
        <sat>9</sat>
      </trkpt>
      <trkpt lat="42.284709" lon="-4.253280">
        <ele>766.7</ele>
        <time>2020-08-23T07:44:27Z</time>
        <sat>9</sat>
      </trkpt>
      <trkpt lat="42.284779" lon="-4.253362">
        <ele>766.9</ele>
        <time>2020-08-23T07:44:36Z</time>
        <sat>9</sat>
      </trkpt>
      <trkpt lat="42.284842" lon="-4.253433">
        <ele>767.1</ele>
        <time>2020-08-23T07:44:43Z</time>
        <sat>9</sat>
      </trkpt>
      <trkpt lat="42.284904" lon="-4.253512">
        <ele>767.1</ele>
        <time>2020-08-23T07:44:50Z</time>
        <sat>9</sat>
      </trkpt>
      <trkpt lat="42.284971" lon="-4.253590">
        <ele>767.0</ele>
        <time>2020-08-23T07:44:57Z</time>
        <sat>9</sat>
      </trkpt>
      <trkpt lat="42.285028" lon="-4.253682">
        <ele>766.9</ele>
        <time>2020-08-23T07:45:04Z</time>
        <sat>8</sat>
      </trkpt>
      <trkpt lat="42.285083" lon="-4.253777">
        <ele>767.1</ele>
        <time>2020-08-23T07:45:11Z</time>
        <sat>8</sat>
      </trkpt>
      <trkpt lat="42.285135" lon="-4.253872">
        <ele>767.3</ele>
        <time>2020-08-23T07:45:18Z</time>
        <sat>8</sat>
      </trkpt>
      <trkpt lat="42.285184" lon="-4.253977">
        <ele>767.3</ele>
        <time>2020-08-23T07:45:26Z</time>
        <sat>9</sat>
      </trkpt>
      <trkpt lat="42.285235" lon="-4.254073">
        <ele>767.3</ele>
        <time>2020-08-23T07:45:34Z</time>
        <sat>9</sat>
      </trkpt>
      <trkpt lat="42.285294" lon="-4.254157">
        <ele>767.2</ele>
        <time>2020-08-23T07:45:42Z</time>
        <sat>9</sat>
      </trkpt>
      <trkpt lat="42.285352" lon="-4.254241">
        <ele>767.1</ele>
        <time>2020-08-23T07:45:50Z</time>
        <sat>9</sat>
      </trkpt>
      <trkpt lat="42.285409" lon="-4.254326">
        <ele>767.2</ele>
        <time>2020-08-23T07:46:21Z</time>
        <sat>9</sat>
      </trkpt>
      <trkpt lat="42.285468" lon="-4.254406">
        <ele>767.2</ele>
        <time>2020-08-23T07:46:29Z</time>
        <sat>9</sat>
      </trkpt>
      <trkpt lat="42.285529" lon="-4.254483">
        <ele>767.2</ele>
        <time>2020-08-23T07:46:38Z</time>
        <sat>9</sat>
      </trkpt>
      <trkpt lat="42.285587" lon="-4.254561">
        <ele>767.2</ele>
        <time>2020-08-23T07:46:46Z</time>
        <sat>9</sat>
      </trkpt>
      <trkpt lat="42.285657" lon="-4.254635">
        <ele>767.2</ele>
        <time>2020-08-23T07:46:55Z</time>
        <sat>9</sat>
      </trkpt>
      <trkpt lat="42.285718" lon="-4.254708">
        <ele>766.0</ele>
        <time>2020-08-23T07:47:02Z</time>
        <sat>9</sat>
      </trkpt>
      <trkpt lat="42.285791" lon="-4.254778">
        <ele>767.1</ele>
        <time>2020-08-23T07:47:10Z</time>
        <sat>9</sat>
      </trkpt>
      <trkpt lat="42.285858" lon="-4.254848">
        <ele>767.4</ele>
        <time>2020-08-23T07:47:18Z</time>
        <sat>9</sat>
      </trkpt>
      <trkpt lat="42.285924" lon="-4.254919">
        <ele>767.0</ele>
        <time>2020-08-23T07:47:26Z</time>
        <sat>9</sat>
      </trkpt>
      <trkpt lat="42.285985" lon="-4.254996">
        <ele>766.7</ele>
        <time>2020-08-23T07:47:34Z</time>
        <sat>9</sat>
      </trkpt>
      <trkpt lat="42.286042" lon="-4.255075">
        <ele>766.4</ele>
        <time>2020-08-23T07:47:42Z</time>
        <sat>9</sat>
      </trkpt>
      <trkpt lat="42.286108" lon="-4.255154">
        <ele>766.2</ele>
        <time>2020-08-23T07:47:51Z</time>
        <sat>9</sat>
      </trkpt>
      <trkpt lat="42.286165" lon="-4.255234">
        <ele>766.3</ele>
        <time>2020-08-23T07:47:59Z</time>
        <sat>9</sat>
      </trkpt>
      <trkpt lat="42.286223" lon="-4.255327">
        <ele>766.4</ele>
        <time>2020-08-23T07:48:08Z</time>
        <sat>9</sat>
      </trkpt>
      <trkpt lat="42.286280" lon="-4.255410">
        <ele>755.8</ele>
        <time>2020-08-23T07:48:17Z</time>
        <sat>8</sat>
      </trkpt>
      <trkpt lat="42.286339" lon="-4.255486">
        <ele>767.2</ele>
        <time>2020-08-23T07:48:28Z</time>
        <sat>8</sat>
      </trkpt>
      <trkpt lat="42.286390" lon="-4.255576">
        <ele>769.9</ele>
        <time>2020-08-23T07:48:41Z</time>
        <sat>8</sat>
      </trkpt>
      <trkpt lat="42.286439" lon="-4.255668">
        <ele>769.5</ele>
        <time>2020-08-23T07:48:56Z</time>
        <sat>8</sat>
      </trkpt>
      <trkpt lat="42.286447" lon="-4.255734">
        <ele>769.2</ele>
        <time>2020-08-23T08:37:19Z</time>
        <sat>10</sat>
      </trkpt>
      <trkpt lat="42.286489" lon="-4.255831">
        <ele>769.3</ele>
        <time>2020-08-23T08:37:27Z</time>
        <sat>9</sat>
      </trkpt>
      <trkpt lat="42.286519" lon="-4.255950">
        <ele>769.3</ele>
        <time>2020-08-23T08:37:34Z</time>
        <sat>10</sat>
      </trkpt>
      <trkpt lat="42.286584" lon="-4.256034">
        <ele>769.8</ele>
        <time>2020-08-23T08:37:42Z</time>
        <sat>10</sat>
      </trkpt>
      <trkpt lat="42.286661" lon="-4.256079">
        <ele>769.7</ele>
        <time>2020-08-23T08:37:49Z</time>
        <sat>10</sat>
      </trkpt>
      <trkpt lat="42.286741" lon="-4.256136">
        <ele>769.9</ele>
        <time>2020-08-23T08:37:57Z</time>
        <sat>10</sat>
      </trkpt>
      <trkpt lat="42.286807" lon="-4.256201">
        <ele>770.0</ele>
        <time>2020-08-23T08:38:03Z</time>
        <sat>9</sat>
      </trkpt>
      <trkpt lat="42.286879" lon="-4.256265">
        <ele>770.1</ele>
        <time>2020-08-23T08:38:10Z</time>
        <sat>10</sat>
      </trkpt>
      <trkpt lat="42.286952" lon="-4.256329">
        <ele>770.1</ele>
        <time>2020-08-23T08:38:18Z</time>
        <sat>10</sat>
      </trkpt>
      <trkpt lat="42.287030" lon="-4.256382">
        <ele>770.1</ele>
        <time>2020-08-23T08:38:26Z</time>
        <sat>10</sat>
      </trkpt>
      <trkpt lat="42.287101" lon="-4.256460">
        <ele>770.1</ele>
        <time>2020-08-23T08:38:34Z</time>
        <sat>9</sat>
      </trkpt>
      <trkpt lat="42.287127" lon="-4.256578">
        <ele>770.1</ele>
        <time>2020-08-23T08:38:41Z</time>
        <sat>10</sat>
      </trkpt>
      <trkpt lat="42.287113" lon="-4.256689">
        <ele>770.1</ele>
        <time>2020-08-23T08:38:48Z</time>
        <sat>10</sat>
      </trkpt>
      <trkpt lat="42.287082" lon="-4.256790">
        <ele>770.1</ele>
        <time>2020-08-23T08:38:55Z</time>
        <sat>10</sat>
      </trkpt>
      <trkpt lat="42.287055" lon="-4.256907">
        <ele>770.1</ele>
        <time>2020-08-23T08:39:03Z</time>
        <sat>10</sat>
      </trkpt>
      <trkpt lat="42.287044" lon="-4.257018">
        <ele>770.2</ele>
        <time>2020-08-23T08:39:10Z</time>
        <sat>10</sat>
      </trkpt>
      <trkpt lat="42.287058" lon="-4.257136">
        <ele>770.2</ele>
        <time>2020-08-23T08:39:18Z</time>
        <sat>10</sat>
      </trkpt>
      <trkpt lat="42.287080" lon="-4.257254">
        <ele>770.2</ele>
        <time>2020-08-23T08:39:26Z</time>
        <sat>9</sat>
      </trkpt>
      <trkpt lat="42.287061" lon="-4.257388">
        <ele>770.2</ele>
        <time>2020-08-23T08:39:34Z</time>
        <sat>10</sat>
      </trkpt>
      <trkpt lat="42.287098" lon="-4.257493">
        <ele>770.1</ele>
        <time>2020-08-23T08:39:41Z</time>
        <sat>9</sat>
      </trkpt>
      <trkpt lat="42.287152" lon="-4.257588">
        <ele>770.2</ele>
        <time>2020-08-23T08:39:48Z</time>
        <sat>10</sat>
      </trkpt>
      <trkpt lat="42.287193" lon="-4.257690">
        <ele>770.2</ele>
        <time>2020-08-23T08:40:03Z</time>
        <sat>10</sat>
      </trkpt>
      <trkpt lat="42.287221" lon="-4.257795">
        <ele>770.2</ele>
        <time>2020-08-23T08:40:10Z</time>
        <sat>10</sat>
      </trkpt>
      <trkpt lat="42.287264" lon="-4.257899">
        <ele>770.3</ele>
        <time>2020-08-23T08:40:18Z</time>
        <sat>10</sat>
      </trkpt>
      <trkpt lat="42.287272" lon="-4.258017">
        <ele>770.4</ele>
        <time>2020-08-23T08:40:46Z</time>
        <sat>10</sat>
      </trkpt>
      <trkpt lat="42.287269" lon="-4.258135">
        <ele>770.5</ele>
        <time>2020-08-23T08:40:55Z</time>
        <sat>9</sat>
      </trkpt>
      <trkpt lat="42.287276" lon="-4.258245">
        <ele>770.5</ele>
        <time>2020-08-23T08:41:02Z</time>
        <sat>10</sat>
      </trkpt>
      <trkpt lat="42.287272" lon="-4.258366">
        <ele>770.7</ele>
        <time>2020-08-23T08:41:09Z</time>
        <sat>10</sat>
      </trkpt>
      <trkpt lat="42.287271" lon="-4.258477">
        <ele>770.6</ele>
        <time>2020-08-23T08:41:16Z</time>
        <sat>10</sat>
      </trkpt>
      <trkpt lat="42.287266" lon="-4.258600">
        <ele>770.6</ele>
        <time>2020-08-23T08:41:24Z</time>
        <sat>10</sat>
      </trkpt>
      <trkpt lat="42.287267" lon="-4.258712">
        <ele>770.6</ele>
        <time>2020-08-23T08:41:31Z</time>
        <sat>10</sat>
      </trkpt>
      <trkpt lat="42.287271" lon="-4.258834">
        <ele>770.8</ele>
        <time>2020-08-23T08:41:38Z</time>
        <sat>10</sat>
      </trkpt>
      <trkpt lat="42.287268" lon="-4.258953">
        <ele>770.8</ele>
        <time>2020-08-23T08:41:45Z</time>
        <sat>10</sat>
      </trkpt>
      <trkpt lat="42.287266" lon="-4.259063">
        <ele>770.7</ele>
        <time>2020-08-23T08:41:51Z</time>
        <sat>10</sat>
      </trkpt>
      <trkpt lat="42.287261" lon="-4.259183">
        <ele>770.9</ele>
        <time>2020-08-23T08:41:58Z</time>
        <sat>10</sat>
      </trkpt>
      <trkpt lat="42.287262" lon="-4.259299">
        <ele>771.0</ele>
        <time>2020-08-23T08:42:05Z</time>
        <sat>10</sat>
      </trkpt>
      <trkpt lat="42.287266" lon="-4.259412">
        <ele>771.1</ele>
        <time>2020-08-23T08:42:13Z</time>
        <sat>10</sat>
      </trkpt>
      <trkpt lat="42.287255" lon="-4.259534">
        <ele>771.1</ele>
        <time>2020-08-23T08:42:21Z</time>
        <sat>10</sat>
      </trkpt>
      <trkpt lat="42.287241" lon="-4.259659">
        <ele>771.2</ele>
        <time>2020-08-23T08:42:28Z</time>
        <sat>10</sat>
      </trkpt>
      <trkpt lat="42.287217" lon="-4.259777">
        <ele>771.2</ele>
        <time>2020-08-23T08:42:35Z</time>
        <sat>10</sat>
      </trkpt>
      <trkpt lat="42.287207" lon="-4.259892">
        <ele>771.0</ele>
        <time>2020-08-23T08:42:42Z</time>
        <sat>10</sat>
      </trkpt>
      <trkpt lat="42.287196" lon="-4.260002">
        <ele>770.8</ele>
        <time>2020-08-23T08:42:49Z</time>
        <sat>10</sat>
      </trkpt>
      <trkpt lat="42.287181" lon="-4.260117">
        <ele>770.5</ele>
        <time>2020-08-23T08:42:58Z</time>
        <sat>10</sat>
      </trkpt>
      <trkpt lat="42.287159" lon="-4.260238">
        <ele>770.3</ele>
        <time>2020-08-23T08:43:06Z</time>
        <sat>9</sat>
      </trkpt>
      <trkpt lat="42.287138" lon="-4.260351">
        <ele>770.2</ele>
        <time>2020-08-23T08:43:13Z</time>
        <sat>10</sat>
      </trkpt>
      <trkpt lat="42.287142" lon="-4.260469">
        <ele>770.2</ele>
        <time>2020-08-23T08:43:20Z</time>
        <sat>10</sat>
      </trkpt>
      <trkpt lat="42.287138" lon="-4.260593">
        <ele>770.2</ele>
        <time>2020-08-23T08:43:27Z</time>
        <sat>10</sat>
      </trkpt>
      <trkpt lat="42.287126" lon="-4.260709">
        <ele>770.2</ele>
        <time>2020-08-23T08:43:34Z</time>
        <sat>10</sat>
      </trkpt>
      <trkpt lat="42.287118" lon="-4.260831">
        <ele>770.3</ele>
        <time>2020-08-23T08:43:43Z</time>
        <sat>10</sat>
      </trkpt>
      <trkpt lat="42.287108" lon="-4.260940">
        <ele>770.2</ele>
        <time>2020-08-23T08:43:49Z</time>
        <sat>10</sat>
      </trkpt>
      <trkpt lat="42.287098" lon="-4.261060">
        <ele>770.2</ele>
        <time>2020-08-23T08:43:56Z</time>
        <sat>10</sat>
      </trkpt>
      <trkpt lat="42.287091" lon="-4.261178">
        <ele>770.2</ele>
        <time>2020-08-23T08:44:03Z</time>
        <sat>10</sat>
      </trkpt>
      <trkpt lat="42.287077" lon="-4.261292">
        <ele>770.1</ele>
        <time>2020-08-23T08:44:10Z</time>
        <sat>10</sat>
      </trkpt>
      <trkpt lat="42.287068" lon="-4.261409">
        <ele>770.1</ele>
        <time>2020-08-23T08:44:18Z</time>
        <sat>10</sat>
      </trkpt>
      <trkpt lat="42.287054" lon="-4.261518">
        <ele>770.2</ele>
        <time>2020-08-23T08:44:25Z</time>
        <sat>10</sat>
      </trkpt>
      <trkpt lat="42.287027" lon="-4.261629">
        <ele>770.2</ele>
        <time>2020-08-23T08:44:32Z</time>
        <sat>10</sat>
      </trkpt>
      <trkpt lat="42.286986" lon="-4.261733">
        <ele>770.2</ele>
        <time>2020-08-23T08:44:39Z</time>
        <sat>10</sat>
      </trkpt>
      <trkpt lat="42.286942" lon="-4.261833">
        <ele>770.2</ele>
        <time>2020-08-23T08:44:46Z</time>
        <sat>10</sat>
      </trkpt>
      <trkpt lat="42.286895" lon="-4.261929">
        <ele>770.1</ele>
        <time>2020-08-23T08:44:53Z</time>
        <sat>10</sat>
      </trkpt>
      <trkpt lat="42.286844" lon="-4.262021">
        <ele>770.2</ele>
        <time>2020-08-23T08:45:00Z</time>
        <sat>10</sat>
      </trkpt>
      <trkpt lat="42.286796" lon="-4.262120">
        <ele>770.3</ele>
        <time>2020-08-23T08:45:07Z</time>
        <sat>10</sat>
      </trkpt>
      <trkpt lat="42.286738" lon="-4.262210">
        <ele>770.3</ele>
        <time>2020-08-23T08:45:14Z</time>
        <sat>10</sat>
      </trkpt>
      <trkpt lat="42.286685" lon="-4.262305">
        <ele>770.2</ele>
        <time>2020-08-23T08:45:21Z</time>
        <sat>10</sat>
      </trkpt>
      <trkpt lat="42.286619" lon="-4.262370">
        <ele>769.9</ele>
        <time>2020-08-23T08:45:53Z</time>
        <sat>10</sat>
      </trkpt>
      <trkpt lat="42.286571" lon="-4.262474">
        <ele>769.7</ele>
        <time>2020-08-23T08:47:46Z</time>
        <sat>10</sat>
      </trkpt>
      <trkpt lat="42.286534" lon="-4.262590">
        <ele>770.0</ele>
        <time>2020-08-23T08:47:55Z</time>
        <sat>10</sat>
      </trkpt>
      <trkpt lat="42.286488" lon="-4.262695">
        <ele>770.2</ele>
        <time>2020-08-23T08:48:02Z</time>
        <sat>10</sat>
      </trkpt>
      <trkpt lat="42.286433" lon="-4.262785">
        <ele>770.2</ele>
        <time>2020-08-23T08:48:13Z</time>
        <sat>10</sat>
      </trkpt>
      <trkpt lat="42.286384" lon="-4.262875">
        <ele>770.2</ele>
        <time>2020-08-23T08:48:20Z</time>
        <sat>10</sat>
      </trkpt>
      <trkpt lat="42.286333" lon="-4.262973">
        <ele>770.1</ele>
        <time>2020-08-23T08:48:27Z</time>
        <sat>10</sat>
      </trkpt>
      <trkpt lat="42.286269" lon="-4.263064">
        <ele>770.0</ele>
        <time>2020-08-23T08:48:34Z</time>
        <sat>10</sat>
      </trkpt>
      <trkpt lat="42.286207" lon="-4.263145">
        <ele>770.0</ele>
        <time>2020-08-23T08:48:47Z</time>
        <sat>10</sat>
      </trkpt>
      <trkpt lat="42.286159" lon="-4.263235">
        <ele>770.1</ele>
        <time>2020-08-23T08:48:55Z</time>
        <sat>10</sat>
      </trkpt>
      <trkpt lat="42.286087" lon="-4.263294">
        <ele>770.2</ele>
        <time>2020-08-23T08:49:04Z</time>
        <sat>10</sat>
      </trkpt>
      <trkpt lat="42.286023" lon="-4.263368">
        <ele>770.2</ele>
        <time>2020-08-23T08:49:12Z</time>
        <sat>10</sat>
      </trkpt>
      <trkpt lat="42.285965" lon="-4.263462">
        <ele>770.2</ele>
        <time>2020-08-23T08:49:20Z</time>
        <sat>10</sat>
      </trkpt>
      <trkpt lat="42.285910" lon="-4.263549">
        <ele>770.1</ele>
        <time>2020-08-23T08:49:28Z</time>
        <sat>10</sat>
      </trkpt>
      <trkpt lat="42.285860" lon="-4.263643">
        <ele>770.3</ele>
        <time>2020-08-23T08:49:35Z</time>
        <sat>10</sat>
      </trkpt>
      <trkpt lat="42.285806" lon="-4.263736">
        <ele>770.2</ele>
        <time>2020-08-23T08:49:42Z</time>
        <sat>10</sat>
      </trkpt>
      <trkpt lat="42.285749" lon="-4.263824">
        <ele>770.3</ele>
        <time>2020-08-23T08:49:49Z</time>
        <sat>10</sat>
      </trkpt>
      <trkpt lat="42.285696" lon="-4.263920">
        <ele>770.4</ele>
        <time>2020-08-23T08:49:56Z</time>
        <sat>10</sat>
      </trkpt>
      <trkpt lat="42.285641" lon="-4.264003">
        <ele>770.6</ele>
        <time>2020-08-23T08:50:03Z</time>
        <sat>9</sat>
      </trkpt>
      <trkpt lat="42.285586" lon="-4.264096">
        <ele>770.5</ele>
        <time>2020-08-23T08:50:10Z</time>
        <sat>10</sat>
      </trkpt>
      <trkpt lat="42.285585" lon="-4.264206">
        <ele>770.6</ele>
        <time>2020-08-23T08:50:28Z</time>
        <sat>10</sat>
      </trkpt>
      <trkpt lat="42.285537" lon="-4.264304">
        <ele>770.3</ele>
        <time>2020-08-23T08:51:34Z</time>
        <sat>10</sat>
      </trkpt>
      <trkpt lat="42.285504" lon="-4.264418">
        <ele>770.4</ele>
        <time>2020-08-23T08:51:41Z</time>
        <sat>10</sat>
      </trkpt>
      <trkpt lat="42.285479" lon="-4.264525">
        <ele>770.6</ele>
        <time>2020-08-23T08:51:48Z</time>
        <sat>9</sat>
      </trkpt>
      <trkpt lat="42.285440" lon="-4.264628">
        <ele>770.7</ele>
        <time>2020-08-23T08:51:55Z</time>
        <sat>10</sat>
      </trkpt>
      <trkpt lat="42.285416" lon="-4.264744">
        <ele>770.6</ele>
        <time>2020-08-23T08:52:03Z</time>
        <sat>10</sat>
      </trkpt>
      <trkpt lat="42.285384" lon="-4.264849">
        <ele>770.7</ele>
        <time>2020-08-23T08:52:10Z</time>
        <sat>10</sat>
      </trkpt>
      <trkpt lat="42.285347" lon="-4.264955">
        <ele>770.7</ele>
        <time>2020-08-23T08:52:17Z</time>
        <sat>10</sat>
      </trkpt>
      <trkpt lat="42.285315" lon="-4.265059">
        <ele>770.6</ele>
        <time>2020-08-23T08:52:24Z</time>
        <sat>10</sat>
      </trkpt>
      <trkpt lat="42.285284" lon="-4.265174">
        <ele>770.7</ele>
        <time>2020-08-23T08:52:31Z</time>
        <sat>10</sat>
      </trkpt>
      <trkpt lat="42.285248" lon="-4.265287">
        <ele>770.6</ele>
        <time>2020-08-23T08:52:38Z</time>
        <sat>10</sat>
      </trkpt>
      <trkpt lat="42.285221" lon="-4.265395">
        <ele>770.6</ele>
        <time>2020-08-23T08:52:45Z</time>
        <sat>9</sat>
      </trkpt>
      <trkpt lat="42.285187" lon="-4.265500">
        <ele>770.7</ele>
        <time>2020-08-23T08:52:52Z</time>
        <sat>10</sat>
      </trkpt>
      <trkpt lat="42.285157" lon="-4.265610">
        <ele>770.7</ele>
        <time>2020-08-23T08:53:00Z</time>
        <sat>10</sat>
      </trkpt>
      <trkpt lat="42.285122" lon="-4.265725">
        <ele>770.7</ele>
        <time>2020-08-23T08:53:07Z</time>
        <sat>10</sat>
      </trkpt>
      <trkpt lat="42.285094" lon="-4.265844">
        <ele>770.6</ele>
        <time>2020-08-23T08:53:14Z</time>
        <sat>10</sat>
      </trkpt>
      <trkpt lat="42.285060" lon="-4.265956">
        <ele>770.6</ele>
        <time>2020-08-23T08:53:21Z</time>
        <sat>10</sat>
      </trkpt>
      <trkpt lat="42.285028" lon="-4.266070">
        <ele>770.6</ele>
        <time>2020-08-23T08:53:28Z</time>
        <sat>10</sat>
      </trkpt>
      <trkpt lat="42.284995" lon="-4.266181">
        <ele>770.6</ele>
        <time>2020-08-23T08:53:35Z</time>
        <sat>10</sat>
      </trkpt>
      <trkpt lat="42.284961" lon="-4.266291">
        <ele>770.6</ele>
        <time>2020-08-23T08:53:42Z</time>
        <sat>11</sat>
      </trkpt>
      <trkpt lat="42.284925" lon="-4.266401">
        <ele>770.7</ele>
        <time>2020-08-23T08:53:49Z</time>
        <sat>11</sat>
      </trkpt>
      <trkpt lat="42.284888" lon="-4.266508">
        <ele>770.7</ele>
        <time>2020-08-23T08:53:56Z</time>
        <sat>11</sat>
      </trkpt>
      <trkpt lat="42.284858" lon="-4.266617">
        <ele>770.8</ele>
        <time>2020-08-23T08:54:03Z</time>
        <sat>11</sat>
      </trkpt>
      <trkpt lat="42.284826" lon="-4.266718">
        <ele>770.8</ele>
        <time>2020-08-23T08:54:09Z</time>
        <sat>11</sat>
      </trkpt>
      <trkpt lat="42.284790" lon="-4.266828">
        <ele>770.8</ele>
        <time>2020-08-23T08:54:16Z</time>
        <sat>11</sat>
      </trkpt>
      <trkpt lat="42.284762" lon="-4.266932">
        <ele>770.8</ele>
        <time>2020-08-23T08:54:22Z</time>
        <sat>11</sat>
      </trkpt>
      <trkpt lat="42.284737" lon="-4.267036">
        <ele>770.7</ele>
        <time>2020-08-23T08:54:28Z</time>
        <sat>11</sat>
      </trkpt>
      <trkpt lat="42.284706" lon="-4.267138">
        <ele>770.6</ele>
        <time>2020-08-23T08:54:34Z</time>
        <sat>11</sat>
      </trkpt>
      <trkpt lat="42.284667" lon="-4.267248">
        <ele>770.5</ele>
        <time>2020-08-23T08:54:41Z</time>
        <sat>11</sat>
      </trkpt>
      <trkpt lat="42.284632" lon="-4.267362">
        <ele>770.5</ele>
        <time>2020-08-23T08:54:48Z</time>
        <sat>11</sat>
      </trkpt>
      <trkpt lat="42.284592" lon="-4.267470">
        <ele>770.4</ele>
        <time>2020-08-23T08:54:55Z</time>
        <sat>11</sat>
      </trkpt>
      <trkpt lat="42.284563" lon="-4.267587">
        <ele>770.5</ele>
        <time>2020-08-23T08:55:02Z</time>
        <sat>11</sat>
      </trkpt>
      <trkpt lat="42.284523" lon="-4.267685">
        <ele>770.6</ele>
        <time>2020-08-23T08:55:08Z</time>
        <sat>11</sat>
      </trkpt>
      <trkpt lat="42.284493" lon="-4.267788">
        <ele>770.8</ele>
        <time>2020-08-23T08:55:14Z</time>
        <sat>11</sat>
      </trkpt>
      <trkpt lat="42.284456" lon="-4.267889">
        <ele>771.0</ele>
        <time>2020-08-23T08:55:20Z</time>
        <sat>10</sat>
      </trkpt>
      <trkpt lat="42.284429" lon="-4.268010">
        <ele>771.2</ele>
        <time>2020-08-23T08:55:27Z</time>
        <sat>11</sat>
      </trkpt>
      <trkpt lat="42.284394" lon="-4.268118">
        <ele>771.5</ele>
        <time>2020-08-23T08:55:33Z</time>
        <sat>11</sat>
      </trkpt>
      <trkpt lat="42.284364" lon="-4.268233">
        <ele>772.0</ele>
        <time>2020-08-23T08:55:40Z</time>
        <sat>11</sat>
      </trkpt>
      <trkpt lat="42.284335" lon="-4.268343">
        <ele>772.5</ele>
        <time>2020-08-23T08:55:47Z</time>
        <sat>11</sat>
      </trkpt>
      <trkpt lat="42.284301" lon="-4.268457">
        <ele>772.2</ele>
        <time>2020-08-23T08:55:54Z</time>
        <sat>11</sat>
      </trkpt>
      <trkpt lat="42.284279" lon="-4.268577">
        <ele>773.3</ele>
        <time>2020-08-23T08:56:01Z</time>
        <sat>11</sat>
      </trkpt>
      <trkpt lat="42.284252" lon="-4.268689">
        <ele>773.3</ele>
        <time>2020-08-23T08:56:08Z</time>
        <sat>10</sat>
      </trkpt>
      <trkpt lat="42.284234" lon="-4.268804">
        <ele>775.0</ele>
        <time>2020-08-23T08:56:15Z</time>
        <sat>11</sat>
      </trkpt>
      <trkpt lat="42.284208" lon="-4.268916">
        <ele>776.0</ele>
        <time>2020-08-23T08:56:22Z</time>
        <sat>11</sat>
      </trkpt>
      <trkpt lat="42.284180" lon="-4.269030">
        <ele>775.9</ele>
        <time>2020-08-23T08:56:29Z</time>
        <sat>11</sat>
      </trkpt>
      <trkpt lat="42.284149" lon="-4.269142">
        <ele>776.6</ele>
        <time>2020-08-23T08:56:36Z</time>
        <sat>11</sat>
      </trkpt>
      <trkpt lat="42.284117" lon="-4.269248">
        <ele>776.8</ele>
        <time>2020-08-23T08:56:43Z</time>
        <sat>11</sat>
      </trkpt>
      <trkpt lat="42.284084" lon="-4.269357">
        <ele>776.9</ele>
        <time>2020-08-23T08:56:50Z</time>
        <sat>11</sat>
      </trkpt>
      <trkpt lat="42.284048" lon="-4.269466">
        <ele>777.0</ele>
        <time>2020-08-23T08:56:57Z</time>
        <sat>11</sat>
      </trkpt>
      <trkpt lat="42.284010" lon="-4.269567">
        <ele>777.0</ele>
        <time>2020-08-23T08:57:04Z</time>
        <sat>11</sat>
      </trkpt>
      <trkpt lat="42.283975" lon="-4.269673">
        <ele>776.9</ele>
        <time>2020-08-23T08:57:12Z</time>
        <sat>11</sat>
      </trkpt>
      <trkpt lat="42.283943" lon="-4.269775">
        <ele>777.1</ele>
        <time>2020-08-23T08:57:19Z</time>
        <sat>11</sat>
      </trkpt>
      <trkpt lat="42.283911" lon="-4.269885">
        <ele>777.1</ele>
        <time>2020-08-23T08:57:26Z</time>
        <sat>11</sat>
      </trkpt>
      <trkpt lat="42.283873" lon="-4.269987">
        <ele>777.2</ele>
        <time>2020-08-23T08:57:33Z</time>
        <sat>10</sat>
      </trkpt>
      <trkpt lat="42.283842" lon="-4.270089">
        <ele>777.2</ele>
        <time>2020-08-23T08:57:40Z</time>
        <sat>11</sat>
      </trkpt>
      <trkpt lat="42.283816" lon="-4.270198">
        <ele>777.2</ele>
        <time>2020-08-23T08:57:47Z</time>
        <sat>11</sat>
      </trkpt>
      <trkpt lat="42.283780" lon="-4.270297">
        <ele>777.3</ele>
        <time>2020-08-23T08:57:54Z</time>
        <sat>11</sat>
      </trkpt>
      <trkpt lat="42.283752" lon="-4.270411">
        <ele>777.1</ele>
        <time>2020-08-23T08:58:01Z</time>
        <sat>11</sat>
      </trkpt>
      <trkpt lat="42.283725" lon="-4.270521">
        <ele>777.0</ele>
        <time>2020-08-23T08:58:08Z</time>
        <sat>11</sat>
      </trkpt>
      <trkpt lat="42.283692" lon="-4.270634">
        <ele>777.1</ele>
        <time>2020-08-23T08:58:15Z</time>
        <sat>11</sat>
      </trkpt>
      <trkpt lat="42.283651" lon="-4.270743">
        <ele>777.1</ele>
        <time>2020-08-23T08:58:22Z</time>
        <sat>11</sat>
      </trkpt>
      <trkpt lat="42.283614" lon="-4.270848">
        <ele>777.1</ele>
        <time>2020-08-23T08:58:29Z</time>
        <sat>11</sat>
      </trkpt>
      <trkpt lat="42.283585" lon="-4.270959">
        <ele>777.2</ele>
        <time>2020-08-23T08:58:36Z</time>
        <sat>11</sat>
      </trkpt>
      <trkpt lat="42.283550" lon="-4.271065">
        <ele>775.9</ele>
        <time>2020-08-23T08:58:43Z</time>
        <sat>11</sat>
      </trkpt>
      <trkpt lat="42.283522" lon="-4.271171">
        <ele>775.6</ele>
        <time>2020-08-23T08:58:50Z</time>
        <sat>11</sat>
      </trkpt>
      <trkpt lat="42.283487" lon="-4.271286">
        <ele>777.0</ele>
        <time>2020-08-23T08:58:58Z</time>
        <sat>11</sat>
      </trkpt>
      <trkpt lat="42.283440" lon="-4.271386">
        <ele>778.1</ele>
        <time>2020-08-23T08:59:06Z</time>
        <sat>11</sat>
      </trkpt>
      <trkpt lat="42.283418" lon="-4.271493">
        <ele>778.0</ele>
        <time>2020-08-23T08:59:13Z</time>
        <sat>11</sat>
      </trkpt>
      <trkpt lat="42.283377" lon="-4.271588">
        <ele>777.4</ele>
        <time>2020-08-23T08:59:39Z</time>
        <sat>11</sat>
      </trkpt>
      <trkpt lat="42.283361" lon="-4.271704">
        <ele>777.3</ele>
        <time>2020-08-23T09:00:40Z</time>
        <sat>11</sat>
      </trkpt>
      <trkpt lat="42.283326" lon="-4.271807">
        <ele>777.2</ele>
        <time>2020-08-23T09:00:47Z</time>
        <sat>11</sat>
      </trkpt>
      <trkpt lat="42.283286" lon="-4.271918">
        <ele>777.4</ele>
        <time>2020-08-23T09:00:55Z</time>
        <sat>11</sat>
      </trkpt>
      <trkpt lat="42.283243" lon="-4.272016">
        <ele>777.5</ele>
        <time>2020-08-23T09:01:03Z</time>
        <sat>11</sat>
      </trkpt>
      <trkpt lat="42.283210" lon="-4.272127">
        <ele>777.4</ele>
        <time>2020-08-23T09:01:11Z</time>
        <sat>11</sat>
      </trkpt>
      <trkpt lat="42.283173" lon="-4.272228">
        <ele>777.2</ele>
        <time>2020-08-23T09:01:18Z</time>
        <sat>11</sat>
      </trkpt>
      <trkpt lat="42.283136" lon="-4.272333">
        <ele>777.6</ele>
        <time>2020-08-23T09:01:25Z</time>
        <sat>11</sat>
      </trkpt>
      <trkpt lat="42.283102" lon="-4.272439">
        <ele>777.5</ele>
        <time>2020-08-23T09:01:32Z</time>
        <sat>11</sat>
      </trkpt>
      <trkpt lat="42.283061" lon="-4.272542">
        <ele>777.6</ele>
        <time>2020-08-23T09:01:40Z</time>
        <sat>11</sat>
      </trkpt>
      <trkpt lat="42.283030" lon="-4.272646">
        <ele>777.5</ele>
        <time>2020-08-23T09:01:47Z</time>
        <sat>11</sat>
      </trkpt>
      <trkpt lat="42.282992" lon="-4.272754">
        <ele>777.4</ele>
        <time>2020-08-23T09:01:54Z</time>
        <sat>11</sat>
      </trkpt>
      <trkpt lat="42.282957" lon="-4.272856">
        <ele>777.5</ele>
        <time>2020-08-23T09:02:01Z</time>
        <sat>11</sat>
      </trkpt>
      <trkpt lat="42.282924" lon="-4.272976">
        <ele>777.6</ele>
        <time>2020-08-23T09:02:09Z</time>
        <sat>11</sat>
      </trkpt>
      <trkpt lat="42.282891" lon="-4.273086">
        <ele>777.6</ele>
        <time>2020-08-23T09:02:16Z</time>
        <sat>11</sat>
      </trkpt>
      <trkpt lat="42.282857" lon="-4.273193">
        <ele>777.6</ele>
        <time>2020-08-23T09:02:23Z</time>
        <sat>11</sat>
      </trkpt>
      <trkpt lat="42.282824" lon="-4.273304">
        <ele>777.5</ele>
        <time>2020-08-23T09:02:31Z</time>
        <sat>10</sat>
      </trkpt>
      <trkpt lat="42.282794" lon="-4.273410">
        <ele>777.5</ele>
        <time>2020-08-23T09:02:39Z</time>
        <sat>11</sat>
      </trkpt>
      <trkpt lat="42.282764" lon="-4.273523">
        <ele>777.6</ele>
        <time>2020-08-23T09:02:46Z</time>
        <sat>11</sat>
      </trkpt>
      <trkpt lat="42.282726" lon="-4.273634">
        <ele>777.7</ele>
        <time>2020-08-23T09:02:53Z</time>
        <sat>11</sat>
      </trkpt>
      <trkpt lat="42.282692" lon="-4.273747">
        <ele>777.8</ele>
        <time>2020-08-23T09:03:00Z</time>
        <sat>11</sat>
      </trkpt>
      <trkpt lat="42.282660" lon="-4.273863">
        <ele>777.8</ele>
        <time>2020-08-23T09:03:07Z</time>
        <sat>11</sat>
      </trkpt>
      <trkpt lat="42.282622" lon="-4.273973">
        <ele>777.9</ele>
        <time>2020-08-23T09:03:14Z</time>
        <sat>11</sat>
      </trkpt>
      <trkpt lat="42.282589" lon="-4.274086">
        <ele>778.1</ele>
        <time>2020-08-23T09:03:21Z</time>
        <sat>11</sat>
      </trkpt>
      <trkpt lat="42.282558" lon="-4.274190">
        <ele>778.1</ele>
        <time>2020-08-23T09:03:27Z</time>
        <sat>11</sat>
      </trkpt>
      <trkpt lat="42.282526" lon="-4.274308">
        <ele>778.1</ele>
        <time>2020-08-23T09:03:34Z</time>
        <sat>11</sat>
      </trkpt>
      <trkpt lat="42.282496" lon="-4.274422">
        <ele>778.1</ele>
        <time>2020-08-23T09:03:41Z</time>
        <sat>11</sat>
      </trkpt>
      <trkpt lat="42.282466" lon="-4.274530">
        <ele>778.1</ele>
        <time>2020-08-23T09:03:48Z</time>
        <sat>11</sat>
      </trkpt>
      <trkpt lat="42.282445" lon="-4.274648">
        <ele>778.1</ele>
        <time>2020-08-23T09:03:55Z</time>
        <sat>11</sat>
      </trkpt>
      <trkpt lat="42.282425" lon="-4.274762">
        <ele>778.2</ele>
        <time>2020-08-23T09:04:02Z</time>
        <sat>11</sat>
      </trkpt>
      <trkpt lat="42.282400" lon="-4.274875">
        <ele>778.3</ele>
        <time>2020-08-23T09:04:09Z</time>
        <sat>12</sat>
      </trkpt>
      <trkpt lat="42.282380" lon="-4.274995">
        <ele>778.5</ele>
        <time>2020-08-23T09:04:16Z</time>
        <sat>12</sat>
      </trkpt>
      <trkpt lat="42.282354" lon="-4.275112">
        <ele>778.6</ele>
        <time>2020-08-23T09:04:23Z</time>
        <sat>12</sat>
      </trkpt>
      <trkpt lat="42.282333" lon="-4.275232">
        <ele>778.7</ele>
        <time>2020-08-23T09:04:30Z</time>
        <sat>12</sat>
      </trkpt>
      <trkpt lat="42.282308" lon="-4.275353">
        <ele>778.7</ele>
        <time>2020-08-23T09:04:37Z</time>
        <sat>12</sat>
      </trkpt>
      <trkpt lat="42.282287" lon="-4.275464">
        <ele>778.8</ele>
        <time>2020-08-23T09:04:44Z</time>
        <sat>12</sat>
      </trkpt>
      <trkpt lat="42.282261" lon="-4.275579">
        <ele>778.8</ele>
        <time>2020-08-23T09:04:51Z</time>
        <sat>12</sat>
      </trkpt>
      <trkpt lat="42.282238" lon="-4.275696">
        <ele>778.8</ele>
        <time>2020-08-23T09:04:58Z</time>
        <sat>12</sat>
      </trkpt>
      <trkpt lat="42.282217" lon="-4.275818">
        <ele>778.8</ele>
        <time>2020-08-23T09:05:05Z</time>
        <sat>12</sat>
      </trkpt>
      <trkpt lat="42.282204" lon="-4.275935">
        <ele>779.0</ele>
        <time>2020-08-23T09:05:12Z</time>
        <sat>12</sat>
      </trkpt>
      <trkpt lat="42.282196" lon="-4.276059">
        <ele>779.0</ele>
        <time>2020-08-23T09:05:19Z</time>
        <sat>12</sat>
      </trkpt>
      <trkpt lat="42.282181" lon="-4.276185">
        <ele>779.1</ele>
        <time>2020-08-23T09:05:26Z</time>
        <sat>12</sat>
      </trkpt>
      <trkpt lat="42.282174" lon="-4.276309">
        <ele>779.2</ele>
        <time>2020-08-23T09:05:33Z</time>
        <sat>12</sat>
      </trkpt>
      <trkpt lat="42.282161" lon="-4.276421">
        <ele>779.4</ele>
        <time>2020-08-23T09:05:39Z</time>
        <sat>12</sat>
      </trkpt>
      <trkpt lat="42.282146" lon="-4.276539">
        <ele>779.5</ele>
        <time>2020-08-23T09:05:46Z</time>
        <sat>12</sat>
      </trkpt>
      <trkpt lat="42.282127" lon="-4.276658">
        <ele>779.4</ele>
        <time>2020-08-23T09:05:53Z</time>
        <sat>12</sat>
      </trkpt>
      <trkpt lat="42.282106" lon="-4.276775">
        <ele>779.4</ele>
        <time>2020-08-23T09:06:00Z</time>
        <sat>12</sat>
      </trkpt>
      <trkpt lat="42.282078" lon="-4.276884">
        <ele>779.5</ele>
        <time>2020-08-23T09:06:07Z</time>
        <sat>12</sat>
      </trkpt>
      <trkpt lat="42.282056" lon="-4.276995">
        <ele>779.5</ele>
        <time>2020-08-23T09:06:13Z</time>
        <sat>12</sat>
      </trkpt>
      <trkpt lat="42.282033" lon="-4.277110">
        <ele>779.5</ele>
        <time>2020-08-23T09:06:20Z</time>
        <sat>12</sat>
      </trkpt>
      <trkpt lat="42.282009" lon="-4.277232">
        <ele>779.6</ele>
        <time>2020-08-23T09:06:28Z</time>
        <sat>12</sat>
      </trkpt>
      <trkpt lat="42.281987" lon="-4.277351">
        <ele>779.6</ele>
        <time>2020-08-23T09:06:35Z</time>
        <sat>12</sat>
      </trkpt>
      <trkpt lat="42.281965" lon="-4.277467">
        <ele>779.6</ele>
        <time>2020-08-23T09:06:42Z</time>
        <sat>12</sat>
      </trkpt>
      <trkpt lat="42.281946" lon="-4.277586">
        <ele>779.6</ele>
        <time>2020-08-23T09:06:49Z</time>
        <sat>12</sat>
      </trkpt>
      <trkpt lat="42.281927" lon="-4.277704">
        <ele>779.7</ele>
        <time>2020-08-23T09:06:56Z</time>
        <sat>12</sat>
      </trkpt>
      <trkpt lat="42.281896" lon="-4.277825">
        <ele>779.9</ele>
        <time>2020-08-23T09:07:03Z</time>
        <sat>12</sat>
      </trkpt>
      <trkpt lat="42.281879" lon="-4.277935">
        <ele>780.1</ele>
        <time>2020-08-23T09:07:10Z</time>
        <sat>12</sat>
      </trkpt>
      <trkpt lat="42.281859" lon="-4.278045">
        <ele>780.2</ele>
        <time>2020-08-23T09:07:17Z</time>
        <sat>12</sat>
      </trkpt>
      <trkpt lat="42.281830" lon="-4.278162">
        <ele>780.3</ele>
        <time>2020-08-23T09:07:24Z</time>
        <sat>12</sat>
      </trkpt>
      <trkpt lat="42.281811" lon="-4.278278">
        <ele>780.3</ele>
        <time>2020-08-23T09:07:31Z</time>
        <sat>12</sat>
      </trkpt>
      <trkpt lat="42.281791" lon="-4.278388">
        <ele>780.4</ele>
        <time>2020-08-23T09:07:38Z</time>
        <sat>12</sat>
      </trkpt>
      <trkpt lat="42.281774" lon="-4.278499">
        <ele>780.3</ele>
        <time>2020-08-23T09:07:46Z</time>
        <sat>12</sat>
      </trkpt>
      <trkpt lat="42.281753" lon="-4.278613">
        <ele>780.6</ele>
        <time>2020-08-23T09:07:56Z</time>
        <sat>12</sat>
      </trkpt>
      <trkpt lat="42.281726" lon="-4.278731">
        <ele>780.6</ele>
        <time>2020-08-23T09:08:03Z</time>
        <sat>12</sat>
      </trkpt>
      <trkpt lat="42.281704" lon="-4.278850">
        <ele>780.5</ele>
        <time>2020-08-23T09:08:10Z</time>
        <sat>12</sat>
      </trkpt>
      <trkpt lat="42.281688" lon="-4.278958">
        <ele>780.5</ele>
        <time>2020-08-23T09:08:16Z</time>
        <sat>12</sat>
      </trkpt>
      <trkpt lat="42.281668" lon="-4.279064">
        <ele>780.5</ele>
        <time>2020-08-23T09:08:22Z</time>
        <sat>12</sat>
      </trkpt>
      <trkpt lat="42.281646" lon="-4.279185">
        <ele>780.5</ele>
        <time>2020-08-23T09:08:29Z</time>
        <sat>12</sat>
      </trkpt>
      <trkpt lat="42.281620" lon="-4.279304">
        <ele>780.6</ele>
        <time>2020-08-23T09:08:36Z</time>
        <sat>11</sat>
      </trkpt>
      <trkpt lat="42.281602" lon="-4.279419">
        <ele>780.6</ele>
        <time>2020-08-23T09:08:43Z</time>
        <sat>12</sat>
      </trkpt>
      <trkpt lat="42.281577" lon="-4.279543">
        <ele>780.6</ele>
        <time>2020-08-23T09:08:50Z</time>
        <sat>12</sat>
      </trkpt>
      <trkpt lat="42.281557" lon="-4.279654">
        <ele>780.7</ele>
        <time>2020-08-23T09:08:57Z</time>
        <sat>12</sat>
      </trkpt>
      <trkpt lat="42.281538" lon="-4.279774">
        <ele>780.8</ele>
        <time>2020-08-23T09:09:04Z</time>
        <sat>12</sat>
      </trkpt>
      <trkpt lat="42.281519" lon="-4.279892">
        <ele>780.9</ele>
        <time>2020-08-23T09:09:11Z</time>
        <sat>12</sat>
      </trkpt>
      <trkpt lat="42.281499" lon="-4.280011">
        <ele>781.0</ele>
        <time>2020-08-23T09:09:18Z</time>
        <sat>12</sat>
      </trkpt>
      <trkpt lat="42.281476" lon="-4.280132">
        <ele>780.9</ele>
        <time>2020-08-23T09:09:25Z</time>
        <sat>12</sat>
      </trkpt>
      <trkpt lat="42.281450" lon="-4.280252">
        <ele>780.9</ele>
        <time>2020-08-23T09:09:32Z</time>
        <sat>12</sat>
      </trkpt>
      <trkpt lat="42.281432" lon="-4.280371">
        <ele>781.0</ele>
        <time>2020-08-23T09:09:39Z</time>
        <sat>12</sat>
      </trkpt>
      <trkpt lat="42.281415" lon="-4.280487">
        <ele>781.0</ele>
        <time>2020-08-23T09:09:46Z</time>
        <sat>12</sat>
      </trkpt>
      <trkpt lat="42.281391" lon="-4.280606">
        <ele>781.0</ele>
        <time>2020-08-23T09:09:53Z</time>
        <sat>12</sat>
      </trkpt>
      <trkpt lat="42.281378" lon="-4.280718">
        <ele>781.2</ele>
        <time>2020-08-23T09:10:00Z</time>
        <sat>11</sat>
      </trkpt>
      <trkpt lat="42.281353" lon="-4.280826">
        <ele>781.4</ele>
        <time>2020-08-23T09:10:06Z</time>
        <sat>12</sat>
      </trkpt>
      <trkpt lat="42.281327" lon="-4.280933">
        <ele>781.4</ele>
        <time>2020-08-23T09:11:01Z</time>
        <sat>12</sat>
      </trkpt>
      <trkpt lat="42.281317" lon="-4.281049">
        <ele>781.6</ele>
        <time>2020-08-23T09:11:10Z</time>
        <sat>11</sat>
      </trkpt>
      <trkpt lat="42.281306" lon="-4.281164">
        <ele>781.7</ele>
        <time>2020-08-23T09:11:19Z</time>
        <sat>11</sat>
      </trkpt>
      <trkpt lat="42.281288" lon="-4.281281">
        <ele>781.9</ele>
        <time>2020-08-23T09:11:27Z</time>
        <sat>11</sat>
      </trkpt>
      <trkpt lat="42.281267" lon="-4.281394">
        <ele>782.1</ele>
        <time>2020-08-23T09:11:35Z</time>
        <sat>11</sat>
      </trkpt>
      <trkpt lat="42.281251" lon="-4.281514">
        <ele>782.2</ele>
        <time>2020-08-23T09:11:43Z</time>
        <sat>11</sat>
      </trkpt>
      <trkpt lat="42.281242" lon="-4.281634">
        <ele>782.3</ele>
        <time>2020-08-23T09:11:50Z</time>
        <sat>11</sat>
      </trkpt>
      <trkpt lat="42.281231" lon="-4.281752">
        <ele>782.6</ele>
        <time>2020-08-23T09:11:57Z</time>
        <sat>11</sat>
      </trkpt>
      <trkpt lat="42.281217" lon="-4.281873">
        <ele>782.7</ele>
        <time>2020-08-23T09:12:04Z</time>
        <sat>11</sat>
      </trkpt>
      <trkpt lat="42.281208" lon="-4.281995">
        <ele>782.8</ele>
        <time>2020-08-23T09:12:11Z</time>
        <sat>11</sat>
      </trkpt>
      <trkpt lat="42.281186" lon="-4.282119">
        <ele>782.9</ele>
        <time>2020-08-23T09:12:18Z</time>
        <sat>11</sat>
      </trkpt>
      <trkpt lat="42.281165" lon="-4.282240">
        <ele>782.9</ele>
        <time>2020-08-23T09:12:25Z</time>
        <sat>11</sat>
      </trkpt>
      <trkpt lat="42.281139" lon="-4.282349">
        <ele>783.1</ele>
        <time>2020-08-23T09:12:47Z</time>
        <sat>11</sat>
      </trkpt>
      <trkpt lat="42.281117" lon="-4.282461">
        <ele>783.1</ele>
        <time>2020-08-23T09:12:55Z</time>
        <sat>11</sat>
      </trkpt>
      <trkpt lat="42.281091" lon="-4.282574">
        <ele>783.3</ele>
        <time>2020-08-23T09:13:03Z</time>
        <sat>11</sat>
      </trkpt>
      <trkpt lat="42.281063" lon="-4.282677">
        <ele>783.5</ele>
        <time>2020-08-23T09:13:10Z</time>
        <sat>11</sat>
      </trkpt>
      <trkpt lat="42.281034" lon="-4.282788">
        <ele>783.8</ele>
        <time>2020-08-23T09:13:17Z</time>
        <sat>11</sat>
      </trkpt>
      <trkpt lat="42.281015" lon="-4.282901">
        <ele>784.1</ele>
        <time>2020-08-23T09:13:25Z</time>
        <sat>11</sat>
      </trkpt>
      <trkpt lat="42.280986" lon="-4.283005">
        <ele>784.5</ele>
        <time>2020-08-23T09:13:32Z</time>
        <sat>11</sat>
      </trkpt>
      <trkpt lat="42.280968" lon="-4.283115">
        <ele>786.1</ele>
        <time>2020-08-23T09:13:50Z</time>
        <sat>11</sat>
      </trkpt>
      <trkpt lat="42.280945" lon="-4.283222">
        <ele>786.7</ele>
        <time>2020-08-23T09:14:14Z</time>
        <sat>11</sat>
      </trkpt>
      <trkpt lat="42.280931" lon="-4.283334">
        <ele>786.7</ele>
        <time>2020-08-23T09:14:28Z</time>
        <sat>11</sat>
      </trkpt>
      <trkpt lat="42.280910" lon="-4.283451">
        <ele>786.7</ele>
        <time>2020-08-23T09:14:37Z</time>
        <sat>11</sat>
      </trkpt>
      <trkpt lat="42.280890" lon="-4.283559">
        <ele>786.5</ele>
        <time>2020-08-23T09:14:44Z</time>
        <sat>11</sat>
      </trkpt>
      <trkpt lat="42.280873" lon="-4.283667">
        <ele>786.2</ele>
        <time>2020-08-23T09:14:51Z</time>
        <sat>11</sat>
      </trkpt>
      <trkpt lat="42.280853" lon="-4.283786">
        <ele>786.0</ele>
        <time>2020-08-23T09:15:00Z</time>
        <sat>11</sat>
      </trkpt>
      <trkpt lat="42.280845" lon="-4.283905">
        <ele>786.0</ele>
        <time>2020-08-23T09:15:07Z</time>
        <sat>11</sat>
      </trkpt>
      <trkpt lat="42.280830" lon="-4.284022">
        <ele>785.9</ele>
        <time>2020-08-23T09:15:15Z</time>
        <sat>11</sat>
      </trkpt>
      <trkpt lat="42.280820" lon="-4.284140">
        <ele>785.9</ele>
        <time>2020-08-23T09:15:22Z</time>
        <sat>11</sat>
      </trkpt>
      <trkpt lat="42.280811" lon="-4.284250">
        <ele>786.1</ele>
        <time>2020-08-23T09:15:29Z</time>
        <sat>11</sat>
      </trkpt>
      <trkpt lat="42.280802" lon="-4.284375">
        <ele>786.3</ele>
        <time>2020-08-23T09:15:37Z</time>
        <sat>11</sat>
      </trkpt>
      <trkpt lat="42.280790" lon="-4.284487">
        <ele>786.6</ele>
        <time>2020-08-23T09:15:44Z</time>
        <sat>11</sat>
      </trkpt>
      <trkpt lat="42.280783" lon="-4.284604">
        <ele>786.8</ele>
        <time>2020-08-23T09:15:51Z</time>
        <sat>11</sat>
      </trkpt>
      <trkpt lat="42.280780" lon="-4.284722">
        <ele>787.0</ele>
        <time>2020-08-23T09:15:58Z</time>
        <sat>11</sat>
      </trkpt>
      <trkpt lat="42.280777" lon="-4.284837">
        <ele>787.3</ele>
        <time>2020-08-23T09:16:05Z</time>
        <sat>11</sat>
      </trkpt>
      <trkpt lat="42.280775" lon="-4.284954">
        <ele>787.7</ele>
        <time>2020-08-23T09:16:12Z</time>
        <sat>10</sat>
      </trkpt>
      <trkpt lat="42.280779" lon="-4.285071">
        <ele>787.9</ele>
        <time>2020-08-23T09:16:19Z</time>
        <sat>10</sat>
      </trkpt>
      <trkpt lat="42.280778" lon="-4.285190">
        <ele>788.0</ele>
        <time>2020-08-23T09:16:26Z</time>
        <sat>11</sat>
      </trkpt>
      <trkpt lat="42.280786" lon="-4.285305">
        <ele>788.3</ele>
        <time>2020-08-23T09:16:33Z</time>
        <sat>11</sat>
      </trkpt>
      <trkpt lat="42.280787" lon="-4.285421">
        <ele>788.6</ele>
        <time>2020-08-23T09:16:40Z</time>
        <sat>11</sat>
      </trkpt>
      <trkpt lat="42.280796" lon="-4.285536">
        <ele>788.8</ele>
        <time>2020-08-23T09:16:47Z</time>
        <sat>11</sat>
      </trkpt>
      <trkpt lat="42.280805" lon="-4.285651">
        <ele>789.0</ele>
        <time>2020-08-23T09:16:54Z</time>
        <sat>10</sat>
      </trkpt>
      <trkpt lat="42.280818" lon="-4.285761">
        <ele>789.3</ele>
        <time>2020-08-23T09:17:01Z</time>
        <sat>11</sat>
      </trkpt>
      <trkpt lat="42.280834" lon="-4.285873">
        <ele>790.0</ele>
        <time>2020-08-23T09:17:09Z</time>
        <sat>11</sat>
      </trkpt>
      <trkpt lat="42.280854" lon="-4.285988">
        <ele>790.7</ele>
        <time>2020-08-23T09:17:17Z</time>
        <sat>11</sat>
      </trkpt>
      <trkpt lat="42.280874" lon="-4.286100">
        <ele>791.2</ele>
        <time>2020-08-23T09:17:24Z</time>
        <sat>10</sat>
      </trkpt>
      <trkpt lat="42.280896" lon="-4.286206">
        <ele>791.7</ele>
        <time>2020-08-23T09:17:31Z</time>
        <sat>11</sat>
      </trkpt>
      <trkpt lat="42.280915" lon="-4.286327">
        <ele>792.2</ele>
        <time>2020-08-23T09:17:39Z</time>
        <sat>11</sat>
      </trkpt>
      <trkpt lat="42.280921" lon="-4.286444">
        <ele>792.6</ele>
        <time>2020-08-23T09:17:46Z</time>
        <sat>11</sat>
      </trkpt>
      <trkpt lat="42.280924" lon="-4.286561">
        <ele>792.8</ele>
        <time>2020-08-23T09:17:53Z</time>
        <sat>11</sat>
      </trkpt>
      <trkpt lat="42.280911" lon="-4.286674">
        <ele>793.0</ele>
        <time>2020-08-23T09:18:00Z</time>
        <sat>11</sat>
      </trkpt>
      <trkpt lat="42.280877" lon="-4.286775">
        <ele>793.2</ele>
        <time>2020-08-23T09:18:07Z</time>
        <sat>11</sat>
      </trkpt>
      <trkpt lat="42.280843" lon="-4.286876">
        <ele>793.5</ele>
        <time>2020-08-23T09:18:14Z</time>
        <sat>11</sat>
      </trkpt>
      <trkpt lat="42.280799" lon="-4.286980">
        <ele>793.7</ele>
        <time>2020-08-23T09:18:21Z</time>
        <sat>11</sat>
      </trkpt>
      <trkpt lat="42.280763" lon="-4.287084">
        <ele>793.9</ele>
        <time>2020-08-23T09:18:28Z</time>
        <sat>11</sat>
      </trkpt>
      <trkpt lat="42.280726" lon="-4.287194">
        <ele>794.1</ele>
        <time>2020-08-23T09:18:35Z</time>
        <sat>11</sat>
      </trkpt>
      <trkpt lat="42.280683" lon="-4.287291">
        <ele>794.1</ele>
        <time>2020-08-23T09:18:42Z</time>
        <sat>11</sat>
      </trkpt>
      <trkpt lat="42.280640" lon="-4.287394">
        <ele>794.2</ele>
        <time>2020-08-23T09:18:49Z</time>
        <sat>11</sat>
      </trkpt>
      <trkpt lat="42.280598" lon="-4.287497">
        <ele>794.3</ele>
        <time>2020-08-23T09:18:56Z</time>
        <sat>11</sat>
      </trkpt>
      <trkpt lat="42.280556" lon="-4.287600">
        <ele>794.5</ele>
        <time>2020-08-23T09:19:03Z</time>
        <sat>11</sat>
      </trkpt>
      <trkpt lat="42.280515" lon="-4.287706">
        <ele>794.7</ele>
        <time>2020-08-23T09:19:10Z</time>
        <sat>11</sat>
      </trkpt>
      <trkpt lat="42.280472" lon="-4.287816">
        <ele>794.9</ele>
        <time>2020-08-23T09:19:17Z</time>
        <sat>11</sat>
      </trkpt>
      <trkpt lat="42.280430" lon="-4.287920">
        <ele>795.0</ele>
        <time>2020-08-23T09:19:24Z</time>
        <sat>11</sat>
      </trkpt>
      <trkpt lat="42.280393" lon="-4.288021">
        <ele>795.3</ele>
        <time>2020-08-23T09:19:31Z</time>
        <sat>11</sat>
      </trkpt>
      <trkpt lat="42.280357" lon="-4.288121">
        <ele>795.6</ele>
        <time>2020-08-23T09:19:38Z</time>
        <sat>11</sat>
      </trkpt>
      <trkpt lat="42.280321" lon="-4.288230">
        <ele>795.7</ele>
        <time>2020-08-23T09:19:45Z</time>
        <sat>11</sat>
      </trkpt>
      <trkpt lat="42.280282" lon="-4.288345">
        <ele>795.8</ele>
        <time>2020-08-23T09:19:52Z</time>
        <sat>11</sat>
      </trkpt>
      <trkpt lat="42.280239" lon="-4.288453">
        <ele>795.9</ele>
        <time>2020-08-23T09:19:59Z</time>
        <sat>11</sat>
      </trkpt>
      <trkpt lat="42.280200" lon="-4.288555">
        <ele>795.9</ele>
        <time>2020-08-23T09:20:06Z</time>
        <sat>11</sat>
      </trkpt>
      <trkpt lat="42.280165" lon="-4.288661">
        <ele>795.9</ele>
        <time>2020-08-23T09:20:13Z</time>
        <sat>11</sat>
      </trkpt>
      <trkpt lat="42.280123" lon="-4.288772">
        <ele>795.9</ele>
        <time>2020-08-23T09:20:20Z</time>
        <sat>11</sat>
      </trkpt>
      <trkpt lat="42.280083" lon="-4.288879">
        <ele>795.8</ele>
        <time>2020-08-23T09:20:27Z</time>
        <sat>11</sat>
      </trkpt>
      <trkpt lat="42.280051" lon="-4.288990">
        <ele>795.7</ele>
        <time>2020-08-23T09:20:34Z</time>
        <sat>11</sat>
      </trkpt>
      <trkpt lat="42.280009" lon="-4.289098">
        <ele>795.6</ele>
        <time>2020-08-23T09:20:41Z</time>
        <sat>11</sat>
      </trkpt>
      <trkpt lat="42.279965" lon="-4.289202">
        <ele>795.6</ele>
        <time>2020-08-23T09:20:48Z</time>
        <sat>11</sat>
      </trkpt>
      <trkpt lat="42.279934" lon="-4.289303">
        <ele>795.6</ele>
        <time>2020-08-23T09:20:54Z</time>
        <sat>11</sat>
      </trkpt>
      <trkpt lat="42.279892" lon="-4.289408">
        <ele>795.5</ele>
        <time>2020-08-23T09:21:01Z</time>
        <sat>11</sat>
      </trkpt>
      <trkpt lat="42.279855" lon="-4.289526">
        <ele>795.5</ele>
        <time>2020-08-23T09:21:08Z</time>
        <sat>11</sat>
      </trkpt>
      <trkpt lat="42.279814" lon="-4.289620">
        <ele>795.6</ele>
        <time>2020-08-23T09:21:14Z</time>
        <sat>11</sat>
      </trkpt>
      <trkpt lat="42.279778" lon="-4.289736">
        <ele>795.6</ele>
        <time>2020-08-23T09:21:21Z</time>
        <sat>11</sat>
      </trkpt>
      <trkpt lat="42.279735" lon="-4.289845">
        <ele>795.7</ele>
        <time>2020-08-23T09:21:28Z</time>
        <sat>11</sat>
      </trkpt>
      <trkpt lat="42.279698" lon="-4.289958">
        <ele>795.8</ele>
        <time>2020-08-23T09:21:35Z</time>
        <sat>11</sat>
      </trkpt>
      <trkpt lat="42.279664" lon="-4.290071">
        <ele>796.0</ele>
        <time>2020-08-23T09:21:42Z</time>
        <sat>11</sat>
      </trkpt>
      <trkpt lat="42.279620" lon="-4.290177">
        <ele>796.2</ele>
        <time>2020-08-23T09:21:49Z</time>
        <sat>11</sat>
      </trkpt>
      <trkpt lat="42.279588" lon="-4.290296">
        <ele>796.2</ele>
        <time>2020-08-23T09:21:56Z</time>
        <sat>11</sat>
      </trkpt>
      <trkpt lat="42.279550" lon="-4.290392">
        <ele>796.3</ele>
        <time>2020-08-23T09:22:02Z</time>
        <sat>11</sat>
      </trkpt>
      <trkpt lat="42.279511" lon="-4.290505">
        <ele>796.4</ele>
        <time>2020-08-23T09:22:09Z</time>
        <sat>11</sat>
      </trkpt>
      <trkpt lat="42.279479" lon="-4.290606">
        <ele>796.6</ele>
        <time>2020-08-23T09:22:15Z</time>
        <sat>11</sat>
      </trkpt>
      <trkpt lat="42.279433" lon="-4.290716">
        <ele>796.8</ele>
        <time>2020-08-23T09:22:22Z</time>
        <sat>11</sat>
      </trkpt>
      <trkpt lat="42.279396" lon="-4.290828">
        <ele>797.0</ele>
        <time>2020-08-23T09:22:29Z</time>
        <sat>11</sat>
      </trkpt>
      <trkpt lat="42.279360" lon="-4.290926">
        <ele>797.2</ele>
        <time>2020-08-23T09:22:35Z</time>
        <sat>11</sat>
      </trkpt>
      <trkpt lat="42.279315" lon="-4.291040">
        <ele>797.4</ele>
        <time>2020-08-23T09:22:42Z</time>
        <sat>11</sat>
      </trkpt>
      <trkpt lat="42.279288" lon="-4.291153">
        <ele>797.7</ele>
        <time>2020-08-23T09:22:49Z</time>
        <sat>11</sat>
      </trkpt>
      <trkpt lat="42.279251" lon="-4.291253">
        <ele>797.9</ele>
        <time>2020-08-23T09:22:55Z</time>
        <sat>11</sat>
      </trkpt>
      <trkpt lat="42.279224" lon="-4.291358">
        <ele>798.1</ele>
        <time>2020-08-23T09:23:01Z</time>
        <sat>11</sat>
      </trkpt>
      <trkpt lat="42.279192" lon="-4.291459">
        <ele>798.3</ele>
        <time>2020-08-23T09:23:07Z</time>
        <sat>11</sat>
      </trkpt>
      <trkpt lat="42.279171" lon="-4.291580">
        <ele>798.4</ele>
        <time>2020-08-23T09:23:14Z</time>
        <sat>11</sat>
      </trkpt>
      <trkpt lat="42.279139" lon="-4.291689">
        <ele>798.7</ele>
        <time>2020-08-23T09:23:20Z</time>
        <sat>11</sat>
      </trkpt>
      <trkpt lat="42.279122" lon="-4.291808">
        <ele>798.8</ele>
        <time>2020-08-23T09:23:26Z</time>
        <sat>11</sat>
      </trkpt>
      <trkpt lat="42.279101" lon="-4.291927">
        <ele>798.8</ele>
        <time>2020-08-23T09:23:33Z</time>
        <sat>11</sat>
      </trkpt>
      <trkpt lat="42.279089" lon="-4.292040">
        <ele>798.9</ele>
        <time>2020-08-23T09:23:39Z</time>
        <sat>11</sat>
      </trkpt>
      <trkpt lat="42.279078" lon="-4.292151">
        <ele>799.0</ele>
        <time>2020-08-23T09:23:45Z</time>
        <sat>11</sat>
      </trkpt>
      <trkpt lat="42.279074" lon="-4.292276">
        <ele>799.2</ele>
        <time>2020-08-23T09:23:52Z</time>
        <sat>11</sat>
      </trkpt>
      <trkpt lat="42.279067" lon="-4.292401">
        <ele>799.5</ele>
        <time>2020-08-23T09:23:59Z</time>
        <sat>11</sat>
      </trkpt>
      <trkpt lat="42.279065" lon="-4.292521">
        <ele>800.1</ele>
        <time>2020-08-23T09:24:06Z</time>
        <sat>11</sat>
      </trkpt>
      <trkpt lat="42.279067" lon="-4.292646">
        <ele>800.5</ele>
        <time>2020-08-23T09:24:13Z</time>
        <sat>11</sat>
      </trkpt>
      <trkpt lat="42.279065" lon="-4.292764">
        <ele>801.0</ele>
        <time>2020-08-23T09:24:20Z</time>
        <sat>11</sat>
      </trkpt>
      <trkpt lat="42.279057" lon="-4.292883">
        <ele>801.2</ele>
        <time>2020-08-23T09:24:27Z</time>
        <sat>11</sat>
      </trkpt>
      <trkpt lat="42.279054" lon="-4.293004">
        <ele>801.5</ele>
        <time>2020-08-23T09:24:34Z</time>
        <sat>11</sat>
      </trkpt>
      <trkpt lat="42.279047" lon="-4.293125">
        <ele>801.8</ele>
        <time>2020-08-23T09:24:41Z</time>
        <sat>11</sat>
      </trkpt>
      <trkpt lat="42.279043" lon="-4.293244">
        <ele>802.1</ele>
        <time>2020-08-23T09:24:48Z</time>
        <sat>11</sat>
      </trkpt>
      <trkpt lat="42.279039" lon="-4.293363">
        <ele>802.4</ele>
        <time>2020-08-23T09:24:55Z</time>
        <sat>11</sat>
      </trkpt>
      <trkpt lat="42.279034" lon="-4.293487">
        <ele>802.7</ele>
        <time>2020-08-23T09:25:02Z</time>
        <sat>11</sat>
      </trkpt>
      <trkpt lat="42.279033" lon="-4.293613">
        <ele>802.8</ele>
        <time>2020-08-23T09:25:09Z</time>
        <sat>11</sat>
      </trkpt>
      <trkpt lat="42.279027" lon="-4.293728">
        <ele>802.9</ele>
        <time>2020-08-23T09:25:16Z</time>
        <sat>10</sat>
      </trkpt>
      <trkpt lat="42.279025" lon="-4.293852">
        <ele>803.0</ele>
        <time>2020-08-23T09:25:23Z</time>
        <sat>10</sat>
      </trkpt>
      <trkpt lat="42.279021" lon="-4.293976">
        <ele>803.0</ele>
        <time>2020-08-23T09:25:30Z</time>
        <sat>11</sat>
      </trkpt>
      <trkpt lat="42.279022" lon="-4.294087">
        <ele>803.0</ele>
        <time>2020-08-23T09:25:36Z</time>
        <sat>11</sat>
      </trkpt>
      <trkpt lat="42.279009" lon="-4.294207">
        <ele>803.0</ele>
        <time>2020-08-23T09:25:43Z</time>
        <sat>11</sat>
      </trkpt>
      <trkpt lat="42.279002" lon="-4.294327">
        <ele>803.1</ele>
        <time>2020-08-23T09:25:50Z</time>
        <sat>11</sat>
      </trkpt>
      <trkpt lat="42.278992" lon="-4.294447">
        <ele>803.3</ele>
        <time>2020-08-23T09:25:57Z</time>
        <sat>10</sat>
      </trkpt>
      <trkpt lat="42.278979" lon="-4.294569">
        <ele>803.5</ele>
        <time>2020-08-23T09:26:04Z</time>
        <sat>11</sat>
      </trkpt>
      <trkpt lat="42.278973" lon="-4.294689">
        <ele>803.7</ele>
        <time>2020-08-23T09:26:11Z</time>
        <sat>11</sat>
      </trkpt>
      <trkpt lat="42.278966" lon="-4.294799">
        <ele>803.8</ele>
        <time>2020-08-23T09:26:17Z</time>
        <sat>11</sat>
      </trkpt>
      <trkpt lat="42.278951" lon="-4.294920">
        <ele>804.1</ele>
        <time>2020-08-23T09:26:24Z</time>
        <sat>11</sat>
      </trkpt>
      <trkpt lat="42.278945" lon="-4.295041">
        <ele>804.3</ele>
        <time>2020-08-23T09:26:31Z</time>
        <sat>11</sat>
      </trkpt>
      <trkpt lat="42.278936" lon="-4.295151">
        <ele>804.5</ele>
        <time>2020-08-23T09:26:37Z</time>
        <sat>11</sat>
      </trkpt>
      <trkpt lat="42.278916" lon="-4.295273">
        <ele>804.9</ele>
        <time>2020-08-23T09:26:44Z</time>
        <sat>11</sat>
      </trkpt>
      <trkpt lat="42.278906" lon="-4.295394">
        <ele>805.3</ele>
        <time>2020-08-23T09:26:51Z</time>
        <sat>11</sat>
      </trkpt>
      <trkpt lat="42.278893" lon="-4.295504">
        <ele>805.5</ele>
        <time>2020-08-23T09:26:57Z</time>
        <sat>11</sat>
      </trkpt>
      <trkpt lat="42.278872" lon="-4.295629">
        <ele>805.6</ele>
        <time>2020-08-23T09:27:04Z</time>
        <sat>11</sat>
      </trkpt>
      <trkpt lat="42.278859" lon="-4.295751">
        <ele>805.9</ele>
        <time>2020-08-23T09:27:11Z</time>
        <sat>11</sat>
      </trkpt>
      <trkpt lat="42.278842" lon="-4.295875">
        <ele>806.1</ele>
        <time>2020-08-23T09:27:18Z</time>
        <sat>11</sat>
      </trkpt>
      <trkpt lat="42.278826" lon="-4.295996">
        <ele>806.4</ele>
        <time>2020-08-23T09:27:25Z</time>
        <sat>11</sat>
      </trkpt>
      <trkpt lat="42.278818" lon="-4.296106">
        <ele>806.6</ele>
        <time>2020-08-23T09:27:31Z</time>
        <sat>11</sat>
      </trkpt>
      <trkpt lat="42.278808" lon="-4.296218">
        <ele>807.0</ele>
        <time>2020-08-23T09:27:37Z</time>
        <sat>11</sat>
      </trkpt>
      <trkpt lat="42.278799" lon="-4.296340">
        <ele>807.3</ele>
        <time>2020-08-23T09:27:44Z</time>
        <sat>11</sat>
      </trkpt>
      <trkpt lat="42.278781" lon="-4.296462">
        <ele>807.7</ele>
        <time>2020-08-23T09:27:51Z</time>
        <sat>11</sat>
      </trkpt>
      <trkpt lat="42.278765" lon="-4.296584">
        <ele>808.0</ele>
        <time>2020-08-23T09:27:58Z</time>
        <sat>10</sat>
      </trkpt>
      <trkpt lat="42.278744" lon="-4.296701">
        <ele>808.1</ele>
        <time>2020-08-23T09:28:05Z</time>
        <sat>11</sat>
      </trkpt>
      <trkpt lat="42.278701" lon="-4.296795">
        <ele>808.4</ele>
        <time>2020-08-23T09:28:15Z</time>
        <sat>11</sat>
      </trkpt>
      <trkpt lat="42.278655" lon="-4.296896">
        <ele>808.8</ele>
        <time>2020-08-23T09:28:27Z</time>
        <sat>10</sat>
      </trkpt>
      <trkpt lat="42.278605" lon="-4.296988">
        <ele>808.9</ele>
        <time>2020-08-23T09:28:34Z</time>
        <sat>11</sat>
      </trkpt>
      <trkpt lat="42.278551" lon="-4.297082">
        <ele>808.9</ele>
        <time>2020-08-23T09:28:41Z</time>
        <sat>11</sat>
      </trkpt>
      <trkpt lat="42.278498" lon="-4.297172">
        <ele>808.9</ele>
        <time>2020-08-23T09:28:48Z</time>
        <sat>11</sat>
      </trkpt>
      <trkpt lat="42.278436" lon="-4.297263">
        <ele>809.1</ele>
        <time>2020-08-23T09:28:55Z</time>
        <sat>11</sat>
      </trkpt>
      <trkpt lat="42.278375" lon="-4.297345">
        <ele>809.2</ele>
        <time>2020-08-23T09:29:02Z</time>
        <sat>11</sat>
      </trkpt>
      <trkpt lat="42.278310" lon="-4.297424">
        <ele>809.2</ele>
        <time>2020-08-23T09:29:09Z</time>
        <sat>11</sat>
      </trkpt>
      <trkpt lat="42.278247" lon="-4.297511">
        <ele>809.2</ele>
        <time>2020-08-23T09:29:16Z</time>
        <sat>11</sat>
      </trkpt>
      <trkpt lat="42.278186" lon="-4.297602">
        <ele>809.3</ele>
        <time>2020-08-23T09:29:23Z</time>
        <sat>11</sat>
      </trkpt>
      <trkpt lat="42.278134" lon="-4.297697">
        <ele>809.2</ele>
        <time>2020-08-23T09:29:30Z</time>
        <sat>11</sat>
      </trkpt>
      <trkpt lat="42.278091" lon="-4.297804">
        <ele>809.4</ele>
        <time>2020-08-23T09:29:40Z</time>
        <sat>11</sat>
      </trkpt>
      <trkpt lat="42.278057" lon="-4.297912">
        <ele>809.5</ele>
        <time>2020-08-23T09:29:47Z</time>
        <sat>11</sat>
      </trkpt>
      <trkpt lat="42.278022" lon="-4.298013">
        <ele>809.6</ele>
        <time>2020-08-23T09:29:55Z</time>
        <sat>11</sat>
      </trkpt>
      <trkpt lat="42.277989" lon="-4.298126">
        <ele>809.6</ele>
        <time>2020-08-23T09:30:03Z</time>
        <sat>11</sat>
      </trkpt>
      <trkpt lat="42.277957" lon="-4.298242">
        <ele>809.7</ele>
        <time>2020-08-23T09:30:11Z</time>
        <sat>11</sat>
      </trkpt>
      <trkpt lat="42.277927" lon="-4.298351">
        <ele>809.7</ele>
        <time>2020-08-23T09:30:18Z</time>
        <sat>11</sat>
      </trkpt>
      <trkpt lat="42.277894" lon="-4.298461">
        <ele>809.7</ele>
        <time>2020-08-23T09:30:25Z</time>
        <sat>11</sat>
      </trkpt>
      <trkpt lat="42.277866" lon="-4.298569">
        <ele>809.8</ele>
        <time>2020-08-23T09:30:32Z</time>
        <sat>11</sat>
      </trkpt>
      <trkpt lat="42.277832" lon="-4.298673">
        <ele>810.0</ele>
        <time>2020-08-23T09:30:39Z</time>
        <sat>11</sat>
      </trkpt>
      <trkpt lat="42.277799" lon="-4.298779">
        <ele>810.0</ele>
        <time>2020-08-23T09:30:46Z</time>
        <sat>11</sat>
      </trkpt>
      <trkpt lat="42.277770" lon="-4.298885">
        <ele>810.0</ele>
        <time>2020-08-23T09:30:53Z</time>
        <sat>11</sat>
      </trkpt>
      <trkpt lat="42.277740" lon="-4.298997">
        <ele>810.0</ele>
        <time>2020-08-23T09:31:00Z</time>
        <sat>11</sat>
      </trkpt>
      <trkpt lat="42.277710" lon="-4.299106">
        <ele>810.1</ele>
        <time>2020-08-23T09:31:07Z</time>
        <sat>11</sat>
      </trkpt>
      <trkpt lat="42.277680" lon="-4.299217">
        <ele>810.1</ele>
        <time>2020-08-23T09:31:14Z</time>
        <sat>11</sat>
      </trkpt>
      <trkpt lat="42.277647" lon="-4.299322">
        <ele>810.3</ele>
        <time>2020-08-23T09:31:21Z</time>
        <sat>11</sat>
      </trkpt>
      <trkpt lat="42.277613" lon="-4.299427">
        <ele>810.4</ele>
        <time>2020-08-23T09:31:28Z</time>
        <sat>11</sat>
      </trkpt>
      <trkpt lat="42.277581" lon="-4.299531">
        <ele>810.6</ele>
        <time>2020-08-23T09:31:35Z</time>
        <sat>11</sat>
      </trkpt>
      <trkpt lat="42.277551" lon="-4.299636">
        <ele>810.8</ele>
        <time>2020-08-23T09:31:42Z</time>
        <sat>11</sat>
      </trkpt>
      <trkpt lat="42.277518" lon="-4.299744">
        <ele>811.0</ele>
        <time>2020-08-23T09:31:49Z</time>
        <sat>11</sat>
      </trkpt>
      <trkpt lat="42.277488" lon="-4.299848">
        <ele>811.3</ele>
        <time>2020-08-23T09:31:56Z</time>
        <sat>11</sat>
      </trkpt>
      <trkpt lat="42.277454" lon="-4.299963">
        <ele>811.5</ele>
        <time>2020-08-23T09:32:04Z</time>
        <sat>12</sat>
      </trkpt>
      <trkpt lat="42.277421" lon="-4.300063">
        <ele>811.6</ele>
        <time>2020-08-23T09:32:11Z</time>
        <sat>11</sat>
      </trkpt>
      <trkpt lat="42.277389" lon="-4.300165">
        <ele>811.9</ele>
        <time>2020-08-23T09:32:18Z</time>
        <sat>11</sat>
      </trkpt>
      <trkpt lat="42.277354" lon="-4.300267">
        <ele>812.2</ele>
        <time>2020-08-23T09:32:25Z</time>
        <sat>11</sat>
      </trkpt>
      <trkpt lat="42.277326" lon="-4.300374">
        <ele>812.7</ele>
        <time>2020-08-23T09:32:34Z</time>
        <sat>11</sat>
      </trkpt>
      <trkpt lat="42.277288" lon="-4.300484">
        <ele>813.0</ele>
        <time>2020-08-23T09:32:43Z</time>
        <sat>11</sat>
      </trkpt>
      <trkpt lat="42.277254" lon="-4.300588">
        <ele>813.1</ele>
        <time>2020-08-23T09:32:50Z</time>
        <sat>12</sat>
      </trkpt>
      <trkpt lat="42.277217" lon="-4.300700">
        <ele>813.4</ele>
        <time>2020-08-23T09:32:58Z</time>
        <sat>12</sat>
      </trkpt>
      <trkpt lat="42.277185" lon="-4.300808">
        <ele>813.7</ele>
        <time>2020-08-23T09:33:06Z</time>
        <sat>12</sat>
      </trkpt>
      <trkpt lat="42.277150" lon="-4.300917">
        <ele>813.9</ele>
        <time>2020-08-23T09:33:14Z</time>
        <sat>12</sat>
      </trkpt>
      <trkpt lat="42.277114" lon="-4.301023">
        <ele>814.1</ele>
        <time>2020-08-23T09:33:22Z</time>
        <sat>12</sat>
      </trkpt>
      <trkpt lat="42.277080" lon="-4.301129">
        <ele>814.5</ele>
        <time>2020-08-23T09:33:29Z</time>
        <sat>11</sat>
      </trkpt>
      <trkpt lat="42.277048" lon="-4.301243">
        <ele>814.9</ele>
        <time>2020-08-23T09:33:38Z</time>
        <sat>11</sat>
      </trkpt>
      <trkpt lat="42.277012" lon="-4.301349">
        <ele>815.2</ele>
        <time>2020-08-23T09:33:46Z</time>
        <sat>12</sat>
      </trkpt>
      <trkpt lat="42.276974" lon="-4.301462">
        <ele>815.7</ele>
        <time>2020-08-23T09:33:54Z</time>
        <sat>12</sat>
      </trkpt>
      <trkpt lat="42.276938" lon="-4.301565">
        <ele>816.1</ele>
        <time>2020-08-23T09:34:01Z</time>
        <sat>11</sat>
      </trkpt>
      <trkpt lat="42.276904" lon="-4.301678">
        <ele>816.4</ele>
        <time>2020-08-23T09:34:08Z</time>
        <sat>12</sat>
      </trkpt>
      <trkpt lat="42.276861" lon="-4.301783">
        <ele>817.1</ele>
        <time>2020-08-23T09:34:15Z</time>
        <sat>12</sat>
      </trkpt>
      <trkpt lat="42.276813" lon="-4.301884">
        <ele>817.7</ele>
        <time>2020-08-23T09:34:23Z</time>
        <sat>12</sat>
      </trkpt>
      <trkpt lat="42.276774" lon="-4.301983">
        <ele>818.3</ele>
        <time>2020-08-23T09:34:30Z</time>
        <sat>11</sat>
      </trkpt>
      <trkpt lat="42.276723" lon="-4.302084">
        <ele>818.8</ele>
        <time>2020-08-23T09:34:38Z</time>
        <sat>11</sat>
      </trkpt>
      <trkpt lat="42.276679" lon="-4.302192">
        <ele>819.2</ele>
        <time>2020-08-23T09:34:46Z</time>
        <sat>12</sat>
      </trkpt>
      <trkpt lat="42.276633" lon="-4.302298">
        <ele>819.7</ele>
        <time>2020-08-23T09:34:54Z</time>
        <sat>12</sat>
      </trkpt>
      <trkpt lat="42.276589" lon="-4.302397">
        <ele>820.4</ele>
        <time>2020-08-23T09:35:04Z</time>
        <sat>10</sat>
      </trkpt>
      <trkpt lat="42.276542" lon="-4.302500">
        <ele>821.0</ele>
        <time>2020-08-23T09:35:13Z</time>
        <sat>12</sat>
      </trkpt>
      <trkpt lat="42.276500" lon="-4.302602">
        <ele>821.5</ele>
        <time>2020-08-23T09:35:21Z</time>
        <sat>12</sat>
      </trkpt>
      <trkpt lat="42.276466" lon="-4.302704">
        <ele>822.0</ele>
        <time>2020-08-23T09:35:29Z</time>
        <sat>12</sat>
      </trkpt>
      <trkpt lat="42.276422" lon="-4.302809">
        <ele>822.6</ele>
        <time>2020-08-23T09:35:37Z</time>
        <sat>12</sat>
      </trkpt>
      <trkpt lat="42.276384" lon="-4.302911">
        <ele>823.2</ele>
        <time>2020-08-23T09:35:45Z</time>
        <sat>12</sat>
      </trkpt>
      <trkpt lat="42.276340" lon="-4.303018">
        <ele>824.0</ele>
        <time>2020-08-23T09:35:53Z</time>
        <sat>12</sat>
      </trkpt>
      <trkpt lat="42.276303" lon="-4.303133">
        <ele>824.7</ele>
        <time>2020-08-23T09:36:01Z</time>
        <sat>12</sat>
      </trkpt>
      <trkpt lat="42.276269" lon="-4.303245">
        <ele>825.5</ele>
        <time>2020-08-23T09:36:09Z</time>
        <sat>12</sat>
      </trkpt>
      <trkpt lat="42.276236" lon="-4.303346">
        <ele>826.1</ele>
        <time>2020-08-23T09:36:16Z</time>
        <sat>12</sat>
      </trkpt>
      <trkpt lat="42.276201" lon="-4.303460">
        <ele>826.9</ele>
        <time>2020-08-23T09:36:24Z</time>
        <sat>11</sat>
      </trkpt>
      <trkpt lat="42.276166" lon="-4.303570">
        <ele>827.8</ele>
        <time>2020-08-23T09:36:32Z</time>
        <sat>11</sat>
      </trkpt>
      <trkpt lat="42.276129" lon="-4.303668">
        <ele>828.5</ele>
        <time>2020-08-23T09:36:39Z</time>
        <sat>11</sat>
      </trkpt>
      <trkpt lat="42.276100" lon="-4.303782">
        <ele>829.7</ele>
        <time>2020-08-23T09:36:47Z</time>
        <sat>12</sat>
      </trkpt>
      <trkpt lat="42.276066" lon="-4.303892">
        <ele>830.2</ele>
        <time>2020-08-23T09:36:55Z</time>
        <sat>12</sat>
      </trkpt>
      <trkpt lat="42.276031" lon="-4.303994">
        <ele>829.6</ele>
        <time>2020-08-23T09:37:05Z</time>
        <sat>12</sat>
      </trkpt>
      <trkpt lat="42.275994" lon="-4.304105">
        <ele>827.9</ele>
        <time>2020-08-23T09:37:48Z</time>
        <sat>12</sat>
      </trkpt>
      <trkpt lat="42.275965" lon="-4.304211">
        <ele>827.3</ele>
        <time>2020-08-23T09:38:01Z</time>
        <sat>12</sat>
      </trkpt>
      <trkpt lat="42.275932" lon="-4.304318">
        <ele>826.7</ele>
        <time>2020-08-23T09:38:13Z</time>
        <sat>12</sat>
      </trkpt>
      <trkpt lat="42.275901" lon="-4.304431">
        <ele>826.0</ele>
        <time>2020-08-23T09:38:22Z</time>
        <sat>12</sat>
      </trkpt>
      <trkpt lat="42.275870" lon="-4.304546">
        <ele>825.4</ele>
        <time>2020-08-23T09:38:30Z</time>
        <sat>11</sat>
      </trkpt>
      <trkpt lat="42.275841" lon="-4.304648">
        <ele>825.1</ele>
        <time>2020-08-23T09:38:38Z</time>
        <sat>12</sat>
      </trkpt>
      <trkpt lat="42.275813" lon="-4.304758">
        <ele>824.6</ele>
        <time>2020-08-23T09:38:46Z</time>
        <sat>12</sat>
      </trkpt>
      <trkpt lat="42.275787" lon="-4.304865">
        <ele>824.1</ele>
        <time>2020-08-23T09:38:54Z</time>
        <sat>12</sat>
      </trkpt>
      <trkpt lat="42.275759" lon="-4.304978">
        <ele>823.7</ele>
        <time>2020-08-23T09:39:02Z</time>
        <sat>11</sat>
      </trkpt>
      <trkpt lat="42.275730" lon="-4.305093">
        <ele>823.1</ele>
        <time>2020-08-23T09:39:10Z</time>
        <sat>12</sat>
      </trkpt>
      <trkpt lat="42.275698" lon="-4.305205">
        <ele>822.7</ele>
        <time>2020-08-23T09:39:19Z</time>
        <sat>12</sat>
      </trkpt>
      <trkpt lat="42.275674" lon="-4.305316">
        <ele>822.4</ele>
        <time>2020-08-23T09:39:27Z</time>
        <sat>12</sat>
      </trkpt>
      <trkpt lat="42.275648" lon="-4.305422">
        <ele>822.0</ele>
        <time>2020-08-23T09:39:35Z</time>
        <sat>11</sat>
      </trkpt>
      <trkpt lat="42.275621" lon="-4.305526">
        <ele>821.8</ele>
        <time>2020-08-23T09:39:42Z</time>
        <sat>11</sat>
      </trkpt>
      <trkpt lat="42.275590" lon="-4.305640">
        <ele>821.3</ele>
        <time>2020-08-23T09:39:50Z</time>
        <sat>12</sat>
      </trkpt>
      <trkpt lat="42.275563" lon="-4.305754">
        <ele>820.8</ele>
        <time>2020-08-23T09:39:59Z</time>
        <sat>12</sat>
      </trkpt>
      <trkpt lat="42.275548" lon="-4.305862">
        <ele>820.5</ele>
        <time>2020-08-23T09:40:08Z</time>
        <sat>12</sat>
      </trkpt>
      <trkpt lat="42.275523" lon="-4.305972">
        <ele>820.3</ele>
        <time>2020-08-23T09:40:16Z</time>
        <sat>12</sat>
      </trkpt>
      <trkpt lat="42.275493" lon="-4.306083">
        <ele>820.0</ele>
        <time>2020-08-23T09:40:24Z</time>
        <sat>12</sat>
      </trkpt>
      <trkpt lat="42.275465" lon="-4.306193">
        <ele>819.8</ele>
        <time>2020-08-23T09:40:32Z</time>
        <sat>12</sat>
      </trkpt>
      <trkpt lat="42.275437" lon="-4.306305">
        <ele>819.7</ele>
        <time>2020-08-23T09:40:40Z</time>
        <sat>12</sat>
      </trkpt>
      <trkpt lat="42.275408" lon="-4.306418">
        <ele>819.4</ele>
        <time>2020-08-23T09:40:48Z</time>
        <sat>12</sat>
      </trkpt>
      <trkpt lat="42.275385" lon="-4.306523">
        <ele>819.4</ele>
        <time>2020-08-23T09:40:55Z</time>
        <sat>11</sat>
      </trkpt>
      <trkpt lat="42.275359" lon="-4.306640">
        <ele>819.2</ele>
        <time>2020-08-23T09:41:03Z</time>
        <sat>12</sat>
      </trkpt>
      <trkpt lat="42.275329" lon="-4.306753">
        <ele>819.0</ele>
        <time>2020-08-23T09:41:10Z</time>
        <sat>12</sat>
      </trkpt>
      <trkpt lat="42.275298" lon="-4.306871">
        <ele>818.9</ele>
        <time>2020-08-23T09:41:18Z</time>
        <sat>11</sat>
      </trkpt>
      <trkpt lat="42.275271" lon="-4.306977">
        <ele>818.8</ele>
        <time>2020-08-23T09:41:25Z</time>
        <sat>11</sat>
      </trkpt>
      <trkpt lat="42.275248" lon="-4.307086">
        <ele>818.8</ele>
        <time>2020-08-23T09:41:32Z</time>
        <sat>12</sat>
      </trkpt>
      <trkpt lat="42.275217" lon="-4.307194">
        <ele>818.7</ele>
        <time>2020-08-23T09:41:40Z</time>
        <sat>12</sat>
      </trkpt>
      <trkpt lat="42.275194" lon="-4.307303">
        <ele>818.5</ele>
        <time>2020-08-23T09:41:47Z</time>
        <sat>12</sat>
      </trkpt>
      <trkpt lat="42.275167" lon="-4.307408">
        <ele>818.4</ele>
        <time>2020-08-23T09:41:54Z</time>
        <sat>12</sat>
      </trkpt>
      <trkpt lat="42.275141" lon="-4.307516">
        <ele>818.3</ele>
        <time>2020-08-23T09:42:01Z</time>
        <sat>12</sat>
      </trkpt>
      <trkpt lat="42.275117" lon="-4.307632">
        <ele>818.1</ele>
        <time>2020-08-23T09:42:08Z</time>
        <sat>12</sat>
      </trkpt>
      <trkpt lat="42.275084" lon="-4.307745">
        <ele>818.0</ele>
        <time>2020-08-23T09:42:15Z</time>
        <sat>12</sat>
      </trkpt>
      <trkpt lat="42.275055" lon="-4.307853">
        <ele>817.8</ele>
        <time>2020-08-23T09:42:22Z</time>
        <sat>12</sat>
      </trkpt>
      <trkpt lat="42.275026" lon="-4.307963">
        <ele>817.6</ele>
        <time>2020-08-23T09:42:29Z</time>
        <sat>12</sat>
      </trkpt>
      <trkpt lat="42.274997" lon="-4.308073">
        <ele>817.3</ele>
        <time>2020-08-23T09:42:36Z</time>
        <sat>12</sat>
      </trkpt>
      <trkpt lat="42.274962" lon="-4.308180">
        <ele>817.0</ele>
        <time>2020-08-23T09:42:43Z</time>
        <sat>12</sat>
      </trkpt>
      <trkpt lat="42.274923" lon="-4.308281">
        <ele>816.9</ele>
        <time>2020-08-23T09:42:50Z</time>
        <sat>12</sat>
      </trkpt>
      <trkpt lat="42.274887" lon="-4.308385">
        <ele>816.7</ele>
        <time>2020-08-23T09:42:57Z</time>
        <sat>12</sat>
      </trkpt>
      <trkpt lat="42.274851" lon="-4.308488">
        <ele>816.4</ele>
        <time>2020-08-23T09:43:04Z</time>
        <sat>12</sat>
      </trkpt>
      <trkpt lat="42.274812" lon="-4.308588">
        <ele>816.2</ele>
        <time>2020-08-23T09:43:11Z</time>
        <sat>12</sat>
      </trkpt>
      <trkpt lat="42.274777" lon="-4.308689">
        <ele>816.0</ele>
        <time>2020-08-23T09:43:18Z</time>
        <sat>12</sat>
      </trkpt>
      <trkpt lat="42.274740" lon="-4.308798">
        <ele>815.7</ele>
        <time>2020-08-23T09:43:26Z</time>
        <sat>12</sat>
      </trkpt>
      <trkpt lat="42.274702" lon="-4.308909">
        <ele>815.0</ele>
        <time>2020-08-23T09:43:34Z</time>
        <sat>12</sat>
      </trkpt>
      <trkpt lat="42.274674" lon="-4.309017">
        <ele>814.6</ele>
        <time>2020-08-23T09:43:41Z</time>
        <sat>12</sat>
      </trkpt>
      <trkpt lat="42.274652" lon="-4.309131">
        <ele>814.2</ele>
        <time>2020-08-23T09:43:48Z</time>
        <sat>11</sat>
      </trkpt>
      <trkpt lat="42.274628" lon="-4.309240">
        <ele>813.9</ele>
        <time>2020-08-23T09:43:55Z</time>
        <sat>12</sat>
      </trkpt>
      <trkpt lat="42.274602" lon="-4.309345">
        <ele>813.5</ele>
        <time>2020-08-23T09:44:02Z</time>
        <sat>12</sat>
      </trkpt>
      <trkpt lat="42.274581" lon="-4.309452">
        <ele>813.0</ele>
        <time>2020-08-23T09:44:09Z</time>
        <sat>12</sat>
      </trkpt>
      <trkpt lat="42.274552" lon="-4.309565">
        <ele>812.7</ele>
        <time>2020-08-23T09:44:16Z</time>
        <sat>12</sat>
      </trkpt>
      <trkpt lat="42.274517" lon="-4.309671">
        <ele>812.3</ele>
        <time>2020-08-23T09:44:23Z</time>
        <sat>12</sat>
      </trkpt>
      <trkpt lat="42.274481" lon="-4.309776">
        <ele>811.9</ele>
        <time>2020-08-23T09:44:30Z</time>
        <sat>12</sat>
      </trkpt>
      <trkpt lat="42.274439" lon="-4.309887">
        <ele>811.7</ele>
        <time>2020-08-23T09:44:37Z</time>
        <sat>12</sat>
      </trkpt>
      <trkpt lat="42.274394" lon="-4.309991">
        <ele>811.3</ele>
        <time>2020-08-23T09:44:44Z</time>
        <sat>12</sat>
      </trkpt>
      <trkpt lat="42.274350" lon="-4.310098">
        <ele>811.0</ele>
        <time>2020-08-23T09:44:51Z</time>
        <sat>12</sat>
      </trkpt>
      <trkpt lat="42.274303" lon="-4.310197">
        <ele>810.7</ele>
        <time>2020-08-23T09:44:58Z</time>
        <sat>12</sat>
      </trkpt>
      <trkpt lat="42.274261" lon="-4.310306">
        <ele>810.5</ele>
        <time>2020-08-23T09:45:05Z</time>
        <sat>12</sat>
      </trkpt>
      <trkpt lat="42.274215" lon="-4.310413">
        <ele>810.4</ele>
        <time>2020-08-23T09:45:12Z</time>
        <sat>12</sat>
      </trkpt>
      <trkpt lat="42.274169" lon="-4.310515">
        <ele>810.4</ele>
        <time>2020-08-23T09:45:19Z</time>
        <sat>12</sat>
      </trkpt>
      <trkpt lat="42.274127" lon="-4.310620">
        <ele>810.3</ele>
        <time>2020-08-23T09:45:26Z</time>
        <sat>12</sat>
      </trkpt>
      <trkpt lat="42.274084" lon="-4.310730">
        <ele>810.3</ele>
        <time>2020-08-23T09:45:33Z</time>
        <sat>12</sat>
      </trkpt>
      <trkpt lat="42.274036" lon="-4.310832">
        <ele>810.3</ele>
        <time>2020-08-23T09:45:40Z</time>
        <sat>12</sat>
      </trkpt>
      <trkpt lat="42.273990" lon="-4.310939">
        <ele>810.0</ele>
        <time>2020-08-23T09:45:47Z</time>
        <sat>12</sat>
      </trkpt>
      <trkpt lat="42.273944" lon="-4.311044">
        <ele>810.0</ele>
        <time>2020-08-23T09:45:54Z</time>
        <sat>12</sat>
      </trkpt>
      <trkpt lat="42.273906" lon="-4.311145">
        <ele>809.8</ele>
        <time>2020-08-23T09:46:01Z</time>
        <sat>12</sat>
      </trkpt>
      <trkpt lat="42.273862" lon="-4.311250">
        <ele>809.7</ele>
        <time>2020-08-23T09:46:08Z</time>
        <sat>12</sat>
      </trkpt>
      <trkpt lat="42.273814" lon="-4.311352">
        <ele>809.6</ele>
        <time>2020-08-23T09:46:15Z</time>
        <sat>12</sat>
      </trkpt>
      <trkpt lat="42.273766" lon="-4.311458">
        <ele>809.5</ele>
        <time>2020-08-23T09:46:22Z</time>
        <sat>12</sat>
      </trkpt>
      <trkpt lat="42.273724" lon="-4.311569">
        <ele>809.3</ele>
        <time>2020-08-23T09:46:29Z</time>
        <sat>11</sat>
      </trkpt>
      <trkpt lat="42.273679" lon="-4.311670">
        <ele>809.2</ele>
        <time>2020-08-23T09:46:36Z</time>
        <sat>11</sat>
      </trkpt>
      <trkpt lat="42.273636" lon="-4.311772">
        <ele>809.1</ele>
        <time>2020-08-23T09:46:43Z</time>
        <sat>11</sat>
      </trkpt>
      <trkpt lat="42.273593" lon="-4.311882">
        <ele>808.9</ele>
        <time>2020-08-23T09:46:50Z</time>
        <sat>11</sat>
      </trkpt>
      <trkpt lat="42.273548" lon="-4.311986">
        <ele>808.7</ele>
        <time>2020-08-23T09:46:57Z</time>
        <sat>11</sat>
      </trkpt>
      <trkpt lat="42.273505" lon="-4.312093">
        <ele>808.5</ele>
        <time>2020-08-23T09:47:04Z</time>
        <sat>11</sat>
      </trkpt>
      <trkpt lat="42.273467" lon="-4.312192">
        <ele>808.3</ele>
        <time>2020-08-23T09:47:10Z</time>
        <sat>11</sat>
      </trkpt>
      <trkpt lat="42.273420" lon="-4.312298">
        <ele>808.3</ele>
        <time>2020-08-23T09:47:17Z</time>
        <sat>11</sat>
      </trkpt>
      <trkpt lat="42.273378" lon="-4.312410">
        <ele>808.1</ele>
        <time>2020-08-23T09:47:24Z</time>
        <sat>11</sat>
      </trkpt>
      <trkpt lat="42.273329" lon="-4.312516">
        <ele>807.9</ele>
        <time>2020-08-23T09:47:31Z</time>
        <sat>11</sat>
      </trkpt>
      <trkpt lat="42.273285" lon="-4.312626">
        <ele>807.8</ele>
        <time>2020-08-23T09:47:38Z</time>
        <sat>11</sat>
      </trkpt>
      <trkpt lat="42.273234" lon="-4.312734">
        <ele>807.8</ele>
        <time>2020-08-23T09:47:45Z</time>
        <sat>11</sat>
      </trkpt>
      <trkpt lat="42.273184" lon="-4.312837">
        <ele>807.8</ele>
        <time>2020-08-23T09:47:52Z</time>
        <sat>11</sat>
      </trkpt>
      <trkpt lat="42.273139" lon="-4.312939">
        <ele>808.0</ele>
        <time>2020-08-23T09:47:59Z</time>
        <sat>11</sat>
      </trkpt>
      <trkpt lat="42.273088" lon="-4.313045">
        <ele>808.0</ele>
        <time>2020-08-23T09:48:06Z</time>
        <sat>11</sat>
      </trkpt>
      <trkpt lat="42.273041" lon="-4.313149">
        <ele>808.0</ele>
        <time>2020-08-23T09:48:13Z</time>
        <sat>11</sat>
      </trkpt>
      <trkpt lat="42.273001" lon="-4.313253">
        <ele>808.0</ele>
        <time>2020-08-23T09:48:20Z</time>
        <sat>11</sat>
      </trkpt>
      <trkpt lat="42.272953" lon="-4.313358">
        <ele>808.0</ele>
        <time>2020-08-23T09:48:27Z</time>
        <sat>11</sat>
      </trkpt>
      <trkpt lat="42.272906" lon="-4.313458">
        <ele>808.0</ele>
        <time>2020-08-23T09:48:34Z</time>
        <sat>11</sat>
      </trkpt>
      <trkpt lat="42.272858" lon="-4.313563">
        <ele>808.0</ele>
        <time>2020-08-23T09:48:41Z</time>
        <sat>11</sat>
      </trkpt>
      <trkpt lat="42.272816" lon="-4.313658">
        <ele>808.2</ele>
        <time>2020-08-23T09:48:47Z</time>
        <sat>11</sat>
      </trkpt>
      <trkpt lat="42.272767" lon="-4.313758">
        <ele>808.3</ele>
        <time>2020-08-23T09:48:54Z</time>
        <sat>11</sat>
      </trkpt>
      <trkpt lat="42.272723" lon="-4.313861">
        <ele>808.4</ele>
        <time>2020-08-23T09:49:01Z</time>
        <sat>11</sat>
      </trkpt>
      <trkpt lat="42.272678" lon="-4.313968">
        <ele>808.5</ele>
        <time>2020-08-23T09:49:08Z</time>
        <sat>11</sat>
      </trkpt>
      <trkpt lat="42.272629" lon="-4.314069">
        <ele>808.5</ele>
        <time>2020-08-23T09:49:15Z</time>
        <sat>11</sat>
      </trkpt>
      <trkpt lat="42.272582" lon="-4.314174">
        <ele>808.5</ele>
        <time>2020-08-23T09:49:22Z</time>
        <sat>11</sat>
      </trkpt>
      <trkpt lat="42.272539" lon="-4.314284">
        <ele>808.6</ele>
        <time>2020-08-23T09:49:29Z</time>
        <sat>11</sat>
      </trkpt>
      <trkpt lat="42.272496" lon="-4.314391">
        <ele>808.9</ele>
        <time>2020-08-23T09:49:36Z</time>
        <sat>11</sat>
      </trkpt>
      <trkpt lat="42.272454" lon="-4.314498">
        <ele>808.9</ele>
        <time>2020-08-23T09:49:43Z</time>
        <sat>11</sat>
      </trkpt>
      <trkpt lat="42.272418" lon="-4.314599">
        <ele>808.9</ele>
        <time>2020-08-23T09:49:50Z</time>
        <sat>11</sat>
      </trkpt>
      <trkpt lat="42.272385" lon="-4.314706">
        <ele>808.9</ele>
        <time>2020-08-23T09:49:57Z</time>
        <sat>11</sat>
      </trkpt>
      <trkpt lat="42.272352" lon="-4.314808">
        <ele>808.9</ele>
        <time>2020-08-23T09:50:04Z</time>
        <sat>11</sat>
      </trkpt>
      <trkpt lat="42.272312" lon="-4.314921">
        <ele>808.9</ele>
        <time>2020-08-23T09:50:12Z</time>
        <sat>11</sat>
      </trkpt>
      <trkpt lat="42.272276" lon="-4.315027">
        <ele>808.8</ele>
        <time>2020-08-23T09:50:19Z</time>
        <sat>11</sat>
      </trkpt>
      <trkpt lat="42.272239" lon="-4.315138">
        <ele>808.4</ele>
        <time>2020-08-23T09:50:27Z</time>
        <sat>11</sat>
      </trkpt>
      <trkpt lat="42.272201" lon="-4.315237">
        <ele>808.2</ele>
        <time>2020-08-23T09:50:34Z</time>
        <sat>11</sat>
      </trkpt>
      <trkpt lat="42.272160" lon="-4.315336">
        <ele>807.9</ele>
        <time>2020-08-23T09:50:41Z</time>
        <sat>11</sat>
      </trkpt>
      <trkpt lat="42.272128" lon="-4.315446">
        <ele>807.6</ele>
        <time>2020-08-23T09:50:48Z</time>
        <sat>11</sat>
      </trkpt>
      <trkpt lat="42.272091" lon="-4.315554">
        <ele>807.4</ele>
        <time>2020-08-23T09:50:55Z</time>
        <sat>11</sat>
      </trkpt>
      <trkpt lat="42.272054" lon="-4.315661">
        <ele>807.2</ele>
        <time>2020-08-23T09:51:02Z</time>
        <sat>11</sat>
      </trkpt>
      <trkpt lat="42.272022" lon="-4.315764">
        <ele>806.9</ele>
        <time>2020-08-23T09:51:09Z</time>
        <sat>11</sat>
      </trkpt>
      <trkpt lat="42.271986" lon="-4.315873">
        <ele>806.6</ele>
        <time>2020-08-23T09:51:16Z</time>
        <sat>11</sat>
      </trkpt>
      <trkpt lat="42.271952" lon="-4.315983">
        <ele>806.4</ele>
        <time>2020-08-23T09:51:23Z</time>
        <sat>11</sat>
      </trkpt>
      <trkpt lat="42.271920" lon="-4.316092">
        <ele>805.9</ele>
        <time>2020-08-23T09:51:30Z</time>
        <sat>11</sat>
      </trkpt>
      <trkpt lat="42.271883" lon="-4.316204">
        <ele>805.4</ele>
        <time>2020-08-23T09:51:37Z</time>
        <sat>11</sat>
      </trkpt>
      <trkpt lat="42.271853" lon="-4.316316">
        <ele>805.2</ele>
        <time>2020-08-23T09:51:44Z</time>
        <sat>11</sat>
      </trkpt>
      <trkpt lat="42.271831" lon="-4.316434">
        <ele>804.9</ele>
        <time>2020-08-23T09:51:51Z</time>
        <sat>11</sat>
      </trkpt>
      <trkpt lat="42.271803" lon="-4.316553">
        <ele>804.6</ele>
        <time>2020-08-23T09:51:59Z</time>
        <sat>11</sat>
      </trkpt>
      <trkpt lat="42.271780" lon="-4.316666">
        <ele>804.4</ele>
        <time>2020-08-23T09:52:06Z</time>
        <sat>11</sat>
      </trkpt>
      <trkpt lat="42.271756" lon="-4.316771">
        <ele>804.2</ele>
        <time>2020-08-23T09:52:13Z</time>
        <sat>11</sat>
      </trkpt>
      <trkpt lat="42.271730" lon="-4.316885">
        <ele>804.1</ele>
        <time>2020-08-23T09:52:20Z</time>
        <sat>11</sat>
      </trkpt>
      <trkpt lat="42.271711" lon="-4.317007">
        <ele>803.8</ele>
        <time>2020-08-23T09:52:27Z</time>
        <sat>11</sat>
      </trkpt>
      <trkpt lat="42.271684" lon="-4.317122">
        <ele>803.6</ele>
        <time>2020-08-23T09:52:34Z</time>
        <sat>11</sat>
      </trkpt>
      <trkpt lat="42.271664" lon="-4.317236">
        <ele>803.5</ele>
        <time>2020-08-23T09:52:41Z</time>
        <sat>11</sat>
      </trkpt>
      <trkpt lat="42.271642" lon="-4.317347">
        <ele>803.4</ele>
        <time>2020-08-23T09:52:48Z</time>
        <sat>11</sat>
      </trkpt>
      <trkpt lat="42.271617" lon="-4.317462">
        <ele>803.3</ele>
        <time>2020-08-23T09:52:55Z</time>
        <sat>11</sat>
      </trkpt>
      <trkpt lat="42.271590" lon="-4.317572">
        <ele>803.2</ele>
        <time>2020-08-23T09:53:02Z</time>
        <sat>11</sat>
      </trkpt>
      <trkpt lat="42.271567" lon="-4.317683">
        <ele>803.1</ele>
        <time>2020-08-23T09:53:09Z</time>
        <sat>11</sat>
      </trkpt>
      <trkpt lat="42.271548" lon="-4.317801">
        <ele>802.9</ele>
        <time>2020-08-23T09:53:16Z</time>
        <sat>11</sat>
      </trkpt>
      <trkpt lat="42.271520" lon="-4.317913">
        <ele>802.7</ele>
        <time>2020-08-23T09:53:23Z</time>
        <sat>11</sat>
      </trkpt>
      <trkpt lat="42.271497" lon="-4.318029">
        <ele>802.5</ele>
        <time>2020-08-23T09:53:30Z</time>
        <sat>11</sat>
      </trkpt>
      <trkpt lat="42.271475" lon="-4.318146">
        <ele>802.4</ele>
        <time>2020-08-23T09:53:37Z</time>
        <sat>11</sat>
      </trkpt>
      <trkpt lat="42.271448" lon="-4.318263">
        <ele>802.4</ele>
        <time>2020-08-23T09:53:44Z</time>
        <sat>11</sat>
      </trkpt>
      <trkpt lat="42.271425" lon="-4.318376">
        <ele>802.2</ele>
        <time>2020-08-23T09:53:51Z</time>
        <sat>11</sat>
      </trkpt>
      <trkpt lat="42.271403" lon="-4.318497">
        <ele>802.1</ele>
        <time>2020-08-23T09:53:58Z</time>
        <sat>11</sat>
      </trkpt>
      <trkpt lat="42.271372" lon="-4.318612">
        <ele>802.1</ele>
        <time>2020-08-23T09:54:05Z</time>
        <sat>11</sat>
      </trkpt>
      <trkpt lat="42.271354" lon="-4.318733">
        <ele>802.0</ele>
        <time>2020-08-23T09:54:12Z</time>
        <sat>11</sat>
      </trkpt>
      <trkpt lat="42.271329" lon="-4.318840">
        <ele>802.0</ele>
        <time>2020-08-23T09:54:18Z</time>
        <sat>11</sat>
      </trkpt>
      <trkpt lat="42.271300" lon="-4.318959">
        <ele>801.9</ele>
        <time>2020-08-23T09:54:25Z</time>
        <sat>11</sat>
      </trkpt>
      <trkpt lat="42.271274" lon="-4.319081">
        <ele>801.7</ele>
        <time>2020-08-23T09:54:32Z</time>
        <sat>11</sat>
      </trkpt>
      <trkpt lat="42.271244" lon="-4.319201">
        <ele>801.7</ele>
        <time>2020-08-23T09:54:39Z</time>
        <sat>11</sat>
      </trkpt>
      <trkpt lat="42.271235" lon="-4.319311">
        <ele>801.6</ele>
        <time>2020-08-23T09:54:45Z</time>
        <sat>11</sat>
      </trkpt>
      <trkpt lat="42.271204" lon="-4.319428">
        <ele>801.6</ele>
        <time>2020-08-23T09:54:52Z</time>
        <sat>11</sat>
      </trkpt>
      <trkpt lat="42.271186" lon="-4.319535">
        <ele>801.6</ele>
        <time>2020-08-23T09:54:58Z</time>
        <sat>11</sat>
      </trkpt>
      <trkpt lat="42.271157" lon="-4.319655">
        <ele>801.6</ele>
        <time>2020-08-23T09:55:05Z</time>
        <sat>11</sat>
      </trkpt>
      <trkpt lat="42.271132" lon="-4.319777">
        <ele>801.4</ele>
        <time>2020-08-23T09:55:12Z</time>
        <sat>11</sat>
      </trkpt>
      <trkpt lat="42.271109" lon="-4.319894">
        <ele>801.4</ele>
        <time>2020-08-23T09:55:19Z</time>
        <sat>11</sat>
      </trkpt>
      <trkpt lat="42.271082" lon="-4.320011">
        <ele>801.4</ele>
        <time>2020-08-23T09:55:26Z</time>
        <sat>11</sat>
      </trkpt>
      <trkpt lat="42.271056" lon="-4.320122">
        <ele>801.4</ele>
        <time>2020-08-23T09:55:33Z</time>
        <sat>11</sat>
      </trkpt>
      <trkpt lat="42.271038" lon="-4.320235">
        <ele>801.2</ele>
        <time>2020-08-23T09:55:40Z</time>
        <sat>11</sat>
      </trkpt>
      <trkpt lat="42.271010" lon="-4.320354">
        <ele>801.2</ele>
        <time>2020-08-23T09:55:47Z</time>
        <sat>11</sat>
      </trkpt>
      <trkpt lat="42.270988" lon="-4.320474">
        <ele>801.0</ele>
        <time>2020-08-23T09:55:54Z</time>
        <sat>11</sat>
      </trkpt>
      <trkpt lat="42.270969" lon="-4.320586">
        <ele>801.0</ele>
        <time>2020-08-23T09:56:01Z</time>
        <sat>11</sat>
      </trkpt>
      <trkpt lat="42.270952" lon="-4.320695">
        <ele>801.0</ele>
        <time>2020-08-23T09:56:14Z</time>
        <sat>11</sat>
      </trkpt>
      <trkpt lat="42.270927" lon="-4.320811">
        <ele>801.1</ele>
        <time>2020-08-23T09:56:23Z</time>
        <sat>11</sat>
      </trkpt>
      <trkpt lat="42.270904" lon="-4.320921">
        <ele>801.2</ele>
        <time>2020-08-23T09:56:31Z</time>
        <sat>11</sat>
      </trkpt>
      <trkpt lat="42.270876" lon="-4.321032">
        <ele>801.2</ele>
        <time>2020-08-23T09:56:39Z</time>
        <sat>11</sat>
      </trkpt>
      <trkpt lat="42.270855" lon="-4.321141">
        <ele>801.2</ele>
        <time>2020-08-23T09:56:46Z</time>
        <sat>11</sat>
      </trkpt>
      <trkpt lat="42.270834" lon="-4.321253">
        <ele>801.1</ele>
        <time>2020-08-23T09:56:53Z</time>
        <sat>11</sat>
      </trkpt>
      <trkpt lat="42.270810" lon="-4.321367">
        <ele>801.1</ele>
        <time>2020-08-23T09:57:00Z</time>
        <sat>11</sat>
      </trkpt>
      <trkpt lat="42.270788" lon="-4.321481">
        <ele>801.1</ele>
        <time>2020-08-23T09:57:07Z</time>
        <sat>11</sat>
      </trkpt>
      <trkpt lat="42.270760" lon="-4.321593">
        <ele>801.0</ele>
        <time>2020-08-23T09:57:14Z</time>
        <sat>11</sat>
      </trkpt>
      <trkpt lat="42.270737" lon="-4.321711">
        <ele>801.0</ele>
        <time>2020-08-23T09:57:21Z</time>
        <sat>11</sat>
      </trkpt>
      <trkpt lat="42.270716" lon="-4.321832">
        <ele>801.0</ele>
        <time>2020-08-23T09:57:28Z</time>
        <sat>11</sat>
      </trkpt>
      <trkpt lat="42.270691" lon="-4.321951">
        <ele>801.1</ele>
        <time>2020-08-23T09:57:35Z</time>
        <sat>11</sat>
      </trkpt>
      <trkpt lat="42.270665" lon="-4.322065">
        <ele>801.1</ele>
        <time>2020-08-23T09:57:42Z</time>
        <sat>11</sat>
      </trkpt>
      <trkpt lat="42.270641" lon="-4.322180">
        <ele>801.1</ele>
        <time>2020-08-23T09:57:49Z</time>
        <sat>11</sat>
      </trkpt>
      <trkpt lat="42.270618" lon="-4.322301">
        <ele>801.2</ele>
        <time>2020-08-23T09:57:56Z</time>
        <sat>11</sat>
      </trkpt>
      <trkpt lat="42.270592" lon="-4.322416">
        <ele>801.2</ele>
        <time>2020-08-23T09:58:03Z</time>
        <sat>11</sat>
      </trkpt>
      <trkpt lat="42.270568" lon="-4.322537">
        <ele>801.2</ele>
        <time>2020-08-23T09:58:10Z</time>
        <sat>11</sat>
      </trkpt>
      <trkpt lat="42.270545" lon="-4.322645">
        <ele>801.2</ele>
        <time>2020-08-23T09:58:16Z</time>
        <sat>11</sat>
      </trkpt>
      <trkpt lat="42.270518" lon="-4.322763">
        <ele>801.2</ele>
        <time>2020-08-23T09:58:23Z</time>
        <sat>11</sat>
      </trkpt>
      <trkpt lat="42.270499" lon="-4.322877">
        <ele>801.3</ele>
        <time>2020-08-23T09:58:29Z</time>
        <sat>11</sat>
      </trkpt>
      <trkpt lat="42.270467" lon="-4.322996">
        <ele>801.4</ele>
        <time>2020-08-23T09:58:36Z</time>
        <sat>11</sat>
      </trkpt>
      <trkpt lat="42.270443" lon="-4.323114">
        <ele>801.4</ele>
        <time>2020-08-23T09:58:43Z</time>
        <sat>11</sat>
      </trkpt>
      <trkpt lat="42.270419" lon="-4.323235">
        <ele>801.4</ele>
        <time>2020-08-23T09:58:50Z</time>
        <sat>11</sat>
      </trkpt>
      <trkpt lat="42.270390" lon="-4.323342">
        <ele>801.4</ele>
        <time>2020-08-23T09:58:57Z</time>
        <sat>11</sat>
      </trkpt>
      <trkpt lat="42.270373" lon="-4.323457">
        <ele>801.3</ele>
        <time>2020-08-23T09:59:07Z</time>
        <sat>11</sat>
      </trkpt>
      <trkpt lat="42.270345" lon="-4.323575">
        <ele>801.3</ele>
        <time>2020-08-23T09:59:15Z</time>
        <sat>11</sat>
      </trkpt>
      <trkpt lat="42.270324" lon="-4.323683">
        <ele>801.4</ele>
        <time>2020-08-23T09:59:22Z</time>
        <sat>11</sat>
      </trkpt>
      <trkpt lat="42.270294" lon="-4.323792">
        <ele>801.9</ele>
        <time>2020-08-23T09:59:57Z</time>
        <sat>11</sat>
      </trkpt>
      <trkpt lat="42.270271" lon="-4.323905">
        <ele>801.8</ele>
        <time>2020-08-23T10:00:05Z</time>
        <sat>11</sat>
      </trkpt>
      <trkpt lat="42.270243" lon="-4.324011">
        <ele>801.6</ele>
        <time>2020-08-23T10:00:12Z</time>
        <sat>11</sat>
      </trkpt>
      <trkpt lat="42.270215" lon="-4.324114">
        <ele>801.7</ele>
        <time>2020-08-23T10:00:19Z</time>
        <sat>11</sat>
      </trkpt>
      <trkpt lat="42.270177" lon="-4.324227">
        <ele>801.8</ele>
        <time>2020-08-23T10:00:29Z</time>
        <sat>11</sat>
      </trkpt>
      <trkpt lat="42.270151" lon="-4.324344">
        <ele>801.8</ele>
        <time>2020-08-23T10:00:36Z</time>
        <sat>11</sat>
      </trkpt>
      <trkpt lat="42.270137" lon="-4.324462">
        <ele>801.7</ele>
        <time>2020-08-23T10:00:45Z</time>
        <sat>11</sat>
      </trkpt>
      <trkpt lat="42.270111" lon="-4.324570">
        <ele>801.6</ele>
        <time>2020-08-23T10:00:52Z</time>
        <sat>11</sat>
      </trkpt>
      <trkpt lat="42.270083" lon="-4.324683">
        <ele>801.5</ele>
        <time>2020-08-23T10:01:01Z</time>
        <sat>11</sat>
      </trkpt>
      <trkpt lat="42.270051" lon="-4.324791">
        <ele>801.3</ele>
        <time>2020-08-23T10:01:08Z</time>
        <sat>11</sat>
      </trkpt>
      <trkpt lat="42.270020" lon="-4.324896">
        <ele>801.1</ele>
        <time>2020-08-23T10:01:15Z</time>
        <sat>11</sat>
      </trkpt>
      <trkpt lat="42.269985" lon="-4.324996">
        <ele>801.0</ele>
        <time>2020-08-23T10:01:22Z</time>
        <sat>11</sat>
      </trkpt>
      <trkpt lat="42.269954" lon="-4.325099">
        <ele>800.9</ele>
        <time>2020-08-23T10:01:29Z</time>
        <sat>11</sat>
      </trkpt>
      <trkpt lat="42.269920" lon="-4.325215">
        <ele>800.6</ele>
        <time>2020-08-23T10:01:36Z</time>
        <sat>11</sat>
      </trkpt>
      <trkpt lat="42.269888" lon="-4.325326">
        <ele>800.3</ele>
        <time>2020-08-23T10:01:43Z</time>
        <sat>11</sat>
      </trkpt>
      <trkpt lat="42.269853" lon="-4.325429">
        <ele>800.1</ele>
        <time>2020-08-23T10:01:50Z</time>
        <sat>11</sat>
      </trkpt>
      <trkpt lat="42.269816" lon="-4.325532">
        <ele>800.0</ele>
        <time>2020-08-23T10:01:57Z</time>
        <sat>11</sat>
      </trkpt>
      <trkpt lat="42.269784" lon="-4.325637">
        <ele>799.7</ele>
        <time>2020-08-23T10:02:04Z</time>
        <sat>11</sat>
      </trkpt>
      <trkpt lat="42.269751" lon="-4.325743">
        <ele>799.8</ele>
        <time>2020-08-23T10:02:11Z</time>
        <sat>11</sat>
      </trkpt>
      <trkpt lat="42.269714" lon="-4.325842">
        <ele>799.6</ele>
        <time>2020-08-23T10:02:18Z</time>
        <sat>11</sat>
      </trkpt>
      <trkpt lat="42.269678" lon="-4.325944">
        <ele>799.4</ele>
        <time>2020-08-23T10:02:25Z</time>
        <sat>11</sat>
      </trkpt>
      <trkpt lat="42.269646" lon="-4.326052">
        <ele>799.1</ele>
        <time>2020-08-23T10:02:32Z</time>
        <sat>11</sat>
      </trkpt>
      <trkpt lat="42.269607" lon="-4.326156">
        <ele>798.9</ele>
        <time>2020-08-23T10:02:39Z</time>
        <sat>11</sat>
      </trkpt>
      <trkpt lat="42.269567" lon="-4.326257">
        <ele>798.9</ele>
        <time>2020-08-23T10:02:46Z</time>
        <sat>11</sat>
      </trkpt>
      <trkpt lat="42.269528" lon="-4.326361">
        <ele>798.3</ele>
        <time>2020-08-23T10:02:53Z</time>
        <sat>11</sat>
      </trkpt>
      <trkpt lat="42.269491" lon="-4.326470">
        <ele>798.7</ele>
        <time>2020-08-23T10:03:00Z</time>
        <sat>11</sat>
      </trkpt>
      <trkpt lat="42.269450" lon="-4.326578">
        <ele>798.9</ele>
        <time>2020-08-23T10:03:07Z</time>
        <sat>11</sat>
      </trkpt>
      <trkpt lat="42.269408" lon="-4.326673">
        <ele>798.9</ele>
        <time>2020-08-23T10:03:16Z</time>
        <sat>11</sat>
      </trkpt>
      <trkpt lat="42.269367" lon="-4.326773">
        <ele>797.5</ele>
        <time>2020-08-23T10:03:25Z</time>
        <sat>11</sat>
      </trkpt>
      <trkpt lat="42.269333" lon="-4.326873">
        <ele>798.3</ele>
        <time>2020-08-23T10:03:46Z</time>
        <sat>11</sat>
      </trkpt>
      <trkpt lat="42.269305" lon="-4.326976">
        <ele>798.1</ele>
        <time>2020-08-23T10:04:19Z</time>
        <sat>12</sat>
      </trkpt>
      <trkpt lat="42.269271" lon="-4.327077">
        <ele>797.8</ele>
        <time>2020-08-23T10:04:26Z</time>
        <sat>12</sat>
      </trkpt>
      <trkpt lat="42.269230" lon="-4.327187">
        <ele>786.2</ele>
        <time>2020-08-23T10:04:34Z</time>
        <sat>12</sat>
      </trkpt>
      <trkpt lat="42.269198" lon="-4.327294">
        <ele>798.3</ele>
        <time>2020-08-23T10:04:41Z</time>
        <sat>12</sat>
      </trkpt>
      <trkpt lat="42.269151" lon="-4.327387">
        <ele>799.9</ele>
        <time>2020-08-23T10:04:48Z</time>
        <sat>12</sat>
      </trkpt>
      <trkpt lat="42.269111" lon="-4.327491">
        <ele>797.5</ele>
        <time>2020-08-23T10:04:55Z</time>
        <sat>11</sat>
      </trkpt>
      <trkpt lat="42.269073" lon="-4.327605">
        <ele>797.5</ele>
        <time>2020-08-23T10:05:02Z</time>
        <sat>11</sat>
      </trkpt>
      <trkpt lat="42.269039" lon="-4.327707">
        <ele>795.9</ele>
        <time>2020-08-23T10:05:08Z</time>
        <sat>12</sat>
      </trkpt>
      <trkpt lat="42.268997" lon="-4.327811">
        <ele>796.1</ele>
        <time>2020-08-23T10:05:15Z</time>
        <sat>12</sat>
      </trkpt>
      <trkpt lat="42.268954" lon="-4.327919">
        <ele>795.2</ele>
        <time>2020-08-23T10:05:22Z</time>
        <sat>12</sat>
      </trkpt>
      <trkpt lat="42.268919" lon="-4.328028">
        <ele>794.6</ele>
        <time>2020-08-23T10:05:29Z</time>
        <sat>12</sat>
      </trkpt>
      <trkpt lat="42.268870" lon="-4.328131">
        <ele>794.2</ele>
        <time>2020-08-23T10:05:36Z</time>
        <sat>12</sat>
      </trkpt>
      <trkpt lat="42.268822" lon="-4.328231">
        <ele>794.7</ele>
        <time>2020-08-23T10:05:44Z</time>
        <sat>12</sat>
      </trkpt>
      <trkpt lat="42.268784" lon="-4.328349">
        <ele>794.6</ele>
        <time>2020-08-23T10:05:53Z</time>
        <sat>12</sat>
      </trkpt>
      <trkpt lat="42.268749" lon="-4.328456">
        <ele>794.7</ele>
        <time>2020-08-23T10:06:00Z</time>
        <sat>12</sat>
      </trkpt>
      <trkpt lat="42.268712" lon="-4.328563">
        <ele>794.1</ele>
        <time>2020-08-23T10:06:07Z</time>
        <sat>12</sat>
      </trkpt>
      <trkpt lat="42.268676" lon="-4.328674">
        <ele>794.7</ele>
        <time>2020-08-23T10:06:14Z</time>
        <sat>11</sat>
      </trkpt>
      <trkpt lat="42.268629" lon="-4.328781">
        <ele>794.8</ele>
        <time>2020-08-23T10:06:22Z</time>
        <sat>11</sat>
      </trkpt>
      <trkpt lat="42.268591" lon="-4.328889">
        <ele>794.5</ele>
        <time>2020-08-23T10:06:30Z</time>
        <sat>12</sat>
      </trkpt>
      <trkpt lat="42.268552" lon="-4.328995">
        <ele>794.1</ele>
        <time>2020-08-23T10:06:37Z</time>
        <sat>12</sat>
      </trkpt>
      <trkpt lat="42.268509" lon="-4.329107">
        <ele>794.8</ele>
        <time>2020-08-23T10:06:45Z</time>
        <sat>12</sat>
      </trkpt>
      <trkpt lat="42.268463" lon="-4.329213">
        <ele>795.1</ele>
        <time>2020-08-23T10:06:52Z</time>
        <sat>12</sat>
      </trkpt>
      <trkpt lat="42.268424" lon="-4.329319">
        <ele>794.8</ele>
        <time>2020-08-23T10:06:59Z</time>
        <sat>12</sat>
      </trkpt>
      <trkpt lat="42.268379" lon="-4.329423">
        <ele>794.5</ele>
        <time>2020-08-23T10:07:06Z</time>
        <sat>12</sat>
      </trkpt>
      <trkpt lat="42.268342" lon="-4.329538">
        <ele>794.4</ele>
        <time>2020-08-23T10:07:13Z</time>
        <sat>12</sat>
      </trkpt>
      <trkpt lat="42.268302" lon="-4.329648">
        <ele>794.3</ele>
        <time>2020-08-23T10:07:20Z</time>
        <sat>11</sat>
      </trkpt>
      <trkpt lat="42.268263" lon="-4.329762">
        <ele>794.2</ele>
        <time>2020-08-23T10:07:27Z</time>
        <sat>12</sat>
      </trkpt>
      <trkpt lat="42.268225" lon="-4.329859">
        <ele>794.1</ele>
        <time>2020-08-23T10:07:37Z</time>
        <sat>11</sat>
      </trkpt>
      <trkpt lat="42.268187" lon="-4.329966">
        <ele>793.9</ele>
        <time>2020-08-23T10:07:45Z</time>
        <sat>12</sat>
      </trkpt>
      <trkpt lat="42.268147" lon="-4.330066">
        <ele>793.9</ele>
        <time>2020-08-23T10:07:51Z</time>
        <sat>12</sat>
      </trkpt>
      <trkpt lat="42.268108" lon="-4.330162">
        <ele>793.9</ele>
        <time>2020-08-23T10:07:57Z</time>
        <sat>12</sat>
      </trkpt>
      <trkpt lat="42.268070" lon="-4.330263">
        <ele>793.8</ele>
        <time>2020-08-23T10:08:04Z</time>
        <sat>12</sat>
      </trkpt>
      <trkpt lat="42.268028" lon="-4.330358">
        <ele>793.9</ele>
        <time>2020-08-23T10:08:18Z</time>
        <sat>11</sat>
      </trkpt>
      <trkpt lat="42.267989" lon="-4.330455">
        <ele>793.9</ele>
        <time>2020-08-23T10:08:24Z</time>
        <sat>12</sat>
      </trkpt>
      <trkpt lat="42.267937" lon="-4.330559">
        <ele>793.8</ele>
        <time>2020-08-23T10:08:31Z</time>
        <sat>11</sat>
      </trkpt>
      <trkpt lat="42.267902" lon="-4.330660">
        <ele>793.6</ele>
        <time>2020-08-23T10:08:37Z</time>
        <sat>11</sat>
      </trkpt>
      <trkpt lat="42.267853" lon="-4.330759">
        <ele>793.5</ele>
        <time>2020-08-23T10:08:44Z</time>
        <sat>12</sat>
      </trkpt>
      <trkpt lat="42.267810" lon="-4.330858">
        <ele>793.4</ele>
        <time>2020-08-23T10:08:51Z</time>
        <sat>11</sat>
      </trkpt>
      <trkpt lat="42.267769" lon="-4.330955">
        <ele>793.5</ele>
        <time>2020-08-23T10:10:36Z</time>
        <sat>11</sat>
      </trkpt>
      <trkpt lat="42.267735" lon="-4.331057">
        <ele>793.6</ele>
        <time>2020-08-23T10:10:43Z</time>
        <sat>12</sat>
      </trkpt>
      <trkpt lat="42.267691" lon="-4.331153">
        <ele>793.6</ele>
        <time>2020-08-23T10:10:50Z</time>
        <sat>12</sat>
      </trkpt>
      <trkpt lat="42.267644" lon="-4.331255">
        <ele>793.4</ele>
        <time>2020-08-23T10:10:57Z</time>
        <sat>12</sat>
      </trkpt>
      <trkpt lat="42.267601" lon="-4.331359">
        <ele>792.9</ele>
        <time>2020-08-23T10:11:05Z</time>
        <sat>12</sat>
      </trkpt>
      <trkpt lat="42.267557" lon="-4.331455">
        <ele>793.0</ele>
        <time>2020-08-23T10:11:12Z</time>
        <sat>12</sat>
      </trkpt>
      <trkpt lat="42.267512" lon="-4.331552">
        <ele>792.8</ele>
        <time>2020-08-23T10:11:19Z</time>
        <sat>12</sat>
      </trkpt>
      <trkpt lat="42.267470" lon="-4.331646">
        <ele>792.4</ele>
        <time>2020-08-23T10:11:26Z</time>
        <sat>12</sat>
      </trkpt>
      <trkpt lat="42.267428" lon="-4.331741">
        <ele>792.5</ele>
        <time>2020-08-23T10:11:33Z</time>
        <sat>11</sat>
      </trkpt>
      <trkpt lat="42.267385" lon="-4.331837">
        <ele>792.5</ele>
        <time>2020-08-23T10:11:40Z</time>
        <sat>11</sat>
      </trkpt>
      <trkpt lat="42.267337" lon="-4.331944">
        <ele>792.5</ele>
        <time>2020-08-23T10:11:47Z</time>
        <sat>12</sat>
      </trkpt>
      <trkpt lat="42.267290" lon="-4.332041">
        <ele>792.3</ele>
        <time>2020-08-23T10:11:54Z</time>
        <sat>11</sat>
      </trkpt>
      <trkpt lat="42.267246" lon="-4.332149">
        <ele>792.1</ele>
        <time>2020-08-23T10:12:01Z</time>
        <sat>11</sat>
      </trkpt>
      <trkpt lat="42.267199" lon="-4.332252">
        <ele>791.9</ele>
        <time>2020-08-23T10:12:08Z</time>
        <sat>11</sat>
      </trkpt>
      <trkpt lat="42.267151" lon="-4.332347">
        <ele>791.8</ele>
        <time>2020-08-23T10:12:15Z</time>
        <sat>12</sat>
      </trkpt>
      <trkpt lat="42.267107" lon="-4.332452">
        <ele>791.7</ele>
        <time>2020-08-23T10:12:22Z</time>
        <sat>12</sat>
      </trkpt>
      <trkpt lat="42.267063" lon="-4.332556">
        <ele>791.6</ele>
        <time>2020-08-23T10:12:29Z</time>
        <sat>12</sat>
      </trkpt>
      <trkpt lat="42.267013" lon="-4.332653">
        <ele>791.5</ele>
        <time>2020-08-23T10:12:36Z</time>
        <sat>12</sat>
      </trkpt>
      <trkpt lat="42.266970" lon="-4.332755">
        <ele>791.3</ele>
        <time>2020-08-23T10:12:43Z</time>
        <sat>11</sat>
      </trkpt>
      <trkpt lat="42.266924" lon="-4.332854">
        <ele>791.3</ele>
        <time>2020-08-23T10:12:50Z</time>
        <sat>12</sat>
      </trkpt>
      <trkpt lat="42.266878" lon="-4.332957">
        <ele>791.2</ele>
        <time>2020-08-23T10:12:58Z</time>
        <sat>11</sat>
      </trkpt>
      <trkpt lat="42.266833" lon="-4.333052">
        <ele>791.1</ele>
        <time>2020-08-23T10:13:05Z</time>
        <sat>11</sat>
      </trkpt>
      <trkpt lat="42.266785" lon="-4.333149">
        <ele>790.9</ele>
        <time>2020-08-23T10:13:12Z</time>
        <sat>12</sat>
      </trkpt>
      <trkpt lat="42.266742" lon="-4.333241">
        <ele>790.7</ele>
        <time>2020-08-23T10:13:19Z</time>
        <sat>12</sat>
      </trkpt>
      <trkpt lat="42.266689" lon="-4.333338">
        <ele>790.5</ele>
        <time>2020-08-23T10:13:27Z</time>
        <sat>12</sat>
      </trkpt>
      <trkpt lat="42.266632" lon="-4.333420">
        <ele>790.4</ele>
        <time>2020-08-23T10:13:36Z</time>
        <sat>12</sat>
      </trkpt>
      <trkpt lat="42.266611" lon="-4.333529">
        <ele>789.9</ele>
        <time>2020-08-23T10:13:51Z</time>
        <sat>12</sat>
      </trkpt>
      <trkpt lat="42.266557" lon="-4.333624">
        <ele>789.5</ele>
        <time>2020-08-23T10:14:33Z</time>
        <sat>11</sat>
      </trkpt>
      <trkpt lat="42.266514" lon="-4.333721">
        <ele>789.8</ele>
        <time>2020-08-23T10:14:43Z</time>
        <sat>11</sat>
      </trkpt>
      <trkpt lat="42.266471" lon="-4.333815">
        <ele>789.7</ele>
        <time>2020-08-23T10:14:50Z</time>
        <sat>11</sat>
      </trkpt>
      <trkpt lat="42.266426" lon="-4.333919">
        <ele>789.9</ele>
        <time>2020-08-23T10:14:58Z</time>
        <sat>11</sat>
      </trkpt>
      <trkpt lat="42.266379" lon="-4.334029">
        <ele>789.9</ele>
        <time>2020-08-23T10:15:06Z</time>
        <sat>11</sat>
      </trkpt>
      <trkpt lat="42.266332" lon="-4.334126">
        <ele>789.9</ele>
        <time>2020-08-23T10:15:13Z</time>
        <sat>11</sat>
      </trkpt>
      <trkpt lat="42.266281" lon="-4.334223">
        <ele>789.9</ele>
        <time>2020-08-23T10:15:20Z</time>
        <sat>10</sat>
      </trkpt>
      <trkpt lat="42.266232" lon="-4.334323">
        <ele>790.0</ele>
        <time>2020-08-23T10:15:27Z</time>
        <sat>10</sat>
      </trkpt>
      <trkpt lat="42.266183" lon="-4.334421">
        <ele>790.0</ele>
        <time>2020-08-23T10:15:34Z</time>
        <sat>11</sat>
      </trkpt>
      <trkpt lat="42.266142" lon="-4.334527">
        <ele>789.9</ele>
        <time>2020-08-23T10:15:41Z</time>
        <sat>9</sat>
      </trkpt>
      <trkpt lat="42.266097" lon="-4.334636">
        <ele>789.9</ele>
        <time>2020-08-23T10:15:48Z</time>
        <sat>9</sat>
      </trkpt>
      <trkpt lat="42.266051" lon="-4.334739">
        <ele>789.8</ele>
        <time>2020-08-23T10:15:55Z</time>
        <sat>10</sat>
      </trkpt>
      <trkpt lat="42.266012" lon="-4.334849">
        <ele>789.8</ele>
        <time>2020-08-23T10:16:02Z</time>
        <sat>10</sat>
      </trkpt>
      <trkpt lat="42.265969" lon="-4.334944">
        <ele>789.8</ele>
        <time>2020-08-23T10:16:08Z</time>
        <sat>9</sat>
      </trkpt>
      <trkpt lat="42.265927" lon="-4.335052">
        <ele>789.7</ele>
        <time>2020-08-23T10:16:15Z</time>
        <sat>10</sat>
      </trkpt>
      <trkpt lat="42.265878" lon="-4.335141">
        <ele>789.7</ele>
        <time>2020-08-23T10:16:22Z</time>
        <sat>10</sat>
      </trkpt>
      <trkpt lat="42.265845" lon="-4.335256">
        <ele>789.5</ele>
        <time>2020-08-23T10:16:33Z</time>
        <sat>10</sat>
      </trkpt>
      <trkpt lat="42.265803" lon="-4.335349">
        <ele>789.4</ele>
        <time>2020-08-23T10:16:39Z</time>
        <sat>10</sat>
      </trkpt>
      <trkpt lat="42.265751" lon="-4.335439">
        <ele>789.1</ele>
        <time>2020-08-23T10:16:46Z</time>
        <sat>10</sat>
      </trkpt>
      <trkpt lat="42.265710" lon="-4.335543">
        <ele>789.1</ele>
        <time>2020-08-23T10:16:53Z</time>
        <sat>10</sat>
      </trkpt>
      <trkpt lat="42.265666" lon="-4.335647">
        <ele>788.9</ele>
        <time>2020-08-23T10:17:00Z</time>
        <sat>9</sat>
      </trkpt>
      <trkpt lat="42.265621" lon="-4.335744">
        <ele>788.6</ele>
        <time>2020-08-23T10:17:07Z</time>
        <sat>9</sat>
      </trkpt>
      <trkpt lat="42.265574" lon="-4.335845">
        <ele>788.6</ele>
        <time>2020-08-23T10:17:14Z</time>
        <sat>9</sat>
      </trkpt>
      <trkpt lat="42.265530" lon="-4.335952">
        <ele>788.6</ele>
        <time>2020-08-23T10:17:21Z</time>
        <sat>9</sat>
      </trkpt>
      <trkpt lat="42.265481" lon="-4.336055">
        <ele>788.7</ele>
        <time>2020-08-23T10:17:28Z</time>
        <sat>10</sat>
      </trkpt>
      <trkpt lat="42.265434" lon="-4.336154">
        <ele>788.8</ele>
        <time>2020-08-23T10:17:35Z</time>
        <sat>9</sat>
      </trkpt>
      <trkpt lat="42.265389" lon="-4.336262">
        <ele>788.7</ele>
        <time>2020-08-23T10:17:42Z</time>
        <sat>10</sat>
      </trkpt>
      <trkpt lat="42.265342" lon="-4.336369">
        <ele>788.9</ele>
        <time>2020-08-23T10:17:49Z</time>
        <sat>10</sat>
      </trkpt>
      <trkpt lat="42.265295" lon="-4.336470">
        <ele>789.0</ele>
        <time>2020-08-23T10:17:56Z</time>
        <sat>10</sat>
      </trkpt>
      <trkpt lat="42.265245" lon="-4.336569">
        <ele>789.1</ele>
        <time>2020-08-23T10:18:03Z</time>
        <sat>10</sat>
      </trkpt>
      <trkpt lat="42.265194" lon="-4.336677">
        <ele>789.2</ele>
        <time>2020-08-23T10:18:10Z</time>
        <sat>10</sat>
      </trkpt>
      <trkpt lat="42.265141" lon="-4.336775">
        <ele>789.1</ele>
        <time>2020-08-23T10:18:17Z</time>
        <sat>10</sat>
      </trkpt>
      <trkpt lat="42.265094" lon="-4.336874">
        <ele>789.1</ele>
        <time>2020-08-23T10:18:24Z</time>
        <sat>10</sat>
      </trkpt>
      <trkpt lat="42.265044" lon="-4.336972">
        <ele>789.0</ele>
        <time>2020-08-23T10:18:31Z</time>
        <sat>10</sat>
      </trkpt>
      <trkpt lat="42.264995" lon="-4.337066">
        <ele>789.1</ele>
        <time>2020-08-23T10:18:38Z</time>
        <sat>10</sat>
      </trkpt>
      <trkpt lat="42.264947" lon="-4.337160">
        <ele>789.2</ele>
        <time>2020-08-23T10:18:45Z</time>
        <sat>10</sat>
      </trkpt>
      <trkpt lat="42.264900" lon="-4.337256">
        <ele>789.3</ele>
        <time>2020-08-23T10:18:52Z</time>
        <sat>10</sat>
      </trkpt>
      <trkpt lat="42.264855" lon="-4.337353">
        <ele>789.4</ele>
        <time>2020-08-23T10:18:59Z</time>
        <sat>9</sat>
      </trkpt>
      <trkpt lat="42.264808" lon="-4.337450">
        <ele>789.5</ele>
        <time>2020-08-23T10:19:06Z</time>
        <sat>10</sat>
      </trkpt>
      <trkpt lat="42.264756" lon="-4.337550">
        <ele>789.5</ele>
        <time>2020-08-23T10:19:13Z</time>
        <sat>9</sat>
      </trkpt>
      <trkpt lat="42.264704" lon="-4.337649">
        <ele>789.7</ele>
        <time>2020-08-23T10:19:20Z</time>
        <sat>10</sat>
      </trkpt>
      <trkpt lat="42.264654" lon="-4.337742">
        <ele>789.8</ele>
        <time>2020-08-23T10:19:27Z</time>
        <sat>10</sat>
      </trkpt>
      <trkpt lat="42.264606" lon="-4.337841">
        <ele>789.9</ele>
        <time>2020-08-23T10:19:34Z</time>
        <sat>10</sat>
      </trkpt>
      <trkpt lat="42.264559" lon="-4.337940">
        <ele>790.1</ele>
        <time>2020-08-23T10:19:41Z</time>
        <sat>10</sat>
      </trkpt>
      <trkpt lat="42.264506" lon="-4.338041">
        <ele>790.2</ele>
        <time>2020-08-23T10:19:48Z</time>
        <sat>10</sat>
      </trkpt>
      <trkpt lat="42.264456" lon="-4.338138">
        <ele>790.3</ele>
        <time>2020-08-23T10:19:55Z</time>
        <sat>10</sat>
      </trkpt>
      <trkpt lat="42.264413" lon="-4.338232">
        <ele>790.5</ele>
        <time>2020-08-23T10:20:01Z</time>
        <sat>10</sat>
      </trkpt>
      <trkpt lat="42.264357" lon="-4.338332">
        <ele>790.6</ele>
        <time>2020-08-23T10:20:08Z</time>
        <sat>10</sat>
      </trkpt>
      <trkpt lat="42.264310" lon="-4.338430">
        <ele>790.7</ele>
        <time>2020-08-23T10:20:15Z</time>
        <sat>9</sat>
      </trkpt>
      <trkpt lat="42.264268" lon="-4.338530">
        <ele>790.8</ele>
        <time>2020-08-23T10:20:22Z</time>
        <sat>9</sat>
      </trkpt>
      <trkpt lat="42.264219" lon="-4.338630">
        <ele>790.9</ele>
        <time>2020-08-23T10:20:29Z</time>
        <sat>10</sat>
      </trkpt>
      <trkpt lat="42.264170" lon="-4.338729">
        <ele>790.8</ele>
        <time>2020-08-23T10:20:36Z</time>
        <sat>10</sat>
      </trkpt>
      <trkpt lat="42.264120" lon="-4.338826">
        <ele>790.7</ele>
        <time>2020-08-23T10:20:43Z</time>
        <sat>10</sat>
      </trkpt>
      <trkpt lat="42.264073" lon="-4.338930">
        <ele>790.7</ele>
        <time>2020-08-23T10:20:50Z</time>
        <sat>10</sat>
      </trkpt>
      <trkpt lat="42.264023" lon="-4.339023">
        <ele>790.6</ele>
        <time>2020-08-23T10:20:57Z</time>
        <sat>10</sat>
      </trkpt>
      <trkpt lat="42.263970" lon="-4.339122">
        <ele>790.6</ele>
        <time>2020-08-23T10:21:04Z</time>
        <sat>10</sat>
      </trkpt>
      <trkpt lat="42.263924" lon="-4.339223">
        <ele>790.7</ele>
        <time>2020-08-23T10:21:11Z</time>
        <sat>10</sat>
      </trkpt>
      <trkpt lat="42.263875" lon="-4.339319">
        <ele>790.8</ele>
        <time>2020-08-23T10:21:18Z</time>
        <sat>10</sat>
      </trkpt>
      <trkpt lat="42.263824" lon="-4.339417">
        <ele>790.9</ele>
        <time>2020-08-23T10:21:25Z</time>
        <sat>10</sat>
      </trkpt>
      <trkpt lat="42.263770" lon="-4.339511">
        <ele>791.0</ele>
        <time>2020-08-23T10:21:32Z</time>
        <sat>10</sat>
      </trkpt>
      <trkpt lat="42.263719" lon="-4.339612">
        <ele>791.2</ele>
        <time>2020-08-23T10:21:39Z</time>
        <sat>10</sat>
      </trkpt>
      <trkpt lat="42.263661" lon="-4.339713">
        <ele>791.2</ele>
        <time>2020-08-23T10:21:46Z</time>
        <sat>10</sat>
      </trkpt>
      <trkpt lat="42.263605" lon="-4.339806">
        <ele>791.4</ele>
        <time>2020-08-23T10:21:53Z</time>
        <sat>10</sat>
      </trkpt>
      <trkpt lat="42.263552" lon="-4.339903">
        <ele>791.4</ele>
        <time>2020-08-23T10:22:00Z</time>
        <sat>11</sat>
      </trkpt>
      <trkpt lat="42.263501" lon="-4.340004">
        <ele>791.4</ele>
        <time>2020-08-23T10:22:07Z</time>
        <sat>10</sat>
      </trkpt>
      <trkpt lat="42.263445" lon="-4.340098">
        <ele>791.6</ele>
        <time>2020-08-23T10:22:14Z</time>
        <sat>11</sat>
      </trkpt>
      <trkpt lat="42.263389" lon="-4.340195">
        <ele>791.8</ele>
        <time>2020-08-23T10:22:21Z</time>
        <sat>12</sat>
      </trkpt>
      <trkpt lat="42.263333" lon="-4.340295">
        <ele>791.8</ele>
        <time>2020-08-23T10:22:28Z</time>
        <sat>12</sat>
      </trkpt>
      <trkpt lat="42.263283" lon="-4.340395">
        <ele>791.9</ele>
        <time>2020-08-23T10:22:35Z</time>
        <sat>12</sat>
      </trkpt>
      <trkpt lat="42.263235" lon="-4.340485">
        <ele>791.9</ele>
        <time>2020-08-23T10:22:42Z</time>
        <sat>12</sat>
      </trkpt>
      <trkpt lat="42.263190" lon="-4.340591">
        <ele>791.9</ele>
        <time>2020-08-23T10:22:49Z</time>
        <sat>11</sat>
      </trkpt>
      <trkpt lat="42.263141" lon="-4.340693">
        <ele>791.8</ele>
        <time>2020-08-23T10:22:56Z</time>
        <sat>12</sat>
      </trkpt>
      <trkpt lat="42.263091" lon="-4.340790">
        <ele>791.7</ele>
        <time>2020-08-23T10:23:03Z</time>
        <sat>12</sat>
      </trkpt>
      <trkpt lat="42.263044" lon="-4.340889">
        <ele>791.6</ele>
        <time>2020-08-23T10:23:10Z</time>
        <sat>12</sat>
      </trkpt>
      <trkpt lat="42.263002" lon="-4.340995">
        <ele>791.4</ele>
        <time>2020-08-23T10:23:17Z</time>
        <sat>12</sat>
      </trkpt>
      <trkpt lat="42.262955" lon="-4.341101">
        <ele>791.3</ele>
        <time>2020-08-23T10:23:24Z</time>
        <sat>12</sat>
      </trkpt>
      <trkpt lat="42.262909" lon="-4.341202">
        <ele>791.2</ele>
        <time>2020-08-23T10:23:31Z</time>
        <sat>12</sat>
      </trkpt>
      <trkpt lat="42.262867" lon="-4.341312">
        <ele>791.0</ele>
        <time>2020-08-23T10:23:38Z</time>
        <sat>12</sat>
      </trkpt>
      <trkpt lat="42.262822" lon="-4.341418">
        <ele>790.8</ele>
        <time>2020-08-23T10:23:45Z</time>
        <sat>12</sat>
      </trkpt>
      <trkpt lat="42.262783" lon="-4.341531">
        <ele>790.6</ele>
        <time>2020-08-23T10:23:52Z</time>
        <sat>12</sat>
      </trkpt>
      <trkpt lat="42.262743" lon="-4.341641">
        <ele>790.5</ele>
        <time>2020-08-23T10:23:59Z</time>
        <sat>12</sat>
      </trkpt>
      <trkpt lat="42.262706" lon="-4.341751">
        <ele>790.3</ele>
        <time>2020-08-23T10:24:06Z</time>
        <sat>12</sat>
      </trkpt>
      <trkpt lat="42.262669" lon="-4.341865">
        <ele>789.9</ele>
        <time>2020-08-23T10:24:13Z</time>
        <sat>12</sat>
      </trkpt>
      <trkpt lat="42.262632" lon="-4.341977">
        <ele>789.6</ele>
        <time>2020-08-23T10:24:20Z</time>
        <sat>12</sat>
      </trkpt>
      <trkpt lat="42.262600" lon="-4.342092">
        <ele>789.4</ele>
        <time>2020-08-23T10:24:27Z</time>
        <sat>12</sat>
      </trkpt>
      <trkpt lat="42.262564" lon="-4.342210">
        <ele>789.1</ele>
        <time>2020-08-23T10:24:34Z</time>
        <sat>12</sat>
      </trkpt>
      <trkpt lat="42.262531" lon="-4.342320">
        <ele>788.9</ele>
        <time>2020-08-23T10:24:41Z</time>
        <sat>12</sat>
      </trkpt>
      <trkpt lat="42.262499" lon="-4.342436">
        <ele>788.6</ele>
        <time>2020-08-23T10:24:48Z</time>
        <sat>12</sat>
      </trkpt>
      <trkpt lat="42.262462" lon="-4.342545">
        <ele>788.5</ele>
        <time>2020-08-23T10:24:55Z</time>
        <sat>12</sat>
      </trkpt>
      <trkpt lat="42.262427" lon="-4.342657">
        <ele>788.1</ele>
        <time>2020-08-23T10:25:02Z</time>
        <sat>12</sat>
      </trkpt>
      <trkpt lat="42.262392" lon="-4.342775">
        <ele>787.8</ele>
        <time>2020-08-23T10:25:09Z</time>
        <sat>12</sat>
      </trkpt>
      <trkpt lat="42.262352" lon="-4.342882">
        <ele>787.7</ele>
        <time>2020-08-23T10:25:16Z</time>
        <sat>12</sat>
      </trkpt>
      <trkpt lat="42.262319" lon="-4.342992">
        <ele>787.4</ele>
        <time>2020-08-23T10:25:23Z</time>
        <sat>12</sat>
      </trkpt>
      <trkpt lat="42.262278" lon="-4.343099">
        <ele>787.2</ele>
        <time>2020-08-23T10:25:30Z</time>
        <sat>12</sat>
      </trkpt>
      <trkpt lat="42.262237" lon="-4.343206">
        <ele>787.1</ele>
        <time>2020-08-23T10:25:37Z</time>
        <sat>12</sat>
      </trkpt>
      <trkpt lat="42.262198" lon="-4.343315">
        <ele>787.0</ele>
        <time>2020-08-23T10:25:44Z</time>
        <sat>12</sat>
      </trkpt>
      <trkpt lat="42.262149" lon="-4.343420">
        <ele>786.8</ele>
        <time>2020-08-23T10:25:51Z</time>
        <sat>12</sat>
      </trkpt>
      <trkpt lat="42.262100" lon="-4.343519">
        <ele>786.8</ele>
        <time>2020-08-23T10:25:58Z</time>
        <sat>12</sat>
      </trkpt>
      <trkpt lat="42.262051" lon="-4.343620">
        <ele>786.6</ele>
        <time>2020-08-23T10:26:05Z</time>
        <sat>12</sat>
      </trkpt>
      <trkpt lat="42.262002" lon="-4.343708">
        <ele>786.5</ele>
        <time>2020-08-23T10:26:11Z</time>
        <sat>12</sat>
      </trkpt>
      <trkpt lat="42.261945" lon="-4.343808">
        <ele>786.6</ele>
        <time>2020-08-23T10:26:18Z</time>
        <sat>12</sat>
      </trkpt>
      <trkpt lat="42.261902" lon="-4.343902">
        <ele>786.5</ele>
        <time>2020-08-23T10:26:24Z</time>
        <sat>12</sat>
      </trkpt>
      <trkpt lat="42.261843" lon="-4.343999">
        <ele>786.4</ele>
        <time>2020-08-23T10:26:31Z</time>
        <sat>12</sat>
      </trkpt>
      <trkpt lat="42.261786" lon="-4.344098">
        <ele>786.2</ele>
        <time>2020-08-23T10:26:38Z</time>
        <sat>11</sat>
      </trkpt>
      <trkpt lat="42.261730" lon="-4.344194">
        <ele>786.1</ele>
        <time>2020-08-23T10:26:45Z</time>
        <sat>12</sat>
      </trkpt>
      <trkpt lat="42.261678" lon="-4.344292">
        <ele>786.1</ele>
        <time>2020-08-23T10:26:52Z</time>
        <sat>12</sat>
      </trkpt>
      <trkpt lat="42.261623" lon="-4.344388">
        <ele>786.1</ele>
        <time>2020-08-23T10:26:59Z</time>
        <sat>12</sat>
      </trkpt>
      <trkpt lat="42.261568" lon="-4.344474">
        <ele>786.0</ele>
        <time>2020-08-23T10:27:06Z</time>
        <sat>12</sat>
      </trkpt>
      <trkpt lat="42.261480" lon="-4.344484">
        <ele>786.0</ele>
        <time>2020-08-23T10:27:17Z</time>
        <sat>11</sat>
      </trkpt>
      <trkpt lat="42.261404" lon="-4.344538">
        <ele>786.2</ele>
        <time>2020-08-23T10:27:29Z</time>
        <sat>12</sat>
      </trkpt>
      <trkpt lat="42.261328" lon="-4.344584">
        <ele>786.4</ele>
        <time>2020-08-23T10:28:06Z</time>
        <sat>12</sat>
      </trkpt>
      <trkpt lat="42.261388" lon="-4.344658">
        <ele>790.2</ele>
        <time>2020-08-23T11:12:23Z</time>
        <sat>10</sat>
      </trkpt>
      <trkpt lat="42.261370" lon="-4.344768">
        <ele>790.0</ele>
        <time>2020-08-23T11:12:34Z</time>
        <sat>10</sat>
      </trkpt>
      <trkpt lat="42.261316" lon="-4.344852">
        <ele>788.4</ele>
        <time>2020-08-23T11:12:48Z</time>
        <sat>10</sat>
      </trkpt>
      <trkpt lat="42.261262" lon="-4.344949">
        <ele>789.2</ele>
        <time>2020-08-23T11:13:02Z</time>
        <sat>10</sat>
      </trkpt>
      <trkpt lat="42.261224" lon="-4.345045">
        <ele>791.1</ele>
        <time>2020-08-23T11:13:10Z</time>
        <sat>10</sat>
      </trkpt>
      <trkpt lat="42.261143" lon="-4.345083">
        <ele>790.4</ele>
        <time>2020-08-23T11:13:42Z</time>
        <sat>10</sat>
      </trkpt>
      <trkpt lat="42.261046" lon="-4.345214">
        <ele>790.6</ele>
        <time>2020-08-23T11:14:07Z</time>
        <sat>10</sat>
      </trkpt>
      <trkpt lat="42.260993" lon="-4.345299">
        <ele>790.6</ele>
        <time>2020-08-23T11:15:02Z</time>
        <sat>10</sat>
      </trkpt>
      <trkpt lat="42.260939" lon="-4.345386">
        <ele>788.9</ele>
        <time>2020-08-23T11:15:20Z</time>
        <sat>10</sat>
      </trkpt>
      <trkpt lat="42.260880" lon="-4.345468">
        <ele>787.4</ele>
        <time>2020-08-23T11:15:30Z</time>
        <sat>10</sat>
      </trkpt>
      <trkpt lat="42.260817" lon="-4.345543">
        <ele>786.9</ele>
        <time>2020-08-23T11:15:38Z</time>
        <sat>10</sat>
      </trkpt>
      <trkpt lat="42.260747" lon="-4.345619">
        <ele>785.4</ele>
        <time>2020-08-23T11:15:46Z</time>
        <sat>10</sat>
      </trkpt>
      <trkpt lat="42.260729" lon="-4.345729">
        <ele>785.4</ele>
        <time>2020-08-23T11:16:00Z</time>
        <sat>10</sat>
      </trkpt>
      <trkpt lat="42.260723" lon="-4.345850">
        <ele>783.6</ele>
        <time>2020-08-23T11:16:08Z</time>
        <sat>10</sat>
      </trkpt>
      <trkpt lat="42.260715" lon="-4.345968">
        <ele>783.1</ele>
        <time>2020-08-23T11:16:16Z</time>
        <sat>10</sat>
      </trkpt>
      <trkpt lat="42.260682" lon="-4.346070">
        <ele>784.1</ele>
        <time>2020-08-23T11:16:23Z</time>
        <sat>10</sat>
      </trkpt>
      <trkpt lat="42.260655" lon="-4.346175">
        <ele>784.3</ele>
        <time>2020-08-23T11:16:31Z</time>
        <sat>10</sat>
      </trkpt>
      <trkpt lat="42.260683" lon="-4.346245">
        <ele>785.4</ele>
        <time>2020-08-23T11:16:53Z</time>
        <sat>9</sat>
      </trkpt>
      <trkpt lat="42.260729" lon="-4.346351">
        <ele>785.2</ele>
        <time>2020-08-23T11:17:06Z</time>
        <sat>10</sat>
      </trkpt>
      <trkpt lat="42.260774" lon="-4.346459">
        <ele>784.7</ele>
        <time>2020-08-23T11:17:13Z</time>
        <sat>9</sat>
      </trkpt>
      <trkpt lat="42.260796" lon="-4.346578">
        <ele>786.7</ele>
        <time>2020-08-23T11:17:21Z</time>
        <sat>10</sat>
      </trkpt>
      <trkpt lat="42.260776" lon="-4.346694">
        <ele>786.4</ele>
        <time>2020-08-23T11:17:28Z</time>
        <sat>10</sat>
      </trkpt>
      <trkpt lat="42.260726" lon="-4.346799">
        <ele>785.7</ele>
        <time>2020-08-23T11:17:35Z</time>
        <sat>10</sat>
      </trkpt>
      <trkpt lat="42.260693" lon="-4.346900">
        <ele>785.6</ele>
        <time>2020-08-23T11:17:41Z</time>
        <sat>10</sat>
      </trkpt>
      <trkpt lat="42.260651" lon="-4.347006">
        <ele>785.6</ele>
        <time>2020-08-23T11:17:48Z</time>
        <sat>10</sat>
      </trkpt>
      <trkpt lat="42.260607" lon="-4.347112">
        <ele>786.7</ele>
        <time>2020-08-23T11:17:56Z</time>
        <sat>10</sat>
      </trkpt>
      <trkpt lat="42.260619" lon="-4.347228">
        <ele>788.3</ele>
        <time>2020-08-23T11:18:03Z</time>
        <sat>10</sat>
      </trkpt>
      <trkpt lat="42.260655" lon="-4.347337">
        <ele>788.5</ele>
        <time>2020-08-23T11:18:10Z</time>
        <sat>10</sat>
      </trkpt>
      <trkpt lat="42.260677" lon="-4.347457">
        <ele>788.5</ele>
        <time>2020-08-23T11:18:17Z</time>
        <sat>10</sat>
      </trkpt>
      <trkpt lat="42.260639" lon="-4.347558">
        <ele>789.0</ele>
        <time>2020-08-23T11:18:24Z</time>
        <sat>10</sat>
      </trkpt>
      <trkpt lat="42.260616" lon="-4.347677">
        <ele>790.3</ele>
        <time>2020-08-23T11:18:33Z</time>
        <sat>10</sat>
      </trkpt>
      <trkpt lat="42.260589" lon="-4.347781">
        <ele>789.3</ele>
        <time>2020-08-23T11:18:41Z</time>
        <sat>10</sat>
      </trkpt>
      <trkpt lat="42.260559" lon="-4.347897">
        <ele>791.3</ele>
        <time>2020-08-23T11:18:48Z</time>
        <sat>10</sat>
      </trkpt>
      <trkpt lat="42.260528" lon="-4.348010">
        <ele>791.7</ele>
        <time>2020-08-23T11:18:56Z</time>
        <sat>10</sat>
      </trkpt>
      <trkpt lat="42.260514" lon="-4.348120">
        <ele>791.6</ele>
        <time>2020-08-23T11:19:03Z</time>
        <sat>10</sat>
      </trkpt>
      <trkpt lat="42.260495" lon="-4.348242">
        <ele>791.1</ele>
        <time>2020-08-23T11:19:10Z</time>
        <sat>10</sat>
      </trkpt>
      <trkpt lat="42.260507" lon="-4.348356">
        <ele>791.0</ele>
        <time>2020-08-23T11:19:21Z</time>
        <sat>10</sat>
      </trkpt>
      <trkpt lat="42.260565" lon="-4.348435">
        <ele>790.4</ele>
        <time>2020-08-23T11:19:28Z</time>
        <sat>10</sat>
      </trkpt>
      <trkpt lat="42.260640" lon="-4.348502">
        <ele>789.9</ele>
        <time>2020-08-23T11:19:35Z</time>
        <sat>10</sat>
      </trkpt>
      <trkpt lat="42.260710" lon="-4.348566">
        <ele>790.1</ele>
        <time>2020-08-23T11:19:42Z</time>
        <sat>10</sat>
      </trkpt>
      <trkpt lat="42.260794" lon="-4.348616">
        <ele>791.0</ele>
        <time>2020-08-23T11:19:49Z</time>
        <sat>10</sat>
      </trkpt>
      <trkpt lat="42.260882" lon="-4.348643">
        <ele>791.7</ele>
        <time>2020-08-23T11:19:56Z</time>
        <sat>9</sat>
      </trkpt>
      <trkpt lat="42.260953" lon="-4.348702">
        <ele>792.3</ele>
        <time>2020-08-23T11:20:03Z</time>
        <sat>10</sat>
      </trkpt>
      <trkpt lat="42.261034" lon="-4.348750">
        <ele>793.0</ele>
        <time>2020-08-23T11:20:10Z</time>
        <sat>9</sat>
      </trkpt>
      <trkpt lat="42.261110" lon="-4.348810">
        <ele>793.5</ele>
        <time>2020-08-23T11:20:17Z</time>
        <sat>9</sat>
      </trkpt>
      <trkpt lat="42.261180" lon="-4.348887">
        <ele>794.0</ele>
        <time>2020-08-23T11:20:24Z</time>
        <sat>10</sat>
      </trkpt>
      <trkpt lat="42.261241" lon="-4.348966">
        <ele>794.4</ele>
        <time>2020-08-23T11:20:31Z</time>
        <sat>10</sat>
      </trkpt>
      <trkpt lat="42.261293" lon="-4.349062">
        <ele>794.9</ele>
        <time>2020-08-23T11:20:38Z</time>
        <sat>10</sat>
      </trkpt>
      <trkpt lat="42.261336" lon="-4.349170">
        <ele>795.0</ele>
        <time>2020-08-23T11:20:46Z</time>
        <sat>10</sat>
      </trkpt>
      <trkpt lat="42.261371" lon="-4.349272">
        <ele>795.2</ele>
        <time>2020-08-23T11:20:53Z</time>
        <sat>10</sat>
      </trkpt>
      <trkpt lat="42.261400" lon="-4.349374">
        <ele>795.5</ele>
        <time>2020-08-23T11:21:00Z</time>
        <sat>10</sat>
      </trkpt>
      <trkpt lat="42.261436" lon="-4.349474">
        <ele>795.8</ele>
        <time>2020-08-23T11:21:07Z</time>
        <sat>10</sat>
      </trkpt>
      <trkpt lat="42.261487" lon="-4.349572">
        <ele>795.9</ele>
        <time>2020-08-23T11:21:14Z</time>
        <sat>9</sat>
      </trkpt>
      <trkpt lat="42.261541" lon="-4.349664">
        <ele>796.3</ele>
        <time>2020-08-23T11:21:21Z</time>
        <sat>10</sat>
      </trkpt>
      <trkpt lat="42.261606" lon="-4.349749">
        <ele>796.6</ele>
        <time>2020-08-23T11:21:28Z</time>
        <sat>10</sat>
      </trkpt>
      <trkpt lat="42.261681" lon="-4.349822">
        <ele>796.7</ele>
        <time>2020-08-23T11:21:35Z</time>
        <sat>9</sat>
      </trkpt>
      <trkpt lat="42.261751" lon="-4.349896">
        <ele>797.1</ele>
        <time>2020-08-23T11:21:42Z</time>
        <sat>10</sat>
      </trkpt>
      <trkpt lat="42.261821" lon="-4.349972">
        <ele>797.2</ele>
        <time>2020-08-23T11:21:49Z</time>
        <sat>10</sat>
      </trkpt>
      <trkpt lat="42.261899" lon="-4.350044">
        <ele>797.4</ele>
        <time>2020-08-23T11:21:56Z</time>
        <sat>10</sat>
      </trkpt>
      <trkpt lat="42.261975" lon="-4.350110">
        <ele>797.6</ele>
        <time>2020-08-23T11:22:03Z</time>
        <sat>10</sat>
      </trkpt>
      <trkpt lat="42.262041" lon="-4.350192">
        <ele>797.7</ele>
        <time>2020-08-23T11:22:10Z</time>
        <sat>10</sat>
      </trkpt>
      <trkpt lat="42.262115" lon="-4.350262">
        <ele>797.7</ele>
        <time>2020-08-23T11:22:17Z</time>
        <sat>10</sat>
      </trkpt>
      <trkpt lat="42.262182" lon="-4.350344">
        <ele>797.8</ele>
        <time>2020-08-23T11:22:24Z</time>
        <sat>10</sat>
      </trkpt>
      <trkpt lat="42.262252" lon="-4.350423">
        <ele>797.7</ele>
        <time>2020-08-23T11:22:31Z</time>
        <sat>10</sat>
      </trkpt>
      <trkpt lat="42.262323" lon="-4.350499">
        <ele>797.7</ele>
        <time>2020-08-23T11:22:38Z</time>
        <sat>10</sat>
      </trkpt>
      <trkpt lat="42.262387" lon="-4.350582">
        <ele>797.7</ele>
        <time>2020-08-23T11:22:45Z</time>
        <sat>10</sat>
      </trkpt>
      <trkpt lat="42.262460" lon="-4.350661">
        <ele>797.6</ele>
        <time>2020-08-23T11:22:52Z</time>
        <sat>10</sat>
      </trkpt>
      <trkpt lat="42.262538" lon="-4.350731">
        <ele>797.5</ele>
        <time>2020-08-23T11:22:59Z</time>
        <sat>10</sat>
      </trkpt>
      <trkpt lat="42.262614" lon="-4.350786">
        <ele>797.5</ele>
        <time>2020-08-23T11:23:06Z</time>
        <sat>9</sat>
      </trkpt>
      <trkpt lat="42.262699" lon="-4.350834">
        <ele>797.4</ele>
        <time>2020-08-23T11:23:13Z</time>
        <sat>9</sat>
      </trkpt>
      <trkpt lat="42.262784" lon="-4.350886">
        <ele>797.5</ele>
        <time>2020-08-23T11:23:20Z</time>
        <sat>10</sat>
      </trkpt>
      <trkpt lat="42.262860" lon="-4.350938">
        <ele>797.6</ele>
        <time>2020-08-23T11:23:27Z</time>
        <sat>10</sat>
      </trkpt>
      <trkpt lat="42.262934" lon="-4.350989">
        <ele>797.5</ele>
        <time>2020-08-23T11:23:33Z</time>
        <sat>10</sat>
      </trkpt>
      <trkpt lat="42.262995" lon="-4.351073">
        <ele>797.6</ele>
        <time>2020-08-23T11:23:40Z</time>
        <sat>10</sat>
      </trkpt>
      <trkpt lat="42.263025" lon="-4.351191">
        <ele>797.6</ele>
        <time>2020-08-23T11:23:47Z</time>
        <sat>10</sat>
      </trkpt>
      <trkpt lat="42.262988" lon="-4.351299">
        <ele>798.0</ele>
        <time>2020-08-23T11:24:15Z</time>
        <sat>10</sat>
      </trkpt>
      <trkpt lat="42.262949" lon="-4.351398">
        <ele>798.0</ele>
        <time>2020-08-23T11:24:22Z</time>
        <sat>9</sat>
      </trkpt>
      <trkpt lat="42.262909" lon="-4.351509">
        <ele>798.1</ele>
        <time>2020-08-23T11:24:29Z</time>
        <sat>10</sat>
      </trkpt>
      <trkpt lat="42.262856" lon="-4.351612">
        <ele>798.1</ele>
        <time>2020-08-23T11:24:36Z</time>
        <sat>10</sat>
      </trkpt>
      <trkpt lat="42.262823" lon="-4.351712">
        <ele>798.0</ele>
        <time>2020-08-23T11:24:42Z</time>
        <sat>9</sat>
      </trkpt>
      <trkpt lat="42.262778" lon="-4.351806">
        <ele>798.0</ele>
        <time>2020-08-23T11:24:48Z</time>
        <sat>9</sat>
      </trkpt>
      <trkpt lat="42.262728" lon="-4.351896">
        <ele>798.0</ele>
        <time>2020-08-23T11:24:54Z</time>
        <sat>10</sat>
      </trkpt>
      <trkpt lat="42.262690" lon="-4.351995">
        <ele>798.1</ele>
        <time>2020-08-23T11:25:00Z</time>
        <sat>10</sat>
      </trkpt>
      <trkpt lat="42.262643" lon="-4.352084">
        <ele>798.2</ele>
        <time>2020-08-23T11:25:06Z</time>
        <sat>10</sat>
      </trkpt>
      <trkpt lat="42.262605" lon="-4.352184">
        <ele>798.1</ele>
        <time>2020-08-23T11:25:12Z</time>
        <sat>9</sat>
      </trkpt>
      <trkpt lat="42.262565" lon="-4.352279">
        <ele>798.0</ele>
        <time>2020-08-23T11:25:18Z</time>
        <sat>9</sat>
      </trkpt>
      <trkpt lat="42.262525" lon="-4.352390">
        <ele>798.1</ele>
        <time>2020-08-23T11:25:25Z</time>
        <sat>10</sat>
      </trkpt>
      <trkpt lat="42.262481" lon="-4.352493">
        <ele>798.2</ele>
        <time>2020-08-23T11:25:32Z</time>
        <sat>10</sat>
      </trkpt>
      <trkpt lat="42.262434" lon="-4.352603">
        <ele>797.8</ele>
        <time>2020-08-23T11:25:39Z</time>
        <sat>10</sat>
      </trkpt>
      <trkpt lat="42.262382" lon="-4.352705">
        <ele>797.6</ele>
        <time>2020-08-23T11:25:46Z</time>
        <sat>9</sat>
      </trkpt>
      <trkpt lat="42.262339" lon="-4.352809">
        <ele>797.6</ele>
        <time>2020-08-23T11:25:53Z</time>
        <sat>10</sat>
      </trkpt>
      <trkpt lat="42.262290" lon="-4.352921">
        <ele>797.8</ele>
        <time>2020-08-23T11:26:00Z</time>
        <sat>9</sat>
      </trkpt>
      <trkpt lat="42.262243" lon="-4.353025">
        <ele>797.9</ele>
        <time>2020-08-23T11:26:07Z</time>
        <sat>9</sat>
      </trkpt>
      <trkpt lat="42.262205" lon="-4.353122">
        <ele>797.8</ele>
        <time>2020-08-23T11:26:13Z</time>
        <sat>10</sat>
      </trkpt>
      <trkpt lat="42.262155" lon="-4.353225">
        <ele>797.9</ele>
        <time>2020-08-23T11:26:20Z</time>
        <sat>10</sat>
      </trkpt>
      <trkpt lat="42.262116" lon="-4.353336">
        <ele>797.9</ele>
        <time>2020-08-23T11:26:27Z</time>
        <sat>10</sat>
      </trkpt>
      <trkpt lat="42.262064" lon="-4.353442">
        <ele>797.8</ele>
        <time>2020-08-23T11:26:34Z</time>
        <sat>10</sat>
      </trkpt>
      <trkpt lat="42.262017" lon="-4.353548">
        <ele>797.9</ele>
        <time>2020-08-23T11:26:41Z</time>
        <sat>9</sat>
      </trkpt>
      <trkpt lat="42.261971" lon="-4.353639">
        <ele>797.9</ele>
        <time>2020-08-23T11:26:47Z</time>
        <sat>10</sat>
      </trkpt>
      <trkpt lat="42.261925" lon="-4.353746">
        <ele>797.9</ele>
        <time>2020-08-23T11:26:54Z</time>
        <sat>10</sat>
      </trkpt>
      <trkpt lat="42.261871" lon="-4.353848">
        <ele>797.8</ele>
        <time>2020-08-23T11:27:01Z</time>
        <sat>9</sat>
      </trkpt>
      <trkpt lat="42.261814" lon="-4.353943">
        <ele>797.9</ele>
        <time>2020-08-23T11:27:08Z</time>
        <sat>9</sat>
      </trkpt>
      <trkpt lat="42.261765" lon="-4.354045">
        <ele>797.9</ele>
        <time>2020-08-23T11:27:15Z</time>
        <sat>9</sat>
      </trkpt>
      <trkpt lat="42.261710" lon="-4.354145">
        <ele>797.9</ele>
        <time>2020-08-23T11:27:22Z</time>
        <sat>9</sat>
      </trkpt>
      <trkpt lat="42.261652" lon="-4.354234">
        <ele>798.1</ele>
        <time>2020-08-23T11:27:29Z</time>
        <sat>10</sat>
      </trkpt>
      <trkpt lat="42.261601" lon="-4.354324">
        <ele>798.1</ele>
        <time>2020-08-23T11:27:35Z</time>
        <sat>10</sat>
      </trkpt>
      <trkpt lat="42.261544" lon="-4.354406">
        <ele>798.2</ele>
        <time>2020-08-23T11:27:42Z</time>
        <sat>10</sat>
      </trkpt>
      <trkpt lat="42.261493" lon="-4.354495">
        <ele>798.3</ele>
        <time>2020-08-23T11:27:48Z</time>
        <sat>10</sat>
      </trkpt>
      <trkpt lat="42.261443" lon="-4.354582">
        <ele>798.2</ele>
        <time>2020-08-23T11:27:54Z</time>
        <sat>10</sat>
      </trkpt>
      <trkpt lat="42.261389" lon="-4.354685">
        <ele>798.3</ele>
        <time>2020-08-23T11:28:01Z</time>
        <sat>10</sat>
      </trkpt>
      <trkpt lat="42.261335" lon="-4.354767">
        <ele>798.2</ele>
        <time>2020-08-23T11:28:07Z</time>
        <sat>10</sat>
      </trkpt>
      <trkpt lat="42.261282" lon="-4.354861">
        <ele>798.2</ele>
        <time>2020-08-23T11:28:14Z</time>
        <sat>10</sat>
      </trkpt>
      <trkpt lat="42.261224" lon="-4.354958">
        <ele>798.2</ele>
        <time>2020-08-23T11:28:21Z</time>
        <sat>10</sat>
      </trkpt>
      <trkpt lat="42.261175" lon="-4.355054">
        <ele>798.3</ele>
        <time>2020-08-23T11:28:28Z</time>
        <sat>10</sat>
      </trkpt>
      <trkpt lat="42.261126" lon="-4.355141">
        <ele>798.4</ele>
        <time>2020-08-23T11:28:34Z</time>
        <sat>10</sat>
      </trkpt>
      <trkpt lat="42.261065" lon="-4.355234">
        <ele>798.5</ele>
        <time>2020-08-23T11:28:41Z</time>
        <sat>10</sat>
      </trkpt>
      <trkpt lat="42.261011" lon="-4.355316">
        <ele>798.4</ele>
        <time>2020-08-23T11:28:47Z</time>
        <sat>10</sat>
      </trkpt>
      <trkpt lat="42.260962" lon="-4.355404">
        <ele>798.4</ele>
        <time>2020-08-23T11:28:53Z</time>
        <sat>10</sat>
      </trkpt>
      <trkpt lat="42.260930" lon="-4.355506">
        <ele>798.5</ele>
        <time>2020-08-23T11:29:10Z</time>
        <sat>10</sat>
      </trkpt>
      <trkpt lat="42.260876" lon="-4.355587">
        <ele>798.6</ele>
        <time>2020-08-23T11:29:17Z</time>
        <sat>10</sat>
      </trkpt>
      <trkpt lat="42.260815" lon="-4.355679">
        <ele>798.6</ele>
        <time>2020-08-23T11:29:23Z</time>
        <sat>10</sat>
      </trkpt>
      <trkpt lat="42.260765" lon="-4.355773">
        <ele>798.6</ele>
        <time>2020-08-23T11:29:29Z</time>
        <sat>9</sat>
      </trkpt>
      <trkpt lat="42.260715" lon="-4.355864">
        <ele>798.6</ele>
        <time>2020-08-23T11:29:35Z</time>
        <sat>10</sat>
      </trkpt>
      <trkpt lat="42.260659" lon="-4.355958">
        <ele>798.6</ele>
        <time>2020-08-23T11:29:41Z</time>
        <sat>10</sat>
      </trkpt>
      <trkpt lat="42.260610" lon="-4.356060">
        <ele>798.6</ele>
        <time>2020-08-23T11:29:47Z</time>
        <sat>10</sat>
      </trkpt>
      <trkpt lat="42.260548" lon="-4.356156">
        <ele>798.7</ele>
        <time>2020-08-23T11:29:54Z</time>
        <sat>9</sat>
      </trkpt>
      <trkpt lat="42.260497" lon="-4.356250">
        <ele>798.7</ele>
        <time>2020-08-23T11:30:00Z</time>
        <sat>10</sat>
      </trkpt>
      <trkpt lat="42.260442" lon="-4.356334">
        <ele>798.7</ele>
        <time>2020-08-23T11:30:06Z</time>
        <sat>10</sat>
      </trkpt>
      <trkpt lat="42.260387" lon="-4.356422">
        <ele>798.7</ele>
        <time>2020-08-23T11:30:12Z</time>
        <sat>9</sat>
      </trkpt>
      <trkpt lat="42.260332" lon="-4.356527">
        <ele>798.8</ele>
        <time>2020-08-23T11:30:19Z</time>
        <sat>10</sat>
      </trkpt>
      <trkpt lat="42.260279" lon="-4.356617">
        <ele>799.0</ele>
        <time>2020-08-23T11:30:25Z</time>
        <sat>10</sat>
      </trkpt>
      <trkpt lat="42.260224" lon="-4.356717">
        <ele>799.1</ele>
        <time>2020-08-23T11:30:32Z</time>
        <sat>10</sat>
      </trkpt>
      <trkpt lat="42.260169" lon="-4.356800">
        <ele>799.3</ele>
        <time>2020-08-23T11:30:38Z</time>
        <sat>10</sat>
      </trkpt>
      <trkpt lat="42.260120" lon="-4.356901">
        <ele>799.4</ele>
        <time>2020-08-23T11:30:44Z</time>
        <sat>10</sat>
      </trkpt>
      <trkpt lat="42.260061" lon="-4.357002">
        <ele>799.4</ele>
        <time>2020-08-23T11:30:51Z</time>
        <sat>10</sat>
      </trkpt>
      <trkpt lat="42.260005" lon="-4.357093">
        <ele>799.4</ele>
        <time>2020-08-23T11:30:57Z</time>
        <sat>9</sat>
      </trkpt>
      <trkpt lat="42.259957" lon="-4.357192">
        <ele>799.4</ele>
        <time>2020-08-23T11:31:03Z</time>
        <sat>8</sat>
      </trkpt>
      <trkpt lat="42.259901" lon="-4.357284">
        <ele>799.4</ele>
        <time>2020-08-23T11:31:09Z</time>
        <sat>9</sat>
      </trkpt>
      <trkpt lat="42.259853" lon="-4.357375">
        <ele>799.4</ele>
        <time>2020-08-23T11:31:16Z</time>
        <sat>9</sat>
      </trkpt>
      <trkpt lat="42.259797" lon="-4.357473">
        <ele>799.5</ele>
        <time>2020-08-23T11:31:23Z</time>
        <sat>9</sat>
      </trkpt>
      <trkpt lat="42.259742" lon="-4.357563">
        <ele>799.7</ele>
        <time>2020-08-23T11:31:30Z</time>
        <sat>9</sat>
      </trkpt>
      <trkpt lat="42.259696" lon="-4.357659">
        <ele>799.7</ele>
        <time>2020-08-23T11:31:37Z</time>
        <sat>9</sat>
      </trkpt>
      <trkpt lat="42.259640" lon="-4.357743">
        <ele>799.9</ele>
        <time>2020-08-23T11:31:43Z</time>
        <sat>9</sat>
      </trkpt>
      <trkpt lat="42.259591" lon="-4.357834">
        <ele>800.0</ele>
        <time>2020-08-23T11:31:49Z</time>
        <sat>10</sat>
      </trkpt>
      <trkpt lat="42.259539" lon="-4.357927">
        <ele>800.2</ele>
        <time>2020-08-23T11:31:55Z</time>
        <sat>9</sat>
      </trkpt>
      <trkpt lat="42.259491" lon="-4.358028">
        <ele>800.4</ele>
        <time>2020-08-23T11:32:01Z</time>
        <sat>9</sat>
      </trkpt>
      <trkpt lat="42.259450" lon="-4.358140">
        <ele>800.6</ele>
        <time>2020-08-23T11:32:08Z</time>
        <sat>10</sat>
      </trkpt>
      <trkpt lat="42.259425" lon="-4.358258">
        <ele>800.6</ele>
        <time>2020-08-23T11:32:15Z</time>
        <sat>10</sat>
      </trkpt>
      <trkpt lat="42.259400" lon="-4.358367">
        <ele>800.7</ele>
        <time>2020-08-23T11:32:21Z</time>
        <sat>10</sat>
      </trkpt>
      <trkpt lat="42.259377" lon="-4.358475">
        <ele>800.8</ele>
        <time>2020-08-23T11:32:27Z</time>
        <sat>10</sat>
      </trkpt>
      <trkpt lat="42.259354" lon="-4.358599">
        <ele>800.9</ele>
        <time>2020-08-23T11:32:34Z</time>
        <sat>9</sat>
      </trkpt>
      <trkpt lat="42.259332" lon="-4.358707">
        <ele>801.0</ele>
        <time>2020-08-23T11:32:40Z</time>
        <sat>9</sat>
      </trkpt>
      <trkpt lat="42.259308" lon="-4.358828">
        <ele>801.1</ele>
        <time>2020-08-23T11:32:47Z</time>
        <sat>10</sat>
      </trkpt>
      <trkpt lat="42.259284" lon="-4.358947">
        <ele>801.3</ele>
        <time>2020-08-23T11:32:54Z</time>
        <sat>9</sat>
      </trkpt>
      <trkpt lat="42.259258" lon="-4.359063">
        <ele>801.5</ele>
        <time>2020-08-23T11:33:01Z</time>
        <sat>10</sat>
      </trkpt>
      <trkpt lat="42.259239" lon="-4.359174">
        <ele>801.4</ele>
        <time>2020-08-23T11:33:07Z</time>
        <sat>10</sat>
      </trkpt>
      <trkpt lat="42.259215" lon="-4.359279">
        <ele>801.5</ele>
        <time>2020-08-23T11:33:13Z</time>
        <sat>10</sat>
      </trkpt>
      <trkpt lat="42.259194" lon="-4.359387">
        <ele>801.5</ele>
        <time>2020-08-23T11:33:19Z</time>
        <sat>10</sat>
      </trkpt>
      <trkpt lat="42.259170" lon="-4.359507">
        <ele>801.5</ele>
        <time>2020-08-23T11:33:26Z</time>
        <sat>10</sat>
      </trkpt>
      <trkpt lat="42.259149" lon="-4.359616">
        <ele>801.5</ele>
        <time>2020-08-23T11:33:32Z</time>
        <sat>10</sat>
      </trkpt>
      <trkpt lat="42.259122" lon="-4.359738">
        <ele>801.7</ele>
        <time>2020-08-23T11:33:39Z</time>
        <sat>10</sat>
      </trkpt>
      <trkpt lat="42.259099" lon="-4.359862">
        <ele>801.7</ele>
        <time>2020-08-23T11:33:46Z</time>
        <sat>10</sat>
      </trkpt>
      <trkpt lat="42.259073" lon="-4.359984">
        <ele>802.1</ele>
        <time>2020-08-23T11:33:53Z</time>
        <sat>10</sat>
      </trkpt>
      <trkpt lat="42.259057" lon="-4.360094">
        <ele>802.3</ele>
        <time>2020-08-23T11:33:59Z</time>
        <sat>10</sat>
      </trkpt>
      <trkpt lat="42.259034" lon="-4.360218">
        <ele>802.5</ele>
        <time>2020-08-23T11:34:06Z</time>
        <sat>10</sat>
      </trkpt>
      <trkpt lat="42.259022" lon="-4.360327">
        <ele>802.6</ele>
        <time>2020-08-23T11:34:12Z</time>
        <sat>10</sat>
      </trkpt>
      <trkpt lat="42.259001" lon="-4.360448">
        <ele>802.9</ele>
        <time>2020-08-23T11:34:19Z</time>
        <sat>10</sat>
      </trkpt>
      <trkpt lat="42.258992" lon="-4.360574">
        <ele>803.4</ele>
        <time>2020-08-23T11:34:26Z</time>
        <sat>10</sat>
      </trkpt>
      <trkpt lat="42.258977" lon="-4.360698">
        <ele>803.6</ele>
        <time>2020-08-23T11:34:33Z</time>
        <sat>10</sat>
      </trkpt>
      <trkpt lat="42.258971" lon="-4.360821">
        <ele>804.0</ele>
        <time>2020-08-23T11:34:40Z</time>
        <sat>10</sat>
      </trkpt>
      <trkpt lat="42.258964" lon="-4.360945">
        <ele>804.2</ele>
        <time>2020-08-23T11:34:47Z</time>
        <sat>10</sat>
      </trkpt>
      <trkpt lat="42.258951" lon="-4.361065">
        <ele>804.3</ele>
        <time>2020-08-23T11:34:54Z</time>
        <sat>10</sat>
      </trkpt>
      <trkpt lat="42.258945" lon="-4.361175">
        <ele>804.3</ele>
        <time>2020-08-23T11:35:00Z</time>
        <sat>10</sat>
      </trkpt>
      <trkpt lat="42.258933" lon="-4.361298">
        <ele>804.1</ele>
        <time>2020-08-23T11:35:07Z</time>
        <sat>10</sat>
      </trkpt>
      <trkpt lat="42.258923" lon="-4.361411">
        <ele>803.8</ele>
        <time>2020-08-23T11:35:13Z</time>
        <sat>10</sat>
      </trkpt>
      <trkpt lat="42.258916" lon="-4.361520">
        <ele>803.6</ele>
        <time>2020-08-23T11:35:19Z</time>
        <sat>10</sat>
      </trkpt>
      <trkpt lat="42.258900" lon="-4.361634">
        <ele>803.5</ele>
        <time>2020-08-23T11:35:25Z</time>
        <sat>10</sat>
      </trkpt>
      <trkpt lat="42.258890" lon="-4.361745">
        <ele>803.4</ele>
        <time>2020-08-23T11:35:31Z</time>
        <sat>10</sat>
      </trkpt>
      <trkpt lat="42.258876" lon="-4.361869">
        <ele>803.3</ele>
        <time>2020-08-23T11:35:38Z</time>
        <sat>10</sat>
      </trkpt>
      <trkpt lat="42.258864" lon="-4.361988">
        <ele>803.2</ele>
        <time>2020-08-23T11:35:45Z</time>
        <sat>10</sat>
      </trkpt>
      <trkpt lat="42.258851" lon="-4.362112">
        <ele>803.1</ele>
        <time>2020-08-23T11:35:52Z</time>
        <sat>10</sat>
      </trkpt>
      <trkpt lat="42.258833" lon="-4.362221">
        <ele>803.1</ele>
        <time>2020-08-23T11:35:58Z</time>
        <sat>10</sat>
      </trkpt>
      <trkpt lat="42.258824" lon="-4.362334">
        <ele>803.0</ele>
        <time>2020-08-23T11:36:04Z</time>
        <sat>10</sat>
      </trkpt>
      <trkpt lat="42.258811" lon="-4.362459">
        <ele>803.0</ele>
        <time>2020-08-23T11:36:11Z</time>
        <sat>10</sat>
      </trkpt>
      <trkpt lat="42.258793" lon="-4.362585">
        <ele>802.8</ele>
        <time>2020-08-23T11:36:18Z</time>
        <sat>10</sat>
      </trkpt>
      <trkpt lat="42.258780" lon="-4.362706">
        <ele>802.6</ele>
        <time>2020-08-23T11:36:25Z</time>
        <sat>10</sat>
      </trkpt>
      <trkpt lat="42.258761" lon="-4.362828">
        <ele>802.6</ele>
        <time>2020-08-23T11:36:32Z</time>
        <sat>10</sat>
      </trkpt>
      <trkpt lat="42.258749" lon="-4.362937">
        <ele>802.7</ele>
        <time>2020-08-23T11:36:38Z</time>
        <sat>10</sat>
      </trkpt>
      <trkpt lat="42.258732" lon="-4.363056">
        <ele>802.8</ele>
        <time>2020-08-23T11:36:45Z</time>
        <sat>10</sat>
      </trkpt>
      <trkpt lat="42.258717" lon="-4.363174">
        <ele>802.9</ele>
        <time>2020-08-23T11:36:52Z</time>
        <sat>10</sat>
      </trkpt>
      <trkpt lat="42.258704" lon="-4.363294">
        <ele>803.1</ele>
        <time>2020-08-23T11:36:59Z</time>
        <sat>10</sat>
      </trkpt>
      <trkpt lat="42.258674" lon="-4.363404">
        <ele>803.2</ele>
        <time>2020-08-23T11:37:06Z</time>
        <sat>10</sat>
      </trkpt>
      <trkpt lat="42.258647" lon="-4.363514">
        <ele>803.3</ele>
        <time>2020-08-23T11:37:13Z</time>
        <sat>10</sat>
      </trkpt>
      <trkpt lat="42.258606" lon="-4.363622">
        <ele>803.4</ele>
        <time>2020-08-23T11:37:21Z</time>
        <sat>10</sat>
      </trkpt>
      <trkpt lat="42.258576" lon="-4.363730">
        <ele>804.1</ele>
        <time>2020-08-23T11:37:34Z</time>
        <sat>9</sat>
      </trkpt>
      <trkpt lat="42.258545" lon="-4.363841">
        <ele>805.7</ele>
        <time>2020-08-23T11:39:19Z</time>
        <sat>10</sat>
      </trkpt>
      <trkpt lat="42.258489" lon="-4.363924">
        <ele>805.8</ele>
        <time>2020-08-23T11:39:27Z</time>
        <sat>10</sat>
      </trkpt>
      <trkpt lat="42.258445" lon="-4.364025">
        <ele>805.9</ele>
        <time>2020-08-23T11:39:35Z</time>
        <sat>10</sat>
      </trkpt>
      <trkpt lat="42.258474" lon="-4.364063">
        <ele>806.0</ele>
        <time>2020-08-23T11:40:12Z</time>
        <sat>10</sat>
      </trkpt>
      <trkpt lat="42.258405" lon="-4.364126">
        <ele>805.8</ele>
        <time>2020-08-23T11:41:13Z</time>
        <sat>10</sat>
      </trkpt>
      <trkpt lat="42.258374" lon="-4.364241">
        <ele>806.1</ele>
        <time>2020-08-23T11:41:33Z</time>
        <sat>10</sat>
      </trkpt>
      <trkpt lat="42.258363" lon="-4.364350">
        <ele>806.2</ele>
        <time>2020-08-23T11:41:44Z</time>
        <sat>10</sat>
      </trkpt>
      <trkpt lat="42.258347" lon="-4.364466">
        <ele>806.4</ele>
        <time>2020-08-23T11:42:08Z</time>
        <sat>10</sat>
      </trkpt>
      <trkpt lat="42.258332" lon="-4.364578">
        <ele>806.4</ele>
        <time>2020-08-23T11:42:15Z</time>
        <sat>10</sat>
      </trkpt>
      <trkpt lat="42.258323" lon="-4.364695">
        <ele>806.4</ele>
        <time>2020-08-23T11:42:22Z</time>
        <sat>10</sat>
      </trkpt>
      <trkpt lat="42.258328" lon="-4.364807">
        <ele>806.3</ele>
        <time>2020-08-23T11:42:29Z</time>
        <sat>10</sat>
      </trkpt>
      <trkpt lat="42.258322" lon="-4.364927">
        <ele>806.4</ele>
        <time>2020-08-23T11:42:36Z</time>
        <sat>10</sat>
      </trkpt>
      <trkpt lat="42.258321" lon="-4.365047">
        <ele>806.5</ele>
        <time>2020-08-23T11:42:43Z</time>
        <sat>10</sat>
      </trkpt>
      <trkpt lat="42.258320" lon="-4.365171">
        <ele>806.4</ele>
        <time>2020-08-23T11:42:50Z</time>
        <sat>10</sat>
      </trkpt>
      <trkpt lat="42.258321" lon="-4.365290">
        <ele>806.5</ele>
        <time>2020-08-23T11:42:57Z</time>
        <sat>10</sat>
      </trkpt>
      <trkpt lat="42.258319" lon="-4.365410">
        <ele>806.5</ele>
        <time>2020-08-23T11:43:04Z</time>
        <sat>10</sat>
      </trkpt>
      <trkpt lat="42.258325" lon="-4.365529">
        <ele>806.5</ele>
        <time>2020-08-23T11:43:11Z</time>
        <sat>10</sat>
      </trkpt>
      <trkpt lat="42.258330" lon="-4.365654">
        <ele>806.4</ele>
        <time>2020-08-23T11:43:18Z</time>
        <sat>10</sat>
      </trkpt>
      <trkpt lat="42.258328" lon="-4.365772">
        <ele>806.4</ele>
        <time>2020-08-23T11:43:25Z</time>
        <sat>10</sat>
      </trkpt>
      <trkpt lat="42.258329" lon="-4.365896">
        <ele>806.2</ele>
        <time>2020-08-23T11:43:32Z</time>
        <sat>9</sat>
      </trkpt>
      <trkpt lat="42.258326" lon="-4.366006">
        <ele>806.2</ele>
        <time>2020-08-23T11:43:38Z</time>
        <sat>10</sat>
      </trkpt>
      <trkpt lat="42.258325" lon="-4.366130">
        <ele>806.5</ele>
        <time>2020-08-23T11:43:45Z</time>
        <sat>9</sat>
      </trkpt>
      <trkpt lat="42.258321" lon="-4.366256">
        <ele>806.7</ele>
        <time>2020-08-23T11:43:52Z</time>
        <sat>10</sat>
      </trkpt>
      <trkpt lat="42.258324" lon="-4.366378">
        <ele>806.6</ele>
        <time>2020-08-23T11:43:59Z</time>
        <sat>10</sat>
      </trkpt>
      <trkpt lat="42.258328" lon="-4.366498">
        <ele>806.5</ele>
        <time>2020-08-23T11:44:06Z</time>
        <sat>10</sat>
      </trkpt>
      <trkpt lat="42.258329" lon="-4.366620">
        <ele>806.6</ele>
        <time>2020-08-23T11:44:13Z</time>
        <sat>10</sat>
      </trkpt>
      <trkpt lat="42.258332" lon="-4.366746">
        <ele>806.6</ele>
        <time>2020-08-23T11:44:20Z</time>
        <sat>10</sat>
      </trkpt>
      <trkpt lat="42.258332" lon="-4.366857">
        <ele>806.6</ele>
        <time>2020-08-23T11:44:26Z</time>
        <sat>10</sat>
      </trkpt>
      <trkpt lat="42.258337" lon="-4.366984">
        <ele>806.6</ele>
        <time>2020-08-23T11:44:33Z</time>
        <sat>10</sat>
      </trkpt>
      <trkpt lat="42.258337" lon="-4.367109">
        <ele>806.7</ele>
        <time>2020-08-23T11:44:40Z</time>
        <sat>10</sat>
      </trkpt>
      <trkpt lat="42.258339" lon="-4.367231">
        <ele>806.8</ele>
        <time>2020-08-23T11:44:47Z</time>
        <sat>10</sat>
      </trkpt>
      <trkpt lat="42.258340" lon="-4.367341">
        <ele>806.8</ele>
        <time>2020-08-23T11:44:53Z</time>
        <sat>10</sat>
      </trkpt>
      <trkpt lat="42.258338" lon="-4.367467">
        <ele>806.8</ele>
        <time>2020-08-23T11:45:00Z</time>
        <sat>10</sat>
      </trkpt>
      <trkpt lat="42.258343" lon="-4.367580">
        <ele>806.8</ele>
        <time>2020-08-23T11:45:06Z</time>
        <sat>10</sat>
      </trkpt>
      <trkpt lat="42.258339" lon="-4.367703">
        <ele>806.8</ele>
        <time>2020-08-23T11:45:13Z</time>
        <sat>10</sat>
      </trkpt>
      <trkpt lat="42.258340" lon="-4.367815">
        <ele>806.7</ele>
        <time>2020-08-23T11:45:19Z</time>
        <sat>10</sat>
      </trkpt>
      <trkpt lat="42.258336" lon="-4.367935">
        <ele>806.8</ele>
        <time>2020-08-23T11:45:26Z</time>
        <sat>10</sat>
      </trkpt>
      <trkpt lat="42.258339" lon="-4.368054">
        <ele>806.8</ele>
        <time>2020-08-23T11:45:33Z</time>
        <sat>10</sat>
      </trkpt>
      <trkpt lat="42.258321" lon="-4.368161">
        <ele>806.9</ele>
        <time>2020-08-23T11:45:42Z</time>
        <sat>9</sat>
      </trkpt>
      <trkpt lat="42.258318" lon="-4.368271">
        <ele>808.1</ele>
        <time>2020-08-23T11:47:20Z</time>
        <sat>10</sat>
      </trkpt>
      <trkpt lat="42.258319" lon="-4.368394">
        <ele>807.9</ele>
        <time>2020-08-23T11:47:27Z</time>
        <sat>10</sat>
      </trkpt>
      <trkpt lat="42.258317" lon="-4.368518">
        <ele>807.8</ele>
        <time>2020-08-23T11:47:34Z</time>
        <sat>10</sat>
      </trkpt>
      <trkpt lat="42.258315" lon="-4.368641">
        <ele>807.6</ele>
        <time>2020-08-23T11:47:41Z</time>
        <sat>10</sat>
      </trkpt>
      <trkpt lat="42.258318" lon="-4.368762">
        <ele>807.5</ele>
        <time>2020-08-23T11:47:48Z</time>
        <sat>10</sat>
      </trkpt>
      <trkpt lat="42.258314" lon="-4.368879">
        <ele>807.4</ele>
        <time>2020-08-23T11:47:55Z</time>
        <sat>10</sat>
      </trkpt>
      <trkpt lat="42.258319" lon="-4.369003">
        <ele>807.4</ele>
        <time>2020-08-23T11:48:02Z</time>
        <sat>10</sat>
      </trkpt>
      <trkpt lat="42.258317" lon="-4.369128">
        <ele>807.3</ele>
        <time>2020-08-23T11:48:09Z</time>
        <sat>10</sat>
      </trkpt>
      <trkpt lat="42.258317" lon="-4.369256">
        <ele>807.3</ele>
        <time>2020-08-23T11:48:16Z</time>
        <sat>10</sat>
      </trkpt>
      <trkpt lat="42.258320" lon="-4.369382">
        <ele>807.3</ele>
        <time>2020-08-23T11:48:23Z</time>
        <sat>10</sat>
      </trkpt>
      <trkpt lat="42.258317" lon="-4.369505">
        <ele>807.4</ele>
        <time>2020-08-23T11:48:30Z</time>
        <sat>10</sat>
      </trkpt>
      <trkpt lat="42.258319" lon="-4.369617">
        <ele>807.4</ele>
        <time>2020-08-23T11:48:36Z</time>
        <sat>10</sat>
      </trkpt>
      <trkpt lat="42.258317" lon="-4.369741">
        <ele>807.4</ele>
        <time>2020-08-23T11:48:43Z</time>
        <sat>10</sat>
      </trkpt>
      <trkpt lat="42.258324" lon="-4.369854">
        <ele>807.3</ele>
        <time>2020-08-23T11:48:49Z</time>
        <sat>10</sat>
      </trkpt>
      <trkpt lat="42.258318" lon="-4.369980">
        <ele>807.3</ele>
        <time>2020-08-23T11:48:56Z</time>
        <sat>10</sat>
      </trkpt>
      <trkpt lat="42.258324" lon="-4.370102">
        <ele>807.3</ele>
        <time>2020-08-23T11:49:03Z</time>
        <sat>10</sat>
      </trkpt>
      <trkpt lat="42.258324" lon="-4.370229">
        <ele>807.1</ele>
        <time>2020-08-23T11:49:10Z</time>
        <sat>10</sat>
      </trkpt>
      <trkpt lat="42.258327" lon="-4.370350">
        <ele>807.1</ele>
        <time>2020-08-23T11:49:17Z</time>
        <sat>9</sat>
      </trkpt>
      <trkpt lat="42.258327" lon="-4.370461">
        <ele>807.0</ele>
        <time>2020-08-23T11:49:23Z</time>
        <sat>9</sat>
      </trkpt>
      <trkpt lat="42.258329" lon="-4.370589">
        <ele>806.9</ele>
        <time>2020-08-23T11:49:30Z</time>
        <sat>9</sat>
      </trkpt>
      <trkpt lat="42.258332" lon="-4.370701">
        <ele>804.5</ele>
        <time>2020-08-23T11:49:36Z</time>
        <sat>9</sat>
      </trkpt>
      <trkpt lat="42.258332" lon="-4.370826">
        <ele>806.6</ele>
        <time>2020-08-23T11:49:43Z</time>
        <sat>9</sat>
      </trkpt>
      <trkpt lat="42.258332" lon="-4.370937">
        <ele>805.9</ele>
        <time>2020-08-23T11:49:50Z</time>
        <sat>8</sat>
      </trkpt>
      <trkpt lat="42.258341" lon="-4.371057">
        <ele>806.9</ele>
        <time>2020-08-23T11:50:31Z</time>
        <sat>9</sat>
      </trkpt>
      <trkpt lat="42.258350" lon="-4.371175">
        <ele>806.7</ele>
        <time>2020-08-23T11:50:41Z</time>
        <sat>9</sat>
      </trkpt>
      <trkpt lat="42.258353" lon="-4.371294">
        <ele>806.9</ele>
        <time>2020-08-23T11:50:53Z</time>
        <sat>9</sat>
      </trkpt>
      <trkpt lat="42.258358" lon="-4.371417">
        <ele>807.0</ele>
        <time>2020-08-23T11:51:01Z</time>
        <sat>9</sat>
      </trkpt>
      <trkpt lat="42.258355" lon="-4.371532">
        <ele>807.0</ele>
        <time>2020-08-23T11:51:08Z</time>
        <sat>9</sat>
      </trkpt>
      <trkpt lat="42.258359" lon="-4.371653">
        <ele>806.9</ele>
        <time>2020-08-23T11:51:15Z</time>
        <sat>9</sat>
      </trkpt>
      <trkpt lat="42.258361" lon="-4.371777">
        <ele>806.8</ele>
        <time>2020-08-23T11:51:22Z</time>
        <sat>9</sat>
      </trkpt>
      <trkpt lat="42.258357" lon="-4.371890">
        <ele>806.9</ele>
        <time>2020-08-23T11:51:29Z</time>
        <sat>9</sat>
      </trkpt>
      <trkpt lat="42.258354" lon="-4.372014">
        <ele>806.9</ele>
        <time>2020-08-23T11:51:36Z</time>
        <sat>9</sat>
      </trkpt>
      <trkpt lat="42.258356" lon="-4.372139">
        <ele>806.8</ele>
        <time>2020-08-23T11:51:43Z</time>
        <sat>9</sat>
      </trkpt>
      <trkpt lat="42.258355" lon="-4.372260">
        <ele>806.8</ele>
        <time>2020-08-23T11:51:50Z</time>
        <sat>9</sat>
      </trkpt>
      <trkpt lat="42.258357" lon="-4.372384">
        <ele>806.7</ele>
        <time>2020-08-23T11:51:57Z</time>
        <sat>9</sat>
      </trkpt>
      <trkpt lat="42.258353" lon="-4.372502">
        <ele>806.7</ele>
        <time>2020-08-23T11:52:04Z</time>
        <sat>9</sat>
      </trkpt>
      <trkpt lat="42.258351" lon="-4.372617">
        <ele>806.7</ele>
        <time>2020-08-23T11:52:11Z</time>
        <sat>9</sat>
      </trkpt>
      <trkpt lat="42.258352" lon="-4.372735">
        <ele>806.6</ele>
        <time>2020-08-23T11:52:18Z</time>
        <sat>9</sat>
      </trkpt>
      <trkpt lat="42.258355" lon="-4.372854">
        <ele>806.5</ele>
        <time>2020-08-23T11:52:25Z</time>
        <sat>9</sat>
      </trkpt>
      <trkpt lat="42.258356" lon="-4.372973">
        <ele>806.5</ele>
        <time>2020-08-23T11:52:32Z</time>
        <sat>9</sat>
      </trkpt>
      <trkpt lat="42.258356" lon="-4.373098">
        <ele>806.6</ele>
        <time>2020-08-23T11:52:39Z</time>
        <sat>9</sat>
      </trkpt>
      <trkpt lat="42.258358" lon="-4.373224">
        <ele>806.3</ele>
        <time>2020-08-23T11:52:46Z</time>
        <sat>9</sat>
      </trkpt>
      <trkpt lat="42.258350" lon="-4.373333">
        <ele>806.2</ele>
        <time>2020-08-23T11:52:53Z</time>
        <sat>9</sat>
      </trkpt>
      <trkpt lat="42.258353" lon="-4.373443">
        <ele>806.2</ele>
        <time>2020-08-23T11:53:02Z</time>
        <sat>8</sat>
      </trkpt>
      <trkpt lat="42.258376" lon="-4.373561">
        <ele>806.3</ele>
        <time>2020-08-23T11:53:47Z</time>
        <sat>9</sat>
      </trkpt>
      <trkpt lat="42.258357" lon="-4.373679">
        <ele>806.5</ele>
        <time>2020-08-23T11:54:02Z</time>
        <sat>8</sat>
      </trkpt>
      <trkpt lat="42.258351" lon="-4.373792">
        <ele>806.5</ele>
        <time>2020-08-23T11:54:09Z</time>
        <sat>10</sat>
      </trkpt>
      <trkpt lat="42.258350" lon="-4.373902">
        <ele>806.6</ele>
        <time>2020-08-23T11:54:16Z</time>
        <sat>8</sat>
      </trkpt>
      <trkpt lat="42.258343" lon="-4.374026">
        <ele>806.6</ele>
        <time>2020-08-23T11:54:24Z</time>
        <sat>10</sat>
      </trkpt>
      <trkpt lat="42.258345" lon="-4.374139">
        <ele>806.6</ele>
        <time>2020-08-23T11:54:31Z</time>
        <sat>9</sat>
      </trkpt>
      <trkpt lat="42.258335" lon="-4.374263">
        <ele>806.5</ele>
        <time>2020-08-23T11:54:38Z</time>
        <sat>10</sat>
      </trkpt>
      <trkpt lat="42.258331" lon="-4.374375">
        <ele>806.5</ele>
        <time>2020-08-23T11:54:45Z</time>
        <sat>10</sat>
      </trkpt>
      <trkpt lat="42.258327" lon="-4.374486">
        <ele>806.4</ele>
        <time>2020-08-23T11:54:52Z</time>
        <sat>9</sat>
      </trkpt>
      <trkpt lat="42.258326" lon="-4.374602">
        <ele>806.6</ele>
        <time>2020-08-23T11:55:06Z</time>
        <sat>10</sat>
      </trkpt>
      <trkpt lat="42.258315" lon="-4.374715">
        <ele>806.6</ele>
        <time>2020-08-23T11:55:13Z</time>
        <sat>10</sat>
      </trkpt>
      <trkpt lat="42.258310" lon="-4.374829">
        <ele>806.6</ele>
        <time>2020-08-23T11:55:21Z</time>
        <sat>10</sat>
      </trkpt>
      <trkpt lat="42.258300" lon="-4.374943">
        <ele>806.7</ele>
        <time>2020-08-23T11:55:29Z</time>
        <sat>10</sat>
      </trkpt>
      <trkpt lat="42.258295" lon="-4.375061">
        <ele>806.8</ele>
        <time>2020-08-23T11:55:37Z</time>
        <sat>10</sat>
      </trkpt>
      <trkpt lat="42.258295" lon="-4.375178">
        <ele>806.8</ele>
        <time>2020-08-23T11:55:44Z</time>
        <sat>10</sat>
      </trkpt>
      <trkpt lat="42.258290" lon="-4.375297">
        <ele>807.0</ele>
        <time>2020-08-23T11:55:51Z</time>
        <sat>9</sat>
      </trkpt>
      <trkpt lat="42.258279" lon="-4.375412">
        <ele>807.0</ele>
        <time>2020-08-23T11:55:58Z</time>
        <sat>10</sat>
      </trkpt>
      <trkpt lat="42.258278" lon="-4.375530">
        <ele>807.0</ele>
        <time>2020-08-23T11:56:05Z</time>
        <sat>10</sat>
      </trkpt>
      <trkpt lat="42.258276" lon="-4.375653">
        <ele>807.1</ele>
        <time>2020-08-23T11:56:12Z</time>
        <sat>10</sat>
      </trkpt>
      <trkpt lat="42.258269" lon="-4.375764">
        <ele>807.0</ele>
        <time>2020-08-23T11:56:18Z</time>
        <sat>10</sat>
      </trkpt>
      <trkpt lat="42.258265" lon="-4.375888">
        <ele>807.0</ele>
        <time>2020-08-23T11:56:25Z</time>
        <sat>10</sat>
      </trkpt>
      <trkpt lat="42.258268" lon="-4.376008">
        <ele>806.9</ele>
        <time>2020-08-23T11:56:32Z</time>
        <sat>10</sat>
      </trkpt>
      <trkpt lat="42.258271" lon="-4.376128">
        <ele>806.8</ele>
        <time>2020-08-23T11:56:39Z</time>
        <sat>9</sat>
      </trkpt>
      <trkpt lat="42.258280" lon="-4.376249">
        <ele>806.9</ele>
        <time>2020-08-23T11:56:46Z</time>
        <sat>9</sat>
      </trkpt>
      <trkpt lat="42.258288" lon="-4.376373">
        <ele>806.9</ele>
        <time>2020-08-23T11:56:53Z</time>
        <sat>10</sat>
      </trkpt>
      <trkpt lat="42.258293" lon="-4.376490">
        <ele>806.8</ele>
        <time>2020-08-23T11:57:00Z</time>
        <sat>10</sat>
      </trkpt>
      <trkpt lat="42.258298" lon="-4.376615">
        <ele>806.7</ele>
        <time>2020-08-23T11:57:07Z</time>
        <sat>10</sat>
      </trkpt>
      <trkpt lat="42.258303" lon="-4.376733">
        <ele>806.7</ele>
        <time>2020-08-23T11:57:14Z</time>
        <sat>10</sat>
      </trkpt>
      <trkpt lat="42.258300" lon="-4.376857">
        <ele>806.7</ele>
        <time>2020-08-23T11:57:21Z</time>
        <sat>10</sat>
      </trkpt>
      <trkpt lat="42.258300" lon="-4.376974">
        <ele>806.8</ele>
        <time>2020-08-23T11:57:28Z</time>
        <sat>10</sat>
      </trkpt>
      <trkpt lat="42.258302" lon="-4.377097">
        <ele>806.9</ele>
        <time>2020-08-23T11:57:35Z</time>
        <sat>10</sat>
      </trkpt>
      <trkpt lat="42.258302" lon="-4.377216">
        <ele>806.9</ele>
        <time>2020-08-23T11:57:42Z</time>
        <sat>10</sat>
      </trkpt>
      <trkpt lat="42.258298" lon="-4.377337">
        <ele>806.8</ele>
        <time>2020-08-23T11:57:49Z</time>
        <sat>10</sat>
      </trkpt>
      <trkpt lat="42.258296" lon="-4.377459">
        <ele>806.8</ele>
        <time>2020-08-23T11:57:56Z</time>
        <sat>10</sat>
      </trkpt>
      <trkpt lat="42.258304" lon="-4.377579">
        <ele>806.8</ele>
        <time>2020-08-23T11:58:03Z</time>
        <sat>10</sat>
      </trkpt>
      <trkpt lat="42.258297" lon="-4.377703">
        <ele>807.0</ele>
        <time>2020-08-23T11:58:10Z</time>
        <sat>10</sat>
      </trkpt>
      <trkpt lat="42.258305" lon="-4.377827">
        <ele>807.1</ele>
        <time>2020-08-23T11:58:17Z</time>
        <sat>10</sat>
      </trkpt>
      <trkpt lat="42.258299" lon="-4.377939">
        <ele>807.1</ele>
        <time>2020-08-23T11:58:23Z</time>
        <sat>10</sat>
      </trkpt>
      <trkpt lat="42.258300" lon="-4.378055">
        <ele>807.2</ele>
        <time>2020-08-23T11:58:29Z</time>
        <sat>10</sat>
      </trkpt>
      <trkpt lat="42.258297" lon="-4.378164">
        <ele>807.2</ele>
        <time>2020-08-23T11:58:35Z</time>
        <sat>10</sat>
      </trkpt>
      <trkpt lat="42.258302" lon="-4.378275">
        <ele>807.2</ele>
        <time>2020-08-23T11:58:41Z</time>
        <sat>9</sat>
      </trkpt>
      <trkpt lat="42.258304" lon="-4.378399">
        <ele>807.1</ele>
        <time>2020-08-23T11:58:48Z</time>
        <sat>9</sat>
      </trkpt>
      <trkpt lat="42.258296" lon="-4.378511">
        <ele>807.1</ele>
        <time>2020-08-23T11:58:54Z</time>
        <sat>10</sat>
      </trkpt>
      <trkpt lat="42.258300" lon="-4.378633">
        <ele>807.0</ele>
        <time>2020-08-23T11:59:01Z</time>
        <sat>10</sat>
      </trkpt>
      <trkpt lat="42.258300" lon="-4.378744">
        <ele>807.0</ele>
        <time>2020-08-23T11:59:07Z</time>
        <sat>10</sat>
      </trkpt>
      <trkpt lat="42.258307" lon="-4.378857">
        <ele>807.0</ele>
        <time>2020-08-23T11:59:13Z</time>
        <sat>10</sat>
      </trkpt>
      <trkpt lat="42.258305" lon="-4.378984">
        <ele>807.0</ele>
        <time>2020-08-23T11:59:20Z</time>
        <sat>10</sat>
      </trkpt>
      <trkpt lat="42.258310" lon="-4.379095">
        <ele>807.0</ele>
        <time>2020-08-23T11:59:26Z</time>
        <sat>10</sat>
      </trkpt>
      <trkpt lat="42.258308" lon="-4.379221">
        <ele>807.1</ele>
        <time>2020-08-23T11:59:33Z</time>
        <sat>10</sat>
      </trkpt>
      <trkpt lat="42.258312" lon="-4.379343">
        <ele>807.2</ele>
        <time>2020-08-23T11:59:40Z</time>
        <sat>10</sat>
      </trkpt>
      <trkpt lat="42.258311" lon="-4.379453">
        <ele>807.2</ele>
        <time>2020-08-23T11:59:46Z</time>
        <sat>10</sat>
      </trkpt>
      <trkpt lat="42.258312" lon="-4.379578">
        <ele>807.1</ele>
        <time>2020-08-23T11:59:53Z</time>
        <sat>9</sat>
      </trkpt>
      <trkpt lat="42.258312" lon="-4.379704">
        <ele>807.2</ele>
        <time>2020-08-23T12:00:00Z</time>
        <sat>10</sat>
      </trkpt>
      <trkpt lat="42.258315" lon="-4.379831">
        <ele>807.3</ele>
        <time>2020-08-23T12:00:07Z</time>
        <sat>10</sat>
      </trkpt>
      <trkpt lat="42.258312" lon="-4.379948">
        <ele>807.4</ele>
        <time>2020-08-23T12:00:13Z</time>
        <sat>9</sat>
      </trkpt>
      <trkpt lat="42.258312" lon="-4.380075">
        <ele>807.3</ele>
        <time>2020-08-23T12:00:20Z</time>
        <sat>10</sat>
      </trkpt>
      <trkpt lat="42.258314" lon="-4.380186">
        <ele>807.2</ele>
        <time>2020-08-23T12:00:26Z</time>
        <sat>10</sat>
      </trkpt>
      <trkpt lat="42.258349" lon="-4.380294">
        <ele>807.3</ele>
        <time>2020-08-23T12:01:05Z</time>
        <sat>10</sat>
      </trkpt>
      <trkpt lat="42.258357" lon="-4.380418">
        <ele>807.1</ele>
        <time>2020-08-23T12:01:11Z</time>
        <sat>10</sat>
      </trkpt>
      <trkpt lat="42.258372" lon="-4.380539">
        <ele>807.3</ele>
        <time>2020-08-23T12:01:18Z</time>
        <sat>10</sat>
      </trkpt>
      <trkpt lat="42.258380" lon="-4.380649">
        <ele>807.3</ele>
        <time>2020-08-23T12:01:24Z</time>
        <sat>9</sat>
      </trkpt>
      <trkpt lat="42.258408" lon="-4.380766">
        <ele>807.2</ele>
        <time>2020-08-23T12:01:30Z</time>
        <sat>9</sat>
      </trkpt>
      <trkpt lat="42.258435" lon="-4.380889">
        <ele>807.2</ele>
        <time>2020-08-23T12:01:37Z</time>
        <sat>9</sat>
      </trkpt>
      <trkpt lat="42.258457" lon="-4.381002">
        <ele>807.3</ele>
        <time>2020-08-23T12:01:43Z</time>
        <sat>10</sat>
      </trkpt>
      <trkpt lat="42.258493" lon="-4.381113">
        <ele>807.3</ele>
        <time>2020-08-23T12:01:49Z</time>
        <sat>10</sat>
      </trkpt>
      <trkpt lat="42.258523" lon="-4.381219">
        <ele>807.3</ele>
        <time>2020-08-23T12:01:55Z</time>
        <sat>10</sat>
      </trkpt>
      <trkpt lat="42.258541" lon="-4.381329">
        <ele>807.3</ele>
        <time>2020-08-23T12:02:01Z</time>
        <sat>10</sat>
      </trkpt>
      <trkpt lat="42.258557" lon="-4.381449">
        <ele>807.1</ele>
        <time>2020-08-23T12:02:47Z</time>
        <sat>10</sat>
      </trkpt>
      <trkpt lat="42.258599" lon="-4.381546">
        <ele>807.1</ele>
        <time>2020-08-23T12:02:53Z</time>
        <sat>10</sat>
      </trkpt>
      <trkpt lat="42.258630" lon="-4.381659">
        <ele>807.1</ele>
        <time>2020-08-23T12:02:59Z</time>
        <sat>10</sat>
      </trkpt>
      <trkpt lat="42.258659" lon="-4.381769">
        <ele>807.1</ele>
        <time>2020-08-23T12:03:05Z</time>
        <sat>10</sat>
      </trkpt>
      <trkpt lat="42.258692" lon="-4.381877">
        <ele>807.1</ele>
        <time>2020-08-23T12:03:11Z</time>
        <sat>9</sat>
      </trkpt>
      <trkpt lat="42.258719" lon="-4.381998">
        <ele>807.2</ele>
        <time>2020-08-23T12:03:18Z</time>
        <sat>9</sat>
      </trkpt>
      <trkpt lat="42.258747" lon="-4.382114">
        <ele>807.1</ele>
        <time>2020-08-23T12:03:24Z</time>
        <sat>10</sat>
      </trkpt>
      <trkpt lat="42.258788" lon="-4.382222">
        <ele>807.1</ele>
        <time>2020-08-23T12:03:30Z</time>
        <sat>9</sat>
      </trkpt>
      <trkpt lat="42.258820" lon="-4.382339">
        <ele>807.0</ele>
        <time>2020-08-23T12:03:37Z</time>
        <sat>9</sat>
      </trkpt>
      <trkpt lat="42.258848" lon="-4.382462">
        <ele>807.0</ele>
        <time>2020-08-23T12:03:44Z</time>
        <sat>10</sat>
      </trkpt>
      <trkpt lat="42.258882" lon="-4.382564">
        <ele>806.9</ele>
        <time>2020-08-23T12:03:50Z</time>
        <sat>10</sat>
      </trkpt>
      <trkpt lat="42.258902" lon="-4.382686">
        <ele>806.9</ele>
        <time>2020-08-23T12:03:57Z</time>
        <sat>10</sat>
      </trkpt>
      <trkpt lat="42.258939" lon="-4.382803">
        <ele>807.0</ele>
        <time>2020-08-23T12:04:04Z</time>
        <sat>10</sat>
      </trkpt>
      <trkpt lat="42.258972" lon="-4.382920">
        <ele>807.0</ele>
        <time>2020-08-23T12:04:11Z</time>
        <sat>10</sat>
      </trkpt>
      <trkpt lat="42.258999" lon="-4.383037">
        <ele>807.0</ele>
        <time>2020-08-23T12:04:18Z</time>
        <sat>9</sat>
      </trkpt>
      <trkpt lat="42.259023" lon="-4.383155">
        <ele>807.1</ele>
        <time>2020-08-23T12:04:25Z</time>
        <sat>9</sat>
      </trkpt>
      <trkpt lat="42.259050" lon="-4.383258">
        <ele>807.1</ele>
        <time>2020-08-23T12:04:32Z</time>
        <sat>9</sat>
      </trkpt>
      <trkpt lat="42.259080" lon="-4.383369">
        <ele>807.2</ele>
        <time>2020-08-23T12:04:39Z</time>
        <sat>10</sat>
      </trkpt>
      <trkpt lat="42.259109" lon="-4.383474">
        <ele>807.2</ele>
        <time>2020-08-23T12:04:45Z</time>
        <sat>10</sat>
      </trkpt>
      <trkpt lat="42.259132" lon="-4.383596">
        <ele>807.3</ele>
        <time>2020-08-23T12:04:52Z</time>
        <sat>9</sat>
      </trkpt>
      <trkpt lat="42.259162" lon="-4.383701">
        <ele>807.4</ele>
        <time>2020-08-23T12:04:58Z</time>
        <sat>9</sat>
      </trkpt>
      <trkpt lat="42.259188" lon="-4.383817">
        <ele>807.5</ele>
        <time>2020-08-23T12:05:05Z</time>
        <sat>10</sat>
      </trkpt>
      <trkpt lat="42.259214" lon="-4.383929">
        <ele>807.6</ele>
        <time>2020-08-23T12:05:12Z</time>
        <sat>10</sat>
      </trkpt>
      <trkpt lat="42.259244" lon="-4.384040">
        <ele>807.5</ele>
        <time>2020-08-23T12:05:19Z</time>
        <sat>9</sat>
      </trkpt>
      <trkpt lat="42.259266" lon="-4.384155">
        <ele>807.5</ele>
        <time>2020-08-23T12:05:26Z</time>
        <sat>10</sat>
      </trkpt>
      <trkpt lat="42.259298" lon="-4.384268">
        <ele>807.5</ele>
        <time>2020-08-23T12:05:33Z</time>
        <sat>10</sat>
      </trkpt>
      <trkpt lat="42.259330" lon="-4.384385">
        <ele>807.4</ele>
        <time>2020-08-23T12:05:40Z</time>
        <sat>10</sat>
      </trkpt>
      <trkpt lat="42.259362" lon="-4.384497">
        <ele>807.3</ele>
        <time>2020-08-23T12:05:47Z</time>
        <sat>9</sat>
      </trkpt>
      <trkpt lat="42.259389" lon="-4.384604">
        <ele>807.4</ele>
        <time>2020-08-23T12:05:54Z</time>
        <sat>9</sat>
      </trkpt>
      <trkpt lat="42.259415" lon="-4.384712">
        <ele>807.5</ele>
        <time>2020-08-23T12:06:01Z</time>
        <sat>9</sat>
      </trkpt>
      <trkpt lat="42.259448" lon="-4.384816">
        <ele>807.4</ele>
        <time>2020-08-23T12:06:08Z</time>
        <sat>9</sat>
      </trkpt>
      <trkpt lat="42.259475" lon="-4.384924">
        <ele>807.5</ele>
        <time>2020-08-23T12:06:16Z</time>
        <sat>9</sat>
      </trkpt>
      <trkpt lat="42.259503" lon="-4.385045">
        <ele>807.5</ele>
        <time>2020-08-23T12:06:23Z</time>
        <sat>10</sat>
      </trkpt>
      <trkpt lat="42.259530" lon="-4.385159">
        <ele>807.6</ele>
        <time>2020-08-23T12:06:30Z</time>
        <sat>10</sat>
      </trkpt>
      <trkpt lat="42.259573" lon="-4.385270">
        <ele>807.5</ele>
        <time>2020-08-23T12:06:37Z</time>
        <sat>9</sat>
      </trkpt>
      <trkpt lat="42.259603" lon="-4.385386">
        <ele>807.7</ele>
        <time>2020-08-23T12:06:44Z</time>
        <sat>9</sat>
      </trkpt>
      <trkpt lat="42.259646" lon="-4.385497">
        <ele>807.6</ele>
        <time>2020-08-23T12:06:51Z</time>
        <sat>9</sat>
      </trkpt>
      <trkpt lat="42.259689" lon="-4.385606">
        <ele>807.5</ele>
        <time>2020-08-23T12:06:58Z</time>
        <sat>9</sat>
      </trkpt>
      <trkpt lat="42.259743" lon="-4.385709">
        <ele>807.6</ele>
        <time>2020-08-23T12:07:05Z</time>
        <sat>10</sat>
      </trkpt>
      <trkpt lat="42.259799" lon="-4.385804">
        <ele>807.7</ele>
        <time>2020-08-23T12:07:12Z</time>
        <sat>10</sat>
      </trkpt>
      <trkpt lat="42.259860" lon="-4.385893">
        <ele>807.8</ele>
        <time>2020-08-23T12:07:19Z</time>
        <sat>9</sat>
      </trkpt>
      <trkpt lat="42.259934" lon="-4.385971">
        <ele>807.8</ele>
        <time>2020-08-23T12:07:26Z</time>
        <sat>10</sat>
      </trkpt>
      <trkpt lat="42.259999" lon="-4.386039">
        <ele>807.9</ele>
        <time>2020-08-23T12:07:32Z</time>
        <sat>10</sat>
      </trkpt>
      <trkpt lat="42.260068" lon="-4.386100">
        <ele>808.0</ele>
        <time>2020-08-23T12:07:38Z</time>
        <sat>10</sat>
      </trkpt>
      <trkpt lat="42.260140" lon="-4.386162">
        <ele>808.0</ele>
        <time>2020-08-23T12:07:44Z</time>
        <sat>10</sat>
      </trkpt>
      <trkpt lat="42.260209" lon="-4.386225">
        <ele>808.0</ele>
        <time>2020-08-23T12:07:50Z</time>
        <sat>10</sat>
      </trkpt>
      <trkpt lat="42.260287" lon="-4.386294">
        <ele>807.7</ele>
        <time>2020-08-23T12:07:57Z</time>
        <sat>10</sat>
      </trkpt>
      <trkpt lat="42.260364" lon="-4.386359">
        <ele>807.7</ele>
        <time>2020-08-23T12:08:04Z</time>
        <sat>10</sat>
      </trkpt>
      <trkpt lat="42.260443" lon="-4.386419">
        <ele>807.7</ele>
        <time>2020-08-23T12:08:11Z</time>
        <sat>10</sat>
      </trkpt>
      <trkpt lat="42.260520" lon="-4.386486">
        <ele>807.7</ele>
        <time>2020-08-23T12:08:18Z</time>
        <sat>10</sat>
      </trkpt>
      <trkpt lat="42.260593" lon="-4.386555">
        <ele>807.5</ele>
        <time>2020-08-23T12:08:25Z</time>
        <sat>10</sat>
      </trkpt>
      <trkpt lat="42.260666" lon="-4.386609">
        <ele>807.3</ele>
        <time>2020-08-23T12:08:31Z</time>
        <sat>10</sat>
      </trkpt>
      <trkpt lat="42.260742" lon="-4.386681">
        <ele>807.6</ele>
        <time>2020-08-23T12:08:38Z</time>
        <sat>10</sat>
      </trkpt>
      <trkpt lat="42.260816" lon="-4.386727">
        <ele>807.6</ele>
        <time>2020-08-23T12:08:44Z</time>
        <sat>10</sat>
      </trkpt>
      <trkpt lat="42.260888" lon="-4.386796">
        <ele>807.6</ele>
        <time>2020-08-23T12:08:51Z</time>
        <sat>10</sat>
      </trkpt>
      <trkpt lat="42.260965" lon="-4.386851">
        <ele>807.6</ele>
        <time>2020-08-23T12:08:57Z</time>
        <sat>10</sat>
      </trkpt>
      <trkpt lat="42.261036" lon="-4.386933">
        <ele>807.5</ele>
        <time>2020-08-23T12:09:04Z</time>
        <sat>10</sat>
      </trkpt>
      <trkpt lat="42.261108" lon="-4.386991">
        <ele>807.5</ele>
        <time>2020-08-23T12:09:10Z</time>
        <sat>10</sat>
      </trkpt>
      <trkpt lat="42.261178" lon="-4.387063">
        <ele>807.6</ele>
        <time>2020-08-23T12:09:17Z</time>
        <sat>10</sat>
      </trkpt>
      <trkpt lat="42.261249" lon="-4.387118">
        <ele>807.4</ele>
        <time>2020-08-23T12:09:23Z</time>
        <sat>10</sat>
      </trkpt>
      <trkpt lat="42.261319" lon="-4.387187">
        <ele>807.4</ele>
        <time>2020-08-23T12:09:30Z</time>
        <sat>10</sat>
      </trkpt>
      <trkpt lat="42.261375" lon="-4.387278">
        <ele>807.4</ele>
        <time>2020-08-23T12:09:38Z</time>
        <sat>10</sat>
      </trkpt>
      <trkpt lat="42.261454" lon="-4.387308">
        <ele>807.5</ele>
        <time>2020-08-23T12:10:09Z</time>
        <sat>9</sat>
      </trkpt>
      <trkpt lat="42.261530" lon="-4.387352">
        <ele>808.1</ele>
        <time>2020-08-23T12:11:17Z</time>
        <sat>10</sat>
      </trkpt>
      <trkpt lat="42.261603" lon="-4.387419">
        <ele>807.7</ele>
        <time>2020-08-23T12:14:10Z</time>
        <sat>10</sat>
      </trkpt>
      <trkpt lat="42.261672" lon="-4.387479">
        <ele>807.6</ele>
        <time>2020-08-23T12:14:17Z</time>
        <sat>10</sat>
      </trkpt>
      <trkpt lat="42.261749" lon="-4.387548">
        <ele>807.6</ele>
        <time>2020-08-23T12:14:28Z</time>
        <sat>10</sat>
      </trkpt>
      <trkpt lat="42.261823" lon="-4.387620">
        <ele>807.6</ele>
        <time>2020-08-23T12:14:35Z</time>
        <sat>10</sat>
      </trkpt>
      <trkpt lat="42.261897" lon="-4.387671">
        <ele>807.7</ele>
        <time>2020-08-23T12:14:41Z</time>
        <sat>10</sat>
      </trkpt>
      <trkpt lat="42.261969" lon="-4.387745">
        <ele>807.8</ele>
        <time>2020-08-23T12:14:48Z</time>
        <sat>10</sat>
      </trkpt>
      <trkpt lat="42.262047" lon="-4.387801">
        <ele>807.9</ele>
        <time>2020-08-23T12:14:55Z</time>
        <sat>10</sat>
      </trkpt>
      <trkpt lat="42.262115" lon="-4.387861">
        <ele>808.1</ele>
        <time>2020-08-23T12:15:01Z</time>
        <sat>10</sat>
      </trkpt>
      <trkpt lat="42.262182" lon="-4.387933">
        <ele>808.3</ele>
        <time>2020-08-23T12:15:08Z</time>
        <sat>10</sat>
      </trkpt>
      <trkpt lat="42.262260" lon="-4.387984">
        <ele>808.4</ele>
        <time>2020-08-23T12:15:15Z</time>
        <sat>10</sat>
      </trkpt>
      <trkpt lat="42.262325" lon="-4.388050">
        <ele>808.4</ele>
        <time>2020-08-23T12:15:21Z</time>
        <sat>10</sat>
      </trkpt>
      <trkpt lat="42.262401" lon="-4.388115">
        <ele>808.7</ele>
        <time>2020-08-23T12:15:28Z</time>
        <sat>9</sat>
      </trkpt>
      <trkpt lat="42.262468" lon="-4.388179">
        <ele>808.7</ele>
        <time>2020-08-23T12:15:34Z</time>
        <sat>10</sat>
      </trkpt>
      <trkpt lat="42.262547" lon="-4.388242">
        <ele>808.6</ele>
        <time>2020-08-23T12:15:41Z</time>
        <sat>10</sat>
      </trkpt>
      <trkpt lat="42.262611" lon="-4.388308">
        <ele>808.6</ele>
        <time>2020-08-23T12:15:47Z</time>
        <sat>10</sat>
      </trkpt>
      <trkpt lat="42.262690" lon="-4.388365">
        <ele>808.6</ele>
        <time>2020-08-23T12:15:54Z</time>
        <sat>10</sat>
      </trkpt>
      <trkpt lat="42.262765" lon="-4.388439">
        <ele>808.5</ele>
        <time>2020-08-23T12:16:01Z</time>
        <sat>10</sat>
      </trkpt>
      <trkpt lat="42.262838" lon="-4.388504">
        <ele>808.6</ele>
        <time>2020-08-23T12:16:08Z</time>
        <sat>10</sat>
      </trkpt>
      <trkpt lat="42.262900" lon="-4.388578">
        <ele>808.6</ele>
        <time>2020-08-23T12:16:14Z</time>
        <sat>10</sat>
      </trkpt>
      <trkpt lat="42.262962" lon="-4.388662">
        <ele>808.7</ele>
        <time>2020-08-23T12:16:21Z</time>
        <sat>9</sat>
      </trkpt>
      <trkpt lat="42.263017" lon="-4.388757">
        <ele>808.7</ele>
        <time>2020-08-23T12:16:28Z</time>
        <sat>9</sat>
      </trkpt>
      <trkpt lat="42.263072" lon="-4.388857">
        <ele>808.6</ele>
        <time>2020-08-23T12:16:35Z</time>
        <sat>10</sat>
      </trkpt>
      <trkpt lat="42.263105" lon="-4.388964">
        <ele>808.5</ele>
        <time>2020-08-23T12:16:41Z</time>
        <sat>10</sat>
      </trkpt>
      <trkpt lat="42.263150" lon="-4.389075">
        <ele>808.5</ele>
        <time>2020-08-23T12:16:47Z</time>
        <sat>10</sat>
      </trkpt>
      <trkpt lat="42.263176" lon="-4.389194">
        <ele>808.5</ele>
        <time>2020-08-23T12:16:54Z</time>
        <sat>10</sat>
      </trkpt>
      <trkpt lat="42.263201" lon="-4.389312">
        <ele>808.3</ele>
        <time>2020-08-23T12:17:00Z</time>
        <sat>10</sat>
      </trkpt>
      <trkpt lat="42.263223" lon="-4.389420">
        <ele>808.2</ele>
        <time>2020-08-23T12:17:06Z</time>
        <sat>10</sat>
      </trkpt>
      <trkpt lat="42.263242" lon="-4.389545">
        <ele>808.1</ele>
        <time>2020-08-23T12:17:13Z</time>
        <sat>9</sat>
      </trkpt>
      <trkpt lat="42.263263" lon="-4.389656">
        <ele>808.1</ele>
        <time>2020-08-23T12:17:19Z</time>
        <sat>10</sat>
      </trkpt>
      <trkpt lat="42.263284" lon="-4.389763">
        <ele>808.2</ele>
        <time>2020-08-23T12:17:25Z</time>
        <sat>10</sat>
      </trkpt>
      <trkpt lat="42.263305" lon="-4.389876">
        <ele>808.2</ele>
        <time>2020-08-23T12:17:31Z</time>
        <sat>10</sat>
      </trkpt>
      <trkpt lat="42.263321" lon="-4.389997">
        <ele>808.3</ele>
        <time>2020-08-23T12:17:38Z</time>
        <sat>10</sat>
      </trkpt>
      <trkpt lat="42.263344" lon="-4.390119">
        <ele>808.3</ele>
        <time>2020-08-23T12:17:45Z</time>
        <sat>10</sat>
      </trkpt>
      <trkpt lat="42.263359" lon="-4.390242">
        <ele>808.3</ele>
        <time>2020-08-23T12:17:52Z</time>
        <sat>10</sat>
      </trkpt>
      <trkpt lat="42.263382" lon="-4.390351">
        <ele>808.3</ele>
        <time>2020-08-23T12:17:58Z</time>
        <sat>10</sat>
      </trkpt>
      <trkpt lat="42.263405" lon="-4.390466">
        <ele>808.2</ele>
        <time>2020-08-23T12:18:05Z</time>
        <sat>10</sat>
      </trkpt>
      <trkpt lat="42.263422" lon="-4.390583">
        <ele>808.4</ele>
        <time>2020-08-23T12:18:11Z</time>
        <sat>10</sat>
      </trkpt>
      <trkpt lat="42.263441" lon="-4.390696">
        <ele>807.9</ele>
        <time>2020-08-23T12:18:17Z</time>
        <sat>9</sat>
      </trkpt>
      <trkpt lat="42.263469" lon="-4.390799">
        <ele>808.2</ele>
        <time>2020-08-23T12:18:24Z</time>
        <sat>10</sat>
      </trkpt>
      <trkpt lat="42.263486" lon="-4.390916">
        <ele>807.0</ele>
        <time>2020-08-23T12:18:30Z</time>
        <sat>10</sat>
      </trkpt>
      <trkpt lat="42.263511" lon="-4.391023">
        <ele>808.7</ele>
        <time>2020-08-23T12:18:36Z</time>
        <sat>10</sat>
      </trkpt>
      <trkpt lat="42.263526" lon="-4.391132">
        <ele>809.0</ele>
        <time>2020-08-23T12:18:43Z</time>
        <sat>11</sat>
      </trkpt>
      <trkpt lat="42.263538" lon="-4.391247">
        <ele>808.8</ele>
        <time>2020-08-23T12:18:50Z</time>
        <sat>11</sat>
      </trkpt>
      <trkpt lat="42.263556" lon="-4.391360">
        <ele>808.6</ele>
        <time>2020-08-23T12:18:56Z</time>
        <sat>11</sat>
      </trkpt>
      <trkpt lat="42.263576" lon="-4.391469">
        <ele>808.4</ele>
        <time>2020-08-23T12:19:02Z</time>
        <sat>11</sat>
      </trkpt>
      <trkpt lat="42.263587" lon="-4.391583">
        <ele>808.4</ele>
        <time>2020-08-23T12:19:08Z</time>
        <sat>11</sat>
      </trkpt>
      <trkpt lat="42.263616" lon="-4.391691">
        <ele>808.3</ele>
        <time>2020-08-23T12:19:14Z</time>
        <sat>11</sat>
      </trkpt>
      <trkpt lat="42.263632" lon="-4.391812">
        <ele>808.2</ele>
        <time>2020-08-23T12:19:21Z</time>
        <sat>11</sat>
      </trkpt>
      <trkpt lat="42.263648" lon="-4.391935">
        <ele>808.2</ele>
        <time>2020-08-23T12:19:28Z</time>
        <sat>11</sat>
      </trkpt>
      <trkpt lat="42.263666" lon="-4.392058">
        <ele>808.1</ele>
        <time>2020-08-23T12:19:35Z</time>
        <sat>11</sat>
      </trkpt>
      <trkpt lat="42.263692" lon="-4.392165">
        <ele>808.2</ele>
        <time>2020-08-23T12:19:41Z</time>
        <sat>11</sat>
      </trkpt>
      <trkpt lat="42.263712" lon="-4.392280">
        <ele>808.2</ele>
        <time>2020-08-23T12:19:48Z</time>
        <sat>10</sat>
      </trkpt>
      <trkpt lat="42.263738" lon="-4.392389">
        <ele>808.2</ele>
        <time>2020-08-23T12:19:54Z</time>
        <sat>11</sat>
      </trkpt>
      <trkpt lat="42.263757" lon="-4.392511">
        <ele>808.1</ele>
        <time>2020-08-23T12:20:01Z</time>
        <sat>11</sat>
      </trkpt>
      <trkpt lat="42.263773" lon="-4.392621">
        <ele>808.0</ele>
        <time>2020-08-23T12:20:07Z</time>
        <sat>10</sat>
      </trkpt>
      <trkpt lat="42.263796" lon="-4.392729">
        <ele>808.1</ele>
        <time>2020-08-23T12:20:13Z</time>
        <sat>11</sat>
      </trkpt>
      <trkpt lat="42.263815" lon="-4.392838">
        <ele>807.9</ele>
        <time>2020-08-23T12:20:19Z</time>
        <sat>11</sat>
      </trkpt>
      <trkpt lat="42.263840" lon="-4.392959">
        <ele>807.6</ele>
        <time>2020-08-23T12:20:26Z</time>
        <sat>11</sat>
      </trkpt>
      <trkpt lat="42.263851" lon="-4.393073">
        <ele>807.5</ele>
        <time>2020-08-23T12:20:32Z</time>
        <sat>11</sat>
      </trkpt>
      <trkpt lat="42.263880" lon="-4.393183">
        <ele>807.4</ele>
        <time>2020-08-23T12:20:38Z</time>
        <sat>11</sat>
      </trkpt>
      <trkpt lat="42.263895" lon="-4.393299">
        <ele>807.4</ele>
        <time>2020-08-23T12:20:45Z</time>
        <sat>11</sat>
      </trkpt>
      <trkpt lat="42.263923" lon="-4.393409">
        <ele>807.4</ele>
        <time>2020-08-23T12:20:51Z</time>
        <sat>11</sat>
      </trkpt>
      <trkpt lat="42.263934" lon="-4.393519">
        <ele>807.6</ele>
        <time>2020-08-23T12:20:57Z</time>
        <sat>10</sat>
      </trkpt>
      <trkpt lat="42.263951" lon="-4.393631">
        <ele>807.6</ele>
        <time>2020-08-23T12:21:03Z</time>
        <sat>11</sat>
      </trkpt>
      <trkpt lat="42.263975" lon="-4.393741">
        <ele>807.7</ele>
        <time>2020-08-23T12:21:09Z</time>
        <sat>10</sat>
      </trkpt>
      <trkpt lat="42.263990" lon="-4.393850">
        <ele>807.7</ele>
        <time>2020-08-23T12:21:15Z</time>
        <sat>10</sat>
      </trkpt>
      <trkpt lat="42.264006" lon="-4.393959">
        <ele>807.7</ele>
        <time>2020-08-23T12:21:21Z</time>
        <sat>10</sat>
      </trkpt>
      <trkpt lat="42.264029" lon="-4.394077">
        <ele>807.7</ele>
        <time>2020-08-23T12:21:28Z</time>
        <sat>11</sat>
      </trkpt>
      <trkpt lat="42.264056" lon="-4.394185">
        <ele>807.7</ele>
        <time>2020-08-23T12:21:34Z</time>
        <sat>11</sat>
      </trkpt>
      <trkpt lat="42.264076" lon="-4.394296">
        <ele>807.8</ele>
        <time>2020-08-23T12:21:41Z</time>
        <sat>11</sat>
      </trkpt>
      <trkpt lat="42.264090" lon="-4.394404">
        <ele>807.9</ele>
        <time>2020-08-23T12:21:47Z</time>
        <sat>10</sat>
      </trkpt>
      <trkpt lat="42.264110" lon="-4.394512">
        <ele>808.0</ele>
        <time>2020-08-23T12:21:53Z</time>
        <sat>11</sat>
      </trkpt>
      <trkpt lat="42.264131" lon="-4.394622">
        <ele>808.0</ele>
        <time>2020-08-23T12:21:59Z</time>
        <sat>9</sat>
      </trkpt>
      <trkpt lat="42.264149" lon="-4.394734">
        <ele>808.0</ele>
        <time>2020-08-23T12:22:05Z</time>
        <sat>10</sat>
      </trkpt>
      <trkpt lat="42.264172" lon="-4.394850">
        <ele>807.8</ele>
        <time>2020-08-23T12:22:11Z</time>
        <sat>11</sat>
      </trkpt>
      <trkpt lat="42.264184" lon="-4.394961">
        <ele>807.8</ele>
        <time>2020-08-23T12:22:17Z</time>
        <sat>11</sat>
      </trkpt>
      <trkpt lat="42.264204" lon="-4.395070">
        <ele>807.7</ele>
        <time>2020-08-23T12:22:23Z</time>
        <sat>10</sat>
      </trkpt>
      <trkpt lat="42.264208" lon="-4.395180">
        <ele>807.8</ele>
        <time>2020-08-23T12:22:36Z</time>
        <sat>11</sat>
      </trkpt>
      <trkpt lat="42.264239" lon="-4.395281">
        <ele>807.8</ele>
        <time>2020-08-23T12:22:45Z</time>
        <sat>10</sat>
      </trkpt>
      <trkpt lat="42.264261" lon="-4.395389">
        <ele>807.8</ele>
        <time>2020-08-23T12:22:52Z</time>
        <sat>11</sat>
      </trkpt>
      <trkpt lat="42.264274" lon="-4.395510">
        <ele>807.8</ele>
        <time>2020-08-23T12:22:59Z</time>
        <sat>10</sat>
      </trkpt>
      <trkpt lat="42.264299" lon="-4.395615">
        <ele>807.7</ele>
        <time>2020-08-23T12:23:05Z</time>
        <sat>9</sat>
      </trkpt>
      <trkpt lat="42.264318" lon="-4.395737">
        <ele>807.7</ele>
        <time>2020-08-23T12:23:12Z</time>
        <sat>11</sat>
      </trkpt>
      <trkpt lat="42.264343" lon="-4.395848">
        <ele>807.6</ele>
        <time>2020-08-23T12:23:18Z</time>
        <sat>11</sat>
      </trkpt>
      <trkpt lat="42.264359" lon="-4.395958">
        <ele>807.8</ele>
        <time>2020-08-23T12:23:24Z</time>
        <sat>10</sat>
      </trkpt>
      <trkpt lat="42.264377" lon="-4.396068">
        <ele>807.8</ele>
        <time>2020-08-23T12:23:30Z</time>
        <sat>10</sat>
      </trkpt>
      <trkpt lat="42.264400" lon="-4.396175">
        <ele>807.8</ele>
        <time>2020-08-23T12:23:36Z</time>
        <sat>10</sat>
      </trkpt>
      <trkpt lat="42.264418" lon="-4.396285">
        <ele>807.8</ele>
        <time>2020-08-23T12:23:42Z</time>
        <sat>10</sat>
      </trkpt>
      <trkpt lat="42.264440" lon="-4.396395">
        <ele>807.7</ele>
        <time>2020-08-23T12:23:48Z</time>
        <sat>10</sat>
      </trkpt>
      <trkpt lat="42.264464" lon="-4.396515">
        <ele>807.6</ele>
        <time>2020-08-23T12:23:55Z</time>
        <sat>11</sat>
      </trkpt>
      <trkpt lat="42.264479" lon="-4.396625">
        <ele>807.6</ele>
        <time>2020-08-23T12:24:01Z</time>
        <sat>10</sat>
      </trkpt>
      <trkpt lat="42.264505" lon="-4.396742">
        <ele>807.6</ele>
        <time>2020-08-23T12:24:08Z</time>
        <sat>11</sat>
      </trkpt>
      <trkpt lat="42.264527" lon="-4.396848">
        <ele>807.7</ele>
        <time>2020-08-23T12:24:15Z</time>
        <sat>10</sat>
      </trkpt>
      <trkpt lat="42.264550" lon="-4.396970">
        <ele>807.7</ele>
        <time>2020-08-23T12:24:23Z</time>
        <sat>10</sat>
      </trkpt>
      <trkpt lat="42.264584" lon="-4.397083">
        <ele>807.5</ele>
        <time>2020-08-23T12:24:34Z</time>
        <sat>11</sat>
      </trkpt>
      <trkpt lat="42.264600" lon="-4.397206">
        <ele>807.5</ele>
        <time>2020-08-23T12:24:41Z</time>
        <sat>10</sat>
      </trkpt>
      <trkpt lat="42.264603" lon="-4.397328">
        <ele>807.5</ele>
        <time>2020-08-23T12:24:48Z</time>
        <sat>10</sat>
      </trkpt>
      <trkpt lat="42.264597" lon="-4.397455">
        <ele>807.6</ele>
        <time>2020-08-23T12:24:55Z</time>
        <sat>10</sat>
      </trkpt>
      <trkpt lat="42.264590" lon="-4.397571">
        <ele>807.6</ele>
        <time>2020-08-23T12:25:01Z</time>
        <sat>11</sat>
      </trkpt>
      <trkpt lat="42.264577" lon="-4.397687">
        <ele>807.7</ele>
        <time>2020-08-23T12:25:12Z</time>
        <sat>10</sat>
      </trkpt>
      <trkpt lat="42.264556" lon="-4.397801">
        <ele>807.8</ele>
        <time>2020-08-23T12:25:18Z</time>
        <sat>10</sat>
      </trkpt>
      <trkpt lat="42.264525" lon="-4.397906">
        <ele>807.8</ele>
        <time>2020-08-23T12:25:24Z</time>
        <sat>10</sat>
      </trkpt>
      <trkpt lat="42.264476" lon="-4.398002">
        <ele>807.8</ele>
        <time>2020-08-23T12:25:31Z</time>
        <sat>10</sat>
      </trkpt>
      <trkpt lat="42.264424" lon="-4.398095">
        <ele>807.8</ele>
        <time>2020-08-23T12:25:38Z</time>
        <sat>10</sat>
      </trkpt>
      <trkpt lat="42.264376" lon="-4.398185">
        <ele>807.8</ele>
        <time>2020-08-23T12:25:49Z</time>
        <sat>11</sat>
      </trkpt>
      <trkpt lat="42.264322" lon="-4.398270">
        <ele>807.7</ele>
        <time>2020-08-23T12:26:12Z</time>
        <sat>11</sat>
      </trkpt>
      <trkpt lat="42.264259" lon="-4.398348">
        <ele>807.8</ele>
        <time>2020-08-23T12:26:23Z</time>
        <sat>11</sat>
      </trkpt>
      <trkpt lat="42.264198" lon="-4.398428">
        <ele>807.8</ele>
        <time>2020-08-23T12:26:32Z</time>
        <sat>11</sat>
      </trkpt>
      <trkpt lat="42.264135" lon="-4.398502">
        <ele>807.8</ele>
        <time>2020-08-23T12:26:43Z</time>
        <sat>11</sat>
      </trkpt>
      <trkpt lat="42.264079" lon="-4.398587">
        <ele>807.8</ele>
        <time>2020-08-23T12:26:49Z</time>
        <sat>11</sat>
      </trkpt>
      <trkpt lat="42.264008" lon="-4.398661">
        <ele>807.7</ele>
        <time>2020-08-23T12:26:58Z</time>
        <sat>11</sat>
      </trkpt>
      <trkpt lat="42.263940" lon="-4.398741">
        <ele>807.6</ele>
        <time>2020-08-23T12:27:06Z</time>
        <sat>10</sat>
      </trkpt>
      <trkpt lat="42.263881" lon="-4.398817">
        <ele>807.6</ele>
        <time>2020-08-23T12:27:17Z</time>
        <sat>10</sat>
      </trkpt>
      <trkpt lat="42.263826" lon="-4.398898">
        <ele>807.5</ele>
        <time>2020-08-23T12:27:34Z</time>
        <sat>10</sat>
      </trkpt>
      <trkpt lat="42.263812" lon="-4.399008">
        <ele>807.7</ele>
        <time>2020-08-23T12:27:50Z</time>
        <sat>8</sat>
      </trkpt>
      <trkpt lat="42.263858" lon="-4.399109">
        <ele>807.3</ele>
        <time>2020-08-23T12:28:35Z</time>
        <sat>10</sat>
      </trkpt>
      <trkpt lat="42.263861" lon="-4.399232">
        <ele>807.8</ele>
        <time>2020-08-23T12:29:26Z</time>
        <sat>9</sat>
      </trkpt>
      <trkpt lat="42.263797" lon="-4.399317">
        <ele>807.2</ele>
        <time>2020-08-23T12:29:33Z</time>
        <sat>9</sat>
      </trkpt>
      <trkpt lat="42.263741" lon="-4.399401">
        <ele>806.8</ele>
        <time>2020-08-23T12:29:40Z</time>
        <sat>9</sat>
      </trkpt>
      <trkpt lat="42.263672" lon="-4.399475">
        <ele>806.0</ele>
        <time>2020-08-23T12:29:48Z</time>
        <sat>8</sat>
      </trkpt>
      <trkpt lat="42.263602" lon="-4.399553">
        <ele>804.5</ele>
        <time>2020-08-23T12:29:56Z</time>
        <sat>9</sat>
      </trkpt>
      <trkpt lat="42.263535" lon="-4.399629">
        <ele>804.0</ele>
        <time>2020-08-23T12:30:03Z</time>
        <sat>9</sat>
      </trkpt>
      <trkpt lat="42.263472" lon="-4.399708">
        <ele>803.0</ele>
        <time>2020-08-23T12:30:10Z</time>
        <sat>9</sat>
      </trkpt>
      <trkpt lat="42.263409" lon="-4.399790">
        <ele>801.9</ele>
        <time>2020-08-23T12:30:17Z</time>
        <sat>10</sat>
      </trkpt>
      <trkpt lat="42.263346" lon="-4.399884">
        <ele>801.0</ele>
        <time>2020-08-23T12:30:24Z</time>
        <sat>9</sat>
      </trkpt>
      <trkpt lat="42.263322" lon="-4.400004">
        <ele>800.2</ele>
        <time>2020-08-23T12:30:35Z</time>
        <sat>10</sat>
      </trkpt>
      <trkpt lat="42.263241" lon="-4.400028">
        <ele>800.0</ele>
        <time>2020-08-23T12:30:42Z</time>
        <sat>10</sat>
      </trkpt>
      <trkpt lat="42.263181" lon="-4.399942">
        <ele>799.9</ele>
        <time>2020-08-23T12:30:53Z</time>
        <sat>10</sat>
      </trkpt>
      <trkpt lat="42.263269" lon="-4.399944">
        <ele>799.8</ele>
        <time>2020-08-23T12:32:11Z</time>
        <sat>10</sat>
      </trkpt>
      <trkpt lat="42.263338" lon="-4.399885">
        <ele>799.7</ele>
        <time>2020-08-23T12:32:46Z</time>
        <sat>10</sat>
      </trkpt>
      <trkpt lat="42.263389" lon="-4.399795">
        <ele>800.0</ele>
        <time>2020-08-23T12:32:58Z</time>
        <sat>10</sat>
      </trkpt>
      <trkpt lat="42.263455" lon="-4.399723">
        <ele>800.2</ele>
        <time>2020-08-23T12:33:05Z</time>
        <sat>10</sat>
      </trkpt>
      <trkpt lat="42.263518" lon="-4.399649">
        <ele>800.6</ele>
        <time>2020-08-23T12:33:13Z</time>
        <sat>10</sat>
      </trkpt>
      <trkpt lat="42.263585" lon="-4.399576">
        <ele>801.3</ele>
        <time>2020-08-23T12:33:21Z</time>
        <sat>10</sat>
      </trkpt>
      <trkpt lat="42.263655" lon="-4.399504">
        <ele>802.2</ele>
        <time>2020-08-23T12:33:30Z</time>
        <sat>10</sat>
      </trkpt>
      <trkpt lat="42.263717" lon="-4.399432">
        <ele>803.2</ele>
        <time>2020-08-23T12:33:37Z</time>
        <sat>9</sat>
      </trkpt>
      <trkpt lat="42.263784" lon="-4.399348">
        <ele>804.8</ele>
        <time>2020-08-23T12:33:46Z</time>
        <sat>10</sat>
      </trkpt>
      <trkpt lat="42.263846" lon="-4.399275">
        <ele>805.7</ele>
        <time>2020-08-23T12:33:53Z</time>
        <sat>9</sat>
      </trkpt>
      <trkpt lat="42.263916" lon="-4.399212">
        <ele>806.6</ele>
        <time>2020-08-23T12:34:00Z</time>
        <sat>10</sat>
      </trkpt>
      <trkpt lat="42.264005" lon="-4.399181">
        <ele>808.0</ele>
        <time>2020-08-23T12:34:24Z</time>
        <sat>10</sat>
      </trkpt>
      <trkpt lat="42.264083" lon="-4.399134">
        <ele>808.1</ele>
        <time>2020-08-23T12:34:31Z</time>
        <sat>10</sat>
      </trkpt>
      <trkpt lat="42.264167" lon="-4.399089">
        <ele>807.5</ele>
        <time>2020-08-23T12:34:38Z</time>
        <sat>10</sat>
      </trkpt>
      <trkpt lat="42.264254" lon="-4.399073">
        <ele>806.6</ele>
        <time>2020-08-23T12:34:45Z</time>
        <sat>10</sat>
      </trkpt>
      <trkpt lat="42.264307" lon="-4.399157">
        <ele>805.9</ele>
        <time>2020-08-23T12:34:53Z</time>
        <sat>10</sat>
      </trkpt>
      <trkpt lat="42.264369" lon="-4.399239">
        <ele>805.2</ele>
        <time>2020-08-23T12:35:03Z</time>
        <sat>9</sat>
      </trkpt>
      <trkpt lat="42.264434" lon="-4.399320">
        <ele>804.9</ele>
        <time>2020-08-23T12:35:11Z</time>
        <sat>10</sat>
      </trkpt>
      <trkpt lat="42.264500" lon="-4.399394">
        <ele>804.6</ele>
        <time>2020-08-23T12:35:18Z</time>
        <sat>10</sat>
      </trkpt>
      <trkpt lat="42.264568" lon="-4.399470">
        <ele>804.6</ele>
        <time>2020-08-23T12:35:25Z</time>
        <sat>10</sat>
      </trkpt>
      <trkpt lat="42.264632" lon="-4.399541">
        <ele>804.5</ele>
        <time>2020-08-23T12:35:32Z</time>
        <sat>10</sat>
      </trkpt>
      <trkpt lat="42.264696" lon="-4.399631">
        <ele>804.2</ele>
        <time>2020-08-23T12:35:40Z</time>
        <sat>9</sat>
      </trkpt>
      <trkpt lat="42.264762" lon="-4.399722">
        <ele>804.1</ele>
        <time>2020-08-23T12:35:48Z</time>
        <sat>10</sat>
      </trkpt>
      <trkpt lat="42.264824" lon="-4.399812">
        <ele>804.1</ele>
        <time>2020-08-23T12:35:56Z</time>
        <sat>10</sat>
      </trkpt>
      <trkpt lat="42.264874" lon="-4.399908">
        <ele>803.8</ele>
        <time>2020-08-23T12:36:04Z</time>
        <sat>10</sat>
      </trkpt>
      <trkpt lat="42.264899" lon="-4.400016">
        <ele>803.6</ele>
        <time>2020-08-23T12:36:16Z</time>
        <sat>10</sat>
      </trkpt>
      <trkpt lat="42.264907" lon="-4.400139">
        <ele>803.3</ele>
        <time>2020-08-23T12:36:23Z</time>
        <sat>10</sat>
      </trkpt>
      <trkpt lat="42.264966" lon="-4.400223">
        <ele>803.1</ele>
        <time>2020-08-23T12:36:29Z</time>
        <sat>10</sat>
      </trkpt>
      <trkpt lat="42.265028" lon="-4.400304">
        <ele>803.0</ele>
        <time>2020-08-23T12:36:40Z</time>
        <sat>10</sat>
      </trkpt>
      <trkpt lat="42.265100" lon="-4.400380">
        <ele>803.1</ele>
        <time>2020-08-23T12:36:47Z</time>
        <sat>10</sat>
      </trkpt>
      <trkpt lat="42.265161" lon="-4.400453">
        <ele>803.0</ele>
        <time>2020-08-23T12:36:53Z</time>
        <sat>10</sat>
      </trkpt>
      <trkpt lat="42.265233" lon="-4.400530">
        <ele>803.0</ele>
        <time>2020-08-23T12:37:00Z</time>
        <sat>10</sat>
      </trkpt>
      <trkpt lat="42.265301" lon="-4.400606">
        <ele>803.0</ele>
        <time>2020-08-23T12:37:07Z</time>
        <sat>10</sat>
      </trkpt>
      <trkpt lat="42.265369" lon="-4.400674">
        <ele>803.0</ele>
        <time>2020-08-23T12:37:14Z</time>
        <sat>10</sat>
      </trkpt>
      <trkpt lat="42.265444" lon="-4.400729">
        <ele>803.0</ele>
        <time>2020-08-23T12:37:21Z</time>
        <sat>10</sat>
      </trkpt>
      <trkpt lat="42.265517" lon="-4.400785">
        <ele>802.9</ele>
        <time>2020-08-23T12:37:28Z</time>
        <sat>10</sat>
      </trkpt>
      <trkpt lat="42.265589" lon="-4.400842">
        <ele>802.6</ele>
        <time>2020-08-23T12:37:35Z</time>
        <sat>10</sat>
      </trkpt>
      <trkpt lat="42.265665" lon="-4.400900">
        <ele>802.2</ele>
        <time>2020-08-23T12:37:42Z</time>
        <sat>10</sat>
      </trkpt>
      <trkpt lat="42.265744" lon="-4.400959">
        <ele>801.7</ele>
        <time>2020-08-23T12:37:49Z</time>
        <sat>10</sat>
      </trkpt>
      <trkpt lat="42.265820" lon="-4.401006">
        <ele>801.4</ele>
        <time>2020-08-23T12:37:55Z</time>
        <sat>10</sat>
      </trkpt>
      <trkpt lat="42.265894" lon="-4.401080">
        <ele>801.0</ele>
        <time>2020-08-23T12:38:02Z</time>
        <sat>9</sat>
      </trkpt>
      <trkpt lat="42.265978" lon="-4.401136">
        <ele>800.4</ele>
        <time>2020-08-23T12:38:09Z</time>
        <sat>9</sat>
      </trkpt>
      <trkpt lat="42.266044" lon="-4.401209">
        <ele>799.9</ele>
        <time>2020-08-23T12:38:16Z</time>
        <sat>9</sat>
      </trkpt>
      <trkpt lat="42.266105" lon="-4.401291">
        <ele>799.5</ele>
        <time>2020-08-23T12:38:23Z</time>
        <sat>10</sat>
      </trkpt>
      <trkpt lat="42.266148" lon="-4.401400">
        <ele>799.0</ele>
        <time>2020-08-23T12:38:32Z</time>
        <sat>10</sat>
      </trkpt>
      <trkpt lat="42.266186" lon="-4.401505">
        <ele>798.7</ele>
        <time>2020-08-23T12:38:39Z</time>
        <sat>10</sat>
      </trkpt>
      <trkpt lat="42.266208" lon="-4.401611">
        <ele>798.2</ele>
        <time>2020-08-23T12:38:46Z</time>
        <sat>9</sat>
      </trkpt>
      <trkpt lat="42.266228" lon="-4.401726">
        <ele>797.5</ele>
        <time>2020-08-23T12:38:55Z</time>
        <sat>8</sat>
      </trkpt>
      <trkpt lat="42.266256" lon="-4.401837">
        <ele>797.2</ele>
        <time>2020-08-23T12:39:02Z</time>
        <sat>9</sat>
      </trkpt>
      <trkpt lat="42.266287" lon="-4.401941">
        <ele>797.2</ele>
        <time>2020-08-23T12:39:10Z</time>
        <sat>8</sat>
      </trkpt>
      <trkpt lat="42.266297" lon="-4.402057">
        <ele>797.4</ele>
        <time>2020-08-23T12:39:17Z</time>
        <sat>9</sat>
      </trkpt>
      <trkpt lat="42.266283" lon="-4.402168">
        <ele>797.5</ele>
        <time>2020-08-23T12:39:23Z</time>
        <sat>8</sat>
      </trkpt>
      <trkpt lat="42.266280" lon="-4.402288">
        <ele>797.6</ele>
        <time>2020-08-23T12:39:30Z</time>
        <sat>8</sat>
      </trkpt>
      <trkpt lat="42.266272" lon="-4.402410">
        <ele>797.9</ele>
        <time>2020-08-23T12:39:37Z</time>
        <sat>9</sat>
      </trkpt>
      <trkpt lat="42.266272" lon="-4.402528">
        <ele>798.2</ele>
        <time>2020-08-23T12:39:44Z</time>
        <sat>8</sat>
      </trkpt>
      <trkpt lat="42.266272" lon="-4.402638">
        <ele>798.4</ele>
        <time>2020-08-23T12:39:50Z</time>
        <sat>9</sat>
      </trkpt>
      <trkpt lat="42.266266" lon="-4.402754">
        <ele>798.7</ele>
        <time>2020-08-23T12:39:57Z</time>
        <sat>10</sat>
      </trkpt>
      <trkpt lat="42.266288" lon="-4.402869">
        <ele>798.9</ele>
        <time>2020-08-23T12:40:06Z</time>
        <sat>10</sat>
      </trkpt>
      <trkpt lat="42.266297" lon="-4.402982">
        <ele>799.0</ele>
        <time>2020-08-23T12:40:13Z</time>
        <sat>9</sat>
      </trkpt>
      <trkpt lat="42.266297" lon="-4.403096">
        <ele>799.0</ele>
        <time>2020-08-23T12:40:20Z</time>
        <sat>9</sat>
      </trkpt>
      <trkpt lat="42.266298" lon="-4.403218">
        <ele>798.8</ele>
        <time>2020-08-23T12:40:28Z</time>
        <sat>9</sat>
      </trkpt>
      <trkpt lat="42.266274" lon="-4.403332">
        <ele>798.8</ele>
        <time>2020-08-23T12:40:35Z</time>
        <sat>8</sat>
      </trkpt>
      <trkpt lat="42.266270" lon="-4.403459">
        <ele>798.7</ele>
        <time>2020-08-23T12:40:43Z</time>
        <sat>9</sat>
      </trkpt>
      <trkpt lat="42.266281" lon="-4.403578">
        <ele>798.6</ele>
        <time>2020-08-23T12:40:51Z</time>
        <sat>10</sat>
      </trkpt>
      <trkpt lat="42.266270" lon="-4.403688">
        <ele>798.5</ele>
        <time>2020-08-23T12:40:58Z</time>
        <sat>10</sat>
      </trkpt>
      <trkpt lat="42.266271" lon="-4.403804">
        <ele>798.5</ele>
        <time>2020-08-23T12:41:04Z</time>
        <sat>10</sat>
      </trkpt>
      <trkpt lat="42.266236" lon="-4.403912">
        <ele>798.5</ele>
        <time>2020-08-23T12:41:12Z</time>
        <sat>9</sat>
      </trkpt>
      <trkpt lat="42.266221" lon="-4.404029">
        <ele>798.3</ele>
        <time>2020-08-23T12:41:19Z</time>
        <sat>10</sat>
      </trkpt>
      <trkpt lat="42.266237" lon="-4.404158">
        <ele>798.3</ele>
        <time>2020-08-23T12:41:26Z</time>
        <sat>9</sat>
      </trkpt>
      <trkpt lat="42.266221" lon="-4.404274">
        <ele>798.3</ele>
        <time>2020-08-23T12:41:33Z</time>
        <sat>9</sat>
      </trkpt>
      <trkpt lat="42.266222" lon="-4.404384">
        <ele>798.2</ele>
        <time>2020-08-23T12:41:40Z</time>
        <sat>9</sat>
      </trkpt>
      <trkpt lat="42.266207" lon="-4.404509">
        <ele>798.1</ele>
        <time>2020-08-23T12:41:48Z</time>
        <sat>10</sat>
      </trkpt>
      <trkpt lat="42.266195" lon="-4.404622">
        <ele>798.0</ele>
        <time>2020-08-23T12:41:58Z</time>
        <sat>10</sat>
      </trkpt>
      <trkpt lat="42.266201" lon="-4.404742">
        <ele>797.9</ele>
        <time>2020-08-23T12:42:07Z</time>
        <sat>10</sat>
      </trkpt>
      <trkpt lat="42.266174" lon="-4.404874">
        <ele>797.8</ele>
        <time>2020-08-23T12:42:14Z</time>
        <sat>10</sat>
      </trkpt>
      <trkpt lat="42.266167" lon="-4.405002">
        <ele>797.7</ele>
        <time>2020-08-23T12:42:19Z</time>
        <sat>10</sat>
      </trkpt>
      <trkpt lat="42.266167" lon="-4.405117">
        <ele>797.7</ele>
        <time>2020-08-23T12:42:24Z</time>
        <sat>10</sat>
      </trkpt>
      <trkpt lat="42.266160" lon="-4.405229">
        <ele>797.5</ele>
        <time>2020-08-23T12:42:29Z</time>
        <sat>10</sat>
      </trkpt>
      <trkpt lat="42.266153" lon="-4.405343">
        <ele>797.3</ele>
        <time>2020-08-23T12:42:35Z</time>
        <sat>10</sat>
      </trkpt>
      <trkpt lat="42.266144" lon="-4.405464">
        <ele>797.2</ele>
        <time>2020-08-23T12:42:42Z</time>
        <sat>10</sat>
      </trkpt>
      <trkpt lat="42.266134" lon="-4.405576">
        <ele>797.2</ele>
        <time>2020-08-23T12:42:48Z</time>
        <sat>10</sat>
      </trkpt>
      <trkpt lat="42.266126" lon="-4.405704">
        <ele>797.2</ele>
        <time>2020-08-23T12:42:55Z</time>
        <sat>10</sat>
      </trkpt>
      <trkpt lat="42.266129" lon="-4.405815">
        <ele>797.4</ele>
        <time>2020-08-23T12:43:01Z</time>
        <sat>10</sat>
      </trkpt>
      <trkpt lat="42.266177" lon="-4.405904">
        <ele>797.5</ele>
        <time>2020-08-23T12:43:08Z</time>
        <sat>9</sat>
      </trkpt>
      <trkpt lat="42.266194" lon="-4.406013">
        <ele>797.2</ele>
        <time>2020-08-23T12:43:15Z</time>
        <sat>9</sat>
      </trkpt>
      <trkpt lat="42.266170" lon="-4.406125">
        <ele>797.2</ele>
        <time>2020-08-23T12:43:23Z</time>
        <sat>10</sat>
      </trkpt>
      <trkpt lat="42.266189" lon="-4.406233">
        <ele>796.2</ele>
        <time>2020-08-23T12:43:38Z</time>
        <sat>9</sat>
      </trkpt>
      <trkpt lat="42.266047" lon="-4.406316">
        <ele>791.0</ele>
        <time>2020-08-24T05:00:22Z</time>
        <sat>6</sat>
      </trkpt>
      <trkpt lat="42.265997" lon="-4.406417">
        <ele>790.8</ele>
        <time>2020-08-24T05:00:40Z</time>
        <sat>6</sat>
      </trkpt>
      <trkpt lat="42.265960" lon="-4.406523">
        <ele>791.2</ele>
        <time>2020-08-24T05:00:44Z</time>
        <sat>6</sat>
      </trkpt>
      <trkpt lat="42.265897" lon="-4.406606">
        <ele>791.7</ele>
        <time>2020-08-24T05:00:51Z</time>
        <sat>5</sat>
      </trkpt>
      <trkpt lat="42.265831" lon="-4.406689">
        <ele>792.9</ele>
        <time>2020-08-24T05:00:57Z</time>
        <sat>6</sat>
      </trkpt>
      <trkpt lat="42.265771" lon="-4.406771">
        <ele>793.7</ele>
        <time>2020-08-24T05:01:04Z</time>
        <sat>6</sat>
      </trkpt>
      <trkpt lat="42.265709" lon="-4.406842">
        <ele>792.4</ele>
        <time>2020-08-24T05:01:09Z</time>
        <sat>5</sat>
      </trkpt>
      <trkpt lat="42.265646" lon="-4.406935">
        <ele>792.3</ele>
        <time>2020-08-24T05:01:15Z</time>
        <sat>5</sat>
      </trkpt>
      <trkpt lat="42.265589" lon="-4.407021">
        <ele>793.1</ele>
        <time>2020-08-24T05:01:21Z</time>
        <sat>4</sat>
      </trkpt>
      <trkpt lat="42.265532" lon="-4.407122">
        <ele>793.9</ele>
        <time>2020-08-24T05:01:28Z</time>
        <sat>6</sat>
      </trkpt>
      <trkpt lat="42.265485" lon="-4.407212">
        <ele>793.9</ele>
        <time>2020-08-24T05:01:35Z</time>
        <sat>5</sat>
      </trkpt>
      <trkpt lat="42.265437" lon="-4.407320">
        <ele>793.6</ele>
        <time>2020-08-24T05:01:42Z</time>
        <sat>6</sat>
      </trkpt>
      <trkpt lat="42.265394" lon="-4.407429">
        <ele>793.1</ele>
        <time>2020-08-24T05:01:49Z</time>
        <sat>6</sat>
      </trkpt>
      <trkpt lat="42.265358" lon="-4.407539">
        <ele>793.2</ele>
        <time>2020-08-24T05:01:56Z</time>
        <sat>6</sat>
      </trkpt>
      <trkpt lat="42.265323" lon="-4.407638">
        <ele>793.1</ele>
        <time>2020-08-24T05:02:02Z</time>
        <sat>5</sat>
      </trkpt>
      <trkpt lat="42.265297" lon="-4.407752">
        <ele>793.3</ele>
        <time>2020-08-24T05:02:09Z</time>
        <sat>6</sat>
      </trkpt>
      <trkpt lat="42.265273" lon="-4.407875">
        <ele>793.2</ele>
        <time>2020-08-24T05:02:16Z</time>
        <sat>6</sat>
      </trkpt>
      <trkpt lat="42.265255" lon="-4.407988">
        <ele>793.0</ele>
        <time>2020-08-24T05:02:22Z</time>
        <sat>6</sat>
      </trkpt>
      <trkpt lat="42.265254" lon="-4.408115">
        <ele>792.9</ele>
        <time>2020-08-24T05:02:29Z</time>
        <sat>6</sat>
      </trkpt>
      <trkpt lat="42.265244" lon="-4.408234">
        <ele>792.7</ele>
        <time>2020-08-24T05:02:36Z</time>
        <sat>5</sat>
      </trkpt>
      <trkpt lat="42.265270" lon="-4.408342">
        <ele>792.6</ele>
        <time>2020-08-24T05:02:42Z</time>
        <sat>6</sat>
      </trkpt>
      <trkpt lat="42.265260" lon="-4.408467">
        <ele>792.5</ele>
        <time>2020-08-24T05:02:49Z</time>
        <sat>6</sat>
      </trkpt>
      <trkpt lat="42.265258" lon="-4.408579">
        <ele>792.3</ele>
        <time>2020-08-24T05:02:55Z</time>
        <sat>6</sat>
      </trkpt>
      <trkpt lat="42.265253" lon="-4.408696">
        <ele>792.4</ele>
        <time>2020-08-24T05:03:01Z</time>
        <sat>5</sat>
      </trkpt>
      <trkpt lat="42.265242" lon="-4.408814">
        <ele>790.9</ele>
        <time>2020-08-24T05:03:07Z</time>
        <sat>6</sat>
      </trkpt>
      <trkpt lat="42.265234" lon="-4.408924">
        <ele>791.1</ele>
        <time>2020-08-24T05:03:14Z</time>
        <sat>6</sat>
      </trkpt>
      <trkpt lat="42.265238" lon="-4.409039">
        <ele>793.9</ele>
        <time>2020-08-24T05:03:20Z</time>
        <sat>6</sat>
      </trkpt>
      <trkpt lat="42.265236" lon="-4.409155">
        <ele>794.4</ele>
        <time>2020-08-24T05:03:27Z</time>
        <sat>6</sat>
      </trkpt>
      <trkpt lat="42.265232" lon="-4.409278">
        <ele>794.2</ele>
        <time>2020-08-24T05:03:34Z</time>
        <sat>6</sat>
      </trkpt>
      <trkpt lat="42.265230" lon="-4.409401">
        <ele>794.1</ele>
        <time>2020-08-24T05:03:41Z</time>
        <sat>5</sat>
      </trkpt>
      <trkpt lat="42.265214" lon="-4.409526">
        <ele>794.1</ele>
        <time>2020-08-24T05:03:48Z</time>
        <sat>5</sat>
      </trkpt>
      <trkpt lat="42.265178" lon="-4.409643">
        <ele>794.4</ele>
        <time>2020-08-24T05:03:55Z</time>
        <sat>6</sat>
      </trkpt>
      <trkpt lat="42.265166" lon="-4.409766">
        <ele>794.5</ele>
        <time>2020-08-24T05:04:02Z</time>
        <sat>7</sat>
      </trkpt>
      <trkpt lat="42.265164" lon="-4.409875">
        <ele>794.7</ele>
        <time>2020-08-24T05:04:08Z</time>
        <sat>6</sat>
      </trkpt>
      <trkpt lat="42.265160" lon="-4.409986">
        <ele>794.9</ele>
        <time>2020-08-24T05:04:14Z</time>
        <sat>6</sat>
      </trkpt>
      <trkpt lat="42.265165" lon="-4.410099">
        <ele>795.0</ele>
        <time>2020-08-24T05:04:20Z</time>
        <sat>7</sat>
      </trkpt>
      <trkpt lat="42.265157" lon="-4.410224">
        <ele>795.2</ele>
        <time>2020-08-24T05:04:27Z</time>
        <sat>7</sat>
      </trkpt>
      <trkpt lat="42.265149" lon="-4.410334">
        <ele>795.2</ele>
        <time>2020-08-24T05:04:33Z</time>
        <sat>7</sat>
      </trkpt>
      <trkpt lat="42.265149" lon="-4.410458">
        <ele>795.2</ele>
        <time>2020-08-24T05:04:40Z</time>
        <sat>7</sat>
      </trkpt>
      <trkpt lat="42.265134" lon="-4.410583">
        <ele>795.1</ele>
        <time>2020-08-24T05:04:47Z</time>
        <sat>6</sat>
      </trkpt>
      <trkpt lat="42.265138" lon="-4.410709">
        <ele>794.0</ele>
        <time>2020-08-24T05:04:54Z</time>
        <sat>7</sat>
      </trkpt>
      <trkpt lat="42.265138" lon="-4.410832">
        <ele>795.0</ele>
        <time>2020-08-24T05:05:01Z</time>
        <sat>6</sat>
      </trkpt>
      <trkpt lat="42.265129" lon="-4.410944">
        <ele>795.0</ele>
        <time>2020-08-24T05:05:07Z</time>
        <sat>7</sat>
      </trkpt>
      <trkpt lat="42.265130" lon="-4.411057">
        <ele>794.9</ele>
        <time>2020-08-24T05:05:13Z</time>
        <sat>7</sat>
      </trkpt>
      <trkpt lat="42.265116" lon="-4.411179">
        <ele>794.8</ele>
        <time>2020-08-24T05:05:20Z</time>
        <sat>7</sat>
      </trkpt>
      <trkpt lat="42.265110" lon="-4.411299">
        <ele>794.5</ele>
        <time>2020-08-24T05:05:27Z</time>
        <sat>7</sat>
      </trkpt>
      <trkpt lat="42.265096" lon="-4.411416">
        <ele>793.0</ele>
        <time>2020-08-24T05:05:35Z</time>
        <sat>7</sat>
      </trkpt>
      <trkpt lat="42.265100" lon="-4.411543">
        <ele>793.8</ele>
        <time>2020-08-24T05:05:43Z</time>
        <sat>7</sat>
      </trkpt>
      <trkpt lat="42.265110" lon="-4.411655">
        <ele>793.6</ele>
        <time>2020-08-24T05:05:50Z</time>
        <sat>7</sat>
      </trkpt>
      <trkpt lat="42.265123" lon="-4.411765">
        <ele>793.5</ele>
        <time>2020-08-24T05:05:58Z</time>
        <sat>7</sat>
      </trkpt>
      <trkpt lat="42.265124" lon="-4.411889">
        <ele>790.7</ele>
        <time>2020-08-24T05:06:30Z</time>
        <sat>7</sat>
      </trkpt>
      <trkpt lat="42.265126" lon="-4.412003">
        <ele>795.4</ele>
        <time>2020-08-24T05:06:35Z</time>
        <sat>7</sat>
      </trkpt>
      <trkpt lat="42.265120" lon="-4.412126">
        <ele>796.2</ele>
        <time>2020-08-24T05:06:42Z</time>
        <sat>7</sat>
      </trkpt>
      <trkpt lat="42.265112" lon="-4.412252">
        <ele>797.8</ele>
        <time>2020-08-24T05:06:49Z</time>
        <sat>7</sat>
      </trkpt>
      <trkpt lat="42.265108" lon="-4.412364">
        <ele>798.5</ele>
        <time>2020-08-24T05:06:55Z</time>
        <sat>7</sat>
      </trkpt>
      <trkpt lat="42.265096" lon="-4.412474">
        <ele>799.0</ele>
        <time>2020-08-24T05:07:01Z</time>
        <sat>7</sat>
      </trkpt>
      <trkpt lat="42.265085" lon="-4.412584">
        <ele>799.4</ele>
        <time>2020-08-24T05:07:07Z</time>
        <sat>7</sat>
      </trkpt>
      <trkpt lat="42.265075" lon="-4.412704">
        <ele>799.6</ele>
        <time>2020-08-24T05:07:14Z</time>
        <sat>7</sat>
      </trkpt>
      <trkpt lat="42.265066" lon="-4.412815">
        <ele>799.8</ele>
        <time>2020-08-24T05:07:20Z</time>
        <sat>7</sat>
      </trkpt>
      <trkpt lat="42.265063" lon="-4.412932">
        <ele>800.0</ele>
        <time>2020-08-24T05:07:27Z</time>
        <sat>7</sat>
      </trkpt>
      <trkpt lat="42.265059" lon="-4.413043">
        <ele>799.9</ele>
        <time>2020-08-24T05:07:33Z</time>
        <sat>7</sat>
      </trkpt>
      <trkpt lat="42.265042" lon="-4.413159">
        <ele>800.2</ele>
        <time>2020-08-24T05:07:40Z</time>
        <sat>7</sat>
      </trkpt>
      <trkpt lat="42.265019" lon="-4.413264">
        <ele>800.4</ele>
        <time>2020-08-24T05:07:46Z</time>
        <sat>7</sat>
      </trkpt>
      <trkpt lat="42.265016" lon="-4.413390">
        <ele>800.5</ele>
        <time>2020-08-24T05:07:53Z</time>
        <sat>7</sat>
      </trkpt>
      <trkpt lat="42.265019" lon="-4.413515">
        <ele>800.4</ele>
        <time>2020-08-24T05:08:00Z</time>
        <sat>7</sat>
      </trkpt>
      <trkpt lat="42.265049" lon="-4.413629">
        <ele>800.2</ele>
        <time>2020-08-24T05:08:07Z</time>
        <sat>7</sat>
      </trkpt>
      <trkpt lat="42.265054" lon="-4.413738">
        <ele>800.0</ele>
        <time>2020-08-24T05:08:13Z</time>
        <sat>7</sat>
      </trkpt>
      <trkpt lat="42.265070" lon="-4.413849">
        <ele>800.0</ele>
        <time>2020-08-24T05:08:19Z</time>
        <sat>7</sat>
      </trkpt>
      <trkpt lat="42.265088" lon="-4.413972">
        <ele>800.1</ele>
        <time>2020-08-24T05:08:26Z</time>
        <sat>7</sat>
      </trkpt>
      <trkpt lat="42.265141" lon="-4.414076">
        <ele>800.2</ele>
        <time>2020-08-24T05:08:33Z</time>
        <sat>7</sat>
      </trkpt>
      <trkpt lat="42.265207" lon="-4.414163">
        <ele>800.3</ele>
        <time>2020-08-24T05:08:40Z</time>
        <sat>7</sat>
      </trkpt>
      <trkpt lat="42.265258" lon="-4.414255">
        <ele>800.4</ele>
        <time>2020-08-24T05:08:46Z</time>
        <sat>7</sat>
      </trkpt>
      <trkpt lat="42.265297" lon="-4.414365">
        <ele>800.5</ele>
        <time>2020-08-24T05:08:52Z</time>
        <sat>7</sat>
      </trkpt>
      <trkpt lat="42.265317" lon="-4.414487">
        <ele>800.6</ele>
        <time>2020-08-24T05:08:59Z</time>
        <sat>7</sat>
      </trkpt>
      <trkpt lat="42.265314" lon="-4.414600">
        <ele>800.8</ele>
        <time>2020-08-24T05:09:05Z</time>
        <sat>7</sat>
      </trkpt>
      <trkpt lat="42.265300" lon="-4.414709">
        <ele>800.9</ele>
        <time>2020-08-24T05:09:11Z</time>
        <sat>7</sat>
      </trkpt>
      <trkpt lat="42.265267" lon="-4.414820">
        <ele>800.9</ele>
        <time>2020-08-24T05:09:18Z</time>
        <sat>7</sat>
      </trkpt>
      <trkpt lat="42.265218" lon="-4.414927">
        <ele>801.1</ele>
        <time>2020-08-24T05:09:25Z</time>
        <sat>7</sat>
      </trkpt>
      <trkpt lat="42.265163" lon="-4.415023">
        <ele>801.2</ele>
        <time>2020-08-24T05:09:31Z</time>
        <sat>7</sat>
      </trkpt>
      <trkpt lat="42.265137" lon="-4.415133">
        <ele>801.3</ele>
        <time>2020-08-24T05:09:37Z</time>
        <sat>7</sat>
      </trkpt>
      <trkpt lat="42.265139" lon="-4.415247">
        <ele>801.3</ele>
        <time>2020-08-24T05:09:43Z</time>
        <sat>7</sat>
      </trkpt>
      <trkpt lat="42.265151" lon="-4.415357">
        <ele>801.3</ele>
        <time>2020-08-24T05:09:49Z</time>
        <sat>7</sat>
      </trkpt>
      <trkpt lat="42.265152" lon="-4.415471">
        <ele>801.3</ele>
        <time>2020-08-24T05:09:55Z</time>
        <sat>7</sat>
      </trkpt>
      <trkpt lat="42.265147" lon="-4.415590">
        <ele>801.5</ele>
        <time>2020-08-24T05:10:01Z</time>
        <sat>7</sat>
      </trkpt>
      <trkpt lat="42.265159" lon="-4.415708">
        <ele>801.4</ele>
        <time>2020-08-24T05:10:07Z</time>
        <sat>7</sat>
      </trkpt>
      <trkpt lat="42.265175" lon="-4.415815">
        <ele>801.6</ele>
        <time>2020-08-24T05:10:13Z</time>
        <sat>7</sat>
      </trkpt>
      <trkpt lat="42.265167" lon="-4.415928">
        <ele>801.9</ele>
        <time>2020-08-24T05:10:20Z</time>
        <sat>7</sat>
      </trkpt>
      <trkpt lat="42.265168" lon="-4.416040">
        <ele>802.1</ele>
        <time>2020-08-24T05:10:26Z</time>
        <sat>7</sat>
      </trkpt>
      <trkpt lat="42.265182" lon="-4.416162">
        <ele>801.8</ele>
        <time>2020-08-24T05:10:33Z</time>
        <sat>7</sat>
      </trkpt>
      <trkpt lat="42.265189" lon="-4.416283">
        <ele>802.3</ele>
        <time>2020-08-24T05:10:40Z</time>
        <sat>7</sat>
      </trkpt>
      <trkpt lat="42.265193" lon="-4.416396">
        <ele>802.7</ele>
        <time>2020-08-24T05:10:46Z</time>
        <sat>7</sat>
      </trkpt>
      <trkpt lat="42.265220" lon="-4.416516">
        <ele>802.7</ele>
        <time>2020-08-24T05:10:53Z</time>
        <sat>7</sat>
      </trkpt>
      <trkpt lat="42.265227" lon="-4.416629">
        <ele>802.7</ele>
        <time>2020-08-24T05:10:59Z</time>
        <sat>7</sat>
      </trkpt>
      <trkpt lat="42.265235" lon="-4.416740">
        <ele>802.8</ele>
        <time>2020-08-24T05:11:05Z</time>
        <sat>7</sat>
      </trkpt>
      <trkpt lat="42.265252" lon="-4.416853">
        <ele>802.7</ele>
        <time>2020-08-24T05:11:11Z</time>
        <sat>7</sat>
      </trkpt>
      <trkpt lat="42.265274" lon="-4.416971">
        <ele>802.6</ele>
        <time>2020-08-24T05:11:18Z</time>
        <sat>7</sat>
      </trkpt>
      <trkpt lat="42.265292" lon="-4.417097">
        <ele>802.2</ele>
        <time>2020-08-24T05:11:25Z</time>
        <sat>7</sat>
      </trkpt>
      <trkpt lat="42.265314" lon="-4.417219">
        <ele>801.6</ele>
        <time>2020-08-24T05:11:32Z</time>
        <sat>7</sat>
      </trkpt>
      <trkpt lat="42.265327" lon="-4.417345">
        <ele>801.3</ele>
        <time>2020-08-24T05:11:39Z</time>
        <sat>7</sat>
      </trkpt>
      <trkpt lat="42.265351" lon="-4.417451">
        <ele>801.1</ele>
        <time>2020-08-24T05:11:45Z</time>
        <sat>7</sat>
      </trkpt>
      <trkpt lat="42.265384" lon="-4.417567">
        <ele>800.9</ele>
        <time>2020-08-24T05:11:52Z</time>
        <sat>7</sat>
      </trkpt>
      <trkpt lat="42.265423" lon="-4.417667">
        <ele>800.7</ele>
        <time>2020-08-24T05:11:58Z</time>
        <sat>7</sat>
      </trkpt>
      <trkpt lat="42.265489" lon="-4.417749">
        <ele>800.5</ele>
        <time>2020-08-24T05:12:04Z</time>
        <sat>7</sat>
      </trkpt>
      <trkpt lat="42.265566" lon="-4.417807">
        <ele>800.3</ele>
        <time>2020-08-24T05:12:10Z</time>
        <sat>7</sat>
      </trkpt>
      <trkpt lat="42.265629" lon="-4.417881">
        <ele>800.2</ele>
        <time>2020-08-24T05:12:16Z</time>
        <sat>7</sat>
      </trkpt>
      <trkpt lat="42.265674" lon="-4.417981">
        <ele>799.9</ele>
        <time>2020-08-24T05:12:22Z</time>
        <sat>7</sat>
      </trkpt>
      <trkpt lat="42.265720" lon="-4.418080">
        <ele>799.8</ele>
        <time>2020-08-24T05:12:28Z</time>
        <sat>7</sat>
      </trkpt>
      <trkpt lat="42.265743" lon="-4.418195">
        <ele>798.6</ele>
        <time>2020-08-24T05:12:35Z</time>
        <sat>7</sat>
      </trkpt>
      <trkpt lat="42.265734" lon="-4.418321">
        <ele>799.3</ele>
        <time>2020-08-24T05:12:42Z</time>
        <sat>7</sat>
      </trkpt>
      <trkpt lat="42.265717" lon="-4.418444">
        <ele>799.4</ele>
        <time>2020-08-24T05:12:49Z</time>
        <sat>7</sat>
      </trkpt>
      <trkpt lat="42.265670" lon="-4.418551">
        <ele>799.1</ele>
        <time>2020-08-24T05:12:56Z</time>
        <sat>7</sat>
      </trkpt>
      <trkpt lat="42.265610" lon="-4.418648">
        <ele>799.0</ele>
        <time>2020-08-24T05:13:03Z</time>
        <sat>7</sat>
      </trkpt>
      <trkpt lat="42.265558" lon="-4.418747">
        <ele>798.8</ele>
        <time>2020-08-24T05:13:10Z</time>
        <sat>6</sat>
      </trkpt>
      <trkpt lat="42.265516" lon="-4.418848">
        <ele>798.8</ele>
        <time>2020-08-24T05:13:16Z</time>
        <sat>7</sat>
      </trkpt>
      <trkpt lat="42.265493" lon="-4.418955">
        <ele>798.4</ele>
        <time>2020-08-24T05:13:22Z</time>
        <sat>7</sat>
      </trkpt>
      <trkpt lat="42.265503" lon="-4.419070">
        <ele>797.8</ele>
        <time>2020-08-24T05:13:28Z</time>
        <sat>7</sat>
      </trkpt>
      <trkpt lat="42.265510" lon="-4.419192">
        <ele>798.0</ele>
        <time>2020-08-24T05:13:35Z</time>
        <sat>7</sat>
      </trkpt>
      <trkpt lat="42.265516" lon="-4.419310">
        <ele>797.7</ele>
        <time>2020-08-24T05:13:42Z</time>
        <sat>7</sat>
      </trkpt>
      <trkpt lat="42.265531" lon="-4.419432">
        <ele>797.3</ele>
        <time>2020-08-24T05:13:49Z</time>
        <sat>7</sat>
      </trkpt>
      <trkpt lat="42.265539" lon="-4.419553">
        <ele>796.7</ele>
        <time>2020-08-24T05:13:56Z</time>
        <sat>7</sat>
      </trkpt>
      <trkpt lat="42.265560" lon="-4.419677">
        <ele>796.5</ele>
        <time>2020-08-24T05:14:03Z</time>
        <sat>7</sat>
      </trkpt>
      <trkpt lat="42.265570" lon="-4.419788">
        <ele>795.9</ele>
        <time>2020-08-24T05:14:10Z</time>
        <sat>7</sat>
      </trkpt>
      <trkpt lat="42.265579" lon="-4.419910">
        <ele>795.5</ele>
        <time>2020-08-24T05:14:17Z</time>
        <sat>7</sat>
      </trkpt>
      <trkpt lat="42.265588" lon="-4.420023">
        <ele>795.3</ele>
        <time>2020-08-24T05:14:23Z</time>
        <sat>7</sat>
      </trkpt>
      <trkpt lat="42.265599" lon="-4.420150">
        <ele>794.9</ele>
        <time>2020-08-24T05:14:30Z</time>
        <sat>7</sat>
      </trkpt>
      <trkpt lat="42.265610" lon="-4.420274">
        <ele>794.6</ele>
        <time>2020-08-24T05:14:37Z</time>
        <sat>7</sat>
      </trkpt>
      <trkpt lat="42.265626" lon="-4.420384">
        <ele>794.3</ele>
        <time>2020-08-24T05:14:44Z</time>
        <sat>7</sat>
      </trkpt>
      <trkpt lat="42.265632" lon="-4.420509">
        <ele>793.8</ele>
        <time>2020-08-24T05:14:51Z</time>
        <sat>7</sat>
      </trkpt>
      <trkpt lat="42.265646" lon="-4.420624">
        <ele>793.6</ele>
        <time>2020-08-24T05:14:58Z</time>
        <sat>7</sat>
      </trkpt>
      <trkpt lat="42.265649" lon="-4.420736">
        <ele>793.2</ele>
        <time>2020-08-24T05:15:04Z</time>
        <sat>7</sat>
      </trkpt>
      <trkpt lat="42.265662" lon="-4.420846">
        <ele>792.8</ele>
        <time>2020-08-24T05:15:10Z</time>
        <sat>7</sat>
      </trkpt>
      <trkpt lat="42.265677" lon="-4.420969">
        <ele>792.6</ele>
        <time>2020-08-24T05:15:17Z</time>
        <sat>7</sat>
      </trkpt>
      <trkpt lat="42.265688" lon="-4.421080">
        <ele>792.2</ele>
        <time>2020-08-24T05:15:24Z</time>
        <sat>7</sat>
      </trkpt>
      <trkpt lat="42.265689" lon="-4.421198">
        <ele>792.0</ele>
        <time>2020-08-24T05:15:30Z</time>
        <sat>7</sat>
      </trkpt>
      <trkpt lat="42.265712" lon="-4.421322">
        <ele>791.7</ele>
        <time>2020-08-24T05:15:37Z</time>
        <sat>7</sat>
      </trkpt>
      <trkpt lat="42.265718" lon="-4.421448">
        <ele>791.4</ele>
        <time>2020-08-24T05:15:44Z</time>
        <sat>7</sat>
      </trkpt>
      <trkpt lat="42.265732" lon="-4.421559">
        <ele>791.3</ele>
        <time>2020-08-24T05:15:51Z</time>
        <sat>7</sat>
      </trkpt>
      <trkpt lat="42.265753" lon="-4.421680">
        <ele>791.1</ele>
        <time>2020-08-24T05:15:58Z</time>
        <sat>7</sat>
      </trkpt>
      <trkpt lat="42.265764" lon="-4.421802">
        <ele>791.1</ele>
        <time>2020-08-24T05:16:05Z</time>
        <sat>7</sat>
      </trkpt>
      <trkpt lat="42.265783" lon="-4.421917">
        <ele>791.1</ele>
        <time>2020-08-24T05:16:12Z</time>
        <sat>7</sat>
      </trkpt>
      <trkpt lat="42.265794" lon="-4.422026">
        <ele>791.1</ele>
        <time>2020-08-24T05:16:18Z</time>
        <sat>7</sat>
      </trkpt>
      <trkpt lat="42.265808" lon="-4.422144">
        <ele>791.1</ele>
        <time>2020-08-24T05:16:25Z</time>
        <sat>7</sat>
      </trkpt>
      <trkpt lat="42.265817" lon="-4.422265">
        <ele>791.1</ele>
        <time>2020-08-24T05:16:32Z</time>
        <sat>7</sat>
      </trkpt>
      <trkpt lat="42.265836" lon="-4.422383">
        <ele>790.8</ele>
        <time>2020-08-24T05:16:39Z</time>
        <sat>7</sat>
      </trkpt>
      <trkpt lat="42.265845" lon="-4.422509">
        <ele>791.1</ele>
        <time>2020-08-24T05:16:46Z</time>
        <sat>7</sat>
      </trkpt>
      <trkpt lat="42.265860" lon="-4.422632">
        <ele>790.9</ele>
        <time>2020-08-24T05:16:53Z</time>
        <sat>7</sat>
      </trkpt>
      <trkpt lat="42.265877" lon="-4.422750">
        <ele>791.0</ele>
        <time>2020-08-24T05:17:00Z</time>
        <sat>7</sat>
      </trkpt>
      <trkpt lat="42.265897" lon="-4.422870">
        <ele>791.9</ele>
        <time>2020-08-24T05:17:07Z</time>
        <sat>7</sat>
      </trkpt>
      <trkpt lat="42.265901" lon="-4.422991">
        <ele>791.8</ele>
        <time>2020-08-24T05:17:14Z</time>
        <sat>7</sat>
      </trkpt>
      <trkpt lat="42.265910" lon="-4.423110">
        <ele>791.5</ele>
        <time>2020-08-24T05:17:21Z</time>
        <sat>7</sat>
      </trkpt>
      <trkpt lat="42.265910" lon="-4.423235">
        <ele>791.2</ele>
        <time>2020-08-24T05:17:28Z</time>
        <sat>7</sat>
      </trkpt>
      <trkpt lat="42.265922" lon="-4.423355">
        <ele>790.9</ele>
        <time>2020-08-24T05:17:35Z</time>
        <sat>7</sat>
      </trkpt>
      <trkpt lat="42.265925" lon="-4.423479">
        <ele>791.1</ele>
        <time>2020-08-24T05:17:42Z</time>
        <sat>7</sat>
      </trkpt>
      <trkpt lat="42.265939" lon="-4.423589">
        <ele>791.0</ele>
        <time>2020-08-24T05:17:48Z</time>
        <sat>7</sat>
      </trkpt>
      <trkpt lat="42.265953" lon="-4.423708">
        <ele>790.8</ele>
        <time>2020-08-24T05:17:55Z</time>
        <sat>7</sat>
      </trkpt>
      <trkpt lat="42.265960" lon="-4.423820">
        <ele>790.8</ele>
        <time>2020-08-24T05:18:01Z</time>
        <sat>8</sat>
      </trkpt>
      <trkpt lat="42.265970" lon="-4.423932">
        <ele>790.8</ele>
        <time>2020-08-24T05:18:07Z</time>
        <sat>8</sat>
      </trkpt>
      <trkpt lat="42.265981" lon="-4.424055">
        <ele>790.7</ele>
        <time>2020-08-24T05:18:14Z</time>
        <sat>8</sat>
      </trkpt>
      <trkpt lat="42.265988" lon="-4.424165">
        <ele>790.6</ele>
        <time>2020-08-24T05:18:20Z</time>
        <sat>8</sat>
      </trkpt>
      <trkpt lat="42.266001" lon="-4.424282">
        <ele>790.5</ele>
        <time>2020-08-24T05:18:27Z</time>
        <sat>8</sat>
      </trkpt>
      <trkpt lat="42.266010" lon="-4.424404">
        <ele>790.6</ele>
        <time>2020-08-24T05:18:34Z</time>
        <sat>8</sat>
      </trkpt>
      <trkpt lat="42.266024" lon="-4.424512">
        <ele>790.5</ele>
        <time>2020-08-24T05:18:40Z</time>
        <sat>8</sat>
      </trkpt>
      <trkpt lat="42.266036" lon="-4.424621">
        <ele>790.5</ele>
        <time>2020-08-24T05:18:46Z</time>
        <sat>8</sat>
      </trkpt>
      <trkpt lat="42.266042" lon="-4.424733">
        <ele>790.5</ele>
        <time>2020-08-24T05:18:52Z</time>
        <sat>8</sat>
      </trkpt>
      <trkpt lat="42.266058" lon="-4.424848">
        <ele>790.5</ele>
        <time>2020-08-24T05:18:58Z</time>
        <sat>8</sat>
      </trkpt>
      <trkpt lat="42.266073" lon="-4.424958">
        <ele>790.5</ele>
        <time>2020-08-24T05:19:04Z</time>
        <sat>8</sat>
      </trkpt>
      <trkpt lat="42.266080" lon="-4.425070">
        <ele>790.7</ele>
        <time>2020-08-24T05:19:10Z</time>
        <sat>8</sat>
      </trkpt>
      <trkpt lat="42.266093" lon="-4.425195">
        <ele>790.8</ele>
        <time>2020-08-24T05:19:17Z</time>
        <sat>8</sat>
      </trkpt>
      <trkpt lat="42.266100" lon="-4.425305">
        <ele>790.9</ele>
        <time>2020-08-24T05:19:23Z</time>
        <sat>8</sat>
      </trkpt>
      <trkpt lat="42.266111" lon="-4.425415">
        <ele>791.0</ele>
        <time>2020-08-24T05:19:29Z</time>
        <sat>8</sat>
      </trkpt>
      <trkpt lat="42.266126" lon="-4.425524">
        <ele>791.0</ele>
        <time>2020-08-24T05:19:35Z</time>
        <sat>8</sat>
      </trkpt>
      <trkpt lat="42.266132" lon="-4.425633">
        <ele>791.0</ele>
        <time>2020-08-24T05:19:41Z</time>
        <sat>8</sat>
      </trkpt>
      <trkpt lat="42.266146" lon="-4.425743">
        <ele>791.1</ele>
        <time>2020-08-24T05:19:47Z</time>
        <sat>8</sat>
      </trkpt>
      <trkpt lat="42.266158" lon="-4.425864">
        <ele>791.1</ele>
        <time>2020-08-24T05:19:54Z</time>
        <sat>8</sat>
      </trkpt>
      <trkpt lat="42.266168" lon="-4.425973">
        <ele>790.9</ele>
        <time>2020-08-24T05:20:00Z</time>
        <sat>8</sat>
      </trkpt>
      <trkpt lat="42.266183" lon="-4.426097">
        <ele>790.9</ele>
        <time>2020-08-24T05:20:07Z</time>
        <sat>8</sat>
      </trkpt>
      <trkpt lat="42.266185" lon="-4.426207">
        <ele>791.0</ele>
        <time>2020-08-24T05:20:13Z</time>
        <sat>9</sat>
      </trkpt>
      <trkpt lat="42.266197" lon="-4.426329">
        <ele>791.0</ele>
        <time>2020-08-24T05:20:20Z</time>
        <sat>9</sat>
      </trkpt>
      <trkpt lat="42.266207" lon="-4.426450">
        <ele>791.1</ele>
        <time>2020-08-24T05:20:27Z</time>
        <sat>9</sat>
      </trkpt>
      <trkpt lat="42.266223" lon="-4.426560">
        <ele>791.1</ele>
        <time>2020-08-24T05:20:33Z</time>
        <sat>9</sat>
      </trkpt>
      <trkpt lat="42.266235" lon="-4.426686">
        <ele>791.0</ele>
        <time>2020-08-24T05:20:40Z</time>
        <sat>9</sat>
      </trkpt>
      <trkpt lat="42.266244" lon="-4.426811">
        <ele>790.9</ele>
        <time>2020-08-24T05:20:47Z</time>
        <sat>9</sat>
      </trkpt>
      <trkpt lat="42.266256" lon="-4.426924">
        <ele>790.8</ele>
        <time>2020-08-24T05:20:53Z</time>
        <sat>9</sat>
      </trkpt>
      <trkpt lat="42.266259" lon="-4.427047">
        <ele>790.8</ele>
        <time>2020-08-24T05:21:00Z</time>
        <sat>9</sat>
      </trkpt>
      <trkpt lat="42.266270" lon="-4.427168">
        <ele>790.7</ele>
        <time>2020-08-24T05:21:07Z</time>
        <sat>9</sat>
      </trkpt>
      <trkpt lat="42.266278" lon="-4.427293">
        <ele>790.6</ele>
        <time>2020-08-24T05:21:14Z</time>
        <sat>9</sat>
      </trkpt>
      <trkpt lat="42.266294" lon="-4.427416">
        <ele>790.6</ele>
        <time>2020-08-24T05:21:21Z</time>
        <sat>9</sat>
      </trkpt>
      <trkpt lat="42.266304" lon="-4.427538">
        <ele>790.5</ele>
        <time>2020-08-24T05:21:28Z</time>
        <sat>9</sat>
      </trkpt>
      <trkpt lat="42.266315" lon="-4.427660">
        <ele>790.4</ele>
        <time>2020-08-24T05:21:35Z</time>
        <sat>9</sat>
      </trkpt>
      <trkpt lat="42.266327" lon="-4.427780">
        <ele>790.2</ele>
        <time>2020-08-24T05:21:42Z</time>
        <sat>9</sat>
      </trkpt>
      <trkpt lat="42.266340" lon="-4.427897">
        <ele>790.1</ele>
        <time>2020-08-24T05:21:49Z</time>
        <sat>9</sat>
      </trkpt>
      <trkpt lat="42.266353" lon="-4.428020">
        <ele>789.8</ele>
        <time>2020-08-24T05:21:56Z</time>
        <sat>9</sat>
      </trkpt>
      <trkpt lat="42.266366" lon="-4.428142">
        <ele>789.8</ele>
        <time>2020-08-24T05:22:03Z</time>
        <sat>9</sat>
      </trkpt>
      <trkpt lat="42.266377" lon="-4.428263">
        <ele>789.8</ele>
        <time>2020-08-24T05:22:10Z</time>
        <sat>9</sat>
      </trkpt>
      <trkpt lat="42.266381" lon="-4.428380">
        <ele>789.7</ele>
        <time>2020-08-24T05:22:17Z</time>
        <sat>9</sat>
      </trkpt>
      <trkpt lat="42.266397" lon="-4.428497">
        <ele>789.6</ele>
        <time>2020-08-24T05:22:24Z</time>
        <sat>9</sat>
      </trkpt>
      <trkpt lat="42.266409" lon="-4.428618">
        <ele>789.5</ele>
        <time>2020-08-24T05:22:31Z</time>
        <sat>9</sat>
      </trkpt>
      <trkpt lat="42.266419" lon="-4.428736">
        <ele>789.5</ele>
        <time>2020-08-24T05:22:38Z</time>
        <sat>9</sat>
      </trkpt>
      <trkpt lat="42.266429" lon="-4.428860">
        <ele>789.6</ele>
        <time>2020-08-24T05:22:45Z</time>
        <sat>9</sat>
      </trkpt>
      <trkpt lat="42.266445" lon="-4.428983">
        <ele>789.5</ele>
        <time>2020-08-24T05:22:52Z</time>
        <sat>9</sat>
      </trkpt>
      <trkpt lat="42.266454" lon="-4.429092">
        <ele>789.5</ele>
        <time>2020-08-24T05:22:58Z</time>
        <sat>9</sat>
      </trkpt>
      <trkpt lat="42.266467" lon="-4.429211">
        <ele>789.5</ele>
        <time>2020-08-24T05:23:05Z</time>
        <sat>9</sat>
      </trkpt>
      <trkpt lat="42.266483" lon="-4.429334">
        <ele>789.4</ele>
        <time>2020-08-24T05:23:12Z</time>
        <sat>9</sat>
      </trkpt>
      <trkpt lat="42.266491" lon="-4.429449">
        <ele>789.3</ele>
        <time>2020-08-24T05:23:19Z</time>
        <sat>9</sat>
      </trkpt>
      <trkpt lat="42.266505" lon="-4.429569">
        <ele>789.2</ele>
        <time>2020-08-24T05:23:26Z</time>
        <sat>9</sat>
      </trkpt>
      <trkpt lat="42.266514" lon="-4.429690">
        <ele>789.2</ele>
        <time>2020-08-24T05:23:33Z</time>
        <sat>9</sat>
      </trkpt>
      <trkpt lat="42.266530" lon="-4.429813">
        <ele>789.1</ele>
        <time>2020-08-24T05:23:40Z</time>
        <sat>9</sat>
      </trkpt>
      <trkpt lat="42.266536" lon="-4.429934">
        <ele>789.1</ele>
        <time>2020-08-24T05:23:47Z</time>
        <sat>9</sat>
      </trkpt>
      <trkpt lat="42.266553" lon="-4.430054">
        <ele>789.1</ele>
        <time>2020-08-24T05:23:54Z</time>
        <sat>9</sat>
      </trkpt>
      <trkpt lat="42.266561" lon="-4.430162">
        <ele>789.0</ele>
        <time>2020-08-24T05:24:00Z</time>
        <sat>9</sat>
      </trkpt>
      <trkpt lat="42.266577" lon="-4.430285">
        <ele>788.9</ele>
        <time>2020-08-24T05:24:07Z</time>
        <sat>9</sat>
      </trkpt>
      <trkpt lat="42.266582" lon="-4.430406">
        <ele>788.8</ele>
        <time>2020-08-24T05:24:14Z</time>
        <sat>9</sat>
      </trkpt>
      <trkpt lat="42.266595" lon="-4.430529">
        <ele>788.7</ele>
        <time>2020-08-24T05:24:21Z</time>
        <sat>9</sat>
      </trkpt>
      <trkpt lat="42.266608" lon="-4.430654">
        <ele>788.5</ele>
        <time>2020-08-24T05:24:28Z</time>
        <sat>9</sat>
      </trkpt>
      <trkpt lat="42.266618" lon="-4.430774">
        <ele>788.4</ele>
        <time>2020-08-24T05:24:35Z</time>
        <sat>9</sat>
      </trkpt>
      <trkpt lat="42.266630" lon="-4.430885">
        <ele>788.3</ele>
        <time>2020-08-24T05:24:41Z</time>
        <sat>9</sat>
      </trkpt>
      <trkpt lat="42.266639" lon="-4.430995">
        <ele>788.2</ele>
        <time>2020-08-24T05:24:48Z</time>
        <sat>9</sat>
      </trkpt>
      <trkpt lat="42.266652" lon="-4.431104">
        <ele>788.2</ele>
        <time>2020-08-24T05:24:54Z</time>
        <sat>9</sat>
      </trkpt>
      <trkpt lat="42.266661" lon="-4.431226">
        <ele>788.1</ele>
        <time>2020-08-24T05:25:01Z</time>
        <sat>9</sat>
      </trkpt>
      <trkpt lat="42.266675" lon="-4.431343">
        <ele>788.0</ele>
        <time>2020-08-24T05:25:08Z</time>
        <sat>9</sat>
      </trkpt>
      <trkpt lat="42.266685" lon="-4.431456">
        <ele>788.0</ele>
        <time>2020-08-24T05:25:15Z</time>
        <sat>9</sat>
      </trkpt>
      <trkpt lat="42.266715" lon="-4.431574">
        <ele>787.8</ele>
        <time>2020-08-24T05:25:48Z</time>
        <sat>9</sat>
      </trkpt>
      <trkpt lat="42.266729" lon="-4.431694">
        <ele>787.7</ele>
        <time>2020-08-24T05:25:55Z</time>
        <sat>9</sat>
      </trkpt>
      <trkpt lat="42.266737" lon="-4.431814">
        <ele>787.5</ele>
        <time>2020-08-24T05:26:02Z</time>
        <sat>9</sat>
      </trkpt>
      <trkpt lat="42.266748" lon="-4.431934">
        <ele>787.4</ele>
        <time>2020-08-24T05:26:09Z</time>
        <sat>9</sat>
      </trkpt>
      <trkpt lat="42.266757" lon="-4.432056">
        <ele>787.3</ele>
        <time>2020-08-24T05:26:16Z</time>
        <sat>9</sat>
      </trkpt>
      <trkpt lat="42.266775" lon="-4.432168">
        <ele>787.3</ele>
        <time>2020-08-24T05:26:23Z</time>
        <sat>9</sat>
      </trkpt>
      <trkpt lat="42.266781" lon="-4.432291">
        <ele>787.3</ele>
        <time>2020-08-24T05:26:30Z</time>
        <sat>9</sat>
      </trkpt>
      <trkpt lat="42.266790" lon="-4.432408">
        <ele>787.3</ele>
        <time>2020-08-24T05:26:37Z</time>
        <sat>9</sat>
      </trkpt>
      <trkpt lat="42.266806" lon="-4.432529">
        <ele>787.3</ele>
        <time>2020-08-24T05:26:44Z</time>
        <sat>9</sat>
      </trkpt>
      <trkpt lat="42.266816" lon="-4.432646">
        <ele>787.3</ele>
        <time>2020-08-24T05:26:51Z</time>
        <sat>9</sat>
      </trkpt>
      <trkpt lat="42.266828" lon="-4.432768">
        <ele>787.3</ele>
        <time>2020-08-24T05:26:58Z</time>
        <sat>9</sat>
      </trkpt>
      <trkpt lat="42.266837" lon="-4.432883">
        <ele>787.3</ele>
        <time>2020-08-24T05:27:05Z</time>
        <sat>9</sat>
      </trkpt>
      <trkpt lat="42.266844" lon="-4.432998">
        <ele>787.4</ele>
        <time>2020-08-24T05:27:12Z</time>
        <sat>9</sat>
      </trkpt>
      <trkpt lat="42.266856" lon="-4.433112">
        <ele>787.4</ele>
        <time>2020-08-24T05:27:19Z</time>
        <sat>9</sat>
      </trkpt>
      <trkpt lat="42.266870" lon="-4.433229">
        <ele>787.4</ele>
        <time>2020-08-24T05:27:26Z</time>
        <sat>9</sat>
      </trkpt>
      <trkpt lat="42.266878" lon="-4.433344">
        <ele>787.3</ele>
        <time>2020-08-24T05:27:33Z</time>
        <sat>9</sat>
      </trkpt>
      <trkpt lat="42.266890" lon="-4.433453">
        <ele>787.2</ele>
        <time>2020-08-24T05:27:40Z</time>
        <sat>9</sat>
      </trkpt>
      <trkpt lat="42.266904" lon="-4.433567">
        <ele>787.1</ele>
        <time>2020-08-24T05:27:47Z</time>
        <sat>9</sat>
      </trkpt>
      <trkpt lat="42.266916" lon="-4.433687">
        <ele>787.1</ele>
        <time>2020-08-24T05:27:54Z</time>
        <sat>9</sat>
      </trkpt>
      <trkpt lat="42.266931" lon="-4.433807">
        <ele>787.0</ele>
        <time>2020-08-24T05:28:07Z</time>
        <sat>9</sat>
      </trkpt>
      <trkpt lat="42.266944" lon="-4.433924">
        <ele>786.9</ele>
        <time>2020-08-24T05:28:14Z</time>
        <sat>9</sat>
      </trkpt>
      <trkpt lat="42.266950" lon="-4.434041">
        <ele>786.9</ele>
        <time>2020-08-24T05:28:21Z</time>
        <sat>9</sat>
      </trkpt>
      <trkpt lat="42.266966" lon="-4.434163">
        <ele>786.9</ele>
        <time>2020-08-24T05:28:28Z</time>
        <sat>9</sat>
      </trkpt>
      <trkpt lat="42.266976" lon="-4.434286">
        <ele>787.1</ele>
        <time>2020-08-24T05:28:35Z</time>
        <sat>9</sat>
      </trkpt>
      <trkpt lat="42.266987" lon="-4.434403">
        <ele>787.1</ele>
        <time>2020-08-24T05:28:42Z</time>
        <sat>9</sat>
      </trkpt>
      <trkpt lat="42.266999" lon="-4.434515">
        <ele>787.1</ele>
        <time>2020-08-24T05:28:49Z</time>
        <sat>9</sat>
      </trkpt>
      <trkpt lat="42.267012" lon="-4.434624">
        <ele>787.1</ele>
        <time>2020-08-24T05:29:15Z</time>
        <sat>9</sat>
      </trkpt>
      <trkpt lat="42.267027" lon="-4.434739">
        <ele>787.0</ele>
        <time>2020-08-24T05:29:21Z</time>
        <sat>9</sat>
      </trkpt>
      <trkpt lat="42.267045" lon="-4.434863">
        <ele>787.0</ele>
        <time>2020-08-24T05:29:28Z</time>
        <sat>9</sat>
      </trkpt>
      <trkpt lat="42.267055" lon="-4.434984">
        <ele>787.0</ele>
        <time>2020-08-24T05:29:35Z</time>
        <sat>9</sat>
      </trkpt>
      <trkpt lat="42.267060" lon="-4.435095">
        <ele>787.0</ele>
        <time>2020-08-24T05:29:42Z</time>
        <sat>9</sat>
      </trkpt>
      <trkpt lat="42.267072" lon="-4.435211">
        <ele>787.0</ele>
        <time>2020-08-24T05:29:49Z</time>
        <sat>9</sat>
      </trkpt>
      <trkpt lat="42.267082" lon="-4.435325">
        <ele>787.0</ele>
        <time>2020-08-24T05:29:56Z</time>
        <sat>9</sat>
      </trkpt>
      <trkpt lat="42.267091" lon="-4.435446">
        <ele>787.0</ele>
        <time>2020-08-24T05:30:03Z</time>
        <sat>9</sat>
      </trkpt>
      <trkpt lat="42.267103" lon="-4.435568">
        <ele>786.9</ele>
        <time>2020-08-24T05:30:10Z</time>
        <sat>9</sat>
      </trkpt>
      <trkpt lat="42.267113" lon="-4.435692">
        <ele>786.8</ele>
        <time>2020-08-24T05:30:17Z</time>
        <sat>9</sat>
      </trkpt>
      <trkpt lat="42.267120" lon="-4.435810">
        <ele>786.8</ele>
        <time>2020-08-24T05:30:24Z</time>
        <sat>9</sat>
      </trkpt>
      <trkpt lat="42.267138" lon="-4.435927">
        <ele>786.9</ele>
        <time>2020-08-24T05:30:31Z</time>
        <sat>9</sat>
      </trkpt>
      <trkpt lat="42.267133" lon="-4.436045">
        <ele>787.0</ele>
        <time>2020-08-24T05:30:39Z</time>
        <sat>9</sat>
      </trkpt>
      <trkpt lat="42.267160" lon="-4.436168">
        <ele>787.0</ele>
        <time>2020-08-24T05:30:46Z</time>
        <sat>9</sat>
      </trkpt>
      <trkpt lat="42.267166" lon="-4.436281">
        <ele>787.0</ele>
        <time>2020-08-24T05:30:52Z</time>
        <sat>9</sat>
      </trkpt>
      <trkpt lat="42.267184" lon="-4.436389">
        <ele>786.9</ele>
        <time>2020-08-24T05:30:58Z</time>
        <sat>9</sat>
      </trkpt>
      <trkpt lat="42.267194" lon="-4.436509">
        <ele>786.9</ele>
        <time>2020-08-24T05:31:05Z</time>
        <sat>9</sat>
      </trkpt>
      <trkpt lat="42.267210" lon="-4.436630">
        <ele>786.8</ele>
        <time>2020-08-24T05:31:12Z</time>
        <sat>9</sat>
      </trkpt>
      <trkpt lat="42.267219" lon="-4.436750">
        <ele>786.8</ele>
        <time>2020-08-24T05:31:19Z</time>
        <sat>9</sat>
      </trkpt>
      <trkpt lat="42.267228" lon="-4.436869">
        <ele>786.8</ele>
        <time>2020-08-24T05:31:26Z</time>
        <sat>9</sat>
      </trkpt>
      <trkpt lat="42.267244" lon="-4.436985">
        <ele>786.8</ele>
        <time>2020-08-24T05:31:33Z</time>
        <sat>9</sat>
      </trkpt>
      <trkpt lat="42.267254" lon="-4.437104">
        <ele>786.8</ele>
        <time>2020-08-24T05:31:40Z</time>
        <sat>9</sat>
      </trkpt>
      <trkpt lat="42.267267" lon="-4.437222">
        <ele>786.8</ele>
        <time>2020-08-24T05:31:47Z</time>
        <sat>9</sat>
      </trkpt>
      <trkpt lat="42.267285" lon="-4.437343">
        <ele>786.8</ele>
        <time>2020-08-24T05:31:54Z</time>
        <sat>9</sat>
      </trkpt>
      <trkpt lat="42.267294" lon="-4.437462">
        <ele>786.8</ele>
        <time>2020-08-24T05:32:01Z</time>
        <sat>9</sat>
      </trkpt>
      <trkpt lat="42.267308" lon="-4.437571">
        <ele>786.9</ele>
        <time>2020-08-24T05:32:07Z</time>
        <sat>9</sat>
      </trkpt>
      <trkpt lat="42.267313" lon="-4.437691">
        <ele>786.9</ele>
        <time>2020-08-24T05:32:14Z</time>
        <sat>9</sat>
      </trkpt>
      <trkpt lat="42.267328" lon="-4.437801">
        <ele>786.9</ele>
        <time>2020-08-24T05:32:20Z</time>
        <sat>9</sat>
      </trkpt>
      <trkpt lat="42.267331" lon="-4.437921">
        <ele>786.8</ele>
        <time>2020-08-24T05:32:27Z</time>
        <sat>9</sat>
      </trkpt>
      <trkpt lat="42.267347" lon="-4.438044">
        <ele>786.7</ele>
        <time>2020-08-24T05:32:34Z</time>
        <sat>9</sat>
      </trkpt>
      <trkpt lat="42.267354" lon="-4.438165">
        <ele>786.8</ele>
        <time>2020-08-24T05:32:41Z</time>
        <sat>9</sat>
      </trkpt>
      <trkpt lat="42.267369" lon="-4.438284">
        <ele>786.8</ele>
        <time>2020-08-24T05:32:48Z</time>
        <sat>9</sat>
      </trkpt>
      <trkpt lat="42.267375" lon="-4.438406">
        <ele>786.8</ele>
        <time>2020-08-24T05:32:55Z</time>
        <sat>9</sat>
      </trkpt>
      <trkpt lat="42.267388" lon="-4.438514">
        <ele>786.8</ele>
        <time>2020-08-24T05:33:02Z</time>
        <sat>9</sat>
      </trkpt>
      <trkpt lat="42.267406" lon="-4.438634">
        <ele>786.7</ele>
        <time>2020-08-24T05:33:10Z</time>
        <sat>9</sat>
      </trkpt>
      <trkpt lat="42.267412" lon="-4.438745">
        <ele>787.0</ele>
        <time>2020-08-24T05:33:16Z</time>
        <sat>9</sat>
      </trkpt>
      <trkpt lat="42.267429" lon="-4.438854">
        <ele>787.0</ele>
        <time>2020-08-24T05:33:22Z</time>
        <sat>9</sat>
      </trkpt>
      <trkpt lat="42.267437" lon="-4.438977">
        <ele>786.9</ele>
        <time>2020-08-24T05:33:29Z</time>
        <sat>9</sat>
      </trkpt>
      <trkpt lat="42.267446" lon="-4.439104">
        <ele>786.7</ele>
        <time>2020-08-24T05:33:36Z</time>
        <sat>9</sat>
      </trkpt>
      <trkpt lat="42.267459" lon="-4.439212">
        <ele>786.6</ele>
        <time>2020-08-24T05:33:42Z</time>
        <sat>9</sat>
      </trkpt>
      <trkpt lat="42.267465" lon="-4.439336">
        <ele>786.6</ele>
        <time>2020-08-24T05:33:49Z</time>
        <sat>9</sat>
      </trkpt>
      <trkpt lat="42.267480" lon="-4.439461">
        <ele>786.5</ele>
        <time>2020-08-24T05:33:56Z</time>
        <sat>9</sat>
      </trkpt>
      <trkpt lat="42.267482" lon="-4.439571">
        <ele>786.5</ele>
        <time>2020-08-24T05:34:02Z</time>
        <sat>9</sat>
      </trkpt>
      <trkpt lat="42.267496" lon="-4.439681">
        <ele>786.4</ele>
        <time>2020-08-24T05:34:08Z</time>
        <sat>9</sat>
      </trkpt>
      <trkpt lat="42.267512" lon="-4.439802">
        <ele>786.3</ele>
        <time>2020-08-24T05:34:15Z</time>
        <sat>9</sat>
      </trkpt>
      <trkpt lat="42.267511" lon="-4.439925">
        <ele>784.8</ele>
        <time>2020-08-24T05:35:26Z</time>
        <sat>8</sat>
      </trkpt>
      <trkpt lat="42.267524" lon="-4.440045">
        <ele>784.9</ele>
        <time>2020-08-24T05:35:34Z</time>
        <sat>8</sat>
      </trkpt>
      <trkpt lat="42.267534" lon="-4.440155">
        <ele>784.9</ele>
        <time>2020-08-24T05:35:41Z</time>
        <sat>9</sat>
      </trkpt>
      <trkpt lat="42.267540" lon="-4.440270">
        <ele>784.8</ele>
        <time>2020-08-24T05:35:48Z</time>
        <sat>9</sat>
      </trkpt>
      <trkpt lat="42.267546" lon="-4.440388">
        <ele>784.7</ele>
        <time>2020-08-24T05:35:55Z</time>
        <sat>9</sat>
      </trkpt>
      <trkpt lat="42.267553" lon="-4.440500">
        <ele>784.4</ele>
        <time>2020-08-24T05:36:25Z</time>
        <sat>9</sat>
      </trkpt>
      <trkpt lat="42.267565" lon="-4.440620">
        <ele>784.4</ele>
        <time>2020-08-24T05:36:32Z</time>
        <sat>9</sat>
      </trkpt>
      <trkpt lat="42.267579" lon="-4.440741">
        <ele>784.2</ele>
        <time>2020-08-24T05:36:39Z</time>
        <sat>9</sat>
      </trkpt>
      <trkpt lat="42.267590" lon="-4.440867">
        <ele>784.1</ele>
        <time>2020-08-24T05:36:46Z</time>
        <sat>9</sat>
      </trkpt>
      <trkpt lat="42.267602" lon="-4.440980">
        <ele>783.9</ele>
        <time>2020-08-24T05:36:52Z</time>
        <sat>8</sat>
      </trkpt>
      <trkpt lat="42.267603" lon="-4.441097">
        <ele>783.8</ele>
        <time>2020-08-24T05:36:59Z</time>
        <sat>9</sat>
      </trkpt>
      <trkpt lat="42.267612" lon="-4.441221">
        <ele>783.7</ele>
        <time>2020-08-24T05:37:06Z</time>
        <sat>9</sat>
      </trkpt>
      <trkpt lat="42.267631" lon="-4.441346">
        <ele>783.4</ele>
        <time>2020-08-24T05:37:13Z</time>
        <sat>9</sat>
      </trkpt>
      <trkpt lat="42.267648" lon="-4.441466">
        <ele>783.3</ele>
        <time>2020-08-24T05:37:20Z</time>
        <sat>8</sat>
      </trkpt>
      <trkpt lat="42.267652" lon="-4.441587">
        <ele>783.0</ele>
        <time>2020-08-24T05:37:27Z</time>
        <sat>8</sat>
      </trkpt>
      <trkpt lat="42.267664" lon="-4.441696">
        <ele>782.8</ele>
        <time>2020-08-24T05:37:33Z</time>
        <sat>9</sat>
      </trkpt>
      <trkpt lat="42.267676" lon="-4.441812">
        <ele>782.6</ele>
        <time>2020-08-24T05:37:40Z</time>
        <sat>8</sat>
      </trkpt>
      <trkpt lat="42.267690" lon="-4.441935">
        <ele>782.4</ele>
        <time>2020-08-24T05:37:47Z</time>
        <sat>9</sat>
      </trkpt>
      <trkpt lat="42.267703" lon="-4.442055">
        <ele>782.0</ele>
        <time>2020-08-24T05:37:54Z</time>
        <sat>9</sat>
      </trkpt>
      <trkpt lat="42.267712" lon="-4.442173">
        <ele>781.6</ele>
        <time>2020-08-24T05:38:01Z</time>
        <sat>9</sat>
      </trkpt>
      <trkpt lat="42.267732" lon="-4.442290">
        <ele>781.4</ele>
        <time>2020-08-24T05:38:11Z</time>
        <sat>8</sat>
      </trkpt>
      <trkpt lat="42.267781" lon="-4.442383">
        <ele>781.1</ele>
        <time>2020-08-24T05:38:17Z</time>
        <sat>9</sat>
      </trkpt>
      <trkpt lat="42.267838" lon="-4.442474">
        <ele>781.1</ele>
        <time>2020-08-24T05:38:24Z</time>
        <sat>9</sat>
      </trkpt>
      <trkpt lat="42.267891" lon="-4.442572">
        <ele>780.9</ele>
        <time>2020-08-24T05:38:31Z</time>
        <sat>9</sat>
      </trkpt>
      <trkpt lat="42.267953" lon="-4.442666">
        <ele>780.8</ele>
        <time>2020-08-24T05:38:38Z</time>
        <sat>9</sat>
      </trkpt>
      <trkpt lat="42.267999" lon="-4.442766">
        <ele>780.7</ele>
        <time>2020-08-24T05:38:45Z</time>
        <sat>9</sat>
      </trkpt>
      <trkpt lat="42.268056" lon="-4.442868">
        <ele>780.7</ele>
        <time>2020-08-24T05:38:52Z</time>
        <sat>9</sat>
      </trkpt>
      <trkpt lat="42.268109" lon="-4.442955">
        <ele>780.7</ele>
        <time>2020-08-24T05:38:58Z</time>
        <sat>9</sat>
      </trkpt>
      <trkpt lat="42.268159" lon="-4.443041">
        <ele>780.8</ele>
        <time>2020-08-24T05:39:04Z</time>
        <sat>9</sat>
      </trkpt>
      <trkpt lat="42.268208" lon="-4.443140">
        <ele>780.7</ele>
        <time>2020-08-24T05:39:11Z</time>
        <sat>9</sat>
      </trkpt>
      <trkpt lat="42.268257" lon="-4.443229">
        <ele>780.6</ele>
        <time>2020-08-24T05:39:17Z</time>
        <sat>9</sat>
      </trkpt>
      <trkpt lat="42.268311" lon="-4.443327">
        <ele>780.5</ele>
        <time>2020-08-24T05:39:24Z</time>
        <sat>9</sat>
      </trkpt>
      <trkpt lat="42.268366" lon="-4.443429">
        <ele>780.3</ele>
        <time>2020-08-24T05:39:31Z</time>
        <sat>9</sat>
      </trkpt>
      <trkpt lat="42.268420" lon="-4.443525">
        <ele>780.1</ele>
        <time>2020-08-24T05:39:38Z</time>
        <sat>9</sat>
      </trkpt>
      <trkpt lat="42.268474" lon="-4.443624">
        <ele>780.1</ele>
        <time>2020-08-24T05:39:45Z</time>
        <sat>9</sat>
      </trkpt>
      <trkpt lat="42.268532" lon="-4.443723">
        <ele>780.0</ele>
        <time>2020-08-24T05:39:52Z</time>
        <sat>9</sat>
      </trkpt>
      <trkpt lat="42.268589" lon="-4.443820">
        <ele>779.8</ele>
        <time>2020-08-24T05:39:59Z</time>
        <sat>9</sat>
      </trkpt>
      <trkpt lat="42.268642" lon="-4.443925">
        <ele>779.7</ele>
        <time>2020-08-24T05:40:06Z</time>
        <sat>9</sat>
      </trkpt>
      <trkpt lat="42.268694" lon="-4.444071">
        <ele>779.0</ele>
        <time>2020-08-24T05:41:09Z</time>
        <sat>9</sat>
      </trkpt>
      <trkpt lat="42.268756" lon="-4.444164">
        <ele>778.9</ele>
        <time>2020-08-24T05:41:16Z</time>
        <sat>9</sat>
      </trkpt>
      <trkpt lat="42.268811" lon="-4.444264">
        <ele>778.8</ele>
        <time>2020-08-24T05:41:23Z</time>
        <sat>9</sat>
      </trkpt>
      <trkpt lat="42.268859" lon="-4.444362">
        <ele>778.7</ele>
        <time>2020-08-24T05:41:30Z</time>
        <sat>9</sat>
      </trkpt>
      <trkpt lat="42.268911" lon="-4.444453">
        <ele>778.6</ele>
        <time>2020-08-24T05:41:37Z</time>
        <sat>9</sat>
      </trkpt>
      <trkpt lat="42.268962" lon="-4.444550">
        <ele>778.5</ele>
        <time>2020-08-24T05:41:45Z</time>
        <sat>9</sat>
      </trkpt>
      <trkpt lat="42.269005" lon="-4.444646">
        <ele>778.4</ele>
        <time>2020-08-24T05:41:52Z</time>
        <sat>9</sat>
      </trkpt>
      <trkpt lat="42.269053" lon="-4.444745">
        <ele>778.2</ele>
        <time>2020-08-24T05:41:59Z</time>
        <sat>9</sat>
      </trkpt>
      <trkpt lat="42.269111" lon="-4.444823">
        <ele>777.3</ele>
        <time>2020-08-24T05:42:05Z</time>
        <sat>9</sat>
      </trkpt>
      <trkpt lat="42.269165" lon="-4.444915">
        <ele>777.3</ele>
        <time>2020-08-24T05:42:12Z</time>
        <sat>9</sat>
      </trkpt>
      <trkpt lat="42.269215" lon="-4.445019">
        <ele>778.0</ele>
        <time>2020-08-24T05:42:19Z</time>
        <sat>10</sat>
      </trkpt>
      <trkpt lat="42.269223" lon="-4.445137">
        <ele>778.2</ele>
        <time>2020-08-24T05:42:27Z</time>
        <sat>10</sat>
      </trkpt>
      <trkpt lat="42.269266" lon="-4.445246">
        <ele>778.2</ele>
        <time>2020-08-24T05:42:34Z</time>
        <sat>11</sat>
      </trkpt>
      <trkpt lat="42.269303" lon="-4.445345">
        <ele>778.2</ele>
        <time>2020-08-24T05:42:41Z</time>
        <sat>11</sat>
      </trkpt>
      <trkpt lat="42.269308" lon="-4.445464">
        <ele>778.4</ele>
        <time>2020-08-24T05:42:49Z</time>
        <sat>11</sat>
      </trkpt>
      <trkpt lat="42.269289" lon="-4.445573">
        <ele>778.6</ele>
        <time>2020-08-24T05:42:56Z</time>
        <sat>10</sat>
      </trkpt>
      <trkpt lat="42.269253" lon="-4.445689">
        <ele>778.6</ele>
        <time>2020-08-24T05:43:04Z</time>
        <sat>9</sat>
      </trkpt>
      <trkpt lat="42.269204" lon="-4.445789">
        <ele>778.5</ele>
        <time>2020-08-24T05:43:12Z</time>
        <sat>10</sat>
      </trkpt>
      <trkpt lat="42.269175" lon="-4.445896">
        <ele>778.2</ele>
        <time>2020-08-24T05:43:21Z</time>
        <sat>10</sat>
      </trkpt>
      <trkpt lat="42.269152" lon="-4.446004">
        <ele>777.8</ele>
        <time>2020-08-24T05:43:30Z</time>
        <sat>9</sat>
      </trkpt>
      <trkpt lat="42.269150" lon="-4.446128">
        <ele>776.6</ele>
        <time>2020-08-24T05:44:18Z</time>
        <sat>10</sat>
      </trkpt>
      <trkpt lat="42.269109" lon="-4.446239">
        <ele>776.5</ele>
        <time>2020-08-24T05:44:26Z</time>
        <sat>10</sat>
      </trkpt>
      <trkpt lat="42.269096" lon="-4.446357">
        <ele>776.0</ele>
        <time>2020-08-24T05:44:53Z</time>
        <sat>9</sat>
      </trkpt>
      <trkpt lat="42.269065" lon="-4.446463">
        <ele>775.8</ele>
        <time>2020-08-24T05:45:00Z</time>
        <sat>10</sat>
      </trkpt>
      <trkpt lat="42.269029" lon="-4.446577">
        <ele>775.5</ele>
        <time>2020-08-24T05:45:08Z</time>
        <sat>10</sat>
      </trkpt>
      <trkpt lat="42.268990" lon="-4.446678">
        <ele>775.0</ele>
        <time>2020-08-24T05:45:15Z</time>
        <sat>11</sat>
      </trkpt>
      <trkpt lat="42.268963" lon="-4.446795">
        <ele>774.7</ele>
        <time>2020-08-24T05:45:23Z</time>
        <sat>10</sat>
      </trkpt>
      <trkpt lat="42.268930" lon="-4.446908">
        <ele>774.4</ele>
        <time>2020-08-24T05:45:31Z</time>
        <sat>11</sat>
      </trkpt>
      <trkpt lat="42.268902" lon="-4.447011">
        <ele>774.2</ele>
        <time>2020-08-24T05:45:38Z</time>
        <sat>11</sat>
      </trkpt>
      <trkpt lat="42.268875" lon="-4.447122">
        <ele>774.0</ele>
        <time>2020-08-24T05:45:45Z</time>
        <sat>11</sat>
      </trkpt>
      <trkpt lat="42.268846" lon="-4.447228">
        <ele>773.7</ele>
        <time>2020-08-24T05:45:52Z</time>
        <sat>10</sat>
      </trkpt>
      <trkpt lat="42.268832" lon="-4.447343">
        <ele>773.5</ele>
        <time>2020-08-24T05:45:59Z</time>
        <sat>11</sat>
      </trkpt>
      <trkpt lat="42.268810" lon="-4.447457">
        <ele>773.3</ele>
        <time>2020-08-24T05:46:06Z</time>
        <sat>11</sat>
      </trkpt>
      <trkpt lat="42.268802" lon="-4.447568">
        <ele>773.2</ele>
        <time>2020-08-24T05:46:13Z</time>
        <sat>11</sat>
      </trkpt>
      <trkpt lat="42.268788" lon="-4.447680">
        <ele>773.1</ele>
        <time>2020-08-24T05:46:20Z</time>
        <sat>11</sat>
      </trkpt>
      <trkpt lat="42.268771" lon="-4.447802">
        <ele>773.1</ele>
        <time>2020-08-24T05:46:28Z</time>
        <sat>10</sat>
      </trkpt>
      <trkpt lat="42.268743" lon="-4.447917">
        <ele>772.8</ele>
        <time>2020-08-24T05:46:36Z</time>
        <sat>11</sat>
      </trkpt>
      <trkpt lat="42.268723" lon="-4.448040">
        <ele>772.8</ele>
        <time>2020-08-24T05:46:43Z</time>
        <sat>11</sat>
      </trkpt>
      <trkpt lat="42.268707" lon="-4.448152">
        <ele>772.9</ele>
        <time>2020-08-24T05:46:50Z</time>
        <sat>11</sat>
      </trkpt>
      <trkpt lat="42.268708" lon="-4.448280">
        <ele>773.0</ele>
        <time>2020-08-24T05:46:58Z</time>
        <sat>11</sat>
      </trkpt>
      <trkpt lat="42.268720" lon="-4.448402">
        <ele>772.9</ele>
        <time>2020-08-24T05:47:05Z</time>
        <sat>11</sat>
      </trkpt>
      <trkpt lat="42.268742" lon="-4.448518">
        <ele>773.0</ele>
        <time>2020-08-24T05:47:12Z</time>
        <sat>11</sat>
      </trkpt>
      <trkpt lat="42.268789" lon="-4.448607">
        <ele>773.1</ele>
        <time>2020-08-24T05:47:18Z</time>
        <sat>11</sat>
      </trkpt>
      <trkpt lat="42.268833" lon="-4.448703">
        <ele>773.2</ele>
        <time>2020-08-24T05:47:25Z</time>
        <sat>11</sat>
      </trkpt>
      <trkpt lat="42.268882" lon="-4.448805">
        <ele>773.3</ele>
        <time>2020-08-24T05:47:33Z</time>
        <sat>11</sat>
      </trkpt>
      <trkpt lat="42.268938" lon="-4.448901">
        <ele>773.3</ele>
        <time>2020-08-24T05:47:40Z</time>
        <sat>11</sat>
      </trkpt>
      <trkpt lat="42.268987" lon="-4.448991">
        <ele>773.4</ele>
        <time>2020-08-24T05:47:49Z</time>
        <sat>11</sat>
      </trkpt>
      <trkpt lat="42.269049" lon="-4.449064">
        <ele>773.5</ele>
        <time>2020-08-24T05:48:04Z</time>
        <sat>11</sat>
      </trkpt>
      <trkpt lat="42.269101" lon="-4.449163">
        <ele>773.9</ele>
        <time>2020-08-24T05:48:16Z</time>
        <sat>11</sat>
      </trkpt>
      <trkpt lat="42.269141" lon="-4.449260">
        <ele>773.9</ele>
        <time>2020-08-24T05:48:31Z</time>
        <sat>11</sat>
      </trkpt>
      <trkpt lat="42.269082" lon="-4.449324">
        <ele>771.4</ele>
        <time>2020-08-24T05:52:48Z</time>
        <sat>11</sat>
      </trkpt>
      <trkpt lat="42.269060" lon="-4.449437">
        <ele>771.3</ele>
        <time>2020-08-24T05:52:55Z</time>
        <sat>11</sat>
      </trkpt>
      <trkpt lat="42.269008" lon="-4.449540">
        <ele>771.2</ele>
        <time>2020-08-24T05:53:01Z</time>
        <sat>11</sat>
      </trkpt>
      <trkpt lat="42.268957" lon="-4.449638">
        <ele>771.1</ele>
        <time>2020-08-24T05:53:08Z</time>
        <sat>11</sat>
      </trkpt>
      <trkpt lat="42.268909" lon="-4.449736">
        <ele>771.2</ele>
        <time>2020-08-24T05:53:21Z</time>
        <sat>11</sat>
      </trkpt>
      <trkpt lat="42.268887" lon="-4.449845">
        <ele>771.3</ele>
        <time>2020-08-24T05:53:28Z</time>
        <sat>11</sat>
      </trkpt>
      <trkpt lat="42.268837" lon="-4.449944">
        <ele>771.3</ele>
        <time>2020-08-24T05:53:37Z</time>
        <sat>11</sat>
      </trkpt>
      <trkpt lat="42.268815" lon="-4.450061">
        <ele>771.3</ele>
        <time>2020-08-24T05:53:43Z</time>
        <sat>11</sat>
      </trkpt>
      <trkpt lat="42.268781" lon="-4.450165">
        <ele>771.2</ele>
        <time>2020-08-24T05:53:49Z</time>
        <sat>11</sat>
      </trkpt>
      <trkpt lat="42.268738" lon="-4.450271">
        <ele>770.9</ele>
        <time>2020-08-24T05:53:56Z</time>
        <sat>10</sat>
      </trkpt>
      <trkpt lat="42.268717" lon="-4.450390">
        <ele>770.8</ele>
        <time>2020-08-24T05:54:03Z</time>
        <sat>10</sat>
      </trkpt>
      <trkpt lat="42.268693" lon="-4.450511">
        <ele>770.7</ele>
        <time>2020-08-24T05:54:10Z</time>
        <sat>11</sat>
      </trkpt>
      <trkpt lat="42.268686" lon="-4.450637">
        <ele>770.6</ele>
        <time>2020-08-24T05:54:17Z</time>
        <sat>11</sat>
      </trkpt>
      <trkpt lat="42.268682" lon="-4.450758">
        <ele>770.5</ele>
        <time>2020-08-24T05:54:24Z</time>
        <sat>11</sat>
      </trkpt>
      <trkpt lat="42.268692" lon="-4.450884">
        <ele>770.3</ele>
        <time>2020-08-24T05:54:31Z</time>
        <sat>11</sat>
      </trkpt>
      <trkpt lat="42.268708" lon="-4.451006">
        <ele>769.8</ele>
        <time>2020-08-24T05:54:38Z</time>
        <sat>11</sat>
      </trkpt>
      <trkpt lat="42.268737" lon="-4.451121">
        <ele>770.1</ele>
        <time>2020-08-24T05:54:45Z</time>
        <sat>11</sat>
      </trkpt>
      <trkpt lat="42.268769" lon="-4.451236">
        <ele>770.2</ele>
        <time>2020-08-24T05:54:52Z</time>
        <sat>11</sat>
      </trkpt>
      <trkpt lat="42.268809" lon="-4.451348">
        <ele>770.1</ele>
        <time>2020-08-24T05:54:59Z</time>
        <sat>11</sat>
      </trkpt>
      <trkpt lat="42.268847" lon="-4.451466">
        <ele>770.1</ele>
        <time>2020-08-24T05:55:06Z</time>
        <sat>11</sat>
      </trkpt>
      <trkpt lat="42.268888" lon="-4.451572">
        <ele>770.1</ele>
        <time>2020-08-24T05:55:13Z</time>
        <sat>11</sat>
      </trkpt>
      <trkpt lat="42.268944" lon="-4.451665">
        <ele>769.7</ele>
        <time>2020-08-24T05:56:16Z</time>
        <sat>10</sat>
      </trkpt>
      <trkpt lat="42.268985" lon="-4.451769">
        <ele>769.9</ele>
        <time>2020-08-24T05:56:23Z</time>
        <sat>10</sat>
      </trkpt>
      <trkpt lat="42.269027" lon="-4.451878">
        <ele>770.0</ele>
        <time>2020-08-24T05:56:30Z</time>
        <sat>10</sat>
      </trkpt>
      <trkpt lat="42.269084" lon="-4.451966">
        <ele>770.1</ele>
        <time>2020-08-24T05:56:37Z</time>
        <sat>10</sat>
      </trkpt>
      <trkpt lat="42.269126" lon="-4.452075">
        <ele>770.2</ele>
        <time>2020-08-24T05:56:44Z</time>
        <sat>10</sat>
      </trkpt>
      <trkpt lat="42.269170" lon="-4.452181">
        <ele>770.2</ele>
        <time>2020-08-24T05:56:51Z</time>
        <sat>10</sat>
      </trkpt>
      <trkpt lat="42.269209" lon="-4.452293">
        <ele>770.0</ele>
        <time>2020-08-24T05:56:58Z</time>
        <sat>10</sat>
      </trkpt>
      <trkpt lat="42.269254" lon="-4.452401">
        <ele>769.9</ele>
        <time>2020-08-24T05:57:05Z</time>
        <sat>10</sat>
      </trkpt>
      <trkpt lat="42.269291" lon="-4.452515">
        <ele>769.9</ele>
        <time>2020-08-24T05:57:12Z</time>
        <sat>10</sat>
      </trkpt>
      <trkpt lat="42.269335" lon="-4.452614">
        <ele>769.9</ele>
        <time>2020-08-24T05:57:18Z</time>
        <sat>10</sat>
      </trkpt>
      <trkpt lat="42.269376" lon="-4.452725">
        <ele>769.9</ele>
        <time>2020-08-24T05:57:25Z</time>
        <sat>10</sat>
      </trkpt>
      <trkpt lat="42.269405" lon="-4.452828">
        <ele>770.0</ele>
        <time>2020-08-24T05:57:31Z</time>
        <sat>10</sat>
      </trkpt>
      <trkpt lat="42.269442" lon="-4.452927">
        <ele>770.0</ele>
        <time>2020-08-24T05:57:37Z</time>
        <sat>10</sat>
      </trkpt>
      <trkpt lat="42.269477" lon="-4.453025">
        <ele>769.9</ele>
        <time>2020-08-24T05:57:43Z</time>
        <sat>10</sat>
      </trkpt>
      <trkpt lat="42.269516" lon="-4.453126">
        <ele>769.9</ele>
        <time>2020-08-24T05:57:49Z</time>
        <sat>10</sat>
      </trkpt>
      <trkpt lat="42.269553" lon="-4.453238">
        <ele>769.9</ele>
        <time>2020-08-24T05:57:56Z</time>
        <sat>10</sat>
      </trkpt>
      <trkpt lat="42.269595" lon="-4.453352">
        <ele>770.0</ele>
        <time>2020-08-24T05:58:03Z</time>
        <sat>10</sat>
      </trkpt>
      <trkpt lat="42.269640" lon="-4.453462">
        <ele>770.0</ele>
        <time>2020-08-24T05:58:10Z</time>
        <sat>10</sat>
      </trkpt>
      <trkpt lat="42.269679" lon="-4.453574">
        <ele>770.0</ele>
        <time>2020-08-24T05:58:17Z</time>
        <sat>10</sat>
      </trkpt>
      <trkpt lat="42.269719" lon="-4.453674">
        <ele>770.0</ele>
        <time>2020-08-24T05:58:23Z</time>
        <sat>10</sat>
      </trkpt>
      <trkpt lat="42.269756" lon="-4.453787">
        <ele>770.0</ele>
        <time>2020-08-24T05:58:30Z</time>
        <sat>10</sat>
      </trkpt>
      <trkpt lat="42.269796" lon="-4.453902">
        <ele>770.1</ele>
        <time>2020-08-24T05:58:37Z</time>
        <sat>10</sat>
      </trkpt>
      <trkpt lat="42.269839" lon="-4.454002">
        <ele>770.2</ele>
        <time>2020-08-24T05:58:43Z</time>
        <sat>10</sat>
      </trkpt>
      <trkpt lat="42.269878" lon="-4.454114">
        <ele>770.2</ele>
        <time>2020-08-24T05:58:50Z</time>
        <sat>9</sat>
      </trkpt>
      <trkpt lat="42.269917" lon="-4.454212">
        <ele>770.2</ele>
        <time>2020-08-24T05:58:56Z</time>
        <sat>10</sat>
      </trkpt>
      <trkpt lat="42.269958" lon="-4.454324">
        <ele>770.1</ele>
        <time>2020-08-24T05:59:03Z</time>
        <sat>10</sat>
      </trkpt>
      <trkpt lat="42.269995" lon="-4.454439">
        <ele>770.1</ele>
        <time>2020-08-24T05:59:10Z</time>
        <sat>10</sat>
      </trkpt>
      <trkpt lat="42.270037" lon="-4.454539">
        <ele>770.1</ele>
        <time>2020-08-24T05:59:16Z</time>
        <sat>10</sat>
      </trkpt>
      <trkpt lat="42.270081" lon="-4.454649">
        <ele>770.1</ele>
        <time>2020-08-24T05:59:23Z</time>
        <sat>9</sat>
      </trkpt>
      <trkpt lat="42.270119" lon="-4.454748">
        <ele>770.1</ele>
        <time>2020-08-24T05:59:29Z</time>
        <sat>10</sat>
      </trkpt>
      <trkpt lat="42.270161" lon="-4.454858">
        <ele>770.1</ele>
        <time>2020-08-24T05:59:36Z</time>
        <sat>10</sat>
      </trkpt>
      <trkpt lat="42.270201" lon="-4.454972">
        <ele>770.1</ele>
        <time>2020-08-24T05:59:43Z</time>
        <sat>10</sat>
      </trkpt>
      <trkpt lat="42.270238" lon="-4.455069">
        <ele>770.1</ele>
        <time>2020-08-24T05:59:49Z</time>
        <sat>10</sat>
      </trkpt>
      <trkpt lat="42.270272" lon="-4.455177">
        <ele>770.1</ele>
        <time>2020-08-24T05:59:56Z</time>
        <sat>10</sat>
      </trkpt>
      <trkpt lat="42.270319" lon="-4.455277">
        <ele>770.2</ele>
        <time>2020-08-24T06:00:06Z</time>
        <sat>10</sat>
      </trkpt>
      <trkpt lat="42.270362" lon="-4.455372">
        <ele>770.2</ele>
        <time>2020-08-24T06:00:13Z</time>
        <sat>10</sat>
      </trkpt>
      <trkpt lat="42.270398" lon="-4.455483">
        <ele>770.2</ele>
        <time>2020-08-24T06:00:20Z</time>
        <sat>10</sat>
      </trkpt>
      <trkpt lat="42.270432" lon="-4.455590">
        <ele>770.2</ele>
        <time>2020-08-24T06:00:27Z</time>
        <sat>9</sat>
      </trkpt>
      <trkpt lat="42.270474" lon="-4.455687">
        <ele>770.2</ele>
        <time>2020-08-24T06:00:33Z</time>
        <sat>10</sat>
      </trkpt>
      <trkpt lat="42.270512" lon="-4.455801">
        <ele>770.3</ele>
        <time>2020-08-24T06:00:40Z</time>
        <sat>10</sat>
      </trkpt>
      <trkpt lat="42.270552" lon="-4.455901">
        <ele>770.3</ele>
        <time>2020-08-24T06:00:46Z</time>
        <sat>10</sat>
      </trkpt>
      <trkpt lat="42.270588" lon="-4.456010">
        <ele>770.3</ele>
        <time>2020-08-24T06:00:53Z</time>
        <sat>10</sat>
      </trkpt>
      <trkpt lat="42.270629" lon="-4.456106">
        <ele>770.3</ele>
        <time>2020-08-24T06:00:59Z</time>
        <sat>10</sat>
      </trkpt>
      <trkpt lat="42.270666" lon="-4.456219">
        <ele>770.3</ele>
        <time>2020-08-24T06:01:06Z</time>
        <sat>10</sat>
      </trkpt>
      <trkpt lat="42.270704" lon="-4.456317">
        <ele>770.2</ele>
        <time>2020-08-24T06:01:12Z</time>
        <sat>10</sat>
      </trkpt>
      <trkpt lat="42.270747" lon="-4.456429">
        <ele>770.3</ele>
        <time>2020-08-24T06:01:19Z</time>
        <sat>9</sat>
      </trkpt>
      <trkpt lat="42.270786" lon="-4.456543">
        <ele>770.3</ele>
        <time>2020-08-24T06:01:26Z</time>
        <sat>10</sat>
      </trkpt>
      <trkpt lat="42.270826" lon="-4.456652">
        <ele>770.3</ele>
        <time>2020-08-24T06:01:33Z</time>
        <sat>10</sat>
      </trkpt>
      <trkpt lat="42.270871" lon="-4.456762">
        <ele>770.3</ele>
        <time>2020-08-24T06:01:40Z</time>
        <sat>10</sat>
      </trkpt>
      <trkpt lat="42.270912" lon="-4.456859">
        <ele>770.3</ele>
        <time>2020-08-24T06:01:46Z</time>
        <sat>9</sat>
      </trkpt>
      <trkpt lat="42.270947" lon="-4.456957">
        <ele>770.4</ele>
        <time>2020-08-24T06:01:52Z</time>
        <sat>10</sat>
      </trkpt>
      <trkpt lat="42.270986" lon="-4.457054">
        <ele>770.4</ele>
        <time>2020-08-24T06:01:58Z</time>
        <sat>10</sat>
      </trkpt>
      <trkpt lat="42.271025" lon="-4.457156">
        <ele>770.4</ele>
        <time>2020-08-24T06:02:05Z</time>
        <sat>10</sat>
      </trkpt>
      <trkpt lat="42.271061" lon="-4.457261">
        <ele>770.5</ele>
        <time>2020-08-24T06:02:12Z</time>
        <sat>10</sat>
      </trkpt>
      <trkpt lat="42.271098" lon="-4.457362">
        <ele>770.5</ele>
        <time>2020-08-24T06:02:19Z</time>
        <sat>9</sat>
      </trkpt>
      <trkpt lat="42.271140" lon="-4.457468">
        <ele>770.6</ele>
        <time>2020-08-24T06:02:27Z</time>
        <sat>10</sat>
      </trkpt>
      <trkpt lat="42.271183" lon="-4.457576">
        <ele>770.6</ele>
        <time>2020-08-24T06:02:35Z</time>
        <sat>10</sat>
      </trkpt>
      <trkpt lat="42.271219" lon="-4.457678">
        <ele>770.6</ele>
        <time>2020-08-24T06:02:42Z</time>
        <sat>10</sat>
      </trkpt>
      <trkpt lat="42.271254" lon="-4.457780">
        <ele>770.6</ele>
        <time>2020-08-24T06:02:49Z</time>
        <sat>10</sat>
      </trkpt>
      <trkpt lat="42.271291" lon="-4.457882">
        <ele>770.6</ele>
        <time>2020-08-24T06:02:56Z</time>
        <sat>10</sat>
      </trkpt>
      <trkpt lat="42.271333" lon="-4.457990">
        <ele>770.5</ele>
        <time>2020-08-24T06:03:03Z</time>
        <sat>10</sat>
      </trkpt>
      <trkpt lat="42.271370" lon="-4.458099">
        <ele>770.6</ele>
        <time>2020-08-24T06:03:10Z</time>
        <sat>10</sat>
      </trkpt>
      <trkpt lat="42.271411" lon="-4.458201">
        <ele>768.5</ele>
        <time>2020-08-24T06:03:17Z</time>
        <sat>10</sat>
      </trkpt>
      <trkpt lat="42.271448" lon="-4.458299">
        <ele>770.1</ele>
        <time>2020-08-24T06:03:24Z</time>
        <sat>9</sat>
      </trkpt>
      <trkpt lat="42.271488" lon="-4.458401">
        <ele>760.3</ele>
        <time>2020-08-24T06:03:31Z</time>
        <sat>10</sat>
      </trkpt>
      <trkpt lat="42.271526" lon="-4.458499">
        <ele>768.1</ele>
        <time>2020-08-24T06:03:37Z</time>
        <sat>10</sat>
      </trkpt>
      <trkpt lat="42.271562" lon="-4.458607">
        <ele>770.2</ele>
        <time>2020-08-24T06:03:44Z</time>
        <sat>10</sat>
      </trkpt>
      <trkpt lat="42.271603" lon="-4.458705">
        <ele>770.4</ele>
        <time>2020-08-24T06:03:50Z</time>
        <sat>10</sat>
      </trkpt>
      <trkpt lat="42.271640" lon="-4.458815">
        <ele>770.4</ele>
        <time>2020-08-24T06:03:57Z</time>
        <sat>10</sat>
      </trkpt>
      <trkpt lat="42.271678" lon="-4.458916">
        <ele>770.3</ele>
        <time>2020-08-24T06:04:03Z</time>
        <sat>10</sat>
      </trkpt>
      <trkpt lat="42.271720" lon="-4.459025">
        <ele>770.4</ele>
        <time>2020-08-24T06:04:10Z</time>
        <sat>10</sat>
      </trkpt>
      <trkpt lat="42.271758" lon="-4.459124">
        <ele>770.4</ele>
        <time>2020-08-24T06:04:16Z</time>
        <sat>10</sat>
      </trkpt>
      <trkpt lat="42.271802" lon="-4.459229">
        <ele>770.5</ele>
        <time>2020-08-24T06:04:23Z</time>
        <sat>10</sat>
      </trkpt>
      <trkpt lat="42.271818" lon="-4.459341">
        <ele>771.2</ele>
        <time>2020-08-24T06:04:51Z</time>
        <sat>10</sat>
      </trkpt>
      <trkpt lat="42.271860" lon="-4.459451">
        <ele>771.2</ele>
        <time>2020-08-24T06:04:57Z</time>
        <sat>10</sat>
      </trkpt>
      <trkpt lat="42.271901" lon="-4.459558">
        <ele>771.1</ele>
        <time>2020-08-24T06:05:03Z</time>
        <sat>10</sat>
      </trkpt>
      <trkpt lat="42.271946" lon="-4.459664">
        <ele>771.1</ele>
        <time>2020-08-24T06:05:09Z</time>
        <sat>10</sat>
      </trkpt>
      <trkpt lat="42.271984" lon="-4.459763">
        <ele>771.1</ele>
        <time>2020-08-24T06:05:15Z</time>
        <sat>10</sat>
      </trkpt>
      <trkpt lat="42.272020" lon="-4.459869">
        <ele>771.2</ele>
        <time>2020-08-24T06:05:21Z</time>
        <sat>10</sat>
      </trkpt>
      <trkpt lat="42.272059" lon="-4.459976">
        <ele>771.1</ele>
        <time>2020-08-24T06:05:27Z</time>
        <sat>10</sat>
      </trkpt>
      <trkpt lat="42.272105" lon="-4.460085">
        <ele>771.0</ele>
        <time>2020-08-24T06:05:33Z</time>
        <sat>10</sat>
      </trkpt>
      <trkpt lat="42.272148" lon="-4.460186">
        <ele>771.1</ele>
        <time>2020-08-24T06:05:39Z</time>
        <sat>10</sat>
      </trkpt>
      <trkpt lat="42.272184" lon="-4.460288">
        <ele>771.2</ele>
        <time>2020-08-24T06:05:45Z</time>
        <sat>10</sat>
      </trkpt>
      <trkpt lat="42.272219" lon="-4.460392">
        <ele>771.2</ele>
        <time>2020-08-24T06:05:51Z</time>
        <sat>10</sat>
      </trkpt>
      <trkpt lat="42.272258" lon="-4.460493">
        <ele>771.1</ele>
        <time>2020-08-24T06:05:57Z</time>
        <sat>10</sat>
      </trkpt>
      <trkpt lat="42.272302" lon="-4.460591">
        <ele>771.1</ele>
        <time>2020-08-24T06:06:03Z</time>
        <sat>10</sat>
      </trkpt>
      <trkpt lat="42.272336" lon="-4.460691">
        <ele>771.1</ele>
        <time>2020-08-24T06:06:09Z</time>
        <sat>10</sat>
      </trkpt>
      <trkpt lat="42.272375" lon="-4.460792">
        <ele>771.2</ele>
        <time>2020-08-24T06:06:15Z</time>
        <sat>10</sat>
      </trkpt>
      <trkpt lat="42.272416" lon="-4.460907">
        <ele>771.2</ele>
        <time>2020-08-24T06:06:22Z</time>
        <sat>10</sat>
      </trkpt>
      <trkpt lat="42.272455" lon="-4.461018">
        <ele>771.2</ele>
        <time>2020-08-24T06:06:29Z</time>
        <sat>10</sat>
      </trkpt>
      <trkpt lat="42.272495" lon="-4.461125">
        <ele>771.3</ele>
        <time>2020-08-24T06:06:37Z</time>
        <sat>10</sat>
      </trkpt>
      <trkpt lat="42.272532" lon="-4.461228">
        <ele>771.4</ele>
        <time>2020-08-24T06:06:43Z</time>
        <sat>10</sat>
      </trkpt>
      <trkpt lat="42.272577" lon="-4.461329">
        <ele>771.4</ele>
        <time>2020-08-24T06:06:52Z</time>
        <sat>10</sat>
      </trkpt>
      <trkpt lat="42.272619" lon="-4.461442">
        <ele>771.4</ele>
        <time>2020-08-24T06:06:59Z</time>
        <sat>10</sat>
      </trkpt>
      <trkpt lat="42.272656" lon="-4.461543">
        <ele>771.5</ele>
        <time>2020-08-24T06:07:05Z</time>
        <sat>10</sat>
      </trkpt>
      <trkpt lat="42.272697" lon="-4.461652">
        <ele>771.4</ele>
        <time>2020-08-24T06:07:12Z</time>
        <sat>10</sat>
      </trkpt>
      <trkpt lat="42.272737" lon="-4.461766">
        <ele>771.7</ele>
        <time>2020-08-24T06:07:19Z</time>
        <sat>10</sat>
      </trkpt>
      <trkpt lat="42.272779" lon="-4.461862">
        <ele>771.7</ele>
        <time>2020-08-24T06:07:25Z</time>
        <sat>10</sat>
      </trkpt>
      <trkpt lat="42.272820" lon="-4.461969">
        <ele>771.7</ele>
        <time>2020-08-24T06:07:32Z</time>
        <sat>10</sat>
      </trkpt>
      <trkpt lat="42.272867" lon="-4.462063">
        <ele>771.7</ele>
        <time>2020-08-24T06:07:38Z</time>
        <sat>10</sat>
      </trkpt>
      <trkpt lat="42.272912" lon="-4.462170">
        <ele>771.8</ele>
        <time>2020-08-24T06:07:45Z</time>
        <sat>10</sat>
      </trkpt>
      <trkpt lat="42.272956" lon="-4.462281">
        <ele>771.9</ele>
        <time>2020-08-24T06:07:52Z</time>
        <sat>10</sat>
      </trkpt>
      <trkpt lat="42.273001" lon="-4.462378">
        <ele>771.9</ele>
        <time>2020-08-24T06:07:58Z</time>
        <sat>10</sat>
      </trkpt>
      <trkpt lat="42.273041" lon="-4.462479">
        <ele>771.9</ele>
        <time>2020-08-24T06:08:04Z</time>
        <sat>10</sat>
      </trkpt>
      <trkpt lat="42.273085" lon="-4.462574">
        <ele>771.9</ele>
        <time>2020-08-24T06:08:10Z</time>
        <sat>10</sat>
      </trkpt>
      <trkpt lat="42.273134" lon="-4.462679">
        <ele>771.9</ele>
        <time>2020-08-24T06:08:17Z</time>
        <sat>10</sat>
      </trkpt>
      <trkpt lat="42.273188" lon="-4.462785">
        <ele>771.8</ele>
        <time>2020-08-24T06:08:24Z</time>
        <sat>10</sat>
      </trkpt>
      <trkpt lat="42.273242" lon="-4.462887">
        <ele>771.8</ele>
        <time>2020-08-24T06:08:31Z</time>
        <sat>10</sat>
      </trkpt>
      <trkpt lat="42.273290" lon="-4.462979">
        <ele>771.9</ele>
        <time>2020-08-24T06:08:37Z</time>
        <sat>10</sat>
      </trkpt>
      <trkpt lat="42.273340" lon="-4.463079">
        <ele>771.9</ele>
        <time>2020-08-24T06:08:44Z</time>
        <sat>10</sat>
      </trkpt>
      <trkpt lat="42.273395" lon="-4.463177">
        <ele>771.9</ele>
        <time>2020-08-24T06:08:51Z</time>
        <sat>10</sat>
      </trkpt>
      <trkpt lat="42.273452" lon="-4.463272">
        <ele>771.9</ele>
        <time>2020-08-24T06:08:58Z</time>
        <sat>10</sat>
      </trkpt>
      <trkpt lat="42.273499" lon="-4.463361">
        <ele>772.0</ele>
        <time>2020-08-24T06:09:04Z</time>
        <sat>10</sat>
      </trkpt>
      <trkpt lat="42.273553" lon="-4.463449">
        <ele>772.0</ele>
        <time>2020-08-24T06:09:10Z</time>
        <sat>9</sat>
      </trkpt>
      <trkpt lat="42.273618" lon="-4.463542">
        <ele>772.0</ele>
        <time>2020-08-24T06:09:17Z</time>
        <sat>10</sat>
      </trkpt>
      <trkpt lat="42.273665" lon="-4.463638">
        <ele>772.0</ele>
        <time>2020-08-24T06:09:23Z</time>
        <sat>10</sat>
      </trkpt>
      <trkpt lat="42.273716" lon="-4.463727">
        <ele>772.0</ele>
        <time>2020-08-24T06:09:29Z</time>
        <sat>10</sat>
      </trkpt>
      <trkpt lat="42.273776" lon="-4.463822">
        <ele>772.0</ele>
        <time>2020-08-24T06:09:36Z</time>
        <sat>10</sat>
      </trkpt>
      <trkpt lat="42.273837" lon="-4.463918">
        <ele>772.0</ele>
        <time>2020-08-24T06:09:43Z</time>
        <sat>10</sat>
      </trkpt>
      <trkpt lat="42.273895" lon="-4.464017">
        <ele>772.0</ele>
        <time>2020-08-24T06:09:50Z</time>
        <sat>10</sat>
      </trkpt>
      <trkpt lat="42.273948" lon="-4.464101">
        <ele>772.0</ele>
        <time>2020-08-24T06:09:56Z</time>
        <sat>10</sat>
      </trkpt>
      <trkpt lat="42.274009" lon="-4.464184">
        <ele>771.9</ele>
        <time>2020-08-24T06:10:02Z</time>
        <sat>10</sat>
      </trkpt>
      <trkpt lat="42.274066" lon="-4.464286">
        <ele>772.1</ele>
        <time>2020-08-24T06:10:09Z</time>
        <sat>10</sat>
      </trkpt>
      <trkpt lat="42.274118" lon="-4.464374">
        <ele>771.9</ele>
        <time>2020-08-24T06:10:15Z</time>
        <sat>10</sat>
      </trkpt>
      <trkpt lat="42.274175" lon="-4.464454">
        <ele>772.0</ele>
        <time>2020-08-24T06:10:21Z</time>
        <sat>10</sat>
      </trkpt>
      <trkpt lat="42.274224" lon="-4.464542">
        <ele>772.0</ele>
        <time>2020-08-24T06:10:27Z</time>
        <sat>10</sat>
      </trkpt>
      <trkpt lat="42.274278" lon="-4.464629">
        <ele>772.1</ele>
        <time>2020-08-24T06:10:33Z</time>
        <sat>10</sat>
      </trkpt>
      <trkpt lat="42.274345" lon="-4.464718">
        <ele>772.0</ele>
        <time>2020-08-24T06:10:40Z</time>
        <sat>10</sat>
      </trkpt>
      <trkpt lat="42.274401" lon="-4.464801">
        <ele>772.0</ele>
        <time>2020-08-24T06:10:46Z</time>
        <sat>10</sat>
      </trkpt>
      <trkpt lat="42.274484" lon="-4.464828">
        <ele>772.1</ele>
        <time>2020-08-24T06:10:53Z</time>
        <sat>10</sat>
      </trkpt>
      <trkpt lat="42.274499" lon="-4.464946">
        <ele>772.3</ele>
        <time>2020-08-24T06:11:12Z</time>
        <sat>10</sat>
      </trkpt>
      <trkpt lat="42.274549" lon="-4.465037">
        <ele>772.4</ele>
        <time>2020-08-24T06:11:18Z</time>
        <sat>10</sat>
      </trkpt>
      <trkpt lat="42.274602" lon="-4.465132">
        <ele>772.5</ele>
        <time>2020-08-24T06:11:24Z</time>
        <sat>10</sat>
      </trkpt>
      <trkpt lat="42.274656" lon="-4.465213">
        <ele>772.3</ele>
        <time>2020-08-24T06:11:30Z</time>
        <sat>10</sat>
      </trkpt>
      <trkpt lat="42.274713" lon="-4.465301">
        <ele>772.4</ele>
        <time>2020-08-24T06:11:37Z</time>
        <sat>9</sat>
      </trkpt>
      <trkpt lat="42.274772" lon="-4.465378">
        <ele>772.3</ele>
        <time>2020-08-24T06:11:44Z</time>
        <sat>10</sat>
      </trkpt>
      <trkpt lat="42.274823" lon="-4.465462">
        <ele>772.1</ele>
        <time>2020-08-24T06:11:50Z</time>
        <sat>9</sat>
      </trkpt>
      <trkpt lat="42.274887" lon="-4.465548">
        <ele>772.1</ele>
        <time>2020-08-24T06:12:00Z</time>
        <sat>10</sat>
      </trkpt>
      <trkpt lat="42.274943" lon="-4.465638">
        <ele>772.2</ele>
        <time>2020-08-24T06:12:10Z</time>
        <sat>9</sat>
      </trkpt>
      <trkpt lat="42.275001" lon="-4.465731">
        <ele>772.2</ele>
        <time>2020-08-24T06:12:17Z</time>
        <sat>9</sat>
      </trkpt>
      <trkpt lat="42.275060" lon="-4.465824">
        <ele>772.1</ele>
        <time>2020-08-24T06:12:24Z</time>
        <sat>9</sat>
      </trkpt>
      <trkpt lat="42.275119" lon="-4.465920">
        <ele>772.1</ele>
        <time>2020-08-24T06:12:31Z</time>
        <sat>9</sat>
      </trkpt>
      <trkpt lat="42.275177" lon="-4.466021">
        <ele>772.2</ele>
        <time>2020-08-24T06:12:39Z</time>
        <sat>8</sat>
      </trkpt>
      <trkpt lat="42.275236" lon="-4.466102">
        <ele>772.4</ele>
        <time>2020-08-24T06:12:45Z</time>
        <sat>9</sat>
      </trkpt>
      <trkpt lat="42.275293" lon="-4.466192">
        <ele>772.5</ele>
        <time>2020-08-24T06:12:52Z</time>
        <sat>9</sat>
      </trkpt>
      <trkpt lat="42.275358" lon="-4.466282">
        <ele>772.6</ele>
        <time>2020-08-24T06:12:59Z</time>
        <sat>9</sat>
      </trkpt>
      <trkpt lat="42.275415" lon="-4.466377">
        <ele>772.7</ele>
        <time>2020-08-24T06:13:06Z</time>
        <sat>9</sat>
      </trkpt>
      <trkpt lat="42.275462" lon="-4.466466">
        <ele>772.8</ele>
        <time>2020-08-24T06:13:18Z</time>
        <sat>9</sat>
      </trkpt>
      <trkpt lat="42.275514" lon="-4.466554">
        <ele>772.8</ele>
        <time>2020-08-24T06:13:25Z</time>
        <sat>9</sat>
      </trkpt>
      <trkpt lat="42.275568" lon="-4.466647">
        <ele>772.8</ele>
        <time>2020-08-24T06:13:32Z</time>
        <sat>9</sat>
      </trkpt>
      <trkpt lat="42.275631" lon="-4.466738">
        <ele>772.8</ele>
        <time>2020-08-24T06:13:39Z</time>
        <sat>9</sat>
      </trkpt>
      <trkpt lat="42.275683" lon="-4.466832">
        <ele>772.9</ele>
        <time>2020-08-24T06:13:46Z</time>
        <sat>9</sat>
      </trkpt>
      <trkpt lat="42.275745" lon="-4.466922">
        <ele>772.9</ele>
        <time>2020-08-24T06:13:53Z</time>
        <sat>9</sat>
      </trkpt>
      <trkpt lat="42.275794" lon="-4.467010">
        <ele>772.9</ele>
        <time>2020-08-24T06:13:59Z</time>
        <sat>9</sat>
      </trkpt>
      <trkpt lat="42.275853" lon="-4.467102">
        <ele>772.9</ele>
        <time>2020-08-24T06:14:06Z</time>
        <sat>9</sat>
      </trkpt>
      <trkpt lat="42.275901" lon="-4.467194">
        <ele>773.0</ele>
        <time>2020-08-24T06:14:13Z</time>
        <sat>10</sat>
      </trkpt>
      <trkpt lat="42.275958" lon="-4.467276">
        <ele>773.1</ele>
        <time>2020-08-24T06:14:19Z</time>
        <sat>10</sat>
      </trkpt>
      <trkpt lat="42.276014" lon="-4.467374">
        <ele>773.1</ele>
        <time>2020-08-24T06:14:26Z</time>
        <sat>10</sat>
      </trkpt>
      <trkpt lat="42.276070" lon="-4.467456">
        <ele>773.1</ele>
        <time>2020-08-24T06:14:32Z</time>
        <sat>10</sat>
      </trkpt>
      <trkpt lat="42.276128" lon="-4.467549">
        <ele>773.1</ele>
        <time>2020-08-24T06:14:39Z</time>
        <sat>10</sat>
      </trkpt>
      <trkpt lat="42.276191" lon="-4.467642">
        <ele>773.2</ele>
        <time>2020-08-24T06:14:46Z</time>
        <sat>10</sat>
      </trkpt>
      <trkpt lat="42.276246" lon="-4.467739">
        <ele>773.4</ele>
        <time>2020-08-24T06:14:53Z</time>
        <sat>9</sat>
      </trkpt>
      <trkpt lat="42.276308" lon="-4.467830">
        <ele>773.4</ele>
        <time>2020-08-24T06:15:00Z</time>
        <sat>10</sat>
      </trkpt>
      <trkpt lat="42.276367" lon="-4.467924">
        <ele>773.4</ele>
        <time>2020-08-24T06:15:07Z</time>
        <sat>10</sat>
      </trkpt>
      <trkpt lat="42.276427" lon="-4.468016">
        <ele>773.6</ele>
        <time>2020-08-24T06:15:14Z</time>
        <sat>10</sat>
      </trkpt>
      <trkpt lat="42.276483" lon="-4.468117">
        <ele>773.6</ele>
        <time>2020-08-24T06:15:21Z</time>
        <sat>10</sat>
      </trkpt>
      <trkpt lat="42.276539" lon="-4.468198">
        <ele>773.6</ele>
        <time>2020-08-24T06:15:27Z</time>
        <sat>10</sat>
      </trkpt>
      <trkpt lat="42.276594" lon="-4.468294">
        <ele>773.5</ele>
        <time>2020-08-24T06:15:34Z</time>
        <sat>10</sat>
      </trkpt>
      <trkpt lat="42.276656" lon="-4.468369">
        <ele>773.5</ele>
        <time>2020-08-24T06:15:40Z</time>
        <sat>10</sat>
      </trkpt>
      <trkpt lat="42.276717" lon="-4.468444">
        <ele>773.6</ele>
        <time>2020-08-24T06:15:55Z</time>
        <sat>10</sat>
      </trkpt>
      <trkpt lat="42.276778" lon="-4.468533">
        <ele>773.5</ele>
        <time>2020-08-24T06:16:01Z</time>
        <sat>10</sat>
      </trkpt>
      <trkpt lat="42.276832" lon="-4.468616">
        <ele>773.5</ele>
        <time>2020-08-24T06:16:07Z</time>
        <sat>10</sat>
      </trkpt>
      <trkpt lat="42.276883" lon="-4.468714">
        <ele>773.6</ele>
        <time>2020-08-24T06:16:13Z</time>
        <sat>10</sat>
      </trkpt>
      <trkpt lat="42.276934" lon="-4.468807">
        <ele>773.7</ele>
        <time>2020-08-24T06:16:19Z</time>
        <sat>10</sat>
      </trkpt>
      <trkpt lat="42.276995" lon="-4.468901">
        <ele>773.7</ele>
        <time>2020-08-24T06:16:25Z</time>
        <sat>10</sat>
      </trkpt>
      <trkpt lat="42.277047" lon="-4.468985">
        <ele>773.7</ele>
        <time>2020-08-24T06:16:31Z</time>
        <sat>9</sat>
      </trkpt>
      <trkpt lat="42.277108" lon="-4.469079">
        <ele>773.9</ele>
        <time>2020-08-24T06:16:38Z</time>
        <sat>10</sat>
      </trkpt>
      <trkpt lat="42.277168" lon="-4.469171">
        <ele>774.0</ele>
        <time>2020-08-24T06:16:45Z</time>
        <sat>10</sat>
      </trkpt>
      <trkpt lat="42.277231" lon="-4.469268">
        <ele>773.9</ele>
        <time>2020-08-24T06:16:52Z</time>
        <sat>10</sat>
      </trkpt>
      <trkpt lat="42.277284" lon="-4.469357">
        <ele>773.8</ele>
        <time>2020-08-24T06:16:59Z</time>
        <sat>10</sat>
      </trkpt>
      <trkpt lat="42.277338" lon="-4.469444">
        <ele>773.8</ele>
        <time>2020-08-24T06:17:05Z</time>
        <sat>10</sat>
      </trkpt>
      <trkpt lat="42.277400" lon="-4.469538">
        <ele>773.7</ele>
        <time>2020-08-24T06:17:12Z</time>
        <sat>10</sat>
      </trkpt>
      <trkpt lat="42.277457" lon="-4.469635">
        <ele>773.6</ele>
        <time>2020-08-24T06:17:19Z</time>
        <sat>10</sat>
      </trkpt>
      <trkpt lat="42.277520" lon="-4.469726">
        <ele>773.5</ele>
        <time>2020-08-24T06:17:26Z</time>
        <sat>10</sat>
      </trkpt>
      <trkpt lat="42.277577" lon="-4.469823">
        <ele>773.5</ele>
        <time>2020-08-24T06:17:33Z</time>
        <sat>10</sat>
      </trkpt>
      <trkpt lat="42.277639" lon="-4.469912">
        <ele>773.5</ele>
        <time>2020-08-24T06:17:40Z</time>
        <sat>10</sat>
      </trkpt>
      <trkpt lat="42.277695" lon="-4.470009">
        <ele>773.4</ele>
        <time>2020-08-24T06:17:47Z</time>
        <sat>10</sat>
      </trkpt>
      <trkpt lat="42.277750" lon="-4.470089">
        <ele>773.4</ele>
        <time>2020-08-24T06:17:53Z</time>
        <sat>10</sat>
      </trkpt>
      <trkpt lat="42.277806" lon="-4.470187">
        <ele>773.4</ele>
        <time>2020-08-24T06:18:00Z</time>
        <sat>10</sat>
      </trkpt>
      <trkpt lat="42.277867" lon="-4.470278">
        <ele>773.4</ele>
        <time>2020-08-24T06:18:07Z</time>
        <sat>10</sat>
      </trkpt>
      <trkpt lat="42.277921" lon="-4.470373">
        <ele>773.5</ele>
        <time>2020-08-24T06:18:14Z</time>
        <sat>10</sat>
      </trkpt>
      <trkpt lat="42.277982" lon="-4.470463">
        <ele>773.5</ele>
        <time>2020-08-24T06:18:21Z</time>
        <sat>10</sat>
      </trkpt>
      <trkpt lat="42.278036" lon="-4.470560">
        <ele>773.6</ele>
        <time>2020-08-24T06:18:28Z</time>
        <sat>10</sat>
      </trkpt>
      <trkpt lat="42.278091" lon="-4.470642">
        <ele>773.6</ele>
        <time>2020-08-24T06:18:34Z</time>
        <sat>10</sat>
      </trkpt>
      <trkpt lat="42.278144" lon="-4.470736">
        <ele>773.5</ele>
        <time>2020-08-24T06:18:41Z</time>
        <sat>10</sat>
      </trkpt>
      <trkpt lat="42.278207" lon="-4.470829">
        <ele>773.5</ele>
        <time>2020-08-24T06:18:48Z</time>
        <sat>10</sat>
      </trkpt>
      <trkpt lat="42.278266" lon="-4.470925">
        <ele>773.5</ele>
        <time>2020-08-24T06:18:55Z</time>
        <sat>10</sat>
      </trkpt>
      <trkpt lat="42.278332" lon="-4.471015">
        <ele>773.5</ele>
        <time>2020-08-24T06:19:02Z</time>
        <sat>10</sat>
      </trkpt>
      <trkpt lat="42.278386" lon="-4.471113">
        <ele>773.5</ele>
        <time>2020-08-24T06:19:09Z</time>
        <sat>10</sat>
      </trkpt>
      <trkpt lat="42.278439" lon="-4.471198">
        <ele>773.5</ele>
        <time>2020-08-24T06:19:15Z</time>
        <sat>10</sat>
      </trkpt>
      <trkpt lat="42.278495" lon="-4.471292">
        <ele>773.5</ele>
        <time>2020-08-24T06:19:22Z</time>
        <sat>10</sat>
      </trkpt>
      <trkpt lat="42.278552" lon="-4.471388">
        <ele>773.6</ele>
        <time>2020-08-24T06:19:29Z</time>
        <sat>10</sat>
      </trkpt>
      <trkpt lat="42.278613" lon="-4.471487">
        <ele>773.5</ele>
        <time>2020-08-24T06:19:44Z</time>
        <sat>10</sat>
      </trkpt>
      <trkpt lat="42.278679" lon="-4.471579">
        <ele>773.6</ele>
        <time>2020-08-24T06:19:50Z</time>
        <sat>10</sat>
      </trkpt>
      <trkpt lat="42.278741" lon="-4.471669">
        <ele>773.7</ele>
        <time>2020-08-24T06:20:06Z</time>
        <sat>10</sat>
      </trkpt>
      <trkpt lat="42.278799" lon="-4.471751">
        <ele>773.8</ele>
        <time>2020-08-24T06:20:12Z</time>
        <sat>10</sat>
      </trkpt>
      <trkpt lat="42.278866" lon="-4.471840">
        <ele>773.8</ele>
        <time>2020-08-24T06:20:18Z</time>
        <sat>10</sat>
      </trkpt>
      <trkpt lat="42.278925" lon="-4.471916">
        <ele>773.9</ele>
        <time>2020-08-24T06:20:23Z</time>
        <sat>10</sat>
      </trkpt>
      <trkpt lat="42.278974" lon="-4.472012">
        <ele>773.9</ele>
        <time>2020-08-24T06:20:29Z</time>
        <sat>9</sat>
      </trkpt>
      <trkpt lat="42.279027" lon="-4.472112">
        <ele>773.9</ele>
        <time>2020-08-24T06:20:35Z</time>
        <sat>9</sat>
      </trkpt>
      <trkpt lat="42.279080" lon="-4.472207">
        <ele>773.8</ele>
        <time>2020-08-24T06:20:41Z</time>
        <sat>8</sat>
      </trkpt>
      <trkpt lat="42.279141" lon="-4.472302">
        <ele>773.8</ele>
        <time>2020-08-24T06:20:47Z</time>
        <sat>9</sat>
      </trkpt>
      <trkpt lat="42.279197" lon="-4.472383">
        <ele>773.8</ele>
        <time>2020-08-24T06:20:53Z</time>
        <sat>9</sat>
      </trkpt>
      <trkpt lat="42.279247" lon="-4.472470">
        <ele>773.8</ele>
        <time>2020-08-24T06:20:59Z</time>
        <sat>9</sat>
      </trkpt>
      <trkpt lat="42.279310" lon="-4.472561">
        <ele>773.8</ele>
        <time>2020-08-24T06:21:06Z</time>
        <sat>9</sat>
      </trkpt>
      <trkpt lat="42.279362" lon="-4.472646">
        <ele>774.0</ele>
        <time>2020-08-24T06:21:12Z</time>
        <sat>9</sat>
      </trkpt>
      <trkpt lat="42.279419" lon="-4.472729">
        <ele>774.0</ele>
        <time>2020-08-24T06:21:18Z</time>
        <sat>9</sat>
      </trkpt>
      <trkpt lat="42.279476" lon="-4.472824">
        <ele>774.1</ele>
        <time>2020-08-24T06:21:25Z</time>
        <sat>9</sat>
      </trkpt>
      <trkpt lat="42.279534" lon="-4.472908">
        <ele>774.1</ele>
        <time>2020-08-24T06:21:31Z</time>
        <sat>9</sat>
      </trkpt>
      <trkpt lat="42.279598" lon="-4.472998">
        <ele>774.2</ele>
        <time>2020-08-24T06:21:38Z</time>
        <sat>9</sat>
      </trkpt>
      <trkpt lat="42.279650" lon="-4.473084">
        <ele>774.3</ele>
        <time>2020-08-24T06:21:44Z</time>
        <sat>9</sat>
      </trkpt>
      <trkpt lat="42.279707" lon="-4.473164">
        <ele>774.4</ele>
        <time>2020-08-24T06:21:50Z</time>
        <sat>9</sat>
      </trkpt>
      <trkpt lat="42.279765" lon="-4.473261">
        <ele>774.4</ele>
        <time>2020-08-24T06:21:57Z</time>
        <sat>9</sat>
      </trkpt>
      <trkpt lat="42.279823" lon="-4.473347">
        <ele>774.4</ele>
        <time>2020-08-24T06:22:03Z</time>
        <sat>9</sat>
      </trkpt>
      <trkpt lat="42.279879" lon="-4.473439">
        <ele>774.6</ele>
        <time>2020-08-24T06:22:10Z</time>
        <sat>9</sat>
      </trkpt>
      <trkpt lat="42.279931" lon="-4.473525">
        <ele>774.6</ele>
        <time>2020-08-24T06:22:16Z</time>
        <sat>9</sat>
      </trkpt>
      <trkpt lat="42.279988" lon="-4.473604">
        <ele>774.7</ele>
        <time>2020-08-24T06:22:22Z</time>
        <sat>9</sat>
      </trkpt>
      <trkpt lat="42.280038" lon="-4.473691">
        <ele>774.7</ele>
        <time>2020-08-24T06:22:28Z</time>
        <sat>9</sat>
      </trkpt>
      <trkpt lat="42.280099" lon="-4.473780">
        <ele>774.7</ele>
        <time>2020-08-24T06:22:35Z</time>
        <sat>9</sat>
      </trkpt>
      <trkpt lat="42.280157" lon="-4.473878">
        <ele>774.7</ele>
        <time>2020-08-24T06:22:42Z</time>
        <sat>9</sat>
      </trkpt>
      <trkpt lat="42.280214" lon="-4.473961">
        <ele>774.7</ele>
        <time>2020-08-24T06:22:48Z</time>
        <sat>9</sat>
      </trkpt>
      <trkpt lat="42.280267" lon="-4.474061">
        <ele>774.7</ele>
        <time>2020-08-24T06:22:55Z</time>
        <sat>9</sat>
      </trkpt>
      <trkpt lat="42.280323" lon="-4.474144">
        <ele>774.7</ele>
        <time>2020-08-24T06:23:01Z</time>
        <sat>9</sat>
      </trkpt>
      <trkpt lat="42.280386" lon="-4.474236">
        <ele>774.7</ele>
        <time>2020-08-24T06:23:08Z</time>
        <sat>9</sat>
      </trkpt>
      <trkpt lat="42.280437" lon="-4.474326">
        <ele>774.8</ele>
        <time>2020-08-24T06:23:14Z</time>
        <sat>9</sat>
      </trkpt>
      <trkpt lat="42.280492" lon="-4.474410">
        <ele>774.8</ele>
        <time>2020-08-24T06:23:20Z</time>
        <sat>9</sat>
      </trkpt>
      <trkpt lat="42.280551" lon="-4.474507">
        <ele>774.8</ele>
        <time>2020-08-24T06:23:27Z</time>
        <sat>9</sat>
      </trkpt>
      <trkpt lat="42.280605" lon="-4.474590">
        <ele>774.7</ele>
        <time>2020-08-24T06:23:33Z</time>
        <sat>9</sat>
      </trkpt>
      <trkpt lat="42.280670" lon="-4.474679">
        <ele>774.6</ele>
        <time>2020-08-24T06:23:40Z</time>
        <sat>9</sat>
      </trkpt>
      <trkpt lat="42.280728" lon="-4.474771">
        <ele>774.6</ele>
        <time>2020-08-24T06:23:47Z</time>
        <sat>9</sat>
      </trkpt>
      <trkpt lat="42.280780" lon="-4.474855">
        <ele>774.5</ele>
        <time>2020-08-24T06:23:53Z</time>
        <sat>9</sat>
      </trkpt>
      <trkpt lat="42.280834" lon="-4.474949">
        <ele>774.4</ele>
        <time>2020-08-24T06:24:00Z</time>
        <sat>9</sat>
      </trkpt>
      <trkpt lat="42.280894" lon="-4.475043">
        <ele>774.3</ele>
        <time>2020-08-24T06:24:07Z</time>
        <sat>9</sat>
      </trkpt>
      <trkpt lat="42.280946" lon="-4.475139">
        <ele>774.3</ele>
        <time>2020-08-24T06:24:14Z</time>
        <sat>9</sat>
      </trkpt>
      <trkpt lat="42.281008" lon="-4.475222">
        <ele>774.2</ele>
        <time>2020-08-24T06:24:21Z</time>
        <sat>9</sat>
      </trkpt>
      <trkpt lat="42.281065" lon="-4.475309">
        <ele>774.2</ele>
        <time>2020-08-24T06:24:28Z</time>
        <sat>8</sat>
      </trkpt>
      <trkpt lat="42.281124" lon="-4.475402">
        <ele>774.2</ele>
        <time>2020-08-24T06:24:35Z</time>
        <sat>8</sat>
      </trkpt>
      <trkpt lat="42.281181" lon="-4.475503">
        <ele>774.2</ele>
        <time>2020-08-24T06:24:42Z</time>
        <sat>8</sat>
      </trkpt>
      <trkpt lat="42.281237" lon="-4.475583">
        <ele>774.2</ele>
        <time>2020-08-24T06:24:48Z</time>
        <sat>8</sat>
      </trkpt>
      <trkpt lat="42.281290" lon="-4.475679">
        <ele>774.1</ele>
        <time>2020-08-24T06:24:55Z</time>
        <sat>8</sat>
      </trkpt>
      <trkpt lat="42.281352" lon="-4.475769">
        <ele>774.1</ele>
        <time>2020-08-24T06:25:02Z</time>
        <sat>8</sat>
      </trkpt>
      <trkpt lat="42.281403" lon="-4.475857">
        <ele>774.0</ele>
        <time>2020-08-24T06:25:09Z</time>
        <sat>8</sat>
      </trkpt>
      <trkpt lat="42.281461" lon="-4.475951">
        <ele>774.0</ele>
        <time>2020-08-24T06:25:16Z</time>
        <sat>8</sat>
      </trkpt>
      <trkpt lat="42.281512" lon="-4.476045">
        <ele>774.0</ele>
        <time>2020-08-24T06:25:23Z</time>
        <sat>8</sat>
      </trkpt>
      <trkpt lat="42.281574" lon="-4.476135">
        <ele>774.0</ele>
        <time>2020-08-24T06:25:30Z</time>
        <sat>8</sat>
      </trkpt>
      <trkpt lat="42.281631" lon="-4.476226">
        <ele>773.8</ele>
        <time>2020-08-24T06:25:37Z</time>
        <sat>8</sat>
      </trkpt>
      <trkpt lat="42.281688" lon="-4.476320">
        <ele>773.7</ele>
        <time>2020-08-24T06:25:44Z</time>
        <sat>8</sat>
      </trkpt>
      <trkpt lat="42.281747" lon="-4.476412">
        <ele>773.7</ele>
        <time>2020-08-24T06:25:51Z</time>
        <sat>8</sat>
      </trkpt>
      <trkpt lat="42.281801" lon="-4.476496">
        <ele>773.6</ele>
        <time>2020-08-24T06:25:57Z</time>
        <sat>8</sat>
      </trkpt>
      <trkpt lat="42.281859" lon="-4.476587">
        <ele>773.5</ele>
        <time>2020-08-24T06:26:04Z</time>
        <sat>8</sat>
      </trkpt>
      <trkpt lat="42.281912" lon="-4.476684">
        <ele>773.4</ele>
        <time>2020-08-24T06:26:11Z</time>
        <sat>8</sat>
      </trkpt>
      <trkpt lat="42.281973" lon="-4.476775">
        <ele>773.4</ele>
        <time>2020-08-24T06:26:18Z</time>
        <sat>8</sat>
      </trkpt>
      <trkpt lat="42.282021" lon="-4.476866">
        <ele>773.3</ele>
        <time>2020-08-24T06:26:24Z</time>
        <sat>8</sat>
      </trkpt>
      <trkpt lat="42.282080" lon="-4.476950">
        <ele>773.4</ele>
        <time>2020-08-24T06:26:30Z</time>
        <sat>8</sat>
      </trkpt>
      <trkpt lat="42.282137" lon="-4.477038">
        <ele>773.4</ele>
        <time>2020-08-24T06:26:37Z</time>
        <sat>8</sat>
      </trkpt>
      <trkpt lat="42.282189" lon="-4.477127">
        <ele>773.3</ele>
        <time>2020-08-24T06:26:44Z</time>
        <sat>8</sat>
      </trkpt>
      <trkpt lat="42.282251" lon="-4.477213">
        <ele>773.4</ele>
        <time>2020-08-24T06:26:51Z</time>
        <sat>8</sat>
      </trkpt>
      <trkpt lat="42.282306" lon="-4.477306">
        <ele>773.4</ele>
        <time>2020-08-24T06:26:58Z</time>
        <sat>8</sat>
      </trkpt>
      <trkpt lat="42.282364" lon="-4.477399">
        <ele>773.5</ele>
        <time>2020-08-24T06:27:05Z</time>
        <sat>8</sat>
      </trkpt>
      <trkpt lat="42.282416" lon="-4.477484">
        <ele>773.8</ele>
        <time>2020-08-24T06:27:11Z</time>
        <sat>8</sat>
      </trkpt>
      <trkpt lat="42.282475" lon="-4.477576">
        <ele>774.0</ele>
        <time>2020-08-24T06:27:18Z</time>
        <sat>8</sat>
      </trkpt>
      <trkpt lat="42.282539" lon="-4.477668">
        <ele>774.2</ele>
        <time>2020-08-24T06:27:25Z</time>
        <sat>8</sat>
      </trkpt>
      <trkpt lat="42.282589" lon="-4.477753">
        <ele>774.3</ele>
        <time>2020-08-24T06:27:31Z</time>
        <sat>8</sat>
      </trkpt>
      <trkpt lat="42.282648" lon="-4.477847">
        <ele>774.4</ele>
        <time>2020-08-24T06:27:38Z</time>
        <sat>8</sat>
      </trkpt>
      <trkpt lat="42.282709" lon="-4.477931">
        <ele>774.2</ele>
        <time>2020-08-24T06:27:44Z</time>
        <sat>8</sat>
      </trkpt>
      <trkpt lat="42.282767" lon="-4.478010">
        <ele>774.3</ele>
        <time>2020-08-24T06:27:50Z</time>
        <sat>8</sat>
      </trkpt>
      <trkpt lat="42.282826" lon="-4.478111">
        <ele>774.4</ele>
        <time>2020-08-24T06:27:57Z</time>
        <sat>8</sat>
      </trkpt>
      <trkpt lat="42.282881" lon="-4.478201">
        <ele>774.4</ele>
        <time>2020-08-24T06:28:04Z</time>
        <sat>8</sat>
      </trkpt>
      <trkpt lat="42.282932" lon="-4.478285">
        <ele>774.4</ele>
        <time>2020-08-24T06:28:10Z</time>
        <sat>8</sat>
      </trkpt>
      <trkpt lat="42.282996" lon="-4.478375">
        <ele>774.3</ele>
        <time>2020-08-24T06:28:17Z</time>
        <sat>8</sat>
      </trkpt>
      <trkpt lat="42.283049" lon="-4.478473">
        <ele>774.5</ele>
        <time>2020-08-24T06:28:24Z</time>
        <sat>8</sat>
      </trkpt>
      <trkpt lat="42.283103" lon="-4.478555">
        <ele>774.6</ele>
        <time>2020-08-24T06:28:30Z</time>
        <sat>8</sat>
      </trkpt>
      <trkpt lat="42.283161" lon="-4.478652">
        <ele>774.6</ele>
        <time>2020-08-24T06:28:37Z</time>
        <sat>8</sat>
      </trkpt>
      <trkpt lat="42.283217" lon="-4.478748">
        <ele>774.5</ele>
        <time>2020-08-24T06:28:44Z</time>
        <sat>8</sat>
      </trkpt>
      <trkpt lat="42.283287" lon="-4.478815">
        <ele>774.5</ele>
        <time>2020-08-24T06:29:12Z</time>
        <sat>8</sat>
      </trkpt>
      <trkpt lat="42.283346" lon="-4.478903">
        <ele>774.4</ele>
        <time>2020-08-24T06:29:19Z</time>
        <sat>8</sat>
      </trkpt>
      <trkpt lat="42.283403" lon="-4.479001">
        <ele>774.1</ele>
        <time>2020-08-24T06:29:26Z</time>
        <sat>8</sat>
      </trkpt>
      <trkpt lat="42.283463" lon="-4.479091">
        <ele>774.0</ele>
        <time>2020-08-24T06:29:33Z</time>
        <sat>8</sat>
      </trkpt>
      <trkpt lat="42.283519" lon="-4.479190">
        <ele>774.0</ele>
        <time>2020-08-24T06:29:40Z</time>
        <sat>8</sat>
      </trkpt>
      <trkpt lat="42.283569" lon="-4.479288">
        <ele>774.0</ele>
        <time>2020-08-24T06:29:47Z</time>
        <sat>8</sat>
      </trkpt>
      <trkpt lat="42.283615" lon="-4.479393">
        <ele>773.8</ele>
        <time>2020-08-24T06:29:55Z</time>
        <sat>8</sat>
      </trkpt>
      <trkpt lat="42.283673" lon="-4.479484">
        <ele>773.8</ele>
        <time>2020-08-24T06:30:02Z</time>
        <sat>8</sat>
      </trkpt>
      <trkpt lat="42.283733" lon="-4.479578">
        <ele>774.0</ele>
        <time>2020-08-24T06:30:09Z</time>
        <sat>8</sat>
      </trkpt>
      <trkpt lat="42.283791" lon="-4.479663">
        <ele>774.1</ele>
        <time>2020-08-24T06:30:16Z</time>
        <sat>8</sat>
      </trkpt>
      <trkpt lat="42.283853" lon="-4.479749">
        <ele>774.2</ele>
        <time>2020-08-24T06:30:23Z</time>
        <sat>8</sat>
      </trkpt>
      <trkpt lat="42.283922" lon="-4.479830">
        <ele>774.4</ele>
        <time>2020-08-24T06:30:30Z</time>
        <sat>8</sat>
      </trkpt>
      <trkpt lat="42.283980" lon="-4.479923">
        <ele>774.4</ele>
        <time>2020-08-24T06:30:37Z</time>
        <sat>8</sat>
      </trkpt>
      <trkpt lat="42.284041" lon="-4.480001">
        <ele>774.4</ele>
        <time>2020-08-24T06:30:43Z</time>
        <sat>8</sat>
      </trkpt>
      <trkpt lat="42.284109" lon="-4.480091">
        <ele>774.8</ele>
        <time>2020-08-24T06:30:51Z</time>
        <sat>7</sat>
      </trkpt>
      <trkpt lat="42.284176" lon="-4.480156">
        <ele>775.0</ele>
        <time>2020-08-24T06:30:58Z</time>
        <sat>6</sat>
      </trkpt>
      <trkpt lat="42.284170" lon="-4.480270">
        <ele>775.3</ele>
        <time>2020-08-24T06:31:12Z</time>
        <sat>7</sat>
      </trkpt>
      <trkpt lat="42.284248" lon="-4.480317">
        <ele>775.2</ele>
        <time>2020-08-24T06:31:20Z</time>
        <sat>8</sat>
      </trkpt>
      <trkpt lat="42.284328" lon="-4.480384">
        <ele>775.3</ele>
        <time>2020-08-24T06:31:28Z</time>
        <sat>8</sat>
      </trkpt>
      <trkpt lat="42.284386" lon="-4.480464">
        <ele>775.4</ele>
        <time>2020-08-24T06:31:34Z</time>
        <sat>8</sat>
      </trkpt>
      <trkpt lat="42.284454" lon="-4.480542">
        <ele>775.5</ele>
        <time>2020-08-24T06:31:41Z</time>
        <sat>8</sat>
      </trkpt>
      <trkpt lat="42.284512" lon="-4.480639">
        <ele>775.6</ele>
        <time>2020-08-24T06:31:48Z</time>
        <sat>8</sat>
      </trkpt>
      <trkpt lat="42.284569" lon="-4.480720">
        <ele>775.8</ele>
        <time>2020-08-24T06:31:55Z</time>
        <sat>8</sat>
      </trkpt>
      <trkpt lat="42.284633" lon="-4.480799">
        <ele>775.9</ele>
        <time>2020-08-24T06:32:01Z</time>
        <sat>7</sat>
      </trkpt>
      <trkpt lat="42.284709" lon="-4.480863">
        <ele>775.9</ele>
        <time>2020-08-24T06:32:08Z</time>
        <sat>8</sat>
      </trkpt>
      <trkpt lat="42.284795" lon="-4.480906">
        <ele>776.1</ele>
        <time>2020-08-24T06:32:15Z</time>
        <sat>7</sat>
      </trkpt>
      <trkpt lat="42.284859" lon="-4.480981">
        <ele>776.2</ele>
        <time>2020-08-24T06:32:22Z</time>
        <sat>8</sat>
      </trkpt>
      <trkpt lat="42.284920" lon="-4.481083">
        <ele>776.5</ele>
        <time>2020-08-24T06:32:29Z</time>
        <sat>8</sat>
      </trkpt>
      <trkpt lat="42.284990" lon="-4.481156">
        <ele>776.6</ele>
        <time>2020-08-24T06:32:38Z</time>
        <sat>8</sat>
      </trkpt>
      <trkpt lat="42.285063" lon="-4.481216">
        <ele>776.7</ele>
        <time>2020-08-24T06:32:45Z</time>
        <sat>8</sat>
      </trkpt>
      <trkpt lat="42.285128" lon="-4.481290">
        <ele>776.9</ele>
        <time>2020-08-24T06:32:54Z</time>
        <sat>8</sat>
      </trkpt>
      <trkpt lat="42.285211" lon="-4.481337">
        <ele>776.7</ele>
        <time>2020-08-24T06:33:03Z</time>
        <sat>8</sat>
      </trkpt>
      <trkpt lat="42.285260" lon="-4.481385">
        <ele>776.5</ele>
        <time>2020-08-24T06:45:52Z</time>
        <sat>9</sat>
      </trkpt>
      <trkpt lat="42.285234" lon="-4.481490">
        <ele>777.1</ele>
        <time>2020-08-24T06:46:21Z</time>
        <sat>9</sat>
      </trkpt>
      <trkpt lat="42.285304" lon="-4.481561">
        <ele>777.2</ele>
        <time>2020-08-24T06:46:29Z</time>
        <sat>8</sat>
      </trkpt>
      <trkpt lat="42.285377" lon="-4.481628">
        <ele>777.5</ele>
        <time>2020-08-24T06:46:36Z</time>
        <sat>7</sat>
      </trkpt>
      <trkpt lat="42.285440" lon="-4.481709">
        <ele>777.5</ele>
        <time>2020-08-24T06:46:43Z</time>
        <sat>8</sat>
      </trkpt>
      <trkpt lat="42.285499" lon="-4.481793">
        <ele>777.5</ele>
        <time>2020-08-24T06:46:50Z</time>
        <sat>8</sat>
      </trkpt>
      <trkpt lat="42.285553" lon="-4.481877">
        <ele>777.6</ele>
        <time>2020-08-24T06:46:57Z</time>
        <sat>8</sat>
      </trkpt>
      <trkpt lat="42.285622" lon="-4.481954">
        <ele>777.6</ele>
        <time>2020-08-24T06:47:04Z</time>
        <sat>9</sat>
      </trkpt>
      <trkpt lat="42.285689" lon="-4.482029">
        <ele>777.5</ele>
        <time>2020-08-24T06:47:11Z</time>
        <sat>7</sat>
      </trkpt>
      <trkpt lat="42.285754" lon="-4.482110">
        <ele>777.5</ele>
        <time>2020-08-24T06:47:19Z</time>
        <sat>9</sat>
      </trkpt>
      <trkpt lat="42.285817" lon="-4.482179">
        <ele>777.5</ele>
        <time>2020-08-24T06:47:25Z</time>
        <sat>9</sat>
      </trkpt>
      <trkpt lat="42.285896" lon="-4.482222">
        <ele>777.3</ele>
        <time>2020-08-24T06:47:30Z</time>
        <sat>8</sat>
      </trkpt>
      <trkpt lat="42.285959" lon="-4.482298">
        <ele>777.2</ele>
        <time>2020-08-24T06:47:37Z</time>
        <sat>8</sat>
      </trkpt>
      <trkpt lat="42.286040" lon="-4.482366">
        <ele>776.9</ele>
        <time>2020-08-24T06:47:44Z</time>
        <sat>8</sat>
      </trkpt>
      <trkpt lat="42.286099" lon="-4.482447">
        <ele>776.8</ele>
        <time>2020-08-24T06:47:51Z</time>
        <sat>9</sat>
      </trkpt>
      <trkpt lat="42.286180" lon="-4.482445">
        <ele>776.5</ele>
        <time>2020-08-24T06:47:58Z</time>
        <sat>9</sat>
      </trkpt>
      <trkpt lat="42.286248" lon="-4.482515">
        <ele>776.4</ele>
        <time>2020-08-24T06:48:06Z</time>
        <sat>9</sat>
      </trkpt>
      <trkpt lat="42.286306" lon="-4.482593">
        <ele>776.3</ele>
        <time>2020-08-24T06:48:13Z</time>
        <sat>9</sat>
      </trkpt>
      <trkpt lat="42.286377" lon="-4.482652">
        <ele>776.2</ele>
        <time>2020-08-24T06:48:20Z</time>
        <sat>9</sat>
      </trkpt>
      <trkpt lat="42.286441" lon="-4.482734">
        <ele>776.1</ele>
        <time>2020-08-24T06:48:27Z</time>
        <sat>9</sat>
      </trkpt>
      <trkpt lat="42.286503" lon="-4.482823">
        <ele>776.1</ele>
        <time>2020-08-24T06:48:34Z</time>
        <sat>9</sat>
      </trkpt>
      <trkpt lat="42.286571" lon="-4.482908">
        <ele>775.9</ele>
        <time>2020-08-24T06:48:41Z</time>
        <sat>9</sat>
      </trkpt>
      <trkpt lat="42.286627" lon="-4.482994">
        <ele>775.7</ele>
        <time>2020-08-24T06:48:47Z</time>
        <sat>9</sat>
      </trkpt>
      <trkpt lat="42.286681" lon="-4.483082">
        <ele>775.5</ele>
        <time>2020-08-24T06:48:53Z</time>
        <sat>9</sat>
      </trkpt>
      <trkpt lat="42.286749" lon="-4.483168">
        <ele>775.4</ele>
        <time>2020-08-24T06:49:00Z</time>
        <sat>9</sat>
      </trkpt>
      <trkpt lat="42.286810" lon="-4.483246">
        <ele>775.3</ele>
        <time>2020-08-24T06:49:06Z</time>
        <sat>9</sat>
      </trkpt>
      <trkpt lat="42.286871" lon="-4.483337">
        <ele>775.4</ele>
        <time>2020-08-24T06:49:14Z</time>
        <sat>8</sat>
      </trkpt>
      <trkpt lat="42.286930" lon="-4.483431">
        <ele>775.5</ele>
        <time>2020-08-24T06:49:22Z</time>
        <sat>8</sat>
      </trkpt>
      <trkpt lat="42.286991" lon="-4.483519">
        <ele>775.7</ele>
        <time>2020-08-24T06:49:29Z</time>
        <sat>9</sat>
      </trkpt>
      <trkpt lat="42.287055" lon="-4.483603">
        <ele>775.8</ele>
        <time>2020-08-24T06:49:36Z</time>
        <sat>9</sat>
      </trkpt>
      <trkpt lat="42.287116" lon="-4.483691">
        <ele>775.7</ele>
        <time>2020-08-24T06:49:44Z</time>
        <sat>9</sat>
      </trkpt>
      <trkpt lat="42.287180" lon="-4.483766">
        <ele>775.7</ele>
        <time>2020-08-24T06:49:51Z</time>
        <sat>9</sat>
      </trkpt>
      <trkpt lat="42.287244" lon="-4.483835">
        <ele>775.8</ele>
        <time>2020-08-24T06:49:57Z</time>
        <sat>9</sat>
      </trkpt>
      <trkpt lat="42.287299" lon="-4.483921">
        <ele>775.7</ele>
        <time>2020-08-24T06:50:05Z</time>
        <sat>10</sat>
      </trkpt>
      <trkpt lat="42.287365" lon="-4.484002">
        <ele>775.8</ele>
        <time>2020-08-24T06:50:18Z</time>
        <sat>10</sat>
      </trkpt>
      <trkpt lat="42.287419" lon="-4.484087">
        <ele>775.9</ele>
        <time>2020-08-24T06:50:24Z</time>
        <sat>10</sat>
      </trkpt>
      <trkpt lat="42.287478" lon="-4.484172">
        <ele>775.9</ele>
        <time>2020-08-24T06:50:30Z</time>
        <sat>10</sat>
      </trkpt>
      <trkpt lat="42.287537" lon="-4.484263">
        <ele>776.3</ele>
        <time>2020-08-24T06:50:37Z</time>
        <sat>10</sat>
      </trkpt>
      <trkpt lat="42.287596" lon="-4.484344">
        <ele>776.3</ele>
        <time>2020-08-24T06:50:43Z</time>
        <sat>9</sat>
      </trkpt>
      <trkpt lat="42.287660" lon="-4.484436">
        <ele>776.3</ele>
        <time>2020-08-24T06:50:50Z</time>
        <sat>10</sat>
      </trkpt>
      <trkpt lat="42.287716" lon="-4.484516">
        <ele>776.3</ele>
        <time>2020-08-24T06:50:56Z</time>
        <sat>10</sat>
      </trkpt>
      <trkpt lat="42.287774" lon="-4.484608">
        <ele>776.4</ele>
        <time>2020-08-24T06:51:03Z</time>
        <sat>10</sat>
      </trkpt>
      <trkpt lat="42.287836" lon="-4.484703">
        <ele>776.4</ele>
        <time>2020-08-24T06:51:10Z</time>
        <sat>10</sat>
      </trkpt>
      <trkpt lat="42.287897" lon="-4.484794">
        <ele>776.5</ele>
        <time>2020-08-24T06:51:17Z</time>
        <sat>10</sat>
      </trkpt>
      <trkpt lat="42.287962" lon="-4.484879">
        <ele>776.6</ele>
        <time>2020-08-24T06:51:24Z</time>
        <sat>9</sat>
      </trkpt>
      <trkpt lat="42.288029" lon="-4.484965">
        <ele>776.8</ele>
        <time>2020-08-24T06:51:31Z</time>
        <sat>10</sat>
      </trkpt>
      <trkpt lat="42.288094" lon="-4.485033">
        <ele>777.0</ele>
        <time>2020-08-24T06:51:39Z</time>
        <sat>10</sat>
      </trkpt>
      <trkpt lat="42.288126" lon="-4.485140">
        <ele>777.2</ele>
        <time>2020-08-24T06:52:44Z</time>
        <sat>10</sat>
      </trkpt>
      <trkpt lat="42.288193" lon="-4.485223">
        <ele>777.1</ele>
        <time>2020-08-24T06:52:52Z</time>
        <sat>10</sat>
      </trkpt>
      <trkpt lat="42.288252" lon="-4.485312">
        <ele>777.1</ele>
        <time>2020-08-24T06:52:59Z</time>
        <sat>10</sat>
      </trkpt>
      <trkpt lat="42.288314" lon="-4.485396">
        <ele>777.2</ele>
        <time>2020-08-24T06:53:06Z</time>
        <sat>10</sat>
      </trkpt>
      <trkpt lat="42.288378" lon="-4.485486">
        <ele>777.2</ele>
        <time>2020-08-24T06:53:13Z</time>
        <sat>10</sat>
      </trkpt>
      <trkpt lat="42.288437" lon="-4.485577">
        <ele>777.2</ele>
        <time>2020-08-24T06:53:20Z</time>
        <sat>10</sat>
      </trkpt>
      <trkpt lat="42.288497" lon="-4.485668">
        <ele>777.1</ele>
        <time>2020-08-24T06:53:27Z</time>
        <sat>9</sat>
      </trkpt>
      <trkpt lat="42.288557" lon="-4.485759">
        <ele>777.1</ele>
        <time>2020-08-24T06:53:34Z</time>
        <sat>10</sat>
      </trkpt>
      <trkpt lat="42.288619" lon="-4.485845">
        <ele>777.1</ele>
        <time>2020-08-24T06:53:41Z</time>
        <sat>10</sat>
      </trkpt>
      <trkpt lat="42.288684" lon="-4.485938">
        <ele>777.1</ele>
        <time>2020-08-24T06:53:48Z</time>
        <sat>10</sat>
      </trkpt>
      <trkpt lat="42.288747" lon="-4.486029">
        <ele>777.2</ele>
        <time>2020-08-24T06:53:55Z</time>
        <sat>9</sat>
      </trkpt>
      <trkpt lat="42.288809" lon="-4.486118">
        <ele>777.3</ele>
        <time>2020-08-24T06:54:02Z</time>
        <sat>10</sat>
      </trkpt>
      <trkpt lat="42.288865" lon="-4.486209">
        <ele>777.3</ele>
        <time>2020-08-24T06:54:09Z</time>
        <sat>10</sat>
      </trkpt>
      <trkpt lat="42.288928" lon="-4.486294">
        <ele>777.2</ele>
        <time>2020-08-24T06:54:16Z</time>
        <sat>10</sat>
      </trkpt>
      <trkpt lat="42.288986" lon="-4.486385">
        <ele>777.3</ele>
        <time>2020-08-24T06:54:23Z</time>
        <sat>10</sat>
      </trkpt>
      <trkpt lat="42.289053" lon="-4.486466">
        <ele>777.5</ele>
        <time>2020-08-24T06:54:30Z</time>
        <sat>9</sat>
      </trkpt>
      <trkpt lat="42.289111" lon="-4.486559">
        <ele>777.7</ele>
        <time>2020-08-24T06:54:37Z</time>
        <sat>10</sat>
      </trkpt>
      <trkpt lat="42.289171" lon="-4.486650">
        <ele>777.8</ele>
        <time>2020-08-24T06:54:44Z</time>
        <sat>9</sat>
      </trkpt>
      <trkpt lat="42.289235" lon="-4.486739">
        <ele>777.8</ele>
        <time>2020-08-24T06:54:51Z</time>
        <sat>9</sat>
      </trkpt>
      <trkpt lat="42.289299" lon="-4.486825">
        <ele>777.7</ele>
        <time>2020-08-24T06:54:59Z</time>
        <sat>9</sat>
      </trkpt>
      <trkpt lat="42.289348" lon="-4.486913">
        <ele>777.6</ele>
        <time>2020-08-24T06:55:06Z</time>
        <sat>10</sat>
      </trkpt>
      <trkpt lat="42.289414" lon="-4.486979">
        <ele>777.6</ele>
        <time>2020-08-24T06:55:12Z</time>
        <sat>10</sat>
      </trkpt>
      <trkpt lat="42.289465" lon="-4.487065">
        <ele>777.6</ele>
        <time>2020-08-24T06:55:18Z</time>
        <sat>10</sat>
      </trkpt>
      <trkpt lat="42.289518" lon="-4.487152">
        <ele>777.7</ele>
        <time>2020-08-24T06:55:24Z</time>
        <sat>10</sat>
      </trkpt>
      <trkpt lat="42.289580" lon="-4.487234">
        <ele>777.9</ele>
        <time>2020-08-24T06:55:30Z</time>
        <sat>10</sat>
      </trkpt>
      <trkpt lat="42.289623" lon="-4.487333">
        <ele>778.7</ele>
        <time>2020-08-24T06:55:54Z</time>
        <sat>10</sat>
      </trkpt>
      <trkpt lat="42.289680" lon="-4.487411">
        <ele>778.8</ele>
        <time>2020-08-24T06:55:59Z</time>
        <sat>10</sat>
      </trkpt>
      <trkpt lat="42.289743" lon="-4.487495">
        <ele>778.7</ele>
        <time>2020-08-24T06:56:06Z</time>
        <sat>9</sat>
      </trkpt>
      <trkpt lat="42.289805" lon="-4.487583">
        <ele>778.7</ele>
        <time>2020-08-24T06:56:12Z</time>
        <sat>10</sat>
      </trkpt>
      <trkpt lat="42.289870" lon="-4.487674">
        <ele>778.6</ele>
        <time>2020-08-24T06:56:18Z</time>
        <sat>10</sat>
      </trkpt>
      <trkpt lat="42.289932" lon="-4.487772">
        <ele>778.6</ele>
        <time>2020-08-24T06:56:24Z</time>
        <sat>10</sat>
      </trkpt>
      <trkpt lat="42.289986" lon="-4.487858">
        <ele>778.7</ele>
        <time>2020-08-24T06:56:31Z</time>
        <sat>10</sat>
      </trkpt>
      <trkpt lat="42.290045" lon="-4.487948">
        <ele>778.8</ele>
        <time>2020-08-24T06:56:37Z</time>
        <sat>9</sat>
      </trkpt>
      <trkpt lat="42.290109" lon="-4.488040">
        <ele>778.8</ele>
        <time>2020-08-24T06:56:43Z</time>
        <sat>10</sat>
      </trkpt>
      <trkpt lat="42.290170" lon="-4.488114">
        <ele>778.9</ele>
        <time>2020-08-24T06:56:48Z</time>
        <sat>10</sat>
      </trkpt>
      <trkpt lat="42.290240" lon="-4.488199">
        <ele>779.0</ele>
        <time>2020-08-24T06:56:54Z</time>
        <sat>9</sat>
      </trkpt>
      <trkpt lat="42.290304" lon="-4.488289">
        <ele>779.0</ele>
        <time>2020-08-24T06:57:01Z</time>
        <sat>10</sat>
      </trkpt>
      <trkpt lat="42.290358" lon="-4.488372">
        <ele>779.0</ele>
        <time>2020-08-24T06:57:07Z</time>
        <sat>10</sat>
      </trkpt>
      <trkpt lat="42.290419" lon="-4.488445">
        <ele>779.1</ele>
        <time>2020-08-24T06:57:13Z</time>
        <sat>10</sat>
      </trkpt>
      <trkpt lat="42.290483" lon="-4.488536">
        <ele>779.2</ele>
        <time>2020-08-24T06:57:20Z</time>
        <sat>10</sat>
      </trkpt>
      <trkpt lat="42.290549" lon="-4.488610">
        <ele>779.3</ele>
        <time>2020-08-24T06:57:26Z</time>
        <sat>10</sat>
      </trkpt>
      <trkpt lat="42.290602" lon="-4.488694">
        <ele>779.4</ele>
        <time>2020-08-24T06:57:32Z</time>
        <sat>10</sat>
      </trkpt>
      <trkpt lat="42.290653" lon="-4.488782">
        <ele>779.4</ele>
        <time>2020-08-24T06:57:38Z</time>
        <sat>10</sat>
      </trkpt>
      <trkpt lat="42.290712" lon="-4.488865">
        <ele>779.4</ele>
        <time>2020-08-24T06:57:44Z</time>
        <sat>10</sat>
      </trkpt>
      <trkpt lat="42.290771" lon="-4.488954">
        <ele>779.4</ele>
        <time>2020-08-24T06:57:51Z</time>
        <sat>9</sat>
      </trkpt>
      <trkpt lat="42.290833" lon="-4.489037">
        <ele>779.5</ele>
        <time>2020-08-24T06:57:58Z</time>
        <sat>10</sat>
      </trkpt>
      <trkpt lat="42.290894" lon="-4.489125">
        <ele>779.6</ele>
        <time>2020-08-24T06:58:04Z</time>
        <sat>9</sat>
      </trkpt>
      <trkpt lat="42.290956" lon="-4.489210">
        <ele>779.6</ele>
        <time>2020-08-24T06:58:10Z</time>
        <sat>10</sat>
      </trkpt>
      <trkpt lat="42.291012" lon="-4.489299">
        <ele>779.6</ele>
        <time>2020-08-24T06:58:16Z</time>
        <sat>10</sat>
      </trkpt>
      <trkpt lat="42.291070" lon="-4.489390">
        <ele>779.6</ele>
        <time>2020-08-24T06:58:22Z</time>
        <sat>10</sat>
      </trkpt>
      <trkpt lat="42.291113" lon="-4.489485">
        <ele>779.6</ele>
        <time>2020-08-24T06:58:28Z</time>
        <sat>10</sat>
      </trkpt>
      <trkpt lat="42.291171" lon="-4.489569">
        <ele>779.7</ele>
        <time>2020-08-24T06:58:47Z</time>
        <sat>10</sat>
      </trkpt>
      <trkpt lat="42.291231" lon="-4.489647">
        <ele>779.9</ele>
        <time>2020-08-24T06:59:06Z</time>
        <sat>10</sat>
      </trkpt>
      <trkpt lat="42.291295" lon="-4.489735">
        <ele>779.9</ele>
        <time>2020-08-24T06:59:13Z</time>
        <sat>10</sat>
      </trkpt>
      <trkpt lat="42.291352" lon="-4.489825">
        <ele>779.9</ele>
        <time>2020-08-24T06:59:20Z</time>
        <sat>10</sat>
      </trkpt>
      <trkpt lat="42.291410" lon="-4.489926">
        <ele>779.9</ele>
        <time>2020-08-24T06:59:27Z</time>
        <sat>10</sat>
      </trkpt>
      <trkpt lat="42.291473" lon="-4.490007">
        <ele>780.0</ele>
        <time>2020-08-24T06:59:34Z</time>
        <sat>10</sat>
      </trkpt>
      <trkpt lat="42.291523" lon="-4.490094">
        <ele>779.9</ele>
        <time>2020-08-24T06:59:40Z</time>
        <sat>10</sat>
      </trkpt>
      <trkpt lat="42.291583" lon="-4.490185">
        <ele>779.9</ele>
        <time>2020-08-24T06:59:47Z</time>
        <sat>10</sat>
      </trkpt>
      <trkpt lat="42.291641" lon="-4.490274">
        <ele>779.9</ele>
        <time>2020-08-24T06:59:54Z</time>
        <sat>10</sat>
      </trkpt>
      <trkpt lat="42.291700" lon="-4.490364">
        <ele>779.8</ele>
        <time>2020-08-24T07:00:01Z</time>
        <sat>10</sat>
      </trkpt>
      <trkpt lat="42.291762" lon="-4.490454">
        <ele>779.7</ele>
        <time>2020-08-24T07:00:08Z</time>
        <sat>10</sat>
      </trkpt>
      <trkpt lat="42.291828" lon="-4.490543">
        <ele>779.6</ele>
        <time>2020-08-24T07:00:15Z</time>
        <sat>10</sat>
      </trkpt>
      <trkpt lat="42.291886" lon="-4.490638">
        <ele>779.7</ele>
        <time>2020-08-24T07:00:22Z</time>
        <sat>10</sat>
      </trkpt>
      <trkpt lat="42.291944" lon="-4.490717">
        <ele>779.6</ele>
        <time>2020-08-24T07:00:28Z</time>
        <sat>10</sat>
      </trkpt>
      <trkpt lat="42.292005" lon="-4.490810">
        <ele>779.5</ele>
        <time>2020-08-24T07:00:35Z</time>
        <sat>10</sat>
      </trkpt>
      <trkpt lat="42.292071" lon="-4.490897">
        <ele>779.4</ele>
        <time>2020-08-24T07:00:42Z</time>
        <sat>10</sat>
      </trkpt>
      <trkpt lat="42.292130" lon="-4.490976">
        <ele>779.5</ele>
        <time>2020-08-24T07:00:48Z</time>
        <sat>10</sat>
      </trkpt>
      <trkpt lat="42.292192" lon="-4.491065">
        <ele>779.5</ele>
        <time>2020-08-24T07:00:55Z</time>
        <sat>10</sat>
      </trkpt>
      <trkpt lat="42.292265" lon="-4.491144">
        <ele>779.6</ele>
        <time>2020-08-24T07:01:22Z</time>
        <sat>10</sat>
      </trkpt>
      <trkpt lat="42.292325" lon="-4.491238">
        <ele>779.7</ele>
        <time>2020-08-24T07:01:29Z</time>
        <sat>10</sat>
      </trkpt>
      <trkpt lat="42.292385" lon="-4.491317">
        <ele>779.8</ele>
        <time>2020-08-24T07:01:35Z</time>
        <sat>10</sat>
      </trkpt>
      <trkpt lat="42.292444" lon="-4.491410">
        <ele>779.9</ele>
        <time>2020-08-24T07:01:42Z</time>
        <sat>10</sat>
      </trkpt>
      <trkpt lat="42.292509" lon="-4.491499">
        <ele>779.8</ele>
        <time>2020-08-24T07:01:49Z</time>
        <sat>10</sat>
      </trkpt>
      <trkpt lat="42.292568" lon="-4.491594">
        <ele>779.8</ele>
        <time>2020-08-24T07:01:56Z</time>
        <sat>10</sat>
      </trkpt>
      <trkpt lat="42.292626" lon="-4.491687">
        <ele>779.8</ele>
        <time>2020-08-24T07:02:03Z</time>
        <sat>10</sat>
      </trkpt>
      <trkpt lat="42.292684" lon="-4.491779">
        <ele>779.9</ele>
        <time>2020-08-24T07:02:10Z</time>
        <sat>10</sat>
      </trkpt>
      <trkpt lat="42.292739" lon="-4.491866">
        <ele>779.9</ele>
        <time>2020-08-24T07:02:17Z</time>
        <sat>10</sat>
      </trkpt>
      <trkpt lat="42.292800" lon="-4.491954">
        <ele>779.7</ele>
        <time>2020-08-24T07:02:24Z</time>
        <sat>10</sat>
      </trkpt>
      <trkpt lat="42.292866" lon="-4.492044">
        <ele>779.6</ele>
        <time>2020-08-24T07:02:31Z</time>
        <sat>10</sat>
      </trkpt>
      <trkpt lat="42.292928" lon="-4.492134">
        <ele>779.5</ele>
        <time>2020-08-24T07:02:38Z</time>
        <sat>10</sat>
      </trkpt>
      <trkpt lat="42.292986" lon="-4.492222">
        <ele>779.6</ele>
        <time>2020-08-24T07:02:44Z</time>
        <sat>10</sat>
      </trkpt>
      <trkpt lat="42.293047" lon="-4.492316">
        <ele>779.6</ele>
        <time>2020-08-24T07:02:51Z</time>
        <sat>10</sat>
      </trkpt>
      <trkpt lat="42.293106" lon="-4.492393">
        <ele>779.7</ele>
        <time>2020-08-24T07:02:57Z</time>
        <sat>10</sat>
      </trkpt>
      <trkpt lat="42.293170" lon="-4.492484">
        <ele>779.8</ele>
        <time>2020-08-24T07:03:04Z</time>
        <sat>10</sat>
      </trkpt>
      <trkpt lat="42.293236" lon="-4.492563">
        <ele>779.8</ele>
        <time>2020-08-24T07:03:11Z</time>
        <sat>10</sat>
      </trkpt>
      <trkpt lat="42.293302" lon="-4.492654">
        <ele>779.9</ele>
        <time>2020-08-24T07:03:30Z</time>
        <sat>10</sat>
      </trkpt>
      <trkpt lat="42.293356" lon="-4.492740">
        <ele>780.0</ele>
        <time>2020-08-24T07:03:37Z</time>
        <sat>10</sat>
      </trkpt>
      <trkpt lat="42.293415" lon="-4.492818">
        <ele>779.6</ele>
        <time>2020-08-24T07:03:44Z</time>
        <sat>10</sat>
      </trkpt>
      <trkpt lat="42.293470" lon="-4.492909">
        <ele>779.9</ele>
        <time>2020-08-24T07:03:51Z</time>
        <sat>10</sat>
      </trkpt>
      <trkpt lat="42.293533" lon="-4.492981">
        <ele>780.1</ele>
        <time>2020-08-24T07:03:58Z</time>
        <sat>10</sat>
      </trkpt>
      <trkpt lat="42.293588" lon="-4.493062">
        <ele>780.6</ele>
        <time>2020-08-24T07:04:05Z</time>
        <sat>10</sat>
      </trkpt>
      <trkpt lat="42.293649" lon="-4.493146">
        <ele>780.2</ele>
        <time>2020-08-24T07:04:12Z</time>
        <sat>9</sat>
      </trkpt>
      <trkpt lat="42.293694" lon="-4.493243">
        <ele>780.2</ele>
        <time>2020-08-24T07:04:18Z</time>
        <sat>10</sat>
      </trkpt>
      <trkpt lat="42.293749" lon="-4.493328">
        <ele>780.2</ele>
        <time>2020-08-24T07:04:29Z</time>
        <sat>10</sat>
      </trkpt>
      <trkpt lat="42.293813" lon="-4.493419">
        <ele>780.1</ele>
        <time>2020-08-24T07:04:37Z</time>
        <sat>10</sat>
      </trkpt>
      <trkpt lat="42.293880" lon="-4.493504">
        <ele>779.9</ele>
        <time>2020-08-24T07:04:44Z</time>
        <sat>10</sat>
      </trkpt>
      <trkpt lat="42.293936" lon="-4.493597">
        <ele>779.8</ele>
        <time>2020-08-24T07:04:51Z</time>
        <sat>10</sat>
      </trkpt>
      <trkpt lat="42.293997" lon="-4.493684">
        <ele>779.9</ele>
        <time>2020-08-24T07:04:58Z</time>
        <sat>10</sat>
      </trkpt>
      <trkpt lat="42.294055" lon="-4.493773">
        <ele>780.0</ele>
        <time>2020-08-24T07:05:05Z</time>
        <sat>10</sat>
      </trkpt>
      <trkpt lat="42.294110" lon="-4.493859">
        <ele>779.8</ele>
        <time>2020-08-24T07:05:12Z</time>
        <sat>10</sat>
      </trkpt>
      <trkpt lat="42.294168" lon="-4.493947">
        <ele>780.2</ele>
        <time>2020-08-24T07:05:19Z</time>
        <sat>10</sat>
      </trkpt>
      <trkpt lat="42.294228" lon="-4.494039">
        <ele>780.2</ele>
        <time>2020-08-24T07:05:26Z</time>
        <sat>10</sat>
      </trkpt>
      <trkpt lat="42.294283" lon="-4.494131">
        <ele>780.3</ele>
        <time>2020-08-24T07:05:33Z</time>
        <sat>10</sat>
      </trkpt>
      <trkpt lat="42.294346" lon="-4.494219">
        <ele>780.3</ele>
        <time>2020-08-24T07:05:41Z</time>
        <sat>10</sat>
      </trkpt>
      <trkpt lat="42.294405" lon="-4.494306">
        <ele>780.4</ele>
        <time>2020-08-24T07:05:48Z</time>
        <sat>10</sat>
      </trkpt>
      <trkpt lat="42.294462" lon="-4.494387">
        <ele>780.5</ele>
        <time>2020-08-24T07:05:55Z</time>
        <sat>10</sat>
      </trkpt>
      <trkpt lat="42.294521" lon="-4.494473">
        <ele>780.4</ele>
        <time>2020-08-24T07:06:02Z</time>
        <sat>10</sat>
      </trkpt>
      <trkpt lat="42.294580" lon="-4.494552">
        <ele>780.7</ele>
        <time>2020-08-24T07:06:09Z</time>
        <sat>10</sat>
      </trkpt>
      <trkpt lat="42.294643" lon="-4.494642">
        <ele>781.1</ele>
        <time>2020-08-24T07:06:16Z</time>
        <sat>10</sat>
      </trkpt>
      <trkpt lat="42.294708" lon="-4.494724">
        <ele>781.0</ele>
        <time>2020-08-24T07:06:23Z</time>
        <sat>10</sat>
      </trkpt>
      <trkpt lat="42.294766" lon="-4.494808">
        <ele>781.2</ele>
        <time>2020-08-24T07:06:30Z</time>
        <sat>9</sat>
      </trkpt>
      <trkpt lat="42.294825" lon="-4.494885">
        <ele>781.1</ele>
        <time>2020-08-24T07:06:37Z</time>
        <sat>9</sat>
      </trkpt>
      <trkpt lat="42.294891" lon="-4.494968">
        <ele>781.7</ele>
        <time>2020-08-24T07:06:44Z</time>
        <sat>9</sat>
      </trkpt>
      <trkpt lat="42.294947" lon="-4.495058">
        <ele>780.0</ele>
        <time>2020-08-24T07:06:51Z</time>
        <sat>10</sat>
      </trkpt>
      <trkpt lat="42.295001" lon="-4.495142">
        <ele>780.1</ele>
        <time>2020-08-24T07:06:58Z</time>
        <sat>10</sat>
      </trkpt>
      <trkpt lat="42.295060" lon="-4.495228">
        <ele>782.7</ele>
        <time>2020-08-24T07:07:05Z</time>
        <sat>10</sat>
      </trkpt>
      <trkpt lat="42.295125" lon="-4.495316">
        <ele>783.0</ele>
        <time>2020-08-24T07:07:12Z</time>
        <sat>10</sat>
      </trkpt>
      <trkpt lat="42.295180" lon="-4.495406">
        <ele>782.5</ele>
        <time>2020-08-24T07:07:19Z</time>
        <sat>10</sat>
      </trkpt>
      <trkpt lat="42.295240" lon="-4.495486">
        <ele>782.2</ele>
        <time>2020-08-24T07:07:26Z</time>
        <sat>10</sat>
      </trkpt>
      <trkpt lat="42.295298" lon="-4.495563">
        <ele>782.2</ele>
        <time>2020-08-24T07:07:35Z</time>
        <sat>10</sat>
      </trkpt>
      <trkpt lat="42.295352" lon="-4.495652">
        <ele>782.2</ele>
        <time>2020-08-24T07:07:42Z</time>
        <sat>10</sat>
      </trkpt>
      <trkpt lat="42.295406" lon="-4.495736">
        <ele>782.2</ele>
        <time>2020-08-24T07:07:49Z</time>
        <sat>10</sat>
      </trkpt>
      <trkpt lat="42.295464" lon="-4.495820">
        <ele>782.2</ele>
        <time>2020-08-24T07:07:56Z</time>
        <sat>10</sat>
      </trkpt>
      <trkpt lat="42.295520" lon="-4.495908">
        <ele>782.2</ele>
        <time>2020-08-24T07:08:03Z</time>
        <sat>10</sat>
      </trkpt>
      <trkpt lat="42.295581" lon="-4.495990">
        <ele>782.2</ele>
        <time>2020-08-24T07:08:10Z</time>
        <sat>10</sat>
      </trkpt>
      <trkpt lat="42.295636" lon="-4.496084">
        <ele>782.3</ele>
        <time>2020-08-24T07:08:17Z</time>
        <sat>9</sat>
      </trkpt>
      <trkpt lat="42.295692" lon="-4.496171">
        <ele>782.4</ele>
        <time>2020-08-24T07:08:24Z</time>
        <sat>9</sat>
      </trkpt>
      <trkpt lat="42.295754" lon="-4.496256">
        <ele>782.5</ele>
        <time>2020-08-24T07:08:31Z</time>
        <sat>9</sat>
      </trkpt>
      <trkpt lat="42.295816" lon="-4.496344">
        <ele>782.5</ele>
        <time>2020-08-24T07:08:38Z</time>
        <sat>9</sat>
      </trkpt>
      <trkpt lat="42.295870" lon="-4.496431">
        <ele>782.5</ele>
        <time>2020-08-24T07:08:45Z</time>
        <sat>9</sat>
      </trkpt>
      <trkpt lat="42.295929" lon="-4.496506">
        <ele>782.5</ele>
        <time>2020-08-24T07:08:51Z</time>
        <sat>9</sat>
      </trkpt>
      <trkpt lat="42.295988" lon="-4.496597">
        <ele>782.4</ele>
        <time>2020-08-24T07:08:58Z</time>
        <sat>9</sat>
      </trkpt>
      <trkpt lat="42.296052" lon="-4.496681">
        <ele>782.4</ele>
        <time>2020-08-24T07:09:05Z</time>
        <sat>9</sat>
      </trkpt>
      <trkpt lat="42.296114" lon="-4.496775">
        <ele>782.4</ele>
        <time>2020-08-24T07:09:12Z</time>
        <sat>9</sat>
      </trkpt>
      <trkpt lat="42.296180" lon="-4.496862">
        <ele>782.4</ele>
        <time>2020-08-24T07:09:19Z</time>
        <sat>9</sat>
      </trkpt>
      <trkpt lat="42.296234" lon="-4.496943">
        <ele>782.3</ele>
        <time>2020-08-24T07:09:25Z</time>
        <sat>9</sat>
      </trkpt>
      <trkpt lat="42.296295" lon="-4.497020">
        <ele>782.3</ele>
        <time>2020-08-24T07:09:31Z</time>
        <sat>9</sat>
      </trkpt>
      <trkpt lat="42.296353" lon="-4.497114">
        <ele>782.3</ele>
        <time>2020-08-24T07:09:38Z</time>
        <sat>9</sat>
      </trkpt>
      <trkpt lat="42.296414" lon="-4.497188">
        <ele>782.3</ele>
        <time>2020-08-24T07:09:44Z</time>
        <sat>10</sat>
      </trkpt>
      <trkpt lat="42.296471" lon="-4.497283">
        <ele>782.3</ele>
        <time>2020-08-24T07:09:51Z</time>
        <sat>9</sat>
      </trkpt>
      <trkpt lat="42.296538" lon="-4.497371">
        <ele>782.3</ele>
        <time>2020-08-24T07:09:58Z</time>
        <sat>9</sat>
      </trkpt>
      <trkpt lat="42.296600" lon="-4.497466">
        <ele>782.2</ele>
        <time>2020-08-24T07:10:05Z</time>
        <sat>10</sat>
      </trkpt>
      <trkpt lat="42.296663" lon="-4.497557">
        <ele>782.1</ele>
        <time>2020-08-24T07:10:12Z</time>
        <sat>10</sat>
      </trkpt>
      <trkpt lat="42.296722" lon="-4.497650">
        <ele>782.1</ele>
        <time>2020-08-24T07:10:19Z</time>
        <sat>10</sat>
      </trkpt>
      <trkpt lat="42.296783" lon="-4.497742">
        <ele>782.2</ele>
        <time>2020-08-24T07:10:26Z</time>
        <sat>10</sat>
      </trkpt>
      <trkpt lat="42.296848" lon="-4.497834">
        <ele>782.3</ele>
        <time>2020-08-24T07:10:33Z</time>
        <sat>10</sat>
      </trkpt>
      <trkpt lat="42.296904" lon="-4.497926">
        <ele>782.2</ele>
        <time>2020-08-24T07:10:40Z</time>
        <sat>10</sat>
      </trkpt>
      <trkpt lat="42.296964" lon="-4.498010">
        <ele>782.1</ele>
        <time>2020-08-24T07:10:47Z</time>
        <sat>10</sat>
      </trkpt>
      <trkpt lat="42.297027" lon="-4.498093">
        <ele>782.2</ele>
        <time>2020-08-24T07:10:54Z</time>
        <sat>9</sat>
      </trkpt>
      <trkpt lat="42.297088" lon="-4.498183">
        <ele>782.3</ele>
        <time>2020-08-24T07:11:01Z</time>
        <sat>10</sat>
      </trkpt>
      <trkpt lat="42.297150" lon="-4.498271">
        <ele>782.3</ele>
        <time>2020-08-24T07:11:08Z</time>
        <sat>10</sat>
      </trkpt>
      <trkpt lat="42.297211" lon="-4.498359">
        <ele>782.3</ele>
        <time>2020-08-24T07:11:15Z</time>
        <sat>10</sat>
      </trkpt>
      <trkpt lat="42.297265" lon="-4.498451">
        <ele>782.3</ele>
        <time>2020-08-24T07:11:22Z</time>
        <sat>10</sat>
      </trkpt>
      <trkpt lat="42.297322" lon="-4.498543">
        <ele>782.3</ele>
        <time>2020-08-24T07:11:29Z</time>
        <sat>10</sat>
      </trkpt>
      <trkpt lat="42.297383" lon="-4.498635">
        <ele>782.3</ele>
        <time>2020-08-24T07:11:36Z</time>
        <sat>10</sat>
      </trkpt>
      <trkpt lat="42.297437" lon="-4.498728">
        <ele>782.4</ele>
        <time>2020-08-24T07:11:43Z</time>
        <sat>10</sat>
      </trkpt>
      <trkpt lat="42.297495" lon="-4.498817">
        <ele>782.6</ele>
        <time>2020-08-24T07:11:50Z</time>
        <sat>10</sat>
      </trkpt>
      <trkpt lat="42.297552" lon="-4.498906">
        <ele>782.6</ele>
        <time>2020-08-24T07:11:59Z</time>
        <sat>10</sat>
      </trkpt>
      <trkpt lat="42.297609" lon="-4.498999">
        <ele>782.3</ele>
        <time>2020-08-24T07:12:22Z</time>
        <sat>9</sat>
      </trkpt>
      <trkpt lat="42.297667" lon="-4.499091">
        <ele>782.5</ele>
        <time>2020-08-24T07:12:29Z</time>
        <sat>9</sat>
      </trkpt>
      <trkpt lat="42.297652" lon="-4.499211">
        <ele>782.6</ele>
        <time>2020-08-24T07:12:51Z</time>
        <sat>9</sat>
      </trkpt>
      <trkpt lat="42.297586" lon="-4.499277">
        <ele>782.8</ele>
        <time>2020-08-24T07:13:02Z</time>
        <sat>8</sat>
      </trkpt>
      <trkpt lat="42.297661" lon="-4.499233">
        <ele>782.4</ele>
        <time>2020-08-24T07:13:51Z</time>
        <sat>8</sat>
      </trkpt>
      <trkpt lat="42.297743" lon="-4.499249">
        <ele>782.5</ele>
        <time>2020-08-24T07:15:05Z</time>
        <sat>9</sat>
      </trkpt>
      <trkpt lat="42.297753" lon="-4.499317">
        <ele>783.6</ele>
        <time>2020-08-24T07:21:22Z</time>
        <sat>7</sat>
      </trkpt>
      <trkpt lat="42.297801" lon="-4.499480">
        <ele>784.5</ele>
        <time>2020-08-24T07:25:00Z</time>
        <sat>9</sat>
      </trkpt>
      <trkpt lat="42.297875" lon="-4.499547">
        <ele>784.3</ele>
        <time>2020-08-24T07:25:15Z</time>
        <sat>7</sat>
      </trkpt>
      <trkpt lat="42.297948" lon="-4.499619">
        <ele>784.2</ele>
        <time>2020-08-24T07:25:21Z</time>
        <sat>9</sat>
      </trkpt>
      <trkpt lat="42.298005" lon="-4.499711">
        <ele>784.1</ele>
        <time>2020-08-24T07:25:27Z</time>
        <sat>8</sat>
      </trkpt>
      <trkpt lat="42.298064" lon="-4.499792">
        <ele>784.2</ele>
        <time>2020-08-24T07:25:33Z</time>
        <sat>9</sat>
      </trkpt>
      <trkpt lat="42.298119" lon="-4.499888">
        <ele>784.3</ele>
        <time>2020-08-24T07:25:40Z</time>
        <sat>9</sat>
      </trkpt>
      <trkpt lat="42.298170" lon="-4.499974">
        <ele>784.3</ele>
        <time>2020-08-24T07:25:46Z</time>
        <sat>9</sat>
      </trkpt>
      <trkpt lat="42.298220" lon="-4.500067">
        <ele>784.2</ele>
        <time>2020-08-24T07:25:53Z</time>
        <sat>9</sat>
      </trkpt>
      <trkpt lat="42.298269" lon="-4.500168">
        <ele>783.9</ele>
        <time>2020-08-24T07:26:00Z</time>
        <sat>9</sat>
      </trkpt>
      <trkpt lat="42.298330" lon="-4.500258">
        <ele>783.5</ele>
        <time>2020-08-24T07:26:08Z</time>
        <sat>9</sat>
      </trkpt>
      <trkpt lat="42.298379" lon="-4.500361">
        <ele>783.9</ele>
        <time>2020-08-24T07:26:15Z</time>
        <sat>9</sat>
      </trkpt>
      <trkpt lat="42.298437" lon="-4.500459">
        <ele>783.6</ele>
        <time>2020-08-24T07:26:22Z</time>
        <sat>8</sat>
      </trkpt>
      <trkpt lat="42.298481" lon="-4.500570">
        <ele>783.2</ele>
        <time>2020-08-24T07:26:30Z</time>
        <sat>8</sat>
      </trkpt>
      <trkpt lat="42.298530" lon="-4.500666">
        <ele>783.1</ele>
        <time>2020-08-24T07:26:37Z</time>
        <sat>9</sat>
      </trkpt>
      <trkpt lat="42.298569" lon="-4.500774">
        <ele>783.1</ele>
        <time>2020-08-24T07:26:44Z</time>
        <sat>9</sat>
      </trkpt>
      <trkpt lat="42.298623" lon="-4.500874">
        <ele>783.3</ele>
        <time>2020-08-24T07:26:51Z</time>
        <sat>9</sat>
      </trkpt>
      <trkpt lat="42.298675" lon="-4.500978">
        <ele>783.5</ele>
        <time>2020-08-24T07:26:58Z</time>
        <sat>9</sat>
      </trkpt>
      <trkpt lat="42.298722" lon="-4.501079">
        <ele>783.7</ele>
        <time>2020-08-24T07:27:05Z</time>
        <sat>9</sat>
      </trkpt>
      <trkpt lat="42.298788" lon="-4.501160">
        <ele>783.9</ele>
        <time>2020-08-24T07:27:12Z</time>
        <sat>9</sat>
      </trkpt>
      <trkpt lat="42.298844" lon="-4.501242">
        <ele>783.9</ele>
        <time>2020-08-24T07:27:18Z</time>
        <sat>9</sat>
      </trkpt>
      <trkpt lat="42.298902" lon="-4.501340">
        <ele>783.9</ele>
        <time>2020-08-24T07:27:33Z</time>
        <sat>9</sat>
      </trkpt>
      <trkpt lat="42.298966" lon="-4.501438">
        <ele>783.9</ele>
        <time>2020-08-24T07:27:39Z</time>
        <sat>9</sat>
      </trkpt>
      <trkpt lat="42.299022" lon="-4.501537">
        <ele>783.9</ele>
        <time>2020-08-24T07:27:45Z</time>
        <sat>9</sat>
      </trkpt>
      <trkpt lat="42.299067" lon="-4.501638">
        <ele>784.0</ele>
        <time>2020-08-24T07:27:51Z</time>
        <sat>9</sat>
      </trkpt>
      <trkpt lat="42.299114" lon="-4.501747">
        <ele>784.1</ele>
        <time>2020-08-24T07:28:02Z</time>
        <sat>8</sat>
      </trkpt>
      <trkpt lat="42.299146" lon="-4.501848">
        <ele>784.0</ele>
        <time>2020-08-24T07:28:09Z</time>
        <sat>9</sat>
      </trkpt>
      <trkpt lat="42.299193" lon="-4.501952">
        <ele>784.1</ele>
        <time>2020-08-24T07:28:16Z</time>
        <sat>9</sat>
      </trkpt>
      <trkpt lat="42.299241" lon="-4.502063">
        <ele>784.1</ele>
        <time>2020-08-24T07:28:23Z</time>
        <sat>8</sat>
      </trkpt>
      <trkpt lat="42.299286" lon="-4.502169">
        <ele>784.2</ele>
        <time>2020-08-24T07:28:30Z</time>
        <sat>9</sat>
      </trkpt>
      <trkpt lat="42.299329" lon="-4.502279">
        <ele>784.2</ele>
        <time>2020-08-24T07:28:37Z</time>
        <sat>9</sat>
      </trkpt>
      <trkpt lat="42.299377" lon="-4.502382">
        <ele>784.1</ele>
        <time>2020-08-24T07:28:44Z</time>
        <sat>9</sat>
      </trkpt>
      <trkpt lat="42.299426" lon="-4.502485">
        <ele>784.1</ele>
        <time>2020-08-24T07:28:51Z</time>
        <sat>9</sat>
      </trkpt>
      <trkpt lat="42.299469" lon="-4.502596">
        <ele>784.1</ele>
        <time>2020-08-24T07:28:58Z</time>
        <sat>9</sat>
      </trkpt>
      <trkpt lat="42.299520" lon="-4.502702">
        <ele>784.2</ele>
        <time>2020-08-24T07:29:05Z</time>
        <sat>9</sat>
      </trkpt>
      <trkpt lat="42.299565" lon="-4.502811">
        <ele>784.2</ele>
        <time>2020-08-24T07:29:12Z</time>
        <sat>9</sat>
      </trkpt>
      <trkpt lat="42.299600" lon="-4.502914">
        <ele>784.2</ele>
        <time>2020-08-24T07:29:18Z</time>
        <sat>9</sat>
      </trkpt>
      <trkpt lat="42.299650" lon="-4.503012">
        <ele>784.2</ele>
        <time>2020-08-24T07:29:24Z</time>
        <sat>9</sat>
      </trkpt>
      <trkpt lat="42.299682" lon="-4.503113">
        <ele>784.2</ele>
        <time>2020-08-24T07:29:30Z</time>
        <sat>9</sat>
      </trkpt>
      <trkpt lat="42.299725" lon="-4.503218">
        <ele>784.1</ele>
        <time>2020-08-24T07:29:37Z</time>
        <sat>9</sat>
      </trkpt>
      <trkpt lat="42.299764" lon="-4.503315">
        <ele>784.1</ele>
        <time>2020-08-24T07:29:43Z</time>
        <sat>9</sat>
      </trkpt>
      <trkpt lat="42.299811" lon="-4.503422">
        <ele>784.0</ele>
        <time>2020-08-24T07:29:50Z</time>
        <sat>9</sat>
      </trkpt>
      <trkpt lat="42.299850" lon="-4.503522">
        <ele>783.9</ele>
        <time>2020-08-24T07:29:56Z</time>
        <sat>9</sat>
      </trkpt>
      <trkpt lat="42.299898" lon="-4.503617">
        <ele>783.8</ele>
        <time>2020-08-24T07:30:02Z</time>
        <sat>9</sat>
      </trkpt>
      <trkpt lat="42.299944" lon="-4.503723">
        <ele>783.8</ele>
        <time>2020-08-24T07:30:09Z</time>
        <sat>9</sat>
      </trkpt>
      <trkpt lat="42.299983" lon="-4.503820">
        <ele>783.8</ele>
        <time>2020-08-24T07:30:15Z</time>
        <sat>9</sat>
      </trkpt>
      <trkpt lat="42.300027" lon="-4.503915">
        <ele>783.8</ele>
        <time>2020-08-24T07:30:21Z</time>
        <sat>9</sat>
      </trkpt>
      <trkpt lat="42.300063" lon="-4.504013">
        <ele>783.7</ele>
        <time>2020-08-24T07:30:27Z</time>
        <sat>9</sat>
      </trkpt>
      <trkpt lat="42.300101" lon="-4.504115">
        <ele>783.7</ele>
        <time>2020-08-24T07:30:33Z</time>
        <sat>9</sat>
      </trkpt>
      <trkpt lat="42.300145" lon="-4.504207">
        <ele>783.5</ele>
        <time>2020-08-24T07:30:39Z</time>
        <sat>9</sat>
      </trkpt>
      <trkpt lat="42.300178" lon="-4.504307">
        <ele>783.5</ele>
        <time>2020-08-24T07:30:45Z</time>
        <sat>9</sat>
      </trkpt>
      <trkpt lat="42.300224" lon="-4.504401">
        <ele>783.5</ele>
        <time>2020-08-24T07:30:51Z</time>
        <sat>9</sat>
      </trkpt>
      <trkpt lat="42.300270" lon="-4.504509">
        <ele>783.5</ele>
        <time>2020-08-24T07:30:58Z</time>
        <sat>9</sat>
      </trkpt>
      <trkpt lat="42.300310" lon="-4.504605">
        <ele>783.3</ele>
        <time>2020-08-24T07:31:04Z</time>
        <sat>9</sat>
      </trkpt>
      <trkpt lat="42.300354" lon="-4.504698">
        <ele>783.2</ele>
        <time>2020-08-24T07:31:10Z</time>
        <sat>8</sat>
      </trkpt>
      <trkpt lat="42.300392" lon="-4.504797">
        <ele>783.1</ele>
        <time>2020-08-24T07:31:16Z</time>
        <sat>9</sat>
      </trkpt>
      <trkpt lat="42.300434" lon="-4.504894">
        <ele>783.1</ele>
        <time>2020-08-24T07:31:22Z</time>
        <sat>8</sat>
      </trkpt>
      <trkpt lat="42.300480" lon="-4.505005">
        <ele>783.1</ele>
        <time>2020-08-24T07:31:29Z</time>
        <sat>9</sat>
      </trkpt>
      <trkpt lat="42.300524" lon="-4.505098">
        <ele>783.1</ele>
        <time>2020-08-24T07:31:35Z</time>
        <sat>9</sat>
      </trkpt>
      <trkpt lat="42.300565" lon="-4.505214">
        <ele>783.2</ele>
        <time>2020-08-24T07:31:42Z</time>
        <sat>8</sat>
      </trkpt>
      <trkpt lat="42.300611" lon="-4.505313">
        <ele>783.1</ele>
        <time>2020-08-24T07:31:48Z</time>
        <sat>9</sat>
      </trkpt>
      <trkpt lat="42.300654" lon="-4.505407">
        <ele>783.1</ele>
        <time>2020-08-24T07:31:54Z</time>
        <sat>9</sat>
      </trkpt>
      <trkpt lat="42.300694" lon="-4.505503">
        <ele>783.0</ele>
        <time>2020-08-24T07:32:00Z</time>
        <sat>9</sat>
      </trkpt>
      <trkpt lat="42.300744" lon="-4.505610">
        <ele>783.0</ele>
        <time>2020-08-24T07:32:07Z</time>
        <sat>9</sat>
      </trkpt>
      <trkpt lat="42.300787" lon="-4.505725">
        <ele>783.0</ele>
        <time>2020-08-24T07:32:14Z</time>
        <sat>9</sat>
      </trkpt>
      <trkpt lat="42.300830" lon="-4.505825">
        <ele>783.2</ele>
        <time>2020-08-24T07:32:20Z</time>
        <sat>9</sat>
      </trkpt>
      <trkpt lat="42.300873" lon="-4.505937">
        <ele>783.3</ele>
        <time>2020-08-24T07:32:27Z</time>
        <sat>9</sat>
      </trkpt>
      <trkpt lat="42.300918" lon="-4.506034">
        <ele>783.3</ele>
        <time>2020-08-24T07:32:33Z</time>
        <sat>9</sat>
      </trkpt>
      <trkpt lat="42.300961" lon="-4.506140">
        <ele>783.3</ele>
        <time>2020-08-24T07:32:40Z</time>
        <sat>9</sat>
      </trkpt>
      <trkpt lat="42.301011" lon="-4.506244">
        <ele>783.2</ele>
        <time>2020-08-24T07:32:47Z</time>
        <sat>9</sat>
      </trkpt>
      <trkpt lat="42.301048" lon="-4.506352">
        <ele>783.3</ele>
        <time>2020-08-24T07:32:54Z</time>
        <sat>9</sat>
      </trkpt>
      <trkpt lat="42.301097" lon="-4.506460">
        <ele>783.3</ele>
        <time>2020-08-24T07:33:01Z</time>
        <sat>9</sat>
      </trkpt>
      <trkpt lat="42.301142" lon="-4.506563">
        <ele>783.3</ele>
        <time>2020-08-24T07:33:08Z</time>
        <sat>9</sat>
      </trkpt>
      <trkpt lat="42.301182" lon="-4.506667">
        <ele>783.1</ele>
        <time>2020-08-24T07:33:15Z</time>
        <sat>9</sat>
      </trkpt>
      <trkpt lat="42.301230" lon="-4.506775">
        <ele>783.0</ele>
        <time>2020-08-24T07:33:22Z</time>
        <sat>9</sat>
      </trkpt>
      <trkpt lat="42.301274" lon="-4.506889">
        <ele>783.0</ele>
        <time>2020-08-24T07:33:29Z</time>
        <sat>8</sat>
      </trkpt>
      <trkpt lat="42.301324" lon="-4.506995">
        <ele>783.1</ele>
        <time>2020-08-24T07:33:36Z</time>
        <sat>8</sat>
      </trkpt>
      <trkpt lat="42.301367" lon="-4.507104">
        <ele>783.3</ele>
        <time>2020-08-24T07:33:43Z</time>
        <sat>9</sat>
      </trkpt>
      <trkpt lat="42.301416" lon="-4.507213">
        <ele>783.3</ele>
        <time>2020-08-24T07:33:50Z</time>
        <sat>9</sat>
      </trkpt>
      <trkpt lat="42.301462" lon="-4.507326">
        <ele>783.4</ele>
        <time>2020-08-24T07:33:57Z</time>
        <sat>9</sat>
      </trkpt>
      <trkpt lat="42.301508" lon="-4.507435">
        <ele>783.4</ele>
        <time>2020-08-24T07:34:04Z</time>
        <sat>9</sat>
      </trkpt>
      <trkpt lat="42.301552" lon="-4.507539">
        <ele>783.4</ele>
        <time>2020-08-24T07:34:11Z</time>
        <sat>9</sat>
      </trkpt>
      <trkpt lat="42.301595" lon="-4.507650">
        <ele>783.3</ele>
        <time>2020-08-24T07:34:18Z</time>
        <sat>9</sat>
      </trkpt>
      <trkpt lat="42.301642" lon="-4.507757">
        <ele>783.3</ele>
        <time>2020-08-24T07:34:25Z</time>
        <sat>9</sat>
      </trkpt>
      <trkpt lat="42.301681" lon="-4.507854">
        <ele>783.3</ele>
        <time>2020-08-24T07:34:31Z</time>
        <sat>9</sat>
      </trkpt>
      <trkpt lat="42.301728" lon="-4.507962">
        <ele>783.3</ele>
        <time>2020-08-24T07:34:38Z</time>
        <sat>9</sat>
      </trkpt>
      <trkpt lat="42.301771" lon="-4.508075">
        <ele>783.3</ele>
        <time>2020-08-24T07:34:45Z</time>
        <sat>9</sat>
      </trkpt>
      <trkpt lat="42.301814" lon="-4.508173">
        <ele>783.2</ele>
        <time>2020-08-24T07:34:51Z</time>
        <sat>9</sat>
      </trkpt>
      <trkpt lat="42.301858" lon="-4.508287">
        <ele>783.2</ele>
        <time>2020-08-24T07:34:58Z</time>
        <sat>9</sat>
      </trkpt>
      <trkpt lat="42.301899" lon="-4.508387">
        <ele>783.2</ele>
        <time>2020-08-24T07:35:04Z</time>
        <sat>9</sat>
      </trkpt>
      <trkpt lat="42.301943" lon="-4.508482">
        <ele>783.2</ele>
        <time>2020-08-24T07:35:10Z</time>
        <sat>10</sat>
      </trkpt>
      <trkpt lat="42.301977" lon="-4.508584">
        <ele>783.2</ele>
        <time>2020-08-24T07:35:16Z</time>
        <sat>10</sat>
      </trkpt>
      <trkpt lat="42.302025" lon="-4.508694">
        <ele>783.2</ele>
        <time>2020-08-24T07:35:23Z</time>
        <sat>10</sat>
      </trkpt>
      <trkpt lat="42.302073" lon="-4.508792">
        <ele>783.2</ele>
        <time>2020-08-24T07:35:29Z</time>
        <sat>10</sat>
      </trkpt>
      <trkpt lat="42.302116" lon="-4.508903">
        <ele>783.3</ele>
        <time>2020-08-24T07:35:36Z</time>
        <sat>9</sat>
      </trkpt>
      <trkpt lat="42.302164" lon="-4.509008">
        <ele>783.5</ele>
        <time>2020-08-24T07:35:43Z</time>
        <sat>10</sat>
      </trkpt>
      <trkpt lat="42.302205" lon="-4.509106">
        <ele>783.6</ele>
        <time>2020-08-24T07:35:49Z</time>
        <sat>10</sat>
      </trkpt>
      <trkpt lat="42.302245" lon="-4.509209">
        <ele>783.8</ele>
        <time>2020-08-24T07:35:55Z</time>
        <sat>10</sat>
      </trkpt>
      <trkpt lat="42.302288" lon="-4.509306">
        <ele>783.7</ele>
        <time>2020-08-24T07:36:01Z</time>
        <sat>10</sat>
      </trkpt>
      <trkpt lat="42.302325" lon="-4.509409">
        <ele>783.7</ele>
        <time>2020-08-24T07:36:07Z</time>
        <sat>10</sat>
      </trkpt>
      <trkpt lat="42.302367" lon="-4.509508">
        <ele>783.7</ele>
        <time>2020-08-24T07:36:13Z</time>
        <sat>10</sat>
      </trkpt>
      <trkpt lat="42.302408" lon="-4.509604">
        <ele>783.8</ele>
        <time>2020-08-24T07:36:19Z</time>
        <sat>10</sat>
      </trkpt>
      <trkpt lat="42.302448" lon="-4.509703">
        <ele>783.9</ele>
        <time>2020-08-24T07:36:25Z</time>
        <sat>10</sat>
      </trkpt>
      <trkpt lat="42.302493" lon="-4.509806">
        <ele>783.9</ele>
        <time>2020-08-24T07:36:31Z</time>
        <sat>10</sat>
      </trkpt>
      <trkpt lat="42.302537" lon="-4.509917">
        <ele>783.8</ele>
        <time>2020-08-24T07:36:38Z</time>
        <sat>10</sat>
      </trkpt>
      <trkpt lat="42.302575" lon="-4.510017">
        <ele>783.8</ele>
        <time>2020-08-24T07:36:44Z</time>
        <sat>10</sat>
      </trkpt>
      <trkpt lat="42.302620" lon="-4.510109">
        <ele>783.8</ele>
        <time>2020-08-24T07:36:50Z</time>
        <sat>10</sat>
      </trkpt>
      <trkpt lat="42.302657" lon="-4.510212">
        <ele>783.9</ele>
        <time>2020-08-24T07:36:56Z</time>
        <sat>10</sat>
      </trkpt>
      <trkpt lat="42.302700" lon="-4.510316">
        <ele>783.9</ele>
        <time>2020-08-24T07:37:02Z</time>
        <sat>9</sat>
      </trkpt>
      <trkpt lat="42.302746" lon="-4.510408">
        <ele>784.0</ele>
        <time>2020-08-24T07:37:08Z</time>
        <sat>10</sat>
      </trkpt>
      <trkpt lat="42.302785" lon="-4.510510">
        <ele>784.0</ele>
        <time>2020-08-24T07:37:14Z</time>
        <sat>10</sat>
      </trkpt>
      <trkpt lat="42.302833" lon="-4.510609">
        <ele>784.0</ele>
        <time>2020-08-24T07:37:20Z</time>
        <sat>8</sat>
      </trkpt>
      <trkpt lat="42.302878" lon="-4.510719">
        <ele>784.2</ele>
        <time>2020-08-24T07:37:27Z</time>
        <sat>10</sat>
      </trkpt>
      <trkpt lat="42.302924" lon="-4.510814">
        <ele>784.3</ele>
        <time>2020-08-24T07:37:33Z</time>
        <sat>10</sat>
      </trkpt>
      <trkpt lat="42.302963" lon="-4.510911">
        <ele>784.4</ele>
        <time>2020-08-24T07:37:39Z</time>
        <sat>10</sat>
      </trkpt>
      <trkpt lat="42.303005" lon="-4.511012">
        <ele>784.5</ele>
        <time>2020-08-24T07:37:45Z</time>
        <sat>10</sat>
      </trkpt>
      <trkpt lat="42.303050" lon="-4.511118">
        <ele>784.8</ele>
        <time>2020-08-24T07:37:52Z</time>
        <sat>9</sat>
      </trkpt>
      <trkpt lat="42.303099" lon="-4.511217">
        <ele>785.0</ele>
        <time>2020-08-24T07:37:58Z</time>
        <sat>10</sat>
      </trkpt>
      <trkpt lat="42.303132" lon="-4.511317">
        <ele>785.1</ele>
        <time>2020-08-24T07:38:04Z</time>
        <sat>10</sat>
      </trkpt>
      <trkpt lat="42.303175" lon="-4.511417">
        <ele>785.2</ele>
        <time>2020-08-24T07:38:10Z</time>
        <sat>10</sat>
      </trkpt>
      <trkpt lat="42.303219" lon="-4.511528">
        <ele>785.3</ele>
        <time>2020-08-24T07:38:17Z</time>
        <sat>10</sat>
      </trkpt>
      <trkpt lat="42.303265" lon="-4.511638">
        <ele>785.5</ele>
        <time>2020-08-24T07:38:24Z</time>
        <sat>9</sat>
      </trkpt>
      <trkpt lat="42.303309" lon="-4.511751">
        <ele>785.6</ele>
        <time>2020-08-24T07:38:31Z</time>
        <sat>10</sat>
      </trkpt>
      <trkpt lat="42.303353" lon="-4.511853">
        <ele>785.7</ele>
        <time>2020-08-24T07:38:37Z</time>
        <sat>9</sat>
      </trkpt>
      <trkpt lat="42.303393" lon="-4.511948">
        <ele>785.9</ele>
        <time>2020-08-24T07:38:43Z</time>
        <sat>9</sat>
      </trkpt>
      <trkpt lat="42.303432" lon="-4.512045">
        <ele>786.1</ele>
        <time>2020-08-24T07:38:49Z</time>
        <sat>10</sat>
      </trkpt>
      <trkpt lat="42.303473" lon="-4.512148">
        <ele>786.1</ele>
        <time>2020-08-24T07:38:55Z</time>
        <sat>10</sat>
      </trkpt>
      <trkpt lat="42.303523" lon="-4.512255">
        <ele>786.3</ele>
        <time>2020-08-24T07:39:02Z</time>
        <sat>10</sat>
      </trkpt>
      <trkpt lat="42.303561" lon="-4.512355">
        <ele>786.4</ele>
        <time>2020-08-24T07:39:08Z</time>
        <sat>10</sat>
      </trkpt>
      <trkpt lat="42.303610" lon="-4.512462">
        <ele>786.5</ele>
        <time>2020-08-24T07:39:15Z</time>
        <sat>9</sat>
      </trkpt>
      <trkpt lat="42.303653" lon="-4.512561">
        <ele>786.6</ele>
        <time>2020-08-24T07:39:21Z</time>
        <sat>9</sat>
      </trkpt>
      <trkpt lat="42.303702" lon="-4.512669">
        <ele>786.7</ele>
        <time>2020-08-24T07:39:28Z</time>
        <sat>9</sat>
      </trkpt>
      <trkpt lat="42.303747" lon="-4.512781">
        <ele>786.9</ele>
        <time>2020-08-24T07:39:35Z</time>
        <sat>10</sat>
      </trkpt>
      <trkpt lat="42.303796" lon="-4.512890">
        <ele>787.1</ele>
        <time>2020-08-24T07:39:42Z</time>
        <sat>9</sat>
      </trkpt>
      <trkpt lat="42.303834" lon="-4.512991">
        <ele>787.3</ele>
        <time>2020-08-24T07:39:48Z</time>
        <sat>9</sat>
      </trkpt>
      <trkpt lat="42.303877" lon="-4.513085">
        <ele>787.6</ele>
        <time>2020-08-24T07:39:54Z</time>
        <sat>9</sat>
      </trkpt>
      <trkpt lat="42.303914" lon="-4.513183">
        <ele>787.8</ele>
        <time>2020-08-24T07:40:00Z</time>
        <sat>9</sat>
      </trkpt>
      <trkpt lat="42.303960" lon="-4.513278">
        <ele>787.9</ele>
        <time>2020-08-24T07:40:06Z</time>
        <sat>9</sat>
      </trkpt>
      <trkpt lat="42.304002" lon="-4.513389">
        <ele>788.0</ele>
        <time>2020-08-24T07:40:13Z</time>
        <sat>9</sat>
      </trkpt>
      <trkpt lat="42.304046" lon="-4.513493">
        <ele>788.0</ele>
        <time>2020-08-24T07:40:19Z</time>
        <sat>9</sat>
      </trkpt>
      <trkpt lat="42.304087" lon="-4.513602">
        <ele>788.2</ele>
        <time>2020-08-24T07:40:26Z</time>
        <sat>9</sat>
      </trkpt>
      <trkpt lat="42.304132" lon="-4.513697">
        <ele>788.2</ele>
        <time>2020-08-24T07:40:32Z</time>
        <sat>9</sat>
      </trkpt>
      <trkpt lat="42.304175" lon="-4.513806">
        <ele>788.3</ele>
        <time>2020-08-24T07:40:39Z</time>
        <sat>9</sat>
      </trkpt>
      <trkpt lat="42.304218" lon="-4.513899">
        <ele>788.3</ele>
        <time>2020-08-24T07:40:45Z</time>
        <sat>9</sat>
      </trkpt>
      <trkpt lat="42.304261" lon="-4.514006">
        <ele>788.7</ele>
        <time>2020-08-24T07:40:52Z</time>
        <sat>9</sat>
      </trkpt>
      <trkpt lat="42.304303" lon="-4.514101">
        <ele>788.8</ele>
        <time>2020-08-24T07:40:58Z</time>
        <sat>9</sat>
      </trkpt>
      <trkpt lat="42.304347" lon="-4.514211">
        <ele>788.8</ele>
        <time>2020-08-24T07:41:05Z</time>
        <sat>9</sat>
      </trkpt>
      <trkpt lat="42.304389" lon="-4.514306">
        <ele>788.8</ele>
        <time>2020-08-24T07:41:11Z</time>
        <sat>9</sat>
      </trkpt>
      <trkpt lat="42.304436" lon="-4.514408">
        <ele>789.1</ele>
        <time>2020-08-24T07:41:18Z</time>
        <sat>9</sat>
      </trkpt>
      <trkpt lat="42.304478" lon="-4.514511">
        <ele>789.2</ele>
        <time>2020-08-24T07:41:25Z</time>
        <sat>9</sat>
      </trkpt>
      <trkpt lat="42.304519" lon="-4.514618">
        <ele>789.3</ele>
        <time>2020-08-24T07:41:32Z</time>
        <sat>9</sat>
      </trkpt>
      <trkpt lat="42.304568" lon="-4.514724">
        <ele>789.3</ele>
        <time>2020-08-24T07:41:39Z</time>
        <sat>9</sat>
      </trkpt>
      <trkpt lat="42.304613" lon="-4.514822">
        <ele>789.4</ele>
        <time>2020-08-24T07:41:45Z</time>
        <sat>9</sat>
      </trkpt>
      <trkpt lat="42.304658" lon="-4.514929">
        <ele>789.5</ele>
        <time>2020-08-24T07:41:52Z</time>
        <sat>9</sat>
      </trkpt>
      <trkpt lat="42.304706" lon="-4.515038">
        <ele>789.6</ele>
        <time>2020-08-24T07:41:59Z</time>
        <sat>9</sat>
      </trkpt>
      <trkpt lat="42.304751" lon="-4.515146">
        <ele>789.7</ele>
        <time>2020-08-24T07:42:06Z</time>
        <sat>9</sat>
      </trkpt>
      <trkpt lat="42.304791" lon="-4.515244">
        <ele>789.8</ele>
        <time>2020-08-24T07:42:12Z</time>
        <sat>9</sat>
      </trkpt>
      <trkpt lat="42.304835" lon="-4.515340">
        <ele>789.9</ele>
        <time>2020-08-24T07:42:18Z</time>
        <sat>9</sat>
      </trkpt>
      <trkpt lat="42.304868" lon="-4.515441">
        <ele>790.1</ele>
        <time>2020-08-24T07:42:24Z</time>
        <sat>8</sat>
      </trkpt>
      <trkpt lat="42.304918" lon="-4.515546">
        <ele>790.1</ele>
        <time>2020-08-24T07:42:31Z</time>
        <sat>9</sat>
      </trkpt>
      <trkpt lat="42.304963" lon="-4.515657">
        <ele>790.2</ele>
        <time>2020-08-24T07:42:38Z</time>
        <sat>9</sat>
      </trkpt>
      <trkpt lat="42.305012" lon="-4.515757">
        <ele>790.0</ele>
        <time>2020-08-24T07:42:44Z</time>
        <sat>9</sat>
      </trkpt>
      <trkpt lat="42.305053" lon="-4.515852">
        <ele>789.9</ele>
        <time>2020-08-24T07:42:50Z</time>
        <sat>9</sat>
      </trkpt>
      <trkpt lat="42.305094" lon="-4.515963">
        <ele>789.9</ele>
        <time>2020-08-24T07:42:57Z</time>
        <sat>8</sat>
      </trkpt>
      <trkpt lat="42.305138" lon="-4.516056">
        <ele>789.9</ele>
        <time>2020-08-24T07:43:03Z</time>
        <sat>9</sat>
      </trkpt>
      <trkpt lat="42.305189" lon="-4.516155">
        <ele>790.0</ele>
        <time>2020-08-24T07:43:11Z</time>
        <sat>9</sat>
      </trkpt>
      <trkpt lat="42.305231" lon="-4.516253">
        <ele>790.0</ele>
        <time>2020-08-24T07:43:17Z</time>
        <sat>9</sat>
      </trkpt>
      <trkpt lat="42.305265" lon="-4.516355">
        <ele>790.0</ele>
        <time>2020-08-24T07:43:23Z</time>
        <sat>9</sat>
      </trkpt>
      <trkpt lat="42.305308" lon="-4.516454">
        <ele>790.0</ele>
        <time>2020-08-24T07:43:29Z</time>
        <sat>9</sat>
      </trkpt>
      <trkpt lat="42.305353" lon="-4.516569">
        <ele>790.1</ele>
        <time>2020-08-24T07:43:36Z</time>
        <sat>9</sat>
      </trkpt>
      <trkpt lat="42.305396" lon="-4.516667">
        <ele>790.1</ele>
        <time>2020-08-24T07:43:42Z</time>
        <sat>9</sat>
      </trkpt>
      <trkpt lat="42.305444" lon="-4.516773">
        <ele>790.2</ele>
        <time>2020-08-24T07:43:49Z</time>
        <sat>9</sat>
      </trkpt>
      <trkpt lat="42.305485" lon="-4.516877">
        <ele>790.3</ele>
        <time>2020-08-24T07:43:55Z</time>
        <sat>9</sat>
      </trkpt>
      <trkpt lat="42.305532" lon="-4.516972">
        <ele>790.3</ele>
        <time>2020-08-24T07:44:01Z</time>
        <sat>9</sat>
      </trkpt>
      <trkpt lat="42.305573" lon="-4.517086">
        <ele>790.5</ele>
        <time>2020-08-24T07:44:08Z</time>
        <sat>9</sat>
      </trkpt>
      <trkpt lat="42.305614" lon="-4.517184">
        <ele>790.6</ele>
        <time>2020-08-24T07:44:14Z</time>
        <sat>9</sat>
      </trkpt>
      <trkpt lat="42.305660" lon="-4.517289">
        <ele>790.2</ele>
        <time>2020-08-24T07:44:21Z</time>
        <sat>9</sat>
      </trkpt>
      <trkpt lat="42.305695" lon="-4.517393">
        <ele>791.0</ele>
        <time>2020-08-24T07:44:27Z</time>
        <sat>9</sat>
      </trkpt>
      <trkpt lat="42.305742" lon="-4.517493">
        <ele>791.0</ele>
        <time>2020-08-24T07:44:33Z</time>
        <sat>9</sat>
      </trkpt>
      <trkpt lat="42.305781" lon="-4.517589">
        <ele>791.0</ele>
        <time>2020-08-24T07:44:39Z</time>
        <sat>9</sat>
      </trkpt>
      <trkpt lat="42.305821" lon="-4.517697">
        <ele>790.9</ele>
        <time>2020-08-24T07:44:45Z</time>
        <sat>9</sat>
      </trkpt>
      <trkpt lat="42.305866" lon="-4.517792">
        <ele>790.8</ele>
        <time>2020-08-24T07:44:51Z</time>
        <sat>9</sat>
      </trkpt>
      <trkpt lat="42.305902" lon="-4.517897">
        <ele>790.7</ele>
        <time>2020-08-24T07:44:58Z</time>
        <sat>9</sat>
      </trkpt>
      <trkpt lat="42.305945" lon="-4.517994">
        <ele>790.7</ele>
        <time>2020-08-24T07:45:04Z</time>
        <sat>9</sat>
      </trkpt>
      <trkpt lat="42.306021" lon="-4.518031">
        <ele>790.5</ele>
        <time>2020-08-24T07:45:35Z</time>
        <sat>9</sat>
      </trkpt>
      <trkpt lat="42.306070" lon="-4.518139">
        <ele>786.9</ele>
        <time>2020-08-24T07:46:01Z</time>
        <sat>9</sat>
      </trkpt>
      <trkpt lat="42.306103" lon="-4.518257">
        <ele>790.7</ele>
        <time>2020-08-24T07:46:07Z</time>
        <sat>9</sat>
      </trkpt>
      <trkpt lat="42.306131" lon="-4.518365">
        <ele>791.4</ele>
        <time>2020-08-24T07:46:13Z</time>
        <sat>9</sat>
      </trkpt>
      <trkpt lat="42.306166" lon="-4.518468">
        <ele>791.3</ele>
        <time>2020-08-24T07:46:19Z</time>
        <sat>9</sat>
      </trkpt>
      <trkpt lat="42.306214" lon="-4.518572">
        <ele>791.1</ele>
        <time>2020-08-24T07:46:25Z</time>
        <sat>9</sat>
      </trkpt>
      <trkpt lat="42.306254" lon="-4.518674">
        <ele>790.6</ele>
        <time>2020-08-24T07:46:31Z</time>
        <sat>9</sat>
      </trkpt>
      <trkpt lat="42.306286" lon="-4.518787">
        <ele>790.5</ele>
        <time>2020-08-24T07:46:37Z</time>
        <sat>9</sat>
      </trkpt>
      <trkpt lat="42.306325" lon="-4.518899">
        <ele>790.6</ele>
        <time>2020-08-24T07:46:43Z</time>
        <sat>9</sat>
      </trkpt>
      <trkpt lat="42.306371" lon="-4.519007">
        <ele>790.7</ele>
        <time>2020-08-24T07:46:49Z</time>
        <sat>9</sat>
      </trkpt>
      <trkpt lat="42.306416" lon="-4.519114">
        <ele>790.8</ele>
        <time>2020-08-24T07:46:55Z</time>
        <sat>9</sat>
      </trkpt>
      <trkpt lat="42.306469" lon="-4.519218">
        <ele>790.9</ele>
        <time>2020-08-24T07:47:01Z</time>
        <sat>9</sat>
      </trkpt>
      <trkpt lat="42.306520" lon="-4.519318">
        <ele>791.2</ele>
        <time>2020-08-24T07:47:07Z</time>
        <sat>9</sat>
      </trkpt>
      <trkpt lat="42.306558" lon="-4.519423">
        <ele>791.5</ele>
        <time>2020-08-24T07:47:13Z</time>
        <sat>9</sat>
      </trkpt>
      <trkpt lat="42.306598" lon="-4.519530">
        <ele>791.7</ele>
        <time>2020-08-24T07:47:19Z</time>
        <sat>9</sat>
      </trkpt>
      <trkpt lat="42.306642" lon="-4.519646">
        <ele>791.8</ele>
        <time>2020-08-24T07:47:25Z</time>
        <sat>10</sat>
      </trkpt>
      <trkpt lat="42.306690" lon="-4.519752">
        <ele>791.9</ele>
        <time>2020-08-24T07:47:31Z</time>
        <sat>10</sat>
      </trkpt>
      <trkpt lat="42.306733" lon="-4.519848">
        <ele>787.6</ele>
        <time>2020-08-24T07:47:37Z</time>
        <sat>10</sat>
      </trkpt>
      <trkpt lat="42.306790" lon="-4.519947">
        <ele>791.7</ele>
        <time>2020-08-24T07:47:44Z</time>
        <sat>10</sat>
      </trkpt>
      <trkpt lat="42.306838" lon="-4.520050">
        <ele>784.8</ele>
        <time>2020-08-24T07:47:51Z</time>
        <sat>10</sat>
      </trkpt>
      <trkpt lat="42.306876" lon="-4.520164">
        <ele>794.8</ele>
        <time>2020-08-24T07:48:08Z</time>
        <sat>10</sat>
      </trkpt>
      <trkpt lat="42.306914" lon="-4.520268">
        <ele>793.5</ele>
        <time>2020-08-24T07:48:14Z</time>
        <sat>9</sat>
      </trkpt>
      <trkpt lat="42.306961" lon="-4.520373">
        <ele>792.6</ele>
        <time>2020-08-24T07:48:20Z</time>
        <sat>9</sat>
      </trkpt>
      <trkpt lat="42.307002" lon="-4.520486">
        <ele>792.3</ele>
        <time>2020-08-24T07:48:27Z</time>
        <sat>10</sat>
      </trkpt>
      <trkpt lat="42.307043" lon="-4.520583">
        <ele>792.1</ele>
        <time>2020-08-24T07:48:33Z</time>
        <sat>10</sat>
      </trkpt>
      <trkpt lat="42.307093" lon="-4.520693">
        <ele>792.1</ele>
        <time>2020-08-24T07:48:40Z</time>
        <sat>10</sat>
      </trkpt>
      <trkpt lat="42.307135" lon="-4.520791">
        <ele>792.1</ele>
        <time>2020-08-24T07:48:46Z</time>
        <sat>10</sat>
      </trkpt>
      <trkpt lat="42.307180" lon="-4.520900">
        <ele>792.1</ele>
        <time>2020-08-24T07:48:53Z</time>
        <sat>10</sat>
      </trkpt>
      <trkpt lat="42.307232" lon="-4.521003">
        <ele>792.3</ele>
        <time>2020-08-24T07:49:00Z</time>
        <sat>10</sat>
      </trkpt>
      <trkpt lat="42.307271" lon="-4.521117">
        <ele>792.4</ele>
        <time>2020-08-24T07:49:07Z</time>
        <sat>10</sat>
      </trkpt>
      <trkpt lat="42.307316" lon="-4.521211">
        <ele>792.4</ele>
        <time>2020-08-24T07:49:13Z</time>
        <sat>10</sat>
      </trkpt>
      <trkpt lat="42.307351" lon="-4.521311">
        <ele>792.5</ele>
        <time>2020-08-24T07:49:19Z</time>
        <sat>10</sat>
      </trkpt>
      <trkpt lat="42.307394" lon="-4.521406">
        <ele>792.4</ele>
        <time>2020-08-24T07:49:25Z</time>
        <sat>10</sat>
      </trkpt>
      <trkpt lat="42.307442" lon="-4.521509">
        <ele>792.6</ele>
        <time>2020-08-24T07:49:32Z</time>
        <sat>10</sat>
      </trkpt>
      <trkpt lat="42.307485" lon="-4.521613">
        <ele>792.5</ele>
        <time>2020-08-24T07:49:39Z</time>
        <sat>10</sat>
      </trkpt>
      <trkpt lat="42.307529" lon="-4.521713">
        <ele>792.0</ele>
        <time>2020-08-24T07:49:45Z</time>
        <sat>10</sat>
      </trkpt>
      <trkpt lat="42.307565" lon="-4.521818">
        <ele>792.2</ele>
        <time>2020-08-24T07:49:51Z</time>
        <sat>10</sat>
      </trkpt>
      <trkpt lat="42.307609" lon="-4.521917">
        <ele>792.4</ele>
        <time>2020-08-24T07:49:57Z</time>
        <sat>10</sat>
      </trkpt>
      <trkpt lat="42.307645" lon="-4.522016">
        <ele>792.5</ele>
        <time>2020-08-24T07:50:03Z</time>
        <sat>10</sat>
      </trkpt>
      <trkpt lat="42.307687" lon="-4.522117">
        <ele>792.8</ele>
        <time>2020-08-24T07:50:09Z</time>
        <sat>10</sat>
      </trkpt>
      <trkpt lat="42.307729" lon="-4.522211">
        <ele>793.1</ele>
        <time>2020-08-24T07:50:15Z</time>
        <sat>10</sat>
      </trkpt>
      <trkpt lat="42.307770" lon="-4.522325">
        <ele>793.2</ele>
        <time>2020-08-24T07:50:22Z</time>
        <sat>10</sat>
      </trkpt>
      <trkpt lat="42.307822" lon="-4.522426">
        <ele>793.2</ele>
        <time>2020-08-24T07:50:29Z</time>
        <sat>10</sat>
      </trkpt>
      <trkpt lat="42.307861" lon="-4.522531">
        <ele>793.3</ele>
        <time>2020-08-24T07:50:35Z</time>
        <sat>10</sat>
      </trkpt>
      <trkpt lat="42.307907" lon="-4.522629">
        <ele>793.3</ele>
        <time>2020-08-24T07:50:41Z</time>
        <sat>10</sat>
      </trkpt>
      <trkpt lat="42.307951" lon="-4.522737">
        <ele>793.3</ele>
        <time>2020-08-24T07:50:48Z</time>
        <sat>10</sat>
      </trkpt>
      <trkpt lat="42.307996" lon="-4.522833">
        <ele>793.3</ele>
        <time>2020-08-24T07:50:54Z</time>
        <sat>10</sat>
      </trkpt>
      <trkpt lat="42.308039" lon="-4.522939">
        <ele>793.3</ele>
        <time>2020-08-24T07:51:01Z</time>
        <sat>10</sat>
      </trkpt>
      <trkpt lat="42.308085" lon="-4.523046">
        <ele>793.4</ele>
        <time>2020-08-24T07:51:08Z</time>
        <sat>10</sat>
      </trkpt>
      <trkpt lat="42.308134" lon="-4.523150">
        <ele>793.5</ele>
        <time>2020-08-24T07:51:15Z</time>
        <sat>9</sat>
      </trkpt>
      <trkpt lat="42.308173" lon="-4.523255">
        <ele>793.6</ele>
        <time>2020-08-24T07:51:22Z</time>
        <sat>10</sat>
      </trkpt>
      <trkpt lat="42.308219" lon="-4.523357">
        <ele>793.5</ele>
        <time>2020-08-24T07:51:29Z</time>
        <sat>10</sat>
      </trkpt>
      <trkpt lat="42.308259" lon="-4.523453">
        <ele>793.5</ele>
        <time>2020-08-24T07:51:35Z</time>
        <sat>10</sat>
      </trkpt>
      <trkpt lat="42.308303" lon="-4.523557">
        <ele>793.6</ele>
        <time>2020-08-24T07:51:42Z</time>
        <sat>10</sat>
      </trkpt>
      <trkpt lat="42.308347" lon="-4.523651">
        <ele>793.7</ele>
        <time>2020-08-24T07:51:48Z</time>
        <sat>10</sat>
      </trkpt>
      <trkpt lat="42.308390" lon="-4.523761">
        <ele>793.7</ele>
        <time>2020-08-24T07:51:55Z</time>
        <sat>10</sat>
      </trkpt>
      <trkpt lat="42.308432" lon="-4.523856">
        <ele>793.6</ele>
        <time>2020-08-24T07:52:01Z</time>
        <sat>9</sat>
      </trkpt>
      <trkpt lat="42.308476" lon="-4.523968">
        <ele>793.6</ele>
        <time>2020-08-24T07:52:08Z</time>
        <sat>10</sat>
      </trkpt>
      <trkpt lat="42.308519" lon="-4.524081">
        <ele>793.6</ele>
        <time>2020-08-24T07:52:15Z</time>
        <sat>10</sat>
      </trkpt>
      <trkpt lat="42.308555" lon="-4.524187">
        <ele>793.6</ele>
        <time>2020-08-24T07:52:22Z</time>
        <sat>10</sat>
      </trkpt>
      <trkpt lat="42.308598" lon="-4.524281">
        <ele>793.5</ele>
        <time>2020-08-24T07:52:28Z</time>
        <sat>10</sat>
      </trkpt>
      <trkpt lat="42.308644" lon="-4.524390">
        <ele>793.5</ele>
        <time>2020-08-24T07:52:35Z</time>
        <sat>10</sat>
      </trkpt>
      <trkpt lat="42.308688" lon="-4.524484">
        <ele>793.6</ele>
        <time>2020-08-24T07:52:41Z</time>
        <sat>10</sat>
      </trkpt>
      <trkpt lat="42.308727" lon="-4.524597">
        <ele>793.6</ele>
        <time>2020-08-24T07:52:48Z</time>
        <sat>10</sat>
      </trkpt>
      <trkpt lat="42.308770" lon="-4.524691">
        <ele>793.6</ele>
        <time>2020-08-24T07:52:54Z</time>
        <sat>10</sat>
      </trkpt>
      <trkpt lat="42.308809" lon="-4.524801">
        <ele>793.7</ele>
        <time>2020-08-24T07:53:01Z</time>
        <sat>10</sat>
      </trkpt>
      <trkpt lat="42.308853" lon="-4.524897">
        <ele>793.7</ele>
        <time>2020-08-24T07:53:07Z</time>
        <sat>10</sat>
      </trkpt>
      <trkpt lat="42.308899" lon="-4.524989">
        <ele>793.7</ele>
        <time>2020-08-24T07:53:13Z</time>
        <sat>10</sat>
      </trkpt>
      <trkpt lat="42.308937" lon="-4.525090">
        <ele>793.7</ele>
        <time>2020-08-24T07:53:19Z</time>
        <sat>10</sat>
      </trkpt>
      <trkpt lat="42.308981" lon="-4.525186">
        <ele>793.6</ele>
        <time>2020-08-24T07:53:25Z</time>
        <sat>10</sat>
      </trkpt>
      <trkpt lat="42.309022" lon="-4.525282">
        <ele>793.6</ele>
        <time>2020-08-24T07:53:31Z</time>
        <sat>10</sat>
      </trkpt>
      <trkpt lat="42.309057" lon="-4.525383">
        <ele>793.6</ele>
        <time>2020-08-24T07:53:37Z</time>
        <sat>10</sat>
      </trkpt>
      <trkpt lat="42.309103" lon="-4.525481">
        <ele>793.6</ele>
        <time>2020-08-24T07:53:43Z</time>
        <sat>10</sat>
      </trkpt>
      <trkpt lat="42.309140" lon="-4.525580">
        <ele>793.8</ele>
        <time>2020-08-24T07:53:49Z</time>
        <sat>10</sat>
      </trkpt>
      <trkpt lat="42.309177" lon="-4.525679">
        <ele>793.9</ele>
        <time>2020-08-24T07:53:55Z</time>
        <sat>10</sat>
      </trkpt>
      <trkpt lat="42.309226" lon="-4.525779">
        <ele>794.1</ele>
        <time>2020-08-24T07:54:01Z</time>
        <sat>10</sat>
      </trkpt>
      <trkpt lat="42.309270" lon="-4.525887">
        <ele>794.2</ele>
        <time>2020-08-24T07:54:08Z</time>
        <sat>10</sat>
      </trkpt>
      <trkpt lat="42.309312" lon="-4.525982">
        <ele>794.2</ele>
        <time>2020-08-24T07:54:14Z</time>
        <sat>10</sat>
      </trkpt>
      <trkpt lat="42.309354" lon="-4.526087">
        <ele>794.2</ele>
        <time>2020-08-24T07:54:21Z</time>
        <sat>10</sat>
      </trkpt>
      <trkpt lat="42.309401" lon="-4.526190">
        <ele>794.1</ele>
        <time>2020-08-24T07:54:28Z</time>
        <sat>10</sat>
      </trkpt>
      <trkpt lat="42.309445" lon="-4.526301">
        <ele>794.2</ele>
        <time>2020-08-24T07:54:35Z</time>
        <sat>10</sat>
      </trkpt>
      <trkpt lat="42.309485" lon="-4.526403">
        <ele>794.3</ele>
        <time>2020-08-24T07:54:42Z</time>
        <sat>10</sat>
      </trkpt>
      <trkpt lat="42.309534" lon="-4.526509">
        <ele>794.3</ele>
        <time>2020-08-24T07:54:49Z</time>
        <sat>10</sat>
      </trkpt>
      <trkpt lat="42.309577" lon="-4.526618">
        <ele>794.4</ele>
        <time>2020-08-24T07:54:56Z</time>
        <sat>10</sat>
      </trkpt>
      <trkpt lat="42.309623" lon="-4.526724">
        <ele>794.3</ele>
        <time>2020-08-24T07:55:03Z</time>
        <sat>10</sat>
      </trkpt>
      <trkpt lat="42.309668" lon="-4.526834">
        <ele>794.3</ele>
        <time>2020-08-24T07:55:10Z</time>
        <sat>10</sat>
      </trkpt>
      <trkpt lat="42.309710" lon="-4.526944">
        <ele>794.2</ele>
        <time>2020-08-24T07:55:17Z</time>
        <sat>10</sat>
      </trkpt>
      <trkpt lat="42.309756" lon="-4.527048">
        <ele>794.3</ele>
        <time>2020-08-24T07:55:24Z</time>
        <sat>10</sat>
      </trkpt>
      <trkpt lat="42.309797" lon="-4.527158">
        <ele>794.5</ele>
        <time>2020-08-24T07:55:31Z</time>
        <sat>10</sat>
      </trkpt>
      <trkpt lat="42.309842" lon="-4.527250">
        <ele>794.6</ele>
        <time>2020-08-24T07:55:37Z</time>
        <sat>10</sat>
      </trkpt>
      <trkpt lat="42.309883" lon="-4.527355">
        <ele>794.6</ele>
        <time>2020-08-24T07:55:44Z</time>
        <sat>10</sat>
      </trkpt>
      <trkpt lat="42.309927" lon="-4.527456">
        <ele>794.7</ele>
        <time>2020-08-24T07:55:51Z</time>
        <sat>10</sat>
      </trkpt>
      <trkpt lat="42.309973" lon="-4.527560">
        <ele>794.7</ele>
        <time>2020-08-24T07:55:58Z</time>
        <sat>10</sat>
      </trkpt>
      <trkpt lat="42.310022" lon="-4.527666">
        <ele>794.7</ele>
        <time>2020-08-24T07:56:05Z</time>
        <sat>10</sat>
      </trkpt>
      <trkpt lat="42.310063" lon="-4.527775">
        <ele>794.8</ele>
        <time>2020-08-24T07:56:12Z</time>
        <sat>10</sat>
      </trkpt>
      <trkpt lat="42.310105" lon="-4.527877">
        <ele>795.0</ele>
        <time>2020-08-24T07:56:19Z</time>
        <sat>10</sat>
      </trkpt>
      <trkpt lat="42.310149" lon="-4.527986">
        <ele>795.0</ele>
        <time>2020-08-24T07:56:26Z</time>
        <sat>10</sat>
      </trkpt>
      <trkpt lat="42.310192" lon="-4.528091">
        <ele>795.1</ele>
        <time>2020-08-24T07:56:33Z</time>
        <sat>10</sat>
      </trkpt>
      <trkpt lat="42.310240" lon="-4.528199">
        <ele>795.2</ele>
        <time>2020-08-24T07:56:40Z</time>
        <sat>10</sat>
      </trkpt>
      <trkpt lat="42.310281" lon="-4.528310">
        <ele>795.3</ele>
        <time>2020-08-24T07:56:47Z</time>
        <sat>10</sat>
      </trkpt>
      <trkpt lat="42.310327" lon="-4.528417">
        <ele>795.2</ele>
        <time>2020-08-24T07:56:54Z</time>
        <sat>10</sat>
      </trkpt>
      <trkpt lat="42.310367" lon="-4.528513">
        <ele>795.2</ele>
        <time>2020-08-24T07:57:00Z</time>
        <sat>10</sat>
      </trkpt>
      <trkpt lat="42.310408" lon="-4.528609">
        <ele>795.2</ele>
        <time>2020-08-24T07:57:06Z</time>
        <sat>10</sat>
      </trkpt>
      <trkpt lat="42.310455" lon="-4.528718">
        <ele>795.2</ele>
        <time>2020-08-24T07:57:13Z</time>
        <sat>10</sat>
      </trkpt>
      <trkpt lat="42.310497" lon="-4.528813">
        <ele>795.3</ele>
        <time>2020-08-24T07:57:19Z</time>
        <sat>10</sat>
      </trkpt>
      <trkpt lat="42.310543" lon="-4.528918">
        <ele>795.3</ele>
        <time>2020-08-24T07:57:26Z</time>
        <sat>10</sat>
      </trkpt>
      <trkpt lat="42.310585" lon="-4.529017">
        <ele>795.4</ele>
        <time>2020-08-24T07:57:32Z</time>
        <sat>10</sat>
      </trkpt>
      <trkpt lat="42.310631" lon="-4.529109">
        <ele>795.5</ele>
        <time>2020-08-24T07:57:38Z</time>
        <sat>10</sat>
      </trkpt>
      <trkpt lat="42.310668" lon="-4.529207">
        <ele>795.6</ele>
        <time>2020-08-24T07:57:44Z</time>
        <sat>10</sat>
      </trkpt>
      <trkpt lat="42.310719" lon="-4.529316">
        <ele>795.6</ele>
        <time>2020-08-24T07:57:51Z</time>
        <sat>10</sat>
      </trkpt>
      <trkpt lat="42.310765" lon="-4.529425">
        <ele>795.6</ele>
        <time>2020-08-24T07:57:58Z</time>
        <sat>10</sat>
      </trkpt>
      <trkpt lat="42.310809" lon="-4.529524">
        <ele>795.5</ele>
        <time>2020-08-24T07:58:04Z</time>
        <sat>10</sat>
      </trkpt>
      <trkpt lat="42.310853" lon="-4.529620">
        <ele>795.4</ele>
        <time>2020-08-24T07:58:10Z</time>
        <sat>10</sat>
      </trkpt>
      <trkpt lat="42.310891" lon="-4.529716">
        <ele>795.4</ele>
        <time>2020-08-24T07:58:16Z</time>
        <sat>10</sat>
      </trkpt>
      <trkpt lat="42.310937" lon="-4.529811">
        <ele>795.4</ele>
        <time>2020-08-24T07:58:22Z</time>
        <sat>10</sat>
      </trkpt>
      <trkpt lat="42.310972" lon="-4.529910">
        <ele>795.4</ele>
        <time>2020-08-24T07:58:28Z</time>
        <sat>10</sat>
      </trkpt>
      <trkpt lat="42.311015" lon="-4.530009">
        <ele>795.4</ele>
        <time>2020-08-24T07:58:34Z</time>
        <sat>10</sat>
      </trkpt>
      <trkpt lat="42.311060" lon="-4.530120">
        <ele>795.5</ele>
        <time>2020-08-24T07:58:41Z</time>
        <sat>10</sat>
      </trkpt>
      <trkpt lat="42.311099" lon="-4.530218">
        <ele>795.6</ele>
        <time>2020-08-24T07:58:47Z</time>
        <sat>10</sat>
      </trkpt>
      <trkpt lat="42.311148" lon="-4.530326">
        <ele>795.6</ele>
        <time>2020-08-24T07:58:54Z</time>
        <sat>10</sat>
      </trkpt>
      <trkpt lat="42.311185" lon="-4.530425">
        <ele>795.7</ele>
        <time>2020-08-24T07:59:00Z</time>
        <sat>10</sat>
      </trkpt>
      <trkpt lat="42.311230" lon="-4.530523">
        <ele>795.7</ele>
        <time>2020-08-24T07:59:06Z</time>
        <sat>10</sat>
      </trkpt>
      <trkpt lat="42.311273" lon="-4.530637">
        <ele>795.7</ele>
        <time>2020-08-24T07:59:13Z</time>
        <sat>10</sat>
      </trkpt>
      <trkpt lat="42.311316" lon="-4.530734">
        <ele>795.7</ele>
        <time>2020-08-24T07:59:19Z</time>
        <sat>9</sat>
      </trkpt>
      <trkpt lat="42.311362" lon="-4.530842">
        <ele>795.8</ele>
        <time>2020-08-24T07:59:26Z</time>
        <sat>10</sat>
      </trkpt>
      <trkpt lat="42.311402" lon="-4.530942">
        <ele>795.8</ele>
        <time>2020-08-24T07:59:32Z</time>
        <sat>10</sat>
      </trkpt>
      <trkpt lat="42.311449" lon="-4.531052">
        <ele>795.9</ele>
        <time>2020-08-24T07:59:39Z</time>
        <sat>10</sat>
      </trkpt>
      <trkpt lat="42.311489" lon="-4.531151">
        <ele>796.0</ele>
        <time>2020-08-24T07:59:45Z</time>
        <sat>10</sat>
      </trkpt>
      <trkpt lat="42.311541" lon="-4.531257">
        <ele>796.1</ele>
        <time>2020-08-24T07:59:52Z</time>
        <sat>10</sat>
      </trkpt>
      <trkpt lat="42.311582" lon="-4.531370">
        <ele>796.1</ele>
        <time>2020-08-24T07:59:59Z</time>
        <sat>10</sat>
      </trkpt>
      <trkpt lat="42.311627" lon="-4.531462">
        <ele>796.1</ele>
        <time>2020-08-24T08:00:05Z</time>
        <sat>10</sat>
      </trkpt>
      <trkpt lat="42.311667" lon="-4.531577">
        <ele>796.1</ele>
        <time>2020-08-24T08:00:12Z</time>
        <sat>9</sat>
      </trkpt>
      <trkpt lat="42.311713" lon="-4.531670">
        <ele>796.3</ele>
        <time>2020-08-24T08:00:18Z</time>
        <sat>10</sat>
      </trkpt>
      <trkpt lat="42.311751" lon="-4.531770">
        <ele>796.3</ele>
        <time>2020-08-24T08:00:24Z</time>
        <sat>10</sat>
      </trkpt>
      <trkpt lat="42.311791" lon="-4.531867">
        <ele>796.4</ele>
        <time>2020-08-24T08:00:30Z</time>
        <sat>10</sat>
      </trkpt>
      <trkpt lat="42.311833" lon="-4.531979">
        <ele>796.6</ele>
        <time>2020-08-24T08:00:37Z</time>
        <sat>10</sat>
      </trkpt>
      <trkpt lat="42.311868" lon="-4.532082">
        <ele>796.7</ele>
        <time>2020-08-24T08:00:43Z</time>
        <sat>10</sat>
      </trkpt>
      <trkpt lat="42.311908" lon="-4.532191">
        <ele>796.7</ele>
        <time>2020-08-24T08:00:50Z</time>
        <sat>10</sat>
      </trkpt>
      <trkpt lat="42.311953" lon="-4.532288">
        <ele>796.9</ele>
        <time>2020-08-24T08:00:56Z</time>
        <sat>10</sat>
      </trkpt>
      <trkpt lat="42.311998" lon="-4.532401">
        <ele>796.8</ele>
        <time>2020-08-24T08:01:03Z</time>
        <sat>9</sat>
      </trkpt>
      <trkpt lat="42.312033" lon="-4.532501">
        <ele>796.7</ele>
        <time>2020-08-24T08:01:09Z</time>
        <sat>9</sat>
      </trkpt>
      <trkpt lat="42.312071" lon="-4.532615">
        <ele>796.6</ele>
        <time>2020-08-24T08:01:16Z</time>
        <sat>10</sat>
      </trkpt>
      <trkpt lat="42.312109" lon="-4.532729">
        <ele>796.7</ele>
        <time>2020-08-24T08:01:23Z</time>
        <sat>10</sat>
      </trkpt>
      <trkpt lat="42.312143" lon="-4.532847">
        <ele>796.6</ele>
        <time>2020-08-24T08:01:30Z</time>
        <sat>10</sat>
      </trkpt>
      <trkpt lat="42.312173" lon="-4.532951">
        <ele>796.6</ele>
        <time>2020-08-24T08:01:36Z</time>
        <sat>10</sat>
      </trkpt>
      <trkpt lat="42.312206" lon="-4.533068">
        <ele>796.7</ele>
        <time>2020-08-24T08:01:43Z</time>
        <sat>10</sat>
      </trkpt>
      <trkpt lat="42.312235" lon="-4.533172">
        <ele>796.7</ele>
        <time>2020-08-24T08:01:49Z</time>
        <sat>10</sat>
      </trkpt>
      <trkpt lat="42.312270" lon="-4.533276">
        <ele>796.7</ele>
        <time>2020-08-24T08:01:55Z</time>
        <sat>10</sat>
      </trkpt>
      <trkpt lat="42.312299" lon="-4.533394">
        <ele>796.6</ele>
        <time>2020-08-24T08:02:02Z</time>
        <sat>10</sat>
      </trkpt>
      <trkpt lat="42.312333" lon="-4.533494">
        <ele>796.6</ele>
        <time>2020-08-24T08:02:08Z</time>
        <sat>10</sat>
      </trkpt>
      <trkpt lat="42.312368" lon="-4.533611">
        <ele>796.5</ele>
        <time>2020-08-24T08:02:15Z</time>
        <sat>10</sat>
      </trkpt>
      <trkpt lat="42.312402" lon="-4.533713">
        <ele>796.5</ele>
        <time>2020-08-24T08:02:21Z</time>
        <sat>10</sat>
      </trkpt>
      <trkpt lat="42.312430" lon="-4.533819">
        <ele>796.5</ele>
        <time>2020-08-24T08:02:27Z</time>
        <sat>10</sat>
      </trkpt>
      <trkpt lat="42.312468" lon="-4.533932">
        <ele>796.4</ele>
        <time>2020-08-24T08:02:34Z</time>
        <sat>10</sat>
      </trkpt>
      <trkpt lat="42.312498" lon="-4.534044">
        <ele>796.6</ele>
        <time>2020-08-24T08:02:41Z</time>
        <sat>9</sat>
      </trkpt>
      <trkpt lat="42.312528" lon="-4.534147">
        <ele>796.7</ele>
        <time>2020-08-24T08:02:47Z</time>
        <sat>10</sat>
      </trkpt>
      <trkpt lat="42.312563" lon="-4.534247">
        <ele>796.8</ele>
        <time>2020-08-24T08:02:53Z</time>
        <sat>10</sat>
      </trkpt>
      <trkpt lat="42.312593" lon="-4.534356">
        <ele>796.8</ele>
        <time>2020-08-24T08:02:59Z</time>
        <sat>10</sat>
      </trkpt>
      <trkpt lat="42.312626" lon="-4.534456">
        <ele>796.8</ele>
        <time>2020-08-24T08:03:05Z</time>
        <sat>10</sat>
      </trkpt>
      <trkpt lat="42.312656" lon="-4.534569">
        <ele>796.8</ele>
        <time>2020-08-24T08:03:12Z</time>
        <sat>10</sat>
      </trkpt>
      <trkpt lat="42.312692" lon="-4.534682">
        <ele>796.2</ele>
        <time>2020-08-24T08:03:19Z</time>
        <sat>10</sat>
      </trkpt>
      <trkpt lat="42.312727" lon="-4.534788">
        <ele>797.3</ele>
        <time>2020-08-24T08:03:25Z</time>
        <sat>10</sat>
      </trkpt>
      <trkpt lat="42.312761" lon="-4.534892">
        <ele>797.6</ele>
        <time>2020-08-24T08:03:31Z</time>
        <sat>10</sat>
      </trkpt>
      <trkpt lat="42.312787" lon="-4.534999">
        <ele>796.7</ele>
        <time>2020-08-24T08:03:37Z</time>
        <sat>10</sat>
      </trkpt>
      <trkpt lat="42.312830" lon="-4.535104">
        <ele>796.4</ele>
        <time>2020-08-24T08:03:43Z</time>
        <sat>10</sat>
      </trkpt>
      <trkpt lat="42.312861" lon="-4.535211">
        <ele>796.5</ele>
        <time>2020-08-24T08:03:49Z</time>
        <sat>10</sat>
      </trkpt>
      <trkpt lat="42.312888" lon="-4.535317">
        <ele>796.7</ele>
        <time>2020-08-24T08:03:55Z</time>
        <sat>10</sat>
      </trkpt>
      <trkpt lat="42.312924" lon="-4.535419">
        <ele>796.8</ele>
        <time>2020-08-24T08:04:01Z</time>
        <sat>10</sat>
      </trkpt>
      <trkpt lat="42.312951" lon="-4.535539">
        <ele>796.6</ele>
        <time>2020-08-24T08:04:08Z</time>
        <sat>10</sat>
      </trkpt>
      <trkpt lat="42.312988" lon="-4.535643">
        <ele>796.4</ele>
        <time>2020-08-24T08:04:14Z</time>
        <sat>10</sat>
      </trkpt>
      <trkpt lat="42.313021" lon="-4.535749">
        <ele>796.3</ele>
        <time>2020-08-24T08:04:21Z</time>
        <sat>10</sat>
      </trkpt>
      <trkpt lat="42.313055" lon="-4.535853">
        <ele>796.3</ele>
        <time>2020-08-24T08:04:27Z</time>
        <sat>10</sat>
      </trkpt>
      <trkpt lat="42.313089" lon="-4.535968">
        <ele>796.1</ele>
        <time>2020-08-24T08:04:34Z</time>
        <sat>10</sat>
      </trkpt>
      <trkpt lat="42.313118" lon="-4.536071">
        <ele>796.0</ele>
        <time>2020-08-24T08:04:40Z</time>
        <sat>10</sat>
      </trkpt>
      <trkpt lat="42.313154" lon="-4.536185">
        <ele>795.9</ele>
        <time>2020-08-24T08:04:47Z</time>
        <sat>10</sat>
      </trkpt>
      <trkpt lat="42.313187" lon="-4.536304">
        <ele>795.9</ele>
        <time>2020-08-24T08:04:54Z</time>
        <sat>10</sat>
      </trkpt>
      <trkpt lat="42.313220" lon="-4.536406">
        <ele>795.9</ele>
        <time>2020-08-24T08:05:00Z</time>
        <sat>10</sat>
      </trkpt>
      <trkpt lat="42.313251" lon="-4.536525">
        <ele>795.9</ele>
        <time>2020-08-24T08:05:07Z</time>
        <sat>10</sat>
      </trkpt>
      <trkpt lat="42.313291" lon="-4.536626">
        <ele>795.7</ele>
        <time>2020-08-24T08:05:13Z</time>
        <sat>10</sat>
      </trkpt>
      <trkpt lat="42.313326" lon="-4.536743">
        <ele>795.7</ele>
        <time>2020-08-24T08:05:20Z</time>
        <sat>10</sat>
      </trkpt>
      <trkpt lat="42.313364" lon="-4.536858">
        <ele>795.6</ele>
        <time>2020-08-24T08:05:27Z</time>
        <sat>10</sat>
      </trkpt>
      <trkpt lat="42.313393" lon="-4.536961">
        <ele>795.6</ele>
        <time>2020-08-24T08:05:33Z</time>
        <sat>10</sat>
      </trkpt>
      <trkpt lat="42.313419" lon="-4.537070">
        <ele>795.5</ele>
        <time>2020-08-24T08:05:39Z</time>
        <sat>10</sat>
      </trkpt>
      <trkpt lat="42.313454" lon="-4.537174">
        <ele>795.6</ele>
        <time>2020-08-24T08:05:45Z</time>
        <sat>10</sat>
      </trkpt>
      <trkpt lat="42.313483" lon="-4.537277">
        <ele>795.6</ele>
        <time>2020-08-24T08:05:51Z</time>
        <sat>10</sat>
      </trkpt>
      <trkpt lat="42.313513" lon="-4.537380">
        <ele>795.6</ele>
        <time>2020-08-24T08:05:57Z</time>
        <sat>10</sat>
      </trkpt>
      <trkpt lat="42.313545" lon="-4.537483">
        <ele>795.6</ele>
        <time>2020-08-24T08:06:03Z</time>
        <sat>10</sat>
      </trkpt>
      <trkpt lat="42.313570" lon="-4.537592">
        <ele>795.6</ele>
        <time>2020-08-24T08:06:09Z</time>
        <sat>10</sat>
      </trkpt>
      <trkpt lat="42.313605" lon="-4.537695">
        <ele>795.6</ele>
        <time>2020-08-24T08:06:15Z</time>
        <sat>10</sat>
      </trkpt>
      <trkpt lat="42.313636" lon="-4.537815">
        <ele>795.6</ele>
        <time>2020-08-24T08:06:22Z</time>
        <sat>10</sat>
      </trkpt>
      <trkpt lat="42.313670" lon="-4.537919">
        <ele>795.7</ele>
        <time>2020-08-24T08:06:28Z</time>
        <sat>10</sat>
      </trkpt>
      <trkpt lat="42.313702" lon="-4.538037">
        <ele>795.8</ele>
        <time>2020-08-24T08:06:35Z</time>
        <sat>10</sat>
      </trkpt>
      <trkpt lat="42.313733" lon="-4.538139">
        <ele>795.9</ele>
        <time>2020-08-24T08:06:41Z</time>
        <sat>10</sat>
      </trkpt>
      <trkpt lat="42.313770" lon="-4.538254">
        <ele>795.9</ele>
        <time>2020-08-24T08:06:48Z</time>
        <sat>10</sat>
      </trkpt>
      <trkpt lat="42.313799" lon="-4.538361">
        <ele>795.9</ele>
        <time>2020-08-24T08:06:54Z</time>
        <sat>10</sat>
      </trkpt>
      <trkpt lat="42.313831" lon="-4.538463">
        <ele>795.8</ele>
        <time>2020-08-24T08:07:00Z</time>
        <sat>9</sat>
      </trkpt>
      <trkpt lat="42.313861" lon="-4.538582">
        <ele>795.7</ele>
        <time>2020-08-24T08:07:07Z</time>
        <sat>10</sat>
      </trkpt>
      <trkpt lat="42.313904" lon="-4.538694">
        <ele>795.6</ele>
        <time>2020-08-24T08:07:14Z</time>
        <sat>9</sat>
      </trkpt>
      <trkpt lat="42.313935" lon="-4.538813">
        <ele>795.5</ele>
        <time>2020-08-24T08:07:21Z</time>
        <sat>10</sat>
      </trkpt>
      <trkpt lat="42.313971" lon="-4.538914">
        <ele>795.4</ele>
        <time>2020-08-24T08:07:27Z</time>
        <sat>10</sat>
      </trkpt>
      <trkpt lat="42.313999" lon="-4.539028">
        <ele>795.5</ele>
        <time>2020-08-24T08:07:34Z</time>
        <sat>10</sat>
      </trkpt>
      <trkpt lat="42.314033" lon="-4.539141">
        <ele>795.5</ele>
        <time>2020-08-24T08:07:41Z</time>
        <sat>10</sat>
      </trkpt>
      <trkpt lat="42.314066" lon="-4.539257">
        <ele>795.4</ele>
        <time>2020-08-24T08:07:48Z</time>
        <sat>10</sat>
      </trkpt>
      <trkpt lat="42.314102" lon="-4.539373">
        <ele>795.3</ele>
        <time>2020-08-24T08:07:55Z</time>
        <sat>10</sat>
      </trkpt>
      <trkpt lat="42.314135" lon="-4.539475">
        <ele>795.3</ele>
        <time>2020-08-24T08:08:01Z</time>
        <sat>10</sat>
      </trkpt>
      <trkpt lat="42.314174" lon="-4.539590">
        <ele>795.3</ele>
        <time>2020-08-24T08:08:08Z</time>
        <sat>10</sat>
      </trkpt>
      <trkpt lat="42.314210" lon="-4.539705">
        <ele>795.4</ele>
        <time>2020-08-24T08:08:15Z</time>
        <sat>10</sat>
      </trkpt>
      <trkpt lat="42.314236" lon="-4.539808">
        <ele>795.4</ele>
        <time>2020-08-24T08:08:22Z</time>
        <sat>10</sat>
      </trkpt>
      <trkpt lat="42.314278" lon="-4.539920">
        <ele>795.6</ele>
        <time>2020-08-24T08:08:37Z</time>
        <sat>10</sat>
      </trkpt>
      <trkpt lat="42.314310" lon="-4.540033">
        <ele>795.7</ele>
        <time>2020-08-24T08:08:44Z</time>
        <sat>10</sat>
      </trkpt>
      <trkpt lat="42.314340" lon="-4.540142">
        <ele>795.9</ele>
        <time>2020-08-24T08:08:51Z</time>
        <sat>10</sat>
      </trkpt>
      <trkpt lat="42.314380" lon="-4.540251">
        <ele>796.1</ele>
        <time>2020-08-24T08:08:58Z</time>
        <sat>10</sat>
      </trkpt>
      <trkpt lat="42.314411" lon="-4.540370">
        <ele>796.2</ele>
        <time>2020-08-24T08:09:05Z</time>
        <sat>9</sat>
      </trkpt>
      <trkpt lat="42.314444" lon="-4.540471">
        <ele>796.2</ele>
        <time>2020-08-24T08:09:11Z</time>
        <sat>10</sat>
      </trkpt>
      <trkpt lat="42.314474" lon="-4.540590">
        <ele>796.2</ele>
        <time>2020-08-24T08:09:18Z</time>
        <sat>10</sat>
      </trkpt>
      <trkpt lat="42.314506" lon="-4.540691">
        <ele>796.3</ele>
        <time>2020-08-24T08:09:24Z</time>
        <sat>10</sat>
      </trkpt>
      <trkpt lat="42.314537" lon="-4.540809">
        <ele>796.4</ele>
        <time>2020-08-24T08:09:31Z</time>
        <sat>10</sat>
      </trkpt>
      <trkpt lat="42.314572" lon="-4.540911">
        <ele>796.4</ele>
        <time>2020-08-24T08:09:37Z</time>
        <sat>10</sat>
      </trkpt>
      <trkpt lat="42.314603" lon="-4.541012">
        <ele>796.4</ele>
        <time>2020-08-24T08:09:43Z</time>
        <sat>10</sat>
      </trkpt>
      <trkpt lat="42.314635" lon="-4.541116">
        <ele>796.4</ele>
        <time>2020-08-24T08:09:49Z</time>
        <sat>10</sat>
      </trkpt>
      <trkpt lat="42.314669" lon="-4.541235">
        <ele>796.4</ele>
        <time>2020-08-24T08:09:56Z</time>
        <sat>10</sat>
      </trkpt>
      <trkpt lat="42.314706" lon="-4.541353">
        <ele>796.4</ele>
        <time>2020-08-24T08:10:03Z</time>
        <sat>10</sat>
      </trkpt>
      <trkpt lat="42.314736" lon="-4.541469">
        <ele>796.4</ele>
        <time>2020-08-24T08:10:10Z</time>
        <sat>10</sat>
      </trkpt>
      <trkpt lat="42.314769" lon="-4.541570">
        <ele>796.4</ele>
        <time>2020-08-24T08:10:16Z</time>
        <sat>10</sat>
      </trkpt>
      <trkpt lat="42.314803" lon="-4.541686">
        <ele>796.4</ele>
        <time>2020-08-24T08:10:23Z</time>
        <sat>10</sat>
      </trkpt>
      <trkpt lat="42.314839" lon="-4.541789">
        <ele>796.4</ele>
        <time>2020-08-24T08:10:29Z</time>
        <sat>10</sat>
      </trkpt>
      <trkpt lat="42.314876" lon="-4.541890">
        <ele>796.4</ele>
        <time>2020-08-24T08:10:35Z</time>
        <sat>10</sat>
      </trkpt>
      <trkpt lat="42.314892" lon="-4.541998">
        <ele>796.3</ele>
        <time>2020-08-24T08:10:43Z</time>
        <sat>10</sat>
      </trkpt>
      <trkpt lat="42.314950" lon="-4.542091">
        <ele>796.4</ele>
        <time>2020-08-24T08:10:56Z</time>
        <sat>10</sat>
      </trkpt>
      <trkpt lat="42.315008" lon="-4.542171">
        <ele>796.4</ele>
        <time>2020-08-24T08:11:02Z</time>
        <sat>10</sat>
      </trkpt>
      <trkpt lat="42.315071" lon="-4.542242">
        <ele>796.1</ele>
        <time>2020-08-24T08:11:08Z</time>
        <sat>10</sat>
      </trkpt>
      <trkpt lat="42.315146" lon="-4.542300">
        <ele>795.9</ele>
        <time>2020-08-24T08:11:14Z</time>
        <sat>10</sat>
      </trkpt>
      <trkpt lat="42.315221" lon="-4.542361">
        <ele>795.8</ele>
        <time>2020-08-24T08:11:20Z</time>
        <sat>10</sat>
      </trkpt>
      <trkpt lat="42.315274" lon="-4.542460">
        <ele>796.0</ele>
        <time>2020-08-24T08:11:27Z</time>
        <sat>10</sat>
      </trkpt>
      <trkpt lat="42.315291" lon="-4.542578">
        <ele>796.2</ele>
        <time>2020-08-24T08:11:36Z</time>
        <sat>10</sat>
      </trkpt>
      <trkpt lat="42.315252" lon="-4.542683">
        <ele>796.4</ele>
        <time>2020-08-24T08:11:47Z</time>
        <sat>9</sat>
      </trkpt>
      <trkpt lat="42.315194" lon="-4.542762">
        <ele>796.7</ele>
        <time>2020-08-24T08:12:07Z</time>
        <sat>10</sat>
      </trkpt>
      <trkpt lat="42.315283" lon="-4.542764">
        <ele>796.4</ele>
        <time>2020-08-24T08:12:37Z</time>
        <sat>10</sat>
      </trkpt>
      <trkpt lat="42.315217" lon="-4.542848">
        <ele>797.1</ele>
        <time>2020-08-24T08:27:40Z</time>
        <sat>10</sat>
      </trkpt>
      <trkpt lat="42.315129" lon="-4.542861">
        <ele>797.3</ele>
        <time>2020-08-24T08:27:51Z</time>
        <sat>10</sat>
      </trkpt>
      <trkpt lat="42.315185" lon="-4.542964">
        <ele>797.5</ele>
        <time>2020-08-24T08:28:08Z</time>
        <sat>10</sat>
      </trkpt>
      <trkpt lat="42.315188" lon="-4.543080">
        <ele>797.3</ele>
        <time>2020-08-24T08:28:16Z</time>
        <sat>10</sat>
      </trkpt>
      <trkpt lat="42.315234" lon="-4.543187">
        <ele>797.4</ele>
        <time>2020-08-24T08:28:23Z</time>
        <sat>10</sat>
      </trkpt>
      <trkpt lat="42.315278" lon="-4.543283">
        <ele>797.4</ele>
        <time>2020-08-24T08:28:29Z</time>
        <sat>10</sat>
      </trkpt>
      <trkpt lat="42.315314" lon="-4.543396">
        <ele>797.3</ele>
        <time>2020-08-24T08:28:36Z</time>
        <sat>10</sat>
      </trkpt>
      <trkpt lat="42.315339" lon="-4.543520">
        <ele>797.2</ele>
        <time>2020-08-24T08:28:43Z</time>
        <sat>10</sat>
      </trkpt>
      <trkpt lat="42.315370" lon="-4.543640">
        <ele>797.2</ele>
        <time>2020-08-24T08:28:51Z</time>
        <sat>9</sat>
      </trkpt>
      <trkpt lat="42.315399" lon="-4.543755">
        <ele>797.3</ele>
        <time>2020-08-24T08:28:58Z</time>
        <sat>10</sat>
      </trkpt>
      <trkpt lat="42.315433" lon="-4.543859">
        <ele>797.3</ele>
        <time>2020-08-24T08:29:05Z</time>
        <sat>10</sat>
      </trkpt>
      <trkpt lat="42.315464" lon="-4.543961">
        <ele>797.2</ele>
        <time>2020-08-24T08:29:11Z</time>
        <sat>10</sat>
      </trkpt>
      <trkpt lat="42.315503" lon="-4.544077">
        <ele>796.9</ele>
        <time>2020-08-24T08:29:18Z</time>
        <sat>10</sat>
      </trkpt>
      <trkpt lat="42.315541" lon="-4.544191">
        <ele>796.5</ele>
        <time>2020-08-24T08:29:25Z</time>
        <sat>10</sat>
      </trkpt>
      <trkpt lat="42.315574" lon="-4.544306">
        <ele>797.0</ele>
        <time>2020-08-24T08:29:32Z</time>
        <sat>10</sat>
      </trkpt>
      <trkpt lat="42.315606" lon="-4.544425">
        <ele>797.2</ele>
        <time>2020-08-24T08:29:39Z</time>
        <sat>10</sat>
      </trkpt>
      <trkpt lat="42.315641" lon="-4.544539">
        <ele>797.3</ele>
        <time>2020-08-24T08:29:46Z</time>
        <sat>10</sat>
      </trkpt>
      <trkpt lat="42.315673" lon="-4.544659">
        <ele>797.4</ele>
        <time>2020-08-24T08:29:53Z</time>
        <sat>10</sat>
      </trkpt>
      <trkpt lat="42.315712" lon="-4.544773">
        <ele>797.5</ele>
        <time>2020-08-24T08:30:00Z</time>
        <sat>10</sat>
      </trkpt>
      <trkpt lat="42.315747" lon="-4.544889">
        <ele>797.6</ele>
        <time>2020-08-24T08:30:07Z</time>
        <sat>10</sat>
      </trkpt>
      <trkpt lat="42.315778" lon="-4.545006">
        <ele>797.8</ele>
        <time>2020-08-24T08:30:14Z</time>
        <sat>10</sat>
      </trkpt>
      <trkpt lat="42.315805" lon="-4.545111">
        <ele>797.9</ele>
        <time>2020-08-24T08:30:21Z</time>
        <sat>10</sat>
      </trkpt>
      <trkpt lat="42.315838" lon="-4.545220">
        <ele>798.0</ele>
        <time>2020-08-24T08:30:29Z</time>
        <sat>10</sat>
      </trkpt>
      <trkpt lat="42.315868" lon="-4.545322">
        <ele>798.1</ele>
        <time>2020-08-24T08:30:36Z</time>
        <sat>10</sat>
      </trkpt>
      <trkpt lat="42.315914" lon="-4.545416">
        <ele>798.2</ele>
        <time>2020-08-24T08:30:42Z</time>
        <sat>10</sat>
      </trkpt>
      <trkpt lat="42.315945" lon="-4.545529">
        <ele>798.4</ele>
        <time>2020-08-24T08:30:49Z</time>
        <sat>10</sat>
      </trkpt>
      <trkpt lat="42.315990" lon="-4.545638">
        <ele>798.4</ele>
        <time>2020-08-24T08:30:56Z</time>
        <sat>9</sat>
      </trkpt>
      <trkpt lat="42.316022" lon="-4.545744">
        <ele>798.5</ele>
        <time>2020-08-24T08:31:02Z</time>
        <sat>10</sat>
      </trkpt>
      <trkpt lat="42.316046" lon="-4.545860">
        <ele>798.5</ele>
        <time>2020-08-24T08:31:09Z</time>
        <sat>10</sat>
      </trkpt>
      <trkpt lat="42.316080" lon="-4.545970">
        <ele>798.4</ele>
        <time>2020-08-24T08:31:15Z</time>
        <sat>10</sat>
      </trkpt>
      <trkpt lat="42.316111" lon="-4.546084">
        <ele>798.3</ele>
        <time>2020-08-24T08:31:22Z</time>
        <sat>10</sat>
      </trkpt>
      <trkpt lat="42.316140" lon="-4.546190">
        <ele>798.4</ele>
        <time>2020-08-24T08:31:28Z</time>
        <sat>10</sat>
      </trkpt>
      <trkpt lat="42.316187" lon="-4.546290">
        <ele>798.6</ele>
        <time>2020-08-24T08:31:35Z</time>
        <sat>10</sat>
      </trkpt>
      <trkpt lat="42.316229" lon="-4.546385">
        <ele>798.7</ele>
        <time>2020-08-24T08:31:41Z</time>
        <sat>10</sat>
      </trkpt>
      <trkpt lat="42.316265" lon="-4.546500">
        <ele>798.9</ele>
        <time>2020-08-24T08:31:48Z</time>
        <sat>10</sat>
      </trkpt>
      <trkpt lat="42.316297" lon="-4.546614">
        <ele>799.1</ele>
        <time>2020-08-24T08:31:55Z</time>
        <sat>10</sat>
      </trkpt>
      <trkpt lat="42.316339" lon="-4.546724">
        <ele>799.6</ele>
        <time>2020-08-24T08:32:02Z</time>
        <sat>10</sat>
      </trkpt>
      <trkpt lat="42.316376" lon="-4.546835">
        <ele>800.0</ele>
        <time>2020-08-24T08:32:09Z</time>
        <sat>10</sat>
      </trkpt>
      <trkpt lat="42.316411" lon="-4.546946">
        <ele>800.2</ele>
        <time>2020-08-24T08:32:16Z</time>
        <sat>10</sat>
      </trkpt>
      <trkpt lat="42.316450" lon="-4.547058">
        <ele>800.7</ele>
        <time>2020-08-24T08:32:23Z</time>
        <sat>10</sat>
      </trkpt>
      <trkpt lat="42.316485" lon="-4.547170">
        <ele>801.2</ele>
        <time>2020-08-24T08:32:30Z</time>
        <sat>10</sat>
      </trkpt>
      <trkpt lat="42.316524" lon="-4.547279">
        <ele>801.6</ele>
        <time>2020-08-24T08:32:37Z</time>
        <sat>10</sat>
      </trkpt>
      <trkpt lat="42.316559" lon="-4.547391">
        <ele>802.0</ele>
        <time>2020-08-24T08:32:44Z</time>
        <sat>10</sat>
      </trkpt>
      <trkpt lat="42.316596" lon="-4.547502">
        <ele>802.4</ele>
        <time>2020-08-24T08:32:51Z</time>
        <sat>10</sat>
      </trkpt>
      <trkpt lat="42.316628" lon="-4.547618">
        <ele>802.7</ele>
        <time>2020-08-24T08:32:58Z</time>
        <sat>10</sat>
      </trkpt>
      <trkpt lat="42.316660" lon="-4.547720">
        <ele>802.9</ele>
        <time>2020-08-24T08:33:05Z</time>
        <sat>10</sat>
      </trkpt>
      <trkpt lat="42.316686" lon="-4.547825">
        <ele>803.1</ele>
        <time>2020-08-24T08:33:11Z</time>
        <sat>10</sat>
      </trkpt>
      <trkpt lat="42.316722" lon="-4.547924">
        <ele>803.1</ele>
        <time>2020-08-24T08:33:17Z</time>
        <sat>10</sat>
      </trkpt>
      <trkpt lat="42.316752" lon="-4.548042">
        <ele>803.3</ele>
        <time>2020-08-24T08:33:24Z</time>
        <sat>10</sat>
      </trkpt>
      <trkpt lat="42.316784" lon="-4.548143">
        <ele>803.3</ele>
        <time>2020-08-24T08:33:30Z</time>
        <sat>10</sat>
      </trkpt>
      <trkpt lat="42.316814" lon="-4.548249">
        <ele>803.3</ele>
        <time>2020-08-24T08:33:36Z</time>
        <sat>10</sat>
      </trkpt>
      <trkpt lat="42.316850" lon="-4.548348">
        <ele>803.4</ele>
        <time>2020-08-24T08:33:42Z</time>
        <sat>10</sat>
      </trkpt>
      <trkpt lat="42.316880" lon="-4.548466">
        <ele>803.5</ele>
        <time>2020-08-24T08:33:49Z</time>
        <sat>10</sat>
      </trkpt>
      <trkpt lat="42.316916" lon="-4.548567">
        <ele>803.7</ele>
        <time>2020-08-24T08:33:55Z</time>
        <sat>10</sat>
      </trkpt>
      <trkpt lat="42.316948" lon="-4.548684">
        <ele>803.9</ele>
        <time>2020-08-24T08:34:02Z</time>
        <sat>10</sat>
      </trkpt>
      <trkpt lat="42.316983" lon="-4.548785">
        <ele>804.0</ele>
        <time>2020-08-24T08:34:08Z</time>
        <sat>10</sat>
      </trkpt>
      <trkpt lat="42.317014" lon="-4.548905">
        <ele>804.1</ele>
        <time>2020-08-24T08:34:15Z</time>
        <sat>10</sat>
      </trkpt>
      <trkpt lat="42.317049" lon="-4.549010">
        <ele>804.4</ele>
        <time>2020-08-24T08:34:21Z</time>
        <sat>10</sat>
      </trkpt>
      <trkpt lat="42.317085" lon="-4.549128">
        <ele>804.7</ele>
        <time>2020-08-24T08:34:28Z</time>
        <sat>10</sat>
      </trkpt>
      <trkpt lat="42.317117" lon="-4.549237">
        <ele>805.0</ele>
        <time>2020-08-24T08:34:34Z</time>
        <sat>10</sat>
      </trkpt>
      <trkpt lat="42.317154" lon="-4.549354">
        <ele>805.3</ele>
        <time>2020-08-24T08:34:41Z</time>
        <sat>10</sat>
      </trkpt>
      <trkpt lat="42.317178" lon="-4.549459">
        <ele>805.5</ele>
        <time>2020-08-24T08:34:47Z</time>
        <sat>10</sat>
      </trkpt>
      <trkpt lat="42.317214" lon="-4.549563">
        <ele>805.8</ele>
        <time>2020-08-24T08:34:53Z</time>
        <sat>10</sat>
      </trkpt>
      <trkpt lat="42.317247" lon="-4.549682">
        <ele>805.9</ele>
        <time>2020-08-24T08:35:00Z</time>
        <sat>10</sat>
      </trkpt>
      <trkpt lat="42.317282" lon="-4.549785">
        <ele>805.9</ele>
        <time>2020-08-24T08:35:06Z</time>
        <sat>10</sat>
      </trkpt>
      <trkpt lat="42.317320" lon="-4.549899">
        <ele>805.9</ele>
        <time>2020-08-24T08:35:13Z</time>
        <sat>10</sat>
      </trkpt>
      <trkpt lat="42.317358" lon="-4.550017">
        <ele>806.1</ele>
        <time>2020-08-24T08:35:20Z</time>
        <sat>10</sat>
      </trkpt>
      <trkpt lat="42.317397" lon="-4.550118">
        <ele>806.2</ele>
        <time>2020-08-24T08:35:26Z</time>
        <sat>10</sat>
      </trkpt>
      <trkpt lat="42.317426" lon="-4.550237">
        <ele>806.3</ele>
        <time>2020-08-24T08:35:33Z</time>
        <sat>10</sat>
      </trkpt>
      <trkpt lat="42.317459" lon="-4.550338">
        <ele>806.4</ele>
        <time>2020-08-24T08:35:39Z</time>
        <sat>10</sat>
      </trkpt>
      <trkpt lat="42.317487" lon="-4.550458">
        <ele>806.5</ele>
        <time>2020-08-24T08:35:46Z</time>
        <sat>10</sat>
      </trkpt>
      <trkpt lat="42.317523" lon="-4.550559">
        <ele>806.7</ele>
        <time>2020-08-24T08:35:52Z</time>
        <sat>10</sat>
      </trkpt>
      <trkpt lat="42.317555" lon="-4.550678">
        <ele>807.0</ele>
        <time>2020-08-24T08:35:59Z</time>
        <sat>9</sat>
      </trkpt>
      <trkpt lat="42.317595" lon="-4.550780">
        <ele>807.1</ele>
        <time>2020-08-24T08:36:05Z</time>
        <sat>10</sat>
      </trkpt>
      <trkpt lat="42.317629" lon="-4.550897">
        <ele>807.2</ele>
        <time>2020-08-24T08:36:12Z</time>
        <sat>10</sat>
      </trkpt>
      <trkpt lat="42.317663" lon="-4.551001">
        <ele>807.2</ele>
        <time>2020-08-24T08:36:18Z</time>
        <sat>10</sat>
      </trkpt>
      <trkpt lat="42.317696" lon="-4.551118">
        <ele>807.2</ele>
        <time>2020-08-24T08:36:25Z</time>
        <sat>10</sat>
      </trkpt>
      <trkpt lat="42.317726" lon="-4.551226">
        <ele>807.3</ele>
        <time>2020-08-24T08:36:31Z</time>
        <sat>10</sat>
      </trkpt>
      <trkpt lat="42.317764" lon="-4.551341">
        <ele>807.4</ele>
        <time>2020-08-24T08:36:38Z</time>
        <sat>10</sat>
      </trkpt>
      <trkpt lat="42.317794" lon="-4.551447">
        <ele>807.4</ele>
        <time>2020-08-24T08:36:44Z</time>
        <sat>10</sat>
      </trkpt>
      <trkpt lat="42.317830" lon="-4.551548">
        <ele>807.7</ele>
        <time>2020-08-24T08:36:50Z</time>
        <sat>10</sat>
      </trkpt>
      <trkpt lat="42.317859" lon="-4.551655">
        <ele>807.7</ele>
        <time>2020-08-24T08:36:56Z</time>
        <sat>10</sat>
      </trkpt>
      <trkpt lat="42.317893" lon="-4.551757">
        <ele>807.8</ele>
        <time>2020-08-24T08:37:02Z</time>
        <sat>10</sat>
      </trkpt>
      <trkpt lat="42.317929" lon="-4.551875">
        <ele>808.0</ele>
        <time>2020-08-24T08:37:09Z</time>
        <sat>10</sat>
      </trkpt>
      <trkpt lat="42.317960" lon="-4.551977">
        <ele>808.2</ele>
        <time>2020-08-24T08:37:15Z</time>
        <sat>10</sat>
      </trkpt>
      <trkpt lat="42.317991" lon="-4.552087">
        <ele>808.4</ele>
        <time>2020-08-24T08:37:21Z</time>
        <sat>10</sat>
      </trkpt>
      <trkpt lat="42.318027" lon="-4.552202">
        <ele>808.5</ele>
        <time>2020-08-24T08:37:28Z</time>
        <sat>10</sat>
      </trkpt>
      <trkpt lat="42.318062" lon="-4.552308">
        <ele>808.6</ele>
        <time>2020-08-24T08:37:34Z</time>
        <sat>10</sat>
      </trkpt>
      <trkpt lat="42.318096" lon="-4.552410">
        <ele>809.0</ele>
        <time>2020-08-24T08:37:40Z</time>
        <sat>10</sat>
      </trkpt>
      <trkpt lat="42.318126" lon="-4.552519">
        <ele>809.4</ele>
        <time>2020-08-24T08:37:46Z</time>
        <sat>10</sat>
      </trkpt>
      <trkpt lat="42.318162" lon="-4.552619">
        <ele>809.6</ele>
        <time>2020-08-24T08:37:52Z</time>
        <sat>10</sat>
      </trkpt>
      <trkpt lat="42.318188" lon="-4.552724">
        <ele>809.6</ele>
        <time>2020-08-24T08:37:58Z</time>
        <sat>10</sat>
      </trkpt>
      <trkpt lat="42.318222" lon="-4.552826">
        <ele>809.7</ele>
        <time>2020-08-24T08:38:04Z</time>
        <sat>10</sat>
      </trkpt>
      <trkpt lat="42.318250" lon="-4.552943">
        <ele>810.0</ele>
        <time>2020-08-24T08:38:11Z</time>
        <sat>10</sat>
      </trkpt>
      <trkpt lat="42.318286" lon="-4.553047">
        <ele>810.1</ele>
        <time>2020-08-24T08:38:17Z</time>
        <sat>10</sat>
      </trkpt>
      <trkpt lat="42.318319" lon="-4.553160">
        <ele>810.2</ele>
        <time>2020-08-24T08:38:24Z</time>
        <sat>10</sat>
      </trkpt>
      <trkpt lat="42.318351" lon="-4.553267">
        <ele>810.2</ele>
        <time>2020-08-24T08:38:30Z</time>
        <sat>10</sat>
      </trkpt>
      <trkpt lat="42.318385" lon="-4.553367">
        <ele>810.4</ele>
        <time>2020-08-24T08:38:36Z</time>
        <sat>10</sat>
      </trkpt>
      <trkpt lat="42.318414" lon="-4.553470">
        <ele>810.5</ele>
        <time>2020-08-24T08:38:42Z</time>
        <sat>10</sat>
      </trkpt>
      <trkpt lat="42.318449" lon="-4.553569">
        <ele>810.5</ele>
        <time>2020-08-24T08:38:48Z</time>
        <sat>10</sat>
      </trkpt>
      <trkpt lat="42.318478" lon="-4.553674">
        <ele>810.5</ele>
        <time>2020-08-24T08:38:54Z</time>
        <sat>10</sat>
      </trkpt>
      <trkpt lat="42.318512" lon="-4.553774">
        <ele>810.6</ele>
        <time>2020-08-24T08:39:00Z</time>
        <sat>10</sat>
      </trkpt>
      <trkpt lat="42.318542" lon="-4.553878">
        <ele>810.6</ele>
        <time>2020-08-24T08:39:06Z</time>
        <sat>10</sat>
      </trkpt>
      <trkpt lat="42.318575" lon="-4.553982">
        <ele>810.8</ele>
        <time>2020-08-24T08:39:12Z</time>
        <sat>10</sat>
      </trkpt>
      <trkpt lat="42.318599" lon="-4.554088">
        <ele>811.0</ele>
        <time>2020-08-24T08:39:19Z</time>
        <sat>10</sat>
      </trkpt>
      <trkpt lat="42.318635" lon="-4.554188">
        <ele>811.0</ele>
        <time>2020-08-24T08:39:27Z</time>
        <sat>10</sat>
      </trkpt>
      <trkpt lat="42.318675" lon="-4.554303">
        <ele>811.0</ele>
        <time>2020-08-24T08:39:34Z</time>
        <sat>10</sat>
      </trkpt>
      <trkpt lat="42.318704" lon="-4.554422">
        <ele>811.0</ele>
        <time>2020-08-24T08:39:41Z</time>
        <sat>9</sat>
      </trkpt>
      <trkpt lat="42.318743" lon="-4.554538">
        <ele>811.1</ele>
        <time>2020-08-24T08:39:48Z</time>
        <sat>10</sat>
      </trkpt>
      <trkpt lat="42.318774" lon="-4.554641">
        <ele>811.1</ele>
        <time>2020-08-24T08:39:54Z</time>
        <sat>10</sat>
      </trkpt>
      <trkpt lat="42.318814" lon="-4.554744">
        <ele>811.1</ele>
        <time>2020-08-24T08:40:00Z</time>
        <sat>10</sat>
      </trkpt>
      <trkpt lat="42.318842" lon="-4.554863">
        <ele>810.9</ele>
        <time>2020-08-24T08:40:07Z</time>
        <sat>9</sat>
      </trkpt>
      <trkpt lat="42.318877" lon="-4.554967">
        <ele>810.9</ele>
        <time>2020-08-24T08:40:13Z</time>
        <sat>10</sat>
      </trkpt>
      <trkpt lat="42.318913" lon="-4.555070">
        <ele>810.9</ele>
        <time>2020-08-24T08:40:19Z</time>
        <sat>9</sat>
      </trkpt>
      <trkpt lat="42.318945" lon="-4.555177">
        <ele>810.9</ele>
        <time>2020-08-24T08:40:25Z</time>
        <sat>10</sat>
      </trkpt>
      <trkpt lat="42.318986" lon="-4.555292">
        <ele>811.0</ele>
        <time>2020-08-24T08:40:32Z</time>
        <sat>10</sat>
      </trkpt>
      <trkpt lat="42.319024" lon="-4.555405">
        <ele>811.2</ele>
        <time>2020-08-24T08:40:39Z</time>
        <sat>10</sat>
      </trkpt>
      <trkpt lat="42.319056" lon="-4.555524">
        <ele>811.3</ele>
        <time>2020-08-24T08:40:46Z</time>
        <sat>10</sat>
      </trkpt>
      <trkpt lat="42.319092" lon="-4.555640">
        <ele>811.5</ele>
        <time>2020-08-24T08:40:53Z</time>
        <sat>10</sat>
      </trkpt>
      <trkpt lat="42.319119" lon="-4.555763">
        <ele>811.8</ele>
        <time>2020-08-24T08:41:00Z</time>
        <sat>10</sat>
      </trkpt>
      <trkpt lat="42.319151" lon="-4.555881">
        <ele>811.9</ele>
        <time>2020-08-24T08:41:07Z</time>
        <sat>9</sat>
      </trkpt>
      <trkpt lat="42.319178" lon="-4.555984">
        <ele>812.0</ele>
        <time>2020-08-24T08:41:13Z</time>
        <sat>9</sat>
      </trkpt>
      <trkpt lat="42.319208" lon="-4.556098">
        <ele>812.1</ele>
        <time>2020-08-24T08:41:20Z</time>
        <sat>9</sat>
      </trkpt>
      <trkpt lat="42.319237" lon="-4.556204">
        <ele>812.3</ele>
        <time>2020-08-24T08:41:26Z</time>
        <sat>10</sat>
      </trkpt>
      <trkpt lat="42.319270" lon="-4.556323">
        <ele>812.5</ele>
        <time>2020-08-24T08:41:33Z</time>
        <sat>10</sat>
      </trkpt>
      <trkpt lat="42.319302" lon="-4.556423">
        <ele>812.8</ele>
        <time>2020-08-24T08:41:39Z</time>
        <sat>10</sat>
      </trkpt>
      <trkpt lat="42.319335" lon="-4.556539">
        <ele>812.9</ele>
        <time>2020-08-24T08:41:46Z</time>
        <sat>10</sat>
      </trkpt>
      <trkpt lat="42.319371" lon="-4.556645">
        <ele>812.9</ele>
        <time>2020-08-24T08:41:52Z</time>
        <sat>10</sat>
      </trkpt>
      <trkpt lat="42.319404" lon="-4.556761">
        <ele>813.0</ele>
        <time>2020-08-24T08:41:59Z</time>
        <sat>10</sat>
      </trkpt>
      <trkpt lat="42.319438" lon="-4.556865">
        <ele>813.0</ele>
        <time>2020-08-24T08:42:05Z</time>
        <sat>9</sat>
      </trkpt>
      <trkpt lat="42.319474" lon="-4.556980">
        <ele>813.0</ele>
        <time>2020-08-24T08:42:12Z</time>
        <sat>10</sat>
      </trkpt>
      <trkpt lat="42.319502" lon="-4.557084">
        <ele>813.0</ele>
        <time>2020-08-24T08:42:18Z</time>
        <sat>9</sat>
      </trkpt>
      <trkpt lat="42.319545" lon="-4.557192">
        <ele>813.0</ele>
        <time>2020-08-24T08:42:25Z</time>
        <sat>10</sat>
      </trkpt>
      <trkpt lat="42.319573" lon="-4.557307">
        <ele>812.9</ele>
        <time>2020-08-24T08:42:33Z</time>
        <sat>10</sat>
      </trkpt>
      <trkpt lat="42.319604" lon="-4.557420">
        <ele>813.1</ele>
        <time>2020-08-24T08:42:41Z</time>
        <sat>10</sat>
      </trkpt>
      <trkpt lat="42.319639" lon="-4.557521">
        <ele>813.3</ele>
        <time>2020-08-24T08:42:47Z</time>
        <sat>10</sat>
      </trkpt>
      <trkpt lat="42.319672" lon="-4.557636">
        <ele>813.3</ele>
        <time>2020-08-24T08:42:54Z</time>
        <sat>10</sat>
      </trkpt>
      <trkpt lat="42.319707" lon="-4.557749">
        <ele>813.5</ele>
        <time>2020-08-24T08:43:01Z</time>
        <sat>10</sat>
      </trkpt>
      <trkpt lat="42.319743" lon="-4.557853">
        <ele>813.7</ele>
        <time>2020-08-24T08:43:08Z</time>
        <sat>10</sat>
      </trkpt>
      <trkpt lat="42.319780" lon="-4.557966">
        <ele>814.0</ele>
        <time>2020-08-24T08:43:15Z</time>
        <sat>10</sat>
      </trkpt>
      <trkpt lat="42.319811" lon="-4.558079">
        <ele>814.3</ele>
        <time>2020-08-24T08:43:22Z</time>
        <sat>9</sat>
      </trkpt>
      <trkpt lat="42.319847" lon="-4.558179">
        <ele>814.6</ele>
        <time>2020-08-24T08:43:28Z</time>
        <sat>10</sat>
      </trkpt>
      <trkpt lat="42.319881" lon="-4.558298">
        <ele>814.9</ele>
        <time>2020-08-24T08:43:35Z</time>
        <sat>10</sat>
      </trkpt>
      <trkpt lat="42.319913" lon="-4.558413">
        <ele>815.1</ele>
        <time>2020-08-24T08:43:42Z</time>
        <sat>10</sat>
      </trkpt>
      <trkpt lat="42.319947" lon="-4.558514">
        <ele>815.3</ele>
        <time>2020-08-24T08:43:48Z</time>
        <sat>10</sat>
      </trkpt>
      <trkpt lat="42.319979" lon="-4.558627">
        <ele>815.6</ele>
        <time>2020-08-24T08:43:55Z</time>
        <sat>10</sat>
      </trkpt>
      <trkpt lat="42.320014" lon="-4.558742">
        <ele>815.8</ele>
        <time>2020-08-24T08:44:02Z</time>
        <sat>10</sat>
      </trkpt>
      <trkpt lat="42.320051" lon="-4.558859">
        <ele>816.1</ele>
        <time>2020-08-24T08:44:09Z</time>
        <sat>10</sat>
      </trkpt>
      <trkpt lat="42.320081" lon="-4.558969">
        <ele>816.5</ele>
        <time>2020-08-24T08:44:16Z</time>
        <sat>10</sat>
      </trkpt>
      <trkpt lat="42.320117" lon="-4.559085">
        <ele>816.6</ele>
        <time>2020-08-24T08:44:23Z</time>
        <sat>10</sat>
      </trkpt>
      <trkpt lat="42.320144" lon="-4.559192">
        <ele>816.7</ele>
        <time>2020-08-24T08:44:29Z</time>
        <sat>10</sat>
      </trkpt>
      <trkpt lat="42.320179" lon="-4.559294">
        <ele>816.7</ele>
        <time>2020-08-24T08:44:35Z</time>
        <sat>10</sat>
      </trkpt>
      <trkpt lat="42.320207" lon="-4.559409">
        <ele>816.9</ele>
        <time>2020-08-24T08:44:42Z</time>
        <sat>9</sat>
      </trkpt>
      <trkpt lat="42.320243" lon="-4.559527">
        <ele>817.0</ele>
        <time>2020-08-24T08:44:49Z</time>
        <sat>10</sat>
      </trkpt>
      <trkpt lat="42.320272" lon="-4.559629">
        <ele>816.9</ele>
        <time>2020-08-24T08:44:55Z</time>
        <sat>10</sat>
      </trkpt>
      <trkpt lat="42.320310" lon="-4.559728">
        <ele>816.9</ele>
        <time>2020-08-24T08:45:01Z</time>
        <sat>9</sat>
      </trkpt>
      <trkpt lat="42.320337" lon="-4.559835">
        <ele>816.9</ele>
        <time>2020-08-24T08:45:07Z</time>
        <sat>10</sat>
      </trkpt>
      <trkpt lat="42.320374" lon="-4.559939">
        <ele>816.9</ele>
        <time>2020-08-24T08:45:13Z</time>
        <sat>10</sat>
      </trkpt>
      <trkpt lat="42.320412" lon="-4.560056">
        <ele>816.7</ele>
        <time>2020-08-24T08:45:20Z</time>
        <sat>9</sat>
      </trkpt>
      <trkpt lat="42.320444" lon="-4.560163">
        <ele>816.8</ele>
        <time>2020-08-24T08:45:26Z</time>
        <sat>10</sat>
      </trkpt>
      <trkpt lat="42.320482" lon="-4.560274">
        <ele>816.8</ele>
        <time>2020-08-24T08:45:33Z</time>
        <sat>10</sat>
      </trkpt>
      <trkpt lat="42.320523" lon="-4.560375">
        <ele>817.1</ele>
        <time>2020-08-24T08:45:41Z</time>
        <sat>10</sat>
      </trkpt>
      <trkpt lat="42.320553" lon="-4.560483">
        <ele>817.3</ele>
        <time>2020-08-24T08:45:49Z</time>
        <sat>10</sat>
      </trkpt>
      <trkpt lat="42.320582" lon="-4.560597">
        <ele>817.4</ele>
        <time>2020-08-24T08:45:59Z</time>
        <sat>9</sat>
      </trkpt>
      <trkpt lat="42.320619" lon="-4.560709">
        <ele>817.4</ele>
        <time>2020-08-24T08:46:08Z</time>
        <sat>10</sat>
      </trkpt>
      <trkpt lat="42.320655" lon="-4.560813">
        <ele>817.1</ele>
        <time>2020-08-24T08:46:32Z</time>
        <sat>10</sat>
      </trkpt>
      <trkpt lat="42.320688" lon="-4.560916">
        <ele>817.0</ele>
        <time>2020-08-24T08:46:38Z</time>
        <sat>10</sat>
      </trkpt>
      <trkpt lat="42.320719" lon="-4.561033">
        <ele>817.0</ele>
        <time>2020-08-24T08:46:45Z</time>
        <sat>10</sat>
      </trkpt>
      <trkpt lat="42.320755" lon="-4.561134">
        <ele>817.0</ele>
        <time>2020-08-24T08:46:51Z</time>
        <sat>9</sat>
      </trkpt>
      <trkpt lat="42.320785" lon="-4.561247">
        <ele>817.0</ele>
        <time>2020-08-24T08:46:58Z</time>
        <sat>10</sat>
      </trkpt>
      <trkpt lat="42.320828" lon="-4.561345">
        <ele>816.9</ele>
        <time>2020-08-24T08:47:04Z</time>
        <sat>10</sat>
      </trkpt>
      <trkpt lat="42.320858" lon="-4.561463">
        <ele>816.8</ele>
        <time>2020-08-24T08:47:11Z</time>
        <sat>9</sat>
      </trkpt>
      <trkpt lat="42.320895" lon="-4.561577">
        <ele>816.9</ele>
        <time>2020-08-24T08:47:19Z</time>
        <sat>10</sat>
      </trkpt>
      <trkpt lat="42.320931" lon="-4.561693">
        <ele>816.9</ele>
        <time>2020-08-24T08:47:26Z</time>
        <sat>10</sat>
      </trkpt>
      <trkpt lat="42.320967" lon="-4.561810">
        <ele>817.1</ele>
        <time>2020-08-24T08:47:33Z</time>
        <sat>10</sat>
      </trkpt>
      <trkpt lat="42.320998" lon="-4.561924">
        <ele>817.2</ele>
        <time>2020-08-24T08:47:40Z</time>
        <sat>10</sat>
      </trkpt>
      <trkpt lat="42.321036" lon="-4.562037">
        <ele>817.4</ele>
        <time>2020-08-24T08:47:47Z</time>
        <sat>10</sat>
      </trkpt>
      <trkpt lat="42.321067" lon="-4.562153">
        <ele>817.7</ele>
        <time>2020-08-24T08:47:54Z</time>
        <sat>10</sat>
      </trkpt>
      <trkpt lat="42.321100" lon="-4.562269">
        <ele>817.9</ele>
        <time>2020-08-24T08:48:01Z</time>
        <sat>10</sat>
      </trkpt>
      <trkpt lat="42.321136" lon="-4.562383">
        <ele>818.1</ele>
        <time>2020-08-24T08:48:08Z</time>
        <sat>10</sat>
      </trkpt>
      <trkpt lat="42.321169" lon="-4.562496">
        <ele>818.2</ele>
        <time>2020-08-24T08:48:15Z</time>
        <sat>10</sat>
      </trkpt>
      <trkpt lat="42.321204" lon="-4.562610">
        <ele>818.4</ele>
        <time>2020-08-24T08:48:22Z</time>
        <sat>10</sat>
      </trkpt>
      <trkpt lat="42.321238" lon="-4.562710">
        <ele>818.5</ele>
        <time>2020-08-24T08:48:28Z</time>
        <sat>10</sat>
      </trkpt>
      <trkpt lat="42.321270" lon="-4.562823">
        <ele>818.8</ele>
        <time>2020-08-24T08:48:35Z</time>
        <sat>10</sat>
      </trkpt>
      <trkpt lat="42.321307" lon="-4.562922">
        <ele>818.9</ele>
        <time>2020-08-24T08:48:41Z</time>
        <sat>10</sat>
      </trkpt>
      <trkpt lat="42.321337" lon="-4.563041">
        <ele>819.1</ele>
        <time>2020-08-24T08:48:48Z</time>
        <sat>10</sat>
      </trkpt>
      <trkpt lat="42.321369" lon="-4.563146">
        <ele>819.4</ele>
        <time>2020-08-24T08:48:54Z</time>
        <sat>10</sat>
      </trkpt>
      <trkpt lat="42.321404" lon="-4.563260">
        <ele>819.5</ele>
        <time>2020-08-24T08:49:01Z</time>
        <sat>9</sat>
      </trkpt>
      <trkpt lat="42.321436" lon="-4.563373">
        <ele>820.0</ele>
        <time>2020-08-24T08:49:08Z</time>
        <sat>11</sat>
      </trkpt>
      <trkpt lat="42.321465" lon="-4.563477">
        <ele>820.4</ele>
        <time>2020-08-24T08:49:14Z</time>
        <sat>10</sat>
      </trkpt>
      <trkpt lat="42.321499" lon="-4.563594">
        <ele>820.7</ele>
        <time>2020-08-24T08:49:21Z</time>
        <sat>11</sat>
      </trkpt>
      <trkpt lat="42.321533" lon="-4.563696">
        <ele>821.0</ele>
        <time>2020-08-24T08:49:27Z</time>
        <sat>11</sat>
      </trkpt>
      <trkpt lat="42.321563" lon="-4.563811">
        <ele>821.4</ele>
        <time>2020-08-24T08:49:34Z</time>
        <sat>11</sat>
      </trkpt>
      <trkpt lat="42.321601" lon="-4.563924">
        <ele>821.8</ele>
        <time>2020-08-24T08:49:41Z</time>
        <sat>11</sat>
      </trkpt>
      <trkpt lat="42.321633" lon="-4.564025">
        <ele>822.3</ele>
        <time>2020-08-24T08:49:47Z</time>
        <sat>11</sat>
      </trkpt>
      <trkpt lat="42.321669" lon="-4.564142">
        <ele>822.8</ele>
        <time>2020-08-24T08:49:54Z</time>
        <sat>11</sat>
      </trkpt>
      <trkpt lat="42.321709" lon="-4.564245">
        <ele>823.2</ele>
        <time>2020-08-24T08:50:00Z</time>
        <sat>11</sat>
      </trkpt>
      <trkpt lat="42.321735" lon="-4.564351">
        <ele>823.8</ele>
        <time>2020-08-24T08:50:06Z</time>
        <sat>11</sat>
      </trkpt>
      <trkpt lat="42.321776" lon="-4.564453">
        <ele>824.2</ele>
        <time>2020-08-24T08:50:12Z</time>
        <sat>11</sat>
      </trkpt>
      <trkpt lat="42.321800" lon="-4.564559">
        <ele>824.6</ele>
        <time>2020-08-24T08:50:18Z</time>
        <sat>11</sat>
      </trkpt>
      <trkpt lat="42.321827" lon="-4.564679">
        <ele>825.1</ele>
        <time>2020-08-24T08:50:25Z</time>
        <sat>11</sat>
      </trkpt>
      <trkpt lat="42.321858" lon="-4.564798">
        <ele>825.3</ele>
        <time>2020-08-24T08:50:32Z</time>
        <sat>11</sat>
      </trkpt>
      <trkpt lat="42.321897" lon="-4.564910">
        <ele>825.6</ele>
        <time>2020-08-24T08:50:39Z</time>
        <sat>11</sat>
      </trkpt>
      <trkpt lat="42.321929" lon="-4.565029">
        <ele>825.8</ele>
        <time>2020-08-24T08:50:46Z</time>
        <sat>11</sat>
      </trkpt>
      <trkpt lat="42.321964" lon="-4.565129">
        <ele>825.8</ele>
        <time>2020-08-24T08:50:52Z</time>
        <sat>11</sat>
      </trkpt>
      <trkpt lat="42.321999" lon="-4.565247">
        <ele>825.8</ele>
        <time>2020-08-24T08:50:59Z</time>
        <sat>11</sat>
      </trkpt>
      <trkpt lat="42.322037" lon="-4.565349">
        <ele>826.0</ele>
        <time>2020-08-24T08:51:05Z</time>
        <sat>11</sat>
      </trkpt>
      <trkpt lat="42.322067" lon="-4.565452">
        <ele>826.2</ele>
        <time>2020-08-24T08:51:11Z</time>
        <sat>11</sat>
      </trkpt>
      <trkpt lat="42.322103" lon="-4.565556">
        <ele>826.2</ele>
        <time>2020-08-24T08:51:17Z</time>
        <sat>11</sat>
      </trkpt>
      <trkpt lat="42.322136" lon="-4.565674">
        <ele>826.6</ele>
        <time>2020-08-24T08:51:24Z</time>
        <sat>11</sat>
      </trkpt>
      <trkpt lat="42.322172" lon="-4.565774">
        <ele>826.8</ele>
        <time>2020-08-24T08:51:30Z</time>
        <sat>11</sat>
      </trkpt>
      <trkpt lat="42.322199" lon="-4.565881">
        <ele>826.9</ele>
        <time>2020-08-24T08:51:36Z</time>
        <sat>11</sat>
      </trkpt>
      <trkpt lat="42.322232" lon="-4.565980">
        <ele>827.1</ele>
        <time>2020-08-24T08:51:42Z</time>
        <sat>11</sat>
      </trkpt>
      <trkpt lat="42.322269" lon="-4.566097">
        <ele>827.4</ele>
        <time>2020-08-24T08:51:49Z</time>
        <sat>11</sat>
      </trkpt>
      <trkpt lat="42.322308" lon="-4.566209">
        <ele>827.8</ele>
        <time>2020-08-24T08:51:56Z</time>
        <sat>11</sat>
      </trkpt>
      <trkpt lat="42.322342" lon="-4.566312">
        <ele>828.1</ele>
        <time>2020-08-24T08:52:02Z</time>
        <sat>11</sat>
      </trkpt>
      <trkpt lat="42.322372" lon="-4.566421">
        <ele>828.3</ele>
        <time>2020-08-24T08:52:09Z</time>
        <sat>11</sat>
      </trkpt>
      <trkpt lat="42.322410" lon="-4.566519">
        <ele>828.5</ele>
        <time>2020-08-24T08:52:15Z</time>
        <sat>11</sat>
      </trkpt>
      <trkpt lat="42.322443" lon="-4.566619">
        <ele>828.9</ele>
        <time>2020-08-24T08:52:21Z</time>
        <sat>11</sat>
      </trkpt>
      <trkpt lat="42.322482" lon="-4.566718">
        <ele>829.4</ele>
        <time>2020-08-24T08:52:27Z</time>
        <sat>11</sat>
      </trkpt>
      <trkpt lat="42.322519" lon="-4.566818">
        <ele>829.8</ele>
        <time>2020-08-24T08:52:33Z</time>
        <sat>10</sat>
      </trkpt>
      <trkpt lat="42.322565" lon="-4.566912">
        <ele>830.0</ele>
        <time>2020-08-24T08:52:39Z</time>
        <sat>11</sat>
      </trkpt>
      <trkpt lat="42.322608" lon="-4.567026">
        <ele>830.4</ele>
        <time>2020-08-24T08:52:46Z</time>
        <sat>11</sat>
      </trkpt>
      <trkpt lat="42.322655" lon="-4.567118">
        <ele>830.9</ele>
        <time>2020-08-24T08:52:52Z</time>
        <sat>11</sat>
      </trkpt>
      <trkpt lat="42.322687" lon="-4.567219">
        <ele>831.3</ele>
        <time>2020-08-24T08:52:58Z</time>
        <sat>11</sat>
      </trkpt>
      <trkpt lat="42.322735" lon="-4.567311">
        <ele>831.8</ele>
        <time>2020-08-24T08:53:04Z</time>
        <sat>11</sat>
      </trkpt>
      <trkpt lat="42.322776" lon="-4.567409">
        <ele>832.4</ele>
        <time>2020-08-24T08:53:10Z</time>
        <sat>11</sat>
      </trkpt>
      <trkpt lat="42.322822" lon="-4.567501">
        <ele>832.9</ele>
        <time>2020-08-24T08:53:16Z</time>
        <sat>11</sat>
      </trkpt>
      <trkpt lat="42.322856" lon="-4.567604">
        <ele>833.3</ele>
        <time>2020-08-24T08:53:22Z</time>
        <sat>11</sat>
      </trkpt>
      <trkpt lat="42.322905" lon="-4.567704">
        <ele>833.7</ele>
        <time>2020-08-24T08:53:28Z</time>
        <sat>11</sat>
      </trkpt>
      <trkpt lat="42.322949" lon="-4.567818">
        <ele>834.2</ele>
        <time>2020-08-24T08:53:35Z</time>
        <sat>11</sat>
      </trkpt>
      <trkpt lat="42.322986" lon="-4.567917">
        <ele>834.6</ele>
        <time>2020-08-24T08:53:43Z</time>
        <sat>11</sat>
      </trkpt>
      <trkpt lat="42.323044" lon="-4.568011">
        <ele>834.8</ele>
        <time>2020-08-24T08:53:50Z</time>
        <sat>11</sat>
      </trkpt>
      <trkpt lat="42.323081" lon="-4.568115">
        <ele>835.0</ele>
        <time>2020-08-24T08:53:57Z</time>
        <sat>11</sat>
      </trkpt>
      <trkpt lat="42.323127" lon="-4.568209">
        <ele>835.2</ele>
        <time>2020-08-24T08:54:03Z</time>
        <sat>11</sat>
      </trkpt>
      <trkpt lat="42.323166" lon="-4.568324">
        <ele>835.3</ele>
        <time>2020-08-24T08:54:10Z</time>
        <sat>11</sat>
      </trkpt>
      <trkpt lat="42.323212" lon="-4.568422">
        <ele>835.3</ele>
        <time>2020-08-24T08:54:16Z</time>
        <sat>11</sat>
      </trkpt>
      <trkpt lat="42.323252" lon="-4.568530">
        <ele>835.5</ele>
        <time>2020-08-24T08:54:23Z</time>
        <sat>11</sat>
      </trkpt>
      <trkpt lat="42.323296" lon="-4.568631">
        <ele>835.8</ele>
        <time>2020-08-24T08:54:29Z</time>
        <sat>11</sat>
      </trkpt>
      <trkpt lat="42.323341" lon="-4.568741">
        <ele>836.2</ele>
        <time>2020-08-24T08:54:37Z</time>
        <sat>11</sat>
      </trkpt>
      <trkpt lat="42.323392" lon="-4.568847">
        <ele>836.4</ele>
        <time>2020-08-24T08:54:44Z</time>
        <sat>11</sat>
      </trkpt>
      <trkpt lat="42.323429" lon="-4.568949">
        <ele>836.8</ele>
        <time>2020-08-24T08:54:50Z</time>
        <sat>11</sat>
      </trkpt>
      <trkpt lat="42.323476" lon="-4.569058">
        <ele>837.0</ele>
        <time>2020-08-24T08:54:57Z</time>
        <sat>11</sat>
      </trkpt>
      <trkpt lat="42.323511" lon="-4.569159">
        <ele>837.2</ele>
        <time>2020-08-24T08:55:03Z</time>
        <sat>11</sat>
      </trkpt>
      <trkpt lat="42.323558" lon="-4.569255">
        <ele>837.3</ele>
        <time>2020-08-24T08:55:09Z</time>
        <sat>11</sat>
      </trkpt>
      <trkpt lat="42.323593" lon="-4.569355">
        <ele>837.5</ele>
        <time>2020-08-24T08:55:15Z</time>
        <sat>11</sat>
      </trkpt>
      <trkpt lat="42.323642" lon="-4.569451">
        <ele>837.7</ele>
        <time>2020-08-24T08:55:21Z</time>
        <sat>11</sat>
      </trkpt>
      <trkpt lat="42.323639" lon="-4.569454">
        <ele>838.2</ele>
        <time>2020-08-24T08:55:38Z</time>
        <sat>11</sat>
      </trkpt>
      <trkpt lat="42.323672" lon="-4.569555">
        <ele>838.0</ele>
        <time>2020-08-24T08:56:40Z</time>
        <sat>11</sat>
      </trkpt>
      <trkpt lat="42.323714" lon="-4.569653">
        <ele>837.8</ele>
        <time>2020-08-24T08:56:46Z</time>
        <sat>11</sat>
      </trkpt>
      <trkpt lat="42.323752" lon="-4.569752">
        <ele>837.7</ele>
        <time>2020-08-24T08:56:52Z</time>
        <sat>11</sat>
      </trkpt>
      <trkpt lat="42.323793" lon="-4.569860">
        <ele>838.0</ele>
        <time>2020-08-24T08:56:58Z</time>
        <sat>11</sat>
      </trkpt>
      <trkpt lat="42.323842" lon="-4.569958">
        <ele>838.1</ele>
        <time>2020-08-24T08:57:04Z</time>
        <sat>10</sat>
      </trkpt>
      <trkpt lat="42.323885" lon="-4.570052">
        <ele>838.2</ele>
        <time>2020-08-24T08:57:10Z</time>
        <sat>11</sat>
      </trkpt>
      <trkpt lat="42.323930" lon="-4.570163">
        <ele>838.3</ele>
        <time>2020-08-24T08:57:17Z</time>
        <sat>11</sat>
      </trkpt>
      <trkpt lat="42.323980" lon="-4.570269">
        <ele>838.5</ele>
        <time>2020-08-24T08:57:24Z</time>
        <sat>11</sat>
      </trkpt>
      <trkpt lat="42.324017" lon="-4.570371">
        <ele>838.8</ele>
        <time>2020-08-24T08:57:30Z</time>
        <sat>11</sat>
      </trkpt>
      <trkpt lat="42.324070" lon="-4.570474">
        <ele>839.0</ele>
        <time>2020-08-24T08:57:37Z</time>
        <sat>10</sat>
      </trkpt>
      <trkpt lat="42.324110" lon="-4.570575">
        <ele>839.1</ele>
        <time>2020-08-24T08:57:43Z</time>
        <sat>11</sat>
      </trkpt>
      <trkpt lat="42.324161" lon="-4.570672">
        <ele>839.2</ele>
        <time>2020-08-24T08:57:49Z</time>
        <sat>11</sat>
      </trkpt>
      <trkpt lat="42.324206" lon="-4.570782">
        <ele>839.5</ele>
        <time>2020-08-24T08:57:56Z</time>
        <sat>11</sat>
      </trkpt>
      <trkpt lat="42.324251" lon="-4.570873">
        <ele>839.6</ele>
        <time>2020-08-24T08:58:03Z</time>
        <sat>11</sat>
      </trkpt>
      <trkpt lat="42.324300" lon="-4.570977">
        <ele>839.7</ele>
        <time>2020-08-24T08:58:10Z</time>
        <sat>11</sat>
      </trkpt>
      <trkpt lat="42.324352" lon="-4.571073">
        <ele>839.8</ele>
        <time>2020-08-24T08:58:17Z</time>
        <sat>11</sat>
      </trkpt>
      <trkpt lat="42.324394" lon="-4.571167">
        <ele>839.8</ele>
        <time>2020-08-24T08:58:23Z</time>
        <sat>11</sat>
      </trkpt>
      <trkpt lat="42.324450" lon="-4.571268">
        <ele>839.8</ele>
        <time>2020-08-24T08:58:30Z</time>
        <sat>11</sat>
      </trkpt>
      <trkpt lat="42.324501" lon="-4.571374">
        <ele>839.6</ele>
        <time>2020-08-24T08:58:38Z</time>
        <sat>12</sat>
      </trkpt>
      <trkpt lat="42.324552" lon="-4.571462">
        <ele>839.6</ele>
        <time>2020-08-24T08:58:44Z</time>
        <sat>12</sat>
      </trkpt>
      <trkpt lat="42.324603" lon="-4.571548">
        <ele>839.5</ele>
        <time>2020-08-24T08:58:50Z</time>
        <sat>12</sat>
      </trkpt>
      <trkpt lat="42.324651" lon="-4.571650">
        <ele>839.1</ele>
        <time>2020-08-24T08:58:57Z</time>
        <sat>12</sat>
      </trkpt>
      <trkpt lat="42.324696" lon="-4.571744">
        <ele>838.6</ele>
        <time>2020-08-24T08:59:03Z</time>
        <sat>12</sat>
      </trkpt>
      <trkpt lat="42.324753" lon="-4.571843">
        <ele>838.4</ele>
        <time>2020-08-24T08:59:10Z</time>
        <sat>12</sat>
      </trkpt>
      <trkpt lat="42.324804" lon="-4.571947">
        <ele>838.2</ele>
        <time>2020-08-24T08:59:17Z</time>
        <sat>12</sat>
      </trkpt>
      <trkpt lat="42.324852" lon="-4.572045">
        <ele>838.1</ele>
        <time>2020-08-24T08:59:24Z</time>
        <sat>12</sat>
      </trkpt>
      <trkpt lat="42.324897" lon="-4.572138">
        <ele>838.1</ele>
        <time>2020-08-24T08:59:30Z</time>
        <sat>12</sat>
      </trkpt>
      <trkpt lat="42.324953" lon="-4.572238">
        <ele>838.1</ele>
        <time>2020-08-24T08:59:37Z</time>
        <sat>12</sat>
      </trkpt>
      <trkpt lat="42.324996" lon="-4.572332">
        <ele>838.0</ele>
        <time>2020-08-24T08:59:43Z</time>
        <sat>12</sat>
      </trkpt>
      <trkpt lat="42.325054" lon="-4.572429">
        <ele>838.3</ele>
        <time>2020-08-24T08:59:50Z</time>
        <sat>12</sat>
      </trkpt>
      <trkpt lat="42.325111" lon="-4.572526">
        <ele>838.4</ele>
        <time>2020-08-24T08:59:57Z</time>
        <sat>12</sat>
      </trkpt>
      <trkpt lat="42.325159" lon="-4.572635">
        <ele>838.3</ele>
        <time>2020-08-24T09:00:04Z</time>
        <sat>12</sat>
      </trkpt>
      <trkpt lat="42.325207" lon="-4.572728">
        <ele>838.4</ele>
        <time>2020-08-24T09:00:10Z</time>
        <sat>12</sat>
      </trkpt>
      <trkpt lat="42.325261" lon="-4.572828">
        <ele>838.6</ele>
        <time>2020-08-24T09:00:17Z</time>
        <sat>12</sat>
      </trkpt>
      <trkpt lat="42.325308" lon="-4.572920">
        <ele>838.7</ele>
        <time>2020-08-24T09:00:23Z</time>
        <sat>12</sat>
      </trkpt>
      <trkpt lat="42.325365" lon="-4.573017">
        <ele>838.8</ele>
        <time>2020-08-24T09:00:30Z</time>
        <sat>12</sat>
      </trkpt>
      <trkpt lat="42.325418" lon="-4.573122">
        <ele>838.6</ele>
        <time>2020-08-24T09:00:37Z</time>
        <sat>12</sat>
      </trkpt>
      <trkpt lat="42.325472" lon="-4.573225">
        <ele>838.4</ele>
        <time>2020-08-24T09:00:44Z</time>
        <sat>12</sat>
      </trkpt>
      <trkpt lat="42.325519" lon="-4.573315">
        <ele>838.3</ele>
        <time>2020-08-24T09:00:50Z</time>
        <sat>12</sat>
      </trkpt>
      <trkpt lat="42.325570" lon="-4.573401">
        <ele>838.3</ele>
        <time>2020-08-24T09:00:56Z</time>
        <sat>12</sat>
      </trkpt>
      <trkpt lat="42.325611" lon="-4.573497">
        <ele>838.3</ele>
        <time>2020-08-24T09:01:02Z</time>
        <sat>12</sat>
      </trkpt>
      <trkpt lat="42.325661" lon="-4.573584">
        <ele>838.5</ele>
        <time>2020-08-24T09:01:08Z</time>
        <sat>12</sat>
      </trkpt>
      <trkpt lat="42.325705" lon="-4.573677">
        <ele>838.6</ele>
        <time>2020-08-24T09:01:14Z</time>
        <sat>11</sat>
      </trkpt>
      <trkpt lat="42.325756" lon="-4.573767">
        <ele>838.8</ele>
        <time>2020-08-24T09:01:20Z</time>
        <sat>12</sat>
      </trkpt>
      <trkpt lat="42.325807" lon="-4.573870">
        <ele>838.9</ele>
        <time>2020-08-24T09:01:27Z</time>
        <sat>12</sat>
      </trkpt>
      <trkpt lat="42.325852" lon="-4.573967">
        <ele>839.0</ele>
        <time>2020-08-24T09:01:33Z</time>
        <sat>12</sat>
      </trkpt>
      <trkpt lat="42.325901" lon="-4.574055">
        <ele>839.3</ele>
        <time>2020-08-24T09:01:39Z</time>
        <sat>12</sat>
      </trkpt>
      <trkpt lat="42.325944" lon="-4.574149">
        <ele>839.3</ele>
        <time>2020-08-24T09:01:45Z</time>
        <sat>12</sat>
      </trkpt>
      <trkpt lat="42.325991" lon="-4.574244">
        <ele>839.4</ele>
        <time>2020-08-24T09:01:51Z</time>
        <sat>12</sat>
      </trkpt>
      <trkpt lat="42.326042" lon="-4.574348">
        <ele>839.6</ele>
        <time>2020-08-24T09:01:58Z</time>
        <sat>12</sat>
      </trkpt>
      <trkpt lat="42.326092" lon="-4.574436">
        <ele>839.8</ele>
        <time>2020-08-24T09:02:04Z</time>
        <sat>12</sat>
      </trkpt>
      <trkpt lat="42.326146" lon="-4.574538">
        <ele>840.0</ele>
        <time>2020-08-24T09:02:11Z</time>
        <sat>12</sat>
      </trkpt>
      <trkpt lat="42.326191" lon="-4.574629">
        <ele>840.1</ele>
        <time>2020-08-24T09:02:17Z</time>
        <sat>12</sat>
      </trkpt>
      <trkpt lat="42.326242" lon="-4.574732">
        <ele>840.4</ele>
        <time>2020-08-24T09:02:24Z</time>
        <sat>12</sat>
      </trkpt>
      <trkpt lat="42.326299" lon="-4.574833">
        <ele>840.7</ele>
        <time>2020-08-24T09:02:31Z</time>
        <sat>12</sat>
      </trkpt>
      <trkpt lat="42.326343" lon="-4.574933">
        <ele>840.9</ele>
        <time>2020-08-24T09:02:37Z</time>
        <sat>12</sat>
      </trkpt>
      <trkpt lat="42.326397" lon="-4.575022">
        <ele>841.1</ele>
        <time>2020-08-24T09:02:43Z</time>
        <sat>12</sat>
      </trkpt>
      <trkpt lat="42.326445" lon="-4.575133">
        <ele>841.4</ele>
        <time>2020-08-24T09:02:50Z</time>
        <sat>12</sat>
      </trkpt>
      <trkpt lat="42.326496" lon="-4.575222">
        <ele>841.5</ele>
        <time>2020-08-24T09:02:56Z</time>
        <sat>12</sat>
      </trkpt>
      <trkpt lat="42.326540" lon="-4.575315">
        <ele>841.6</ele>
        <time>2020-08-24T09:03:02Z</time>
        <sat>12</sat>
      </trkpt>
      <trkpt lat="42.326592" lon="-4.575408">
        <ele>841.5</ele>
        <time>2020-08-24T09:03:08Z</time>
        <sat>12</sat>
      </trkpt>
      <trkpt lat="42.326644" lon="-4.575511">
        <ele>841.6</ele>
        <time>2020-08-24T09:03:15Z</time>
        <sat>12</sat>
      </trkpt>
      <trkpt lat="42.326691" lon="-4.575607">
        <ele>841.8</ele>
        <time>2020-08-24T09:03:21Z</time>
        <sat>12</sat>
      </trkpt>
      <trkpt lat="42.326748" lon="-4.575708">
        <ele>841.9</ele>
        <time>2020-08-24T09:03:28Z</time>
        <sat>12</sat>
      </trkpt>
      <trkpt lat="42.326793" lon="-4.575804">
        <ele>842.0</ele>
        <time>2020-08-24T09:03:34Z</time>
        <sat>12</sat>
      </trkpt>
      <trkpt lat="42.326848" lon="-4.575895">
        <ele>842.2</ele>
        <time>2020-08-24T09:03:40Z</time>
        <sat>12</sat>
      </trkpt>
      <trkpt lat="42.326898" lon="-4.576001">
        <ele>842.4</ele>
        <time>2020-08-24T09:03:47Z</time>
        <sat>12</sat>
      </trkpt>
      <trkpt lat="42.326949" lon="-4.576096">
        <ele>842.6</ele>
        <time>2020-08-24T09:03:53Z</time>
        <sat>12</sat>
      </trkpt>
      <trkpt lat="42.326996" lon="-4.576186">
        <ele>842.7</ele>
        <time>2020-08-24T09:03:59Z</time>
        <sat>12</sat>
      </trkpt>
      <trkpt lat="42.327040" lon="-4.576281">
        <ele>842.8</ele>
        <time>2020-08-24T09:04:05Z</time>
        <sat>12</sat>
      </trkpt>
      <trkpt lat="42.327091" lon="-4.576368">
        <ele>842.9</ele>
        <time>2020-08-24T09:04:11Z</time>
        <sat>12</sat>
      </trkpt>
      <trkpt lat="42.327136" lon="-4.576466">
        <ele>843.0</ele>
        <time>2020-08-24T09:04:17Z</time>
        <sat>12</sat>
      </trkpt>
      <trkpt lat="42.327186" lon="-4.576556">
        <ele>843.1</ele>
        <time>2020-08-24T09:04:23Z</time>
        <sat>12</sat>
      </trkpt>
      <trkpt lat="42.327238" lon="-4.576661">
        <ele>843.1</ele>
        <time>2020-08-24T09:04:30Z</time>
        <sat>12</sat>
      </trkpt>
      <trkpt lat="42.327289" lon="-4.576756">
        <ele>843.2</ele>
        <time>2020-08-24T09:04:36Z</time>
        <sat>12</sat>
      </trkpt>
      <trkpt lat="42.327345" lon="-4.576856">
        <ele>843.2</ele>
        <time>2020-08-24T09:04:43Z</time>
        <sat>12</sat>
      </trkpt>
      <trkpt lat="42.327390" lon="-4.576952">
        <ele>843.2</ele>
        <time>2020-08-24T09:04:49Z</time>
        <sat>12</sat>
      </trkpt>
      <trkpt lat="42.327442" lon="-4.577039">
        <ele>843.4</ele>
        <time>2020-08-24T09:04:55Z</time>
        <sat>12</sat>
      </trkpt>
      <trkpt lat="42.327485" lon="-4.577132">
        <ele>843.6</ele>
        <time>2020-08-24T09:05:01Z</time>
        <sat>12</sat>
      </trkpt>
      <trkpt lat="42.327539" lon="-4.577225">
        <ele>843.7</ele>
        <time>2020-08-24T09:05:07Z</time>
        <sat>12</sat>
      </trkpt>
      <trkpt lat="42.327589" lon="-4.577328">
        <ele>843.7</ele>
        <time>2020-08-24T09:05:14Z</time>
        <sat>12</sat>
      </trkpt>
      <trkpt lat="42.327637" lon="-4.577424">
        <ele>843.7</ele>
        <time>2020-08-24T09:05:20Z</time>
        <sat>12</sat>
      </trkpt>
      <trkpt lat="42.327693" lon="-4.577521">
        <ele>843.6</ele>
        <time>2020-08-24T09:05:27Z</time>
        <sat>12</sat>
      </trkpt>
      <trkpt lat="42.327745" lon="-4.577627">
        <ele>843.6</ele>
        <time>2020-08-24T09:05:34Z</time>
        <sat>12</sat>
      </trkpt>
      <trkpt lat="42.327795" lon="-4.577726">
        <ele>843.6</ele>
        <time>2020-08-24T09:05:41Z</time>
        <sat>12</sat>
      </trkpt>
      <trkpt lat="42.327848" lon="-4.577829">
        <ele>843.6</ele>
        <time>2020-08-24T09:05:48Z</time>
        <sat>12</sat>
      </trkpt>
      <trkpt lat="42.327897" lon="-4.577933">
        <ele>843.6</ele>
        <time>2020-08-24T09:05:55Z</time>
        <sat>12</sat>
      </trkpt>
      <trkpt lat="42.327952" lon="-4.578035">
        <ele>843.4</ele>
        <time>2020-08-24T09:06:02Z</time>
        <sat>12</sat>
      </trkpt>
      <trkpt lat="42.328000" lon="-4.578142">
        <ele>843.2</ele>
        <time>2020-08-24T09:06:09Z</time>
        <sat>12</sat>
      </trkpt>
      <trkpt lat="42.328055" lon="-4.578234">
        <ele>843.1</ele>
        <time>2020-08-24T09:06:16Z</time>
        <sat>12</sat>
      </trkpt>
      <trkpt lat="42.328104" lon="-4.578341">
        <ele>843.1</ele>
        <time>2020-08-24T09:06:23Z</time>
        <sat>12</sat>
      </trkpt>
      <trkpt lat="42.328158" lon="-4.578430">
        <ele>843.1</ele>
        <time>2020-08-24T09:06:29Z</time>
        <sat>12</sat>
      </trkpt>
      <trkpt lat="42.328211" lon="-4.578536">
        <ele>842.9</ele>
        <time>2020-08-24T09:06:36Z</time>
        <sat>12</sat>
      </trkpt>
      <trkpt lat="42.328261" lon="-4.578631">
        <ele>842.8</ele>
        <time>2020-08-24T09:06:42Z</time>
        <sat>11</sat>
      </trkpt>
      <trkpt lat="42.328309" lon="-4.578720">
        <ele>842.6</ele>
        <time>2020-08-24T09:06:48Z</time>
        <sat>11</sat>
      </trkpt>
      <trkpt lat="42.328353" lon="-4.578812">
        <ele>842.5</ele>
        <time>2020-08-24T09:06:54Z</time>
        <sat>11</sat>
      </trkpt>
      <trkpt lat="42.328410" lon="-4.578904">
        <ele>842.3</ele>
        <time>2020-08-24T09:07:00Z</time>
        <sat>11</sat>
      </trkpt>
      <trkpt lat="42.328465" lon="-4.579006">
        <ele>842.1</ele>
        <time>2020-08-24T09:07:07Z</time>
        <sat>11</sat>
      </trkpt>
      <trkpt lat="42.328517" lon="-4.579111">
        <ele>841.8</ele>
        <time>2020-08-24T09:07:14Z</time>
        <sat>11</sat>
      </trkpt>
      <trkpt lat="42.328566" lon="-4.579209">
        <ele>841.3</ele>
        <time>2020-08-24T09:07:21Z</time>
        <sat>11</sat>
      </trkpt>
      <trkpt lat="42.328619" lon="-4.579309">
        <ele>840.9</ele>
        <time>2020-08-24T09:07:28Z</time>
        <sat>11</sat>
      </trkpt>
      <trkpt lat="42.328667" lon="-4.579410">
        <ele>840.5</ele>
        <time>2020-08-24T09:07:35Z</time>
        <sat>11</sat>
      </trkpt>
      <trkpt lat="42.328714" lon="-4.579501">
        <ele>840.0</ele>
        <time>2020-08-24T09:07:41Z</time>
        <sat>11</sat>
      </trkpt>
      <trkpt lat="42.328753" lon="-4.579604">
        <ele>839.5</ele>
        <time>2020-08-24T09:07:48Z</time>
        <sat>11</sat>
      </trkpt>
      <trkpt lat="42.328807" lon="-4.579699">
        <ele>839.1</ele>
        <time>2020-08-24T09:07:55Z</time>
        <sat>11</sat>
      </trkpt>
      <trkpt lat="42.328855" lon="-4.579797">
        <ele>838.9</ele>
        <time>2020-08-24T09:08:02Z</time>
        <sat>11</sat>
      </trkpt>
      <trkpt lat="42.328899" lon="-4.579890">
        <ele>838.6</ele>
        <time>2020-08-24T09:08:09Z</time>
        <sat>11</sat>
      </trkpt>
      <trkpt lat="42.328944" lon="-4.579996">
        <ele>838.4</ele>
        <time>2020-08-24T09:08:16Z</time>
        <sat>11</sat>
      </trkpt>
      <trkpt lat="42.329003" lon="-4.580091">
        <ele>837.8</ele>
        <time>2020-08-24T09:08:23Z</time>
        <sat>11</sat>
      </trkpt>
      <trkpt lat="42.329054" lon="-4.580195">
        <ele>837.5</ele>
        <time>2020-08-24T09:08:30Z</time>
        <sat>11</sat>
      </trkpt>
      <trkpt lat="42.329105" lon="-4.580282">
        <ele>837.0</ele>
        <time>2020-08-24T09:08:36Z</time>
        <sat>11</sat>
      </trkpt>
      <trkpt lat="42.329155" lon="-4.580387">
        <ele>836.7</ele>
        <time>2020-08-24T09:08:43Z</time>
        <sat>11</sat>
      </trkpt>
      <trkpt lat="42.329207" lon="-4.580473">
        <ele>836.6</ele>
        <time>2020-08-24T09:08:49Z</time>
        <sat>11</sat>
      </trkpt>
      <trkpt lat="42.329257" lon="-4.580578">
        <ele>836.2</ele>
        <time>2020-08-24T09:08:56Z</time>
        <sat>11</sat>
      </trkpt>
      <trkpt lat="42.329315" lon="-4.580678">
        <ele>835.8</ele>
        <time>2020-08-24T09:09:03Z</time>
        <sat>11</sat>
      </trkpt>
      <trkpt lat="42.329357" lon="-4.580773">
        <ele>835.5</ele>
        <time>2020-08-24T09:09:09Z</time>
        <sat>11</sat>
      </trkpt>
      <trkpt lat="42.329414" lon="-4.580872">
        <ele>835.2</ele>
        <time>2020-08-24T09:09:16Z</time>
        <sat>11</sat>
      </trkpt>
      <trkpt lat="42.329466" lon="-4.580977">
        <ele>835.1</ele>
        <time>2020-08-24T09:09:23Z</time>
        <sat>11</sat>
      </trkpt>
      <trkpt lat="42.329520" lon="-4.581063">
        <ele>835.1</ele>
        <time>2020-08-24T09:09:29Z</time>
        <sat>11</sat>
      </trkpt>
      <trkpt lat="42.329571" lon="-4.581165">
        <ele>835.0</ele>
        <time>2020-08-24T09:09:36Z</time>
        <sat>11</sat>
      </trkpt>
      <trkpt lat="42.329627" lon="-4.581263">
        <ele>835.0</ele>
        <time>2020-08-24T09:09:43Z</time>
        <sat>11</sat>
      </trkpt>
      <trkpt lat="42.329674" lon="-4.581369">
        <ele>834.9</ele>
        <time>2020-08-24T09:09:50Z</time>
        <sat>11</sat>
      </trkpt>
      <trkpt lat="42.329725" lon="-4.581468">
        <ele>835.0</ele>
        <time>2020-08-24T09:09:57Z</time>
        <sat>11</sat>
      </trkpt>
      <trkpt lat="42.329777" lon="-4.581572">
        <ele>834.7</ele>
        <time>2020-08-24T09:10:04Z</time>
        <sat>11</sat>
      </trkpt>
      <trkpt lat="42.329825" lon="-4.581677">
        <ele>833.9</ele>
        <time>2020-08-24T09:10:11Z</time>
        <sat>11</sat>
      </trkpt>
      <trkpt lat="42.329873" lon="-4.581766">
        <ele>833.7</ele>
        <time>2020-08-24T09:10:17Z</time>
        <sat>11</sat>
      </trkpt>
      <trkpt lat="42.329922" lon="-4.581870">
        <ele>833.6</ele>
        <time>2020-08-24T09:10:24Z</time>
        <sat>11</sat>
      </trkpt>
      <trkpt lat="42.329980" lon="-4.581971">
        <ele>833.5</ele>
        <time>2020-08-24T09:10:31Z</time>
        <sat>11</sat>
      </trkpt>
      <trkpt lat="42.330032" lon="-4.582075">
        <ele>833.5</ele>
        <time>2020-08-24T09:10:38Z</time>
        <sat>11</sat>
      </trkpt>
      <trkpt lat="42.330080" lon="-4.582166">
        <ele>833.3</ele>
        <time>2020-08-24T09:10:44Z</time>
        <sat>11</sat>
      </trkpt>
      <trkpt lat="42.330133" lon="-4.582272">
        <ele>833.3</ele>
        <time>2020-08-24T09:10:51Z</time>
        <sat>11</sat>
      </trkpt>
      <trkpt lat="42.330181" lon="-4.582362">
        <ele>833.3</ele>
        <time>2020-08-24T09:10:57Z</time>
        <sat>11</sat>
      </trkpt>
      <trkpt lat="42.330233" lon="-4.582460">
        <ele>833.1</ele>
        <time>2020-08-24T09:11:04Z</time>
        <sat>11</sat>
      </trkpt>
      <trkpt lat="42.330288" lon="-4.582563">
        <ele>833.0</ele>
        <time>2020-08-24T09:11:11Z</time>
        <sat>11</sat>
      </trkpt>
      <trkpt lat="42.330333" lon="-4.582663">
        <ele>833.0</ele>
        <time>2020-08-24T09:11:18Z</time>
        <sat>11</sat>
      </trkpt>
      <trkpt lat="42.330390" lon="-4.582760">
        <ele>832.9</ele>
        <time>2020-08-24T09:11:25Z</time>
        <sat>11</sat>
      </trkpt>
      <trkpt lat="42.330440" lon="-4.582861">
        <ele>832.9</ele>
        <time>2020-08-24T09:11:32Z</time>
        <sat>11</sat>
      </trkpt>
      <trkpt lat="42.330491" lon="-4.582948">
        <ele>832.8</ele>
        <time>2020-08-24T09:11:38Z</time>
        <sat>11</sat>
      </trkpt>
      <trkpt lat="42.330535" lon="-4.583050">
        <ele>832.6</ele>
        <time>2020-08-24T09:11:45Z</time>
        <sat>11</sat>
      </trkpt>
      <trkpt lat="42.330587" lon="-4.583145">
        <ele>832.5</ele>
        <time>2020-08-24T09:11:52Z</time>
        <sat>11</sat>
      </trkpt>
      <trkpt lat="42.330645" lon="-4.583245">
        <ele>832.3</ele>
        <time>2020-08-24T09:11:59Z</time>
        <sat>11</sat>
      </trkpt>
      <trkpt lat="42.330695" lon="-4.583346">
        <ele>832.2</ele>
        <time>2020-08-24T09:12:06Z</time>
        <sat>11</sat>
      </trkpt>
      <trkpt lat="42.330751" lon="-4.583447">
        <ele>832.1</ele>
        <time>2020-08-24T09:12:13Z</time>
        <sat>11</sat>
      </trkpt>
      <trkpt lat="42.330798" lon="-4.583552">
        <ele>831.9</ele>
        <time>2020-08-24T09:12:20Z</time>
        <sat>11</sat>
      </trkpt>
      <trkpt lat="42.330852" lon="-4.583638">
        <ele>831.8</ele>
        <time>2020-08-24T09:12:26Z</time>
        <sat>11</sat>
      </trkpt>
      <trkpt lat="42.330900" lon="-4.583743">
        <ele>831.7</ele>
        <time>2020-08-24T09:12:33Z</time>
        <sat>11</sat>
      </trkpt>
      <trkpt lat="42.330946" lon="-4.583836">
        <ele>831.6</ele>
        <time>2020-08-24T09:12:39Z</time>
        <sat>11</sat>
      </trkpt>
      <trkpt lat="42.330999" lon="-4.583938">
        <ele>831.4</ele>
        <time>2020-08-24T09:12:46Z</time>
        <sat>11</sat>
      </trkpt>
      <trkpt lat="42.331051" lon="-4.584044">
        <ele>832.6</ele>
        <time>2020-08-24T09:12:53Z</time>
        <sat>11</sat>
      </trkpt>
      <trkpt lat="42.331107" lon="-4.584143">
        <ele>830.9</ele>
        <time>2020-08-24T09:13:02Z</time>
        <sat>11</sat>
      </trkpt>
      <trkpt lat="42.331149" lon="-4.584251">
        <ele>830.4</ele>
        <time>2020-08-24T09:13:09Z</time>
        <sat>11</sat>
      </trkpt>
      <trkpt lat="42.331198" lon="-4.584339">
        <ele>830.2</ele>
        <time>2020-08-24T09:13:15Z</time>
        <sat>11</sat>
      </trkpt>
      <trkpt lat="42.331244" lon="-4.584442">
        <ele>830.1</ele>
        <time>2020-08-24T09:13:22Z</time>
        <sat>11</sat>
      </trkpt>
      <trkpt lat="42.331294" lon="-4.584531">
        <ele>829.9</ele>
        <time>2020-08-24T09:13:28Z</time>
        <sat>11</sat>
      </trkpt>
      <trkpt lat="42.331344" lon="-4.584630">
        <ele>829.7</ele>
        <time>2020-08-24T09:13:35Z</time>
        <sat>11</sat>
      </trkpt>
      <trkpt lat="42.331393" lon="-4.584735">
        <ele>829.5</ele>
        <time>2020-08-24T09:13:42Z</time>
        <sat>11</sat>
      </trkpt>
      <trkpt lat="42.331445" lon="-4.584823">
        <ele>829.0</ele>
        <time>2020-08-24T09:13:48Z</time>
        <sat>11</sat>
      </trkpt>
      <trkpt lat="42.331497" lon="-4.584926">
        <ele>828.8</ele>
        <time>2020-08-24T09:13:55Z</time>
        <sat>11</sat>
      </trkpt>
      <trkpt lat="42.331544" lon="-4.585019">
        <ele>828.6</ele>
        <time>2020-08-24T09:14:01Z</time>
        <sat>11</sat>
      </trkpt>
      <trkpt lat="42.331600" lon="-4.585121">
        <ele>828.3</ele>
        <time>2020-08-24T09:14:08Z</time>
        <sat>11</sat>
      </trkpt>
      <trkpt lat="42.331648" lon="-4.585216">
        <ele>828.0</ele>
        <time>2020-08-24T09:14:14Z</time>
        <sat>11</sat>
      </trkpt>
      <trkpt lat="42.331701" lon="-4.585317">
        <ele>827.7</ele>
        <time>2020-08-24T09:14:21Z</time>
        <sat>11</sat>
      </trkpt>
      <trkpt lat="42.331746" lon="-4.585408">
        <ele>827.5</ele>
        <time>2020-08-24T09:14:27Z</time>
        <sat>11</sat>
      </trkpt>
      <trkpt lat="42.331799" lon="-4.585495">
        <ele>827.5</ele>
        <time>2020-08-24T09:14:33Z</time>
        <sat>11</sat>
      </trkpt>
      <trkpt lat="42.331847" lon="-4.585601">
        <ele>827.5</ele>
        <time>2020-08-24T09:14:40Z</time>
        <sat>11</sat>
      </trkpt>
      <trkpt lat="42.331897" lon="-4.585693">
        <ele>827.4</ele>
        <time>2020-08-24T09:14:46Z</time>
        <sat>11</sat>
      </trkpt>
      <trkpt lat="42.331955" lon="-4.585790">
        <ele>827.3</ele>
        <time>2020-08-24T09:14:53Z</time>
        <sat>11</sat>
      </trkpt>
      <trkpt lat="42.332000" lon="-4.585881">
        <ele>827.2</ele>
        <time>2020-08-24T09:14:59Z</time>
        <sat>11</sat>
      </trkpt>
      <trkpt lat="42.332052" lon="-4.585969">
        <ele>827.0</ele>
        <time>2020-08-24T09:15:05Z</time>
        <sat>11</sat>
      </trkpt>
      <trkpt lat="42.332105" lon="-4.586070">
        <ele>827.0</ele>
        <time>2020-08-24T09:15:12Z</time>
        <sat>11</sat>
      </trkpt>
      <trkpt lat="42.332155" lon="-4.586175">
        <ele>827.0</ele>
        <time>2020-08-24T09:15:19Z</time>
        <sat>11</sat>
      </trkpt>
      <trkpt lat="42.332208" lon="-4.586274">
        <ele>827.1</ele>
        <time>2020-08-24T09:15:26Z</time>
        <sat>11</sat>
      </trkpt>
      <trkpt lat="42.332250" lon="-4.586369">
        <ele>826.9</ele>
        <time>2020-08-24T09:15:32Z</time>
        <sat>11</sat>
      </trkpt>
      <trkpt lat="42.332302" lon="-4.586460">
        <ele>826.8</ele>
        <time>2020-08-24T09:15:38Z</time>
        <sat>11</sat>
      </trkpt>
      <trkpt lat="42.332351" lon="-4.586564">
        <ele>827.1</ele>
        <time>2020-08-24T09:15:45Z</time>
        <sat>11</sat>
      </trkpt>
      <trkpt lat="42.332402" lon="-4.586670">
        <ele>827.2</ele>
        <time>2020-08-24T09:15:52Z</time>
        <sat>11</sat>
      </trkpt>
      <trkpt lat="42.332449" lon="-4.586767">
        <ele>827.1</ele>
        <time>2020-08-24T09:15:59Z</time>
        <sat>11</sat>
      </trkpt>
      <trkpt lat="42.332496" lon="-4.586859">
        <ele>827.0</ele>
        <time>2020-08-24T09:16:05Z</time>
        <sat>11</sat>
      </trkpt>
      <trkpt lat="42.332549" lon="-4.586945">
        <ele>826.9</ele>
        <time>2020-08-24T09:16:11Z</time>
        <sat>11</sat>
      </trkpt>
      <trkpt lat="42.332597" lon="-4.587050">
        <ele>826.8</ele>
        <time>2020-08-24T09:16:18Z</time>
        <sat>11</sat>
      </trkpt>
      <trkpt lat="42.332648" lon="-4.587158">
        <ele>826.7</ele>
        <time>2020-08-24T09:16:25Z</time>
        <sat>11</sat>
      </trkpt>
      <trkpt lat="42.332705" lon="-4.587253">
        <ele>826.6</ele>
        <time>2020-08-24T09:16:32Z</time>
        <sat>11</sat>
      </trkpt>
      <trkpt lat="42.332749" lon="-4.587345">
        <ele>826.4</ele>
        <time>2020-08-24T09:16:38Z</time>
        <sat>11</sat>
      </trkpt>
      <trkpt lat="42.332798" lon="-4.587433">
        <ele>826.2</ele>
        <time>2020-08-24T09:16:44Z</time>
        <sat>11</sat>
      </trkpt>
      <trkpt lat="42.332843" lon="-4.587535">
        <ele>826.1</ele>
        <time>2020-08-24T09:16:51Z</time>
        <sat>11</sat>
      </trkpt>
      <trkpt lat="42.332898" lon="-4.587640">
        <ele>826.0</ele>
        <time>2020-08-24T09:16:58Z</time>
        <sat>11</sat>
      </trkpt>
      <trkpt lat="42.332952" lon="-4.587739">
        <ele>826.1</ele>
        <time>2020-08-24T09:17:05Z</time>
        <sat>11</sat>
      </trkpt>
      <trkpt lat="42.333003" lon="-4.587845">
        <ele>826.2</ele>
        <time>2020-08-24T09:17:12Z</time>
        <sat>10</sat>
      </trkpt>
      <trkpt lat="42.333055" lon="-4.587936">
        <ele>826.1</ele>
        <time>2020-08-24T09:17:18Z</time>
        <sat>11</sat>
      </trkpt>
      <trkpt lat="42.333101" lon="-4.588044">
        <ele>825.9</ele>
        <time>2020-08-24T09:17:25Z</time>
        <sat>11</sat>
      </trkpt>
      <trkpt lat="42.333148" lon="-4.588138">
        <ele>825.8</ele>
        <time>2020-08-24T09:17:31Z</time>
        <sat>11</sat>
      </trkpt>
      <trkpt lat="42.333204" lon="-4.588222">
        <ele>825.6</ele>
        <time>2020-08-24T09:17:37Z</time>
        <sat>11</sat>
      </trkpt>
      <trkpt lat="42.333248" lon="-4.588315">
        <ele>825.6</ele>
        <time>2020-08-24T09:17:43Z</time>
        <sat>11</sat>
      </trkpt>
      <trkpt lat="42.333295" lon="-4.588410">
        <ele>825.5</ele>
        <time>2020-08-24T09:17:49Z</time>
        <sat>11</sat>
      </trkpt>
      <trkpt lat="42.333347" lon="-4.588496">
        <ele>825.4</ele>
        <time>2020-08-24T09:17:55Z</time>
        <sat>11</sat>
      </trkpt>
      <trkpt lat="42.333402" lon="-4.588600">
        <ele>825.4</ele>
        <time>2020-08-24T09:18:02Z</time>
        <sat>11</sat>
      </trkpt>
      <trkpt lat="42.333449" lon="-4.588692">
        <ele>825.2</ele>
        <time>2020-08-24T09:18:08Z</time>
        <sat>11</sat>
      </trkpt>
      <trkpt lat="42.333504" lon="-4.588791">
        <ele>825.1</ele>
        <time>2020-08-24T09:18:15Z</time>
        <sat>11</sat>
      </trkpt>
      <trkpt lat="42.333551" lon="-4.588898">
        <ele>825.0</ele>
        <time>2020-08-24T09:18:22Z</time>
        <sat>11</sat>
      </trkpt>
      <trkpt lat="42.333604" lon="-4.588989">
        <ele>824.8</ele>
        <time>2020-08-24T09:18:28Z</time>
        <sat>11</sat>
      </trkpt>
      <trkpt lat="42.333654" lon="-4.589096">
        <ele>824.4</ele>
        <time>2020-08-24T09:18:35Z</time>
        <sat>11</sat>
      </trkpt>
      <trkpt lat="42.333704" lon="-4.589186">
        <ele>824.3</ele>
        <time>2020-08-24T09:18:41Z</time>
        <sat>11</sat>
      </trkpt>
      <trkpt lat="42.333751" lon="-4.589279">
        <ele>823.9</ele>
        <time>2020-08-24T09:18:48Z</time>
        <sat>11</sat>
      </trkpt>
      <trkpt lat="42.333807" lon="-4.589380">
        <ele>823.5</ele>
        <time>2020-08-24T09:18:55Z</time>
        <sat>11</sat>
      </trkpt>
      <trkpt lat="42.333854" lon="-4.589480">
        <ele>823.0</ele>
        <time>2020-08-24T09:19:02Z</time>
        <sat>11</sat>
      </trkpt>
      <trkpt lat="42.333905" lon="-4.589569">
        <ele>822.8</ele>
        <time>2020-08-24T09:19:08Z</time>
        <sat>11</sat>
      </trkpt>
      <trkpt lat="42.333955" lon="-4.589670">
        <ele>822.3</ele>
        <time>2020-08-24T09:19:15Z</time>
        <sat>11</sat>
      </trkpt>
      <trkpt lat="42.334005" lon="-4.589759">
        <ele>821.9</ele>
        <time>2020-08-24T09:19:21Z</time>
        <sat>11</sat>
      </trkpt>
      <trkpt lat="42.334053" lon="-4.589863">
        <ele>821.6</ele>
        <time>2020-08-24T09:19:28Z</time>
        <sat>11</sat>
      </trkpt>
      <trkpt lat="42.334106" lon="-4.589965">
        <ele>821.2</ele>
        <time>2020-08-24T09:19:35Z</time>
        <sat>11</sat>
      </trkpt>
      <trkpt lat="42.334161" lon="-4.590067">
        <ele>820.9</ele>
        <time>2020-08-24T09:19:42Z</time>
        <sat>11</sat>
      </trkpt>
      <trkpt lat="42.334212" lon="-4.590174">
        <ele>820.7</ele>
        <time>2020-08-24T09:19:49Z</time>
        <sat>11</sat>
      </trkpt>
      <trkpt lat="42.334268" lon="-4.590275">
        <ele>820.5</ele>
        <time>2020-08-24T09:19:56Z</time>
        <sat>11</sat>
      </trkpt>
      <trkpt lat="42.334318" lon="-4.590380">
        <ele>820.4</ele>
        <time>2020-08-24T09:20:03Z</time>
        <sat>11</sat>
      </trkpt>
      <trkpt lat="42.334371" lon="-4.590481">
        <ele>820.2</ele>
        <time>2020-08-24T09:20:10Z</time>
        <sat>11</sat>
      </trkpt>
      <trkpt lat="42.334417" lon="-4.590588">
        <ele>819.9</ele>
        <time>2020-08-24T09:20:17Z</time>
        <sat>11</sat>
      </trkpt>
      <trkpt lat="42.334470" lon="-4.590672">
        <ele>819.8</ele>
        <time>2020-08-24T09:20:23Z</time>
        <sat>11</sat>
      </trkpt>
      <trkpt lat="42.334521" lon="-4.590779">
        <ele>819.8</ele>
        <time>2020-08-24T09:20:30Z</time>
        <sat>11</sat>
      </trkpt>
      <trkpt lat="42.334573" lon="-4.590866">
        <ele>819.8</ele>
        <time>2020-08-24T09:20:36Z</time>
        <sat>11</sat>
      </trkpt>
      <trkpt lat="42.334616" lon="-4.590964">
        <ele>819.8</ele>
        <time>2020-08-24T09:20:43Z</time>
        <sat>11</sat>
      </trkpt>
      <trkpt lat="42.334669" lon="-4.591060">
        <ele>819.7</ele>
        <time>2020-08-24T09:20:50Z</time>
        <sat>11</sat>
      </trkpt>
      <trkpt lat="42.334714" lon="-4.591162">
        <ele>819.7</ele>
        <time>2020-08-24T09:20:57Z</time>
        <sat>11</sat>
      </trkpt>
      <trkpt lat="42.334771" lon="-4.591263">
        <ele>819.9</ele>
        <time>2020-08-24T09:21:04Z</time>
        <sat>11</sat>
      </trkpt>
      <trkpt lat="42.334824" lon="-4.591369">
        <ele>819.9</ele>
        <time>2020-08-24T09:21:11Z</time>
        <sat>11</sat>
      </trkpt>
      <trkpt lat="42.334874" lon="-4.591471">
        <ele>819.9</ele>
        <time>2020-08-24T09:21:18Z</time>
        <sat>11</sat>
      </trkpt>
      <trkpt lat="42.334922" lon="-4.591577">
        <ele>819.9</ele>
        <time>2020-08-24T09:21:25Z</time>
        <sat>11</sat>
      </trkpt>
      <trkpt lat="42.334978" lon="-4.591679">
        <ele>819.9</ele>
        <time>2020-08-24T09:21:32Z</time>
        <sat>11</sat>
      </trkpt>
      <trkpt lat="42.335024" lon="-4.591772">
        <ele>819.8</ele>
        <time>2020-08-24T09:21:38Z</time>
        <sat>11</sat>
      </trkpt>
      <trkpt lat="42.335079" lon="-4.591873">
        <ele>819.7</ele>
        <time>2020-08-24T09:21:45Z</time>
        <sat>11</sat>
      </trkpt>
      <trkpt lat="42.335123" lon="-4.591967">
        <ele>819.6</ele>
        <time>2020-08-24T09:21:51Z</time>
        <sat>11</sat>
      </trkpt>
      <trkpt lat="42.335180" lon="-4.592067">
        <ele>819.6</ele>
        <time>2020-08-24T09:21:58Z</time>
        <sat>11</sat>
      </trkpt>
      <trkpt lat="42.335229" lon="-4.592175">
        <ele>819.6</ele>
        <time>2020-08-24T09:22:05Z</time>
        <sat>11</sat>
      </trkpt>
      <trkpt lat="42.335282" lon="-4.592277">
        <ele>819.6</ele>
        <time>2020-08-24T09:22:12Z</time>
        <sat>11</sat>
      </trkpt>
      <trkpt lat="42.335331" lon="-4.592384">
        <ele>819.5</ele>
        <time>2020-08-24T09:22:19Z</time>
        <sat>11</sat>
      </trkpt>
      <trkpt lat="42.335377" lon="-4.592489">
        <ele>819.3</ele>
        <time>2020-08-24T09:22:26Z</time>
        <sat>11</sat>
      </trkpt>
      <trkpt lat="42.335425" lon="-4.592597">
        <ele>819.2</ele>
        <time>2020-08-24T09:22:34Z</time>
        <sat>11</sat>
      </trkpt>
      <trkpt lat="42.335471" lon="-4.592688">
        <ele>819.1</ele>
        <time>2020-08-24T09:22:40Z</time>
        <sat>11</sat>
      </trkpt>
      <trkpt lat="42.335536" lon="-4.592783">
        <ele>819.0</ele>
        <time>2020-08-24T09:22:46Z</time>
        <sat>11</sat>
      </trkpt>
      <trkpt lat="42.335587" lon="-4.592874">
        <ele>818.9</ele>
        <time>2020-08-24T09:22:52Z</time>
        <sat>11</sat>
      </trkpt>
      <trkpt lat="42.335633" lon="-4.592966">
        <ele>818.9</ele>
        <time>2020-08-24T09:22:58Z</time>
        <sat>11</sat>
      </trkpt>
      <trkpt lat="42.335678" lon="-4.593058">
        <ele>818.9</ele>
        <time>2020-08-24T09:23:04Z</time>
        <sat>11</sat>
      </trkpt>
      <trkpt lat="42.335730" lon="-4.593145">
        <ele>818.9</ele>
        <time>2020-08-24T09:23:10Z</time>
        <sat>11</sat>
      </trkpt>
      <trkpt lat="42.335777" lon="-4.593252">
        <ele>819.1</ele>
        <time>2020-08-24T09:23:17Z</time>
        <sat>11</sat>
      </trkpt>
      <trkpt lat="42.335830" lon="-4.593339">
        <ele>819.2</ele>
        <time>2020-08-24T09:23:23Z</time>
        <sat>11</sat>
      </trkpt>
      <trkpt lat="42.335876" lon="-4.593443">
        <ele>819.2</ele>
        <time>2020-08-24T09:23:30Z</time>
        <sat>11</sat>
      </trkpt>
      <trkpt lat="42.335925" lon="-4.593533">
        <ele>819.1</ele>
        <time>2020-08-24T09:23:36Z</time>
        <sat>11</sat>
      </trkpt>
      <trkpt lat="42.335972" lon="-4.593640">
        <ele>819.0</ele>
        <time>2020-08-24T09:23:43Z</time>
        <sat>11</sat>
      </trkpt>
      <trkpt lat="42.336021" lon="-4.593734">
        <ele>819.0</ele>
        <time>2020-08-24T09:23:49Z</time>
        <sat>11</sat>
      </trkpt>
      <trkpt lat="42.336074" lon="-4.593834">
        <ele>818.9</ele>
        <time>2020-08-24T09:23:56Z</time>
        <sat>11</sat>
      </trkpt>
      <trkpt lat="42.336120" lon="-4.593933">
        <ele>818.8</ele>
        <time>2020-08-24T09:24:02Z</time>
        <sat>11</sat>
      </trkpt>
      <trkpt lat="42.336170" lon="-4.594021">
        <ele>818.8</ele>
        <time>2020-08-24T09:24:08Z</time>
        <sat>11</sat>
      </trkpt>
      <trkpt lat="42.336217" lon="-4.594113">
        <ele>818.7</ele>
        <time>2020-08-24T09:24:14Z</time>
        <sat>11</sat>
      </trkpt>
      <trkpt lat="42.336268" lon="-4.594216">
        <ele>818.7</ele>
        <time>2020-08-24T09:24:21Z</time>
        <sat>11</sat>
      </trkpt>
      <trkpt lat="42.336320" lon="-4.594300">
        <ele>818.7</ele>
        <time>2020-08-24T09:24:27Z</time>
        <sat>11</sat>
      </trkpt>
      <trkpt lat="42.336363" lon="-4.594405">
        <ele>818.7</ele>
        <time>2020-08-24T09:24:34Z</time>
        <sat>11</sat>
      </trkpt>
      <trkpt lat="42.336407" lon="-4.594516">
        <ele>818.7</ele>
        <time>2020-08-24T09:24:42Z</time>
        <sat>11</sat>
      </trkpt>
      <trkpt lat="42.336469" lon="-4.594611">
        <ele>818.8</ele>
        <time>2020-08-24T09:24:53Z</time>
        <sat>11</sat>
      </trkpt>
      <trkpt lat="42.336524" lon="-4.594708">
        <ele>818.8</ele>
        <time>2020-08-24T09:25:00Z</time>
        <sat>11</sat>
      </trkpt>
      <trkpt lat="42.336581" lon="-4.594810">
        <ele>818.8</ele>
        <time>2020-08-24T09:25:06Z</time>
        <sat>11</sat>
      </trkpt>
      <trkpt lat="42.336631" lon="-4.594901">
        <ele>818.7</ele>
        <time>2020-08-24T09:25:12Z</time>
        <sat>11</sat>
      </trkpt>
      <trkpt lat="42.336674" lon="-4.595004">
        <ele>818.7</ele>
        <time>2020-08-24T09:25:18Z</time>
        <sat>11</sat>
      </trkpt>
      <trkpt lat="42.336724" lon="-4.595103">
        <ele>818.8</ele>
        <time>2020-08-24T09:25:24Z</time>
        <sat>11</sat>
      </trkpt>
      <trkpt lat="42.336780" lon="-4.595193">
        <ele>818.8</ele>
        <time>2020-08-24T09:25:30Z</time>
        <sat>11</sat>
      </trkpt>
      <trkpt lat="42.336826" lon="-4.595286">
        <ele>818.8</ele>
        <time>2020-08-24T09:25:36Z</time>
        <sat>11</sat>
      </trkpt>
      <trkpt lat="42.336880" lon="-4.595375">
        <ele>818.7</ele>
        <time>2020-08-24T09:25:42Z</time>
        <sat>11</sat>
      </trkpt>
      <trkpt lat="42.336944" lon="-4.595468">
        <ele>818.9</ele>
        <time>2020-08-24T09:25:53Z</time>
        <sat>11</sat>
      </trkpt>
      <trkpt lat="42.337005" lon="-4.595566">
        <ele>818.8</ele>
        <time>2020-08-24T09:26:00Z</time>
        <sat>11</sat>
      </trkpt>
      <trkpt lat="42.337052" lon="-4.595666">
        <ele>818.7</ele>
        <time>2020-08-24T09:26:06Z</time>
        <sat>11</sat>
      </trkpt>
      <trkpt lat="42.337115" lon="-4.595757">
        <ele>818.7</ele>
        <time>2020-08-24T09:26:12Z</time>
        <sat>11</sat>
      </trkpt>
      <trkpt lat="42.337175" lon="-4.595830">
        <ele>818.7</ele>
        <time>2020-08-24T09:26:18Z</time>
        <sat>11</sat>
      </trkpt>
      <trkpt lat="42.337228" lon="-4.595919">
        <ele>818.6</ele>
        <time>2020-08-24T09:26:28Z</time>
        <sat>11</sat>
      </trkpt>
      <trkpt lat="42.337287" lon="-4.596011">
        <ele>818.7</ele>
        <time>2020-08-24T09:26:34Z</time>
        <sat>11</sat>
      </trkpt>
      <trkpt lat="42.337285" lon="-4.596123">
        <ele>818.8</ele>
        <time>2020-08-24T09:26:41Z</time>
        <sat>11</sat>
      </trkpt>
      <trkpt lat="42.337281" lon="-4.596242">
        <ele>818.8</ele>
        <time>2020-08-24T09:26:47Z</time>
        <sat>11</sat>
      </trkpt>
      <trkpt lat="42.337329" lon="-4.596336">
        <ele>819.0</ele>
        <time>2020-08-24T09:26:53Z</time>
        <sat>11</sat>
      </trkpt>
      <trkpt lat="42.337376" lon="-4.596437">
        <ele>819.1</ele>
        <time>2020-08-24T09:26:59Z</time>
        <sat>11</sat>
      </trkpt>
      <trkpt lat="42.337381" lon="-4.596563">
        <ele>819.2</ele>
        <time>2020-08-24T09:27:06Z</time>
        <sat>11</sat>
      </trkpt>
      <trkpt lat="42.337386" lon="-4.596686">
        <ele>819.0</ele>
        <time>2020-08-24T09:27:13Z</time>
        <sat>11</sat>
      </trkpt>
      <trkpt lat="42.337378" lon="-4.596814">
        <ele>818.8</ele>
        <time>2020-08-24T09:27:29Z</time>
        <sat>10</sat>
      </trkpt>
      <trkpt lat="42.337379" lon="-4.596930">
        <ele>820.3</ele>
        <time>2020-08-24T09:27:49Z</time>
        <sat>10</sat>
      </trkpt>
      <trkpt lat="42.337385" lon="-4.597044">
        <ele>820.0</ele>
        <time>2020-08-24T09:27:58Z</time>
        <sat>11</sat>
      </trkpt>
      <trkpt lat="42.337393" lon="-4.597163">
        <ele>819.6</ele>
        <time>2020-08-24T09:28:04Z</time>
        <sat>11</sat>
      </trkpt>
      <trkpt lat="42.337390" lon="-4.597274">
        <ele>819.4</ele>
        <time>2020-08-24T09:28:10Z</time>
        <sat>11</sat>
      </trkpt>
      <trkpt lat="42.337388" lon="-4.597393">
        <ele>819.2</ele>
        <time>2020-08-24T09:28:16Z</time>
        <sat>12</sat>
      </trkpt>
      <trkpt lat="42.337405" lon="-4.597500">
        <ele>819.1</ele>
        <time>2020-08-24T09:28:22Z</time>
        <sat>10</sat>
      </trkpt>
      <trkpt lat="42.337416" lon="-4.597624">
        <ele>819.3</ele>
        <time>2020-08-24T09:28:31Z</time>
        <sat>12</sat>
      </trkpt>
      <trkpt lat="42.337339" lon="-4.597778">
        <ele>819.4</ele>
        <time>2020-08-24T09:29:08Z</time>
        <sat>12</sat>
      </trkpt>
      <trkpt lat="42.337298" lon="-4.597878">
        <ele>819.4</ele>
        <time>2020-08-24T09:29:15Z</time>
        <sat>12</sat>
      </trkpt>
      <trkpt lat="42.337260" lon="-4.597986">
        <ele>819.5</ele>
        <time>2020-08-24T09:29:21Z</time>
        <sat>10</sat>
      </trkpt>
      <trkpt lat="42.337231" lon="-4.598089">
        <ele>819.5</ele>
        <time>2020-08-24T09:29:27Z</time>
        <sat>12</sat>
      </trkpt>
      <trkpt lat="42.337185" lon="-4.598180">
        <ele>819.6</ele>
        <time>2020-08-24T09:29:34Z</time>
        <sat>11</sat>
      </trkpt>
      <trkpt lat="42.337159" lon="-4.598292">
        <ele>819.7</ele>
        <time>2020-08-24T09:29:41Z</time>
        <sat>11</sat>
      </trkpt>
      <trkpt lat="42.337130" lon="-4.598404">
        <ele>819.9</ele>
        <time>2020-08-24T09:29:52Z</time>
        <sat>9</sat>
      </trkpt>
      <trkpt lat="42.337081" lon="-4.598514">
        <ele>820.1</ele>
        <time>2020-08-24T09:29:59Z</time>
        <sat>9</sat>
      </trkpt>
      <trkpt lat="42.337036" lon="-4.598629">
        <ele>820.1</ele>
        <time>2020-08-24T09:30:06Z</time>
        <sat>9</sat>
      </trkpt>
      <trkpt lat="42.336992" lon="-4.598737">
        <ele>820.2</ele>
        <time>2020-08-24T09:30:13Z</time>
        <sat>10</sat>
      </trkpt>
      <trkpt lat="42.336941" lon="-4.598832">
        <ele>819.6</ele>
        <time>2020-08-24T09:30:23Z</time>
        <sat>8</sat>
      </trkpt>
      <trkpt lat="42.336856" lon="-4.598999">
        <ele>844.7</ele>
        <time>2020-08-24T10:38:57Z</time>
        <sat>7</sat>
      </trkpt>
      <trkpt lat="42.336902" lon="-4.599091">
        <ele>844.1</ele>
        <time>2020-08-24T10:39:20Z</time>
        <sat>8</sat>
      </trkpt>
      <trkpt lat="42.336930" lon="-4.599195">
        <ele>842.8</ele>
        <time>2020-08-24T10:39:43Z</time>
        <sat>10</sat>
      </trkpt>
      <trkpt lat="42.336936" lon="-4.599309">
        <ele>842.1</ele>
        <time>2020-08-24T10:39:58Z</time>
        <sat>8</sat>
      </trkpt>
      <trkpt lat="42.336926" lon="-4.599428">
        <ele>842.8</ele>
        <time>2020-08-24T10:40:05Z</time>
        <sat>7</sat>
      </trkpt>
      <trkpt lat="42.336890" lon="-4.599544">
        <ele>843.7</ele>
        <time>2020-08-24T10:40:12Z</time>
        <sat>10</sat>
      </trkpt>
      <trkpt lat="42.336891" lon="-4.599599">
        <ele>827.7</ele>
        <time>2021-08-16T17:28:03Z</time>
        <sat>7</sat>
      </trkpt>
      <trkpt lat="42.336896" lon="-4.599715">
        <ele>828.4</ele>
        <time>2021-08-16T17:28:12Z</time>
        <sat>7</sat>
      </trkpt>
      <trkpt lat="42.336881" lon="-4.599824">
        <ele>829.1</ele>
        <time>2021-08-16T17:28:20Z</time>
        <sat>7</sat>
      </trkpt>
      <trkpt lat="42.336881" lon="-4.599941">
        <ele>829.2</ele>
        <time>2021-08-16T17:28:29Z</time>
        <sat>7</sat>
      </trkpt>
      <trkpt lat="42.336877" lon="-4.600050">
        <ele>829.4</ele>
        <time>2021-08-16T17:28:37Z</time>
        <sat>6</sat>
      </trkpt>
      <trkpt lat="42.336901" lon="-4.600160">
        <ele>830.0</ele>
        <time>2021-08-16T17:28:45Z</time>
        <sat>7</sat>
      </trkpt>
      <trkpt lat="42.336929" lon="-4.600267">
        <ele>830.1</ele>
        <time>2021-08-16T17:28:54Z</time>
        <sat>7</sat>
      </trkpt>
      <trkpt lat="42.336961" lon="-4.600379">
        <ele>830.5</ele>
        <time>2021-08-16T17:29:02Z</time>
        <sat>6</sat>
      </trkpt>
      <trkpt lat="42.336971" lon="-4.600493">
        <ele>831.1</ele>
        <time>2021-08-16T17:29:10Z</time>
        <sat>6</sat>
      </trkpt>
      <trkpt lat="42.336981" lon="-4.600604">
        <ele>831.0</ele>
        <time>2021-08-16T17:29:18Z</time>
        <sat>7</sat>
      </trkpt>
      <trkpt lat="42.337002" lon="-4.600724">
        <ele>831.4</ele>
        <time>2021-08-16T17:29:25Z</time>
        <sat>7</sat>
      </trkpt>
      <trkpt lat="42.337019" lon="-4.600844">
        <ele>830.7</ele>
        <time>2021-08-16T17:29:49Z</time>
        <sat>7</sat>
      </trkpt>
      <trkpt lat="42.337056" lon="-4.600944">
        <ele>831.1</ele>
        <time>2021-08-16T17:30:00Z</time>
        <sat>7</sat>
      </trkpt>
      <trkpt lat="42.337083" lon="-4.601059">
        <ele>830.7</ele>
        <time>2021-08-16T17:30:08Z</time>
        <sat>7</sat>
      </trkpt>
      <trkpt lat="42.337118" lon="-4.601164">
        <ele>831.3</ele>
        <time>2021-08-16T17:30:18Z</time>
        <sat>7</sat>
      </trkpt>
      <trkpt lat="42.337130" lon="-4.601280">
        <ele>829.2</ele>
        <time>2021-08-16T17:30:26Z</time>
        <sat>7</sat>
      </trkpt>
      <trkpt lat="42.337166" lon="-4.601387">
        <ele>831.7</ele>
        <time>2021-08-16T17:30:36Z</time>
        <sat>7</sat>
      </trkpt>
      <trkpt lat="42.337194" lon="-4.601496">
        <ele>831.8</ele>
        <time>2021-08-16T17:30:45Z</time>
        <sat>7</sat>
      </trkpt>
      <trkpt lat="42.337202" lon="-4.601610">
        <ele>832.9</ele>
        <time>2021-08-16T17:30:56Z</time>
        <sat>7</sat>
      </trkpt>
      <trkpt lat="42.337234" lon="-4.601718">
        <ele>833.2</ele>
        <time>2021-08-16T17:31:27Z</time>
        <sat>6</sat>
      </trkpt>
      <trkpt lat="42.337288" lon="-4.601807">
        <ele>825.2</ele>
        <time>2021-08-16T17:32:08Z</time>
        <sat>6</sat>
      </trkpt>
      <trkpt lat="42.337292" lon="-4.601936">
        <ele>844.2</ele>
        <time>2021-08-17T05:21:36Z</time>
        <sat>6</sat>
      </trkpt>
      <trkpt lat="42.337284" lon="-4.602051">
        <ele>844.4</ele>
        <time>2021-08-17T05:21:41Z</time>
        <sat>5</sat>
      </trkpt>
      <trkpt lat="42.337298" lon="-4.602167">
        <ele>844.1</ele>
        <time>2021-08-17T05:21:49Z</time>
        <sat>5</sat>
      </trkpt>
      <trkpt lat="42.337305" lon="-4.602280">
        <ele>843.6</ele>
        <time>2021-08-17T05:21:56Z</time>
        <sat>5</sat>
      </trkpt>
      <trkpt lat="42.337331" lon="-4.602391">
        <ele>844.3</ele>
        <time>2021-08-17T05:22:04Z</time>
        <sat>6</sat>
      </trkpt>
      <trkpt lat="42.337374" lon="-4.602488">
        <ele>842.3</ele>
        <time>2021-08-17T05:22:13Z</time>
        <sat>6</sat>
      </trkpt>
      <trkpt lat="42.337427" lon="-4.602590">
        <ele>843.3</ele>
        <time>2021-08-17T05:22:21Z</time>
        <sat>6</sat>
      </trkpt>
      <trkpt lat="42.337449" lon="-4.602704">
        <ele>844.7</ele>
        <time>2021-08-17T05:22:28Z</time>
        <sat>5</sat>
      </trkpt>
      <trkpt lat="42.337498" lon="-4.602800">
        <ele>844.0</ele>
        <time>2021-08-17T05:22:35Z</time>
        <sat>6</sat>
      </trkpt>
      <trkpt lat="42.337515" lon="-4.602927">
        <ele>845.5</ele>
        <time>2021-08-17T05:22:42Z</time>
        <sat>6</sat>
      </trkpt>
      <trkpt lat="42.337553" lon="-4.603035">
        <ele>845.3</ele>
        <time>2021-08-17T05:22:50Z</time>
        <sat>6</sat>
      </trkpt>
      <trkpt lat="42.337556" lon="-4.603162">
        <ele>843.8</ele>
        <time>2021-08-17T05:22:56Z</time>
        <sat>6</sat>
      </trkpt>
      <trkpt lat="42.337582" lon="-4.603267">
        <ele>845.1</ele>
        <time>2021-08-17T05:23:01Z</time>
        <sat>6</sat>
      </trkpt>
      <trkpt lat="42.337596" lon="-4.603376">
        <ele>845.7</ele>
        <time>2021-08-17T05:23:17Z</time>
        <sat>6</sat>
      </trkpt>
      <trkpt lat="42.337625" lon="-4.603487">
        <ele>845.4</ele>
        <time>2021-08-17T05:23:26Z</time>
        <sat>6</sat>
      </trkpt>
      <trkpt lat="42.337669" lon="-4.603584">
        <ele>845.4</ele>
        <time>2021-08-17T05:23:33Z</time>
        <sat>6</sat>
      </trkpt>
      <trkpt lat="42.337733" lon="-4.603653">
        <ele>845.4</ele>
        <time>2021-08-17T05:23:40Z</time>
        <sat>6</sat>
      </trkpt>
      <trkpt lat="42.337810" lon="-4.603689">
        <ele>845.4</ele>
        <time>2021-08-17T05:23:48Z</time>
        <sat>6</sat>
      </trkpt>
      <trkpt lat="42.337890" lon="-4.603714">
        <ele>845.2</ele>
        <time>2021-08-17T05:23:57Z</time>
        <sat>6</sat>
      </trkpt>
      <trkpt lat="42.337974" lon="-4.603721">
        <ele>844.7</ele>
        <time>2021-08-17T05:24:09Z</time>
        <sat>6</sat>
      </trkpt>
      <trkpt lat="42.338054" lon="-4.603688">
        <ele>844.6</ele>
        <time>2021-08-17T05:24:44Z</time>
        <sat>7</sat>
      </trkpt>
      <trkpt lat="42.338132" lon="-4.603729">
        <ele>844.6</ele>
        <time>2021-08-17T05:25:17Z</time>
        <sat>6</sat>
      </trkpt>
      <trkpt lat="42.338217" lon="-4.603719">
        <ele>844.2</ele>
        <time>2021-08-17T05:25:44Z</time>
        <sat>6</sat>
      </trkpt>
      <trkpt lat="42.338325" lon="-4.603740">
        <ele>844.3</ele>
        <time>2021-08-17T05:25:52Z</time>
        <sat>6</sat>
      </trkpt>
      <trkpt lat="42.338408" lon="-4.603707">
        <ele>844.4</ele>
        <time>2021-08-17T05:25:56Z</time>
        <sat>6</sat>
      </trkpt>
      <trkpt lat="42.338503" lon="-4.603715">
        <ele>844.4</ele>
        <time>2021-08-17T05:26:04Z</time>
        <sat>7</sat>
      </trkpt>
      <trkpt lat="42.338591" lon="-4.603699">
        <ele>844.4</ele>
        <time>2021-08-17T05:26:08Z</time>
        <sat>7</sat>
      </trkpt>
      <trkpt lat="42.338685" lon="-4.603680">
        <ele>844.7</ele>
        <time>2021-08-17T05:26:15Z</time>
        <sat>7</sat>
      </trkpt>
      <trkpt lat="42.338781" lon="-4.603685">
        <ele>844.9</ele>
        <time>2021-08-17T05:26:21Z</time>
        <sat>7</sat>
      </trkpt>
      <trkpt lat="42.338864" lon="-4.603734">
        <ele>845.2</ele>
        <time>2021-08-17T05:26:27Z</time>
        <sat>7</sat>
      </trkpt>
      <trkpt lat="42.338954" lon="-4.603760">
        <ele>845.4</ele>
        <time>2021-08-17T05:26:34Z</time>
        <sat>7</sat>
      </trkpt>
      <trkpt lat="42.339035" lon="-4.603818">
        <ele>845.7</ele>
        <time>2021-08-17T05:26:41Z</time>
        <sat>6</sat>
      </trkpt>
      <trkpt lat="42.339117" lon="-4.603856">
        <ele>846.2</ele>
        <time>2021-08-17T05:26:59Z</time>
        <sat>7</sat>
      </trkpt>
      <trkpt lat="42.339200" lon="-4.603864">
        <ele>846.5</ele>
        <time>2021-08-17T05:27:38Z</time>
        <sat>6</sat>
      </trkpt>
      <trkpt lat="42.339277" lon="-4.603940">
        <ele>846.5</ele>
        <time>2021-08-17T05:27:45Z</time>
        <sat>6</sat>
      </trkpt>
      <trkpt lat="42.339359" lon="-4.603997">
        <ele>846.6</ele>
        <time>2021-08-17T05:27:51Z</time>
        <sat>6</sat>
      </trkpt>
      <trkpt lat="42.339457" lon="-4.604003">
        <ele>846.9</ele>
        <time>2021-08-17T05:27:58Z</time>
        <sat>7</sat>
      </trkpt>
      <trkpt lat="42.339540" lon="-4.604034">
        <ele>847.1</ele>
        <time>2021-08-17T05:28:04Z</time>
        <sat>6</sat>
      </trkpt>
      <trkpt lat="42.339628" lon="-4.604056">
        <ele>847.5</ele>
        <time>2021-08-17T05:28:11Z</time>
        <sat>6</sat>
      </trkpt>
      <trkpt lat="42.339713" lon="-4.604067">
        <ele>847.9</ele>
        <time>2021-08-17T05:28:18Z</time>
        <sat>6</sat>
      </trkpt>
      <trkpt lat="42.339792" lon="-4.604095">
        <ele>848.2</ele>
        <time>2021-08-17T05:28:22Z</time>
        <sat>7</sat>
      </trkpt>
      <trkpt lat="42.339873" lon="-4.604118">
        <ele>848.4</ele>
        <time>2021-08-17T05:28:26Z</time>
        <sat>7</sat>
      </trkpt>
      <trkpt lat="42.339941" lon="-4.604178">
        <ele>848.7</ele>
        <time>2021-08-17T05:28:32Z</time>
        <sat>7</sat>
      </trkpt>
      <trkpt lat="42.339895" lon="-4.604279">
        <ele>849.0</ele>
        <time>2021-08-17T05:29:17Z</time>
        <sat>6</sat>
      </trkpt>
      <trkpt lat="42.339837" lon="-4.604357">
        <ele>849.0</ele>
        <time>2021-08-17T05:29:23Z</time>
        <sat>6</sat>
      </trkpt>
      <trkpt lat="42.339769" lon="-4.604439">
        <ele>845.6</ele>
        <time>2021-08-17T05:29:30Z</time>
        <sat>6</sat>
      </trkpt>
      <trkpt lat="42.339702" lon="-4.604513">
        <ele>849.1</ele>
        <time>2021-08-17T05:29:37Z</time>
        <sat>7</sat>
      </trkpt>
      <trkpt lat="42.339655" lon="-4.604611">
        <ele>849.9</ele>
        <time>2021-08-17T05:29:44Z</time>
        <sat>6</sat>
      </trkpt>
      <trkpt lat="42.339621" lon="-4.604725">
        <ele>847.8</ele>
        <time>2021-08-17T05:29:52Z</time>
        <sat>6</sat>
      </trkpt>
      <trkpt lat="42.339589" lon="-4.604840">
        <ele>847.5</ele>
        <time>2021-08-17T05:29:59Z</time>
        <sat>7</sat>
      </trkpt>
      <trkpt lat="42.339546" lon="-4.604938">
        <ele>847.5</ele>
        <time>2021-08-17T05:30:05Z</time>
        <sat>7</sat>
      </trkpt>
      <trkpt lat="42.339532" lon="-4.605055">
        <ele>847.8</ele>
        <time>2021-08-17T05:30:14Z</time>
        <sat>7</sat>
      </trkpt>
      <trkpt lat="42.339523" lon="-4.605167">
        <ele>847.9</ele>
        <time>2021-08-17T05:30:21Z</time>
        <sat>7</sat>
      </trkpt>
      <trkpt lat="42.339500" lon="-4.605273">
        <ele>846.5</ele>
        <time>2021-08-17T05:30:28Z</time>
        <sat>7</sat>
      </trkpt>
      <trkpt lat="42.339475" lon="-4.605386">
        <ele>846.7</ele>
        <time>2021-08-17T05:30:35Z</time>
        <sat>7</sat>
      </trkpt>
      <trkpt lat="42.339454" lon="-4.605499">
        <ele>846.8</ele>
        <time>2021-08-17T05:30:42Z</time>
        <sat>7</sat>
      </trkpt>
      <trkpt lat="42.339434" lon="-4.605616">
        <ele>846.4</ele>
        <time>2021-08-17T05:30:50Z</time>
        <sat>7</sat>
      </trkpt>
      <trkpt lat="42.339423" lon="-4.605740">
        <ele>845.8</ele>
        <time>2021-08-17T05:30:58Z</time>
        <sat>6</sat>
      </trkpt>
      <trkpt lat="42.339411" lon="-4.605861">
        <ele>844.5</ele>
        <time>2021-08-17T05:31:05Z</time>
        <sat>7</sat>
      </trkpt>
      <trkpt lat="42.339413" lon="-4.605982">
        <ele>845.3</ele>
        <time>2021-08-17T05:31:14Z</time>
        <sat>7</sat>
      </trkpt>
      <trkpt lat="42.339467" lon="-4.606068">
        <ele>845.2</ele>
        <time>2021-08-17T05:31:32Z</time>
        <sat>6</sat>
      </trkpt>
      <trkpt lat="42.339532" lon="-4.606155">
        <ele>845.1</ele>
        <time>2021-08-17T05:31:39Z</time>
        <sat>7</sat>
      </trkpt>
      <trkpt lat="42.339581" lon="-4.606244">
        <ele>844.8</ele>
        <time>2021-08-17T05:31:45Z</time>
        <sat>7</sat>
      </trkpt>
      <trkpt lat="42.339614" lon="-4.606364">
        <ele>844.3</ele>
        <time>2021-08-17T05:31:51Z</time>
        <sat>7</sat>
      </trkpt>
      <trkpt lat="42.339610" lon="-4.606494">
        <ele>843.8</ele>
        <time>2021-08-17T05:31:58Z</time>
        <sat>7</sat>
      </trkpt>
      <trkpt lat="42.339583" lon="-4.606605">
        <ele>843.2</ele>
        <time>2021-08-17T05:32:04Z</time>
        <sat>7</sat>
      </trkpt>
      <trkpt lat="42.339640" lon="-4.606706">
        <ele>842.3</ele>
        <time>2021-08-17T05:32:28Z</time>
        <sat>7</sat>
      </trkpt>
      <trkpt lat="42.339683" lon="-4.606814">
        <ele>842.1</ele>
        <time>2021-08-17T05:32:34Z</time>
        <sat>7</sat>
      </trkpt>
      <trkpt lat="42.339669" lon="-4.606931">
        <ele>841.9</ele>
        <time>2021-08-17T05:32:44Z</time>
        <sat>7</sat>
      </trkpt>
      <trkpt lat="42.339657" lon="-4.607045">
        <ele>841.6</ele>
        <time>2021-08-17T05:32:50Z</time>
        <sat>7</sat>
      </trkpt>
      <trkpt lat="42.339651" lon="-4.607160">
        <ele>841.4</ele>
        <time>2021-08-17T05:32:56Z</time>
        <sat>7</sat>
      </trkpt>
      <trkpt lat="42.339655" lon="-4.607281">
        <ele>840.9</ele>
        <time>2021-08-17T05:33:02Z</time>
        <sat>7</sat>
      </trkpt>
      <trkpt lat="42.339654" lon="-4.607398">
        <ele>840.5</ele>
        <time>2021-08-17T05:33:08Z</time>
        <sat>7</sat>
      </trkpt>
      <trkpt lat="42.339643" lon="-4.607513">
        <ele>840.0</ele>
        <time>2021-08-17T05:33:14Z</time>
        <sat>7</sat>
      </trkpt>
      <trkpt lat="42.339628" lon="-4.607629">
        <ele>839.3</ele>
        <time>2021-08-17T05:33:20Z</time>
        <sat>7</sat>
      </trkpt>
      <trkpt lat="42.339619" lon="-4.607742">
        <ele>838.6</ele>
        <time>2021-08-17T05:33:26Z</time>
        <sat>7</sat>
      </trkpt>
      <trkpt lat="42.339624" lon="-4.607864">
        <ele>838.0</ele>
        <time>2021-08-17T05:33:33Z</time>
        <sat>8</sat>
      </trkpt>
      <trkpt lat="42.339614" lon="-4.607979">
        <ele>837.4</ele>
        <time>2021-08-17T05:33:40Z</time>
        <sat>7</sat>
      </trkpt>
      <trkpt lat="42.339604" lon="-4.608094">
        <ele>836.7</ele>
        <time>2021-08-17T05:33:47Z</time>
        <sat>8</sat>
      </trkpt>
      <trkpt lat="42.339608" lon="-4.608214">
        <ele>835.7</ele>
        <time>2021-08-17T05:33:54Z</time>
        <sat>8</sat>
      </trkpt>
      <trkpt lat="42.339621" lon="-4.608334">
        <ele>835.1</ele>
        <time>2021-08-17T05:34:01Z</time>
        <sat>8</sat>
      </trkpt>
      <trkpt lat="42.339671" lon="-4.608430">
        <ele>834.7</ele>
        <time>2021-08-17T05:34:07Z</time>
        <sat>9</sat>
      </trkpt>
      <trkpt lat="42.339719" lon="-4.608533">
        <ele>834.1</ele>
        <time>2021-08-17T05:34:14Z</time>
        <sat>8</sat>
      </trkpt>
      <trkpt lat="42.339776" lon="-4.608629">
        <ele>833.6</ele>
        <time>2021-08-17T05:34:21Z</time>
        <sat>9</sat>
      </trkpt>
      <trkpt lat="42.339825" lon="-4.608731">
        <ele>833.3</ele>
        <time>2021-08-17T05:34:28Z</time>
        <sat>9</sat>
      </trkpt>
      <trkpt lat="42.339879" lon="-4.608832">
        <ele>832.9</ele>
        <time>2021-08-17T05:34:36Z</time>
        <sat>9</sat>
      </trkpt>
      <trkpt lat="42.339936" lon="-4.608928">
        <ele>832.7</ele>
        <time>2021-08-17T05:34:43Z</time>
        <sat>9</sat>
      </trkpt>
      <trkpt lat="42.339987" lon="-4.609020">
        <ele>832.6</ele>
        <time>2021-08-17T05:34:50Z</time>
        <sat>9</sat>
      </trkpt>
      <trkpt lat="42.340041" lon="-4.609107">
        <ele>832.4</ele>
        <time>2021-08-17T05:34:57Z</time>
        <sat>9</sat>
      </trkpt>
      <trkpt lat="42.340093" lon="-4.609203">
        <ele>832.3</ele>
        <time>2021-08-17T05:35:04Z</time>
        <sat>9</sat>
      </trkpt>
      <trkpt lat="42.340151" lon="-4.609290">
        <ele>832.4</ele>
        <time>2021-08-17T05:35:11Z</time>
        <sat>9</sat>
      </trkpt>
      <trkpt lat="42.340202" lon="-4.609391">
        <ele>832.4</ele>
        <time>2021-08-17T05:35:18Z</time>
        <sat>9</sat>
      </trkpt>
      <trkpt lat="42.340249" lon="-4.609484">
        <ele>832.4</ele>
        <time>2021-08-17T05:35:25Z</time>
        <sat>9</sat>
      </trkpt>
      <trkpt lat="42.340300" lon="-4.609575">
        <ele>832.3</ele>
        <time>2021-08-17T05:35:32Z</time>
        <sat>9</sat>
      </trkpt>
      <trkpt lat="42.340360" lon="-4.609667">
        <ele>832.3</ele>
        <time>2021-08-17T05:35:39Z</time>
        <sat>9</sat>
      </trkpt>
      <trkpt lat="42.340416" lon="-4.609765">
        <ele>832.3</ele>
        <time>2021-08-17T05:35:46Z</time>
        <sat>9</sat>
      </trkpt>
      <trkpt lat="42.340467" lon="-4.609860">
        <ele>832.3</ele>
        <time>2021-08-17T05:35:53Z</time>
        <sat>9</sat>
      </trkpt>
      <trkpt lat="42.340525" lon="-4.609947">
        <ele>832.2</ele>
        <time>2021-08-17T05:36:00Z</time>
        <sat>9</sat>
      </trkpt>
      <trkpt lat="42.340587" lon="-4.610032">
        <ele>832.1</ele>
        <time>2021-08-17T05:36:07Z</time>
        <sat>9</sat>
      </trkpt>
      <trkpt lat="42.340646" lon="-4.610118">
        <ele>832.1</ele>
        <time>2021-08-17T05:36:15Z</time>
        <sat>7</sat>
      </trkpt>
      <trkpt lat="42.340693" lon="-4.610220">
        <ele>832.1</ele>
        <time>2021-08-17T05:36:22Z</time>
        <sat>9</sat>
      </trkpt>
      <trkpt lat="42.340736" lon="-4.610323">
        <ele>832.1</ele>
        <time>2021-08-17T05:36:30Z</time>
        <sat>9</sat>
      </trkpt>
      <trkpt lat="42.340760" lon="-4.610429">
        <ele>832.2</ele>
        <time>2021-08-17T05:36:36Z</time>
        <sat>9</sat>
      </trkpt>
      <trkpt lat="42.340763" lon="-4.610539">
        <ele>832.3</ele>
        <time>2021-08-17T05:36:42Z</time>
        <sat>9</sat>
      </trkpt>
      <trkpt lat="42.340747" lon="-4.610655">
        <ele>832.3</ele>
        <time>2021-08-17T05:36:49Z</time>
        <sat>9</sat>
      </trkpt>
      <trkpt lat="42.340752" lon="-4.610780">
        <ele>832.3</ele>
        <time>2021-08-17T05:36:56Z</time>
        <sat>9</sat>
      </trkpt>
      <trkpt lat="42.340745" lon="-4.610905">
        <ele>832.2</ele>
        <time>2021-08-17T05:37:03Z</time>
        <sat>9</sat>
      </trkpt>
      <trkpt lat="42.340742" lon="-4.611028">
        <ele>832.3</ele>
        <time>2021-08-17T05:37:10Z</time>
        <sat>8</sat>
      </trkpt>
      <trkpt lat="42.340737" lon="-4.611140">
        <ele>832.4</ele>
        <time>2021-08-17T05:37:17Z</time>
        <sat>9</sat>
      </trkpt>
      <trkpt lat="42.340724" lon="-4.611262">
        <ele>832.4</ele>
        <time>2021-08-17T05:37:24Z</time>
        <sat>9</sat>
      </trkpt>
      <trkpt lat="42.340719" lon="-4.611382">
        <ele>832.3</ele>
        <time>2021-08-17T05:37:31Z</time>
        <sat>9</sat>
      </trkpt>
      <trkpt lat="42.340718" lon="-4.611504">
        <ele>832.4</ele>
        <time>2021-08-17T05:37:38Z</time>
        <sat>9</sat>
      </trkpt>
      <trkpt lat="42.340715" lon="-4.611617">
        <ele>832.5</ele>
        <time>2021-08-17T05:37:45Z</time>
        <sat>9</sat>
      </trkpt>
      <trkpt lat="42.340710" lon="-4.611743">
        <ele>832.4</ele>
        <time>2021-08-17T05:37:53Z</time>
        <sat>9</sat>
      </trkpt>
      <trkpt lat="42.340720" lon="-4.611858">
        <ele>832.4</ele>
        <time>2021-08-17T05:37:59Z</time>
        <sat>9</sat>
      </trkpt>
      <trkpt lat="42.340735" lon="-4.611979">
        <ele>832.4</ele>
        <time>2021-08-17T05:38:06Z</time>
        <sat>9</sat>
      </trkpt>
      <trkpt lat="42.340738" lon="-4.612092">
        <ele>832.7</ele>
        <time>2021-08-17T05:38:13Z</time>
        <sat>9</sat>
      </trkpt>
      <trkpt lat="42.340750" lon="-4.612212">
        <ele>832.8</ele>
        <time>2021-08-17T05:38:20Z</time>
        <sat>9</sat>
      </trkpt>
      <trkpt lat="42.340756" lon="-4.612340">
        <ele>832.8</ele>
        <time>2021-08-17T05:38:27Z</time>
        <sat>9</sat>
      </trkpt>
      <trkpt lat="42.340739" lon="-4.612450">
        <ele>832.7</ele>
        <time>2021-08-17T05:38:34Z</time>
        <sat>9</sat>
      </trkpt>
      <trkpt lat="42.340751" lon="-4.612570">
        <ele>832.7</ele>
        <time>2021-08-17T05:38:41Z</time>
        <sat>9</sat>
      </trkpt>
      <trkpt lat="42.340748" lon="-4.612693">
        <ele>832.5</ele>
        <time>2021-08-17T05:38:48Z</time>
        <sat>9</sat>
      </trkpt>
      <trkpt lat="42.340755" lon="-4.612805">
        <ele>832.3</ele>
        <time>2021-08-17T05:38:55Z</time>
        <sat>9</sat>
      </trkpt>
      <trkpt lat="42.340779" lon="-4.612927">
        <ele>832.2</ele>
        <time>2021-08-17T05:39:02Z</time>
        <sat>9</sat>
      </trkpt>
      <trkpt lat="42.340812" lon="-4.613029">
        <ele>832.2</ele>
        <time>2021-08-17T05:39:08Z</time>
        <sat>9</sat>
      </trkpt>
      <trkpt lat="42.340872" lon="-4.613128">
        <ele>832.0</ele>
        <time>2021-08-17T05:39:15Z</time>
        <sat>9</sat>
      </trkpt>
      <trkpt lat="42.340929" lon="-4.613219">
        <ele>831.9</ele>
        <time>2021-08-17T05:39:21Z</time>
        <sat>9</sat>
      </trkpt>
      <trkpt lat="42.340983" lon="-4.613309">
        <ele>831.9</ele>
        <time>2021-08-17T05:39:27Z</time>
        <sat>9</sat>
      </trkpt>
      <trkpt lat="42.341021" lon="-4.613414">
        <ele>831.8</ele>
        <time>2021-08-17T05:39:34Z</time>
        <sat>9</sat>
      </trkpt>
      <trkpt lat="42.341015" lon="-4.613540">
        <ele>831.8</ele>
        <time>2021-08-17T05:39:41Z</time>
        <sat>9</sat>
      </trkpt>
      <trkpt lat="42.340994" lon="-4.613653">
        <ele>831.8</ele>
        <time>2021-08-17T05:39:48Z</time>
        <sat>9</sat>
      </trkpt>
      <trkpt lat="42.340969" lon="-4.613761">
        <ele>831.8</ele>
        <time>2021-08-17T05:39:55Z</time>
        <sat>9</sat>
      </trkpt>
      <trkpt lat="42.340919" lon="-4.613860">
        <ele>831.6</ele>
        <time>2021-08-17T05:40:04Z</time>
        <sat>9</sat>
      </trkpt>
      <trkpt lat="42.340894" lon="-4.613965">
        <ele>831.5</ele>
        <time>2021-08-17T05:40:11Z</time>
        <sat>9</sat>
      </trkpt>
      <trkpt lat="42.340889" lon="-4.614090">
        <ele>831.4</ele>
        <time>2021-08-17T05:40:19Z</time>
        <sat>8</sat>
      </trkpt>
      <trkpt lat="42.340898" lon="-4.614208">
        <ele>831.3</ele>
        <time>2021-08-17T05:40:26Z</time>
        <sat>9</sat>
      </trkpt>
      <trkpt lat="42.340908" lon="-4.614330">
        <ele>831.2</ele>
        <time>2021-08-17T05:40:33Z</time>
        <sat>9</sat>
      </trkpt>
      <trkpt lat="42.340923" lon="-4.614450">
        <ele>831.1</ele>
        <time>2021-08-17T05:40:40Z</time>
        <sat>9</sat>
      </trkpt>
      <trkpt lat="42.340947" lon="-4.614568">
        <ele>831.0</ele>
        <time>2021-08-17T05:40:47Z</time>
        <sat>9</sat>
      </trkpt>
      <trkpt lat="42.340949" lon="-4.614678">
        <ele>830.8</ele>
        <time>2021-08-17T05:40:54Z</time>
        <sat>9</sat>
      </trkpt>
      <trkpt lat="42.340961" lon="-4.614795">
        <ele>829.4</ele>
        <time>2021-08-17T05:41:01Z</time>
        <sat>9</sat>
      </trkpt>
      <trkpt lat="42.340976" lon="-4.614910">
        <ele>830.9</ele>
        <time>2021-08-17T05:41:08Z</time>
        <sat>9</sat>
      </trkpt>
      <trkpt lat="42.340992" lon="-4.615034">
        <ele>830.4</ele>
        <time>2021-08-17T05:41:16Z</time>
        <sat>9</sat>
      </trkpt>
      <trkpt lat="42.340997" lon="-4.615153">
        <ele>829.7</ele>
        <time>2021-08-17T05:41:24Z</time>
        <sat>9</sat>
      </trkpt>
      <trkpt lat="42.341007" lon="-4.615272">
        <ele>829.7</ele>
        <time>2021-08-17T05:41:32Z</time>
        <sat>8</sat>
      </trkpt>
      <trkpt lat="42.341017" lon="-4.615385">
        <ele>829.7</ele>
        <time>2021-08-17T05:41:38Z</time>
        <sat>9</sat>
      </trkpt>
      <trkpt lat="42.341021" lon="-4.615503">
        <ele>829.7</ele>
        <time>2021-08-17T05:41:45Z</time>
        <sat>8</sat>
      </trkpt>
      <trkpt lat="42.341036" lon="-4.615613">
        <ele>830.0</ele>
        <time>2021-08-17T05:41:52Z</time>
        <sat>8</sat>
      </trkpt>
      <trkpt lat="42.341035" lon="-4.615736">
        <ele>830.1</ele>
        <time>2021-08-17T05:41:59Z</time>
        <sat>9</sat>
      </trkpt>
      <trkpt lat="42.341046" lon="-4.615862">
        <ele>830.1</ele>
        <time>2021-08-17T05:42:06Z</time>
        <sat>9</sat>
      </trkpt>
      <trkpt lat="42.341045" lon="-4.615985">
        <ele>830.0</ele>
        <time>2021-08-17T05:42:13Z</time>
        <sat>9</sat>
      </trkpt>
      <trkpt lat="42.341050" lon="-4.616099">
        <ele>829.9</ele>
        <time>2021-08-17T05:42:20Z</time>
        <sat>9</sat>
      </trkpt>
      <trkpt lat="42.341057" lon="-4.616225">
        <ele>829.7</ele>
        <time>2021-08-17T05:42:27Z</time>
        <sat>9</sat>
      </trkpt>
      <trkpt lat="42.341059" lon="-4.616348">
        <ele>829.8</ele>
        <time>2021-08-17T05:42:34Z</time>
        <sat>9</sat>
      </trkpt>
      <trkpt lat="42.341065" lon="-4.616461">
        <ele>829.5</ele>
        <time>2021-08-17T05:42:41Z</time>
        <sat>9</sat>
      </trkpt>
      <trkpt lat="42.341072" lon="-4.616587">
        <ele>829.6</ele>
        <time>2021-08-17T05:42:49Z</time>
        <sat>9</sat>
      </trkpt>
      <trkpt lat="42.341082" lon="-4.616699">
        <ele>829.4</ele>
        <time>2021-08-17T05:42:55Z</time>
        <sat>9</sat>
      </trkpt>
      <trkpt lat="42.341085" lon="-4.616814">
        <ele>829.2</ele>
        <time>2021-08-17T05:43:02Z</time>
        <sat>9</sat>
      </trkpt>
      <trkpt lat="42.341094" lon="-4.616927">
        <ele>829.2</ele>
        <time>2021-08-17T05:43:09Z</time>
        <sat>9</sat>
      </trkpt>
      <trkpt lat="42.341097" lon="-4.617045">
        <ele>829.4</ele>
        <time>2021-08-17T05:43:16Z</time>
        <sat>9</sat>
      </trkpt>
      <trkpt lat="42.341109" lon="-4.617160">
        <ele>829.5</ele>
        <time>2021-08-17T05:43:23Z</time>
        <sat>7</sat>
      </trkpt>
      <trkpt lat="42.341108" lon="-4.617272">
        <ele>829.3</ele>
        <time>2021-08-17T05:43:29Z</time>
        <sat>9</sat>
      </trkpt>
      <trkpt lat="42.341107" lon="-4.617392">
        <ele>828.7</ele>
        <time>2021-08-17T05:43:37Z</time>
        <sat>9</sat>
      </trkpt>
      <trkpt lat="42.341112" lon="-4.617510">
        <ele>829.1</ele>
        <time>2021-08-17T05:43:44Z</time>
        <sat>9</sat>
      </trkpt>
      <trkpt lat="42.341116" lon="-4.617633">
        <ele>828.9</ele>
        <time>2021-08-17T05:43:51Z</time>
        <sat>9</sat>
      </trkpt>
      <trkpt lat="42.341123" lon="-4.617757">
        <ele>829.7</ele>
        <time>2021-08-17T05:43:58Z</time>
        <sat>8</sat>
      </trkpt>
      <trkpt lat="42.341129" lon="-4.617872">
        <ele>830.2</ele>
        <time>2021-08-17T05:44:05Z</time>
        <sat>8</sat>
      </trkpt>
      <trkpt lat="42.341136" lon="-4.617995">
        <ele>830.3</ele>
        <time>2021-08-17T05:44:12Z</time>
        <sat>9</sat>
      </trkpt>
      <trkpt lat="42.341132" lon="-4.618105">
        <ele>830.2</ele>
        <time>2021-08-17T05:44:19Z</time>
        <sat>9</sat>
      </trkpt>
      <trkpt lat="42.341138" lon="-4.618218">
        <ele>829.3</ele>
        <time>2021-08-17T05:44:49Z</time>
        <sat>9</sat>
      </trkpt>
      <trkpt lat="42.341142" lon="-4.618334">
        <ele>829.1</ele>
        <time>2021-08-17T05:44:56Z</time>
        <sat>9</sat>
      </trkpt>
      <trkpt lat="42.341158" lon="-4.618450">
        <ele>828.8</ele>
        <time>2021-08-17T05:45:03Z</time>
        <sat>9</sat>
      </trkpt>
      <trkpt lat="42.341160" lon="-4.618574">
        <ele>828.5</ele>
        <time>2021-08-17T05:45:10Z</time>
        <sat>8</sat>
      </trkpt>
      <trkpt lat="42.341167" lon="-4.618693">
        <ele>828.4</ele>
        <time>2021-08-17T05:45:17Z</time>
        <sat>9</sat>
      </trkpt>
      <trkpt lat="42.341171" lon="-4.618820">
        <ele>828.4</ele>
        <time>2021-08-17T05:45:24Z</time>
        <sat>9</sat>
      </trkpt>
      <trkpt lat="42.341173" lon="-4.618943">
        <ele>828.4</ele>
        <time>2021-08-17T05:45:31Z</time>
        <sat>9</sat>
      </trkpt>
      <trkpt lat="42.341176" lon="-4.619069">
        <ele>828.4</ele>
        <time>2021-08-17T05:45:38Z</time>
        <sat>9</sat>
      </trkpt>
      <trkpt lat="42.341174" lon="-4.619188">
        <ele>828.3</ele>
        <time>2021-08-17T05:45:46Z</time>
        <sat>9</sat>
      </trkpt>
      <trkpt lat="42.341172" lon="-4.619300">
        <ele>828.0</ele>
        <time>2021-08-17T05:45:53Z</time>
        <sat>8</sat>
      </trkpt>
      <trkpt lat="42.341180" lon="-4.619425">
        <ele>827.7</ele>
        <time>2021-08-17T05:46:00Z</time>
        <sat>9</sat>
      </trkpt>
      <trkpt lat="42.341194" lon="-4.619539">
        <ele>827.6</ele>
        <time>2021-08-17T05:46:07Z</time>
        <sat>9</sat>
      </trkpt>
      <trkpt lat="42.341207" lon="-4.619664">
        <ele>827.4</ele>
        <time>2021-08-17T05:46:14Z</time>
        <sat>9</sat>
      </trkpt>
      <trkpt lat="42.341218" lon="-4.619784">
        <ele>827.4</ele>
        <time>2021-08-17T05:46:21Z</time>
        <sat>9</sat>
      </trkpt>
      <trkpt lat="42.341241" lon="-4.619903">
        <ele>827.3</ele>
        <time>2021-08-17T05:46:28Z</time>
        <sat>9</sat>
      </trkpt>
      <trkpt lat="42.341248" lon="-4.620028">
        <ele>827.2</ele>
        <time>2021-08-17T05:46:35Z</time>
        <sat>9</sat>
      </trkpt>
      <trkpt lat="42.341253" lon="-4.620141">
        <ele>827.2</ele>
        <time>2021-08-17T05:46:41Z</time>
        <sat>9</sat>
      </trkpt>
      <trkpt lat="42.341261" lon="-4.620255">
        <ele>827.0</ele>
        <time>2021-08-17T05:46:48Z</time>
        <sat>8</sat>
      </trkpt>
      <trkpt lat="42.341275" lon="-4.620377">
        <ele>827.0</ele>
        <time>2021-08-17T05:46:55Z</time>
        <sat>7</sat>
      </trkpt>
      <trkpt lat="42.341288" lon="-4.620503">
        <ele>826.9</ele>
        <time>2021-08-17T05:47:02Z</time>
        <sat>8</sat>
      </trkpt>
      <trkpt lat="42.341297" lon="-4.620627">
        <ele>826.9</ele>
        <time>2021-08-17T05:47:09Z</time>
        <sat>7</sat>
      </trkpt>
      <trkpt lat="42.341316" lon="-4.620750">
        <ele>826.8</ele>
        <time>2021-08-17T05:47:16Z</time>
        <sat>8</sat>
      </trkpt>
      <trkpt lat="42.341324" lon="-4.620872">
        <ele>826.7</ele>
        <time>2021-08-17T05:47:23Z</time>
        <sat>8</sat>
      </trkpt>
      <trkpt lat="42.341332" lon="-4.620983">
        <ele>826.7</ele>
        <time>2021-08-17T05:47:30Z</time>
        <sat>8</sat>
      </trkpt>
      <trkpt lat="42.341345" lon="-4.621108">
        <ele>826.6</ele>
        <time>2021-08-17T05:47:37Z</time>
        <sat>8</sat>
      </trkpt>
      <trkpt lat="42.341334" lon="-4.621226">
        <ele>826.6</ele>
        <time>2021-08-17T05:47:44Z</time>
        <sat>7</sat>
      </trkpt>
      <trkpt lat="42.341324" lon="-4.621348">
        <ele>826.5</ele>
        <time>2021-08-17T05:47:51Z</time>
        <sat>8</sat>
      </trkpt>
      <trkpt lat="42.341288" lon="-4.621459">
        <ele>826.4</ele>
        <time>2021-08-17T05:47:58Z</time>
        <sat>8</sat>
      </trkpt>
      <trkpt lat="42.341264" lon="-4.621578">
        <ele>826.3</ele>
        <time>2021-08-17T05:48:05Z</time>
        <sat>8</sat>
      </trkpt>
      <trkpt lat="42.341275" lon="-4.621702">
        <ele>826.3</ele>
        <time>2021-08-17T05:48:12Z</time>
        <sat>8</sat>
      </trkpt>
      <trkpt lat="42.341307" lon="-4.621813">
        <ele>826.2</ele>
        <time>2021-08-17T05:48:19Z</time>
        <sat>9</sat>
      </trkpt>
      <trkpt lat="42.341379" lon="-4.621893">
        <ele>825.8</ele>
        <time>2021-08-17T05:49:23Z</time>
        <sat>7</sat>
      </trkpt>
      <trkpt lat="42.341415" lon="-4.622006">
        <ele>825.9</ele>
        <time>2021-08-17T05:49:30Z</time>
        <sat>8</sat>
      </trkpt>
      <trkpt lat="42.341459" lon="-4.622113">
        <ele>825.9</ele>
        <time>2021-08-17T05:49:37Z</time>
        <sat>8</sat>
      </trkpt>
      <trkpt lat="42.341478" lon="-4.622234">
        <ele>825.8</ele>
        <time>2021-08-17T05:49:44Z</time>
        <sat>9</sat>
      </trkpt>
      <trkpt lat="42.341485" lon="-4.622353">
        <ele>825.5</ele>
        <time>2021-08-17T05:49:56Z</time>
        <sat>9</sat>
      </trkpt>
      <trkpt lat="42.341468" lon="-4.622468">
        <ele>825.3</ele>
        <time>2021-08-17T05:50:02Z</time>
        <sat>9</sat>
      </trkpt>
      <trkpt lat="42.341478" lon="-4.622592">
        <ele>825.3</ele>
        <time>2021-08-17T05:50:08Z</time>
        <sat>8</sat>
      </trkpt>
      <trkpt lat="42.341495" lon="-4.622707">
        <ele>825.2</ele>
        <time>2021-08-17T05:50:14Z</time>
        <sat>8</sat>
      </trkpt>
      <trkpt lat="42.341498" lon="-4.622819">
        <ele>825.1</ele>
        <time>2021-08-17T05:50:21Z</time>
        <sat>9</sat>
      </trkpt>
      <trkpt lat="42.341514" lon="-4.622943">
        <ele>825.1</ele>
        <time>2021-08-17T05:50:29Z</time>
        <sat>9</sat>
      </trkpt>
      <trkpt lat="42.341527" lon="-4.623065">
        <ele>825.1</ele>
        <time>2021-08-17T05:50:36Z</time>
        <sat>9</sat>
      </trkpt>
      <trkpt lat="42.341528" lon="-4.623185">
        <ele>825.0</ele>
        <time>2021-08-17T05:50:43Z</time>
        <sat>9</sat>
      </trkpt>
      <trkpt lat="42.341533" lon="-4.623297">
        <ele>825.0</ele>
        <time>2021-08-17T05:50:49Z</time>
        <sat>9</sat>
      </trkpt>
      <trkpt lat="42.341543" lon="-4.623419">
        <ele>824.8</ele>
        <time>2021-08-17T05:50:56Z</time>
        <sat>9</sat>
      </trkpt>
      <trkpt lat="42.341553" lon="-4.623541">
        <ele>824.7</ele>
        <time>2021-08-17T05:51:03Z</time>
        <sat>8</sat>
      </trkpt>
      <trkpt lat="42.341562" lon="-4.623662">
        <ele>824.6</ele>
        <time>2021-08-17T05:51:10Z</time>
        <sat>8</sat>
      </trkpt>
      <trkpt lat="42.341575" lon="-4.623778">
        <ele>824.5</ele>
        <time>2021-08-17T05:51:17Z</time>
        <sat>9</sat>
      </trkpt>
      <trkpt lat="42.341590" lon="-4.623896">
        <ele>824.6</ele>
        <time>2021-08-17T05:51:24Z</time>
        <sat>9</sat>
      </trkpt>
      <trkpt lat="42.341603" lon="-4.624011">
        <ele>824.6</ele>
        <time>2021-08-17T05:51:31Z</time>
        <sat>9</sat>
      </trkpt>
      <trkpt lat="42.341604" lon="-4.624126">
        <ele>824.6</ele>
        <time>2021-08-17T05:51:38Z</time>
        <sat>9</sat>
      </trkpt>
      <trkpt lat="42.341610" lon="-4.624249">
        <ele>824.4</ele>
        <time>2021-08-17T05:51:58Z</time>
        <sat>9</sat>
      </trkpt>
      <trkpt lat="42.341597" lon="-4.624365">
        <ele>824.4</ele>
        <time>2021-08-17T05:52:07Z</time>
        <sat>9</sat>
      </trkpt>
      <trkpt lat="42.341597" lon="-4.624484">
        <ele>824.3</ele>
        <time>2021-08-17T05:52:13Z</time>
        <sat>8</sat>
      </trkpt>
      <trkpt lat="42.341613" lon="-4.624596">
        <ele>824.2</ele>
        <time>2021-08-17T05:52:22Z</time>
        <sat>8</sat>
      </trkpt>
      <trkpt lat="42.341635" lon="-4.624709">
        <ele>824.1</ele>
        <time>2021-08-17T05:52:28Z</time>
        <sat>8</sat>
      </trkpt>
      <trkpt lat="42.341649" lon="-4.624817">
        <ele>824.1</ele>
        <time>2021-08-17T05:52:34Z</time>
        <sat>8</sat>
      </trkpt>
      <trkpt lat="42.341662" lon="-4.624932">
        <ele>824.2</ele>
        <time>2021-08-17T05:52:40Z</time>
        <sat>8</sat>
      </trkpt>
      <trkpt lat="42.341674" lon="-4.625040">
        <ele>824.2</ele>
        <time>2021-08-17T05:52:46Z</time>
        <sat>8</sat>
      </trkpt>
      <trkpt lat="42.341672" lon="-4.625157">
        <ele>824.0</ele>
        <time>2021-08-17T05:52:52Z</time>
        <sat>8</sat>
      </trkpt>
      <trkpt lat="42.341691" lon="-4.625265">
        <ele>824.0</ele>
        <time>2021-08-17T05:52:58Z</time>
        <sat>8</sat>
      </trkpt>
      <trkpt lat="42.341698" lon="-4.625388">
        <ele>824.0</ele>
        <time>2021-08-17T05:53:05Z</time>
        <sat>8</sat>
      </trkpt>
      <trkpt lat="42.341711" lon="-4.625508">
        <ele>823.9</ele>
        <time>2021-08-17T05:53:12Z</time>
        <sat>7</sat>
      </trkpt>
      <trkpt lat="42.341721" lon="-4.625625">
        <ele>823.8</ele>
        <time>2021-08-17T05:53:19Z</time>
        <sat>8</sat>
      </trkpt>
      <trkpt lat="42.341729" lon="-4.625736">
        <ele>823.8</ele>
        <time>2021-08-17T05:53:26Z</time>
        <sat>8</sat>
      </trkpt>
      <trkpt lat="42.341742" lon="-4.625853">
        <ele>823.8</ele>
        <time>2021-08-17T05:53:33Z</time>
        <sat>7</sat>
      </trkpt>
      <trkpt lat="42.341752" lon="-4.625969">
        <ele>823.8</ele>
        <time>2021-08-17T05:53:40Z</time>
        <sat>7</sat>
      </trkpt>
      <trkpt lat="42.341765" lon="-4.626082">
        <ele>823.8</ele>
        <time>2021-08-17T05:53:47Z</time>
        <sat>7</sat>
      </trkpt>
      <trkpt lat="42.341788" lon="-4.626192">
        <ele>823.8</ele>
        <time>2021-08-17T05:53:54Z</time>
        <sat>7</sat>
      </trkpt>
      <trkpt lat="42.341800" lon="-4.626301">
        <ele>823.8</ele>
        <time>2021-08-17T05:54:01Z</time>
        <sat>7</sat>
      </trkpt>
      <trkpt lat="42.341817" lon="-4.626409">
        <ele>823.8</ele>
        <time>2021-08-17T05:54:08Z</time>
        <sat>7</sat>
      </trkpt>
      <trkpt lat="42.341826" lon="-4.626520">
        <ele>823.8</ele>
        <time>2021-08-17T05:54:15Z</time>
        <sat>7</sat>
      </trkpt>
      <trkpt lat="42.341832" lon="-4.626631">
        <ele>824.0</ele>
        <time>2021-08-17T05:54:22Z</time>
        <sat>7</sat>
      </trkpt>
      <trkpt lat="42.341845" lon="-4.626741">
        <ele>823.9</ele>
        <time>2021-08-17T05:54:28Z</time>
        <sat>7</sat>
      </trkpt>
      <trkpt lat="42.341854" lon="-4.626859">
        <ele>823.8</ele>
        <time>2021-08-17T05:54:35Z</time>
        <sat>7</sat>
      </trkpt>
      <trkpt lat="42.341866" lon="-4.626984">
        <ele>823.6</ele>
        <time>2021-08-17T05:54:42Z</time>
        <sat>7</sat>
      </trkpt>
      <trkpt lat="42.341882" lon="-4.627104">
        <ele>823.5</ele>
        <time>2021-08-17T05:54:49Z</time>
        <sat>7</sat>
      </trkpt>
      <trkpt lat="42.341887" lon="-4.627224">
        <ele>822.8</ele>
        <time>2021-08-17T05:54:56Z</time>
        <sat>7</sat>
      </trkpt>
      <trkpt lat="42.341896" lon="-4.627341">
        <ele>823.6</ele>
        <time>2021-08-17T05:55:03Z</time>
        <sat>7</sat>
      </trkpt>
      <trkpt lat="42.341907" lon="-4.627459">
        <ele>823.6</ele>
        <time>2021-08-17T05:55:10Z</time>
        <sat>7</sat>
      </trkpt>
      <trkpt lat="42.341912" lon="-4.627570">
        <ele>823.6</ele>
        <time>2021-08-17T05:55:17Z</time>
        <sat>7</sat>
      </trkpt>
      <trkpt lat="42.341931" lon="-4.627688">
        <ele>823.5</ele>
        <time>2021-08-17T05:55:24Z</time>
        <sat>7</sat>
      </trkpt>
      <trkpt lat="42.341947" lon="-4.627810">
        <ele>823.4</ele>
        <time>2021-08-17T05:55:31Z</time>
        <sat>7</sat>
      </trkpt>
      <trkpt lat="42.341954" lon="-4.627929">
        <ele>823.3</ele>
        <time>2021-08-17T05:55:38Z</time>
        <sat>7</sat>
      </trkpt>
      <trkpt lat="42.341963" lon="-4.628041">
        <ele>823.3</ele>
        <time>2021-08-17T05:55:45Z</time>
        <sat>7</sat>
      </trkpt>
      <trkpt lat="42.341980" lon="-4.628161">
        <ele>823.2</ele>
        <time>2021-08-17T05:55:53Z</time>
        <sat>7</sat>
      </trkpt>
      <trkpt lat="42.341993" lon="-4.628284">
        <ele>823.0</ele>
        <time>2021-08-17T05:56:00Z</time>
        <sat>7</sat>
      </trkpt>
      <trkpt lat="42.342004" lon="-4.628401">
        <ele>823.0</ele>
        <time>2021-08-17T05:56:07Z</time>
        <sat>7</sat>
      </trkpt>
      <trkpt lat="42.342020" lon="-4.628522">
        <ele>822.8</ele>
        <time>2021-08-17T05:56:14Z</time>
        <sat>7</sat>
      </trkpt>
      <trkpt lat="42.342030" lon="-4.628640">
        <ele>822.8</ele>
        <time>2021-08-17T05:56:21Z</time>
        <sat>7</sat>
      </trkpt>
      <trkpt lat="42.342044" lon="-4.628762">
        <ele>822.8</ele>
        <time>2021-08-17T05:56:28Z</time>
        <sat>7</sat>
      </trkpt>
      <trkpt lat="42.342054" lon="-4.628881">
        <ele>822.7</ele>
        <time>2021-08-17T05:56:35Z</time>
        <sat>7</sat>
      </trkpt>
      <trkpt lat="42.342063" lon="-4.629003">
        <ele>822.7</ele>
        <time>2021-08-17T05:56:42Z</time>
        <sat>7</sat>
      </trkpt>
      <trkpt lat="42.342079" lon="-4.629126">
        <ele>822.7</ele>
        <time>2021-08-17T05:56:49Z</time>
        <sat>7</sat>
      </trkpt>
      <trkpt lat="42.342091" lon="-4.629245">
        <ele>822.6</ele>
        <time>2021-08-17T05:56:56Z</time>
        <sat>7</sat>
      </trkpt>
      <trkpt lat="42.342107" lon="-4.629365">
        <ele>822.7</ele>
        <time>2021-08-17T05:57:03Z</time>
        <sat>7</sat>
      </trkpt>
      <trkpt lat="42.342125" lon="-4.629484">
        <ele>822.6</ele>
        <time>2021-08-17T05:57:10Z</time>
        <sat>7</sat>
      </trkpt>
      <trkpt lat="42.342129" lon="-4.629601">
        <ele>822.6</ele>
        <time>2021-08-17T05:57:17Z</time>
        <sat>7</sat>
      </trkpt>
      <trkpt lat="42.342140" lon="-4.629718">
        <ele>822.6</ele>
        <time>2021-08-17T05:57:24Z</time>
        <sat>7</sat>
      </trkpt>
      <trkpt lat="42.342151" lon="-4.629840">
        <ele>822.5</ele>
        <time>2021-08-17T05:57:31Z</time>
        <sat>7</sat>
      </trkpt>
      <trkpt lat="42.342157" lon="-4.629962">
        <ele>822.5</ele>
        <time>2021-08-17T05:57:38Z</time>
        <sat>7</sat>
      </trkpt>
      <trkpt lat="42.342169" lon="-4.630071">
        <ele>822.5</ele>
        <time>2021-08-17T05:57:44Z</time>
        <sat>7</sat>
      </trkpt>
      <trkpt lat="42.342173" lon="-4.630193">
        <ele>822.4</ele>
        <time>2021-08-17T05:57:51Z</time>
        <sat>7</sat>
      </trkpt>
      <trkpt lat="42.342184" lon="-4.630304">
        <ele>822.4</ele>
        <time>2021-08-17T05:57:58Z</time>
        <sat>7</sat>
      </trkpt>
      <trkpt lat="42.342187" lon="-4.630415">
        <ele>822.4</ele>
        <time>2021-08-17T05:58:04Z</time>
        <sat>7</sat>
      </trkpt>
      <trkpt lat="42.342197" lon="-4.630539">
        <ele>822.4</ele>
        <time>2021-08-17T05:58:11Z</time>
        <sat>7</sat>
      </trkpt>
      <trkpt lat="42.342202" lon="-4.630665">
        <ele>822.5</ele>
        <time>2021-08-17T05:58:18Z</time>
        <sat>7</sat>
      </trkpt>
      <trkpt lat="42.342215" lon="-4.630785">
        <ele>822.5</ele>
        <time>2021-08-17T05:58:25Z</time>
        <sat>7</sat>
      </trkpt>
      <trkpt lat="42.342227" lon="-4.630906">
        <ele>820.9</ele>
        <time>2021-08-17T05:58:32Z</time>
        <sat>7</sat>
      </trkpt>
      <trkpt lat="42.342242" lon="-4.631019">
        <ele>821.7</ele>
        <time>2021-08-17T05:58:39Z</time>
        <sat>7</sat>
      </trkpt>
      <trkpt lat="42.342247" lon="-4.631142">
        <ele>817.8</ele>
        <time>2021-08-17T05:58:46Z</time>
        <sat>7</sat>
      </trkpt>
      <trkpt lat="42.342258" lon="-4.631252">
        <ele>824.0</ele>
        <time>2021-08-17T05:58:52Z</time>
        <sat>7</sat>
      </trkpt>
      <trkpt lat="42.342256" lon="-4.631374">
        <ele>824.2</ele>
        <time>2021-08-17T05:58:59Z</time>
        <sat>7</sat>
      </trkpt>
      <trkpt lat="42.342263" lon="-4.631494">
        <ele>823.3</ele>
        <time>2021-08-17T05:59:06Z</time>
        <sat>7</sat>
      </trkpt>
      <trkpt lat="42.342273" lon="-4.631619">
        <ele>822.8</ele>
        <time>2021-08-17T05:59:13Z</time>
        <sat>7</sat>
      </trkpt>
      <trkpt lat="42.342278" lon="-4.631737">
        <ele>822.4</ele>
        <time>2021-08-17T05:59:20Z</time>
        <sat>7</sat>
      </trkpt>
      <trkpt lat="42.342287" lon="-4.631855">
        <ele>822.1</ele>
        <time>2021-08-17T05:59:27Z</time>
        <sat>7</sat>
      </trkpt>
      <trkpt lat="42.342292" lon="-4.631981">
        <ele>822.1</ele>
        <time>2021-08-17T05:59:34Z</time>
        <sat>7</sat>
      </trkpt>
      <trkpt lat="42.342302" lon="-4.632102">
        <ele>822.0</ele>
        <time>2021-08-17T05:59:41Z</time>
        <sat>7</sat>
      </trkpt>
      <trkpt lat="42.342307" lon="-4.632212">
        <ele>821.9</ele>
        <time>2021-08-17T05:59:47Z</time>
        <sat>7</sat>
      </trkpt>
      <trkpt lat="42.342311" lon="-4.632332">
        <ele>821.8</ele>
        <time>2021-08-17T05:59:54Z</time>
        <sat>7</sat>
      </trkpt>
      <trkpt lat="42.342319" lon="-4.632453">
        <ele>821.8</ele>
        <time>2021-08-17T06:00:01Z</time>
        <sat>7</sat>
      </trkpt>
      <trkpt lat="42.342324" lon="-4.632578">
        <ele>821.8</ele>
        <time>2021-08-17T06:00:08Z</time>
        <sat>7</sat>
      </trkpt>
      <trkpt lat="42.342343" lon="-4.632692">
        <ele>821.7</ele>
        <time>2021-08-17T06:00:15Z</time>
        <sat>7</sat>
      </trkpt>
      <trkpt lat="42.342354" lon="-4.632817">
        <ele>821.7</ele>
        <time>2021-08-17T06:00:22Z</time>
        <sat>7</sat>
      </trkpt>
      <trkpt lat="42.342379" lon="-4.632939">
        <ele>821.8</ele>
        <time>2021-08-17T06:00:29Z</time>
        <sat>7</sat>
      </trkpt>
      <trkpt lat="42.342394" lon="-4.633050">
        <ele>821.8</ele>
        <time>2021-08-17T06:00:37Z</time>
        <sat>7</sat>
      </trkpt>
      <trkpt lat="42.342412" lon="-4.633165">
        <ele>821.7</ele>
        <time>2021-08-17T06:00:44Z</time>
        <sat>7</sat>
      </trkpt>
      <trkpt lat="42.342426" lon="-4.633282">
        <ele>821.7</ele>
        <time>2021-08-17T06:00:51Z</time>
        <sat>7</sat>
      </trkpt>
      <trkpt lat="42.342443" lon="-4.633398">
        <ele>821.7</ele>
        <time>2021-08-17T06:00:59Z</time>
        <sat>7</sat>
      </trkpt>
      <trkpt lat="42.342450" lon="-4.633507">
        <ele>821.6</ele>
        <time>2021-08-17T06:01:05Z</time>
        <sat>7</sat>
      </trkpt>
      <trkpt lat="42.342460" lon="-4.633632">
        <ele>821.7</ele>
        <time>2021-08-17T06:01:12Z</time>
        <sat>7</sat>
      </trkpt>
      <trkpt lat="42.342462" lon="-4.633746">
        <ele>821.7</ele>
        <time>2021-08-17T06:01:18Z</time>
        <sat>7</sat>
      </trkpt>
      <trkpt lat="42.342471" lon="-4.633870">
        <ele>821.7</ele>
        <time>2021-08-17T06:01:25Z</time>
        <sat>7</sat>
      </trkpt>
      <trkpt lat="42.342481" lon="-4.633980">
        <ele>821.6</ele>
        <time>2021-08-17T06:01:31Z</time>
        <sat>7</sat>
      </trkpt>
      <trkpt lat="42.342500" lon="-4.634100">
        <ele>821.5</ele>
        <time>2021-08-17T06:01:38Z</time>
        <sat>7</sat>
      </trkpt>
      <trkpt lat="42.342516" lon="-4.634210">
        <ele>821.4</ele>
        <time>2021-08-17T06:01:45Z</time>
        <sat>7</sat>
      </trkpt>
      <trkpt lat="42.342532" lon="-4.634328">
        <ele>821.3</ele>
        <time>2021-08-17T06:01:52Z</time>
        <sat>7</sat>
      </trkpt>
      <trkpt lat="42.342541" lon="-4.634448">
        <ele>821.3</ele>
        <time>2021-08-17T06:01:59Z</time>
        <sat>7</sat>
      </trkpt>
      <trkpt lat="42.342562" lon="-4.634565">
        <ele>821.2</ele>
        <time>2021-08-17T06:02:06Z</time>
        <sat>7</sat>
      </trkpt>
      <trkpt lat="42.342576" lon="-4.634675">
        <ele>820.9</ele>
        <time>2021-08-17T06:02:12Z</time>
        <sat>7</sat>
      </trkpt>
      <trkpt lat="42.342591" lon="-4.634789">
        <ele>820.9</ele>
        <time>2021-08-17T06:02:19Z</time>
        <sat>7</sat>
      </trkpt>
      <trkpt lat="42.342602" lon="-4.634905">
        <ele>820.9</ele>
        <time>2021-08-17T06:02:26Z</time>
        <sat>7</sat>
      </trkpt>
      <trkpt lat="42.342612" lon="-4.635022">
        <ele>820.8</ele>
        <time>2021-08-17T06:02:33Z</time>
        <sat>7</sat>
      </trkpt>
      <trkpt lat="42.342628" lon="-4.635141">
        <ele>820.8</ele>
        <time>2021-08-17T06:02:40Z</time>
        <sat>7</sat>
      </trkpt>
      <trkpt lat="42.342634" lon="-4.635260">
        <ele>820.7</ele>
        <time>2021-08-17T06:02:47Z</time>
        <sat>7</sat>
      </trkpt>
      <trkpt lat="42.342642" lon="-4.635379">
        <ele>820.7</ele>
        <time>2021-08-17T06:02:54Z</time>
        <sat>7</sat>
      </trkpt>
      <trkpt lat="42.342647" lon="-4.635501">
        <ele>820.5</ele>
        <time>2021-08-17T06:03:01Z</time>
        <sat>7</sat>
      </trkpt>
      <trkpt lat="42.342654" lon="-4.635623">
        <ele>820.5</ele>
        <time>2021-08-17T06:03:08Z</time>
        <sat>7</sat>
      </trkpt>
      <trkpt lat="42.342666" lon="-4.635741">
        <ele>820.4</ele>
        <time>2021-08-17T06:03:15Z</time>
        <sat>7</sat>
      </trkpt>
      <trkpt lat="42.342673" lon="-4.635864">
        <ele>820.3</ele>
        <time>2021-08-17T06:03:22Z</time>
        <sat>7</sat>
      </trkpt>
      <trkpt lat="42.342671" lon="-4.635975">
        <ele>820.3</ele>
        <time>2021-08-17T06:03:29Z</time>
        <sat>7</sat>
      </trkpt>
      <trkpt lat="42.342681" lon="-4.636088">
        <ele>820.3</ele>
        <time>2021-08-17T06:03:36Z</time>
        <sat>7</sat>
      </trkpt>
      <trkpt lat="42.342688" lon="-4.636212">
        <ele>820.2</ele>
        <time>2021-08-17T06:03:43Z</time>
        <sat>7</sat>
      </trkpt>
      <trkpt lat="42.342703" lon="-4.636331">
        <ele>820.2</ele>
        <time>2021-08-17T06:03:50Z</time>
        <sat>7</sat>
      </trkpt>
      <trkpt lat="42.342718" lon="-4.636442">
        <ele>820.2</ele>
        <time>2021-08-17T06:03:57Z</time>
        <sat>7</sat>
      </trkpt>
      <trkpt lat="42.342729" lon="-4.636563">
        <ele>820.3</ele>
        <time>2021-08-17T06:04:04Z</time>
        <sat>7</sat>
      </trkpt>
      <trkpt lat="42.342744" lon="-4.636686">
        <ele>820.2</ele>
        <time>2021-08-17T06:04:12Z</time>
        <sat>7</sat>
      </trkpt>
      <trkpt lat="42.342754" lon="-4.636795">
        <ele>820.4</ele>
        <time>2021-08-17T06:04:19Z</time>
        <sat>7</sat>
      </trkpt>
      <trkpt lat="42.342723" lon="-4.636898">
        <ele>820.5</ele>
        <time>2021-08-17T06:04:27Z</time>
        <sat>7</sat>
      </trkpt>
      <trkpt lat="42.342736" lon="-4.637018">
        <ele>820.5</ele>
        <time>2021-08-17T06:04:33Z</time>
        <sat>7</sat>
      </trkpt>
      <trkpt lat="42.342721" lon="-4.637136">
        <ele>820.4</ele>
        <time>2021-08-17T06:04:40Z</time>
        <sat>7</sat>
      </trkpt>
      <trkpt lat="42.342729" lon="-4.637259">
        <ele>820.3</ele>
        <time>2021-08-17T06:04:48Z</time>
        <sat>7</sat>
      </trkpt>
      <trkpt lat="42.342736" lon="-4.637384">
        <ele>820.3</ele>
        <time>2021-08-17T06:04:55Z</time>
        <sat>7</sat>
      </trkpt>
      <trkpt lat="42.342749" lon="-4.637500">
        <ele>820.3</ele>
        <time>2021-08-17T06:05:02Z</time>
        <sat>8</sat>
      </trkpt>
      <trkpt lat="42.342752" lon="-4.637618">
        <ele>820.4</ele>
        <time>2021-08-17T06:05:09Z</time>
        <sat>8</sat>
      </trkpt>
      <trkpt lat="42.342758" lon="-4.637731">
        <ele>820.5</ele>
        <time>2021-08-17T06:05:16Z</time>
        <sat>8</sat>
      </trkpt>
      <trkpt lat="42.342772" lon="-4.637846">
        <ele>820.5</ele>
        <time>2021-08-17T06:05:23Z</time>
        <sat>8</sat>
      </trkpt>
      <trkpt lat="42.342782" lon="-4.637961">
        <ele>820.7</ele>
        <time>2021-08-17T06:05:30Z</time>
        <sat>8</sat>
      </trkpt>
      <trkpt lat="42.342789" lon="-4.638076">
        <ele>820.7</ele>
        <time>2021-08-17T06:05:37Z</time>
        <sat>8</sat>
      </trkpt>
      <trkpt lat="42.342806" lon="-4.638183">
        <ele>820.8</ele>
        <time>2021-08-17T06:05:43Z</time>
        <sat>8</sat>
      </trkpt>
      <trkpt lat="42.342818" lon="-4.638301">
        <ele>820.9</ele>
        <time>2021-08-17T06:05:50Z</time>
        <sat>8</sat>
      </trkpt>
      <trkpt lat="42.342837" lon="-4.638419">
        <ele>820.9</ele>
        <time>2021-08-17T06:05:57Z</time>
        <sat>8</sat>
      </trkpt>
      <trkpt lat="42.342845" lon="-4.638532">
        <ele>820.9</ele>
        <time>2021-08-17T06:06:03Z</time>
        <sat>8</sat>
      </trkpt>
      <trkpt lat="42.342858" lon="-4.638640">
        <ele>820.9</ele>
        <time>2021-08-17T06:06:09Z</time>
        <sat>8</sat>
      </trkpt>
      <trkpt lat="42.342865" lon="-4.638766">
        <ele>821.0</ele>
        <time>2021-08-17T06:06:16Z</time>
        <sat>8</sat>
      </trkpt>
      <trkpt lat="42.342873" lon="-4.638891">
        <ele>821.1</ele>
        <time>2021-08-17T06:06:23Z</time>
        <sat>8</sat>
      </trkpt>
      <trkpt lat="42.342887" lon="-4.639000">
        <ele>821.3</ele>
        <time>2021-08-17T06:06:29Z</time>
        <sat>8</sat>
      </trkpt>
      <trkpt lat="42.342889" lon="-4.639124">
        <ele>821.3</ele>
        <time>2021-08-17T06:06:36Z</time>
        <sat>8</sat>
      </trkpt>
      <trkpt lat="42.342908" lon="-4.639244">
        <ele>821.3</ele>
        <time>2021-08-17T06:06:43Z</time>
        <sat>8</sat>
      </trkpt>
      <trkpt lat="42.342912" lon="-4.639354">
        <ele>821.4</ele>
        <time>2021-08-17T06:06:49Z</time>
        <sat>8</sat>
      </trkpt>
      <trkpt lat="42.342925" lon="-4.639473">
        <ele>821.3</ele>
        <time>2021-08-17T06:06:56Z</time>
        <sat>8</sat>
      </trkpt>
      <trkpt lat="42.342931" lon="-4.639598">
        <ele>821.3</ele>
        <time>2021-08-17T06:07:03Z</time>
        <sat>8</sat>
      </trkpt>
      <trkpt lat="42.342947" lon="-4.639720">
        <ele>821.3</ele>
        <time>2021-08-17T06:07:10Z</time>
        <sat>8</sat>
      </trkpt>
      <trkpt lat="42.342955" lon="-4.639847">
        <ele>821.3</ele>
        <time>2021-08-17T06:07:17Z</time>
        <sat>8</sat>
      </trkpt>
      <trkpt lat="42.342959" lon="-4.639971">
        <ele>821.4</ele>
        <time>2021-08-17T06:07:24Z</time>
        <sat>8</sat>
      </trkpt>
      <trkpt lat="42.342973" lon="-4.640094">
        <ele>821.4</ele>
        <time>2021-08-17T06:07:31Z</time>
        <sat>8</sat>
      </trkpt>
      <trkpt lat="42.342979" lon="-4.640218">
        <ele>821.4</ele>
        <time>2021-08-17T06:07:38Z</time>
        <sat>8</sat>
      </trkpt>
      <trkpt lat="42.342992" lon="-4.640340">
        <ele>821.5</ele>
        <time>2021-08-17T06:07:45Z</time>
        <sat>8</sat>
      </trkpt>
      <trkpt lat="42.342997" lon="-4.640462">
        <ele>821.5</ele>
        <time>2021-08-17T06:07:52Z</time>
        <sat>8</sat>
      </trkpt>
      <trkpt lat="42.343003" lon="-4.640578">
        <ele>821.5</ele>
        <time>2021-08-17T06:07:59Z</time>
        <sat>8</sat>
      </trkpt>
      <trkpt lat="42.343014" lon="-4.640702">
        <ele>821.4</ele>
        <time>2021-08-17T06:08:06Z</time>
        <sat>8</sat>
      </trkpt>
      <trkpt lat="42.343018" lon="-4.640816">
        <ele>821.4</ele>
        <time>2021-08-17T06:08:12Z</time>
        <sat>8</sat>
      </trkpt>
      <trkpt lat="42.343029" lon="-4.640933">
        <ele>821.4</ele>
        <time>2021-08-17T06:08:20Z</time>
        <sat>8</sat>
      </trkpt>
      <trkpt lat="42.343047" lon="-4.641057">
        <ele>821.4</ele>
        <time>2021-08-17T06:08:27Z</time>
        <sat>8</sat>
      </trkpt>
      <trkpt lat="42.343052" lon="-4.641181">
        <ele>821.4</ele>
        <time>2021-08-17T06:08:34Z</time>
        <sat>8</sat>
      </trkpt>
      <trkpt lat="42.343060" lon="-4.641297">
        <ele>820.5</ele>
        <time>2021-08-17T06:08:40Z</time>
        <sat>8</sat>
      </trkpt>
      <trkpt lat="42.343079" lon="-4.641417">
        <ele>821.7</ele>
        <time>2021-08-17T06:08:47Z</time>
        <sat>8</sat>
      </trkpt>
      <trkpt lat="42.343088" lon="-4.641535">
        <ele>821.3</ele>
        <time>2021-08-17T06:08:54Z</time>
        <sat>8</sat>
      </trkpt>
      <trkpt lat="42.343100" lon="-4.641660">
        <ele>820.7</ele>
        <time>2021-08-17T06:09:01Z</time>
        <sat>8</sat>
      </trkpt>
      <trkpt lat="42.343116" lon="-4.641776">
        <ele>820.9</ele>
        <time>2021-08-17T06:09:08Z</time>
        <sat>7</sat>
      </trkpt>
      <trkpt lat="42.343128" lon="-4.641888">
        <ele>821.0</ele>
        <time>2021-08-17T06:09:15Z</time>
        <sat>8</sat>
      </trkpt>
      <trkpt lat="42.343138" lon="-4.642010">
        <ele>821.2</ele>
        <time>2021-08-17T06:09:22Z</time>
        <sat>8</sat>
      </trkpt>
      <trkpt lat="42.343144" lon="-4.642122">
        <ele>821.5</ele>
        <time>2021-08-17T06:09:36Z</time>
        <sat>8</sat>
      </trkpt>
      <trkpt lat="42.343140" lon="-4.642242">
        <ele>821.5</ele>
        <time>2021-08-17T06:09:46Z</time>
        <sat>8</sat>
      </trkpt>
      <trkpt lat="42.343143" lon="-4.642360">
        <ele>820.7</ele>
        <time>2021-08-17T06:09:54Z</time>
        <sat>8</sat>
      </trkpt>
      <trkpt lat="42.343155" lon="-4.642470">
        <ele>821.2</ele>
        <time>2021-08-17T06:10:01Z</time>
        <sat>7</sat>
      </trkpt>
      <trkpt lat="42.343163" lon="-4.642581">
        <ele>821.0</ele>
        <time>2021-08-17T06:10:08Z</time>
        <sat>8</sat>
      </trkpt>
      <trkpt lat="42.343170" lon="-4.642690">
        <ele>821.2</ele>
        <time>2021-08-17T06:10:15Z</time>
        <sat>7</sat>
      </trkpt>
      <trkpt lat="42.343179" lon="-4.642806">
        <ele>820.6</ele>
        <time>2021-08-17T06:10:22Z</time>
        <sat>7</sat>
      </trkpt>
      <trkpt lat="42.343194" lon="-4.642923">
        <ele>821.1</ele>
        <time>2021-08-17T06:10:29Z</time>
        <sat>6</sat>
      </trkpt>
      <trkpt lat="42.343207" lon="-4.643037">
        <ele>820.8</ele>
        <time>2021-08-17T06:10:36Z</time>
        <sat>8</sat>
      </trkpt>
      <trkpt lat="42.343212" lon="-4.643156">
        <ele>820.6</ele>
        <time>2021-08-17T06:10:43Z</time>
        <sat>8</sat>
      </trkpt>
      <trkpt lat="42.343224" lon="-4.643272">
        <ele>821.0</ele>
        <time>2021-08-17T06:10:50Z</time>
        <sat>8</sat>
      </trkpt>
      <trkpt lat="42.343232" lon="-4.643386">
        <ele>820.9</ele>
        <time>2021-08-17T06:10:57Z</time>
        <sat>7</sat>
      </trkpt>
      <trkpt lat="42.343236" lon="-4.643500">
        <ele>820.7</ele>
        <time>2021-08-17T06:11:04Z</time>
        <sat>8</sat>
      </trkpt>
      <trkpt lat="42.343265" lon="-4.643610">
        <ele>821.5</ele>
        <time>2021-08-17T06:11:12Z</time>
        <sat>8</sat>
      </trkpt>
      <trkpt lat="42.343287" lon="-4.643732">
        <ele>821.6</ele>
        <time>2021-08-17T06:11:20Z</time>
        <sat>8</sat>
      </trkpt>
      <trkpt lat="42.343299" lon="-4.643853">
        <ele>821.4</ele>
        <time>2021-08-17T06:11:27Z</time>
        <sat>8</sat>
      </trkpt>
      <trkpt lat="42.343308" lon="-4.643964">
        <ele>822.0</ele>
        <time>2021-08-17T06:11:34Z</time>
        <sat>8</sat>
      </trkpt>
      <trkpt lat="42.343313" lon="-4.644077">
        <ele>821.7</ele>
        <time>2021-08-17T06:11:41Z</time>
        <sat>9</sat>
      </trkpt>
      <trkpt lat="42.343323" lon="-4.644187">
        <ele>821.0</ele>
        <time>2021-08-17T06:11:48Z</time>
        <sat>9</sat>
      </trkpt>
      <trkpt lat="42.343334" lon="-4.644306">
        <ele>821.1</ele>
        <time>2021-08-17T06:11:56Z</time>
        <sat>8</sat>
      </trkpt>
      <trkpt lat="42.343344" lon="-4.644423">
        <ele>821.3</ele>
        <time>2021-08-17T06:12:03Z</time>
        <sat>9</sat>
      </trkpt>
      <trkpt lat="42.343323" lon="-4.644539">
        <ele>821.0</ele>
        <time>2021-08-17T06:12:10Z</time>
        <sat>8</sat>
      </trkpt>
      <trkpt lat="42.343324" lon="-4.644658">
        <ele>821.3</ele>
        <time>2021-08-17T06:12:17Z</time>
        <sat>9</sat>
      </trkpt>
      <trkpt lat="42.343330" lon="-4.644776">
        <ele>822.4</ele>
        <time>2021-08-17T06:12:24Z</time>
        <sat>9</sat>
      </trkpt>
      <trkpt lat="42.343340" lon="-4.644895">
        <ele>822.0</ele>
        <time>2021-08-17T06:12:31Z</time>
        <sat>9</sat>
      </trkpt>
      <trkpt lat="42.343346" lon="-4.645013">
        <ele>821.3</ele>
        <time>2021-08-17T06:12:38Z</time>
        <sat>9</sat>
      </trkpt>
      <trkpt lat="42.343347" lon="-4.645127">
        <ele>821.3</ele>
        <time>2021-08-17T06:12:45Z</time>
        <sat>9</sat>
      </trkpt>
      <trkpt lat="42.343355" lon="-4.645249">
        <ele>821.9</ele>
        <time>2021-08-17T06:12:52Z</time>
        <sat>9</sat>
      </trkpt>
      <trkpt lat="42.343369" lon="-4.645367">
        <ele>821.8</ele>
        <time>2021-08-17T06:12:59Z</time>
        <sat>9</sat>
      </trkpt>
      <trkpt lat="42.343374" lon="-4.645483">
        <ele>821.6</ele>
        <time>2021-08-17T06:13:06Z</time>
        <sat>9</sat>
      </trkpt>
      <trkpt lat="42.343381" lon="-4.645608">
        <ele>821.5</ele>
        <time>2021-08-17T06:13:13Z</time>
        <sat>9</sat>
      </trkpt>
      <trkpt lat="42.343386" lon="-4.645729">
        <ele>821.1</ele>
        <time>2021-08-17T06:13:20Z</time>
        <sat>9</sat>
      </trkpt>
      <trkpt lat="42.343393" lon="-4.645846">
        <ele>821.7</ele>
        <time>2021-08-17T06:13:27Z</time>
        <sat>9</sat>
      </trkpt>
      <trkpt lat="42.343407" lon="-4.645970">
        <ele>821.8</ele>
        <time>2021-08-17T06:13:34Z</time>
        <sat>9</sat>
      </trkpt>
      <trkpt lat="42.343413" lon="-4.646092">
        <ele>820.9</ele>
        <time>2021-08-17T06:13:41Z</time>
        <sat>9</sat>
      </trkpt>
      <trkpt lat="42.343429" lon="-4.646212">
        <ele>820.8</ele>
        <time>2021-08-17T06:13:48Z</time>
        <sat>9</sat>
      </trkpt>
      <trkpt lat="42.343438" lon="-4.646331">
        <ele>821.4</ele>
        <time>2021-08-17T06:13:55Z</time>
        <sat>9</sat>
      </trkpt>
      <trkpt lat="42.343449" lon="-4.646447">
        <ele>822.4</ele>
        <time>2021-08-17T06:14:02Z</time>
        <sat>9</sat>
      </trkpt>
      <trkpt lat="42.343457" lon="-4.646570">
        <ele>822.2</ele>
        <time>2021-08-17T06:14:09Z</time>
        <sat>9</sat>
      </trkpt>
      <trkpt lat="42.343460" lon="-4.646693">
        <ele>822.1</ele>
        <time>2021-08-17T06:14:16Z</time>
        <sat>9</sat>
      </trkpt>
      <trkpt lat="42.343470" lon="-4.646811">
        <ele>822.1</ele>
        <time>2021-08-17T06:14:23Z</time>
        <sat>9</sat>
      </trkpt>
      <trkpt lat="42.343481" lon="-4.646931">
        <ele>822.0</ele>
        <time>2021-08-17T06:14:30Z</time>
        <sat>9</sat>
      </trkpt>
      <trkpt lat="42.343489" lon="-4.647054">
        <ele>821.6</ele>
        <time>2021-08-17T06:14:37Z</time>
        <sat>9</sat>
      </trkpt>
      <trkpt lat="42.343496" lon="-4.647172">
        <ele>818.0</ele>
        <time>2021-08-17T06:14:44Z</time>
        <sat>9</sat>
      </trkpt>
      <trkpt lat="42.343496" lon="-4.647289">
        <ele>814.4</ele>
        <time>2021-08-17T06:14:51Z</time>
        <sat>9</sat>
      </trkpt>
      <trkpt lat="42.343506" lon="-4.647413">
        <ele>818.4</ele>
        <time>2021-08-17T06:14:58Z</time>
        <sat>9</sat>
      </trkpt>
      <trkpt lat="42.343501" lon="-4.647528">
        <ele>823.0</ele>
        <time>2021-08-17T06:15:04Z</time>
        <sat>9</sat>
      </trkpt>
      <trkpt lat="42.343514" lon="-4.647646">
        <ele>820.4</ele>
        <time>2021-08-17T06:15:11Z</time>
        <sat>9</sat>
      </trkpt>
      <trkpt lat="42.343523" lon="-4.647765">
        <ele>818.5</ele>
        <time>2021-08-17T06:15:18Z</time>
        <sat>9</sat>
      </trkpt>
      <trkpt lat="42.343532" lon="-4.647882">
        <ele>820.9</ele>
        <time>2021-08-17T06:15:25Z</time>
        <sat>9</sat>
      </trkpt>
      <trkpt lat="42.343545" lon="-4.648004">
        <ele>818.5</ele>
        <time>2021-08-17T06:15:32Z</time>
        <sat>9</sat>
      </trkpt>
      <trkpt lat="42.343557" lon="-4.648122">
        <ele>820.4</ele>
        <time>2021-08-17T06:15:39Z</time>
        <sat>9</sat>
      </trkpt>
      <trkpt lat="42.343573" lon="-4.648245">
        <ele>820.7</ele>
        <time>2021-08-17T06:15:46Z</time>
        <sat>8</sat>
      </trkpt>
      <trkpt lat="42.343588" lon="-4.648361">
        <ele>821.5</ele>
        <time>2021-08-17T06:15:53Z</time>
        <sat>8</sat>
      </trkpt>
      <trkpt lat="42.343593" lon="-4.648479">
        <ele>822.6</ele>
        <time>2021-08-17T06:16:00Z</time>
        <sat>8</sat>
      </trkpt>
      <trkpt lat="42.343610" lon="-4.648594">
        <ele>822.2</ele>
        <time>2021-08-17T06:16:07Z</time>
        <sat>8</sat>
      </trkpt>
      <trkpt lat="42.343612" lon="-4.648712">
        <ele>822.4</ele>
        <time>2021-08-17T06:16:14Z</time>
        <sat>9</sat>
      </trkpt>
      <trkpt lat="42.343620" lon="-4.648834">
        <ele>821.4</ele>
        <time>2021-08-17T06:16:21Z</time>
        <sat>8</sat>
      </trkpt>
      <trkpt lat="42.343620" lon="-4.648955">
        <ele>822.1</ele>
        <time>2021-08-17T06:16:28Z</time>
        <sat>8</sat>
      </trkpt>
      <trkpt lat="42.343632" lon="-4.649081">
        <ele>821.8</ele>
        <time>2021-08-17T06:16:35Z</time>
        <sat>8</sat>
      </trkpt>
      <trkpt lat="42.343648" lon="-4.649200">
        <ele>820.3</ele>
        <time>2021-08-17T06:16:42Z</time>
        <sat>8</sat>
      </trkpt>
      <trkpt lat="42.343663" lon="-4.649313">
        <ele>822.2</ele>
        <time>2021-08-17T06:16:49Z</time>
        <sat>8</sat>
      </trkpt>
      <trkpt lat="42.343701" lon="-4.649411">
        <ele>822.4</ele>
        <time>2021-08-17T06:16:58Z</time>
        <sat>9</sat>
      </trkpt>
      <trkpt lat="42.343725" lon="-4.649522">
        <ele>821.7</ele>
        <time>2021-08-17T06:18:08Z</time>
        <sat>10</sat>
      </trkpt>
      <trkpt lat="42.343712" lon="-4.649640">
        <ele>821.6</ele>
        <time>2021-08-17T06:18:18Z</time>
        <sat>10</sat>
      </trkpt>
      <trkpt lat="42.343641" lon="-4.649697">
        <ele>821.4</ele>
        <time>2021-08-17T06:18:30Z</time>
        <sat>9</sat>
      </trkpt>
      <trkpt lat="42.343677" lon="-4.649804">
        <ele>821.4</ele>
        <time>2021-08-17T06:18:43Z</time>
        <sat>10</sat>
      </trkpt>
      <trkpt lat="42.343706" lon="-4.649907">
        <ele>821.4</ele>
        <time>2021-08-17T06:18:53Z</time>
        <sat>9</sat>
      </trkpt>
      <trkpt lat="42.343705" lon="-4.650024">
        <ele>821.3</ele>
        <time>2021-08-17T06:19:01Z</time>
        <sat>10</sat>
      </trkpt>
      <trkpt lat="42.343721" lon="-4.650147">
        <ele>821.2</ele>
        <time>2021-08-17T06:19:09Z</time>
        <sat>10</sat>
      </trkpt>
      <trkpt lat="42.343732" lon="-4.650261">
        <ele>821.2</ele>
        <time>2021-08-17T06:19:16Z</time>
        <sat>10</sat>
      </trkpt>
      <trkpt lat="42.343740" lon="-4.650373">
        <ele>821.0</ele>
        <time>2021-08-17T06:19:23Z</time>
        <sat>10</sat>
      </trkpt>
      <trkpt lat="42.343753" lon="-4.650488">
        <ele>821.0</ele>
        <time>2021-08-17T06:19:31Z</time>
        <sat>10</sat>
      </trkpt>
      <trkpt lat="42.343753" lon="-4.650608">
        <ele>820.9</ele>
        <time>2021-08-17T06:19:38Z</time>
        <sat>10</sat>
      </trkpt>
      <trkpt lat="42.343764" lon="-4.650725">
        <ele>820.9</ele>
        <time>2021-08-17T06:19:45Z</time>
        <sat>10</sat>
      </trkpt>
      <trkpt lat="42.343777" lon="-4.650846">
        <ele>820.9</ele>
        <time>2021-08-17T06:19:53Z</time>
        <sat>10</sat>
      </trkpt>
      <trkpt lat="42.343787" lon="-4.650966">
        <ele>820.9</ele>
        <time>2021-08-17T06:20:08Z</time>
        <sat>10</sat>
      </trkpt>
      <trkpt lat="42.343794" lon="-4.651081">
        <ele>820.8</ele>
        <time>2021-08-17T06:20:15Z</time>
        <sat>10</sat>
      </trkpt>
      <trkpt lat="42.343808" lon="-4.651204">
        <ele>820.8</ele>
        <time>2021-08-17T06:20:22Z</time>
        <sat>10</sat>
      </trkpt>
      <trkpt lat="42.343858" lon="-4.651299">
        <ele>820.9</ele>
        <time>2021-08-17T06:20:28Z</time>
        <sat>10</sat>
      </trkpt>
      <trkpt lat="42.343878" lon="-4.651421">
        <ele>820.9</ele>
        <time>2021-08-17T06:20:35Z</time>
        <sat>10</sat>
      </trkpt>
      <trkpt lat="42.343921" lon="-4.651518">
        <ele>820.9</ele>
        <time>2021-08-17T06:20:42Z</time>
        <sat>10</sat>
      </trkpt>
      <trkpt lat="42.343905" lon="-4.651520">
        <ele>820.7</ele>
        <time>2021-08-17T06:21:47Z</time>
        <sat>10</sat>
      </trkpt>
      <trkpt lat="42.343901" lon="-4.651635">
        <ele>820.6</ele>
        <time>2021-08-17T06:21:53Z</time>
        <sat>10</sat>
      </trkpt>
      <trkpt lat="42.343897" lon="-4.651765">
        <ele>820.7</ele>
        <time>2021-08-17T06:22:00Z</time>
        <sat>10</sat>
      </trkpt>
      <trkpt lat="42.343872" lon="-4.651886">
        <ele>820.7</ele>
        <time>2021-08-17T06:22:06Z</time>
        <sat>10</sat>
      </trkpt>
      <trkpt lat="42.343884" lon="-4.652008">
        <ele>820.7</ele>
        <time>2021-08-17T06:22:12Z</time>
        <sat>10</sat>
      </trkpt>
      <trkpt lat="42.343906" lon="-4.652130">
        <ele>820.7</ele>
        <time>2021-08-17T06:22:18Z</time>
        <sat>10</sat>
      </trkpt>
      <trkpt lat="42.343917" lon="-4.652245">
        <ele>820.9</ele>
        <time>2021-08-17T06:22:24Z</time>
        <sat>10</sat>
      </trkpt>
      <trkpt lat="42.343936" lon="-4.652364">
        <ele>820.9</ele>
        <time>2021-08-17T06:22:30Z</time>
        <sat>10</sat>
      </trkpt>
      <trkpt lat="42.343941" lon="-4.652490">
        <ele>821.1</ele>
        <time>2021-08-17T06:22:36Z</time>
        <sat>10</sat>
      </trkpt>
      <trkpt lat="42.343962" lon="-4.652608">
        <ele>821.4</ele>
        <time>2021-08-17T06:22:43Z</time>
        <sat>10</sat>
      </trkpt>
      <trkpt lat="42.343990" lon="-4.652725">
        <ele>821.5</ele>
        <time>2021-08-17T06:22:49Z</time>
        <sat>10</sat>
      </trkpt>
      <trkpt lat="42.344016" lon="-4.652833">
        <ele>821.5</ele>
        <time>2021-08-17T06:22:55Z</time>
        <sat>10</sat>
      </trkpt>
      <trkpt lat="42.344025" lon="-4.652947">
        <ele>821.4</ele>
        <time>2021-08-17T06:23:01Z</time>
        <sat>10</sat>
      </trkpt>
      <trkpt lat="42.344051" lon="-4.653067">
        <ele>821.3</ele>
        <time>2021-08-17T06:23:10Z</time>
        <sat>10</sat>
      </trkpt>
      <trkpt lat="42.344074" lon="-4.653181">
        <ele>821.2</ele>
        <time>2021-08-17T06:23:16Z</time>
        <sat>10</sat>
      </trkpt>
      <trkpt lat="42.344097" lon="-4.653298">
        <ele>821.2</ele>
        <time>2021-08-17T06:23:22Z</time>
        <sat>10</sat>
      </trkpt>
      <trkpt lat="42.344111" lon="-4.653422">
        <ele>821.2</ele>
        <time>2021-08-17T06:23:28Z</time>
        <sat>9</sat>
      </trkpt>
      <trkpt lat="42.344136" lon="-4.653538">
        <ele>821.2</ele>
        <time>2021-08-17T06:23:34Z</time>
        <sat>10</sat>
      </trkpt>
      <trkpt lat="42.344172" lon="-4.653651">
        <ele>821.3</ele>
        <time>2021-08-17T06:23:40Z</time>
        <sat>10</sat>
      </trkpt>
      <trkpt lat="42.344197" lon="-4.653764">
        <ele>821.3</ele>
        <time>2021-08-17T06:23:46Z</time>
        <sat>10</sat>
      </trkpt>
      <trkpt lat="42.344232" lon="-4.653870">
        <ele>821.3</ele>
        <time>2021-08-17T06:23:52Z</time>
        <sat>10</sat>
      </trkpt>
      <trkpt lat="42.344257" lon="-4.653984">
        <ele>821.3</ele>
        <time>2021-08-17T06:23:58Z</time>
        <sat>10</sat>
      </trkpt>
      <trkpt lat="42.344281" lon="-4.654104">
        <ele>821.3</ele>
        <time>2021-08-17T06:24:04Z</time>
        <sat>10</sat>
      </trkpt>
      <trkpt lat="42.344318" lon="-4.654215">
        <ele>821.6</ele>
        <time>2021-08-17T06:24:10Z</time>
        <sat>10</sat>
      </trkpt>
      <trkpt lat="42.344353" lon="-4.654326">
        <ele>821.8</ele>
        <time>2021-08-17T06:24:16Z</time>
        <sat>10</sat>
      </trkpt>
      <trkpt lat="42.344374" lon="-4.654445">
        <ele>821.8</ele>
        <time>2021-08-17T06:24:22Z</time>
        <sat>10</sat>
      </trkpt>
      <trkpt lat="42.344399" lon="-4.654560">
        <ele>821.8</ele>
        <time>2021-08-17T06:24:28Z</time>
        <sat>10</sat>
      </trkpt>
      <trkpt lat="42.344430" lon="-4.654672">
        <ele>821.7</ele>
        <time>2021-08-17T06:24:34Z</time>
        <sat>10</sat>
      </trkpt>
      <trkpt lat="42.344463" lon="-4.654777">
        <ele>821.6</ele>
        <time>2021-08-17T06:24:40Z</time>
        <sat>10</sat>
      </trkpt>
      <trkpt lat="42.344481" lon="-4.654894">
        <ele>821.7</ele>
        <time>2021-08-17T06:24:46Z</time>
        <sat>10</sat>
      </trkpt>
      <trkpt lat="42.344510" lon="-4.655007">
        <ele>821.7</ele>
        <time>2021-08-17T06:24:52Z</time>
        <sat>10</sat>
      </trkpt>
      <trkpt lat="42.344545" lon="-4.655119">
        <ele>821.7</ele>
        <time>2021-08-17T06:24:58Z</time>
        <sat>10</sat>
      </trkpt>
      <trkpt lat="42.344577" lon="-4.655224">
        <ele>821.7</ele>
        <time>2021-08-17T06:25:04Z</time>
        <sat>10</sat>
      </trkpt>
      <trkpt lat="42.344602" lon="-4.655342">
        <ele>821.7</ele>
        <time>2021-08-17T06:25:10Z</time>
        <sat>10</sat>
      </trkpt>
      <trkpt lat="42.344628" lon="-4.655449">
        <ele>821.7</ele>
        <time>2021-08-17T06:25:16Z</time>
        <sat>10</sat>
      </trkpt>
      <trkpt lat="42.344664" lon="-4.655560">
        <ele>821.7</ele>
        <time>2021-08-17T06:25:22Z</time>
        <sat>10</sat>
      </trkpt>
      <trkpt lat="42.344688" lon="-4.655673">
        <ele>821.6</ele>
        <time>2021-08-17T06:25:28Z</time>
        <sat>9</sat>
      </trkpt>
      <trkpt lat="42.344709" lon="-4.655792">
        <ele>821.6</ele>
        <time>2021-08-17T06:25:34Z</time>
        <sat>8</sat>
      </trkpt>
      <trkpt lat="42.344740" lon="-4.655905">
        <ele>821.5</ele>
        <time>2021-08-17T06:25:40Z</time>
        <sat>10</sat>
      </trkpt>
      <trkpt lat="42.344775" lon="-4.656012">
        <ele>821.5</ele>
        <time>2021-08-17T06:25:46Z</time>
        <sat>10</sat>
      </trkpt>
      <trkpt lat="42.344800" lon="-4.656118">
        <ele>821.6</ele>
        <time>2021-08-17T06:25:52Z</time>
        <sat>10</sat>
      </trkpt>
      <trkpt lat="42.344824" lon="-4.656238">
        <ele>821.4</ele>
        <time>2021-08-17T06:25:58Z</time>
        <sat>10</sat>
      </trkpt>
      <trkpt lat="42.344850" lon="-4.656351">
        <ele>821.5</ele>
        <time>2021-08-17T06:26:04Z</time>
        <sat>10</sat>
      </trkpt>
      <trkpt lat="42.344888" lon="-4.656458">
        <ele>821.5</ele>
        <time>2021-08-17T06:26:10Z</time>
        <sat>10</sat>
      </trkpt>
      <trkpt lat="42.344920" lon="-4.656567">
        <ele>821.6</ele>
        <time>2021-08-17T06:26:16Z</time>
        <sat>10</sat>
      </trkpt>
      <trkpt lat="42.344941" lon="-4.656685">
        <ele>821.6</ele>
        <time>2021-08-17T06:26:22Z</time>
        <sat>10</sat>
      </trkpt>
      <trkpt lat="42.344971" lon="-4.656798">
        <ele>821.6</ele>
        <time>2021-08-17T06:26:28Z</time>
        <sat>10</sat>
      </trkpt>
      <trkpt lat="42.344999" lon="-4.656903">
        <ele>821.6</ele>
        <time>2021-08-17T06:26:34Z</time>
        <sat>10</sat>
      </trkpt>
      <trkpt lat="42.345024" lon="-4.657012">
        <ele>821.5</ele>
        <time>2021-08-17T06:26:43Z</time>
        <sat>10</sat>
      </trkpt>
      <trkpt lat="42.345042" lon="-4.657122">
        <ele>821.5</ele>
        <time>2021-08-17T06:26:49Z</time>
        <sat>10</sat>
      </trkpt>
      <trkpt lat="42.345049" lon="-4.657240">
        <ele>821.4</ele>
        <time>2021-08-17T06:26:55Z</time>
        <sat>10</sat>
      </trkpt>
      <trkpt lat="42.345063" lon="-4.657357">
        <ele>821.3</ele>
        <time>2021-08-17T06:27:01Z</time>
        <sat>10</sat>
      </trkpt>
      <trkpt lat="42.345075" lon="-4.657468">
        <ele>821.3</ele>
        <time>2021-08-17T06:27:07Z</time>
        <sat>10</sat>
      </trkpt>
      <trkpt lat="42.345077" lon="-4.657582">
        <ele>821.4</ele>
        <time>2021-08-17T06:27:13Z</time>
        <sat>10</sat>
      </trkpt>
      <trkpt lat="42.345066" lon="-4.657700">
        <ele>821.5</ele>
        <time>2021-08-17T06:27:19Z</time>
        <sat>10</sat>
      </trkpt>
      <trkpt lat="42.345066" lon="-4.657820">
        <ele>821.5</ele>
        <time>2021-08-17T06:27:25Z</time>
        <sat>10</sat>
      </trkpt>
      <trkpt lat="42.345056" lon="-4.657944">
        <ele>821.6</ele>
        <time>2021-08-17T06:27:32Z</time>
        <sat>9</sat>
      </trkpt>
      <trkpt lat="42.345034" lon="-4.658061">
        <ele>821.8</ele>
        <time>2021-08-17T06:27:38Z</time>
        <sat>10</sat>
      </trkpt>
      <trkpt lat="42.345010" lon="-4.658177">
        <ele>821.9</ele>
        <time>2021-08-17T06:27:44Z</time>
        <sat>9</sat>
      </trkpt>
      <trkpt lat="42.344988" lon="-4.658299">
        <ele>822.0</ele>
        <time>2021-08-17T06:27:50Z</time>
        <sat>10</sat>
      </trkpt>
      <trkpt lat="42.344965" lon="-4.658407">
        <ele>822.1</ele>
        <time>2021-08-17T06:27:56Z</time>
        <sat>10</sat>
      </trkpt>
      <trkpt lat="42.344925" lon="-4.658515">
        <ele>822.1</ele>
        <time>2021-08-17T06:28:02Z</time>
        <sat>10</sat>
      </trkpt>
      <trkpt lat="42.344890" lon="-4.658622">
        <ele>822.4</ele>
        <time>2021-08-17T06:28:08Z</time>
        <sat>10</sat>
      </trkpt>
      <trkpt lat="42.344853" lon="-4.658738">
        <ele>822.7</ele>
        <time>2021-08-17T06:28:15Z</time>
        <sat>10</sat>
      </trkpt>
      <trkpt lat="42.344851" lon="-4.658852">
        <ele>823.1</ele>
        <time>2021-08-17T06:28:29Z</time>
        <sat>9</sat>
      </trkpt>
      <trkpt lat="42.344793" lon="-4.658934">
        <ele>823.4</ele>
        <time>2021-08-17T06:28:41Z</time>
        <sat>10</sat>
      </trkpt>
      <trkpt lat="42.344730" lon="-4.659018">
        <ele>823.6</ele>
        <time>2021-08-17T06:28:49Z</time>
        <sat>10</sat>
      </trkpt>
      <trkpt lat="42.344673" lon="-4.659111">
        <ele>823.8</ele>
        <time>2021-08-17T06:28:56Z</time>
        <sat>9</sat>
      </trkpt>
      <trkpt lat="42.344617" lon="-4.659204">
        <ele>824.1</ele>
        <time>2021-08-17T06:29:06Z</time>
        <sat>10</sat>
      </trkpt>
      <trkpt lat="42.344570" lon="-4.659308">
        <ele>824.0</ele>
        <time>2021-08-17T06:29:13Z</time>
        <sat>10</sat>
      </trkpt>
      <trkpt lat="42.344521" lon="-4.659400">
        <ele>823.9</ele>
        <time>2021-08-17T06:29:20Z</time>
        <sat>10</sat>
      </trkpt>
      <trkpt lat="42.344472" lon="-4.659499">
        <ele>824.1</ele>
        <time>2021-08-17T06:29:27Z</time>
        <sat>10</sat>
      </trkpt>
      <trkpt lat="42.344422" lon="-4.659601">
        <ele>824.2</ele>
        <time>2021-08-17T06:29:34Z</time>
        <sat>10</sat>
      </trkpt>
      <trkpt lat="42.344388" lon="-4.659715">
        <ele>824.3</ele>
        <time>2021-08-17T06:29:44Z</time>
        <sat>10</sat>
      </trkpt>
      <trkpt lat="42.344349" lon="-4.659825">
        <ele>824.2</ele>
        <time>2021-08-17T06:29:50Z</time>
        <sat>10</sat>
      </trkpt>
      <trkpt lat="42.344321" lon="-4.659928">
        <ele>824.0</ele>
        <time>2021-08-17T06:29:56Z</time>
        <sat>10</sat>
      </trkpt>
      <trkpt lat="42.344281" lon="-4.660034">
        <ele>823.7</ele>
        <time>2021-08-17T06:30:02Z</time>
        <sat>10</sat>
      </trkpt>
      <trkpt lat="42.344235" lon="-4.660140">
        <ele>823.6</ele>
        <time>2021-08-17T06:30:08Z</time>
        <sat>9</sat>
      </trkpt>
      <trkpt lat="42.344224" lon="-4.660257">
        <ele>823.5</ele>
        <time>2021-08-17T06:30:14Z</time>
        <sat>9</sat>
      </trkpt>
      <trkpt lat="42.344212" lon="-4.660369">
        <ele>823.4</ele>
        <time>2021-08-17T06:30:20Z</time>
        <sat>9</sat>
      </trkpt>
      <trkpt lat="42.344199" lon="-4.660488">
        <ele>823.2</ele>
        <time>2021-08-17T06:30:26Z</time>
        <sat>9</sat>
      </trkpt>
      <trkpt lat="42.344193" lon="-4.660602">
        <ele>823.2</ele>
        <time>2021-08-17T06:30:32Z</time>
        <sat>9</sat>
      </trkpt>
      <trkpt lat="42.344188" lon="-4.660713">
        <ele>823.0</ele>
        <time>2021-08-17T06:30:38Z</time>
        <sat>9</sat>
      </trkpt>
      <trkpt lat="42.344195" lon="-4.660827">
        <ele>822.9</ele>
        <time>2021-08-17T06:30:44Z</time>
        <sat>9</sat>
      </trkpt>
      <trkpt lat="42.344192" lon="-4.660948">
        <ele>822.9</ele>
        <time>2021-08-17T06:30:51Z</time>
        <sat>9</sat>
      </trkpt>
      <trkpt lat="42.344185" lon="-4.661069">
        <ele>823.0</ele>
        <time>2021-08-17T06:30:58Z</time>
        <sat>9</sat>
      </trkpt>
      <trkpt lat="42.344187" lon="-4.661192">
        <ele>823.1</ele>
        <time>2021-08-17T06:31:05Z</time>
        <sat>9</sat>
      </trkpt>
      <trkpt lat="42.344189" lon="-4.661303">
        <ele>823.4</ele>
        <time>2021-08-17T06:31:11Z</time>
        <sat>9</sat>
      </trkpt>
      <trkpt lat="42.344186" lon="-4.661426">
        <ele>823.6</ele>
        <time>2021-08-17T06:31:18Z</time>
        <sat>9</sat>
      </trkpt>
      <trkpt lat="42.344183" lon="-4.661550">
        <ele>823.7</ele>
        <time>2021-08-17T06:31:25Z</time>
        <sat>9</sat>
      </trkpt>
      <trkpt lat="42.344180" lon="-4.661676">
        <ele>823.7</ele>
        <time>2021-08-17T06:31:32Z</time>
        <sat>9</sat>
      </trkpt>
      <trkpt lat="42.344178" lon="-4.661795">
        <ele>823.7</ele>
        <time>2021-08-17T06:31:39Z</time>
        <sat>9</sat>
      </trkpt>
      <trkpt lat="42.344173" lon="-4.661918">
        <ele>823.5</ele>
        <time>2021-08-17T06:31:46Z</time>
        <sat>9</sat>
      </trkpt>
      <trkpt lat="42.344168" lon="-4.662028">
        <ele>823.5</ele>
        <time>2021-08-17T06:31:52Z</time>
        <sat>9</sat>
      </trkpt>
      <trkpt lat="42.344169" lon="-4.662151">
        <ele>823.4</ele>
        <time>2021-08-17T06:31:59Z</time>
        <sat>9</sat>
      </trkpt>
      <trkpt lat="42.344174" lon="-4.662269">
        <ele>823.5</ele>
        <time>2021-08-17T06:32:06Z</time>
        <sat>9</sat>
      </trkpt>
      <trkpt lat="42.344169" lon="-4.662395">
        <ele>823.7</ele>
        <time>2021-08-17T06:32:13Z</time>
        <sat>9</sat>
      </trkpt>
      <trkpt lat="42.344163" lon="-4.662514">
        <ele>823.7</ele>
        <time>2021-08-17T06:32:20Z</time>
        <sat>9</sat>
      </trkpt>
      <trkpt lat="42.344165" lon="-4.662630">
        <ele>823.6</ele>
        <time>2021-08-17T06:32:27Z</time>
        <sat>10</sat>
      </trkpt>
      <trkpt lat="42.344171" lon="-4.662740">
        <ele>823.7</ele>
        <time>2021-08-17T06:32:33Z</time>
        <sat>10</sat>
      </trkpt>
      <trkpt lat="42.344163" lon="-4.662860">
        <ele>823.8</ele>
        <time>2021-08-17T06:32:40Z</time>
        <sat>10</sat>
      </trkpt>
      <trkpt lat="42.344164" lon="-4.662983">
        <ele>823.8</ele>
        <time>2021-08-17T06:32:47Z</time>
        <sat>10</sat>
      </trkpt>
      <trkpt lat="42.344156" lon="-4.663094">
        <ele>823.9</ele>
        <time>2021-08-17T06:32:53Z</time>
        <sat>10</sat>
      </trkpt>
      <trkpt lat="42.344151" lon="-4.663214">
        <ele>823.9</ele>
        <time>2021-08-17T06:33:00Z</time>
        <sat>9</sat>
      </trkpt>
      <trkpt lat="42.344152" lon="-4.663339">
        <ele>823.9</ele>
        <time>2021-08-17T06:33:07Z</time>
        <sat>9</sat>
      </trkpt>
      <trkpt lat="42.344147" lon="-4.663459">
        <ele>823.9</ele>
        <time>2021-08-17T06:33:14Z</time>
        <sat>8</sat>
      </trkpt>
      <trkpt lat="42.344145" lon="-4.663583">
        <ele>824.0</ele>
        <time>2021-08-17T06:33:21Z</time>
        <sat>8</sat>
      </trkpt>
      <trkpt lat="42.344139" lon="-4.663709">
        <ele>824.1</ele>
        <time>2021-08-17T06:33:28Z</time>
        <sat>8</sat>
      </trkpt>
      <trkpt lat="42.344130" lon="-4.663826">
        <ele>824.2</ele>
        <time>2021-08-17T06:33:35Z</time>
        <sat>9</sat>
      </trkpt>
      <trkpt lat="42.344135" lon="-4.663942">
        <ele>824.2</ele>
        <time>2021-08-17T06:33:42Z</time>
        <sat>9</sat>
      </trkpt>
      <trkpt lat="42.344129" lon="-4.664052">
        <ele>824.5</ele>
        <time>2021-08-17T06:33:49Z</time>
        <sat>8</sat>
      </trkpt>
      <trkpt lat="42.344131" lon="-4.664175">
        <ele>824.6</ele>
        <time>2021-08-17T06:33:57Z</time>
        <sat>9</sat>
      </trkpt>
      <trkpt lat="42.344122" lon="-4.664298">
        <ele>824.7</ele>
        <time>2021-08-17T06:34:04Z</time>
        <sat>8</sat>
      </trkpt>
      <trkpt lat="42.344127" lon="-4.664418">
        <ele>824.7</ele>
        <time>2021-08-17T06:34:11Z</time>
        <sat>9</sat>
      </trkpt>
      <trkpt lat="42.344119" lon="-4.664538">
        <ele>824.8</ele>
        <time>2021-08-17T06:34:18Z</time>
        <sat>7</sat>
      </trkpt>
      <trkpt lat="42.344119" lon="-4.664661">
        <ele>824.9</ele>
        <time>2021-08-17T06:34:25Z</time>
        <sat>8</sat>
      </trkpt>
      <trkpt lat="42.344116" lon="-4.664780">
        <ele>824.8</ele>
        <time>2021-08-17T06:34:32Z</time>
        <sat>9</sat>
      </trkpt>
      <trkpt lat="42.344118" lon="-4.664900">
        <ele>824.8</ele>
        <time>2021-08-17T06:34:39Z</time>
        <sat>8</sat>
      </trkpt>
      <trkpt lat="42.344116" lon="-4.665009">
        <ele>824.8</ele>
        <time>2021-08-17T06:34:45Z</time>
        <sat>9</sat>
      </trkpt>
      <trkpt lat="42.344112" lon="-4.665131">
        <ele>824.8</ele>
        <time>2021-08-17T06:34:52Z</time>
        <sat>9</sat>
      </trkpt>
      <trkpt lat="42.344107" lon="-4.665244">
        <ele>824.7</ele>
        <time>2021-08-17T06:34:58Z</time>
        <sat>8</sat>
      </trkpt>
      <trkpt lat="42.344098" lon="-4.665369">
        <ele>824.7</ele>
        <time>2021-08-17T06:35:05Z</time>
        <sat>8</sat>
      </trkpt>
      <trkpt lat="42.344099" lon="-4.665494">
        <ele>824.7</ele>
        <time>2021-08-17T06:35:12Z</time>
        <sat>8</sat>
      </trkpt>
      <trkpt lat="42.344100" lon="-4.665620">
        <ele>824.7</ele>
        <time>2021-08-17T06:35:19Z</time>
        <sat>8</sat>
      </trkpt>
      <trkpt lat="42.344108" lon="-4.665739">
        <ele>824.9</ele>
        <time>2021-08-17T06:35:26Z</time>
        <sat>8</sat>
      </trkpt>
      <trkpt lat="42.344117" lon="-4.665855">
        <ele>824.9</ele>
        <time>2021-08-17T06:35:33Z</time>
        <sat>9</sat>
      </trkpt>
      <trkpt lat="42.344119" lon="-4.665974">
        <ele>824.8</ele>
        <time>2021-08-17T06:35:40Z</time>
        <sat>9</sat>
      </trkpt>
      <trkpt lat="42.344120" lon="-4.666090">
        <ele>824.8</ele>
        <time>2021-08-17T06:35:47Z</time>
        <sat>8</sat>
      </trkpt>
      <trkpt lat="42.344129" lon="-4.666210">
        <ele>824.9</ele>
        <time>2021-08-17T06:35:54Z</time>
        <sat>8</sat>
      </trkpt>
      <trkpt lat="42.344132" lon="-4.666324">
        <ele>824.8</ele>
        <time>2021-08-17T06:36:01Z</time>
        <sat>9</sat>
      </trkpt>
      <trkpt lat="42.344138" lon="-4.666442">
        <ele>824.7</ele>
        <time>2021-08-17T06:36:09Z</time>
        <sat>9</sat>
      </trkpt>
      <trkpt lat="42.344126" lon="-4.666553">
        <ele>824.8</ele>
        <time>2021-08-17T06:36:21Z</time>
        <sat>8</sat>
      </trkpt>
      <trkpt lat="42.344119" lon="-4.666662">
        <ele>824.9</ele>
        <time>2021-08-17T06:36:27Z</time>
        <sat>8</sat>
      </trkpt>
      <trkpt lat="42.344105" lon="-4.666785">
        <ele>824.9</ele>
        <time>2021-08-17T06:36:33Z</time>
        <sat>8</sat>
      </trkpt>
      <trkpt lat="42.344087" lon="-4.666907">
        <ele>824.8</ele>
        <time>2021-08-17T06:36:39Z</time>
        <sat>9</sat>
      </trkpt>
      <trkpt lat="42.344087" lon="-4.667033">
        <ele>824.8</ele>
        <time>2021-08-17T06:36:45Z</time>
        <sat>8</sat>
      </trkpt>
      <trkpt lat="42.344072" lon="-4.667161">
        <ele>825.0</ele>
        <time>2021-08-17T06:36:52Z</time>
        <sat>9</sat>
      </trkpt>
      <trkpt lat="42.344065" lon="-4.667284">
        <ele>825.1</ele>
        <time>2021-08-17T06:36:58Z</time>
        <sat>9</sat>
      </trkpt>
      <trkpt lat="42.344061" lon="-4.667405">
        <ele>825.2</ele>
        <time>2021-08-17T06:37:04Z</time>
        <sat>9</sat>
      </trkpt>
      <trkpt lat="42.344045" lon="-4.667529">
        <ele>825.2</ele>
        <time>2021-08-17T06:37:11Z</time>
        <sat>9</sat>
      </trkpt>
      <trkpt lat="42.344035" lon="-4.667639">
        <ele>825.2</ele>
        <time>2021-08-17T06:37:17Z</time>
        <sat>9</sat>
      </trkpt>
      <trkpt lat="42.344027" lon="-4.667764">
        <ele>825.3</ele>
        <time>2021-08-17T06:37:24Z</time>
        <sat>8</sat>
      </trkpt>
      <trkpt lat="42.344015" lon="-4.667877">
        <ele>825.4</ele>
        <time>2021-08-17T06:37:30Z</time>
        <sat>9</sat>
      </trkpt>
      <trkpt lat="42.344012" lon="-4.667987">
        <ele>825.4</ele>
        <time>2021-08-17T06:37:36Z</time>
        <sat>9</sat>
      </trkpt>
      <trkpt lat="42.343998" lon="-4.668111">
        <ele>825.3</ele>
        <time>2021-08-17T06:37:43Z</time>
        <sat>8</sat>
      </trkpt>
      <trkpt lat="42.343992" lon="-4.668222">
        <ele>825.2</ele>
        <time>2021-08-17T06:37:49Z</time>
        <sat>9</sat>
      </trkpt>
      <trkpt lat="42.343977" lon="-4.668347">
        <ele>825.2</ele>
        <time>2021-08-17T06:37:56Z</time>
        <sat>9</sat>
      </trkpt>
      <trkpt lat="42.343972" lon="-4.668458">
        <ele>825.3</ele>
        <time>2021-08-17T06:38:02Z</time>
        <sat>9</sat>
      </trkpt>
      <trkpt lat="42.343968" lon="-4.668568">
        <ele>825.2</ele>
        <time>2021-08-17T06:38:08Z</time>
        <sat>9</sat>
      </trkpt>
      <trkpt lat="42.343960" lon="-4.668690">
        <ele>825.3</ele>
        <time>2021-08-17T06:38:15Z</time>
        <sat>8</sat>
      </trkpt>
      <trkpt lat="42.343945" lon="-4.668814">
        <ele>825.3</ele>
        <time>2021-08-17T06:38:22Z</time>
        <sat>9</sat>
      </trkpt>
      <trkpt lat="42.343942" lon="-4.668928">
        <ele>825.3</ele>
        <time>2021-08-17T06:38:28Z</time>
        <sat>9</sat>
      </trkpt>
      <trkpt lat="42.343934" lon="-4.669053">
        <ele>825.4</ele>
        <time>2021-08-17T06:38:35Z</time>
        <sat>9</sat>
      </trkpt>
      <trkpt lat="42.343927" lon="-4.669168">
        <ele>825.4</ele>
        <time>2021-08-17T06:38:41Z</time>
        <sat>8</sat>
      </trkpt>
      <trkpt lat="42.343917" lon="-4.669294">
        <ele>825.5</ele>
        <time>2021-08-17T06:38:48Z</time>
        <sat>9</sat>
      </trkpt>
      <trkpt lat="42.343904" lon="-4.669410">
        <ele>825.6</ele>
        <time>2021-08-17T06:38:54Z</time>
        <sat>9</sat>
      </trkpt>
      <trkpt lat="42.343907" lon="-4.669520">
        <ele>825.7</ele>
        <time>2021-08-17T06:39:00Z</time>
        <sat>9</sat>
      </trkpt>
      <trkpt lat="42.343895" lon="-4.669628">
        <ele>825.6</ele>
        <time>2021-08-17T06:39:06Z</time>
        <sat>9</sat>
      </trkpt>
      <trkpt lat="42.343899" lon="-4.669753">
        <ele>825.8</ele>
        <time>2021-08-17T06:39:13Z</time>
        <sat>9</sat>
      </trkpt>
      <trkpt lat="42.343884" lon="-4.669864">
        <ele>825.8</ele>
        <time>2021-08-17T06:39:19Z</time>
        <sat>9</sat>
      </trkpt>
      <trkpt lat="42.343891" lon="-4.669980">
        <ele>825.8</ele>
        <time>2021-08-17T06:39:25Z</time>
        <sat>8</sat>
      </trkpt>
      <trkpt lat="42.343880" lon="-4.670089">
        <ele>825.9</ele>
        <time>2021-08-17T06:39:31Z</time>
        <sat>9</sat>
      </trkpt>
      <trkpt lat="42.343871" lon="-4.670200">
        <ele>825.9</ele>
        <time>2021-08-17T06:39:37Z</time>
        <sat>9</sat>
      </trkpt>
      <trkpt lat="42.343862" lon="-4.670320">
        <ele>825.8</ele>
        <time>2021-08-17T06:39:44Z</time>
        <sat>8</sat>
      </trkpt>
      <trkpt lat="42.343848" lon="-4.670434">
        <ele>825.8</ele>
        <time>2021-08-17T06:39:50Z</time>
        <sat>8</sat>
      </trkpt>
      <trkpt lat="42.343840" lon="-4.670559">
        <ele>825.9</ele>
        <time>2021-08-17T06:39:57Z</time>
        <sat>9</sat>
      </trkpt>
      <trkpt lat="42.343829" lon="-4.670673">
        <ele>825.9</ele>
        <time>2021-08-17T06:40:03Z</time>
        <sat>9</sat>
      </trkpt>
      <trkpt lat="42.343826" lon="-4.670798">
        <ele>825.9</ele>
        <time>2021-08-17T06:40:10Z</time>
        <sat>9</sat>
      </trkpt>
      <trkpt lat="42.343816" lon="-4.670912">
        <ele>825.9</ele>
        <time>2021-08-17T06:40:16Z</time>
        <sat>9</sat>
      </trkpt>
      <trkpt lat="42.343816" lon="-4.671025">
        <ele>825.9</ele>
        <time>2021-08-17T06:40:22Z</time>
        <sat>9</sat>
      </trkpt>
      <trkpt lat="42.343800" lon="-4.671136">
        <ele>825.9</ele>
        <time>2021-08-17T06:40:28Z</time>
        <sat>9</sat>
      </trkpt>
      <trkpt lat="42.343799" lon="-4.671247">
        <ele>825.9</ele>
        <time>2021-08-17T06:40:34Z</time>
        <sat>9</sat>
      </trkpt>
      <trkpt lat="42.343780" lon="-4.671366">
        <ele>825.8</ele>
        <time>2021-08-17T06:40:41Z</time>
        <sat>9</sat>
      </trkpt>
      <trkpt lat="42.343772" lon="-4.671482">
        <ele>825.7</ele>
        <time>2021-08-17T06:40:47Z</time>
        <sat>9</sat>
      </trkpt>
      <trkpt lat="42.343758" lon="-4.671591">
        <ele>825.7</ele>
        <time>2021-08-17T06:40:53Z</time>
        <sat>9</sat>
      </trkpt>
      <trkpt lat="42.343738" lon="-4.671702">
        <ele>825.6</ele>
        <time>2021-08-17T06:40:59Z</time>
        <sat>9</sat>
      </trkpt>
      <trkpt lat="42.343734" lon="-4.671819">
        <ele>825.6</ele>
        <time>2021-08-17T06:41:05Z</time>
        <sat>9</sat>
      </trkpt>
      <trkpt lat="42.343721" lon="-4.671946">
        <ele>825.6</ele>
        <time>2021-08-17T06:41:12Z</time>
        <sat>9</sat>
      </trkpt>
      <trkpt lat="42.343716" lon="-4.672057">
        <ele>825.6</ele>
        <time>2021-08-17T06:41:18Z</time>
        <sat>9</sat>
      </trkpt>
      <trkpt lat="42.343719" lon="-4.672180">
        <ele>825.6</ele>
        <time>2021-08-17T06:41:25Z</time>
        <sat>9</sat>
      </trkpt>
      <trkpt lat="42.343713" lon="-4.672290">
        <ele>825.6</ele>
        <time>2021-08-17T06:41:31Z</time>
        <sat>9</sat>
      </trkpt>
      <trkpt lat="42.343695" lon="-4.672415">
        <ele>825.7</ele>
        <time>2021-08-17T06:41:38Z</time>
        <sat>9</sat>
      </trkpt>
      <trkpt lat="42.343685" lon="-4.672524">
        <ele>825.7</ele>
        <time>2021-08-17T06:41:44Z</time>
        <sat>8</sat>
      </trkpt>
      <trkpt lat="42.343668" lon="-4.672635">
        <ele>825.8</ele>
        <time>2021-08-17T06:41:51Z</time>
        <sat>9</sat>
      </trkpt>
      <trkpt lat="42.343658" lon="-4.672761">
        <ele>825.8</ele>
        <time>2021-08-17T06:41:58Z</time>
        <sat>9</sat>
      </trkpt>
      <trkpt lat="42.343645" lon="-4.672871">
        <ele>825.8</ele>
        <time>2021-08-17T06:42:04Z</time>
        <sat>8</sat>
      </trkpt>
      <trkpt lat="42.343635" lon="-4.672980">
        <ele>825.8</ele>
        <time>2021-08-17T06:42:10Z</time>
        <sat>9</sat>
      </trkpt>
      <trkpt lat="42.343618" lon="-4.673090">
        <ele>825.8</ele>
        <time>2021-08-17T06:42:20Z</time>
        <sat>9</sat>
      </trkpt>
      <trkpt lat="42.343613" lon="-4.673210">
        <ele>825.9</ele>
        <time>2021-08-17T06:42:27Z</time>
        <sat>9</sat>
      </trkpt>
      <trkpt lat="42.343598" lon="-4.673327">
        <ele>825.9</ele>
        <time>2021-08-17T06:42:34Z</time>
        <sat>8</sat>
      </trkpt>
      <trkpt lat="42.343583" lon="-4.673444">
        <ele>825.9</ele>
        <time>2021-08-17T06:42:41Z</time>
        <sat>9</sat>
      </trkpt>
      <trkpt lat="42.343577" lon="-4.673569">
        <ele>825.7</ele>
        <time>2021-08-17T06:42:48Z</time>
        <sat>9</sat>
      </trkpt>
      <trkpt lat="42.343565" lon="-4.673678">
        <ele>825.7</ele>
        <time>2021-08-17T06:42:54Z</time>
        <sat>9</sat>
      </trkpt>
      <trkpt lat="42.343560" lon="-4.673788">
        <ele>825.8</ele>
        <time>2021-08-17T06:43:00Z</time>
        <sat>8</sat>
      </trkpt>
      <trkpt lat="42.343544" lon="-4.673905">
        <ele>825.8</ele>
        <time>2021-08-17T06:43:07Z</time>
        <sat>9</sat>
      </trkpt>
      <trkpt lat="42.343535" lon="-4.674022">
        <ele>826.0</ele>
        <time>2021-08-17T06:43:18Z</time>
        <sat>8</sat>
      </trkpt>
      <trkpt lat="42.343530" lon="-4.674135">
        <ele>826.1</ele>
        <time>2021-08-17T06:43:24Z</time>
        <sat>9</sat>
      </trkpt>
      <trkpt lat="42.343517" lon="-4.674254">
        <ele>826.0</ele>
        <time>2021-08-17T06:43:31Z</time>
        <sat>9</sat>
      </trkpt>
      <trkpt lat="42.343509" lon="-4.674381">
        <ele>826.0</ele>
        <time>2021-08-17T06:43:38Z</time>
        <sat>9</sat>
      </trkpt>
      <trkpt lat="42.343486" lon="-4.674504">
        <ele>826.0</ele>
        <time>2021-08-17T06:43:45Z</time>
        <sat>9</sat>
      </trkpt>
      <trkpt lat="42.343483" lon="-4.674614">
        <ele>826.0</ele>
        <time>2021-08-17T06:43:51Z</time>
        <sat>9</sat>
      </trkpt>
      <trkpt lat="42.343466" lon="-4.674738">
        <ele>826.1</ele>
        <time>2021-08-17T06:43:58Z</time>
        <sat>9</sat>
      </trkpt>
      <trkpt lat="42.343459" lon="-4.674847">
        <ele>826.0</ele>
        <time>2021-08-17T06:44:04Z</time>
        <sat>8</sat>
      </trkpt>
      <trkpt lat="42.343440" lon="-4.674967">
        <ele>826.1</ele>
        <time>2021-08-17T06:44:11Z</time>
        <sat>9</sat>
      </trkpt>
      <trkpt lat="42.343434" lon="-4.675077">
        <ele>826.2</ele>
        <time>2021-08-17T06:44:17Z</time>
        <sat>9</sat>
      </trkpt>
      <trkpt lat="42.343419" lon="-4.675200">
        <ele>826.1</ele>
        <time>2021-08-17T06:44:24Z</time>
        <sat>9</sat>
      </trkpt>
      <trkpt lat="42.343409" lon="-4.675313">
        <ele>826.3</ele>
        <time>2021-08-17T06:44:30Z</time>
        <sat>8</sat>
      </trkpt>
      <trkpt lat="42.343401" lon="-4.675435">
        <ele>826.4</ele>
        <time>2021-08-17T06:44:38Z</time>
        <sat>9</sat>
      </trkpt>
      <trkpt lat="42.343388" lon="-4.675559">
        <ele>826.4</ele>
        <time>2021-08-17T06:44:45Z</time>
        <sat>9</sat>
      </trkpt>
      <trkpt lat="42.343375" lon="-4.675669">
        <ele>826.5</ele>
        <time>2021-08-17T06:44:51Z</time>
        <sat>9</sat>
      </trkpt>
      <trkpt lat="42.343366" lon="-4.675788">
        <ele>826.3</ele>
        <time>2021-08-17T06:44:58Z</time>
        <sat>9</sat>
      </trkpt>
      <trkpt lat="42.343362" lon="-4.675899">
        <ele>826.3</ele>
        <time>2021-08-17T06:45:04Z</time>
        <sat>9</sat>
      </trkpt>
      <trkpt lat="42.343348" lon="-4.676018">
        <ele>826.4</ele>
        <time>2021-08-17T06:45:11Z</time>
        <sat>9</sat>
      </trkpt>
      <trkpt lat="42.343336" lon="-4.676144">
        <ele>826.6</ele>
        <time>2021-08-17T06:45:18Z</time>
        <sat>9</sat>
      </trkpt>
      <trkpt lat="42.343323" lon="-4.676254">
        <ele>826.7</ele>
        <time>2021-08-17T06:45:24Z</time>
        <sat>9</sat>
      </trkpt>
      <trkpt lat="42.343315" lon="-4.676364">
        <ele>826.7</ele>
        <time>2021-08-17T06:45:30Z</time>
        <sat>9</sat>
      </trkpt>
      <trkpt lat="42.343300" lon="-4.676489">
        <ele>826.8</ele>
        <time>2021-08-17T06:45:37Z</time>
        <sat>9</sat>
      </trkpt>
      <trkpt lat="42.343291" lon="-4.676601">
        <ele>826.9</ele>
        <time>2021-08-17T06:45:43Z</time>
        <sat>9</sat>
      </trkpt>
      <trkpt lat="42.343268" lon="-4.676722">
        <ele>827.0</ele>
        <time>2021-08-17T06:45:50Z</time>
        <sat>9</sat>
      </trkpt>
      <trkpt lat="42.343255" lon="-4.676832">
        <ele>826.9</ele>
        <time>2021-08-17T06:45:56Z</time>
        <sat>9</sat>
      </trkpt>
      <trkpt lat="42.343249" lon="-4.676953">
        <ele>826.9</ele>
        <time>2021-08-17T06:46:03Z</time>
        <sat>8</sat>
      </trkpt>
      <trkpt lat="42.343231" lon="-4.677060">
        <ele>827.0</ele>
        <time>2021-08-17T06:46:09Z</time>
        <sat>9</sat>
      </trkpt>
      <trkpt lat="42.343218" lon="-4.677181">
        <ele>827.1</ele>
        <time>2021-08-17T06:46:16Z</time>
        <sat>9</sat>
      </trkpt>
      <trkpt lat="42.343206" lon="-4.677294">
        <ele>827.0</ele>
        <time>2021-08-17T06:46:22Z</time>
        <sat>8</sat>
      </trkpt>
      <trkpt lat="42.343197" lon="-4.677417">
        <ele>827.0</ele>
        <time>2021-08-17T06:46:29Z</time>
        <sat>8</sat>
      </trkpt>
      <trkpt lat="42.343179" lon="-4.677543">
        <ele>827.1</ele>
        <time>2021-08-17T06:46:36Z</time>
        <sat>9</sat>
      </trkpt>
      <trkpt lat="42.343174" lon="-4.677654">
        <ele>827.2</ele>
        <time>2021-08-17T06:46:42Z</time>
        <sat>9</sat>
      </trkpt>
      <trkpt lat="42.343161" lon="-4.677763">
        <ele>827.2</ele>
        <time>2021-08-17T06:46:48Z</time>
        <sat>9</sat>
      </trkpt>
      <trkpt lat="42.343149" lon="-4.677874">
        <ele>827.2</ele>
        <time>2021-08-17T06:46:54Z</time>
        <sat>8</sat>
      </trkpt>
      <trkpt lat="42.343136" lon="-4.677998">
        <ele>827.3</ele>
        <time>2021-08-17T06:47:01Z</time>
        <sat>9</sat>
      </trkpt>
      <trkpt lat="42.343121" lon="-4.678107">
        <ele>827.2</ele>
        <time>2021-08-17T06:47:07Z</time>
        <sat>9</sat>
      </trkpt>
      <trkpt lat="42.343114" lon="-4.678222">
        <ele>827.2</ele>
        <time>2021-08-17T06:47:13Z</time>
        <sat>9</sat>
      </trkpt>
      <trkpt lat="42.343102" lon="-4.678345">
        <ele>827.3</ele>
        <time>2021-08-17T06:47:20Z</time>
        <sat>9</sat>
      </trkpt>
      <trkpt lat="42.343098" lon="-4.678458">
        <ele>827.3</ele>
        <time>2021-08-17T06:47:26Z</time>
        <sat>9</sat>
      </trkpt>
      <trkpt lat="42.343087" lon="-4.678582">
        <ele>827.3</ele>
        <time>2021-08-17T06:47:33Z</time>
        <sat>9</sat>
      </trkpt>
      <trkpt lat="42.343079" lon="-4.678692">
        <ele>827.3</ele>
        <time>2021-08-17T06:47:39Z</time>
        <sat>9</sat>
      </trkpt>
      <trkpt lat="42.343069" lon="-4.678818">
        <ele>827.3</ele>
        <time>2021-08-17T06:47:46Z</time>
        <sat>9</sat>
      </trkpt>
      <trkpt lat="42.343058" lon="-4.678927">
        <ele>827.4</ele>
        <time>2021-08-17T06:47:52Z</time>
        <sat>9</sat>
      </trkpt>
      <trkpt lat="42.343055" lon="-4.679041">
        <ele>827.5</ele>
        <time>2021-08-17T06:47:58Z</time>
        <sat>9</sat>
      </trkpt>
      <trkpt lat="42.343041" lon="-4.679164">
        <ele>827.6</ele>
        <time>2021-08-17T06:48:05Z</time>
        <sat>9</sat>
      </trkpt>
      <trkpt lat="42.343022" lon="-4.679277">
        <ele>827.6</ele>
        <time>2021-08-17T06:48:11Z</time>
        <sat>9</sat>
      </trkpt>
      <trkpt lat="42.343021" lon="-4.679399">
        <ele>827.4</ele>
        <time>2021-08-17T06:48:18Z</time>
        <sat>9</sat>
      </trkpt>
      <trkpt lat="42.343005" lon="-4.679525">
        <ele>827.4</ele>
        <time>2021-08-17T06:48:25Z</time>
        <sat>8</sat>
      </trkpt>
      <trkpt lat="42.342998" lon="-4.679645">
        <ele>827.4</ele>
        <time>2021-08-17T06:48:31Z</time>
        <sat>9</sat>
      </trkpt>
      <trkpt lat="42.342989" lon="-4.679771">
        <ele>827.3</ele>
        <time>2021-08-17T06:48:38Z</time>
        <sat>9</sat>
      </trkpt>
      <trkpt lat="42.342976" lon="-4.679883">
        <ele>827.2</ele>
        <time>2021-08-17T06:48:44Z</time>
        <sat>9</sat>
      </trkpt>
      <trkpt lat="42.342970" lon="-4.679997">
        <ele>827.2</ele>
        <time>2021-08-17T06:48:50Z</time>
        <sat>9</sat>
      </trkpt>
      <trkpt lat="42.342956" lon="-4.680122">
        <ele>827.3</ele>
        <time>2021-08-17T06:48:57Z</time>
        <sat>9</sat>
      </trkpt>
      <trkpt lat="42.342950" lon="-4.680241">
        <ele>827.3</ele>
        <time>2021-08-17T06:49:03Z</time>
        <sat>9</sat>
      </trkpt>
      <trkpt lat="42.342936" lon="-4.680349">
        <ele>827.3</ele>
        <time>2021-08-17T06:49:09Z</time>
        <sat>9</sat>
      </trkpt>
      <trkpt lat="42.342926" lon="-4.680461">
        <ele>827.2</ele>
        <time>2021-08-17T06:49:15Z</time>
        <sat>9</sat>
      </trkpt>
      <trkpt lat="42.342920" lon="-4.680573">
        <ele>827.2</ele>
        <time>2021-08-17T06:49:21Z</time>
        <sat>9</sat>
      </trkpt>
      <trkpt lat="42.342900" lon="-4.680697">
        <ele>827.2</ele>
        <time>2021-08-17T06:49:28Z</time>
        <sat>9</sat>
      </trkpt>
      <trkpt lat="42.342892" lon="-4.680811">
        <ele>827.3</ele>
        <time>2021-08-17T06:49:34Z</time>
        <sat>9</sat>
      </trkpt>
      <trkpt lat="42.342871" lon="-4.680936">
        <ele>827.3</ele>
        <time>2021-08-17T06:49:41Z</time>
        <sat>9</sat>
      </trkpt>
      <trkpt lat="42.342856" lon="-4.681054">
        <ele>827.3</ele>
        <time>2021-08-17T06:49:47Z</time>
        <sat>9</sat>
      </trkpt>
      <trkpt lat="42.342843" lon="-4.681162">
        <ele>827.4</ele>
        <time>2021-08-17T06:49:53Z</time>
        <sat>9</sat>
      </trkpt>
      <trkpt lat="42.342827" lon="-4.681278">
        <ele>827.3</ele>
        <time>2021-08-17T06:49:59Z</time>
        <sat>9</sat>
      </trkpt>
      <trkpt lat="42.342817" lon="-4.681396">
        <ele>827.2</ele>
        <time>2021-08-17T06:50:05Z</time>
        <sat>9</sat>
      </trkpt>
      <trkpt lat="42.342808" lon="-4.681519">
        <ele>827.3</ele>
        <time>2021-08-17T06:50:12Z</time>
        <sat>9</sat>
      </trkpt>
      <trkpt lat="42.342798" lon="-4.681636">
        <ele>827.3</ele>
        <time>2021-08-17T06:50:18Z</time>
        <sat>9</sat>
      </trkpt>
      <trkpt lat="42.342792" lon="-4.681761">
        <ele>827.2</ele>
        <time>2021-08-17T06:50:25Z</time>
        <sat>9</sat>
      </trkpt>
      <trkpt lat="42.342773" lon="-4.681874">
        <ele>827.3</ele>
        <time>2021-08-17T06:50:31Z</time>
        <sat>9</sat>
      </trkpt>
      <trkpt lat="42.342764" lon="-4.681987">
        <ele>827.4</ele>
        <time>2021-08-17T06:50:37Z</time>
        <sat>9</sat>
      </trkpt>
      <trkpt lat="42.342748" lon="-4.682111">
        <ele>827.5</ele>
        <time>2021-08-17T06:50:44Z</time>
        <sat>9</sat>
      </trkpt>
      <trkpt lat="42.342729" lon="-4.682225">
        <ele>827.7</ele>
        <time>2021-08-17T06:50:50Z</time>
        <sat>9</sat>
      </trkpt>
      <trkpt lat="42.342712" lon="-4.682349">
        <ele>827.6</ele>
        <time>2021-08-17T06:50:57Z</time>
        <sat>9</sat>
      </trkpt>
      <trkpt lat="42.342706" lon="-4.682460">
        <ele>827.6</ele>
        <time>2021-08-17T06:51:04Z</time>
        <sat>9</sat>
      </trkpt>
      <trkpt lat="42.342686" lon="-4.682569">
        <ele>827.7</ele>
        <time>2021-08-17T06:51:11Z</time>
        <sat>9</sat>
      </trkpt>
      <trkpt lat="42.342678" lon="-4.682690">
        <ele>827.7</ele>
        <time>2021-08-17T06:51:18Z</time>
        <sat>9</sat>
      </trkpt>
      <trkpt lat="42.342660" lon="-4.682802">
        <ele>827.8</ele>
        <time>2021-08-17T06:51:24Z</time>
        <sat>9</sat>
      </trkpt>
      <trkpt lat="42.342654" lon="-4.682915">
        <ele>827.9</ele>
        <time>2021-08-17T06:51:30Z</time>
        <sat>9</sat>
      </trkpt>
      <trkpt lat="42.342637" lon="-4.683023">
        <ele>827.9</ele>
        <time>2021-08-17T06:51:36Z</time>
        <sat>9</sat>
      </trkpt>
      <trkpt lat="42.342623" lon="-4.683135">
        <ele>827.8</ele>
        <time>2021-08-17T06:51:42Z</time>
        <sat>9</sat>
      </trkpt>
      <trkpt lat="42.342614" lon="-4.683248">
        <ele>827.9</ele>
        <time>2021-08-17T06:51:48Z</time>
        <sat>9</sat>
      </trkpt>
      <trkpt lat="42.342589" lon="-4.683361">
        <ele>827.8</ele>
        <time>2021-08-17T06:51:54Z</time>
        <sat>9</sat>
      </trkpt>
      <trkpt lat="42.342575" lon="-4.683475">
        <ele>827.6</ele>
        <time>2021-08-17T06:52:00Z</time>
        <sat>9</sat>
      </trkpt>
      <trkpt lat="42.342572" lon="-4.683586">
        <ele>827.6</ele>
        <time>2021-08-17T06:52:06Z</time>
        <sat>9</sat>
      </trkpt>
      <trkpt lat="42.342554" lon="-4.683696">
        <ele>827.6</ele>
        <time>2021-08-17T06:52:12Z</time>
        <sat>9</sat>
      </trkpt>
      <trkpt lat="42.342544" lon="-4.683811">
        <ele>827.8</ele>
        <time>2021-08-17T06:52:18Z</time>
        <sat>9</sat>
      </trkpt>
      <trkpt lat="42.342538" lon="-4.683935">
        <ele>827.9</ele>
        <time>2021-08-17T06:52:25Z</time>
        <sat>9</sat>
      </trkpt>
      <trkpt lat="42.342522" lon="-4.684044">
        <ele>827.8</ele>
        <time>2021-08-17T06:52:31Z</time>
        <sat>9</sat>
      </trkpt>
      <trkpt lat="42.342514" lon="-4.684159">
        <ele>827.9</ele>
        <time>2021-08-17T06:52:37Z</time>
        <sat>9</sat>
      </trkpt>
      <trkpt lat="42.342497" lon="-4.684267">
        <ele>828.0</ele>
        <time>2021-08-17T06:52:43Z</time>
        <sat>9</sat>
      </trkpt>
      <trkpt lat="42.342483" lon="-4.684381">
        <ele>828.1</ele>
        <time>2021-08-17T06:52:49Z</time>
        <sat>9</sat>
      </trkpt>
      <trkpt lat="42.342474" lon="-4.684506">
        <ele>828.1</ele>
        <time>2021-08-17T06:52:56Z</time>
        <sat>9</sat>
      </trkpt>
      <trkpt lat="42.342452" lon="-4.684617">
        <ele>828.0</ele>
        <time>2021-08-17T06:53:02Z</time>
        <sat>9</sat>
      </trkpt>
      <trkpt lat="42.342445" lon="-4.684738">
        <ele>827.8</ele>
        <time>2021-08-17T06:53:09Z</time>
        <sat>9</sat>
      </trkpt>
      <trkpt lat="42.342428" lon="-4.684866">
        <ele>827.7</ele>
        <time>2021-08-17T06:53:16Z</time>
        <sat>8</sat>
      </trkpt>
      <trkpt lat="42.342415" lon="-4.684979">
        <ele>827.8</ele>
        <time>2021-08-17T06:53:22Z</time>
        <sat>7</sat>
      </trkpt>
      <trkpt lat="42.342408" lon="-4.685092">
        <ele>827.9</ele>
        <time>2021-08-17T06:53:28Z</time>
        <sat>8</sat>
      </trkpt>
      <trkpt lat="42.342392" lon="-4.685203">
        <ele>828.0</ele>
        <time>2021-08-17T06:53:34Z</time>
        <sat>8</sat>
      </trkpt>
      <trkpt lat="42.342387" lon="-4.685318">
        <ele>828.1</ele>
        <time>2021-08-17T06:53:40Z</time>
        <sat>8</sat>
      </trkpt>
      <trkpt lat="42.342368" lon="-4.685442">
        <ele>828.2</ele>
        <time>2021-08-17T06:53:47Z</time>
        <sat>8</sat>
      </trkpt>
      <trkpt lat="42.342356" lon="-4.685559">
        <ele>828.3</ele>
        <time>2021-08-17T06:53:53Z</time>
        <sat>8</sat>
      </trkpt>
      <trkpt lat="42.342348" lon="-4.685668">
        <ele>828.4</ele>
        <time>2021-08-17T06:53:59Z</time>
        <sat>8</sat>
      </trkpt>
      <trkpt lat="42.342334" lon="-4.685779">
        <ele>828.5</ele>
        <time>2021-08-17T06:54:05Z</time>
        <sat>7</sat>
      </trkpt>
      <trkpt lat="42.342325" lon="-4.685893">
        <ele>828.6</ele>
        <time>2021-08-17T06:54:11Z</time>
        <sat>8</sat>
      </trkpt>
      <trkpt lat="42.342308" lon="-4.686018">
        <ele>828.8</ele>
        <time>2021-08-17T06:54:18Z</time>
        <sat>8</sat>
      </trkpt>
      <trkpt lat="42.342299" lon="-4.686132">
        <ele>828.9</ele>
        <time>2021-08-17T06:54:24Z</time>
        <sat>8</sat>
      </trkpt>
      <trkpt lat="42.342293" lon="-4.686243">
        <ele>828.9</ele>
        <time>2021-08-17T06:54:30Z</time>
        <sat>7</sat>
      </trkpt>
      <trkpt lat="42.342280" lon="-4.686357">
        <ele>828.9</ele>
        <time>2021-08-17T06:54:36Z</time>
        <sat>8</sat>
      </trkpt>
      <trkpt lat="42.342266" lon="-4.686480">
        <ele>828.9</ele>
        <time>2021-08-17T06:54:43Z</time>
        <sat>8</sat>
      </trkpt>
      <trkpt lat="42.342249" lon="-4.686594">
        <ele>828.8</ele>
        <time>2021-08-17T06:54:49Z</time>
        <sat>8</sat>
      </trkpt>
      <trkpt lat="42.342239" lon="-4.686710">
        <ele>829.0</ele>
        <time>2021-08-17T06:54:55Z</time>
        <sat>7</sat>
      </trkpt>
      <trkpt lat="42.342227" lon="-4.686831">
        <ele>828.9</ele>
        <time>2021-08-17T06:55:02Z</time>
        <sat>8</sat>
      </trkpt>
      <trkpt lat="42.342211" lon="-4.686942">
        <ele>828.8</ele>
        <time>2021-08-17T06:55:08Z</time>
        <sat>7</sat>
      </trkpt>
      <trkpt lat="42.342203" lon="-4.687054">
        <ele>828.7</ele>
        <time>2021-08-17T06:55:14Z</time>
        <sat>8</sat>
      </trkpt>
      <trkpt lat="42.342186" lon="-4.687166">
        <ele>828.5</ele>
        <time>2021-08-17T06:55:20Z</time>
        <sat>8</sat>
      </trkpt>
      <trkpt lat="42.342175" lon="-4.687275">
        <ele>828.5</ele>
        <time>2021-08-17T06:55:26Z</time>
        <sat>8</sat>
      </trkpt>
      <trkpt lat="42.342169" lon="-4.687386">
        <ele>828.6</ele>
        <time>2021-08-17T06:55:32Z</time>
        <sat>8</sat>
      </trkpt>
      <trkpt lat="42.342153" lon="-4.687500">
        <ele>828.6</ele>
        <time>2021-08-17T06:55:38Z</time>
        <sat>8</sat>
      </trkpt>
      <trkpt lat="42.342139" lon="-4.687626">
        <ele>828.7</ele>
        <time>2021-08-17T06:55:45Z</time>
        <sat>8</sat>
      </trkpt>
      <trkpt lat="42.342120" lon="-4.687737">
        <ele>828.7</ele>
        <time>2021-08-17T06:55:51Z</time>
        <sat>8</sat>
      </trkpt>
      <trkpt lat="42.342114" lon="-4.687852">
        <ele>828.8</ele>
        <time>2021-08-17T06:55:57Z</time>
        <sat>8</sat>
      </trkpt>
      <trkpt lat="42.342101" lon="-4.687977">
        <ele>828.9</ele>
        <time>2021-08-17T06:56:04Z</time>
        <sat>8</sat>
      </trkpt>
      <trkpt lat="42.342095" lon="-4.688087">
        <ele>829.0</ele>
        <time>2021-08-17T06:56:10Z</time>
        <sat>8</sat>
      </trkpt>
      <trkpt lat="42.342081" lon="-4.688196">
        <ele>829.1</ele>
        <time>2021-08-17T06:56:16Z</time>
        <sat>8</sat>
      </trkpt>
      <trkpt lat="42.342071" lon="-4.688308">
        <ele>829.2</ele>
        <time>2021-08-17T06:56:22Z</time>
        <sat>8</sat>
      </trkpt>
      <trkpt lat="42.342053" lon="-4.688432">
        <ele>829.2</ele>
        <time>2021-08-17T06:56:29Z</time>
        <sat>8</sat>
      </trkpt>
      <trkpt lat="42.342043" lon="-4.688542">
        <ele>829.1</ele>
        <time>2021-08-17T06:56:35Z</time>
        <sat>8</sat>
      </trkpt>
      <trkpt lat="42.342023" lon="-4.688660">
        <ele>829.2</ele>
        <time>2021-08-17T06:56:42Z</time>
        <sat>8</sat>
      </trkpt>
      <trkpt lat="42.342001" lon="-4.688776">
        <ele>829.2</ele>
        <time>2021-08-17T06:56:49Z</time>
        <sat>7</sat>
      </trkpt>
      <trkpt lat="42.341984" lon="-4.688886">
        <ele>829.2</ele>
        <time>2021-08-17T06:56:55Z</time>
        <sat>7</sat>
      </trkpt>
      <trkpt lat="42.341973" lon="-4.689003">
        <ele>829.1</ele>
        <time>2021-08-17T06:57:01Z</time>
        <sat>8</sat>
      </trkpt>
      <trkpt lat="42.341961" lon="-4.689127">
        <ele>829.1</ele>
        <time>2021-08-17T06:57:08Z</time>
        <sat>8</sat>
      </trkpt>
      <trkpt lat="42.341951" lon="-4.689241">
        <ele>829.1</ele>
        <time>2021-08-17T06:57:14Z</time>
        <sat>7</sat>
      </trkpt>
      <trkpt lat="42.341942" lon="-4.689364">
        <ele>829.2</ele>
        <time>2021-08-17T06:57:21Z</time>
        <sat>8</sat>
      </trkpt>
      <trkpt lat="42.341922" lon="-4.689473">
        <ele>829.3</ele>
        <time>2021-08-17T06:57:27Z</time>
        <sat>8</sat>
      </trkpt>
      <trkpt lat="42.341920" lon="-4.689589">
        <ele>829.3</ele>
        <time>2021-08-17T06:57:33Z</time>
        <sat>8</sat>
      </trkpt>
      <trkpt lat="42.341908" lon="-4.689716">
        <ele>829.5</ele>
        <time>2021-08-17T06:57:40Z</time>
        <sat>8</sat>
      </trkpt>
      <trkpt lat="42.341895" lon="-4.689827">
        <ele>829.6</ele>
        <time>2021-08-17T06:57:46Z</time>
        <sat>8</sat>
      </trkpt>
      <trkpt lat="42.341876" lon="-4.689950">
        <ele>829.7</ele>
        <time>2021-08-17T06:57:53Z</time>
        <sat>8</sat>
      </trkpt>
      <trkpt lat="42.341868" lon="-4.690059">
        <ele>829.7</ele>
        <time>2021-08-17T06:57:59Z</time>
        <sat>8</sat>
      </trkpt>
      <trkpt lat="42.341850" lon="-4.690183">
        <ele>829.7</ele>
        <time>2021-08-17T06:58:06Z</time>
        <sat>8</sat>
      </trkpt>
      <trkpt lat="42.341844" lon="-4.690294">
        <ele>829.7</ele>
        <time>2021-08-17T06:58:12Z</time>
        <sat>8</sat>
      </trkpt>
      <trkpt lat="42.341819" lon="-4.690411">
        <ele>829.7</ele>
        <time>2021-08-17T06:58:19Z</time>
        <sat>8</sat>
      </trkpt>
      <trkpt lat="42.341812" lon="-4.690522">
        <ele>829.8</ele>
        <time>2021-08-17T06:58:25Z</time>
        <sat>7</sat>
      </trkpt>
      <trkpt lat="42.341795" lon="-4.690631">
        <ele>829.8</ele>
        <time>2021-08-17T06:58:31Z</time>
        <sat>8</sat>
      </trkpt>
      <trkpt lat="42.341799" lon="-4.690743">
        <ele>829.8</ele>
        <time>2021-08-17T06:58:37Z</time>
        <sat>8</sat>
      </trkpt>
      <trkpt lat="42.341789" lon="-4.690869">
        <ele>829.8</ele>
        <time>2021-08-17T06:58:44Z</time>
        <sat>8</sat>
      </trkpt>
      <trkpt lat="42.341782" lon="-4.690983">
        <ele>829.8</ele>
        <time>2021-08-17T06:58:50Z</time>
        <sat>8</sat>
      </trkpt>
      <trkpt lat="42.341762" lon="-4.691103">
        <ele>829.7</ele>
        <time>2021-08-17T06:58:57Z</time>
        <sat>8</sat>
      </trkpt>
      <trkpt lat="42.341742" lon="-4.691215">
        <ele>829.7</ele>
        <time>2021-08-17T06:59:03Z</time>
        <sat>8</sat>
      </trkpt>
      <trkpt lat="42.341732" lon="-4.691333">
        <ele>829.9</ele>
        <time>2021-08-17T06:59:10Z</time>
        <sat>8</sat>
      </trkpt>
      <trkpt lat="42.341728" lon="-4.691443">
        <ele>830.0</ele>
        <time>2021-08-17T06:59:16Z</time>
        <sat>7</sat>
      </trkpt>
      <trkpt lat="42.341708" lon="-4.691565">
        <ele>830.1</ele>
        <time>2021-08-17T06:59:23Z</time>
        <sat>8</sat>
      </trkpt>
      <trkpt lat="42.341695" lon="-4.691689">
        <ele>830.1</ele>
        <time>2021-08-17T06:59:30Z</time>
        <sat>8</sat>
      </trkpt>
      <trkpt lat="42.341685" lon="-4.691814">
        <ele>830.3</ele>
        <time>2021-08-17T06:59:37Z</time>
        <sat>8</sat>
      </trkpt>
      <trkpt lat="42.341668" lon="-4.691930">
        <ele>830.4</ele>
        <time>2021-08-17T06:59:43Z</time>
        <sat>8</sat>
      </trkpt>
      <trkpt lat="42.341648" lon="-4.692046">
        <ele>830.4</ele>
        <time>2021-08-17T06:59:49Z</time>
        <sat>8</sat>
      </trkpt>
      <trkpt lat="42.341637" lon="-4.692162">
        <ele>830.4</ele>
        <time>2021-08-17T06:59:55Z</time>
        <sat>9</sat>
      </trkpt>
      <trkpt lat="42.341622" lon="-4.692270">
        <ele>830.3</ele>
        <time>2021-08-17T07:00:01Z</time>
        <sat>9</sat>
      </trkpt>
      <trkpt lat="42.341609" lon="-4.692397">
        <ele>830.3</ele>
        <time>2021-08-17T07:00:08Z</time>
        <sat>9</sat>
      </trkpt>
      <trkpt lat="42.341599" lon="-4.692506">
        <ele>830.3</ele>
        <time>2021-08-17T07:00:14Z</time>
        <sat>9</sat>
      </trkpt>
      <trkpt lat="42.341574" lon="-4.692613">
        <ele>830.4</ele>
        <time>2021-08-17T07:00:20Z</time>
        <sat>9</sat>
      </trkpt>
      <trkpt lat="42.341551" lon="-4.692726">
        <ele>830.4</ele>
        <time>2021-08-17T07:00:26Z</time>
        <sat>9</sat>
      </trkpt>
      <trkpt lat="42.341536" lon="-4.692849">
        <ele>830.4</ele>
        <time>2021-08-17T07:00:33Z</time>
        <sat>9</sat>
      </trkpt>
      <trkpt lat="42.341519" lon="-4.692969">
        <ele>830.4</ele>
        <time>2021-08-17T07:00:40Z</time>
        <sat>9</sat>
      </trkpt>
      <trkpt lat="42.341507" lon="-4.693088">
        <ele>830.3</ele>
        <time>2021-08-17T07:00:47Z</time>
        <sat>9</sat>
      </trkpt>
      <trkpt lat="42.341502" lon="-4.693210">
        <ele>830.2</ele>
        <time>2021-08-17T07:00:54Z</time>
        <sat>9</sat>
      </trkpt>
      <trkpt lat="42.341491" lon="-4.693320">
        <ele>830.1</ele>
        <time>2021-08-17T07:01:00Z</time>
        <sat>9</sat>
      </trkpt>
      <trkpt lat="42.341480" lon="-4.693446">
        <ele>830.1</ele>
        <time>2021-08-17T07:01:07Z</time>
        <sat>9</sat>
      </trkpt>
      <trkpt lat="42.341471" lon="-4.693557">
        <ele>830.2</ele>
        <time>2021-08-17T07:01:13Z</time>
        <sat>9</sat>
      </trkpt>
      <trkpt lat="42.341458" lon="-4.693678">
        <ele>830.3</ele>
        <time>2021-08-17T07:01:20Z</time>
        <sat>9</sat>
      </trkpt>
      <trkpt lat="42.341444" lon="-4.693788">
        <ele>830.4</ele>
        <time>2021-08-17T07:01:26Z</time>
        <sat>9</sat>
      </trkpt>
      <trkpt lat="42.341424" lon="-4.693910">
        <ele>830.6</ele>
        <time>2021-08-17T07:01:33Z</time>
        <sat>9</sat>
      </trkpt>
      <trkpt lat="42.341412" lon="-4.694032">
        <ele>830.6</ele>
        <time>2021-08-17T07:01:39Z</time>
        <sat>9</sat>
      </trkpt>
      <trkpt lat="42.341407" lon="-4.694156">
        <ele>830.7</ele>
        <time>2021-08-17T07:01:46Z</time>
        <sat>9</sat>
      </trkpt>
      <trkpt lat="42.341392" lon="-4.694268">
        <ele>830.9</ele>
        <time>2021-08-17T07:01:52Z</time>
        <sat>9</sat>
      </trkpt>
      <trkpt lat="42.341380" lon="-4.694378">
        <ele>831.0</ele>
        <time>2021-08-17T07:01:58Z</time>
        <sat>9</sat>
      </trkpt>
      <trkpt lat="42.341361" lon="-4.694486">
        <ele>831.0</ele>
        <time>2021-08-17T07:02:04Z</time>
        <sat>9</sat>
      </trkpt>
      <trkpt lat="42.341347" lon="-4.694599">
        <ele>831.0</ele>
        <time>2021-08-17T07:02:10Z</time>
        <sat>9</sat>
      </trkpt>
      <trkpt lat="42.341332" lon="-4.694721">
        <ele>831.1</ele>
        <time>2021-08-17T07:02:17Z</time>
        <sat>9</sat>
      </trkpt>
      <trkpt lat="42.341317" lon="-4.694835">
        <ele>831.0</ele>
        <time>2021-08-17T07:02:23Z</time>
        <sat>9</sat>
      </trkpt>
      <trkpt lat="42.341299" lon="-4.694947">
        <ele>831.1</ele>
        <time>2021-08-17T07:02:31Z</time>
        <sat>9</sat>
      </trkpt>
      <trkpt lat="42.341288" lon="-4.695066">
        <ele>830.9</ele>
        <time>2021-08-17T07:02:38Z</time>
        <sat>9</sat>
      </trkpt>
      <trkpt lat="42.341276" lon="-4.695182">
        <ele>830.8</ele>
        <time>2021-08-17T07:02:44Z</time>
        <sat>9</sat>
      </trkpt>
      <trkpt lat="42.341267" lon="-4.695299">
        <ele>830.9</ele>
        <time>2021-08-17T07:02:50Z</time>
        <sat>9</sat>
      </trkpt>
      <trkpt lat="42.341259" lon="-4.695425">
        <ele>831.1</ele>
        <time>2021-08-17T07:02:57Z</time>
        <sat>9</sat>
      </trkpt>
      <trkpt lat="42.341240" lon="-4.695538">
        <ele>831.1</ele>
        <time>2021-08-17T07:03:03Z</time>
        <sat>9</sat>
      </trkpt>
      <trkpt lat="42.341231" lon="-4.695652">
        <ele>831.1</ele>
        <time>2021-08-17T07:03:09Z</time>
        <sat>9</sat>
      </trkpt>
      <trkpt lat="42.341213" lon="-4.695778">
        <ele>831.1</ele>
        <time>2021-08-17T07:03:16Z</time>
        <sat>9</sat>
      </trkpt>
      <trkpt lat="42.341200" lon="-4.695893">
        <ele>831.2</ele>
        <time>2021-08-17T07:03:22Z</time>
        <sat>9</sat>
      </trkpt>
      <trkpt lat="42.341186" lon="-4.696017">
        <ele>831.3</ele>
        <time>2021-08-17T07:03:29Z</time>
        <sat>9</sat>
      </trkpt>
      <trkpt lat="42.341166" lon="-4.696133">
        <ele>831.3</ele>
        <time>2021-08-17T07:03:35Z</time>
        <sat>9</sat>
      </trkpt>
      <trkpt lat="42.341157" lon="-4.696242">
        <ele>831.3</ele>
        <time>2021-08-17T07:03:41Z</time>
        <sat>9</sat>
      </trkpt>
      <trkpt lat="42.341138" lon="-4.696350">
        <ele>831.3</ele>
        <time>2021-08-17T07:03:47Z</time>
        <sat>9</sat>
      </trkpt>
      <trkpt lat="42.341126" lon="-4.696461">
        <ele>831.2</ele>
        <time>2021-08-17T07:03:53Z</time>
        <sat>9</sat>
      </trkpt>
      <trkpt lat="42.341106" lon="-4.696585">
        <ele>831.2</ele>
        <time>2021-08-17T07:04:00Z</time>
        <sat>9</sat>
      </trkpt>
      <trkpt lat="42.341094" lon="-4.696696">
        <ele>831.2</ele>
        <time>2021-08-17T07:04:06Z</time>
        <sat>9</sat>
      </trkpt>
      <trkpt lat="42.341070" lon="-4.696818">
        <ele>831.3</ele>
        <time>2021-08-17T07:04:13Z</time>
        <sat>9</sat>
      </trkpt>
      <trkpt lat="42.341056" lon="-4.696931">
        <ele>831.1</ele>
        <time>2021-08-17T07:04:19Z</time>
        <sat>9</sat>
      </trkpt>
      <trkpt lat="42.341036" lon="-4.697054">
        <ele>831.1</ele>
        <time>2021-08-17T07:04:26Z</time>
        <sat>9</sat>
      </trkpt>
      <trkpt lat="42.341026" lon="-4.697166">
        <ele>831.0</ele>
        <time>2021-08-17T07:04:32Z</time>
        <sat>9</sat>
      </trkpt>
      <trkpt lat="42.341019" lon="-4.697276">
        <ele>831.0</ele>
        <time>2021-08-17T07:04:38Z</time>
        <sat>9</sat>
      </trkpt>
      <trkpt lat="42.341000" lon="-4.697389">
        <ele>831.1</ele>
        <time>2021-08-17T07:04:44Z</time>
        <sat>9</sat>
      </trkpt>
      <trkpt lat="42.340991" lon="-4.697502">
        <ele>831.2</ele>
        <time>2021-08-17T07:04:50Z</time>
        <sat>9</sat>
      </trkpt>
      <trkpt lat="42.340972" lon="-4.697626">
        <ele>831.3</ele>
        <time>2021-08-17T07:04:57Z</time>
        <sat>9</sat>
      </trkpt>
      <trkpt lat="42.340957" lon="-4.697734">
        <ele>831.4</ele>
        <time>2021-08-17T07:05:03Z</time>
        <sat>9</sat>
      </trkpt>
      <trkpt lat="42.340947" lon="-4.697844">
        <ele>831.5</ele>
        <time>2021-08-17T07:05:09Z</time>
        <sat>9</sat>
      </trkpt>
      <trkpt lat="42.340928" lon="-4.697951">
        <ele>831.5</ele>
        <time>2021-08-17T07:05:15Z</time>
        <sat>9</sat>
      </trkpt>
      <trkpt lat="42.340916" lon="-4.698062">
        <ele>831.5</ele>
        <time>2021-08-17T07:05:21Z</time>
        <sat>9</sat>
      </trkpt>
      <trkpt lat="42.340904" lon="-4.698173">
        <ele>831.6</ele>
        <time>2021-08-17T07:05:27Z</time>
        <sat>9</sat>
      </trkpt>
      <trkpt lat="42.340883" lon="-4.698283">
        <ele>831.5</ele>
        <time>2021-08-17T07:05:33Z</time>
        <sat>9</sat>
      </trkpt>
      <trkpt lat="42.340873" lon="-4.698400">
        <ele>831.4</ele>
        <time>2021-08-17T07:05:39Z</time>
        <sat>9</sat>
      </trkpt>
      <trkpt lat="42.340853" lon="-4.698506">
        <ele>831.4</ele>
        <time>2021-08-17T07:05:45Z</time>
        <sat>9</sat>
      </trkpt>
      <trkpt lat="42.340838" lon="-4.698619">
        <ele>831.4</ele>
        <time>2021-08-17T07:05:51Z</time>
        <sat>9</sat>
      </trkpt>
      <trkpt lat="42.340819" lon="-4.698742">
        <ele>831.4</ele>
        <time>2021-08-17T07:05:58Z</time>
        <sat>9</sat>
      </trkpt>
      <trkpt lat="42.340806" lon="-4.698853">
        <ele>831.4</ele>
        <time>2021-08-17T07:06:04Z</time>
        <sat>9</sat>
      </trkpt>
      <trkpt lat="42.340784" lon="-4.698974">
        <ele>831.5</ele>
        <time>2021-08-17T07:06:11Z</time>
        <sat>9</sat>
      </trkpt>
      <trkpt lat="42.340772" lon="-4.699084">
        <ele>831.8</ele>
        <time>2021-08-17T07:06:17Z</time>
        <sat>9</sat>
      </trkpt>
      <trkpt lat="42.340753" lon="-4.699192">
        <ele>831.8</ele>
        <time>2021-08-17T07:06:23Z</time>
        <sat>9</sat>
      </trkpt>
      <trkpt lat="42.340741" lon="-4.699305">
        <ele>831.9</ele>
        <time>2021-08-17T07:06:29Z</time>
        <sat>9</sat>
      </trkpt>
      <trkpt lat="42.340721" lon="-4.699429">
        <ele>832.0</ele>
        <time>2021-08-17T07:06:36Z</time>
        <sat>9</sat>
      </trkpt>
      <trkpt lat="42.340710" lon="-4.699544">
        <ele>832.0</ele>
        <time>2021-08-17T07:06:42Z</time>
        <sat>9</sat>
      </trkpt>
      <trkpt lat="42.340694" lon="-4.699666">
        <ele>832.0</ele>
        <time>2021-08-17T07:06:49Z</time>
        <sat>9</sat>
      </trkpt>
      <trkpt lat="42.340675" lon="-4.699778">
        <ele>831.9</ele>
        <time>2021-08-17T07:06:55Z</time>
        <sat>9</sat>
      </trkpt>
      <trkpt lat="42.340671" lon="-4.699893">
        <ele>829.2</ele>
        <time>2021-08-17T07:07:01Z</time>
        <sat>9</sat>
      </trkpt>
      <trkpt lat="42.340647" lon="-4.700007">
        <ele>828.8</ele>
        <time>2021-08-17T07:07:08Z</time>
        <sat>9</sat>
      </trkpt>
      <trkpt lat="42.340640" lon="-4.700126">
        <ele>830.9</ele>
        <time>2021-08-17T07:07:15Z</time>
        <sat>9</sat>
      </trkpt>
      <trkpt lat="42.340623" lon="-4.700236">
        <ele>831.2</ele>
        <time>2021-08-17T07:07:21Z</time>
        <sat>9</sat>
      </trkpt>
      <trkpt lat="42.340609" lon="-4.700356">
        <ele>830.5</ele>
        <time>2021-08-17T07:07:28Z</time>
        <sat>9</sat>
      </trkpt>
      <trkpt lat="42.340596" lon="-4.700481">
        <ele>829.7</ele>
        <time>2021-08-17T07:07:35Z</time>
        <sat>9</sat>
      </trkpt>
      <trkpt lat="42.340580" lon="-4.700591">
        <ele>830.5</ele>
        <time>2021-08-17T07:07:41Z</time>
        <sat>9</sat>
      </trkpt>
      <trkpt lat="42.340565" lon="-4.700706">
        <ele>831.4</ele>
        <time>2021-08-17T07:07:47Z</time>
        <sat>9</sat>
      </trkpt>
      <trkpt lat="42.340551" lon="-4.700830">
        <ele>832.0</ele>
        <time>2021-08-17T07:07:54Z</time>
        <sat>9</sat>
      </trkpt>
      <trkpt lat="42.340533" lon="-4.700946">
        <ele>832.4</ele>
        <time>2021-08-17T07:08:00Z</time>
        <sat>9</sat>
      </trkpt>
      <trkpt lat="42.340526" lon="-4.701072">
        <ele>832.7</ele>
        <time>2021-08-17T07:08:07Z</time>
        <sat>9</sat>
      </trkpt>
      <trkpt lat="42.340505" lon="-4.701184">
        <ele>832.8</ele>
        <time>2021-08-17T07:08:13Z</time>
        <sat>9</sat>
      </trkpt>
      <trkpt lat="42.340495" lon="-4.701294">
        <ele>832.8</ele>
        <time>2021-08-17T07:08:19Z</time>
        <sat>9</sat>
      </trkpt>
      <trkpt lat="42.340460" lon="-4.701401">
        <ele>832.8</ele>
        <time>2021-08-17T07:08:25Z</time>
        <sat>9</sat>
      </trkpt>
      <trkpt lat="42.340449" lon="-4.701515">
        <ele>832.9</ele>
        <time>2021-08-17T07:08:31Z</time>
        <sat>9</sat>
      </trkpt>
      <trkpt lat="42.340434" lon="-4.701636">
        <ele>832.9</ele>
        <time>2021-08-17T07:08:38Z</time>
        <sat>9</sat>
      </trkpt>
      <trkpt lat="42.340420" lon="-4.701745">
        <ele>832.8</ele>
        <time>2021-08-17T07:08:44Z</time>
        <sat>9</sat>
      </trkpt>
      <trkpt lat="42.340403" lon="-4.701860">
        <ele>833.1</ele>
        <time>2021-08-17T07:08:51Z</time>
        <sat>9</sat>
      </trkpt>
      <trkpt lat="42.340388" lon="-4.701971">
        <ele>833.0</ele>
        <time>2021-08-17T07:08:57Z</time>
        <sat>9</sat>
      </trkpt>
      <trkpt lat="42.340372" lon="-4.702092">
        <ele>832.8</ele>
        <time>2021-08-17T07:09:04Z</time>
        <sat>9</sat>
      </trkpt>
      <trkpt lat="42.340356" lon="-4.702201">
        <ele>832.7</ele>
        <time>2021-08-17T07:09:10Z</time>
        <sat>9</sat>
      </trkpt>
      <trkpt lat="42.340345" lon="-4.702310">
        <ele>832.8</ele>
        <time>2021-08-17T07:09:16Z</time>
        <sat>9</sat>
      </trkpt>
      <trkpt lat="42.340334" lon="-4.702421">
        <ele>832.8</ele>
        <time>2021-08-17T07:09:22Z</time>
        <sat>9</sat>
      </trkpt>
      <trkpt lat="42.340317" lon="-4.702544">
        <ele>832.8</ele>
        <time>2021-08-17T07:09:29Z</time>
        <sat>9</sat>
      </trkpt>
      <trkpt lat="42.340302" lon="-4.702652">
        <ele>833.1</ele>
        <time>2021-08-17T07:09:35Z</time>
        <sat>9</sat>
      </trkpt>
      <trkpt lat="42.340286" lon="-4.702773">
        <ele>833.3</ele>
        <time>2021-08-17T07:09:42Z</time>
        <sat>9</sat>
      </trkpt>
      <trkpt lat="42.340273" lon="-4.702883">
        <ele>833.4</ele>
        <time>2021-08-17T07:09:48Z</time>
        <sat>9</sat>
      </trkpt>
      <trkpt lat="42.340256" lon="-4.703008">
        <ele>833.5</ele>
        <time>2021-08-17T07:09:55Z</time>
        <sat>9</sat>
      </trkpt>
      <trkpt lat="42.340241" lon="-4.703122">
        <ele>833.5</ele>
        <time>2021-08-17T07:10:01Z</time>
        <sat>9</sat>
      </trkpt>
      <trkpt lat="42.340230" lon="-4.703242">
        <ele>833.5</ele>
        <time>2021-08-17T07:10:08Z</time>
        <sat>9</sat>
      </trkpt>
      <trkpt lat="42.340224" lon="-4.703351">
        <ele>833.6</ele>
        <time>2021-08-17T07:10:14Z</time>
        <sat>9</sat>
      </trkpt>
      <trkpt lat="42.340206" lon="-4.703470">
        <ele>833.8</ele>
        <time>2021-08-17T07:10:21Z</time>
        <sat>9</sat>
      </trkpt>
      <trkpt lat="42.340184" lon="-4.703578">
        <ele>833.9</ele>
        <time>2021-08-17T07:10:27Z</time>
        <sat>9</sat>
      </trkpt>
      <trkpt lat="42.340177" lon="-4.703702">
        <ele>833.9</ele>
        <time>2021-08-17T07:10:34Z</time>
        <sat>9</sat>
      </trkpt>
      <trkpt lat="42.340153" lon="-4.703811">
        <ele>833.9</ele>
        <time>2021-08-17T07:10:40Z</time>
        <sat>9</sat>
      </trkpt>
      <trkpt lat="42.340139" lon="-4.703934">
        <ele>833.9</ele>
        <time>2021-08-17T07:10:47Z</time>
        <sat>9</sat>
      </trkpt>
      <trkpt lat="42.340118" lon="-4.704043">
        <ele>833.8</ele>
        <time>2021-08-17T07:10:53Z</time>
        <sat>9</sat>
      </trkpt>
      <trkpt lat="42.340101" lon="-4.704165">
        <ele>833.7</ele>
        <time>2021-08-17T07:11:00Z</time>
        <sat>9</sat>
      </trkpt>
      <trkpt lat="42.340083" lon="-4.704275">
        <ele>833.7</ele>
        <time>2021-08-17T07:11:06Z</time>
        <sat>9</sat>
      </trkpt>
      <trkpt lat="42.340068" lon="-4.704397">
        <ele>833.9</ele>
        <time>2021-08-17T07:11:13Z</time>
        <sat>9</sat>
      </trkpt>
      <trkpt lat="42.340061" lon="-4.704510">
        <ele>834.3</ele>
        <time>2021-08-17T07:11:38Z</time>
        <sat>9</sat>
      </trkpt>
      <trkpt lat="42.340050" lon="-4.704626">
        <ele>834.3</ele>
        <time>2021-08-17T07:11:46Z</time>
        <sat>9</sat>
      </trkpt>
      <trkpt lat="42.340029" lon="-4.704743">
        <ele>834.2</ele>
        <time>2021-08-17T07:11:54Z</time>
        <sat>9</sat>
      </trkpt>
      <trkpt lat="42.340010" lon="-4.704859">
        <ele>834.1</ele>
        <time>2021-08-17T07:12:01Z</time>
        <sat>9</sat>
      </trkpt>
      <trkpt lat="42.339992" lon="-4.704968">
        <ele>834.1</ele>
        <time>2021-08-17T07:12:07Z</time>
        <sat>9</sat>
      </trkpt>
      <trkpt lat="42.339979" lon="-4.705094">
        <ele>834.1</ele>
        <time>2021-08-17T07:12:14Z</time>
        <sat>9</sat>
      </trkpt>
      <trkpt lat="42.339962" lon="-4.705206">
        <ele>834.1</ele>
        <time>2021-08-17T07:12:20Z</time>
        <sat>9</sat>
      </trkpt>
      <trkpt lat="42.339953" lon="-4.705317">
        <ele>834.1</ele>
        <time>2021-08-17T07:12:26Z</time>
        <sat>9</sat>
      </trkpt>
      <trkpt lat="42.339933" lon="-4.705439">
        <ele>834.2</ele>
        <time>2021-08-17T07:12:33Z</time>
        <sat>9</sat>
      </trkpt>
      <trkpt lat="42.339922" lon="-4.705563">
        <ele>834.3</ele>
        <time>2021-08-17T07:12:40Z</time>
        <sat>9</sat>
      </trkpt>
      <trkpt lat="42.339904" lon="-4.705671">
        <ele>834.2</ele>
        <time>2021-08-17T07:12:46Z</time>
        <sat>9</sat>
      </trkpt>
      <trkpt lat="42.339893" lon="-4.705779">
        <ele>834.2</ele>
        <time>2021-08-17T07:12:52Z</time>
        <sat>9</sat>
      </trkpt>
      <trkpt lat="42.339872" lon="-4.705890">
        <ele>834.4</ele>
        <time>2021-08-17T07:12:58Z</time>
        <sat>9</sat>
      </trkpt>
      <trkpt lat="42.339859" lon="-4.706011">
        <ele>834.4</ele>
        <time>2021-08-17T07:13:05Z</time>
        <sat>9</sat>
      </trkpt>
      <trkpt lat="42.339839" lon="-4.706118">
        <ele>834.3</ele>
        <time>2021-08-17T07:13:11Z</time>
        <sat>9</sat>
      </trkpt>
      <trkpt lat="42.339826" lon="-4.706243">
        <ele>834.3</ele>
        <time>2021-08-17T07:13:18Z</time>
        <sat>9</sat>
      </trkpt>
      <trkpt lat="42.339809" lon="-4.706352">
        <ele>834.4</ele>
        <time>2021-08-17T07:13:24Z</time>
        <sat>9</sat>
      </trkpt>
      <trkpt lat="42.339800" lon="-4.706465">
        <ele>834.4</ele>
        <time>2021-08-17T07:13:30Z</time>
        <sat>9</sat>
      </trkpt>
      <trkpt lat="42.339779" lon="-4.706587">
        <ele>834.3</ele>
        <time>2021-08-17T07:13:37Z</time>
        <sat>9</sat>
      </trkpt>
      <trkpt lat="42.339769" lon="-4.706697">
        <ele>834.3</ele>
        <time>2021-08-17T07:13:43Z</time>
        <sat>9</sat>
      </trkpt>
      <trkpt lat="42.339752" lon="-4.706815">
        <ele>834.4</ele>
        <time>2021-08-17T07:13:50Z</time>
        <sat>9</sat>
      </trkpt>
      <trkpt lat="42.339734" lon="-4.706932">
        <ele>834.4</ele>
        <time>2021-08-17T07:13:57Z</time>
        <sat>9</sat>
      </trkpt>
      <trkpt lat="42.339722" lon="-4.707054">
        <ele>834.5</ele>
        <time>2021-08-17T07:14:04Z</time>
        <sat>9</sat>
      </trkpt>
      <trkpt lat="42.339704" lon="-4.707181">
        <ele>834.7</ele>
        <time>2021-08-17T07:14:11Z</time>
        <sat>9</sat>
      </trkpt>
      <trkpt lat="42.339685" lon="-4.707302">
        <ele>834.7</ele>
        <time>2021-08-17T07:14:18Z</time>
        <sat>9</sat>
      </trkpt>
      <trkpt lat="42.339673" lon="-4.707412">
        <ele>834.9</ele>
        <time>2021-08-17T07:14:24Z</time>
        <sat>9</sat>
      </trkpt>
      <trkpt lat="42.339654" lon="-4.707521">
        <ele>835.0</ele>
        <time>2021-08-17T07:14:30Z</time>
        <sat>9</sat>
      </trkpt>
      <trkpt lat="42.339641" lon="-4.707636">
        <ele>835.1</ele>
        <time>2021-08-17T07:14:36Z</time>
        <sat>9</sat>
      </trkpt>
      <trkpt lat="42.339622" lon="-4.707743">
        <ele>835.1</ele>
        <time>2021-08-17T07:14:42Z</time>
        <sat>9</sat>
      </trkpt>
      <trkpt lat="42.339603" lon="-4.707857">
        <ele>835.0</ele>
        <time>2021-08-17T07:14:48Z</time>
        <sat>9</sat>
      </trkpt>
      <trkpt lat="42.339594" lon="-4.707967">
        <ele>834.9</ele>
        <time>2021-08-17T07:14:54Z</time>
        <sat>9</sat>
      </trkpt>
      <trkpt lat="42.339582" lon="-4.708079">
        <ele>834.9</ele>
        <time>2021-08-17T07:15:01Z</time>
        <sat>9</sat>
      </trkpt>
      <trkpt lat="42.339571" lon="-4.708190">
        <ele>834.9</ele>
        <time>2021-08-17T07:15:07Z</time>
        <sat>9</sat>
      </trkpt>
      <trkpt lat="42.339552" lon="-4.708299">
        <ele>834.9</ele>
        <time>2021-08-17T07:15:13Z</time>
        <sat>8</sat>
      </trkpt>
      <trkpt lat="42.339541" lon="-4.708421">
        <ele>834.9</ele>
        <time>2021-08-17T07:15:20Z</time>
        <sat>9</sat>
      </trkpt>
      <trkpt lat="42.339528" lon="-4.708533">
        <ele>834.9</ele>
        <time>2021-08-17T07:15:26Z</time>
        <sat>9</sat>
      </trkpt>
      <trkpt lat="42.339516" lon="-4.708658">
        <ele>834.8</ele>
        <time>2021-08-17T07:15:33Z</time>
        <sat>9</sat>
      </trkpt>
      <trkpt lat="42.339498" lon="-4.708770">
        <ele>834.8</ele>
        <time>2021-08-17T07:15:39Z</time>
        <sat>9</sat>
      </trkpt>
      <trkpt lat="42.339484" lon="-4.708892">
        <ele>834.8</ele>
        <time>2021-08-17T07:15:46Z</time>
        <sat>9</sat>
      </trkpt>
      <trkpt lat="42.339467" lon="-4.709015">
        <ele>834.7</ele>
        <time>2021-08-17T07:15:53Z</time>
        <sat>8</sat>
      </trkpt>
      <trkpt lat="42.339454" lon="-4.709127">
        <ele>834.7</ele>
        <time>2021-08-17T07:15:59Z</time>
        <sat>8</sat>
      </trkpt>
      <trkpt lat="42.339435" lon="-4.709240">
        <ele>834.9</ele>
        <time>2021-08-17T07:16:05Z</time>
        <sat>8</sat>
      </trkpt>
      <trkpt lat="42.339420" lon="-4.709354">
        <ele>834.9</ele>
        <time>2021-08-17T07:16:11Z</time>
        <sat>8</sat>
      </trkpt>
      <trkpt lat="42.339402" lon="-4.709474">
        <ele>834.9</ele>
        <time>2021-08-17T07:16:18Z</time>
        <sat>8</sat>
      </trkpt>
      <trkpt lat="42.339387" lon="-4.709582">
        <ele>834.8</ele>
        <time>2021-08-17T07:16:24Z</time>
        <sat>8</sat>
      </trkpt>
      <trkpt lat="42.339374" lon="-4.709708">
        <ele>834.8</ele>
        <time>2021-08-17T07:16:31Z</time>
        <sat>8</sat>
      </trkpt>
      <trkpt lat="42.339348" lon="-4.709815">
        <ele>834.7</ele>
        <time>2021-08-17T07:16:37Z</time>
        <sat>8</sat>
      </trkpt>
      <trkpt lat="42.339337" lon="-4.709928">
        <ele>834.8</ele>
        <time>2021-08-17T07:16:43Z</time>
        <sat>8</sat>
      </trkpt>
      <trkpt lat="42.339313" lon="-4.710052">
        <ele>834.8</ele>
        <time>2021-08-17T07:16:50Z</time>
        <sat>8</sat>
      </trkpt>
      <trkpt lat="42.339293" lon="-4.710166">
        <ele>834.7</ele>
        <time>2021-08-17T07:16:56Z</time>
        <sat>8</sat>
      </trkpt>
      <trkpt lat="42.339279" lon="-4.710285">
        <ele>834.8</ele>
        <time>2021-08-17T07:17:03Z</time>
        <sat>8</sat>
      </trkpt>
      <trkpt lat="42.339263" lon="-4.710394">
        <ele>834.9</ele>
        <time>2021-08-17T07:17:09Z</time>
        <sat>8</sat>
      </trkpt>
      <trkpt lat="42.339245" lon="-4.710519">
        <ele>834.9</ele>
        <time>2021-08-17T07:17:16Z</time>
        <sat>8</sat>
      </trkpt>
      <trkpt lat="42.339227" lon="-4.710632">
        <ele>835.1</ele>
        <time>2021-08-17T07:17:22Z</time>
        <sat>8</sat>
      </trkpt>
      <trkpt lat="42.339219" lon="-4.710743">
        <ele>835.2</ele>
        <time>2021-08-17T07:17:28Z</time>
        <sat>8</sat>
      </trkpt>
      <trkpt lat="42.339198" lon="-4.710855">
        <ele>835.3</ele>
        <time>2021-08-17T07:17:34Z</time>
        <sat>8</sat>
      </trkpt>
      <trkpt lat="42.339186" lon="-4.710968">
        <ele>835.2</ele>
        <time>2021-08-17T07:17:40Z</time>
        <sat>8</sat>
      </trkpt>
      <trkpt lat="42.339163" lon="-4.711092">
        <ele>835.0</ele>
        <time>2021-08-17T07:17:47Z</time>
        <sat>8</sat>
      </trkpt>
      <trkpt lat="42.339149" lon="-4.711217">
        <ele>834.9</ele>
        <time>2021-08-17T07:17:54Z</time>
        <sat>8</sat>
      </trkpt>
      <trkpt lat="42.339129" lon="-4.711341">
        <ele>835.0</ele>
        <time>2021-08-17T07:18:01Z</time>
        <sat>8</sat>
      </trkpt>
      <trkpt lat="42.339117" lon="-4.711450">
        <ele>835.0</ele>
        <time>2021-08-17T07:18:07Z</time>
        <sat>8</sat>
      </trkpt>
      <trkpt lat="42.339098" lon="-4.711573">
        <ele>835.1</ele>
        <time>2021-08-17T07:18:14Z</time>
        <sat>8</sat>
      </trkpt>
      <trkpt lat="42.339082" lon="-4.711686">
        <ele>835.1</ele>
        <time>2021-08-17T07:18:20Z</time>
        <sat>8</sat>
      </trkpt>
      <trkpt lat="42.339070" lon="-4.711814">
        <ele>835.1</ele>
        <time>2021-08-17T07:18:27Z</time>
        <sat>8</sat>
      </trkpt>
      <trkpt lat="42.339050" lon="-4.711924">
        <ele>835.2</ele>
        <time>2021-08-17T07:18:33Z</time>
        <sat>8</sat>
      </trkpt>
      <trkpt lat="42.339039" lon="-4.712051">
        <ele>835.2</ele>
        <time>2021-08-17T07:18:40Z</time>
        <sat>8</sat>
      </trkpt>
      <trkpt lat="42.339018" lon="-4.712164">
        <ele>835.1</ele>
        <time>2021-08-17T07:18:46Z</time>
        <sat>8</sat>
      </trkpt>
      <trkpt lat="42.339007" lon="-4.712280">
        <ele>835.1</ele>
        <time>2021-08-17T07:18:52Z</time>
        <sat>8</sat>
      </trkpt>
      <trkpt lat="42.338985" lon="-4.712405">
        <ele>835.1</ele>
        <time>2021-08-17T07:18:59Z</time>
        <sat>8</sat>
      </trkpt>
      <trkpt lat="42.338963" lon="-4.712522">
        <ele>835.0</ele>
        <time>2021-08-17T07:19:05Z</time>
        <sat>8</sat>
      </trkpt>
      <trkpt lat="42.338955" lon="-4.712635">
        <ele>835.1</ele>
        <time>2021-08-17T07:19:11Z</time>
        <sat>8</sat>
      </trkpt>
      <trkpt lat="42.338935" lon="-4.712744">
        <ele>835.1</ele>
        <time>2021-08-17T07:19:17Z</time>
        <sat>8</sat>
      </trkpt>
      <trkpt lat="42.338914" lon="-4.712860">
        <ele>835.3</ele>
        <time>2021-08-17T07:19:23Z</time>
        <sat>8</sat>
      </trkpt>
      <trkpt lat="42.338899" lon="-4.712986">
        <ele>835.4</ele>
        <time>2021-08-17T07:19:30Z</time>
        <sat>8</sat>
      </trkpt>
      <trkpt lat="42.338880" lon="-4.713096">
        <ele>835.5</ele>
        <time>2021-08-17T07:19:36Z</time>
        <sat>8</sat>
      </trkpt>
      <trkpt lat="42.338861" lon="-4.713217">
        <ele>835.5</ele>
        <time>2021-08-17T07:19:43Z</time>
        <sat>8</sat>
      </trkpt>
      <trkpt lat="42.338846" lon="-4.713333">
        <ele>835.5</ele>
        <time>2021-08-17T07:19:49Z</time>
        <sat>8</sat>
      </trkpt>
      <trkpt lat="42.338834" lon="-4.713447">
        <ele>835.4</ele>
        <time>2021-08-17T07:19:56Z</time>
        <sat>8</sat>
      </trkpt>
      <trkpt lat="42.338817" lon="-4.713565">
        <ele>835.5</ele>
        <time>2021-08-17T07:20:03Z</time>
        <sat>8</sat>
      </trkpt>
      <trkpt lat="42.338798" lon="-4.713672">
        <ele>835.5</ele>
        <time>2021-08-17T07:20:09Z</time>
        <sat>8</sat>
      </trkpt>
      <trkpt lat="42.338775" lon="-4.713794">
        <ele>835.5</ele>
        <time>2021-08-17T07:20:16Z</time>
        <sat>8</sat>
      </trkpt>
      <trkpt lat="42.338762" lon="-4.713909">
        <ele>835.5</ele>
        <time>2021-08-17T07:20:22Z</time>
        <sat>8</sat>
      </trkpt>
      <trkpt lat="42.338741" lon="-4.714034">
        <ele>835.4</ele>
        <time>2021-08-17T07:20:29Z</time>
        <sat>8</sat>
      </trkpt>
      <trkpt lat="42.338726" lon="-4.714147">
        <ele>835.4</ele>
        <time>2021-08-17T07:20:35Z</time>
        <sat>8</sat>
      </trkpt>
      <trkpt lat="42.338706" lon="-4.714270">
        <ele>835.4</ele>
        <time>2021-08-17T07:20:42Z</time>
        <sat>8</sat>
      </trkpt>
      <trkpt lat="42.338690" lon="-4.714383">
        <ele>835.6</ele>
        <time>2021-08-17T07:20:48Z</time>
        <sat>8</sat>
      </trkpt>
      <trkpt lat="42.338680" lon="-4.714504">
        <ele>835.7</ele>
        <time>2021-08-17T07:20:55Z</time>
        <sat>8</sat>
      </trkpt>
      <trkpt lat="42.338657" lon="-4.714613">
        <ele>835.7</ele>
        <time>2021-08-17T07:21:01Z</time>
        <sat>8</sat>
      </trkpt>
      <trkpt lat="42.338647" lon="-4.714738">
        <ele>835.8</ele>
        <time>2021-08-17T07:21:08Z</time>
        <sat>8</sat>
      </trkpt>
      <trkpt lat="42.338623" lon="-4.714849">
        <ele>835.8</ele>
        <time>2021-08-17T07:21:14Z</time>
        <sat>8</sat>
      </trkpt>
      <trkpt lat="42.338614" lon="-4.714962">
        <ele>835.8</ele>
        <time>2021-08-17T07:21:20Z</time>
        <sat>8</sat>
      </trkpt>
      <trkpt lat="42.338594" lon="-4.715069">
        <ele>835.8</ele>
        <time>2021-08-17T07:21:26Z</time>
        <sat>8</sat>
      </trkpt>
      <trkpt lat="42.338572" lon="-4.715185">
        <ele>835.9</ele>
        <time>2021-08-17T07:21:32Z</time>
        <sat>8</sat>
      </trkpt>
      <trkpt lat="42.338565" lon="-4.715297">
        <ele>835.8</ele>
        <time>2021-08-17T07:21:38Z</time>
        <sat>8</sat>
      </trkpt>
      <trkpt lat="42.338542" lon="-4.715409">
        <ele>835.7</ele>
        <time>2021-08-17T07:21:44Z</time>
        <sat>8</sat>
      </trkpt>
      <trkpt lat="42.338528" lon="-4.715525">
        <ele>835.7</ele>
        <time>2021-08-17T07:21:50Z</time>
        <sat>8</sat>
      </trkpt>
      <trkpt lat="42.338517" lon="-4.715634">
        <ele>835.8</ele>
        <time>2021-08-17T07:21:56Z</time>
        <sat>8</sat>
      </trkpt>
      <trkpt lat="42.338489" lon="-4.715741">
        <ele>836.0</ele>
        <time>2021-08-17T07:22:02Z</time>
        <sat>8</sat>
      </trkpt>
      <trkpt lat="42.338475" lon="-4.715853">
        <ele>836.1</ele>
        <time>2021-08-17T07:22:08Z</time>
        <sat>8</sat>
      </trkpt>
      <trkpt lat="42.338459" lon="-4.715978">
        <ele>836.2</ele>
        <time>2021-08-17T07:22:15Z</time>
        <sat>8</sat>
      </trkpt>
      <trkpt lat="42.338438" lon="-4.716103">
        <ele>836.2</ele>
        <time>2021-08-17T07:22:22Z</time>
        <sat>8</sat>
      </trkpt>
      <trkpt lat="42.338422" lon="-4.716227">
        <ele>836.1</ele>
        <time>2021-08-17T07:22:29Z</time>
        <sat>8</sat>
      </trkpt>
      <trkpt lat="42.338402" lon="-4.716354">
        <ele>836.0</ele>
        <time>2021-08-17T07:22:36Z</time>
        <sat>8</sat>
      </trkpt>
      <trkpt lat="42.338386" lon="-4.716470">
        <ele>836.0</ele>
        <time>2021-08-17T07:22:43Z</time>
        <sat>8</sat>
      </trkpt>
      <trkpt lat="42.338371" lon="-4.716592">
        <ele>836.1</ele>
        <time>2021-08-17T07:22:50Z</time>
        <sat>8</sat>
      </trkpt>
      <trkpt lat="42.338359" lon="-4.716703">
        <ele>836.0</ele>
        <time>2021-08-17T07:22:56Z</time>
        <sat>8</sat>
      </trkpt>
      <trkpt lat="42.338340" lon="-4.716819">
        <ele>835.9</ele>
        <time>2021-08-17T07:23:03Z</time>
        <sat>8</sat>
      </trkpt>
      <trkpt lat="42.338324" lon="-4.716931">
        <ele>835.9</ele>
        <time>2021-08-17T07:23:09Z</time>
        <sat>8</sat>
      </trkpt>
      <trkpt lat="42.338302" lon="-4.717056">
        <ele>835.9</ele>
        <time>2021-08-17T07:23:16Z</time>
        <sat>8</sat>
      </trkpt>
      <trkpt lat="42.338289" lon="-4.717165">
        <ele>835.9</ele>
        <time>2021-08-17T07:23:22Z</time>
        <sat>8</sat>
      </trkpt>
      <trkpt lat="42.338271" lon="-4.717288">
        <ele>835.9</ele>
        <time>2021-08-17T07:23:29Z</time>
        <sat>8</sat>
      </trkpt>
      <trkpt lat="42.338261" lon="-4.717399">
        <ele>835.9</ele>
        <time>2021-08-17T07:23:35Z</time>
        <sat>8</sat>
      </trkpt>
      <trkpt lat="42.338240" lon="-4.717520">
        <ele>836.0</ele>
        <time>2021-08-17T07:23:42Z</time>
        <sat>8</sat>
      </trkpt>
      <trkpt lat="42.338232" lon="-4.717632">
        <ele>836.1</ele>
        <time>2021-08-17T07:23:48Z</time>
        <sat>8</sat>
      </trkpt>
      <trkpt lat="42.338214" lon="-4.717742">
        <ele>836.1</ele>
        <time>2021-08-17T07:23:54Z</time>
        <sat>8</sat>
      </trkpt>
      <trkpt lat="42.338197" lon="-4.717851">
        <ele>836.1</ele>
        <time>2021-08-17T07:24:00Z</time>
        <sat>8</sat>
      </trkpt>
      <trkpt lat="42.338180" lon="-4.717976">
        <ele>836.2</ele>
        <time>2021-08-17T07:24:07Z</time>
        <sat>8</sat>
      </trkpt>
      <trkpt lat="42.338165" lon="-4.718086">
        <ele>836.2</ele>
        <time>2021-08-17T07:24:13Z</time>
        <sat>8</sat>
      </trkpt>
      <trkpt lat="42.338144" lon="-4.718209">
        <ele>836.3</ele>
        <time>2021-08-17T07:24:20Z</time>
        <sat>8</sat>
      </trkpt>
      <trkpt lat="42.338122" lon="-4.718315">
        <ele>836.4</ele>
        <time>2021-08-17T07:24:26Z</time>
        <sat>8</sat>
      </trkpt>
      <trkpt lat="42.338104" lon="-4.718436">
        <ele>836.4</ele>
        <time>2021-08-17T07:24:33Z</time>
        <sat>8</sat>
      </trkpt>
      <trkpt lat="42.338092" lon="-4.718545">
        <ele>836.3</ele>
        <time>2021-08-17T07:24:39Z</time>
        <sat>8</sat>
      </trkpt>
      <trkpt lat="42.338068" lon="-4.718664">
        <ele>836.3</ele>
        <time>2021-08-17T07:24:46Z</time>
        <sat>8</sat>
      </trkpt>
      <trkpt lat="42.338057" lon="-4.718789">
        <ele>836.3</ele>
        <time>2021-08-17T07:24:53Z</time>
        <sat>8</sat>
      </trkpt>
      <trkpt lat="42.338040" lon="-4.718911">
        <ele>836.3</ele>
        <time>2021-08-17T07:25:00Z</time>
        <sat>8</sat>
      </trkpt>
      <trkpt lat="42.338029" lon="-4.719027">
        <ele>836.1</ele>
        <time>2021-08-17T07:25:06Z</time>
        <sat>8</sat>
      </trkpt>
      <trkpt lat="42.338022" lon="-4.719137">
        <ele>836.0</ele>
        <time>2021-08-17T07:25:12Z</time>
        <sat>8</sat>
      </trkpt>
      <trkpt lat="42.338007" lon="-4.719245">
        <ele>835.9</ele>
        <time>2021-08-17T07:25:18Z</time>
        <sat>8</sat>
      </trkpt>
      <trkpt lat="42.337999" lon="-4.719356">
        <ele>835.8</ele>
        <time>2021-08-17T07:25:24Z</time>
        <sat>8</sat>
      </trkpt>
      <trkpt lat="42.337978" lon="-4.719478">
        <ele>835.7</ele>
        <time>2021-08-17T07:25:31Z</time>
        <sat>8</sat>
      </trkpt>
      <trkpt lat="42.337949" lon="-4.719590">
        <ele>835.5</ele>
        <time>2021-08-17T07:25:38Z</time>
        <sat>8</sat>
      </trkpt>
      <trkpt lat="42.337928" lon="-4.719706">
        <ele>835.3</ele>
        <time>2021-08-17T07:25:45Z</time>
        <sat>8</sat>
      </trkpt>
      <trkpt lat="42.337911" lon="-4.719825">
        <ele>835.3</ele>
        <time>2021-08-17T07:25:52Z</time>
        <sat>8</sat>
      </trkpt>
      <trkpt lat="42.337894" lon="-4.719933">
        <ele>835.5</ele>
        <time>2021-08-17T07:25:59Z</time>
        <sat>8</sat>
      </trkpt>
      <trkpt lat="42.337883" lon="-4.720056">
        <ele>835.6</ele>
        <time>2021-08-17T07:26:06Z</time>
        <sat>8</sat>
      </trkpt>
      <trkpt lat="42.337867" lon="-4.720165">
        <ele>835.6</ele>
        <time>2021-08-17T07:26:12Z</time>
        <sat>8</sat>
      </trkpt>
      <trkpt lat="42.337846" lon="-4.720281">
        <ele>835.8</ele>
        <time>2021-08-17T07:26:19Z</time>
        <sat>8</sat>
      </trkpt>
      <trkpt lat="42.337838" lon="-4.720401">
        <ele>835.8</ele>
        <time>2021-08-17T07:26:26Z</time>
        <sat>8</sat>
      </trkpt>
      <trkpt lat="42.337820" lon="-4.720518">
        <ele>835.8</ele>
        <time>2021-08-17T07:26:33Z</time>
        <sat>8</sat>
      </trkpt>
      <trkpt lat="42.337799" lon="-4.720636">
        <ele>835.9</ele>
        <time>2021-08-17T07:26:40Z</time>
        <sat>8</sat>
      </trkpt>
      <trkpt lat="42.337784" lon="-4.720755">
        <ele>835.9</ele>
        <time>2021-08-17T07:26:47Z</time>
        <sat>8</sat>
      </trkpt>
      <trkpt lat="42.337775" lon="-4.720879">
        <ele>836.0</ele>
        <time>2021-08-17T07:26:54Z</time>
        <sat>8</sat>
      </trkpt>
      <trkpt lat="42.337755" lon="-4.720994">
        <ele>836.0</ele>
        <time>2021-08-17T07:27:01Z</time>
        <sat>8</sat>
      </trkpt>
      <trkpt lat="42.337732" lon="-4.721108">
        <ele>836.1</ele>
        <time>2021-08-17T07:27:08Z</time>
        <sat>9</sat>
      </trkpt>
      <trkpt lat="42.337718" lon="-4.721224">
        <ele>836.1</ele>
        <time>2021-08-17T07:27:15Z</time>
        <sat>8</sat>
      </trkpt>
      <trkpt lat="42.337706" lon="-4.721343">
        <ele>836.0</ele>
        <time>2021-08-17T07:27:22Z</time>
        <sat>9</sat>
      </trkpt>
      <trkpt lat="42.337686" lon="-4.721450">
        <ele>836.0</ele>
        <time>2021-08-17T07:27:28Z</time>
        <sat>9</sat>
      </trkpt>
      <trkpt lat="42.337666" lon="-4.721574">
        <ele>835.8</ele>
        <time>2021-08-17T07:27:35Z</time>
        <sat>9</sat>
      </trkpt>
      <trkpt lat="42.337650" lon="-4.721686">
        <ele>835.9</ele>
        <time>2021-08-17T07:27:41Z</time>
        <sat>9</sat>
      </trkpt>
      <trkpt lat="42.337630" lon="-4.721809">
        <ele>835.9</ele>
        <time>2021-08-17T07:27:48Z</time>
        <sat>9</sat>
      </trkpt>
      <trkpt lat="42.337617" lon="-4.721923">
        <ele>836.0</ele>
        <time>2021-08-17T07:27:54Z</time>
        <sat>9</sat>
      </trkpt>
      <trkpt lat="42.337598" lon="-4.722044">
        <ele>836.0</ele>
        <time>2021-08-17T07:28:01Z</time>
        <sat>9</sat>
      </trkpt>
      <trkpt lat="42.337579" lon="-4.722153">
        <ele>835.9</ele>
        <time>2021-08-17T07:28:07Z</time>
        <sat>9</sat>
      </trkpt>
      <trkpt lat="42.337563" lon="-4.722279">
        <ele>835.8</ele>
        <time>2021-08-17T07:28:14Z</time>
        <sat>9</sat>
      </trkpt>
      <trkpt lat="42.337550" lon="-4.722392">
        <ele>836.1</ele>
        <time>2021-08-17T07:28:20Z</time>
        <sat>9</sat>
      </trkpt>
      <trkpt lat="42.337537" lon="-4.722516">
        <ele>836.1</ele>
        <time>2021-08-17T07:28:27Z</time>
        <sat>9</sat>
      </trkpt>
      <trkpt lat="42.337507" lon="-4.722627">
        <ele>835.9</ele>
        <time>2021-08-17T07:28:34Z</time>
        <sat>8</sat>
      </trkpt>
      <trkpt lat="42.337480" lon="-4.722731">
        <ele>835.8</ele>
        <time>2021-08-17T07:28:40Z</time>
        <sat>9</sat>
      </trkpt>
      <trkpt lat="42.337463" lon="-4.722841">
        <ele>835.8</ele>
        <time>2021-08-17T07:28:46Z</time>
        <sat>9</sat>
      </trkpt>
      <trkpt lat="42.337441" lon="-4.722966">
        <ele>835.8</ele>
        <time>2021-08-17T07:28:53Z</time>
        <sat>9</sat>
      </trkpt>
      <trkpt lat="42.337422" lon="-4.723082">
        <ele>835.9</ele>
        <time>2021-08-17T07:28:59Z</time>
        <sat>9</sat>
      </trkpt>
      <trkpt lat="42.337407" lon="-4.723194">
        <ele>836.0</ele>
        <time>2021-08-17T07:29:05Z</time>
        <sat>9</sat>
      </trkpt>
      <trkpt lat="42.337386" lon="-4.723306">
        <ele>836.0</ele>
        <time>2021-08-17T07:29:11Z</time>
        <sat>9</sat>
      </trkpt>
      <trkpt lat="42.337371" lon="-4.723415">
        <ele>836.2</ele>
        <time>2021-08-17T07:29:17Z</time>
        <sat>9</sat>
      </trkpt>
      <trkpt lat="42.337349" lon="-4.723522">
        <ele>836.2</ele>
        <time>2021-08-17T07:29:23Z</time>
        <sat>9</sat>
      </trkpt>
      <trkpt lat="42.337337" lon="-4.723646">
        <ele>836.2</ele>
        <time>2021-08-17T07:29:30Z</time>
        <sat>9</sat>
      </trkpt>
      <trkpt lat="42.337314" lon="-4.723764">
        <ele>836.3</ele>
        <time>2021-08-17T07:29:37Z</time>
        <sat>9</sat>
      </trkpt>
      <trkpt lat="42.337298" lon="-4.723885">
        <ele>836.4</ele>
        <time>2021-08-17T07:29:44Z</time>
        <sat>9</sat>
      </trkpt>
      <trkpt lat="42.337282" lon="-4.724010">
        <ele>836.3</ele>
        <time>2021-08-17T07:29:51Z</time>
        <sat>9</sat>
      </trkpt>
      <trkpt lat="42.337263" lon="-4.724127">
        <ele>836.3</ele>
        <time>2021-08-17T07:29:58Z</time>
        <sat>9</sat>
      </trkpt>
      <trkpt lat="42.337245" lon="-4.724247">
        <ele>836.3</ele>
        <time>2021-08-17T07:30:05Z</time>
        <sat>9</sat>
      </trkpt>
      <trkpt lat="42.337232" lon="-4.724369">
        <ele>836.2</ele>
        <time>2021-08-17T07:30:12Z</time>
        <sat>9</sat>
      </trkpt>
      <trkpt lat="42.337218" lon="-4.724477">
        <ele>836.2</ele>
        <time>2021-08-17T07:30:18Z</time>
        <sat>9</sat>
      </trkpt>
      <trkpt lat="42.337205" lon="-4.724586">
        <ele>836.2</ele>
        <time>2021-08-17T07:30:24Z</time>
        <sat>9</sat>
      </trkpt>
      <trkpt lat="42.337184" lon="-4.724706">
        <ele>836.3</ele>
        <time>2021-08-17T07:30:31Z</time>
        <sat>9</sat>
      </trkpt>
      <trkpt lat="42.337167" lon="-4.724826">
        <ele>836.3</ele>
        <time>2021-08-17T07:30:38Z</time>
        <sat>9</sat>
      </trkpt>
      <trkpt lat="42.337148" lon="-4.724937">
        <ele>836.3</ele>
        <time>2021-08-17T07:30:44Z</time>
        <sat>9</sat>
      </trkpt>
      <trkpt lat="42.337138" lon="-4.725049">
        <ele>836.3</ele>
        <time>2021-08-17T07:30:50Z</time>
        <sat>9</sat>
      </trkpt>
      <trkpt lat="42.337117" lon="-4.725156">
        <ele>836.0</ele>
        <time>2021-08-17T07:30:56Z</time>
        <sat>9</sat>
      </trkpt>
      <trkpt lat="42.337098" lon="-4.725267">
        <ele>835.9</ele>
        <time>2021-08-17T07:31:02Z</time>
        <sat>9</sat>
      </trkpt>
      <trkpt lat="42.337077" lon="-4.725388">
        <ele>835.8</ele>
        <time>2021-08-17T07:31:09Z</time>
        <sat>9</sat>
      </trkpt>
      <trkpt lat="42.337058" lon="-4.725498">
        <ele>835.7</ele>
        <time>2021-08-17T07:31:15Z</time>
        <sat>9</sat>
      </trkpt>
      <trkpt lat="42.337043" lon="-4.725625">
        <ele>835.6</ele>
        <time>2021-08-17T07:31:22Z</time>
        <sat>9</sat>
      </trkpt>
      <trkpt lat="42.337025" lon="-4.725733">
        <ele>835.7</ele>
        <time>2021-08-17T07:31:28Z</time>
        <sat>9</sat>
      </trkpt>
      <trkpt lat="42.337012" lon="-4.725859">
        <ele>835.6</ele>
        <time>2021-08-17T07:31:35Z</time>
        <sat>9</sat>
      </trkpt>
      <trkpt lat="42.336992" lon="-4.725969">
        <ele>835.7</ele>
        <time>2021-08-17T07:31:41Z</time>
        <sat>9</sat>
      </trkpt>
      <trkpt lat="42.336972" lon="-4.726094">
        <ele>835.8</ele>
        <time>2021-08-17T07:31:48Z</time>
        <sat>9</sat>
      </trkpt>
      <trkpt lat="42.336955" lon="-4.726201">
        <ele>835.8</ele>
        <time>2021-08-17T07:31:54Z</time>
        <sat>9</sat>
      </trkpt>
      <trkpt lat="42.336939" lon="-4.726309">
        <ele>835.8</ele>
        <time>2021-08-17T07:32:00Z</time>
        <sat>9</sat>
      </trkpt>
      <trkpt lat="42.336919" lon="-4.726417">
        <ele>835.8</ele>
        <time>2021-08-17T07:32:06Z</time>
        <sat>9</sat>
      </trkpt>
      <trkpt lat="42.336907" lon="-4.726527">
        <ele>835.7</ele>
        <time>2021-08-17T07:32:12Z</time>
        <sat>9</sat>
      </trkpt>
      <trkpt lat="42.336885" lon="-4.726636">
        <ele>835.6</ele>
        <time>2021-08-17T07:32:18Z</time>
        <sat>9</sat>
      </trkpt>
      <trkpt lat="42.336876" lon="-4.726754">
        <ele>835.7</ele>
        <time>2021-08-17T07:32:24Z</time>
        <sat>9</sat>
      </trkpt>
      <trkpt lat="42.336854" lon="-4.726860">
        <ele>835.5</ele>
        <time>2021-08-17T07:32:30Z</time>
        <sat>9</sat>
      </trkpt>
      <trkpt lat="42.336841" lon="-4.726975">
        <ele>835.5</ele>
        <time>2021-08-17T07:32:36Z</time>
        <sat>9</sat>
      </trkpt>
      <trkpt lat="42.336821" lon="-4.727097">
        <ele>835.4</ele>
        <time>2021-08-17T07:32:43Z</time>
        <sat>9</sat>
      </trkpt>
      <trkpt lat="42.336803" lon="-4.727207">
        <ele>835.6</ele>
        <time>2021-08-17T07:32:49Z</time>
        <sat>9</sat>
      </trkpt>
      <trkpt lat="42.336787" lon="-4.727334">
        <ele>835.8</ele>
        <time>2021-08-17T07:32:56Z</time>
        <sat>9</sat>
      </trkpt>
      <trkpt lat="42.336770" lon="-4.727459">
        <ele>836.1</ele>
        <time>2021-08-17T07:33:03Z</time>
        <sat>9</sat>
      </trkpt>
      <trkpt lat="42.336750" lon="-4.727580">
        <ele>836.4</ele>
        <time>2021-08-17T07:33:10Z</time>
        <sat>9</sat>
      </trkpt>
      <trkpt lat="42.336730" lon="-4.727699">
        <ele>836.7</ele>
        <time>2021-08-17T07:33:17Z</time>
        <sat>9</sat>
      </trkpt>
      <trkpt lat="42.336718" lon="-4.727824">
        <ele>837.0</ele>
        <time>2021-08-17T07:33:24Z</time>
        <sat>9</sat>
      </trkpt>
      <trkpt lat="42.336701" lon="-4.727947">
        <ele>837.4</ele>
        <time>2021-08-17T07:33:31Z</time>
        <sat>9</sat>
      </trkpt>
      <trkpt lat="42.336684" lon="-4.728066">
        <ele>837.3</ele>
        <time>2021-08-17T07:33:38Z</time>
        <sat>9</sat>
      </trkpt>
      <trkpt lat="42.336671" lon="-4.728185">
        <ele>837.3</ele>
        <time>2021-08-17T07:33:45Z</time>
        <sat>9</sat>
      </trkpt>
      <trkpt lat="42.336648" lon="-4.728307">
        <ele>837.1</ele>
        <time>2021-08-17T07:33:52Z</time>
        <sat>9</sat>
      </trkpt>
      <trkpt lat="42.336633" lon="-4.728425">
        <ele>837.1</ele>
        <time>2021-08-17T07:33:59Z</time>
        <sat>9</sat>
      </trkpt>
      <trkpt lat="42.336618" lon="-4.728538">
        <ele>837.1</ele>
        <time>2021-08-17T07:34:06Z</time>
        <sat>9</sat>
      </trkpt>
      <trkpt lat="42.336601" lon="-4.728656">
        <ele>837.1</ele>
        <time>2021-08-17T07:34:13Z</time>
        <sat>9</sat>
      </trkpt>
      <trkpt lat="42.336578" lon="-4.728771">
        <ele>836.8</ele>
        <time>2021-08-17T07:34:20Z</time>
        <sat>9</sat>
      </trkpt>
      <trkpt lat="42.336565" lon="-4.728890">
        <ele>836.6</ele>
        <time>2021-08-17T07:34:27Z</time>
        <sat>9</sat>
      </trkpt>
      <trkpt lat="42.336543" lon="-4.729009">
        <ele>836.5</ele>
        <time>2021-08-17T07:34:34Z</time>
        <sat>9</sat>
      </trkpt>
      <trkpt lat="42.336526" lon="-4.729123">
        <ele>836.7</ele>
        <time>2021-08-17T07:34:41Z</time>
        <sat>9</sat>
      </trkpt>
      <trkpt lat="42.336507" lon="-4.729235">
        <ele>836.8</ele>
        <time>2021-08-17T07:34:48Z</time>
        <sat>9</sat>
      </trkpt>
      <trkpt lat="42.336495" lon="-4.729351">
        <ele>836.8</ele>
        <time>2021-08-17T07:34:55Z</time>
        <sat>9</sat>
      </trkpt>
      <trkpt lat="42.336480" lon="-4.729470">
        <ele>836.8</ele>
        <time>2021-08-17T07:35:02Z</time>
        <sat>9</sat>
      </trkpt>
      <trkpt lat="42.336475" lon="-4.729588">
        <ele>836.8</ele>
        <time>2021-08-17T07:35:13Z</time>
        <sat>9</sat>
      </trkpt>
      <trkpt lat="42.336504" lon="-4.729692">
        <ele>837.0</ele>
        <time>2021-08-17T07:35:42Z</time>
        <sat>9</sat>
      </trkpt>
      <trkpt lat="42.336508" lon="-4.729692">
        <ele>837.0</ele>
        <time>2021-08-17T07:39:34Z</time>
        <sat>9</sat>
      </trkpt>
      <trkpt lat="42.336474" lon="-4.729805">
        <ele>836.7</ele>
        <time>2021-08-17T07:39:49Z</time>
        <sat>9</sat>
      </trkpt>
      <trkpt lat="42.336459" lon="-4.729919">
        <ele>836.7</ele>
        <time>2021-08-17T07:39:59Z</time>
        <sat>9</sat>
      </trkpt>
      <trkpt lat="42.336431" lon="-4.730035">
        <ele>836.9</ele>
        <time>2021-08-17T07:40:08Z</time>
        <sat>9</sat>
      </trkpt>
      <trkpt lat="42.336410" lon="-4.730153">
        <ele>837.0</ele>
        <time>2021-08-17T07:40:16Z</time>
        <sat>9</sat>
      </trkpt>
      <trkpt lat="42.336393" lon="-4.730260">
        <ele>837.1</ele>
        <time>2021-08-17T07:40:23Z</time>
        <sat>9</sat>
      </trkpt>
      <trkpt lat="42.336375" lon="-4.730367">
        <ele>837.2</ele>
        <time>2021-08-17T07:40:31Z</time>
        <sat>9</sat>
      </trkpt>
      <trkpt lat="42.336369" lon="-4.730478">
        <ele>837.4</ele>
        <time>2021-08-17T07:40:39Z</time>
        <sat>9</sat>
      </trkpt>
      <trkpt lat="42.336388" lon="-4.730585">
        <ele>836.5</ele>
        <time>2021-08-17T07:41:16Z</time>
        <sat>9</sat>
      </trkpt>
      <trkpt lat="42.336333" lon="-4.730671">
        <ele>837.3</ele>
        <time>2021-08-17T07:44:00Z</time>
        <sat>9</sat>
      </trkpt>
      <trkpt lat="42.336312" lon="-4.730785">
        <ele>837.2</ele>
        <time>2021-08-17T07:44:08Z</time>
        <sat>9</sat>
      </trkpt>
      <trkpt lat="42.336290" lon="-4.730904">
        <ele>837.2</ele>
        <time>2021-08-17T07:44:16Z</time>
        <sat>9</sat>
      </trkpt>
      <trkpt lat="42.336271" lon="-4.731021">
        <ele>836.4</ele>
        <time>2021-08-17T07:44:24Z</time>
        <sat>9</sat>
      </trkpt>
      <trkpt lat="42.336261" lon="-4.731141">
        <ele>838.5</ele>
        <time>2021-08-17T07:44:33Z</time>
        <sat>9</sat>
      </trkpt>
      <trkpt lat="42.336240" lon="-4.731255">
        <ele>837.7</ele>
        <time>2021-08-17T07:44:41Z</time>
        <sat>9</sat>
      </trkpt>
      <trkpt lat="42.336219" lon="-4.731378">
        <ele>837.0</ele>
        <time>2021-08-17T07:44:49Z</time>
        <sat>9</sat>
      </trkpt>
      <trkpt lat="42.336198" lon="-4.731488">
        <ele>838.7</ele>
        <time>2021-08-17T07:44:56Z</time>
        <sat>9</sat>
      </trkpt>
      <trkpt lat="42.336177" lon="-4.731596">
        <ele>838.6</ele>
        <time>2021-08-17T07:45:03Z</time>
        <sat>9</sat>
      </trkpt>
      <trkpt lat="42.336161" lon="-4.731715">
        <ele>838.4</ele>
        <time>2021-08-17T07:45:10Z</time>
        <sat>9</sat>
      </trkpt>
      <trkpt lat="42.336138" lon="-4.731838">
        <ele>838.4</ele>
        <time>2021-08-17T07:45:17Z</time>
        <sat>9</sat>
      </trkpt>
      <trkpt lat="42.336124" lon="-4.731957">
        <ele>838.4</ele>
        <time>2021-08-17T07:45:24Z</time>
        <sat>9</sat>
      </trkpt>
      <trkpt lat="42.336107" lon="-4.732071">
        <ele>838.4</ele>
        <time>2021-08-17T07:45:31Z</time>
        <sat>9</sat>
      </trkpt>
      <trkpt lat="42.336092" lon="-4.732188">
        <ele>838.2</ele>
        <time>2021-08-17T07:45:38Z</time>
        <sat>9</sat>
      </trkpt>
      <trkpt lat="42.336076" lon="-4.732310">
        <ele>838.2</ele>
        <time>2021-08-17T07:45:45Z</time>
        <sat>9</sat>
      </trkpt>
      <trkpt lat="42.336052" lon="-4.732427">
        <ele>838.2</ele>
        <time>2021-08-17T07:45:52Z</time>
        <sat>9</sat>
      </trkpt>
      <trkpt lat="42.336039" lon="-4.732549">
        <ele>838.1</ele>
        <time>2021-08-17T07:45:59Z</time>
        <sat>9</sat>
      </trkpt>
      <trkpt lat="42.336010" lon="-4.732670">
        <ele>838.1</ele>
        <time>2021-08-17T07:46:06Z</time>
        <sat>9</sat>
      </trkpt>
      <trkpt lat="42.335999" lon="-4.732781">
        <ele>838.1</ele>
        <time>2021-08-17T07:46:12Z</time>
        <sat>9</sat>
      </trkpt>
      <trkpt lat="42.335981" lon="-4.732905">
        <ele>838.2</ele>
        <time>2021-08-17T07:46:19Z</time>
        <sat>9</sat>
      </trkpt>
      <trkpt lat="42.335961" lon="-4.733013">
        <ele>838.2</ele>
        <time>2021-08-17T07:46:25Z</time>
        <sat>9</sat>
      </trkpt>
      <trkpt lat="42.335945" lon="-4.733133">
        <ele>838.4</ele>
        <time>2021-08-17T07:46:32Z</time>
        <sat>9</sat>
      </trkpt>
      <trkpt lat="42.335928" lon="-4.733250">
        <ele>838.3</ele>
        <time>2021-08-17T07:46:39Z</time>
        <sat>9</sat>
      </trkpt>
      <trkpt lat="42.335903" lon="-4.733371">
        <ele>838.3</ele>
        <time>2021-08-17T07:46:46Z</time>
        <sat>9</sat>
      </trkpt>
      <trkpt lat="42.335891" lon="-4.733492">
        <ele>838.4</ele>
        <time>2021-08-17T07:46:53Z</time>
        <sat>9</sat>
      </trkpt>
      <trkpt lat="42.335868" lon="-4.733598">
        <ele>838.6</ele>
        <time>2021-08-17T07:46:59Z</time>
        <sat>9</sat>
      </trkpt>
      <trkpt lat="42.335855" lon="-4.733720">
        <ele>839.0</ele>
        <time>2021-08-17T07:47:06Z</time>
        <sat>9</sat>
      </trkpt>
      <trkpt lat="42.335833" lon="-4.733829">
        <ele>839.1</ele>
        <time>2021-08-17T07:47:12Z</time>
        <sat>9</sat>
      </trkpt>
      <trkpt lat="42.335822" lon="-4.733951">
        <ele>839.2</ele>
        <time>2021-08-17T07:47:19Z</time>
        <sat>9</sat>
      </trkpt>
      <trkpt lat="42.335797" lon="-4.734057">
        <ele>839.2</ele>
        <time>2021-08-17T07:47:25Z</time>
        <sat>9</sat>
      </trkpt>
      <trkpt lat="42.335782" lon="-4.734181">
        <ele>839.4</ele>
        <time>2021-08-17T07:47:32Z</time>
        <sat>9</sat>
      </trkpt>
      <trkpt lat="42.335765" lon="-4.734304">
        <ele>839.4</ele>
        <time>2021-08-17T07:47:39Z</time>
        <sat>9</sat>
      </trkpt>
      <trkpt lat="42.335763" lon="-4.734420">
        <ele>839.5</ele>
        <time>2021-08-17T07:47:45Z</time>
        <sat>9</sat>
      </trkpt>
      <trkpt lat="42.335735" lon="-4.734538">
        <ele>839.5</ele>
        <time>2021-08-17T07:47:52Z</time>
        <sat>9</sat>
      </trkpt>
      <trkpt lat="42.335711" lon="-4.734649">
        <ele>839.9</ele>
        <time>2021-08-17T07:48:10Z</time>
        <sat>9</sat>
      </trkpt>
      <trkpt lat="42.335688" lon="-4.734758">
        <ele>840.1</ele>
        <time>2021-08-17T07:48:27Z</time>
        <sat>9</sat>
      </trkpt>
      <trkpt lat="42.335666" lon="-4.734869">
        <ele>839.9</ele>
        <time>2021-08-17T07:48:37Z</time>
        <sat>9</sat>
      </trkpt>
      <trkpt lat="42.335645" lon="-4.734991">
        <ele>840.0</ele>
        <time>2021-08-17T07:48:44Z</time>
        <sat>9</sat>
      </trkpt>
      <trkpt lat="42.335625" lon="-4.735100">
        <ele>840.1</ele>
        <time>2021-08-17T07:48:50Z</time>
        <sat>9</sat>
      </trkpt>
      <trkpt lat="42.335612" lon="-4.735218">
        <ele>840.4</ele>
        <time>2021-08-17T07:48:57Z</time>
        <sat>9</sat>
      </trkpt>
      <trkpt lat="42.335603" lon="-4.735340">
        <ele>840.6</ele>
        <time>2021-08-17T07:49:04Z</time>
        <sat>9</sat>
      </trkpt>
      <trkpt lat="42.335587" lon="-4.735456">
        <ele>840.5</ele>
        <time>2021-08-17T07:49:11Z</time>
        <sat>9</sat>
      </trkpt>
      <trkpt lat="42.335566" lon="-4.735568">
        <ele>840.6</ele>
        <time>2021-08-17T07:49:18Z</time>
        <sat>9</sat>
      </trkpt>
      <trkpt lat="42.335549" lon="-4.735676">
        <ele>840.7</ele>
        <time>2021-08-17T07:49:24Z</time>
        <sat>9</sat>
      </trkpt>
      <trkpt lat="42.335527" lon="-4.735782">
        <ele>840.6</ele>
        <time>2021-08-17T07:49:30Z</time>
        <sat>9</sat>
      </trkpt>
      <trkpt lat="42.335507" lon="-4.735905">
        <ele>840.6</ele>
        <time>2021-08-17T07:49:37Z</time>
        <sat>9</sat>
      </trkpt>
      <trkpt lat="42.335478" lon="-4.736027">
        <ele>840.6</ele>
        <time>2021-08-17T07:49:44Z</time>
        <sat>9</sat>
      </trkpt>
      <trkpt lat="42.335465" lon="-4.736135">
        <ele>840.6</ele>
        <time>2021-08-17T07:49:50Z</time>
        <sat>9</sat>
      </trkpt>
      <trkpt lat="42.335439" lon="-4.736255">
        <ele>840.6</ele>
        <time>2021-08-17T07:49:57Z</time>
        <sat>9</sat>
      </trkpt>
      <trkpt lat="42.335420" lon="-4.736377">
        <ele>840.6</ele>
        <time>2021-08-17T07:50:04Z</time>
        <sat>9</sat>
      </trkpt>
      <trkpt lat="42.335394" lon="-4.736490">
        <ele>840.6</ele>
        <time>2021-08-17T07:50:11Z</time>
        <sat>9</sat>
      </trkpt>
      <trkpt lat="42.335380" lon="-4.736615">
        <ele>840.6</ele>
        <time>2021-08-17T07:50:18Z</time>
        <sat>9</sat>
      </trkpt>
      <trkpt lat="42.335361" lon="-4.736727">
        <ele>840.7</ele>
        <time>2021-08-17T07:50:24Z</time>
        <sat>9</sat>
      </trkpt>
      <trkpt lat="42.335342" lon="-4.736852">
        <ele>840.7</ele>
        <time>2021-08-17T07:50:31Z</time>
        <sat>9</sat>
      </trkpt>
      <trkpt lat="42.335322" lon="-4.736961">
        <ele>840.7</ele>
        <time>2021-08-17T07:50:37Z</time>
        <sat>9</sat>
      </trkpt>
      <trkpt lat="42.335302" lon="-4.737083">
        <ele>840.8</ele>
        <time>2021-08-17T07:50:44Z</time>
        <sat>9</sat>
      </trkpt>
      <trkpt lat="42.335282" lon="-4.737194">
        <ele>840.7</ele>
        <time>2021-08-17T07:50:50Z</time>
        <sat>9</sat>
      </trkpt>
      <trkpt lat="42.335264" lon="-4.737318">
        <ele>840.7</ele>
        <time>2021-08-17T07:50:57Z</time>
        <sat>9</sat>
      </trkpt>
      <trkpt lat="42.335241" lon="-4.737429">
        <ele>840.6</ele>
        <time>2021-08-17T07:51:03Z</time>
        <sat>9</sat>
      </trkpt>
      <trkpt lat="42.335225" lon="-4.737538">
        <ele>840.6</ele>
        <time>2021-08-17T07:51:09Z</time>
        <sat>9</sat>
      </trkpt>
      <trkpt lat="42.335202" lon="-4.737645">
        <ele>840.6</ele>
        <time>2021-08-17T07:51:15Z</time>
        <sat>9</sat>
      </trkpt>
      <trkpt lat="42.335190" lon="-4.737755">
        <ele>840.7</ele>
        <time>2021-08-17T07:51:21Z</time>
        <sat>9</sat>
      </trkpt>
      <trkpt lat="42.335164" lon="-4.737878">
        <ele>840.7</ele>
        <time>2021-08-17T07:51:28Z</time>
        <sat>9</sat>
      </trkpt>
      <trkpt lat="42.335154" lon="-4.737990">
        <ele>840.6</ele>
        <time>2021-08-17T07:51:34Z</time>
        <sat>9</sat>
      </trkpt>
      <trkpt lat="42.335135" lon="-4.738097">
        <ele>840.6</ele>
        <time>2021-08-17T07:51:40Z</time>
        <sat>9</sat>
      </trkpt>
      <trkpt lat="42.335121" lon="-4.738207">
        <ele>840.8</ele>
        <time>2021-08-17T07:51:46Z</time>
        <sat>9</sat>
      </trkpt>
      <trkpt lat="42.335100" lon="-4.738333">
        <ele>840.8</ele>
        <time>2021-08-17T07:51:53Z</time>
        <sat>9</sat>
      </trkpt>
      <trkpt lat="42.335079" lon="-4.738446">
        <ele>841.0</ele>
        <time>2021-08-17T07:51:59Z</time>
        <sat>9</sat>
      </trkpt>
      <trkpt lat="42.335062" lon="-4.738572">
        <ele>841.0</ele>
        <time>2021-08-17T07:52:06Z</time>
        <sat>9</sat>
      </trkpt>
      <trkpt lat="42.335037" lon="-4.738682">
        <ele>841.1</ele>
        <time>2021-08-17T07:52:12Z</time>
        <sat>9</sat>
      </trkpt>
      <trkpt lat="42.335026" lon="-4.738797">
        <ele>841.1</ele>
        <time>2021-08-17T07:52:18Z</time>
        <sat>9</sat>
      </trkpt>
      <trkpt lat="42.335004" lon="-4.738904">
        <ele>841.3</ele>
        <time>2021-08-17T07:52:24Z</time>
        <sat>9</sat>
      </trkpt>
      <trkpt lat="42.334983" lon="-4.739016">
        <ele>841.3</ele>
        <time>2021-08-17T07:52:30Z</time>
        <sat>9</sat>
      </trkpt>
      <trkpt lat="42.334968" lon="-4.739140">
        <ele>841.3</ele>
        <time>2021-08-17T07:52:37Z</time>
        <sat>9</sat>
      </trkpt>
      <trkpt lat="42.334945" lon="-4.739252">
        <ele>841.3</ele>
        <time>2021-08-17T07:52:43Z</time>
        <sat>9</sat>
      </trkpt>
      <trkpt lat="42.334929" lon="-4.739366">
        <ele>841.2</ele>
        <time>2021-08-17T07:52:49Z</time>
        <sat>9</sat>
      </trkpt>
      <trkpt lat="42.334907" lon="-4.739488">
        <ele>841.3</ele>
        <time>2021-08-17T07:52:56Z</time>
        <sat>9</sat>
      </trkpt>
      <trkpt lat="42.334894" lon="-4.739607">
        <ele>841.4</ele>
        <time>2021-08-17T07:53:03Z</time>
        <sat>9</sat>
      </trkpt>
      <trkpt lat="42.334879" lon="-4.739716">
        <ele>841.4</ele>
        <time>2021-08-17T07:53:09Z</time>
        <sat>9</sat>
      </trkpt>
      <trkpt lat="42.334855" lon="-4.739826">
        <ele>841.5</ele>
        <time>2021-08-17T07:53:15Z</time>
        <sat>9</sat>
      </trkpt>
      <trkpt lat="42.334837" lon="-4.739945">
        <ele>841.6</ele>
        <time>2021-08-17T07:53:21Z</time>
        <sat>9</sat>
      </trkpt>
      <trkpt lat="42.334820" lon="-4.740067">
        <ele>841.7</ele>
        <time>2021-08-17T07:53:28Z</time>
        <sat>9</sat>
      </trkpt>
      <trkpt lat="42.334800" lon="-4.740173">
        <ele>841.9</ele>
        <time>2021-08-17T07:53:34Z</time>
        <sat>9</sat>
      </trkpt>
      <trkpt lat="42.334786" lon="-4.740292">
        <ele>841.9</ele>
        <time>2021-08-17T07:53:41Z</time>
        <sat>9</sat>
      </trkpt>
      <trkpt lat="42.334771" lon="-4.740421">
        <ele>841.8</ele>
        <time>2021-08-17T07:53:48Z</time>
        <sat>9</sat>
      </trkpt>
      <trkpt lat="42.334750" lon="-4.740542">
        <ele>842.0</ele>
        <time>2021-08-17T07:53:55Z</time>
        <sat>9</sat>
      </trkpt>
      <trkpt lat="42.334730" lon="-4.740649">
        <ele>842.0</ele>
        <time>2021-08-17T07:54:01Z</time>
        <sat>9</sat>
      </trkpt>
      <trkpt lat="42.334714" lon="-4.740769">
        <ele>842.0</ele>
        <time>2021-08-17T07:54:08Z</time>
        <sat>9</sat>
      </trkpt>
      <trkpt lat="42.334694" lon="-4.740878">
        <ele>842.0</ele>
        <time>2021-08-17T07:54:14Z</time>
        <sat>9</sat>
      </trkpt>
      <trkpt lat="42.334671" lon="-4.740998">
        <ele>842.0</ele>
        <time>2021-08-17T07:54:21Z</time>
        <sat>9</sat>
      </trkpt>
      <trkpt lat="42.334655" lon="-4.741121">
        <ele>842.0</ele>
        <time>2021-08-17T07:54:28Z</time>
        <sat>9</sat>
      </trkpt>
      <trkpt lat="42.334632" lon="-4.741239">
        <ele>841.9</ele>
        <time>2021-08-17T07:54:35Z</time>
        <sat>9</sat>
      </trkpt>
      <trkpt lat="42.334620" lon="-4.741360">
        <ele>841.9</ele>
        <time>2021-08-17T07:54:42Z</time>
        <sat>9</sat>
      </trkpt>
      <trkpt lat="42.334596" lon="-4.741467">
        <ele>841.8</ele>
        <time>2021-08-17T07:54:48Z</time>
        <sat>9</sat>
      </trkpt>
      <trkpt lat="42.334589" lon="-4.741576">
        <ele>841.8</ele>
        <time>2021-08-17T07:54:54Z</time>
        <sat>9</sat>
      </trkpt>
      <trkpt lat="42.334566" lon="-4.741695">
        <ele>841.3</ele>
        <time>2021-08-17T07:55:01Z</time>
        <sat>9</sat>
      </trkpt>
      <trkpt lat="42.334543" lon="-4.741813">
        <ele>841.5</ele>
        <time>2021-08-17T07:55:08Z</time>
        <sat>9</sat>
      </trkpt>
      <trkpt lat="42.334529" lon="-4.741935">
        <ele>841.7</ele>
        <time>2021-08-17T07:55:15Z</time>
        <sat>9</sat>
      </trkpt>
      <trkpt lat="42.334506" lon="-4.742044">
        <ele>841.9</ele>
        <time>2021-08-17T07:55:21Z</time>
        <sat>9</sat>
      </trkpt>
      <trkpt lat="42.334492" lon="-4.742168">
        <ele>841.9</ele>
        <time>2021-08-17T07:55:28Z</time>
        <sat>9</sat>
      </trkpt>
      <trkpt lat="42.334469" lon="-4.742274">
        <ele>841.9</ele>
        <time>2021-08-17T07:55:34Z</time>
        <sat>9</sat>
      </trkpt>
      <trkpt lat="42.334457" lon="-4.742399">
        <ele>841.9</ele>
        <time>2021-08-17T07:55:41Z</time>
        <sat>9</sat>
      </trkpt>
      <trkpt lat="42.334437" lon="-4.742505">
        <ele>841.9</ele>
        <time>2021-08-17T07:55:47Z</time>
        <sat>9</sat>
      </trkpt>
      <trkpt lat="42.334420" lon="-4.742616">
        <ele>841.9</ele>
        <time>2021-08-17T07:55:53Z</time>
        <sat>9</sat>
      </trkpt>
      <trkpt lat="42.334403" lon="-4.742724">
        <ele>841.9</ele>
        <time>2021-08-17T07:56:00Z</time>
        <sat>8</sat>
      </trkpt>
      <trkpt lat="42.334386" lon="-4.742843">
        <ele>841.9</ele>
        <time>2021-08-17T07:56:07Z</time>
        <sat>9</sat>
      </trkpt>
      <trkpt lat="42.334372" lon="-4.742952">
        <ele>841.9</ele>
        <time>2021-08-17T07:56:13Z</time>
        <sat>9</sat>
      </trkpt>
      <trkpt lat="42.334344" lon="-4.743069">
        <ele>841.8</ele>
        <time>2021-08-17T07:56:20Z</time>
        <sat>9</sat>
      </trkpt>
      <trkpt lat="42.334333" lon="-4.743178">
        <ele>841.8</ele>
        <time>2021-08-17T07:56:26Z</time>
        <sat>9</sat>
      </trkpt>
      <trkpt lat="42.334308" lon="-4.743283">
        <ele>841.7</ele>
        <time>2021-08-17T07:56:32Z</time>
        <sat>9</sat>
      </trkpt>
      <trkpt lat="42.334292" lon="-4.743401">
        <ele>841.7</ele>
        <time>2021-08-17T07:56:39Z</time>
        <sat>9</sat>
      </trkpt>
      <trkpt lat="42.334266" lon="-4.743506">
        <ele>841.8</ele>
        <time>2021-08-17T07:56:45Z</time>
        <sat>9</sat>
      </trkpt>
      <trkpt lat="42.334252" lon="-4.743632">
        <ele>842.0</ele>
        <time>2021-08-17T07:56:52Z</time>
        <sat>9</sat>
      </trkpt>
      <trkpt lat="42.334233" lon="-4.743739">
        <ele>842.0</ele>
        <time>2021-08-17T07:56:58Z</time>
        <sat>9</sat>
      </trkpt>
      <trkpt lat="42.334217" lon="-4.743862">
        <ele>842.3</ele>
        <time>2021-08-17T07:57:05Z</time>
        <sat>9</sat>
      </trkpt>
      <trkpt lat="42.334195" lon="-4.743970">
        <ele>842.3</ele>
        <time>2021-08-17T07:57:11Z</time>
        <sat>9</sat>
      </trkpt>
      <trkpt lat="42.334177" lon="-4.744089">
        <ele>842.3</ele>
        <time>2021-08-17T07:57:18Z</time>
        <sat>9</sat>
      </trkpt>
      <trkpt lat="42.334165" lon="-4.744209">
        <ele>842.4</ele>
        <time>2021-08-17T07:57:31Z</time>
        <sat>9</sat>
      </trkpt>
      <trkpt lat="42.334144" lon="-4.744322">
        <ele>842.3</ele>
        <time>2021-08-17T07:57:38Z</time>
        <sat>9</sat>
      </trkpt>
      <trkpt lat="42.334122" lon="-4.744443">
        <ele>842.3</ele>
        <time>2021-08-17T07:57:45Z</time>
        <sat>9</sat>
      </trkpt>
      <trkpt lat="42.334102" lon="-4.744551">
        <ele>842.3</ele>
        <time>2021-08-17T07:57:51Z</time>
        <sat>9</sat>
      </trkpt>
      <trkpt lat="42.334082" lon="-4.744676">
        <ele>842.3</ele>
        <time>2021-08-17T07:57:58Z</time>
        <sat>9</sat>
      </trkpt>
      <trkpt lat="42.334063" lon="-4.744784">
        <ele>842.2</ele>
        <time>2021-08-17T07:58:04Z</time>
        <sat>9</sat>
      </trkpt>
      <trkpt lat="42.334041" lon="-4.744903">
        <ele>842.3</ele>
        <time>2021-08-17T07:58:11Z</time>
        <sat>9</sat>
      </trkpt>
      <trkpt lat="42.334025" lon="-4.745026">
        <ele>842.2</ele>
        <time>2021-08-17T07:58:18Z</time>
        <sat>8</sat>
      </trkpt>
      <trkpt lat="42.334008" lon="-4.745142">
        <ele>842.2</ele>
        <time>2021-08-17T07:58:25Z</time>
        <sat>9</sat>
      </trkpt>
      <trkpt lat="42.333980" lon="-4.745258">
        <ele>842.2</ele>
        <time>2021-08-17T07:58:34Z</time>
        <sat>9</sat>
      </trkpt>
      <trkpt lat="42.333961" lon="-4.745377">
        <ele>842.2</ele>
        <time>2021-08-17T07:58:41Z</time>
        <sat>9</sat>
      </trkpt>
      <trkpt lat="42.333945" lon="-4.745490">
        <ele>842.2</ele>
        <time>2021-08-17T07:58:48Z</time>
        <sat>9</sat>
      </trkpt>
      <trkpt lat="42.333927" lon="-4.745603">
        <ele>842.2</ele>
        <time>2021-08-17T07:58:55Z</time>
        <sat>9</sat>
      </trkpt>
      <trkpt lat="42.333918" lon="-4.745724">
        <ele>842.2</ele>
        <time>2021-08-17T07:59:04Z</time>
        <sat>9</sat>
      </trkpt>
      <trkpt lat="42.333905" lon="-4.745834">
        <ele>842.4</ele>
        <time>2021-08-17T07:59:11Z</time>
        <sat>9</sat>
      </trkpt>
      <trkpt lat="42.333897" lon="-4.745954">
        <ele>841.6</ele>
        <time>2021-08-17T08:01:34Z</time>
        <sat>9</sat>
      </trkpt>
      <trkpt lat="42.333870" lon="-4.746057">
        <ele>841.8</ele>
        <time>2021-08-17T08:01:41Z</time>
        <sat>9</sat>
      </trkpt>
      <trkpt lat="42.333847" lon="-4.746169">
        <ele>841.9</ele>
        <time>2021-08-17T08:01:48Z</time>
        <sat>9</sat>
      </trkpt>
      <trkpt lat="42.333830" lon="-4.746285">
        <ele>841.9</ele>
        <time>2021-08-17T08:01:55Z</time>
        <sat>9</sat>
      </trkpt>
      <trkpt lat="42.333809" lon="-4.746403">
        <ele>842.0</ele>
        <time>2021-08-17T08:02:02Z</time>
        <sat>9</sat>
      </trkpt>
      <trkpt lat="42.333786" lon="-4.746516">
        <ele>842.0</ele>
        <time>2021-08-17T08:02:09Z</time>
        <sat>9</sat>
      </trkpt>
      <trkpt lat="42.333764" lon="-4.746630">
        <ele>842.3</ele>
        <time>2021-08-17T08:02:16Z</time>
        <sat>9</sat>
      </trkpt>
      <trkpt lat="42.333746" lon="-4.746744">
        <ele>842.2</ele>
        <time>2021-08-17T08:02:23Z</time>
        <sat>9</sat>
      </trkpt>
      <trkpt lat="42.333725" lon="-4.746867">
        <ele>842.0</ele>
        <time>2021-08-17T08:02:30Z</time>
        <sat>9</sat>
      </trkpt>
      <trkpt lat="42.333710" lon="-4.746975">
        <ele>842.0</ele>
        <time>2021-08-17T08:02:36Z</time>
        <sat>9</sat>
      </trkpt>
      <trkpt lat="42.333686" lon="-4.747097">
        <ele>842.2</ele>
        <time>2021-08-17T08:02:43Z</time>
        <sat>9</sat>
      </trkpt>
      <trkpt lat="42.333666" lon="-4.747215">
        <ele>842.3</ele>
        <time>2021-08-17T08:02:50Z</time>
        <sat>9</sat>
      </trkpt>
      <trkpt lat="42.333650" lon="-4.747335">
        <ele>842.3</ele>
        <time>2021-08-17T08:02:57Z</time>
        <sat>9</sat>
      </trkpt>
      <trkpt lat="42.333626" lon="-4.747453">
        <ele>842.2</ele>
        <time>2021-08-17T08:03:04Z</time>
        <sat>9</sat>
      </trkpt>
      <trkpt lat="42.333608" lon="-4.747567">
        <ele>842.0</ele>
        <time>2021-08-17T08:03:11Z</time>
        <sat>9</sat>
      </trkpt>
      <trkpt lat="42.333593" lon="-4.747682">
        <ele>842.2</ele>
        <time>2021-08-17T08:03:18Z</time>
        <sat>9</sat>
      </trkpt>
      <trkpt lat="42.333571" lon="-4.747803">
        <ele>842.2</ele>
        <time>2021-08-17T08:03:25Z</time>
        <sat>9</sat>
      </trkpt>
      <trkpt lat="42.333553" lon="-4.747921">
        <ele>842.2</ele>
        <time>2021-08-17T08:03:32Z</time>
        <sat>9</sat>
      </trkpt>
      <trkpt lat="42.333544" lon="-4.748037">
        <ele>842.3</ele>
        <time>2021-08-17T08:03:39Z</time>
        <sat>9</sat>
      </trkpt>
      <trkpt lat="42.333527" lon="-4.748153">
        <ele>842.3</ele>
        <time>2021-08-17T08:03:46Z</time>
        <sat>9</sat>
      </trkpt>
      <trkpt lat="42.333513" lon="-4.748270">
        <ele>842.4</ele>
        <time>2021-08-17T08:03:53Z</time>
        <sat>9</sat>
      </trkpt>
      <trkpt lat="42.333500" lon="-4.748388">
        <ele>842.4</ele>
        <time>2021-08-17T08:04:00Z</time>
        <sat>9</sat>
      </trkpt>
      <trkpt lat="42.333478" lon="-4.748504">
        <ele>842.5</ele>
        <time>2021-08-17T08:04:07Z</time>
        <sat>9</sat>
      </trkpt>
      <trkpt lat="42.333461" lon="-4.748620">
        <ele>842.8</ele>
        <time>2021-08-17T08:04:15Z</time>
        <sat>9</sat>
      </trkpt>
      <trkpt lat="42.333447" lon="-4.748742">
        <ele>842.8</ele>
        <time>2021-08-17T08:04:23Z</time>
        <sat>9</sat>
      </trkpt>
      <trkpt lat="42.333442" lon="-4.748854">
        <ele>842.8</ele>
        <time>2021-08-17T08:04:30Z</time>
        <sat>9</sat>
      </trkpt>
      <trkpt lat="42.333433" lon="-4.748965">
        <ele>843.0</ele>
        <time>2021-08-17T08:04:38Z</time>
        <sat>9</sat>
      </trkpt>
      <trkpt lat="42.333429" lon="-4.749076">
        <ele>842.4</ele>
        <time>2021-08-17T08:05:51Z</time>
        <sat>9</sat>
      </trkpt>
      <trkpt lat="42.333413" lon="-4.749187">
        <ele>842.6</ele>
        <time>2021-08-17T08:06:00Z</time>
        <sat>9</sat>
      </trkpt>
      <trkpt lat="42.333395" lon="-4.749299">
        <ele>842.9</ele>
        <time>2021-08-17T08:06:08Z</time>
        <sat>9</sat>
      </trkpt>
      <trkpt lat="42.333380" lon="-4.749412">
        <ele>843.0</ele>
        <time>2021-08-17T08:06:16Z</time>
        <sat>9</sat>
      </trkpt>
      <trkpt lat="42.333368" lon="-4.749527">
        <ele>843.0</ele>
        <time>2021-08-17T08:06:24Z</time>
        <sat>9</sat>
      </trkpt>
      <trkpt lat="42.333350" lon="-4.749649">
        <ele>843.0</ele>
        <time>2021-08-17T08:06:32Z</time>
        <sat>9</sat>
      </trkpt>
      <trkpt lat="42.333345" lon="-4.749760">
        <ele>843.2</ele>
        <time>2021-08-17T08:06:40Z</time>
        <sat>9</sat>
      </trkpt>
      <trkpt lat="42.333383" lon="-4.749865">
        <ele>843.0</ele>
        <time>2021-08-17T08:06:48Z</time>
        <sat>9</sat>
      </trkpt>
      <trkpt lat="42.333349" lon="-4.750115">
        <ele>842.5</ele>
        <time>2021-08-17T08:18:10Z</time>
        <sat>9</sat>
      </trkpt>
      <trkpt lat="42.333333" lon="-4.750232">
        <ele>842.4</ele>
        <time>2021-08-17T08:24:11Z</time>
        <sat>9</sat>
      </trkpt>
      <trkpt lat="42.333264" lon="-4.750299">
        <ele>842.3</ele>
        <time>2021-08-17T08:24:22Z</time>
        <sat>9</sat>
      </trkpt>
      <trkpt lat="42.333236" lon="-4.750406">
        <ele>842.5</ele>
        <time>2021-08-17T08:24:29Z</time>
        <sat>9</sat>
      </trkpt>
      <trkpt lat="42.333223" lon="-4.750518">
        <ele>842.6</ele>
        <time>2021-08-17T08:24:37Z</time>
        <sat>9</sat>
      </trkpt>
      <trkpt lat="42.333213" lon="-4.750637">
        <ele>842.0</ele>
        <time>2021-08-17T08:24:46Z</time>
        <sat>9</sat>
      </trkpt>
      <trkpt lat="42.333195" lon="-4.750759">
        <ele>843.0</ele>
        <time>2021-08-17T08:24:54Z</time>
        <sat>8</sat>
      </trkpt>
      <trkpt lat="42.333173" lon="-4.750874">
        <ele>843.2</ele>
        <time>2021-08-17T08:25:02Z</time>
        <sat>8</sat>
      </trkpt>
      <trkpt lat="42.333153" lon="-4.750991">
        <ele>843.2</ele>
        <time>2021-08-17T08:25:10Z</time>
        <sat>8</sat>
      </trkpt>
      <trkpt lat="42.333135" lon="-4.751098">
        <ele>843.1</ele>
        <time>2021-08-17T08:25:17Z</time>
        <sat>8</sat>
      </trkpt>
      <trkpt lat="42.333115" lon="-4.751217">
        <ele>843.0</ele>
        <time>2021-08-17T08:25:25Z</time>
        <sat>9</sat>
      </trkpt>
      <trkpt lat="42.333096" lon="-4.751337">
        <ele>843.1</ele>
        <time>2021-08-17T08:25:33Z</time>
        <sat>9</sat>
      </trkpt>
      <trkpt lat="42.333077" lon="-4.751456">
        <ele>843.1</ele>
        <time>2021-08-17T08:25:42Z</time>
        <sat>9</sat>
      </trkpt>
      <trkpt lat="42.333065" lon="-4.751575">
        <ele>843.2</ele>
        <time>2021-08-17T08:25:50Z</time>
        <sat>8</sat>
      </trkpt>
      <trkpt lat="42.333058" lon="-4.751686">
        <ele>843.1</ele>
        <time>2021-08-17T08:25:57Z</time>
        <sat>9</sat>
      </trkpt>
      <trkpt lat="42.333049" lon="-4.751801">
        <ele>842.9</ele>
        <time>2021-08-17T08:26:04Z</time>
        <sat>9</sat>
      </trkpt>
      <trkpt lat="42.333033" lon="-4.751921">
        <ele>842.8</ele>
        <time>2021-08-17T08:26:11Z</time>
        <sat>9</sat>
      </trkpt>
      <trkpt lat="42.333023" lon="-4.752038">
        <ele>842.7</ele>
        <time>2021-08-17T08:26:18Z</time>
        <sat>7</sat>
      </trkpt>
      <trkpt lat="42.333004" lon="-4.752155">
        <ele>842.7</ele>
        <time>2021-08-17T08:26:25Z</time>
        <sat>8</sat>
      </trkpt>
      <trkpt lat="42.332991" lon="-4.752272">
        <ele>842.7</ele>
        <time>2021-08-17T08:26:32Z</time>
        <sat>9</sat>
      </trkpt>
      <trkpt lat="42.332969" lon="-4.752385">
        <ele>842.7</ele>
        <time>2021-08-17T08:26:39Z</time>
        <sat>9</sat>
      </trkpt>
      <trkpt lat="42.332954" lon="-4.752500">
        <ele>842.7</ele>
        <time>2021-08-17T08:26:46Z</time>
        <sat>8</sat>
      </trkpt>
      <trkpt lat="42.332932" lon="-4.752622">
        <ele>842.6</ele>
        <time>2021-08-17T08:26:53Z</time>
        <sat>8</sat>
      </trkpt>
      <trkpt lat="42.332909" lon="-4.752738">
        <ele>842.7</ele>
        <time>2021-08-17T08:27:00Z</time>
        <sat>8</sat>
      </trkpt>
      <trkpt lat="42.332894" lon="-4.752844">
        <ele>842.6</ele>
        <time>2021-08-17T08:27:06Z</time>
        <sat>8</sat>
      </trkpt>
      <trkpt lat="42.332871" lon="-4.752967">
        <ele>842.6</ele>
        <time>2021-08-17T08:27:13Z</time>
        <sat>8</sat>
      </trkpt>
      <trkpt lat="42.332855" lon="-4.753084">
        <ele>842.7</ele>
        <time>2021-08-17T08:27:20Z</time>
        <sat>8</sat>
      </trkpt>
      <trkpt lat="42.332841" lon="-4.753211">
        <ele>842.7</ele>
        <time>2021-08-17T08:27:27Z</time>
        <sat>8</sat>
      </trkpt>
      <trkpt lat="42.332825" lon="-4.753332">
        <ele>842.7</ele>
        <time>2021-08-17T08:27:34Z</time>
        <sat>9</sat>
      </trkpt>
      <trkpt lat="42.332807" lon="-4.753456">
        <ele>842.6</ele>
        <time>2021-08-17T08:27:41Z</time>
        <sat>9</sat>
      </trkpt>
      <trkpt lat="42.332792" lon="-4.753577">
        <ele>842.4</ele>
        <time>2021-08-17T08:27:48Z</time>
        <sat>9</sat>
      </trkpt>
      <trkpt lat="42.332774" lon="-4.753700">
        <ele>842.4</ele>
        <time>2021-08-17T08:27:55Z</time>
        <sat>9</sat>
      </trkpt>
      <trkpt lat="42.332757" lon="-4.753821">
        <ele>842.6</ele>
        <time>2021-08-17T08:28:02Z</time>
        <sat>8</sat>
      </trkpt>
      <trkpt lat="42.332747" lon="-4.753945">
        <ele>842.7</ele>
        <time>2021-08-17T08:28:09Z</time>
        <sat>8</sat>
      </trkpt>
      <trkpt lat="42.332728" lon="-4.754065">
        <ele>842.8</ele>
        <time>2021-08-17T08:28:16Z</time>
        <sat>8</sat>
      </trkpt>
      <trkpt lat="42.332713" lon="-4.754186">
        <ele>842.7</ele>
        <time>2021-08-17T08:28:23Z</time>
        <sat>9</sat>
      </trkpt>
      <trkpt lat="42.332702" lon="-4.754301">
        <ele>842.5</ele>
        <time>2021-08-17T08:28:30Z</time>
        <sat>9</sat>
      </trkpt>
      <trkpt lat="42.332686" lon="-4.754415">
        <ele>842.4</ele>
        <time>2021-08-17T08:28:37Z</time>
        <sat>9</sat>
      </trkpt>
      <trkpt lat="42.332679" lon="-4.754536">
        <ele>842.5</ele>
        <time>2021-08-17T08:28:44Z</time>
        <sat>9</sat>
      </trkpt>
      <trkpt lat="42.332661" lon="-4.754643">
        <ele>842.5</ele>
        <time>2021-08-17T08:28:50Z</time>
        <sat>9</sat>
      </trkpt>
      <trkpt lat="42.332634" lon="-4.754763">
        <ele>842.6</ele>
        <time>2021-08-17T08:28:57Z</time>
        <sat>9</sat>
      </trkpt>
      <trkpt lat="42.332623" lon="-4.754886">
        <ele>842.8</ele>
        <time>2021-08-17T08:29:04Z</time>
        <sat>9</sat>
      </trkpt>
      <trkpt lat="42.332604" lon="-4.755009">
        <ele>843.0</ele>
        <time>2021-08-17T08:29:11Z</time>
        <sat>9</sat>
      </trkpt>
      <trkpt lat="42.332588" lon="-4.755133">
        <ele>843.1</ele>
        <time>2021-08-17T08:29:18Z</time>
        <sat>8</sat>
      </trkpt>
      <trkpt lat="42.332570" lon="-4.755245">
        <ele>843.2</ele>
        <time>2021-08-17T08:29:25Z</time>
        <sat>9</sat>
      </trkpt>
      <trkpt lat="42.332551" lon="-4.755351">
        <ele>843.4</ele>
        <time>2021-08-17T08:29:31Z</time>
        <sat>9</sat>
      </trkpt>
      <trkpt lat="42.332535" lon="-4.755464">
        <ele>843.6</ele>
        <time>2021-08-17T08:29:38Z</time>
        <sat>9</sat>
      </trkpt>
      <trkpt lat="42.332523" lon="-4.755580">
        <ele>843.6</ele>
        <time>2021-08-17T08:29:45Z</time>
        <sat>9</sat>
      </trkpt>
      <trkpt lat="42.332514" lon="-4.755697">
        <ele>843.9</ele>
        <time>2021-08-17T08:29:52Z</time>
        <sat>9</sat>
      </trkpt>
      <trkpt lat="42.332490" lon="-4.755815">
        <ele>843.8</ele>
        <time>2021-08-17T08:29:59Z</time>
        <sat>9</sat>
      </trkpt>
      <trkpt lat="42.332470" lon="-4.755930">
        <ele>843.8</ele>
        <time>2021-08-17T08:30:06Z</time>
        <sat>9</sat>
      </trkpt>
      <trkpt lat="42.332456" lon="-4.756050">
        <ele>843.9</ele>
        <time>2021-08-17T08:30:13Z</time>
        <sat>10</sat>
      </trkpt>
      <trkpt lat="42.332438" lon="-4.756169">
        <ele>844.1</ele>
        <time>2021-08-17T08:30:20Z</time>
        <sat>9</sat>
      </trkpt>
      <trkpt lat="42.332416" lon="-4.756289">
        <ele>844.1</ele>
        <time>2021-08-17T08:30:27Z</time>
        <sat>10</sat>
      </trkpt>
      <trkpt lat="42.332401" lon="-4.756409">
        <ele>844.3</ele>
        <time>2021-08-17T08:30:34Z</time>
        <sat>10</sat>
      </trkpt>
      <trkpt lat="42.332385" lon="-4.756531">
        <ele>844.5</ele>
        <time>2021-08-17T08:30:41Z</time>
        <sat>9</sat>
      </trkpt>
      <trkpt lat="42.332370" lon="-4.756645">
        <ele>844.7</ele>
        <time>2021-08-17T08:30:48Z</time>
        <sat>9</sat>
      </trkpt>
      <trkpt lat="42.332349" lon="-4.756765">
        <ele>844.8</ele>
        <time>2021-08-17T08:30:55Z</time>
        <sat>10</sat>
      </trkpt>
      <trkpt lat="42.332337" lon="-4.756883">
        <ele>844.8</ele>
        <time>2021-08-17T08:31:02Z</time>
        <sat>10</sat>
      </trkpt>
      <trkpt lat="42.332320" lon="-4.757002">
        <ele>844.9</ele>
        <time>2021-08-17T08:31:09Z</time>
        <sat>10</sat>
      </trkpt>
      <trkpt lat="42.332303" lon="-4.757123">
        <ele>844.9</ele>
        <time>2021-08-17T08:31:16Z</time>
        <sat>10</sat>
      </trkpt>
      <trkpt lat="42.332290" lon="-4.757241">
        <ele>845.0</ele>
        <time>2021-08-17T08:31:23Z</time>
        <sat>10</sat>
      </trkpt>
      <trkpt lat="42.332272" lon="-4.757362">
        <ele>845.2</ele>
        <time>2021-08-17T08:31:30Z</time>
        <sat>10</sat>
      </trkpt>
      <trkpt lat="42.332254" lon="-4.757479">
        <ele>845.2</ele>
        <time>2021-08-17T08:31:37Z</time>
        <sat>10</sat>
      </trkpt>
      <trkpt lat="42.332246" lon="-4.757599">
        <ele>845.1</ele>
        <time>2021-08-17T08:31:44Z</time>
        <sat>10</sat>
      </trkpt>
      <trkpt lat="42.332231" lon="-4.757724">
        <ele>845.2</ele>
        <time>2021-08-17T08:31:51Z</time>
        <sat>10</sat>
      </trkpt>
      <trkpt lat="42.332206" lon="-4.757843">
        <ele>845.3</ele>
        <time>2021-08-17T08:31:58Z</time>
        <sat>10</sat>
      </trkpt>
      <trkpt lat="42.332189" lon="-4.757962">
        <ele>845.4</ele>
        <time>2021-08-17T08:32:05Z</time>
        <sat>10</sat>
      </trkpt>
      <trkpt lat="42.332171" lon="-4.758083">
        <ele>845.7</ele>
        <time>2021-08-17T08:32:12Z</time>
        <sat>10</sat>
      </trkpt>
      <trkpt lat="42.332153" lon="-4.758205">
        <ele>844.0</ele>
        <time>2021-08-17T08:32:19Z</time>
        <sat>10</sat>
      </trkpt>
      <trkpt lat="42.332151" lon="-4.758323">
        <ele>847.2</ele>
        <time>2021-08-17T08:32:26Z</time>
        <sat>10</sat>
      </trkpt>
      <trkpt lat="42.332138" lon="-4.758431">
        <ele>845.5</ele>
        <time>2021-08-17T08:32:34Z</time>
        <sat>10</sat>
      </trkpt>
      <trkpt lat="42.332128" lon="-4.758542">
        <ele>844.5</ele>
        <time>2021-08-17T08:32:41Z</time>
        <sat>10</sat>
      </trkpt>
      <trkpt lat="42.332109" lon="-4.758663">
        <ele>848.2</ele>
        <time>2021-08-17T08:32:49Z</time>
        <sat>10</sat>
      </trkpt>
      <trkpt lat="42.332095" lon="-4.758786">
        <ele>848.5</ele>
        <time>2021-08-17T08:32:57Z</time>
        <sat>10</sat>
      </trkpt>
      <trkpt lat="42.332067" lon="-4.758898">
        <ele>850.0</ele>
        <time>2021-08-17T08:33:04Z</time>
        <sat>10</sat>
      </trkpt>
      <trkpt lat="42.332042" lon="-4.759009">
        <ele>851.0</ele>
        <time>2021-08-17T08:33:11Z</time>
        <sat>10</sat>
      </trkpt>
      <trkpt lat="42.332015" lon="-4.759118">
        <ele>851.7</ele>
        <time>2021-08-17T08:33:18Z</time>
        <sat>10</sat>
      </trkpt>
      <trkpt lat="42.331988" lon="-4.759225">
        <ele>852.3</ele>
        <time>2021-08-17T08:33:25Z</time>
        <sat>10</sat>
      </trkpt>
      <trkpt lat="42.331964" lon="-4.759340">
        <ele>852.7</ele>
        <time>2021-08-17T08:33:32Z</time>
        <sat>10</sat>
      </trkpt>
      <trkpt lat="42.331939" lon="-4.759455">
        <ele>853.1</ele>
        <time>2021-08-17T08:33:39Z</time>
        <sat>10</sat>
      </trkpt>
      <trkpt lat="42.331910" lon="-4.759564">
        <ele>853.2</ele>
        <time>2021-08-17T08:33:46Z</time>
        <sat>10</sat>
      </trkpt>
      <trkpt lat="42.331886" lon="-4.759677">
        <ele>853.3</ele>
        <time>2021-08-17T08:33:53Z</time>
        <sat>10</sat>
      </trkpt>
      <trkpt lat="42.331861" lon="-4.759788">
        <ele>853.2</ele>
        <time>2021-08-17T08:34:00Z</time>
        <sat>10</sat>
      </trkpt>
      <trkpt lat="42.331842" lon="-4.759904">
        <ele>853.1</ele>
        <time>2021-08-17T08:34:07Z</time>
        <sat>9</sat>
      </trkpt>
      <trkpt lat="42.331815" lon="-4.760014">
        <ele>853.0</ele>
        <time>2021-08-17T08:34:14Z</time>
        <sat>9</sat>
      </trkpt>
      <trkpt lat="42.331789" lon="-4.760125">
        <ele>853.0</ele>
        <time>2021-08-17T08:34:21Z</time>
        <sat>10</sat>
      </trkpt>
      <trkpt lat="42.331767" lon="-4.760238">
        <ele>853.2</ele>
        <time>2021-08-17T08:34:28Z</time>
        <sat>10</sat>
      </trkpt>
      <trkpt lat="42.331752" lon="-4.760348">
        <ele>853.3</ele>
        <time>2021-08-17T08:34:42Z</time>
        <sat>10</sat>
      </trkpt>
      <trkpt lat="42.331721" lon="-4.760464">
        <ele>853.3</ele>
        <time>2021-08-17T08:34:49Z</time>
        <sat>10</sat>
      </trkpt>
      <trkpt lat="42.331698" lon="-4.760579">
        <ele>853.1</ele>
        <time>2021-08-17T08:34:56Z</time>
        <sat>10</sat>
      </trkpt>
      <trkpt lat="42.331684" lon="-4.760694">
        <ele>853.0</ele>
        <time>2021-08-17T08:35:03Z</time>
        <sat>10</sat>
      </trkpt>
      <trkpt lat="42.331659" lon="-4.760808">
        <ele>852.8</ele>
        <time>2021-08-17T08:35:11Z</time>
        <sat>10</sat>
      </trkpt>
      <trkpt lat="42.331635" lon="-4.760914">
        <ele>852.6</ele>
        <time>2021-08-17T08:35:20Z</time>
        <sat>10</sat>
      </trkpt>
      <trkpt lat="42.331643" lon="-4.761024">
        <ele>851.9</ele>
        <time>2021-08-17T08:35:46Z</time>
        <sat>10</sat>
      </trkpt>
      <trkpt lat="42.331613" lon="-4.761131">
        <ele>851.2</ele>
        <time>2021-08-17T08:36:07Z</time>
        <sat>10</sat>
      </trkpt>
      <trkpt lat="42.331587" lon="-4.761249">
        <ele>851.1</ele>
        <time>2021-08-17T08:36:14Z</time>
        <sat>10</sat>
      </trkpt>
      <trkpt lat="42.331562" lon="-4.761358">
        <ele>850.8</ele>
        <time>2021-08-17T08:36:21Z</time>
        <sat>10</sat>
      </trkpt>
      <trkpt lat="42.331544" lon="-4.761471">
        <ele>850.5</ele>
        <time>2021-08-17T08:36:28Z</time>
        <sat>10</sat>
      </trkpt>
      <trkpt lat="42.331516" lon="-4.761575">
        <ele>850.2</ele>
        <time>2021-08-17T08:36:34Z</time>
        <sat>10</sat>
      </trkpt>
      <trkpt lat="42.331493" lon="-4.761689">
        <ele>849.9</ele>
        <time>2021-08-17T08:36:40Z</time>
        <sat>10</sat>
      </trkpt>
      <trkpt lat="42.331472" lon="-4.761799">
        <ele>849.8</ele>
        <time>2021-08-17T08:36:46Z</time>
        <sat>10</sat>
      </trkpt>
      <trkpt lat="42.331441" lon="-4.761910">
        <ele>849.7</ele>
        <time>2021-08-17T08:36:52Z</time>
        <sat>10</sat>
      </trkpt>
      <trkpt lat="42.331421" lon="-4.762025">
        <ele>849.8</ele>
        <time>2021-08-17T08:36:58Z</time>
        <sat>10</sat>
      </trkpt>
      <trkpt lat="42.331404" lon="-4.762133">
        <ele>849.9</ele>
        <time>2021-08-17T08:37:04Z</time>
        <sat>10</sat>
      </trkpt>
      <trkpt lat="42.331380" lon="-4.762246">
        <ele>849.9</ele>
        <time>2021-08-17T08:37:10Z</time>
        <sat>10</sat>
      </trkpt>
      <trkpt lat="42.331363" lon="-4.762359">
        <ele>849.9</ele>
        <time>2021-08-17T08:37:16Z</time>
        <sat>10</sat>
      </trkpt>
      <trkpt lat="42.331339" lon="-4.762466">
        <ele>850.1</ele>
        <time>2021-08-17T08:37:22Z</time>
        <sat>10</sat>
      </trkpt>
      <trkpt lat="42.331314" lon="-4.762578">
        <ele>850.4</ele>
        <time>2021-08-17T08:37:28Z</time>
        <sat>10</sat>
      </trkpt>
      <trkpt lat="42.331298" lon="-4.762688">
        <ele>850.6</ele>
        <time>2021-08-17T08:37:34Z</time>
        <sat>10</sat>
      </trkpt>
      <trkpt lat="42.331270" lon="-4.762799">
        <ele>850.7</ele>
        <time>2021-08-17T08:37:40Z</time>
        <sat>10</sat>
      </trkpt>
      <trkpt lat="42.331257" lon="-4.762913">
        <ele>850.9</ele>
        <time>2021-08-17T08:37:46Z</time>
        <sat>10</sat>
      </trkpt>
      <trkpt lat="42.331228" lon="-4.763024">
        <ele>851.2</ele>
        <time>2021-08-17T08:37:52Z</time>
        <sat>10</sat>
      </trkpt>
      <trkpt lat="42.331207" lon="-4.763135">
        <ele>851.5</ele>
        <time>2021-08-17T08:37:58Z</time>
        <sat>10</sat>
      </trkpt>
      <trkpt lat="42.331183" lon="-4.763254">
        <ele>851.9</ele>
        <time>2021-08-17T08:38:08Z</time>
        <sat>10</sat>
      </trkpt>
      <trkpt lat="42.331138" lon="-4.763354">
        <ele>852.3</ele>
        <time>2021-08-17T08:38:14Z</time>
        <sat>10</sat>
      </trkpt>
      <trkpt lat="42.331128" lon="-4.763475">
        <ele>852.7</ele>
        <time>2021-08-17T08:38:24Z</time>
        <sat>10</sat>
      </trkpt>
      <trkpt lat="42.331098" lon="-4.763582">
        <ele>853.0</ele>
        <time>2021-08-17T08:38:30Z</time>
        <sat>10</sat>
      </trkpt>
      <trkpt lat="42.331084" lon="-4.763695">
        <ele>853.3</ele>
        <time>2021-08-17T08:38:36Z</time>
        <sat>11</sat>
      </trkpt>
      <trkpt lat="42.331055" lon="-4.763818">
        <ele>853.4</ele>
        <time>2021-08-17T08:38:43Z</time>
        <sat>11</sat>
      </trkpt>
      <trkpt lat="42.331037" lon="-4.763931">
        <ele>853.4</ele>
        <time>2021-08-17T08:38:49Z</time>
        <sat>11</sat>
      </trkpt>
      <trkpt lat="42.331015" lon="-4.764051">
        <ele>853.5</ele>
        <time>2021-08-17T08:38:56Z</time>
        <sat>11</sat>
      </trkpt>
      <trkpt lat="42.330989" lon="-4.764161">
        <ele>853.6</ele>
        <time>2021-08-17T08:39:02Z</time>
        <sat>11</sat>
      </trkpt>
      <trkpt lat="42.330971" lon="-4.764273">
        <ele>853.7</ele>
        <time>2021-08-17T08:39:08Z</time>
        <sat>11</sat>
      </trkpt>
      <trkpt lat="42.330943" lon="-4.764380">
        <ele>853.8</ele>
        <time>2021-08-17T08:39:14Z</time>
        <sat>11</sat>
      </trkpt>
      <trkpt lat="42.330925" lon="-4.764487">
        <ele>853.9</ele>
        <time>2021-08-17T08:39:20Z</time>
        <sat>11</sat>
      </trkpt>
      <trkpt lat="42.330893" lon="-4.764607">
        <ele>854.0</ele>
        <time>2021-08-17T08:39:27Z</time>
        <sat>11</sat>
      </trkpt>
      <trkpt lat="42.330876" lon="-4.764721">
        <ele>854.1</ele>
        <time>2021-08-17T08:39:34Z</time>
        <sat>11</sat>
      </trkpt>
      <trkpt lat="42.330859" lon="-4.764835">
        <ele>854.1</ele>
        <time>2021-08-17T08:39:41Z</time>
        <sat>11</sat>
      </trkpt>
      <trkpt lat="42.330836" lon="-4.764946">
        <ele>854.1</ele>
        <time>2021-08-17T08:39:48Z</time>
        <sat>11</sat>
      </trkpt>
      <trkpt lat="42.330818" lon="-4.765057">
        <ele>854.0</ele>
        <time>2021-08-17T08:39:55Z</time>
        <sat>11</sat>
      </trkpt>
      <trkpt lat="42.330801" lon="-4.765173">
        <ele>854.0</ele>
        <time>2021-08-17T08:40:02Z</time>
        <sat>11</sat>
      </trkpt>
      <trkpt lat="42.330778" lon="-4.765289">
        <ele>854.0</ele>
        <time>2021-08-17T08:40:09Z</time>
        <sat>11</sat>
      </trkpt>
      <trkpt lat="42.330754" lon="-4.765403">
        <ele>854.1</ele>
        <time>2021-08-17T08:40:16Z</time>
        <sat>11</sat>
      </trkpt>
      <trkpt lat="42.330733" lon="-4.765517">
        <ele>854.2</ele>
        <time>2021-08-17T08:40:23Z</time>
        <sat>11</sat>
      </trkpt>
      <trkpt lat="42.330708" lon="-4.765637">
        <ele>854.1</ele>
        <time>2021-08-17T08:40:30Z</time>
        <sat>11</sat>
      </trkpt>
      <trkpt lat="42.330682" lon="-4.765752">
        <ele>854.0</ele>
        <time>2021-08-17T08:40:37Z</time>
        <sat>11</sat>
      </trkpt>
      <trkpt lat="42.330664" lon="-4.765869">
        <ele>854.0</ele>
        <time>2021-08-17T08:40:44Z</time>
        <sat>11</sat>
      </trkpt>
      <trkpt lat="42.330637" lon="-4.765987">
        <ele>853.9</ele>
        <time>2021-08-17T08:40:51Z</time>
        <sat>11</sat>
      </trkpt>
      <trkpt lat="42.330608" lon="-4.766102">
        <ele>853.9</ele>
        <time>2021-08-17T08:40:58Z</time>
        <sat>11</sat>
      </trkpt>
      <trkpt lat="42.330593" lon="-4.766217">
        <ele>854.2</ele>
        <time>2021-08-17T08:41:05Z</time>
        <sat>11</sat>
      </trkpt>
      <trkpt lat="42.330570" lon="-4.766324">
        <ele>854.2</ele>
        <time>2021-08-17T08:41:11Z</time>
        <sat>11</sat>
      </trkpt>
      <trkpt lat="42.330547" lon="-4.766440">
        <ele>854.0</ele>
        <time>2021-08-17T08:41:18Z</time>
        <sat>11</sat>
      </trkpt>
      <trkpt lat="42.330526" lon="-4.766559">
        <ele>854.0</ele>
        <time>2021-08-17T08:41:25Z</time>
        <sat>11</sat>
      </trkpt>
      <trkpt lat="42.330507" lon="-4.766669">
        <ele>854.0</ele>
        <time>2021-08-17T08:41:32Z</time>
        <sat>11</sat>
      </trkpt>
      <trkpt lat="42.330482" lon="-4.766781">
        <ele>854.1</ele>
        <time>2021-08-17T08:41:39Z</time>
        <sat>11</sat>
      </trkpt>
      <trkpt lat="42.330450" lon="-4.766891">
        <ele>854.2</ele>
        <time>2021-08-17T08:41:46Z</time>
        <sat>11</sat>
      </trkpt>
      <trkpt lat="42.330432" lon="-4.767004">
        <ele>854.3</ele>
        <time>2021-08-17T08:41:53Z</time>
        <sat>11</sat>
      </trkpt>
      <trkpt lat="42.330411" lon="-4.767123">
        <ele>854.2</ele>
        <time>2021-08-17T08:42:00Z</time>
        <sat>11</sat>
      </trkpt>
      <trkpt lat="42.330386" lon="-4.767237">
        <ele>854.4</ele>
        <time>2021-08-17T08:42:07Z</time>
        <sat>11</sat>
      </trkpt>
      <trkpt lat="42.330364" lon="-4.767353">
        <ele>854.4</ele>
        <time>2021-08-17T08:42:14Z</time>
        <sat>11</sat>
      </trkpt>
      <trkpt lat="42.330341" lon="-4.767469">
        <ele>854.7</ele>
        <time>2021-08-17T08:42:21Z</time>
        <sat>11</sat>
      </trkpt>
      <trkpt lat="42.330313" lon="-4.767584">
        <ele>854.8</ele>
        <time>2021-08-17T08:42:28Z</time>
        <sat>11</sat>
      </trkpt>
      <trkpt lat="42.330294" lon="-4.767698">
        <ele>854.9</ele>
        <time>2021-08-17T08:42:35Z</time>
        <sat>11</sat>
      </trkpt>
      <trkpt lat="42.330275" lon="-4.767812">
        <ele>855.0</ele>
        <time>2021-08-17T08:42:42Z</time>
        <sat>11</sat>
      </trkpt>
      <trkpt lat="42.330251" lon="-4.767928">
        <ele>855.0</ele>
        <time>2021-08-17T08:42:49Z</time>
        <sat>11</sat>
      </trkpt>
      <trkpt lat="42.330226" lon="-4.768044">
        <ele>855.1</ele>
        <time>2021-08-17T08:42:56Z</time>
        <sat>11</sat>
      </trkpt>
      <trkpt lat="42.330212" lon="-4.768160">
        <ele>855.2</ele>
        <time>2021-08-17T08:43:03Z</time>
        <sat>11</sat>
      </trkpt>
      <trkpt lat="42.330190" lon="-4.768283">
        <ele>855.1</ele>
        <time>2021-08-17T08:43:10Z</time>
        <sat>11</sat>
      </trkpt>
      <trkpt lat="42.330158" lon="-4.768401">
        <ele>855.0</ele>
        <time>2021-08-17T08:43:17Z</time>
        <sat>11</sat>
      </trkpt>
      <trkpt lat="42.330140" lon="-4.768520">
        <ele>854.9</ele>
        <time>2021-08-17T08:43:24Z</time>
        <sat>11</sat>
      </trkpt>
      <trkpt lat="42.330113" lon="-4.768635">
        <ele>854.9</ele>
        <time>2021-08-17T08:43:31Z</time>
        <sat>11</sat>
      </trkpt>
      <trkpt lat="42.330090" lon="-4.768747">
        <ele>855.0</ele>
        <time>2021-08-17T08:43:38Z</time>
        <sat>11</sat>
      </trkpt>
      <trkpt lat="42.330070" lon="-4.768862">
        <ele>855.2</ele>
        <time>2021-08-17T08:43:45Z</time>
        <sat>11</sat>
      </trkpt>
      <trkpt lat="42.330044" lon="-4.768980">
        <ele>855.2</ele>
        <time>2021-08-17T08:43:52Z</time>
        <sat>11</sat>
      </trkpt>
      <trkpt lat="42.330017" lon="-4.769093">
        <ele>855.3</ele>
        <time>2021-08-17T08:43:59Z</time>
        <sat>10</sat>
      </trkpt>
      <trkpt lat="42.330000" lon="-4.769204">
        <ele>855.3</ele>
        <time>2021-08-17T08:44:06Z</time>
        <sat>10</sat>
      </trkpt>
      <trkpt lat="42.329980" lon="-4.769323">
        <ele>855.4</ele>
        <time>2021-08-17T08:44:13Z</time>
        <sat>10</sat>
      </trkpt>
      <trkpt lat="42.329955" lon="-4.769440">
        <ele>855.5</ele>
        <time>2021-08-17T08:44:20Z</time>
        <sat>10</sat>
      </trkpt>
      <trkpt lat="42.329925" lon="-4.769552">
        <ele>855.5</ele>
        <time>2021-08-17T08:44:27Z</time>
        <sat>10</sat>
      </trkpt>
      <trkpt lat="42.329903" lon="-4.769670">
        <ele>855.8</ele>
        <time>2021-08-17T08:44:34Z</time>
        <sat>10</sat>
      </trkpt>
      <trkpt lat="42.329884" lon="-4.769785">
        <ele>856.0</ele>
        <time>2021-08-17T08:44:41Z</time>
        <sat>10</sat>
      </trkpt>
      <trkpt lat="42.329864" lon="-4.769892">
        <ele>856.1</ele>
        <time>2021-08-17T08:44:47Z</time>
        <sat>10</sat>
      </trkpt>
      <trkpt lat="42.329839" lon="-4.770007">
        <ele>856.3</ele>
        <time>2021-08-17T08:44:54Z</time>
        <sat>10</sat>
      </trkpt>
      <trkpt lat="42.329812" lon="-4.770122">
        <ele>856.7</ele>
        <time>2021-08-17T08:45:01Z</time>
        <sat>10</sat>
      </trkpt>
      <trkpt lat="42.329785" lon="-4.770241">
        <ele>857.1</ele>
        <time>2021-08-17T08:45:08Z</time>
        <sat>10</sat>
      </trkpt>
      <trkpt lat="42.329766" lon="-4.770353">
        <ele>857.7</ele>
        <time>2021-08-17T08:45:15Z</time>
        <sat>10</sat>
      </trkpt>
      <trkpt lat="42.329747" lon="-4.770468">
        <ele>858.0</ele>
        <time>2021-08-17T08:45:22Z</time>
        <sat>10</sat>
      </trkpt>
      <trkpt lat="42.329724" lon="-4.770583">
        <ele>858.5</ele>
        <time>2021-08-17T08:45:29Z</time>
        <sat>10</sat>
      </trkpt>
      <trkpt lat="42.329696" lon="-4.770699">
        <ele>858.8</ele>
        <time>2021-08-17T08:45:36Z</time>
        <sat>10</sat>
      </trkpt>
      <trkpt lat="42.329671" lon="-4.770814">
        <ele>859.2</ele>
        <time>2021-08-17T08:45:43Z</time>
        <sat>10</sat>
      </trkpt>
      <trkpt lat="42.329652" lon="-4.770930">
        <ele>859.4</ele>
        <time>2021-08-17T08:45:50Z</time>
        <sat>10</sat>
      </trkpt>
      <trkpt lat="42.329636" lon="-4.771042">
        <ele>859.5</ele>
        <time>2021-08-17T08:45:57Z</time>
        <sat>10</sat>
      </trkpt>
      <trkpt lat="42.329621" lon="-4.771157">
        <ele>859.5</ele>
        <time>2021-08-17T08:46:04Z</time>
        <sat>10</sat>
      </trkpt>
      <trkpt lat="42.329614" lon="-4.771274">
        <ele>859.5</ele>
        <time>2021-08-17T08:46:11Z</time>
        <sat>10</sat>
      </trkpt>
      <trkpt lat="42.329596" lon="-4.771388">
        <ele>859.5</ele>
        <time>2021-08-17T08:46:18Z</time>
        <sat>10</sat>
      </trkpt>
      <trkpt lat="42.329586" lon="-4.771508">
        <ele>859.3</ele>
        <time>2021-08-17T08:46:25Z</time>
        <sat>10</sat>
      </trkpt>
      <trkpt lat="42.329578" lon="-4.771630">
        <ele>859.4</ele>
        <time>2021-08-17T08:46:32Z</time>
        <sat>10</sat>
      </trkpt>
      <trkpt lat="42.329562" lon="-4.771749">
        <ele>859.5</ele>
        <time>2021-08-17T08:46:39Z</time>
        <sat>10</sat>
      </trkpt>
      <trkpt lat="42.329550" lon="-4.771872">
        <ele>859.7</ele>
        <time>2021-08-17T08:46:46Z</time>
        <sat>10</sat>
      </trkpt>
      <trkpt lat="42.329543" lon="-4.771988">
        <ele>859.7</ele>
        <time>2021-08-17T08:46:53Z</time>
        <sat>10</sat>
      </trkpt>
      <trkpt lat="42.329533" lon="-4.772107">
        <ele>859.8</ele>
        <time>2021-08-17T08:47:00Z</time>
        <sat>9</sat>
      </trkpt>
      <trkpt lat="42.329513" lon="-4.772225">
        <ele>859.8</ele>
        <time>2021-08-17T08:47:07Z</time>
        <sat>10</sat>
      </trkpt>
      <trkpt lat="42.329508" lon="-4.772349">
        <ele>859.6</ele>
        <time>2021-08-17T08:47:14Z</time>
        <sat>10</sat>
      </trkpt>
      <trkpt lat="42.329491" lon="-4.772472">
        <ele>859.7</ele>
        <time>2021-08-17T08:47:21Z</time>
        <sat>9</sat>
      </trkpt>
      <trkpt lat="42.329486" lon="-4.772592">
        <ele>859.6</ele>
        <time>2021-08-17T08:47:28Z</time>
        <sat>10</sat>
      </trkpt>
      <trkpt lat="42.329476" lon="-4.772709">
        <ele>859.7</ele>
        <time>2021-08-17T08:47:35Z</time>
        <sat>10</sat>
      </trkpt>
      <trkpt lat="42.329464" lon="-4.772836">
        <ele>859.7</ele>
        <time>2021-08-17T08:47:42Z</time>
        <sat>10</sat>
      </trkpt>
      <trkpt lat="42.329455" lon="-4.772954">
        <ele>859.7</ele>
        <time>2021-08-17T08:47:49Z</time>
        <sat>10</sat>
      </trkpt>
      <trkpt lat="42.329445" lon="-4.773079">
        <ele>859.8</ele>
        <time>2021-08-17T08:47:56Z</time>
        <sat>10</sat>
      </trkpt>
      <trkpt lat="42.329435" lon="-4.773202">
        <ele>859.8</ele>
        <time>2021-08-17T08:48:03Z</time>
        <sat>10</sat>
      </trkpt>
      <trkpt lat="42.329432" lon="-4.773324">
        <ele>859.8</ele>
        <time>2021-08-17T08:48:10Z</time>
        <sat>10</sat>
      </trkpt>
      <trkpt lat="42.329419" lon="-4.773443">
        <ele>859.9</ele>
        <time>2021-08-17T08:48:17Z</time>
        <sat>10</sat>
      </trkpt>
      <trkpt lat="42.329410" lon="-4.773561">
        <ele>860.0</ele>
        <time>2021-08-17T08:48:24Z</time>
        <sat>9</sat>
      </trkpt>
      <trkpt lat="42.329404" lon="-4.773682">
        <ele>860.2</ele>
        <time>2021-08-17T08:48:31Z</time>
        <sat>9</sat>
      </trkpt>
      <trkpt lat="42.329388" lon="-4.773804">
        <ele>860.2</ele>
        <time>2021-08-17T08:48:38Z</time>
        <sat>9</sat>
      </trkpt>
      <trkpt lat="42.329381" lon="-4.773922">
        <ele>860.2</ele>
        <time>2021-08-17T08:48:45Z</time>
        <sat>9</sat>
      </trkpt>
      <trkpt lat="42.329367" lon="-4.774041">
        <ele>860.2</ele>
        <time>2021-08-17T08:48:52Z</time>
        <sat>10</sat>
      </trkpt>
      <trkpt lat="42.329360" lon="-4.774160">
        <ele>860.2</ele>
        <time>2021-08-17T08:48:59Z</time>
        <sat>10</sat>
      </trkpt>
      <trkpt lat="42.329345" lon="-4.774279">
        <ele>860.1</ele>
        <time>2021-08-17T08:49:06Z</time>
        <sat>10</sat>
      </trkpt>
      <trkpt lat="42.329342" lon="-4.774401">
        <ele>860.1</ele>
        <time>2021-08-17T08:49:13Z</time>
        <sat>10</sat>
      </trkpt>
      <trkpt lat="42.329333" lon="-4.774526">
        <ele>860.3</ele>
        <time>2021-08-17T08:49:20Z</time>
        <sat>10</sat>
      </trkpt>
      <trkpt lat="42.329321" lon="-4.774645">
        <ele>860.4</ele>
        <time>2021-08-17T08:49:27Z</time>
        <sat>9</sat>
      </trkpt>
      <trkpt lat="42.329313" lon="-4.774770">
        <ele>860.3</ele>
        <time>2021-08-17T08:49:34Z</time>
        <sat>10</sat>
      </trkpt>
      <trkpt lat="42.329295" lon="-4.774893">
        <ele>860.4</ele>
        <time>2021-08-17T08:49:41Z</time>
        <sat>9</sat>
      </trkpt>
      <trkpt lat="42.329288" lon="-4.775013">
        <ele>860.3</ele>
        <time>2021-08-17T08:49:48Z</time>
        <sat>9</sat>
      </trkpt>
      <trkpt lat="42.329282" lon="-4.775130">
        <ele>860.2</ele>
        <time>2021-08-17T08:49:55Z</time>
        <sat>10</sat>
      </trkpt>
      <trkpt lat="42.329269" lon="-4.775252">
        <ele>860.1</ele>
        <time>2021-08-17T08:50:02Z</time>
        <sat>9</sat>
      </trkpt>
      <trkpt lat="42.329256" lon="-4.775370">
        <ele>860.0</ele>
        <time>2021-08-17T08:50:09Z</time>
        <sat>10</sat>
      </trkpt>
      <trkpt lat="42.329249" lon="-4.775492">
        <ele>860.1</ele>
        <time>2021-08-17T08:50:16Z</time>
        <sat>9</sat>
      </trkpt>
      <trkpt lat="42.329240" lon="-4.775601">
        <ele>860.3</ele>
        <time>2021-08-17T08:50:22Z</time>
        <sat>9</sat>
      </trkpt>
      <trkpt lat="42.329228" lon="-4.775722">
        <ele>860.4</ele>
        <time>2021-08-17T08:50:29Z</time>
        <sat>10</sat>
      </trkpt>
      <trkpt lat="42.329224" lon="-4.775844">
        <ele>860.2</ele>
        <time>2021-08-17T08:50:36Z</time>
        <sat>10</sat>
      </trkpt>
      <trkpt lat="42.329209" lon="-4.775968">
        <ele>860.3</ele>
        <time>2021-08-17T08:50:43Z</time>
        <sat>10</sat>
      </trkpt>
      <trkpt lat="42.329201" lon="-4.776090">
        <ele>860.5</ele>
        <time>2021-08-17T08:50:50Z</time>
        <sat>10</sat>
      </trkpt>
      <trkpt lat="42.329199" lon="-4.776214">
        <ele>860.6</ele>
        <time>2021-08-17T08:50:57Z</time>
        <sat>10</sat>
      </trkpt>
      <trkpt lat="42.329188" lon="-4.776335">
        <ele>860.6</ele>
        <time>2021-08-17T08:51:04Z</time>
        <sat>10</sat>
      </trkpt>
      <trkpt lat="42.329184" lon="-4.776452">
        <ele>860.6</ele>
        <time>2021-08-17T08:51:11Z</time>
        <sat>10</sat>
      </trkpt>
      <trkpt lat="42.329177" lon="-4.776579">
        <ele>860.6</ele>
        <time>2021-08-17T08:51:18Z</time>
        <sat>9</sat>
      </trkpt>
      <trkpt lat="42.329165" lon="-4.776701">
        <ele>860.4</ele>
        <time>2021-08-17T08:51:25Z</time>
        <sat>9</sat>
      </trkpt>
      <trkpt lat="42.329159" lon="-4.776811">
        <ele>860.4</ele>
        <time>2021-08-17T08:51:31Z</time>
        <sat>10</sat>
      </trkpt>
      <trkpt lat="42.329140" lon="-4.776934">
        <ele>860.5</ele>
        <time>2021-08-17T08:51:38Z</time>
        <sat>10</sat>
      </trkpt>
      <trkpt lat="42.329138" lon="-4.777059">
        <ele>860.5</ele>
        <time>2021-08-17T08:51:45Z</time>
        <sat>10</sat>
      </trkpt>
      <trkpt lat="42.329130" lon="-4.777182">
        <ele>860.6</ele>
        <time>2021-08-17T08:51:52Z</time>
        <sat>10</sat>
      </trkpt>
      <trkpt lat="42.329117" lon="-4.777300">
        <ele>860.7</ele>
        <time>2021-08-17T08:51:59Z</time>
        <sat>10</sat>
      </trkpt>
      <trkpt lat="42.329114" lon="-4.777422">
        <ele>860.8</ele>
        <time>2021-08-17T08:52:06Z</time>
        <sat>10</sat>
      </trkpt>
      <trkpt lat="42.329110" lon="-4.777545">
        <ele>861.0</ele>
        <time>2021-08-17T08:52:13Z</time>
        <sat>10</sat>
      </trkpt>
      <trkpt lat="42.329099" lon="-4.777660">
        <ele>861.1</ele>
        <time>2021-08-17T08:52:20Z</time>
        <sat>10</sat>
      </trkpt>
      <trkpt lat="42.329096" lon="-4.777781">
        <ele>861.2</ele>
        <time>2021-08-17T08:52:27Z</time>
        <sat>10</sat>
      </trkpt>
      <trkpt lat="42.329094" lon="-4.777897">
        <ele>861.2</ele>
        <time>2021-08-17T08:52:34Z</time>
        <sat>10</sat>
      </trkpt>
      <trkpt lat="42.329085" lon="-4.778015">
        <ele>861.1</ele>
        <time>2021-08-17T08:52:41Z</time>
        <sat>10</sat>
      </trkpt>
      <trkpt lat="42.329090" lon="-4.778138">
        <ele>861.0</ele>
        <time>2021-08-17T08:52:48Z</time>
        <sat>10</sat>
      </trkpt>
      <trkpt lat="42.329081" lon="-4.778263">
        <ele>861.0</ele>
        <time>2021-08-17T08:52:55Z</time>
        <sat>10</sat>
      </trkpt>
      <trkpt lat="42.329082" lon="-4.778385">
        <ele>861.0</ele>
        <time>2021-08-17T08:53:02Z</time>
        <sat>10</sat>
      </trkpt>
      <trkpt lat="42.329076" lon="-4.778497">
        <ele>861.0</ele>
        <time>2021-08-17T08:53:08Z</time>
        <sat>10</sat>
      </trkpt>
      <trkpt lat="42.329077" lon="-4.778618">
        <ele>861.1</ele>
        <time>2021-08-17T08:53:15Z</time>
        <sat>10</sat>
      </trkpt>
      <trkpt lat="42.329077" lon="-4.778743">
        <ele>861.1</ele>
        <time>2021-08-17T08:53:22Z</time>
        <sat>10</sat>
      </trkpt>
      <trkpt lat="42.329069" lon="-4.778862">
        <ele>861.1</ele>
        <time>2021-08-17T08:53:29Z</time>
        <sat>10</sat>
      </trkpt>
      <trkpt lat="42.329069" lon="-4.778982">
        <ele>860.5</ele>
        <time>2021-08-17T08:53:36Z</time>
        <sat>10</sat>
      </trkpt>
      <trkpt lat="42.329066" lon="-4.779100">
        <ele>860.7</ele>
        <time>2021-08-17T08:53:43Z</time>
        <sat>10</sat>
      </trkpt>
      <trkpt lat="42.329073" lon="-4.779222">
        <ele>860.5</ele>
        <time>2021-08-17T08:53:50Z</time>
        <sat>9</sat>
      </trkpt>
      <trkpt lat="42.329074" lon="-4.779348">
        <ele>859.4</ele>
        <time>2021-08-17T08:53:58Z</time>
        <sat>10</sat>
      </trkpt>
      <trkpt lat="42.329068" lon="-4.779473">
        <ele>859.0</ele>
        <time>2021-08-17T08:54:05Z</time>
        <sat>10</sat>
      </trkpt>
      <trkpt lat="42.329075" lon="-4.779583">
        <ele>858.8</ele>
        <time>2021-08-17T08:54:11Z</time>
        <sat>10</sat>
      </trkpt>
      <trkpt lat="42.329068" lon="-4.779702">
        <ele>858.3</ele>
        <time>2021-08-17T08:54:17Z</time>
        <sat>10</sat>
      </trkpt>
      <trkpt lat="42.329067" lon="-4.779824">
        <ele>860.2</ele>
        <time>2021-08-17T08:54:24Z</time>
        <sat>10</sat>
      </trkpt>
      <trkpt lat="42.329060" lon="-4.779950">
        <ele>860.9</ele>
        <time>2021-08-17T08:54:31Z</time>
        <sat>10</sat>
      </trkpt>
      <trkpt lat="42.329058" lon="-4.780074">
        <ele>861.2</ele>
        <time>2021-08-17T08:54:38Z</time>
        <sat>10</sat>
      </trkpt>
      <trkpt lat="42.329047" lon="-4.780185">
        <ele>861.2</ele>
        <time>2021-08-17T08:54:44Z</time>
        <sat>10</sat>
      </trkpt>
      <trkpt lat="42.329047" lon="-4.780308">
        <ele>861.2</ele>
        <time>2021-08-17T08:54:51Z</time>
        <sat>10</sat>
      </trkpt>
      <trkpt lat="42.329044" lon="-4.780433">
        <ele>861.2</ele>
        <time>2021-08-17T08:54:58Z</time>
        <sat>10</sat>
      </trkpt>
      <trkpt lat="42.329039" lon="-4.780543">
        <ele>861.2</ele>
        <time>2021-08-17T08:55:04Z</time>
        <sat>10</sat>
      </trkpt>
      <trkpt lat="42.329030" lon="-4.780664">
        <ele>861.1</ele>
        <time>2021-08-17T08:55:11Z</time>
        <sat>10</sat>
      </trkpt>
      <trkpt lat="42.329020" lon="-4.780788">
        <ele>861.0</ele>
        <time>2021-08-17T08:55:18Z</time>
        <sat>10</sat>
      </trkpt>
      <trkpt lat="42.329020" lon="-4.780907">
        <ele>861.0</ele>
        <time>2021-08-17T08:55:25Z</time>
        <sat>10</sat>
      </trkpt>
      <trkpt lat="42.329025" lon="-4.781017">
        <ele>861.1</ele>
        <time>2021-08-17T08:55:31Z</time>
        <sat>10</sat>
      </trkpt>
      <trkpt lat="42.329020" lon="-4.781140">
        <ele>861.1</ele>
        <time>2021-08-17T08:55:38Z</time>
        <sat>10</sat>
      </trkpt>
      <trkpt lat="42.329021" lon="-4.781249">
        <ele>861.1</ele>
        <time>2021-08-17T08:55:44Z</time>
        <sat>10</sat>
      </trkpt>
      <trkpt lat="42.329016" lon="-4.781367">
        <ele>861.0</ele>
        <time>2021-08-17T08:55:51Z</time>
        <sat>10</sat>
      </trkpt>
      <trkpt lat="42.329014" lon="-4.781477">
        <ele>860.9</ele>
        <time>2021-08-17T08:55:57Z</time>
        <sat>10</sat>
      </trkpt>
      <trkpt lat="42.329013" lon="-4.781594">
        <ele>860.8</ele>
        <time>2021-08-17T08:56:05Z</time>
        <sat>10</sat>
      </trkpt>
      <trkpt lat="42.329006" lon="-4.781706">
        <ele>860.9</ele>
        <time>2021-08-17T08:56:11Z</time>
        <sat>10</sat>
      </trkpt>
      <trkpt lat="42.329004" lon="-4.781821">
        <ele>861.0</ele>
        <time>2021-08-17T08:56:18Z</time>
        <sat>11</sat>
      </trkpt>
      <trkpt lat="42.329006" lon="-4.781941">
        <ele>861.0</ele>
        <time>2021-08-17T08:56:25Z</time>
        <sat>11</sat>
      </trkpt>
      <trkpt lat="42.329008" lon="-4.782063">
        <ele>861.2</ele>
        <time>2021-08-17T08:56:32Z</time>
        <sat>11</sat>
      </trkpt>
      <trkpt lat="42.329004" lon="-4.782184">
        <ele>861.3</ele>
        <time>2021-08-17T08:56:39Z</time>
        <sat>11</sat>
      </trkpt>
      <trkpt lat="42.329005" lon="-4.782308">
        <ele>861.4</ele>
        <time>2021-08-17T08:56:46Z</time>
        <sat>11</sat>
      </trkpt>
      <trkpt lat="42.328996" lon="-4.782434">
        <ele>861.3</ele>
        <time>2021-08-17T08:56:53Z</time>
        <sat>11</sat>
      </trkpt>
      <trkpt lat="42.328998" lon="-4.782557">
        <ele>861.3</ele>
        <time>2021-08-17T08:57:00Z</time>
        <sat>11</sat>
      </trkpt>
      <trkpt lat="42.328994" lon="-4.782666">
        <ele>861.3</ele>
        <time>2021-08-17T08:57:06Z</time>
        <sat>11</sat>
      </trkpt>
      <trkpt lat="42.328996" lon="-4.782791">
        <ele>861.2</ele>
        <time>2021-08-17T08:57:13Z</time>
        <sat>11</sat>
      </trkpt>
      <trkpt lat="42.328989" lon="-4.782903">
        <ele>861.1</ele>
        <time>2021-08-17T08:57:19Z</time>
        <sat>11</sat>
      </trkpt>
      <trkpt lat="42.328995" lon="-4.783024">
        <ele>861.1</ele>
        <time>2021-08-17T08:57:26Z</time>
        <sat>11</sat>
      </trkpt>
      <trkpt lat="42.328998" lon="-4.783146">
        <ele>861.1</ele>
        <time>2021-08-17T08:57:33Z</time>
        <sat>11</sat>
      </trkpt>
      <trkpt lat="42.328990" lon="-4.783273">
        <ele>861.2</ele>
        <time>2021-08-17T08:57:40Z</time>
        <sat>11</sat>
      </trkpt>
      <trkpt lat="42.328988" lon="-4.783398">
        <ele>861.3</ele>
        <time>2021-08-17T08:57:47Z</time>
        <sat>11</sat>
      </trkpt>
      <trkpt lat="42.328982" lon="-4.783517">
        <ele>861.4</ele>
        <time>2021-08-17T08:57:54Z</time>
        <sat>11</sat>
      </trkpt>
      <trkpt lat="42.328979" lon="-4.783630">
        <ele>861.4</ele>
        <time>2021-08-17T08:58:01Z</time>
        <sat>10</sat>
      </trkpt>
      <trkpt lat="42.328981" lon="-4.783751">
        <ele>861.4</ele>
        <time>2021-08-17T08:58:08Z</time>
        <sat>10</sat>
      </trkpt>
      <trkpt lat="42.328983" lon="-4.783870">
        <ele>861.5</ele>
        <time>2021-08-17T08:58:15Z</time>
        <sat>11</sat>
      </trkpt>
      <trkpt lat="42.328984" lon="-4.783996">
        <ele>861.4</ele>
        <time>2021-08-17T08:58:22Z</time>
        <sat>11</sat>
      </trkpt>
      <trkpt lat="42.328983" lon="-4.784123">
        <ele>861.4</ele>
        <time>2021-08-17T08:58:29Z</time>
        <sat>10</sat>
      </trkpt>
      <trkpt lat="42.328976" lon="-4.784233">
        <ele>861.5</ele>
        <time>2021-08-17T08:58:35Z</time>
        <sat>10</sat>
      </trkpt>
      <trkpt lat="42.328975" lon="-4.784343">
        <ele>861.5</ele>
        <time>2021-08-17T08:58:41Z</time>
        <sat>11</sat>
      </trkpt>
      <trkpt lat="42.328972" lon="-4.784453">
        <ele>861.5</ele>
        <time>2021-08-17T08:58:47Z</time>
        <sat>10</sat>
      </trkpt>
      <trkpt lat="42.328974" lon="-4.784565">
        <ele>861.3</ele>
        <time>2021-08-17T08:58:53Z</time>
        <sat>11</sat>
      </trkpt>
      <trkpt lat="42.328973" lon="-4.784692">
        <ele>861.3</ele>
        <time>2021-08-17T08:59:00Z</time>
        <sat>11</sat>
      </trkpt>
      <trkpt lat="42.328976" lon="-4.784811">
        <ele>861.2</ele>
        <time>2021-08-17T08:59:07Z</time>
        <sat>10</sat>
      </trkpt>
      <trkpt lat="42.328976" lon="-4.784929">
        <ele>861.3</ele>
        <time>2021-08-17T08:59:14Z</time>
        <sat>11</sat>
      </trkpt>
      <trkpt lat="42.328967" lon="-4.785051">
        <ele>861.3</ele>
        <time>2021-08-17T08:59:21Z</time>
        <sat>11</sat>
      </trkpt>
      <trkpt lat="42.328969" lon="-4.785172">
        <ele>861.3</ele>
        <time>2021-08-17T08:59:28Z</time>
        <sat>11</sat>
      </trkpt>
      <trkpt lat="42.328971" lon="-4.785291">
        <ele>861.3</ele>
        <time>2021-08-17T08:59:35Z</time>
        <sat>11</sat>
      </trkpt>
      <trkpt lat="42.328964" lon="-4.785412">
        <ele>861.3</ele>
        <time>2021-08-17T08:59:42Z</time>
        <sat>11</sat>
      </trkpt>
      <trkpt lat="42.328958" lon="-4.785532">
        <ele>861.4</ele>
        <time>2021-08-17T08:59:49Z</time>
        <sat>11</sat>
      </trkpt>
      <trkpt lat="42.328961" lon="-4.785652">
        <ele>861.9</ele>
        <time>2021-08-17T08:59:56Z</time>
        <sat>11</sat>
      </trkpt>
      <trkpt lat="42.328959" lon="-4.785780">
        <ele>861.9</ele>
        <time>2021-08-17T09:00:03Z</time>
        <sat>11</sat>
      </trkpt>
      <trkpt lat="42.328958" lon="-4.785891">
        <ele>862.0</ele>
        <time>2021-08-17T09:00:09Z</time>
        <sat>11</sat>
      </trkpt>
      <trkpt lat="42.328958" lon="-4.786003">
        <ele>862.1</ele>
        <time>2021-08-17T09:00:15Z</time>
        <sat>11</sat>
      </trkpt>
      <trkpt lat="42.328957" lon="-4.786130">
        <ele>862.2</ele>
        <time>2021-08-17T09:00:22Z</time>
        <sat>10</sat>
      </trkpt>
      <trkpt lat="42.328964" lon="-4.786255">
        <ele>862.2</ele>
        <time>2021-08-17T09:00:29Z</time>
        <sat>11</sat>
      </trkpt>
      <trkpt lat="42.328958" lon="-4.786366">
        <ele>862.2</ele>
        <time>2021-08-17T09:00:35Z</time>
        <sat>10</sat>
      </trkpt>
      <trkpt lat="42.328959" lon="-4.786492">
        <ele>862.0</ele>
        <time>2021-08-17T09:00:42Z</time>
        <sat>10</sat>
      </trkpt>
      <trkpt lat="42.328957" lon="-4.786618">
        <ele>861.9</ele>
        <time>2021-08-17T09:00:49Z</time>
        <sat>10</sat>
      </trkpt>
      <trkpt lat="42.328960" lon="-4.786741">
        <ele>861.8</ele>
        <time>2021-08-17T09:00:56Z</time>
        <sat>10</sat>
      </trkpt>
      <trkpt lat="42.328959" lon="-4.786866">
        <ele>861.5</ele>
        <time>2021-08-17T09:01:03Z</time>
        <sat>10</sat>
      </trkpt>
      <trkpt lat="42.328961" lon="-4.786993">
        <ele>861.3</ele>
        <time>2021-08-17T09:01:10Z</time>
        <sat>10</sat>
      </trkpt>
      <trkpt lat="42.328962" lon="-4.787117">
        <ele>861.3</ele>
        <time>2021-08-17T09:01:17Z</time>
        <sat>10</sat>
      </trkpt>
      <trkpt lat="42.328962" lon="-4.787244">
        <ele>861.3</ele>
        <time>2021-08-17T09:01:24Z</time>
        <sat>11</sat>
      </trkpt>
      <trkpt lat="42.328966" lon="-4.787368">
        <ele>861.5</ele>
        <time>2021-08-17T09:01:31Z</time>
        <sat>10</sat>
      </trkpt>
      <trkpt lat="42.328966" lon="-4.787479">
        <ele>861.5</ele>
        <time>2021-08-17T09:01:37Z</time>
        <sat>10</sat>
      </trkpt>
      <trkpt lat="42.328970" lon="-4.787602">
        <ele>861.5</ele>
        <time>2021-08-17T09:01:44Z</time>
        <sat>10</sat>
      </trkpt>
      <trkpt lat="42.328974" lon="-4.787726">
        <ele>861.4</ele>
        <time>2021-08-17T09:01:51Z</time>
        <sat>10</sat>
      </trkpt>
      <trkpt lat="42.328974" lon="-4.787854">
        <ele>861.4</ele>
        <time>2021-08-17T09:01:58Z</time>
        <sat>10</sat>
      </trkpt>
      <trkpt lat="42.328978" lon="-4.787977">
        <ele>861.4</ele>
        <time>2021-08-17T09:02:05Z</time>
        <sat>11</sat>
      </trkpt>
      <trkpt lat="42.328984" lon="-4.788102">
        <ele>861.5</ele>
        <time>2021-08-17T09:02:12Z</time>
        <sat>10</sat>
      </trkpt>
      <trkpt lat="42.328981" lon="-4.788223">
        <ele>861.6</ele>
        <time>2021-08-17T09:02:19Z</time>
        <sat>11</sat>
      </trkpt>
      <trkpt lat="42.328986" lon="-4.788345">
        <ele>861.7</ele>
        <time>2021-08-17T09:02:26Z</time>
        <sat>10</sat>
      </trkpt>
      <trkpt lat="42.328992" lon="-4.788464">
        <ele>861.9</ele>
        <time>2021-08-17T09:02:33Z</time>
        <sat>11</sat>
      </trkpt>
      <trkpt lat="42.328987" lon="-4.788585">
        <ele>862.3</ele>
        <time>2021-08-17T09:02:40Z</time>
        <sat>10</sat>
      </trkpt>
      <trkpt lat="42.329001" lon="-4.788709">
        <ele>862.6</ele>
        <time>2021-08-17T09:02:47Z</time>
        <sat>10</sat>
      </trkpt>
      <trkpt lat="42.328997" lon="-4.788819">
        <ele>862.8</ele>
        <time>2021-08-17T09:02:53Z</time>
        <sat>10</sat>
      </trkpt>
      <trkpt lat="42.329005" lon="-4.788943">
        <ele>863.1</ele>
        <time>2021-08-17T09:03:00Z</time>
        <sat>10</sat>
      </trkpt>
      <trkpt lat="42.329000" lon="-4.789052">
        <ele>863.0</ele>
        <time>2021-08-17T09:03:06Z</time>
        <sat>11</sat>
      </trkpt>
      <trkpt lat="42.329003" lon="-4.789176">
        <ele>863.0</ele>
        <time>2021-08-17T09:03:13Z</time>
        <sat>10</sat>
      </trkpt>
      <trkpt lat="42.329001" lon="-4.789288">
        <ele>863.0</ele>
        <time>2021-08-17T09:03:19Z</time>
        <sat>10</sat>
      </trkpt>
      <trkpt lat="42.329010" lon="-4.789399">
        <ele>863.3</ele>
        <time>2021-08-17T09:03:25Z</time>
        <sat>10</sat>
      </trkpt>
      <trkpt lat="42.329009" lon="-4.789510">
        <ele>863.3</ele>
        <time>2021-08-17T09:03:31Z</time>
        <sat>10</sat>
      </trkpt>
      <trkpt lat="42.329017" lon="-4.789620">
        <ele>863.0</ele>
        <time>2021-08-17T09:03:37Z</time>
        <sat>10</sat>
      </trkpt>
      <trkpt lat="42.329016" lon="-4.789745">
        <ele>862.9</ele>
        <time>2021-08-17T09:03:44Z</time>
        <sat>10</sat>
      </trkpt>
      <trkpt lat="42.329021" lon="-4.789853">
        <ele>862.9</ele>
        <time>2021-08-17T09:03:50Z</time>
        <sat>10</sat>
      </trkpt>
      <trkpt lat="42.329020" lon="-4.789975">
        <ele>863.1</ele>
        <time>2021-08-17T09:03:57Z</time>
        <sat>11</sat>
      </trkpt>
      <trkpt lat="42.329021" lon="-4.790101">
        <ele>863.2</ele>
        <time>2021-08-17T09:04:04Z</time>
        <sat>10</sat>
      </trkpt>
      <trkpt lat="42.329014" lon="-4.790210">
        <ele>863.1</ele>
        <time>2021-08-17T09:04:10Z</time>
        <sat>10</sat>
      </trkpt>
      <trkpt lat="42.329017" lon="-4.790321">
        <ele>863.1</ele>
        <time>2021-08-17T09:04:16Z</time>
        <sat>10</sat>
      </trkpt>
      <trkpt lat="42.329018" lon="-4.790445">
        <ele>863.1</ele>
        <time>2021-08-17T09:04:23Z</time>
        <sat>11</sat>
      </trkpt>
      <trkpt lat="42.329022" lon="-4.790556">
        <ele>862.7</ele>
        <time>2021-08-17T09:04:29Z</time>
        <sat>11</sat>
      </trkpt>
      <trkpt lat="42.329025" lon="-4.790677">
        <ele>862.5</ele>
        <time>2021-08-17T09:04:36Z</time>
        <sat>11</sat>
      </trkpt>
      <trkpt lat="42.329029" lon="-4.790787">
        <ele>862.3</ele>
        <time>2021-08-17T09:04:42Z</time>
        <sat>11</sat>
      </trkpt>
      <trkpt lat="42.329029" lon="-4.790912">
        <ele>862.0</ele>
        <time>2021-08-17T09:04:49Z</time>
        <sat>11</sat>
      </trkpt>
      <trkpt lat="42.329037" lon="-4.791024">
        <ele>861.9</ele>
        <time>2021-08-17T09:04:55Z</time>
        <sat>11</sat>
      </trkpt>
      <trkpt lat="42.329039" lon="-4.791146">
        <ele>862.1</ele>
        <time>2021-08-17T09:05:02Z</time>
        <sat>10</sat>
      </trkpt>
      <trkpt lat="42.329046" lon="-4.791255">
        <ele>862.3</ele>
        <time>2021-08-17T09:05:08Z</time>
        <sat>10</sat>
      </trkpt>
      <trkpt lat="42.329047" lon="-4.791378">
        <ele>862.3</ele>
        <time>2021-08-17T09:05:15Z</time>
        <sat>10</sat>
      </trkpt>
      <trkpt lat="42.329052" lon="-4.791499">
        <ele>862.2</ele>
        <time>2021-08-17T09:05:22Z</time>
        <sat>10</sat>
      </trkpt>
      <trkpt lat="42.329055" lon="-4.791620">
        <ele>862.3</ele>
        <time>2021-08-17T09:05:29Z</time>
        <sat>10</sat>
      </trkpt>
      <trkpt lat="42.329059" lon="-4.791742">
        <ele>862.3</ele>
        <time>2021-08-17T09:05:36Z</time>
        <sat>10</sat>
      </trkpt>
      <trkpt lat="42.329064" lon="-4.791862">
        <ele>862.3</ele>
        <time>2021-08-17T09:05:43Z</time>
        <sat>11</sat>
      </trkpt>
      <trkpt lat="42.329056" lon="-4.791972">
        <ele>862.2</ele>
        <time>2021-08-17T09:05:49Z</time>
        <sat>11</sat>
      </trkpt>
      <trkpt lat="42.329064" lon="-4.792098">
        <ele>862.3</ele>
        <time>2021-08-17T09:05:56Z</time>
        <sat>10</sat>
      </trkpt>
      <trkpt lat="42.329057" lon="-4.792224">
        <ele>862.2</ele>
        <time>2021-08-17T09:06:03Z</time>
        <sat>11</sat>
      </trkpt>
      <trkpt lat="42.329059" lon="-4.792348">
        <ele>862.1</ele>
        <time>2021-08-17T09:06:10Z</time>
        <sat>11</sat>
      </trkpt>
      <trkpt lat="42.329057" lon="-4.792458">
        <ele>862.2</ele>
        <time>2021-08-17T09:06:16Z</time>
        <sat>10</sat>
      </trkpt>
      <trkpt lat="42.329050" lon="-4.792580">
        <ele>862.3</ele>
        <time>2021-08-17T09:06:23Z</time>
        <sat>12</sat>
      </trkpt>
      <trkpt lat="42.329051" lon="-4.792689">
        <ele>862.3</ele>
        <time>2021-08-17T09:06:29Z</time>
        <sat>11</sat>
      </trkpt>
      <trkpt lat="42.329047" lon="-4.792811">
        <ele>862.3</ele>
        <time>2021-08-17T09:06:36Z</time>
        <sat>11</sat>
      </trkpt>
      <trkpt lat="42.329043" lon="-4.792931">
        <ele>862.3</ele>
        <time>2021-08-17T09:06:43Z</time>
        <sat>12</sat>
      </trkpt>
      <trkpt lat="42.329049" lon="-4.793041">
        <ele>861.8</ele>
        <time>2021-08-17T09:06:55Z</time>
        <sat>11</sat>
      </trkpt>
      <trkpt lat="42.329040" lon="-4.793160">
        <ele>861.7</ele>
        <time>2021-08-17T09:07:04Z</time>
        <sat>12</sat>
      </trkpt>
      <trkpt lat="42.329033" lon="-4.793273">
        <ele>861.7</ele>
        <time>2021-08-17T09:07:11Z</time>
        <sat>12</sat>
      </trkpt>
      <trkpt lat="42.329028" lon="-4.793399">
        <ele>861.9</ele>
        <time>2021-08-17T09:07:19Z</time>
        <sat>12</sat>
      </trkpt>
      <trkpt lat="42.329015" lon="-4.793516">
        <ele>861.8</ele>
        <time>2021-08-17T09:07:26Z</time>
        <sat>12</sat>
      </trkpt>
      <trkpt lat="42.329014" lon="-4.793633">
        <ele>861.7</ele>
        <time>2021-08-17T09:07:33Z</time>
        <sat>12</sat>
      </trkpt>
      <trkpt lat="42.329013" lon="-4.793751">
        <ele>861.6</ele>
        <time>2021-08-17T09:07:40Z</time>
        <sat>12</sat>
      </trkpt>
      <trkpt lat="42.329005" lon="-4.793864">
        <ele>861.6</ele>
        <time>2021-08-17T09:07:47Z</time>
        <sat>12</sat>
      </trkpt>
      <trkpt lat="42.328999" lon="-4.793974">
        <ele>861.7</ele>
        <time>2021-08-17T09:07:54Z</time>
        <sat>12</sat>
      </trkpt>
      <trkpt lat="42.328995" lon="-4.794095">
        <ele>861.8</ele>
        <time>2021-08-17T09:08:02Z</time>
        <sat>12</sat>
      </trkpt>
      <trkpt lat="42.328989" lon="-4.794214">
        <ele>861.9</ele>
        <time>2021-08-17T09:08:09Z</time>
        <sat>12</sat>
      </trkpt>
      <trkpt lat="42.328990" lon="-4.794334">
        <ele>861.9</ele>
        <time>2021-08-17T09:08:16Z</time>
        <sat>11</sat>
      </trkpt>
      <trkpt lat="42.328982" lon="-4.794443">
        <ele>861.9</ele>
        <time>2021-08-17T09:08:22Z</time>
        <sat>12</sat>
      </trkpt>
      <trkpt lat="42.328981" lon="-4.794569">
        <ele>861.9</ele>
        <time>2021-08-17T09:08:29Z</time>
        <sat>12</sat>
      </trkpt>
      <trkpt lat="42.328976" lon="-4.794697">
        <ele>861.8</ele>
        <time>2021-08-17T09:08:36Z</time>
        <sat>12</sat>
      </trkpt>
      <trkpt lat="42.328972" lon="-4.794822">
        <ele>861.7</ele>
        <time>2021-08-17T09:08:43Z</time>
        <sat>12</sat>
      </trkpt>
      <trkpt lat="42.328974" lon="-4.794935">
        <ele>861.7</ele>
        <time>2021-08-17T09:08:49Z</time>
        <sat>11</sat>
      </trkpt>
      <trkpt lat="42.328968" lon="-4.795059">
        <ele>861.7</ele>
        <time>2021-08-17T09:08:56Z</time>
        <sat>12</sat>
      </trkpt>
      <trkpt lat="42.328964" lon="-4.795184">
        <ele>861.7</ele>
        <time>2021-08-17T09:09:03Z</time>
        <sat>12</sat>
      </trkpt>
      <trkpt lat="42.328952" lon="-4.795308">
        <ele>861.8</ele>
        <time>2021-08-17T09:09:10Z</time>
        <sat>12</sat>
      </trkpt>
      <trkpt lat="42.328947" lon="-4.795432">
        <ele>861.7</ele>
        <time>2021-08-17T09:09:17Z</time>
        <sat>12</sat>
      </trkpt>
      <trkpt lat="42.328947" lon="-4.795547">
        <ele>861.7</ele>
        <time>2021-08-17T09:09:23Z</time>
        <sat>12</sat>
      </trkpt>
      <trkpt lat="42.328946" lon="-4.795674">
        <ele>861.7</ele>
        <time>2021-08-17T09:09:30Z</time>
        <sat>12</sat>
      </trkpt>
      <trkpt lat="42.328944" lon="-4.795787">
        <ele>861.5</ele>
        <time>2021-08-17T09:09:36Z</time>
        <sat>12</sat>
      </trkpt>
      <trkpt lat="42.328939" lon="-4.795913">
        <ele>861.4</ele>
        <time>2021-08-17T09:09:43Z</time>
        <sat>12</sat>
      </trkpt>
      <trkpt lat="42.328941" lon="-4.796025">
        <ele>861.5</ele>
        <time>2021-08-17T09:09:49Z</time>
        <sat>12</sat>
      </trkpt>
      <trkpt lat="42.328930" lon="-4.796147">
        <ele>861.4</ele>
        <time>2021-08-17T09:09:56Z</time>
        <sat>12</sat>
      </trkpt>
      <trkpt lat="42.328935" lon="-4.796259">
        <ele>861.4</ele>
        <time>2021-08-17T09:10:02Z</time>
        <sat>12</sat>
      </trkpt>
      <trkpt lat="42.328928" lon="-4.796383">
        <ele>861.4</ele>
        <time>2021-08-17T09:10:09Z</time>
        <sat>12</sat>
      </trkpt>
      <trkpt lat="42.328950" lon="-4.796490">
        <ele>861.2</ele>
        <time>2021-08-17T09:10:19Z</time>
        <sat>12</sat>
      </trkpt>
      <trkpt lat="42.328952" lon="-4.796611">
        <ele>861.2</ele>
        <time>2021-08-17T09:10:32Z</time>
        <sat>12</sat>
      </trkpt>
      <trkpt lat="42.328946" lon="-4.796726">
        <ele>861.3</ele>
        <time>2021-08-17T09:10:41Z</time>
        <sat>12</sat>
      </trkpt>
      <trkpt lat="42.328917" lon="-4.796847">
        <ele>861.3</ele>
        <time>2021-08-17T09:10:48Z</time>
        <sat>12</sat>
      </trkpt>
      <trkpt lat="42.328911" lon="-4.796966">
        <ele>861.4</ele>
        <time>2021-08-17T09:10:55Z</time>
        <sat>12</sat>
      </trkpt>
      <trkpt lat="42.328907" lon="-4.797084">
        <ele>861.3</ele>
        <time>2021-08-17T09:11:02Z</time>
        <sat>12</sat>
      </trkpt>
      <trkpt lat="42.328903" lon="-4.797199">
        <ele>861.3</ele>
        <time>2021-08-17T09:11:09Z</time>
        <sat>12</sat>
      </trkpt>
      <trkpt lat="42.328898" lon="-4.797314">
        <ele>861.2</ele>
        <time>2021-08-17T09:11:16Z</time>
        <sat>12</sat>
      </trkpt>
      <trkpt lat="42.328891" lon="-4.797430">
        <ele>861.2</ele>
        <time>2021-08-17T09:11:23Z</time>
        <sat>12</sat>
      </trkpt>
      <trkpt lat="42.328891" lon="-4.797550">
        <ele>861.3</ele>
        <time>2021-08-17T09:11:30Z</time>
        <sat>12</sat>
      </trkpt>
      <trkpt lat="42.328887" lon="-4.797670">
        <ele>861.4</ele>
        <time>2021-08-17T09:11:37Z</time>
        <sat>12</sat>
      </trkpt>
      <trkpt lat="42.328883" lon="-4.797787">
        <ele>861.4</ele>
        <time>2021-08-17T09:11:45Z</time>
        <sat>12</sat>
      </trkpt>
      <trkpt lat="42.328875" lon="-4.797900">
        <ele>861.3</ele>
        <time>2021-08-17T09:11:53Z</time>
        <sat>12</sat>
      </trkpt>
      <trkpt lat="42.328873" lon="-4.798016">
        <ele>861.3</ele>
        <time>2021-08-17T09:12:00Z</time>
        <sat>12</sat>
      </trkpt>
      <trkpt lat="42.328863" lon="-4.798132">
        <ele>861.4</ele>
        <time>2021-08-17T09:12:07Z</time>
        <sat>12</sat>
      </trkpt>
      <trkpt lat="42.328861" lon="-4.798247">
        <ele>861.4</ele>
        <time>2021-08-17T09:12:14Z</time>
        <sat>12</sat>
      </trkpt>
      <trkpt lat="42.328862" lon="-4.798364">
        <ele>861.5</ele>
        <time>2021-08-17T09:12:21Z</time>
        <sat>12</sat>
      </trkpt>
      <trkpt lat="42.328858" lon="-4.798485">
        <ele>861.6</ele>
        <time>2021-08-17T09:12:28Z</time>
        <sat>12</sat>
      </trkpt>
      <trkpt lat="42.328847" lon="-4.798602">
        <ele>861.5</ele>
        <time>2021-08-17T09:12:35Z</time>
        <sat>12</sat>
      </trkpt>
      <trkpt lat="42.328842" lon="-4.798717">
        <ele>861.5</ele>
        <time>2021-08-17T09:12:42Z</time>
        <sat>12</sat>
      </trkpt>
      <trkpt lat="42.328846" lon="-4.798831">
        <ele>861.5</ele>
        <time>2021-08-17T09:12:49Z</time>
        <sat>12</sat>
      </trkpt>
      <trkpt lat="42.328841" lon="-4.798940">
        <ele>861.7</ele>
        <time>2021-08-17T09:12:56Z</time>
        <sat>12</sat>
      </trkpt>
      <trkpt lat="42.328840" lon="-4.799064">
        <ele>861.8</ele>
        <time>2021-08-17T09:13:04Z</time>
        <sat>12</sat>
      </trkpt>
      <trkpt lat="42.328864" lon="-4.799172">
        <ele>861.6</ele>
        <time>2021-08-17T09:14:21Z</time>
        <sat>12</sat>
      </trkpt>
      <trkpt lat="42.328851" lon="-4.799288">
        <ele>861.8</ele>
        <time>2021-08-17T09:14:38Z</time>
        <sat>12</sat>
      </trkpt>
      <trkpt lat="42.328852" lon="-4.799411">
        <ele>861.5</ele>
        <time>2021-08-17T09:14:46Z</time>
        <sat>12</sat>
      </trkpt>
      <trkpt lat="42.328858" lon="-4.799524">
        <ele>861.4</ele>
        <time>2021-08-17T09:14:54Z</time>
        <sat>12</sat>
      </trkpt>
      <trkpt lat="42.328868" lon="-4.799644">
        <ele>861.3</ele>
        <time>2021-08-17T09:15:02Z</time>
        <sat>12</sat>
      </trkpt>
      <trkpt lat="42.328875" lon="-4.799766">
        <ele>861.0</ele>
        <time>2021-08-17T09:15:10Z</time>
        <sat>12</sat>
      </trkpt>
      <trkpt lat="42.328884" lon="-4.799886">
        <ele>860.3</ele>
        <time>2021-08-17T09:15:18Z</time>
        <sat>12</sat>
      </trkpt>
      <trkpt lat="42.328890" lon="-4.800008">
        <ele>859.7</ele>
        <time>2021-08-17T09:15:27Z</time>
        <sat>12</sat>
      </trkpt>
      <trkpt lat="42.328900" lon="-4.800126">
        <ele>859.0</ele>
        <time>2021-08-17T09:15:40Z</time>
        <sat>12</sat>
      </trkpt>
      <trkpt lat="42.328913" lon="-4.800238">
        <ele>858.1</ele>
        <time>2021-08-17T09:15:50Z</time>
        <sat>12</sat>
      </trkpt>
      <trkpt lat="42.328925" lon="-4.800356">
        <ele>857.5</ele>
        <time>2021-08-17T09:16:00Z</time>
        <sat>12</sat>
      </trkpt>
      <trkpt lat="42.328936" lon="-4.800474">
        <ele>857.0</ele>
        <time>2021-08-17T09:16:09Z</time>
        <sat>12</sat>
      </trkpt>
      <trkpt lat="42.328943" lon="-4.800587">
        <ele>856.2</ele>
        <time>2021-08-17T09:16:18Z</time>
        <sat>12</sat>
      </trkpt>
      <trkpt lat="42.328969" lon="-4.800703">
        <ele>854.8</ele>
        <time>2021-08-17T09:16:28Z</time>
        <sat>12</sat>
      </trkpt>
      <trkpt lat="42.328983" lon="-4.800814">
        <ele>854.0</ele>
        <time>2021-08-17T09:16:36Z</time>
        <sat>12</sat>
      </trkpt>
      <trkpt lat="42.328985" lon="-4.800935">
        <ele>853.5</ele>
        <time>2021-08-17T09:16:44Z</time>
        <sat>12</sat>
      </trkpt>
      <trkpt lat="42.328995" lon="-4.801055">
        <ele>852.8</ele>
        <time>2021-08-17T09:16:52Z</time>
        <sat>12</sat>
      </trkpt>
      <trkpt lat="42.329000" lon="-4.801178">
        <ele>851.9</ele>
        <time>2021-08-17T09:17:01Z</time>
        <sat>11</sat>
      </trkpt>
      <trkpt lat="42.329003" lon="-4.801297">
        <ele>851.3</ele>
        <time>2021-08-17T09:17:10Z</time>
        <sat>11</sat>
      </trkpt>
      <trkpt lat="42.329013" lon="-4.801407">
        <ele>850.8</ele>
        <time>2021-08-17T09:17:18Z</time>
        <sat>11</sat>
      </trkpt>
      <trkpt lat="42.329024" lon="-4.801523">
        <ele>850.5</ele>
        <time>2021-08-17T09:17:27Z</time>
        <sat>10</sat>
      </trkpt>
      <trkpt lat="42.329037" lon="-4.801631">
        <ele>850.3</ele>
        <time>2021-08-17T09:17:40Z</time>
        <sat>11</sat>
      </trkpt>
      <trkpt lat="42.329055" lon="-4.801689">
        <ele>849.7</ele>
        <time>2021-08-17T09:18:50Z</time>
        <sat>11</sat>
      </trkpt>
      <trkpt lat="42.329052" lon="-4.801801">
        <ele>849.8</ele>
        <time>2021-08-17T09:18:57Z</time>
        <sat>11</sat>
      </trkpt>
      <trkpt lat="42.329063" lon="-4.801911">
        <ele>849.8</ele>
        <time>2021-08-17T09:19:06Z</time>
        <sat>11</sat>
      </trkpt>
      <trkpt lat="42.329069" lon="-4.802023">
        <ele>849.7</ele>
        <time>2021-08-17T09:19:18Z</time>
        <sat>11</sat>
      </trkpt>
      <trkpt lat="42.329058" lon="-4.802135">
        <ele>849.4</ele>
        <time>2021-08-17T09:19:29Z</time>
        <sat>11</sat>
      </trkpt>
      <trkpt lat="42.329008" lon="-4.802222">
        <ele>848.6</ele>
        <time>2021-08-17T09:19:48Z</time>
        <sat>11</sat>
      </trkpt>
      <trkpt lat="42.329075" lon="-4.802343">
        <ele>847.2</ele>
        <time>2021-08-17T09:28:12Z</time>
        <sat>8</sat>
      </trkpt>
      <trkpt lat="42.329099" lon="-4.802462">
        <ele>848.4</ele>
        <time>2021-08-17T09:28:21Z</time>
        <sat>9</sat>
      </trkpt>
      <trkpt lat="42.329103" lon="-4.802572">
        <ele>848.5</ele>
        <time>2021-08-17T09:28:28Z</time>
        <sat>10</sat>
      </trkpt>
      <trkpt lat="42.329104" lon="-4.802686">
        <ele>848.6</ele>
        <time>2021-08-17T09:28:38Z</time>
        <sat>11</sat>
      </trkpt>
      <trkpt lat="42.329103" lon="-4.802799">
        <ele>848.5</ele>
        <time>2021-08-17T09:28:45Z</time>
        <sat>11</sat>
      </trkpt>
      <trkpt lat="42.329099" lon="-4.802914">
        <ele>848.2</ele>
        <time>2021-08-17T09:28:53Z</time>
        <sat>9</sat>
      </trkpt>
      <trkpt lat="42.329114" lon="-4.803028">
        <ele>847.9</ele>
        <time>2021-08-17T09:29:02Z</time>
        <sat>10</sat>
      </trkpt>
      <trkpt lat="42.329116" lon="-4.803153">
        <ele>847.3</ele>
        <time>2021-08-17T09:29:10Z</time>
        <sat>9</sat>
      </trkpt>
      <trkpt lat="42.329130" lon="-4.803265">
        <ele>846.8</ele>
        <time>2021-08-17T09:29:17Z</time>
        <sat>10</sat>
      </trkpt>
      <trkpt lat="42.329131" lon="-4.803389">
        <ele>846.3</ele>
        <time>2021-08-17T09:29:24Z</time>
        <sat>10</sat>
      </trkpt>
      <trkpt lat="42.329143" lon="-4.803500">
        <ele>845.9</ele>
        <time>2021-08-17T09:29:31Z</time>
        <sat>11</sat>
      </trkpt>
      <trkpt lat="42.329164" lon="-4.803609">
        <ele>845.7</ele>
        <time>2021-08-17T09:29:37Z</time>
        <sat>11</sat>
      </trkpt>
      <trkpt lat="42.329138" lon="-4.803719">
        <ele>845.0</ele>
        <time>2021-08-17T09:30:10Z</time>
        <sat>11</sat>
      </trkpt>
      <trkpt lat="42.329146" lon="-4.803842">
        <ele>844.9</ele>
        <time>2021-08-17T09:30:17Z</time>
        <sat>9</sat>
      </trkpt>
      <trkpt lat="42.329155" lon="-4.803952">
        <ele>844.8</ele>
        <time>2021-08-17T09:30:24Z</time>
        <sat>10</sat>
      </trkpt>
      <trkpt lat="42.329160" lon="-4.804072">
        <ele>844.8</ele>
        <time>2021-08-17T09:30:31Z</time>
        <sat>10</sat>
      </trkpt>
      <trkpt lat="42.329171" lon="-4.804195">
        <ele>844.7</ele>
        <time>2021-08-17T09:30:38Z</time>
        <sat>11</sat>
      </trkpt>
      <trkpt lat="42.329182" lon="-4.804305">
        <ele>844.4</ele>
        <time>2021-08-17T09:30:51Z</time>
        <sat>10</sat>
      </trkpt>
      <trkpt lat="42.329216" lon="-4.804419">
        <ele>844.1</ele>
        <time>2021-08-17T09:30:59Z</time>
        <sat>10</sat>
      </trkpt>
      <trkpt lat="42.329232" lon="-4.804530">
        <ele>844.0</ele>
        <time>2021-08-17T09:31:07Z</time>
        <sat>10</sat>
      </trkpt>
      <trkpt lat="42.329228" lon="-4.804645">
        <ele>843.8</ele>
        <time>2021-08-17T09:31:15Z</time>
        <sat>10</sat>
      </trkpt>
      <trkpt lat="42.329216" lon="-4.804762">
        <ele>843.6</ele>
        <time>2021-08-17T09:31:24Z</time>
        <sat>10</sat>
      </trkpt>
      <trkpt lat="42.329218" lon="-4.804873">
        <ele>843.4</ele>
        <time>2021-08-17T09:31:32Z</time>
        <sat>11</sat>
      </trkpt>
      <trkpt lat="42.329221" lon="-4.804996">
        <ele>843.2</ele>
        <time>2021-08-17T09:31:40Z</time>
        <sat>10</sat>
      </trkpt>
      <trkpt lat="42.329225" lon="-4.805116">
        <ele>842.7</ele>
        <time>2021-08-17T09:31:48Z</time>
        <sat>10</sat>
      </trkpt>
      <trkpt lat="42.329251" lon="-4.805120">
        <ele>842.6</ele>
        <time>2021-08-17T09:33:19Z</time>
        <sat>10</sat>
      </trkpt>
      <trkpt lat="42.329233" lon="-4.805229">
        <ele>842.7</ele>
        <time>2021-08-17T09:33:44Z</time>
        <sat>11</sat>
      </trkpt>
      <trkpt lat="42.329233" lon="-4.805346">
        <ele>842.8</ele>
        <time>2021-08-17T09:34:00Z</time>
        <sat>9</sat>
      </trkpt>
      <trkpt lat="42.329239" lon="-4.805457">
        <ele>842.8</ele>
        <time>2021-08-17T09:34:08Z</time>
        <sat>10</sat>
      </trkpt>
      <trkpt lat="42.329236" lon="-4.805577">
        <ele>842.7</ele>
        <time>2021-08-17T09:34:16Z</time>
        <sat>10</sat>
      </trkpt>
      <trkpt lat="42.329237" lon="-4.805687">
        <ele>842.9</ele>
        <time>2021-08-17T09:34:29Z</time>
        <sat>9</sat>
      </trkpt>
      <trkpt lat="42.329234" lon="-4.805809">
        <ele>842.9</ele>
        <time>2021-08-17T09:34:37Z</time>
        <sat>11</sat>
      </trkpt>
      <trkpt lat="42.329240" lon="-4.805933">
        <ele>842.8</ele>
        <time>2021-08-17T09:34:45Z</time>
        <sat>10</sat>
      </trkpt>
      <trkpt lat="42.329240" lon="-4.806056">
        <ele>842.4</ele>
        <time>2021-08-17T09:34:53Z</time>
        <sat>11</sat>
      </trkpt>
      <trkpt lat="42.329254" lon="-4.806166">
        <ele>842.2</ele>
        <time>2021-08-17T09:35:00Z</time>
        <sat>11</sat>
      </trkpt>
      <trkpt lat="42.329269" lon="-4.806285">
        <ele>842.0</ele>
        <time>2021-08-17T09:35:08Z</time>
        <sat>11</sat>
      </trkpt>
      <trkpt lat="42.329262" lon="-4.806401">
        <ele>841.8</ele>
        <time>2021-08-17T09:35:17Z</time>
        <sat>11</sat>
      </trkpt>
      <trkpt lat="42.329273" lon="-4.806513">
        <ele>841.5</ele>
        <time>2021-08-17T09:35:24Z</time>
        <sat>11</sat>
      </trkpt>
      <trkpt lat="42.329282" lon="-4.806633">
        <ele>841.4</ele>
        <time>2021-08-17T09:35:32Z</time>
        <sat>11</sat>
      </trkpt>
      <trkpt lat="42.329292" lon="-4.806743">
        <ele>841.7</ele>
        <time>2021-08-17T09:35:39Z</time>
        <sat>11</sat>
      </trkpt>
      <trkpt lat="42.329298" lon="-4.806856">
        <ele>842.8</ele>
        <time>2021-08-17T09:35:46Z</time>
        <sat>11</sat>
      </trkpt>
      <trkpt lat="42.329304" lon="-4.806975">
        <ele>843.0</ele>
        <time>2021-08-17T09:35:53Z</time>
        <sat>11</sat>
      </trkpt>
      <trkpt lat="42.329312" lon="-4.807095">
        <ele>842.8</ele>
        <time>2021-08-17T09:36:01Z</time>
        <sat>11</sat>
      </trkpt>
      <trkpt lat="42.329318" lon="-4.807204">
        <ele>842.8</ele>
        <time>2021-08-17T09:36:08Z</time>
        <sat>11</sat>
      </trkpt>
      <trkpt lat="42.329332" lon="-4.807328">
        <ele>842.7</ele>
        <time>2021-08-17T09:36:16Z</time>
        <sat>11</sat>
      </trkpt>
      <trkpt lat="42.329340" lon="-4.807441">
        <ele>842.6</ele>
        <time>2021-08-17T09:36:23Z</time>
        <sat>11</sat>
      </trkpt>
      <trkpt lat="42.329337" lon="-4.807557">
        <ele>842.6</ele>
        <time>2021-08-17T09:36:30Z</time>
        <sat>11</sat>
      </trkpt>
      <trkpt lat="42.329346" lon="-4.807675">
        <ele>842.6</ele>
        <time>2021-08-17T09:36:37Z</time>
        <sat>11</sat>
      </trkpt>
      <trkpt lat="42.329352" lon="-4.807799">
        <ele>842.5</ele>
        <time>2021-08-17T09:36:45Z</time>
        <sat>11</sat>
      </trkpt>
      <trkpt lat="42.329359" lon="-4.807920">
        <ele>842.2</ele>
        <time>2021-08-17T09:36:53Z</time>
        <sat>11</sat>
      </trkpt>
      <trkpt lat="42.329350" lon="-4.808035">
        <ele>842.1</ele>
        <time>2021-08-17T09:37:00Z</time>
        <sat>11</sat>
      </trkpt>
      <trkpt lat="42.329349" lon="-4.808149">
        <ele>842.5</ele>
        <time>2021-08-17T09:37:07Z</time>
        <sat>11</sat>
      </trkpt>
      <trkpt lat="42.329334" lon="-4.808263">
        <ele>842.7</ele>
        <time>2021-08-17T09:37:14Z</time>
        <sat>11</sat>
      </trkpt>
      <trkpt lat="42.329315" lon="-4.808376">
        <ele>842.9</ele>
        <time>2021-08-17T09:37:21Z</time>
        <sat>11</sat>
      </trkpt>
      <trkpt lat="42.329294" lon="-4.808492">
        <ele>842.7</ele>
        <time>2021-08-17T09:37:28Z</time>
        <sat>11</sat>
      </trkpt>
      <trkpt lat="42.329234" lon="-4.808579">
        <ele>842.9</ele>
        <time>2021-08-17T09:37:43Z</time>
        <sat>11</sat>
      </trkpt>
      <trkpt lat="42.329219" lon="-4.808696">
        <ele>842.9</ele>
        <time>2021-08-17T09:37:51Z</time>
        <sat>11</sat>
      </trkpt>
      <trkpt lat="42.329225" lon="-4.808816">
        <ele>842.8</ele>
        <time>2021-08-17T09:37:58Z</time>
        <sat>11</sat>
      </trkpt>
      <trkpt lat="42.329256" lon="-4.808928">
        <ele>842.7</ele>
        <time>2021-08-17T09:38:05Z</time>
        <sat>11</sat>
      </trkpt>
      <trkpt lat="42.329284" lon="-4.809037">
        <ele>842.9</ele>
        <time>2021-08-17T09:38:12Z</time>
        <sat>11</sat>
      </trkpt>
      <trkpt lat="42.329309" lon="-4.809152">
        <ele>843.2</ele>
        <time>2021-08-17T09:38:19Z</time>
        <sat>11</sat>
      </trkpt>
      <trkpt lat="42.329329" lon="-4.809265">
        <ele>843.4</ele>
        <time>2021-08-17T09:38:26Z</time>
        <sat>11</sat>
      </trkpt>
      <trkpt lat="42.329346" lon="-4.809382">
        <ele>843.5</ele>
        <time>2021-08-17T09:38:33Z</time>
        <sat>11</sat>
      </trkpt>
      <trkpt lat="42.329365" lon="-4.809503">
        <ele>843.5</ele>
        <time>2021-08-17T09:38:41Z</time>
        <sat>11</sat>
      </trkpt>
      <trkpt lat="42.329378" lon="-4.809621">
        <ele>843.5</ele>
        <time>2021-08-17T09:38:48Z</time>
        <sat>10</sat>
      </trkpt>
      <trkpt lat="42.329394" lon="-4.809741">
        <ele>843.4</ele>
        <time>2021-08-17T09:38:55Z</time>
        <sat>10</sat>
      </trkpt>
      <trkpt lat="42.329407" lon="-4.809863">
        <ele>843.4</ele>
        <time>2021-08-17T09:39:02Z</time>
        <sat>11</sat>
      </trkpt>
      <trkpt lat="42.329418" lon="-4.809978">
        <ele>843.5</ele>
        <time>2021-08-17T09:39:09Z</time>
        <sat>11</sat>
      </trkpt>
      <trkpt lat="42.329420" lon="-4.810097">
        <ele>843.7</ele>
        <time>2021-08-17T09:39:16Z</time>
        <sat>10</sat>
      </trkpt>
      <trkpt lat="42.329432" lon="-4.810209">
        <ele>843.7</ele>
        <time>2021-08-17T09:39:23Z</time>
        <sat>11</sat>
      </trkpt>
      <trkpt lat="42.329446" lon="-4.810329">
        <ele>843.7</ele>
        <time>2021-08-17T09:39:30Z</time>
        <sat>10</sat>
      </trkpt>
      <trkpt lat="42.329455" lon="-4.810447">
        <ele>843.8</ele>
        <time>2021-08-17T09:39:37Z</time>
        <sat>11</sat>
      </trkpt>
      <trkpt lat="42.329448" lon="-4.810556">
        <ele>843.8</ele>
        <time>2021-08-17T09:39:44Z</time>
        <sat>10</sat>
      </trkpt>
      <trkpt lat="42.329415" lon="-4.810667">
        <ele>843.7</ele>
        <time>2021-08-17T09:39:51Z</time>
        <sat>11</sat>
      </trkpt>
      <trkpt lat="42.329411" lon="-4.810790">
        <ele>843.5</ele>
        <time>2021-08-17T09:39:58Z</time>
        <sat>11</sat>
      </trkpt>
      <trkpt lat="42.329420" lon="-4.810904">
        <ele>843.1</ele>
        <time>2021-08-17T09:40:05Z</time>
        <sat>11</sat>
      </trkpt>
      <trkpt lat="42.329426" lon="-4.811027">
        <ele>842.9</ele>
        <time>2021-08-17T09:40:12Z</time>
        <sat>11</sat>
      </trkpt>
      <trkpt lat="42.329434" lon="-4.811151">
        <ele>842.8</ele>
        <time>2021-08-17T09:40:19Z</time>
        <sat>11</sat>
      </trkpt>
      <trkpt lat="42.329447" lon="-4.811268">
        <ele>842.8</ele>
        <time>2021-08-17T09:40:26Z</time>
        <sat>11</sat>
      </trkpt>
      <trkpt lat="42.329450" lon="-4.811378">
        <ele>842.7</ele>
        <time>2021-08-17T09:40:32Z</time>
        <sat>11</sat>
      </trkpt>
      <trkpt lat="42.329458" lon="-4.811500">
        <ele>842.7</ele>
        <time>2021-08-17T09:40:39Z</time>
        <sat>11</sat>
      </trkpt>
      <trkpt lat="42.329472" lon="-4.811621">
        <ele>842.7</ele>
        <time>2021-08-17T09:40:46Z</time>
        <sat>11</sat>
      </trkpt>
      <trkpt lat="42.329471" lon="-4.811743">
        <ele>842.9</ele>
        <time>2021-08-17T09:40:53Z</time>
        <sat>11</sat>
      </trkpt>
      <trkpt lat="42.329484" lon="-4.811867">
        <ele>842.8</ele>
        <time>2021-08-17T09:41:00Z</time>
        <sat>11</sat>
      </trkpt>
      <trkpt lat="42.329495" lon="-4.811989">
        <ele>842.8</ele>
        <time>2021-08-17T09:41:09Z</time>
        <sat>10</sat>
      </trkpt>
      <trkpt lat="42.329511" lon="-4.812115">
        <ele>842.7</ele>
        <time>2021-08-17T09:41:16Z</time>
        <sat>11</sat>
      </trkpt>
      <trkpt lat="42.329513" lon="-4.812225">
        <ele>842.8</ele>
        <time>2021-08-17T09:41:22Z</time>
        <sat>11</sat>
      </trkpt>
      <trkpt lat="42.329537" lon="-4.812349">
        <ele>842.9</ele>
        <time>2021-08-17T09:41:29Z</time>
        <sat>10</sat>
      </trkpt>
      <trkpt lat="42.329554" lon="-4.812457">
        <ele>843.0</ele>
        <time>2021-08-17T09:41:35Z</time>
        <sat>10</sat>
      </trkpt>
      <trkpt lat="42.329584" lon="-4.812573">
        <ele>843.0</ele>
        <time>2021-08-17T09:41:42Z</time>
        <sat>9</sat>
      </trkpt>
      <trkpt lat="42.329606" lon="-4.812690">
        <ele>842.8</ele>
        <time>2021-08-17T09:41:50Z</time>
        <sat>10</sat>
      </trkpt>
      <trkpt lat="42.329642" lon="-4.812796">
        <ele>842.6</ele>
        <time>2021-08-17T09:41:57Z</time>
        <sat>9</sat>
      </trkpt>
      <trkpt lat="42.329707" lon="-4.812883">
        <ele>842.4</ele>
        <time>2021-08-17T09:42:04Z</time>
        <sat>9</sat>
      </trkpt>
      <trkpt lat="42.329765" lon="-4.812984">
        <ele>842.3</ele>
        <time>2021-08-17T09:42:11Z</time>
        <sat>9</sat>
      </trkpt>
      <trkpt lat="42.329831" lon="-4.813071">
        <ele>842.4</ele>
        <time>2021-08-17T09:42:18Z</time>
        <sat>9</sat>
      </trkpt>
      <trkpt lat="42.329888" lon="-4.813162">
        <ele>842.4</ele>
        <time>2021-08-17T09:42:24Z</time>
        <sat>9</sat>
      </trkpt>
      <trkpt lat="42.329945" lon="-4.813241">
        <ele>842.4</ele>
        <time>2021-08-17T09:42:29Z</time>
        <sat>9</sat>
      </trkpt>
      <trkpt lat="42.330005" lon="-4.813338">
        <ele>842.3</ele>
        <time>2021-08-17T09:42:35Z</time>
        <sat>8</sat>
      </trkpt>
      <trkpt lat="42.330055" lon="-4.813432">
        <ele>842.2</ele>
        <time>2021-08-17T09:42:41Z</time>
        <sat>9</sat>
      </trkpt>
      <trkpt lat="42.330105" lon="-4.813535">
        <ele>842.4</ele>
        <time>2021-08-17T09:42:57Z</time>
        <sat>8</sat>
      </trkpt>
      <trkpt lat="42.330158" lon="-4.813638">
        <ele>842.5</ele>
        <time>2021-08-17T09:43:04Z</time>
        <sat>9</sat>
      </trkpt>
      <trkpt lat="42.330221" lon="-4.813731">
        <ele>842.5</ele>
        <time>2021-08-17T09:43:11Z</time>
        <sat>9</sat>
      </trkpt>
      <trkpt lat="42.330270" lon="-4.813819">
        <ele>842.5</ele>
        <time>2021-08-17T09:43:17Z</time>
        <sat>9</sat>
      </trkpt>
      <trkpt lat="42.330326" lon="-4.813919">
        <ele>842.6</ele>
        <time>2021-08-17T09:43:24Z</time>
        <sat>9</sat>
      </trkpt>
      <trkpt lat="42.330373" lon="-4.814007">
        <ele>842.6</ele>
        <time>2021-08-17T09:43:30Z</time>
        <sat>9</sat>
      </trkpt>
      <trkpt lat="42.330431" lon="-4.814105">
        <ele>842.4</ele>
        <time>2021-08-17T09:43:37Z</time>
        <sat>9</sat>
      </trkpt>
      <trkpt lat="42.330484" lon="-4.814194">
        <ele>842.3</ele>
        <time>2021-08-17T09:43:43Z</time>
        <sat>9</sat>
      </trkpt>
      <trkpt lat="42.330542" lon="-4.814288">
        <ele>842.3</ele>
        <time>2021-08-17T09:43:50Z</time>
        <sat>9</sat>
      </trkpt>
      <trkpt lat="42.330599" lon="-4.814370">
        <ele>842.5</ele>
        <time>2021-08-17T09:43:56Z</time>
        <sat>9</sat>
      </trkpt>
      <trkpt lat="42.330655" lon="-4.814470">
        <ele>842.7</ele>
        <time>2021-08-17T09:44:03Z</time>
        <sat>9</sat>
      </trkpt>
      <trkpt lat="42.330712" lon="-4.814549">
        <ele>842.8</ele>
        <time>2021-08-17T09:44:09Z</time>
        <sat>9</sat>
      </trkpt>
      <trkpt lat="42.330771" lon="-4.814647">
        <ele>843.1</ele>
        <time>2021-08-17T09:44:16Z</time>
        <sat>9</sat>
      </trkpt>
      <trkpt lat="42.330831" lon="-4.814740">
        <ele>843.2</ele>
        <time>2021-08-17T09:44:23Z</time>
        <sat>9</sat>
      </trkpt>
      <trkpt lat="42.330887" lon="-4.814837">
        <ele>843.1</ele>
        <time>2021-08-17T09:44:30Z</time>
        <sat>9</sat>
      </trkpt>
      <trkpt lat="42.330945" lon="-4.814933">
        <ele>843.0</ele>
        <time>2021-08-17T09:44:37Z</time>
        <sat>9</sat>
      </trkpt>
      <trkpt lat="42.330997" lon="-4.815020">
        <ele>842.9</ele>
        <time>2021-08-17T09:44:43Z</time>
        <sat>8</sat>
      </trkpt>
      <trkpt lat="42.331049" lon="-4.815109">
        <ele>842.9</ele>
        <time>2021-08-17T09:44:50Z</time>
        <sat>10</sat>
      </trkpt>
      <trkpt lat="42.331116" lon="-4.815190">
        <ele>842.9</ele>
        <time>2021-08-17T09:44:58Z</time>
        <sat>10</sat>
      </trkpt>
      <trkpt lat="42.331168" lon="-4.815275">
        <ele>842.7</ele>
        <time>2021-08-17T09:45:06Z</time>
        <sat>10</sat>
      </trkpt>
      <trkpt lat="42.331231" lon="-4.815356">
        <ele>842.7</ele>
        <time>2021-08-17T09:45:15Z</time>
        <sat>9</sat>
      </trkpt>
      <trkpt lat="42.331281" lon="-4.815444">
        <ele>842.9</ele>
        <time>2021-08-17T09:45:21Z</time>
        <sat>8</sat>
      </trkpt>
      <trkpt lat="42.331333" lon="-4.815538">
        <ele>842.9</ele>
        <time>2021-08-17T09:45:27Z</time>
        <sat>8</sat>
      </trkpt>
      <trkpt lat="42.331387" lon="-4.815624">
        <ele>842.8</ele>
        <time>2021-08-17T09:45:33Z</time>
        <sat>8</sat>
      </trkpt>
      <trkpt lat="42.331439" lon="-4.815728">
        <ele>842.8</ele>
        <time>2021-08-17T09:45:40Z</time>
        <sat>10</sat>
      </trkpt>
      <trkpt lat="42.331491" lon="-4.815813">
        <ele>842.9</ele>
        <time>2021-08-17T09:45:46Z</time>
        <sat>9</sat>
      </trkpt>
      <trkpt lat="42.331533" lon="-4.815908">
        <ele>842.9</ele>
        <time>2021-08-17T09:45:52Z</time>
        <sat>10</sat>
      </trkpt>
      <trkpt lat="42.331591" lon="-4.815985">
        <ele>843.1</ele>
        <time>2021-08-17T09:45:58Z</time>
        <sat>10</sat>
      </trkpt>
      <trkpt lat="42.331642" lon="-4.816091">
        <ele>843.3</ele>
        <time>2021-08-17T09:46:05Z</time>
        <sat>10</sat>
      </trkpt>
      <trkpt lat="42.331699" lon="-4.816188">
        <ele>843.4</ele>
        <time>2021-08-17T09:46:12Z</time>
        <sat>10</sat>
      </trkpt>
      <trkpt lat="42.331750" lon="-4.816275">
        <ele>843.4</ele>
        <time>2021-08-17T09:46:18Z</time>
        <sat>10</sat>
      </trkpt>
      <trkpt lat="42.331808" lon="-4.816374">
        <ele>843.4</ele>
        <time>2021-08-17T09:46:25Z</time>
        <sat>10</sat>
      </trkpt>
      <trkpt lat="42.331860" lon="-4.816463">
        <ele>843.4</ele>
        <time>2021-08-17T09:46:31Z</time>
        <sat>10</sat>
      </trkpt>
      <trkpt lat="42.331911" lon="-4.816557">
        <ele>843.3</ele>
        <time>2021-08-17T09:46:38Z</time>
        <sat>9</sat>
      </trkpt>
      <trkpt lat="42.331968" lon="-4.816647">
        <ele>843.1</ele>
        <time>2021-08-17T09:46:45Z</time>
        <sat>10</sat>
      </trkpt>
      <trkpt lat="42.332021" lon="-4.816730">
        <ele>843.0</ele>
        <time>2021-08-17T09:46:52Z</time>
        <sat>10</sat>
      </trkpt>
      <trkpt lat="42.332072" lon="-4.816823">
        <ele>843.0</ele>
        <time>2021-08-17T09:46:59Z</time>
        <sat>9</sat>
      </trkpt>
      <trkpt lat="42.332120" lon="-4.816920">
        <ele>842.9</ele>
        <time>2021-08-17T09:47:06Z</time>
        <sat>10</sat>
      </trkpt>
      <trkpt lat="42.332175" lon="-4.817014">
        <ele>842.9</ele>
        <time>2021-08-17T09:47:13Z</time>
        <sat>9</sat>
      </trkpt>
      <trkpt lat="42.332230" lon="-4.817110">
        <ele>843.1</ele>
        <time>2021-08-17T09:47:20Z</time>
        <sat>10</sat>
      </trkpt>
      <trkpt lat="42.332282" lon="-4.817206">
        <ele>843.3</ele>
        <time>2021-08-17T09:47:27Z</time>
        <sat>10</sat>
      </trkpt>
      <trkpt lat="42.332332" lon="-4.817305">
        <ele>843.2</ele>
        <time>2021-08-17T09:47:34Z</time>
        <sat>10</sat>
      </trkpt>
      <trkpt lat="42.332393" lon="-4.817392">
        <ele>843.1</ele>
        <time>2021-08-17T09:47:42Z</time>
        <sat>11</sat>
      </trkpt>
      <trkpt lat="42.332445" lon="-4.817488">
        <ele>843.2</ele>
        <time>2021-08-17T09:47:49Z</time>
        <sat>10</sat>
      </trkpt>
      <trkpt lat="42.332501" lon="-4.817579">
        <ele>843.1</ele>
        <time>2021-08-17T09:47:56Z</time>
        <sat>9</sat>
      </trkpt>
      <trkpt lat="42.332564" lon="-4.817665">
        <ele>843.3</ele>
        <time>2021-08-17T09:48:03Z</time>
        <sat>11</sat>
      </trkpt>
      <trkpt lat="42.332614" lon="-4.817773">
        <ele>843.4</ele>
        <time>2021-08-17T09:48:10Z</time>
        <sat>10</sat>
      </trkpt>
      <trkpt lat="42.332667" lon="-4.817877">
        <ele>843.6</ele>
        <time>2021-08-17T09:49:08Z</time>
        <sat>11</sat>
      </trkpt>
      <trkpt lat="42.332720" lon="-4.817970">
        <ele>843.7</ele>
        <time>2021-08-17T09:49:14Z</time>
        <sat>11</sat>
      </trkpt>
      <trkpt lat="42.332782" lon="-4.818062">
        <ele>843.9</ele>
        <time>2021-08-17T09:49:21Z</time>
        <sat>11</sat>
      </trkpt>
      <trkpt lat="42.332835" lon="-4.818162">
        <ele>844.0</ele>
        <time>2021-08-17T09:49:27Z</time>
        <sat>11</sat>
      </trkpt>
      <trkpt lat="42.332884" lon="-4.818249">
        <ele>844.1</ele>
        <time>2021-08-17T09:49:33Z</time>
        <sat>11</sat>
      </trkpt>
      <trkpt lat="42.332932" lon="-4.818343">
        <ele>844.2</ele>
        <time>2021-08-17T09:49:39Z</time>
        <sat>11</sat>
      </trkpt>
      <trkpt lat="42.332992" lon="-4.818442">
        <ele>844.3</ele>
        <time>2021-08-17T09:49:46Z</time>
        <sat>11</sat>
      </trkpt>
      <trkpt lat="42.333037" lon="-4.818536">
        <ele>844.4</ele>
        <time>2021-08-17T09:49:52Z</time>
        <sat>11</sat>
      </trkpt>
      <trkpt lat="42.333087" lon="-4.818644">
        <ele>844.5</ele>
        <time>2021-08-17T09:49:59Z</time>
        <sat>11</sat>
      </trkpt>
      <trkpt lat="42.333141" lon="-4.818731">
        <ele>844.4</ele>
        <time>2021-08-17T09:50:05Z</time>
        <sat>11</sat>
      </trkpt>
      <trkpt lat="42.333191" lon="-4.818839">
        <ele>844.4</ele>
        <time>2021-08-17T09:50:12Z</time>
        <sat>11</sat>
      </trkpt>
      <trkpt lat="42.333239" lon="-4.818927">
        <ele>844.5</ele>
        <time>2021-08-17T09:50:18Z</time>
        <sat>11</sat>
      </trkpt>
      <trkpt lat="42.333291" lon="-4.819035">
        <ele>844.4</ele>
        <time>2021-08-17T09:50:25Z</time>
        <sat>11</sat>
      </trkpt>
      <trkpt lat="42.333348" lon="-4.819117">
        <ele>844.4</ele>
        <time>2021-08-17T09:50:31Z</time>
        <sat>11</sat>
      </trkpt>
      <trkpt lat="42.333400" lon="-4.819221">
        <ele>844.5</ele>
        <time>2021-08-17T09:50:38Z</time>
        <sat>11</sat>
      </trkpt>
      <trkpt lat="42.333459" lon="-4.819318">
        <ele>844.4</ele>
        <time>2021-08-17T09:50:45Z</time>
        <sat>11</sat>
      </trkpt>
      <trkpt lat="42.333505" lon="-4.819411">
        <ele>844.3</ele>
        <time>2021-08-17T09:50:51Z</time>
        <sat>11</sat>
      </trkpt>
      <trkpt lat="42.333561" lon="-4.819516">
        <ele>844.1</ele>
        <time>2021-08-17T09:50:58Z</time>
        <sat>11</sat>
      </trkpt>
      <trkpt lat="42.333609" lon="-4.819625">
        <ele>844.1</ele>
        <time>2021-08-17T09:51:05Z</time>
        <sat>11</sat>
      </trkpt>
      <trkpt lat="42.333666" lon="-4.819711">
        <ele>844.3</ele>
        <time>2021-08-17T09:51:11Z</time>
        <sat>10</sat>
      </trkpt>
      <trkpt lat="42.333719" lon="-4.819801">
        <ele>844.4</ele>
        <time>2021-08-17T09:51:17Z</time>
        <sat>11</sat>
      </trkpt>
      <trkpt lat="42.333769" lon="-4.819888">
        <ele>844.4</ele>
        <time>2021-08-17T09:51:23Z</time>
        <sat>11</sat>
      </trkpt>
      <trkpt lat="42.333825" lon="-4.819985">
        <ele>844.8</ele>
        <time>2021-08-17T09:51:36Z</time>
        <sat>11</sat>
      </trkpt>
      <trkpt lat="42.333873" lon="-4.820079">
        <ele>844.8</ele>
        <time>2021-08-17T09:51:42Z</time>
        <sat>11</sat>
      </trkpt>
      <trkpt lat="42.333925" lon="-4.820170">
        <ele>845.1</ele>
        <time>2021-08-17T09:51:48Z</time>
        <sat>10</sat>
      </trkpt>
      <trkpt lat="42.333973" lon="-4.820275">
        <ele>845.4</ele>
        <time>2021-08-17T09:51:55Z</time>
        <sat>10</sat>
      </trkpt>
      <trkpt lat="42.334027" lon="-4.820368">
        <ele>845.4</ele>
        <time>2021-08-17T09:52:02Z</time>
        <sat>11</sat>
      </trkpt>
      <trkpt lat="42.334086" lon="-4.820462">
        <ele>845.5</ele>
        <time>2021-08-17T09:52:09Z</time>
        <sat>11</sat>
      </trkpt>
      <trkpt lat="42.334129" lon="-4.820558">
        <ele>845.4</ele>
        <time>2021-08-17T09:52:15Z</time>
        <sat>11</sat>
      </trkpt>
      <trkpt lat="42.334180" lon="-4.820661">
        <ele>845.6</ele>
        <time>2021-08-17T09:52:22Z</time>
        <sat>11</sat>
      </trkpt>
      <trkpt lat="42.334227" lon="-4.820753">
        <ele>845.6</ele>
        <time>2021-08-17T09:52:28Z</time>
        <sat>11</sat>
      </trkpt>
      <trkpt lat="42.334270" lon="-4.820849">
        <ele>845.6</ele>
        <time>2021-08-17T09:52:34Z</time>
        <sat>11</sat>
      </trkpt>
      <trkpt lat="42.334319" lon="-4.820957">
        <ele>845.7</ele>
        <time>2021-08-17T09:52:41Z</time>
        <sat>11</sat>
      </trkpt>
      <trkpt lat="42.334354" lon="-4.821062">
        <ele>845.9</ele>
        <time>2021-08-17T09:52:48Z</time>
        <sat>11</sat>
      </trkpt>
      <trkpt lat="42.334404" lon="-4.821160">
        <ele>846.3</ele>
        <time>2021-08-17T09:52:55Z</time>
        <sat>10</sat>
      </trkpt>
      <trkpt lat="42.334455" lon="-4.821248">
        <ele>846.2</ele>
        <time>2021-08-17T09:53:05Z</time>
        <sat>11</sat>
      </trkpt>
      <trkpt lat="42.334506" lon="-4.821334">
        <ele>846.3</ele>
        <time>2021-08-17T09:53:11Z</time>
        <sat>11</sat>
      </trkpt>
      <trkpt lat="42.334556" lon="-4.821423">
        <ele>846.4</ele>
        <time>2021-08-17T09:53:17Z</time>
        <sat>11</sat>
      </trkpt>
      <trkpt lat="42.334596" lon="-4.821520">
        <ele>846.5</ele>
        <time>2021-08-17T09:53:23Z</time>
        <sat>11</sat>
      </trkpt>
      <trkpt lat="42.334660" lon="-4.821613">
        <ele>846.7</ele>
        <time>2021-08-17T09:53:30Z</time>
        <sat>11</sat>
      </trkpt>
      <trkpt lat="42.334709" lon="-4.821706">
        <ele>846.8</ele>
        <time>2021-08-17T09:53:36Z</time>
        <sat>11</sat>
      </trkpt>
      <trkpt lat="42.334759" lon="-4.821810">
        <ele>846.9</ele>
        <time>2021-08-17T09:53:43Z</time>
        <sat>11</sat>
      </trkpt>
      <trkpt lat="42.334807" lon="-4.821899">
        <ele>846.9</ele>
        <time>2021-08-17T09:53:49Z</time>
        <sat>11</sat>
      </trkpt>
      <trkpt lat="42.334859" lon="-4.821992">
        <ele>847.0</ele>
        <time>2021-08-17T09:53:56Z</time>
        <sat>11</sat>
      </trkpt>
      <trkpt lat="42.334912" lon="-4.822085">
        <ele>847.3</ele>
        <time>2021-08-17T09:54:24Z</time>
        <sat>11</sat>
      </trkpt>
      <trkpt lat="42.334968" lon="-4.822180">
        <ele>847.4</ele>
        <time>2021-08-17T09:54:31Z</time>
        <sat>11</sat>
      </trkpt>
      <trkpt lat="42.335029" lon="-4.822262">
        <ele>847.5</ele>
        <time>2021-08-17T09:54:40Z</time>
        <sat>11</sat>
      </trkpt>
      <trkpt lat="42.335076" lon="-4.822357">
        <ele>847.6</ele>
        <time>2021-08-17T09:54:46Z</time>
        <sat>11</sat>
      </trkpt>
      <trkpt lat="42.335117" lon="-4.822461">
        <ele>847.6</ele>
        <time>2021-08-17T09:54:52Z</time>
        <sat>11</sat>
      </trkpt>
      <trkpt lat="42.335159" lon="-4.822561">
        <ele>847.7</ele>
        <time>2021-08-17T09:54:58Z</time>
        <sat>11</sat>
      </trkpt>
      <trkpt lat="42.335202" lon="-4.822663">
        <ele>847.9</ele>
        <time>2021-08-17T09:55:05Z</time>
        <sat>11</sat>
      </trkpt>
      <trkpt lat="42.335251" lon="-4.822752">
        <ele>848.0</ele>
        <time>2021-08-17T09:55:12Z</time>
        <sat>10</sat>
      </trkpt>
      <trkpt lat="42.335302" lon="-4.822859">
        <ele>847.9</ele>
        <time>2021-08-17T09:55:19Z</time>
        <sat>11</sat>
      </trkpt>
      <trkpt lat="42.335349" lon="-4.822949">
        <ele>847.8</ele>
        <time>2021-08-17T09:55:25Z</time>
        <sat>11</sat>
      </trkpt>
      <trkpt lat="42.335408" lon="-4.823040">
        <ele>847.8</ele>
        <time>2021-08-17T09:55:34Z</time>
        <sat>11</sat>
      </trkpt>
      <trkpt lat="42.335464" lon="-4.823127">
        <ele>847.8</ele>
        <time>2021-08-17T09:55:40Z</time>
        <sat>11</sat>
      </trkpt>
      <trkpt lat="42.335509" lon="-4.823238">
        <ele>847.7</ele>
        <time>2021-08-17T09:55:47Z</time>
        <sat>11</sat>
      </trkpt>
      <trkpt lat="42.335561" lon="-4.823323">
        <ele>847.7</ele>
        <time>2021-08-17T09:55:53Z</time>
        <sat>11</sat>
      </trkpt>
      <trkpt lat="42.335607" lon="-4.823414">
        <ele>847.6</ele>
        <time>2021-08-17T09:55:59Z</time>
        <sat>10</sat>
      </trkpt>
      <trkpt lat="42.335661" lon="-4.823497">
        <ele>847.4</ele>
        <time>2021-08-17T09:56:05Z</time>
        <sat>10</sat>
      </trkpt>
      <trkpt lat="42.335703" lon="-4.823591">
        <ele>847.5</ele>
        <time>2021-08-17T09:56:13Z</time>
        <sat>10</sat>
      </trkpt>
      <trkpt lat="42.335753" lon="-4.823687">
        <ele>847.6</ele>
        <time>2021-08-17T09:56:21Z</time>
        <sat>10</sat>
      </trkpt>
      <trkpt lat="42.335799" lon="-4.823779">
        <ele>847.6</ele>
        <time>2021-08-17T09:56:27Z</time>
        <sat>10</sat>
      </trkpt>
      <trkpt lat="42.335849" lon="-4.823877">
        <ele>847.4</ele>
        <time>2021-08-17T09:56:33Z</time>
        <sat>10</sat>
      </trkpt>
      <trkpt lat="42.335900" lon="-4.823966">
        <ele>847.4</ele>
        <time>2021-08-17T09:56:39Z</time>
        <sat>10</sat>
      </trkpt>
      <trkpt lat="42.335951" lon="-4.824066">
        <ele>847.4</ele>
        <time>2021-08-17T09:56:46Z</time>
        <sat>10</sat>
      </trkpt>
      <trkpt lat="42.336006" lon="-4.824164">
        <ele>847.5</ele>
        <time>2021-08-17T09:56:53Z</time>
        <sat>10</sat>
      </trkpt>
      <trkpt lat="42.336065" lon="-4.824261">
        <ele>847.6</ele>
        <time>2021-08-17T09:57:00Z</time>
        <sat>10</sat>
      </trkpt>
      <trkpt lat="42.336113" lon="-4.824367">
        <ele>847.6</ele>
        <time>2021-08-17T09:57:07Z</time>
        <sat>10</sat>
      </trkpt>
      <trkpt lat="42.336164" lon="-4.824470">
        <ele>847.6</ele>
        <time>2021-08-17T09:57:14Z</time>
        <sat>10</sat>
      </trkpt>
      <trkpt lat="42.336220" lon="-4.824570">
        <ele>847.6</ele>
        <time>2021-08-17T09:57:21Z</time>
        <sat>10</sat>
      </trkpt>
      <trkpt lat="42.336264" lon="-4.824663">
        <ele>847.7</ele>
        <time>2021-08-17T09:57:27Z</time>
        <sat>10</sat>
      </trkpt>
      <trkpt lat="42.336312" lon="-4.824752">
        <ele>847.6</ele>
        <time>2021-08-17T09:57:33Z</time>
        <sat>10</sat>
      </trkpt>
      <trkpt lat="42.336359" lon="-4.824859">
        <ele>847.7</ele>
        <time>2021-08-17T09:57:40Z</time>
        <sat>10</sat>
      </trkpt>
      <trkpt lat="42.336416" lon="-4.824952">
        <ele>847.9</ele>
        <time>2021-08-17T09:57:47Z</time>
        <sat>10</sat>
      </trkpt>
      <trkpt lat="42.336465" lon="-4.825053">
        <ele>848.1</ele>
        <time>2021-08-17T09:57:54Z</time>
        <sat>10</sat>
      </trkpt>
      <trkpt lat="42.336518" lon="-4.825158">
        <ele>848.4</ele>
        <time>2021-08-17T09:58:01Z</time>
        <sat>10</sat>
      </trkpt>
      <trkpt lat="42.336570" lon="-4.825263">
        <ele>848.5</ele>
        <time>2021-08-17T09:58:08Z</time>
        <sat>10</sat>
      </trkpt>
      <trkpt lat="42.336619" lon="-4.825365">
        <ele>848.7</ele>
        <time>2021-08-17T09:58:16Z</time>
        <sat>10</sat>
      </trkpt>
      <trkpt lat="42.336667" lon="-4.825465">
        <ele>848.6</ele>
        <time>2021-08-17T09:58:23Z</time>
        <sat>10</sat>
      </trkpt>
      <trkpt lat="42.336723" lon="-4.825566">
        <ele>848.5</ele>
        <time>2021-08-17T09:58:30Z</time>
        <sat>10</sat>
      </trkpt>
      <trkpt lat="42.336762" lon="-4.825662">
        <ele>848.6</ele>
        <time>2021-08-17T09:58:36Z</time>
        <sat>9</sat>
      </trkpt>
      <trkpt lat="42.336814" lon="-4.825747">
        <ele>848.6</ele>
        <time>2021-08-17T09:58:42Z</time>
        <sat>10</sat>
      </trkpt>
      <trkpt lat="42.336860" lon="-4.825843">
        <ele>848.6</ele>
        <time>2021-08-17T09:58:48Z</time>
        <sat>10</sat>
      </trkpt>
      <trkpt lat="42.336915" lon="-4.825927">
        <ele>848.6</ele>
        <time>2021-08-17T09:58:54Z</time>
        <sat>10</sat>
      </trkpt>
      <trkpt lat="42.336957" lon="-4.826025">
        <ele>848.8</ele>
        <time>2021-08-17T09:59:00Z</time>
        <sat>10</sat>
      </trkpt>
      <trkpt lat="42.337001" lon="-4.826120">
        <ele>849.2</ele>
        <time>2021-08-17T09:59:06Z</time>
        <sat>10</sat>
      </trkpt>
      <trkpt lat="42.337045" lon="-4.826225">
        <ele>849.4</ele>
        <time>2021-08-17T09:59:13Z</time>
        <sat>10</sat>
      </trkpt>
      <trkpt lat="42.337096" lon="-4.826330">
        <ele>849.3</ele>
        <time>2021-08-17T09:59:20Z</time>
        <sat>10</sat>
      </trkpt>
      <trkpt lat="42.337143" lon="-4.826438">
        <ele>849.5</ele>
        <time>2021-08-17T09:59:27Z</time>
        <sat>9</sat>
      </trkpt>
      <trkpt lat="42.337200" lon="-4.826536">
        <ele>849.4</ele>
        <time>2021-08-17T09:59:34Z</time>
        <sat>10</sat>
      </trkpt>
      <trkpt lat="42.337241" lon="-4.826635">
        <ele>849.3</ele>
        <time>2021-08-17T09:59:40Z</time>
        <sat>10</sat>
      </trkpt>
      <trkpt lat="42.337291" lon="-4.826721">
        <ele>849.3</ele>
        <time>2021-08-17T09:59:46Z</time>
        <sat>9</sat>
      </trkpt>
      <trkpt lat="42.337337" lon="-4.826812">
        <ele>849.5</ele>
        <time>2021-08-17T09:59:52Z</time>
        <sat>10</sat>
      </trkpt>
      <trkpt lat="42.337388" lon="-4.826904">
        <ele>849.6</ele>
        <time>2021-08-17T09:59:58Z</time>
        <sat>9</sat>
      </trkpt>
      <trkpt lat="42.337427" lon="-4.827000">
        <ele>849.6</ele>
        <time>2021-08-17T10:00:04Z</time>
        <sat>10</sat>
      </trkpt>
      <trkpt lat="42.337479" lon="-4.827105">
        <ele>849.7</ele>
        <time>2021-08-17T10:00:11Z</time>
        <sat>10</sat>
      </trkpt>
      <trkpt lat="42.337518" lon="-4.827203">
        <ele>849.7</ele>
        <time>2021-08-17T10:00:17Z</time>
        <sat>10</sat>
      </trkpt>
      <trkpt lat="42.337573" lon="-4.827307">
        <ele>849.8</ele>
        <time>2021-08-17T10:00:24Z</time>
        <sat>9</sat>
      </trkpt>
      <trkpt lat="42.337614" lon="-4.827408">
        <ele>849.8</ele>
        <time>2021-08-17T10:00:30Z</time>
        <sat>10</sat>
      </trkpt>
      <trkpt lat="42.337663" lon="-4.827505">
        <ele>849.9</ele>
        <time>2021-08-17T10:00:38Z</time>
        <sat>10</sat>
      </trkpt>
      <trkpt lat="42.337712" lon="-4.827593">
        <ele>850.1</ele>
        <time>2021-08-17T10:00:44Z</time>
        <sat>10</sat>
      </trkpt>
      <trkpt lat="42.337764" lon="-4.827700">
        <ele>850.2</ele>
        <time>2021-08-17T10:00:51Z</time>
        <sat>10</sat>
      </trkpt>
      <trkpt lat="42.337811" lon="-4.827792">
        <ele>850.2</ele>
        <time>2021-08-17T10:00:57Z</time>
        <sat>10</sat>
      </trkpt>
      <trkpt lat="42.337855" lon="-4.827904">
        <ele>850.1</ele>
        <time>2021-08-17T10:01:04Z</time>
        <sat>10</sat>
      </trkpt>
      <trkpt lat="42.337912" lon="-4.828003">
        <ele>849.9</ele>
        <time>2021-08-17T10:01:11Z</time>
        <sat>10</sat>
      </trkpt>
      <trkpt lat="42.337949" lon="-4.828102">
        <ele>849.9</ele>
        <time>2021-08-17T10:01:17Z</time>
        <sat>9</sat>
      </trkpt>
      <trkpt lat="42.338002" lon="-4.828202">
        <ele>850.1</ele>
        <time>2021-08-17T10:01:24Z</time>
        <sat>10</sat>
      </trkpt>
      <trkpt lat="42.338044" lon="-4.828300">
        <ele>850.1</ele>
        <time>2021-08-17T10:01:30Z</time>
        <sat>10</sat>
      </trkpt>
      <trkpt lat="42.338097" lon="-4.828404">
        <ele>850.1</ele>
        <time>2021-08-17T10:01:37Z</time>
        <sat>10</sat>
      </trkpt>
      <trkpt lat="42.338138" lon="-4.828499">
        <ele>850.0</ele>
        <time>2021-08-17T10:01:43Z</time>
        <sat>10</sat>
      </trkpt>
      <trkpt lat="42.338186" lon="-4.828607">
        <ele>850.1</ele>
        <time>2021-08-17T10:01:50Z</time>
        <sat>10</sat>
      </trkpt>
      <trkpt lat="42.338241" lon="-4.828706">
        <ele>850.2</ele>
        <time>2021-08-17T10:01:57Z</time>
        <sat>10</sat>
      </trkpt>
      <trkpt lat="42.338276" lon="-4.828805">
        <ele>850.3</ele>
        <time>2021-08-17T10:02:03Z</time>
        <sat>10</sat>
      </trkpt>
      <trkpt lat="42.338324" lon="-4.828894">
        <ele>850.6</ele>
        <time>2021-08-17T10:02:09Z</time>
        <sat>10</sat>
      </trkpt>
      <trkpt lat="42.338369" lon="-4.829006">
        <ele>850.8</ele>
        <time>2021-08-17T10:02:16Z</time>
        <sat>10</sat>
      </trkpt>
      <trkpt lat="42.338420" lon="-4.829112">
        <ele>851.1</ele>
        <time>2021-08-17T10:02:23Z</time>
        <sat>10</sat>
      </trkpt>
      <trkpt lat="42.338459" lon="-4.829209">
        <ele>851.1</ele>
        <time>2021-08-17T10:02:29Z</time>
        <sat>10</sat>
      </trkpt>
      <trkpt lat="42.338512" lon="-4.829300">
        <ele>851.1</ele>
        <time>2021-08-17T10:02:35Z</time>
        <sat>10</sat>
      </trkpt>
      <trkpt lat="42.338549" lon="-4.829401">
        <ele>851.1</ele>
        <time>2021-08-17T10:02:41Z</time>
        <sat>10</sat>
      </trkpt>
      <trkpt lat="42.338607" lon="-4.829485">
        <ele>851.2</ele>
        <time>2021-08-17T10:02:47Z</time>
        <sat>9</sat>
      </trkpt>
      <trkpt lat="42.338659" lon="-4.829585">
        <ele>851.3</ele>
        <time>2021-08-17T10:02:54Z</time>
        <sat>10</sat>
      </trkpt>
      <trkpt lat="42.338695" lon="-4.829684">
        <ele>851.4</ele>
        <time>2021-08-17T10:03:00Z</time>
        <sat>10</sat>
      </trkpt>
      <trkpt lat="42.338731" lon="-4.829792">
        <ele>851.4</ele>
        <time>2021-08-17T10:03:08Z</time>
        <sat>10</sat>
      </trkpt>
      <trkpt lat="42.338769" lon="-4.829902">
        <ele>851.2</ele>
        <time>2021-08-17T10:03:15Z</time>
        <sat>10</sat>
      </trkpt>
      <trkpt lat="42.338815" lon="-4.830011">
        <ele>851.3</ele>
        <time>2021-08-17T10:03:22Z</time>
        <sat>10</sat>
      </trkpt>
      <trkpt lat="42.338852" lon="-4.830122">
        <ele>851.3</ele>
        <time>2021-08-17T10:03:30Z</time>
        <sat>10</sat>
      </trkpt>
      <trkpt lat="42.338894" lon="-4.830223">
        <ele>851.3</ele>
        <time>2021-08-17T10:03:36Z</time>
        <sat>10</sat>
      </trkpt>
      <trkpt lat="42.338947" lon="-4.830328">
        <ele>851.4</ele>
        <time>2021-08-17T10:03:43Z</time>
        <sat>10</sat>
      </trkpt>
      <trkpt lat="42.338983" lon="-4.830428">
        <ele>851.4</ele>
        <time>2021-08-17T10:03:49Z</time>
        <sat>10</sat>
      </trkpt>
      <trkpt lat="42.339028" lon="-4.830531">
        <ele>851.4</ele>
        <time>2021-08-17T10:03:56Z</time>
        <sat>10</sat>
      </trkpt>
      <trkpt lat="42.339081" lon="-4.830632">
        <ele>851.3</ele>
        <time>2021-08-17T10:04:03Z</time>
        <sat>10</sat>
      </trkpt>
      <trkpt lat="42.339115" lon="-4.830734">
        <ele>851.3</ele>
        <time>2021-08-17T10:04:09Z</time>
        <sat>9</sat>
      </trkpt>
      <trkpt lat="42.339168" lon="-4.830839">
        <ele>851.4</ele>
        <time>2021-08-17T10:04:16Z</time>
        <sat>10</sat>
      </trkpt>
      <trkpt lat="42.339204" lon="-4.830938">
        <ele>851.2</ele>
        <time>2021-08-17T10:04:22Z</time>
        <sat>10</sat>
      </trkpt>
      <trkpt lat="42.339247" lon="-4.831031">
        <ele>851.0</ele>
        <time>2021-08-17T10:04:28Z</time>
        <sat>10</sat>
      </trkpt>
      <trkpt lat="42.339281" lon="-4.831135">
        <ele>851.0</ele>
        <time>2021-08-17T10:04:34Z</time>
        <sat>10</sat>
      </trkpt>
      <trkpt lat="42.339331" lon="-4.831241">
        <ele>851.2</ele>
        <time>2021-08-17T10:04:41Z</time>
        <sat>10</sat>
      </trkpt>
      <trkpt lat="42.339376" lon="-4.831334">
        <ele>851.4</ele>
        <time>2021-08-17T10:04:47Z</time>
        <sat>10</sat>
      </trkpt>
      <trkpt lat="42.339418" lon="-4.831429">
        <ele>851.5</ele>
        <time>2021-08-17T10:04:53Z</time>
        <sat>10</sat>
      </trkpt>
      <trkpt lat="42.339463" lon="-4.831522">
        <ele>851.6</ele>
        <time>2021-08-17T10:04:59Z</time>
        <sat>9</sat>
      </trkpt>
      <trkpt lat="42.339498" lon="-4.831621">
        <ele>851.6</ele>
        <time>2021-08-17T10:05:05Z</time>
        <sat>10</sat>
      </trkpt>
      <trkpt lat="42.339538" lon="-4.831718">
        <ele>851.6</ele>
        <time>2021-08-17T10:05:11Z</time>
        <sat>10</sat>
      </trkpt>
      <trkpt lat="42.339588" lon="-4.831825">
        <ele>851.7</ele>
        <time>2021-08-17T10:05:18Z</time>
        <sat>9</sat>
      </trkpt>
      <trkpt lat="42.339629" lon="-4.831921">
        <ele>851.9</ele>
        <time>2021-08-17T10:05:24Z</time>
        <sat>10</sat>
      </trkpt>
      <trkpt lat="42.339678" lon="-4.832026">
        <ele>852.0</ele>
        <time>2021-08-17T10:05:31Z</time>
        <sat>10</sat>
      </trkpt>
      <trkpt lat="42.339721" lon="-4.832121">
        <ele>851.9</ele>
        <time>2021-08-17T10:05:38Z</time>
        <sat>10</sat>
      </trkpt>
      <trkpt lat="42.339768" lon="-4.832223">
        <ele>851.7</ele>
        <time>2021-08-17T10:05:45Z</time>
        <sat>10</sat>
      </trkpt>
      <trkpt lat="42.339804" lon="-4.832331">
        <ele>851.7</ele>
        <time>2021-08-17T10:05:52Z</time>
        <sat>10</sat>
      </trkpt>
      <trkpt lat="42.339846" lon="-4.832428">
        <ele>851.8</ele>
        <time>2021-08-17T10:05:59Z</time>
        <sat>10</sat>
      </trkpt>
      <trkpt lat="42.339894" lon="-4.832531">
        <ele>851.9</ele>
        <time>2021-08-17T10:06:06Z</time>
        <sat>10</sat>
      </trkpt>
      <trkpt lat="42.339934" lon="-4.832630">
        <ele>852.1</ele>
        <time>2021-08-17T10:06:12Z</time>
        <sat>10</sat>
      </trkpt>
      <trkpt lat="42.339982" lon="-4.832738">
        <ele>852.2</ele>
        <time>2021-08-17T10:06:19Z</time>
        <sat>9</sat>
      </trkpt>
      <trkpt lat="42.340024" lon="-4.832833">
        <ele>852.4</ele>
        <time>2021-08-17T10:06:25Z</time>
        <sat>9</sat>
      </trkpt>
      <trkpt lat="42.340067" lon="-4.832937">
        <ele>852.5</ele>
        <time>2021-08-17T10:06:32Z</time>
        <sat>10</sat>
      </trkpt>
      <trkpt lat="42.340114" lon="-4.833045">
        <ele>852.4</ele>
        <time>2021-08-17T10:06:39Z</time>
        <sat>10</sat>
      </trkpt>
      <trkpt lat="42.340144" lon="-4.833148">
        <ele>852.2</ele>
        <time>2021-08-17T10:06:45Z</time>
        <sat>10</sat>
      </trkpt>
      <trkpt lat="42.340196" lon="-4.833251">
        <ele>852.1</ele>
        <time>2021-08-17T10:06:52Z</time>
        <sat>10</sat>
      </trkpt>
      <trkpt lat="42.340232" lon="-4.833349">
        <ele>852.0</ele>
        <time>2021-08-17T10:06:58Z</time>
        <sat>10</sat>
      </trkpt>
      <trkpt lat="42.340277" lon="-4.833450">
        <ele>852.2</ele>
        <time>2021-08-17T10:07:05Z</time>
        <sat>10</sat>
      </trkpt>
      <trkpt lat="42.340329" lon="-4.833548">
        <ele>852.7</ele>
        <time>2021-08-17T10:07:12Z</time>
        <sat>10</sat>
      </trkpt>
      <trkpt lat="42.340356" lon="-4.833666">
        <ele>853.3</ele>
        <time>2021-08-17T10:07:19Z</time>
        <sat>10</sat>
      </trkpt>
      <trkpt lat="42.340376" lon="-4.833781">
        <ele>854.1</ele>
        <time>2021-08-17T10:07:26Z</time>
        <sat>10</sat>
      </trkpt>
      <trkpt lat="42.340405" lon="-4.833887">
        <ele>854.5</ele>
        <time>2021-08-17T10:07:32Z</time>
        <sat>10</sat>
      </trkpt>
      <trkpt lat="42.340418" lon="-4.833995">
        <ele>854.8</ele>
        <time>2021-08-17T10:07:38Z</time>
        <sat>10</sat>
      </trkpt>
      <trkpt lat="42.340441" lon="-4.834106">
        <ele>854.9</ele>
        <time>2021-08-17T10:07:45Z</time>
        <sat>10</sat>
      </trkpt>
      <trkpt lat="42.340410" lon="-4.834211">
        <ele>854.9</ele>
        <time>2021-08-17T10:07:56Z</time>
        <sat>10</sat>
      </trkpt>
      <trkpt lat="42.340418" lon="-4.834322">
        <ele>854.5</ele>
        <time>2021-08-17T10:08:03Z</time>
        <sat>10</sat>
      </trkpt>
      <trkpt lat="42.340444" lon="-4.834428">
        <ele>854.1</ele>
        <time>2021-08-17T10:08:09Z</time>
        <sat>10</sat>
      </trkpt>
      <trkpt lat="42.340484" lon="-4.834539">
        <ele>853.9</ele>
        <time>2021-08-17T10:08:16Z</time>
        <sat>10</sat>
      </trkpt>
      <trkpt lat="42.340513" lon="-4.834656">
        <ele>853.7</ele>
        <time>2021-08-17T10:08:23Z</time>
        <sat>10</sat>
      </trkpt>
      <trkpt lat="42.340546" lon="-4.834771">
        <ele>853.8</ele>
        <time>2021-08-17T10:08:30Z</time>
        <sat>10</sat>
      </trkpt>
      <trkpt lat="42.340580" lon="-4.834874">
        <ele>853.8</ele>
        <time>2021-08-17T10:08:38Z</time>
        <sat>10</sat>
      </trkpt>
      <trkpt lat="42.340626" lon="-4.834980">
        <ele>853.8</ele>
        <time>2021-08-17T10:08:50Z</time>
        <sat>10</sat>
      </trkpt>
      <trkpt lat="42.340656" lon="-4.835085">
        <ele>853.6</ele>
        <time>2021-08-17T10:08:56Z</time>
        <sat>10</sat>
      </trkpt>
      <trkpt lat="42.340700" lon="-4.835181">
        <ele>853.6</ele>
        <time>2021-08-17T10:09:02Z</time>
        <sat>10</sat>
      </trkpt>
      <trkpt lat="42.340740" lon="-4.835278">
        <ele>853.6</ele>
        <time>2021-08-17T10:09:08Z</time>
        <sat>10</sat>
      </trkpt>
      <trkpt lat="42.340788" lon="-4.835383">
        <ele>853.6</ele>
        <time>2021-08-17T10:09:15Z</time>
        <sat>9</sat>
      </trkpt>
      <trkpt lat="42.340823" lon="-4.835483">
        <ele>853.6</ele>
        <time>2021-08-17T10:09:21Z</time>
        <sat>10</sat>
      </trkpt>
      <trkpt lat="42.340864" lon="-4.835579">
        <ele>853.7</ele>
        <time>2021-08-17T10:09:27Z</time>
        <sat>10</sat>
      </trkpt>
      <trkpt lat="42.340902" lon="-4.835693">
        <ele>853.6</ele>
        <time>2021-08-17T10:09:34Z</time>
        <sat>10</sat>
      </trkpt>
      <trkpt lat="42.340947" lon="-4.835786">
        <ele>854.2</ele>
        <time>2021-08-17T10:09:40Z</time>
        <sat>10</sat>
      </trkpt>
      <trkpt lat="42.340979" lon="-4.835889">
        <ele>854.2</ele>
        <time>2021-08-17T10:09:46Z</time>
        <sat>9</sat>
      </trkpt>
      <trkpt lat="42.341020" lon="-4.835990">
        <ele>854.1</ele>
        <time>2021-08-17T10:09:52Z</time>
        <sat>10</sat>
      </trkpt>
      <trkpt lat="42.341061" lon="-4.836103">
        <ele>854.0</ele>
        <time>2021-08-17T10:09:59Z</time>
        <sat>10</sat>
      </trkpt>
      <trkpt lat="42.341107" lon="-4.836214">
        <ele>854.1</ele>
        <time>2021-08-17T10:10:06Z</time>
        <sat>10</sat>
      </trkpt>
      <trkpt lat="42.341140" lon="-4.836316">
        <ele>854.2</ele>
        <time>2021-08-17T10:10:12Z</time>
        <sat>10</sat>
      </trkpt>
      <trkpt lat="42.341180" lon="-4.836427">
        <ele>854.3</ele>
        <time>2021-08-17T10:10:19Z</time>
        <sat>10</sat>
      </trkpt>
      <trkpt lat="42.341211" lon="-4.836532">
        <ele>854.3</ele>
        <time>2021-08-17T10:10:25Z</time>
        <sat>10</sat>
      </trkpt>
      <trkpt lat="42.341255" lon="-4.836641">
        <ele>854.2</ele>
        <time>2021-08-17T10:10:32Z</time>
        <sat>10</sat>
      </trkpt>
      <trkpt lat="42.341300" lon="-4.836751">
        <ele>854.6</ele>
        <time>2021-08-17T10:10:39Z</time>
        <sat>10</sat>
      </trkpt>
      <trkpt lat="42.341340" lon="-4.836866">
        <ele>855.0</ele>
        <time>2021-08-17T10:10:46Z</time>
        <sat>10</sat>
      </trkpt>
      <trkpt lat="42.341386" lon="-4.836974">
        <ele>855.1</ele>
        <time>2021-08-17T10:10:53Z</time>
        <sat>10</sat>
      </trkpt>
      <trkpt lat="42.341427" lon="-4.837071">
        <ele>855.1</ele>
        <time>2021-08-17T10:10:59Z</time>
        <sat>10</sat>
      </trkpt>
      <trkpt lat="42.341468" lon="-4.837179">
        <ele>855.1</ele>
        <time>2021-08-17T10:11:06Z</time>
        <sat>10</sat>
      </trkpt>
      <trkpt lat="42.341514" lon="-4.837287">
        <ele>855.0</ele>
        <time>2021-08-17T10:11:13Z</time>
        <sat>10</sat>
      </trkpt>
      <trkpt lat="42.341545" lon="-4.837390">
        <ele>854.9</ele>
        <time>2021-08-17T10:11:19Z</time>
        <sat>9</sat>
      </trkpt>
      <trkpt lat="42.341589" lon="-4.837500">
        <ele>855.0</ele>
        <time>2021-08-17T10:11:26Z</time>
        <sat>9</sat>
      </trkpt>
      <trkpt lat="42.341634" lon="-4.837610">
        <ele>855.0</ele>
        <time>2021-08-17T10:11:33Z</time>
        <sat>9</sat>
      </trkpt>
      <trkpt lat="42.341668" lon="-4.837709">
        <ele>855.1</ele>
        <time>2021-08-17T10:11:39Z</time>
        <sat>9</sat>
      </trkpt>
      <trkpt lat="42.341718" lon="-4.837819">
        <ele>855.6</ele>
        <time>2021-08-17T10:11:46Z</time>
        <sat>9</sat>
      </trkpt>
      <trkpt lat="42.341758" lon="-4.837917">
        <ele>856.2</ele>
        <time>2021-08-17T10:11:52Z</time>
        <sat>9</sat>
      </trkpt>
      <trkpt lat="42.341810" lon="-4.838022">
        <ele>856.8</ele>
        <time>2021-08-17T10:11:59Z</time>
        <sat>9</sat>
      </trkpt>
      <trkpt lat="42.341860" lon="-4.838127">
        <ele>857.4</ele>
        <time>2021-08-17T10:12:06Z</time>
        <sat>9</sat>
      </trkpt>
      <trkpt lat="42.341903" lon="-4.838239">
        <ele>858.0</ele>
        <time>2021-08-17T10:12:13Z</time>
        <sat>9</sat>
      </trkpt>
      <trkpt lat="42.341949" lon="-4.838348">
        <ele>858.6</ele>
        <time>2021-08-17T10:12:20Z</time>
        <sat>9</sat>
      </trkpt>
      <trkpt lat="42.341990" lon="-4.838446">
        <ele>859.3</ele>
        <time>2021-08-17T10:12:27Z</time>
        <sat>9</sat>
      </trkpt>
      <trkpt lat="42.342040" lon="-4.838546">
        <ele>859.9</ele>
        <time>2021-08-17T10:12:34Z</time>
        <sat>9</sat>
      </trkpt>
      <trkpt lat="42.342086" lon="-4.838654">
        <ele>860.2</ele>
        <time>2021-08-17T10:12:41Z</time>
        <sat>9</sat>
      </trkpt>
      <trkpt lat="42.342134" lon="-4.838755">
        <ele>860.5</ele>
        <time>2021-08-17T10:12:48Z</time>
        <sat>9</sat>
      </trkpt>
      <trkpt lat="42.342185" lon="-4.838861">
        <ele>860.7</ele>
        <time>2021-08-17T10:12:55Z</time>
        <sat>9</sat>
      </trkpt>
      <trkpt lat="42.342235" lon="-4.838962">
        <ele>861.0</ele>
        <time>2021-08-17T10:13:02Z</time>
        <sat>9</sat>
      </trkpt>
      <trkpt lat="42.342280" lon="-4.839065">
        <ele>861.4</ele>
        <time>2021-08-17T10:13:09Z</time>
        <sat>9</sat>
      </trkpt>
      <trkpt lat="42.342325" lon="-4.839172">
        <ele>862.1</ele>
        <time>2021-08-17T10:13:16Z</time>
        <sat>9</sat>
      </trkpt>
      <trkpt lat="42.342371" lon="-4.839273">
        <ele>862.6</ele>
        <time>2021-08-17T10:13:23Z</time>
        <sat>9</sat>
      </trkpt>
      <trkpt lat="42.342416" lon="-4.839381">
        <ele>863.0</ele>
        <time>2021-08-17T10:13:30Z</time>
        <sat>9</sat>
      </trkpt>
      <trkpt lat="42.342459" lon="-4.839488">
        <ele>863.3</ele>
        <time>2021-08-17T10:13:37Z</time>
        <sat>9</sat>
      </trkpt>
      <trkpt lat="42.342506" lon="-4.839595">
        <ele>863.8</ele>
        <time>2021-08-17T10:13:44Z</time>
        <sat>9</sat>
      </trkpt>
      <trkpt lat="42.342544" lon="-4.839709">
        <ele>864.1</ele>
        <time>2021-08-17T10:13:51Z</time>
        <sat>9</sat>
      </trkpt>
      <trkpt lat="42.342574" lon="-4.839822">
        <ele>864.4</ele>
        <time>2021-08-17T10:13:58Z</time>
        <sat>9</sat>
      </trkpt>
      <trkpt lat="42.342613" lon="-4.839934">
        <ele>864.9</ele>
        <time>2021-08-17T10:14:05Z</time>
        <sat>9</sat>
      </trkpt>
      <trkpt lat="42.342656" lon="-4.840040">
        <ele>865.1</ele>
        <time>2021-08-17T10:14:12Z</time>
        <sat>9</sat>
      </trkpt>
      <trkpt lat="42.342686" lon="-4.840157">
        <ele>865.4</ele>
        <time>2021-08-17T10:14:19Z</time>
        <sat>9</sat>
      </trkpt>
      <trkpt lat="42.342718" lon="-4.840269">
        <ele>866.0</ele>
        <time>2021-08-17T10:14:26Z</time>
        <sat>9</sat>
      </trkpt>
      <trkpt lat="42.342741" lon="-4.840375">
        <ele>866.2</ele>
        <time>2021-08-17T10:14:32Z</time>
        <sat>9</sat>
      </trkpt>
      <trkpt lat="42.342767" lon="-4.840488">
        <ele>866.8</ele>
        <time>2021-08-17T10:14:39Z</time>
        <sat>9</sat>
      </trkpt>
      <trkpt lat="42.342798" lon="-4.840603">
        <ele>867.0</ele>
        <time>2021-08-17T10:14:46Z</time>
        <sat>9</sat>
      </trkpt>
      <trkpt lat="42.342831" lon="-4.840720">
        <ele>867.2</ele>
        <time>2021-08-17T10:14:53Z</time>
        <sat>9</sat>
      </trkpt>
      <trkpt lat="42.342850" lon="-4.840828">
        <ele>867.3</ele>
        <time>2021-08-17T10:14:59Z</time>
        <sat>9</sat>
      </trkpt>
      <trkpt lat="42.342877" lon="-4.840943">
        <ele>867.3</ele>
        <time>2021-08-17T10:15:06Z</time>
        <sat>9</sat>
      </trkpt>
      <trkpt lat="42.342906" lon="-4.841058">
        <ele>867.3</ele>
        <time>2021-08-17T10:15:13Z</time>
        <sat>9</sat>
      </trkpt>
      <trkpt lat="42.342924" lon="-4.841182">
        <ele>867.0</ele>
        <time>2021-08-17T10:15:20Z</time>
        <sat>8</sat>
      </trkpt>
      <trkpt lat="42.342951" lon="-4.841299">
        <ele>866.9</ele>
        <time>2021-08-17T10:15:27Z</time>
        <sat>9</sat>
      </trkpt>
      <trkpt lat="42.342976" lon="-4.841418">
        <ele>866.8</ele>
        <time>2021-08-17T10:15:34Z</time>
        <sat>9</sat>
      </trkpt>
      <trkpt lat="42.342996" lon="-4.841542">
        <ele>866.8</ele>
        <time>2021-08-17T10:15:41Z</time>
        <sat>9</sat>
      </trkpt>
      <trkpt lat="42.343022" lon="-4.841660">
        <ele>867.0</ele>
        <time>2021-08-17T10:15:48Z</time>
        <sat>8</sat>
      </trkpt>
      <trkpt lat="42.343050" lon="-4.841779">
        <ele>867.2</ele>
        <time>2021-08-17T10:15:55Z</time>
        <sat>9</sat>
      </trkpt>
      <trkpt lat="42.343069" lon="-4.841900">
        <ele>867.4</ele>
        <time>2021-08-17T10:16:02Z</time>
        <sat>9</sat>
      </trkpt>
      <trkpt lat="42.343084" lon="-4.842021">
        <ele>867.7</ele>
        <time>2021-08-17T10:16:09Z</time>
        <sat>9</sat>
      </trkpt>
      <trkpt lat="42.343107" lon="-4.842145">
        <ele>867.9</ele>
        <time>2021-08-17T10:16:16Z</time>
        <sat>9</sat>
      </trkpt>
      <trkpt lat="42.343123" lon="-4.842270">
        <ele>868.2</ele>
        <time>2021-08-17T10:16:23Z</time>
        <sat>9</sat>
      </trkpt>
      <trkpt lat="42.343117" lon="-4.842394">
        <ele>868.5</ele>
        <time>2021-08-17T10:16:30Z</time>
        <sat>10</sat>
      </trkpt>
      <trkpt lat="42.343128" lon="-4.842516">
        <ele>868.8</ele>
        <time>2021-08-17T10:16:37Z</time>
        <sat>9</sat>
      </trkpt>
      <trkpt lat="42.343142" lon="-4.842637">
        <ele>869.1</ele>
        <time>2021-08-17T10:16:44Z</time>
        <sat>10</sat>
      </trkpt>
      <trkpt lat="42.343160" lon="-4.842745">
        <ele>869.5</ele>
        <time>2021-08-17T10:16:51Z</time>
        <sat>10</sat>
      </trkpt>
      <trkpt lat="42.343180" lon="-4.842857">
        <ele>869.9</ele>
        <time>2021-08-17T10:16:58Z</time>
        <sat>10</sat>
      </trkpt>
      <trkpt lat="42.343203" lon="-4.842966">
        <ele>870.0</ele>
        <time>2021-08-17T10:17:05Z</time>
        <sat>10</sat>
      </trkpt>
      <trkpt lat="42.343240" lon="-4.843073">
        <ele>870.5</ele>
        <time>2021-08-17T10:17:12Z</time>
        <sat>10</sat>
      </trkpt>
      <trkpt lat="42.343271" lon="-4.843179">
        <ele>871.0</ele>
        <time>2021-08-17T10:17:18Z</time>
        <sat>10</sat>
      </trkpt>
      <trkpt lat="42.343288" lon="-4.843288">
        <ele>871.4</ele>
        <time>2021-08-17T10:17:24Z</time>
        <sat>10</sat>
      </trkpt>
      <trkpt lat="42.343322" lon="-4.843388">
        <ele>871.8</ele>
        <time>2021-08-17T10:17:30Z</time>
        <sat>10</sat>
      </trkpt>
      <trkpt lat="42.343343" lon="-4.843496">
        <ele>872.2</ele>
        <time>2021-08-17T10:17:36Z</time>
        <sat>10</sat>
      </trkpt>
      <trkpt lat="42.343370" lon="-4.843607">
        <ele>872.7</ele>
        <time>2021-08-17T10:17:43Z</time>
        <sat>10</sat>
      </trkpt>
      <trkpt lat="42.343395" lon="-4.843720">
        <ele>873.3</ele>
        <time>2021-08-17T10:17:50Z</time>
        <sat>10</sat>
      </trkpt>
      <trkpt lat="42.343425" lon="-4.843833">
        <ele>873.9</ele>
        <time>2021-08-17T10:17:57Z</time>
        <sat>10</sat>
      </trkpt>
      <trkpt lat="42.343452" lon="-4.843945">
        <ele>874.3</ele>
        <time>2021-08-17T10:18:04Z</time>
        <sat>10</sat>
      </trkpt>
      <trkpt lat="42.343471" lon="-4.844065">
        <ele>875.0</ele>
        <time>2021-08-17T10:18:12Z</time>
        <sat>10</sat>
      </trkpt>
      <trkpt lat="42.343505" lon="-4.844170">
        <ele>875.4</ele>
        <time>2021-08-17T10:18:19Z</time>
        <sat>10</sat>
      </trkpt>
      <trkpt lat="42.343526" lon="-4.844280">
        <ele>875.6</ele>
        <time>2021-08-17T10:18:26Z</time>
        <sat>10</sat>
      </trkpt>
      <trkpt lat="42.343559" lon="-4.844395">
        <ele>876.3</ele>
        <time>2021-08-17T10:18:34Z</time>
        <sat>10</sat>
      </trkpt>
      <trkpt lat="42.343595" lon="-4.844498">
        <ele>877.1</ele>
        <time>2021-08-17T10:18:41Z</time>
        <sat>10</sat>
      </trkpt>
      <trkpt lat="42.343625" lon="-4.844603">
        <ele>878.1</ele>
        <time>2021-08-17T10:18:48Z</time>
        <sat>10</sat>
      </trkpt>
      <trkpt lat="42.343656" lon="-4.844707">
        <ele>878.9</ele>
        <time>2021-08-17T10:18:55Z</time>
        <sat>10</sat>
      </trkpt>
      <trkpt lat="42.343684" lon="-4.844813">
        <ele>879.7</ele>
        <time>2021-08-17T10:19:02Z</time>
        <sat>10</sat>
      </trkpt>
      <trkpt lat="42.343719" lon="-4.844917">
        <ele>880.3</ele>
        <time>2021-08-17T10:19:09Z</time>
        <sat>10</sat>
      </trkpt>
      <trkpt lat="42.343752" lon="-4.845024">
        <ele>880.9</ele>
        <time>2021-08-17T10:19:16Z</time>
        <sat>10</sat>
      </trkpt>
      <trkpt lat="42.343790" lon="-4.845133">
        <ele>881.5</ele>
        <time>2021-08-17T10:19:23Z</time>
        <sat>10</sat>
      </trkpt>
      <trkpt lat="42.343828" lon="-4.845244">
        <ele>882.1</ele>
        <time>2021-08-17T10:19:30Z</time>
        <sat>10</sat>
      </trkpt>
      <trkpt lat="42.343871" lon="-4.845354">
        <ele>882.5</ele>
        <time>2021-08-17T10:19:37Z</time>
        <sat>10</sat>
      </trkpt>
      <trkpt lat="42.343909" lon="-4.845466">
        <ele>883.0</ele>
        <time>2021-08-17T10:19:44Z</time>
        <sat>10</sat>
      </trkpt>
      <trkpt lat="42.343952" lon="-4.845575">
        <ele>883.4</ele>
        <time>2021-08-17T10:19:51Z</time>
        <sat>10</sat>
      </trkpt>
      <trkpt lat="42.343990" lon="-4.845681">
        <ele>883.7</ele>
        <time>2021-08-17T10:19:58Z</time>
        <sat>10</sat>
      </trkpt>
      <trkpt lat="42.344029" lon="-4.845789">
        <ele>884.1</ele>
        <time>2021-08-17T10:20:05Z</time>
        <sat>10</sat>
      </trkpt>
      <trkpt lat="42.344070" lon="-4.845896">
        <ele>884.5</ele>
        <time>2021-08-17T10:20:12Z</time>
        <sat>10</sat>
      </trkpt>
      <trkpt lat="42.344110" lon="-4.846009">
        <ele>884.9</ele>
        <time>2021-08-17T10:20:19Z</time>
        <sat>9</sat>
      </trkpt>
      <trkpt lat="42.344150" lon="-4.846118">
        <ele>885.1</ele>
        <time>2021-08-17T10:20:26Z</time>
        <sat>10</sat>
      </trkpt>
      <trkpt lat="42.344186" lon="-4.846228">
        <ele>885.2</ele>
        <time>2021-08-17T10:20:33Z</time>
        <sat>9</sat>
      </trkpt>
      <trkpt lat="42.344223" lon="-4.846340">
        <ele>885.4</ele>
        <time>2021-08-17T10:20:40Z</time>
        <sat>10</sat>
      </trkpt>
      <trkpt lat="42.344260" lon="-4.846457">
        <ele>885.5</ele>
        <time>2021-08-17T10:20:47Z</time>
        <sat>10</sat>
      </trkpt>
      <trkpt lat="42.344303" lon="-4.846566">
        <ele>885.6</ele>
        <time>2021-08-17T10:20:54Z</time>
        <sat>10</sat>
      </trkpt>
      <trkpt lat="42.344339" lon="-4.846681">
        <ele>885.9</ele>
        <time>2021-08-17T10:21:01Z</time>
        <sat>10</sat>
      </trkpt>
      <trkpt lat="42.344381" lon="-4.846784">
        <ele>886.2</ele>
        <time>2021-08-17T10:21:08Z</time>
        <sat>10</sat>
      </trkpt>
      <trkpt lat="42.344411" lon="-4.846896">
        <ele>886.3</ele>
        <time>2021-08-17T10:21:15Z</time>
        <sat>10</sat>
      </trkpt>
      <trkpt lat="42.344447" lon="-4.847010">
        <ele>886.5</ele>
        <time>2021-08-17T10:21:22Z</time>
        <sat>10</sat>
      </trkpt>
      <trkpt lat="42.344482" lon="-4.847124">
        <ele>886.8</ele>
        <time>2021-08-17T10:21:29Z</time>
        <sat>9</sat>
      </trkpt>
      <trkpt lat="42.344515" lon="-4.847236">
        <ele>887.2</ele>
        <time>2021-08-17T10:21:36Z</time>
        <sat>9</sat>
      </trkpt>
      <trkpt lat="42.344547" lon="-4.847352">
        <ele>887.5</ele>
        <time>2021-08-17T10:21:43Z</time>
        <sat>10</sat>
      </trkpt>
      <trkpt lat="42.344580" lon="-4.847465">
        <ele>888.0</ele>
        <time>2021-08-17T10:21:50Z</time>
        <sat>9</sat>
      </trkpt>
      <trkpt lat="42.344619" lon="-4.847575">
        <ele>888.3</ele>
        <time>2021-08-17T10:21:57Z</time>
        <sat>9</sat>
      </trkpt>
      <trkpt lat="42.344657" lon="-4.847687">
        <ele>888.5</ele>
        <time>2021-08-17T10:22:04Z</time>
        <sat>9</sat>
      </trkpt>
      <trkpt lat="42.344688" lon="-4.847801">
        <ele>888.7</ele>
        <time>2021-08-17T10:22:11Z</time>
        <sat>9</sat>
      </trkpt>
      <trkpt lat="42.344721" lon="-4.847915">
        <ele>889.0</ele>
        <time>2021-08-17T10:22:18Z</time>
        <sat>10</sat>
      </trkpt>
      <trkpt lat="42.344763" lon="-4.848024">
        <ele>889.2</ele>
        <time>2021-08-17T10:22:25Z</time>
        <sat>9</sat>
      </trkpt>
      <trkpt lat="42.344797" lon="-4.848133">
        <ele>889.4</ele>
        <time>2021-08-17T10:22:32Z</time>
        <sat>9</sat>
      </trkpt>
      <trkpt lat="42.344840" lon="-4.848239">
        <ele>889.5</ele>
        <time>2021-08-17T10:22:39Z</time>
        <sat>9</sat>
      </trkpt>
      <trkpt lat="42.344891" lon="-4.848337">
        <ele>889.6</ele>
        <time>2021-08-17T10:22:46Z</time>
        <sat>9</sat>
      </trkpt>
      <trkpt lat="42.344941" lon="-4.848440">
        <ele>890.0</ele>
        <time>2021-08-17T10:22:53Z</time>
        <sat>9</sat>
      </trkpt>
      <trkpt lat="42.344972" lon="-4.848543">
        <ele>890.1</ele>
        <time>2021-08-17T10:22:59Z</time>
        <sat>9</sat>
      </trkpt>
      <trkpt lat="42.345013" lon="-4.848655">
        <ele>890.4</ele>
        <time>2021-08-17T10:23:06Z</time>
        <sat>10</sat>
      </trkpt>
      <trkpt lat="42.345049" lon="-4.848766">
        <ele>890.5</ele>
        <time>2021-08-17T10:23:13Z</time>
        <sat>9</sat>
      </trkpt>
      <trkpt lat="42.345090" lon="-4.848873">
        <ele>890.7</ele>
        <time>2021-08-17T10:23:20Z</time>
        <sat>9</sat>
      </trkpt>
      <trkpt lat="42.345128" lon="-4.848980">
        <ele>891.0</ele>
        <time>2021-08-17T10:23:27Z</time>
        <sat>10</sat>
      </trkpt>
      <trkpt lat="42.345168" lon="-4.849085">
        <ele>891.4</ele>
        <time>2021-08-17T10:23:34Z</time>
        <sat>10</sat>
      </trkpt>
      <trkpt lat="42.345210" lon="-4.849181">
        <ele>891.6</ele>
        <time>2021-08-17T10:23:40Z</time>
        <sat>10</sat>
      </trkpt>
      <trkpt lat="42.345248" lon="-4.849297">
        <ele>891.6</ele>
        <time>2021-08-17T10:23:47Z</time>
        <sat>10</sat>
      </trkpt>
      <trkpt lat="42.345294" lon="-4.849406">
        <ele>891.6</ele>
        <time>2021-08-17T10:23:54Z</time>
        <sat>10</sat>
      </trkpt>
      <trkpt lat="42.345329" lon="-4.849508">
        <ele>891.7</ele>
        <time>2021-08-17T10:24:00Z</time>
        <sat>10</sat>
      </trkpt>
      <trkpt lat="42.345374" lon="-4.849615">
        <ele>892.1</ele>
        <time>2021-08-17T10:24:07Z</time>
        <sat>10</sat>
      </trkpt>
      <trkpt lat="42.345418" lon="-4.849725">
        <ele>892.3</ele>
        <time>2021-08-17T10:24:14Z</time>
        <sat>10</sat>
      </trkpt>
      <trkpt lat="42.345449" lon="-4.849844">
        <ele>892.4</ele>
        <time>2021-08-17T10:24:21Z</time>
        <sat>9</sat>
      </trkpt>
      <trkpt lat="42.345494" lon="-4.849952">
        <ele>892.7</ele>
        <time>2021-08-17T10:24:28Z</time>
        <sat>9</sat>
      </trkpt>
      <trkpt lat="42.345537" lon="-4.850050">
        <ele>893.0</ele>
        <time>2021-08-17T10:24:34Z</time>
        <sat>9</sat>
      </trkpt>
      <trkpt lat="42.345572" lon="-4.850165">
        <ele>893.1</ele>
        <time>2021-08-17T10:24:41Z</time>
        <sat>9</sat>
      </trkpt>
      <trkpt lat="42.345618" lon="-4.850272">
        <ele>893.2</ele>
        <time>2021-08-17T10:24:48Z</time>
        <sat>9</sat>
      </trkpt>
      <trkpt lat="42.345652" lon="-4.850390">
        <ele>893.1</ele>
        <time>2021-08-17T10:24:55Z</time>
        <sat>9</sat>
      </trkpt>
      <trkpt lat="42.345695" lon="-4.850500">
        <ele>893.2</ele>
        <time>2021-08-17T10:25:02Z</time>
        <sat>9</sat>
      </trkpt>
      <trkpt lat="42.345727" lon="-4.850601">
        <ele>893.3</ele>
        <time>2021-08-17T10:25:09Z</time>
        <sat>9</sat>
      </trkpt>
      <trkpt lat="42.345760" lon="-4.850708">
        <ele>893.2</ele>
        <time>2021-08-17T10:25:15Z</time>
        <sat>9</sat>
      </trkpt>
      <trkpt lat="42.345807" lon="-4.850799">
        <ele>893.3</ele>
        <time>2021-08-17T10:25:21Z</time>
        <sat>9</sat>
      </trkpt>
      <trkpt lat="42.345837" lon="-4.850905">
        <ele>893.3</ele>
        <time>2021-08-17T10:25:27Z</time>
        <sat>9</sat>
      </trkpt>
      <trkpt lat="42.345877" lon="-4.851010">
        <ele>893.3</ele>
        <time>2021-08-17T10:25:34Z</time>
        <sat>9</sat>
      </trkpt>
      <trkpt lat="42.345924" lon="-4.851117">
        <ele>893.4</ele>
        <time>2021-08-17T10:25:41Z</time>
        <sat>9</sat>
      </trkpt>
      <trkpt lat="42.345957" lon="-4.851218">
        <ele>893.5</ele>
        <time>2021-08-17T10:25:47Z</time>
        <sat>9</sat>
      </trkpt>
      <trkpt lat="42.345999" lon="-4.851312">
        <ele>893.7</ele>
        <time>2021-08-17T10:25:53Z</time>
        <sat>9</sat>
      </trkpt>
      <trkpt lat="42.346033" lon="-4.851412">
        <ele>893.8</ele>
        <time>2021-08-17T10:25:59Z</time>
        <sat>9</sat>
      </trkpt>
      <trkpt lat="42.346079" lon="-4.851514">
        <ele>893.7</ele>
        <time>2021-08-17T10:26:06Z</time>
        <sat>9</sat>
      </trkpt>
      <trkpt lat="42.346112" lon="-4.851620">
        <ele>893.8</ele>
        <time>2021-08-17T10:26:12Z</time>
        <sat>9</sat>
      </trkpt>
      <trkpt lat="42.346156" lon="-4.851728">
        <ele>893.9</ele>
        <time>2021-08-17T10:26:19Z</time>
        <sat>9</sat>
      </trkpt>
      <trkpt lat="42.346198" lon="-4.851840">
        <ele>894.1</ele>
        <time>2021-08-17T10:26:26Z</time>
        <sat>9</sat>
      </trkpt>
      <trkpt lat="42.346243" lon="-4.851951">
        <ele>894.1</ele>
        <time>2021-08-17T10:26:33Z</time>
        <sat>9</sat>
      </trkpt>
      <trkpt lat="42.346292" lon="-4.852058">
        <ele>894.1</ele>
        <time>2021-08-17T10:26:40Z</time>
        <sat>9</sat>
      </trkpt>
      <trkpt lat="42.346325" lon="-4.852177">
        <ele>894.2</ele>
        <time>2021-08-17T10:26:47Z</time>
        <sat>9</sat>
      </trkpt>
      <trkpt lat="42.346373" lon="-4.852285">
        <ele>894.3</ele>
        <time>2021-08-17T10:26:54Z</time>
        <sat>9</sat>
      </trkpt>
      <trkpt lat="42.346406" lon="-4.852388">
        <ele>894.3</ele>
        <time>2021-08-17T10:27:00Z</time>
        <sat>9</sat>
      </trkpt>
      <trkpt lat="42.346451" lon="-4.852497">
        <ele>894.3</ele>
        <time>2021-08-17T10:27:07Z</time>
        <sat>9</sat>
      </trkpt>
      <trkpt lat="42.346492" lon="-4.852610">
        <ele>894.1</ele>
        <time>2021-08-17T10:27:14Z</time>
        <sat>9</sat>
      </trkpt>
      <trkpt lat="42.346531" lon="-4.852726">
        <ele>894.1</ele>
        <time>2021-08-17T10:27:21Z</time>
        <sat>9</sat>
      </trkpt>
      <trkpt lat="42.346572" lon="-4.852826">
        <ele>894.1</ele>
        <time>2021-08-17T10:27:27Z</time>
        <sat>9</sat>
      </trkpt>
      <trkpt lat="42.346611" lon="-4.852941">
        <ele>894.1</ele>
        <time>2021-08-17T10:27:34Z</time>
        <sat>9</sat>
      </trkpt>
      <trkpt lat="42.346653" lon="-4.853052">
        <ele>894.2</ele>
        <time>2021-08-17T10:27:41Z</time>
        <sat>9</sat>
      </trkpt>
      <trkpt lat="42.346689" lon="-4.853154">
        <ele>894.2</ele>
        <time>2021-08-17T10:27:47Z</time>
        <sat>9</sat>
      </trkpt>
      <trkpt lat="42.346729" lon="-4.853258">
        <ele>894.3</ele>
        <time>2021-08-17T10:27:56Z</time>
        <sat>9</sat>
      </trkpt>
      <trkpt lat="42.346772" lon="-4.853362">
        <ele>894.4</ele>
        <time>2021-08-17T10:28:02Z</time>
        <sat>9</sat>
      </trkpt>
      <trkpt lat="42.346807" lon="-4.853462">
        <ele>894.3</ele>
        <time>2021-08-17T10:28:08Z</time>
        <sat>9</sat>
      </trkpt>
      <trkpt lat="42.346846" lon="-4.853570">
        <ele>894.2</ele>
        <time>2021-08-17T10:28:15Z</time>
        <sat>9</sat>
      </trkpt>
      <trkpt lat="42.346877" lon="-4.853675">
        <ele>894.1</ele>
        <time>2021-08-17T10:28:22Z</time>
        <sat>9</sat>
      </trkpt>
      <trkpt lat="42.346919" lon="-4.853769">
        <ele>894.2</ele>
        <time>2021-08-17T10:28:28Z</time>
        <sat>9</sat>
      </trkpt>
      <trkpt lat="42.346959" lon="-4.853872">
        <ele>894.0</ele>
        <time>2021-08-17T10:28:34Z</time>
        <sat>9</sat>
      </trkpt>
      <trkpt lat="42.346998" lon="-4.853975">
        <ele>894.1</ele>
        <time>2021-08-17T10:28:40Z</time>
        <sat>9</sat>
      </trkpt>
      <trkpt lat="42.347036" lon="-4.854079">
        <ele>894.1</ele>
        <time>2021-08-17T10:28:46Z</time>
        <sat>9</sat>
      </trkpt>
      <trkpt lat="42.347071" lon="-4.854182">
        <ele>894.1</ele>
        <time>2021-08-17T10:28:52Z</time>
        <sat>9</sat>
      </trkpt>
      <trkpt lat="42.347110" lon="-4.854291">
        <ele>894.2</ele>
        <time>2021-08-17T10:28:59Z</time>
        <sat>9</sat>
      </trkpt>
      <trkpt lat="42.347150" lon="-4.854399">
        <ele>894.3</ele>
        <time>2021-08-17T10:29:06Z</time>
        <sat>9</sat>
      </trkpt>
      <trkpt lat="42.347188" lon="-4.854511">
        <ele>894.3</ele>
        <time>2021-08-17T10:29:13Z</time>
        <sat>9</sat>
      </trkpt>
      <trkpt lat="42.347222" lon="-4.854622">
        <ele>894.2</ele>
        <time>2021-08-17T10:29:20Z</time>
        <sat>9</sat>
      </trkpt>
      <trkpt lat="42.347262" lon="-4.854728">
        <ele>894.3</ele>
        <time>2021-08-17T10:29:27Z</time>
        <sat>9</sat>
      </trkpt>
      <trkpt lat="42.347303" lon="-4.854829">
        <ele>894.4</ele>
        <time>2021-08-17T10:29:34Z</time>
        <sat>9</sat>
      </trkpt>
      <trkpt lat="42.347345" lon="-4.854935">
        <ele>894.4</ele>
        <time>2021-08-17T10:29:41Z</time>
        <sat>9</sat>
      </trkpt>
      <trkpt lat="42.347388" lon="-4.855047">
        <ele>894.4</ele>
        <time>2021-08-17T10:29:48Z</time>
        <sat>9</sat>
      </trkpt>
      <trkpt lat="42.347434" lon="-4.855152">
        <ele>894.4</ele>
        <time>2021-08-17T10:29:55Z</time>
        <sat>9</sat>
      </trkpt>
      <trkpt lat="42.347473" lon="-4.855269">
        <ele>894.4</ele>
        <time>2021-08-17T10:30:02Z</time>
        <sat>9</sat>
      </trkpt>
      <trkpt lat="42.347514" lon="-4.855364">
        <ele>894.5</ele>
        <time>2021-08-17T10:30:08Z</time>
        <sat>9</sat>
      </trkpt>
      <trkpt lat="42.347543" lon="-4.855467">
        <ele>894.5</ele>
        <time>2021-08-17T10:30:14Z</time>
        <sat>9</sat>
      </trkpt>
      <trkpt lat="42.347586" lon="-4.855575">
        <ele>894.6</ele>
        <time>2021-08-17T10:30:21Z</time>
        <sat>9</sat>
      </trkpt>
      <trkpt lat="42.347634" lon="-4.855683">
        <ele>894.7</ele>
        <time>2021-08-17T10:30:28Z</time>
        <sat>9</sat>
      </trkpt>
      <trkpt lat="42.347672" lon="-4.855799">
        <ele>894.8</ele>
        <time>2021-08-17T10:30:35Z</time>
        <sat>9</sat>
      </trkpt>
      <trkpt lat="42.347716" lon="-4.855896">
        <ele>894.9</ele>
        <time>2021-08-17T10:30:41Z</time>
        <sat>9</sat>
      </trkpt>
      <trkpt lat="42.347750" lon="-4.856010">
        <ele>894.9</ele>
        <time>2021-08-17T10:30:48Z</time>
        <sat>9</sat>
      </trkpt>
      <trkpt lat="42.347790" lon="-4.856118">
        <ele>894.8</ele>
        <time>2021-08-17T10:30:55Z</time>
        <sat>9</sat>
      </trkpt>
      <trkpt lat="42.347833" lon="-4.856228">
        <ele>894.8</ele>
        <time>2021-08-17T10:31:02Z</time>
        <sat>9</sat>
      </trkpt>
      <trkpt lat="42.347860" lon="-4.856345">
        <ele>894.9</ele>
        <time>2021-08-17T10:31:09Z</time>
        <sat>9</sat>
      </trkpt>
      <trkpt lat="42.347895" lon="-4.856458">
        <ele>895.0</ele>
        <time>2021-08-17T10:31:16Z</time>
        <sat>9</sat>
      </trkpt>
      <trkpt lat="42.347929" lon="-4.856572">
        <ele>895.0</ele>
        <time>2021-08-17T10:31:23Z</time>
        <sat>9</sat>
      </trkpt>
      <trkpt lat="42.347954" lon="-4.856691">
        <ele>895.1</ele>
        <time>2021-08-17T10:31:30Z</time>
        <sat>9</sat>
      </trkpt>
      <trkpt lat="42.347992" lon="-4.856805">
        <ele>895.2</ele>
        <time>2021-08-17T10:31:37Z</time>
        <sat>9</sat>
      </trkpt>
      <trkpt lat="42.348019" lon="-4.856920">
        <ele>895.3</ele>
        <time>2021-08-17T10:31:44Z</time>
        <sat>9</sat>
      </trkpt>
      <trkpt lat="42.348025" lon="-4.857044">
        <ele>895.3</ele>
        <time>2021-08-17T10:31:51Z</time>
        <sat>9</sat>
      </trkpt>
      <trkpt lat="42.348052" lon="-4.857165">
        <ele>895.3</ele>
        <time>2021-08-17T10:31:58Z</time>
        <sat>9</sat>
      </trkpt>
      <trkpt lat="42.348063" lon="-4.857274">
        <ele>895.2</ele>
        <time>2021-08-17T10:32:04Z</time>
        <sat>9</sat>
      </trkpt>
      <trkpt lat="42.348076" lon="-4.857393">
        <ele>895.1</ele>
        <time>2021-08-17T10:32:11Z</time>
        <sat>9</sat>
      </trkpt>
      <trkpt lat="42.348088" lon="-4.857512">
        <ele>895.0</ele>
        <time>2021-08-17T10:32:18Z</time>
        <sat>9</sat>
      </trkpt>
      <trkpt lat="42.348094" lon="-4.857637">
        <ele>895.0</ele>
        <time>2021-08-17T10:32:25Z</time>
        <sat>9</sat>
      </trkpt>
      <trkpt lat="42.348093" lon="-4.857753">
        <ele>895.0</ele>
        <time>2021-08-17T10:32:32Z</time>
        <sat>9</sat>
      </trkpt>
      <trkpt lat="42.348101" lon="-4.857869">
        <ele>894.9</ele>
        <time>2021-08-17T10:32:39Z</time>
        <sat>9</sat>
      </trkpt>
      <trkpt lat="42.348097" lon="-4.857979">
        <ele>894.9</ele>
        <time>2021-08-17T10:32:45Z</time>
        <sat>9</sat>
      </trkpt>
      <trkpt lat="42.348086" lon="-4.858098">
        <ele>894.8</ele>
        <time>2021-08-17T10:32:52Z</time>
        <sat>9</sat>
      </trkpt>
      <trkpt lat="42.348087" lon="-4.858215">
        <ele>894.6</ele>
        <time>2021-08-17T10:32:59Z</time>
        <sat>9</sat>
      </trkpt>
      <trkpt lat="42.348087" lon="-4.858334">
        <ele>894.5</ele>
        <time>2021-08-17T10:33:06Z</time>
        <sat>9</sat>
      </trkpt>
      <trkpt lat="42.348083" lon="-4.858453">
        <ele>894.0</ele>
        <time>2021-08-17T10:33:14Z</time>
        <sat>9</sat>
      </trkpt>
      <trkpt lat="42.348080" lon="-4.858573">
        <ele>893.4</ele>
        <time>2021-08-17T10:33:21Z</time>
        <sat>9</sat>
      </trkpt>
      <trkpt lat="42.348062" lon="-4.858691">
        <ele>892.8</ele>
        <time>2021-08-17T10:33:28Z</time>
        <sat>9</sat>
      </trkpt>
      <trkpt lat="42.348027" lon="-4.858801">
        <ele>892.1</ele>
        <time>2021-08-17T10:33:35Z</time>
        <sat>9</sat>
      </trkpt>
      <trkpt lat="42.347970" lon="-4.858898">
        <ele>891.3</ele>
        <time>2021-08-17T10:33:42Z</time>
        <sat>9</sat>
      </trkpt>
      <trkpt lat="42.347913" lon="-4.858993">
        <ele>890.6</ele>
        <time>2021-08-17T10:33:49Z</time>
        <sat>9</sat>
      </trkpt>
      <trkpt lat="42.347860" lon="-4.859094">
        <ele>890.0</ele>
        <time>2021-08-17T10:33:56Z</time>
        <sat>9</sat>
      </trkpt>
      <trkpt lat="42.347803" lon="-4.859193">
        <ele>889.5</ele>
        <time>2021-08-17T10:34:03Z</time>
        <sat>9</sat>
      </trkpt>
      <trkpt lat="42.347750" lon="-4.859289">
        <ele>888.9</ele>
        <time>2021-08-17T10:34:10Z</time>
        <sat>9</sat>
      </trkpt>
      <trkpt lat="42.347704" lon="-4.859390">
        <ele>888.7</ele>
        <time>2021-08-17T10:34:17Z</time>
        <sat>9</sat>
      </trkpt>
      <trkpt lat="42.347661" lon="-4.859492">
        <ele>888.3</ele>
        <time>2021-08-17T10:34:24Z</time>
        <sat>9</sat>
      </trkpt>
      <trkpt lat="42.347638" lon="-4.859603">
        <ele>887.9</ele>
        <time>2021-08-17T10:34:31Z</time>
        <sat>9</sat>
      </trkpt>
      <trkpt lat="42.347633" lon="-4.859727">
        <ele>887.4</ele>
        <time>2021-08-17T10:34:39Z</time>
        <sat>9</sat>
      </trkpt>
      <trkpt lat="42.347640" lon="-4.859848">
        <ele>886.9</ele>
        <time>2021-08-17T10:34:46Z</time>
        <sat>9</sat>
      </trkpt>
      <trkpt lat="42.347656" lon="-4.859969">
        <ele>886.3</ele>
        <time>2021-08-17T10:34:53Z</time>
        <sat>9</sat>
      </trkpt>
      <trkpt lat="42.347692" lon="-4.860075">
        <ele>885.6</ele>
        <time>2021-08-17T10:34:59Z</time>
        <sat>9</sat>
      </trkpt>
      <trkpt lat="42.347731" lon="-4.860172">
        <ele>885.2</ele>
        <time>2021-08-17T10:35:05Z</time>
        <sat>9</sat>
      </trkpt>
      <trkpt lat="42.347787" lon="-4.860260">
        <ele>884.5</ele>
        <time>2021-08-17T10:35:11Z</time>
        <sat>9</sat>
      </trkpt>
      <trkpt lat="42.347852" lon="-4.860349">
        <ele>884.0</ele>
        <time>2021-08-17T10:35:18Z</time>
        <sat>9</sat>
      </trkpt>
      <trkpt lat="42.347919" lon="-4.860428">
        <ele>883.7</ele>
        <time>2021-08-17T10:35:25Z</time>
        <sat>9</sat>
      </trkpt>
      <trkpt lat="42.347966" lon="-4.860536">
        <ele>883.2</ele>
        <time>2021-08-17T10:35:32Z</time>
        <sat>9</sat>
      </trkpt>
      <trkpt lat="42.348020" lon="-4.860638">
        <ele>882.6</ele>
        <time>2021-08-17T10:35:40Z</time>
        <sat>9</sat>
      </trkpt>
      <trkpt lat="42.348073" lon="-4.860733">
        <ele>881.9</ele>
        <time>2021-08-17T10:35:48Z</time>
        <sat>9</sat>
      </trkpt>
      <trkpt lat="42.348125" lon="-4.860833">
        <ele>881.0</ele>
        <time>2021-08-17T10:35:56Z</time>
        <sat>9</sat>
      </trkpt>
      <trkpt lat="42.348169" lon="-4.860944">
        <ele>877.7</ele>
        <time>2021-08-17T10:36:04Z</time>
        <sat>9</sat>
      </trkpt>
      <trkpt lat="42.348203" lon="-4.861047">
        <ele>878.9</ele>
        <time>2021-08-17T10:36:11Z</time>
        <sat>9</sat>
      </trkpt>
      <trkpt lat="42.348248" lon="-4.861143">
        <ele>877.4</ele>
        <time>2021-08-17T10:36:18Z</time>
        <sat>9</sat>
      </trkpt>
      <trkpt lat="42.348301" lon="-4.861237">
        <ele>875.8</ele>
        <time>2021-08-17T10:36:25Z</time>
        <sat>9</sat>
      </trkpt>
      <trkpt lat="42.348353" lon="-4.861340">
        <ele>876.0</ele>
        <time>2021-08-17T10:36:33Z</time>
        <sat>9</sat>
      </trkpt>
      <trkpt lat="42.348405" lon="-4.861434">
        <ele>875.9</ele>
        <time>2021-08-17T10:36:40Z</time>
        <sat>9</sat>
      </trkpt>
      <trkpt lat="42.348446" lon="-4.861535">
        <ele>875.9</ele>
        <time>2021-08-17T10:36:47Z</time>
        <sat>9</sat>
      </trkpt>
      <trkpt lat="42.348481" lon="-4.861637">
        <ele>875.3</ele>
        <time>2021-08-17T10:36:54Z</time>
        <sat>9</sat>
      </trkpt>
      <trkpt lat="42.348533" lon="-4.861739">
        <ele>875.5</ele>
        <time>2021-08-17T10:37:02Z</time>
        <sat>9</sat>
      </trkpt>
      <trkpt lat="42.348577" lon="-4.861841">
        <ele>874.9</ele>
        <time>2021-08-17T10:37:09Z</time>
        <sat>9</sat>
      </trkpt>
      <trkpt lat="42.348619" lon="-4.861940">
        <ele>874.6</ele>
        <time>2021-08-17T10:37:16Z</time>
        <sat>9</sat>
      </trkpt>
      <trkpt lat="42.348669" lon="-4.862034">
        <ele>874.1</ele>
        <time>2021-08-17T10:37:23Z</time>
        <sat>9</sat>
      </trkpt>
      <trkpt lat="42.348722" lon="-4.862133">
        <ele>873.9</ele>
        <time>2021-08-17T10:37:30Z</time>
        <sat>9</sat>
      </trkpt>
      <trkpt lat="42.348787" lon="-4.862214">
        <ele>873.8</ele>
        <time>2021-08-17T10:37:37Z</time>
        <sat>9</sat>
      </trkpt>
      <trkpt lat="42.348861" lon="-4.862284">
        <ele>873.4</ele>
        <time>2021-08-17T10:37:44Z</time>
        <sat>9</sat>
      </trkpt>
      <trkpt lat="42.348934" lon="-4.862349">
        <ele>873.2</ele>
        <time>2021-08-17T10:37:51Z</time>
        <sat>9</sat>
      </trkpt>
      <trkpt lat="42.349003" lon="-4.862409">
        <ele>872.8</ele>
        <time>2021-08-17T10:37:58Z</time>
        <sat>9</sat>
      </trkpt>
      <trkpt lat="42.349078" lon="-4.862481">
        <ele>872.3</ele>
        <time>2021-08-17T10:38:06Z</time>
        <sat>9</sat>
      </trkpt>
      <trkpt lat="42.349148" lon="-4.862557">
        <ele>871.8</ele>
        <time>2021-08-17T10:38:14Z</time>
        <sat>9</sat>
      </trkpt>
      <trkpt lat="42.349214" lon="-4.862621">
        <ele>871.6</ele>
        <time>2021-08-17T10:38:21Z</time>
        <sat>9</sat>
      </trkpt>
      <trkpt lat="42.349290" lon="-4.862693">
        <ele>871.0</ele>
        <time>2021-08-17T10:38:29Z</time>
        <sat>9</sat>
      </trkpt>
      <trkpt lat="42.349364" lon="-4.862754">
        <ele>870.4</ele>
        <time>2021-08-17T10:38:37Z</time>
        <sat>9</sat>
      </trkpt>
      <trkpt lat="42.349443" lon="-4.862818">
        <ele>869.3</ele>
        <time>2021-08-17T10:38:53Z</time>
        <sat>9</sat>
      </trkpt>
      <trkpt lat="42.349515" lon="-4.862882">
        <ele>868.5</ele>
        <time>2021-08-17T10:39:07Z</time>
        <sat>9</sat>
      </trkpt>
      <trkpt lat="42.349590" lon="-4.862945">
        <ele>868.2</ele>
        <time>2021-08-17T10:39:14Z</time>
        <sat>9</sat>
      </trkpt>
      <trkpt lat="42.349657" lon="-4.863009">
        <ele>868.0</ele>
        <time>2021-08-17T10:39:21Z</time>
        <sat>9</sat>
      </trkpt>
      <trkpt lat="42.349730" lon="-4.863058">
        <ele>867.4</ele>
        <time>2021-08-17T10:39:29Z</time>
        <sat>9</sat>
      </trkpt>
      <trkpt lat="42.349801" lon="-4.863120">
        <ele>866.9</ele>
        <time>2021-08-17T10:39:37Z</time>
        <sat>9</sat>
      </trkpt>
      <trkpt lat="42.349876" lon="-4.863169">
        <ele>866.2</ele>
        <time>2021-08-17T10:40:00Z</time>
        <sat>9</sat>
      </trkpt>
      <trkpt lat="42.349951" lon="-4.863228">
        <ele>866.1</ele>
        <time>2021-08-17T10:40:07Z</time>
        <sat>9</sat>
      </trkpt>
      <trkpt lat="42.350016" lon="-4.863300">
        <ele>865.8</ele>
        <time>2021-08-17T10:40:14Z</time>
        <sat>9</sat>
      </trkpt>
      <trkpt lat="42.350087" lon="-4.863361">
        <ele>865.3</ele>
        <time>2021-08-17T10:40:21Z</time>
        <sat>9</sat>
      </trkpt>
      <trkpt lat="42.350165" lon="-4.863431">
        <ele>864.8</ele>
        <time>2021-08-17T10:40:28Z</time>
        <sat>9</sat>
      </trkpt>
      <trkpt lat="42.350238" lon="-4.863503">
        <ele>864.8</ele>
        <time>2021-08-17T10:40:35Z</time>
        <sat>9</sat>
      </trkpt>
      <trkpt lat="42.350315" lon="-4.863572">
        <ele>864.7</ele>
        <time>2021-08-17T10:40:42Z</time>
        <sat>9</sat>
      </trkpt>
      <trkpt lat="42.350379" lon="-4.863641">
        <ele>864.5</ele>
        <time>2021-08-17T10:40:48Z</time>
        <sat>9</sat>
      </trkpt>
      <trkpt lat="42.350456" lon="-4.863715">
        <ele>864.4</ele>
        <time>2021-08-17T10:40:55Z</time>
        <sat>9</sat>
      </trkpt>
      <trkpt lat="42.350529" lon="-4.863790">
        <ele>864.2</ele>
        <time>2021-08-17T10:41:02Z</time>
        <sat>9</sat>
      </trkpt>
      <trkpt lat="42.350603" lon="-4.863864">
        <ele>864.3</ele>
        <time>2021-08-17T10:41:09Z</time>
        <sat>9</sat>
      </trkpt>
      <trkpt lat="42.350675" lon="-4.863943">
        <ele>864.3</ele>
        <time>2021-08-17T10:41:16Z</time>
        <sat>9</sat>
      </trkpt>
      <trkpt lat="42.350751" lon="-4.864011">
        <ele>864.4</ele>
        <time>2021-08-17T10:41:23Z</time>
        <sat>9</sat>
      </trkpt>
      <trkpt lat="42.350823" lon="-4.864070">
        <ele>864.6</ele>
        <time>2021-08-17T10:41:31Z</time>
        <sat>9</sat>
      </trkpt>
      <trkpt lat="42.350908" lon="-4.864113">
        <ele>864.5</ele>
        <time>2021-08-17T10:41:39Z</time>
        <sat>9</sat>
      </trkpt>
      <trkpt lat="42.350990" lon="-4.864164">
        <ele>864.8</ele>
        <time>2021-08-17T10:41:47Z</time>
        <sat>9</sat>
      </trkpt>
      <trkpt lat="42.351063" lon="-4.864245">
        <ele>864.7</ele>
        <time>2021-08-17T10:41:54Z</time>
        <sat>9</sat>
      </trkpt>
      <trkpt lat="42.351131" lon="-4.864306">
        <ele>864.7</ele>
        <time>2021-08-17T10:42:00Z</time>
        <sat>9</sat>
      </trkpt>
      <trkpt lat="42.351217" lon="-4.864328">
        <ele>865.0</ele>
        <time>2021-08-17T10:42:10Z</time>
        <sat>9</sat>
      </trkpt>
      <trkpt lat="42.351309" lon="-4.864311">
        <ele>865.0</ele>
        <time>2021-08-17T10:42:18Z</time>
        <sat>9</sat>
      </trkpt>
      <trkpt lat="42.351390" lon="-4.864326">
        <ele>864.4</ele>
        <time>2021-08-17T10:42:27Z</time>
        <sat>9</sat>
      </trkpt>
      <trkpt lat="42.351481" lon="-4.864348">
        <ele>864.3</ele>
        <time>2021-08-17T10:42:34Z</time>
        <sat>9</sat>
      </trkpt>
      <trkpt lat="42.351568" lon="-4.864385">
        <ele>864.3</ele>
        <time>2021-08-17T10:42:41Z</time>
        <sat>9</sat>
      </trkpt>
      <trkpt lat="42.351658" lon="-4.864409">
        <ele>864.4</ele>
        <time>2021-08-17T10:42:48Z</time>
        <sat>9</sat>
      </trkpt>
      <trkpt lat="42.351747" lon="-4.864445">
        <ele>864.6</ele>
        <time>2021-08-17T10:42:55Z</time>
        <sat>9</sat>
      </trkpt>
      <trkpt lat="42.351834" lon="-4.864488">
        <ele>864.8</ele>
        <time>2021-08-17T10:43:02Z</time>
        <sat>9</sat>
      </trkpt>
      <trkpt lat="42.351919" lon="-4.864527">
        <ele>865.2</ele>
        <time>2021-08-17T10:43:09Z</time>
        <sat>9</sat>
      </trkpt>
      <trkpt lat="42.352004" lon="-4.864563">
        <ele>865.2</ele>
        <time>2021-08-17T10:43:16Z</time>
        <sat>9</sat>
      </trkpt>
      <trkpt lat="42.352086" lon="-4.864605">
        <ele>865.4</ele>
        <time>2021-08-17T10:43:23Z</time>
        <sat>9</sat>
      </trkpt>
      <trkpt lat="42.352168" lon="-4.864646">
        <ele>865.5</ele>
        <time>2021-08-17T10:43:31Z</time>
        <sat>9</sat>
      </trkpt>
      <trkpt lat="42.352247" lon="-4.864685">
        <ele>865.6</ele>
        <time>2021-08-17T10:43:38Z</time>
        <sat>9</sat>
      </trkpt>
      <trkpt lat="42.352327" lon="-4.864732">
        <ele>865.9</ele>
        <time>2021-08-17T10:43:45Z</time>
        <sat>9</sat>
      </trkpt>
      <trkpt lat="42.352412" lon="-4.864781">
        <ele>866.2</ele>
        <time>2021-08-17T10:43:52Z</time>
        <sat>9</sat>
      </trkpt>
      <trkpt lat="42.352497" lon="-4.864821">
        <ele>866.2</ele>
        <time>2021-08-17T10:43:59Z</time>
        <sat>9</sat>
      </trkpt>
      <trkpt lat="42.352578" lon="-4.864867">
        <ele>866.1</ele>
        <time>2021-08-17T10:44:06Z</time>
        <sat>9</sat>
      </trkpt>
      <trkpt lat="42.352661" lon="-4.864905">
        <ele>865.9</ele>
        <time>2021-08-17T10:44:13Z</time>
        <sat>9</sat>
      </trkpt>
      <trkpt lat="42.352746" lon="-4.864931">
        <ele>865.6</ele>
        <time>2021-08-17T10:44:20Z</time>
        <sat>9</sat>
      </trkpt>
      <trkpt lat="42.352829" lon="-4.864958">
        <ele>865.8</ele>
        <time>2021-08-17T10:44:27Z</time>
        <sat>9</sat>
      </trkpt>
      <trkpt lat="42.352915" lon="-4.864980">
        <ele>866.0</ele>
        <time>2021-08-17T10:44:34Z</time>
        <sat>9</sat>
      </trkpt>
      <trkpt lat="42.353001" lon="-4.864987">
        <ele>866.0</ele>
        <time>2021-08-17T10:44:41Z</time>
        <sat>9</sat>
      </trkpt>
      <trkpt lat="42.353094" lon="-4.865004">
        <ele>866.0</ele>
        <time>2021-08-17T10:44:48Z</time>
        <sat>9</sat>
      </trkpt>
      <trkpt lat="42.353174" lon="-4.865035">
        <ele>865.9</ele>
        <time>2021-08-17T10:44:55Z</time>
        <sat>9</sat>
      </trkpt>
      <trkpt lat="42.353259" lon="-4.865073">
        <ele>865.7</ele>
        <time>2021-08-17T10:45:02Z</time>
        <sat>9</sat>
      </trkpt>
      <trkpt lat="42.353340" lon="-4.865123">
        <ele>865.3</ele>
        <time>2021-08-17T10:45:09Z</time>
        <sat>9</sat>
      </trkpt>
      <trkpt lat="42.353432" lon="-4.865144">
        <ele>865.1</ele>
        <time>2021-08-17T10:45:59Z</time>
        <sat>9</sat>
      </trkpt>
      <trkpt lat="42.353505" lon="-4.865203">
        <ele>865.2</ele>
        <time>2021-08-17T10:46:05Z</time>
        <sat>9</sat>
      </trkpt>
      <trkpt lat="42.353583" lon="-4.865257">
        <ele>865.2</ele>
        <time>2021-08-17T10:46:11Z</time>
        <sat>9</sat>
      </trkpt>
      <trkpt lat="42.353642" lon="-4.865333">
        <ele>865.2</ele>
        <time>2021-08-17T10:46:18Z</time>
        <sat>9</sat>
      </trkpt>
      <trkpt lat="42.353678" lon="-4.865433">
        <ele>865.0</ele>
        <time>2021-08-17T10:47:28Z</time>
        <sat>8</sat>
      </trkpt>
      <trkpt lat="42.353626" lon="-4.865523">
        <ele>865.1</ele>
        <time>2021-08-17T10:48:04Z</time>
        <sat>9</sat>
      </trkpt>
      <trkpt lat="42.353635" lon="-4.865639">
        <ele>865.2</ele>
        <time>2021-08-17T10:48:12Z</time>
        <sat>9</sat>
      </trkpt>
      <trkpt lat="42.353578" lon="-4.865723">
        <ele>865.4</ele>
        <time>2021-08-17T10:48:42Z</time>
        <sat>9</sat>
      </trkpt>
      <trkpt lat="42.353508" lon="-4.865801">
        <ele>868.5</ele>
        <time>2021-08-17T11:40:46Z</time>
        <sat>8</sat>
      </trkpt>
      <trkpt lat="42.353525" lon="-4.865916">
        <ele>869.9</ele>
        <time>2021-08-17T11:42:05Z</time>
        <sat>8</sat>
      </trkpt>
      <trkpt lat="42.353487" lon="-4.866021">
        <ele>870.2</ele>
        <time>2021-08-17T11:42:14Z</time>
        <sat>8</sat>
      </trkpt>
      <trkpt lat="42.353441" lon="-4.866121">
        <ele>870.1</ele>
        <time>2021-08-17T11:42:23Z</time>
        <sat>8</sat>
      </trkpt>
      <trkpt lat="42.353411" lon="-4.866227">
        <ele>869.9</ele>
        <time>2021-08-17T11:42:37Z</time>
        <sat>9</sat>
      </trkpt>
      <trkpt lat="42.353410" lon="-4.866339">
        <ele>869.1</ele>
        <time>2021-08-17T11:42:49Z</time>
        <sat>9</sat>
      </trkpt>
      <trkpt lat="42.353374" lon="-4.866447">
        <ele>869.9</ele>
        <time>2021-08-17T11:43:04Z</time>
        <sat>8</sat>
      </trkpt>
      <trkpt lat="42.353316" lon="-4.866524">
        <ele>870.6</ele>
        <time>2021-08-17T11:43:16Z</time>
        <sat>9</sat>
      </trkpt>
      <trkpt lat="42.353238" lon="-4.866551">
        <ele>870.7</ele>
        <time>2021-08-17T11:43:28Z</time>
        <sat>8</sat>
      </trkpt>
      <trkpt lat="42.353152" lon="-4.866573">
        <ele>870.7</ele>
        <time>2021-08-17T11:43:39Z</time>
        <sat>9</sat>
      </trkpt>
      <trkpt lat="42.353074" lon="-4.866601">
        <ele>870.7</ele>
        <time>2021-08-17T11:43:50Z</time>
        <sat>9</sat>
      </trkpt>
      <trkpt lat="42.352998" lon="-4.866651">
        <ele>870.8</ele>
        <time>2021-08-17T11:44:00Z</time>
        <sat>9</sat>
      </trkpt>
      <trkpt lat="42.352919" lon="-4.866695">
        <ele>870.9</ele>
        <time>2021-08-17T11:44:15Z</time>
        <sat>9</sat>
      </trkpt>
      <trkpt lat="42.352834" lon="-4.866736">
        <ele>870.8</ele>
        <time>2021-08-17T11:44:24Z</time>
        <sat>9</sat>
      </trkpt>
      <trkpt lat="42.352762" lon="-4.866798">
        <ele>870.7</ele>
        <time>2021-08-17T11:44:33Z</time>
        <sat>9</sat>
      </trkpt>
      <trkpt lat="42.352702" lon="-4.866876">
        <ele>870.6</ele>
        <time>2021-08-17T11:44:42Z</time>
        <sat>9</sat>
      </trkpt>
      <trkpt lat="42.352644" lon="-4.866961">
        <ele>870.4</ele>
        <time>2021-08-17T11:44:51Z</time>
        <sat>9</sat>
      </trkpt>
      <trkpt lat="42.352599" lon="-4.867051">
        <ele>870.5</ele>
        <time>2021-08-17T11:45:00Z</time>
        <sat>9</sat>
      </trkpt>
      <trkpt lat="42.352559" lon="-4.867159">
        <ele>870.6</ele>
        <time>2021-08-17T11:45:11Z</time>
        <sat>10</sat>
      </trkpt>
      <trkpt lat="42.352515" lon="-4.867252">
        <ele>870.5</ele>
        <time>2021-08-17T11:45:19Z</time>
        <sat>9</sat>
      </trkpt>
      <trkpt lat="42.352474" lon="-4.867349">
        <ele>870.7</ele>
        <time>2021-08-17T11:45:28Z</time>
        <sat>10</sat>
      </trkpt>
      <trkpt lat="42.352435" lon="-4.867448">
        <ele>870.8</ele>
        <time>2021-08-17T11:45:37Z</time>
        <sat>9</sat>
      </trkpt>
      <trkpt lat="42.352392" lon="-4.867554">
        <ele>870.9</ele>
        <time>2021-08-17T11:45:51Z</time>
        <sat>10</sat>
      </trkpt>
      <trkpt lat="42.352354" lon="-4.867650">
        <ele>870.9</ele>
        <time>2021-08-17T11:46:00Z</time>
        <sat>9</sat>
      </trkpt>
      <trkpt lat="42.352313" lon="-4.867756">
        <ele>871.0</ele>
        <time>2021-08-17T11:46:09Z</time>
        <sat>10</sat>
      </trkpt>
      <trkpt lat="42.352271" lon="-4.867859">
        <ele>871.0</ele>
        <time>2021-08-17T11:46:18Z</time>
        <sat>9</sat>
      </trkpt>
      <trkpt lat="42.352208" lon="-4.867929">
        <ele>871.2</ele>
        <time>2021-08-17T11:46:38Z</time>
        <sat>10</sat>
      </trkpt>
      <trkpt lat="42.352179" lon="-4.868036">
        <ele>871.3</ele>
        <time>2021-08-17T11:46:59Z</time>
        <sat>9</sat>
      </trkpt>
      <trkpt lat="42.352125" lon="-4.868129">
        <ele>871.2</ele>
        <time>2021-08-17T11:47:10Z</time>
        <sat>9</sat>
      </trkpt>
      <trkpt lat="42.352084" lon="-4.868233">
        <ele>871.2</ele>
        <time>2021-08-17T11:47:19Z</time>
        <sat>10</sat>
      </trkpt>
      <trkpt lat="42.352051" lon="-4.868339">
        <ele>871.3</ele>
        <time>2021-08-17T11:47:40Z</time>
        <sat>10</sat>
      </trkpt>
      <trkpt lat="42.352005" lon="-4.868434">
        <ele>871.3</ele>
        <time>2021-08-17T11:47:47Z</time>
        <sat>10</sat>
      </trkpt>
      <trkpt lat="42.351967" lon="-4.868531">
        <ele>871.3</ele>
        <time>2021-08-17T11:47:54Z</time>
        <sat>10</sat>
      </trkpt>
      <trkpt lat="42.351923" lon="-4.868636">
        <ele>871.1</ele>
        <time>2021-08-17T11:48:02Z</time>
        <sat>10</sat>
      </trkpt>
      <trkpt lat="42.351886" lon="-4.868736">
        <ele>871.0</ele>
        <time>2021-08-17T11:48:09Z</time>
        <sat>10</sat>
      </trkpt>
      <trkpt lat="42.351852" lon="-4.868838">
        <ele>870.6</ele>
        <time>2021-08-17T11:48:17Z</time>
        <sat>10</sat>
      </trkpt>
      <trkpt lat="42.351817" lon="-4.868942">
        <ele>871.2</ele>
        <time>2021-08-17T11:48:25Z</time>
        <sat>9</sat>
      </trkpt>
      <trkpt lat="42.351773" lon="-4.869044">
        <ele>871.6</ele>
        <time>2021-08-17T11:48:33Z</time>
        <sat>10</sat>
      </trkpt>
      <trkpt lat="42.351749" lon="-4.869152">
        <ele>871.1</ele>
        <time>2021-08-17T11:48:41Z</time>
        <sat>9</sat>
      </trkpt>
      <trkpt lat="42.351719" lon="-4.869259">
        <ele>871.2</ele>
        <time>2021-08-17T11:48:48Z</time>
        <sat>10</sat>
      </trkpt>
      <trkpt lat="42.351692" lon="-4.869371">
        <ele>871.3</ele>
        <time>2021-08-17T11:48:57Z</time>
        <sat>10</sat>
      </trkpt>
      <trkpt lat="42.351649" lon="-4.869469">
        <ele>871.8</ele>
        <time>2021-08-17T11:49:28Z</time>
        <sat>10</sat>
      </trkpt>
      <trkpt lat="42.351607" lon="-4.869566">
        <ele>871.6</ele>
        <time>2021-08-17T11:49:35Z</time>
        <sat>9</sat>
      </trkpt>
      <trkpt lat="42.351567" lon="-4.869663">
        <ele>871.5</ele>
        <time>2021-08-17T11:49:42Z</time>
        <sat>10</sat>
      </trkpt>
      <trkpt lat="42.351528" lon="-4.869761">
        <ele>871.6</ele>
        <time>2021-08-17T11:49:49Z</time>
        <sat>10</sat>
      </trkpt>
      <trkpt lat="42.351487" lon="-4.869871">
        <ele>871.7</ele>
        <time>2021-08-17T11:49:56Z</time>
        <sat>9</sat>
      </trkpt>
      <trkpt lat="42.351441" lon="-4.869974">
        <ele>871.7</ele>
        <time>2021-08-17T11:50:03Z</time>
        <sat>10</sat>
      </trkpt>
      <trkpt lat="42.351403" lon="-4.870081">
        <ele>872.1</ele>
        <time>2021-08-17T11:50:10Z</time>
        <sat>10</sat>
      </trkpt>
      <trkpt lat="42.351358" lon="-4.870188">
        <ele>872.4</ele>
        <time>2021-08-17T11:50:18Z</time>
        <sat>10</sat>
      </trkpt>
      <trkpt lat="42.351337" lon="-4.870298">
        <ele>872.2</ele>
        <time>2021-08-17T11:50:26Z</time>
        <sat>9</sat>
      </trkpt>
      <trkpt lat="42.351330" lon="-4.870410">
        <ele>871.7</ele>
        <time>2021-08-17T11:50:33Z</time>
        <sat>10</sat>
      </trkpt>
      <trkpt lat="42.351330" lon="-4.870521">
        <ele>871.1</ele>
        <time>2021-08-17T11:50:40Z</time>
        <sat>10</sat>
      </trkpt>
      <trkpt lat="42.351326" lon="-4.870638">
        <ele>870.6</ele>
        <time>2021-08-17T11:50:51Z</time>
        <sat>10</sat>
      </trkpt>
      <trkpt lat="42.351323" lon="-4.870750">
        <ele>870.2</ele>
        <time>2021-08-17T11:50:59Z</time>
        <sat>10</sat>
      </trkpt>
      <trkpt lat="42.351313" lon="-4.870874">
        <ele>869.7</ele>
        <time>2021-08-17T11:51:08Z</time>
        <sat>10</sat>
      </trkpt>
      <trkpt lat="42.351306" lon="-4.870995">
        <ele>869.5</ele>
        <time>2021-08-17T11:51:16Z</time>
        <sat>8</sat>
      </trkpt>
      <trkpt lat="42.351294" lon="-4.871113">
        <ele>869.4</ele>
        <time>2021-08-17T11:51:24Z</time>
        <sat>9</sat>
      </trkpt>
      <trkpt lat="42.351287" lon="-4.871231">
        <ele>869.2</ele>
        <time>2021-08-17T11:51:32Z</time>
        <sat>10</sat>
      </trkpt>
      <trkpt lat="42.351280" lon="-4.871345">
        <ele>868.9</ele>
        <time>2021-08-17T11:51:40Z</time>
        <sat>10</sat>
      </trkpt>
      <trkpt lat="42.351274" lon="-4.871464">
        <ele>868.8</ele>
        <time>2021-08-17T11:51:48Z</time>
        <sat>10</sat>
      </trkpt>
      <trkpt lat="42.351267" lon="-4.871585">
        <ele>868.7</ele>
        <time>2021-08-17T11:51:56Z</time>
        <sat>10</sat>
      </trkpt>
      <trkpt lat="42.351258" lon="-4.871696">
        <ele>868.5</ele>
        <time>2021-08-17T11:52:03Z</time>
        <sat>10</sat>
      </trkpt>
      <trkpt lat="42.351250" lon="-4.871819">
        <ele>868.3</ele>
        <time>2021-08-17T11:52:11Z</time>
        <sat>10</sat>
      </trkpt>
      <trkpt lat="42.351245" lon="-4.871933">
        <ele>868.2</ele>
        <time>2021-08-17T11:52:19Z</time>
        <sat>10</sat>
      </trkpt>
      <trkpt lat="42.351240" lon="-4.872052">
        <ele>867.6</ele>
        <time>2021-08-17T11:52:27Z</time>
        <sat>10</sat>
      </trkpt>
      <trkpt lat="42.351228" lon="-4.872164">
        <ele>867.6</ele>
        <time>2021-08-17T11:52:36Z</time>
        <sat>10</sat>
      </trkpt>
      <trkpt lat="42.351230" lon="-4.872282">
        <ele>867.0</ele>
        <time>2021-08-17T11:52:44Z</time>
        <sat>10</sat>
      </trkpt>
      <trkpt lat="42.351220" lon="-4.872395">
        <ele>867.1</ele>
        <time>2021-08-17T11:52:52Z</time>
        <sat>10</sat>
      </trkpt>
      <trkpt lat="42.351211" lon="-4.872505">
        <ele>867.0</ele>
        <time>2021-08-17T11:52:59Z</time>
        <sat>10</sat>
      </trkpt>
      <trkpt lat="42.351205" lon="-4.872626">
        <ele>866.7</ele>
        <time>2021-08-17T11:53:07Z</time>
        <sat>10</sat>
      </trkpt>
      <trkpt lat="42.351196" lon="-4.872746">
        <ele>866.3</ele>
        <time>2021-08-17T11:53:15Z</time>
        <sat>10</sat>
      </trkpt>
      <trkpt lat="42.351187" lon="-4.872861">
        <ele>866.3</ele>
        <time>2021-08-17T11:53:23Z</time>
        <sat>10</sat>
      </trkpt>
      <trkpt lat="42.351180" lon="-4.872980">
        <ele>866.5</ele>
        <time>2021-08-17T11:53:31Z</time>
        <sat>10</sat>
      </trkpt>
      <trkpt lat="42.351180" lon="-4.873103">
        <ele>866.4</ele>
        <time>2021-08-17T11:53:39Z</time>
        <sat>10</sat>
      </trkpt>
      <trkpt lat="42.351189" lon="-4.873225">
        <ele>866.5</ele>
        <time>2021-08-17T11:53:47Z</time>
        <sat>10</sat>
      </trkpt>
      <trkpt lat="42.351202" lon="-4.873335">
        <ele>866.4</ele>
        <time>2021-08-17T11:53:55Z</time>
        <sat>10</sat>
      </trkpt>
      <trkpt lat="42.351224" lon="-4.873443">
        <ele>866.5</ele>
        <time>2021-08-17T11:54:03Z</time>
        <sat>10</sat>
      </trkpt>
      <trkpt lat="42.351246" lon="-4.873557">
        <ele>866.8</ele>
        <time>2021-08-17T11:54:21Z</time>
        <sat>10</sat>
      </trkpt>
      <trkpt lat="42.351266" lon="-4.873670">
        <ele>866.8</ele>
        <time>2021-08-17T11:54:29Z</time>
        <sat>10</sat>
      </trkpt>
      <trkpt lat="42.351285" lon="-4.873777">
        <ele>866.9</ele>
        <time>2021-08-17T11:54:37Z</time>
        <sat>10</sat>
      </trkpt>
      <trkpt lat="42.351320" lon="-4.873879">
        <ele>866.9</ele>
        <time>2021-08-17T11:54:56Z</time>
        <sat>10</sat>
      </trkpt>
      <trkpt lat="42.351319" lon="-4.873990">
        <ele>866.9</ele>
        <time>2021-08-17T11:55:06Z</time>
        <sat>10</sat>
      </trkpt>
      <trkpt lat="42.351347" lon="-4.874100">
        <ele>867.0</ele>
        <time>2021-08-17T11:55:15Z</time>
        <sat>10</sat>
      </trkpt>
      <trkpt lat="42.351365" lon="-4.874221">
        <ele>867.1</ele>
        <time>2021-08-17T11:55:24Z</time>
        <sat>10</sat>
      </trkpt>
      <trkpt lat="42.351381" lon="-4.874332">
        <ele>867.2</ele>
        <time>2021-08-17T11:55:32Z</time>
        <sat>10</sat>
      </trkpt>
      <trkpt lat="42.351391" lon="-4.874448">
        <ele>867.2</ele>
        <time>2021-08-17T11:55:40Z</time>
        <sat>9</sat>
      </trkpt>
      <trkpt lat="42.351407" lon="-4.874569">
        <ele>867.6</ele>
        <time>2021-08-17T11:55:49Z</time>
        <sat>9</sat>
      </trkpt>
      <trkpt lat="42.351413" lon="-4.874687">
        <ele>867.6</ele>
        <time>2021-08-17T11:55:57Z</time>
        <sat>9</sat>
      </trkpt>
      <trkpt lat="42.351427" lon="-4.874798">
        <ele>867.7</ele>
        <time>2021-08-17T11:56:06Z</time>
        <sat>10</sat>
      </trkpt>
      <trkpt lat="42.351434" lon="-4.874910">
        <ele>867.9</ele>
        <time>2021-08-17T11:56:14Z</time>
        <sat>10</sat>
      </trkpt>
      <trkpt lat="42.351435" lon="-4.875035">
        <ele>868.0</ele>
        <time>2021-08-17T11:56:22Z</time>
        <sat>10</sat>
      </trkpt>
      <trkpt lat="42.351438" lon="-4.875149">
        <ele>868.3</ele>
        <time>2021-08-17T11:56:29Z</time>
        <sat>10</sat>
      </trkpt>
      <trkpt lat="42.351443" lon="-4.875259">
        <ele>868.4</ele>
        <time>2021-08-17T11:56:36Z</time>
        <sat>10</sat>
      </trkpt>
      <trkpt lat="42.351447" lon="-4.875373">
        <ele>868.6</ele>
        <time>2021-08-17T11:56:43Z</time>
        <sat>10</sat>
      </trkpt>
      <trkpt lat="42.351453" lon="-4.875484">
        <ele>868.8</ele>
        <time>2021-08-17T11:56:50Z</time>
        <sat>10</sat>
      </trkpt>
      <trkpt lat="42.351460" lon="-4.875594">
        <ele>868.8</ele>
        <time>2021-08-17T11:56:57Z</time>
        <sat>10</sat>
      </trkpt>
      <trkpt lat="42.351477" lon="-4.875707">
        <ele>869.1</ele>
        <time>2021-08-17T11:57:04Z</time>
        <sat>10</sat>
      </trkpt>
      <trkpt lat="42.351483" lon="-4.875709">
        <ele>869.1</ele>
        <time>2021-08-17T11:59:36Z</time>
        <sat>9</sat>
      </trkpt>
      <trkpt lat="42.351495" lon="-4.875824">
        <ele>869.2</ele>
        <time>2021-08-17T11:59:43Z</time>
        <sat>9</sat>
      </trkpt>
      <trkpt lat="42.351498" lon="-4.875933">
        <ele>869.2</ele>
        <time>2021-08-17T11:59:49Z</time>
        <sat>9</sat>
      </trkpt>
      <trkpt lat="42.351517" lon="-4.876052">
        <ele>869.2</ele>
        <time>2021-08-17T11:59:56Z</time>
        <sat>9</sat>
      </trkpt>
      <trkpt lat="42.351529" lon="-4.876165">
        <ele>869.4</ele>
        <time>2021-08-17T12:00:08Z</time>
        <sat>9</sat>
      </trkpt>
      <trkpt lat="42.351549" lon="-4.876285">
        <ele>869.5</ele>
        <time>2021-08-17T12:00:15Z</time>
        <sat>9</sat>
      </trkpt>
      <trkpt lat="42.351574" lon="-4.876402">
        <ele>869.6</ele>
        <time>2021-08-17T12:00:22Z</time>
        <sat>9</sat>
      </trkpt>
      <trkpt lat="42.351596" lon="-4.876512">
        <ele>869.5</ele>
        <time>2021-08-17T12:00:28Z</time>
        <sat>9</sat>
      </trkpt>
      <trkpt lat="42.351635" lon="-4.876611">
        <ele>869.9</ele>
        <time>2021-08-17T12:00:53Z</time>
        <sat>10</sat>
      </trkpt>
      <trkpt lat="42.351670" lon="-4.876723">
        <ele>869.7</ele>
        <time>2021-08-17T12:01:05Z</time>
        <sat>10</sat>
      </trkpt>
      <trkpt lat="42.351699" lon="-4.876833">
        <ele>869.7</ele>
        <time>2021-08-17T12:01:15Z</time>
        <sat>10</sat>
      </trkpt>
      <trkpt lat="42.351733" lon="-4.876945">
        <ele>869.9</ele>
        <time>2021-08-17T12:01:23Z</time>
        <sat>10</sat>
      </trkpt>
      <trkpt lat="42.351758" lon="-4.877050">
        <ele>870.2</ele>
        <time>2021-08-17T12:01:31Z</time>
        <sat>10</sat>
      </trkpt>
      <trkpt lat="42.351793" lon="-4.877160">
        <ele>870.5</ele>
        <time>2021-08-17T12:01:39Z</time>
        <sat>10</sat>
      </trkpt>
      <trkpt lat="42.351820" lon="-4.877266">
        <ele>870.6</ele>
        <time>2021-08-17T12:01:47Z</time>
        <sat>10</sat>
      </trkpt>
      <trkpt lat="42.351855" lon="-4.877366">
        <ele>870.8</ele>
        <time>2021-08-17T12:01:54Z</time>
        <sat>10</sat>
      </trkpt>
      <trkpt lat="42.351890" lon="-4.877466">
        <ele>870.8</ele>
        <time>2021-08-17T12:02:01Z</time>
        <sat>10</sat>
      </trkpt>
      <trkpt lat="42.351928" lon="-4.877578">
        <ele>870.9</ele>
        <time>2021-08-17T12:02:09Z</time>
        <sat>10</sat>
      </trkpt>
      <trkpt lat="42.351972" lon="-4.877687">
        <ele>870.9</ele>
        <time>2021-08-17T12:02:17Z</time>
        <sat>10</sat>
      </trkpt>
      <trkpt lat="42.352019" lon="-4.877793">
        <ele>871.1</ele>
        <time>2021-08-17T12:02:25Z</time>
        <sat>10</sat>
      </trkpt>
      <trkpt lat="42.352056" lon="-4.877892">
        <ele>871.1</ele>
        <time>2021-08-17T12:02:32Z</time>
        <sat>10</sat>
      </trkpt>
      <trkpt lat="42.352097" lon="-4.877991">
        <ele>871.2</ele>
        <time>2021-08-17T12:02:39Z</time>
        <sat>9</sat>
      </trkpt>
      <trkpt lat="42.352143" lon="-4.878088">
        <ele>871.3</ele>
        <time>2021-08-17T12:02:46Z</time>
        <sat>9</sat>
      </trkpt>
      <trkpt lat="42.352182" lon="-4.878187">
        <ele>871.3</ele>
        <time>2021-08-17T12:02:53Z</time>
        <sat>9</sat>
      </trkpt>
      <trkpt lat="42.352226" lon="-4.878283">
        <ele>871.2</ele>
        <time>2021-08-17T12:03:00Z</time>
        <sat>9</sat>
      </trkpt>
      <trkpt lat="42.352269" lon="-4.878381">
        <ele>871.4</ele>
        <time>2021-08-17T12:03:07Z</time>
        <sat>9</sat>
      </trkpt>
      <trkpt lat="42.352318" lon="-4.878480">
        <ele>871.7</ele>
        <time>2021-08-17T12:03:14Z</time>
        <sat>9</sat>
      </trkpt>
      <trkpt lat="42.352366" lon="-4.878577">
        <ele>871.8</ele>
        <time>2021-08-17T12:03:21Z</time>
        <sat>10</sat>
      </trkpt>
      <trkpt lat="42.352414" lon="-4.878679">
        <ele>872.0</ele>
        <time>2021-08-17T12:03:28Z</time>
        <sat>10</sat>
      </trkpt>
      <trkpt lat="42.352461" lon="-4.878778">
        <ele>872.2</ele>
        <time>2021-08-17T12:03:35Z</time>
        <sat>10</sat>
      </trkpt>
      <trkpt lat="42.352508" lon="-4.878879">
        <ele>872.6</ele>
        <time>2021-08-17T12:03:42Z</time>
        <sat>10</sat>
      </trkpt>
      <trkpt lat="42.352555" lon="-4.878984">
        <ele>872.8</ele>
        <time>2021-08-17T12:03:49Z</time>
        <sat>10</sat>
      </trkpt>
      <trkpt lat="42.352596" lon="-4.879090">
        <ele>873.0</ele>
        <time>2021-08-17T12:03:56Z</time>
        <sat>10</sat>
      </trkpt>
      <trkpt lat="42.352641" lon="-4.879194">
        <ele>873.2</ele>
        <time>2021-08-17T12:04:03Z</time>
        <sat>10</sat>
      </trkpt>
      <trkpt lat="42.352685" lon="-4.879297">
        <ele>873.3</ele>
        <time>2021-08-17T12:04:10Z</time>
        <sat>10</sat>
      </trkpt>
      <trkpt lat="42.352729" lon="-4.879401">
        <ele>873.4</ele>
        <time>2021-08-17T12:04:17Z</time>
        <sat>9</sat>
      </trkpt>
      <trkpt lat="42.352778" lon="-4.879501">
        <ele>873.5</ele>
        <time>2021-08-17T12:04:24Z</time>
        <sat>9</sat>
      </trkpt>
      <trkpt lat="42.352824" lon="-4.879599">
        <ele>873.8</ele>
        <time>2021-08-17T12:04:31Z</time>
        <sat>9</sat>
      </trkpt>
      <trkpt lat="42.352873" lon="-4.879703">
        <ele>874.0</ele>
        <time>2021-08-17T12:04:38Z</time>
        <sat>9</sat>
      </trkpt>
      <trkpt lat="42.352916" lon="-4.879810">
        <ele>874.3</ele>
        <time>2021-08-17T12:04:45Z</time>
        <sat>9</sat>
      </trkpt>
      <trkpt lat="42.352961" lon="-4.879915">
        <ele>874.4</ele>
        <time>2021-08-17T12:04:52Z</time>
        <sat>10</sat>
      </trkpt>
      <trkpt lat="42.353006" lon="-4.880022">
        <ele>874.6</ele>
        <time>2021-08-17T12:04:59Z</time>
        <sat>10</sat>
      </trkpt>
      <trkpt lat="42.353058" lon="-4.880106">
        <ele>874.7</ele>
        <time>2021-08-17T12:05:05Z</time>
        <sat>10</sat>
      </trkpt>
      <trkpt lat="42.353106" lon="-4.880212">
        <ele>874.7</ele>
        <time>2021-08-17T12:05:12Z</time>
        <sat>10</sat>
      </trkpt>
      <trkpt lat="42.353152" lon="-4.880314">
        <ele>874.9</ele>
        <time>2021-08-17T12:05:19Z</time>
        <sat>10</sat>
      </trkpt>
      <trkpt lat="42.353203" lon="-4.880407">
        <ele>875.3</ele>
        <time>2021-08-17T12:05:26Z</time>
        <sat>10</sat>
      </trkpt>
      <trkpt lat="42.353254" lon="-4.880502">
        <ele>875.6</ele>
        <time>2021-08-17T12:05:33Z</time>
        <sat>10</sat>
      </trkpt>
      <trkpt lat="42.353311" lon="-4.880597">
        <ele>875.9</ele>
        <time>2021-08-17T12:05:40Z</time>
        <sat>10</sat>
      </trkpt>
      <trkpt lat="42.353366" lon="-4.880700">
        <ele>876.1</ele>
        <time>2021-08-17T12:05:47Z</time>
        <sat>10</sat>
      </trkpt>
      <trkpt lat="42.353420" lon="-4.880802">
        <ele>876.1</ele>
        <time>2021-08-17T12:05:54Z</time>
        <sat>10</sat>
      </trkpt>
      <trkpt lat="42.353472" lon="-4.880900">
        <ele>876.4</ele>
        <time>2021-08-17T12:06:01Z</time>
        <sat>10</sat>
      </trkpt>
      <trkpt lat="42.353524" lon="-4.880996">
        <ele>876.6</ele>
        <time>2021-08-17T12:06:08Z</time>
        <sat>10</sat>
      </trkpt>
      <trkpt lat="42.353578" lon="-4.881092">
        <ele>876.8</ele>
        <time>2021-08-17T12:06:15Z</time>
        <sat>10</sat>
      </trkpt>
      <trkpt lat="42.353633" lon="-4.881192">
        <ele>877.0</ele>
        <time>2021-08-17T12:06:22Z</time>
        <sat>10</sat>
      </trkpt>
      <trkpt lat="42.353682" lon="-4.881294">
        <ele>877.1</ele>
        <time>2021-08-17T12:06:29Z</time>
        <sat>10</sat>
      </trkpt>
      <trkpt lat="42.353727" lon="-4.881392">
        <ele>877.3</ele>
        <time>2021-08-17T12:06:36Z</time>
        <sat>10</sat>
      </trkpt>
      <trkpt lat="42.353779" lon="-4.881487">
        <ele>877.4</ele>
        <time>2021-08-17T12:06:43Z</time>
        <sat>10</sat>
      </trkpt>
      <trkpt lat="42.353828" lon="-4.881581">
        <ele>877.6</ele>
        <time>2021-08-17T12:06:50Z</time>
        <sat>10</sat>
      </trkpt>
      <trkpt lat="42.353876" lon="-4.881673">
        <ele>877.8</ele>
        <time>2021-08-17T12:06:57Z</time>
        <sat>10</sat>
      </trkpt>
      <trkpt lat="42.353922" lon="-4.881773">
        <ele>878.1</ele>
        <time>2021-08-17T12:07:05Z</time>
        <sat>9</sat>
      </trkpt>
      <trkpt lat="42.353971" lon="-4.881876">
        <ele>878.2</ele>
        <time>2021-08-17T12:07:13Z</time>
        <sat>10</sat>
      </trkpt>
      <trkpt lat="42.354021" lon="-4.881963">
        <ele>878.4</ele>
        <time>2021-08-17T12:07:20Z</time>
        <sat>10</sat>
      </trkpt>
      <trkpt lat="42.354070" lon="-4.882059">
        <ele>878.4</ele>
        <time>2021-08-17T12:07:27Z</time>
        <sat>10</sat>
      </trkpt>
      <trkpt lat="42.354121" lon="-4.882154">
        <ele>878.5</ele>
        <time>2021-08-17T12:07:36Z</time>
        <sat>10</sat>
      </trkpt>
      <trkpt lat="42.354167" lon="-4.882251">
        <ele>878.7</ele>
        <time>2021-08-17T12:07:43Z</time>
        <sat>10</sat>
      </trkpt>
      <trkpt lat="42.354220" lon="-4.882349">
        <ele>878.9</ele>
        <time>2021-08-17T12:07:50Z</time>
        <sat>10</sat>
      </trkpt>
      <trkpt lat="42.354272" lon="-4.882449">
        <ele>879.1</ele>
        <time>2021-08-17T12:07:57Z</time>
        <sat>10</sat>
      </trkpt>
      <trkpt lat="42.354327" lon="-4.882547">
        <ele>879.3</ele>
        <time>2021-08-17T12:08:04Z</time>
        <sat>10</sat>
      </trkpt>
      <trkpt lat="42.354372" lon="-4.882637">
        <ele>879.4</ele>
        <time>2021-08-17T12:08:10Z</time>
        <sat>10</sat>
      </trkpt>
      <trkpt lat="42.354423" lon="-4.882738">
        <ele>879.6</ele>
        <time>2021-08-17T12:08:17Z</time>
        <sat>10</sat>
      </trkpt>
      <trkpt lat="42.354479" lon="-4.882834">
        <ele>879.7</ele>
        <time>2021-08-17T12:08:24Z</time>
        <sat>9</sat>
      </trkpt>
      <trkpt lat="42.354530" lon="-4.882932">
        <ele>879.7</ele>
        <time>2021-08-17T12:08:31Z</time>
        <sat>10</sat>
      </trkpt>
      <trkpt lat="42.354578" lon="-4.883041">
        <ele>879.8</ele>
        <time>2021-08-17T12:08:38Z</time>
        <sat>10</sat>
      </trkpt>
      <trkpt lat="42.354620" lon="-4.883149">
        <ele>880.0</ele>
        <time>2021-08-17T12:08:45Z</time>
        <sat>10</sat>
      </trkpt>
      <trkpt lat="42.354660" lon="-4.883257">
        <ele>880.1</ele>
        <time>2021-08-17T12:08:52Z</time>
        <sat>10</sat>
      </trkpt>
      <trkpt lat="42.354689" lon="-4.883373">
        <ele>880.3</ele>
        <time>2021-08-17T12:08:59Z</time>
        <sat>9</sat>
      </trkpt>
      <trkpt lat="42.354702" lon="-4.883483">
        <ele>880.7</ele>
        <time>2021-08-17T12:09:06Z</time>
        <sat>9</sat>
      </trkpt>
      <trkpt lat="42.354725" lon="-4.883596">
        <ele>880.8</ele>
        <time>2021-08-17T12:09:13Z</time>
        <sat>9</sat>
      </trkpt>
      <trkpt lat="42.354741" lon="-4.883718">
        <ele>880.9</ele>
        <time>2021-08-17T12:09:20Z</time>
        <sat>9</sat>
      </trkpt>
      <trkpt lat="42.354756" lon="-4.883833">
        <ele>880.9</ele>
        <time>2021-08-17T12:09:27Z</time>
        <sat>9</sat>
      </trkpt>
      <trkpt lat="42.354776" lon="-4.883950">
        <ele>880.9</ele>
        <time>2021-08-17T12:09:34Z</time>
        <sat>9</sat>
      </trkpt>
      <trkpt lat="42.354796" lon="-4.884069">
        <ele>881.0</ele>
        <time>2021-08-17T12:09:41Z</time>
        <sat>10</sat>
      </trkpt>
      <trkpt lat="42.354810" lon="-4.884188">
        <ele>881.1</ele>
        <time>2021-08-17T12:09:48Z</time>
        <sat>9</sat>
      </trkpt>
      <trkpt lat="42.354832" lon="-4.884303">
        <ele>881.3</ele>
        <time>2021-08-17T12:09:55Z</time>
        <sat>9</sat>
      </trkpt>
      <trkpt lat="42.354853" lon="-4.884419">
        <ele>881.3</ele>
        <time>2021-08-17T12:10:02Z</time>
        <sat>9</sat>
      </trkpt>
      <trkpt lat="42.354868" lon="-4.884540">
        <ele>881.5</ele>
        <time>2021-08-17T12:10:09Z</time>
        <sat>9</sat>
      </trkpt>
      <trkpt lat="42.354887" lon="-4.884659">
        <ele>881.5</ele>
        <time>2021-08-17T12:10:16Z</time>
        <sat>9</sat>
      </trkpt>
      <trkpt lat="42.354912" lon="-4.884776">
        <ele>881.7</ele>
        <time>2021-08-17T12:10:23Z</time>
        <sat>9</sat>
      </trkpt>
      <trkpt lat="42.354929" lon="-4.884893">
        <ele>881.7</ele>
        <time>2021-08-17T12:10:30Z</time>
        <sat>9</sat>
      </trkpt>
      <trkpt lat="42.354943" lon="-4.885009">
        <ele>881.8</ele>
        <time>2021-08-17T12:10:37Z</time>
        <sat>9</sat>
      </trkpt>
      <trkpt lat="42.354964" lon="-4.885124">
        <ele>882.0</ele>
        <time>2021-08-17T12:10:44Z</time>
        <sat>9</sat>
      </trkpt>
      <trkpt lat="42.354987" lon="-4.885242">
        <ele>882.1</ele>
        <time>2021-08-17T12:10:51Z</time>
        <sat>9</sat>
      </trkpt>
      <trkpt lat="42.355002" lon="-4.885363">
        <ele>882.1</ele>
        <time>2021-08-17T12:10:58Z</time>
        <sat>9</sat>
      </trkpt>
      <trkpt lat="42.355021" lon="-4.885479">
        <ele>882.2</ele>
        <time>2021-08-17T12:11:05Z</time>
        <sat>9</sat>
      </trkpt>
      <trkpt lat="42.355048" lon="-4.885595">
        <ele>882.3</ele>
        <time>2021-08-17T12:11:12Z</time>
        <sat>9</sat>
      </trkpt>
      <trkpt lat="42.355072" lon="-4.885709">
        <ele>882.3</ele>
        <time>2021-08-17T12:11:19Z</time>
        <sat>9</sat>
      </trkpt>
      <trkpt lat="42.355093" lon="-4.885826">
        <ele>882.3</ele>
        <time>2021-08-17T12:11:26Z</time>
        <sat>9</sat>
      </trkpt>
      <trkpt lat="42.355109" lon="-4.885943">
        <ele>882.3</ele>
        <time>2021-08-17T12:11:33Z</time>
        <sat>9</sat>
      </trkpt>
      <trkpt lat="42.355131" lon="-4.886058">
        <ele>882.6</ele>
        <time>2021-08-17T12:11:40Z</time>
        <sat>9</sat>
      </trkpt>
      <trkpt lat="42.355153" lon="-4.886174">
        <ele>882.7</ele>
        <time>2021-08-17T12:11:47Z</time>
        <sat>9</sat>
      </trkpt>
      <trkpt lat="42.355165" lon="-4.886289">
        <ele>882.7</ele>
        <time>2021-08-17T12:11:54Z</time>
        <sat>9</sat>
      </trkpt>
      <trkpt lat="42.355185" lon="-4.886410">
        <ele>882.7</ele>
        <time>2021-08-17T12:12:01Z</time>
        <sat>10</sat>
      </trkpt>
      <trkpt lat="42.355206" lon="-4.886521">
        <ele>882.7</ele>
        <time>2021-08-17T12:12:08Z</time>
        <sat>10</sat>
      </trkpt>
      <trkpt lat="42.355230" lon="-4.886638">
        <ele>882.7</ele>
        <time>2021-08-17T12:12:15Z</time>
        <sat>9</sat>
      </trkpt>
      <trkpt lat="42.355245" lon="-4.886753">
        <ele>882.7</ele>
        <time>2021-08-17T12:12:22Z</time>
        <sat>9</sat>
      </trkpt>
      <trkpt lat="42.355267" lon="-4.886866">
        <ele>882.6</ele>
        <time>2021-08-17T12:12:29Z</time>
        <sat>9</sat>
      </trkpt>
      <trkpt lat="42.355288" lon="-4.886979">
        <ele>882.5</ele>
        <time>2021-08-17T12:12:36Z</time>
        <sat>9</sat>
      </trkpt>
      <trkpt lat="42.355303" lon="-4.887097">
        <ele>882.3</ele>
        <time>2021-08-17T12:12:43Z</time>
        <sat>9</sat>
      </trkpt>
      <trkpt lat="42.355324" lon="-4.887218">
        <ele>882.3</ele>
        <time>2021-08-17T12:12:50Z</time>
        <sat>10</sat>
      </trkpt>
      <trkpt lat="42.355353" lon="-4.887331">
        <ele>882.3</ele>
        <time>2021-08-17T12:12:57Z</time>
        <sat>9</sat>
      </trkpt>
      <trkpt lat="42.355361" lon="-4.887451">
        <ele>879.9</ele>
        <time>2021-08-17T12:13:04Z</time>
        <sat>9</sat>
      </trkpt>
      <trkpt lat="42.355393" lon="-4.887567">
        <ele>882.7</ele>
        <time>2021-08-17T12:13:11Z</time>
        <sat>10</sat>
      </trkpt>
      <trkpt lat="42.355414" lon="-4.887673">
        <ele>879.6</ele>
        <time>2021-08-17T12:13:17Z</time>
        <sat>10</sat>
      </trkpt>
      <trkpt lat="42.355432" lon="-4.887785">
        <ele>876.9</ele>
        <time>2021-08-17T12:13:24Z</time>
        <sat>10</sat>
      </trkpt>
      <trkpt lat="42.355449" lon="-4.887896">
        <ele>877.9</ele>
        <time>2021-08-17T12:13:31Z</time>
        <sat>10</sat>
      </trkpt>
      <trkpt lat="42.355468" lon="-4.888007">
        <ele>876.2</ele>
        <time>2021-08-17T12:13:38Z</time>
        <sat>10</sat>
      </trkpt>
      <trkpt lat="42.355486" lon="-4.888121">
        <ele>877.8</ele>
        <time>2021-08-17T12:13:45Z</time>
        <sat>10</sat>
      </trkpt>
      <trkpt lat="42.355506" lon="-4.888234">
        <ele>877.8</ele>
        <time>2021-08-17T12:13:52Z</time>
        <sat>10</sat>
      </trkpt>
      <trkpt lat="42.355531" lon="-4.888351">
        <ele>879.6</ele>
        <time>2021-08-17T12:14:00Z</time>
        <sat>10</sat>
      </trkpt>
      <trkpt lat="42.355579" lon="-4.888455">
        <ele>878.9</ele>
        <time>2021-08-17T12:14:08Z</time>
        <sat>9</sat>
      </trkpt>
      <trkpt lat="42.355668" lon="-4.888489">
        <ele>880.8</ele>
        <time>2021-08-17T12:14:15Z</time>
        <sat>10</sat>
      </trkpt>
      <trkpt lat="42.355748" lon="-4.888475">
        <ele>881.6</ele>
        <time>2021-08-17T12:14:22Z</time>
        <sat>10</sat>
      </trkpt>
      <trkpt lat="42.355832" lon="-4.888440">
        <ele>883.3</ele>
        <time>2021-08-17T12:14:37Z</time>
        <sat>10</sat>
      </trkpt>
      <trkpt lat="42.355915" lon="-4.888407">
        <ele>884.2</ele>
        <time>2021-08-17T12:15:30Z</time>
        <sat>10</sat>
      </trkpt>
      <trkpt lat="42.355997" lon="-4.888363">
        <ele>884.2</ele>
        <time>2021-08-17T12:15:36Z</time>
        <sat>9</sat>
      </trkpt>
      <trkpt lat="42.356085" lon="-4.888330">
        <ele>883.6</ele>
        <time>2021-08-17T12:15:43Z</time>
        <sat>10</sat>
      </trkpt>
      <trkpt lat="42.356160" lon="-4.888288">
        <ele>883.3</ele>
        <time>2021-08-17T12:15:49Z</time>
        <sat>10</sat>
      </trkpt>
      <trkpt lat="42.356251" lon="-4.888257">
        <ele>883.0</ele>
        <time>2021-08-17T12:15:56Z</time>
        <sat>10</sat>
      </trkpt>
      <trkpt lat="42.356336" lon="-4.888218">
        <ele>882.9</ele>
        <time>2021-08-17T12:16:03Z</time>
        <sat>10</sat>
      </trkpt>
      <trkpt lat="42.356419" lon="-4.888175">
        <ele>883.2</ele>
        <time>2021-08-17T12:16:11Z</time>
        <sat>10</sat>
      </trkpt>
      <trkpt lat="42.356499" lon="-4.888142">
        <ele>883.3</ele>
        <time>2021-08-17T12:16:18Z</time>
        <sat>10</sat>
      </trkpt>
      <trkpt lat="42.356584" lon="-4.888114">
        <ele>884.1</ele>
        <time>2021-08-17T12:16:42Z</time>
        <sat>10</sat>
      </trkpt>
      <trkpt lat="42.356673" lon="-4.888078">
        <ele>884.1</ele>
        <time>2021-08-17T12:16:49Z</time>
        <sat>10</sat>
      </trkpt>
      <trkpt lat="42.356763" lon="-4.888045">
        <ele>883.6</ele>
        <time>2021-08-17T12:16:56Z</time>
        <sat>9</sat>
      </trkpt>
      <trkpt lat="42.356856" lon="-4.888027">
        <ele>883.4</ele>
        <time>2021-08-17T12:17:03Z</time>
        <sat>9</sat>
      </trkpt>
      <trkpt lat="42.356944" lon="-4.887995">
        <ele>883.5</ele>
        <time>2021-08-17T12:17:10Z</time>
        <sat>10</sat>
      </trkpt>
      <trkpt lat="42.357032" lon="-4.887965">
        <ele>883.5</ele>
        <time>2021-08-17T12:17:17Z</time>
        <sat>10</sat>
      </trkpt>
      <trkpt lat="42.357120" lon="-4.887937">
        <ele>883.6</ele>
        <time>2021-08-17T12:17:24Z</time>
        <sat>10</sat>
      </trkpt>
      <trkpt lat="42.357210" lon="-4.887923">
        <ele>883.7</ele>
        <time>2021-08-17T12:17:31Z</time>
        <sat>10</sat>
      </trkpt>
      <trkpt lat="42.357300" lon="-4.887913">
        <ele>883.9</ele>
        <time>2021-08-17T12:17:38Z</time>
        <sat>10</sat>
      </trkpt>
      <trkpt lat="42.357389" lon="-4.887902">
        <ele>883.9</ele>
        <time>2021-08-17T12:17:45Z</time>
        <sat>10</sat>
      </trkpt>
      <trkpt lat="42.357477" lon="-4.887939">
        <ele>884.1</ele>
        <time>2021-08-17T12:17:52Z</time>
        <sat>10</sat>
      </trkpt>
      <trkpt lat="42.357561" lon="-4.887987">
        <ele>884.4</ele>
        <time>2021-08-17T12:17:59Z</time>
        <sat>10</sat>
      </trkpt>
      <trkpt lat="42.357636" lon="-4.888042">
        <ele>884.6</ele>
        <time>2021-08-17T12:18:06Z</time>
        <sat>10</sat>
      </trkpt>
      <trkpt lat="42.357708" lon="-4.888104">
        <ele>884.8</ele>
        <time>2021-08-17T12:18:14Z</time>
        <sat>10</sat>
      </trkpt>
      <trkpt lat="42.357781" lon="-4.888169">
        <ele>884.8</ele>
        <time>2021-08-17T12:18:21Z</time>
        <sat>10</sat>
      </trkpt>
      <trkpt lat="42.357849" lon="-4.888232">
        <ele>884.9</ele>
        <time>2021-08-17T12:18:28Z</time>
        <sat>10</sat>
      </trkpt>
      <trkpt lat="42.357918" lon="-4.888298">
        <ele>884.9</ele>
        <time>2021-08-17T12:18:35Z</time>
        <sat>10</sat>
      </trkpt>
      <trkpt lat="42.357988" lon="-4.888367">
        <ele>884.9</ele>
        <time>2021-08-17T12:18:42Z</time>
        <sat>10</sat>
      </trkpt>
      <trkpt lat="42.358061" lon="-4.888443">
        <ele>885.0</ele>
        <time>2021-08-17T12:18:50Z</time>
        <sat>10</sat>
      </trkpt>
      <trkpt lat="42.358134" lon="-4.888511">
        <ele>885.0</ele>
        <time>2021-08-17T12:18:57Z</time>
        <sat>10</sat>
      </trkpt>
      <trkpt lat="42.358206" lon="-4.888579">
        <ele>885.4</ele>
        <time>2021-08-17T12:19:04Z</time>
        <sat>10</sat>
      </trkpt>
      <trkpt lat="42.358278" lon="-4.888648">
        <ele>885.6</ele>
        <time>2021-08-17T12:19:11Z</time>
        <sat>10</sat>
      </trkpt>
      <trkpt lat="42.358349" lon="-4.888719">
        <ele>885.8</ele>
        <time>2021-08-17T12:19:18Z</time>
        <sat>10</sat>
      </trkpt>
      <trkpt lat="42.358421" lon="-4.888786">
        <ele>885.9</ele>
        <time>2021-08-17T12:19:25Z</time>
        <sat>10</sat>
      </trkpt>
      <trkpt lat="42.358492" lon="-4.888852">
        <ele>886.2</ele>
        <time>2021-08-17T12:19:32Z</time>
        <sat>10</sat>
      </trkpt>
      <trkpt lat="42.358563" lon="-4.888925">
        <ele>886.4</ele>
        <time>2021-08-17T12:19:39Z</time>
        <sat>10</sat>
      </trkpt>
      <trkpt lat="42.358634" lon="-4.888998">
        <ele>886.0</ele>
        <time>2021-08-17T12:19:46Z</time>
        <sat>10</sat>
      </trkpt>
      <trkpt lat="42.358709" lon="-4.889064">
        <ele>885.8</ele>
        <time>2021-08-17T12:19:53Z</time>
        <sat>10</sat>
      </trkpt>
      <trkpt lat="42.358780" lon="-4.889130">
        <ele>885.6</ele>
        <time>2021-08-17T12:20:00Z</time>
        <sat>10</sat>
      </trkpt>
      <trkpt lat="42.358853" lon="-4.889195">
        <ele>885.5</ele>
        <time>2021-08-17T12:20:07Z</time>
        <sat>10</sat>
      </trkpt>
      <trkpt lat="42.358923" lon="-4.889261">
        <ele>885.6</ele>
        <time>2021-08-17T12:20:14Z</time>
        <sat>10</sat>
      </trkpt>
      <trkpt lat="42.358990" lon="-4.889331">
        <ele>885.6</ele>
        <time>2021-08-17T12:20:21Z</time>
        <sat>10</sat>
      </trkpt>
      <trkpt lat="42.359054" lon="-4.889408">
        <ele>885.8</ele>
        <time>2021-08-17T12:20:28Z</time>
        <sat>10</sat>
      </trkpt>
      <trkpt lat="42.359120" lon="-4.889474">
        <ele>885.9</ele>
        <time>2021-08-17T12:20:35Z</time>
        <sat>10</sat>
      </trkpt>
      <trkpt lat="42.359183" lon="-4.889554">
        <ele>886.0</ele>
        <time>2021-08-17T12:20:43Z</time>
        <sat>10</sat>
      </trkpt>
      <trkpt lat="42.359250" lon="-4.889624">
        <ele>886.0</ele>
        <time>2021-08-17T12:20:50Z</time>
        <sat>10</sat>
      </trkpt>
      <trkpt lat="42.359319" lon="-4.889696">
        <ele>885.8</ele>
        <time>2021-08-17T12:20:57Z</time>
        <sat>10</sat>
      </trkpt>
      <trkpt lat="42.359386" lon="-4.889770">
        <ele>885.6</ele>
        <time>2021-08-17T12:21:04Z</time>
        <sat>10</sat>
      </trkpt>
      <trkpt lat="42.359466" lon="-4.889828">
        <ele>885.3</ele>
        <time>2021-08-17T12:21:11Z</time>
        <sat>10</sat>
      </trkpt>
      <trkpt lat="42.359546" lon="-4.889881">
        <ele>885.0</ele>
        <time>2021-08-17T12:21:18Z</time>
        <sat>10</sat>
      </trkpt>
      <trkpt lat="42.359627" lon="-4.889928">
        <ele>884.7</ele>
        <time>2021-08-17T12:21:25Z</time>
        <sat>10</sat>
      </trkpt>
      <trkpt lat="42.359710" lon="-4.889964">
        <ele>884.3</ele>
        <time>2021-08-17T12:21:32Z</time>
        <sat>10</sat>
      </trkpt>
      <trkpt lat="42.359792" lon="-4.889983">
        <ele>884.0</ele>
        <time>2021-08-17T12:21:39Z</time>
        <sat>10</sat>
      </trkpt>
      <trkpt lat="42.359879" lon="-4.890014">
        <ele>883.8</ele>
        <time>2021-08-17T12:21:46Z</time>
        <sat>9</sat>
      </trkpt>
      <trkpt lat="42.359964" lon="-4.890045">
        <ele>883.5</ele>
        <time>2021-08-17T12:21:53Z</time>
        <sat>10</sat>
      </trkpt>
      <trkpt lat="42.360048" lon="-4.890069">
        <ele>883.2</ele>
        <time>2021-08-17T12:22:00Z</time>
        <sat>9</sat>
      </trkpt>
      <trkpt lat="42.360136" lon="-4.890093">
        <ele>883.0</ele>
        <time>2021-08-17T12:22:07Z</time>
        <sat>9</sat>
      </trkpt>
      <trkpt lat="42.360220" lon="-4.890125">
        <ele>882.4</ele>
        <time>2021-08-17T12:22:14Z</time>
        <sat>9</sat>
      </trkpt>
      <trkpt lat="42.360300" lon="-4.890161">
        <ele>882.0</ele>
        <time>2021-08-17T12:22:21Z</time>
        <sat>9</sat>
      </trkpt>
      <trkpt lat="42.360378" lon="-4.890205">
        <ele>881.9</ele>
        <time>2021-08-17T12:22:28Z</time>
        <sat>10</sat>
      </trkpt>
      <trkpt lat="42.360453" lon="-4.890258">
        <ele>881.9</ele>
        <time>2021-08-17T12:22:35Z</time>
        <sat>10</sat>
      </trkpt>
      <trkpt lat="42.360526" lon="-4.890319">
        <ele>881.8</ele>
        <time>2021-08-17T12:22:43Z</time>
        <sat>10</sat>
      </trkpt>
      <trkpt lat="42.360604" lon="-4.890374">
        <ele>881.8</ele>
        <time>2021-08-17T12:22:51Z</time>
        <sat>10</sat>
      </trkpt>
      <trkpt lat="42.360691" lon="-4.890414">
        <ele>881.6</ele>
        <time>2021-08-17T12:22:59Z</time>
        <sat>10</sat>
      </trkpt>
      <trkpt lat="42.360772" lon="-4.890448">
        <ele>881.1</ele>
        <time>2021-08-17T12:23:06Z</time>
        <sat>10</sat>
      </trkpt>
      <trkpt lat="42.360851" lon="-4.890487">
        <ele>880.8</ele>
        <time>2021-08-17T12:23:13Z</time>
        <sat>10</sat>
      </trkpt>
      <trkpt lat="42.360927" lon="-4.890524">
        <ele>880.4</ele>
        <time>2021-08-17T12:23:20Z</time>
        <sat>10</sat>
      </trkpt>
      <trkpt lat="42.361005" lon="-4.890562">
        <ele>880.1</ele>
        <time>2021-08-17T12:23:27Z</time>
        <sat>10</sat>
      </trkpt>
      <trkpt lat="42.361083" lon="-4.890600">
        <ele>879.8</ele>
        <time>2021-08-17T12:23:34Z</time>
        <sat>10</sat>
      </trkpt>
      <trkpt lat="42.361161" lon="-4.890640">
        <ele>879.5</ele>
        <time>2021-08-17T12:23:41Z</time>
        <sat>10</sat>
      </trkpt>
      <trkpt lat="42.361239" lon="-4.890688">
        <ele>879.1</ele>
        <time>2021-08-17T12:23:48Z</time>
        <sat>10</sat>
      </trkpt>
      <trkpt lat="42.361316" lon="-4.890746">
        <ele>878.6</ele>
        <time>2021-08-17T12:23:55Z</time>
        <sat>10</sat>
      </trkpt>
      <trkpt lat="42.361385" lon="-4.890809">
        <ele>878.3</ele>
        <time>2021-08-17T12:24:02Z</time>
        <sat>10</sat>
      </trkpt>
      <trkpt lat="42.361454" lon="-4.890873">
        <ele>877.7</ele>
        <time>2021-08-17T12:24:09Z</time>
        <sat>10</sat>
      </trkpt>
      <trkpt lat="42.361532" lon="-4.890935">
        <ele>877.1</ele>
        <time>2021-08-17T12:24:17Z</time>
        <sat>10</sat>
      </trkpt>
      <trkpt lat="42.361613" lon="-4.890990">
        <ele>876.4</ele>
        <time>2021-08-17T12:24:25Z</time>
        <sat>10</sat>
      </trkpt>
      <trkpt lat="42.361687" lon="-4.891041">
        <ele>875.6</ele>
        <time>2021-08-17T12:24:33Z</time>
        <sat>10</sat>
      </trkpt>
      <trkpt lat="42.361759" lon="-4.891092">
        <ele>875.0</ele>
        <time>2021-08-17T12:24:41Z</time>
        <sat>10</sat>
      </trkpt>
      <trkpt lat="42.361806" lon="-4.891107">
        <ele>874.0</ele>
        <time>2021-08-17T12:25:32Z</time>
        <sat>9</sat>
      </trkpt>
      <trkpt lat="42.361889" lon="-4.891126">
        <ele>874.1</ele>
        <time>2021-08-17T12:25:38Z</time>
        <sat>10</sat>
      </trkpt>
      <trkpt lat="42.361974" lon="-4.891175">
        <ele>874.0</ele>
        <time>2021-08-17T12:25:45Z</time>
        <sat>10</sat>
      </trkpt>
      <trkpt lat="42.362043" lon="-4.891252">
        <ele>873.9</ele>
        <time>2021-08-17T12:25:53Z</time>
        <sat>10</sat>
      </trkpt>
      <trkpt lat="42.362121" lon="-4.891302">
        <ele>873.8</ele>
        <time>2021-08-17T12:26:01Z</time>
        <sat>10</sat>
      </trkpt>
      <trkpt lat="42.362198" lon="-4.891340">
        <ele>873.8</ele>
        <time>2021-08-17T12:26:08Z</time>
        <sat>10</sat>
      </trkpt>
      <trkpt lat="42.362280" lon="-4.891367">
        <ele>873.8</ele>
        <time>2021-08-17T12:26:16Z</time>
        <sat>9</sat>
      </trkpt>
      <trkpt lat="42.362369" lon="-4.891394">
        <ele>874.1</ele>
        <time>2021-08-17T12:26:23Z</time>
        <sat>10</sat>
      </trkpt>
      <trkpt lat="42.362423" lon="-4.891421">
        <ele>871.4</ele>
        <time>2021-08-17T12:27:55Z</time>
        <sat>10</sat>
      </trkpt>
      <trkpt lat="42.362425" lon="-4.891467">
        <ele>894.5</ele>
        <time>2021-08-18T05:26:38Z</time>
        <sat>5</sat>
      </trkpt>
      <trkpt lat="42.362427" lon="-4.891584">
        <ele>893.9</ele>
        <time>2021-08-18T05:26:44Z</time>
        <sat>5</sat>
      </trkpt>
      <trkpt lat="42.362421" lon="-4.891698">
        <ele>894.0</ele>
        <time>2021-08-18T05:26:50Z</time>
        <sat>5</sat>
      </trkpt>
      <trkpt lat="42.362415" lon="-4.891832">
        <ele>894.1</ele>
        <time>2021-08-18T05:26:57Z</time>
        <sat>5</sat>
      </trkpt>
      <trkpt lat="42.362403" lon="-4.891959">
        <ele>894.1</ele>
        <time>2021-08-18T05:27:03Z</time>
        <sat>5</sat>
      </trkpt>
      <trkpt lat="42.362382" lon="-4.892072">
        <ele>894.2</ele>
        <time>2021-08-18T05:27:10Z</time>
        <sat>5</sat>
      </trkpt>
      <trkpt lat="42.362362" lon="-4.892182">
        <ele>893.2</ele>
        <time>2021-08-18T05:27:15Z</time>
        <sat>5</sat>
      </trkpt>
      <trkpt lat="42.362345" lon="-4.892289">
        <ele>892.8</ele>
        <time>2021-08-18T05:27:21Z</time>
        <sat>5</sat>
      </trkpt>
      <trkpt lat="42.362303" lon="-4.892389">
        <ele>895.2</ele>
        <time>2021-08-18T05:27:27Z</time>
        <sat>5</sat>
      </trkpt>
      <trkpt lat="42.362263" lon="-4.892496">
        <ele>895.1</ele>
        <time>2021-08-18T05:27:33Z</time>
        <sat>6</sat>
      </trkpt>
      <trkpt lat="42.362220" lon="-4.892612">
        <ele>877.7</ele>
        <time>2021-08-18T05:27:40Z</time>
        <sat>6</sat>
      </trkpt>
      <trkpt lat="42.362184" lon="-4.892716">
        <ele>873.5</ele>
        <time>2021-08-18T05:27:46Z</time>
        <sat>6</sat>
      </trkpt>
      <trkpt lat="42.362139" lon="-4.892812">
        <ele>871.7</ele>
        <time>2021-08-18T05:27:52Z</time>
        <sat>7</sat>
      </trkpt>
      <trkpt lat="42.362086" lon="-4.892913">
        <ele>870.9</ele>
        <time>2021-08-18T05:27:58Z</time>
        <sat>8</sat>
      </trkpt>
      <trkpt lat="42.362043" lon="-4.893017">
        <ele>870.3</ele>
        <time>2021-08-18T05:28:04Z</time>
        <sat>8</sat>
      </trkpt>
      <trkpt lat="42.362010" lon="-4.893123">
        <ele>870.0</ele>
        <time>2021-08-18T05:28:10Z</time>
        <sat>8</sat>
      </trkpt>
      <trkpt lat="42.361970" lon="-4.893239">
        <ele>869.5</ele>
        <time>2021-08-18T05:28:17Z</time>
        <sat>8</sat>
      </trkpt>
      <trkpt lat="42.361924" lon="-4.893338">
        <ele>869.3</ele>
        <time>2021-08-18T05:28:23Z</time>
        <sat>8</sat>
      </trkpt>
      <trkpt lat="42.361887" lon="-4.893445">
        <ele>868.9</ele>
        <time>2021-08-18T05:28:29Z</time>
        <sat>8</sat>
      </trkpt>
      <trkpt lat="42.361856" lon="-4.893557">
        <ele>868.6</ele>
        <time>2021-08-18T05:28:35Z</time>
        <sat>8</sat>
      </trkpt>
      <trkpt lat="42.361829" lon="-4.893662">
        <ele>868.1</ele>
        <time>2021-08-18T05:28:41Z</time>
        <sat>8</sat>
      </trkpt>
      <trkpt lat="42.361793" lon="-4.893766">
        <ele>867.9</ele>
        <time>2021-08-18T05:28:47Z</time>
        <sat>8</sat>
      </trkpt>
      <trkpt lat="42.361750" lon="-4.893874">
        <ele>867.6</ele>
        <time>2021-08-18T05:28:53Z</time>
        <sat>8</sat>
      </trkpt>
      <trkpt lat="42.361718" lon="-4.893980">
        <ele>867.4</ele>
        <time>2021-08-18T05:28:59Z</time>
        <sat>9</sat>
      </trkpt>
      <trkpt lat="42.361687" lon="-4.894086">
        <ele>867.1</ele>
        <time>2021-08-18T05:29:05Z</time>
        <sat>9</sat>
      </trkpt>
      <trkpt lat="42.361653" lon="-4.894186">
        <ele>866.6</ele>
        <time>2021-08-18T05:29:11Z</time>
        <sat>9</sat>
      </trkpt>
      <trkpt lat="42.361607" lon="-4.894285">
        <ele>866.1</ele>
        <time>2021-08-18T05:29:17Z</time>
        <sat>9</sat>
      </trkpt>
      <trkpt lat="42.361566" lon="-4.894385">
        <ele>865.8</ele>
        <time>2021-08-18T05:29:23Z</time>
        <sat>9</sat>
      </trkpt>
      <trkpt lat="42.361538" lon="-4.894489">
        <ele>865.7</ele>
        <time>2021-08-18T05:29:29Z</time>
        <sat>9</sat>
      </trkpt>
      <trkpt lat="42.361489" lon="-4.894600">
        <ele>865.4</ele>
        <time>2021-08-18T05:29:36Z</time>
        <sat>9</sat>
      </trkpt>
      <trkpt lat="42.361440" lon="-4.894700">
        <ele>865.2</ele>
        <time>2021-08-18T05:29:42Z</time>
        <sat>9</sat>
      </trkpt>
      <trkpt lat="42.361399" lon="-4.894795">
        <ele>865.2</ele>
        <time>2021-08-18T05:29:48Z</time>
        <sat>9</sat>
      </trkpt>
      <trkpt lat="42.361361" lon="-4.894899">
        <ele>865.1</ele>
        <time>2021-08-18T05:29:56Z</time>
        <sat>9</sat>
      </trkpt>
      <trkpt lat="42.361309" lon="-4.895003">
        <ele>865.0</ele>
        <time>2021-08-18T05:30:05Z</time>
        <sat>9</sat>
      </trkpt>
      <trkpt lat="42.361266" lon="-4.895107">
        <ele>864.8</ele>
        <time>2021-08-18T05:30:11Z</time>
        <sat>9</sat>
      </trkpt>
      <trkpt lat="42.361231" lon="-4.895210">
        <ele>864.6</ele>
        <time>2021-08-18T05:30:17Z</time>
        <sat>9</sat>
      </trkpt>
      <trkpt lat="42.361189" lon="-4.895323">
        <ele>864.4</ele>
        <time>2021-08-18T05:30:24Z</time>
        <sat>9</sat>
      </trkpt>
      <trkpt lat="42.361145" lon="-4.895426">
        <ele>864.3</ele>
        <time>2021-08-18T05:30:30Z</time>
        <sat>9</sat>
      </trkpt>
      <trkpt lat="42.361111" lon="-4.895537">
        <ele>864.2</ele>
        <time>2021-08-18T05:30:36Z</time>
        <sat>9</sat>
      </trkpt>
      <trkpt lat="42.361085" lon="-4.895645">
        <ele>864.1</ele>
        <time>2021-08-18T05:30:42Z</time>
        <sat>9</sat>
      </trkpt>
      <trkpt lat="42.361051" lon="-4.895753">
        <ele>863.7</ele>
        <time>2021-08-18T05:30:48Z</time>
        <sat>9</sat>
      </trkpt>
      <trkpt lat="42.361027" lon="-4.895867">
        <ele>863.7</ele>
        <time>2021-08-18T05:30:54Z</time>
        <sat>9</sat>
      </trkpt>
      <trkpt lat="42.361009" lon="-4.895983">
        <ele>863.7</ele>
        <time>2021-08-18T05:31:00Z</time>
        <sat>9</sat>
      </trkpt>
      <trkpt lat="42.360994" lon="-4.896096">
        <ele>863.5</ele>
        <time>2021-08-18T05:31:06Z</time>
        <sat>9</sat>
      </trkpt>
      <trkpt lat="42.360965" lon="-4.896218">
        <ele>863.3</ele>
        <time>2021-08-18T05:31:13Z</time>
        <sat>9</sat>
      </trkpt>
      <trkpt lat="42.360933" lon="-4.896331">
        <ele>863.1</ele>
        <time>2021-08-18T05:31:19Z</time>
        <sat>9</sat>
      </trkpt>
      <trkpt lat="42.360911" lon="-4.896454">
        <ele>863.0</ele>
        <time>2021-08-18T05:31:25Z</time>
        <sat>9</sat>
      </trkpt>
      <trkpt lat="42.360893" lon="-4.896563">
        <ele>863.0</ele>
        <time>2021-08-18T05:31:32Z</time>
        <sat>9</sat>
      </trkpt>
      <trkpt lat="42.360867" lon="-4.896673">
        <ele>862.4</ele>
        <time>2021-08-18T05:31:50Z</time>
        <sat>9</sat>
      </trkpt>
      <trkpt lat="42.360842" lon="-4.896792">
        <ele>862.0</ele>
        <time>2021-08-18T05:31:57Z</time>
        <sat>9</sat>
      </trkpt>
      <trkpt lat="42.360827" lon="-4.896900">
        <ele>861.4</ele>
        <time>2021-08-18T05:32:03Z</time>
        <sat>9</sat>
      </trkpt>
      <trkpt lat="42.360811" lon="-4.897025">
        <ele>861.7</ele>
        <time>2021-08-18T05:32:10Z</time>
        <sat>9</sat>
      </trkpt>
      <trkpt lat="42.360779" lon="-4.897146">
        <ele>861.6</ele>
        <time>2021-08-18T05:32:17Z</time>
        <sat>9</sat>
      </trkpt>
      <trkpt lat="42.360760" lon="-4.897253">
        <ele>861.2</ele>
        <time>2021-08-18T05:32:23Z</time>
        <sat>9</sat>
      </trkpt>
      <trkpt lat="42.360742" lon="-4.897361">
        <ele>860.9</ele>
        <time>2021-08-18T05:32:29Z</time>
        <sat>9</sat>
      </trkpt>
      <trkpt lat="42.360718" lon="-4.897479">
        <ele>860.6</ele>
        <time>2021-08-18T05:32:36Z</time>
        <sat>9</sat>
      </trkpt>
      <trkpt lat="42.360701" lon="-4.897600">
        <ele>860.5</ele>
        <time>2021-08-18T05:32:43Z</time>
        <sat>9</sat>
      </trkpt>
      <trkpt lat="42.360677" lon="-4.897718">
        <ele>860.4</ele>
        <time>2021-08-18T05:32:50Z</time>
        <sat>9</sat>
      </trkpt>
      <trkpt lat="42.360654" lon="-4.897839">
        <ele>860.2</ele>
        <time>2021-08-18T05:32:57Z</time>
        <sat>9</sat>
      </trkpt>
      <trkpt lat="42.360635" lon="-4.897956">
        <ele>860.1</ele>
        <time>2021-08-18T05:33:04Z</time>
        <sat>9</sat>
      </trkpt>
      <trkpt lat="42.360609" lon="-4.898062">
        <ele>860.0</ele>
        <time>2021-08-18T05:33:10Z</time>
        <sat>9</sat>
      </trkpt>
      <trkpt lat="42.360593" lon="-4.898186">
        <ele>859.8</ele>
        <time>2021-08-18T05:33:17Z</time>
        <sat>9</sat>
      </trkpt>
      <trkpt lat="42.360576" lon="-4.898306">
        <ele>859.6</ele>
        <time>2021-08-18T05:33:24Z</time>
        <sat>9</sat>
      </trkpt>
      <trkpt lat="42.360561" lon="-4.898429">
        <ele>859.3</ele>
        <time>2021-08-18T05:33:31Z</time>
        <sat>9</sat>
      </trkpt>
      <trkpt lat="42.360556" lon="-4.898546">
        <ele>859.0</ele>
        <time>2021-08-18T05:33:38Z</time>
        <sat>9</sat>
      </trkpt>
      <trkpt lat="42.360556" lon="-4.898661">
        <ele>858.8</ele>
        <time>2021-08-18T05:33:44Z</time>
        <sat>9</sat>
      </trkpt>
      <trkpt lat="42.360567" lon="-4.898774">
        <ele>858.7</ele>
        <time>2021-08-18T05:33:50Z</time>
        <sat>9</sat>
      </trkpt>
      <trkpt lat="42.360566" lon="-4.898901">
        <ele>858.6</ele>
        <time>2021-08-18T05:33:57Z</time>
        <sat>9</sat>
      </trkpt>
      <trkpt lat="42.360566" lon="-4.899029">
        <ele>858.6</ele>
        <time>2021-08-18T05:34:04Z</time>
        <sat>9</sat>
      </trkpt>
      <trkpt lat="42.360565" lon="-4.899150">
        <ele>858.4</ele>
        <time>2021-08-18T05:34:11Z</time>
        <sat>9</sat>
      </trkpt>
      <trkpt lat="42.360563" lon="-4.899276">
        <ele>858.2</ele>
        <time>2021-08-18T05:34:18Z</time>
        <sat>9</sat>
      </trkpt>
      <trkpt lat="42.360553" lon="-4.899398">
        <ele>858.2</ele>
        <time>2021-08-18T05:34:25Z</time>
        <sat>9</sat>
      </trkpt>
      <trkpt lat="42.360538" lon="-4.899524">
        <ele>857.9</ele>
        <time>2021-08-18T05:34:32Z</time>
        <sat>9</sat>
      </trkpt>
      <trkpt lat="42.360529" lon="-4.899647">
        <ele>857.7</ele>
        <time>2021-08-18T05:34:39Z</time>
        <sat>9</sat>
      </trkpt>
      <trkpt lat="42.360506" lon="-4.899752">
        <ele>857.6</ele>
        <time>2021-08-18T05:34:45Z</time>
        <sat>9</sat>
      </trkpt>
      <trkpt lat="42.360496" lon="-4.899861">
        <ele>857.3</ele>
        <time>2021-08-18T05:34:51Z</time>
        <sat>9</sat>
      </trkpt>
      <trkpt lat="42.360475" lon="-4.899981">
        <ele>857.2</ele>
        <time>2021-08-18T05:34:58Z</time>
        <sat>9</sat>
      </trkpt>
      <trkpt lat="42.360451" lon="-4.900092">
        <ele>857.0</ele>
        <time>2021-08-18T05:35:04Z</time>
        <sat>9</sat>
      </trkpt>
      <trkpt lat="42.360430" lon="-4.900199">
        <ele>857.0</ele>
        <time>2021-08-18T05:35:10Z</time>
        <sat>9</sat>
      </trkpt>
      <trkpt lat="42.360406" lon="-4.900319">
        <ele>857.1</ele>
        <time>2021-08-18T05:35:17Z</time>
        <sat>9</sat>
      </trkpt>
      <trkpt lat="42.360382" lon="-4.900424">
        <ele>856.9</ele>
        <time>2021-08-18T05:35:23Z</time>
        <sat>9</sat>
      </trkpt>
      <trkpt lat="42.360370" lon="-4.900537">
        <ele>856.7</ele>
        <time>2021-08-18T05:35:29Z</time>
        <sat>9</sat>
      </trkpt>
      <trkpt lat="42.360348" lon="-4.900659">
        <ele>856.4</ele>
        <time>2021-08-18T05:35:36Z</time>
        <sat>9</sat>
      </trkpt>
      <trkpt lat="42.360324" lon="-4.900772">
        <ele>856.1</ele>
        <time>2021-08-18T05:35:42Z</time>
        <sat>9</sat>
      </trkpt>
      <trkpt lat="42.360317" lon="-4.900883">
        <ele>855.8</ele>
        <time>2021-08-18T05:35:48Z</time>
        <sat>9</sat>
      </trkpt>
      <trkpt lat="42.360310" lon="-4.900995">
        <ele>855.6</ele>
        <time>2021-08-18T05:35:54Z</time>
        <sat>9</sat>
      </trkpt>
      <trkpt lat="42.360291" lon="-4.901105">
        <ele>855.3</ele>
        <time>2021-08-18T05:36:00Z</time>
        <sat>9</sat>
      </trkpt>
      <trkpt lat="42.360283" lon="-4.901220">
        <ele>855.1</ele>
        <time>2021-08-18T05:36:06Z</time>
        <sat>9</sat>
      </trkpt>
      <trkpt lat="42.360289" lon="-4.901334">
        <ele>855.0</ele>
        <time>2021-08-18T05:36:12Z</time>
        <sat>9</sat>
      </trkpt>
      <trkpt lat="42.360283" lon="-4.901460">
        <ele>854.7</ele>
        <time>2021-08-18T05:36:19Z</time>
        <sat>9</sat>
      </trkpt>
      <trkpt lat="42.360277" lon="-4.901575">
        <ele>854.4</ele>
        <time>2021-08-18T05:36:25Z</time>
        <sat>9</sat>
      </trkpt>
      <trkpt lat="42.360281" lon="-4.901691">
        <ele>854.3</ele>
        <time>2021-08-18T05:36:31Z</time>
        <sat>9</sat>
      </trkpt>
      <trkpt lat="42.360280" lon="-4.901814">
        <ele>854.1</ele>
        <time>2021-08-18T05:36:38Z</time>
        <sat>9</sat>
      </trkpt>
      <trkpt lat="42.360274" lon="-4.901926">
        <ele>854.0</ele>
        <time>2021-08-18T05:36:44Z</time>
        <sat>9</sat>
      </trkpt>
      <trkpt lat="42.360284" lon="-4.902036">
        <ele>853.9</ele>
        <time>2021-08-18T05:36:50Z</time>
        <sat>9</sat>
      </trkpt>
      <trkpt lat="42.360284" lon="-4.902162">
        <ele>853.7</ele>
        <time>2021-08-18T05:36:57Z</time>
        <sat>9</sat>
      </trkpt>
      <trkpt lat="42.360286" lon="-4.902274">
        <ele>853.4</ele>
        <time>2021-08-18T05:37:03Z</time>
        <sat>9</sat>
      </trkpt>
      <trkpt lat="42.360297" lon="-4.902383">
        <ele>853.3</ele>
        <time>2021-08-18T05:37:09Z</time>
        <sat>9</sat>
      </trkpt>
      <trkpt lat="42.360297" lon="-4.902495">
        <ele>853.1</ele>
        <time>2021-08-18T05:37:15Z</time>
        <sat>9</sat>
      </trkpt>
      <trkpt lat="42.360304" lon="-4.902610">
        <ele>853.0</ele>
        <time>2021-08-18T05:37:21Z</time>
        <sat>9</sat>
      </trkpt>
      <trkpt lat="42.360330" lon="-4.902722">
        <ele>852.9</ele>
        <time>2021-08-18T05:37:27Z</time>
        <sat>9</sat>
      </trkpt>
      <trkpt lat="42.360351" lon="-4.902834">
        <ele>852.9</ele>
        <time>2021-08-18T05:37:33Z</time>
        <sat>9</sat>
      </trkpt>
      <trkpt lat="42.360376" lon="-4.902946">
        <ele>852.8</ele>
        <time>2021-08-18T05:37:39Z</time>
        <sat>9</sat>
      </trkpt>
      <trkpt lat="42.360413" lon="-4.903051">
        <ele>852.6</ele>
        <time>2021-08-18T05:37:45Z</time>
        <sat>9</sat>
      </trkpt>
      <trkpt lat="42.360446" lon="-4.903159">
        <ele>852.2</ele>
        <time>2021-08-18T05:37:51Z</time>
        <sat>9</sat>
      </trkpt>
      <trkpt lat="42.360470" lon="-4.903271">
        <ele>851.9</ele>
        <time>2021-08-18T05:37:57Z</time>
        <sat>9</sat>
      </trkpt>
      <trkpt lat="42.360501" lon="-4.903376">
        <ele>851.7</ele>
        <time>2021-08-18T05:38:03Z</time>
        <sat>9</sat>
      </trkpt>
      <trkpt lat="42.360534" lon="-4.903494">
        <ele>851.5</ele>
        <time>2021-08-18T05:38:10Z</time>
        <sat>9</sat>
      </trkpt>
      <trkpt lat="42.360552" lon="-4.903608">
        <ele>851.2</ele>
        <time>2021-08-18T05:38:16Z</time>
        <sat>9</sat>
      </trkpt>
      <trkpt lat="42.360584" lon="-4.903715">
        <ele>851.1</ele>
        <time>2021-08-18T05:38:22Z</time>
        <sat>8</sat>
      </trkpt>
      <trkpt lat="42.360615" lon="-4.903818">
        <ele>851.0</ele>
        <time>2021-08-18T05:38:28Z</time>
        <sat>8</sat>
      </trkpt>
      <trkpt lat="42.360641" lon="-4.903928">
        <ele>850.7</ele>
        <time>2021-08-18T05:38:34Z</time>
        <sat>9</sat>
      </trkpt>
      <trkpt lat="42.360676" lon="-4.904034">
        <ele>850.4</ele>
        <time>2021-08-18T05:38:40Z</time>
        <sat>9</sat>
      </trkpt>
      <trkpt lat="42.360717" lon="-4.904146">
        <ele>850.0</ele>
        <time>2021-08-18T05:38:47Z</time>
        <sat>9</sat>
      </trkpt>
      <trkpt lat="42.360755" lon="-4.904251">
        <ele>849.8</ele>
        <time>2021-08-18T05:38:53Z</time>
        <sat>9</sat>
      </trkpt>
      <trkpt lat="42.360803" lon="-4.904346">
        <ele>849.6</ele>
        <time>2021-08-18T05:38:59Z</time>
        <sat>9</sat>
      </trkpt>
      <trkpt lat="42.360849" lon="-4.904438">
        <ele>849.4</ele>
        <time>2021-08-18T05:39:05Z</time>
        <sat>9</sat>
      </trkpt>
      <trkpt lat="42.360891" lon="-4.904535">
        <ele>849.2</ele>
        <time>2021-08-18T05:39:11Z</time>
        <sat>9</sat>
      </trkpt>
      <trkpt lat="42.360943" lon="-4.904620">
        <ele>849.1</ele>
        <time>2021-08-18T05:39:17Z</time>
        <sat>9</sat>
      </trkpt>
      <trkpt lat="42.360991" lon="-4.904725">
        <ele>848.8</ele>
        <time>2021-08-18T05:39:24Z</time>
        <sat>9</sat>
      </trkpt>
      <trkpt lat="42.361041" lon="-4.904831">
        <ele>848.5</ele>
        <time>2021-08-18T05:39:31Z</time>
        <sat>9</sat>
      </trkpt>
      <trkpt lat="42.361091" lon="-4.904933">
        <ele>848.5</ele>
        <time>2021-08-18T05:39:38Z</time>
        <sat>10</sat>
      </trkpt>
      <trkpt lat="42.361130" lon="-4.905032">
        <ele>848.3</ele>
        <time>2021-08-18T05:39:44Z</time>
        <sat>10</sat>
      </trkpt>
      <trkpt lat="42.361182" lon="-4.905119">
        <ele>848.3</ele>
        <time>2021-08-18T05:39:50Z</time>
        <sat>10</sat>
      </trkpt>
      <trkpt lat="42.361228" lon="-4.905213">
        <ele>848.1</ele>
        <time>2021-08-18T05:39:56Z</time>
        <sat>10</sat>
      </trkpt>
      <trkpt lat="42.361273" lon="-4.905324">
        <ele>848.0</ele>
        <time>2021-08-18T05:40:03Z</time>
        <sat>10</sat>
      </trkpt>
      <trkpt lat="42.361301" lon="-4.905439">
        <ele>845.9</ele>
        <time>2021-08-18T05:40:10Z</time>
        <sat>10</sat>
      </trkpt>
      <trkpt lat="42.361285" lon="-4.905547">
        <ele>848.2</ele>
        <time>2021-08-18T05:40:16Z</time>
        <sat>10</sat>
      </trkpt>
      <trkpt lat="42.361235" lon="-4.905652">
        <ele>848.2</ele>
        <time>2021-08-18T05:40:23Z</time>
        <sat>10</sat>
      </trkpt>
      <trkpt lat="42.361188" lon="-4.905745">
        <ele>844.7</ele>
        <time>2021-08-18T05:40:29Z</time>
        <sat>10</sat>
      </trkpt>
      <trkpt lat="42.361143" lon="-4.905846">
        <ele>845.7</ele>
        <time>2021-08-18T05:40:35Z</time>
        <sat>10</sat>
      </trkpt>
      <trkpt lat="42.361095" lon="-4.905951">
        <ele>846.7</ele>
        <time>2021-08-18T05:40:42Z</time>
        <sat>10</sat>
      </trkpt>
      <trkpt lat="42.361049" lon="-4.906058">
        <ele>844.7</ele>
        <time>2021-08-18T05:40:49Z</time>
        <sat>10</sat>
      </trkpt>
      <trkpt lat="42.361005" lon="-4.906164">
        <ele>843.3</ele>
        <time>2021-08-18T05:40:55Z</time>
        <sat>10</sat>
      </trkpt>
      <trkpt lat="42.360957" lon="-4.906278">
        <ele>847.2</ele>
        <time>2021-08-18T05:41:02Z</time>
        <sat>10</sat>
      </trkpt>
      <trkpt lat="42.360906" lon="-4.906375">
        <ele>848.7</ele>
        <time>2021-08-18T05:41:08Z</time>
        <sat>10</sat>
      </trkpt>
      <trkpt lat="42.360863" lon="-4.906477">
        <ele>849.1</ele>
        <time>2021-08-18T05:41:14Z</time>
        <sat>10</sat>
      </trkpt>
      <trkpt lat="42.360821" lon="-4.906572">
        <ele>848.9</ele>
        <time>2021-08-18T05:41:20Z</time>
        <sat>10</sat>
      </trkpt>
      <trkpt lat="42.360765" lon="-4.906665">
        <ele>848.5</ele>
        <time>2021-08-18T05:41:26Z</time>
        <sat>10</sat>
      </trkpt>
      <trkpt lat="42.360724" lon="-4.906764">
        <ele>848.4</ele>
        <time>2021-08-18T05:41:32Z</time>
        <sat>10</sat>
      </trkpt>
      <trkpt lat="42.360672" lon="-4.906870">
        <ele>848.1</ele>
        <time>2021-08-18T05:41:39Z</time>
        <sat>9</sat>
      </trkpt>
      <trkpt lat="42.360625" lon="-4.906976">
        <ele>848.0</ele>
        <time>2021-08-18T05:41:50Z</time>
        <sat>10</sat>
      </trkpt>
      <trkpt lat="42.360574" lon="-4.907082">
        <ele>847.9</ele>
        <time>2021-08-18T05:41:57Z</time>
        <sat>10</sat>
      </trkpt>
      <trkpt lat="42.360526" lon="-4.907172">
        <ele>847.9</ele>
        <time>2021-08-18T05:42:03Z</time>
        <sat>10</sat>
      </trkpt>
      <trkpt lat="42.360486" lon="-4.907271">
        <ele>847.9</ele>
        <time>2021-08-18T05:42:09Z</time>
        <sat>10</sat>
      </trkpt>
      <trkpt lat="42.360439" lon="-4.907363">
        <ele>847.7</ele>
        <time>2021-08-18T05:42:15Z</time>
        <sat>10</sat>
      </trkpt>
      <trkpt lat="42.360386" lon="-4.907469">
        <ele>847.6</ele>
        <time>2021-08-18T05:42:22Z</time>
        <sat>9</sat>
      </trkpt>
      <trkpt lat="42.360336" lon="-4.907574">
        <ele>847.4</ele>
        <time>2021-08-18T05:42:29Z</time>
        <sat>10</sat>
      </trkpt>
      <trkpt lat="42.360286" lon="-4.907675">
        <ele>847.4</ele>
        <time>2021-08-18T05:42:36Z</time>
        <sat>10</sat>
      </trkpt>
      <trkpt lat="42.360247" lon="-4.907775">
        <ele>847.3</ele>
        <time>2021-08-18T05:42:42Z</time>
        <sat>10</sat>
      </trkpt>
      <trkpt lat="42.360196" lon="-4.907865">
        <ele>847.2</ele>
        <time>2021-08-18T05:42:48Z</time>
        <sat>10</sat>
      </trkpt>
      <trkpt lat="42.360154" lon="-4.907958">
        <ele>847.1</ele>
        <time>2021-08-18T05:42:55Z</time>
        <sat>9</sat>
      </trkpt>
      <trkpt lat="42.360108" lon="-4.908057">
        <ele>847.1</ele>
        <time>2021-08-18T05:43:01Z</time>
        <sat>9</sat>
      </trkpt>
      <trkpt lat="42.360066" lon="-4.908154">
        <ele>847.1</ele>
        <time>2021-08-18T05:43:07Z</time>
        <sat>9</sat>
      </trkpt>
      <trkpt lat="42.360014" lon="-4.908262">
        <ele>847.1</ele>
        <time>2021-08-18T05:43:14Z</time>
        <sat>9</sat>
      </trkpt>
      <trkpt lat="42.359967" lon="-4.908357">
        <ele>847.1</ele>
        <time>2021-08-18T05:43:20Z</time>
        <sat>10</sat>
      </trkpt>
      <trkpt lat="42.359928" lon="-4.908458">
        <ele>847.0</ele>
        <time>2021-08-18T05:43:26Z</time>
        <sat>10</sat>
      </trkpt>
      <trkpt lat="42.359882" lon="-4.908549">
        <ele>846.9</ele>
        <time>2021-08-18T05:43:32Z</time>
        <sat>10</sat>
      </trkpt>
      <trkpt lat="42.359834" lon="-4.908648">
        <ele>846.8</ele>
        <time>2021-08-18T05:43:38Z</time>
        <sat>10</sat>
      </trkpt>
      <trkpt lat="42.359795" lon="-4.908757">
        <ele>846.8</ele>
        <time>2021-08-18T05:43:44Z</time>
        <sat>10</sat>
      </trkpt>
      <trkpt lat="42.359750" lon="-4.908852">
        <ele>846.8</ele>
        <time>2021-08-18T05:43:50Z</time>
        <sat>10</sat>
      </trkpt>
      <trkpt lat="42.359692" lon="-4.908943">
        <ele>846.7</ele>
        <time>2021-08-18T05:43:56Z</time>
        <sat>10</sat>
      </trkpt>
      <trkpt lat="42.359637" lon="-4.909032">
        <ele>846.6</ele>
        <time>2021-08-18T05:44:02Z</time>
        <sat>9</sat>
      </trkpt>
      <trkpt lat="42.359583" lon="-4.909119">
        <ele>846.5</ele>
        <time>2021-08-18T05:44:08Z</time>
        <sat>10</sat>
      </trkpt>
      <trkpt lat="42.359520" lon="-4.909193">
        <ele>846.5</ele>
        <time>2021-08-18T05:44:14Z</time>
        <sat>9</sat>
      </trkpt>
      <trkpt lat="42.359450" lon="-4.909260">
        <ele>846.3</ele>
        <time>2021-08-18T05:44:20Z</time>
        <sat>9</sat>
      </trkpt>
      <trkpt lat="42.359380" lon="-4.909336">
        <ele>846.2</ele>
        <time>2021-08-18T05:44:26Z</time>
        <sat>10</sat>
      </trkpt>
      <trkpt lat="42.359308" lon="-4.909401">
        <ele>846.1</ele>
        <time>2021-08-18T05:44:32Z</time>
        <sat>10</sat>
      </trkpt>
      <trkpt lat="42.359252" lon="-4.909502">
        <ele>846.0</ele>
        <time>2021-08-18T05:44:40Z</time>
        <sat>10</sat>
      </trkpt>
      <trkpt lat="42.359184" lon="-4.909568">
        <ele>845.8</ele>
        <time>2021-08-18T05:44:46Z</time>
        <sat>10</sat>
      </trkpt>
      <trkpt lat="42.359132" lon="-4.909658">
        <ele>845.6</ele>
        <time>2021-08-18T05:44:52Z</time>
        <sat>10</sat>
      </trkpt>
      <trkpt lat="42.359113" lon="-4.909775">
        <ele>845.0</ele>
        <time>2021-08-18T05:44:59Z</time>
        <sat>9</sat>
      </trkpt>
      <trkpt lat="42.359099" lon="-4.909885">
        <ele>844.0</ele>
        <time>2021-08-18T05:45:06Z</time>
        <sat>9</sat>
      </trkpt>
      <trkpt lat="42.359098" lon="-4.910002">
        <ele>842.4</ele>
        <time>2021-08-18T05:45:29Z</time>
        <sat>9</sat>
      </trkpt>
      <trkpt lat="42.359094" lon="-4.910120">
        <ele>842.2</ele>
        <time>2021-08-18T05:45:35Z</time>
        <sat>10</sat>
      </trkpt>
      <trkpt lat="42.359108" lon="-4.910232">
        <ele>841.8</ele>
        <time>2021-08-18T05:45:41Z</time>
        <sat>10</sat>
      </trkpt>
      <trkpt lat="42.359132" lon="-4.910344">
        <ele>841.5</ele>
        <time>2021-08-18T05:45:47Z</time>
        <sat>10</sat>
      </trkpt>
      <trkpt lat="42.359158" lon="-4.910451">
        <ele>841.0</ele>
        <time>2021-08-18T05:45:53Z</time>
        <sat>10</sat>
      </trkpt>
      <trkpt lat="42.359201" lon="-4.910556">
        <ele>840.7</ele>
        <time>2021-08-18T05:45:59Z</time>
        <sat>10</sat>
      </trkpt>
      <trkpt lat="42.359244" lon="-4.910655">
        <ele>840.4</ele>
        <time>2021-08-18T05:46:05Z</time>
        <sat>10</sat>
      </trkpt>
      <trkpt lat="42.359280" lon="-4.910758">
        <ele>839.8</ele>
        <time>2021-08-18T05:46:11Z</time>
        <sat>10</sat>
      </trkpt>
      <trkpt lat="42.359314" lon="-4.910862">
        <ele>839.6</ele>
        <time>2021-08-18T05:46:17Z</time>
        <sat>10</sat>
      </trkpt>
      <trkpt lat="42.359358" lon="-4.910965">
        <ele>839.7</ele>
        <time>2021-08-18T05:46:23Z</time>
        <sat>10</sat>
      </trkpt>
      <trkpt lat="42.359395" lon="-4.911064">
        <ele>839.4</ele>
        <time>2021-08-18T05:46:29Z</time>
        <sat>10</sat>
      </trkpt>
      <trkpt lat="42.359400" lon="-4.911182">
        <ele>839.2</ele>
        <time>2021-08-18T05:46:35Z</time>
        <sat>10</sat>
      </trkpt>
      <trkpt lat="42.359392" lon="-4.911302">
        <ele>838.9</ele>
        <time>2021-08-18T05:46:41Z</time>
        <sat>10</sat>
      </trkpt>
      <trkpt lat="42.359376" lon="-4.911413">
        <ele>838.7</ele>
        <time>2021-08-18T05:46:47Z</time>
        <sat>9</sat>
      </trkpt>
      <trkpt lat="42.359336" lon="-4.911508">
        <ele>838.7</ele>
        <time>2021-08-18T05:46:53Z</time>
        <sat>10</sat>
      </trkpt>
      <trkpt lat="42.359294" lon="-4.911613">
        <ele>839.1</ele>
        <time>2021-08-18T05:47:00Z</time>
        <sat>10</sat>
      </trkpt>
      <trkpt lat="42.359259" lon="-4.911717">
        <ele>839.6</ele>
        <time>2021-08-18T05:47:07Z</time>
        <sat>10</sat>
      </trkpt>
      <trkpt lat="42.359251" lon="-4.911828">
        <ele>840.2</ele>
        <time>2021-08-18T05:47:18Z</time>
        <sat>10</sat>
      </trkpt>
      <trkpt lat="42.359243" lon="-4.911941">
        <ele>840.3</ele>
        <time>2021-08-18T05:47:24Z</time>
        <sat>9</sat>
      </trkpt>
      <trkpt lat="42.359240" lon="-4.912058">
        <ele>840.3</ele>
        <time>2021-08-18T05:47:30Z</time>
        <sat>9</sat>
      </trkpt>
      <trkpt lat="42.359256" lon="-4.912173">
        <ele>840.2</ele>
        <time>2021-08-18T05:47:36Z</time>
        <sat>9</sat>
      </trkpt>
      <trkpt lat="42.359271" lon="-4.912295">
        <ele>839.7</ele>
        <time>2021-08-18T05:47:43Z</time>
        <sat>9</sat>
      </trkpt>
      <trkpt lat="42.359276" lon="-4.912405">
        <ele>839.2</ele>
        <time>2021-08-18T05:47:49Z</time>
        <sat>9</sat>
      </trkpt>
      <trkpt lat="42.359288" lon="-4.912519">
        <ele>838.7</ele>
        <time>2021-08-18T05:47:55Z</time>
        <sat>9</sat>
      </trkpt>
      <trkpt lat="42.359328" lon="-4.912631">
        <ele>838.1</ele>
        <time>2021-08-18T05:48:02Z</time>
        <sat>9</sat>
      </trkpt>
      <trkpt lat="42.359365" lon="-4.912741">
        <ele>837.9</ele>
        <time>2021-08-18T05:48:08Z</time>
        <sat>9</sat>
      </trkpt>
      <trkpt lat="42.359413" lon="-4.912832">
        <ele>837.6</ele>
        <time>2021-08-18T05:48:14Z</time>
        <sat>9</sat>
      </trkpt>
      <trkpt lat="42.359448" lon="-4.912949">
        <ele>837.6</ele>
        <time>2021-08-18T05:48:21Z</time>
        <sat>9</sat>
      </trkpt>
      <trkpt lat="42.359486" lon="-4.913047">
        <ele>837.6</ele>
        <time>2021-08-18T05:48:28Z</time>
        <sat>9</sat>
      </trkpt>
      <trkpt lat="42.359525" lon="-4.913147">
        <ele>837.8</ele>
        <time>2021-08-18T05:48:34Z</time>
        <sat>8</sat>
      </trkpt>
      <trkpt lat="42.359568" lon="-4.913253">
        <ele>838.1</ele>
        <time>2021-08-18T05:48:41Z</time>
        <sat>8</sat>
      </trkpt>
      <trkpt lat="42.359614" lon="-4.913362">
        <ele>838.5</ele>
        <time>2021-08-18T05:48:48Z</time>
        <sat>8</sat>
      </trkpt>
      <trkpt lat="42.359650" lon="-4.913468">
        <ele>838.9</ele>
        <time>2021-08-18T05:48:55Z</time>
        <sat>9</sat>
      </trkpt>
      <trkpt lat="42.359691" lon="-4.913581">
        <ele>839.5</ele>
        <time>2021-08-18T05:49:02Z</time>
        <sat>9</sat>
      </trkpt>
      <trkpt lat="42.359728" lon="-4.913694">
        <ele>839.9</ele>
        <time>2021-08-18T05:49:09Z</time>
        <sat>9</sat>
      </trkpt>
      <trkpt lat="42.359761" lon="-4.913812">
        <ele>840.3</ele>
        <time>2021-08-18T05:49:16Z</time>
        <sat>9</sat>
      </trkpt>
      <trkpt lat="42.359794" lon="-4.913922">
        <ele>840.5</ele>
        <time>2021-08-18T05:49:23Z</time>
        <sat>9</sat>
      </trkpt>
      <trkpt lat="42.359825" lon="-4.914033">
        <ele>840.5</ele>
        <time>2021-08-18T05:49:30Z</time>
        <sat>9</sat>
      </trkpt>
      <trkpt lat="42.359861" lon="-4.914142">
        <ele>840.6</ele>
        <time>2021-08-18T05:49:37Z</time>
        <sat>9</sat>
      </trkpt>
      <trkpt lat="42.359892" lon="-4.914252">
        <ele>840.8</ele>
        <time>2021-08-18T05:49:44Z</time>
        <sat>8</sat>
      </trkpt>
      <trkpt lat="42.359924" lon="-4.914361">
        <ele>841.1</ele>
        <time>2021-08-18T05:49:51Z</time>
        <sat>9</sat>
      </trkpt>
      <trkpt lat="42.359966" lon="-4.914469">
        <ele>841.3</ele>
        <time>2021-08-18T05:49:58Z</time>
        <sat>9</sat>
      </trkpt>
      <trkpt lat="42.360011" lon="-4.914565">
        <ele>841.5</ele>
        <time>2021-08-18T05:50:04Z</time>
        <sat>9</sat>
      </trkpt>
      <trkpt lat="42.360046" lon="-4.914666">
        <ele>841.6</ele>
        <time>2021-08-18T05:50:10Z</time>
        <sat>9</sat>
      </trkpt>
      <trkpt lat="42.360084" lon="-4.914768">
        <ele>841.8</ele>
        <time>2021-08-18T05:50:16Z</time>
        <sat>9</sat>
      </trkpt>
      <trkpt lat="42.360118" lon="-4.914870">
        <ele>842.0</ele>
        <time>2021-08-18T05:50:22Z</time>
        <sat>9</sat>
      </trkpt>
      <trkpt lat="42.360157" lon="-4.914970">
        <ele>842.2</ele>
        <time>2021-08-18T05:50:28Z</time>
        <sat>9</sat>
      </trkpt>
      <trkpt lat="42.360178" lon="-4.915093">
        <ele>842.5</ele>
        <time>2021-08-18T05:50:35Z</time>
        <sat>8</sat>
      </trkpt>
      <trkpt lat="42.360215" lon="-4.915192">
        <ele>842.7</ele>
        <time>2021-08-18T05:50:41Z</time>
        <sat>8</sat>
      </trkpt>
      <trkpt lat="42.360254" lon="-4.915292">
        <ele>843.0</ele>
        <time>2021-08-18T05:50:47Z</time>
        <sat>8</sat>
      </trkpt>
      <trkpt lat="42.360292" lon="-4.915395">
        <ele>843.2</ele>
        <time>2021-08-18T05:50:53Z</time>
        <sat>8</sat>
      </trkpt>
      <trkpt lat="42.360341" lon="-4.915504">
        <ele>843.5</ele>
        <time>2021-08-18T05:51:00Z</time>
        <sat>8</sat>
      </trkpt>
      <trkpt lat="42.360391" lon="-4.915595">
        <ele>843.6</ele>
        <time>2021-08-18T05:51:06Z</time>
        <sat>8</sat>
      </trkpt>
      <trkpt lat="42.360430" lon="-4.915693">
        <ele>844.0</ele>
        <time>2021-08-18T05:51:12Z</time>
        <sat>8</sat>
      </trkpt>
      <trkpt lat="42.360477" lon="-4.915784">
        <ele>844.3</ele>
        <time>2021-08-18T05:51:18Z</time>
        <sat>8</sat>
      </trkpt>
      <trkpt lat="42.360511" lon="-4.915886">
        <ele>844.6</ele>
        <time>2021-08-18T05:51:24Z</time>
        <sat>8</sat>
      </trkpt>
      <trkpt lat="42.360554" lon="-4.915998">
        <ele>844.9</ele>
        <time>2021-08-18T05:51:31Z</time>
        <sat>8</sat>
      </trkpt>
      <trkpt lat="42.360582" lon="-4.916102">
        <ele>845.3</ele>
        <time>2021-08-18T05:51:37Z</time>
        <sat>8</sat>
      </trkpt>
      <trkpt lat="42.360612" lon="-4.916206">
        <ele>845.7</ele>
        <time>2021-08-18T05:51:43Z</time>
        <sat>8</sat>
      </trkpt>
      <trkpt lat="42.360639" lon="-4.916314">
        <ele>845.9</ele>
        <time>2021-08-18T05:51:49Z</time>
        <sat>8</sat>
      </trkpt>
      <trkpt lat="42.360667" lon="-4.916422">
        <ele>846.2</ele>
        <time>2021-08-18T05:51:57Z</time>
        <sat>8</sat>
      </trkpt>
      <trkpt lat="42.360698" lon="-4.916526">
        <ele>846.5</ele>
        <time>2021-08-18T05:52:03Z</time>
        <sat>8</sat>
      </trkpt>
      <trkpt lat="42.360731" lon="-4.916629">
        <ele>847.0</ele>
        <time>2021-08-18T05:52:10Z</time>
        <sat>7</sat>
      </trkpt>
      <trkpt lat="42.360754" lon="-4.916742">
        <ele>847.5</ele>
        <time>2021-08-18T05:52:19Z</time>
        <sat>8</sat>
      </trkpt>
      <trkpt lat="42.360787" lon="-4.916859">
        <ele>847.8</ele>
        <time>2021-08-18T05:52:26Z</time>
        <sat>8</sat>
      </trkpt>
      <trkpt lat="42.360805" lon="-4.916969">
        <ele>848.1</ele>
        <time>2021-08-18T05:52:32Z</time>
        <sat>8</sat>
      </trkpt>
      <trkpt lat="42.360830" lon="-4.917086">
        <ele>848.7</ele>
        <time>2021-08-18T05:52:42Z</time>
        <sat>8</sat>
      </trkpt>
      <trkpt lat="42.360846" lon="-4.917197">
        <ele>849.0</ele>
        <time>2021-08-18T05:52:49Z</time>
        <sat>8</sat>
      </trkpt>
      <trkpt lat="42.360840" lon="-4.917308">
        <ele>849.2</ele>
        <time>2021-08-18T05:52:55Z</time>
        <sat>8</sat>
      </trkpt>
      <trkpt lat="42.360843" lon="-4.917417">
        <ele>849.3</ele>
        <time>2021-08-18T05:53:01Z</time>
        <sat>8</sat>
      </trkpt>
      <trkpt lat="42.360830" lon="-4.917542">
        <ele>849.5</ele>
        <time>2021-08-18T05:53:08Z</time>
        <sat>8</sat>
      </trkpt>
      <trkpt lat="42.360815" lon="-4.917653">
        <ele>849.8</ele>
        <time>2021-08-18T05:53:14Z</time>
        <sat>8</sat>
      </trkpt>
      <trkpt lat="42.360794" lon="-4.917759">
        <ele>850.1</ele>
        <time>2021-08-18T05:53:20Z</time>
        <sat>8</sat>
      </trkpt>
      <trkpt lat="42.360778" lon="-4.917880">
        <ele>850.3</ele>
        <time>2021-08-18T05:53:26Z</time>
        <sat>8</sat>
      </trkpt>
      <trkpt lat="42.360762" lon="-4.917991">
        <ele>850.7</ele>
        <time>2021-08-18T05:53:32Z</time>
        <sat>8</sat>
      </trkpt>
      <trkpt lat="42.360752" lon="-4.918101">
        <ele>851.2</ele>
        <time>2021-08-18T05:53:38Z</time>
        <sat>8</sat>
      </trkpt>
      <trkpt lat="42.360749" lon="-4.918212">
        <ele>851.8</ele>
        <time>2021-08-18T05:53:44Z</time>
        <sat>8</sat>
      </trkpt>
      <trkpt lat="42.360731" lon="-4.918321">
        <ele>852.1</ele>
        <time>2021-08-18T05:53:50Z</time>
        <sat>8</sat>
      </trkpt>
      <trkpt lat="42.360726" lon="-4.918434">
        <ele>852.3</ele>
        <time>2021-08-18T05:53:56Z</time>
        <sat>8</sat>
      </trkpt>
      <trkpt lat="42.360722" lon="-4.918543">
        <ele>852.5</ele>
        <time>2021-08-18T05:54:02Z</time>
        <sat>8</sat>
      </trkpt>
      <trkpt lat="42.360713" lon="-4.918660">
        <ele>852.7</ele>
        <time>2021-08-18T05:54:08Z</time>
        <sat>8</sat>
      </trkpt>
      <trkpt lat="42.360712" lon="-4.918775">
        <ele>853.0</ele>
        <time>2021-08-18T05:54:14Z</time>
        <sat>8</sat>
      </trkpt>
      <trkpt lat="42.360702" lon="-4.918885">
        <ele>853.2</ele>
        <time>2021-08-18T05:54:20Z</time>
        <sat>8</sat>
      </trkpt>
      <trkpt lat="42.360706" lon="-4.918995">
        <ele>853.3</ele>
        <time>2021-08-18T05:54:26Z</time>
        <sat>8</sat>
      </trkpt>
      <trkpt lat="42.360697" lon="-4.919106">
        <ele>853.5</ele>
        <time>2021-08-18T05:54:32Z</time>
        <sat>8</sat>
      </trkpt>
      <trkpt lat="42.360694" lon="-4.919221">
        <ele>853.8</ele>
        <time>2021-08-18T05:54:38Z</time>
        <sat>8</sat>
      </trkpt>
      <trkpt lat="42.360687" lon="-4.919348">
        <ele>854.1</ele>
        <time>2021-08-18T05:54:45Z</time>
        <sat>8</sat>
      </trkpt>
      <trkpt lat="42.360687" lon="-4.919460">
        <ele>854.4</ele>
        <time>2021-08-18T05:54:51Z</time>
        <sat>8</sat>
      </trkpt>
      <trkpt lat="42.360677" lon="-4.919573">
        <ele>854.9</ele>
        <time>2021-08-18T05:54:57Z</time>
        <sat>8</sat>
      </trkpt>
      <trkpt lat="42.360684" lon="-4.919687">
        <ele>855.2</ele>
        <time>2021-08-18T05:55:05Z</time>
        <sat>8</sat>
      </trkpt>
      <trkpt lat="42.360689" lon="-4.919797">
        <ele>855.6</ele>
        <time>2021-08-18T05:55:11Z</time>
        <sat>8</sat>
      </trkpt>
      <trkpt lat="42.360682" lon="-4.919908">
        <ele>855.7</ele>
        <time>2021-08-18T05:55:17Z</time>
        <sat>8</sat>
      </trkpt>
      <trkpt lat="42.360689" lon="-4.920020">
        <ele>855.9</ele>
        <time>2021-08-18T05:55:23Z</time>
        <sat>8</sat>
      </trkpt>
      <trkpt lat="42.360681" lon="-4.920136">
        <ele>856.2</ele>
        <time>2021-08-18T05:55:29Z</time>
        <sat>8</sat>
      </trkpt>
      <trkpt lat="42.360681" lon="-4.920253">
        <ele>856.5</ele>
        <time>2021-08-18T05:55:35Z</time>
        <sat>8</sat>
      </trkpt>
      <trkpt lat="42.360682" lon="-4.920364">
        <ele>856.9</ele>
        <time>2021-08-18T05:55:41Z</time>
        <sat>8</sat>
      </trkpt>
      <trkpt lat="42.360675" lon="-4.920480">
        <ele>857.1</ele>
        <time>2021-08-18T05:55:47Z</time>
        <sat>8</sat>
      </trkpt>
      <trkpt lat="42.360684" lon="-4.920594">
        <ele>857.4</ele>
        <time>2021-08-18T05:55:53Z</time>
        <sat>8</sat>
      </trkpt>
      <trkpt lat="42.360679" lon="-4.920708">
        <ele>857.5</ele>
        <time>2021-08-18T05:55:59Z</time>
        <sat>8</sat>
      </trkpt>
      <trkpt lat="42.360691" lon="-4.920822">
        <ele>857.8</ele>
        <time>2021-08-18T05:56:05Z</time>
        <sat>8</sat>
      </trkpt>
      <trkpt lat="42.360697" lon="-4.920940">
        <ele>858.1</ele>
        <time>2021-08-18T05:56:11Z</time>
        <sat>8</sat>
      </trkpt>
      <trkpt lat="42.360721" lon="-4.921055">
        <ele>858.5</ele>
        <time>2021-08-18T05:56:17Z</time>
        <sat>8</sat>
      </trkpt>
      <trkpt lat="42.360733" lon="-4.921170">
        <ele>858.9</ele>
        <time>2021-08-18T05:56:23Z</time>
        <sat>8</sat>
      </trkpt>
      <trkpt lat="42.360758" lon="-4.921280">
        <ele>859.5</ele>
        <time>2021-08-18T05:56:29Z</time>
        <sat>8</sat>
      </trkpt>
      <trkpt lat="42.360786" lon="-4.921396">
        <ele>859.9</ele>
        <time>2021-08-18T05:56:35Z</time>
        <sat>8</sat>
      </trkpt>
      <trkpt lat="42.360824" lon="-4.921498">
        <ele>860.5</ele>
        <time>2021-08-18T05:56:42Z</time>
        <sat>8</sat>
      </trkpt>
      <trkpt lat="42.360866" lon="-4.921592">
        <ele>861.0</ele>
        <time>2021-08-18T05:56:49Z</time>
        <sat>8</sat>
      </trkpt>
      <trkpt lat="42.360890" lon="-4.921712">
        <ele>861.4</ele>
        <time>2021-08-18T05:56:55Z</time>
        <sat>8</sat>
      </trkpt>
      <trkpt lat="42.360919" lon="-4.921817">
        <ele>861.6</ele>
        <time>2021-08-18T05:57:01Z</time>
        <sat>8</sat>
      </trkpt>
      <trkpt lat="42.360929" lon="-4.921937">
        <ele>861.9</ele>
        <time>2021-08-18T05:57:08Z</time>
        <sat>8</sat>
      </trkpt>
      <trkpt lat="42.360936" lon="-4.922060">
        <ele>862.0</ele>
        <time>2021-08-18T05:57:15Z</time>
        <sat>8</sat>
      </trkpt>
      <trkpt lat="42.360935" lon="-4.922185">
        <ele>861.4</ele>
        <time>2021-08-18T05:57:23Z</time>
        <sat>8</sat>
      </trkpt>
      <trkpt lat="42.360935" lon="-4.922304">
        <ele>860.9</ele>
        <time>2021-08-18T05:57:30Z</time>
        <sat>8</sat>
      </trkpt>
      <trkpt lat="42.360927" lon="-4.922421">
        <ele>860.5</ele>
        <time>2021-08-18T05:57:37Z</time>
        <sat>8</sat>
      </trkpt>
      <trkpt lat="42.360942" lon="-4.922536">
        <ele>860.2</ele>
        <time>2021-08-18T05:57:44Z</time>
        <sat>8</sat>
      </trkpt>
      <trkpt lat="42.360953" lon="-4.922657">
        <ele>859.5</ele>
        <time>2021-08-18T05:58:08Z</time>
        <sat>8</sat>
      </trkpt>
      <trkpt lat="42.360960" lon="-4.922775">
        <ele>859.2</ele>
        <time>2021-08-18T05:58:43Z</time>
        <sat>8</sat>
      </trkpt>
      <trkpt lat="42.360948" lon="-4.922901">
        <ele>858.9</ele>
        <time>2021-08-18T05:58:50Z</time>
        <sat>8</sat>
      </trkpt>
      <trkpt lat="42.360938" lon="-4.923023">
        <ele>858.0</ele>
        <time>2021-08-18T05:59:13Z</time>
        <sat>8</sat>
      </trkpt>
      <trkpt lat="42.360912" lon="-4.923129">
        <ele>857.8</ele>
        <time>2021-08-18T05:59:19Z</time>
        <sat>8</sat>
      </trkpt>
      <trkpt lat="42.360887" lon="-4.923237">
        <ele>857.6</ele>
        <time>2021-08-18T05:59:25Z</time>
        <sat>8</sat>
      </trkpt>
      <trkpt lat="42.360875" lon="-4.923345">
        <ele>857.2</ele>
        <time>2021-08-18T05:59:31Z</time>
        <sat>8</sat>
      </trkpt>
      <trkpt lat="42.360850" lon="-4.923454">
        <ele>856.9</ele>
        <time>2021-08-18T05:59:37Z</time>
        <sat>8</sat>
      </trkpt>
      <trkpt lat="42.360834" lon="-4.923573">
        <ele>855.6</ele>
        <time>2021-08-18T05:59:43Z</time>
        <sat>8</sat>
      </trkpt>
      <trkpt lat="42.360824" lon="-4.923698">
        <ele>856.1</ele>
        <time>2021-08-18T05:59:50Z</time>
        <sat>8</sat>
      </trkpt>
      <trkpt lat="42.360811" lon="-4.923823">
        <ele>855.2</ele>
        <time>2021-08-18T05:59:57Z</time>
        <sat>8</sat>
      </trkpt>
      <trkpt lat="42.360779" lon="-4.923932">
        <ele>855.2</ele>
        <time>2021-08-18T06:00:03Z</time>
        <sat>8</sat>
      </trkpt>
      <trkpt lat="42.360760" lon="-4.924042">
        <ele>854.6</ele>
        <time>2021-08-18T06:00:09Z</time>
        <sat>8</sat>
      </trkpt>
      <trkpt lat="42.360740" lon="-4.924166">
        <ele>855.5</ele>
        <time>2021-08-18T06:00:16Z</time>
        <sat>8</sat>
      </trkpt>
      <trkpt lat="42.360703" lon="-4.924271">
        <ele>855.5</ele>
        <time>2021-08-18T06:00:22Z</time>
        <sat>8</sat>
      </trkpt>
      <trkpt lat="42.360676" lon="-4.924375">
        <ele>855.5</ele>
        <time>2021-08-18T06:00:28Z</time>
        <sat>8</sat>
      </trkpt>
      <trkpt lat="42.360651" lon="-4.924481">
        <ele>855.4</ele>
        <time>2021-08-18T06:00:34Z</time>
        <sat>8</sat>
      </trkpt>
      <trkpt lat="42.360615" lon="-4.924583">
        <ele>855.2</ele>
        <time>2021-08-18T06:00:40Z</time>
        <sat>8</sat>
      </trkpt>
      <trkpt lat="42.360585" lon="-4.924694">
        <ele>855.0</ele>
        <time>2021-08-18T06:00:47Z</time>
        <sat>8</sat>
      </trkpt>
      <trkpt lat="42.360552" lon="-4.924797">
        <ele>855.0</ele>
        <time>2021-08-18T06:00:54Z</time>
        <sat>8</sat>
      </trkpt>
      <trkpt lat="42.360533" lon="-4.924867">
        <ele>845.3</ele>
        <time>2021-08-18T06:31:15Z</time>
        <sat>8</sat>
      </trkpt>
      <trkpt lat="42.360554" lon="-4.924977">
        <ele>844.3</ele>
        <time>2021-08-18T06:32:20Z</time>
        <sat>8</sat>
      </trkpt>
      <trkpt lat="42.360525" lon="-4.925087">
        <ele>843.5</ele>
        <time>2021-08-18T06:32:28Z</time>
        <sat>7</sat>
      </trkpt>
      <trkpt lat="42.360500" lon="-4.925202">
        <ele>844.7</ele>
        <time>2021-08-18T06:32:37Z</time>
        <sat>9</sat>
      </trkpt>
      <trkpt lat="42.360463" lon="-4.925305">
        <ele>844.6</ele>
        <time>2021-08-18T06:32:48Z</time>
        <sat>9</sat>
      </trkpt>
      <trkpt lat="42.360430" lon="-4.925413">
        <ele>844.1</ele>
        <time>2021-08-18T06:32:57Z</time>
        <sat>8</sat>
      </trkpt>
      <trkpt lat="42.360401" lon="-4.925520">
        <ele>843.7</ele>
        <time>2021-08-18T06:33:06Z</time>
        <sat>7</sat>
      </trkpt>
      <trkpt lat="42.360379" lon="-4.925631">
        <ele>843.3</ele>
        <time>2021-08-18T06:33:14Z</time>
        <sat>8</sat>
      </trkpt>
      <trkpt lat="42.360380" lon="-4.925746">
        <ele>843.4</ele>
        <time>2021-08-18T06:33:22Z</time>
        <sat>9</sat>
      </trkpt>
      <trkpt lat="42.360378" lon="-4.925869">
        <ele>842.9</ele>
        <time>2021-08-18T06:33:31Z</time>
        <sat>8</sat>
      </trkpt>
      <trkpt lat="42.360355" lon="-4.925989">
        <ele>843.0</ele>
        <time>2021-08-18T06:33:39Z</time>
        <sat>8</sat>
      </trkpt>
      <trkpt lat="42.360346" lon="-4.926099">
        <ele>843.1</ele>
        <time>2021-08-18T06:33:46Z</time>
        <sat>8</sat>
      </trkpt>
      <trkpt lat="42.360324" lon="-4.926216">
        <ele>842.9</ele>
        <time>2021-08-18T06:33:54Z</time>
        <sat>8</sat>
      </trkpt>
      <trkpt lat="42.360325" lon="-4.926334">
        <ele>842.3</ele>
        <time>2021-08-18T06:34:13Z</time>
        <sat>8</sat>
      </trkpt>
      <trkpt lat="42.360307" lon="-4.926458">
        <ele>842.1</ele>
        <time>2021-08-18T06:34:20Z</time>
        <sat>9</sat>
      </trkpt>
      <trkpt lat="42.360283" lon="-4.926564">
        <ele>842.0</ele>
        <time>2021-08-18T06:34:28Z</time>
        <sat>9</sat>
      </trkpt>
      <trkpt lat="42.360234" lon="-4.926652">
        <ele>841.6</ele>
        <time>2021-08-18T06:34:36Z</time>
        <sat>9</sat>
      </trkpt>
      <trkpt lat="42.360313" lon="-4.926695">
        <ele>841.2</ele>
        <time>2021-08-18T06:34:50Z</time>
        <sat>9</sat>
      </trkpt>
      <trkpt lat="42.360375" lon="-4.926681">
        <ele>839.3</ele>
        <time>2021-08-18T06:42:26Z</time>
        <sat>9</sat>
      </trkpt>
      <trkpt lat="42.360417" lon="-4.926781">
        <ele>839.8</ele>
        <time>2021-08-18T06:42:37Z</time>
        <sat>9</sat>
      </trkpt>
      <trkpt lat="42.360472" lon="-4.926871">
        <ele>839.4</ele>
        <time>2021-08-18T06:42:54Z</time>
        <sat>9</sat>
      </trkpt>
      <trkpt lat="42.360546" lon="-4.926922">
        <ele>839.5</ele>
        <time>2021-08-18T06:43:20Z</time>
        <sat>8</sat>
      </trkpt>
      <trkpt lat="42.360561" lon="-4.927024">
        <ele>839.4</ele>
        <time>2021-08-18T06:48:01Z</time>
        <sat>9</sat>
      </trkpt>
      <trkpt lat="42.360479" lon="-4.927066">
        <ele>839.3</ele>
        <time>2021-08-18T06:48:07Z</time>
        <sat>9</sat>
      </trkpt>
      <trkpt lat="42.360394" lon="-4.927110">
        <ele>839.1</ele>
        <time>2021-08-18T06:48:15Z</time>
        <sat>9</sat>
      </trkpt>
      <trkpt lat="42.360312" lon="-4.927162">
        <ele>839.0</ele>
        <time>2021-08-18T06:48:20Z</time>
        <sat>9</sat>
      </trkpt>
      <trkpt lat="42.360238" lon="-4.927215">
        <ele>838.9</ele>
        <time>2021-08-18T06:48:26Z</time>
        <sat>9</sat>
      </trkpt>
      <trkpt lat="42.360161" lon="-4.927269">
        <ele>839.0</ele>
        <time>2021-08-18T06:48:32Z</time>
        <sat>8</sat>
      </trkpt>
      <trkpt lat="42.360095" lon="-4.927337">
        <ele>839.0</ele>
        <time>2021-08-18T06:48:38Z</time>
        <sat>8</sat>
      </trkpt>
      <trkpt lat="42.360054" lon="-4.927437">
        <ele>839.0</ele>
        <time>2021-08-18T06:48:44Z</time>
        <sat>8</sat>
      </trkpt>
      <trkpt lat="42.360014" lon="-4.927547">
        <ele>839.0</ele>
        <time>2021-08-18T06:48:51Z</time>
        <sat>8</sat>
      </trkpt>
      <trkpt lat="42.359992" lon="-4.927660">
        <ele>838.9</ele>
        <time>2021-08-18T06:48:58Z</time>
        <sat>8</sat>
      </trkpt>
      <trkpt lat="42.359964" lon="-4.927771">
        <ele>838.8</ele>
        <time>2021-08-18T06:49:05Z</time>
        <sat>8</sat>
      </trkpt>
      <trkpt lat="42.359944" lon="-4.927892">
        <ele>838.9</ele>
        <time>2021-08-18T06:49:12Z</time>
        <sat>8</sat>
      </trkpt>
      <trkpt lat="42.359922" lon="-4.927997">
        <ele>839.1</ele>
        <time>2021-08-18T06:49:18Z</time>
        <sat>8</sat>
      </trkpt>
      <trkpt lat="42.359910" lon="-4.928110">
        <ele>839.5</ele>
        <time>2021-08-18T06:49:24Z</time>
        <sat>8</sat>
      </trkpt>
      <trkpt lat="42.359879" lon="-4.928230">
        <ele>839.6</ele>
        <time>2021-08-18T06:49:31Z</time>
        <sat>8</sat>
      </trkpt>
      <trkpt lat="42.359867" lon="-4.928344">
        <ele>839.9</ele>
        <time>2021-08-18T06:49:51Z</time>
        <sat>8</sat>
      </trkpt>
      <trkpt lat="42.359838" lon="-4.928452">
        <ele>840.0</ele>
        <time>2021-08-18T06:49:57Z</time>
        <sat>8</sat>
      </trkpt>
      <trkpt lat="42.359804" lon="-4.928553">
        <ele>839.9</ele>
        <time>2021-08-18T06:50:03Z</time>
        <sat>7</sat>
      </trkpt>
      <trkpt lat="42.359774" lon="-4.928656">
        <ele>840.1</ele>
        <time>2021-08-18T06:50:09Z</time>
        <sat>8</sat>
      </trkpt>
      <trkpt lat="42.359740" lon="-4.928762">
        <ele>840.2</ele>
        <time>2021-08-18T06:50:16Z</time>
        <sat>8</sat>
      </trkpt>
      <trkpt lat="42.359713" lon="-4.928876">
        <ele>840.7</ele>
        <time>2021-08-18T06:50:25Z</time>
        <sat>8</sat>
      </trkpt>
      <trkpt lat="42.359677" lon="-4.928977">
        <ele>840.9</ele>
        <time>2021-08-18T06:50:48Z</time>
        <sat>8</sat>
      </trkpt>
      <trkpt lat="42.359619" lon="-4.929067">
        <ele>840.9</ele>
        <time>2021-08-18T06:50:54Z</time>
        <sat>8</sat>
      </trkpt>
      <trkpt lat="42.359550" lon="-4.929140">
        <ele>841.1</ele>
        <time>2021-08-18T06:51:02Z</time>
        <sat>8</sat>
      </trkpt>
      <trkpt lat="42.359489" lon="-4.929230">
        <ele>841.3</ele>
        <time>2021-08-18T06:51:08Z</time>
        <sat>8</sat>
      </trkpt>
      <trkpt lat="42.359427" lon="-4.929304">
        <ele>841.3</ele>
        <time>2021-08-18T06:51:14Z</time>
        <sat>8</sat>
      </trkpt>
      <trkpt lat="42.359356" lon="-4.929378">
        <ele>841.3</ele>
        <time>2021-08-18T06:51:20Z</time>
        <sat>8</sat>
      </trkpt>
      <trkpt lat="42.359297" lon="-4.929457">
        <ele>841.4</ele>
        <time>2021-08-18T06:51:26Z</time>
        <sat>8</sat>
      </trkpt>
      <trkpt lat="42.359234" lon="-4.929550">
        <ele>841.5</ele>
        <time>2021-08-18T06:51:32Z</time>
        <sat>8</sat>
      </trkpt>
      <trkpt lat="42.359171" lon="-4.929637">
        <ele>841.6</ele>
        <time>2021-08-18T06:51:38Z</time>
        <sat>8</sat>
      </trkpt>
      <trkpt lat="42.359101" lon="-4.929720">
        <ele>841.6</ele>
        <time>2021-08-18T06:51:44Z</time>
        <sat>8</sat>
      </trkpt>
      <trkpt lat="42.359055" lon="-4.929818">
        <ele>841.8</ele>
        <time>2021-08-18T06:51:50Z</time>
        <sat>7</sat>
      </trkpt>
      <trkpt lat="42.359012" lon="-4.929927">
        <ele>842.1</ele>
        <time>2021-08-18T06:51:57Z</time>
        <sat>8</sat>
      </trkpt>
      <trkpt lat="42.358970" lon="-4.930042">
        <ele>842.4</ele>
        <time>2021-08-18T06:52:06Z</time>
        <sat>8</sat>
      </trkpt>
      <trkpt lat="42.358936" lon="-4.930161">
        <ele>842.5</ele>
        <time>2021-08-18T06:52:12Z</time>
        <sat>8</sat>
      </trkpt>
      <trkpt lat="42.358904" lon="-4.930268">
        <ele>842.5</ele>
        <time>2021-08-18T06:52:18Z</time>
        <sat>8</sat>
      </trkpt>
      <trkpt lat="42.358863" lon="-4.930380">
        <ele>842.5</ele>
        <time>2021-08-18T06:52:24Z</time>
        <sat>8</sat>
      </trkpt>
      <trkpt lat="42.358839" lon="-4.930495">
        <ele>842.6</ele>
        <time>2021-08-18T06:52:30Z</time>
        <sat>8</sat>
      </trkpt>
      <trkpt lat="42.358806" lon="-4.930614">
        <ele>843.0</ele>
        <time>2021-08-18T06:52:37Z</time>
        <sat>8</sat>
      </trkpt>
      <trkpt lat="42.358774" lon="-4.930730">
        <ele>843.4</ele>
        <time>2021-08-18T06:52:44Z</time>
        <sat>8</sat>
      </trkpt>
      <trkpt lat="42.358758" lon="-4.930854">
        <ele>843.7</ele>
        <time>2021-08-18T06:52:51Z</time>
        <sat>8</sat>
      </trkpt>
      <trkpt lat="42.358734" lon="-4.930961">
        <ele>844.0</ele>
        <time>2021-08-18T06:52:57Z</time>
        <sat>8</sat>
      </trkpt>
      <trkpt lat="42.358733" lon="-4.931078">
        <ele>844.4</ele>
        <time>2021-08-18T06:53:03Z</time>
        <sat>8</sat>
      </trkpt>
      <trkpt lat="42.358726" lon="-4.931198">
        <ele>844.5</ele>
        <time>2021-08-18T06:53:09Z</time>
        <sat>8</sat>
      </trkpt>
      <trkpt lat="42.358738" lon="-4.931308">
        <ele>844.9</ele>
        <time>2021-08-18T06:53:15Z</time>
        <sat>8</sat>
      </trkpt>
      <trkpt lat="42.358752" lon="-4.931424">
        <ele>845.1</ele>
        <time>2021-08-18T06:53:21Z</time>
        <sat>8</sat>
      </trkpt>
      <trkpt lat="42.358775" lon="-4.931531">
        <ele>845.4</ele>
        <time>2021-08-18T06:53:27Z</time>
        <sat>8</sat>
      </trkpt>
      <trkpt lat="42.358801" lon="-4.931640">
        <ele>845.7</ele>
        <time>2021-08-18T06:53:33Z</time>
        <sat>8</sat>
      </trkpt>
      <trkpt lat="42.358828" lon="-4.931762">
        <ele>846.1</ele>
        <time>2021-08-18T06:53:40Z</time>
        <sat>8</sat>
      </trkpt>
      <trkpt lat="42.358855" lon="-4.931882">
        <ele>846.5</ele>
        <time>2021-08-18T06:53:47Z</time>
        <sat>8</sat>
      </trkpt>
      <trkpt lat="42.358875" lon="-4.931989">
        <ele>846.8</ele>
        <time>2021-08-18T06:53:53Z</time>
        <sat>8</sat>
      </trkpt>
      <trkpt lat="42.358902" lon="-4.932109">
        <ele>847.3</ele>
        <time>2021-08-18T06:54:00Z</time>
        <sat>8</sat>
      </trkpt>
      <trkpt lat="42.358926" lon="-4.932223">
        <ele>848.0</ele>
        <time>2021-08-18T06:54:07Z</time>
        <sat>8</sat>
      </trkpt>
      <trkpt lat="42.358946" lon="-4.932336">
        <ele>848.4</ele>
        <time>2021-08-18T06:54:14Z</time>
        <sat>8</sat>
      </trkpt>
      <trkpt lat="42.358973" lon="-4.932447">
        <ele>848.7</ele>
        <time>2021-08-18T06:54:21Z</time>
        <sat>8</sat>
      </trkpt>
      <trkpt lat="42.358992" lon="-4.932556">
        <ele>849.0</ele>
        <time>2021-08-18T06:54:28Z</time>
        <sat>8</sat>
      </trkpt>
      <trkpt lat="42.359016" lon="-4.932671">
        <ele>849.4</ele>
        <time>2021-08-18T06:54:35Z</time>
        <sat>8</sat>
      </trkpt>
      <trkpt lat="42.359045" lon="-4.932776">
        <ele>849.7</ele>
        <time>2021-08-18T06:54:41Z</time>
        <sat>8</sat>
      </trkpt>
      <trkpt lat="42.359077" lon="-4.932878">
        <ele>850.0</ele>
        <time>2021-08-18T06:54:47Z</time>
        <sat>8</sat>
      </trkpt>
      <trkpt lat="42.359104" lon="-4.933002">
        <ele>850.3</ele>
        <time>2021-08-18T06:54:54Z</time>
        <sat>8</sat>
      </trkpt>
      <trkpt lat="42.359142" lon="-4.933115">
        <ele>850.7</ele>
        <time>2021-08-18T06:55:01Z</time>
        <sat>8</sat>
      </trkpt>
      <trkpt lat="42.359168" lon="-4.933225">
        <ele>850.9</ele>
        <time>2021-08-18T06:55:07Z</time>
        <sat>8</sat>
      </trkpt>
      <trkpt lat="42.359206" lon="-4.933341">
        <ele>851.3</ele>
        <time>2021-08-18T06:55:14Z</time>
        <sat>8</sat>
      </trkpt>
      <trkpt lat="42.359231" lon="-4.933450">
        <ele>851.5</ele>
        <time>2021-08-18T06:55:20Z</time>
        <sat>8</sat>
      </trkpt>
      <trkpt lat="42.359261" lon="-4.933552">
        <ele>851.7</ele>
        <time>2021-08-18T06:55:26Z</time>
        <sat>8</sat>
      </trkpt>
      <trkpt lat="42.359290" lon="-4.933654">
        <ele>851.9</ele>
        <time>2021-08-18T06:55:32Z</time>
        <sat>9</sat>
      </trkpt>
      <trkpt lat="42.359318" lon="-4.933761">
        <ele>852.3</ele>
        <time>2021-08-18T06:55:38Z</time>
        <sat>9</sat>
      </trkpt>
      <trkpt lat="42.359350" lon="-4.933862">
        <ele>852.6</ele>
        <time>2021-08-18T06:55:44Z</time>
        <sat>9</sat>
      </trkpt>
      <trkpt lat="42.359378" lon="-4.933973">
        <ele>852.9</ele>
        <time>2021-08-18T06:55:50Z</time>
        <sat>8</sat>
      </trkpt>
      <trkpt lat="42.359412" lon="-4.934077">
        <ele>853.2</ele>
        <time>2021-08-18T06:55:56Z</time>
        <sat>9</sat>
      </trkpt>
      <trkpt lat="42.359434" lon="-4.934187">
        <ele>853.4</ele>
        <time>2021-08-18T06:56:02Z</time>
        <sat>9</sat>
      </trkpt>
      <trkpt lat="42.359468" lon="-4.934286">
        <ele>853.8</ele>
        <time>2021-08-18T06:56:08Z</time>
        <sat>9</sat>
      </trkpt>
      <trkpt lat="42.359485" lon="-4.934411">
        <ele>854.0</ele>
        <time>2021-08-18T06:56:15Z</time>
        <sat>8</sat>
      </trkpt>
      <trkpt lat="42.359511" lon="-4.934532">
        <ele>854.2</ele>
        <time>2021-08-18T06:56:22Z</time>
        <sat>9</sat>
      </trkpt>
      <trkpt lat="42.359521" lon="-4.934656">
        <ele>854.4</ele>
        <time>2021-08-18T06:56:29Z</time>
        <sat>9</sat>
      </trkpt>
      <trkpt lat="42.359538" lon="-4.934774">
        <ele>854.5</ele>
        <time>2021-08-18T06:56:36Z</time>
        <sat>9</sat>
      </trkpt>
      <trkpt lat="42.359549" lon="-4.934892">
        <ele>854.4</ele>
        <time>2021-08-18T06:56:43Z</time>
        <sat>9</sat>
      </trkpt>
      <trkpt lat="42.359562" lon="-4.935013">
        <ele>854.4</ele>
        <time>2021-08-18T06:56:50Z</time>
        <sat>9</sat>
      </trkpt>
      <trkpt lat="42.359579" lon="-4.935132">
        <ele>854.5</ele>
        <time>2021-08-18T06:56:57Z</time>
        <sat>9</sat>
      </trkpt>
      <trkpt lat="42.359587" lon="-4.935252">
        <ele>854.7</ele>
        <time>2021-08-18T06:57:04Z</time>
        <sat>9</sat>
      </trkpt>
      <trkpt lat="42.359604" lon="-4.935373">
        <ele>854.9</ele>
        <time>2021-08-18T06:57:11Z</time>
        <sat>9</sat>
      </trkpt>
      <trkpt lat="42.359608" lon="-4.935483">
        <ele>855.1</ele>
        <time>2021-08-18T06:57:17Z</time>
        <sat>9</sat>
      </trkpt>
      <trkpt lat="42.359627" lon="-4.935607">
        <ele>855.4</ele>
        <time>2021-08-18T06:57:24Z</time>
        <sat>9</sat>
      </trkpt>
      <trkpt lat="42.359625" lon="-4.935719">
        <ele>855.4</ele>
        <time>2021-08-18T06:57:30Z</time>
        <sat>9</sat>
      </trkpt>
      <trkpt lat="42.359641" lon="-4.935845">
        <ele>855.6</ele>
        <time>2021-08-18T06:57:37Z</time>
        <sat>9</sat>
      </trkpt>
      <trkpt lat="42.359645" lon="-4.935955">
        <ele>855.7</ele>
        <time>2021-08-18T06:57:43Z</time>
        <sat>9</sat>
      </trkpt>
      <trkpt lat="42.359649" lon="-4.936066">
        <ele>855.6</ele>
        <time>2021-08-18T06:57:49Z</time>
        <sat>9</sat>
      </trkpt>
      <trkpt lat="42.359661" lon="-4.936190">
        <ele>855.7</ele>
        <time>2021-08-18T06:57:56Z</time>
        <sat>9</sat>
      </trkpt>
      <trkpt lat="42.359660" lon="-4.936306">
        <ele>855.7</ele>
        <time>2021-08-18T06:58:02Z</time>
        <sat>9</sat>
      </trkpt>
      <trkpt lat="42.359672" lon="-4.936430">
        <ele>855.8</ele>
        <time>2021-08-18T06:58:09Z</time>
        <sat>9</sat>
      </trkpt>
      <trkpt lat="42.359673" lon="-4.936541">
        <ele>856.1</ele>
        <time>2021-08-18T06:58:15Z</time>
        <sat>9</sat>
      </trkpt>
      <trkpt lat="42.359681" lon="-4.936651">
        <ele>856.3</ele>
        <time>2021-08-18T06:58:21Z</time>
        <sat>9</sat>
      </trkpt>
      <trkpt lat="42.359693" lon="-4.936779">
        <ele>856.6</ele>
        <time>2021-08-18T06:58:28Z</time>
        <sat>9</sat>
      </trkpt>
      <trkpt lat="42.359693" lon="-4.936891">
        <ele>856.7</ele>
        <time>2021-08-18T06:58:34Z</time>
        <sat>9</sat>
      </trkpt>
      <trkpt lat="42.359714" lon="-4.936999">
        <ele>856.8</ele>
        <time>2021-08-18T06:58:40Z</time>
        <sat>9</sat>
      </trkpt>
      <trkpt lat="42.359731" lon="-4.937123">
        <ele>857.0</ele>
        <time>2021-08-18T06:58:47Z</time>
        <sat>9</sat>
      </trkpt>
      <trkpt lat="42.359743" lon="-4.937234">
        <ele>857.2</ele>
        <time>2021-08-18T06:58:53Z</time>
        <sat>9</sat>
      </trkpt>
      <trkpt lat="42.359759" lon="-4.937342">
        <ele>857.4</ele>
        <time>2021-08-18T06:58:59Z</time>
        <sat>9</sat>
      </trkpt>
      <trkpt lat="42.359757" lon="-4.937457">
        <ele>857.5</ele>
        <time>2021-08-18T06:59:05Z</time>
        <sat>9</sat>
      </trkpt>
      <trkpt lat="42.359750" lon="-4.937568">
        <ele>857.6</ele>
        <time>2021-08-18T06:59:11Z</time>
        <sat>9</sat>
      </trkpt>
      <trkpt lat="42.359735" lon="-4.937695">
        <ele>857.7</ele>
        <time>2021-08-18T06:59:18Z</time>
        <sat>9</sat>
      </trkpt>
      <trkpt lat="42.359709" lon="-4.937801">
        <ele>857.7</ele>
        <time>2021-08-18T06:59:24Z</time>
        <sat>9</sat>
      </trkpt>
      <trkpt lat="42.359694" lon="-4.937925">
        <ele>858.0</ele>
        <time>2021-08-18T06:59:31Z</time>
        <sat>9</sat>
      </trkpt>
      <trkpt lat="42.359668" lon="-4.938031">
        <ele>858.1</ele>
        <time>2021-08-18T06:59:37Z</time>
        <sat>9</sat>
      </trkpt>
      <trkpt lat="42.359650" lon="-4.938156">
        <ele>858.1</ele>
        <time>2021-08-18T06:59:44Z</time>
        <sat>9</sat>
      </trkpt>
      <trkpt lat="42.359627" lon="-4.938260">
        <ele>858.2</ele>
        <time>2021-08-18T06:59:50Z</time>
        <sat>9</sat>
      </trkpt>
      <trkpt lat="42.359602" lon="-4.938368">
        <ele>858.4</ele>
        <time>2021-08-18T06:59:56Z</time>
        <sat>9</sat>
      </trkpt>
      <trkpt lat="42.359590" lon="-4.938480">
        <ele>858.5</ele>
        <time>2021-08-18T07:00:02Z</time>
        <sat>9</sat>
      </trkpt>
      <trkpt lat="42.359560" lon="-4.938585">
        <ele>858.8</ele>
        <time>2021-08-18T07:00:08Z</time>
        <sat>9</sat>
      </trkpt>
      <trkpt lat="42.359535" lon="-4.938691">
        <ele>858.9</ele>
        <time>2021-08-18T07:00:14Z</time>
        <sat>9</sat>
      </trkpt>
      <trkpt lat="42.359518" lon="-4.938801">
        <ele>859.1</ele>
        <time>2021-08-18T07:00:20Z</time>
        <sat>9</sat>
      </trkpt>
      <trkpt lat="42.359491" lon="-4.938908">
        <ele>859.3</ele>
        <time>2021-08-18T07:00:26Z</time>
        <sat>9</sat>
      </trkpt>
      <trkpt lat="42.359470" lon="-4.939017">
        <ele>859.6</ele>
        <time>2021-08-18T07:00:32Z</time>
        <sat>9</sat>
      </trkpt>
      <trkpt lat="42.359449" lon="-4.939124">
        <ele>859.9</ele>
        <time>2021-08-18T07:00:38Z</time>
        <sat>9</sat>
      </trkpt>
      <trkpt lat="42.359423" lon="-4.939233">
        <ele>860.2</ele>
        <time>2021-08-18T07:00:44Z</time>
        <sat>9</sat>
      </trkpt>
      <trkpt lat="42.359412" lon="-4.939346">
        <ele>860.8</ele>
        <time>2021-08-18T07:00:50Z</time>
        <sat>9</sat>
      </trkpt>
      <trkpt lat="42.359389" lon="-4.939458">
        <ele>861.3</ele>
        <time>2021-08-18T07:00:56Z</time>
        <sat>9</sat>
      </trkpt>
      <trkpt lat="42.359386" lon="-4.939571">
        <ele>861.8</ele>
        <time>2021-08-18T07:01:02Z</time>
        <sat>9</sat>
      </trkpt>
      <trkpt lat="42.359377" lon="-4.939681">
        <ele>862.4</ele>
        <time>2021-08-18T07:01:08Z</time>
        <sat>9</sat>
      </trkpt>
      <trkpt lat="42.359368" lon="-4.939798">
        <ele>862.7</ele>
        <time>2021-08-18T07:01:14Z</time>
        <sat>9</sat>
      </trkpt>
      <trkpt lat="42.359371" lon="-4.939909">
        <ele>862.8</ele>
        <time>2021-08-18T07:01:20Z</time>
        <sat>9</sat>
      </trkpt>
      <trkpt lat="42.359365" lon="-4.940023">
        <ele>862.8</ele>
        <time>2021-08-18T07:01:26Z</time>
        <sat>9</sat>
      </trkpt>
      <trkpt lat="42.359369" lon="-4.940150">
        <ele>862.6</ele>
        <time>2021-08-18T07:01:33Z</time>
        <sat>9</sat>
      </trkpt>
      <trkpt lat="42.359375" lon="-4.940277">
        <ele>862.4</ele>
        <time>2021-08-18T07:01:40Z</time>
        <sat>9</sat>
      </trkpt>
      <trkpt lat="42.359402" lon="-4.940399">
        <ele>862.4</ele>
        <time>2021-08-18T07:01:47Z</time>
        <sat>8</sat>
      </trkpt>
      <trkpt lat="42.359425" lon="-4.940524">
        <ele>862.4</ele>
        <time>2021-08-18T07:01:54Z</time>
        <sat>9</sat>
      </trkpt>
      <trkpt lat="42.359439" lon="-4.940635">
        <ele>862.3</ele>
        <time>2021-08-18T07:02:00Z</time>
        <sat>9</sat>
      </trkpt>
      <trkpt lat="42.359471" lon="-4.940753">
        <ele>862.4</ele>
        <time>2021-08-18T07:02:07Z</time>
        <sat>9</sat>
      </trkpt>
      <trkpt lat="42.359486" lon="-4.940863">
        <ele>862.3</ele>
        <time>2021-08-18T07:02:13Z</time>
        <sat>9</sat>
      </trkpt>
      <trkpt lat="42.359513" lon="-4.940974">
        <ele>862.1</ele>
        <time>2021-08-18T07:02:19Z</time>
        <sat>9</sat>
      </trkpt>
      <trkpt lat="42.359537" lon="-4.941093">
        <ele>861.8</ele>
        <time>2021-08-18T07:02:26Z</time>
        <sat>9</sat>
      </trkpt>
      <trkpt lat="42.359542" lon="-4.941218">
        <ele>861.4</ele>
        <time>2021-08-18T07:02:33Z</time>
        <sat>9</sat>
      </trkpt>
      <trkpt lat="42.359551" lon="-4.941327">
        <ele>861.0</ele>
        <time>2021-08-18T07:02:39Z</time>
        <sat>9</sat>
      </trkpt>
      <trkpt lat="42.359532" lon="-4.941447">
        <ele>860.5</ele>
        <time>2021-08-18T07:02:46Z</time>
        <sat>9</sat>
      </trkpt>
      <trkpt lat="42.359518" lon="-4.941556">
        <ele>860.0</ele>
        <time>2021-08-18T07:02:52Z</time>
        <sat>9</sat>
      </trkpt>
      <trkpt lat="42.359493" lon="-4.941669">
        <ele>859.3</ele>
        <time>2021-08-18T07:02:59Z</time>
        <sat>9</sat>
      </trkpt>
      <trkpt lat="42.359458" lon="-4.941781">
        <ele>858.6</ele>
        <time>2021-08-18T07:03:06Z</time>
        <sat>9</sat>
      </trkpt>
      <trkpt lat="42.359415" lon="-4.941891">
        <ele>857.8</ele>
        <time>2021-08-18T07:03:13Z</time>
        <sat>9</sat>
      </trkpt>
      <trkpt lat="42.359376" lon="-4.942002">
        <ele>857.1</ele>
        <time>2021-08-18T07:03:20Z</time>
        <sat>9</sat>
      </trkpt>
      <trkpt lat="42.359353" lon="-4.942121">
        <ele>856.6</ele>
        <time>2021-08-18T07:03:27Z</time>
        <sat>9</sat>
      </trkpt>
      <trkpt lat="42.359333" lon="-4.942229">
        <ele>856.3</ele>
        <time>2021-08-18T07:03:33Z</time>
        <sat>9</sat>
      </trkpt>
      <trkpt lat="42.359329" lon="-4.942345">
        <ele>856.1</ele>
        <time>2021-08-18T07:03:39Z</time>
        <sat>9</sat>
      </trkpt>
      <trkpt lat="42.359325" lon="-4.942461">
        <ele>856.0</ele>
        <time>2021-08-18T07:03:45Z</time>
        <sat>9</sat>
      </trkpt>
      <trkpt lat="42.359312" lon="-4.942579">
        <ele>855.6</ele>
        <time>2021-08-18T07:03:51Z</time>
        <sat>9</sat>
      </trkpt>
      <trkpt lat="42.359312" lon="-4.942693">
        <ele>855.4</ele>
        <time>2021-08-18T07:03:57Z</time>
        <sat>9</sat>
      </trkpt>
      <trkpt lat="42.359310" lon="-4.942805">
        <ele>855.4</ele>
        <time>2021-08-18T07:04:03Z</time>
        <sat>9</sat>
      </trkpt>
      <trkpt lat="42.359298" lon="-4.942917">
        <ele>855.4</ele>
        <time>2021-08-18T07:04:09Z</time>
        <sat>9</sat>
      </trkpt>
      <trkpt lat="42.359302" lon="-4.943040">
        <ele>855.4</ele>
        <time>2021-08-18T07:04:16Z</time>
        <sat>9</sat>
      </trkpt>
      <trkpt lat="42.359291" lon="-4.943156">
        <ele>855.3</ele>
        <time>2021-08-18T07:04:22Z</time>
        <sat>8</sat>
      </trkpt>
      <trkpt lat="42.359282" lon="-4.943265">
        <ele>855.3</ele>
        <time>2021-08-18T07:04:28Z</time>
        <sat>9</sat>
      </trkpt>
      <trkpt lat="42.359279" lon="-4.943376">
        <ele>855.4</ele>
        <time>2021-08-18T07:04:34Z</time>
        <sat>9</sat>
      </trkpt>
      <trkpt lat="42.359259" lon="-4.943486">
        <ele>855.3</ele>
        <time>2021-08-18T07:04:40Z</time>
        <sat>9</sat>
      </trkpt>
      <trkpt lat="42.359241" lon="-4.943593">
        <ele>855.3</ele>
        <time>2021-08-18T07:04:46Z</time>
        <sat>9</sat>
      </trkpt>
      <trkpt lat="42.359219" lon="-4.943712">
        <ele>855.4</ele>
        <time>2021-08-18T07:04:53Z</time>
        <sat>9</sat>
      </trkpt>
      <trkpt lat="42.359195" lon="-4.943818">
        <ele>855.5</ele>
        <time>2021-08-18T07:04:59Z</time>
        <sat>9</sat>
      </trkpt>
      <trkpt lat="42.359181" lon="-4.943940">
        <ele>855.4</ele>
        <time>2021-08-18T07:05:06Z</time>
        <sat>9</sat>
      </trkpt>
      <trkpt lat="42.359158" lon="-4.944057">
        <ele>855.2</ele>
        <time>2021-08-18T07:05:13Z</time>
        <sat>8</sat>
      </trkpt>
      <trkpt lat="42.359143" lon="-4.944169">
        <ele>855.2</ele>
        <time>2021-08-18T07:05:19Z</time>
        <sat>9</sat>
      </trkpt>
      <trkpt lat="42.359136" lon="-4.944293">
        <ele>855.0</ele>
        <time>2021-08-18T07:05:26Z</time>
        <sat>9</sat>
      </trkpt>
      <trkpt lat="42.359122" lon="-4.944402">
        <ele>854.9</ele>
        <time>2021-08-18T07:05:32Z</time>
        <sat>9</sat>
      </trkpt>
      <trkpt lat="42.359124" lon="-4.944530">
        <ele>854.7</ele>
        <time>2021-08-18T07:05:39Z</time>
        <sat>8</sat>
      </trkpt>
      <trkpt lat="42.359118" lon="-4.944658">
        <ele>854.5</ele>
        <time>2021-08-18T07:05:46Z</time>
        <sat>9</sat>
      </trkpt>
      <trkpt lat="42.359123" lon="-4.944775">
        <ele>854.5</ele>
        <time>2021-08-18T07:05:52Z</time>
        <sat>9</sat>
      </trkpt>
      <trkpt lat="42.359131" lon="-4.944889">
        <ele>854.4</ele>
        <time>2021-08-18T07:05:58Z</time>
        <sat>9</sat>
      </trkpt>
      <trkpt lat="42.359128" lon="-4.945002">
        <ele>854.1</ele>
        <time>2021-08-18T07:06:04Z</time>
        <sat>8</sat>
      </trkpt>
      <trkpt lat="42.359126" lon="-4.945116">
        <ele>853.7</ele>
        <time>2021-08-18T07:06:10Z</time>
        <sat>9</sat>
      </trkpt>
      <trkpt lat="42.359131" lon="-4.945229">
        <ele>853.4</ele>
        <time>2021-08-18T07:06:16Z</time>
        <sat>9</sat>
      </trkpt>
      <trkpt lat="42.359131" lon="-4.945340">
        <ele>853.2</ele>
        <time>2021-08-18T07:06:22Z</time>
        <sat>9</sat>
      </trkpt>
      <trkpt lat="42.359133" lon="-4.945459">
        <ele>853.0</ele>
        <time>2021-08-18T07:06:28Z</time>
        <sat>9</sat>
      </trkpt>
      <trkpt lat="42.359162" lon="-4.945569">
        <ele>852.9</ele>
        <time>2021-08-18T07:06:34Z</time>
        <sat>9</sat>
      </trkpt>
      <trkpt lat="42.359197" lon="-4.945672">
        <ele>852.9</ele>
        <time>2021-08-18T07:06:40Z</time>
        <sat>9</sat>
      </trkpt>
      <trkpt lat="42.359234" lon="-4.945779">
        <ele>852.8</ele>
        <time>2021-08-18T07:06:46Z</time>
        <sat>9</sat>
      </trkpt>
      <trkpt lat="42.359293" lon="-4.945870">
        <ele>852.6</ele>
        <time>2021-08-18T07:06:54Z</time>
        <sat>9</sat>
      </trkpt>
      <trkpt lat="42.359361" lon="-4.945940">
        <ele>852.8</ele>
        <time>2021-08-18T07:07:00Z</time>
        <sat>9</sat>
      </trkpt>
      <trkpt lat="42.359428" lon="-4.946013">
        <ele>852.9</ele>
        <time>2021-08-18T07:07:06Z</time>
        <sat>9</sat>
      </trkpt>
      <trkpt lat="42.359501" lon="-4.946078">
        <ele>853.1</ele>
        <time>2021-08-18T07:07:12Z</time>
        <sat>8</sat>
      </trkpt>
      <trkpt lat="42.359576" lon="-4.946125">
        <ele>853.2</ele>
        <time>2021-08-18T07:07:18Z</time>
        <sat>9</sat>
      </trkpt>
      <trkpt lat="42.359650" lon="-4.946190">
        <ele>853.3</ele>
        <time>2021-08-18T07:07:24Z</time>
        <sat>9</sat>
      </trkpt>
      <trkpt lat="42.359726" lon="-4.946247">
        <ele>851.9</ele>
        <time>2021-08-18T07:07:30Z</time>
        <sat>9</sat>
      </trkpt>
      <trkpt lat="42.359816" lon="-4.946278">
        <ele>853.4</ele>
        <time>2021-08-18T07:07:36Z</time>
        <sat>9</sat>
      </trkpt>
      <trkpt lat="42.359898" lon="-4.946324">
        <ele>853.9</ele>
        <time>2021-08-18T07:07:43Z</time>
        <sat>9</sat>
      </trkpt>
      <trkpt lat="42.359971" lon="-4.946378">
        <ele>854.2</ele>
        <time>2021-08-18T07:07:49Z</time>
        <sat>8</sat>
      </trkpt>
      <trkpt lat="42.360055" lon="-4.946426">
        <ele>854.7</ele>
        <time>2021-08-18T07:07:55Z</time>
        <sat>8</sat>
      </trkpt>
      <trkpt lat="42.360124" lon="-4.946487">
        <ele>855.2</ele>
        <time>2021-08-18T07:08:01Z</time>
        <sat>9</sat>
      </trkpt>
      <trkpt lat="42.360190" lon="-4.946551">
        <ele>854.7</ele>
        <time>2021-08-18T07:08:07Z</time>
        <sat>9</sat>
      </trkpt>
      <trkpt lat="42.360265" lon="-4.946592">
        <ele>854.6</ele>
        <time>2021-08-18T07:08:13Z</time>
        <sat>9</sat>
      </trkpt>
      <trkpt lat="42.360337" lon="-4.946645">
        <ele>854.1</ele>
        <time>2021-08-18T07:08:19Z</time>
        <sat>9</sat>
      </trkpt>
      <trkpt lat="42.360418" lon="-4.946676">
        <ele>853.7</ele>
        <time>2021-08-18T07:08:30Z</time>
        <sat>9</sat>
      </trkpt>
      <trkpt lat="42.360494" lon="-4.946720">
        <ele>853.5</ele>
        <time>2021-08-18T07:08:36Z</time>
        <sat>9</sat>
      </trkpt>
      <trkpt lat="42.360576" lon="-4.946736">
        <ele>852.8</ele>
        <time>2021-08-18T07:08:42Z</time>
        <sat>9</sat>
      </trkpt>
      <trkpt lat="42.360658" lon="-4.946753">
        <ele>852.0</ele>
        <time>2021-08-18T07:08:48Z</time>
        <sat>9</sat>
      </trkpt>
      <trkpt lat="42.360739" lon="-4.946779">
        <ele>851.8</ele>
        <time>2021-08-18T07:08:54Z</time>
        <sat>9</sat>
      </trkpt>
      <trkpt lat="42.360821" lon="-4.946789">
        <ele>851.8</ele>
        <time>2021-08-18T07:09:00Z</time>
        <sat>9</sat>
      </trkpt>
      <trkpt lat="42.360901" lon="-4.946810">
        <ele>851.6</ele>
        <time>2021-08-18T07:09:06Z</time>
        <sat>9</sat>
      </trkpt>
      <trkpt lat="42.360981" lon="-4.946836">
        <ele>851.5</ele>
        <time>2021-08-18T07:09:12Z</time>
        <sat>9</sat>
      </trkpt>
      <trkpt lat="42.361064" lon="-4.946852">
        <ele>851.4</ele>
        <time>2021-08-18T07:09:18Z</time>
        <sat>9</sat>
      </trkpt>
      <trkpt lat="42.361144" lon="-4.946875">
        <ele>851.2</ele>
        <time>2021-08-18T07:09:24Z</time>
        <sat>9</sat>
      </trkpt>
      <trkpt lat="42.361224" lon="-4.946910">
        <ele>850.6</ele>
        <time>2021-08-18T07:09:30Z</time>
        <sat>9</sat>
      </trkpt>
      <trkpt lat="42.361305" lon="-4.946942">
        <ele>850.1</ele>
        <time>2021-08-18T07:09:36Z</time>
        <sat>8</sat>
      </trkpt>
      <trkpt lat="42.361393" lon="-4.946979">
        <ele>849.6</ele>
        <time>2021-08-18T07:09:43Z</time>
        <sat>9</sat>
      </trkpt>
      <trkpt lat="42.361478" lon="-4.947029">
        <ele>849.2</ele>
        <time>2021-08-18T07:09:50Z</time>
        <sat>9</sat>
      </trkpt>
      <trkpt lat="42.361560" lon="-4.947075">
        <ele>849.0</ele>
        <time>2021-08-18T07:09:57Z</time>
        <sat>9</sat>
      </trkpt>
      <trkpt lat="42.361644" lon="-4.947128">
        <ele>847.9</ele>
        <time>2021-08-18T07:10:04Z</time>
        <sat>8</sat>
      </trkpt>
      <trkpt lat="42.361723" lon="-4.947165">
        <ele>847.4</ele>
        <time>2021-08-18T07:10:10Z</time>
        <sat>9</sat>
      </trkpt>
      <trkpt lat="42.361806" lon="-4.947219">
        <ele>846.8</ele>
        <time>2021-08-18T07:10:17Z</time>
        <sat>9</sat>
      </trkpt>
      <trkpt lat="42.361893" lon="-4.947269">
        <ele>846.3</ele>
        <time>2021-08-18T07:10:24Z</time>
        <sat>9</sat>
      </trkpt>
      <trkpt lat="42.361974" lon="-4.947318">
        <ele>845.8</ele>
        <time>2021-08-18T07:10:31Z</time>
        <sat>9</sat>
      </trkpt>
      <trkpt lat="42.362051" lon="-4.947369">
        <ele>845.3</ele>
        <time>2021-08-18T07:10:41Z</time>
        <sat>9</sat>
      </trkpt>
      <trkpt lat="42.362130" lon="-4.947413">
        <ele>845.1</ele>
        <time>2021-08-18T07:10:47Z</time>
        <sat>9</sat>
      </trkpt>
      <trkpt lat="42.362206" lon="-4.947469">
        <ele>844.8</ele>
        <time>2021-08-18T07:10:53Z</time>
        <sat>9</sat>
      </trkpt>
      <trkpt lat="42.362287" lon="-4.947507">
        <ele>844.6</ele>
        <time>2021-08-18T07:10:59Z</time>
        <sat>9</sat>
      </trkpt>
      <trkpt lat="42.362371" lon="-4.947553">
        <ele>844.4</ele>
        <time>2021-08-18T07:11:06Z</time>
        <sat>8</sat>
      </trkpt>
      <trkpt lat="42.362447" lon="-4.947595">
        <ele>844.4</ele>
        <time>2021-08-18T07:11:12Z</time>
        <sat>9</sat>
      </trkpt>
      <trkpt lat="42.362527" lon="-4.947631">
        <ele>844.3</ele>
        <time>2021-08-18T07:11:18Z</time>
        <sat>9</sat>
      </trkpt>
      <trkpt lat="42.362613" lon="-4.947680">
        <ele>844.1</ele>
        <time>2021-08-18T07:11:25Z</time>
        <sat>9</sat>
      </trkpt>
      <trkpt lat="42.362692" lon="-4.947712">
        <ele>844.1</ele>
        <time>2021-08-18T07:11:31Z</time>
        <sat>9</sat>
      </trkpt>
      <trkpt lat="42.362773" lon="-4.947742">
        <ele>844.1</ele>
        <time>2021-08-18T07:11:37Z</time>
        <sat>9</sat>
      </trkpt>
      <trkpt lat="42.362862" lon="-4.947779">
        <ele>843.9</ele>
        <time>2021-08-18T07:11:44Z</time>
        <sat>8</sat>
      </trkpt>
      <trkpt lat="42.362940" lon="-4.947810">
        <ele>843.6</ele>
        <time>2021-08-18T07:11:50Z</time>
        <sat>8</sat>
      </trkpt>
      <trkpt lat="42.363021" lon="-4.947835">
        <ele>843.4</ele>
        <time>2021-08-18T07:11:56Z</time>
        <sat>8</sat>
      </trkpt>
      <trkpt lat="42.363107" lon="-4.947881">
        <ele>842.9</ele>
        <time>2021-08-18T07:12:03Z</time>
        <sat>8</sat>
      </trkpt>
      <trkpt lat="42.363189" lon="-4.947945">
        <ele>842.2</ele>
        <time>2021-08-18T07:12:10Z</time>
        <sat>8</sat>
      </trkpt>
      <trkpt lat="42.363264" lon="-4.948002">
        <ele>841.5</ele>
        <time>2021-08-18T07:12:16Z</time>
        <sat>8</sat>
      </trkpt>
      <trkpt lat="42.363329" lon="-4.948091">
        <ele>840.7</ele>
        <time>2021-08-18T07:12:23Z</time>
        <sat>8</sat>
      </trkpt>
      <trkpt lat="42.363401" lon="-4.948169">
        <ele>840.2</ele>
        <time>2021-08-18T07:12:30Z</time>
        <sat>8</sat>
      </trkpt>
      <trkpt lat="42.363467" lon="-4.948254">
        <ele>839.7</ele>
        <time>2021-08-18T07:12:37Z</time>
        <sat>8</sat>
      </trkpt>
      <trkpt lat="42.363525" lon="-4.948330">
        <ele>839.3</ele>
        <time>2021-08-18T07:12:43Z</time>
        <sat>8</sat>
      </trkpt>
      <trkpt lat="42.363600" lon="-4.948407">
        <ele>839.0</ele>
        <time>2021-08-18T07:12:50Z</time>
        <sat>8</sat>
      </trkpt>
      <trkpt lat="42.363659" lon="-4.948489">
        <ele>838.5</ele>
        <time>2021-08-18T07:12:56Z</time>
        <sat>8</sat>
      </trkpt>
      <trkpt lat="42.363724" lon="-4.948560">
        <ele>838.0</ele>
        <time>2021-08-18T07:13:02Z</time>
        <sat>8</sat>
      </trkpt>
      <trkpt lat="42.363791" lon="-4.948622">
        <ele>837.5</ele>
        <time>2021-08-18T07:13:08Z</time>
        <sat>8</sat>
      </trkpt>
      <trkpt lat="42.363850" lon="-4.948699">
        <ele>837.1</ele>
        <time>2021-08-18T07:13:14Z</time>
        <sat>8</sat>
      </trkpt>
      <trkpt lat="42.363920" lon="-4.948766">
        <ele>836.5</ele>
        <time>2021-08-18T07:13:20Z</time>
        <sat>8</sat>
      </trkpt>
      <trkpt lat="42.363995" lon="-4.948845">
        <ele>835.8</ele>
        <time>2021-08-18T07:13:27Z</time>
        <sat>8</sat>
      </trkpt>
      <trkpt lat="42.364058" lon="-4.948922">
        <ele>835.4</ele>
        <time>2021-08-18T07:13:33Z</time>
        <sat>8</sat>
      </trkpt>
      <trkpt lat="42.364133" lon="-4.948983">
        <ele>835.0</ele>
        <time>2021-08-18T07:13:39Z</time>
        <sat>8</sat>
      </trkpt>
      <trkpt lat="42.364197" lon="-4.949052">
        <ele>834.8</ele>
        <time>2021-08-18T07:13:45Z</time>
        <sat>8</sat>
      </trkpt>
      <trkpt lat="42.364238" lon="-4.949150">
        <ele>834.4</ele>
        <time>2021-08-18T07:13:51Z</time>
        <sat>8</sat>
      </trkpt>
      <trkpt lat="42.364259" lon="-4.949271">
        <ele>834.2</ele>
        <time>2021-08-18T07:13:58Z</time>
        <sat>8</sat>
      </trkpt>
      <trkpt lat="42.364249" lon="-4.949381">
        <ele>834.3</ele>
        <time>2021-08-18T07:14:04Z</time>
        <sat>8</sat>
      </trkpt>
      <trkpt lat="42.364242" lon="-4.949505">
        <ele>834.4</ele>
        <time>2021-08-18T07:14:11Z</time>
        <sat>8</sat>
      </trkpt>
      <trkpt lat="42.364233" lon="-4.949633">
        <ele>834.5</ele>
        <time>2021-08-18T07:14:18Z</time>
        <sat>8</sat>
      </trkpt>
      <trkpt lat="42.364230" lon="-4.949754">
        <ele>834.5</ele>
        <time>2021-08-18T07:14:24Z</time>
        <sat>8</sat>
      </trkpt>
      <trkpt lat="42.364252" lon="-4.949864">
        <ele>834.5</ele>
        <time>2021-08-18T07:14:30Z</time>
        <sat>8</sat>
      </trkpt>
      <trkpt lat="42.364264" lon="-4.949977">
        <ele>834.5</ele>
        <time>2021-08-18T07:14:36Z</time>
        <sat>8</sat>
      </trkpt>
      <trkpt lat="42.364275" lon="-4.950086">
        <ele>834.4</ele>
        <time>2021-08-18T07:14:42Z</time>
        <sat>8</sat>
      </trkpt>
      <trkpt lat="42.364299" lon="-4.950208">
        <ele>834.4</ele>
        <time>2021-08-18T07:14:49Z</time>
        <sat>8</sat>
      </trkpt>
      <trkpt lat="42.364290" lon="-4.950324">
        <ele>834.2</ele>
        <time>2021-08-18T07:14:55Z</time>
        <sat>8</sat>
      </trkpt>
      <trkpt lat="42.364287" lon="-4.950450">
        <ele>834.3</ele>
        <time>2021-08-18T07:15:02Z</time>
        <sat>8</sat>
      </trkpt>
      <trkpt lat="42.364276" lon="-4.950560">
        <ele>834.3</ele>
        <time>2021-08-18T07:15:08Z</time>
        <sat>8</sat>
      </trkpt>
      <trkpt lat="42.364262" lon="-4.950682">
        <ele>834.2</ele>
        <time>2021-08-18T07:15:15Z</time>
        <sat>8</sat>
      </trkpt>
      <trkpt lat="42.364248" lon="-4.950802">
        <ele>834.1</ele>
        <time>2021-08-18T07:15:22Z</time>
        <sat>8</sat>
      </trkpt>
      <trkpt lat="42.364247" lon="-4.950919">
        <ele>833.9</ele>
        <time>2021-08-18T07:15:30Z</time>
        <sat>8</sat>
      </trkpt>
      <trkpt lat="42.364264" lon="-4.951028">
        <ele>834.4</ele>
        <time>2021-08-18T07:17:47Z</time>
        <sat>8</sat>
      </trkpt>
      <trkpt lat="42.364227" lon="-4.951142">
        <ele>834.5</ele>
        <time>2021-08-18T07:17:56Z</time>
        <sat>8</sat>
      </trkpt>
      <trkpt lat="42.364158" lon="-4.951207">
        <ele>834.5</ele>
        <time>2021-08-18T07:18:03Z</time>
        <sat>8</sat>
      </trkpt>
      <trkpt lat="42.364072" lon="-4.951247">
        <ele>834.3</ele>
        <time>2021-08-18T07:18:12Z</time>
        <sat>8</sat>
      </trkpt>
      <trkpt lat="42.363999" lon="-4.951296">
        <ele>834.2</ele>
        <time>2021-08-18T07:18:18Z</time>
        <sat>8</sat>
      </trkpt>
      <trkpt lat="42.363931" lon="-4.951369">
        <ele>834.2</ele>
        <time>2021-08-18T07:18:25Z</time>
        <sat>8</sat>
      </trkpt>
      <trkpt lat="42.363875" lon="-4.951449">
        <ele>834.2</ele>
        <time>2021-08-18T07:18:32Z</time>
        <sat>8</sat>
      </trkpt>
      <trkpt lat="42.363810" lon="-4.951538">
        <ele>834.0</ele>
        <time>2021-08-18T07:18:47Z</time>
        <sat>8</sat>
      </trkpt>
      <trkpt lat="42.363739" lon="-4.951600">
        <ele>833.9</ele>
        <time>2021-08-18T07:19:00Z</time>
        <sat>8</sat>
      </trkpt>
      <trkpt lat="42.363666" lon="-4.951660">
        <ele>833.6</ele>
        <time>2021-08-18T07:19:13Z</time>
        <sat>8</sat>
      </trkpt>
      <trkpt lat="42.363663" lon="-4.951774">
        <ele>833.8</ele>
        <time>2021-08-18T07:20:09Z</time>
        <sat>8</sat>
      </trkpt>
      <trkpt lat="42.363624" lon="-4.951872">
        <ele>833.8</ele>
        <time>2021-08-18T07:20:16Z</time>
        <sat>8</sat>
      </trkpt>
      <trkpt lat="42.363570" lon="-4.951964">
        <ele>833.7</ele>
        <time>2021-08-18T07:20:25Z</time>
        <sat>8</sat>
      </trkpt>
      <trkpt lat="42.363549" lon="-4.952073">
        <ele>833.7</ele>
        <time>2021-08-18T07:20:32Z</time>
        <sat>8</sat>
      </trkpt>
      <trkpt lat="42.363521" lon="-4.952181">
        <ele>833.7</ele>
        <time>2021-08-18T07:20:39Z</time>
        <sat>8</sat>
      </trkpt>
      <trkpt lat="42.363471" lon="-4.952286">
        <ele>833.6</ele>
        <time>2021-08-18T07:20:47Z</time>
        <sat>8</sat>
      </trkpt>
      <trkpt lat="42.363425" lon="-4.952384">
        <ele>833.5</ele>
        <time>2021-08-18T07:20:55Z</time>
        <sat>8</sat>
      </trkpt>
      <trkpt lat="42.363407" lon="-4.952493">
        <ele>833.3</ele>
        <time>2021-08-18T07:21:04Z</time>
        <sat>8</sat>
      </trkpt>
      <trkpt lat="42.363370" lon="-4.952604">
        <ele>833.2</ele>
        <time>2021-08-18T07:21:27Z</time>
        <sat>8</sat>
      </trkpt>
      <trkpt lat="42.363346" lon="-4.952718">
        <ele>833.3</ele>
        <time>2021-08-18T07:21:34Z</time>
        <sat>8</sat>
      </trkpt>
      <trkpt lat="42.363345" lon="-4.952844">
        <ele>833.0</ele>
        <time>2021-08-18T07:21:43Z</time>
        <sat>8</sat>
      </trkpt>
      <trkpt lat="42.363367" lon="-4.952951">
        <ele>832.7</ele>
        <time>2021-08-18T07:21:51Z</time>
        <sat>8</sat>
      </trkpt>
      <trkpt lat="42.363400" lon="-4.953054">
        <ele>834.3</ele>
        <time>2021-08-18T07:24:17Z</time>
        <sat>8</sat>
      </trkpt>
      <trkpt lat="42.363419" lon="-4.953165">
        <ele>834.2</ele>
        <time>2021-08-18T07:24:24Z</time>
        <sat>8</sat>
      </trkpt>
      <trkpt lat="42.363444" lon="-4.953272">
        <ele>834.2</ele>
        <time>2021-08-18T07:24:31Z</time>
        <sat>8</sat>
      </trkpt>
      <trkpt lat="42.363480" lon="-4.953386">
        <ele>834.3</ele>
        <time>2021-08-18T07:24:38Z</time>
        <sat>8</sat>
      </trkpt>
      <trkpt lat="42.363506" lon="-4.953491">
        <ele>834.1</ele>
        <time>2021-08-18T07:24:44Z</time>
        <sat>8</sat>
      </trkpt>
      <trkpt lat="42.363542" lon="-4.953601">
        <ele>833.9</ele>
        <time>2021-08-18T07:24:51Z</time>
        <sat>8</sat>
      </trkpt>
      <trkpt lat="42.363585" lon="-4.953712">
        <ele>833.8</ele>
        <time>2021-08-18T07:24:58Z</time>
        <sat>8</sat>
      </trkpt>
      <trkpt lat="42.363622" lon="-4.953812">
        <ele>833.9</ele>
        <time>2021-08-18T07:25:04Z</time>
        <sat>8</sat>
      </trkpt>
      <trkpt lat="42.363659" lon="-4.953926">
        <ele>834.1</ele>
        <time>2021-08-18T07:25:11Z</time>
        <sat>8</sat>
      </trkpt>
      <trkpt lat="42.363659" lon="-4.954039">
        <ele>834.1</ele>
        <time>2021-08-18T07:25:18Z</time>
        <sat>8</sat>
      </trkpt>
      <trkpt lat="42.363652" lon="-4.954163">
        <ele>834.0</ele>
        <time>2021-08-18T07:25:25Z</time>
        <sat>8</sat>
      </trkpt>
      <trkpt lat="42.363659" lon="-4.954287">
        <ele>833.8</ele>
        <time>2021-08-18T07:25:32Z</time>
        <sat>8</sat>
      </trkpt>
      <trkpt lat="42.363653" lon="-4.954406">
        <ele>833.5</ele>
        <time>2021-08-18T07:25:39Z</time>
        <sat>8</sat>
      </trkpt>
      <trkpt lat="42.363701" lon="-4.954497">
        <ele>833.0</ele>
        <time>2021-08-18T07:25:45Z</time>
        <sat>8</sat>
      </trkpt>
      <trkpt lat="42.363788" lon="-4.954537">
        <ele>832.9</ele>
        <time>2021-08-18T07:25:52Z</time>
        <sat>8</sat>
      </trkpt>
      <trkpt lat="42.363869" lon="-4.954547">
        <ele>833.3</ele>
        <time>2021-08-18T07:25:58Z</time>
        <sat>8</sat>
      </trkpt>
      <trkpt lat="42.363949" lon="-4.954578">
        <ele>833.8</ele>
        <time>2021-08-18T07:26:04Z</time>
        <sat>8</sat>
      </trkpt>
      <trkpt lat="42.364025" lon="-4.954633">
        <ele>834.3</ele>
        <time>2021-08-18T07:26:11Z</time>
        <sat>8</sat>
      </trkpt>
      <trkpt lat="42.364084" lon="-4.954732">
        <ele>834.5</ele>
        <time>2021-08-18T07:26:18Z</time>
        <sat>8</sat>
      </trkpt>
      <trkpt lat="42.364118" lon="-4.954834">
        <ele>834.9</ele>
        <time>2021-08-18T07:26:25Z</time>
        <sat>8</sat>
      </trkpt>
      <trkpt lat="42.364126" lon="-4.954954">
        <ele>835.3</ele>
        <time>2021-08-18T07:26:32Z</time>
        <sat>9</sat>
      </trkpt>
      <trkpt lat="42.364130" lon="-4.955076">
        <ele>835.7</ele>
        <time>2021-08-18T07:26:39Z</time>
        <sat>9</sat>
      </trkpt>
      <trkpt lat="42.364113" lon="-4.955200">
        <ele>835.8</ele>
        <time>2021-08-18T07:26:46Z</time>
        <sat>9</sat>
      </trkpt>
      <trkpt lat="42.364134" lon="-4.955309">
        <ele>836.1</ele>
        <time>2021-08-18T07:26:53Z</time>
        <sat>9</sat>
      </trkpt>
      <trkpt lat="42.364220" lon="-4.955364">
        <ele>836.6</ele>
        <time>2021-08-18T07:27:01Z</time>
        <sat>9</sat>
      </trkpt>
      <trkpt lat="42.364301" lon="-4.955378">
        <ele>836.9</ele>
        <time>2021-08-18T07:27:07Z</time>
        <sat>9</sat>
      </trkpt>
      <trkpt lat="42.364391" lon="-4.955391">
        <ele>837.2</ele>
        <time>2021-08-18T07:27:14Z</time>
        <sat>9</sat>
      </trkpt>
      <trkpt lat="42.364482" lon="-4.955382">
        <ele>837.4</ele>
        <time>2021-08-18T07:27:21Z</time>
        <sat>9</sat>
      </trkpt>
      <trkpt lat="42.364564" lon="-4.955382">
        <ele>837.7</ele>
        <time>2021-08-18T07:27:28Z</time>
        <sat>9</sat>
      </trkpt>
      <trkpt lat="42.364650" lon="-4.955394">
        <ele>837.8</ele>
        <time>2021-08-18T07:27:35Z</time>
        <sat>9</sat>
      </trkpt>
      <trkpt lat="42.364734" lon="-4.955406">
        <ele>837.7</ele>
        <time>2021-08-18T07:27:42Z</time>
        <sat>9</sat>
      </trkpt>
      <trkpt lat="42.364824" lon="-4.955407">
        <ele>837.6</ele>
        <time>2021-08-18T07:27:49Z</time>
        <sat>9</sat>
      </trkpt>
      <trkpt lat="42.364912" lon="-4.955414">
        <ele>837.5</ele>
        <time>2021-08-18T07:27:56Z</time>
        <sat>9</sat>
      </trkpt>
      <trkpt lat="42.364940" lon="-4.955519">
        <ele>837.9</ele>
        <time>2021-08-18T07:28:08Z</time>
        <sat>9</sat>
      </trkpt>
      <trkpt lat="42.364939" lon="-4.955631">
        <ele>838.1</ele>
        <time>2021-08-18T07:28:15Z</time>
        <sat>9</sat>
      </trkpt>
      <trkpt lat="42.364938" lon="-4.955750">
        <ele>838.1</ele>
        <time>2021-08-18T07:28:22Z</time>
        <sat>9</sat>
      </trkpt>
      <trkpt lat="42.364936" lon="-4.955874">
        <ele>838.1</ele>
        <time>2021-08-18T07:28:31Z</time>
        <sat>9</sat>
      </trkpt>
      <trkpt lat="42.364931" lon="-4.955998">
        <ele>838.3</ele>
        <time>2021-08-18T07:28:39Z</time>
        <sat>9</sat>
      </trkpt>
      <trkpt lat="42.364936" lon="-4.956118">
        <ele>838.4</ele>
        <time>2021-08-18T07:28:46Z</time>
        <sat>9</sat>
      </trkpt>
      <trkpt lat="42.364937" lon="-4.956247">
        <ele>838.5</ele>
        <time>2021-08-18T07:28:53Z</time>
        <sat>9</sat>
      </trkpt>
      <trkpt lat="42.364932" lon="-4.956356">
        <ele>838.7</ele>
        <time>2021-08-18T07:28:59Z</time>
        <sat>9</sat>
      </trkpt>
      <trkpt lat="42.364935" lon="-4.956467">
        <ele>838.9</ele>
        <time>2021-08-18T07:29:05Z</time>
        <sat>9</sat>
      </trkpt>
      <trkpt lat="42.364935" lon="-4.956577">
        <ele>839.1</ele>
        <time>2021-08-18T07:29:11Z</time>
        <sat>9</sat>
      </trkpt>
      <trkpt lat="42.364928" lon="-4.956690">
        <ele>839.2</ele>
        <time>2021-08-18T07:29:17Z</time>
        <sat>9</sat>
      </trkpt>
      <trkpt lat="42.364928" lon="-4.956816">
        <ele>839.4</ele>
        <time>2021-08-18T07:29:24Z</time>
        <sat>9</sat>
      </trkpt>
      <trkpt lat="42.364920" lon="-4.956927">
        <ele>839.6</ele>
        <time>2021-08-18T07:29:30Z</time>
        <sat>9</sat>
      </trkpt>
      <trkpt lat="42.364924" lon="-4.957054">
        <ele>839.9</ele>
        <time>2021-08-18T07:29:37Z</time>
        <sat>9</sat>
      </trkpt>
      <trkpt lat="42.364921" lon="-4.957165">
        <ele>840.2</ele>
        <time>2021-08-18T07:29:43Z</time>
        <sat>9</sat>
      </trkpt>
      <trkpt lat="42.364918" lon="-4.957288">
        <ele>840.4</ele>
        <time>2021-08-18T07:29:50Z</time>
        <sat>9</sat>
      </trkpt>
      <trkpt lat="42.364924" lon="-4.957413">
        <ele>840.8</ele>
        <time>2021-08-18T07:29:57Z</time>
        <sat>9</sat>
      </trkpt>
      <trkpt lat="42.364925" lon="-4.957540">
        <ele>841.0</ele>
        <time>2021-08-18T07:30:04Z</time>
        <sat>9</sat>
      </trkpt>
      <trkpt lat="42.364923" lon="-4.957664">
        <ele>841.3</ele>
        <time>2021-08-18T07:30:11Z</time>
        <sat>9</sat>
      </trkpt>
      <trkpt lat="42.364929" lon="-4.957783">
        <ele>841.8</ele>
        <time>2021-08-18T07:30:18Z</time>
        <sat>9</sat>
      </trkpt>
      <trkpt lat="42.364927" lon="-4.957905">
        <ele>842.8</ele>
        <time>2021-08-18T07:30:38Z</time>
        <sat>9</sat>
      </trkpt>
      <trkpt lat="42.364924" lon="-4.958028">
        <ele>842.9</ele>
        <time>2021-08-18T07:30:44Z</time>
        <sat>9</sat>
      </trkpt>
      <trkpt lat="42.364929" lon="-4.958148">
        <ele>843.1</ele>
        <time>2021-08-18T07:30:50Z</time>
        <sat>9</sat>
      </trkpt>
      <trkpt lat="42.364927" lon="-4.958266">
        <ele>843.3</ele>
        <time>2021-08-18T07:30:56Z</time>
        <sat>9</sat>
      </trkpt>
      <trkpt lat="42.364922" lon="-4.958384">
        <ele>843.5</ele>
        <time>2021-08-18T07:31:02Z</time>
        <sat>9</sat>
      </trkpt>
      <trkpt lat="42.364926" lon="-4.958500">
        <ele>844.0</ele>
        <time>2021-08-18T07:31:08Z</time>
        <sat>9</sat>
      </trkpt>
      <trkpt lat="42.364925" lon="-4.958614">
        <ele>844.4</ele>
        <time>2021-08-18T07:31:14Z</time>
        <sat>9</sat>
      </trkpt>
      <trkpt lat="42.364922" lon="-4.958727">
        <ele>844.8</ele>
        <time>2021-08-18T07:31:20Z</time>
        <sat>9</sat>
      </trkpt>
      <trkpt lat="42.364919" lon="-4.958849">
        <ele>845.7</ele>
        <time>2021-08-18T07:31:27Z</time>
        <sat>9</sat>
      </trkpt>
      <trkpt lat="42.364910" lon="-4.958972">
        <ele>846.4</ele>
        <time>2021-08-18T07:31:34Z</time>
        <sat>9</sat>
      </trkpt>
      <trkpt lat="42.364919" lon="-4.959083">
        <ele>846.9</ele>
        <time>2021-08-18T07:31:42Z</time>
        <sat>9</sat>
      </trkpt>
      <trkpt lat="42.364923" lon="-4.959198">
        <ele>847.2</ele>
        <time>2021-08-18T07:31:52Z</time>
        <sat>9</sat>
      </trkpt>
      <trkpt lat="42.364922" lon="-4.959311">
        <ele>847.1</ele>
        <time>2021-08-18T07:31:58Z</time>
        <sat>9</sat>
      </trkpt>
      <trkpt lat="42.364942" lon="-4.959423">
        <ele>847.0</ele>
        <time>2021-08-18T07:32:04Z</time>
        <sat>9</sat>
      </trkpt>
      <trkpt lat="42.364954" lon="-4.959538">
        <ele>846.6</ele>
        <time>2021-08-18T07:32:10Z</time>
        <sat>9</sat>
      </trkpt>
      <trkpt lat="42.364961" lon="-4.959655">
        <ele>846.5</ele>
        <time>2021-08-18T07:32:16Z</time>
        <sat>9</sat>
      </trkpt>
      <trkpt lat="42.364977" lon="-4.959765">
        <ele>846.5</ele>
        <time>2021-08-18T07:32:22Z</time>
        <sat>9</sat>
      </trkpt>
      <trkpt lat="42.364984" lon="-4.959879">
        <ele>846.5</ele>
        <time>2021-08-18T07:32:31Z</time>
        <sat>9</sat>
      </trkpt>
      <trkpt lat="42.364992" lon="-4.959994">
        <ele>846.4</ele>
        <time>2021-08-18T07:32:37Z</time>
        <sat>9</sat>
      </trkpt>
      <trkpt lat="42.364997" lon="-4.960115">
        <ele>846.4</ele>
        <time>2021-08-18T07:32:43Z</time>
        <sat>9</sat>
      </trkpt>
      <trkpt lat="42.365001" lon="-4.960242">
        <ele>846.4</ele>
        <time>2021-08-18T07:32:50Z</time>
        <sat>9</sat>
      </trkpt>
      <trkpt lat="42.365019" lon="-4.960354">
        <ele>846.4</ele>
        <time>2021-08-18T07:32:56Z</time>
        <sat>9</sat>
      </trkpt>
      <trkpt lat="42.365016" lon="-4.960467">
        <ele>846.4</ele>
        <time>2021-08-18T07:33:02Z</time>
        <sat>9</sat>
      </trkpt>
      <trkpt lat="42.365031" lon="-4.960587">
        <ele>846.4</ele>
        <time>2021-08-18T07:33:09Z</time>
        <sat>9</sat>
      </trkpt>
      <trkpt lat="42.365037" lon="-4.960710">
        <ele>846.4</ele>
        <time>2021-08-18T07:33:16Z</time>
        <sat>9</sat>
      </trkpt>
      <trkpt lat="42.365043" lon="-4.960838">
        <ele>846.6</ele>
        <time>2021-08-18T07:33:23Z</time>
        <sat>9</sat>
      </trkpt>
      <trkpt lat="42.365052" lon="-4.960956">
        <ele>846.8</ele>
        <time>2021-08-18T07:33:30Z</time>
        <sat>9</sat>
      </trkpt>
      <trkpt lat="42.365053" lon="-4.961068">
        <ele>847.1</ele>
        <time>2021-08-18T07:33:36Z</time>
        <sat>9</sat>
      </trkpt>
      <trkpt lat="42.365068" lon="-4.961178">
        <ele>847.6</ele>
        <time>2021-08-18T07:33:50Z</time>
        <sat>9</sat>
      </trkpt>
      <trkpt lat="42.365075" lon="-4.961292">
        <ele>847.6</ele>
        <time>2021-08-18T07:33:57Z</time>
        <sat>9</sat>
      </trkpt>
      <trkpt lat="42.365128" lon="-4.961382">
        <ele>847.1</ele>
        <time>2021-08-18T07:34:45Z</time>
        <sat>9</sat>
      </trkpt>
      <trkpt lat="42.365127" lon="-4.961502">
        <ele>847.0</ele>
        <time>2021-08-18T07:34:51Z</time>
        <sat>9</sat>
      </trkpt>
      <trkpt lat="42.365144" lon="-4.961622">
        <ele>846.8</ele>
        <time>2021-08-18T07:34:57Z</time>
        <sat>9</sat>
      </trkpt>
      <trkpt lat="42.365147" lon="-4.961749">
        <ele>846.8</ele>
        <time>2021-08-18T07:35:04Z</time>
        <sat>9</sat>
      </trkpt>
      <trkpt lat="42.365139" lon="-4.961863">
        <ele>846.8</ele>
        <time>2021-08-18T07:35:10Z</time>
        <sat>9</sat>
      </trkpt>
      <trkpt lat="42.365143" lon="-4.961980">
        <ele>846.9</ele>
        <time>2021-08-18T07:35:16Z</time>
        <sat>9</sat>
      </trkpt>
      <trkpt lat="42.365148" lon="-4.962092">
        <ele>847.0</ele>
        <time>2021-08-18T07:35:22Z</time>
        <sat>9</sat>
      </trkpt>
      <trkpt lat="42.365149" lon="-4.962204">
        <ele>847.1</ele>
        <time>2021-08-18T07:35:28Z</time>
        <sat>9</sat>
      </trkpt>
      <trkpt lat="42.365153" lon="-4.962316">
        <ele>847.3</ele>
        <time>2021-08-18T07:35:34Z</time>
        <sat>9</sat>
      </trkpt>
      <trkpt lat="42.365164" lon="-4.962441">
        <ele>847.4</ele>
        <time>2021-08-18T07:35:41Z</time>
        <sat>9</sat>
      </trkpt>
      <trkpt lat="42.365166" lon="-4.962553">
        <ele>847.4</ele>
        <time>2021-08-18T07:35:47Z</time>
        <sat>9</sat>
      </trkpt>
      <trkpt lat="42.365173" lon="-4.962665">
        <ele>847.6</ele>
        <time>2021-08-18T07:35:53Z</time>
        <sat>9</sat>
      </trkpt>
      <trkpt lat="42.365180" lon="-4.962784">
        <ele>847.7</ele>
        <time>2021-08-18T07:36:00Z</time>
        <sat>9</sat>
      </trkpt>
      <trkpt lat="42.365193" lon="-4.962894">
        <ele>848.0</ele>
        <time>2021-08-18T07:36:07Z</time>
        <sat>9</sat>
      </trkpt>
      <trkpt lat="42.365208" lon="-4.963010">
        <ele>848.1</ele>
        <time>2021-08-18T07:36:14Z</time>
        <sat>9</sat>
      </trkpt>
      <trkpt lat="42.365216" lon="-4.963130">
        <ele>848.2</ele>
        <time>2021-08-18T07:36:21Z</time>
        <sat>9</sat>
      </trkpt>
      <trkpt lat="42.365229" lon="-4.963250">
        <ele>848.3</ele>
        <time>2021-08-18T07:36:28Z</time>
        <sat>9</sat>
      </trkpt>
      <trkpt lat="42.365244" lon="-4.963373">
        <ele>848.4</ele>
        <time>2021-08-18T07:36:35Z</time>
        <sat>9</sat>
      </trkpt>
      <trkpt lat="42.365245" lon="-4.963497">
        <ele>848.6</ele>
        <time>2021-08-18T07:36:42Z</time>
        <sat>9</sat>
      </trkpt>
      <trkpt lat="42.365254" lon="-4.963613">
        <ele>849.0</ele>
        <time>2021-08-18T07:36:50Z</time>
        <sat>9</sat>
      </trkpt>
      <trkpt lat="42.365248" lon="-4.963732">
        <ele>849.2</ele>
        <time>2021-08-18T07:36:56Z</time>
        <sat>9</sat>
      </trkpt>
      <trkpt lat="42.365262" lon="-4.963848">
        <ele>849.3</ele>
        <time>2021-08-18T07:37:05Z</time>
        <sat>9</sat>
      </trkpt>
      <trkpt lat="42.365279" lon="-4.963967">
        <ele>849.5</ele>
        <time>2021-08-18T07:37:12Z</time>
        <sat>9</sat>
      </trkpt>
      <trkpt lat="42.365284" lon="-4.964092">
        <ele>849.8</ele>
        <time>2021-08-18T07:37:19Z</time>
        <sat>9</sat>
      </trkpt>
      <trkpt lat="42.365291" lon="-4.964213">
        <ele>850.1</ele>
        <time>2021-08-18T07:37:26Z</time>
        <sat>9</sat>
      </trkpt>
      <trkpt lat="42.365300" lon="-4.964334">
        <ele>850.4</ele>
        <time>2021-08-18T07:37:33Z</time>
        <sat>9</sat>
      </trkpt>
      <trkpt lat="42.365302" lon="-4.964456">
        <ele>850.4</ele>
        <time>2021-08-18T07:37:40Z</time>
        <sat>9</sat>
      </trkpt>
      <trkpt lat="42.365318" lon="-4.964577">
        <ele>850.4</ele>
        <time>2021-08-18T07:37:47Z</time>
        <sat>9</sat>
      </trkpt>
      <trkpt lat="42.365323" lon="-4.964698">
        <ele>850.3</ele>
        <time>2021-08-18T07:37:54Z</time>
        <sat>9</sat>
      </trkpt>
      <trkpt lat="42.365330" lon="-4.964821">
        <ele>850.1</ele>
        <time>2021-08-18T07:38:01Z</time>
        <sat>9</sat>
      </trkpt>
      <trkpt lat="42.365343" lon="-4.964942">
        <ele>850.1</ele>
        <time>2021-08-18T07:38:08Z</time>
        <sat>9</sat>
      </trkpt>
      <trkpt lat="42.365343" lon="-4.965062">
        <ele>850.1</ele>
        <time>2021-08-18T07:38:15Z</time>
        <sat>9</sat>
      </trkpt>
      <trkpt lat="42.365356" lon="-4.965183">
        <ele>850.1</ele>
        <time>2021-08-18T07:38:22Z</time>
        <sat>9</sat>
      </trkpt>
      <trkpt lat="42.365371" lon="-4.965306">
        <ele>850.2</ele>
        <time>2021-08-18T07:38:29Z</time>
        <sat>9</sat>
      </trkpt>
      <trkpt lat="42.365372" lon="-4.965418">
        <ele>850.4</ele>
        <time>2021-08-18T07:38:35Z</time>
        <sat>9</sat>
      </trkpt>
      <trkpt lat="42.365390" lon="-4.965539">
        <ele>850.5</ele>
        <time>2021-08-18T07:38:42Z</time>
        <sat>9</sat>
      </trkpt>
      <trkpt lat="42.365392" lon="-4.965662">
        <ele>850.6</ele>
        <time>2021-08-18T07:38:49Z</time>
        <sat>9</sat>
      </trkpt>
      <trkpt lat="42.365407" lon="-4.965784">
        <ele>850.7</ele>
        <time>2021-08-18T07:38:56Z</time>
        <sat>9</sat>
      </trkpt>
      <trkpt lat="42.365418" lon="-4.965903">
        <ele>850.9</ele>
        <time>2021-08-18T07:39:03Z</time>
        <sat>9</sat>
      </trkpt>
      <trkpt lat="42.365424" lon="-4.966026">
        <ele>851.1</ele>
        <time>2021-08-18T07:39:10Z</time>
        <sat>9</sat>
      </trkpt>
      <trkpt lat="42.365434" lon="-4.966146">
        <ele>851.4</ele>
        <time>2021-08-18T07:39:17Z</time>
        <sat>9</sat>
      </trkpt>
      <trkpt lat="42.365445" lon="-4.966263">
        <ele>851.6</ele>
        <time>2021-08-18T07:39:24Z</time>
        <sat>9</sat>
      </trkpt>
      <trkpt lat="42.365455" lon="-4.966386">
        <ele>851.7</ele>
        <time>2021-08-18T07:39:31Z</time>
        <sat>9</sat>
      </trkpt>
      <trkpt lat="42.365467" lon="-4.966512">
        <ele>851.9</ele>
        <time>2021-08-18T07:39:38Z</time>
        <sat>9</sat>
      </trkpt>
      <trkpt lat="42.365483" lon="-4.966623">
        <ele>852.3</ele>
        <time>2021-08-18T07:40:01Z</time>
        <sat>9</sat>
      </trkpt>
      <trkpt lat="42.365496" lon="-4.966731">
        <ele>852.2</ele>
        <time>2021-08-18T07:40:07Z</time>
        <sat>9</sat>
      </trkpt>
      <trkpt lat="42.365498" lon="-4.966857">
        <ele>852.2</ele>
        <time>2021-08-18T07:40:14Z</time>
        <sat>9</sat>
      </trkpt>
      <trkpt lat="42.365508" lon="-4.966973">
        <ele>852.3</ele>
        <time>2021-08-18T07:40:21Z</time>
        <sat>9</sat>
      </trkpt>
      <trkpt lat="42.365516" lon="-4.967093">
        <ele>852.2</ele>
        <time>2021-08-18T07:40:28Z</time>
        <sat>9</sat>
      </trkpt>
      <trkpt lat="42.365520" lon="-4.967218">
        <ele>852.0</ele>
        <time>2021-08-18T07:40:35Z</time>
        <sat>9</sat>
      </trkpt>
      <trkpt lat="42.365524" lon="-4.967336">
        <ele>852.0</ele>
        <time>2021-08-18T07:40:42Z</time>
        <sat>9</sat>
      </trkpt>
      <trkpt lat="42.365542" lon="-4.967453">
        <ele>852.2</ele>
        <time>2021-08-18T07:40:49Z</time>
        <sat>9</sat>
      </trkpt>
      <trkpt lat="42.365551" lon="-4.967571">
        <ele>852.5</ele>
        <time>2021-08-18T07:40:56Z</time>
        <sat>9</sat>
      </trkpt>
      <trkpt lat="42.365558" lon="-4.967681">
        <ele>852.8</ele>
        <time>2021-08-18T07:41:03Z</time>
        <sat>9</sat>
      </trkpt>
      <trkpt lat="42.365564" lon="-4.967796">
        <ele>853.1</ele>
        <time>2021-08-18T07:41:10Z</time>
        <sat>9</sat>
      </trkpt>
      <trkpt lat="42.365573" lon="-4.967917">
        <ele>853.5</ele>
        <time>2021-08-18T07:41:17Z</time>
        <sat>9</sat>
      </trkpt>
      <trkpt lat="42.365581" lon="-4.968035">
        <ele>853.8</ele>
        <time>2021-08-18T07:41:24Z</time>
        <sat>9</sat>
      </trkpt>
      <trkpt lat="42.365588" lon="-4.968150">
        <ele>854.0</ele>
        <time>2021-08-18T07:41:31Z</time>
        <sat>9</sat>
      </trkpt>
      <trkpt lat="42.365590" lon="-4.968265">
        <ele>854.3</ele>
        <time>2021-08-18T07:41:38Z</time>
        <sat>9</sat>
      </trkpt>
      <trkpt lat="42.365575" lon="-4.968383">
        <ele>854.6</ele>
        <time>2021-08-18T07:41:46Z</time>
        <sat>9</sat>
      </trkpt>
      <trkpt lat="42.365599" lon="-4.968499">
        <ele>855.0</ele>
        <time>2021-08-18T07:42:13Z</time>
        <sat>9</sat>
      </trkpt>
      <trkpt lat="42.365611" lon="-4.968613">
        <ele>854.8</ele>
        <time>2021-08-18T07:42:19Z</time>
        <sat>9</sat>
      </trkpt>
      <trkpt lat="42.365610" lon="-4.968731">
        <ele>854.9</ele>
        <time>2021-08-18T07:42:25Z</time>
        <sat>9</sat>
      </trkpt>
      <trkpt lat="42.365621" lon="-4.968841">
        <ele>855.0</ele>
        <time>2021-08-18T07:42:31Z</time>
        <sat>9</sat>
      </trkpt>
      <trkpt lat="42.365632" lon="-4.968952">
        <ele>855.2</ele>
        <time>2021-08-18T07:42:37Z</time>
        <sat>9</sat>
      </trkpt>
      <trkpt lat="42.365640" lon="-4.969066">
        <ele>855.2</ele>
        <time>2021-08-18T07:42:43Z</time>
        <sat>9</sat>
      </trkpt>
      <trkpt lat="42.365656" lon="-4.969182">
        <ele>855.6</ele>
        <time>2021-08-18T07:42:49Z</time>
        <sat>9</sat>
      </trkpt>
      <trkpt lat="42.365653" lon="-4.969295">
        <ele>855.9</ele>
        <time>2021-08-18T07:42:55Z</time>
        <sat>9</sat>
      </trkpt>
      <trkpt lat="42.365656" lon="-4.969412">
        <ele>856.1</ele>
        <time>2021-08-18T07:43:01Z</time>
        <sat>9</sat>
      </trkpt>
      <trkpt lat="42.365665" lon="-4.969528">
        <ele>856.4</ele>
        <time>2021-08-18T07:43:07Z</time>
        <sat>9</sat>
      </trkpt>
      <trkpt lat="42.365667" lon="-4.969647">
        <ele>856.6</ele>
        <time>2021-08-18T07:43:13Z</time>
        <sat>9</sat>
      </trkpt>
      <trkpt lat="42.365679" lon="-4.969757">
        <ele>856.9</ele>
        <time>2021-08-18T07:43:19Z</time>
        <sat>9</sat>
      </trkpt>
      <trkpt lat="42.365674" lon="-4.969873">
        <ele>857.1</ele>
        <time>2021-08-18T07:43:25Z</time>
        <sat>9</sat>
      </trkpt>
      <trkpt lat="42.365683" lon="-4.969995">
        <ele>857.3</ele>
        <time>2021-08-18T07:43:32Z</time>
        <sat>9</sat>
      </trkpt>
      <trkpt lat="42.365689" lon="-4.970108">
        <ele>857.6</ele>
        <time>2021-08-18T07:43:38Z</time>
        <sat>9</sat>
      </trkpt>
      <trkpt lat="42.365709" lon="-4.970229">
        <ele>857.7</ele>
        <time>2021-08-18T07:43:45Z</time>
        <sat>9</sat>
      </trkpt>
      <trkpt lat="42.365714" lon="-4.970345">
        <ele>857.8</ele>
        <time>2021-08-18T07:43:51Z</time>
        <sat>9</sat>
      </trkpt>
      <trkpt lat="42.365731" lon="-4.970467">
        <ele>858.1</ele>
        <time>2021-08-18T07:43:58Z</time>
        <sat>9</sat>
      </trkpt>
      <trkpt lat="42.365736" lon="-4.970594">
        <ele>858.2</ele>
        <time>2021-08-18T07:44:05Z</time>
        <sat>9</sat>
      </trkpt>
      <trkpt lat="42.365756" lon="-4.970702">
        <ele>858.3</ele>
        <time>2021-08-18T07:44:11Z</time>
        <sat>9</sat>
      </trkpt>
      <trkpt lat="42.365759" lon="-4.970828">
        <ele>858.5</ele>
        <time>2021-08-18T07:44:18Z</time>
        <sat>9</sat>
      </trkpt>
      <trkpt lat="42.365769" lon="-4.970946">
        <ele>858.6</ele>
        <time>2021-08-18T07:44:25Z</time>
        <sat>9</sat>
      </trkpt>
      <trkpt lat="42.365782" lon="-4.971069">
        <ele>858.8</ele>
        <time>2021-08-18T07:44:33Z</time>
        <sat>9</sat>
      </trkpt>
      <trkpt lat="42.365785" lon="-4.971191">
        <ele>858.9</ele>
        <time>2021-08-18T07:44:40Z</time>
        <sat>9</sat>
      </trkpt>
      <trkpt lat="42.365790" lon="-4.971314">
        <ele>859.3</ele>
        <time>2021-08-18T07:44:47Z</time>
        <sat>9</sat>
      </trkpt>
      <trkpt lat="42.365797" lon="-4.971431">
        <ele>859.6</ele>
        <time>2021-08-18T07:44:54Z</time>
        <sat>9</sat>
      </trkpt>
      <trkpt lat="42.365806" lon="-4.971546">
        <ele>860.0</ele>
        <time>2021-08-18T07:45:01Z</time>
        <sat>9</sat>
      </trkpt>
      <trkpt lat="42.365809" lon="-4.971662">
        <ele>860.4</ele>
        <time>2021-08-18T07:45:08Z</time>
        <sat>9</sat>
      </trkpt>
      <trkpt lat="42.365807" lon="-4.971783">
        <ele>860.7</ele>
        <time>2021-08-18T07:45:15Z</time>
        <sat>9</sat>
      </trkpt>
      <trkpt lat="42.365811" lon="-4.971900">
        <ele>860.8</ele>
        <time>2021-08-18T07:45:22Z</time>
        <sat>9</sat>
      </trkpt>
      <trkpt lat="42.365815" lon="-4.972015">
        <ele>861.1</ele>
        <time>2021-08-18T07:45:29Z</time>
        <sat>9</sat>
      </trkpt>
      <trkpt lat="42.365827" lon="-4.972138">
        <ele>861.6</ele>
        <time>2021-08-18T07:45:37Z</time>
        <sat>9</sat>
      </trkpt>
      <trkpt lat="42.365832" lon="-4.972251">
        <ele>862.2</ele>
        <time>2021-08-18T07:45:45Z</time>
        <sat>9</sat>
      </trkpt>
      <trkpt lat="42.365828" lon="-4.972366">
        <ele>862.7</ele>
        <time>2021-08-18T07:45:55Z</time>
        <sat>9</sat>
      </trkpt>
      <trkpt lat="42.365829" lon="-4.972484">
        <ele>863.0</ele>
        <time>2021-08-18T07:46:02Z</time>
        <sat>9</sat>
      </trkpt>
      <trkpt lat="42.365827" lon="-4.972606">
        <ele>863.1</ele>
        <time>2021-08-18T07:46:11Z</time>
        <sat>9</sat>
      </trkpt>
      <trkpt lat="42.365820" lon="-4.972716">
        <ele>863.0</ele>
        <time>2021-08-18T07:47:00Z</time>
        <sat>9</sat>
      </trkpt>
      <trkpt lat="42.365736" lon="-4.972703">
        <ele>862.9</ele>
        <time>2021-08-18T07:48:46Z</time>
        <sat>9</sat>
      </trkpt>
      <trkpt lat="42.365645" lon="-4.972720">
        <ele>863.0</ele>
        <time>2021-08-18T07:48:52Z</time>
        <sat>9</sat>
      </trkpt>
      <trkpt lat="42.365559" lon="-4.972756">
        <ele>863.0</ele>
        <time>2021-08-18T07:48:59Z</time>
        <sat>9</sat>
      </trkpt>
      <trkpt lat="42.365507" lon="-4.972843">
        <ele>863.5</ele>
        <time>2021-08-18T07:50:20Z</time>
        <sat>9</sat>
      </trkpt>
      <trkpt lat="42.365424" lon="-4.972893">
        <ele>863.2</ele>
        <time>2021-08-18T07:50:26Z</time>
        <sat>9</sat>
      </trkpt>
      <trkpt lat="42.365351" lon="-4.972944">
        <ele>863.1</ele>
        <time>2021-08-18T07:50:32Z</time>
        <sat>9</sat>
      </trkpt>
      <trkpt lat="42.365307" lon="-4.973042">
        <ele>863.2</ele>
        <time>2021-08-18T07:50:42Z</time>
        <sat>9</sat>
      </trkpt>
      <trkpt lat="42.365256" lon="-4.973147">
        <ele>863.5</ele>
        <time>2021-08-18T07:50:50Z</time>
        <sat>9</sat>
      </trkpt>
      <trkpt lat="42.365220" lon="-4.973264">
        <ele>863.5</ele>
        <time>2021-08-18T07:50:58Z</time>
        <sat>9</sat>
      </trkpt>
      <trkpt lat="42.365212" lon="-4.973376">
        <ele>863.6</ele>
        <time>2021-08-18T07:51:05Z</time>
        <sat>9</sat>
      </trkpt>
      <trkpt lat="42.365207" lon="-4.973487">
        <ele>863.5</ele>
        <time>2021-08-18T07:51:12Z</time>
        <sat>9</sat>
      </trkpt>
      <trkpt lat="42.365206" lon="-4.973610">
        <ele>863.1</ele>
        <time>2021-08-18T07:51:20Z</time>
        <sat>9</sat>
      </trkpt>
      <trkpt lat="42.365218" lon="-4.973727">
        <ele>862.6</ele>
        <time>2021-08-18T07:51:27Z</time>
        <sat>9</sat>
      </trkpt>
      <trkpt lat="42.365237" lon="-4.973843">
        <ele>862.0</ele>
        <time>2021-08-18T07:51:35Z</time>
        <sat>9</sat>
      </trkpt>
      <trkpt lat="42.365271" lon="-4.973949">
        <ele>861.7</ele>
        <time>2021-08-18T07:51:42Z</time>
        <sat>9</sat>
      </trkpt>
      <trkpt lat="42.365325" lon="-4.974044">
        <ele>861.2</ele>
        <time>2021-08-18T07:51:49Z</time>
        <sat>9</sat>
      </trkpt>
      <trkpt lat="42.365381" lon="-4.974137">
        <ele>860.9</ele>
        <time>2021-08-18T07:51:56Z</time>
        <sat>9</sat>
      </trkpt>
      <trkpt lat="42.365425" lon="-4.974235">
        <ele>860.4</ele>
        <time>2021-08-18T07:52:03Z</time>
        <sat>9</sat>
      </trkpt>
      <trkpt lat="42.365468" lon="-4.974335">
        <ele>860.1</ele>
        <time>2021-08-18T07:52:11Z</time>
        <sat>9</sat>
      </trkpt>
      <trkpt lat="42.365502" lon="-4.974452">
        <ele>860.0</ele>
        <time>2021-08-18T07:52:18Z</time>
        <sat>9</sat>
      </trkpt>
      <trkpt lat="42.365537" lon="-4.974563">
        <ele>859.6</ele>
        <time>2021-08-18T07:52:26Z</time>
        <sat>9</sat>
      </trkpt>
      <trkpt lat="42.365581" lon="-4.974668">
        <ele>859.3</ele>
        <time>2021-08-18T07:52:34Z</time>
        <sat>9</sat>
      </trkpt>
      <trkpt lat="42.365610" lon="-4.974785">
        <ele>858.9</ele>
        <time>2021-08-18T07:52:41Z</time>
        <sat>9</sat>
      </trkpt>
      <trkpt lat="42.365606" lon="-4.974902">
        <ele>858.6</ele>
        <time>2021-08-18T07:52:48Z</time>
        <sat>9</sat>
      </trkpt>
      <trkpt lat="42.365595" lon="-4.975011">
        <ele>858.1</ele>
        <time>2021-08-18T07:52:55Z</time>
        <sat>9</sat>
      </trkpt>
      <trkpt lat="42.365589" lon="-4.975126">
        <ele>857.6</ele>
        <time>2021-08-18T07:53:02Z</time>
        <sat>9</sat>
      </trkpt>
      <trkpt lat="42.365567" lon="-4.975241">
        <ele>856.6</ele>
        <time>2021-08-18T07:53:10Z</time>
        <sat>9</sat>
      </trkpt>
      <trkpt lat="42.365548" lon="-4.975358">
        <ele>855.9</ele>
        <time>2021-08-18T07:53:17Z</time>
        <sat>9</sat>
      </trkpt>
      <trkpt lat="42.365502" lon="-4.975461">
        <ele>855.3</ele>
        <time>2021-08-18T07:53:24Z</time>
        <sat>9</sat>
      </trkpt>
      <trkpt lat="42.365463" lon="-4.975572">
        <ele>854.9</ele>
        <time>2021-08-18T07:53:31Z</time>
        <sat>9</sat>
      </trkpt>
      <trkpt lat="42.365403" lon="-4.975667">
        <ele>854.6</ele>
        <time>2021-08-18T07:53:38Z</time>
        <sat>9</sat>
      </trkpt>
      <trkpt lat="42.365351" lon="-4.975771">
        <ele>854.0</ele>
        <time>2021-08-18T07:53:45Z</time>
        <sat>9</sat>
      </trkpt>
      <trkpt lat="42.365294" lon="-4.975849">
        <ele>853.5</ele>
        <time>2021-08-18T07:53:51Z</time>
        <sat>9</sat>
      </trkpt>
      <trkpt lat="42.365241" lon="-4.975953">
        <ele>853.1</ele>
        <time>2021-08-18T07:53:58Z</time>
        <sat>9</sat>
      </trkpt>
      <trkpt lat="42.365189" lon="-4.976048">
        <ele>852.7</ele>
        <time>2021-08-18T07:54:05Z</time>
        <sat>9</sat>
      </trkpt>
      <trkpt lat="42.365142" lon="-4.976156">
        <ele>852.3</ele>
        <time>2021-08-18T07:54:12Z</time>
        <sat>9</sat>
      </trkpt>
      <trkpt lat="42.365090" lon="-4.976254">
        <ele>851.8</ele>
        <time>2021-08-18T07:54:19Z</time>
        <sat>9</sat>
      </trkpt>
      <trkpt lat="42.365044" lon="-4.976361">
        <ele>851.5</ele>
        <time>2021-08-18T07:54:26Z</time>
        <sat>9</sat>
      </trkpt>
      <trkpt lat="42.365006" lon="-4.976468">
        <ele>851.2</ele>
        <time>2021-08-18T07:54:33Z</time>
        <sat>9</sat>
      </trkpt>
      <trkpt lat="42.364978" lon="-4.976586">
        <ele>850.8</ele>
        <time>2021-08-18T07:54:40Z</time>
        <sat>9</sat>
      </trkpt>
      <trkpt lat="42.364933" lon="-4.976678">
        <ele>850.2</ele>
        <time>2021-08-18T07:54:48Z</time>
        <sat>9</sat>
      </trkpt>
      <trkpt lat="42.364897" lon="-4.976793">
        <ele>849.8</ele>
        <time>2021-08-18T07:54:58Z</time>
        <sat>9</sat>
      </trkpt>
      <trkpt lat="42.364874" lon="-4.976910">
        <ele>849.6</ele>
        <time>2021-08-18T07:55:05Z</time>
        <sat>9</sat>
      </trkpt>
      <trkpt lat="42.364863" lon="-4.977031">
        <ele>849.4</ele>
        <time>2021-08-18T07:55:12Z</time>
        <sat>9</sat>
      </trkpt>
      <trkpt lat="42.364842" lon="-4.977145">
        <ele>849.1</ele>
        <time>2021-08-18T07:55:19Z</time>
        <sat>9</sat>
      </trkpt>
      <trkpt lat="42.364835" lon="-4.977267">
        <ele>848.9</ele>
        <time>2021-08-18T07:55:26Z</time>
        <sat>9</sat>
      </trkpt>
      <trkpt lat="42.364830" lon="-4.977393">
        <ele>848.7</ele>
        <time>2021-08-18T07:55:33Z</time>
        <sat>9</sat>
      </trkpt>
      <trkpt lat="42.364827" lon="-4.977502">
        <ele>848.4</ele>
        <time>2021-08-18T07:55:39Z</time>
        <sat>9</sat>
      </trkpt>
      <trkpt lat="42.364845" lon="-4.977617">
        <ele>848.1</ele>
        <time>2021-08-18T07:55:46Z</time>
        <sat>9</sat>
      </trkpt>
      <trkpt lat="42.364851" lon="-4.977741">
        <ele>848.0</ele>
        <time>2021-08-18T07:55:53Z</time>
        <sat>9</sat>
      </trkpt>
      <trkpt lat="42.364882" lon="-4.977852">
        <ele>847.4</ele>
        <time>2021-08-18T07:56:00Z</time>
        <sat>9</sat>
      </trkpt>
      <trkpt lat="42.364903" lon="-4.977967">
        <ele>846.9</ele>
        <time>2021-08-18T07:56:07Z</time>
        <sat>9</sat>
      </trkpt>
      <trkpt lat="42.364937" lon="-4.978081">
        <ele>846.3</ele>
        <time>2021-08-18T07:56:14Z</time>
        <sat>9</sat>
      </trkpt>
      <trkpt lat="42.364965" lon="-4.978192">
        <ele>845.9</ele>
        <time>2021-08-18T07:56:21Z</time>
        <sat>9</sat>
      </trkpt>
      <trkpt lat="42.365011" lon="-4.978302">
        <ele>845.4</ele>
        <time>2021-08-18T07:56:28Z</time>
        <sat>9</sat>
      </trkpt>
      <trkpt lat="42.365064" lon="-4.978399">
        <ele>845.3</ele>
        <time>2021-08-18T07:56:35Z</time>
        <sat>9</sat>
      </trkpt>
      <trkpt lat="42.365117" lon="-4.978492">
        <ele>845.3</ele>
        <time>2021-08-18T07:56:42Z</time>
        <sat>9</sat>
      </trkpt>
      <trkpt lat="42.365179" lon="-4.978575">
        <ele>845.4</ele>
        <time>2021-08-18T07:56:49Z</time>
        <sat>9</sat>
      </trkpt>
      <trkpt lat="42.365246" lon="-4.978653">
        <ele>845.5</ele>
        <time>2021-08-18T07:56:56Z</time>
        <sat>9</sat>
      </trkpt>
      <trkpt lat="42.365310" lon="-4.978722">
        <ele>845.7</ele>
        <time>2021-08-18T07:57:03Z</time>
        <sat>9</sat>
      </trkpt>
      <trkpt lat="42.365376" lon="-4.978804">
        <ele>845.9</ele>
        <time>2021-08-18T07:57:10Z</time>
        <sat>9</sat>
      </trkpt>
      <trkpt lat="42.365439" lon="-4.978885">
        <ele>845.9</ele>
        <time>2021-08-18T07:57:17Z</time>
        <sat>9</sat>
      </trkpt>
      <trkpt lat="42.365500" lon="-4.978958">
        <ele>846.0</ele>
        <time>2021-08-18T07:57:25Z</time>
        <sat>9</sat>
      </trkpt>
      <trkpt lat="42.365569" lon="-4.979037">
        <ele>846.0</ele>
        <time>2021-08-18T07:57:35Z</time>
        <sat>9</sat>
      </trkpt>
      <trkpt lat="42.365590" lon="-4.979143">
        <ele>845.5</ele>
        <time>2021-08-18T07:57:50Z</time>
        <sat>9</sat>
      </trkpt>
      <trkpt lat="42.365553" lon="-4.979244">
        <ele>845.4</ele>
        <time>2021-08-18T07:57:58Z</time>
        <sat>9</sat>
      </trkpt>
      <trkpt lat="42.365543" lon="-4.979357">
        <ele>845.2</ele>
        <time>2021-08-18T07:58:08Z</time>
        <sat>8</sat>
      </trkpt>
      <trkpt lat="42.365525" lon="-4.979476">
        <ele>845.0</ele>
        <time>2021-08-18T07:58:15Z</time>
        <sat>9</sat>
      </trkpt>
      <trkpt lat="42.365515" lon="-4.979600">
        <ele>844.8</ele>
        <time>2021-08-18T07:58:23Z</time>
        <sat>9</sat>
      </trkpt>
      <trkpt lat="42.365513" lon="-4.979721">
        <ele>844.5</ele>
        <time>2021-08-18T07:58:30Z</time>
        <sat>9</sat>
      </trkpt>
      <trkpt lat="42.365506" lon="-4.979834">
        <ele>844.5</ele>
        <time>2021-08-18T07:58:38Z</time>
        <sat>9</sat>
      </trkpt>
      <trkpt lat="42.365491" lon="-4.979954">
        <ele>844.3</ele>
        <time>2021-08-18T07:58:45Z</time>
        <sat>9</sat>
      </trkpt>
      <trkpt lat="42.365486" lon="-4.980077">
        <ele>844.2</ele>
        <time>2021-08-18T07:58:52Z</time>
        <sat>9</sat>
      </trkpt>
      <trkpt lat="42.365466" lon="-4.980201">
        <ele>844.1</ele>
        <time>2021-08-18T07:58:59Z</time>
        <sat>9</sat>
      </trkpt>
      <trkpt lat="42.365469" lon="-4.980323">
        <ele>844.0</ele>
        <time>2021-08-18T07:59:06Z</time>
        <sat>9</sat>
      </trkpt>
      <trkpt lat="42.365470" lon="-4.980437">
        <ele>843.8</ele>
        <time>2021-08-18T07:59:13Z</time>
        <sat>9</sat>
      </trkpt>
      <trkpt lat="42.365460" lon="-4.980559">
        <ele>843.6</ele>
        <time>2021-08-18T07:59:20Z</time>
        <sat>9</sat>
      </trkpt>
      <trkpt lat="42.365438" lon="-4.980670">
        <ele>843.5</ele>
        <time>2021-08-18T07:59:26Z</time>
        <sat>9</sat>
      </trkpt>
      <trkpt lat="42.365438" lon="-4.980780">
        <ele>843.4</ele>
        <time>2021-08-18T07:59:32Z</time>
        <sat>9</sat>
      </trkpt>
      <trkpt lat="42.365429" lon="-4.980905">
        <ele>843.3</ele>
        <time>2021-08-18T07:59:39Z</time>
        <sat>9</sat>
      </trkpt>
      <trkpt lat="42.365421" lon="-4.981014">
        <ele>843.0</ele>
        <time>2021-08-18T07:59:45Z</time>
        <sat>9</sat>
      </trkpt>
      <trkpt lat="42.365418" lon="-4.981137">
        <ele>843.0</ele>
        <time>2021-08-18T07:59:52Z</time>
        <sat>9</sat>
      </trkpt>
      <trkpt lat="42.365407" lon="-4.981246">
        <ele>842.9</ele>
        <time>2021-08-18T07:59:58Z</time>
        <sat>9</sat>
      </trkpt>
      <trkpt lat="42.365414" lon="-4.981367">
        <ele>842.7</ele>
        <time>2021-08-18T08:00:05Z</time>
        <sat>9</sat>
      </trkpt>
      <trkpt lat="42.365411" lon="-4.981487">
        <ele>842.3</ele>
        <time>2021-08-18T08:00:12Z</time>
        <sat>9</sat>
      </trkpt>
      <trkpt lat="42.365415" lon="-4.981610">
        <ele>841.9</ele>
        <time>2021-08-18T08:00:19Z</time>
        <sat>9</sat>
      </trkpt>
      <trkpt lat="42.365433" lon="-4.981727">
        <ele>841.2</ele>
        <time>2021-08-18T08:00:33Z</time>
        <sat>9</sat>
      </trkpt>
      <trkpt lat="42.365447" lon="-4.981851">
        <ele>841.0</ele>
        <time>2021-08-18T08:00:40Z</time>
        <sat>9</sat>
      </trkpt>
      <trkpt lat="42.365453" lon="-4.981964">
        <ele>840.6</ele>
        <time>2021-08-18T08:00:47Z</time>
        <sat>9</sat>
      </trkpt>
      <trkpt lat="42.365457" lon="-4.982080">
        <ele>839.9</ele>
        <time>2021-08-18T08:00:54Z</time>
        <sat>9</sat>
      </trkpt>
      <trkpt lat="42.365467" lon="-4.982201">
        <ele>839.5</ele>
        <time>2021-08-18T08:01:01Z</time>
        <sat>9</sat>
      </trkpt>
      <trkpt lat="42.365467" lon="-4.982325">
        <ele>838.9</ele>
        <time>2021-08-18T08:01:08Z</time>
        <sat>9</sat>
      </trkpt>
      <trkpt lat="42.365483" lon="-4.982446">
        <ele>838.3</ele>
        <time>2021-08-18T08:01:15Z</time>
        <sat>9</sat>
      </trkpt>
      <trkpt lat="42.365484" lon="-4.982568">
        <ele>837.8</ele>
        <time>2021-08-18T08:01:22Z</time>
        <sat>9</sat>
      </trkpt>
      <trkpt lat="42.365503" lon="-4.982685">
        <ele>837.5</ele>
        <time>2021-08-18T08:01:29Z</time>
        <sat>9</sat>
      </trkpt>
      <trkpt lat="42.365508" lon="-4.982809">
        <ele>837.0</ele>
        <time>2021-08-18T08:01:36Z</time>
        <sat>9</sat>
      </trkpt>
      <trkpt lat="42.365525" lon="-4.982930">
        <ele>836.4</ele>
        <time>2021-08-18T08:01:43Z</time>
        <sat>9</sat>
      </trkpt>
      <trkpt lat="42.365536" lon="-4.983050">
        <ele>835.9</ele>
        <time>2021-08-18T08:01:50Z</time>
        <sat>9</sat>
      </trkpt>
      <trkpt lat="42.365553" lon="-4.983170">
        <ele>835.5</ele>
        <time>2021-08-18T08:01:57Z</time>
        <sat>9</sat>
      </trkpt>
      <trkpt lat="42.365562" lon="-4.983292">
        <ele>835.1</ele>
        <time>2021-08-18T08:02:04Z</time>
        <sat>9</sat>
      </trkpt>
      <trkpt lat="42.365580" lon="-4.983402">
        <ele>834.8</ele>
        <time>2021-08-18T08:02:11Z</time>
        <sat>9</sat>
      </trkpt>
      <trkpt lat="42.365591" lon="-4.983514">
        <ele>834.5</ele>
        <time>2021-08-18T08:02:18Z</time>
        <sat>9</sat>
      </trkpt>
      <trkpt lat="42.365601" lon="-4.983637">
        <ele>834.2</ele>
        <time>2021-08-18T08:02:25Z</time>
        <sat>9</sat>
      </trkpt>
      <trkpt lat="42.365613" lon="-4.983749">
        <ele>833.7</ele>
        <time>2021-08-18T08:02:31Z</time>
        <sat>9</sat>
      </trkpt>
      <trkpt lat="42.365628" lon="-4.983872">
        <ele>833.5</ele>
        <time>2021-08-18T08:02:38Z</time>
        <sat>9</sat>
      </trkpt>
      <trkpt lat="42.365634" lon="-4.984000">
        <ele>833.3</ele>
        <time>2021-08-18T08:02:45Z</time>
        <sat>9</sat>
      </trkpt>
      <trkpt lat="42.365651" lon="-4.984119">
        <ele>832.9</ele>
        <time>2021-08-18T08:02:52Z</time>
        <sat>9</sat>
      </trkpt>
      <trkpt lat="42.365659" lon="-4.984229">
        <ele>832.8</ele>
        <time>2021-08-18T08:02:58Z</time>
        <sat>9</sat>
      </trkpt>
      <trkpt lat="42.365673" lon="-4.984337">
        <ele>832.6</ele>
        <time>2021-08-18T08:03:04Z</time>
        <sat>9</sat>
      </trkpt>
      <trkpt lat="42.365678" lon="-4.984448">
        <ele>832.4</ele>
        <time>2021-08-18T08:03:10Z</time>
        <sat>9</sat>
      </trkpt>
      <trkpt lat="42.365698" lon="-4.984574">
        <ele>832.1</ele>
        <time>2021-08-18T08:03:17Z</time>
        <sat>9</sat>
      </trkpt>
      <trkpt lat="42.365714" lon="-4.984699">
        <ele>831.8</ele>
        <time>2021-08-18T08:03:24Z</time>
        <sat>9</sat>
      </trkpt>
      <trkpt lat="42.365722" lon="-4.984813">
        <ele>831.6</ele>
        <time>2021-08-18T08:03:30Z</time>
        <sat>9</sat>
      </trkpt>
      <trkpt lat="42.365741" lon="-4.984936">
        <ele>831.1</ele>
        <time>2021-08-18T08:03:37Z</time>
        <sat>9</sat>
      </trkpt>
      <trkpt lat="42.365745" lon="-4.985050">
        <ele>830.9</ele>
        <time>2021-08-18T08:03:43Z</time>
        <sat>9</sat>
      </trkpt>
      <trkpt lat="42.365763" lon="-4.985172">
        <ele>830.7</ele>
        <time>2021-08-18T08:03:50Z</time>
        <sat>9</sat>
      </trkpt>
      <trkpt lat="42.365772" lon="-4.985296">
        <ele>830.4</ele>
        <time>2021-08-18T08:03:57Z</time>
        <sat>9</sat>
      </trkpt>
      <trkpt lat="42.365792" lon="-4.985422">
        <ele>830.2</ele>
        <time>2021-08-18T08:04:04Z</time>
        <sat>9</sat>
      </trkpt>
      <trkpt lat="42.365802" lon="-4.985549">
        <ele>829.9</ele>
        <time>2021-08-18T08:04:11Z</time>
        <sat>9</sat>
      </trkpt>
      <trkpt lat="42.365817" lon="-4.985672">
        <ele>829.5</ele>
        <time>2021-08-18T08:04:18Z</time>
        <sat>9</sat>
      </trkpt>
      <trkpt lat="42.365832" lon="-4.985796">
        <ele>829.5</ele>
        <time>2021-08-18T08:04:25Z</time>
        <sat>9</sat>
      </trkpt>
      <trkpt lat="42.365836" lon="-4.985914">
        <ele>829.3</ele>
        <time>2021-08-18T08:04:31Z</time>
        <sat>9</sat>
      </trkpt>
      <trkpt lat="42.365856" lon="-4.986021">
        <ele>829.1</ele>
        <time>2021-08-18T08:04:37Z</time>
        <sat>9</sat>
      </trkpt>
      <trkpt lat="42.365869" lon="-4.986148">
        <ele>828.8</ele>
        <time>2021-08-18T08:04:44Z</time>
        <sat>9</sat>
      </trkpt>
      <trkpt lat="42.365872" lon="-4.986259">
        <ele>828.6</ele>
        <time>2021-08-18T08:04:50Z</time>
        <sat>9</sat>
      </trkpt>
      <trkpt lat="42.365883" lon="-4.986373">
        <ele>828.2</ele>
        <time>2021-08-18T08:04:57Z</time>
        <sat>9</sat>
      </trkpt>
      <trkpt lat="42.365900" lon="-4.986495">
        <ele>827.9</ele>
        <time>2021-08-18T08:05:04Z</time>
        <sat>9</sat>
      </trkpt>
      <trkpt lat="42.365907" lon="-4.986617">
        <ele>827.6</ele>
        <time>2021-08-18T08:05:11Z</time>
        <sat>9</sat>
      </trkpt>
      <trkpt lat="42.365918" lon="-4.986742">
        <ele>827.4</ele>
        <time>2021-08-18T08:05:18Z</time>
        <sat>9</sat>
      </trkpt>
      <trkpt lat="42.365931" lon="-4.986863">
        <ele>827.0</ele>
        <time>2021-08-18T08:05:25Z</time>
        <sat>9</sat>
      </trkpt>
      <trkpt lat="42.365948" lon="-4.986988">
        <ele>826.8</ele>
        <time>2021-08-18T08:05:32Z</time>
        <sat>9</sat>
      </trkpt>
      <trkpt lat="42.365957" lon="-4.987111">
        <ele>826.5</ele>
        <time>2021-08-18T08:05:39Z</time>
        <sat>9</sat>
      </trkpt>
      <trkpt lat="42.365971" lon="-4.987234">
        <ele>826.2</ele>
        <time>2021-08-18T08:05:46Z</time>
        <sat>9</sat>
      </trkpt>
      <trkpt lat="42.365976" lon="-4.987359">
        <ele>826.1</ele>
        <time>2021-08-18T08:05:53Z</time>
        <sat>9</sat>
      </trkpt>
      <trkpt lat="42.365999" lon="-4.987476">
        <ele>826.0</ele>
        <time>2021-08-18T08:06:00Z</time>
        <sat>9</sat>
      </trkpt>
      <trkpt lat="42.366003" lon="-4.987587">
        <ele>825.7</ele>
        <time>2021-08-18T08:06:06Z</time>
        <sat>9</sat>
      </trkpt>
      <trkpt lat="42.366024" lon="-4.987704">
        <ele>825.5</ele>
        <time>2021-08-18T08:06:13Z</time>
        <sat>9</sat>
      </trkpt>
      <trkpt lat="42.366041" lon="-4.987811">
        <ele>825.6</ele>
        <time>2021-08-18T08:06:19Z</time>
        <sat>9</sat>
      </trkpt>
      <trkpt lat="42.366039" lon="-4.987929">
        <ele>825.5</ele>
        <time>2021-08-18T08:06:25Z</time>
        <sat>9</sat>
      </trkpt>
      <trkpt lat="42.366054" lon="-4.988037">
        <ele>825.4</ele>
        <time>2021-08-18T08:06:31Z</time>
        <sat>9</sat>
      </trkpt>
      <trkpt lat="42.366069" lon="-4.988163">
        <ele>825.3</ele>
        <time>2021-08-18T08:06:38Z</time>
        <sat>9</sat>
      </trkpt>
      <trkpt lat="42.366078" lon="-4.988277">
        <ele>825.3</ele>
        <time>2021-08-18T08:06:44Z</time>
        <sat>9</sat>
      </trkpt>
      <trkpt lat="42.366094" lon="-4.988397">
        <ele>825.0</ele>
        <time>2021-08-18T08:06:51Z</time>
        <sat>9</sat>
      </trkpt>
      <trkpt lat="42.366101" lon="-4.988509">
        <ele>824.8</ele>
        <time>2021-08-18T08:06:57Z</time>
        <sat>9</sat>
      </trkpt>
      <trkpt lat="42.366116" lon="-4.988629">
        <ele>825.2</ele>
        <time>2021-08-18T08:07:04Z</time>
        <sat>9</sat>
      </trkpt>
      <trkpt lat="42.366124" lon="-4.988740">
        <ele>825.2</ele>
        <time>2021-08-18T08:07:10Z</time>
        <sat>9</sat>
      </trkpt>
      <trkpt lat="42.366137" lon="-4.988860">
        <ele>825.1</ele>
        <time>2021-08-18T08:07:17Z</time>
        <sat>9</sat>
      </trkpt>
      <trkpt lat="42.366146" lon="-4.988986">
        <ele>825.1</ele>
        <time>2021-08-18T08:07:24Z</time>
        <sat>9</sat>
      </trkpt>
      <trkpt lat="42.366155" lon="-4.989109">
        <ele>824.9</ele>
        <time>2021-08-18T08:07:31Z</time>
        <sat>9</sat>
      </trkpt>
      <trkpt lat="42.366161" lon="-4.989223">
        <ele>824.8</ele>
        <time>2021-08-18T08:07:38Z</time>
        <sat>9</sat>
      </trkpt>
      <trkpt lat="42.366202" lon="-4.989329">
        <ele>823.8</ele>
        <time>2021-08-18T08:09:14Z</time>
        <sat>9</sat>
      </trkpt>
      <trkpt lat="42.366216" lon="-4.989447">
        <ele>824.3</ele>
        <time>2021-08-18T08:09:21Z</time>
        <sat>9</sat>
      </trkpt>
      <trkpt lat="42.366216" lon="-4.989571">
        <ele>824.4</ele>
        <time>2021-08-18T08:09:28Z</time>
        <sat>9</sat>
      </trkpt>
      <trkpt lat="42.366235" lon="-4.989697">
        <ele>824.6</ele>
        <time>2021-08-18T08:09:35Z</time>
        <sat>9</sat>
      </trkpt>
      <trkpt lat="42.366240" lon="-4.989812">
        <ele>824.7</ele>
        <time>2021-08-18T08:09:42Z</time>
        <sat>9</sat>
      </trkpt>
      <trkpt lat="42.366254" lon="-4.989931">
        <ele>824.6</ele>
        <time>2021-08-18T08:09:49Z</time>
        <sat>9</sat>
      </trkpt>
      <trkpt lat="42.366273" lon="-4.990048">
        <ele>824.4</ele>
        <time>2021-08-18T08:09:56Z</time>
        <sat>9</sat>
      </trkpt>
      <trkpt lat="42.366280" lon="-4.990173">
        <ele>824.1</ele>
        <time>2021-08-18T08:10:03Z</time>
        <sat>9</sat>
      </trkpt>
      <trkpt lat="42.366300" lon="-4.990296">
        <ele>823.9</ele>
        <time>2021-08-18T08:10:10Z</time>
        <sat>9</sat>
      </trkpt>
      <trkpt lat="42.366301" lon="-4.990420">
        <ele>823.8</ele>
        <time>2021-08-18T08:10:17Z</time>
        <sat>9</sat>
      </trkpt>
      <trkpt lat="42.366322" lon="-4.990543">
        <ele>823.7</ele>
        <time>2021-08-18T08:10:24Z</time>
        <sat>9</sat>
      </trkpt>
      <trkpt lat="42.366328" lon="-4.990663">
        <ele>823.4</ele>
        <time>2021-08-18T08:10:31Z</time>
        <sat>9</sat>
      </trkpt>
      <trkpt lat="42.366336" lon="-4.990772">
        <ele>823.2</ele>
        <time>2021-08-18T08:10:37Z</time>
        <sat>9</sat>
      </trkpt>
      <trkpt lat="42.366354" lon="-4.990894">
        <ele>823.0</ele>
        <time>2021-08-18T08:10:44Z</time>
        <sat>9</sat>
      </trkpt>
      <trkpt lat="42.366360" lon="-4.991019">
        <ele>822.6</ele>
        <time>2021-08-18T08:10:51Z</time>
        <sat>9</sat>
      </trkpt>
      <trkpt lat="42.366381" lon="-4.991140">
        <ele>822.4</ele>
        <time>2021-08-18T08:10:58Z</time>
        <sat>8</sat>
      </trkpt>
      <trkpt lat="42.366386" lon="-4.991267">
        <ele>822.2</ele>
        <time>2021-08-18T08:11:05Z</time>
        <sat>9</sat>
      </trkpt>
      <trkpt lat="42.366403" lon="-4.991390">
        <ele>821.9</ele>
        <time>2021-08-18T08:11:12Z</time>
        <sat>9</sat>
      </trkpt>
      <trkpt lat="42.366411" lon="-4.991504">
        <ele>821.3</ele>
        <time>2021-08-18T08:11:24Z</time>
        <sat>9</sat>
      </trkpt>
      <trkpt lat="42.366416" lon="-4.991618">
        <ele>821.2</ele>
        <time>2021-08-18T08:11:30Z</time>
        <sat>9</sat>
      </trkpt>
      <trkpt lat="42.366431" lon="-4.991727">
        <ele>821.1</ele>
        <time>2021-08-18T08:11:36Z</time>
        <sat>9</sat>
      </trkpt>
      <trkpt lat="42.366430" lon="-4.991848">
        <ele>821.2</ele>
        <time>2021-08-18T08:11:43Z</time>
        <sat>9</sat>
      </trkpt>
      <trkpt lat="42.366450" lon="-4.991961">
        <ele>820.9</ele>
        <time>2021-08-18T08:11:50Z</time>
        <sat>9</sat>
      </trkpt>
      <trkpt lat="42.366455" lon="-4.992081">
        <ele>820.7</ele>
        <time>2021-08-18T08:11:57Z</time>
        <sat>9</sat>
      </trkpt>
      <trkpt lat="42.366474" lon="-4.992195">
        <ele>820.3</ele>
        <time>2021-08-18T08:12:04Z</time>
        <sat>9</sat>
      </trkpt>
      <trkpt lat="42.366481" lon="-4.992317">
        <ele>819.9</ele>
        <time>2021-08-18T08:12:11Z</time>
        <sat>9</sat>
      </trkpt>
      <trkpt lat="42.366496" lon="-4.992436">
        <ele>819.5</ele>
        <time>2021-08-18T08:12:18Z</time>
        <sat>9</sat>
      </trkpt>
      <trkpt lat="42.366510" lon="-4.992558">
        <ele>819.2</ele>
        <time>2021-08-18T08:12:25Z</time>
        <sat>9</sat>
      </trkpt>
      <trkpt lat="42.366525" lon="-4.992675">
        <ele>819.1</ele>
        <time>2021-08-18T08:12:33Z</time>
        <sat>9</sat>
      </trkpt>
      <trkpt lat="42.366539" lon="-4.992792">
        <ele>818.8</ele>
        <time>2021-08-18T08:12:40Z</time>
        <sat>9</sat>
      </trkpt>
      <trkpt lat="42.366550" lon="-4.992914">
        <ele>818.6</ele>
        <time>2021-08-18T08:12:47Z</time>
        <sat>9</sat>
      </trkpt>
      <trkpt lat="42.366568" lon="-4.993032">
        <ele>818.4</ele>
        <time>2021-08-18T08:12:54Z</time>
        <sat>9</sat>
      </trkpt>
      <trkpt lat="42.366579" lon="-4.993156">
        <ele>818.0</ele>
        <time>2021-08-18T08:13:01Z</time>
        <sat>9</sat>
      </trkpt>
      <trkpt lat="42.366599" lon="-4.993277">
        <ele>817.8</ele>
        <time>2021-08-18T08:13:08Z</time>
        <sat>9</sat>
      </trkpt>
      <trkpt lat="42.366606" lon="-4.993401">
        <ele>817.4</ele>
        <time>2021-08-18T08:13:15Z</time>
        <sat>9</sat>
      </trkpt>
      <trkpt lat="42.366623" lon="-4.993524">
        <ele>817.2</ele>
        <time>2021-08-18T08:13:22Z</time>
        <sat>9</sat>
      </trkpt>
      <trkpt lat="42.366633" lon="-4.993649">
        <ele>817.0</ele>
        <time>2021-08-18T08:13:29Z</time>
        <sat>9</sat>
      </trkpt>
      <trkpt lat="42.366652" lon="-4.993767">
        <ele>816.9</ele>
        <time>2021-08-18T08:13:36Z</time>
        <sat>9</sat>
      </trkpt>
      <trkpt lat="42.366656" lon="-4.993891">
        <ele>816.6</ele>
        <time>2021-08-18T08:13:43Z</time>
        <sat>9</sat>
      </trkpt>
      <trkpt lat="42.366674" lon="-4.994006">
        <ele>816.4</ele>
        <time>2021-08-18T08:13:50Z</time>
        <sat>9</sat>
      </trkpt>
      <trkpt lat="42.366687" lon="-4.994128">
        <ele>816.3</ele>
        <time>2021-08-18T08:13:57Z</time>
        <sat>9</sat>
      </trkpt>
      <trkpt lat="42.366703" lon="-4.994244">
        <ele>816.0</ele>
        <time>2021-08-18T08:14:04Z</time>
        <sat>9</sat>
      </trkpt>
      <trkpt lat="42.366711" lon="-4.994368">
        <ele>815.9</ele>
        <time>2021-08-18T08:14:11Z</time>
        <sat>9</sat>
      </trkpt>
      <trkpt lat="42.366721" lon="-4.994490">
        <ele>815.8</ele>
        <time>2021-08-18T08:14:18Z</time>
        <sat>9</sat>
      </trkpt>
      <trkpt lat="42.366737" lon="-4.994611">
        <ele>815.7</ele>
        <time>2021-08-18T08:14:25Z</time>
        <sat>9</sat>
      </trkpt>
      <trkpt lat="42.366754" lon="-4.994734">
        <ele>815.6</ele>
        <time>2021-08-18T08:14:32Z</time>
        <sat>9</sat>
      </trkpt>
      <trkpt lat="42.366762" lon="-4.994846">
        <ele>815.4</ele>
        <time>2021-08-18T08:14:38Z</time>
        <sat>9</sat>
      </trkpt>
      <trkpt lat="42.366778" lon="-4.994970">
        <ele>815.2</ele>
        <time>2021-08-18T08:14:45Z</time>
        <sat>9</sat>
      </trkpt>
      <trkpt lat="42.366785" lon="-4.995094">
        <ele>814.9</ele>
        <time>2021-08-18T08:14:52Z</time>
        <sat>9</sat>
      </trkpt>
      <trkpt lat="42.366803" lon="-4.995206">
        <ele>814.7</ele>
        <time>2021-08-18T08:14:58Z</time>
        <sat>9</sat>
      </trkpt>
      <trkpt lat="42.366808" lon="-4.995328">
        <ele>814.4</ele>
        <time>2021-08-18T08:15:05Z</time>
        <sat>9</sat>
      </trkpt>
      <trkpt lat="42.366824" lon="-4.995437">
        <ele>814.2</ele>
        <time>2021-08-18T08:15:11Z</time>
        <sat>9</sat>
      </trkpt>
      <trkpt lat="42.366838" lon="-4.995559">
        <ele>813.9</ele>
        <time>2021-08-18T08:15:18Z</time>
        <sat>9</sat>
      </trkpt>
      <trkpt lat="42.366843" lon="-4.995670">
        <ele>813.6</ele>
        <time>2021-08-18T08:15:24Z</time>
        <sat>9</sat>
      </trkpt>
      <trkpt lat="42.366863" lon="-4.995791">
        <ele>813.0</ele>
        <time>2021-08-18T08:15:31Z</time>
        <sat>9</sat>
      </trkpt>
      <trkpt lat="42.366880" lon="-4.995910">
        <ele>812.5</ele>
        <time>2021-08-18T08:15:42Z</time>
        <sat>9</sat>
      </trkpt>
      <trkpt lat="42.366887" lon="-4.996023">
        <ele>812.3</ele>
        <time>2021-08-18T08:15:48Z</time>
        <sat>9</sat>
      </trkpt>
      <trkpt lat="42.366865" lon="-4.996141">
        <ele>812.0</ele>
        <time>2021-08-18T08:15:54Z</time>
        <sat>9</sat>
      </trkpt>
      <trkpt lat="42.366833" lon="-4.996258">
        <ele>811.6</ele>
        <time>2021-08-18T08:16:00Z</time>
        <sat>9</sat>
      </trkpt>
      <trkpt lat="42.366816" lon="-4.996365">
        <ele>810.1</ele>
        <time>2021-08-18T08:16:21Z</time>
        <sat>9</sat>
      </trkpt>
      <trkpt lat="42.366849" lon="-4.996484">
        <ele>810.0</ele>
        <time>2021-08-18T08:16:29Z</time>
        <sat>9</sat>
      </trkpt>
      <trkpt lat="42.366857" lon="-4.996599">
        <ele>809.9</ele>
        <time>2021-08-18T08:16:35Z</time>
        <sat>9</sat>
      </trkpt>
      <trkpt lat="42.366882" lon="-4.996714">
        <ele>809.9</ele>
        <time>2021-08-18T08:16:41Z</time>
        <sat>9</sat>
      </trkpt>
      <trkpt lat="42.366900" lon="-4.996824">
        <ele>809.9</ele>
        <time>2021-08-18T08:16:47Z</time>
        <sat>9</sat>
      </trkpt>
      <trkpt lat="42.366908" lon="-4.996947">
        <ele>809.8</ele>
        <time>2021-08-18T08:16:54Z</time>
        <sat>9</sat>
      </trkpt>
      <trkpt lat="42.366928" lon="-4.997055">
        <ele>809.8</ele>
        <time>2021-08-18T08:17:00Z</time>
        <sat>9</sat>
      </trkpt>
      <trkpt lat="42.366935" lon="-4.997165">
        <ele>809.8</ele>
        <time>2021-08-18T08:17:06Z</time>
        <sat>9</sat>
      </trkpt>
      <trkpt lat="42.366951" lon="-4.997284">
        <ele>809.8</ele>
        <time>2021-08-18T08:17:13Z</time>
        <sat>9</sat>
      </trkpt>
      <trkpt lat="42.366960" lon="-4.997408">
        <ele>809.8</ele>
        <time>2021-08-18T08:17:20Z</time>
        <sat>9</sat>
      </trkpt>
      <trkpt lat="42.366969" lon="-4.997527">
        <ele>809.9</ele>
        <time>2021-08-18T08:17:27Z</time>
        <sat>9</sat>
      </trkpt>
      <trkpt lat="42.366987" lon="-4.997635">
        <ele>809.9</ele>
        <time>2021-08-18T08:17:33Z</time>
        <sat>8</sat>
      </trkpt>
      <trkpt lat="42.366991" lon="-4.997758">
        <ele>809.9</ele>
        <time>2021-08-18T08:17:40Z</time>
        <sat>9</sat>
      </trkpt>
      <trkpt lat="42.367003" lon="-4.997879">
        <ele>809.7</ele>
        <time>2021-08-18T08:17:47Z</time>
        <sat>9</sat>
      </trkpt>
      <trkpt lat="42.367016" lon="-4.997988">
        <ele>809.6</ele>
        <time>2021-08-18T08:17:53Z</time>
        <sat>9</sat>
      </trkpt>
      <trkpt lat="42.367030" lon="-4.998111">
        <ele>809.6</ele>
        <time>2021-08-18T08:18:00Z</time>
        <sat>9</sat>
      </trkpt>
      <trkpt lat="42.367038" lon="-4.998232">
        <ele>809.7</ele>
        <time>2021-08-18T08:18:07Z</time>
        <sat>8</sat>
      </trkpt>
      <trkpt lat="42.367061" lon="-4.998352">
        <ele>809.6</ele>
        <time>2021-08-18T08:18:14Z</time>
        <sat>9</sat>
      </trkpt>
      <trkpt lat="42.367066" lon="-4.998462">
        <ele>809.6</ele>
        <time>2021-08-18T08:18:20Z</time>
        <sat>9</sat>
      </trkpt>
      <trkpt lat="42.367079" lon="-4.998582">
        <ele>809.5</ele>
        <time>2021-08-18T08:18:27Z</time>
        <sat>9</sat>
      </trkpt>
      <trkpt lat="42.367100" lon="-4.998705">
        <ele>809.3</ele>
        <time>2021-08-18T08:18:34Z</time>
        <sat>9</sat>
      </trkpt>
      <trkpt lat="42.367113" lon="-4.998815">
        <ele>809.4</ele>
        <time>2021-08-18T08:18:40Z</time>
        <sat>9</sat>
      </trkpt>
      <trkpt lat="42.367127" lon="-4.998940">
        <ele>809.3</ele>
        <time>2021-08-18T08:18:47Z</time>
        <sat>9</sat>
      </trkpt>
      <trkpt lat="42.367128" lon="-4.999064">
        <ele>809.2</ele>
        <time>2021-08-18T08:18:54Z</time>
        <sat>9</sat>
      </trkpt>
      <trkpt lat="42.367146" lon="-4.999186">
        <ele>809.1</ele>
        <time>2021-08-18T08:19:01Z</time>
        <sat>9</sat>
      </trkpt>
      <trkpt lat="42.367154" lon="-4.999297">
        <ele>809.1</ele>
        <time>2021-08-18T08:19:08Z</time>
        <sat>9</sat>
      </trkpt>
      <trkpt lat="42.367164" lon="-4.999408">
        <ele>808.9</ele>
        <time>2021-08-18T08:19:14Z</time>
        <sat>9</sat>
      </trkpt>
      <trkpt lat="42.367214" lon="-4.999507">
        <ele>809.0</ele>
        <time>2021-08-18T08:19:21Z</time>
        <sat>9</sat>
      </trkpt>
      <trkpt lat="42.367286" lon="-4.999587">
        <ele>809.6</ele>
        <time>2021-08-18T08:19:29Z</time>
        <sat>9</sat>
      </trkpt>
      <trkpt lat="42.367318" lon="-4.999692">
        <ele>810.2</ele>
        <time>2021-08-18T08:19:36Z</time>
        <sat>9</sat>
      </trkpt>
      <trkpt lat="42.367325" lon="-4.999808">
        <ele>810.6</ele>
        <time>2021-08-18T08:19:43Z</time>
        <sat>9</sat>
      </trkpt>
      <trkpt lat="42.367340" lon="-4.999916">
        <ele>810.9</ele>
        <time>2021-08-18T08:19:52Z</time>
        <sat>9</sat>
      </trkpt>
      <trkpt lat="42.367423" lon="-4.999952">
        <ele>810.9</ele>
        <time>2021-08-18T08:19:58Z</time>
        <sat>9</sat>
      </trkpt>
      <trkpt lat="42.367516" lon="-4.999945">
        <ele>811.0</ele>
        <time>2021-08-18T08:20:05Z</time>
        <sat>9</sat>
      </trkpt>
      <trkpt lat="42.367597" lon="-4.999943">
        <ele>810.7</ele>
        <time>2021-08-18T08:20:12Z</time>
        <sat>9</sat>
      </trkpt>
      <trkpt lat="42.367678" lon="-4.999953">
        <ele>810.5</ele>
        <time>2021-08-18T08:20:19Z</time>
        <sat>9</sat>
      </trkpt>
      <trkpt lat="42.367768" lon="-4.999924">
        <ele>810.3</ele>
        <time>2021-08-18T08:20:26Z</time>
        <sat>9</sat>
      </trkpt>
      <trkpt lat="42.367853" lon="-4.999925">
        <ele>810.1</ele>
        <time>2021-08-18T08:20:33Z</time>
        <sat>9</sat>
      </trkpt>
      <trkpt lat="42.367946" lon="-4.999904">
        <ele>809.9</ele>
        <time>2021-08-18T08:20:40Z</time>
        <sat>9</sat>
      </trkpt>
      <trkpt lat="42.368034" lon="-4.999906">
        <ele>809.9</ele>
        <time>2021-08-18T08:20:47Z</time>
        <sat>9</sat>
      </trkpt>
      <trkpt lat="42.368125" lon="-4.999896">
        <ele>809.9</ele>
        <time>2021-08-18T08:20:54Z</time>
        <sat>9</sat>
      </trkpt>
      <trkpt lat="42.368209" lon="-4.999888">
        <ele>810.0</ele>
        <time>2021-08-18T08:21:00Z</time>
        <sat>9</sat>
      </trkpt>
      <trkpt lat="42.368297" lon="-4.999866">
        <ele>810.0</ele>
        <time>2021-08-18T08:21:07Z</time>
        <sat>9</sat>
      </trkpt>
      <trkpt lat="42.368377" lon="-4.999852">
        <ele>810.0</ele>
        <time>2021-08-18T08:21:14Z</time>
        <sat>9</sat>
      </trkpt>
      <trkpt lat="42.368469" lon="-4.999843">
        <ele>810.0</ele>
        <time>2021-08-18T08:21:21Z</time>
        <sat>9</sat>
      </trkpt>
      <trkpt lat="42.368548" lon="-4.999818">
        <ele>810.0</ele>
        <time>2021-08-18T08:21:27Z</time>
        <sat>9</sat>
      </trkpt>
      <trkpt lat="42.368640" lon="-4.999799">
        <ele>810.0</ele>
        <time>2021-08-18T08:21:34Z</time>
        <sat>9</sat>
      </trkpt>
      <trkpt lat="42.368731" lon="-4.999780">
        <ele>810.0</ele>
        <time>2021-08-18T08:21:41Z</time>
        <sat>9</sat>
      </trkpt>
      <trkpt lat="42.368811" lon="-4.999769">
        <ele>810.1</ele>
        <time>2021-08-18T08:21:47Z</time>
        <sat>9</sat>
      </trkpt>
      <trkpt lat="42.368905" lon="-4.999758">
        <ele>810.2</ele>
        <time>2021-08-18T08:21:54Z</time>
        <sat>9</sat>
      </trkpt>
      <trkpt lat="42.368987" lon="-4.999750">
        <ele>810.2</ele>
        <time>2021-08-18T08:22:00Z</time>
        <sat>9</sat>
      </trkpt>
      <trkpt lat="42.369080" lon="-4.999744">
        <ele>810.3</ele>
        <time>2021-08-18T08:22:07Z</time>
        <sat>9</sat>
      </trkpt>
      <trkpt lat="42.369167" lon="-4.999726">
        <ele>810.3</ele>
        <time>2021-08-18T08:22:14Z</time>
        <sat>9</sat>
      </trkpt>
      <trkpt lat="42.369253" lon="-4.999718">
        <ele>810.4</ele>
        <time>2021-08-18T08:22:21Z</time>
        <sat>9</sat>
      </trkpt>
      <trkpt lat="42.369339" lon="-4.999705">
        <ele>810.4</ele>
        <time>2021-08-18T08:22:28Z</time>
        <sat>9</sat>
      </trkpt>
      <trkpt lat="42.369423" lon="-4.999693">
        <ele>810.6</ele>
        <time>2021-08-18T08:22:35Z</time>
        <sat>9</sat>
      </trkpt>
      <trkpt lat="42.369504" lon="-4.999679">
        <ele>810.7</ele>
        <time>2021-08-18T08:22:43Z</time>
        <sat>9</sat>
      </trkpt>
      <trkpt lat="42.369597" lon="-4.999663">
        <ele>811.1</ele>
        <time>2021-08-18T08:22:50Z</time>
        <sat>9</sat>
      </trkpt>
      <trkpt lat="42.369683" lon="-4.999646">
        <ele>811.4</ele>
        <time>2021-08-18T08:22:57Z</time>
        <sat>9</sat>
      </trkpt>
      <trkpt lat="42.369770" lon="-4.999631">
        <ele>811.5</ele>
        <time>2021-08-18T08:23:04Z</time>
        <sat>9</sat>
      </trkpt>
      <trkpt lat="42.369852" lon="-4.999629">
        <ele>811.5</ele>
        <time>2021-08-18T08:23:11Z</time>
        <sat>9</sat>
      </trkpt>
      <trkpt lat="42.369943" lon="-4.999620">
        <ele>811.6</ele>
        <time>2021-08-18T08:23:18Z</time>
        <sat>9</sat>
      </trkpt>
      <trkpt lat="42.370025" lon="-4.999605">
        <ele>811.7</ele>
        <time>2021-08-18T08:23:24Z</time>
        <sat>9</sat>
      </trkpt>
      <trkpt lat="42.370112" lon="-4.999593">
        <ele>811.7</ele>
        <time>2021-08-18T08:23:31Z</time>
        <sat>9</sat>
      </trkpt>
      <trkpt lat="42.370203" lon="-4.999571">
        <ele>811.8</ele>
        <time>2021-08-18T08:23:38Z</time>
        <sat>9</sat>
      </trkpt>
      <trkpt lat="42.370295" lon="-4.999548">
        <ele>811.8</ele>
        <time>2021-08-18T08:23:45Z</time>
        <sat>8</sat>
      </trkpt>
      <trkpt lat="42.370377" lon="-4.999538">
        <ele>811.8</ele>
        <time>2021-08-18T08:23:52Z</time>
        <sat>8</sat>
      </trkpt>
      <trkpt lat="42.370449" lon="-4.999486">
        <ele>811.7</ele>
        <time>2021-08-18T08:24:10Z</time>
        <sat>9</sat>
      </trkpt>
      <trkpt lat="42.370525" lon="-4.999535">
        <ele>811.2</ele>
        <time>2021-08-18T08:24:28Z</time>
        <sat>9</sat>
      </trkpt>
      <trkpt lat="42.370569" lon="-4.999636">
        <ele>811.3</ele>
        <time>2021-08-18T08:24:52Z</time>
        <sat>9</sat>
      </trkpt>
      <trkpt lat="42.370594" lon="-4.999744">
        <ele>811.3</ele>
        <time>2021-08-18T08:24:59Z</time>
        <sat>9</sat>
      </trkpt>
      <trkpt lat="42.370632" lon="-4.999852">
        <ele>810.9</ele>
        <time>2021-08-18T08:25:15Z</time>
        <sat>9</sat>
      </trkpt>
      <trkpt lat="42.370670" lon="-4.999827">
        <ele>811.9</ele>
        <time>2021-08-18T08:46:42Z</time>
        <sat>10</sat>
      </trkpt>
      <trkpt lat="42.370737" lon="-4.999889">
        <ele>811.9</ele>
        <time>2021-08-18T08:46:51Z</time>
        <sat>9</sat>
      </trkpt>
      <trkpt lat="42.370674" lon="-4.999975">
        <ele>811.8</ele>
        <time>2021-08-18T08:48:22Z</time>
        <sat>10</sat>
      </trkpt>
      <trkpt lat="42.370613" lon="-5.000061">
        <ele>812.1</ele>
        <time>2021-08-18T08:48:33Z</time>
        <sat>10</sat>
      </trkpt>
      <trkpt lat="42.370551" lon="-5.000143">
        <ele>812.4</ele>
        <time>2021-08-18T08:48:42Z</time>
        <sat>10</sat>
      </trkpt>
      <trkpt lat="42.370492" lon="-5.000228">
        <ele>812.3</ele>
        <time>2021-08-18T08:48:52Z</time>
        <sat>10</sat>
      </trkpt>
      <trkpt lat="42.370432" lon="-5.000306">
        <ele>812.3</ele>
        <time>2021-08-18T08:49:00Z</time>
        <sat>10</sat>
      </trkpt>
      <trkpt lat="42.370364" lon="-5.000380">
        <ele>812.2</ele>
        <time>2021-08-18T08:49:09Z</time>
        <sat>10</sat>
      </trkpt>
      <trkpt lat="42.370301" lon="-5.000451">
        <ele>812.2</ele>
        <time>2021-08-18T08:49:20Z</time>
        <sat>10</sat>
      </trkpt>
      <trkpt lat="42.370238" lon="-5.000534">
        <ele>812.2</ele>
        <time>2021-08-18T08:49:28Z</time>
        <sat>10</sat>
      </trkpt>
      <trkpt lat="42.370169" lon="-5.000601">
        <ele>812.2</ele>
        <time>2021-08-18T08:49:35Z</time>
        <sat>10</sat>
      </trkpt>
      <trkpt lat="42.370109" lon="-5.000679">
        <ele>812.2</ele>
        <time>2021-08-18T08:49:42Z</time>
        <sat>10</sat>
      </trkpt>
      <trkpt lat="42.370045" lon="-5.000767">
        <ele>812.4</ele>
        <time>2021-08-18T08:49:50Z</time>
        <sat>10</sat>
      </trkpt>
      <trkpt lat="42.369977" lon="-5.000843">
        <ele>812.3</ele>
        <time>2021-08-18T08:49:57Z</time>
        <sat>10</sat>
      </trkpt>
      <trkpt lat="42.369918" lon="-5.000924">
        <ele>812.1</ele>
        <time>2021-08-18T08:50:04Z</time>
        <sat>10</sat>
      </trkpt>
      <trkpt lat="42.369858" lon="-5.001018">
        <ele>812.1</ele>
        <time>2021-08-18T08:50:12Z</time>
        <sat>10</sat>
      </trkpt>
      <trkpt lat="42.369809" lon="-5.001108">
        <ele>812.1</ele>
        <time>2021-08-18T08:50:19Z</time>
        <sat>10</sat>
      </trkpt>
      <trkpt lat="42.369761" lon="-5.001204">
        <ele>812.1</ele>
        <time>2021-08-18T08:50:26Z</time>
        <sat>10</sat>
      </trkpt>
      <trkpt lat="42.369731" lon="-5.001306">
        <ele>812.2</ele>
        <time>2021-08-18T08:50:35Z</time>
        <sat>9</sat>
      </trkpt>
      <trkpt lat="42.369722" lon="-5.001425">
        <ele>812.5</ele>
        <time>2021-08-18T08:51:39Z</time>
        <sat>10</sat>
      </trkpt>
      <trkpt lat="42.369692" lon="-5.001533">
        <ele>812.4</ele>
        <time>2021-08-18T08:51:46Z</time>
        <sat>10</sat>
      </trkpt>
      <trkpt lat="42.369669" lon="-5.001642">
        <ele>812.3</ele>
        <time>2021-08-18T08:51:53Z</time>
        <sat>10</sat>
      </trkpt>
      <trkpt lat="42.369640" lon="-5.001760">
        <ele>812.3</ele>
        <time>2021-08-18T08:52:01Z</time>
        <sat>10</sat>
      </trkpt>
      <trkpt lat="42.369614" lon="-5.001874">
        <ele>812.2</ele>
        <time>2021-08-18T08:52:08Z</time>
        <sat>10</sat>
      </trkpt>
      <trkpt lat="42.369589" lon="-5.001991">
        <ele>812.0</ele>
        <time>2021-08-18T08:52:15Z</time>
        <sat>11</sat>
      </trkpt>
      <trkpt lat="42.369557" lon="-5.002095">
        <ele>812.1</ele>
        <time>2021-08-18T08:52:22Z</time>
        <sat>10</sat>
      </trkpt>
      <trkpt lat="42.369538" lon="-5.002213">
        <ele>812.1</ele>
        <time>2021-08-18T08:52:29Z</time>
        <sat>11</sat>
      </trkpt>
      <trkpt lat="42.369512" lon="-5.002328">
        <ele>812.0</ele>
        <time>2021-08-18T08:52:36Z</time>
        <sat>10</sat>
      </trkpt>
      <trkpt lat="42.369493" lon="-5.002448">
        <ele>811.9</ele>
        <time>2021-08-18T08:52:43Z</time>
        <sat>11</sat>
      </trkpt>
      <trkpt lat="42.369479" lon="-5.002568">
        <ele>811.8</ele>
        <time>2021-08-18T08:52:50Z</time>
        <sat>11</sat>
      </trkpt>
      <trkpt lat="42.369466" lon="-5.002686">
        <ele>811.7</ele>
        <time>2021-08-18T08:52:57Z</time>
        <sat>11</sat>
      </trkpt>
      <trkpt lat="42.369458" lon="-5.002809">
        <ele>811.8</ele>
        <time>2021-08-18T08:53:04Z</time>
        <sat>11</sat>
      </trkpt>
      <trkpt lat="42.369452" lon="-5.002928">
        <ele>811.7</ele>
        <time>2021-08-18T08:53:11Z</time>
        <sat>10</sat>
      </trkpt>
      <trkpt lat="42.369453" lon="-5.003047">
        <ele>811.6</ele>
        <time>2021-08-18T08:53:18Z</time>
        <sat>10</sat>
      </trkpt>
      <trkpt lat="42.369451" lon="-5.003170">
        <ele>811.6</ele>
        <time>2021-08-18T08:53:25Z</time>
        <sat>11</sat>
      </trkpt>
      <trkpt lat="42.369457" lon="-5.003294">
        <ele>811.7</ele>
        <time>2021-08-18T08:53:33Z</time>
        <sat>11</sat>
      </trkpt>
      <trkpt lat="42.369460" lon="-5.003411">
        <ele>811.7</ele>
        <time>2021-08-18T08:53:40Z</time>
        <sat>11</sat>
      </trkpt>
      <trkpt lat="42.369470" lon="-5.003530">
        <ele>811.7</ele>
        <time>2021-08-18T08:53:47Z</time>
        <sat>11</sat>
      </trkpt>
      <trkpt lat="42.369473" lon="-5.003652">
        <ele>811.8</ele>
        <time>2021-08-18T08:53:54Z</time>
        <sat>11</sat>
      </trkpt>
      <trkpt lat="42.369476" lon="-5.003776">
        <ele>811.9</ele>
        <time>2021-08-18T08:54:02Z</time>
        <sat>11</sat>
      </trkpt>
      <trkpt lat="42.369477" lon="-5.003898">
        <ele>811.8</ele>
        <time>2021-08-18T08:54:09Z</time>
        <sat>11</sat>
      </trkpt>
      <trkpt lat="42.369469" lon="-5.004017">
        <ele>811.9</ele>
        <time>2021-08-18T08:54:16Z</time>
        <sat>11</sat>
      </trkpt>
      <trkpt lat="42.369468" lon="-5.004137">
        <ele>811.9</ele>
        <time>2021-08-18T08:54:23Z</time>
        <sat>11</sat>
      </trkpt>
      <trkpt lat="42.369467" lon="-5.004261">
        <ele>811.9</ele>
        <time>2021-08-18T08:54:30Z</time>
        <sat>10</sat>
      </trkpt>
      <trkpt lat="42.369462" lon="-5.004380">
        <ele>811.9</ele>
        <time>2021-08-18T08:54:37Z</time>
        <sat>11</sat>
      </trkpt>
      <trkpt lat="42.369462" lon="-5.004495">
        <ele>811.9</ele>
        <time>2021-08-18T08:54:44Z</time>
        <sat>11</sat>
      </trkpt>
      <trkpt lat="42.369467" lon="-5.004615">
        <ele>812.0</ele>
        <time>2021-08-18T08:54:51Z</time>
        <sat>11</sat>
      </trkpt>
      <trkpt lat="42.369464" lon="-5.004735">
        <ele>812.0</ele>
        <time>2021-08-18T08:54:58Z</time>
        <sat>11</sat>
      </trkpt>
      <trkpt lat="42.369460" lon="-5.004855">
        <ele>812.2</ele>
        <time>2021-08-18T08:55:05Z</time>
        <sat>10</sat>
      </trkpt>
      <trkpt lat="42.369457" lon="-5.004978">
        <ele>812.3</ele>
        <time>2021-08-18T08:55:12Z</time>
        <sat>11</sat>
      </trkpt>
      <trkpt lat="42.369460" lon="-5.005094">
        <ele>812.5</ele>
        <time>2021-08-18T08:55:19Z</time>
        <sat>10</sat>
      </trkpt>
      <trkpt lat="42.369452" lon="-5.005212">
        <ele>812.6</ele>
        <time>2021-08-18T08:55:26Z</time>
        <sat>11</sat>
      </trkpt>
      <trkpt lat="42.369448" lon="-5.005333">
        <ele>812.6</ele>
        <time>2021-08-18T08:55:34Z</time>
        <sat>10</sat>
      </trkpt>
      <trkpt lat="42.369442" lon="-5.005443">
        <ele>812.6</ele>
        <time>2021-08-18T08:55:40Z</time>
        <sat>11</sat>
      </trkpt>
      <trkpt lat="42.369441" lon="-5.005560">
        <ele>812.7</ele>
        <time>2021-08-18T08:55:48Z</time>
        <sat>10</sat>
      </trkpt>
      <trkpt lat="42.369436" lon="-5.005682">
        <ele>812.8</ele>
        <time>2021-08-18T08:55:55Z</time>
        <sat>10</sat>
      </trkpt>
      <trkpt lat="42.369442" lon="-5.005800">
        <ele>812.8</ele>
        <time>2021-08-18T08:56:02Z</time>
        <sat>10</sat>
      </trkpt>
      <trkpt lat="42.369440" lon="-5.005919">
        <ele>812.9</ele>
        <time>2021-08-18T08:56:09Z</time>
        <sat>10</sat>
      </trkpt>
      <trkpt lat="42.369436" lon="-5.006040">
        <ele>813.0</ele>
        <time>2021-08-18T08:56:16Z</time>
        <sat>11</sat>
      </trkpt>
      <trkpt lat="42.369437" lon="-5.006160">
        <ele>813.0</ele>
        <time>2021-08-18T08:56:23Z</time>
        <sat>10</sat>
      </trkpt>
      <trkpt lat="42.369440" lon="-5.006283">
        <ele>813.0</ele>
        <time>2021-08-18T08:56:30Z</time>
        <sat>11</sat>
      </trkpt>
      <trkpt lat="42.369450" lon="-5.006398">
        <ele>813.0</ele>
        <time>2021-08-18T08:56:37Z</time>
        <sat>10</sat>
      </trkpt>
      <trkpt lat="42.369465" lon="-5.006519">
        <ele>813.0</ele>
        <time>2021-08-18T08:56:44Z</time>
        <sat>10</sat>
      </trkpt>
      <trkpt lat="42.369470" lon="-5.006644">
        <ele>813.1</ele>
        <time>2021-08-18T08:56:51Z</time>
        <sat>10</sat>
      </trkpt>
      <trkpt lat="42.369484" lon="-5.006762">
        <ele>813.1</ele>
        <time>2021-08-18T08:56:58Z</time>
        <sat>10</sat>
      </trkpt>
      <trkpt lat="42.369505" lon="-5.006879">
        <ele>813.3</ele>
        <time>2021-08-18T08:57:05Z</time>
        <sat>10</sat>
      </trkpt>
      <trkpt lat="42.369517" lon="-5.007003">
        <ele>813.6</ele>
        <time>2021-08-18T08:57:12Z</time>
        <sat>10</sat>
      </trkpt>
      <trkpt lat="42.369536" lon="-5.007126">
        <ele>813.7</ele>
        <time>2021-08-18T08:57:19Z</time>
        <sat>10</sat>
      </trkpt>
      <trkpt lat="42.369550" lon="-5.007246">
        <ele>813.5</ele>
        <time>2021-08-18T08:57:26Z</time>
        <sat>11</sat>
      </trkpt>
      <trkpt lat="42.369566" lon="-5.007366">
        <ele>813.5</ele>
        <time>2021-08-18T08:57:33Z</time>
        <sat>10</sat>
      </trkpt>
      <trkpt lat="42.369591" lon="-5.007483">
        <ele>813.4</ele>
        <time>2021-08-18T08:57:40Z</time>
        <sat>10</sat>
      </trkpt>
      <trkpt lat="42.369605" lon="-5.007608">
        <ele>813.5</ele>
        <time>2021-08-18T08:57:47Z</time>
        <sat>10</sat>
      </trkpt>
      <trkpt lat="42.369632" lon="-5.007725">
        <ele>813.7</ele>
        <time>2021-08-18T08:57:54Z</time>
        <sat>10</sat>
      </trkpt>
      <trkpt lat="42.369646" lon="-5.007850">
        <ele>813.7</ele>
        <time>2021-08-18T08:58:01Z</time>
        <sat>11</sat>
      </trkpt>
      <trkpt lat="42.369669" lon="-5.007971">
        <ele>813.9</ele>
        <time>2021-08-18T08:58:08Z</time>
        <sat>10</sat>
      </trkpt>
      <trkpt lat="42.369691" lon="-5.008089">
        <ele>814.1</ele>
        <time>2021-08-18T08:58:15Z</time>
        <sat>10</sat>
      </trkpt>
      <trkpt lat="42.369707" lon="-5.008202">
        <ele>814.3</ele>
        <time>2021-08-18T08:58:22Z</time>
        <sat>10</sat>
      </trkpt>
      <trkpt lat="42.369722" lon="-5.008310">
        <ele>814.5</ele>
        <time>2021-08-18T08:58:37Z</time>
        <sat>10</sat>
      </trkpt>
      <trkpt lat="42.369739" lon="-5.008431">
        <ele>814.5</ele>
        <time>2021-08-18T08:58:44Z</time>
        <sat>10</sat>
      </trkpt>
      <trkpt lat="42.369752" lon="-5.008539">
        <ele>814.1</ele>
        <time>2021-08-18T08:58:50Z</time>
        <sat>10</sat>
      </trkpt>
      <trkpt lat="42.369762" lon="-5.008654">
        <ele>810.5</ele>
        <time>2021-08-18T08:58:59Z</time>
        <sat>10</sat>
      </trkpt>
      <trkpt lat="42.369777" lon="-5.008763">
        <ele>816.4</ele>
        <time>2021-08-18T08:59:06Z</time>
        <sat>10</sat>
      </trkpt>
      <trkpt lat="42.369792" lon="-5.008878">
        <ele>816.6</ele>
        <time>2021-08-18T08:59:13Z</time>
        <sat>10</sat>
      </trkpt>
      <trkpt lat="42.369798" lon="-5.009000">
        <ele>816.1</ele>
        <time>2021-08-18T08:59:20Z</time>
        <sat>10</sat>
      </trkpt>
      <trkpt lat="42.369812" lon="-5.009121">
        <ele>815.9</ele>
        <time>2021-08-18T08:59:27Z</time>
        <sat>10</sat>
      </trkpt>
      <trkpt lat="42.369825" lon="-5.009230">
        <ele>815.8</ele>
        <time>2021-08-18T08:59:33Z</time>
        <sat>10</sat>
      </trkpt>
      <trkpt lat="42.369827" lon="-5.009348">
        <ele>815.9</ele>
        <time>2021-08-18T08:59:41Z</time>
        <sat>10</sat>
      </trkpt>
      <trkpt lat="42.369844" lon="-5.009460">
        <ele>816.1</ele>
        <time>2021-08-18T08:59:47Z</time>
        <sat>10</sat>
      </trkpt>
      <trkpt lat="42.369844" lon="-5.009587">
        <ele>816.3</ele>
        <time>2021-08-18T08:59:54Z</time>
        <sat>10</sat>
      </trkpt>
      <trkpt lat="42.369862" lon="-5.009711">
        <ele>816.5</ele>
        <time>2021-08-18T09:00:01Z</time>
        <sat>10</sat>
      </trkpt>
      <trkpt lat="42.369868" lon="-5.009836">
        <ele>816.8</ele>
        <time>2021-08-18T09:00:08Z</time>
        <sat>10</sat>
      </trkpt>
      <trkpt lat="42.369876" lon="-5.009962">
        <ele>817.0</ele>
        <time>2021-08-18T09:00:15Z</time>
        <sat>10</sat>
      </trkpt>
      <trkpt lat="42.369883" lon="-5.010088">
        <ele>817.2</ele>
        <time>2021-08-18T09:00:22Z</time>
        <sat>10</sat>
      </trkpt>
      <trkpt lat="42.369894" lon="-5.010200">
        <ele>817.4</ele>
        <time>2021-08-18T09:00:28Z</time>
        <sat>10</sat>
      </trkpt>
      <trkpt lat="42.369895" lon="-5.010325">
        <ele>817.6</ele>
        <time>2021-08-18T09:00:35Z</time>
        <sat>10</sat>
      </trkpt>
      <trkpt lat="42.369910" lon="-5.010449">
        <ele>817.7</ele>
        <time>2021-08-18T09:00:42Z</time>
        <sat>10</sat>
      </trkpt>
      <trkpt lat="42.369916" lon="-5.010560">
        <ele>817.9</ele>
        <time>2021-08-18T09:00:48Z</time>
        <sat>10</sat>
      </trkpt>
      <trkpt lat="42.369929" lon="-5.010683">
        <ele>818.2</ele>
        <time>2021-08-18T09:00:55Z</time>
        <sat>10</sat>
      </trkpt>
      <trkpt lat="42.369936" lon="-5.010809">
        <ele>818.3</ele>
        <time>2021-08-18T09:01:02Z</time>
        <sat>10</sat>
      </trkpt>
      <trkpt lat="42.369942" lon="-5.010934">
        <ele>818.5</ele>
        <time>2021-08-18T09:01:09Z</time>
        <sat>10</sat>
      </trkpt>
      <trkpt lat="42.369953" lon="-5.011056">
        <ele>818.7</ele>
        <time>2021-08-18T09:01:16Z</time>
        <sat>10</sat>
      </trkpt>
      <trkpt lat="42.369958" lon="-5.011181">
        <ele>818.9</ele>
        <time>2021-08-18T09:01:23Z</time>
        <sat>10</sat>
      </trkpt>
      <trkpt lat="42.369968" lon="-5.011301">
        <ele>819.0</ele>
        <time>2021-08-18T09:01:30Z</time>
        <sat>10</sat>
      </trkpt>
      <trkpt lat="42.369967" lon="-5.011427">
        <ele>819.1</ele>
        <time>2021-08-18T09:01:37Z</time>
        <sat>10</sat>
      </trkpt>
      <trkpt lat="42.369974" lon="-5.011550">
        <ele>819.1</ele>
        <time>2021-08-18T09:01:44Z</time>
        <sat>10</sat>
      </trkpt>
      <trkpt lat="42.369977" lon="-5.011660">
        <ele>819.2</ele>
        <time>2021-08-18T09:01:50Z</time>
        <sat>10</sat>
      </trkpt>
      <trkpt lat="42.369979" lon="-5.011780">
        <ele>819.2</ele>
        <time>2021-08-18T09:01:57Z</time>
        <sat>10</sat>
      </trkpt>
      <trkpt lat="42.369978" lon="-5.011907">
        <ele>819.2</ele>
        <time>2021-08-18T09:02:04Z</time>
        <sat>10</sat>
      </trkpt>
      <trkpt lat="42.369974" lon="-5.012029">
        <ele>819.2</ele>
        <time>2021-08-18T09:02:11Z</time>
        <sat>10</sat>
      </trkpt>
      <trkpt lat="42.369995" lon="-5.012145">
        <ele>819.4</ele>
        <time>2021-08-18T09:02:18Z</time>
        <sat>9</sat>
      </trkpt>
      <trkpt lat="42.370051" lon="-5.012239">
        <ele>819.5</ele>
        <time>2021-08-18T09:02:25Z</time>
        <sat>9</sat>
      </trkpt>
      <trkpt lat="42.370121" lon="-5.012325">
        <ele>819.9</ele>
        <time>2021-08-18T09:02:32Z</time>
        <sat>9</sat>
      </trkpt>
      <trkpt lat="42.370175" lon="-5.012421">
        <ele>820.0</ele>
        <time>2021-08-18T09:02:39Z</time>
        <sat>11</sat>
      </trkpt>
      <trkpt lat="42.370225" lon="-5.012521">
        <ele>820.1</ele>
        <time>2021-08-18T09:02:46Z</time>
        <sat>11</sat>
      </trkpt>
      <trkpt lat="42.370266" lon="-5.012628">
        <ele>820.2</ele>
        <time>2021-08-18T09:02:53Z</time>
        <sat>12</sat>
      </trkpt>
      <trkpt lat="42.370266" lon="-5.012742">
        <ele>820.3</ele>
        <time>2021-08-18T09:03:00Z</time>
        <sat>11</sat>
      </trkpt>
      <trkpt lat="42.370218" lon="-5.012837">
        <ele>820.3</ele>
        <time>2021-08-18T09:03:07Z</time>
        <sat>9</sat>
      </trkpt>
      <trkpt lat="42.370147" lon="-5.012907">
        <ele>820.4</ele>
        <time>2021-08-18T09:03:14Z</time>
        <sat>10</sat>
      </trkpt>
      <trkpt lat="42.370106" lon="-5.013009">
        <ele>821.5</ele>
        <time>2021-08-18T09:04:55Z</time>
        <sat>10</sat>
      </trkpt>
      <trkpt lat="42.370062" lon="-5.013107">
        <ele>821.5</ele>
        <time>2021-08-18T09:05:02Z</time>
        <sat>11</sat>
      </trkpt>
      <trkpt lat="42.370052" lon="-5.013222">
        <ele>821.6</ele>
        <time>2021-08-18T09:05:09Z</time>
        <sat>12</sat>
      </trkpt>
      <trkpt lat="42.370054" lon="-5.013345">
        <ele>821.4</ele>
        <time>2021-08-18T09:05:18Z</time>
        <sat>12</sat>
      </trkpt>
      <trkpt lat="42.370068" lon="-5.013460">
        <ele>821.2</ele>
        <time>2021-08-18T09:05:25Z</time>
        <sat>12</sat>
      </trkpt>
      <trkpt lat="42.370086" lon="-5.013576">
        <ele>821.1</ele>
        <time>2021-08-18T09:05:32Z</time>
        <sat>12</sat>
      </trkpt>
      <trkpt lat="42.370098" lon="-5.013686">
        <ele>821.1</ele>
        <time>2021-08-18T09:05:39Z</time>
        <sat>12</sat>
      </trkpt>
      <trkpt lat="42.370107" lon="-5.013798">
        <ele>821.0</ele>
        <time>2021-08-18T09:05:48Z</time>
        <sat>12</sat>
      </trkpt>
      <trkpt lat="42.370121" lon="-5.013908">
        <ele>821.0</ele>
        <time>2021-08-18T09:05:55Z</time>
        <sat>12</sat>
      </trkpt>
      <trkpt lat="42.370132" lon="-5.014022">
        <ele>821.1</ele>
        <time>2021-08-18T09:06:02Z</time>
        <sat>11</sat>
      </trkpt>
      <trkpt lat="42.370140" lon="-5.014142">
        <ele>821.1</ele>
        <time>2021-08-18T09:06:09Z</time>
        <sat>11</sat>
      </trkpt>
      <trkpt lat="42.370149" lon="-5.014257">
        <ele>821.2</ele>
        <time>2021-08-18T09:06:17Z</time>
        <sat>12</sat>
      </trkpt>
      <trkpt lat="42.370140" lon="-5.014377">
        <ele>821.3</ele>
        <time>2021-08-18T09:06:24Z</time>
        <sat>12</sat>
      </trkpt>
      <trkpt lat="42.370133" lon="-5.014491">
        <ele>821.4</ele>
        <time>2021-08-18T09:06:31Z</time>
        <sat>12</sat>
      </trkpt>
      <trkpt lat="42.370127" lon="-5.014606">
        <ele>821.6</ele>
        <time>2021-08-18T09:06:38Z</time>
        <sat>12</sat>
      </trkpt>
      <trkpt lat="42.370118" lon="-5.014722">
        <ele>821.7</ele>
        <time>2021-08-18T09:06:45Z</time>
        <sat>12</sat>
      </trkpt>
      <trkpt lat="42.370097" lon="-5.014843">
        <ele>821.7</ele>
        <time>2021-08-18T09:06:52Z</time>
        <sat>11</sat>
      </trkpt>
      <trkpt lat="42.370079" lon="-5.014956">
        <ele>821.6</ele>
        <time>2021-08-18T09:06:59Z</time>
        <sat>12</sat>
      </trkpt>
      <trkpt lat="42.370062" lon="-5.015071">
        <ele>821.7</ele>
        <time>2021-08-18T09:07:06Z</time>
        <sat>12</sat>
      </trkpt>
      <trkpt lat="42.370052" lon="-5.015189">
        <ele>821.8</ele>
        <time>2021-08-18T09:07:13Z</time>
        <sat>12</sat>
      </trkpt>
      <trkpt lat="42.370032" lon="-5.015309">
        <ele>821.7</ele>
        <time>2021-08-18T09:07:20Z</time>
        <sat>12</sat>
      </trkpt>
      <trkpt lat="42.370016" lon="-5.015430">
        <ele>821.8</ele>
        <time>2021-08-18T09:07:27Z</time>
        <sat>12</sat>
      </trkpt>
      <trkpt lat="42.369998" lon="-5.015548">
        <ele>822.0</ele>
        <time>2021-08-18T09:07:34Z</time>
        <sat>12</sat>
      </trkpt>
      <trkpt lat="42.370004" lon="-5.015668">
        <ele>822.1</ele>
        <time>2021-08-18T09:07:41Z</time>
        <sat>12</sat>
      </trkpt>
      <trkpt lat="42.370001" lon="-5.015790">
        <ele>822.4</ele>
        <time>2021-08-18T09:07:48Z</time>
        <sat>12</sat>
      </trkpt>
      <trkpt lat="42.369995" lon="-5.015901">
        <ele>822.8</ele>
        <time>2021-08-18T09:07:55Z</time>
        <sat>12</sat>
      </trkpt>
      <trkpt lat="42.369993" lon="-5.016023">
        <ele>823.1</ele>
        <time>2021-08-18T09:08:02Z</time>
        <sat>12</sat>
      </trkpt>
      <trkpt lat="42.369998" lon="-5.016148">
        <ele>823.5</ele>
        <time>2021-08-18T09:08:09Z</time>
        <sat>12</sat>
      </trkpt>
      <trkpt lat="42.370013" lon="-5.016266">
        <ele>823.7</ele>
        <time>2021-08-18T09:08:16Z</time>
        <sat>11</sat>
      </trkpt>
      <trkpt lat="42.370022" lon="-5.016384">
        <ele>823.9</ele>
        <time>2021-08-18T09:08:23Z</time>
        <sat>12</sat>
      </trkpt>
      <trkpt lat="42.370026" lon="-5.016505">
        <ele>824.0</ele>
        <time>2021-08-18T09:08:30Z</time>
        <sat>11</sat>
      </trkpt>
      <trkpt lat="42.370027" lon="-5.016622">
        <ele>824.1</ele>
        <time>2021-08-18T09:08:37Z</time>
        <sat>12</sat>
      </trkpt>
      <trkpt lat="42.370028" lon="-5.016739">
        <ele>824.0</ele>
        <time>2021-08-18T09:08:44Z</time>
        <sat>12</sat>
      </trkpt>
      <trkpt lat="42.370027" lon="-5.016853">
        <ele>824.0</ele>
        <time>2021-08-18T09:08:51Z</time>
        <sat>11</sat>
      </trkpt>
      <trkpt lat="42.370029" lon="-5.016967">
        <ele>824.2</ele>
        <time>2021-08-18T09:08:58Z</time>
        <sat>11</sat>
      </trkpt>
      <trkpt lat="42.370030" lon="-5.017087">
        <ele>824.3</ele>
        <time>2021-08-18T09:09:05Z</time>
        <sat>11</sat>
      </trkpt>
      <trkpt lat="42.370032" lon="-5.017199">
        <ele>824.4</ele>
        <time>2021-08-18T09:09:12Z</time>
        <sat>11</sat>
      </trkpt>
      <trkpt lat="42.370038" lon="-5.017320">
        <ele>824.4</ele>
        <time>2021-08-18T09:09:19Z</time>
        <sat>12</sat>
      </trkpt>
      <trkpt lat="42.370041" lon="-5.017434">
        <ele>824.4</ele>
        <time>2021-08-18T09:09:26Z</time>
        <sat>12</sat>
      </trkpt>
      <trkpt lat="42.370039" lon="-5.017560">
        <ele>824.5</ele>
        <time>2021-08-18T09:09:34Z</time>
        <sat>12</sat>
      </trkpt>
      <trkpt lat="42.370034" lon="-5.017677">
        <ele>824.6</ele>
        <time>2021-08-18T09:09:42Z</time>
        <sat>11</sat>
      </trkpt>
      <trkpt lat="42.370034" lon="-5.017801">
        <ele>824.7</ele>
        <time>2021-08-18T09:09:50Z</time>
        <sat>11</sat>
      </trkpt>
      <trkpt lat="42.370034" lon="-5.017916">
        <ele>824.8</ele>
        <time>2021-08-18T09:09:57Z</time>
        <sat>12</sat>
      </trkpt>
      <trkpt lat="42.370036" lon="-5.018030">
        <ele>824.9</ele>
        <time>2021-08-18T09:10:04Z</time>
        <sat>12</sat>
      </trkpt>
      <trkpt lat="42.370031" lon="-5.018141">
        <ele>825.0</ele>
        <time>2021-08-18T09:10:11Z</time>
        <sat>12</sat>
      </trkpt>
      <trkpt lat="42.370037" lon="-5.018258">
        <ele>825.3</ele>
        <time>2021-08-18T09:10:18Z</time>
        <sat>12</sat>
      </trkpt>
      <trkpt lat="42.370048" lon="-5.018377">
        <ele>825.4</ele>
        <time>2021-08-18T09:10:25Z</time>
        <sat>12</sat>
      </trkpt>
      <trkpt lat="42.370054" lon="-5.018486">
        <ele>825.6</ele>
        <time>2021-08-18T09:10:32Z</time>
        <sat>12</sat>
      </trkpt>
      <trkpt lat="42.370056" lon="-5.018596">
        <ele>825.7</ele>
        <time>2021-08-18T09:10:39Z</time>
        <sat>12</sat>
      </trkpt>
      <trkpt lat="42.370059" lon="-5.018708">
        <ele>825.7</ele>
        <time>2021-08-18T09:10:46Z</time>
        <sat>12</sat>
      </trkpt>
      <trkpt lat="42.370066" lon="-5.018832">
        <ele>825.8</ele>
        <time>2021-08-18T09:10:54Z</time>
        <sat>12</sat>
      </trkpt>
      <trkpt lat="42.370072" lon="-5.018945">
        <ele>825.8</ele>
        <time>2021-08-18T09:11:01Z</time>
        <sat>12</sat>
      </trkpt>
      <trkpt lat="42.370078" lon="-5.019071">
        <ele>825.9</ele>
        <time>2021-08-18T09:11:09Z</time>
        <sat>11</sat>
      </trkpt>
      <trkpt lat="42.370089" lon="-5.019182">
        <ele>826.0</ele>
        <time>2021-08-18T09:11:16Z</time>
        <sat>12</sat>
      </trkpt>
      <trkpt lat="42.370091" lon="-5.019305">
        <ele>826.1</ele>
        <time>2021-08-18T09:11:24Z</time>
        <sat>12</sat>
      </trkpt>
      <trkpt lat="42.370106" lon="-5.019428">
        <ele>826.2</ele>
        <time>2021-08-18T09:11:32Z</time>
        <sat>11</sat>
      </trkpt>
      <trkpt lat="42.370111" lon="-5.019547">
        <ele>826.3</ele>
        <time>2021-08-18T09:11:40Z</time>
        <sat>11</sat>
      </trkpt>
      <trkpt lat="42.370115" lon="-5.019671">
        <ele>826.5</ele>
        <time>2021-08-18T09:11:48Z</time>
        <sat>12</sat>
      </trkpt>
      <trkpt lat="42.370131" lon="-5.019793">
        <ele>826.7</ele>
        <time>2021-08-18T09:11:56Z</time>
        <sat>11</sat>
      </trkpt>
      <trkpt lat="42.370113" lon="-5.019906">
        <ele>827.0</ele>
        <time>2021-08-18T09:12:05Z</time>
        <sat>11</sat>
      </trkpt>
      <trkpt lat="42.370103" lon="-5.020018">
        <ele>827.3</ele>
        <time>2021-08-18T09:12:13Z</time>
        <sat>8</sat>
      </trkpt>
      <trkpt lat="42.370105" lon="-5.020133">
        <ele>828.6</ele>
        <time>2021-08-18T09:12:24Z</time>
        <sat>8</sat>
      </trkpt>
      <trkpt lat="42.370125" lon="-5.020243">
        <ele>826.4</ele>
        <time>2021-08-18T09:12:34Z</time>
        <sat>9</sat>
      </trkpt>
      <trkpt lat="42.370132" lon="-5.020356">
        <ele>828.3</ele>
        <time>2021-08-18T09:12:42Z</time>
        <sat>8</sat>
      </trkpt>
      <trkpt lat="42.370149" lon="-5.020471">
        <ele>828.8</ele>
        <time>2021-08-18T09:12:50Z</time>
        <sat>8</sat>
      </trkpt>
      <trkpt lat="42.370150" lon="-5.020588">
        <ele>828.8</ele>
        <time>2021-08-18T09:12:58Z</time>
        <sat>8</sat>
      </trkpt>
      <trkpt lat="42.370168" lon="-5.020697">
        <ele>828.8</ele>
        <time>2021-08-18T09:13:08Z</time>
        <sat>9</sat>
      </trkpt>
      <trkpt lat="42.370162" lon="-5.020818">
        <ele>829.2</ele>
        <time>2021-08-18T09:13:16Z</time>
        <sat>8</sat>
      </trkpt>
      <trkpt lat="42.370148" lon="-5.020939">
        <ele>829.5</ele>
        <time>2021-08-18T09:13:24Z</time>
        <sat>10</sat>
      </trkpt>
      <trkpt lat="42.370146" lon="-5.021063">
        <ele>829.7</ele>
        <time>2021-08-18T09:13:32Z</time>
        <sat>10</sat>
      </trkpt>
      <trkpt lat="42.370150" lon="-5.021188">
        <ele>829.9</ele>
        <time>2021-08-18T09:13:40Z</time>
        <sat>10</sat>
      </trkpt>
      <trkpt lat="42.370148" lon="-5.021305">
        <ele>830.2</ele>
        <time>2021-08-18T09:13:48Z</time>
        <sat>10</sat>
      </trkpt>
      <trkpt lat="42.370139" lon="-5.021415">
        <ele>830.9</ele>
        <time>2021-08-18T09:14:02Z</time>
        <sat>10</sat>
      </trkpt>
      <trkpt lat="42.370134" lon="-5.021535">
        <ele>831.1</ele>
        <time>2021-08-18T09:14:09Z</time>
        <sat>11</sat>
      </trkpt>
      <trkpt lat="42.370161" lon="-5.021644">
        <ele>831.0</ele>
        <time>2021-08-18T09:14:16Z</time>
        <sat>11</sat>
      </trkpt>
      <trkpt lat="42.370208" lon="-5.021743">
        <ele>830.8</ele>
        <time>2021-08-18T09:14:28Z</time>
        <sat>10</sat>
      </trkpt>
      <trkpt lat="42.370207" lon="-5.021854">
        <ele>830.9</ele>
        <time>2021-08-18T09:14:36Z</time>
        <sat>10</sat>
      </trkpt>
      <trkpt lat="42.370193" lon="-5.021975">
        <ele>830.7</ele>
        <time>2021-08-18T09:14:43Z</time>
        <sat>9</sat>
      </trkpt>
      <trkpt lat="42.370192" lon="-5.022095">
        <ele>830.4</ele>
        <time>2021-08-18T09:15:02Z</time>
        <sat>10</sat>
      </trkpt>
      <trkpt lat="42.370173" lon="-5.022214">
        <ele>830.4</ele>
        <time>2021-08-18T09:15:09Z</time>
        <sat>10</sat>
      </trkpt>
      <trkpt lat="42.370149" lon="-5.022332">
        <ele>830.6</ele>
        <time>2021-08-18T09:15:17Z</time>
        <sat>11</sat>
      </trkpt>
      <trkpt lat="42.370125" lon="-5.022443">
        <ele>830.9</ele>
        <time>2021-08-18T09:15:24Z</time>
        <sat>11</sat>
      </trkpt>
      <trkpt lat="42.370129" lon="-5.022552">
        <ele>831.0</ele>
        <time>2021-08-18T09:15:32Z</time>
        <sat>10</sat>
      </trkpt>
      <trkpt lat="42.370113" lon="-5.022677">
        <ele>831.0</ele>
        <time>2021-08-18T09:15:39Z</time>
        <sat>11</sat>
      </trkpt>
      <trkpt lat="42.370126" lon="-5.022802">
        <ele>831.1</ele>
        <time>2021-08-18T09:15:48Z</time>
        <sat>11</sat>
      </trkpt>
      <trkpt lat="42.370167" lon="-5.022911">
        <ele>831.3</ele>
        <time>2021-08-18T09:15:58Z</time>
        <sat>11</sat>
      </trkpt>
      <trkpt lat="42.370214" lon="-5.023011">
        <ele>831.5</ele>
        <time>2021-08-18T09:16:05Z</time>
        <sat>11</sat>
      </trkpt>
      <trkpt lat="42.370259" lon="-5.023111">
        <ele>831.6</ele>
        <time>2021-08-18T09:16:12Z</time>
        <sat>11</sat>
      </trkpt>
      <trkpt lat="42.370302" lon="-5.023219">
        <ele>831.7</ele>
        <time>2021-08-18T09:16:19Z</time>
        <sat>11</sat>
      </trkpt>
      <trkpt lat="42.370345" lon="-5.023321">
        <ele>831.8</ele>
        <time>2021-08-18T09:16:26Z</time>
        <sat>11</sat>
      </trkpt>
      <trkpt lat="42.370396" lon="-5.023410">
        <ele>832.0</ele>
        <time>2021-08-18T09:16:32Z</time>
        <sat>10</sat>
      </trkpt>
      <trkpt lat="42.370452" lon="-5.023500">
        <ele>832.1</ele>
        <time>2021-08-18T09:16:41Z</time>
        <sat>11</sat>
      </trkpt>
      <trkpt lat="42.370511" lon="-5.023595">
        <ele>833.5</ele>
        <time>2021-08-18T09:16:54Z</time>
        <sat>11</sat>
      </trkpt>
      <trkpt lat="42.370580" lon="-5.023670">
        <ele>833.8</ele>
        <time>2021-08-18T09:17:01Z</time>
        <sat>10</sat>
      </trkpt>
      <trkpt lat="42.370658" lon="-5.023724">
        <ele>833.3</ele>
        <time>2021-08-18T09:17:09Z</time>
        <sat>9</sat>
      </trkpt>
      <trkpt lat="42.370733" lon="-5.023787">
        <ele>833.4</ele>
        <time>2021-08-18T09:17:17Z</time>
        <sat>9</sat>
      </trkpt>
      <trkpt lat="42.370803" lon="-5.023858">
        <ele>833.7</ele>
        <time>2021-08-18T09:17:25Z</time>
        <sat>8</sat>
      </trkpt>
      <trkpt lat="42.370864" lon="-5.023944">
        <ele>834.1</ele>
        <time>2021-08-18T09:17:33Z</time>
        <sat>10</sat>
      </trkpt>
      <trkpt lat="42.370912" lon="-5.024033">
        <ele>834.5</ele>
        <time>2021-08-18T09:17:42Z</time>
        <sat>10</sat>
      </trkpt>
      <trkpt lat="42.370942" lon="-5.024137">
        <ele>834.9</ele>
        <time>2021-08-18T09:17:50Z</time>
        <sat>11</sat>
      </trkpt>
      <trkpt lat="42.370960" lon="-5.024249">
        <ele>835.2</ele>
        <time>2021-08-18T09:17:57Z</time>
        <sat>11</sat>
      </trkpt>
      <trkpt lat="42.370982" lon="-5.024368">
        <ele>835.5</ele>
        <time>2021-08-18T09:18:05Z</time>
        <sat>11</sat>
      </trkpt>
      <trkpt lat="42.370990" lon="-5.024487">
        <ele>835.6</ele>
        <time>2021-08-18T09:18:12Z</time>
        <sat>11</sat>
      </trkpt>
      <trkpt lat="42.370998" lon="-5.024596">
        <ele>835.6</ele>
        <time>2021-08-18T09:18:18Z</time>
        <sat>11</sat>
      </trkpt>
      <trkpt lat="42.371006" lon="-5.024714">
        <ele>835.9</ele>
        <time>2021-08-18T09:18:25Z</time>
        <sat>11</sat>
      </trkpt>
      <trkpt lat="42.371034" lon="-5.024832">
        <ele>836.2</ele>
        <time>2021-08-18T09:18:34Z</time>
        <sat>11</sat>
      </trkpt>
      <trkpt lat="42.371050" lon="-5.024946">
        <ele>836.6</ele>
        <time>2021-08-18T09:18:41Z</time>
        <sat>11</sat>
      </trkpt>
      <trkpt lat="42.371058" lon="-5.025068">
        <ele>836.8</ele>
        <time>2021-08-18T09:18:49Z</time>
        <sat>11</sat>
      </trkpt>
      <trkpt lat="42.371082" lon="-5.025190">
        <ele>837.1</ele>
        <time>2021-08-18T09:19:05Z</time>
        <sat>11</sat>
      </trkpt>
      <trkpt lat="42.371128" lon="-5.025287">
        <ele>837.2</ele>
        <time>2021-08-18T09:19:13Z</time>
        <sat>11</sat>
      </trkpt>
      <trkpt lat="42.371175" lon="-5.025392">
        <ele>837.6</ele>
        <time>2021-08-18T09:19:22Z</time>
        <sat>11</sat>
      </trkpt>
      <trkpt lat="42.371216" lon="-5.025497">
        <ele>838.2</ele>
        <time>2021-08-18T09:19:29Z</time>
        <sat>11</sat>
      </trkpt>
      <trkpt lat="42.371263" lon="-5.025605">
        <ele>838.4</ele>
        <time>2021-08-18T09:19:37Z</time>
        <sat>11</sat>
      </trkpt>
      <trkpt lat="42.371313" lon="-5.025707">
        <ele>838.3</ele>
        <time>2021-08-18T09:19:45Z</time>
        <sat>11</sat>
      </trkpt>
      <trkpt lat="42.371364" lon="-5.025804">
        <ele>838.2</ele>
        <time>2021-08-18T09:19:54Z</time>
        <sat>11</sat>
      </trkpt>
      <trkpt lat="42.371352" lon="-5.025922">
        <ele>837.9</ele>
        <time>2021-08-18T09:20:16Z</time>
        <sat>11</sat>
      </trkpt>
      <trkpt lat="42.371287" lon="-5.026014">
        <ele>838.1</ele>
        <time>2021-08-18T09:20:36Z</time>
        <sat>11</sat>
      </trkpt>
      <trkpt lat="42.371223" lon="-5.026085">
        <ele>838.0</ele>
        <time>2021-08-18T09:20:49Z</time>
        <sat>11</sat>
      </trkpt>
      <trkpt lat="42.371143" lon="-5.026148">
        <ele>837.8</ele>
        <time>2021-08-18T09:20:56Z</time>
        <sat>11</sat>
      </trkpt>
      <trkpt lat="42.371075" lon="-5.026226">
        <ele>837.2</ele>
        <time>2021-08-18T09:21:05Z</time>
        <sat>11</sat>
      </trkpt>
      <trkpt lat="42.370996" lon="-5.026278">
        <ele>836.7</ele>
        <time>2021-08-18T09:21:14Z</time>
        <sat>11</sat>
      </trkpt>
      <trkpt lat="42.370939" lon="-5.026372">
        <ele>836.3</ele>
        <time>2021-08-18T09:21:22Z</time>
        <sat>11</sat>
      </trkpt>
      <trkpt lat="42.370871" lon="-5.026434">
        <ele>835.9</ele>
        <time>2021-08-18T09:21:49Z</time>
        <sat>10</sat>
      </trkpt>
      <trkpt lat="42.370847" lon="-5.026544">
        <ele>836.0</ele>
        <time>2021-08-18T09:22:14Z</time>
        <sat>9</sat>
      </trkpt>
      <trkpt lat="42.370846" lon="-5.026655">
        <ele>835.8</ele>
        <time>2021-08-18T09:22:25Z</time>
        <sat>9</sat>
      </trkpt>
      <trkpt lat="42.370862" lon="-5.026780">
        <ele>835.7</ele>
        <time>2021-08-18T09:22:44Z</time>
        <sat>8</sat>
      </trkpt>
      <trkpt lat="42.370946" lon="-5.026794">
        <ele>835.2</ele>
        <time>2021-08-18T09:23:09Z</time>
        <sat>8</sat>
      </trkpt>
      <trkpt lat="42.370934" lon="-5.026907">
        <ele>835.3</ele>
        <time>2021-08-18T09:23:25Z</time>
        <sat>10</sat>
      </trkpt>
      <trkpt lat="42.370877" lon="-5.026986">
        <ele>834.9</ele>
        <time>2021-08-18T09:24:51Z</time>
        <sat>9</sat>
      </trkpt>
      <trkpt lat="42.370884" lon="-5.027007">
        <ele>835.6</ele>
        <time>2021-08-18T09:27:01Z</time>
        <sat>9</sat>
      </trkpt>
      <trkpt lat="42.370885" lon="-5.027019">
        <ele>835.3</ele>
        <time>2021-08-18T09:28:05Z</time>
        <sat>8</sat>
      </trkpt>
      <trkpt lat="42.370891" lon="-5.027130">
        <ele>835.6</ele>
        <time>2021-08-18T09:29:42Z</time>
        <sat>11</sat>
      </trkpt>
      <trkpt lat="42.370932" lon="-5.027226">
        <ele>835.0</ele>
        <time>2021-08-18T09:30:09Z</time>
        <sat>11</sat>
      </trkpt>
      <trkpt lat="42.370864" lon="-5.027298">
        <ele>834.8</ele>
        <time>2021-08-18T09:31:19Z</time>
        <sat>9</sat>
      </trkpt>
      <trkpt lat="42.370797" lon="-5.027361">
        <ele>834.5</ele>
        <time>2021-08-18T09:31:30Z</time>
        <sat>11</sat>
      </trkpt>
      <trkpt lat="42.370721" lon="-5.027411">
        <ele>834.1</ele>
        <time>2021-08-18T09:31:46Z</time>
        <sat>11</sat>
      </trkpt>
      <trkpt lat="42.370661" lon="-5.027491">
        <ele>833.8</ele>
        <time>2021-08-18T09:31:57Z</time>
        <sat>10</sat>
      </trkpt>
      <trkpt lat="42.370647" lon="-5.027601">
        <ele>833.4</ele>
        <time>2021-08-18T09:32:13Z</time>
        <sat>11</sat>
      </trkpt>
      <trkpt lat="42.370617" lon="-5.027711">
        <ele>833.3</ele>
        <time>2021-08-18T09:32:28Z</time>
        <sat>11</sat>
      </trkpt>
      <trkpt lat="42.370611" lon="-5.027827">
        <ele>833.4</ele>
        <time>2021-08-18T09:32:36Z</time>
        <sat>10</sat>
      </trkpt>
      <trkpt lat="42.370623" lon="-5.027938">
        <ele>833.5</ele>
        <time>2021-08-18T09:32:44Z</time>
        <sat>11</sat>
      </trkpt>
      <trkpt lat="42.370658" lon="-5.028043">
        <ele>833.9</ele>
        <time>2021-08-18T09:32:53Z</time>
        <sat>11</sat>
      </trkpt>
      <trkpt lat="42.370646" lon="-5.028157">
        <ele>834.3</ele>
        <time>2021-08-18T09:33:00Z</time>
        <sat>11</sat>
      </trkpt>
      <trkpt lat="42.370673" lon="-5.028269">
        <ele>834.6</ele>
        <time>2021-08-18T09:33:08Z</time>
        <sat>11</sat>
      </trkpt>
      <trkpt lat="42.370686" lon="-5.028390">
        <ele>834.8</ele>
        <time>2021-08-18T09:33:18Z</time>
        <sat>11</sat>
      </trkpt>
      <trkpt lat="42.370673" lon="-5.028500">
        <ele>834.6</ele>
        <time>2021-08-18T09:33:27Z</time>
        <sat>10</sat>
      </trkpt>
      <trkpt lat="42.370683" lon="-5.028618">
        <ele>834.2</ele>
        <time>2021-08-18T09:33:39Z</time>
        <sat>10</sat>
      </trkpt>
      <trkpt lat="42.370717" lon="-5.028724">
        <ele>833.8</ele>
        <time>2021-08-18T09:33:50Z</time>
        <sat>10</sat>
      </trkpt>
      <trkpt lat="42.370744" lon="-5.028836">
        <ele>833.1</ele>
        <time>2021-08-18T09:34:02Z</time>
        <sat>11</sat>
      </trkpt>
      <trkpt lat="42.370788" lon="-5.028930">
        <ele>832.5</ele>
        <time>2021-08-18T09:34:13Z</time>
        <sat>11</sat>
      </trkpt>
      <trkpt lat="42.370788" lon="-5.029052">
        <ele>831.2</ele>
        <time>2021-08-18T09:34:35Z</time>
        <sat>10</sat>
      </trkpt>
      <trkpt lat="42.370785" lon="-5.029171">
        <ele>830.7</ele>
        <time>2021-08-18T09:34:43Z</time>
        <sat>10</sat>
      </trkpt>
      <trkpt lat="42.370785" lon="-5.029283">
        <ele>830.0</ele>
        <time>2021-08-18T09:34:50Z</time>
        <sat>11</sat>
      </trkpt>
      <trkpt lat="42.370789" lon="-5.029394">
        <ele>828.7</ele>
        <time>2021-08-18T09:34:59Z</time>
        <sat>10</sat>
      </trkpt>
      <trkpt lat="42.370763" lon="-5.029509">
        <ele>827.5</ele>
        <time>2021-08-18T09:35:08Z</time>
        <sat>9</sat>
      </trkpt>
      <trkpt lat="42.370741" lon="-5.029621">
        <ele>826.5</ele>
        <time>2021-08-18T09:35:18Z</time>
        <sat>9</sat>
      </trkpt>
      <trkpt lat="42.370763" lon="-5.029728">
        <ele>826.0</ele>
        <time>2021-08-18T09:35:24Z</time>
        <sat>9</sat>
      </trkpt>
      <trkpt lat="42.370762" lon="-5.029851">
        <ele>825.7</ele>
        <time>2021-08-18T09:35:30Z</time>
        <sat>9</sat>
      </trkpt>
      <trkpt lat="42.370752" lon="-5.029968">
        <ele>825.4</ele>
        <time>2021-08-18T09:35:38Z</time>
        <sat>11</sat>
      </trkpt>
      <trkpt lat="42.370763" lon="-5.030091">
        <ele>825.0</ele>
        <time>2021-08-18T09:35:47Z</time>
        <sat>10</sat>
      </trkpt>
      <trkpt lat="42.370761" lon="-5.030208">
        <ele>824.3</ele>
        <time>2021-08-18T09:35:55Z</time>
        <sat>11</sat>
      </trkpt>
      <trkpt lat="42.370737" lon="-5.030324">
        <ele>824.0</ele>
        <time>2021-08-18T09:36:03Z</time>
        <sat>11</sat>
      </trkpt>
      <trkpt lat="42.370736" lon="-5.030447">
        <ele>823.7</ele>
        <time>2021-08-18T09:36:11Z</time>
        <sat>11</sat>
      </trkpt>
      <trkpt lat="42.370720" lon="-5.030565">
        <ele>823.5</ele>
        <time>2021-08-18T09:36:19Z</time>
        <sat>11</sat>
      </trkpt>
      <trkpt lat="42.370713" lon="-5.030679">
        <ele>823.3</ele>
        <time>2021-08-18T09:36:27Z</time>
        <sat>10</sat>
      </trkpt>
      <trkpt lat="42.370715" lon="-5.030797">
        <ele>823.1</ele>
        <time>2021-08-18T09:36:36Z</time>
        <sat>10</sat>
      </trkpt>
      <trkpt lat="42.370701" lon="-5.030905">
        <ele>823.0</ele>
        <time>2021-08-18T09:36:44Z</time>
        <sat>10</sat>
      </trkpt>
      <trkpt lat="42.370688" lon="-5.031022">
        <ele>822.9</ele>
        <time>2021-08-18T09:36:52Z</time>
        <sat>10</sat>
      </trkpt>
      <trkpt lat="42.370671" lon="-5.031136">
        <ele>822.7</ele>
        <time>2021-08-18T09:37:00Z</time>
        <sat>10</sat>
      </trkpt>
      <trkpt lat="42.370645" lon="-5.031242">
        <ele>822.4</ele>
        <time>2021-08-18T09:37:08Z</time>
        <sat>10</sat>
      </trkpt>
      <trkpt lat="42.370613" lon="-5.031355">
        <ele>822.3</ele>
        <time>2021-08-18T09:37:17Z</time>
        <sat>11</sat>
      </trkpt>
      <trkpt lat="42.370593" lon="-5.031472">
        <ele>822.1</ele>
        <time>2021-08-18T09:37:26Z</time>
        <sat>10</sat>
      </trkpt>
      <trkpt lat="42.370561" lon="-5.031585">
        <ele>822.0</ele>
        <time>2021-08-18T09:37:36Z</time>
        <sat>10</sat>
      </trkpt>
      <trkpt lat="42.370543" lon="-5.031695">
        <ele>821.7</ele>
        <time>2021-08-18T09:37:44Z</time>
        <sat>11</sat>
      </trkpt>
      <trkpt lat="42.370524" lon="-5.031806">
        <ele>821.5</ele>
        <time>2021-08-18T09:37:52Z</time>
        <sat>8</sat>
      </trkpt>
      <trkpt lat="42.370490" lon="-5.031920">
        <ele>821.4</ele>
        <time>2021-08-18T09:38:00Z</time>
        <sat>9</sat>
      </trkpt>
      <trkpt lat="42.370452" lon="-5.032021">
        <ele>821.3</ele>
        <time>2021-08-18T09:38:07Z</time>
        <sat>8</sat>
      </trkpt>
      <trkpt lat="42.370439" lon="-5.032135">
        <ele>821.0</ele>
        <time>2021-08-18T09:38:15Z</time>
        <sat>9</sat>
      </trkpt>
      <trkpt lat="42.370426" lon="-5.032250">
        <ele>820.8</ele>
        <time>2021-08-18T09:38:22Z</time>
        <sat>9</sat>
      </trkpt>
      <trkpt lat="42.370409" lon="-5.032368">
        <ele>820.6</ele>
        <time>2021-08-18T09:38:30Z</time>
        <sat>10</sat>
      </trkpt>
      <trkpt lat="42.370421" lon="-5.032478">
        <ele>820.5</ele>
        <time>2021-08-18T09:38:37Z</time>
        <sat>9</sat>
      </trkpt>
      <trkpt lat="42.370426" lon="-5.032588">
        <ele>820.3</ele>
        <time>2021-08-18T09:38:45Z</time>
        <sat>9</sat>
      </trkpt>
      <trkpt lat="42.370430" lon="-5.032713">
        <ele>820.1</ele>
        <time>2021-08-18T09:38:54Z</time>
        <sat>9</sat>
      </trkpt>
      <trkpt lat="42.370425" lon="-5.032838">
        <ele>819.9</ele>
        <time>2021-08-18T09:39:01Z</time>
        <sat>8</sat>
      </trkpt>
      <trkpt lat="42.370421" lon="-5.032960">
        <ele>819.6</ele>
        <time>2021-08-18T09:39:09Z</time>
        <sat>8</sat>
      </trkpt>
      <trkpt lat="42.370425" lon="-5.033078">
        <ele>819.6</ele>
        <time>2021-08-18T09:39:18Z</time>
        <sat>6</sat>
      </trkpt>
      <trkpt lat="42.370441" lon="-5.033190">
        <ele>819.5</ele>
        <time>2021-08-18T09:39:25Z</time>
        <sat>9</sat>
      </trkpt>
      <trkpt lat="42.370451" lon="-5.033308">
        <ele>819.2</ele>
        <time>2021-08-18T09:39:33Z</time>
        <sat>8</sat>
      </trkpt>
      <trkpt lat="42.370437" lon="-5.033420">
        <ele>819.0</ele>
        <time>2021-08-18T09:39:43Z</time>
        <sat>8</sat>
      </trkpt>
      <trkpt lat="42.370352" lon="-5.033439">
        <ele>819.0</ele>
        <time>2021-08-18T09:39:52Z</time>
        <sat>8</sat>
      </trkpt>
      <trkpt lat="42.370358" lon="-5.033512">
        <ele>821.0</ele>
        <time>2021-08-18T10:06:36Z</time>
        <sat>7</sat>
      </trkpt>
      <trkpt lat="42.370361" lon="-5.033633">
        <ele>820.9</ele>
        <time>2021-08-18T10:06:44Z</time>
        <sat>7</sat>
      </trkpt>
      <trkpt lat="42.370344" lon="-5.033740">
        <ele>820.8</ele>
        <time>2021-08-18T10:07:05Z</time>
        <sat>8</sat>
      </trkpt>
      <trkpt lat="42.370345" lon="-5.033852">
        <ele>820.8</ele>
        <time>2021-08-18T10:07:19Z</time>
        <sat>7</sat>
      </trkpt>
      <trkpt lat="42.370331" lon="-5.033964">
        <ele>820.6</ele>
        <time>2021-08-18T10:08:10Z</time>
        <sat>7</sat>
      </trkpt>
      <trkpt lat="42.370299" lon="-5.034076">
        <ele>820.2</ele>
        <time>2021-08-18T10:08:18Z</time>
        <sat>7</sat>
      </trkpt>
      <trkpt lat="42.370275" lon="-5.034191">
        <ele>820.0</ele>
        <time>2021-08-18T10:08:26Z</time>
        <sat>8</sat>
      </trkpt>
      <trkpt lat="42.370243" lon="-5.034305">
        <ele>819.8</ele>
        <time>2021-08-18T10:08:33Z</time>
        <sat>8</sat>
      </trkpt>
      <trkpt lat="42.370200" lon="-5.034401">
        <ele>819.4</ele>
        <time>2021-08-18T10:08:40Z</time>
        <sat>8</sat>
      </trkpt>
      <trkpt lat="42.370165" lon="-5.034503">
        <ele>819.1</ele>
        <time>2021-08-18T10:08:48Z</time>
        <sat>7</sat>
      </trkpt>
      <trkpt lat="42.370139" lon="-5.034614">
        <ele>818.7</ele>
        <time>2021-08-18T10:08:55Z</time>
        <sat>8</sat>
      </trkpt>
      <trkpt lat="42.370102" lon="-5.034715">
        <ele>818.3</ele>
        <time>2021-08-18T10:09:02Z</time>
        <sat>8</sat>
      </trkpt>
      <trkpt lat="42.370052" lon="-5.034821">
        <ele>817.5</ele>
        <time>2021-08-18T10:09:10Z</time>
        <sat>8</sat>
      </trkpt>
      <trkpt lat="42.369989" lon="-5.034897">
        <ele>816.8</ele>
        <time>2021-08-18T10:09:18Z</time>
        <sat>8</sat>
      </trkpt>
      <trkpt lat="42.369924" lon="-5.034965">
        <ele>816.6</ele>
        <time>2021-08-18T10:09:27Z</time>
        <sat>7</sat>
      </trkpt>
      <trkpt lat="42.369867" lon="-5.035054">
        <ele>816.0</ele>
        <time>2021-08-18T10:09:35Z</time>
        <sat>7</sat>
      </trkpt>
      <trkpt lat="42.369806" lon="-5.035128">
        <ele>815.4</ele>
        <time>2021-08-18T10:09:43Z</time>
        <sat>7</sat>
      </trkpt>
      <trkpt lat="42.369726" lon="-5.035180">
        <ele>814.9</ele>
        <time>2021-08-18T10:09:50Z</time>
        <sat>8</sat>
      </trkpt>
      <trkpt lat="42.369640" lon="-5.035212">
        <ele>814.3</ele>
        <time>2021-08-18T10:09:58Z</time>
        <sat>8</sat>
      </trkpt>
      <trkpt lat="42.369578" lon="-5.035289">
        <ele>813.6</ele>
        <time>2021-08-18T10:10:08Z</time>
        <sat>9</sat>
      </trkpt>
      <trkpt lat="42.369509" lon="-5.035368">
        <ele>813.3</ele>
        <time>2021-08-18T10:10:14Z</time>
        <sat>9</sat>
      </trkpt>
      <trkpt lat="42.369443" lon="-5.035446">
        <ele>812.8</ele>
        <time>2021-08-18T10:10:22Z</time>
        <sat>9</sat>
      </trkpt>
      <trkpt lat="42.369366" lon="-5.035497">
        <ele>812.0</ele>
        <time>2021-08-18T10:10:40Z</time>
        <sat>9</sat>
      </trkpt>
      <trkpt lat="42.369293" lon="-5.035548">
        <ele>811.8</ele>
        <time>2021-08-18T10:10:46Z</time>
        <sat>9</sat>
      </trkpt>
      <trkpt lat="42.369215" lon="-5.035583">
        <ele>811.4</ele>
        <time>2021-08-18T10:10:52Z</time>
        <sat>9</sat>
      </trkpt>
      <trkpt lat="42.369139" lon="-5.035636">
        <ele>811.0</ele>
        <time>2021-08-18T10:10:59Z</time>
        <sat>9</sat>
      </trkpt>
      <trkpt lat="42.369059" lon="-5.035671">
        <ele>810.7</ele>
        <time>2021-08-18T10:11:06Z</time>
        <sat>9</sat>
      </trkpt>
      <trkpt lat="42.369003" lon="-5.035757">
        <ele>810.4</ele>
        <time>2021-08-18T10:11:12Z</time>
        <sat>9</sat>
      </trkpt>
      <trkpt lat="42.368921" lon="-5.035786">
        <ele>810.1</ele>
        <time>2021-08-18T10:13:43Z</time>
        <sat>10</sat>
      </trkpt>
      <trkpt lat="42.368843" lon="-5.035827">
        <ele>810.3</ele>
        <time>2021-08-18T10:13:50Z</time>
        <sat>10</sat>
      </trkpt>
      <trkpt lat="42.368773" lon="-5.035902">
        <ele>810.5</ele>
        <time>2021-08-18T10:13:57Z</time>
        <sat>10</sat>
      </trkpt>
      <trkpt lat="42.368729" lon="-5.036003">
        <ele>810.8</ele>
        <time>2021-08-18T10:14:06Z</time>
        <sat>10</sat>
      </trkpt>
      <trkpt lat="42.368760" lon="-5.036123">
        <ele>811.4</ele>
        <time>2021-08-18T10:14:18Z</time>
        <sat>10</sat>
      </trkpt>
      <trkpt lat="42.368782" lon="-5.036235">
        <ele>812.4</ele>
        <time>2021-08-18T10:14:29Z</time>
        <sat>10</sat>
      </trkpt>
      <trkpt lat="42.368790" lon="-5.036345">
        <ele>812.4</ele>
        <time>2021-08-18T10:14:35Z</time>
        <sat>10</sat>
      </trkpt>
      <trkpt lat="42.368798" lon="-5.036455">
        <ele>812.3</ele>
        <time>2021-08-18T10:14:41Z</time>
        <sat>10</sat>
      </trkpt>
      <trkpt lat="42.368811" lon="-5.036581">
        <ele>811.8</ele>
        <time>2021-08-18T10:14:48Z</time>
        <sat>10</sat>
      </trkpt>
      <trkpt lat="42.368847" lon="-5.036686">
        <ele>811.2</ele>
        <time>2021-08-18T10:14:55Z</time>
        <sat>10</sat>
      </trkpt>
      <trkpt lat="42.368876" lon="-5.036808">
        <ele>810.5</ele>
        <time>2021-08-18T10:15:05Z</time>
        <sat>10</sat>
      </trkpt>
      <trkpt lat="42.368915" lon="-5.036909">
        <ele>810.0</ele>
        <time>2021-08-18T10:15:11Z</time>
        <sat>10</sat>
      </trkpt>
      <trkpt lat="42.368959" lon="-5.037006">
        <ele>809.5</ele>
        <time>2021-08-18T10:15:20Z</time>
        <sat>10</sat>
      </trkpt>
      <trkpt lat="42.368994" lon="-5.037106">
        <ele>809.3</ele>
        <time>2021-08-18T10:15:26Z</time>
        <sat>10</sat>
      </trkpt>
      <trkpt lat="42.369038" lon="-5.037206">
        <ele>809.2</ele>
        <time>2021-08-18T10:15:32Z</time>
        <sat>10</sat>
      </trkpt>
      <trkpt lat="42.369073" lon="-5.037310">
        <ele>808.9</ele>
        <time>2021-08-18T10:15:38Z</time>
        <sat>10</sat>
      </trkpt>
      <trkpt lat="42.369041" lon="-5.037420">
        <ele>808.5</ele>
        <time>2021-08-18T10:15:45Z</time>
        <sat>10</sat>
      </trkpt>
      <trkpt lat="42.369032" lon="-5.037529">
        <ele>808.3</ele>
        <time>2021-08-18T10:15:52Z</time>
        <sat>10</sat>
      </trkpt>
      <trkpt lat="42.369055" lon="-5.037644">
        <ele>808.2</ele>
        <time>2021-08-18T10:16:01Z</time>
        <sat>10</sat>
      </trkpt>
      <trkpt lat="42.369092" lon="-5.037746">
        <ele>808.3</ele>
        <time>2021-08-18T10:16:08Z</time>
        <sat>10</sat>
      </trkpt>
      <trkpt lat="42.369134" lon="-5.037851">
        <ele>808.2</ele>
        <time>2021-08-18T10:16:14Z</time>
        <sat>10</sat>
      </trkpt>
      <trkpt lat="42.369168" lon="-5.037953">
        <ele>808.1</ele>
        <time>2021-08-18T10:16:20Z</time>
        <sat>10</sat>
      </trkpt>
      <trkpt lat="42.369199" lon="-5.038062">
        <ele>807.9</ele>
        <time>2021-08-18T10:16:26Z</time>
        <sat>10</sat>
      </trkpt>
      <trkpt lat="42.369242" lon="-5.038166">
        <ele>807.8</ele>
        <time>2021-08-18T10:16:32Z</time>
        <sat>10</sat>
      </trkpt>
      <trkpt lat="42.369279" lon="-5.038264">
        <ele>808.0</ele>
        <time>2021-08-18T10:16:38Z</time>
        <sat>10</sat>
      </trkpt>
      <trkpt lat="42.369361" lon="-5.038290">
        <ele>808.2</ele>
        <time>2021-08-18T10:17:05Z</time>
        <sat>10</sat>
      </trkpt>
      <trkpt lat="42.369399" lon="-5.038318">
        <ele>812.1</ele>
        <time>2021-08-18T11:17:17Z</time>
        <sat>8</sat>
      </trkpt>
      <trkpt lat="42.369376" lon="-5.038434">
        <ele>812.5</ele>
        <time>2021-08-18T11:17:25Z</time>
        <sat>9</sat>
      </trkpt>
      <trkpt lat="42.369407" lon="-5.038536">
        <ele>812.5</ele>
        <time>2021-08-18T11:17:45Z</time>
        <sat>9</sat>
      </trkpt>
      <trkpt lat="42.369446" lon="-5.038634">
        <ele>812.6</ele>
        <time>2021-08-18T11:18:02Z</time>
        <sat>9</sat>
      </trkpt>
      <trkpt lat="42.369490" lon="-5.038726">
        <ele>812.5</ele>
        <time>2021-08-18T11:18:10Z</time>
        <sat>9</sat>
      </trkpt>
      <trkpt lat="42.369520" lon="-5.038830">
        <ele>812.6</ele>
        <time>2021-08-18T11:18:20Z</time>
        <sat>9</sat>
      </trkpt>
      <trkpt lat="42.369565" lon="-5.038924">
        <ele>812.6</ele>
        <time>2021-08-18T11:18:30Z</time>
        <sat>9</sat>
      </trkpt>
      <trkpt lat="42.369607" lon="-5.039023">
        <ele>812.6</ele>
        <time>2021-08-18T11:18:38Z</time>
        <sat>9</sat>
      </trkpt>
      <trkpt lat="42.369639" lon="-5.039129">
        <ele>812.7</ele>
        <time>2021-08-18T11:18:49Z</time>
        <sat>8</sat>
      </trkpt>
      <trkpt lat="42.369678" lon="-5.039231">
        <ele>812.7</ele>
        <time>2021-08-18T11:18:57Z</time>
        <sat>9</sat>
      </trkpt>
      <trkpt lat="42.369709" lon="-5.039346">
        <ele>812.7</ele>
        <time>2021-08-18T11:19:08Z</time>
        <sat>9</sat>
      </trkpt>
      <trkpt lat="42.369747" lon="-5.039453">
        <ele>812.9</ele>
        <time>2021-08-18T11:19:20Z</time>
        <sat>8</sat>
      </trkpt>
      <trkpt lat="42.369786" lon="-5.039549">
        <ele>812.9</ele>
        <time>2021-08-18T11:19:29Z</time>
        <sat>9</sat>
      </trkpt>
      <trkpt lat="42.369832" lon="-5.039649">
        <ele>812.9</ele>
        <time>2021-08-18T11:19:39Z</time>
        <sat>9</sat>
      </trkpt>
      <trkpt lat="42.369873" lon="-5.039747">
        <ele>812.9</ele>
        <time>2021-08-18T11:19:48Z</time>
        <sat>9</sat>
      </trkpt>
      <trkpt lat="42.369923" lon="-5.039845">
        <ele>812.8</ele>
        <time>2021-08-18T11:19:56Z</time>
        <sat>9</sat>
      </trkpt>
      <trkpt lat="42.369960" lon="-5.039944">
        <ele>812.7</ele>
        <time>2021-08-18T11:20:03Z</time>
        <sat>9</sat>
      </trkpt>
      <trkpt lat="42.369986" lon="-5.040052">
        <ele>812.7</ele>
        <time>2021-08-18T11:20:10Z</time>
        <sat>9</sat>
      </trkpt>
      <trkpt lat="42.370026" lon="-5.040149">
        <ele>812.7</ele>
        <time>2021-08-18T11:20:17Z</time>
        <sat>9</sat>
      </trkpt>
      <trkpt lat="42.370065" lon="-5.040261">
        <ele>812.6</ele>
        <time>2021-08-18T11:20:25Z</time>
        <sat>9</sat>
      </trkpt>
      <trkpt lat="42.370112" lon="-5.040353">
        <ele>812.6</ele>
        <time>2021-08-18T11:20:32Z</time>
        <sat>9</sat>
      </trkpt>
      <trkpt lat="42.370147" lon="-5.040464">
        <ele>812.6</ele>
        <time>2021-08-18T11:20:41Z</time>
        <sat>9</sat>
      </trkpt>
      <trkpt lat="42.370180" lon="-5.040577">
        <ele>812.7</ele>
        <time>2021-08-18T11:20:50Z</time>
        <sat>9</sat>
      </trkpt>
      <trkpt lat="42.370228" lon="-5.040680">
        <ele>812.7</ele>
        <time>2021-08-18T11:20:58Z</time>
        <sat>9</sat>
      </trkpt>
      <trkpt lat="42.370269" lon="-5.040791">
        <ele>812.8</ele>
        <time>2021-08-18T11:21:06Z</time>
        <sat>9</sat>
      </trkpt>
      <trkpt lat="42.370311" lon="-5.040888">
        <ele>812.8</ele>
        <time>2021-08-18T11:21:13Z</time>
        <sat>9</sat>
      </trkpt>
      <trkpt lat="42.370347" lon="-5.040991">
        <ele>812.7</ele>
        <time>2021-08-18T11:21:20Z</time>
        <sat>9</sat>
      </trkpt>
      <trkpt lat="42.370389" lon="-5.041100">
        <ele>812.8</ele>
        <time>2021-08-18T11:21:27Z</time>
        <sat>9</sat>
      </trkpt>
      <trkpt lat="42.370430" lon="-5.041202">
        <ele>812.7</ele>
        <time>2021-08-18T11:21:34Z</time>
        <sat>8</sat>
      </trkpt>
      <trkpt lat="42.370463" lon="-5.041306">
        <ele>812.8</ele>
        <time>2021-08-18T11:21:41Z</time>
        <sat>9</sat>
      </trkpt>
      <trkpt lat="42.370490" lon="-5.041424">
        <ele>812.2</ele>
        <time>2021-08-18T11:21:49Z</time>
        <sat>9</sat>
      </trkpt>
      <trkpt lat="42.370543" lon="-5.041516">
        <ele>813.7</ele>
        <time>2021-08-18T11:21:57Z</time>
        <sat>9</sat>
      </trkpt>
      <trkpt lat="42.370580" lon="-5.041621">
        <ele>812.9</ele>
        <time>2021-08-18T11:22:04Z</time>
        <sat>9</sat>
      </trkpt>
      <trkpt lat="42.370626" lon="-5.041715">
        <ele>813.5</ele>
        <time>2021-08-18T11:22:12Z</time>
        <sat>9</sat>
      </trkpt>
      <trkpt lat="42.370675" lon="-5.041812">
        <ele>813.5</ele>
        <time>2021-08-18T11:22:19Z</time>
        <sat>9</sat>
      </trkpt>
      <trkpt lat="42.370712" lon="-5.041924">
        <ele>813.3</ele>
        <time>2021-08-18T11:22:27Z</time>
        <sat>9</sat>
      </trkpt>
      <trkpt lat="42.370770" lon="-5.042023">
        <ele>813.3</ele>
        <time>2021-08-18T11:22:34Z</time>
        <sat>9</sat>
      </trkpt>
      <trkpt lat="42.370808" lon="-5.042122">
        <ele>813.2</ele>
        <time>2021-08-18T11:22:40Z</time>
        <sat>9</sat>
      </trkpt>
      <trkpt lat="42.370854" lon="-5.042219">
        <ele>813.2</ele>
        <time>2021-08-18T11:22:47Z</time>
        <sat>9</sat>
      </trkpt>
      <trkpt lat="42.370883" lon="-5.042324">
        <ele>813.2</ele>
        <time>2021-08-18T11:22:54Z</time>
        <sat>9</sat>
      </trkpt>
      <trkpt lat="42.370932" lon="-5.042432">
        <ele>813.2</ele>
        <time>2021-08-18T11:23:02Z</time>
        <sat>9</sat>
      </trkpt>
      <trkpt lat="42.370968" lon="-5.042541">
        <ele>813.1</ele>
        <time>2021-08-18T11:23:09Z</time>
        <sat>8</sat>
      </trkpt>
      <trkpt lat="42.371013" lon="-5.042643">
        <ele>813.6</ele>
        <time>2021-08-18T11:23:15Z</time>
        <sat>9</sat>
      </trkpt>
      <trkpt lat="42.371061" lon="-5.042742">
        <ele>813.6</ele>
        <time>2021-08-18T11:23:22Z</time>
        <sat>8</sat>
      </trkpt>
      <trkpt lat="42.371106" lon="-5.042863">
        <ele>813.3</ele>
        <time>2021-08-18T11:23:29Z</time>
        <sat>9</sat>
      </trkpt>
      <trkpt lat="42.371162" lon="-5.042964">
        <ele>815.6</ele>
        <time>2021-08-18T11:23:36Z</time>
        <sat>9</sat>
      </trkpt>
      <trkpt lat="42.371205" lon="-5.043061">
        <ele>815.1</ele>
        <time>2021-08-18T11:23:42Z</time>
        <sat>9</sat>
      </trkpt>
      <trkpt lat="42.371248" lon="-5.043166">
        <ele>814.4</ele>
        <time>2021-08-18T11:23:48Z</time>
        <sat>9</sat>
      </trkpt>
      <trkpt lat="42.371279" lon="-5.043268">
        <ele>814.1</ele>
        <time>2021-08-18T11:23:54Z</time>
        <sat>9</sat>
      </trkpt>
      <trkpt lat="42.371306" lon="-5.043388">
        <ele>813.7</ele>
        <time>2021-08-18T11:24:01Z</time>
        <sat>9</sat>
      </trkpt>
      <trkpt lat="42.371354" lon="-5.043496">
        <ele>813.5</ele>
        <time>2021-08-18T11:24:08Z</time>
        <sat>9</sat>
      </trkpt>
      <trkpt lat="42.371392" lon="-5.043612">
        <ele>813.4</ele>
        <time>2021-08-18T11:24:15Z</time>
        <sat>9</sat>
      </trkpt>
      <trkpt lat="42.371426" lon="-5.043718">
        <ele>813.4</ele>
        <time>2021-08-18T11:24:21Z</time>
        <sat>9</sat>
      </trkpt>
      <trkpt lat="42.371457" lon="-5.043833">
        <ele>813.5</ele>
        <time>2021-08-18T11:24:28Z</time>
        <sat>9</sat>
      </trkpt>
      <trkpt lat="42.371501" lon="-5.043929">
        <ele>813.6</ele>
        <time>2021-08-18T11:24:34Z</time>
        <sat>9</sat>
      </trkpt>
      <trkpt lat="42.371533" lon="-5.044039">
        <ele>813.6</ele>
        <time>2021-08-18T11:24:41Z</time>
        <sat>9</sat>
      </trkpt>
      <trkpt lat="42.371581" lon="-5.044136">
        <ele>813.6</ele>
        <time>2021-08-18T11:24:48Z</time>
        <sat>9</sat>
      </trkpt>
      <trkpt lat="42.371617" lon="-5.044244">
        <ele>813.6</ele>
        <time>2021-08-18T11:24:56Z</time>
        <sat>9</sat>
      </trkpt>
      <trkpt lat="42.371655" lon="-5.044354">
        <ele>813.8</ele>
        <time>2021-08-18T11:25:03Z</time>
        <sat>9</sat>
      </trkpt>
      <trkpt lat="42.371693" lon="-5.044459">
        <ele>813.8</ele>
        <time>2021-08-18T11:25:10Z</time>
        <sat>9</sat>
      </trkpt>
      <trkpt lat="42.371734" lon="-5.044570">
        <ele>813.8</ele>
        <time>2021-08-18T11:25:17Z</time>
        <sat>9</sat>
      </trkpt>
      <trkpt lat="42.371781" lon="-5.044676">
        <ele>813.9</ele>
        <time>2021-08-18T11:25:24Z</time>
        <sat>9</sat>
      </trkpt>
      <trkpt lat="42.371811" lon="-5.044780">
        <ele>814.0</ele>
        <time>2021-08-18T11:25:30Z</time>
        <sat>9</sat>
      </trkpt>
      <trkpt lat="42.371858" lon="-5.044889">
        <ele>814.0</ele>
        <time>2021-08-18T11:25:37Z</time>
        <sat>9</sat>
      </trkpt>
      <trkpt lat="42.371896" lon="-5.044994">
        <ele>814.2</ele>
        <time>2021-08-18T11:25:43Z</time>
        <sat>9</sat>
      </trkpt>
      <trkpt lat="42.371943" lon="-5.045084">
        <ele>814.2</ele>
        <time>2021-08-18T11:25:49Z</time>
        <sat>9</sat>
      </trkpt>
      <trkpt lat="42.371981" lon="-5.045196">
        <ele>814.2</ele>
        <time>2021-08-18T11:25:56Z</time>
        <sat>9</sat>
      </trkpt>
      <trkpt lat="42.372014" lon="-5.045297">
        <ele>814.3</ele>
        <time>2021-08-18T11:26:02Z</time>
        <sat>9</sat>
      </trkpt>
      <trkpt lat="42.372050" lon="-5.045395">
        <ele>814.4</ele>
        <time>2021-08-18T11:26:08Z</time>
        <sat>9</sat>
      </trkpt>
      <trkpt lat="42.372093" lon="-5.045504">
        <ele>814.4</ele>
        <time>2021-08-18T11:26:15Z</time>
        <sat>9</sat>
      </trkpt>
      <trkpt lat="42.372145" lon="-5.045602">
        <ele>814.3</ele>
        <time>2021-08-18T11:26:22Z</time>
        <sat>9</sat>
      </trkpt>
      <trkpt lat="42.372190" lon="-5.045706">
        <ele>814.5</ele>
        <time>2021-08-18T11:26:29Z</time>
        <sat>9</sat>
      </trkpt>
      <trkpt lat="42.372244" lon="-5.045791">
        <ele>814.5</ele>
        <time>2021-08-18T11:26:35Z</time>
        <sat>9</sat>
      </trkpt>
      <trkpt lat="42.372291" lon="-5.045888">
        <ele>814.6</ele>
        <time>2021-08-18T11:26:41Z</time>
        <sat>9</sat>
      </trkpt>
      <trkpt lat="42.372344" lon="-5.045989">
        <ele>814.5</ele>
        <time>2021-08-18T11:26:48Z</time>
        <sat>9</sat>
      </trkpt>
      <trkpt lat="42.372392" lon="-5.046078">
        <ele>814.4</ele>
        <time>2021-08-18T11:26:54Z</time>
        <sat>9</sat>
      </trkpt>
      <trkpt lat="42.372432" lon="-5.046180">
        <ele>814.4</ele>
        <time>2021-08-18T11:27:00Z</time>
        <sat>9</sat>
      </trkpt>
      <trkpt lat="42.372487" lon="-5.046267">
        <ele>814.4</ele>
        <time>2021-08-18T11:27:06Z</time>
        <sat>9</sat>
      </trkpt>
      <trkpt lat="42.372533" lon="-5.046359">
        <ele>814.7</ele>
        <time>2021-08-18T11:27:12Z</time>
        <sat>9</sat>
      </trkpt>
      <trkpt lat="42.372585" lon="-5.046459">
        <ele>814.7</ele>
        <time>2021-08-18T11:27:19Z</time>
        <sat>9</sat>
      </trkpt>
      <trkpt lat="42.372630" lon="-5.046554">
        <ele>814.7</ele>
        <time>2021-08-18T11:27:25Z</time>
        <sat>9</sat>
      </trkpt>
      <trkpt lat="42.372687" lon="-5.046655">
        <ele>814.7</ele>
        <time>2021-08-18T11:27:32Z</time>
        <sat>9</sat>
      </trkpt>
      <trkpt lat="42.372737" lon="-5.046744">
        <ele>814.8</ele>
        <time>2021-08-18T11:27:38Z</time>
        <sat>9</sat>
      </trkpt>
      <trkpt lat="42.372779" lon="-5.046839">
        <ele>814.9</ele>
        <time>2021-08-18T11:27:44Z</time>
        <sat>9</sat>
      </trkpt>
      <trkpt lat="42.372835" lon="-5.046941">
        <ele>814.8</ele>
        <time>2021-08-18T11:27:51Z</time>
        <sat>9</sat>
      </trkpt>
      <trkpt lat="42.372879" lon="-5.047038">
        <ele>814.6</ele>
        <time>2021-08-18T11:27:57Z</time>
        <sat>8</sat>
      </trkpt>
      <trkpt lat="42.372934" lon="-5.047122">
        <ele>814.6</ele>
        <time>2021-08-18T11:28:03Z</time>
        <sat>9</sat>
      </trkpt>
      <trkpt lat="42.372979" lon="-5.047223">
        <ele>814.6</ele>
        <time>2021-08-18T11:28:09Z</time>
        <sat>9</sat>
      </trkpt>
      <trkpt lat="42.373026" lon="-5.047313">
        <ele>814.6</ele>
        <time>2021-08-18T11:28:15Z</time>
        <sat>9</sat>
      </trkpt>
      <trkpt lat="42.373081" lon="-5.047397">
        <ele>814.7</ele>
        <time>2021-08-18T11:28:21Z</time>
        <sat>9</sat>
      </trkpt>
      <trkpt lat="42.373130" lon="-5.047485">
        <ele>814.9</ele>
        <time>2021-08-18T11:28:27Z</time>
        <sat>9</sat>
      </trkpt>
      <trkpt lat="42.373181" lon="-5.047571">
        <ele>815.0</ele>
        <time>2021-08-18T11:28:33Z</time>
        <sat>9</sat>
      </trkpt>
      <trkpt lat="42.373222" lon="-5.047673">
        <ele>815.1</ele>
        <time>2021-08-18T11:28:39Z</time>
        <sat>9</sat>
      </trkpt>
      <trkpt lat="42.373277" lon="-5.047760">
        <ele>815.2</ele>
        <time>2021-08-18T11:28:45Z</time>
        <sat>9</sat>
      </trkpt>
      <trkpt lat="42.373331" lon="-5.047864">
        <ele>815.1</ele>
        <time>2021-08-18T11:28:52Z</time>
        <sat>9</sat>
      </trkpt>
      <trkpt lat="42.373377" lon="-5.047960">
        <ele>815.0</ele>
        <time>2021-08-18T11:28:58Z</time>
        <sat>9</sat>
      </trkpt>
      <trkpt lat="42.373434" lon="-5.048046">
        <ele>815.1</ele>
        <time>2021-08-18T11:29:04Z</time>
        <sat>9</sat>
      </trkpt>
      <trkpt lat="42.373475" lon="-5.048148">
        <ele>815.0</ele>
        <time>2021-08-18T11:29:10Z</time>
        <sat>9</sat>
      </trkpt>
      <trkpt lat="42.373531" lon="-5.048249">
        <ele>815.0</ele>
        <time>2021-08-18T11:29:17Z</time>
        <sat>9</sat>
      </trkpt>
      <trkpt lat="42.373576" lon="-5.048350">
        <ele>815.0</ele>
        <time>2021-08-18T11:29:24Z</time>
        <sat>9</sat>
      </trkpt>
      <trkpt lat="42.373626" lon="-5.048436">
        <ele>815.2</ele>
        <time>2021-08-18T11:29:30Z</time>
        <sat>9</sat>
      </trkpt>
      <trkpt lat="42.373676" lon="-5.048528">
        <ele>815.3</ele>
        <time>2021-08-18T11:29:36Z</time>
        <sat>9</sat>
      </trkpt>
      <trkpt lat="42.373718" lon="-5.048629">
        <ele>815.3</ele>
        <time>2021-08-18T11:29:42Z</time>
        <sat>9</sat>
      </trkpt>
      <trkpt lat="42.373771" lon="-5.048716">
        <ele>815.2</ele>
        <time>2021-08-18T11:29:48Z</time>
        <sat>9</sat>
      </trkpt>
      <trkpt lat="42.373814" lon="-5.048819">
        <ele>815.2</ele>
        <time>2021-08-18T11:29:54Z</time>
        <sat>9</sat>
      </trkpt>
      <trkpt lat="42.373866" lon="-5.048910">
        <ele>815.3</ele>
        <time>2021-08-18T11:30:00Z</time>
        <sat>9</sat>
      </trkpt>
      <trkpt lat="42.373907" lon="-5.049007">
        <ele>815.5</ele>
        <time>2021-08-18T11:30:06Z</time>
        <sat>9</sat>
      </trkpt>
      <trkpt lat="42.373940" lon="-5.049111">
        <ele>815.6</ele>
        <time>2021-08-18T11:30:13Z</time>
        <sat>9</sat>
      </trkpt>
      <trkpt lat="42.373947" lon="-5.049233">
        <ele>815.7</ele>
        <time>2021-08-18T11:30:20Z</time>
        <sat>9</sat>
      </trkpt>
      <trkpt lat="42.373935" lon="-5.049345">
        <ele>815.7</ele>
        <time>2021-08-18T11:30:27Z</time>
        <sat>8</sat>
      </trkpt>
      <trkpt lat="42.373930" lon="-5.049463">
        <ele>815.9</ele>
        <time>2021-08-18T11:30:35Z</time>
        <sat>9</sat>
      </trkpt>
      <trkpt lat="42.373928" lon="-5.049585">
        <ele>816.2</ele>
        <time>2021-08-18T11:30:43Z</time>
        <sat>9</sat>
      </trkpt>
      <trkpt lat="42.373973" lon="-5.049686">
        <ele>816.2</ele>
        <time>2021-08-18T11:30:50Z</time>
        <sat>9</sat>
      </trkpt>
      <trkpt lat="42.374042" lon="-5.049768">
        <ele>816.1</ele>
        <time>2021-08-18T11:30:57Z</time>
        <sat>9</sat>
      </trkpt>
      <trkpt lat="42.374120" lon="-5.049809">
        <ele>816.1</ele>
        <time>2021-08-18T11:31:03Z</time>
        <sat>9</sat>
      </trkpt>
      <trkpt lat="42.374197" lon="-5.049843">
        <ele>816.1</ele>
        <time>2021-08-18T11:31:09Z</time>
        <sat>9</sat>
      </trkpt>
      <trkpt lat="42.374281" lon="-5.049850">
        <ele>816.0</ele>
        <time>2021-08-18T11:31:15Z</time>
        <sat>9</sat>
      </trkpt>
      <trkpt lat="42.374361" lon="-5.049888">
        <ele>815.9</ele>
        <time>2021-08-18T11:31:21Z</time>
        <sat>9</sat>
      </trkpt>
      <trkpt lat="42.374424" lon="-5.049959">
        <ele>815.9</ele>
        <time>2021-08-18T11:31:27Z</time>
        <sat>9</sat>
      </trkpt>
      <trkpt lat="42.374479" lon="-5.050042">
        <ele>815.9</ele>
        <time>2021-08-18T11:31:33Z</time>
        <sat>9</sat>
      </trkpt>
      <trkpt lat="42.374520" lon="-5.050143">
        <ele>815.8</ele>
        <time>2021-08-18T11:31:39Z</time>
        <sat>9</sat>
      </trkpt>
      <trkpt lat="42.374579" lon="-5.050241">
        <ele>815.9</ele>
        <time>2021-08-18T11:31:46Z</time>
        <sat>9</sat>
      </trkpt>
      <trkpt lat="42.374618" lon="-5.050344">
        <ele>815.9</ele>
        <time>2021-08-18T11:31:52Z</time>
        <sat>9</sat>
      </trkpt>
      <trkpt lat="42.374668" lon="-5.050431">
        <ele>815.9</ele>
        <time>2021-08-18T11:31:58Z</time>
        <sat>9</sat>
      </trkpt>
      <trkpt lat="42.374715" lon="-5.050527">
        <ele>816.0</ele>
        <time>2021-08-18T11:32:04Z</time>
        <sat>9</sat>
      </trkpt>
      <trkpt lat="42.374763" lon="-5.050631">
        <ele>816.1</ele>
        <time>2021-08-18T11:32:11Z</time>
        <sat>9</sat>
      </trkpt>
      <trkpt lat="42.374814" lon="-5.050718">
        <ele>816.3</ele>
        <time>2021-08-18T11:32:17Z</time>
        <sat>9</sat>
      </trkpt>
      <trkpt lat="42.374852" lon="-5.050816">
        <ele>816.5</ele>
        <time>2021-08-18T11:32:23Z</time>
        <sat>9</sat>
      </trkpt>
      <trkpt lat="42.374910" lon="-5.050911">
        <ele>816.6</ele>
        <time>2021-08-18T11:32:30Z</time>
        <sat>9</sat>
      </trkpt>
      <trkpt lat="42.374955" lon="-5.051005">
        <ele>816.7</ele>
        <time>2021-08-18T11:32:36Z</time>
        <sat>9</sat>
      </trkpt>
      <trkpt lat="42.375016" lon="-5.051103">
        <ele>816.8</ele>
        <time>2021-08-18T11:32:43Z</time>
        <sat>9</sat>
      </trkpt>
      <trkpt lat="42.375063" lon="-5.051196">
        <ele>816.8</ele>
        <time>2021-08-18T11:32:49Z</time>
        <sat>9</sat>
      </trkpt>
      <trkpt lat="42.375122" lon="-5.051291">
        <ele>816.8</ele>
        <time>2021-08-18T11:32:56Z</time>
        <sat>9</sat>
      </trkpt>
      <trkpt lat="42.375178" lon="-5.051391">
        <ele>816.8</ele>
        <time>2021-08-18T11:33:03Z</time>
        <sat>9</sat>
      </trkpt>
      <trkpt lat="42.375230" lon="-5.051484">
        <ele>816.8</ele>
        <time>2021-08-18T11:33:10Z</time>
        <sat>9</sat>
      </trkpt>
      <trkpt lat="42.375286" lon="-5.051577">
        <ele>816.8</ele>
        <time>2021-08-18T11:33:17Z</time>
        <sat>9</sat>
      </trkpt>
      <trkpt lat="42.375323" lon="-5.051678">
        <ele>816.8</ele>
        <time>2021-08-18T11:33:23Z</time>
        <sat>9</sat>
      </trkpt>
      <trkpt lat="42.375376" lon="-5.051785">
        <ele>816.8</ele>
        <time>2021-08-18T11:33:30Z</time>
        <sat>9</sat>
      </trkpt>
      <trkpt lat="42.375414" lon="-5.051898">
        <ele>816.7</ele>
        <time>2021-08-18T11:33:37Z</time>
        <sat>9</sat>
      </trkpt>
      <trkpt lat="42.375452" lon="-5.052006">
        <ele>816.6</ele>
        <time>2021-08-18T11:33:44Z</time>
        <sat>9</sat>
      </trkpt>
      <trkpt lat="42.375491" lon="-5.052124">
        <ele>816.5</ele>
        <time>2021-08-18T11:33:51Z</time>
        <sat>9</sat>
      </trkpt>
      <trkpt lat="42.375532" lon="-5.052223">
        <ele>816.5</ele>
        <time>2021-08-18T11:33:57Z</time>
        <sat>9</sat>
      </trkpt>
      <trkpt lat="42.375565" lon="-5.052338">
        <ele>816.4</ele>
        <time>2021-08-18T11:34:04Z</time>
        <sat>9</sat>
      </trkpt>
      <trkpt lat="42.375594" lon="-5.052453">
        <ele>816.5</ele>
        <time>2021-08-18T11:34:11Z</time>
        <sat>9</sat>
      </trkpt>
      <trkpt lat="42.375624" lon="-5.052568">
        <ele>816.6</ele>
        <time>2021-08-18T11:34:18Z</time>
        <sat>9</sat>
      </trkpt>
      <trkpt lat="42.375659" lon="-5.052667">
        <ele>816.8</ele>
        <time>2021-08-18T11:34:24Z</time>
        <sat>9</sat>
      </trkpt>
      <trkpt lat="42.375677" lon="-5.052791">
        <ele>816.9</ele>
        <time>2021-08-18T11:34:31Z</time>
        <sat>9</sat>
      </trkpt>
      <trkpt lat="42.375712" lon="-5.052906">
        <ele>816.9</ele>
        <time>2021-08-18T11:34:38Z</time>
        <sat>9</sat>
      </trkpt>
      <trkpt lat="42.375732" lon="-5.053026">
        <ele>816.9</ele>
        <time>2021-08-18T11:34:45Z</time>
        <sat>9</sat>
      </trkpt>
      <trkpt lat="42.375753" lon="-5.053132">
        <ele>817.0</ele>
        <time>2021-08-18T11:34:51Z</time>
        <sat>9</sat>
      </trkpt>
      <trkpt lat="42.375770" lon="-5.053240">
        <ele>817.0</ele>
        <time>2021-08-18T11:34:57Z</time>
        <sat>9</sat>
      </trkpt>
      <trkpt lat="42.375796" lon="-5.053363">
        <ele>817.1</ele>
        <time>2021-08-18T11:35:04Z</time>
        <sat>9</sat>
      </trkpt>
      <trkpt lat="42.375813" lon="-5.053475">
        <ele>817.1</ele>
        <time>2021-08-18T11:35:10Z</time>
        <sat>9</sat>
      </trkpt>
      <trkpt lat="42.375841" lon="-5.053594">
        <ele>817.1</ele>
        <time>2021-08-18T11:35:17Z</time>
        <sat>9</sat>
      </trkpt>
      <trkpt lat="42.375867" lon="-5.053712">
        <ele>817.3</ele>
        <time>2021-08-18T11:35:24Z</time>
        <sat>9</sat>
      </trkpt>
      <trkpt lat="42.375883" lon="-5.053838">
        <ele>817.3</ele>
        <time>2021-08-18T11:35:31Z</time>
        <sat>9</sat>
      </trkpt>
      <trkpt lat="42.375913" lon="-5.053955">
        <ele>817.3</ele>
        <time>2021-08-18T11:35:38Z</time>
        <sat>9</sat>
      </trkpt>
      <trkpt lat="42.375934" lon="-5.054072">
        <ele>817.3</ele>
        <time>2021-08-18T11:35:46Z</time>
        <sat>9</sat>
      </trkpt>
      <trkpt lat="42.375944" lon="-5.054188">
        <ele>817.3</ele>
        <time>2021-08-18T11:35:52Z</time>
        <sat>9</sat>
      </trkpt>
      <trkpt lat="42.375974" lon="-5.054306">
        <ele>817.3</ele>
        <time>2021-08-18T11:35:59Z</time>
        <sat>9</sat>
      </trkpt>
      <trkpt lat="42.375984" lon="-5.054417">
        <ele>817.3</ele>
        <time>2021-08-18T11:36:08Z</time>
        <sat>8</sat>
      </trkpt>
      <trkpt lat="42.376016" lon="-5.054524">
        <ele>817.3</ele>
        <time>2021-08-18T11:36:18Z</time>
        <sat>9</sat>
      </trkpt>
      <trkpt lat="42.376027" lon="-5.054642">
        <ele>817.3</ele>
        <time>2021-08-18T11:36:24Z</time>
        <sat>9</sat>
      </trkpt>
      <trkpt lat="42.376048" lon="-5.054750">
        <ele>817.3</ele>
        <time>2021-08-18T11:36:31Z</time>
        <sat>9</sat>
      </trkpt>
      <trkpt lat="42.376074" lon="-5.054865">
        <ele>817.3</ele>
        <time>2021-08-18T11:36:39Z</time>
        <sat>9</sat>
      </trkpt>
      <trkpt lat="42.376098" lon="-5.054975">
        <ele>817.3</ele>
        <time>2021-08-18T11:36:45Z</time>
        <sat>9</sat>
      </trkpt>
      <trkpt lat="42.376115" lon="-5.055092">
        <ele>817.4</ele>
        <time>2021-08-18T11:36:51Z</time>
        <sat>9</sat>
      </trkpt>
      <trkpt lat="42.376141" lon="-5.055212">
        <ele>817.5</ele>
        <time>2021-08-18T11:36:58Z</time>
        <sat>9</sat>
      </trkpt>
      <trkpt lat="42.376155" lon="-5.055322">
        <ele>817.6</ele>
        <time>2021-08-18T11:37:04Z</time>
        <sat>9</sat>
      </trkpt>
      <trkpt lat="42.376177" lon="-5.055442">
        <ele>817.8</ele>
        <time>2021-08-18T11:37:11Z</time>
        <sat>9</sat>
      </trkpt>
      <trkpt lat="42.376197" lon="-5.055564">
        <ele>818.0</ele>
        <time>2021-08-18T11:37:18Z</time>
        <sat>9</sat>
      </trkpt>
      <trkpt lat="42.376210" lon="-5.055678">
        <ele>818.2</ele>
        <time>2021-08-18T11:37:24Z</time>
        <sat>9</sat>
      </trkpt>
      <trkpt lat="42.376239" lon="-5.055797">
        <ele>818.3</ele>
        <time>2021-08-18T11:37:31Z</time>
        <sat>9</sat>
      </trkpt>
      <trkpt lat="42.376251" lon="-5.055910">
        <ele>818.5</ele>
        <time>2021-08-18T11:37:37Z</time>
        <sat>8</sat>
      </trkpt>
      <trkpt lat="42.376276" lon="-5.056016">
        <ele>818.6</ele>
        <time>2021-08-18T11:37:43Z</time>
        <sat>9</sat>
      </trkpt>
      <trkpt lat="42.376289" lon="-5.056128">
        <ele>818.7</ele>
        <time>2021-08-18T11:37:49Z</time>
        <sat>9</sat>
      </trkpt>
      <trkpt lat="42.376312" lon="-5.056236">
        <ele>818.9</ele>
        <time>2021-08-18T11:37:55Z</time>
        <sat>9</sat>
      </trkpt>
      <trkpt lat="42.376340" lon="-5.056355">
        <ele>819.2</ele>
        <time>2021-08-18T11:38:02Z</time>
        <sat>9</sat>
      </trkpt>
      <trkpt lat="42.376356" lon="-5.056478">
        <ele>819.5</ele>
        <time>2021-08-18T11:38:09Z</time>
        <sat>9</sat>
      </trkpt>
      <trkpt lat="42.376362" lon="-5.056600">
        <ele>819.8</ele>
        <time>2021-08-18T11:38:16Z</time>
        <sat>9</sat>
      </trkpt>
      <trkpt lat="42.376383" lon="-5.056720">
        <ele>820.0</ele>
        <time>2021-08-18T11:38:23Z</time>
        <sat>9</sat>
      </trkpt>
      <trkpt lat="42.376413" lon="-5.056826">
        <ele>820.1</ele>
        <time>2021-08-18T11:38:30Z</time>
        <sat>9</sat>
      </trkpt>
      <trkpt lat="42.376443" lon="-5.056931">
        <ele>820.3</ele>
        <time>2021-08-18T11:38:37Z</time>
        <sat>9</sat>
      </trkpt>
      <trkpt lat="42.376467" lon="-5.057041">
        <ele>820.5</ele>
        <time>2021-08-18T11:38:43Z</time>
        <sat>9</sat>
      </trkpt>
      <trkpt lat="42.376488" lon="-5.057166">
        <ele>820.8</ele>
        <time>2021-08-18T11:38:50Z</time>
        <sat>9</sat>
      </trkpt>
      <trkpt lat="42.376515" lon="-5.057281">
        <ele>821.1</ele>
        <time>2021-08-18T11:38:57Z</time>
        <sat>9</sat>
      </trkpt>
      <trkpt lat="42.376527" lon="-5.057398">
        <ele>821.5</ele>
        <time>2021-08-18T11:39:04Z</time>
        <sat>9</sat>
      </trkpt>
      <trkpt lat="42.376563" lon="-5.057513">
        <ele>821.7</ele>
        <time>2021-08-18T11:39:11Z</time>
        <sat>9</sat>
      </trkpt>
      <trkpt lat="42.376579" lon="-5.057628">
        <ele>821.8</ele>
        <time>2021-08-18T11:39:17Z</time>
        <sat>9</sat>
      </trkpt>
      <trkpt lat="42.376610" lon="-5.057745">
        <ele>822.0</ele>
        <time>2021-08-18T11:39:24Z</time>
        <sat>9</sat>
      </trkpt>
      <trkpt lat="42.376635" lon="-5.057869">
        <ele>822.3</ele>
        <time>2021-08-18T11:39:32Z</time>
        <sat>9</sat>
      </trkpt>
      <trkpt lat="42.376662" lon="-5.057978">
        <ele>822.6</ele>
        <time>2021-08-18T11:39:38Z</time>
        <sat>9</sat>
      </trkpt>
      <trkpt lat="42.376689" lon="-5.058082">
        <ele>822.7</ele>
        <time>2021-08-18T11:39:44Z</time>
        <sat>9</sat>
      </trkpt>
      <trkpt lat="42.376715" lon="-5.058187">
        <ele>822.9</ele>
        <time>2021-08-18T11:39:50Z</time>
        <sat>9</sat>
      </trkpt>
      <trkpt lat="42.376746" lon="-5.058293">
        <ele>823.0</ele>
        <time>2021-08-18T11:39:56Z</time>
        <sat>9</sat>
      </trkpt>
      <trkpt lat="42.376775" lon="-5.058401">
        <ele>823.2</ele>
        <time>2021-08-18T11:40:02Z</time>
        <sat>9</sat>
      </trkpt>
      <trkpt lat="42.376797" lon="-5.058519">
        <ele>823.3</ele>
        <time>2021-08-18T11:40:09Z</time>
        <sat>9</sat>
      </trkpt>
      <trkpt lat="42.376840" lon="-5.058619">
        <ele>823.6</ele>
        <time>2021-08-18T11:40:27Z</time>
        <sat>9</sat>
      </trkpt>
      <trkpt lat="42.376864" lon="-5.058727">
        <ele>823.7</ele>
        <time>2021-08-18T11:40:33Z</time>
        <sat>9</sat>
      </trkpt>
      <trkpt lat="42.376897" lon="-5.058836">
        <ele>823.8</ele>
        <time>2021-08-18T11:40:39Z</time>
        <sat>9</sat>
      </trkpt>
      <trkpt lat="42.376925" lon="-5.058952">
        <ele>823.9</ele>
        <time>2021-08-18T11:40:45Z</time>
        <sat>9</sat>
      </trkpt>
      <trkpt lat="42.376947" lon="-5.059077">
        <ele>824.0</ele>
        <time>2021-08-18T11:40:51Z</time>
        <sat>9</sat>
      </trkpt>
      <trkpt lat="42.376964" lon="-5.059199">
        <ele>824.1</ele>
        <time>2021-08-18T11:40:58Z</time>
        <sat>8</sat>
      </trkpt>
      <trkpt lat="42.377001" lon="-5.059316">
        <ele>824.2</ele>
        <time>2021-08-18T11:41:05Z</time>
        <sat>9</sat>
      </trkpt>
      <trkpt lat="42.377022" lon="-5.059422">
        <ele>824.3</ele>
        <time>2021-08-18T11:41:11Z</time>
        <sat>8</sat>
      </trkpt>
      <trkpt lat="42.377058" lon="-5.059536">
        <ele>824.4</ele>
        <time>2021-08-18T11:41:18Z</time>
        <sat>8</sat>
      </trkpt>
      <trkpt lat="42.377088" lon="-5.059651">
        <ele>824.6</ele>
        <time>2021-08-18T11:41:25Z</time>
        <sat>8</sat>
      </trkpt>
      <trkpt lat="42.377113" lon="-5.059771">
        <ele>824.8</ele>
        <time>2021-08-18T11:41:32Z</time>
        <sat>8</sat>
      </trkpt>
      <trkpt lat="42.377144" lon="-5.059882">
        <ele>825.0</ele>
        <time>2021-08-18T11:41:39Z</time>
        <sat>9</sat>
      </trkpt>
      <trkpt lat="42.377174" lon="-5.060002">
        <ele>825.2</ele>
        <time>2021-08-18T11:41:46Z</time>
        <sat>9</sat>
      </trkpt>
      <trkpt lat="42.377195" lon="-5.060122">
        <ele>825.2</ele>
        <time>2021-08-18T11:41:53Z</time>
        <sat>9</sat>
      </trkpt>
      <trkpt lat="42.377242" lon="-5.060228">
        <ele>825.7</ele>
        <time>2021-08-18T11:42:50Z</time>
        <sat>9</sat>
      </trkpt>
      <trkpt lat="42.377267" lon="-5.060339">
        <ele>825.8</ele>
        <time>2021-08-18T11:42:56Z</time>
        <sat>9</sat>
      </trkpt>
      <trkpt lat="42.377307" lon="-5.060446">
        <ele>825.9</ele>
        <time>2021-08-18T11:43:02Z</time>
        <sat>9</sat>
      </trkpt>
      <trkpt lat="42.377332" lon="-5.060564">
        <ele>826.0</ele>
        <time>2021-08-18T11:43:08Z</time>
        <sat>8</sat>
      </trkpt>
      <trkpt lat="42.377355" lon="-5.060688">
        <ele>825.9</ele>
        <time>2021-08-18T11:43:14Z</time>
        <sat>9</sat>
      </trkpt>
      <trkpt lat="42.377381" lon="-5.060799">
        <ele>826.2</ele>
        <time>2021-08-18T11:43:20Z</time>
        <sat>9</sat>
      </trkpt>
      <trkpt lat="42.377417" lon="-5.060909">
        <ele>826.6</ele>
        <time>2021-08-18T11:43:29Z</time>
        <sat>8</sat>
      </trkpt>
      <trkpt lat="42.377444" lon="-5.061022">
        <ele>826.6</ele>
        <time>2021-08-18T11:43:35Z</time>
        <sat>9</sat>
      </trkpt>
      <trkpt lat="42.377479" lon="-5.061124">
        <ele>826.8</ele>
        <time>2021-08-18T11:43:41Z</time>
        <sat>9</sat>
      </trkpt>
      <trkpt lat="42.377507" lon="-5.061231">
        <ele>827.1</ele>
        <time>2021-08-18T11:43:47Z</time>
        <sat>9</sat>
      </trkpt>
      <trkpt lat="42.377532" lon="-5.061343">
        <ele>827.3</ele>
        <time>2021-08-18T11:43:53Z</time>
        <sat>9</sat>
      </trkpt>
      <trkpt lat="42.377567" lon="-5.061445">
        <ele>827.3</ele>
        <time>2021-08-18T11:43:59Z</time>
        <sat>9</sat>
      </trkpt>
      <trkpt lat="42.377601" lon="-5.061561">
        <ele>827.5</ele>
        <time>2021-08-18T11:44:05Z</time>
        <sat>9</sat>
      </trkpt>
      <trkpt lat="42.377620" lon="-5.061679">
        <ele>827.6</ele>
        <time>2021-08-18T11:44:11Z</time>
        <sat>9</sat>
      </trkpt>
      <trkpt lat="42.377652" lon="-5.061784">
        <ele>827.6</ele>
        <time>2021-08-18T11:44:17Z</time>
        <sat>9</sat>
      </trkpt>
      <trkpt lat="42.377693" lon="-5.061897">
        <ele>827.6</ele>
        <time>2021-08-18T11:44:23Z</time>
        <sat>9</sat>
      </trkpt>
      <trkpt lat="42.377715" lon="-5.062018">
        <ele>827.6</ele>
        <time>2021-08-18T11:44:29Z</time>
        <sat>9</sat>
      </trkpt>
      <trkpt lat="42.377744" lon="-5.062128">
        <ele>827.6</ele>
        <time>2021-08-18T11:44:35Z</time>
        <sat>9</sat>
      </trkpt>
      <trkpt lat="42.377779" lon="-5.062233">
        <ele>827.6</ele>
        <time>2021-08-18T11:44:41Z</time>
        <sat>9</sat>
      </trkpt>
      <trkpt lat="42.377801" lon="-5.062348">
        <ele>827.8</ele>
        <time>2021-08-18T11:44:47Z</time>
        <sat>9</sat>
      </trkpt>
      <trkpt lat="42.377826" lon="-5.062466">
        <ele>827.9</ele>
        <time>2021-08-18T11:44:53Z</time>
        <sat>9</sat>
      </trkpt>
      <trkpt lat="42.377860" lon="-5.062565">
        <ele>827.9</ele>
        <time>2021-08-18T11:44:59Z</time>
        <sat>9</sat>
      </trkpt>
      <trkpt lat="42.377895" lon="-5.062665">
        <ele>827.9</ele>
        <time>2021-08-18T11:45:05Z</time>
        <sat>9</sat>
      </trkpt>
      <trkpt lat="42.377921" lon="-5.062771">
        <ele>828.1</ele>
        <time>2021-08-18T11:45:10Z</time>
        <sat>9</sat>
      </trkpt>
      <trkpt lat="42.377955" lon="-5.062874">
        <ele>828.2</ele>
        <time>2021-08-18T11:45:19Z</time>
        <sat>9</sat>
      </trkpt>
      <trkpt lat="42.377985" lon="-5.062988">
        <ele>828.4</ele>
        <time>2021-08-18T11:45:39Z</time>
        <sat>8</sat>
      </trkpt>
      <trkpt lat="42.378009" lon="-5.063104">
        <ele>828.3</ele>
        <time>2021-08-18T11:45:46Z</time>
        <sat>8</sat>
      </trkpt>
      <trkpt lat="42.378052" lon="-5.063197">
        <ele>828.1</ele>
        <time>2021-08-18T11:45:58Z</time>
        <sat>9</sat>
      </trkpt>
      <trkpt lat="42.378085" lon="-5.063306">
        <ele>828.1</ele>
        <time>2021-08-18T11:46:05Z</time>
        <sat>8</sat>
      </trkpt>
      <trkpt lat="42.378110" lon="-5.063420">
        <ele>827.9</ele>
        <time>2021-08-18T11:46:12Z</time>
        <sat>8</sat>
      </trkpt>
      <trkpt lat="42.378139" lon="-5.063524">
        <ele>827.7</ele>
        <time>2021-08-18T11:46:18Z</time>
        <sat>9</sat>
      </trkpt>
      <trkpt lat="42.378174" lon="-5.063638">
        <ele>827.4</ele>
        <time>2021-08-18T11:46:25Z</time>
        <sat>9</sat>
      </trkpt>
      <trkpt lat="42.378212" lon="-5.063738">
        <ele>827.1</ele>
        <time>2021-08-18T11:46:31Z</time>
        <sat>8</sat>
      </trkpt>
      <trkpt lat="42.378249" lon="-5.063840">
        <ele>826.7</ele>
        <time>2021-08-18T11:46:37Z</time>
        <sat>9</sat>
      </trkpt>
      <trkpt lat="42.378295" lon="-5.063941">
        <ele>826.5</ele>
        <time>2021-08-18T11:46:43Z</time>
        <sat>9</sat>
      </trkpt>
      <trkpt lat="42.378328" lon="-5.064043">
        <ele>826.2</ele>
        <time>2021-08-18T11:46:49Z</time>
        <sat>9</sat>
      </trkpt>
      <trkpt lat="42.378377" lon="-5.064137">
        <ele>825.9</ele>
        <time>2021-08-18T11:46:55Z</time>
        <sat>9</sat>
      </trkpt>
      <trkpt lat="42.378429" lon="-5.064239">
        <ele>825.8</ele>
        <time>2021-08-18T11:47:01Z</time>
        <sat>8</sat>
      </trkpt>
      <trkpt lat="42.378468" lon="-5.064335">
        <ele>825.5</ele>
        <time>2021-08-18T11:47:10Z</time>
        <sat>9</sat>
      </trkpt>
      <trkpt lat="42.378524" lon="-5.064430">
        <ele>825.2</ele>
        <time>2021-08-18T11:47:19Z</time>
        <sat>9</sat>
      </trkpt>
      <trkpt lat="42.378581" lon="-5.064520">
        <ele>825.1</ele>
        <time>2021-08-18T11:47:28Z</time>
        <sat>9</sat>
      </trkpt>
      <trkpt lat="42.378634" lon="-5.064613">
        <ele>824.9</ele>
        <time>2021-08-18T11:47:36Z</time>
        <sat>9</sat>
      </trkpt>
      <trkpt lat="42.378695" lon="-5.064705">
        <ele>824.5</ele>
        <time>2021-08-18T11:47:43Z</time>
        <sat>9</sat>
      </trkpt>
      <trkpt lat="42.378746" lon="-5.064799">
        <ele>824.4</ele>
        <time>2021-08-18T11:47:49Z</time>
        <sat>9</sat>
      </trkpt>
      <trkpt lat="42.378791" lon="-5.064902">
        <ele>824.1</ele>
        <time>2021-08-18T11:47:56Z</time>
        <sat>9</sat>
      </trkpt>
      <trkpt lat="42.378851" lon="-5.064996">
        <ele>824.2</ele>
        <time>2021-08-18T11:48:03Z</time>
        <sat>8</sat>
      </trkpt>
      <trkpt lat="42.378904" lon="-5.065097">
        <ele>824.1</ele>
        <time>2021-08-18T11:48:09Z</time>
        <sat>9</sat>
      </trkpt>
      <trkpt lat="42.378962" lon="-5.065174">
        <ele>824.1</ele>
        <time>2021-08-18T11:48:15Z</time>
        <sat>9</sat>
      </trkpt>
      <trkpt lat="42.379013" lon="-5.065267">
        <ele>824.3</ele>
        <time>2021-08-18T11:48:21Z</time>
        <sat>9</sat>
      </trkpt>
      <trkpt lat="42.379069" lon="-5.065369">
        <ele>824.5</ele>
        <time>2021-08-18T11:48:28Z</time>
        <sat>9</sat>
      </trkpt>
      <trkpt lat="42.379117" lon="-5.065468">
        <ele>824.5</ele>
        <time>2021-08-18T11:48:34Z</time>
        <sat>9</sat>
      </trkpt>
      <trkpt lat="42.379178" lon="-5.065543">
        <ele>824.6</ele>
        <time>2021-08-18T11:48:40Z</time>
        <sat>9</sat>
      </trkpt>
      <trkpt lat="42.379231" lon="-5.065638">
        <ele>824.6</ele>
        <time>2021-08-18T11:48:46Z</time>
        <sat>9</sat>
      </trkpt>
      <trkpt lat="42.379289" lon="-5.065732">
        <ele>824.7</ele>
        <time>2021-08-18T11:48:53Z</time>
        <sat>9</sat>
      </trkpt>
      <trkpt lat="42.379344" lon="-5.065821">
        <ele>824.7</ele>
        <time>2021-08-18T11:48:59Z</time>
        <sat>9</sat>
      </trkpt>
      <trkpt lat="42.379405" lon="-5.065913">
        <ele>824.8</ele>
        <time>2021-08-18T11:49:06Z</time>
        <sat>9</sat>
      </trkpt>
      <trkpt lat="42.379462" lon="-5.066005">
        <ele>824.9</ele>
        <time>2021-08-18T11:49:12Z</time>
        <sat>9</sat>
      </trkpt>
      <trkpt lat="42.379520" lon="-5.066083">
        <ele>825.0</ele>
        <time>2021-08-18T11:49:18Z</time>
        <sat>9</sat>
      </trkpt>
      <trkpt lat="42.379567" lon="-5.066177">
        <ele>825.0</ele>
        <time>2021-08-18T11:49:24Z</time>
        <sat>9</sat>
      </trkpt>
      <trkpt lat="42.379624" lon="-5.066267">
        <ele>825.1</ele>
        <time>2021-08-18T11:49:31Z</time>
        <sat>9</sat>
      </trkpt>
      <trkpt lat="42.379670" lon="-5.066364">
        <ele>825.2</ele>
        <time>2021-08-18T11:49:37Z</time>
        <sat>9</sat>
      </trkpt>
      <trkpt lat="42.379733" lon="-5.066456">
        <ele>825.3</ele>
        <time>2021-08-18T11:49:44Z</time>
        <sat>9</sat>
      </trkpt>
      <trkpt lat="42.379789" lon="-5.066551">
        <ele>825.4</ele>
        <time>2021-08-18T11:49:50Z</time>
        <sat>9</sat>
      </trkpt>
      <trkpt lat="42.379847" lon="-5.066634">
        <ele>825.5</ele>
        <time>2021-08-18T11:49:56Z</time>
        <sat>9</sat>
      </trkpt>
      <trkpt lat="42.379914" lon="-5.066722">
        <ele>825.4</ele>
        <time>2021-08-18T11:50:03Z</time>
        <sat>9</sat>
      </trkpt>
      <trkpt lat="42.379965" lon="-5.066818">
        <ele>825.4</ele>
        <time>2021-08-18T11:50:09Z</time>
        <sat>9</sat>
      </trkpt>
      <trkpt lat="42.380024" lon="-5.066895">
        <ele>825.4</ele>
        <time>2021-08-18T11:50:15Z</time>
        <sat>9</sat>
      </trkpt>
      <trkpt lat="42.380071" lon="-5.066995">
        <ele>825.5</ele>
        <time>2021-08-18T11:50:22Z</time>
        <sat>9</sat>
      </trkpt>
      <trkpt lat="42.380137" lon="-5.067063">
        <ele>825.7</ele>
        <time>2021-08-18T11:50:32Z</time>
        <sat>9</sat>
      </trkpt>
      <trkpt lat="42.380197" lon="-5.067137">
        <ele>825.6</ele>
        <time>2021-08-18T11:50:38Z</time>
        <sat>9</sat>
      </trkpt>
      <trkpt lat="42.380243" lon="-5.067237">
        <ele>825.6</ele>
        <time>2021-08-18T11:50:44Z</time>
        <sat>9</sat>
      </trkpt>
      <trkpt lat="42.380303" lon="-5.067316">
        <ele>825.6</ele>
        <time>2021-08-18T11:50:51Z</time>
        <sat>9</sat>
      </trkpt>
      <trkpt lat="42.380354" lon="-5.067412">
        <ele>825.6</ele>
        <time>2021-08-18T11:50:57Z</time>
        <sat>8</sat>
      </trkpt>
      <trkpt lat="42.380413" lon="-5.067488">
        <ele>825.6</ele>
        <time>2021-08-18T11:51:03Z</time>
        <sat>8</sat>
      </trkpt>
      <trkpt lat="42.380472" lon="-5.067576">
        <ele>825.5</ele>
        <time>2021-08-18T11:51:09Z</time>
        <sat>8</sat>
      </trkpt>
      <trkpt lat="42.380537" lon="-5.067661">
        <ele>825.6</ele>
        <time>2021-08-18T11:51:16Z</time>
        <sat>9</sat>
      </trkpt>
      <trkpt lat="42.380599" lon="-5.067750">
        <ele>825.6</ele>
        <time>2021-08-18T11:51:23Z</time>
        <sat>9</sat>
      </trkpt>
      <trkpt lat="42.380649" lon="-5.067841">
        <ele>825.7</ele>
        <time>2021-08-18T11:51:30Z</time>
        <sat>8</sat>
      </trkpt>
      <trkpt lat="42.380702" lon="-5.067938">
        <ele>825.9</ele>
        <time>2021-08-18T11:51:37Z</time>
        <sat>8</sat>
      </trkpt>
      <trkpt lat="42.380753" lon="-5.068035">
        <ele>826.1</ele>
        <time>2021-08-18T11:51:44Z</time>
        <sat>9</sat>
      </trkpt>
      <trkpt lat="42.380793" lon="-5.068146">
        <ele>826.1</ele>
        <time>2021-08-18T11:51:51Z</time>
        <sat>8</sat>
      </trkpt>
      <trkpt lat="42.380840" lon="-5.068256">
        <ele>826.1</ele>
        <time>2021-08-18T11:51:58Z</time>
        <sat>9</sat>
      </trkpt>
      <trkpt lat="42.380873" lon="-5.068363">
        <ele>825.9</ele>
        <time>2021-08-18T11:52:05Z</time>
        <sat>9</sat>
      </trkpt>
      <trkpt lat="42.380907" lon="-5.068462">
        <ele>825.8</ele>
        <time>2021-08-18T11:52:11Z</time>
        <sat>9</sat>
      </trkpt>
      <trkpt lat="42.380946" lon="-5.068560">
        <ele>825.8</ele>
        <time>2021-08-18T11:52:17Z</time>
        <sat>9</sat>
      </trkpt>
      <trkpt lat="42.380999" lon="-5.068665">
        <ele>825.7</ele>
        <time>2021-08-18T11:52:24Z</time>
        <sat>9</sat>
      </trkpt>
      <trkpt lat="42.381039" lon="-5.068764">
        <ele>825.7</ele>
        <time>2021-08-18T11:52:30Z</time>
        <sat>9</sat>
      </trkpt>
      <trkpt lat="42.381083" lon="-5.068870">
        <ele>825.8</ele>
        <time>2021-08-18T11:52:37Z</time>
        <sat>9</sat>
      </trkpt>
      <trkpt lat="42.381118" lon="-5.068969">
        <ele>825.7</ele>
        <time>2021-08-18T11:52:43Z</time>
        <sat>9</sat>
      </trkpt>
      <trkpt lat="42.381155" lon="-5.069077">
        <ele>825.9</ele>
        <time>2021-08-18T11:52:50Z</time>
        <sat>9</sat>
      </trkpt>
      <trkpt lat="42.381185" lon="-5.069180">
        <ele>825.8</ele>
        <time>2021-08-18T11:52:56Z</time>
        <sat>9</sat>
      </trkpt>
      <trkpt lat="42.381228" lon="-5.069280">
        <ele>825.9</ele>
        <time>2021-08-18T11:53:02Z</time>
        <sat>9</sat>
      </trkpt>
      <trkpt lat="42.381253" lon="-5.069387">
        <ele>826.0</ele>
        <time>2021-08-18T11:53:08Z</time>
        <sat>9</sat>
      </trkpt>
      <trkpt lat="42.381295" lon="-5.069500">
        <ele>826.0</ele>
        <time>2021-08-18T11:53:15Z</time>
        <sat>9</sat>
      </trkpt>
      <trkpt lat="42.381325" lon="-5.069611">
        <ele>826.1</ele>
        <time>2021-08-18T11:53:21Z</time>
        <sat>9</sat>
      </trkpt>
      <trkpt lat="42.381368" lon="-5.069725">
        <ele>826.3</ele>
        <time>2021-08-18T11:53:28Z</time>
        <sat>9</sat>
      </trkpt>
      <trkpt lat="42.381397" lon="-5.069829">
        <ele>826.2</ele>
        <time>2021-08-18T11:53:34Z</time>
        <sat>8</sat>
      </trkpt>
      <trkpt lat="42.381436" lon="-5.069947">
        <ele>826.1</ele>
        <time>2021-08-18T11:53:41Z</time>
        <sat>8</sat>
      </trkpt>
      <trkpt lat="42.381477" lon="-5.070060">
        <ele>826.1</ele>
        <time>2021-08-18T11:53:48Z</time>
        <sat>8</sat>
      </trkpt>
      <trkpt lat="42.381504" lon="-5.070167">
        <ele>826.3</ele>
        <time>2021-08-18T11:53:54Z</time>
        <sat>8</sat>
      </trkpt>
      <trkpt lat="42.381547" lon="-5.070275">
        <ele>826.4</ele>
        <time>2021-08-18T11:54:01Z</time>
        <sat>8</sat>
      </trkpt>
      <trkpt lat="42.381575" lon="-5.070380">
        <ele>826.4</ele>
        <time>2021-08-18T11:54:07Z</time>
        <sat>8</sat>
      </trkpt>
      <trkpt lat="42.381609" lon="-5.070493">
        <ele>826.5</ele>
        <time>2021-08-18T11:54:14Z</time>
        <sat>8</sat>
      </trkpt>
      <trkpt lat="42.381645" lon="-5.070595">
        <ele>826.5</ele>
        <time>2021-08-18T11:54:20Z</time>
        <sat>8</sat>
      </trkpt>
      <trkpt lat="42.381682" lon="-5.070693">
        <ele>826.6</ele>
        <time>2021-08-18T11:54:26Z</time>
        <sat>8</sat>
      </trkpt>
      <trkpt lat="42.381718" lon="-5.070800">
        <ele>826.9</ele>
        <time>2021-08-18T11:54:32Z</time>
        <sat>8</sat>
      </trkpt>
      <trkpt lat="42.381754" lon="-5.070916">
        <ele>827.0</ele>
        <time>2021-08-18T11:54:39Z</time>
        <sat>8</sat>
      </trkpt>
      <trkpt lat="42.381790" lon="-5.071015">
        <ele>827.0</ele>
        <time>2021-08-18T11:54:45Z</time>
        <sat>8</sat>
      </trkpt>
      <trkpt lat="42.381823" lon="-5.071122">
        <ele>827.0</ele>
        <time>2021-08-18T11:54:51Z</time>
        <sat>8</sat>
      </trkpt>
      <trkpt lat="42.381858" lon="-5.071238">
        <ele>827.2</ele>
        <time>2021-08-18T11:54:58Z</time>
        <sat>8</sat>
      </trkpt>
      <trkpt lat="42.381891" lon="-5.071343">
        <ele>827.2</ele>
        <time>2021-08-18T11:55:04Z</time>
        <sat>8</sat>
      </trkpt>
      <trkpt lat="42.381922" lon="-5.071461">
        <ele>827.4</ele>
        <time>2021-08-18T11:55:11Z</time>
        <sat>8</sat>
      </trkpt>
      <trkpt lat="42.381960" lon="-5.071572">
        <ele>827.5</ele>
        <time>2021-08-18T11:55:18Z</time>
        <sat>8</sat>
      </trkpt>
      <trkpt lat="42.381976" lon="-5.071687">
        <ele>827.7</ele>
        <time>2021-08-18T11:55:24Z</time>
        <sat>8</sat>
      </trkpt>
      <trkpt lat="42.382009" lon="-5.071794">
        <ele>827.5</ele>
        <time>2021-08-18T11:55:30Z</time>
        <sat>8</sat>
      </trkpt>
      <trkpt lat="42.382037" lon="-5.071904">
        <ele>827.4</ele>
        <time>2021-08-18T11:55:37Z</time>
        <sat>8</sat>
      </trkpt>
      <trkpt lat="42.382070" lon="-5.072023">
        <ele>828.1</ele>
        <time>2021-08-18T11:55:44Z</time>
        <sat>8</sat>
      </trkpt>
      <trkpt lat="42.382072" lon="-5.072149">
        <ele>828.4</ele>
        <time>2021-08-18T11:55:50Z</time>
        <sat>8</sat>
      </trkpt>
      <trkpt lat="42.382081" lon="-5.072266">
        <ele>828.5</ele>
        <time>2021-08-18T11:55:57Z</time>
        <sat>8</sat>
      </trkpt>
      <trkpt lat="42.382092" lon="-5.072392">
        <ele>828.7</ele>
        <time>2021-08-18T11:56:04Z</time>
        <sat>8</sat>
      </trkpt>
      <trkpt lat="42.382093" lon="-5.072511">
        <ele>829.0</ele>
        <time>2021-08-18T11:56:10Z</time>
        <sat>9</sat>
      </trkpt>
      <trkpt lat="42.382108" lon="-5.072634">
        <ele>829.3</ele>
        <time>2021-08-18T11:56:17Z</time>
        <sat>9</sat>
      </trkpt>
      <trkpt lat="42.382101" lon="-5.072748">
        <ele>829.6</ele>
        <time>2021-08-18T11:56:23Z</time>
        <sat>9</sat>
      </trkpt>
      <trkpt lat="42.382106" lon="-5.072871">
        <ele>830.0</ele>
        <time>2021-08-18T11:56:30Z</time>
        <sat>9</sat>
      </trkpt>
      <trkpt lat="42.382105" lon="-5.072981">
        <ele>830.1</ele>
        <time>2021-08-18T11:56:36Z</time>
        <sat>9</sat>
      </trkpt>
      <trkpt lat="42.382104" lon="-5.073094">
        <ele>830.2</ele>
        <time>2021-08-18T11:56:42Z</time>
        <sat>9</sat>
      </trkpt>
      <trkpt lat="42.382112" lon="-5.073215">
        <ele>830.5</ele>
        <time>2021-08-18T11:56:49Z</time>
        <sat>9</sat>
      </trkpt>
      <trkpt lat="42.382108" lon="-5.073326">
        <ele>830.6</ele>
        <time>2021-08-18T11:56:55Z</time>
        <sat>9</sat>
      </trkpt>
      <trkpt lat="42.382113" lon="-5.073450">
        <ele>830.7</ele>
        <time>2021-08-18T11:57:02Z</time>
        <sat>9</sat>
      </trkpt>
      <trkpt lat="42.382118" lon="-5.073571">
        <ele>830.9</ele>
        <time>2021-08-18T11:57:09Z</time>
        <sat>9</sat>
      </trkpt>
      <trkpt lat="42.382118" lon="-5.073695">
        <ele>831.0</ele>
        <time>2021-08-18T11:57:16Z</time>
        <sat>9</sat>
      </trkpt>
      <trkpt lat="42.382130" lon="-5.073806">
        <ele>831.2</ele>
        <time>2021-08-18T11:57:22Z</time>
        <sat>9</sat>
      </trkpt>
      <trkpt lat="42.382207" lon="-5.073851">
        <ele>831.8</ele>
        <time>2021-08-18T11:57:34Z</time>
        <sat>10</sat>
      </trkpt>
      <trkpt lat="42.382277" lon="-5.073920">
        <ele>832.0</ele>
        <time>2021-08-18T11:57:40Z</time>
        <sat>10</sat>
      </trkpt>
      <trkpt lat="42.382312" lon="-5.074022">
        <ele>832.1</ele>
        <time>2021-08-18T11:57:47Z</time>
        <sat>10</sat>
      </trkpt>
      <trkpt lat="42.382330" lon="-5.074141">
        <ele>831.8</ele>
        <time>2021-08-18T11:57:54Z</time>
        <sat>10</sat>
      </trkpt>
      <trkpt lat="42.382331" lon="-5.074268">
        <ele>831.7</ele>
        <time>2021-08-18T11:58:01Z</time>
        <sat>10</sat>
      </trkpt>
      <trkpt lat="42.382339" lon="-5.074388">
        <ele>831.6</ele>
        <time>2021-08-18T11:58:08Z</time>
        <sat>10</sat>
      </trkpt>
      <trkpt lat="42.382342" lon="-5.074506">
        <ele>831.5</ele>
        <time>2021-08-18T11:58:15Z</time>
        <sat>10</sat>
      </trkpt>
      <trkpt lat="42.382339" lon="-5.074623">
        <ele>831.5</ele>
        <time>2021-08-18T11:58:22Z</time>
        <sat>10</sat>
      </trkpt>
      <trkpt lat="42.382343" lon="-5.074735">
        <ele>831.5</ele>
        <time>2021-08-18T11:58:36Z</time>
        <sat>10</sat>
      </trkpt>
      <trkpt lat="42.382342" lon="-5.074862">
        <ele>831.5</ele>
        <time>2021-08-18T11:58:43Z</time>
        <sat>10</sat>
      </trkpt>
      <trkpt lat="42.382356" lon="-5.074976">
        <ele>831.3</ele>
        <time>2021-08-18T11:58:49Z</time>
        <sat>10</sat>
      </trkpt>
      <trkpt lat="42.382358" lon="-5.075089">
        <ele>831.4</ele>
        <time>2021-08-18T11:58:56Z</time>
        <sat>10</sat>
      </trkpt>
      <trkpt lat="42.382370" lon="-5.075201">
        <ele>831.6</ele>
        <time>2021-08-18T11:59:05Z</time>
        <sat>10</sat>
      </trkpt>
      <trkpt lat="42.382377" lon="-5.075323">
        <ele>831.6</ele>
        <time>2021-08-18T11:59:13Z</time>
        <sat>10</sat>
      </trkpt>
      <trkpt lat="42.382390" lon="-5.075435">
        <ele>831.7</ele>
        <time>2021-08-18T11:59:20Z</time>
        <sat>10</sat>
      </trkpt>
      <trkpt lat="42.382413" lon="-5.075546">
        <ele>831.7</ele>
        <time>2021-08-18T11:59:26Z</time>
        <sat>9</sat>
      </trkpt>
      <trkpt lat="42.382414" lon="-5.075656">
        <ele>831.7</ele>
        <time>2021-08-18T11:59:32Z</time>
        <sat>10</sat>
      </trkpt>
      <trkpt lat="42.382403" lon="-5.075776">
        <ele>831.7</ele>
        <time>2021-08-18T11:59:39Z</time>
        <sat>10</sat>
      </trkpt>
      <trkpt lat="42.382402" lon="-5.075889">
        <ele>831.8</ele>
        <time>2021-08-18T11:59:46Z</time>
        <sat>10</sat>
      </trkpt>
      <trkpt lat="42.382403" lon="-5.076008">
        <ele>831.8</ele>
        <time>2021-08-18T11:59:52Z</time>
        <sat>10</sat>
      </trkpt>
      <trkpt lat="42.382418" lon="-5.076123">
        <ele>831.8</ele>
        <time>2021-08-18T11:59:59Z</time>
        <sat>10</sat>
      </trkpt>
      <trkpt lat="42.382427" lon="-5.076233">
        <ele>831.8</ele>
        <time>2021-08-18T12:00:05Z</time>
        <sat>10</sat>
      </trkpt>
      <trkpt lat="42.382420" lon="-5.076351">
        <ele>831.8</ele>
        <time>2021-08-18T12:00:12Z</time>
        <sat>9</sat>
      </trkpt>
      <trkpt lat="42.382393" lon="-5.076455">
        <ele>831.8</ele>
        <time>2021-08-18T12:00:19Z</time>
        <sat>10</sat>
      </trkpt>
      <trkpt lat="42.382407" lon="-5.076564">
        <ele>831.9</ele>
        <time>2021-08-18T12:01:05Z</time>
        <sat>9</sat>
      </trkpt>
      <trkpt lat="42.382320" lon="-5.076526">
        <ele>831.6</ele>
        <time>2021-08-18T12:02:48Z</time>
        <sat>10</sat>
      </trkpt>
      <trkpt lat="42.382252" lon="-5.076615">
        <ele>831.7</ele>
        <time>2021-08-18T12:02:54Z</time>
        <sat>10</sat>
      </trkpt>
      <trkpt lat="42.382210" lon="-5.076715">
        <ele>831.7</ele>
        <time>2021-08-18T12:03:00Z</time>
        <sat>10</sat>
      </trkpt>
      <trkpt lat="42.382205" lon="-5.076829">
        <ele>831.5</ele>
        <time>2021-08-18T12:03:06Z</time>
        <sat>10</sat>
      </trkpt>
      <trkpt lat="42.382218" lon="-5.076950">
        <ele>831.5</ele>
        <time>2021-08-18T12:03:13Z</time>
        <sat>10</sat>
      </trkpt>
      <trkpt lat="42.382267" lon="-5.077038">
        <ele>831.6</ele>
        <time>2021-08-18T12:03:29Z</time>
        <sat>10</sat>
      </trkpt>
      <trkpt lat="42.382345" lon="-5.077069">
        <ele>831.6</ele>
        <time>2021-08-18T12:03:35Z</time>
        <sat>10</sat>
      </trkpt>
      <trkpt lat="42.382366" lon="-5.077188">
        <ele>831.7</ele>
        <time>2021-08-18T12:03:43Z</time>
        <sat>10</sat>
      </trkpt>
      <trkpt lat="42.382358" lon="-5.077308">
        <ele>831.9</ele>
        <time>2021-08-18T12:03:50Z</time>
        <sat>10</sat>
      </trkpt>
      <trkpt lat="42.382391" lon="-5.077409">
        <ele>831.8</ele>
        <time>2021-08-18T12:03:57Z</time>
        <sat>10</sat>
      </trkpt>
      <trkpt lat="42.382452" lon="-5.077491">
        <ele>831.6</ele>
        <time>2021-08-18T12:04:04Z</time>
        <sat>10</sat>
      </trkpt>
      <trkpt lat="42.382527" lon="-5.077562">
        <ele>831.0</ele>
        <time>2021-08-18T12:04:14Z</time>
        <sat>9</sat>
      </trkpt>
      <trkpt lat="42.382593" lon="-5.077652">
        <ele>830.4</ele>
        <time>2021-08-18T12:04:24Z</time>
        <sat>10</sat>
      </trkpt>
      <trkpt lat="42.382644" lon="-5.077750">
        <ele>830.3</ele>
        <time>2021-08-18T12:04:33Z</time>
        <sat>10</sat>
      </trkpt>
      <trkpt lat="42.382694" lon="-5.077848">
        <ele>830.2</ele>
        <time>2021-08-18T12:04:40Z</time>
        <sat>9</sat>
      </trkpt>
      <trkpt lat="42.382742" lon="-5.077938">
        <ele>830.3</ele>
        <time>2021-08-18T12:04:46Z</time>
        <sat>10</sat>
      </trkpt>
      <trkpt lat="42.382780" lon="-5.078036">
        <ele>830.5</ele>
        <time>2021-08-18T12:04:53Z</time>
        <sat>10</sat>
      </trkpt>
      <trkpt lat="42.382802" lon="-5.078154">
        <ele>830.5</ele>
        <time>2021-08-18T12:05:02Z</time>
        <sat>9</sat>
      </trkpt>
      <trkpt lat="42.382839" lon="-5.078259">
        <ele>829.6</ele>
        <time>2021-08-18T12:06:24Z</time>
        <sat>9</sat>
      </trkpt>
      <trkpt lat="42.382869" lon="-5.078371">
        <ele>829.6</ele>
        <time>2021-08-18T12:06:33Z</time>
        <sat>9</sat>
      </trkpt>
      <trkpt lat="42.382884" lon="-5.078489">
        <ele>829.6</ele>
        <time>2021-08-18T12:06:42Z</time>
        <sat>9</sat>
      </trkpt>
      <trkpt lat="42.382910" lon="-5.078606">
        <ele>829.7</ele>
        <time>2021-08-18T12:06:50Z</time>
        <sat>9</sat>
      </trkpt>
      <trkpt lat="42.382928" lon="-5.078718">
        <ele>829.7</ele>
        <time>2021-08-18T12:06:58Z</time>
        <sat>9</sat>
      </trkpt>
      <trkpt lat="42.382956" lon="-5.078828">
        <ele>829.5</ele>
        <time>2021-08-18T12:07:05Z</time>
        <sat>9</sat>
      </trkpt>
      <trkpt lat="42.382969" lon="-5.078952">
        <ele>829.4</ele>
        <time>2021-08-18T12:07:13Z</time>
        <sat>10</sat>
      </trkpt>
      <trkpt lat="42.383004" lon="-5.079056">
        <ele>829.3</ele>
        <time>2021-08-18T12:07:20Z</time>
        <sat>9</sat>
      </trkpt>
      <trkpt lat="42.383015" lon="-5.079176">
        <ele>829.3</ele>
        <time>2021-08-18T12:07:32Z</time>
        <sat>10</sat>
      </trkpt>
      <trkpt lat="42.383034" lon="-5.079283">
        <ele>829.3</ele>
        <time>2021-08-18T12:07:38Z</time>
        <sat>10</sat>
      </trkpt>
      <trkpt lat="42.383048" lon="-5.079410">
        <ele>829.4</ele>
        <time>2021-08-18T12:07:45Z</time>
        <sat>10</sat>
      </trkpt>
      <trkpt lat="42.383061" lon="-5.079534">
        <ele>829.5</ele>
        <time>2021-08-18T12:07:52Z</time>
        <sat>10</sat>
      </trkpt>
      <trkpt lat="42.383077" lon="-5.079657">
        <ele>829.7</ele>
        <time>2021-08-18T12:07:59Z</time>
        <sat>10</sat>
      </trkpt>
      <trkpt lat="42.383095" lon="-5.079764">
        <ele>829.7</ele>
        <time>2021-08-18T12:08:05Z</time>
        <sat>9</sat>
      </trkpt>
      <trkpt lat="42.383108" lon="-5.079878">
        <ele>829.7</ele>
        <time>2021-08-18T12:08:12Z</time>
        <sat>9</sat>
      </trkpt>
      <trkpt lat="42.383124" lon="-5.080001">
        <ele>829.7</ele>
        <time>2021-08-18T12:08:19Z</time>
        <sat>10</sat>
      </trkpt>
      <trkpt lat="42.383135" lon="-5.080125">
        <ele>829.6</ele>
        <time>2021-08-18T12:08:26Z</time>
        <sat>10</sat>
      </trkpt>
      <trkpt lat="42.383171" lon="-5.080239">
        <ele>829.6</ele>
        <time>2021-08-18T12:08:33Z</time>
        <sat>9</sat>
      </trkpt>
      <trkpt lat="42.383190" lon="-5.080362">
        <ele>829.6</ele>
        <time>2021-08-18T12:08:40Z</time>
        <sat>9</sat>
      </trkpt>
      <trkpt lat="42.383218" lon="-5.080481">
        <ele>829.6</ele>
        <time>2021-08-18T12:08:47Z</time>
        <sat>10</sat>
      </trkpt>
      <trkpt lat="42.383246" lon="-5.080603">
        <ele>829.6</ele>
        <time>2021-08-18T12:08:54Z</time>
        <sat>10</sat>
      </trkpt>
      <trkpt lat="42.383275" lon="-5.080709">
        <ele>829.7</ele>
        <time>2021-08-18T12:09:00Z</time>
        <sat>10</sat>
      </trkpt>
      <trkpt lat="42.383298" lon="-5.080830">
        <ele>829.7</ele>
        <time>2021-08-18T12:09:07Z</time>
        <sat>10</sat>
      </trkpt>
      <trkpt lat="42.383307" lon="-5.080939">
        <ele>829.7</ele>
        <time>2021-08-18T12:09:13Z</time>
        <sat>9</sat>
      </trkpt>
      <trkpt lat="42.383322" lon="-5.081058">
        <ele>829.6</ele>
        <time>2021-08-18T12:09:20Z</time>
        <sat>9</sat>
      </trkpt>
      <trkpt lat="42.383326" lon="-5.081181">
        <ele>829.7</ele>
        <time>2021-08-18T12:09:27Z</time>
        <sat>9</sat>
      </trkpt>
      <trkpt lat="42.383350" lon="-5.081303">
        <ele>829.7</ele>
        <time>2021-08-18T12:09:34Z</time>
        <sat>10</sat>
      </trkpt>
      <trkpt lat="42.383368" lon="-5.081410">
        <ele>829.6</ele>
        <time>2021-08-18T12:09:40Z</time>
        <sat>10</sat>
      </trkpt>
      <trkpt lat="42.383400" lon="-5.081524">
        <ele>829.6</ele>
        <time>2021-08-18T12:09:47Z</time>
        <sat>10</sat>
      </trkpt>
      <trkpt lat="42.383423" lon="-5.081637">
        <ele>829.7</ele>
        <time>2021-08-18T12:09:54Z</time>
        <sat>9</sat>
      </trkpt>
      <trkpt lat="42.383432" lon="-5.081755">
        <ele>829.8</ele>
        <time>2021-08-18T12:10:01Z</time>
        <sat>8</sat>
      </trkpt>
      <trkpt lat="42.385186" lon="-5.113135">
        <ele>825.9</ele>
        <time>2021-08-18T13:20:20Z</time>
        <sat>4</sat>
      </trkpt>
      <trkpt lat="42.385273" lon="-5.113181">
        <ele>828.3</ele>
        <time>2021-08-18T13:20:22Z</time>
        <sat>7</sat>
      </trkpt>
      <trkpt lat="42.385312" lon="-5.113294">
        <ele>831.8</ele>
        <time>2021-08-18T13:20:30Z</time>
        <sat>8</sat>
      </trkpt>
      <trkpt lat="42.385312" lon="-5.113426">
        <ele>831.5</ele>
        <time>2021-08-18T13:20:37Z</time>
        <sat>8</sat>
      </trkpt>
      <trkpt lat="42.385349" lon="-5.113538">
        <ele>831.0</ele>
        <time>2021-08-18T13:20:46Z</time>
        <sat>8</sat>
      </trkpt>
      <trkpt lat="42.385379" lon="-5.113654">
        <ele>830.4</ele>
        <time>2021-08-18T13:20:54Z</time>
        <sat>8</sat>
      </trkpt>
      <trkpt lat="42.385401" lon="-5.113763">
        <ele>831.3</ele>
        <time>2021-08-18T13:21:01Z</time>
        <sat>8</sat>
      </trkpt>
      <trkpt lat="42.385428" lon="-5.113872">
        <ele>831.7</ele>
        <time>2021-08-18T13:21:09Z</time>
        <sat>8</sat>
      </trkpt>
      <trkpt lat="42.385454" lon="-5.113980">
        <ele>830.9</ele>
        <time>2021-08-18T13:21:17Z</time>
        <sat>8</sat>
      </trkpt>
      <trkpt lat="42.385493" lon="-5.114087">
        <ele>832.7</ele>
        <time>2021-08-18T13:21:26Z</time>
        <sat>9</sat>
      </trkpt>
      <trkpt lat="42.385522" lon="-5.114204">
        <ele>832.6</ele>
        <time>2021-08-18T13:21:34Z</time>
        <sat>9</sat>
      </trkpt>
      <trkpt lat="42.385541" lon="-5.114313">
        <ele>832.4</ele>
        <time>2021-08-18T13:21:42Z</time>
        <sat>9</sat>
      </trkpt>
      <trkpt lat="42.385567" lon="-5.114427">
        <ele>833.2</ele>
        <time>2021-08-18T13:21:50Z</time>
        <sat>9</sat>
      </trkpt>
      <trkpt lat="42.385601" lon="-5.114535">
        <ele>832.5</ele>
        <time>2021-08-18T13:21:58Z</time>
        <sat>9</sat>
      </trkpt>
      <trkpt lat="42.385623" lon="-5.114643">
        <ele>832.5</ele>
        <time>2021-08-18T13:22:06Z</time>
        <sat>9</sat>
      </trkpt>
      <trkpt lat="42.385647" lon="-5.114752">
        <ele>832.9</ele>
        <time>2021-08-18T13:22:14Z</time>
        <sat>9</sat>
      </trkpt>
      <trkpt lat="42.385675" lon="-5.114864">
        <ele>832.9</ele>
        <time>2021-08-18T13:22:22Z</time>
        <sat>9</sat>
      </trkpt>
      <trkpt lat="42.385701" lon="-5.114971">
        <ele>832.8</ele>
        <time>2021-08-18T13:22:30Z</time>
        <sat>9</sat>
      </trkpt>
      <trkpt lat="42.385729" lon="-5.115154">
        <ele>832.5</ele>
        <time>2021-08-18T13:22:39Z</time>
        <sat>10</sat>
      </trkpt>
      <trkpt lat="42.389381" lon="-5.132063">
        <ele>832.4</ele>
        <time>2021-08-18T13:22:48Z</time>
        <sat>10</sat>
      </trkpt>
      <trkpt lat="42.387827" lon="-5.144555">
        <ele>870.1</ele>
        <time>2021-08-18T14:22:37Z</time>
        <sat>10</sat>
      </trkpt>
      <trkpt lat="42.388170" lon="-5.145796">
        <ele>850.1</ele>
        <time>2021-08-19T04:34:06Z</time>
      </trkpt>
      <trkpt lat="42.388317" lon="-5.145953">
        <ele>856.1</ele>
        <time>2021-08-19T04:34:20Z</time>
      </trkpt>
      <trkpt lat="42.388433" lon="-5.146155">
        <ele>856.1</ele>
        <time>2021-08-19T04:34:35Z</time>
      </trkpt>
      <trkpt lat="42.388552" lon="-5.146341">
        <ele>854.8</ele>
        <time>2021-08-19T04:34:47Z</time>
      </trkpt>
      <trkpt lat="42.388687" lon="-5.146518">
        <ele>854.6</ele>
        <time>2021-08-19T04:35:00Z</time>
      </trkpt>
      <trkpt lat="42.388831" lon="-5.146665">
        <ele>854.5</ele>
        <time>2021-08-19T04:35:19Z</time>
      </trkpt>
      <trkpt lat="42.388972" lon="-5.146830">
        <ele>854.2</ele>
        <time>2021-08-19T04:35:40Z</time>
      </trkpt>
      <trkpt lat="42.389133" lon="-5.146949">
        <ele>843.0</ele>
        <time>2021-08-19T04:35:55Z</time>
      </trkpt>
      <trkpt lat="42.389294" lon="-5.147083">
        <ele>843.7</ele>
        <time>2021-08-19T04:36:17Z</time>
      </trkpt>
      <trkpt lat="42.389434" lon="-5.147237">
        <ele>844.7</ele>
        <time>2021-08-19T04:36:31Z</time>
      </trkpt>
      <trkpt lat="42.389593" lon="-5.147362">
        <ele>844.0</ele>
        <time>2021-08-19T04:36:48Z</time>
      </trkpt>
      <trkpt lat="42.389652" lon="-5.147599">
        <ele>844.6</ele>
        <time>2021-08-19T04:37:06Z</time>
      </trkpt>
      <trkpt lat="42.389706" lon="-5.147839">
        <ele>835.2</ele>
        <time>2021-08-19T04:37:33Z</time>
      </trkpt>
      <trkpt lat="42.389861" lon="-5.147986">
        <ele>839.3</ele>
        <time>2021-08-19T04:37:49Z</time>
      </trkpt>
      <trkpt lat="42.390004" lon="-5.148139">
        <ele>842.8</ele>
        <time>2021-08-19T04:38:06Z</time>
      </trkpt>
      <trkpt lat="42.390119" lon="-5.148327">
        <ele>841.7</ele>
        <time>2021-08-19T04:38:20Z</time>
      </trkpt>
      <trkpt lat="42.390229" lon="-5.148521">
        <ele>840.2</ele>
        <time>2021-08-19T04:38:36Z</time>
      </trkpt>
      <trkpt lat="42.390294" lon="-5.148766">
        <ele>839.8</ele>
        <time>2021-08-19T04:38:57Z</time>
      </trkpt>
      <trkpt lat="42.390422" lon="-5.148953">
        <ele>840.1</ele>
        <time>2021-08-19T04:39:12Z</time>
      </trkpt>
      <trkpt lat="42.390545" lon="-5.149135">
        <ele>839.0</ele>
        <time>2021-08-19T04:39:32Z</time>
      </trkpt>
      <trkpt lat="42.390663" lon="-5.149325">
        <ele>838.7</ele>
        <time>2021-08-19T04:39:47Z</time>
      </trkpt>
      <trkpt lat="42.390761" lon="-5.149535">
        <ele>840.8</ele>
        <time>2021-08-19T04:40:02Z</time>
      </trkpt>
      <trkpt lat="42.390802" lon="-5.149773">
        <ele>844.7</ele>
        <time>2021-08-19T04:40:21Z</time>
      </trkpt>
      <trkpt lat="42.390884" lon="-5.149993">
        <ele>846.2</ele>
        <time>2021-08-19T04:40:46Z</time>
      </trkpt>
      <trkpt lat="42.391009" lon="-5.150195">
        <ele>844.7</ele>
        <time>2021-08-19T04:41:09Z</time>
      </trkpt>
      <trkpt lat="42.391113" lon="-5.150397">
        <ele>842.1</ele>
        <time>2021-08-19T04:41:27Z</time>
      </trkpt>
      <trkpt lat="42.391186" lon="-5.150625">
        <ele>843.4</ele>
        <time>2021-08-19T04:41:45Z</time>
      </trkpt>
      <trkpt lat="42.391249" lon="-5.150870">
        <ele>845.6</ele>
        <time>2021-08-19T04:42:03Z</time>
      </trkpt>
      <trkpt lat="42.391329" lon="-5.151093">
        <ele>839.9</ele>
        <time>2021-08-19T04:42:25Z</time>
      </trkpt>
      <trkpt lat="42.391412" lon="-5.151323">
        <ele>840.9</ele>
        <time>2021-08-19T04:42:42Z</time>
      </trkpt>
      <trkpt lat="42.391512" lon="-5.151544">
        <ele>843.3</ele>
        <time>2021-08-19T04:43:05Z</time>
      </trkpt>
      <trkpt lat="42.391619" lon="-5.151740">
        <ele>843.0</ele>
        <time>2021-08-19T04:43:24Z</time>
      </trkpt>
      <trkpt lat="42.391714" lon="-5.151953">
        <ele>844.1</ele>
        <time>2021-08-19T04:43:43Z</time>
      </trkpt>
      <trkpt lat="42.391828" lon="-5.152144">
        <ele>843.9</ele>
        <time>2021-08-19T04:44:03Z</time>
      </trkpt>
      <trkpt lat="42.391956" lon="-5.152325">
        <ele>846.0</ele>
        <time>2021-08-19T04:44:18Z</time>
      </trkpt>
      <trkpt lat="42.392063" lon="-5.152546">
        <ele>845.8</ele>
        <time>2021-08-19T04:44:40Z</time>
      </trkpt>
      <trkpt lat="42.392176" lon="-5.152742">
        <ele>847.8</ele>
        <time>2021-08-19T04:44:58Z</time>
      </trkpt>
      <trkpt lat="42.392286" lon="-5.152944">
        <ele>847.0</ele>
        <time>2021-08-19T04:45:12Z</time>
      </trkpt>
      <trkpt lat="42.392395" lon="-5.153152">
        <ele>850.0</ele>
        <time>2021-08-19T04:45:28Z</time>
      </trkpt>
      <trkpt lat="42.392502" lon="-5.153353">
        <ele>847.7</ele>
        <time>2021-08-19T04:45:47Z</time>
      </trkpt>
      <trkpt lat="42.392602" lon="-5.153563">
        <ele>850.0</ele>
        <time>2021-08-19T04:46:04Z</time>
      </trkpt>
      <trkpt lat="42.392719" lon="-5.153770">
        <ele>851.8</ele>
        <time>2021-08-19T04:46:21Z</time>
      </trkpt>
      <trkpt lat="42.392828" lon="-5.153985">
        <ele>851.9</ele>
        <time>2021-08-19T04:46:39Z</time>
      </trkpt>
      <trkpt lat="42.392947" lon="-5.154174">
        <ele>850.9</ele>
        <time>2021-08-19T04:46:57Z</time>
      </trkpt>
      <trkpt lat="42.393053" lon="-5.154390">
        <ele>851.1</ele>
        <time>2021-08-19T04:47:14Z</time>
      </trkpt>
      <trkpt lat="42.393165" lon="-5.154592">
        <ele>851.9</ele>
        <time>2021-08-19T04:47:31Z</time>
      </trkpt>
      <trkpt lat="42.393271" lon="-5.154790">
        <ele>852.3</ele>
        <time>2021-08-19T04:47:48Z</time>
      </trkpt>
      <trkpt lat="42.393373" lon="-5.154991">
        <ele>852.0</ele>
        <time>2021-08-19T04:48:05Z</time>
      </trkpt>
      <trkpt lat="42.393488" lon="-5.155186">
        <ele>851.0</ele>
        <time>2021-08-19T04:48:23Z</time>
      </trkpt>
      <trkpt lat="42.393594" lon="-5.155386">
        <ele>850.9</ele>
        <time>2021-08-19T04:48:40Z</time>
      </trkpt>
      <trkpt lat="42.393701" lon="-5.155583">
        <ele>852.1</ele>
        <time>2021-08-19T04:48:57Z</time>
      </trkpt>
      <trkpt lat="42.393804" lon="-5.155787">
        <ele>851.5</ele>
        <time>2021-08-19T04:49:13Z</time>
      </trkpt>
      <trkpt lat="42.393928" lon="-5.155969">
        <ele>853.0</ele>
        <time>2021-08-19T04:49:31Z</time>
      </trkpt>
      <trkpt lat="42.394021" lon="-5.156182">
        <ele>852.1</ele>
        <time>2021-08-19T04:49:47Z</time>
      </trkpt>
      <trkpt lat="42.394129" lon="-5.156397">
        <ele>852.3</ele>
        <time>2021-08-19T04:50:04Z</time>
      </trkpt>
      <trkpt lat="42.394260" lon="-5.156593">
        <ele>851.2</ele>
        <time>2021-08-19T04:50:24Z</time>
      </trkpt>
      <trkpt lat="42.394341" lon="-5.156816">
        <ele>852.2</ele>
        <time>2021-08-19T04:50:42Z</time>
      </trkpt>
      <trkpt lat="42.394429" lon="-5.157029">
        <ele>852.7</ele>
        <time>2021-08-19T04:50:58Z</time>
      </trkpt>
      <trkpt lat="42.394513" lon="-5.157250">
        <ele>856.0</ele>
        <time>2021-08-19T04:52:02Z</time>
      </trkpt>
      <trkpt lat="42.394630" lon="-5.157480">
        <ele>858.6</ele>
        <time>2021-08-19T04:52:35Z</time>
      </trkpt>
      <trkpt lat="42.394723" lon="-5.157700">
        <ele>861.0</ele>
        <time>2021-08-19T04:52:50Z</time>
      </trkpt>
      <trkpt lat="42.394817" lon="-5.157910">
        <ele>861.8</ele>
        <time>2021-08-19T04:53:09Z</time>
      </trkpt>
      <trkpt lat="42.394906" lon="-5.158138">
        <ele>861.8</ele>
        <time>2021-08-19T04:53:32Z</time>
      </trkpt>
      <trkpt lat="42.394992" lon="-5.158363">
        <ele>864.3</ele>
        <time>2021-08-19T04:53:50Z</time>
      </trkpt>
      <trkpt lat="42.395082" lon="-5.158575">
        <ele>863.1</ele>
        <time>2021-08-19T04:54:48Z</time>
      </trkpt>
      <trkpt lat="42.395180" lon="-5.158782">
        <ele>863.8</ele>
        <time>2021-08-19T04:55:04Z</time>
      </trkpt>
      <trkpt lat="42.395240" lon="-5.159018">
        <ele>865.2</ele>
        <time>2021-08-19T04:55:22Z</time>
      </trkpt>
      <trkpt lat="42.395370" lon="-5.159187">
        <ele>862.9</ele>
        <time>2021-08-19T04:55:35Z</time>
      </trkpt>
      <trkpt lat="42.395468" lon="-5.159392">
        <ele>863.8</ele>
        <time>2021-08-19T04:55:50Z</time>
      </trkpt>
      <trkpt lat="42.395536" lon="-5.159620">
        <ele>863.8</ele>
        <time>2021-08-19T04:56:08Z</time>
      </trkpt>
      <trkpt lat="42.395634" lon="-5.159838">
        <ele>865.8</ele>
        <time>2021-08-19T04:56:23Z</time>
      </trkpt>
      <trkpt lat="42.395723" lon="-5.160051">
        <ele>864.0</ele>
        <time>2021-08-19T04:56:38Z</time>
      </trkpt>
      <trkpt lat="42.395805" lon="-5.160277">
        <ele>863.9</ele>
        <time>2021-08-19T04:56:52Z</time>
      </trkpt>
      <trkpt lat="42.395910" lon="-5.160477">
        <ele>862.0</ele>
        <time>2021-08-19T04:57:06Z</time>
      </trkpt>
      <trkpt lat="42.396012" lon="-5.160683">
        <ele>862.7</ele>
        <time>2021-08-19T04:57:22Z</time>
      </trkpt>
      <trkpt lat="42.396103" lon="-5.160894">
        <ele>860.9</ele>
        <time>2021-08-19T04:57:36Z</time>
      </trkpt>
      <trkpt lat="42.396201" lon="-5.161126">
        <ele>862.7</ele>
        <time>2021-08-19T04:57:52Z</time>
      </trkpt>
      <trkpt lat="42.396293" lon="-5.161339">
        <ele>861.8</ele>
        <time>2021-08-19T04:58:05Z</time>
      </trkpt>
      <trkpt lat="42.396395" lon="-5.161546">
        <ele>862.0</ele>
        <time>2021-08-19T04:58:20Z</time>
      </trkpt>
      <trkpt lat="42.396467" lon="-5.161776">
        <ele>860.2</ele>
        <time>2021-08-19T04:58:36Z</time>
      </trkpt>
      <trkpt lat="42.396562" lon="-5.161997">
        <ele>859.9</ele>
        <time>2021-08-19T04:58:57Z</time>
      </trkpt>
      <trkpt lat="42.396664" lon="-5.162234">
        <ele>858.0</ele>
        <time>2021-08-19T04:59:12Z</time>
      </trkpt>
      <trkpt lat="42.396764" lon="-5.162452">
        <ele>856.0</ele>
        <time>2021-08-19T04:59:28Z</time>
      </trkpt>
      <trkpt lat="42.396855" lon="-5.162679">
        <ele>854.9</ele>
        <time>2021-08-19T04:59:45Z</time>
      </trkpt>
      <trkpt lat="42.396958" lon="-5.162897">
        <ele>854.7</ele>
        <time>2021-08-19T05:00:01Z</time>
      </trkpt>
      <trkpt lat="42.397049" lon="-5.163111">
        <ele>854.8</ele>
        <time>2021-08-19T05:00:16Z</time>
      </trkpt>
      <trkpt lat="42.397129" lon="-5.163331">
        <ele>852.2</ele>
        <time>2021-08-19T05:00:36Z</time>
      </trkpt>
      <trkpt lat="42.397202" lon="-5.163559">
        <ele>850.0</ele>
        <time>2021-08-19T05:00:51Z</time>
      </trkpt>
      <trkpt lat="42.397269" lon="-5.163804">
        <ele>847.2</ele>
        <time>2021-08-19T05:01:11Z</time>
      </trkpt>
      <trkpt lat="42.397335" lon="-5.164031">
        <ele>848.0</ele>
        <time>2021-08-19T05:01:27Z</time>
      </trkpt>
      <trkpt lat="42.397374" lon="-5.164271">
        <ele>847.8</ele>
        <time>2021-08-19T05:01:44Z</time>
      </trkpt>
      <trkpt lat="42.397438" lon="-5.164510">
        <ele>847.1</ele>
        <time>2021-08-19T05:01:59Z</time>
      </trkpt>
      <trkpt lat="42.397474" lon="-5.164765">
        <ele>848.5</ele>
        <time>2021-08-19T05:02:18Z</time>
      </trkpt>
      <trkpt lat="42.397550" lon="-5.164987">
        <ele>846.7</ele>
        <time>2021-08-19T05:03:10Z</time>
      </trkpt>
      <trkpt lat="42.397603" lon="-5.165225">
        <ele>847.9</ele>
        <time>2021-08-19T05:03:22Z</time>
      </trkpt>
      <trkpt lat="42.397658" lon="-5.165462">
        <ele>846.2</ele>
        <time>2021-08-19T05:03:39Z</time>
      </trkpt>
      <trkpt lat="42.397703" lon="-5.165711">
        <ele>846.0</ele>
        <time>2021-08-19T05:03:51Z</time>
      </trkpt>
      <trkpt lat="42.397777" lon="-5.165944">
        <ele>846.6</ele>
        <time>2021-08-19T05:04:07Z</time>
      </trkpt>
      <trkpt lat="42.397813" lon="-5.166214">
        <ele>846.8</ele>
        <time>2021-08-19T05:04:21Z</time>
      </trkpt>
      <trkpt lat="42.397886" lon="-5.166443">
        <ele>844.8</ele>
        <time>2021-08-19T05:04:40Z</time>
      </trkpt>
      <trkpt lat="42.397959" lon="-5.166678">
        <ele>843.4</ele>
        <time>2021-08-19T05:04:56Z</time>
      </trkpt>
      <trkpt lat="42.398058" lon="-5.166885">
        <ele>841.9</ele>
        <time>2021-08-19T05:05:14Z</time>
      </trkpt>
      <trkpt lat="42.398149" lon="-5.167098">
        <ele>838.7</ele>
        <time>2021-08-19T05:05:29Z</time>
      </trkpt>
      <trkpt lat="42.398234" lon="-5.167332">
        <ele>837.0</ele>
        <time>2021-08-19T05:05:46Z</time>
      </trkpt>
      <trkpt lat="42.398325" lon="-5.167553">
        <ele>838.0</ele>
        <time>2021-08-19T05:06:01Z</time>
      </trkpt>
      <trkpt lat="42.398392" lon="-5.167785">
        <ele>839.8</ele>
        <time>2021-08-19T05:06:16Z</time>
      </trkpt>
      <trkpt lat="42.398467" lon="-5.168017">
        <ele>842.8</ele>
        <time>2021-08-19T05:06:31Z</time>
      </trkpt>
      <trkpt lat="42.398557" lon="-5.168249">
        <ele>845.7</ele>
        <time>2021-08-19T05:06:47Z</time>
      </trkpt>
      <trkpt lat="42.398640" lon="-5.168480">
        <ele>847.6</ele>
        <time>2021-08-19T05:07:02Z</time>
      </trkpt>
      <trkpt lat="42.398728" lon="-5.168697">
        <ele>849.2</ele>
        <time>2021-08-19T05:07:18Z</time>
      </trkpt>
      <trkpt lat="42.398814" lon="-5.168916">
        <ele>849.7</ele>
        <time>2021-08-19T05:07:34Z</time>
      </trkpt>
      <trkpt lat="42.398880" lon="-5.169143">
        <ele>849.4</ele>
        <time>2021-08-19T05:07:49Z</time>
      </trkpt>
      <trkpt lat="42.398973" lon="-5.169365">
        <ele>852.1</ele>
        <time>2021-08-19T05:08:05Z</time>
      </trkpt>
      <trkpt lat="42.399047" lon="-5.169588">
        <ele>853.6</ele>
        <time>2021-08-19T05:08:19Z</time>
      </trkpt>
      <trkpt lat="42.399124" lon="-5.169812">
        <ele>855.1</ele>
        <time>2021-08-19T05:08:33Z</time>
      </trkpt>
      <trkpt lat="42.399211" lon="-5.170026">
        <ele>856.7</ele>
        <time>2021-08-19T05:08:49Z</time>
      </trkpt>
      <trkpt lat="42.399289" lon="-5.170250">
        <ele>859.1</ele>
        <time>2021-08-19T05:09:16Z</time>
      </trkpt>
      <trkpt lat="42.399386" lon="-5.170458">
        <ele>857.0</ele>
        <time>2021-08-19T05:09:29Z</time>
      </trkpt>
      <trkpt lat="42.399478" lon="-5.170672">
        <ele>856.0</ele>
        <time>2021-08-19T05:09:43Z</time>
      </trkpt>
      <trkpt lat="42.399568" lon="-5.170886">
        <ele>855.0</ele>
        <time>2021-08-19T05:09:58Z</time>
      </trkpt>
      <trkpt lat="42.399663" lon="-5.171105">
        <ele>855.0</ele>
        <time>2021-08-19T05:10:15Z</time>
      </trkpt>
      <trkpt lat="42.399749" lon="-5.171320">
        <ele>855.3</ele>
        <time>2021-08-19T05:10:32Z</time>
      </trkpt>
      <trkpt lat="42.399832" lon="-5.171536">
        <ele>856.2</ele>
        <time>2021-08-19T05:10:47Z</time>
      </trkpt>
      <trkpt lat="42.399912" lon="-5.171756">
        <ele>857.8</ele>
        <time>2021-08-19T05:11:00Z</time>
      </trkpt>
      <trkpt lat="42.400000" lon="-5.171976">
        <ele>857.9</ele>
        <time>2021-08-19T05:11:16Z</time>
      </trkpt>
      <trkpt lat="42.400084" lon="-5.172196">
        <ele>859.2</ele>
        <time>2021-08-19T05:11:31Z</time>
      </trkpt>
      <trkpt lat="42.400166" lon="-5.172429">
        <ele>859.0</ele>
        <time>2021-08-19T05:11:47Z</time>
      </trkpt>
      <trkpt lat="42.400258" lon="-5.172656">
        <ele>858.2</ele>
        <time>2021-08-19T05:12:03Z</time>
      </trkpt>
      <trkpt lat="42.400329" lon="-5.172886">
        <ele>860.8</ele>
        <time>2021-08-19T05:12:17Z</time>
      </trkpt>
      <trkpt lat="42.400415" lon="-5.173117">
        <ele>864.0</ele>
        <time>2021-08-19T05:12:32Z</time>
      </trkpt>
      <trkpt lat="42.400501" lon="-5.173338">
        <ele>865.3</ele>
        <time>2021-08-19T05:12:47Z</time>
      </trkpt>
      <trkpt lat="42.400602" lon="-5.173543">
        <ele>863.8</ele>
        <time>2021-08-19T05:13:05Z</time>
      </trkpt>
      <trkpt lat="42.400674" lon="-5.173773">
        <ele>864.2</ele>
        <time>2021-08-19T05:13:38Z</time>
      </trkpt>
      <trkpt lat="42.400756" lon="-5.173999">
        <ele>868.2</ele>
        <time>2021-08-19T05:13:51Z</time>
      </trkpt>
      <trkpt lat="42.400821" lon="-5.174229">
        <ele>867.0</ele>
        <time>2021-08-19T05:14:07Z</time>
      </trkpt>
      <trkpt lat="42.400945" lon="-5.174413">
        <ele>864.1</ele>
        <time>2021-08-19T05:14:21Z</time>
      </trkpt>
      <trkpt lat="42.401040" lon="-5.174633">
        <ele>860.6</ele>
        <time>2021-08-19T05:14:36Z</time>
      </trkpt>
      <trkpt lat="42.401133" lon="-5.174848">
        <ele>860.1</ele>
        <time>2021-08-19T05:14:52Z</time>
      </trkpt>
      <trkpt lat="42.401220" lon="-5.175068">
        <ele>859.8</ele>
        <time>2021-08-19T05:15:07Z</time>
      </trkpt>
      <trkpt lat="42.401295" lon="-5.175297">
        <ele>863.0</ele>
        <time>2021-08-19T05:15:23Z</time>
      </trkpt>
      <trkpt lat="42.401368" lon="-5.175525">
        <ele>862.9</ele>
        <time>2021-08-19T05:15:34Z</time>
      </trkpt>
      <trkpt lat="42.401463" lon="-5.175768">
        <ele>864.6</ele>
        <time>2021-08-19T05:15:49Z</time>
      </trkpt>
      <trkpt lat="42.401556" lon="-5.175985">
        <ele>862.7</ele>
        <time>2021-08-19T05:16:05Z</time>
      </trkpt>
      <trkpt lat="42.401655" lon="-5.176197">
        <ele>861.9</ele>
        <time>2021-08-19T05:16:21Z</time>
      </trkpt>
      <trkpt lat="42.401741" lon="-5.176419">
        <ele>861.8</ele>
        <time>2021-08-19T05:16:36Z</time>
      </trkpt>
      <trkpt lat="42.401820" lon="-5.176646">
        <ele>864.1</ele>
        <time>2021-08-19T05:16:50Z</time>
      </trkpt>
      <trkpt lat="42.401897" lon="-5.176877">
        <ele>866.7</ele>
        <time>2021-08-19T05:17:05Z</time>
      </trkpt>
      <trkpt lat="42.402005" lon="-5.177079">
        <ele>863.2</ele>
        <time>2021-08-19T05:17:22Z</time>
      </trkpt>
      <trkpt lat="42.402073" lon="-5.177313">
        <ele>865.7</ele>
        <time>2021-08-19T05:17:53Z</time>
      </trkpt>
      <trkpt lat="42.402169" lon="-5.177525">
        <ele>864.0</ele>
        <time>2021-08-19T05:18:10Z</time>
      </trkpt>
      <trkpt lat="42.402259" lon="-5.177747">
        <ele>863.6</ele>
        <time>2021-08-19T05:18:25Z</time>
      </trkpt>
      <trkpt lat="42.402346" lon="-5.177974">
        <ele>864.0</ele>
        <time>2021-08-19T05:18:41Z</time>
      </trkpt>
      <trkpt lat="42.402431" lon="-5.178204">
        <ele>864.8</ele>
        <time>2021-08-19T05:18:56Z</time>
      </trkpt>
      <trkpt lat="42.402523" lon="-5.178418">
        <ele>865.3</ele>
        <time>2021-08-19T05:19:11Z</time>
      </trkpt>
      <trkpt lat="42.402609" lon="-5.178642">
        <ele>866.2</ele>
        <time>2021-08-19T05:19:27Z</time>
      </trkpt>
      <trkpt lat="42.402699" lon="-5.178865">
        <ele>864.8</ele>
        <time>2021-08-19T05:19:42Z</time>
      </trkpt>
      <trkpt lat="42.402778" lon="-5.179090">
        <ele>865.9</ele>
        <time>2021-08-19T05:19:57Z</time>
      </trkpt>
      <trkpt lat="42.402868" lon="-5.179310">
        <ele>864.7</ele>
        <time>2021-08-19T05:20:14Z</time>
      </trkpt>
      <trkpt lat="42.402969" lon="-5.179523">
        <ele>865.0</ele>
        <time>2021-08-19T05:20:30Z</time>
      </trkpt>
      <trkpt lat="42.403057" lon="-5.179741">
        <ele>866.0</ele>
        <time>2021-08-19T05:20:45Z</time>
      </trkpt>
      <trkpt lat="42.403141" lon="-5.179972">
        <ele>867.8</ele>
        <time>2021-08-19T05:21:02Z</time>
      </trkpt>
      <trkpt lat="42.403229" lon="-5.180205">
        <ele>867.7</ele>
        <time>2021-08-19T05:21:18Z</time>
      </trkpt>
      <trkpt lat="42.403320" lon="-5.180423">
        <ele>867.8</ele>
        <time>2021-08-19T05:21:33Z</time>
      </trkpt>
      <trkpt lat="42.403411" lon="-5.180635">
        <ele>867.3</ele>
        <time>2021-08-19T05:21:48Z</time>
      </trkpt>
      <trkpt lat="42.403493" lon="-5.180866">
        <ele>868.1</ele>
        <time>2021-08-19T05:22:04Z</time>
      </trkpt>
      <trkpt lat="42.403575" lon="-5.181084">
        <ele>868.1</ele>
        <time>2021-08-19T05:22:17Z</time>
      </trkpt>
      <trkpt lat="42.403672" lon="-5.181310">
        <ele>869.0</ele>
        <time>2021-08-19T05:22:34Z</time>
      </trkpt>
      <trkpt lat="42.403760" lon="-5.181527">
        <ele>866.7</ele>
        <time>2021-08-19T05:22:51Z</time>
      </trkpt>
      <trkpt lat="42.403854" lon="-5.181750">
        <ele>866.8</ele>
        <time>2021-08-19T05:23:05Z</time>
      </trkpt>
      <trkpt lat="42.403937" lon="-5.181973">
        <ele>869.0</ele>
        <time>2021-08-19T05:23:36Z</time>
      </trkpt>
      <trkpt lat="42.404030" lon="-5.182192">
        <ele>870.1</ele>
        <time>2021-08-19T05:23:50Z</time>
      </trkpt>
      <trkpt lat="42.404117" lon="-5.182407">
        <ele>867.7</ele>
        <time>2021-08-19T05:24:07Z</time>
      </trkpt>
      <trkpt lat="42.404211" lon="-5.182623">
        <ele>867.1</ele>
        <time>2021-08-19T05:24:25Z</time>
      </trkpt>
      <trkpt lat="42.404303" lon="-5.182836">
        <ele>867.9</ele>
        <time>2021-08-19T05:24:42Z</time>
      </trkpt>
      <trkpt lat="42.404383" lon="-5.183068">
        <ele>867.8</ele>
        <time>2021-08-19T05:24:58Z</time>
      </trkpt>
      <trkpt lat="42.404472" lon="-5.183285">
        <ele>868.0</ele>
        <time>2021-08-19T05:25:13Z</time>
      </trkpt>
      <trkpt lat="42.404564" lon="-5.183507">
        <ele>867.8</ele>
        <time>2021-08-19T05:25:28Z</time>
      </trkpt>
      <trkpt lat="42.404649" lon="-5.183735">
        <ele>867.5</ele>
        <time>2021-08-19T05:25:44Z</time>
      </trkpt>
      <trkpt lat="42.404736" lon="-5.183968">
        <ele>868.8</ele>
        <time>2021-08-19T05:26:01Z</time>
      </trkpt>
      <trkpt lat="42.404824" lon="-5.184183">
        <ele>869.4</ele>
        <time>2021-08-19T05:26:15Z</time>
      </trkpt>
      <trkpt lat="42.404919" lon="-5.184409">
        <ele>870.8</ele>
        <time>2021-08-19T05:26:32Z</time>
      </trkpt>
      <trkpt lat="42.405009" lon="-5.184635">
        <ele>871.0</ele>
        <time>2021-08-19T05:26:47Z</time>
      </trkpt>
      <trkpt lat="42.405123" lon="-5.184824">
        <ele>869.8</ele>
        <time>2021-08-19T05:27:02Z</time>
      </trkpt>
      <trkpt lat="42.405219" lon="-5.185041">
        <ele>869.9</ele>
        <time>2021-08-19T05:27:17Z</time>
      </trkpt>
      <trkpt lat="42.405328" lon="-5.185248">
        <ele>870.0</ele>
        <time>2021-08-19T05:27:32Z</time>
      </trkpt>
      <trkpt lat="42.405421" lon="-5.185459">
        <ele>871.8</ele>
        <time>2021-08-19T05:27:47Z</time>
      </trkpt>
      <trkpt lat="42.405524" lon="-5.185662">
        <ele>871.7</ele>
        <time>2021-08-19T05:28:02Z</time>
      </trkpt>
      <trkpt lat="42.405639" lon="-5.185879">
        <ele>872.0</ele>
        <time>2021-08-19T05:28:21Z</time>
      </trkpt>
      <trkpt lat="42.405736" lon="-5.186093">
        <ele>872.8</ele>
        <time>2021-08-19T05:28:36Z</time>
      </trkpt>
      <trkpt lat="42.405840" lon="-5.186296">
        <ele>872.0</ele>
        <time>2021-08-19T05:28:51Z</time>
      </trkpt>
      <trkpt lat="42.405938" lon="-5.186510">
        <ele>871.7</ele>
        <time>2021-08-19T05:29:06Z</time>
      </trkpt>
      <trkpt lat="42.406037" lon="-5.186716">
        <ele>872.4</ele>
        <time>2021-08-19T05:29:21Z</time>
      </trkpt>
      <trkpt lat="42.406137" lon="-5.186926">
        <ele>872.7</ele>
        <time>2021-08-19T05:29:36Z</time>
      </trkpt>
      <trkpt lat="42.406238" lon="-5.187139">
        <ele>870.5</ele>
        <time>2021-08-19T05:29:52Z</time>
      </trkpt>
      <trkpt lat="42.406341" lon="-5.187348">
        <ele>873.1</ele>
        <time>2021-08-19T05:30:07Z</time>
      </trkpt>
      <trkpt lat="42.406442" lon="-5.187550">
        <ele>872.3</ele>
        <time>2021-08-19T05:30:21Z</time>
      </trkpt>
      <trkpt lat="42.406541" lon="-5.187764">
        <ele>870.3</ele>
        <time>2021-08-19T05:30:36Z</time>
      </trkpt>
      <trkpt lat="42.406639" lon="-5.187976">
        <ele>873.2</ele>
        <time>2021-08-19T05:30:51Z</time>
      </trkpt>
      <trkpt lat="42.406742" lon="-5.188185">
        <ele>872.2</ele>
        <time>2021-08-19T05:31:06Z</time>
      </trkpt>
      <trkpt lat="42.406840" lon="-5.188404">
        <ele>871.8</ele>
        <time>2021-08-19T05:31:21Z</time>
      </trkpt>
      <trkpt lat="42.406934" lon="-5.188613">
        <ele>873.2</ele>
        <time>2021-08-19T05:31:36Z</time>
      </trkpt>
      <trkpt lat="42.407029" lon="-5.188824">
        <ele>873.0</ele>
        <time>2021-08-19T05:31:51Z</time>
      </trkpt>
      <trkpt lat="42.407138" lon="-5.189032">
        <ele>872.7</ele>
        <time>2021-08-19T05:32:06Z</time>
      </trkpt>
      <trkpt lat="42.407238" lon="-5.189245">
        <ele>869.8</ele>
        <time>2021-08-19T05:32:22Z</time>
      </trkpt>
      <trkpt lat="42.407351" lon="-5.189441">
        <ele>870.0</ele>
        <time>2021-08-19T05:32:37Z</time>
      </trkpt>
      <trkpt lat="42.407460" lon="-5.189645">
        <ele>867.9</ele>
        <time>2021-08-19T05:32:52Z</time>
      </trkpt>
      <trkpt lat="42.407573" lon="-5.189841">
        <ele>866.1</ele>
        <time>2021-08-19T05:33:08Z</time>
      </trkpt>
      <trkpt lat="42.407676" lon="-5.190042">
        <ele>866.3</ele>
        <time>2021-08-19T05:33:25Z</time>
      </trkpt>
      <trkpt lat="42.407747" lon="-5.190268">
        <ele>866.8</ele>
        <time>2021-08-19T05:33:38Z</time>
      </trkpt>
      <trkpt lat="42.407846" lon="-5.190483">
        <ele>866.8</ele>
        <time>2021-08-19T05:33:51Z</time>
      </trkpt>
      <trkpt lat="42.407936" lon="-5.190700">
        <ele>867.2</ele>
        <time>2021-08-19T05:34:06Z</time>
      </trkpt>
      <trkpt lat="42.408039" lon="-5.190920">
        <ele>867.2</ele>
        <time>2021-08-19T05:34:24Z</time>
      </trkpt>
      <trkpt lat="42.408135" lon="-5.191133">
        <ele>866.7</ele>
        <time>2021-08-19T05:34:39Z</time>
      </trkpt>
      <trkpt lat="42.408250" lon="-5.191340">
        <ele>866.8</ele>
        <time>2021-08-19T05:34:53Z</time>
      </trkpt>
      <trkpt lat="42.408353" lon="-5.191566">
        <ele>866.4</ele>
        <time>2021-08-19T05:35:08Z</time>
      </trkpt>
      <trkpt lat="42.408443" lon="-5.191783">
        <ele>866.4</ele>
        <time>2021-08-19T05:35:24Z</time>
      </trkpt>
      <trkpt lat="42.408546" lon="-5.191985">
        <ele>863.6</ele>
        <time>2021-08-19T05:35:38Z</time>
      </trkpt>
      <trkpt lat="42.408631" lon="-5.192201">
        <ele>864.6</ele>
        <time>2021-08-19T05:35:52Z</time>
      </trkpt>
      <trkpt lat="42.408729" lon="-5.192424">
        <ele>866.1</ele>
        <time>2021-08-19T05:36:09Z</time>
      </trkpt>
      <trkpt lat="42.408822" lon="-5.192640">
        <ele>865.7</ele>
        <time>2021-08-19T05:36:22Z</time>
      </trkpt>
      <trkpt lat="42.408936" lon="-5.192856">
        <ele>863.9</ele>
        <time>2021-08-19T05:36:38Z</time>
      </trkpt>
      <trkpt lat="42.409006" lon="-5.193082">
        <ele>869.2</ele>
        <time>2021-08-19T05:36:52Z</time>
      </trkpt>
      <trkpt lat="42.409085" lon="-5.193321">
        <ele>875.0</ele>
        <time>2021-08-19T05:37:21Z</time>
      </trkpt>
      <trkpt lat="42.409196" lon="-5.193513">
        <ele>874.0</ele>
        <time>2021-08-19T05:37:34Z</time>
      </trkpt>
      <trkpt lat="42.409288" lon="-5.193736">
        <ele>876.3</ele>
        <time>2021-08-19T05:38:40Z</time>
      </trkpt>
      <trkpt lat="42.409393" lon="-5.193963">
        <ele>881.1</ele>
        <time>2021-08-19T05:39:12Z</time>
      </trkpt>
      <trkpt lat="42.409479" lon="-5.194177">
        <ele>876.2</ele>
        <time>2021-08-19T05:39:22Z</time>
      </trkpt>
      <trkpt lat="42.409591" lon="-5.194382">
        <ele>874.9</ele>
        <time>2021-08-19T05:39:37Z</time>
      </trkpt>
      <trkpt lat="42.409695" lon="-5.194604">
        <ele>873.8</ele>
        <time>2021-08-19T05:39:52Z</time>
      </trkpt>
      <trkpt lat="42.409793" lon="-5.194825">
        <ele>873.1</ele>
        <time>2021-08-19T05:40:07Z</time>
      </trkpt>
      <trkpt lat="42.409896" lon="-5.195033">
        <ele>873.2</ele>
        <time>2021-08-19T05:40:22Z</time>
      </trkpt>
      <trkpt lat="42.409989" lon="-5.195249">
        <ele>872.8</ele>
        <time>2021-08-19T05:40:40Z</time>
      </trkpt>
      <trkpt lat="42.410094" lon="-5.195451">
        <ele>871.8</ele>
        <time>2021-08-19T05:40:54Z</time>
      </trkpt>
      <trkpt lat="42.410189" lon="-5.195673">
        <ele>868.8</ele>
        <time>2021-08-19T05:41:08Z</time>
      </trkpt>
      <trkpt lat="42.410290" lon="-5.195896">
        <ele>870.0</ele>
        <time>2021-08-19T05:41:23Z</time>
      </trkpt>
      <trkpt lat="42.410395" lon="-5.196111">
        <ele>869.0</ele>
        <time>2021-08-19T05:41:38Z</time>
      </trkpt>
      <trkpt lat="42.410488" lon="-5.196324">
        <ele>867.9</ele>
        <time>2021-08-19T05:41:52Z</time>
      </trkpt>
      <trkpt lat="42.410591" lon="-5.196535">
        <ele>867.8</ele>
        <time>2021-08-19T05:42:09Z</time>
      </trkpt>
      <trkpt lat="42.410688" lon="-5.196740">
        <ele>868.9</ele>
        <time>2021-08-19T05:42:23Z</time>
      </trkpt>
      <trkpt lat="42.410794" lon="-5.196945">
        <ele>865.9</ele>
        <time>2021-08-19T05:42:39Z</time>
      </trkpt>
      <trkpt lat="42.410900" lon="-5.197147">
        <ele>864.2</ele>
        <time>2021-08-19T05:42:53Z</time>
      </trkpt>
      <trkpt lat="42.410987" lon="-5.197379">
        <ele>865.0</ele>
        <time>2021-08-19T05:43:08Z</time>
      </trkpt>
      <trkpt lat="42.411086" lon="-5.197585">
        <ele>865.3</ele>
        <time>2021-08-19T05:43:22Z</time>
      </trkpt>
      <trkpt lat="42.411185" lon="-5.197798">
        <ele>864.0</ele>
        <time>2021-08-19T05:43:37Z</time>
      </trkpt>
      <trkpt lat="42.411293" lon="-5.198001">
        <ele>862.0</ele>
        <time>2021-08-19T05:43:52Z</time>
      </trkpt>
      <trkpt lat="42.411398" lon="-5.198224">
        <ele>861.7</ele>
        <time>2021-08-19T05:44:08Z</time>
      </trkpt>
      <trkpt lat="42.411494" lon="-5.198436">
        <ele>862.2</ele>
        <time>2021-08-19T05:44:22Z</time>
      </trkpt>
      <trkpt lat="42.411565" lon="-5.198673">
        <ele>863.0</ele>
        <time>2021-08-19T05:44:36Z</time>
      </trkpt>
      <trkpt lat="42.411665" lon="-5.198878">
        <ele>862.3</ele>
        <time>2021-08-19T05:44:52Z</time>
      </trkpt>
      <trkpt lat="42.411749" lon="-5.199100">
        <ele>862.4</ele>
        <time>2021-08-19T05:45:05Z</time>
      </trkpt>
      <trkpt lat="42.411841" lon="-5.199320">
        <ele>864.0</ele>
        <time>2021-08-19T05:45:19Z</time>
      </trkpt>
      <trkpt lat="42.411925" lon="-5.199537">
        <ele>862.3</ele>
        <time>2021-08-19T05:45:32Z</time>
      </trkpt>
      <trkpt lat="42.412021" lon="-5.199745">
        <ele>861.7</ele>
        <time>2021-08-19T05:45:47Z</time>
      </trkpt>
      <trkpt lat="42.412116" lon="-5.199957">
        <ele>859.8</ele>
        <time>2021-08-19T05:46:02Z</time>
      </trkpt>
      <trkpt lat="42.412216" lon="-5.200168">
        <ele>860.2</ele>
        <time>2021-08-19T05:46:17Z</time>
      </trkpt>
      <trkpt lat="42.412302" lon="-5.200385">
        <ele>859.3</ele>
        <time>2021-08-19T05:46:33Z</time>
      </trkpt>
      <trkpt lat="42.412400" lon="-5.200612">
        <ele>857.0</ele>
        <time>2021-08-19T05:46:48Z</time>
      </trkpt>
      <trkpt lat="42.412483" lon="-5.200845">
        <ele>862.5</ele>
        <time>2021-08-19T05:46:59Z</time>
      </trkpt>
      <trkpt lat="42.412583" lon="-5.201071">
        <ele>860.0</ele>
        <time>2021-08-19T05:47:15Z</time>
      </trkpt>
      <trkpt lat="42.412672" lon="-5.201284">
        <ele>859.6</ele>
        <time>2021-08-19T05:47:28Z</time>
      </trkpt>
      <trkpt lat="42.412777" lon="-5.201495">
        <ele>860.0</ele>
        <time>2021-08-19T05:47:42Z</time>
      </trkpt>
      <trkpt lat="42.412876" lon="-5.201720">
        <ele>861.5</ele>
        <time>2021-08-19T05:47:56Z</time>
      </trkpt>
      <trkpt lat="42.412979" lon="-5.201945">
        <ele>861.4</ele>
        <time>2021-08-19T05:48:09Z</time>
      </trkpt>
      <trkpt lat="42.413077" lon="-5.202154">
        <ele>863.2</ele>
        <time>2021-08-19T05:48:23Z</time>
      </trkpt>
      <trkpt lat="42.413172" lon="-5.202374">
        <ele>866.0</ele>
        <time>2021-08-19T05:48:36Z</time>
      </trkpt>
      <trkpt lat="42.413283" lon="-5.202575">
        <ele>867.7</ele>
        <time>2021-08-19T05:48:52Z</time>
      </trkpt>
      <trkpt lat="42.413385" lon="-5.202775">
        <ele>867.3</ele>
        <time>2021-08-19T05:49:06Z</time>
      </trkpt>
      <trkpt lat="42.413494" lon="-5.202973">
        <ele>864.7</ele>
        <time>2021-08-19T05:49:19Z</time>
      </trkpt>
      <trkpt lat="42.413608" lon="-5.203162">
        <ele>865.8</ele>
        <time>2021-08-19T05:49:32Z</time>
      </trkpt>
      <trkpt lat="42.413689" lon="-5.203382">
        <ele>869.8</ele>
        <time>2021-08-19T05:49:46Z</time>
      </trkpt>
      <trkpt lat="42.413767" lon="-5.203603">
        <ele>866.6</ele>
        <time>2021-08-19T05:49:59Z</time>
      </trkpt>
      <trkpt lat="42.413837" lon="-5.203831">
        <ele>863.5</ele>
        <time>2021-08-19T05:50:14Z</time>
      </trkpt>
      <trkpt lat="42.413970" lon="-5.204031">
        <ele>862.1</ele>
        <time>2021-08-19T05:50:26Z</time>
      </trkpt>
      <trkpt lat="42.414045" lon="-5.204273">
        <ele>863.3</ele>
        <time>2021-08-19T05:50:37Z</time>
      </trkpt>
      <trkpt lat="42.414177" lon="-5.204473">
        <ele>865.3</ele>
        <time>2021-08-19T05:50:50Z</time>
      </trkpt>
      <trkpt lat="42.414273" lon="-5.204682">
        <ele>867.7</ele>
        <time>2021-08-19T05:51:05Z</time>
      </trkpt>
      <trkpt lat="42.414366" lon="-5.204914">
        <ele>871.7</ele>
        <time>2021-08-19T05:51:16Z</time>
      </trkpt>
      <trkpt lat="42.414460" lon="-5.205130">
        <ele>872.0</ele>
        <time>2021-08-19T05:51:29Z</time>
      </trkpt>
      <trkpt lat="42.414550" lon="-5.205354">
        <ele>872.7</ele>
        <time>2021-08-19T05:51:41Z</time>
      </trkpt>
      <trkpt lat="42.414683" lon="-5.205533">
        <ele>872.7</ele>
        <time>2021-08-19T05:51:56Z</time>
      </trkpt>
      <trkpt lat="42.414707" lon="-5.205789">
        <ele>868.9</ele>
        <time>2021-08-19T05:52:10Z</time>
      </trkpt>
      <trkpt lat="42.414895" lon="-5.205748">
        <ele>869.5</ele>
        <time>2021-08-19T05:52:20Z</time>
      </trkpt>
      <trkpt lat="42.415080" lon="-5.205632">
        <ele>869.3</ele>
        <time>2021-08-19T05:52:29Z</time>
      </trkpt>
      <trkpt lat="42.415004" lon="-5.205952">
        <ele>852.4</ele>
        <time>2021-08-19T05:52:41Z</time>
      </trkpt>
      <trkpt lat="42.414940" lon="-5.206186">
        <ele>857.0</ele>
        <time>2021-08-19T05:52:45Z</time>
      </trkpt>
      <trkpt lat="42.415084" lon="-5.206358">
        <ele>866.5</ele>
        <time>2021-08-19T05:52:58Z</time>
      </trkpt>
      <trkpt lat="42.415215" lon="-5.206532">
        <ele>870.0</ele>
        <time>2021-08-19T05:53:11Z</time>
      </trkpt>
      <trkpt lat="42.415308" lon="-5.206742">
        <ele>871.8</ele>
        <time>2021-08-19T05:53:30Z</time>
      </trkpt>
      <trkpt lat="42.415408" lon="-5.206952">
        <ele>870.9</ele>
        <time>2021-08-19T05:53:46Z</time>
      </trkpt>
      <trkpt lat="42.415521" lon="-5.207158">
        <ele>871.3</ele>
        <time>2021-08-19T05:53:59Z</time>
      </trkpt>
      <trkpt lat="42.415643" lon="-5.207369">
        <ele>871.7</ele>
        <time>2021-08-19T05:54:16Z</time>
      </trkpt>
      <trkpt lat="42.415746" lon="-5.207577">
        <ele>874.4</ele>
        <time>2021-08-19T05:54:31Z</time>
      </trkpt>
      <trkpt lat="42.415862" lon="-5.207765">
        <ele>872.7</ele>
        <time>2021-08-19T05:54:46Z</time>
      </trkpt>
      <trkpt lat="42.415960" lon="-5.207973">
        <ele>874.6</ele>
        <time>2021-08-19T05:55:01Z</time>
      </trkpt>
      <trkpt lat="42.416068" lon="-5.208193">
        <ele>877.6</ele>
        <time>2021-08-19T05:55:16Z</time>
      </trkpt>
      <trkpt lat="42.416200" lon="-5.208364">
        <ele>874.0</ele>
        <time>2021-08-19T05:55:30Z</time>
      </trkpt>
      <trkpt lat="42.416299" lon="-5.208569">
        <ele>874.4</ele>
        <time>2021-08-19T05:55:45Z</time>
      </trkpt>
      <trkpt lat="42.416439" lon="-5.208750">
        <ele>873.2</ele>
        <time>2021-08-19T05:56:00Z</time>
      </trkpt>
      <trkpt lat="42.416543" lon="-5.208960">
        <ele>872.3</ele>
        <time>2021-08-19T05:56:15Z</time>
      </trkpt>
      <trkpt lat="42.416672" lon="-5.209144">
        <ele>870.9</ele>
        <time>2021-08-19T05:56:30Z</time>
      </trkpt>
      <trkpt lat="42.416774" lon="-5.209345">
        <ele>871.2</ele>
        <time>2021-08-19T05:56:46Z</time>
      </trkpt>
      <trkpt lat="42.416896" lon="-5.209531">
        <ele>870.7</ele>
        <time>2021-08-19T05:57:01Z</time>
      </trkpt>
      <trkpt lat="42.417015" lon="-5.209719">
        <ele>871.4</ele>
        <time>2021-08-19T05:57:15Z</time>
      </trkpt>
      <trkpt lat="42.417133" lon="-5.209921">
        <ele>871.9</ele>
        <time>2021-08-19T05:57:31Z</time>
      </trkpt>
      <trkpt lat="42.417235" lon="-5.210123">
        <ele>874.0</ele>
        <time>2021-08-19T05:57:47Z</time>
      </trkpt>
      <trkpt lat="42.417362" lon="-5.210305">
        <ele>873.0</ele>
        <time>2021-08-19T05:58:01Z</time>
      </trkpt>
      <trkpt lat="42.417477" lon="-5.210494">
        <ele>872.7</ele>
        <time>2021-08-19T05:58:15Z</time>
      </trkpt>
      <trkpt lat="42.417591" lon="-5.210698">
        <ele>871.8</ele>
        <time>2021-08-19T05:58:30Z</time>
      </trkpt>
      <trkpt lat="42.417694" lon="-5.210906">
        <ele>871.7</ele>
        <time>2021-08-19T05:58:45Z</time>
      </trkpt>
      <trkpt lat="42.417804" lon="-5.211137">
        <ele>871.7</ele>
        <time>2021-08-19T05:59:01Z</time>
      </trkpt>
      <trkpt lat="42.417943" lon="-5.211328">
        <ele>871.7</ele>
        <time>2021-08-19T05:59:14Z</time>
      </trkpt>
      <trkpt lat="42.418051" lon="-5.211542">
        <ele>872.9</ele>
        <time>2021-08-19T05:59:29Z</time>
      </trkpt>
      <trkpt lat="42.418165" lon="-5.211735">
        <ele>871.7</ele>
        <time>2021-08-19T05:59:43Z</time>
      </trkpt>
      <trkpt lat="42.418269" lon="-5.211947">
        <ele>873.9</ele>
        <time>2021-08-19T05:59:57Z</time>
      </trkpt>
      <trkpt lat="42.418370" lon="-5.212158">
        <ele>874.5</ele>
        <time>2021-08-19T06:00:12Z</time>
      </trkpt>
      <trkpt lat="42.418469" lon="-5.212382">
        <ele>872.9</ele>
        <time>2021-08-19T06:00:27Z</time>
      </trkpt>
      <trkpt lat="42.418586" lon="-5.212579">
        <ele>871.5</ele>
        <time>2021-08-19T06:00:44Z</time>
      </trkpt>
      <trkpt lat="42.418687" lon="-5.212784">
        <ele>872.7</ele>
        <time>2021-08-19T06:00:56Z</time>
      </trkpt>
      <trkpt lat="42.418770" lon="-5.213006">
        <ele>873.7</ele>
        <time>2021-08-19T06:01:10Z</time>
      </trkpt>
      <trkpt lat="42.418878" lon="-5.213219">
        <ele>873.2</ele>
        <time>2021-08-19T06:01:25Z</time>
      </trkpt>
      <trkpt lat="42.418971" lon="-5.213445">
        <ele>871.5</ele>
        <time>2021-08-19T06:01:41Z</time>
      </trkpt>
      <trkpt lat="42.419073" lon="-5.213648">
        <ele>871.5</ele>
        <time>2021-08-19T06:01:55Z</time>
      </trkpt>
      <trkpt lat="42.419193" lon="-5.213832">
        <ele>871.9</ele>
        <time>2021-08-19T06:02:09Z</time>
      </trkpt>
      <trkpt lat="42.419289" lon="-5.214053">
        <ele>872.8</ele>
        <time>2021-08-19T06:02:23Z</time>
      </trkpt>
      <trkpt lat="42.419379" lon="-5.214272">
        <ele>872.8</ele>
        <time>2021-08-19T06:02:41Z</time>
      </trkpt>
      <trkpt lat="42.419501" lon="-5.214481">
        <ele>871.8</ele>
        <time>2021-08-19T06:02:54Z</time>
      </trkpt>
      <trkpt lat="42.419619" lon="-5.214681">
        <ele>872.1</ele>
        <time>2021-08-19T06:03:25Z</time>
      </trkpt>
      <trkpt lat="42.419733" lon="-5.214882">
        <ele>870.7</ele>
        <time>2021-08-19T06:03:38Z</time>
      </trkpt>
      <trkpt lat="42.419865" lon="-5.215076">
        <ele>870.0</ele>
        <time>2021-08-19T06:03:51Z</time>
      </trkpt>
      <trkpt lat="42.419968" lon="-5.215284">
        <ele>868.8</ele>
        <time>2021-08-19T06:04:12Z</time>
      </trkpt>
      <trkpt lat="42.420129" lon="-5.215395">
        <ele>879.2</ele>
        <time>2021-08-19T06:04:28Z</time>
      </trkpt>
      <trkpt lat="42.420236" lon="-5.215603">
        <ele>879.1</ele>
        <time>2021-08-19T06:04:42Z</time>
      </trkpt>
      <trkpt lat="42.420332" lon="-5.215812">
        <ele>879.0</ele>
        <time>2021-08-19T06:04:55Z</time>
      </trkpt>
      <trkpt lat="42.420474" lon="-5.215972">
        <ele>878.9</ele>
        <time>2021-08-19T06:05:16Z</time>
      </trkpt>
      <trkpt lat="42.420554" lon="-5.216197">
        <ele>878.9</ele>
        <time>2021-08-19T06:09:13Z</time>
      </trkpt>
      <trkpt lat="42.420670" lon="-5.216392">
        <ele>878.8</ele>
        <time>2021-08-19T06:09:42Z</time>
      </trkpt>
      <trkpt lat="42.420783" lon="-5.216587">
        <ele>878.7</ele>
        <time>2021-08-19T06:10:00Z</time>
      </trkpt>
      <trkpt lat="42.420887" lon="-5.216792">
        <ele>880.0</ele>
        <time>2021-08-19T06:10:21Z</time>
      </trkpt>
      <trkpt lat="42.420984" lon="-5.217001">
        <ele>880.0</ele>
        <time>2021-08-19T06:10:37Z</time>
      </trkpt>
      <trkpt lat="42.421066" lon="-5.217222">
        <ele>880.1</ele>
        <time>2021-08-19T06:10:57Z</time>
      </trkpt>
      <trkpt lat="42.421157" lon="-5.217444">
        <ele>880.1</ele>
        <time>2021-08-19T06:11:13Z</time>
      </trkpt>
      <trkpt lat="42.421294" lon="-5.217639">
        <ele>857.0</ele>
        <time>2021-08-19T06:11:35Z</time>
      </trkpt>
      <trkpt lat="42.421393" lon="-5.217850">
        <ele>854.0</ele>
        <time>2021-08-19T06:11:50Z</time>
      </trkpt>
      <trkpt lat="42.421499" lon="-5.218056">
        <ele>852.9</ele>
        <time>2021-08-19T06:12:07Z</time>
      </trkpt>
      <trkpt lat="42.421611" lon="-5.218263">
        <ele>852.8</ele>
        <time>2021-08-19T06:12:25Z</time>
      </trkpt>
      <trkpt lat="42.421729" lon="-5.218451">
        <ele>852.8</ele>
        <time>2021-08-19T06:12:41Z</time>
      </trkpt>
      <trkpt lat="42.421815" lon="-5.218671">
        <ele>852.6</ele>
        <time>2021-08-19T06:12:59Z</time>
      </trkpt>
      <trkpt lat="42.421908" lon="-5.218889">
        <ele>852.3</ele>
        <time>2021-08-19T06:13:18Z</time>
      </trkpt>
      <trkpt lat="42.422011" lon="-5.219090">
        <ele>852.4</ele>
        <time>2021-08-19T06:13:30Z</time>
      </trkpt>
      <trkpt lat="42.422114" lon="-5.219305">
        <ele>852.3</ele>
        <time>2021-08-19T06:13:46Z</time>
      </trkpt>
      <trkpt lat="42.422225" lon="-5.219522">
        <ele>852.2</ele>
        <time>2021-08-19T06:14:02Z</time>
      </trkpt>
      <trkpt lat="42.422320" lon="-5.219754">
        <ele>852.2</ele>
        <time>2021-08-19T06:14:14Z</time>
      </trkpt>
      <trkpt lat="42.422377" lon="-5.219990">
        <ele>852.0</ele>
        <time>2021-08-19T06:14:30Z</time>
      </trkpt>
      <trkpt lat="42.422448" lon="-5.220222">
        <ele>867.4</ele>
        <time>2021-08-19T06:14:51Z</time>
      </trkpt>
      <trkpt lat="42.422492" lon="-5.220469">
        <ele>868.8</ele>
        <time>2021-08-19T06:15:08Z</time>
      </trkpt>
      <trkpt lat="42.422536" lon="-5.220717">
        <ele>869.0</ele>
        <time>2021-08-19T06:15:24Z</time>
      </trkpt>
      <trkpt lat="42.422591" lon="-5.220964">
        <ele>869.1</ele>
        <time>2021-08-19T06:15:42Z</time>
      </trkpt>
      <trkpt lat="42.422622" lon="-5.221209">
        <ele>868.9</ele>
        <time>2021-08-19T06:15:57Z</time>
      </trkpt>
      <trkpt lat="42.422678" lon="-5.221454">
        <ele>868.9</ele>
        <time>2021-08-19T06:16:12Z</time>
      </trkpt>
      <trkpt lat="42.422743" lon="-5.221683">
        <ele>869.1</ele>
        <time>2021-08-19T06:16:25Z</time>
      </trkpt>
      <trkpt lat="42.422798" lon="-5.221919">
        <ele>880.8</ele>
        <time>2021-08-19T06:16:41Z</time>
      </trkpt>
      <trkpt lat="42.422874" lon="-5.222156">
        <ele>880.9</ele>
        <time>2021-08-19T06:16:58Z</time>
      </trkpt>
      <trkpt lat="42.422980" lon="-5.222361">
        <ele>880.8</ele>
        <time>2021-08-19T06:17:13Z</time>
      </trkpt>
      <trkpt lat="42.423103" lon="-5.222549">
        <ele>881.0</ele>
        <time>2021-08-19T06:17:32Z</time>
      </trkpt>
      <trkpt lat="42.423227" lon="-5.222740">
        <ele>881.0</ele>
        <time>2021-08-19T06:17:47Z</time>
      </trkpt>
      <trkpt lat="42.423377" lon="-5.222878">
        <ele>881.1</ele>
        <time>2021-08-19T06:18:02Z</time>
      </trkpt>
      <trkpt lat="42.423522" lon="-5.223039">
        <ele>881.2</ele>
        <time>2021-08-19T06:18:16Z</time>
      </trkpt>
      <trkpt lat="42.423657" lon="-5.223204">
        <ele>875.2</ele>
        <time>2021-08-19T06:18:28Z</time>
      </trkpt>
      <trkpt lat="42.423797" lon="-5.223358">
        <ele>873.7</ele>
        <time>2021-08-19T06:18:44Z</time>
      </trkpt>
      <trkpt lat="42.423919" lon="-5.223551">
        <ele>874.3</ele>
        <time>2021-08-19T06:19:00Z</time>
      </trkpt>
      <trkpt lat="42.424023" lon="-5.223756">
        <ele>876.2</ele>
        <time>2021-08-19T06:19:16Z</time>
      </trkpt>
      <trkpt lat="42.424106" lon="-5.223978">
        <ele>877.0</ele>
        <time>2021-08-19T06:24:31Z</time>
      </trkpt>
      <trkpt lat="42.424203" lon="-5.224188">
        <ele>875.6</ele>
        <time>2021-08-19T06:24:51Z</time>
      </trkpt>
      <trkpt lat="42.424311" lon="-5.224393">
        <ele>875.5</ele>
        <time>2021-08-19T06:25:08Z</time>
      </trkpt>
      <trkpt lat="42.424436" lon="-5.224574">
        <ele>876.9</ele>
        <time>2021-08-19T06:25:25Z</time>
      </trkpt>
      <trkpt lat="42.424542" lon="-5.224774">
        <ele>877.9</ele>
        <time>2021-08-19T06:25:42Z</time>
      </trkpt>
      <trkpt lat="42.424651" lon="-5.224978">
        <ele>877.8</ele>
        <time>2021-08-19T06:26:00Z</time>
      </trkpt>
      <trkpt lat="42.424763" lon="-5.225184">
        <ele>878.0</ele>
        <time>2021-08-19T06:26:19Z</time>
      </trkpt>
      <trkpt lat="42.424851" lon="-5.225402">
        <ele>877.7</ele>
        <time>2021-08-19T06:26:35Z</time>
      </trkpt>
      <trkpt lat="42.424966" lon="-5.225591">
        <ele>878.1</ele>
        <time>2021-08-19T06:26:47Z</time>
      </trkpt>
      <trkpt lat="42.425087" lon="-5.225793">
        <ele>878.7</ele>
        <time>2021-08-19T06:27:02Z</time>
      </trkpt>
      <trkpt lat="42.425219" lon="-5.225967">
        <ele>878.9</ele>
        <time>2021-08-19T06:27:17Z</time>
      </trkpt>
      <trkpt lat="42.425352" lon="-5.226132">
        <ele>877.2</ele>
        <time>2021-08-19T06:27:32Z</time>
      </trkpt>
      <trkpt lat="42.425481" lon="-5.226313">
        <ele>876.7</ele>
        <time>2021-08-19T06:27:47Z</time>
      </trkpt>
      <trkpt lat="42.425604" lon="-5.226499">
        <ele>877.8</ele>
        <time>2021-08-19T06:28:01Z</time>
      </trkpt>
      <trkpt lat="42.425721" lon="-5.226691">
        <ele>878.8</ele>
        <time>2021-08-19T06:28:15Z</time>
      </trkpt>
      <trkpt lat="42.425861" lon="-5.226868">
        <ele>878.2</ele>
        <time>2021-08-19T06:28:33Z</time>
      </trkpt>
      <trkpt lat="42.425989" lon="-5.227046">
        <ele>878.2</ele>
        <time>2021-08-19T06:28:46Z</time>
      </trkpt>
      <trkpt lat="42.426107" lon="-5.227243">
        <ele>877.7</ele>
        <time>2021-08-19T06:29:02Z</time>
      </trkpt>
      <trkpt lat="42.426229" lon="-5.227431">
        <ele>878.7</ele>
        <time>2021-08-19T06:29:15Z</time>
      </trkpt>
      <trkpt lat="42.426361" lon="-5.227602">
        <ele>878.0</ele>
        <time>2021-08-19T06:29:29Z</time>
      </trkpt>
      <trkpt lat="42.426485" lon="-5.227785">
        <ele>878.8</ele>
        <time>2021-08-19T06:29:44Z</time>
      </trkpt>
      <trkpt lat="42.426589" lon="-5.227990">
        <ele>877.9</ele>
        <time>2021-08-19T06:29:58Z</time>
      </trkpt>
      <trkpt lat="42.426694" lon="-5.228195">
        <ele>878.9</ele>
        <time>2021-08-19T06:30:14Z</time>
      </trkpt>
      <trkpt lat="42.426805" lon="-5.228390">
        <ele>878.8</ele>
        <time>2021-08-19T06:30:28Z</time>
      </trkpt>
      <trkpt lat="42.426907" lon="-5.228606">
        <ele>878.8</ele>
        <time>2021-08-19T06:30:42Z</time>
      </trkpt>
      <trkpt lat="42.427000" lon="-5.228819">
        <ele>880.2</ele>
        <time>2021-08-19T06:30:57Z</time>
      </trkpt>
      <trkpt lat="42.427102" lon="-5.229028">
        <ele>878.0</ele>
        <time>2021-08-19T06:31:12Z</time>
      </trkpt>
      <trkpt lat="42.427204" lon="-5.229230">
        <ele>878.8</ele>
        <time>2021-08-19T06:31:25Z</time>
      </trkpt>
      <trkpt lat="42.427304" lon="-5.229442">
        <ele>878.6</ele>
        <time>2021-08-19T06:31:39Z</time>
      </trkpt>
      <trkpt lat="42.427401" lon="-5.229658">
        <ele>878.7</ele>
        <time>2021-08-19T06:31:55Z</time>
      </trkpt>
      <trkpt lat="42.427511" lon="-5.229871">
        <ele>879.2</ele>
        <time>2021-08-19T06:32:09Z</time>
      </trkpt>
      <trkpt lat="42.427597" lon="-5.230088">
        <ele>879.9</ele>
        <time>2021-08-19T06:32:23Z</time>
      </trkpt>
      <trkpt lat="42.427691" lon="-5.230299">
        <ele>879.3</ele>
        <time>2021-08-19T06:32:39Z</time>
      </trkpt>
      <trkpt lat="42.427800" lon="-5.230501">
        <ele>878.8</ele>
        <time>2021-08-19T06:32:55Z</time>
      </trkpt>
      <trkpt lat="42.427891" lon="-5.230726">
        <ele>879.8</ele>
        <time>2021-08-19T06:33:10Z</time>
      </trkpt>
      <trkpt lat="42.427998" lon="-5.230927">
        <ele>878.8</ele>
        <time>2021-08-19T06:33:26Z</time>
      </trkpt>
      <trkpt lat="42.428101" lon="-5.231136">
        <ele>878.8</ele>
        <time>2021-08-19T06:33:41Z</time>
      </trkpt>
      <trkpt lat="42.428191" lon="-5.231362">
        <ele>879.0</ele>
        <time>2021-08-19T06:33:55Z</time>
      </trkpt>
      <trkpt lat="42.428298" lon="-5.231561">
        <ele>878.8</ele>
        <time>2021-08-19T06:34:10Z</time>
      </trkpt>
      <trkpt lat="42.428393" lon="-5.231775">
        <ele>880.3</ele>
        <time>2021-08-19T06:34:26Z</time>
      </trkpt>
      <trkpt lat="42.428501" lon="-5.231985">
        <ele>878.7</ele>
        <time>2021-08-19T06:34:41Z</time>
      </trkpt>
      <trkpt lat="42.428607" lon="-5.232186">
        <ele>879.0</ele>
        <time>2021-08-19T06:34:56Z</time>
      </trkpt>
      <trkpt lat="42.428704" lon="-5.232398">
        <ele>877.9</ele>
        <time>2021-08-19T06:35:12Z</time>
      </trkpt>
      <trkpt lat="42.428797" lon="-5.232618">
        <ele>880.0</ele>
        <time>2021-08-19T06:35:27Z</time>
      </trkpt>
      <trkpt lat="42.428905" lon="-5.232818">
        <ele>879.1</ele>
        <time>2021-08-19T06:35:38Z</time>
      </trkpt>
      <trkpt lat="42.429011" lon="-5.233023">
        <ele>878.3</ele>
        <time>2021-08-19T06:35:53Z</time>
      </trkpt>
      <trkpt lat="42.429104" lon="-5.233237">
        <ele>879.9</ele>
        <time>2021-08-19T06:36:08Z</time>
      </trkpt>
      <trkpt lat="42.429218" lon="-5.233440">
        <ele>878.9</ele>
        <time>2021-08-19T06:36:23Z</time>
      </trkpt>
      <trkpt lat="42.429312" lon="-5.233661">
        <ele>879.1</ele>
        <time>2021-08-19T06:36:39Z</time>
      </trkpt>
      <trkpt lat="42.429411" lon="-5.233866">
        <ele>877.8</ele>
        <time>2021-08-19T06:36:54Z</time>
      </trkpt>
      <trkpt lat="42.429511" lon="-5.234071">
        <ele>878.6</ele>
        <time>2021-08-19T06:37:09Z</time>
      </trkpt>
      <trkpt lat="42.429603" lon="-5.234289">
        <ele>879.1</ele>
        <time>2021-08-19T06:37:23Z</time>
      </trkpt>
      <trkpt lat="42.429707" lon="-5.234496">
        <ele>877.8</ele>
        <time>2021-08-19T06:37:38Z</time>
      </trkpt>
      <trkpt lat="42.429817" lon="-5.234695">
        <ele>878.0</ele>
        <time>2021-08-19T06:37:53Z</time>
      </trkpt>
      <trkpt lat="42.429912" lon="-5.234915">
        <ele>878.0</ele>
        <time>2021-08-19T06:38:09Z</time>
      </trkpt>
      <trkpt lat="42.430016" lon="-5.235121">
        <ele>877.7</ele>
        <time>2021-08-19T06:38:24Z</time>
      </trkpt>
      <trkpt lat="42.430108" lon="-5.235343">
        <ele>879.4</ele>
        <time>2021-08-19T06:38:38Z</time>
      </trkpt>
      <trkpt lat="42.430237" lon="-5.235522">
        <ele>879.0</ele>
        <time>2021-08-19T06:38:52Z</time>
      </trkpt>
      <trkpt lat="42.430329" lon="-5.235747">
        <ele>878.1</ele>
        <time>2021-08-19T06:39:07Z</time>
      </trkpt>
      <trkpt lat="42.430416" lon="-5.235967">
        <ele>880.1</ele>
        <time>2021-08-19T06:39:25Z</time>
      </trkpt>
      <trkpt lat="42.430535" lon="-5.236174">
        <ele>879.2</ele>
        <time>2021-08-19T06:39:38Z</time>
      </trkpt>
      <trkpt lat="42.430620" lon="-5.236393">
        <ele>875.9</ele>
        <time>2021-08-19T06:39:53Z</time>
      </trkpt>
      <trkpt lat="42.430718" lon="-5.236610">
        <ele>878.0</ele>
        <time>2021-08-19T06:40:33Z</time>
      </trkpt>
      <trkpt lat="42.430830" lon="-5.236803">
        <ele>875.9</ele>
        <time>2021-08-19T06:40:48Z</time>
      </trkpt>
      <trkpt lat="42.430905" lon="-5.237028">
        <ele>876.3</ele>
        <time>2021-08-19T06:41:10Z</time>
      </trkpt>
      <trkpt lat="42.431006" lon="-5.237234">
        <ele>876.8</ele>
        <time>2021-08-19T06:54:13Z</time>
      </trkpt>
      <trkpt lat="42.431088" lon="-5.237455">
        <ele>876.6</ele>
        <time>2021-08-19T06:54:28Z</time>
      </trkpt>
      <trkpt lat="42.431162" lon="-5.237703">
        <ele>875.7</ele>
        <time>2021-08-19T06:54:48Z</time>
      </trkpt>
      <trkpt lat="42.431252" lon="-5.237914">
        <ele>874.8</ele>
        <time>2021-08-19T06:55:05Z</time>
      </trkpt>
      <trkpt lat="42.431354" lon="-5.238131">
        <ele>876.0</ele>
        <time>2021-08-19T06:55:23Z</time>
      </trkpt>
      <trkpt lat="42.431401" lon="-5.238367">
        <ele>876.1</ele>
        <time>2021-08-19T06:55:40Z</time>
      </trkpt>
      <trkpt lat="42.431490" lon="-5.238608">
        <ele>876.0</ele>
        <time>2021-08-19T06:55:59Z</time>
      </trkpt>
      <trkpt lat="42.431556" lon="-5.238840">
        <ele>875.7</ele>
        <time>2021-08-19T06:56:18Z</time>
      </trkpt>
      <trkpt lat="42.431634" lon="-5.239079">
        <ele>874.8</ele>
        <time>2021-08-19T06:56:34Z</time>
      </trkpt>
      <trkpt lat="42.431709" lon="-5.239312">
        <ele>876.1</ele>
        <time>2021-08-19T06:56:50Z</time>
      </trkpt>
      <trkpt lat="42.431789" lon="-5.239548">
        <ele>875.0</ele>
        <time>2021-08-19T06:57:06Z</time>
      </trkpt>
      <trkpt lat="42.431865" lon="-5.239779">
        <ele>873.9</ele>
        <time>2021-08-19T06:57:23Z</time>
      </trkpt>
      <trkpt lat="42.431929" lon="-5.240011">
        <ele>874.9</ele>
        <time>2021-08-19T06:57:38Z</time>
      </trkpt>
      <trkpt lat="42.432016" lon="-5.240230">
        <ele>874.9</ele>
        <time>2021-08-19T06:57:55Z</time>
      </trkpt>
      <trkpt lat="42.432104" lon="-5.240461">
        <ele>873.8</ele>
        <time>2021-08-19T06:58:12Z</time>
      </trkpt>
      <trkpt lat="42.432180" lon="-5.240707">
        <ele>874.0</ele>
        <time>2021-08-19T06:58:29Z</time>
      </trkpt>
      <trkpt lat="42.432262" lon="-5.240937">
        <ele>873.0</ele>
        <time>2021-08-19T06:58:46Z</time>
      </trkpt>
      <trkpt lat="42.432325" lon="-5.241196">
        <ele>873.0</ele>
        <time>2021-08-19T06:59:04Z</time>
      </trkpt>
      <trkpt lat="42.432419" lon="-5.241418">
        <ele>871.6</ele>
        <time>2021-08-19T06:59:19Z</time>
      </trkpt>
      <trkpt lat="42.432466" lon="-5.241665">
        <ele>876.0</ele>
        <time>2021-08-19T06:59:59Z</time>
      </trkpt>
      <trkpt lat="42.432573" lon="-5.241863">
        <ele>874.0</ele>
        <time>2021-08-19T07:00:12Z</time>
      </trkpt>
      <trkpt lat="42.432640" lon="-5.242090">
        <ele>870.9</ele>
        <time>2021-08-19T07:00:29Z</time>
      </trkpt>
      <trkpt lat="42.432719" lon="-5.242316">
        <ele>869.9</ele>
        <time>2021-08-19T07:00:45Z</time>
      </trkpt>
      <trkpt lat="42.432803" lon="-5.242537">
        <ele>869.0</ele>
        <time>2021-08-19T07:01:00Z</time>
      </trkpt>
      <trkpt lat="42.432879" lon="-5.242773">
        <ele>869.1</ele>
        <time>2021-08-19T07:01:17Z</time>
      </trkpt>
      <trkpt lat="42.432961" lon="-5.242999">
        <ele>867.8</ele>
        <time>2021-08-19T07:01:33Z</time>
      </trkpt>
      <trkpt lat="42.433029" lon="-5.243224">
        <ele>868.5</ele>
        <time>2021-08-19T07:01:53Z</time>
      </trkpt>
      <trkpt lat="42.433079" lon="-5.243471">
        <ele>868.9</ele>
        <time>2021-08-19T07:02:07Z</time>
      </trkpt>
      <trkpt lat="42.433160" lon="-5.243699">
        <ele>866.7</ele>
        <time>2021-08-19T07:02:25Z</time>
      </trkpt>
      <trkpt lat="42.433219" lon="-5.243937">
        <ele>867.5</ele>
        <time>2021-08-19T07:02:44Z</time>
      </trkpt>
      <trkpt lat="42.433315" lon="-5.244150">
        <ele>868.5</ele>
        <time>2021-08-19T07:03:03Z</time>
      </trkpt>
      <trkpt lat="42.433409" lon="-5.244375">
        <ele>869.8</ele>
        <time>2021-08-19T07:03:16Z</time>
      </trkpt>
      <trkpt lat="42.433471" lon="-5.244607">
        <ele>867.9</ele>
        <time>2021-08-19T07:04:42Z</time>
      </trkpt>
      <trkpt lat="42.433558" lon="-5.244830">
        <ele>867.0</ele>
        <time>2021-08-19T07:04:54Z</time>
      </trkpt>
      <trkpt lat="42.433643" lon="-5.245053">
        <ele>866.1</ele>
        <time>2021-08-19T07:05:08Z</time>
      </trkpt>
      <trkpt lat="42.433745" lon="-5.245264">
        <ele>864.9</ele>
        <time>2021-08-19T07:05:25Z</time>
      </trkpt>
      <trkpt lat="42.433847" lon="-5.245470">
        <ele>864.0</ele>
        <time>2021-08-19T07:05:39Z</time>
      </trkpt>
      <trkpt lat="42.433968" lon="-5.245673">
        <ele>863.9</ele>
        <time>2021-08-19T07:05:53Z</time>
      </trkpt>
      <trkpt lat="42.434085" lon="-5.245867">
        <ele>864.8</ele>
        <time>2021-08-19T07:06:07Z</time>
      </trkpt>
      <trkpt lat="42.434210" lon="-5.246048">
        <ele>864.8</ele>
        <time>2021-08-19T07:06:21Z</time>
      </trkpt>
      <trkpt lat="42.434319" lon="-5.246248">
        <ele>863.8</ele>
        <time>2021-08-19T07:06:35Z</time>
      </trkpt>
      <trkpt lat="42.434432" lon="-5.246450">
        <ele>865.7</ele>
        <time>2021-08-19T07:06:48Z</time>
      </trkpt>
      <trkpt lat="42.434551" lon="-5.246642">
        <ele>864.1</ele>
        <time>2021-08-19T07:07:03Z</time>
      </trkpt>
      <trkpt lat="42.434667" lon="-5.246831">
        <ele>865.8</ele>
        <time>2021-08-19T07:07:18Z</time>
      </trkpt>
      <trkpt lat="42.434787" lon="-5.247020">
        <ele>866.6</ele>
        <time>2021-08-19T07:07:31Z</time>
      </trkpt>
      <trkpt lat="42.434908" lon="-5.247217">
        <ele>866.8</ele>
        <time>2021-08-19T07:07:46Z</time>
      </trkpt>
      <trkpt lat="42.435029" lon="-5.247405">
        <ele>865.1</ele>
        <time>2021-08-19T07:08:00Z</time>
      </trkpt>
      <trkpt lat="42.435134" lon="-5.247617">
        <ele>863.9</ele>
        <time>2021-08-19T07:08:14Z</time>
      </trkpt>
      <trkpt lat="42.435248" lon="-5.247807">
        <ele>864.7</ele>
        <time>2021-08-19T07:08:29Z</time>
      </trkpt>
      <trkpt lat="42.435369" lon="-5.247987">
        <ele>866.6</ele>
        <time>2021-08-19T07:08:41Z</time>
      </trkpt>
      <trkpt lat="42.435487" lon="-5.248177">
        <ele>867.8</ele>
        <time>2021-08-19T07:08:55Z</time>
      </trkpt>
      <trkpt lat="42.435587" lon="-5.248405">
        <ele>866.8</ele>
        <time>2021-08-19T07:09:10Z</time>
      </trkpt>
      <trkpt lat="42.435706" lon="-5.248599">
        <ele>864.9</ele>
        <time>2021-08-19T07:09:24Z</time>
      </trkpt>
      <trkpt lat="42.435826" lon="-5.248787">
        <ele>865.9</ele>
        <time>2021-08-19T07:09:37Z</time>
      </trkpt>
      <trkpt lat="42.435943" lon="-5.248988">
        <ele>863.7</ele>
        <time>2021-08-19T07:09:52Z</time>
      </trkpt>
      <trkpt lat="42.436065" lon="-5.249181">
        <ele>864.3</ele>
        <time>2021-08-19T07:10:05Z</time>
      </trkpt>
      <trkpt lat="42.436180" lon="-5.249386">
        <ele>863.9</ele>
        <time>2021-08-19T07:10:20Z</time>
      </trkpt>
      <trkpt lat="42.436283" lon="-5.249589">
        <ele>865.2</ele>
        <time>2021-08-19T07:10:34Z</time>
      </trkpt>
      <trkpt lat="42.436407" lon="-5.249781">
        <ele>866.5</ele>
        <time>2021-08-19T07:10:48Z</time>
      </trkpt>
      <trkpt lat="42.436530" lon="-5.249960">
        <ele>867.0</ele>
        <time>2021-08-19T07:11:02Z</time>
      </trkpt>
      <trkpt lat="42.436654" lon="-5.250165">
        <ele>867.4</ele>
        <time>2021-08-19T07:11:17Z</time>
      </trkpt>
      <trkpt lat="42.436752" lon="-5.250369">
        <ele>868.0</ele>
        <time>2021-08-19T07:11:27Z</time>
      </trkpt>
      <trkpt lat="42.436879" lon="-5.250566">
        <ele>867.9</ele>
        <time>2021-08-19T07:11:44Z</time>
      </trkpt>
      <trkpt lat="42.436992" lon="-5.250772">
        <ele>866.5</ele>
        <time>2021-08-19T07:11:57Z</time>
      </trkpt>
      <trkpt lat="42.437104" lon="-5.250968">
        <ele>867.8</ele>
        <time>2021-08-19T07:12:11Z</time>
      </trkpt>
      <trkpt lat="42.437224" lon="-5.251150">
        <ele>866.3</ele>
        <time>2021-08-19T07:12:26Z</time>
      </trkpt>
      <trkpt lat="42.437338" lon="-5.251363">
        <ele>866.0</ele>
        <time>2021-08-19T07:12:41Z</time>
      </trkpt>
      <trkpt lat="42.437444" lon="-5.251564">
        <ele>868.5</ele>
        <time>2021-08-19T07:12:54Z</time>
      </trkpt>
      <trkpt lat="42.437558" lon="-5.251771">
        <ele>869.2</ele>
        <time>2021-08-19T07:13:08Z</time>
      </trkpt>
      <trkpt lat="42.437684" lon="-5.251976">
        <ele>868.8</ele>
        <time>2021-08-19T07:13:22Z</time>
      </trkpt>
      <trkpt lat="42.437803" lon="-5.252178">
        <ele>869.7</ele>
        <time>2021-08-19T07:13:37Z</time>
      </trkpt>
      <trkpt lat="42.437925" lon="-5.252369">
        <ele>869.7</ele>
        <time>2021-08-19T07:13:52Z</time>
      </trkpt>
      <trkpt lat="42.438036" lon="-5.252570">
        <ele>869.8</ele>
        <time>2021-08-19T07:14:05Z</time>
      </trkpt>
      <trkpt lat="42.438154" lon="-5.252760">
        <ele>870.1</ele>
        <time>2021-08-19T07:14:20Z</time>
      </trkpt>
      <trkpt lat="42.438270" lon="-5.252948">
        <ele>869.9</ele>
        <time>2021-08-19T07:14:33Z</time>
      </trkpt>
      <trkpt lat="42.438377" lon="-5.253156">
        <ele>868.7</ele>
        <time>2021-08-19T07:14:48Z</time>
      </trkpt>
      <trkpt lat="42.438495" lon="-5.253344">
        <ele>870.8</ele>
        <time>2021-08-19T07:15:05Z</time>
      </trkpt>
      <trkpt lat="42.438613" lon="-5.253551">
        <ele>869.6</ele>
        <time>2021-08-19T07:15:18Z</time>
      </trkpt>
      <trkpt lat="42.438738" lon="-5.253737">
        <ele>869.8</ele>
        <time>2021-08-19T07:15:32Z</time>
      </trkpt>
      <trkpt lat="42.438848" lon="-5.253934">
        <ele>868.9</ele>
        <time>2021-08-19T07:15:48Z</time>
      </trkpt>
      <trkpt lat="42.438968" lon="-5.254124">
        <ele>870.0</ele>
        <time>2021-08-19T07:15:59Z</time>
      </trkpt>
      <trkpt lat="42.439073" lon="-5.254326">
        <ele>868.6</ele>
        <time>2021-08-19T07:16:13Z</time>
      </trkpt>
      <trkpt lat="42.439198" lon="-5.254547">
        <ele>868.7</ele>
        <time>2021-08-19T07:16:28Z</time>
      </trkpt>
      <trkpt lat="42.439330" lon="-5.254743">
        <ele>870.0</ele>
        <time>2021-08-19T07:16:43Z</time>
      </trkpt>
      <trkpt lat="42.439438" lon="-5.254978">
        <ele>869.8</ele>
        <time>2021-08-19T07:16:58Z</time>
      </trkpt>
      <trkpt lat="42.439571" lon="-5.255151">
        <ele>869.4</ele>
        <time>2021-08-19T07:17:12Z</time>
      </trkpt>
      <trkpt lat="42.439715" lon="-5.255348">
        <ele>870.4</ele>
        <time>2021-08-19T07:17:25Z</time>
      </trkpt>
      <trkpt lat="42.439841" lon="-5.255532">
        <ele>872.8</ele>
        <time>2021-08-19T07:17:39Z</time>
      </trkpt>
      <trkpt lat="42.439974" lon="-5.255720">
        <ele>873.6</ele>
        <time>2021-08-19T07:17:54Z</time>
      </trkpt>
      <trkpt lat="42.440098" lon="-5.255898">
        <ele>872.0</ele>
        <time>2021-08-19T07:18:09Z</time>
      </trkpt>
      <trkpt lat="42.440234" lon="-5.256061">
        <ele>873.9</ele>
        <time>2021-08-19T07:18:24Z</time>
      </trkpt>
      <trkpt lat="42.440349" lon="-5.256254">
        <ele>874.1</ele>
        <time>2021-08-19T07:18:37Z</time>
      </trkpt>
      <trkpt lat="42.440479" lon="-5.256441">
        <ele>872.8</ele>
        <time>2021-08-19T07:18:52Z</time>
      </trkpt>
      <trkpt lat="42.440598" lon="-5.256623">
        <ele>872.1</ele>
        <time>2021-08-19T07:19:08Z</time>
      </trkpt>
      <trkpt lat="42.440724" lon="-5.256817">
        <ele>872.4</ele>
        <time>2021-08-19T07:19:22Z</time>
      </trkpt>
      <trkpt lat="42.440854" lon="-5.257004">
        <ele>872.0</ele>
        <time>2021-08-19T07:19:35Z</time>
      </trkpt>
      <trkpt lat="42.440985" lon="-5.257175">
        <ele>870.7</ele>
        <time>2021-08-19T07:19:50Z</time>
      </trkpt>
      <trkpt lat="42.441119" lon="-5.257371">
        <ele>871.7</ele>
        <time>2021-08-19T07:20:05Z</time>
      </trkpt>
      <trkpt lat="42.441253" lon="-5.257565">
        <ele>872.8</ele>
        <time>2021-08-19T07:20:20Z</time>
      </trkpt>
      <trkpt lat="42.441374" lon="-5.257756">
        <ele>872.7</ele>
        <time>2021-08-19T07:20:36Z</time>
      </trkpt>
      <trkpt lat="42.441502" lon="-5.257937">
        <ele>872.8</ele>
        <time>2021-08-19T07:20:49Z</time>
      </trkpt>
      <trkpt lat="42.441636" lon="-5.258112">
        <ele>871.0</ele>
        <time>2021-08-19T07:21:04Z</time>
      </trkpt>
      <trkpt lat="42.441758" lon="-5.258292">
        <ele>872.0</ele>
        <time>2021-08-19T07:21:18Z</time>
      </trkpt>
      <trkpt lat="42.441886" lon="-5.258473">
        <ele>872.1</ele>
        <time>2021-08-19T07:21:31Z</time>
      </trkpt>
      <trkpt lat="42.442012" lon="-5.258648">
        <ele>870.3</ele>
        <time>2021-08-19T07:21:46Z</time>
      </trkpt>
      <trkpt lat="42.442139" lon="-5.258834">
        <ele>869.1</ele>
        <time>2021-08-19T07:21:59Z</time>
      </trkpt>
      <trkpt lat="42.442263" lon="-5.259011">
        <ele>869.1</ele>
        <time>2021-08-19T07:22:13Z</time>
      </trkpt>
      <trkpt lat="42.442389" lon="-5.259193">
        <ele>868.9</ele>
        <time>2021-08-19T07:22:27Z</time>
      </trkpt>
      <trkpt lat="42.442523" lon="-5.259370">
        <ele>867.8</ele>
        <time>2021-08-19T07:22:43Z</time>
      </trkpt>
      <trkpt lat="42.442645" lon="-5.259551">
        <ele>868.0</ele>
        <time>2021-08-19T07:22:55Z</time>
      </trkpt>
      <trkpt lat="42.442764" lon="-5.259737">
        <ele>869.7</ele>
        <time>2021-08-19T07:23:08Z</time>
      </trkpt>
      <trkpt lat="42.442892" lon="-5.259921">
        <ele>867.7</ele>
        <time>2021-08-19T07:23:24Z</time>
      </trkpt>
      <trkpt lat="42.443030" lon="-5.260091">
        <ele>868.0</ele>
        <time>2021-08-19T07:23:37Z</time>
      </trkpt>
      <trkpt lat="42.443154" lon="-5.260283">
        <ele>866.3</ele>
        <time>2021-08-19T07:23:52Z</time>
      </trkpt>
      <trkpt lat="42.443278" lon="-5.260468">
        <ele>865.7</ele>
        <time>2021-08-19T07:24:07Z</time>
      </trkpt>
      <trkpt lat="42.443393" lon="-5.260668">
        <ele>866.3</ele>
        <time>2021-08-19T07:24:20Z</time>
      </trkpt>
      <trkpt lat="42.443524" lon="-5.260837">
        <ele>866.3</ele>
        <time>2021-08-19T07:24:34Z</time>
      </trkpt>
      <trkpt lat="42.443653" lon="-5.261018">
        <ele>865.2</ele>
        <time>2021-08-19T07:24:47Z</time>
      </trkpt>
      <trkpt lat="42.443785" lon="-5.261197">
        <ele>868.8</ele>
        <time>2021-08-19T07:25:02Z</time>
      </trkpt>
      <trkpt lat="42.443894" lon="-5.261403">
        <ele>870.8</ele>
        <time>2021-08-19T07:25:15Z</time>
      </trkpt>
      <trkpt lat="42.444022" lon="-5.261580">
        <ele>872.9</ele>
        <time>2021-08-19T07:25:28Z</time>
      </trkpt>
      <trkpt lat="42.444139" lon="-5.261775">
        <ele>870.0</ele>
        <time>2021-08-19T07:25:45Z</time>
      </trkpt>
      <trkpt lat="42.444255" lon="-5.261972">
        <ele>869.8</ele>
        <time>2021-08-19T07:25:58Z</time>
      </trkpt>
      <trkpt lat="42.444403" lon="-5.262133">
        <ele>870.1</ele>
        <time>2021-08-19T07:26:23Z</time>
      </trkpt>
      <trkpt lat="42.444534" lon="-5.262300">
        <ele>869.4</ele>
        <time>2021-08-19T07:26:35Z</time>
      </trkpt>
      <trkpt lat="42.444660" lon="-5.262491">
        <ele>867.6</ele>
        <time>2021-08-19T07:26:48Z</time>
      </trkpt>
      <trkpt lat="42.444773" lon="-5.262696">
        <ele>867.6</ele>
        <time>2021-08-19T07:27:01Z</time>
      </trkpt>
      <trkpt lat="42.444905" lon="-5.262879">
        <ele>868.0</ele>
        <time>2021-08-19T07:27:21Z</time>
      </trkpt>
      <trkpt lat="42.445033" lon="-5.263058">
        <ele>866.7</ele>
        <time>2021-08-19T07:27:48Z</time>
      </trkpt>
      <trkpt lat="42.445171" lon="-5.263223">
        <ele>862.8</ele>
        <time>2021-08-19T07:28:08Z</time>
      </trkpt>
      <trkpt lat="42.445325" lon="-5.263365">
        <ele>851.2</ele>
        <time>2021-08-19T07:28:31Z</time>
      </trkpt>
      <trkpt lat="42.445407" lon="-5.263594">
        <ele>852.2</ele>
        <time>2021-08-19T07:28:51Z</time>
      </trkpt>
      <trkpt lat="42.445420" lon="-5.263839">
        <ele>860.5</ele>
        <time>2021-08-19T07:29:25Z</time>
      </trkpt>
      <trkpt lat="42.445476" lon="-5.263894">
        <ele>866.9</ele>
        <time>2021-08-19T07:56:12Z</time>
      </trkpt>
      <trkpt lat="42.445624" lon="-5.264051">
        <ele>864.5</ele>
        <time>2021-08-19T07:56:42Z</time>
      </trkpt>
      <trkpt lat="42.445725" lon="-5.264261">
        <ele>864.9</ele>
        <time>2021-08-19T07:57:08Z</time>
      </trkpt>
      <trkpt lat="42.445830" lon="-5.264467">
        <ele>865.8</ele>
        <time>2021-08-19T07:57:27Z</time>
      </trkpt>
      <trkpt lat="42.445949" lon="-5.264662">
        <ele>864.9</ele>
        <time>2021-08-19T07:57:49Z</time>
      </trkpt>
      <trkpt lat="42.446074" lon="-5.264837">
        <ele>861.8</ele>
        <time>2021-08-19T07:58:04Z</time>
      </trkpt>
      <trkpt lat="42.446196" lon="-5.265029">
        <ele>863.2</ele>
        <time>2021-08-19T07:58:19Z</time>
      </trkpt>
      <trkpt lat="42.446310" lon="-5.265241">
        <ele>864.9</ele>
        <time>2021-08-19T07:58:33Z</time>
      </trkpt>
      <trkpt lat="42.446429" lon="-5.265436">
        <ele>865.9</ele>
        <time>2021-08-19T07:58:49Z</time>
      </trkpt>
      <trkpt lat="42.446551" lon="-5.265624">
        <ele>867.7</ele>
        <time>2021-08-19T07:59:08Z</time>
      </trkpt>
      <trkpt lat="42.446668" lon="-5.265824">
        <ele>865.8</ele>
        <time>2021-08-19T07:59:24Z</time>
      </trkpt>
      <trkpt lat="42.446783" lon="-5.266020">
        <ele>863.6</ele>
        <time>2021-08-19T07:59:38Z</time>
      </trkpt>
      <trkpt lat="42.446879" lon="-5.266236">
        <ele>868.0</ele>
        <time>2021-08-19T07:59:58Z</time>
      </trkpt>
      <trkpt lat="42.446993" lon="-5.266434">
        <ele>868.8</ele>
        <time>2021-08-19T08:00:13Z</time>
      </trkpt>
      <trkpt lat="42.447103" lon="-5.266639">
        <ele>870.0</ele>
        <time>2021-08-19T08:00:30Z</time>
      </trkpt>
      <trkpt lat="42.447229" lon="-5.266832">
        <ele>869.9</ele>
        <time>2021-08-19T08:00:46Z</time>
      </trkpt>
      <trkpt lat="42.447354" lon="-5.267025">
        <ele>868.6</ele>
        <time>2021-08-19T08:01:08Z</time>
      </trkpt>
      <trkpt lat="42.447465" lon="-5.267240">
        <ele>869.1</ele>
        <time>2021-08-19T08:01:29Z</time>
      </trkpt>
      <trkpt lat="42.447569" lon="-5.267442">
        <ele>871.0</ele>
        <time>2021-08-19T08:01:45Z</time>
      </trkpt>
      <trkpt lat="42.447705" lon="-5.267636">
        <ele>868.5</ele>
        <time>2021-08-19T08:02:14Z</time>
      </trkpt>
      <trkpt lat="42.447820" lon="-5.267832">
        <ele>867.9</ele>
        <time>2021-08-19T08:02:29Z</time>
      </trkpt>
      <trkpt lat="42.447931" lon="-5.268024">
        <ele>867.1</ele>
        <time>2021-08-19T08:02:48Z</time>
      </trkpt>
      <trkpt lat="42.448051" lon="-5.268208">
        <ele>863.9</ele>
        <time>2021-08-19T08:03:04Z</time>
      </trkpt>
      <trkpt lat="42.448151" lon="-5.268421">
        <ele>863.5</ele>
        <time>2021-08-19T08:03:19Z</time>
      </trkpt>
      <trkpt lat="42.448253" lon="-5.268633">
        <ele>863.8</ele>
        <time>2021-08-19T08:03:36Z</time>
      </trkpt>
      <trkpt lat="42.448317" lon="-5.268870">
        <ele>865.8</ele>
        <time>2021-08-19T08:03:48Z</time>
      </trkpt>
      <trkpt lat="42.448409" lon="-5.269094">
        <ele>863.9</ele>
        <time>2021-08-19T08:04:03Z</time>
      </trkpt>
      <trkpt lat="42.448504" lon="-5.269315">
        <ele>861.8</ele>
        <time>2021-08-19T08:04:18Z</time>
      </trkpt>
      <trkpt lat="42.448590" lon="-5.269543">
        <ele>863.8</ele>
        <time>2021-08-19T08:04:33Z</time>
      </trkpt>
      <trkpt lat="42.448683" lon="-5.269764">
        <ele>865.8</ele>
        <time>2021-08-19T08:04:48Z</time>
      </trkpt>
      <trkpt lat="42.448766" lon="-5.269988">
        <ele>868.0</ele>
        <time>2021-08-19T08:05:02Z</time>
      </trkpt>
      <trkpt lat="42.448857" lon="-5.270215">
        <ele>868.7</ele>
        <time>2021-08-19T08:05:17Z</time>
      </trkpt>
      <trkpt lat="42.448942" lon="-5.270435">
        <ele>866.8</ele>
        <time>2021-08-19T08:05:31Z</time>
      </trkpt>
      <trkpt lat="42.449031" lon="-5.270649">
        <ele>865.7</ele>
        <time>2021-08-19T08:05:45Z</time>
      </trkpt>
      <trkpt lat="42.449125" lon="-5.270870">
        <ele>865.7</ele>
        <time>2021-08-19T08:06:01Z</time>
      </trkpt>
      <trkpt lat="42.449209" lon="-5.271104">
        <ele>865.7</ele>
        <time>2021-08-19T08:06:30Z</time>
      </trkpt>
      <trkpt lat="42.449294" lon="-5.271323">
        <ele>867.1</ele>
        <time>2021-08-19T08:06:47Z</time>
      </trkpt>
      <trkpt lat="42.449367" lon="-5.271547">
        <ele>863.9</ele>
        <time>2021-08-19T08:07:00Z</time>
      </trkpt>
      <trkpt lat="42.449500" lon="-5.271728">
        <ele>860.1</ele>
        <time>2021-08-19T08:07:18Z</time>
      </trkpt>
      <trkpt lat="42.449578" lon="-5.271959">
        <ele>860.8</ele>
        <time>2021-08-19T08:07:30Z</time>
      </trkpt>
      <trkpt lat="42.449667" lon="-5.272185">
        <ele>861.0</ele>
        <time>2021-08-19T08:07:44Z</time>
      </trkpt>
      <trkpt lat="42.449755" lon="-5.272404">
        <ele>862.8</ele>
        <time>2021-08-19T08:07:57Z</time>
      </trkpt>
      <trkpt lat="42.449857" lon="-5.272636">
        <ele>863.3</ele>
        <time>2021-08-19T08:08:11Z</time>
      </trkpt>
      <trkpt lat="42.449945" lon="-5.272880">
        <ele>864.8</ele>
        <time>2021-08-19T08:08:26Z</time>
      </trkpt>
      <trkpt lat="42.450041" lon="-5.273105">
        <ele>864.0</ele>
        <time>2021-08-19T08:08:41Z</time>
      </trkpt>
      <trkpt lat="42.450129" lon="-5.273320">
        <ele>864.2</ele>
        <time>2021-08-19T08:08:56Z</time>
      </trkpt>
      <trkpt lat="42.450218" lon="-5.273539">
        <ele>865.2</ele>
        <time>2021-08-19T08:09:15Z</time>
      </trkpt>
      <trkpt lat="42.450312" lon="-5.273768">
        <ele>865.7</ele>
        <time>2021-08-19T08:09:29Z</time>
      </trkpt>
      <trkpt lat="42.450399" lon="-5.273988">
        <ele>865.5</ele>
        <time>2021-08-19T08:09:43Z</time>
      </trkpt>
      <trkpt lat="42.450490" lon="-5.274206">
        <ele>864.0</ele>
        <time>2021-08-19T08:09:57Z</time>
      </trkpt>
      <trkpt lat="42.450570" lon="-5.274435">
        <ele>863.7</ele>
        <time>2021-08-19T08:10:12Z</time>
      </trkpt>
      <trkpt lat="42.450659" lon="-5.274651">
        <ele>864.8</ele>
        <time>2021-08-19T08:10:27Z</time>
      </trkpt>
      <trkpt lat="42.450747" lon="-5.274865">
        <ele>864.0</ele>
        <time>2021-08-19T08:10:41Z</time>
      </trkpt>
      <trkpt lat="42.450833" lon="-5.275096">
        <ele>865.5</ele>
        <time>2021-08-19T08:10:56Z</time>
      </trkpt>
      <trkpt lat="42.450925" lon="-5.275317">
        <ele>867.5</ele>
        <time>2021-08-19T08:11:09Z</time>
      </trkpt>
      <trkpt lat="42.451018" lon="-5.275528">
        <ele>869.6</ele>
        <time>2021-08-19T08:11:23Z</time>
      </trkpt>
      <trkpt lat="42.451099" lon="-5.275760">
        <ele>866.8</ele>
        <time>2021-08-19T08:11:38Z</time>
      </trkpt>
      <trkpt lat="42.451193" lon="-5.275976">
        <ele>868.0</ele>
        <time>2021-08-19T08:11:53Z</time>
      </trkpt>
      <trkpt lat="42.451279" lon="-5.276193">
        <ele>867.9</ele>
        <time>2021-08-19T08:12:08Z</time>
      </trkpt>
      <trkpt lat="42.451369" lon="-5.276417">
        <ele>867.9</ele>
        <time>2021-08-19T08:12:36Z</time>
      </trkpt>
      <trkpt lat="42.451462" lon="-5.276642">
        <ele>867.0</ele>
        <time>2021-08-19T08:12:51Z</time>
      </trkpt>
      <trkpt lat="42.451549" lon="-5.276870">
        <ele>867.0</ele>
        <time>2021-08-19T08:13:07Z</time>
      </trkpt>
      <trkpt lat="42.451637" lon="-5.277100">
        <ele>867.8</ele>
        <time>2021-08-19T08:13:21Z</time>
      </trkpt>
      <trkpt lat="42.451732" lon="-5.277317">
        <ele>866.9</ele>
        <time>2021-08-19T08:13:34Z</time>
      </trkpt>
      <trkpt lat="42.451808" lon="-5.277541">
        <ele>865.7</ele>
        <time>2021-08-19T08:13:49Z</time>
      </trkpt>
      <trkpt lat="42.451901" lon="-5.277762">
        <ele>867.9</ele>
        <time>2021-08-19T08:14:04Z</time>
      </trkpt>
      <trkpt lat="42.451997" lon="-5.277986">
        <ele>867.0</ele>
        <time>2021-08-19T08:14:19Z</time>
      </trkpt>
      <trkpt lat="42.452085" lon="-5.278212">
        <ele>866.8</ele>
        <time>2021-08-19T08:14:34Z</time>
      </trkpt>
      <trkpt lat="42.452179" lon="-5.278442">
        <ele>866.6</ele>
        <time>2021-08-19T08:14:49Z</time>
      </trkpt>
      <trkpt lat="42.452269" lon="-5.278659">
        <ele>865.0</ele>
        <time>2021-08-19T08:15:05Z</time>
      </trkpt>
      <trkpt lat="42.452320" lon="-5.278895">
        <ele>870.1</ele>
        <time>2021-08-19T08:20:07Z</time>
      </trkpt>
      <trkpt lat="42.452402" lon="-5.279123">
        <ele>870.9</ele>
        <time>2021-08-19T08:20:23Z</time>
      </trkpt>
      <trkpt lat="42.452482" lon="-5.279373">
        <ele>871.2</ele>
        <time>2021-08-19T08:20:37Z</time>
      </trkpt>
      <trkpt lat="42.452569" lon="-5.279588">
        <ele>871.0</ele>
        <time>2021-08-19T08:20:52Z</time>
      </trkpt>
      <trkpt lat="42.452661" lon="-5.279806">
        <ele>870.8</ele>
        <time>2021-08-19T08:21:09Z</time>
      </trkpt>
      <trkpt lat="42.452773" lon="-5.280004">
        <ele>866.8</ele>
        <time>2021-08-19T08:21:23Z</time>
      </trkpt>
      <trkpt lat="42.452873" lon="-5.280208">
        <ele>865.0</ele>
        <time>2021-08-19T08:21:36Z</time>
      </trkpt>
      <trkpt lat="42.452976" lon="-5.280420">
        <ele>863.4</ele>
        <time>2021-08-19T08:21:49Z</time>
      </trkpt>
      <trkpt lat="42.453070" lon="-5.280632">
        <ele>862.8</ele>
        <time>2021-08-19T08:22:07Z</time>
      </trkpt>
      <trkpt lat="42.453199" lon="-5.280808">
        <ele>857.9</ele>
        <time>2021-08-19T08:22:24Z</time>
      </trkpt>
      <trkpt lat="42.453286" lon="-5.281033">
        <ele>857.1</ele>
        <time>2021-08-19T08:22:38Z</time>
      </trkpt>
      <trkpt lat="42.453345" lon="-5.281277">
        <ele>860.8</ele>
        <time>2021-08-19T08:22:56Z</time>
      </trkpt>
      <trkpt lat="42.453440" lon="-5.281495">
        <ele>860.9</ele>
        <time>2021-08-19T08:23:15Z</time>
      </trkpt>
      <trkpt lat="42.453523" lon="-5.281718">
        <ele>860.8</ele>
        <time>2021-08-19T08:23:35Z</time>
      </trkpt>
      <trkpt lat="42.453606" lon="-5.281940">
        <ele>859.8</ele>
        <time>2021-08-19T08:23:55Z</time>
      </trkpt>
      <trkpt lat="42.453701" lon="-5.282150">
        <ele>859.8</ele>
        <time>2021-08-19T08:24:19Z</time>
      </trkpt>
      <trkpt lat="42.453792" lon="-5.282369">
        <ele>858.7</ele>
        <time>2021-08-19T08:24:37Z</time>
      </trkpt>
      <trkpt lat="42.453887" lon="-5.282594">
        <ele>857.9</ele>
        <time>2021-08-19T08:24:56Z</time>
      </trkpt>
      <trkpt lat="42.453979" lon="-5.282813">
        <ele>859.5</ele>
        <time>2021-08-19T08:25:14Z</time>
      </trkpt>
      <trkpt lat="42.454070" lon="-5.283036">
        <ele>861.7</ele>
        <time>2021-08-19T08:25:31Z</time>
      </trkpt>
      <trkpt lat="42.454158" lon="-5.283259">
        <ele>861.7</ele>
        <time>2021-08-19T08:25:55Z</time>
      </trkpt>
      <trkpt lat="42.454263" lon="-5.283471">
        <ele>861.5</ele>
        <time>2021-08-19T08:26:35Z</time>
      </trkpt>
      <trkpt lat="42.454361" lon="-5.283692">
        <ele>862.7</ele>
        <time>2021-08-19T08:26:49Z</time>
      </trkpt>
      <trkpt lat="42.454457" lon="-5.283906">
        <ele>861.7</ele>
        <time>2021-08-19T08:27:03Z</time>
      </trkpt>
      <trkpt lat="42.454549" lon="-5.284129">
        <ele>861.8</ele>
        <time>2021-08-19T08:27:18Z</time>
      </trkpt>
      <trkpt lat="42.454653" lon="-5.284342">
        <ele>861.6</ele>
        <time>2021-08-19T08:27:32Z</time>
      </trkpt>
      <trkpt lat="42.454747" lon="-5.284555">
        <ele>863.1</ele>
        <time>2021-08-19T08:27:45Z</time>
      </trkpt>
      <trkpt lat="42.454834" lon="-5.284787">
        <ele>863.8</ele>
        <time>2021-08-19T08:27:59Z</time>
      </trkpt>
      <trkpt lat="42.454917" lon="-5.285014">
        <ele>867.8</ele>
        <time>2021-08-19T08:28:13Z</time>
      </trkpt>
      <trkpt lat="42.455007" lon="-5.285234">
        <ele>867.1</ele>
        <time>2021-08-19T08:28:26Z</time>
      </trkpt>
      <trkpt lat="42.455102" lon="-5.285446">
        <ele>867.6</ele>
        <time>2021-08-19T08:28:40Z</time>
      </trkpt>
      <trkpt lat="42.455178" lon="-5.285667">
        <ele>865.0</ele>
        <time>2021-08-19T08:28:54Z</time>
      </trkpt>
      <trkpt lat="42.455280" lon="-5.285873">
        <ele>865.7</ele>
        <time>2021-08-19T08:29:10Z</time>
      </trkpt>
      <trkpt lat="42.455382" lon="-5.286094">
        <ele>865.1</ele>
        <time>2021-08-19T08:29:25Z</time>
      </trkpt>
      <trkpt lat="42.455486" lon="-5.286315">
        <ele>865.5</ele>
        <time>2021-08-19T08:29:39Z</time>
      </trkpt>
      <trkpt lat="42.455570" lon="-5.286547">
        <ele>868.1</ele>
        <time>2021-08-19T08:29:54Z</time>
      </trkpt>
      <trkpt lat="42.455654" lon="-5.286795">
        <ele>867.2</ele>
        <time>2021-08-19T08:30:07Z</time>
      </trkpt>
      <trkpt lat="42.455757" lon="-5.287011">
        <ele>866.0</ele>
        <time>2021-08-19T08:30:21Z</time>
      </trkpt>
      <trkpt lat="42.455844" lon="-5.287238">
        <ele>868.1</ele>
        <time>2021-08-19T08:30:35Z</time>
      </trkpt>
      <trkpt lat="42.455943" lon="-5.287460">
        <ele>866.9</ele>
        <time>2021-08-19T08:30:49Z</time>
      </trkpt>
      <trkpt lat="42.456045" lon="-5.287684">
        <ele>866.9</ele>
        <time>2021-08-19T08:31:04Z</time>
      </trkpt>
      <trkpt lat="42.456134" lon="-5.287909">
        <ele>865.9</ele>
        <time>2021-08-19T08:31:18Z</time>
      </trkpt>
      <trkpt lat="42.456227" lon="-5.288129">
        <ele>866.8</ele>
        <time>2021-08-19T08:31:32Z</time>
      </trkpt>
      <trkpt lat="42.456327" lon="-5.288348">
        <ele>867.9</ele>
        <time>2021-08-19T08:31:47Z</time>
      </trkpt>
      <trkpt lat="42.456426" lon="-5.288563">
        <ele>866.8</ele>
        <time>2021-08-19T08:32:01Z</time>
      </trkpt>
      <trkpt lat="42.456511" lon="-5.288794">
        <ele>868.7</ele>
        <time>2021-08-19T08:32:16Z</time>
      </trkpt>
      <trkpt lat="42.456602" lon="-5.289010">
        <ele>868.5</ele>
        <time>2021-08-19T08:32:31Z</time>
      </trkpt>
      <trkpt lat="42.456695" lon="-5.289220">
        <ele>867.9</ele>
        <time>2021-08-19T08:32:45Z</time>
      </trkpt>
      <trkpt lat="42.456791" lon="-5.289446">
        <ele>866.7</ele>
        <time>2021-08-19T08:33:01Z</time>
      </trkpt>
      <trkpt lat="42.456885" lon="-5.289675">
        <ele>868.3</ele>
        <time>2021-08-19T08:33:15Z</time>
      </trkpt>
      <trkpt lat="42.456966" lon="-5.289899">
        <ele>868.8</ele>
        <time>2021-08-19T08:33:30Z</time>
      </trkpt>
      <trkpt lat="42.457055" lon="-5.290117">
        <ele>870.8</ele>
        <time>2021-08-19T08:33:44Z</time>
      </trkpt>
      <trkpt lat="42.457165" lon="-5.290339">
        <ele>869.7</ele>
        <time>2021-08-19T08:33:59Z</time>
      </trkpt>
      <trkpt lat="42.457255" lon="-5.290561">
        <ele>869.7</ele>
        <time>2021-08-19T08:34:15Z</time>
      </trkpt>
      <trkpt lat="42.457352" lon="-5.290782">
        <ele>869.0</ele>
        <time>2021-08-19T08:34:31Z</time>
      </trkpt>
      <trkpt lat="42.457438" lon="-5.290996">
        <ele>871.8</ele>
        <time>2021-08-19T08:34:45Z</time>
      </trkpt>
      <trkpt lat="42.457527" lon="-5.291215">
        <ele>871.9</ele>
        <time>2021-08-19T08:34:59Z</time>
      </trkpt>
      <trkpt lat="42.457623" lon="-5.291441">
        <ele>871.7</ele>
        <time>2021-08-19T08:35:14Z</time>
      </trkpt>
      <trkpt lat="42.457714" lon="-5.291655">
        <ele>870.6</ele>
        <time>2021-08-19T08:35:29Z</time>
      </trkpt>
      <trkpt lat="42.457810" lon="-5.291868">
        <ele>871.8</ele>
        <time>2021-08-19T08:35:44Z</time>
      </trkpt>
      <trkpt lat="42.457903" lon="-5.292103">
        <ele>871.6</ele>
        <time>2021-08-19T08:35:59Z</time>
      </trkpt>
      <trkpt lat="42.457990" lon="-5.292341">
        <ele>869.7</ele>
        <time>2021-08-19T08:36:14Z</time>
      </trkpt>
      <trkpt lat="42.458086" lon="-5.292555">
        <ele>868.6</ele>
        <time>2021-08-19T08:36:30Z</time>
      </trkpt>
      <trkpt lat="42.458176" lon="-5.292778">
        <ele>870.0</ele>
        <time>2021-08-19T08:36:44Z</time>
      </trkpt>
      <trkpt lat="42.458264" lon="-5.292995">
        <ele>871.2</ele>
        <time>2021-08-19T08:36:59Z</time>
      </trkpt>
      <trkpt lat="42.458351" lon="-5.293216">
        <ele>871.7</ele>
        <time>2021-08-19T08:37:14Z</time>
      </trkpt>
      <trkpt lat="42.458445" lon="-5.293440">
        <ele>869.9</ele>
        <time>2021-08-19T08:37:29Z</time>
      </trkpt>
      <trkpt lat="42.458533" lon="-5.293659">
        <ele>869.6</ele>
        <time>2021-08-19T08:37:45Z</time>
      </trkpt>
      <trkpt lat="42.458594" lon="-5.293890">
        <ele>869.9</ele>
        <time>2021-08-19T08:38:01Z</time>
      </trkpt>
      <trkpt lat="42.458658" lon="-5.294130">
        <ele>868.9</ele>
        <time>2021-08-19T08:38:17Z</time>
      </trkpt>
      <trkpt lat="42.458732" lon="-5.294362">
        <ele>866.2</ele>
        <time>2021-08-19T08:38:32Z</time>
      </trkpt>
      <trkpt lat="42.458784" lon="-5.294613">
        <ele>866.0</ele>
        <time>2021-08-19T08:38:48Z</time>
      </trkpt>
      <trkpt lat="42.458856" lon="-5.294851">
        <ele>864.0</ele>
        <time>2021-08-19T08:39:05Z</time>
      </trkpt>
      <trkpt lat="42.458917" lon="-5.295082">
        <ele>862.8</ele>
        <time>2021-08-19T08:39:21Z</time>
      </trkpt>
      <trkpt lat="42.458992" lon="-5.295316">
        <ele>859.4</ele>
        <time>2021-08-19T08:51:39Z</time>
      </trkpt>
      <trkpt lat="42.459061" lon="-5.295554">
        <ele>860.5</ele>
        <time>2021-08-19T08:51:57Z</time>
      </trkpt>
      <trkpt lat="42.459138" lon="-5.295775">
        <ele>858.9</ele>
        <time>2021-08-19T08:52:16Z</time>
      </trkpt>
      <trkpt lat="42.459212" lon="-5.296015">
        <ele>858.7</ele>
        <time>2021-08-19T08:52:32Z</time>
      </trkpt>
      <trkpt lat="42.459277" lon="-5.296248">
        <ele>861.0</ele>
        <time>2021-08-19T08:52:48Z</time>
      </trkpt>
      <trkpt lat="42.459340" lon="-5.296494">
        <ele>861.9</ele>
        <time>2021-08-19T08:53:02Z</time>
      </trkpt>
      <trkpt lat="42.459398" lon="-5.296730">
        <ele>861.5</ele>
        <time>2021-08-19T08:53:17Z</time>
      </trkpt>
      <trkpt lat="42.459475" lon="-5.296962">
        <ele>860.9</ele>
        <time>2021-08-19T08:53:32Z</time>
      </trkpt>
      <trkpt lat="42.459540" lon="-5.297203">
        <ele>860.3</ele>
        <time>2021-08-19T08:53:49Z</time>
      </trkpt>
      <trkpt lat="42.459613" lon="-5.297429">
        <ele>861.6</ele>
        <time>2021-08-19T08:54:04Z</time>
      </trkpt>
      <trkpt lat="42.459680" lon="-5.297662">
        <ele>862.0</ele>
        <time>2021-08-19T08:54:20Z</time>
      </trkpt>
      <trkpt lat="42.459754" lon="-5.297886">
        <ele>862.6</ele>
        <time>2021-08-19T08:54:34Z</time>
      </trkpt>
      <trkpt lat="42.459816" lon="-5.298131">
        <ele>865.9</ele>
        <time>2021-08-19T08:54:50Z</time>
      </trkpt>
      <trkpt lat="42.459873" lon="-5.298366">
        <ele>865.1</ele>
        <time>2021-08-19T08:55:04Z</time>
      </trkpt>
      <trkpt lat="42.459938" lon="-5.298598">
        <ele>866.2</ele>
        <time>2021-08-19T08:55:19Z</time>
      </trkpt>
      <trkpt lat="42.460005" lon="-5.298837">
        <ele>865.2</ele>
        <time>2021-08-19T08:55:33Z</time>
      </trkpt>
      <trkpt lat="42.460083" lon="-5.299068">
        <ele>864.9</ele>
        <time>2021-08-19T08:55:48Z</time>
      </trkpt>
      <trkpt lat="42.460140" lon="-5.299309">
        <ele>863.9</ele>
        <time>2021-08-19T08:56:06Z</time>
      </trkpt>
      <trkpt lat="42.460205" lon="-5.299540">
        <ele>866.2</ele>
        <time>2021-08-19T08:56:21Z</time>
      </trkpt>
      <trkpt lat="42.460262" lon="-5.299773">
        <ele>864.4</ele>
        <time>2021-08-19T08:57:01Z</time>
      </trkpt>
      <trkpt lat="42.460345" lon="-5.300002">
        <ele>865.4</ele>
        <time>2021-08-19T08:57:20Z</time>
      </trkpt>
      <trkpt lat="42.460429" lon="-5.300226">
        <ele>864.2</ele>
        <time>2021-08-19T08:58:11Z</time>
      </trkpt>
      <trkpt lat="42.460503" lon="-5.300463">
        <ele>862.7</ele>
        <time>2021-08-19T08:58:30Z</time>
      </trkpt>
      <trkpt lat="42.460577" lon="-5.300697">
        <ele>863.8</ele>
        <time>2021-08-19T08:58:46Z</time>
      </trkpt>
      <trkpt lat="42.460655" lon="-5.300927">
        <ele>863.3</ele>
        <time>2021-08-19T08:59:02Z</time>
      </trkpt>
      <trkpt lat="42.460731" lon="-5.301150">
        <ele>863.7</ele>
        <time>2021-08-19T08:59:18Z</time>
      </trkpt>
      <trkpt lat="42.460813" lon="-5.301373">
        <ele>864.7</ele>
        <time>2021-08-19T08:59:33Z</time>
      </trkpt>
      <trkpt lat="42.460882" lon="-5.301599">
        <ele>854.7</ele>
        <time>2021-08-19T08:59:47Z</time>
      </trkpt>
      <trkpt lat="42.460967" lon="-5.301822">
        <ele>854.7</ele>
        <time>2021-08-19T09:00:06Z</time>
      </trkpt>
      <trkpt lat="42.461018" lon="-5.302057">
        <ele>855.0</ele>
        <time>2021-08-19T09:01:06Z</time>
      </trkpt>
      <trkpt lat="42.461107" lon="-5.302273">
        <ele>854.8</ele>
        <time>2021-08-19T09:01:43Z</time>
      </trkpt>
      <trkpt lat="42.461186" lon="-5.302516">
        <ele>855.0</ele>
        <time>2021-08-19T09:02:02Z</time>
      </trkpt>
      <trkpt lat="42.461262" lon="-5.302747">
        <ele>855.0</ele>
        <time>2021-08-19T09:02:24Z</time>
      </trkpt>
      <trkpt lat="42.461339" lon="-5.302967">
        <ele>862.7</ele>
        <time>2021-08-19T09:02:45Z</time>
      </trkpt>
      <trkpt lat="42.461416" lon="-5.303189">
        <ele>862.9</ele>
        <time>2021-08-19T09:03:00Z</time>
      </trkpt>
      <trkpt lat="42.461482" lon="-5.303446">
        <ele>865.6</ele>
        <time>2021-08-19T09:03:24Z</time>
      </trkpt>
      <trkpt lat="42.461553" lon="-5.303670">
        <ele>865.9</ele>
        <time>2021-08-19T09:03:42Z</time>
      </trkpt>
      <trkpt lat="42.461621" lon="-5.303909">
        <ele>865.0</ele>
        <time>2021-08-19T09:04:01Z</time>
      </trkpt>
      <trkpt lat="42.461700" lon="-5.304155">
        <ele>865.6</ele>
        <time>2021-08-19T09:04:19Z</time>
      </trkpt>
      <trkpt lat="42.461774" lon="-5.304390">
        <ele>865.1</ele>
        <time>2021-08-19T09:04:36Z</time>
      </trkpt>
      <trkpt lat="42.461849" lon="-5.304623">
        <ele>862.9</ele>
        <time>2021-08-19T09:04:53Z</time>
      </trkpt>
      <trkpt lat="42.461926" lon="-5.304862">
        <ele>863.2</ele>
        <time>2021-08-19T09:05:09Z</time>
      </trkpt>
      <trkpt lat="42.461990" lon="-5.305101">
        <ele>862.6</ele>
        <time>2021-08-19T09:05:24Z</time>
      </trkpt>
      <trkpt lat="42.462075" lon="-5.305332">
        <ele>864.0</ele>
        <time>2021-08-19T09:05:40Z</time>
      </trkpt>
      <trkpt lat="42.462148" lon="-5.305560">
        <ele>864.9</ele>
        <time>2021-08-19T09:05:57Z</time>
      </trkpt>
      <trkpt lat="42.462209" lon="-5.305807">
        <ele>863.0</ele>
        <time>2021-08-19T09:06:13Z</time>
      </trkpt>
      <trkpt lat="42.462280" lon="-5.306038">
        <ele>863.9</ele>
        <time>2021-08-19T09:06:28Z</time>
      </trkpt>
      <trkpt lat="42.462342" lon="-5.306272">
        <ele>863.6</ele>
        <time>2021-08-19T09:06:43Z</time>
      </trkpt>
      <trkpt lat="42.462419" lon="-5.306505">
        <ele>866.2</ele>
        <time>2021-08-19T09:06:58Z</time>
      </trkpt>
      <trkpt lat="42.462486" lon="-5.306735">
        <ele>865.6</ele>
        <time>2021-08-19T09:07:14Z</time>
      </trkpt>
      <trkpt lat="42.462570" lon="-5.306959">
        <ele>855.7</ele>
        <time>2021-08-19T09:07:31Z</time>
      </trkpt>
      <trkpt lat="42.462644" lon="-5.307196">
        <ele>854.9</ele>
        <time>2021-08-19T09:07:47Z</time>
      </trkpt>
      <trkpt lat="42.462716" lon="-5.307434">
        <ele>855.0</ele>
        <time>2021-08-19T09:08:03Z</time>
      </trkpt>
      <trkpt lat="42.462795" lon="-5.307665">
        <ele>855.2</ele>
        <time>2021-08-19T09:08:18Z</time>
      </trkpt>
      <trkpt lat="42.462866" lon="-5.307898">
        <ele>855.2</ele>
        <time>2021-08-19T09:08:34Z</time>
      </trkpt>
      <trkpt lat="42.462939" lon="-5.308148">
        <ele>856.4</ele>
        <time>2021-08-19T09:08:50Z</time>
      </trkpt>
      <trkpt lat="42.463016" lon="-5.308377">
        <ele>856.8</ele>
        <time>2021-08-19T09:09:05Z</time>
      </trkpt>
      <trkpt lat="42.463092" lon="-5.308605">
        <ele>857.1</ele>
        <time>2021-08-19T09:09:21Z</time>
      </trkpt>
      <trkpt lat="42.463161" lon="-5.308834">
        <ele>857.3</ele>
        <time>2021-08-19T09:09:37Z</time>
      </trkpt>
      <trkpt lat="42.463228" lon="-5.309069">
        <ele>857.9</ele>
        <time>2021-08-19T09:09:52Z</time>
      </trkpt>
      <trkpt lat="42.463302" lon="-5.309302">
        <ele>857.7</ele>
        <time>2021-08-19T09:10:07Z</time>
      </trkpt>
      <trkpt lat="42.463367" lon="-5.309530">
        <ele>858.4</ele>
        <time>2021-08-19T09:10:22Z</time>
      </trkpt>
      <trkpt lat="42.463447" lon="-5.309757">
        <ele>861.8</ele>
        <time>2021-08-19T09:10:37Z</time>
      </trkpt>
      <trkpt lat="42.463504" lon="-5.310001">
        <ele>861.9</ele>
        <time>2021-08-19T09:10:52Z</time>
      </trkpt>
      <trkpt lat="42.463584" lon="-5.310233">
        <ele>861.7</ele>
        <time>2021-08-19T09:11:08Z</time>
      </trkpt>
      <trkpt lat="42.463660" lon="-5.310466">
        <ele>859.8</ele>
        <time>2021-08-19T09:11:24Z</time>
      </trkpt>
      <trkpt lat="42.463728" lon="-5.310703">
        <ele>859.5</ele>
        <time>2021-08-19T09:11:39Z</time>
      </trkpt>
      <trkpt lat="42.463820" lon="-5.310948">
        <ele>857.4</ele>
        <time>2021-08-19T09:12:00Z</time>
      </trkpt>
      <trkpt lat="42.463892" lon="-5.311184">
        <ele>857.1</ele>
        <time>2021-08-19T09:12:17Z</time>
      </trkpt>
      <trkpt lat="42.463941" lon="-5.311439">
        <ele>855.0</ele>
        <time>2021-08-19T09:12:34Z</time>
      </trkpt>
      <trkpt lat="42.463963" lon="-5.311687">
        <ele>857.2</ele>
        <time>2021-08-19T09:14:25Z</time>
      </trkpt>
      <trkpt lat="42.464012" lon="-5.311925">
        <ele>857.6</ele>
        <time>2021-08-19T09:14:40Z</time>
      </trkpt>
      <trkpt lat="42.464049" lon="-5.312172">
        <ele>855.0</ele>
        <time>2021-08-19T09:16:08Z</time>
      </trkpt>
      <trkpt lat="42.464101" lon="-5.312411">
        <ele>856.0</ele>
        <time>2021-08-19T09:16:39Z</time>
      </trkpt>
      <trkpt lat="42.464151" lon="-5.312653">
        <ele>855.5</ele>
        <time>2021-08-19T09:17:00Z</time>
      </trkpt>
      <trkpt lat="42.464196" lon="-5.312891">
        <ele>854.9</ele>
        <time>2021-08-19T09:17:20Z</time>
      </trkpt>
      <trkpt lat="42.464254" lon="-5.313126">
        <ele>853.5</ele>
        <time>2021-08-19T09:17:42Z</time>
      </trkpt>
      <trkpt lat="42.464287" lon="-5.313367">
        <ele>854.4</ele>
        <time>2021-08-19T09:18:15Z</time>
      </trkpt>
      <trkpt lat="42.464348" lon="-5.313602">
        <ele>854.8</ele>
        <time>2021-08-19T09:18:36Z</time>
      </trkpt>
      <trkpt lat="42.464405" lon="-5.313837">
        <ele>855.2</ele>
        <time>2021-08-19T09:19:02Z</time>
      </trkpt>
      <trkpt lat="42.464442" lon="-5.314077">
        <ele>857.5</ele>
        <time>2021-08-19T09:19:28Z</time>
      </trkpt>
      <trkpt lat="42.464487" lon="-5.314321">
        <ele>857.6</ele>
        <time>2021-08-19T09:19:56Z</time>
      </trkpt>
      <trkpt lat="42.464542" lon="-5.314578">
        <ele>851.7</ele>
        <time>2021-08-19T09:20:20Z</time>
      </trkpt>
      <trkpt lat="42.464596" lon="-5.314814">
        <ele>853.4</ele>
        <time>2021-08-19T09:20:37Z</time>
      </trkpt>
      <trkpt lat="42.464630" lon="-5.315065">
        <ele>853.7</ele>
        <time>2021-08-19T09:20:53Z</time>
      </trkpt>
      <trkpt lat="42.464670" lon="-5.315306">
        <ele>854.1</ele>
        <time>2021-08-19T09:21:10Z</time>
      </trkpt>
      <trkpt lat="42.464730" lon="-5.315544">
        <ele>854.0</ele>
        <time>2021-08-19T09:21:32Z</time>
      </trkpt>
      <trkpt lat="42.464771" lon="-5.315783">
        <ele>854.0</ele>
        <time>2021-08-19T09:21:48Z</time>
      </trkpt>
      <trkpt lat="42.464811" lon="-5.316025">
        <ele>853.7</ele>
        <time>2021-08-19T09:22:05Z</time>
      </trkpt>
      <trkpt lat="42.464869" lon="-5.316269">
        <ele>852.9</ele>
        <time>2021-08-19T09:22:31Z</time>
      </trkpt>
      <trkpt lat="42.464912" lon="-5.316517">
        <ele>852.9</ele>
        <time>2021-08-19T09:22:46Z</time>
      </trkpt>
      <trkpt lat="42.464957" lon="-5.316760">
        <ele>853.0</ele>
        <time>2021-08-19T09:23:05Z</time>
      </trkpt>
      <trkpt lat="42.465008" lon="-5.317004">
        <ele>853.8</ele>
        <time>2021-08-19T09:23:24Z</time>
      </trkpt>
      <trkpt lat="42.465049" lon="-5.317243">
        <ele>853.8</ele>
        <time>2021-08-19T09:23:42Z</time>
      </trkpt>
      <trkpt lat="42.465095" lon="-5.317480">
        <ele>854.5</ele>
        <time>2021-08-19T09:24:00Z</time>
      </trkpt>
      <trkpt lat="42.465154" lon="-5.317718">
        <ele>854.1</ele>
        <time>2021-08-19T09:24:21Z</time>
      </trkpt>
      <trkpt lat="42.465200" lon="-5.317966">
        <ele>854.0</ele>
        <time>2021-08-19T09:24:42Z</time>
      </trkpt>
      <trkpt lat="42.465233" lon="-5.318218">
        <ele>851.7</ele>
        <time>2021-08-19T09:25:02Z</time>
      </trkpt>
      <trkpt lat="42.465270" lon="-5.318466">
        <ele>853.5</ele>
        <time>2021-08-19T09:25:16Z</time>
      </trkpt>
      <trkpt lat="42.465276" lon="-5.318712">
        <ele>854.7</ele>
        <time>2021-08-19T09:25:32Z</time>
      </trkpt>
      <trkpt lat="42.465278" lon="-5.318959">
        <ele>855.5</ele>
        <time>2021-08-19T09:25:48Z</time>
      </trkpt>
      <trkpt lat="42.465260" lon="-5.319203">
        <ele>855.4</ele>
        <time>2021-08-19T09:26:07Z</time>
      </trkpt>
      <trkpt lat="42.465215" lon="-5.319449">
        <ele>854.0</ele>
        <time>2021-08-19T09:26:33Z</time>
      </trkpt>
      <trkpt lat="42.465179" lon="-5.319692">
        <ele>855.8</ele>
        <time>2021-08-19T09:26:48Z</time>
      </trkpt>
      <trkpt lat="42.465158" lon="-5.319947">
        <ele>856.7</ele>
        <time>2021-08-19T09:27:08Z</time>
      </trkpt>
      <trkpt lat="42.465137" lon="-5.320190">
        <ele>855.6</ele>
        <time>2021-08-19T09:27:26Z</time>
      </trkpt>
      <trkpt lat="42.465120" lon="-5.320439">
        <ele>857.7</ele>
        <time>2021-08-19T09:27:42Z</time>
      </trkpt>
      <trkpt lat="42.465095" lon="-5.320686">
        <ele>857.7</ele>
        <time>2021-08-19T09:27:56Z</time>
      </trkpt>
      <trkpt lat="42.465074" lon="-5.320938">
        <ele>857.9</ele>
        <time>2021-08-19T09:28:15Z</time>
      </trkpt>
      <trkpt lat="42.465038" lon="-5.321187">
        <ele>855.9</ele>
        <time>2021-08-19T09:28:30Z</time>
      </trkpt>
      <trkpt lat="42.465019" lon="-5.321459">
        <ele>854.8</ele>
        <time>2021-08-19T09:28:45Z</time>
      </trkpt>
      <trkpt lat="42.464997" lon="-5.321707">
        <ele>854.3</ele>
        <time>2021-08-19T09:29:02Z</time>
      </trkpt>
      <trkpt lat="42.464974" lon="-5.321957">
        <ele>855.5</ele>
        <time>2021-08-19T09:29:18Z</time>
      </trkpt>
      <trkpt lat="42.464954" lon="-5.322203">
        <ele>855.6</ele>
        <time>2021-08-19T09:29:35Z</time>
      </trkpt>
      <trkpt lat="42.464933" lon="-5.322458">
        <ele>854.8</ele>
        <time>2021-08-19T09:29:51Z</time>
      </trkpt>
      <trkpt lat="42.464905" lon="-5.322699">
        <ele>853.9</ele>
        <time>2021-08-19T09:30:06Z</time>
      </trkpt>
      <trkpt lat="42.464891" lon="-5.322943">
        <ele>854.7</ele>
        <time>2021-08-19T09:30:22Z</time>
      </trkpt>
      <trkpt lat="42.464864" lon="-5.323190">
        <ele>855.7</ele>
        <time>2021-08-19T09:30:36Z</time>
      </trkpt>
      <trkpt lat="42.464835" lon="-5.323439">
        <ele>854.7</ele>
        <time>2021-08-19T09:30:51Z</time>
      </trkpt>
      <trkpt lat="42.464812" lon="-5.323689">
        <ele>856.0</ele>
        <time>2021-08-19T09:31:06Z</time>
      </trkpt>
      <trkpt lat="42.464775" lon="-5.323928">
        <ele>856.6</ele>
        <time>2021-08-19T09:31:20Z</time>
      </trkpt>
      <trkpt lat="42.464759" lon="-5.324183">
        <ele>854.7</ele>
        <time>2021-08-19T09:31:35Z</time>
      </trkpt>
      <trkpt lat="42.464727" lon="-5.324433">
        <ele>853.6</ele>
        <time>2021-08-19T09:31:50Z</time>
      </trkpt>
      <trkpt lat="42.464724" lon="-5.324690">
        <ele>855.4</ele>
        <time>2021-08-19T09:32:06Z</time>
      </trkpt>
      <trkpt lat="42.464701" lon="-5.324951">
        <ele>853.7</ele>
        <time>2021-08-19T09:32:22Z</time>
      </trkpt>
      <trkpt lat="42.464677" lon="-5.325201">
        <ele>854.7</ele>
        <time>2021-08-19T09:32:37Z</time>
      </trkpt>
      <trkpt lat="42.464643" lon="-5.325448">
        <ele>855.8</ele>
        <time>2021-08-19T09:32:51Z</time>
      </trkpt>
      <trkpt lat="42.464616" lon="-5.325691">
        <ele>856.7</ele>
        <time>2021-08-19T09:33:05Z</time>
      </trkpt>
      <trkpt lat="42.464594" lon="-5.325935">
        <ele>857.2</ele>
        <time>2021-08-19T09:33:20Z</time>
      </trkpt>
      <trkpt lat="42.464565" lon="-5.326181">
        <ele>857.6</ele>
        <time>2021-08-19T09:33:36Z</time>
      </trkpt>
      <trkpt lat="42.464545" lon="-5.326433">
        <ele>857.3</ele>
        <time>2021-08-19T09:33:52Z</time>
      </trkpt>
      <trkpt lat="42.464526" lon="-5.326678">
        <ele>857.3</ele>
        <time>2021-08-19T09:34:08Z</time>
      </trkpt>
      <trkpt lat="42.464503" lon="-5.326937">
        <ele>857.4</ele>
        <time>2021-08-19T09:34:24Z</time>
      </trkpt>
      <trkpt lat="42.464488" lon="-5.327200">
        <ele>854.1</ele>
        <time>2021-08-19T09:34:42Z</time>
      </trkpt>
      <trkpt lat="42.464468" lon="-5.327449">
        <ele>852.7</ele>
        <time>2021-08-19T09:34:56Z</time>
      </trkpt>
      <trkpt lat="42.464446" lon="-5.327696">
        <ele>852.9</ele>
        <time>2021-08-19T09:35:11Z</time>
      </trkpt>
      <trkpt lat="42.464439" lon="-5.327954">
        <ele>852.7</ele>
        <time>2021-08-19T09:35:27Z</time>
      </trkpt>
      <trkpt lat="42.464475" lon="-5.328204">
        <ele>855.7</ele>
        <time>2021-08-19T09:35:42Z</time>
      </trkpt>
      <trkpt lat="42.464569" lon="-5.328413">
        <ele>851.6</ele>
        <time>2021-08-19T09:35:55Z</time>
      </trkpt>
      <trkpt lat="42.464691" lon="-5.328606">
        <ele>849.8</ele>
        <time>2021-08-19T09:36:10Z</time>
      </trkpt>
      <trkpt lat="42.464839" lon="-5.328756">
        <ele>849.9</ele>
        <time>2021-08-19T09:36:26Z</time>
      </trkpt>
      <trkpt lat="42.464982" lon="-5.328912">
        <ele>847.6</ele>
        <time>2021-08-19T09:36:45Z</time>
      </trkpt>
      <trkpt lat="42.465164" lon="-5.328966">
        <ele>846.9</ele>
        <time>2021-08-19T09:37:02Z</time>
      </trkpt>
      <trkpt lat="42.465335" lon="-5.329045">
        <ele>848.6</ele>
        <time>2021-08-19T09:37:19Z</time>
      </trkpt>
      <trkpt lat="42.465509" lon="-5.329127">
        <ele>844.5</ele>
        <time>2021-08-19T09:39:41Z</time>
      </trkpt>
      <trkpt lat="42.465693" lon="-5.329157">
        <ele>843.3</ele>
        <time>2021-08-19T09:40:00Z</time>
      </trkpt>
      <trkpt lat="42.465867" lon="-5.329236">
        <ele>844.8</ele>
        <time>2021-08-19T09:40:19Z</time>
      </trkpt>
      <trkpt lat="42.466042" lon="-5.329300">
        <ele>844.5</ele>
        <time>2021-08-19T09:40:39Z</time>
      </trkpt>
      <trkpt lat="42.466222" lon="-5.329376">
        <ele>843.9</ele>
        <time>2021-08-19T09:40:58Z</time>
      </trkpt>
      <trkpt lat="42.466398" lon="-5.329430">
        <ele>843.6</ele>
        <time>2021-08-19T09:41:13Z</time>
      </trkpt>
      <trkpt lat="42.466572" lon="-5.329498">
        <ele>843.1</ele>
        <time>2021-08-19T09:41:29Z</time>
      </trkpt>
      <trkpt lat="42.466751" lon="-5.329557">
        <ele>842.8</ele>
        <time>2021-08-19T09:41:45Z</time>
      </trkpt>
      <trkpt lat="42.466929" lon="-5.329614">
        <ele>844.3</ele>
        <time>2021-08-19T09:42:01Z</time>
      </trkpt>
      <trkpt lat="42.467115" lon="-5.329676">
        <ele>843.9</ele>
        <time>2021-08-19T09:42:14Z</time>
      </trkpt>
      <trkpt lat="42.467294" lon="-5.329757">
        <ele>846.0</ele>
        <time>2021-08-19T09:42:32Z</time>
      </trkpt>
      <trkpt lat="42.467458" lon="-5.329886">
        <ele>847.0</ele>
        <time>2021-08-19T09:42:48Z</time>
      </trkpt>
      <trkpt lat="42.467614" lon="-5.330014">
        <ele>843.7</ele>
        <time>2021-08-19T09:43:03Z</time>
      </trkpt>
      <trkpt lat="42.467752" lon="-5.330173">
        <ele>842.8</ele>
        <time>2021-08-19T09:43:18Z</time>
      </trkpt>
      <trkpt lat="42.467876" lon="-5.330351">
        <ele>840.7</ele>
        <time>2021-08-19T09:43:33Z</time>
      </trkpt>
      <trkpt lat="42.467985" lon="-5.330546">
        <ele>839.7</ele>
        <time>2021-08-19T09:43:48Z</time>
      </trkpt>
      <trkpt lat="42.468064" lon="-5.330777">
        <ele>840.8</ele>
        <time>2021-08-19T09:44:04Z</time>
      </trkpt>
      <trkpt lat="42.468125" lon="-5.331012">
        <ele>838.8</ele>
        <time>2021-08-19T09:44:20Z</time>
      </trkpt>
      <trkpt lat="42.468185" lon="-5.331254">
        <ele>840.0</ele>
        <time>2021-08-19T09:44:42Z</time>
      </trkpt>
      <trkpt lat="42.468229" lon="-5.331497">
        <ele>835.7</ele>
        <time>2021-08-19T10:05:02Z</time>
      </trkpt>
      <trkpt lat="42.468294" lon="-5.331724">
        <ele>835.5</ele>
        <time>2021-08-19T10:05:30Z</time>
      </trkpt>
      <trkpt lat="42.468330" lon="-5.331973">
        <ele>838.7</ele>
        <time>2021-08-19T10:05:52Z</time>
      </trkpt>
      <trkpt lat="42.468332" lon="-5.332222">
        <ele>836.3</ele>
        <time>2021-08-19T10:06:15Z</time>
      </trkpt>
      <trkpt lat="42.468335" lon="-5.332469">
        <ele>834.2</ele>
        <time>2021-08-19T10:06:35Z</time>
      </trkpt>
      <trkpt lat="42.468326" lon="-5.332721">
        <ele>834.2</ele>
        <time>2021-08-19T10:06:57Z</time>
      </trkpt>
      <trkpt lat="42.468323" lon="-5.332983">
        <ele>834.6</ele>
        <time>2021-08-19T10:07:23Z</time>
      </trkpt>
      <trkpt lat="42.468342" lon="-5.333233">
        <ele>832.4</ele>
        <time>2021-08-19T10:07:45Z</time>
      </trkpt>
      <trkpt lat="42.468339" lon="-5.333484">
        <ele>836.2</ele>
        <time>2021-08-19T10:08:03Z</time>
      </trkpt>
      <trkpt lat="42.468344" lon="-5.333741">
        <ele>834.7</ele>
        <time>2021-08-19T10:08:23Z</time>
      </trkpt>
      <trkpt lat="42.468335" lon="-5.334000">
        <ele>833.8</ele>
        <time>2021-08-19T10:08:43Z</time>
      </trkpt>
      <trkpt lat="42.468336" lon="-5.334253">
        <ele>834.4</ele>
        <time>2021-08-19T10:09:03Z</time>
      </trkpt>
      <trkpt lat="42.468334" lon="-5.334499">
        <ele>834.6</ele>
        <time>2021-08-19T10:09:21Z</time>
      </trkpt>
      <trkpt lat="42.468323" lon="-5.334744">
        <ele>834.9</ele>
        <time>2021-08-19T10:09:43Z</time>
      </trkpt>
      <trkpt lat="42.468326" lon="-5.334995">
        <ele>833.2</ele>
        <time>2021-08-19T10:10:01Z</time>
      </trkpt>
      <trkpt lat="42.468329" lon="-5.335260">
        <ele>835.5</ele>
        <time>2021-08-19T10:10:19Z</time>
      </trkpt>
      <trkpt lat="42.468327" lon="-5.335513">
        <ele>836.0</ele>
        <time>2021-08-19T10:10:36Z</time>
      </trkpt>
      <trkpt lat="42.468334" lon="-5.335765">
        <ele>832.8</ele>
        <time>2021-08-19T10:10:54Z</time>
      </trkpt>
      <trkpt lat="42.468323" lon="-5.336013">
        <ele>833.9</ele>
        <time>2021-08-19T10:11:13Z</time>
      </trkpt>
      <trkpt lat="42.468324" lon="-5.336264">
        <ele>831.8</ele>
        <time>2021-08-19T10:11:31Z</time>
      </trkpt>
      <trkpt lat="42.468326" lon="-5.336518">
        <ele>832.7</ele>
        <time>2021-08-19T10:11:49Z</time>
      </trkpt>
      <trkpt lat="42.468342" lon="-5.336766">
        <ele>834.3</ele>
        <time>2021-08-19T10:12:07Z</time>
      </trkpt>
      <trkpt lat="42.468341" lon="-5.337014">
        <ele>835.8</ele>
        <time>2021-08-19T10:12:24Z</time>
      </trkpt>
      <trkpt lat="42.468384" lon="-5.337253">
        <ele>837.8</ele>
        <time>2021-08-19T10:12:41Z</time>
      </trkpt>
      <trkpt lat="42.468436" lon="-5.337505">
        <ele>838.8</ele>
        <time>2021-08-19T10:12:59Z</time>
      </trkpt>
      <trkpt lat="42.468512" lon="-5.337731">
        <ele>839.6</ele>
        <time>2021-08-19T10:13:26Z</time>
      </trkpt>
      <trkpt lat="42.468617" lon="-5.337938">
        <ele>835.1</ele>
        <time>2021-08-19T10:13:46Z</time>
      </trkpt>
      <trkpt lat="42.468723" lon="-5.338142">
        <ele>838.8</ele>
        <time>2021-08-19T10:14:03Z</time>
      </trkpt>
      <trkpt lat="42.468876" lon="-5.338290">
        <ele>840.5</ele>
        <time>2021-08-19T10:14:22Z</time>
      </trkpt>
      <trkpt lat="42.469020" lon="-5.338453">
        <ele>842.2</ele>
        <time>2021-08-19T10:14:41Z</time>
      </trkpt>
      <trkpt lat="42.469194" lon="-5.338571">
        <ele>841.9</ele>
        <time>2021-08-19T10:14:59Z</time>
      </trkpt>
      <trkpt lat="42.469333" lon="-5.338728">
        <ele>838.6</ele>
        <time>2021-08-19T10:15:20Z</time>
      </trkpt>
      <trkpt lat="42.469477" lon="-5.338906">
        <ele>838.6</ele>
        <time>2021-08-19T10:15:40Z</time>
      </trkpt>
      <trkpt lat="42.469620" lon="-5.339064">
        <ele>840.7</ele>
        <time>2021-08-19T10:16:07Z</time>
      </trkpt>
      <trkpt lat="42.469757" lon="-5.339232">
        <ele>841.7</ele>
        <time>2021-08-19T10:16:25Z</time>
      </trkpt>
      <trkpt lat="42.469908" lon="-5.339391">
        <ele>842.8</ele>
        <time>2021-08-19T10:16:45Z</time>
      </trkpt>
      <trkpt lat="42.470057" lon="-5.339548">
        <ele>843.4</ele>
        <time>2021-08-19T10:17:05Z</time>
      </trkpt>
      <trkpt lat="42.470184" lon="-5.339729">
        <ele>842.8</ele>
        <time>2021-08-19T10:17:27Z</time>
      </trkpt>
      <trkpt lat="42.470294" lon="-5.339932">
        <ele>843.8</ele>
        <time>2021-08-19T10:17:45Z</time>
      </trkpt>
      <trkpt lat="42.470364" lon="-5.340160">
        <ele>838.5</ele>
        <time>2021-08-19T10:18:56Z</time>
      </trkpt>
      <trkpt lat="42.470406" lon="-5.340400">
        <ele>838.8</ele>
        <time>2021-08-19T10:19:10Z</time>
      </trkpt>
      <trkpt lat="42.470465" lon="-5.340660">
        <ele>839.1</ele>
        <time>2021-08-19T10:19:25Z</time>
      </trkpt>
      <trkpt lat="42.470493" lon="-5.340937">
        <ele>838.9</ele>
        <time>2021-08-19T10:19:40Z</time>
      </trkpt>
      <trkpt lat="42.470490" lon="-5.341188">
        <ele>840.6</ele>
        <time>2021-08-19T10:19:54Z</time>
      </trkpt>
      <trkpt lat="42.470522" lon="-5.341438">
        <ele>841.7</ele>
        <time>2021-08-19T10:20:08Z</time>
      </trkpt>
      <trkpt lat="42.470561" lon="-5.341696">
        <ele>841.6</ele>
        <time>2021-08-19T10:20:23Z</time>
      </trkpt>
      <trkpt lat="42.470583" lon="-5.341947">
        <ele>842.5</ele>
        <time>2021-08-19T10:20:37Z</time>
      </trkpt>
      <trkpt lat="42.470602" lon="-5.342197">
        <ele>840.5</ele>
        <time>2021-08-19T10:20:51Z</time>
      </trkpt>
      <trkpt lat="42.470626" lon="-5.342456">
        <ele>840.7</ele>
        <time>2021-08-19T10:21:06Z</time>
      </trkpt>
      <trkpt lat="42.470650" lon="-5.342706">
        <ele>840.8</ele>
        <time>2021-08-19T10:21:20Z</time>
      </trkpt>
      <trkpt lat="42.470667" lon="-5.342949">
        <ele>842.0</ele>
        <time>2021-08-19T10:21:34Z</time>
      </trkpt>
      <trkpt lat="42.470676" lon="-5.343202">
        <ele>842.1</ele>
        <time>2021-08-19T10:21:49Z</time>
      </trkpt>
      <trkpt lat="42.470690" lon="-5.343467">
        <ele>841.6</ele>
        <time>2021-08-19T10:22:11Z</time>
      </trkpt>
      <trkpt lat="42.470680" lon="-5.343735">
        <ele>843.3</ele>
        <time>2021-08-19T10:22:26Z</time>
      </trkpt>
      <trkpt lat="42.470681" lon="-5.344002">
        <ele>843.1</ele>
        <time>2021-08-19T10:22:41Z</time>
      </trkpt>
      <trkpt lat="42.470659" lon="-5.344254">
        <ele>840.9</ele>
        <time>2021-08-19T10:22:59Z</time>
      </trkpt>
      <trkpt lat="42.470647" lon="-5.344500">
        <ele>841.7</ele>
        <time>2021-08-19T10:23:13Z</time>
      </trkpt>
      <trkpt lat="42.470643" lon="-5.344744">
        <ele>842.6</ele>
        <time>2021-08-19T10:23:26Z</time>
      </trkpt>
      <trkpt lat="42.470632" lon="-5.345004">
        <ele>842.1</ele>
        <time>2021-08-19T10:23:41Z</time>
      </trkpt>
      <trkpt lat="42.470607" lon="-5.345279">
        <ele>840.4</ele>
        <time>2021-08-19T10:23:55Z</time>
      </trkpt>
      <trkpt lat="42.470594" lon="-5.345534">
        <ele>841.8</ele>
        <time>2021-08-19T10:24:11Z</time>
      </trkpt>
      <trkpt lat="42.470583" lon="-5.345778">
        <ele>841.8</ele>
        <time>2021-08-19T10:24:29Z</time>
      </trkpt>
      <trkpt lat="42.470571" lon="-5.346031">
        <ele>841.0</ele>
        <time>2021-08-19T10:24:46Z</time>
      </trkpt>
      <trkpt lat="42.470555" lon="-5.346291">
        <ele>841.6</ele>
        <time>2021-08-19T10:25:04Z</time>
      </trkpt>
      <trkpt lat="42.470544" lon="-5.346548">
        <ele>842.5</ele>
        <time>2021-08-19T10:25:21Z</time>
      </trkpt>
      <trkpt lat="42.470549" lon="-5.346804">
        <ele>840.8</ele>
        <time>2021-08-19T10:25:38Z</time>
      </trkpt>
      <trkpt lat="42.470576" lon="-5.347053">
        <ele>841.1</ele>
        <time>2021-08-19T10:25:56Z</time>
      </trkpt>
      <trkpt lat="42.470581" lon="-5.347300">
        <ele>838.6</ele>
        <time>2021-08-19T10:26:21Z</time>
      </trkpt>
      <trkpt lat="42.470614" lon="-5.347551">
        <ele>836.8</ele>
        <time>2021-08-19T10:26:39Z</time>
      </trkpt>
      <trkpt lat="42.470645" lon="-5.347794">
        <ele>835.8</ele>
        <time>2021-08-19T10:26:56Z</time>
      </trkpt>
      <trkpt lat="42.470718" lon="-5.348030">
        <ele>834.6</ele>
        <time>2021-08-19T10:27:14Z</time>
      </trkpt>
      <trkpt lat="42.470820" lon="-5.348241">
        <ele>833.8</ele>
        <time>2021-08-19T10:27:34Z</time>
      </trkpt>
      <trkpt lat="42.470902" lon="-5.348458">
        <ele>832.7</ele>
        <time>2021-08-19T10:27:51Z</time>
      </trkpt>
      <trkpt lat="42.470983" lon="-5.348677">
        <ele>835.5</ele>
        <time>2021-08-19T10:28:08Z</time>
      </trkpt>
      <trkpt lat="42.471071" lon="-5.348895">
        <ele>835.2</ele>
        <time>2021-08-19T10:28:24Z</time>
      </trkpt>
      <trkpt lat="42.471148" lon="-5.349118">
        <ele>835.1</ele>
        <time>2021-08-19T10:28:41Z</time>
      </trkpt>
      <trkpt lat="42.471239" lon="-5.349344">
        <ele>835.3</ele>
        <time>2021-08-19T10:28:59Z</time>
      </trkpt>
      <trkpt lat="42.471334" lon="-5.349561">
        <ele>835.4</ele>
        <time>2021-08-19T10:29:16Z</time>
      </trkpt>
      <trkpt lat="42.471437" lon="-5.349771">
        <ele>835.2</ele>
        <time>2021-08-19T10:29:36Z</time>
      </trkpt>
      <trkpt lat="42.471532" lon="-5.349988">
        <ele>835.3</ele>
        <time>2021-08-19T10:29:54Z</time>
      </trkpt>
      <trkpt lat="42.471622" lon="-5.350211">
        <ele>835.2</ele>
        <time>2021-08-19T10:30:12Z</time>
      </trkpt>
      <trkpt lat="42.471699" lon="-5.350438">
        <ele>835.3</ele>
        <time>2021-08-19T10:30:30Z</time>
      </trkpt>
      <trkpt lat="42.471752" lon="-5.350675">
        <ele>835.3</ele>
        <time>2021-08-19T10:30:49Z</time>
      </trkpt>
      <trkpt lat="42.471819" lon="-5.350904">
        <ele>835.2</ele>
        <time>2021-08-19T10:31:17Z</time>
      </trkpt>
      <trkpt lat="42.471891" lon="-5.351142">
        <ele>835.3</ele>
        <time>2021-08-19T10:31:34Z</time>
      </trkpt>
      <trkpt lat="42.471965" lon="-5.351381">
        <ele>835.3</ele>
        <time>2021-08-19T10:31:52Z</time>
      </trkpt>
      <trkpt lat="42.472008" lon="-5.351629">
        <ele>835.3</ele>
        <time>2021-08-19T10:32:11Z</time>
      </trkpt>
      <trkpt lat="42.472045" lon="-5.351871">
        <ele>835.4</ele>
        <time>2021-08-19T10:32:28Z</time>
      </trkpt>
      <trkpt lat="42.472108" lon="-5.352104">
        <ele>823.7</ele>
        <time>2021-08-19T10:32:46Z</time>
      </trkpt>
      <trkpt lat="42.472231" lon="-5.352289">
        <ele>830.2</ele>
        <time>2021-08-19T10:33:10Z</time>
      </trkpt>
      <trkpt lat="42.472315" lon="-5.352505">
        <ele>830.3</ele>
        <time>2021-08-19T10:33:33Z</time>
      </trkpt>
      <trkpt lat="42.472493" lon="-5.352464">
        <ele>832.5</ele>
        <time>2021-08-19T10:35:48Z</time>
      </trkpt>
      <trkpt lat="42.472566" lon="-5.352694">
        <ele>832.3</ele>
        <time>2021-08-19T10:44:57Z</time>
      </trkpt>
      <trkpt lat="42.472732" lon="-5.352804">
        <ele>832.3</ele>
        <time>2021-08-19T10:45:25Z</time>
      </trkpt>
      <trkpt lat="42.472898" lon="-5.352915">
        <ele>829.1</ele>
        <time>2021-08-19T10:45:42Z</time>
      </trkpt>
      <trkpt lat="42.473066" lon="-5.353027">
        <ele>829.5</ele>
        <time>2021-08-19T10:45:59Z</time>
      </trkpt>
      <trkpt lat="42.473241" lon="-5.353129">
        <ele>829.2</ele>
        <time>2021-08-19T10:46:17Z</time>
      </trkpt>
      <trkpt lat="42.473401" lon="-5.353270">
        <ele>829.0</ele>
        <time>2021-08-19T10:46:35Z</time>
      </trkpt>
      <trkpt lat="42.473556" lon="-5.353400">
        <ele>829.1</ele>
        <time>2021-08-19T10:46:50Z</time>
      </trkpt>
      <trkpt lat="42.473729" lon="-5.353485">
        <ele>829.4</ele>
        <time>2021-08-19T10:47:07Z</time>
      </trkpt>
      <trkpt lat="42.473892" lon="-5.353595">
        <ele>829.6</ele>
        <time>2021-08-19T10:47:24Z</time>
      </trkpt>
      <trkpt lat="42.474054" lon="-5.353802">
        <ele>827.5</ele>
        <time>2021-08-20T04:17:54Z</time>
      </trkpt>
      <trkpt lat="42.474182" lon="-5.353977">
        <ele>827.7</ele>
        <time>2021-08-20T04:18:11Z</time>
      </trkpt>
      <trkpt lat="42.474360" lon="-5.354026">
        <ele>827.5</ele>
        <time>2021-08-20T04:18:22Z</time>
      </trkpt>
      <trkpt lat="42.474512" lon="-5.354187">
        <ele>827.6</ele>
        <time>2021-08-20T04:18:38Z</time>
      </trkpt>
      <trkpt lat="42.474652" lon="-5.354343">
        <ele>827.4</ele>
        <time>2021-08-20T04:18:53Z</time>
      </trkpt>
      <trkpt lat="42.474781" lon="-5.354522">
        <ele>827.2</ele>
        <time>2021-08-20T04:19:20Z</time>
      </trkpt>
      <trkpt lat="42.474898" lon="-5.354724">
        <ele>824.8</ele>
        <time>2021-08-20T04:19:40Z</time>
      </trkpt>
      <trkpt lat="42.474985" lon="-5.354937">
        <ele>822.9</ele>
        <time>2021-08-20T04:19:54Z</time>
      </trkpt>
      <trkpt lat="42.475067" lon="-5.355162">
        <ele>822.5</ele>
        <time>2021-08-20T04:20:08Z</time>
      </trkpt>
      <trkpt lat="42.475173" lon="-5.355367">
        <ele>822.3</ele>
        <time>2021-08-20T04:20:23Z</time>
      </trkpt>
      <trkpt lat="42.475337" lon="-5.355474">
        <ele>822.5</ele>
        <time>2021-08-20T04:20:37Z</time>
      </trkpt>
      <trkpt lat="42.475496" lon="-5.355622">
        <ele>822.7</ele>
        <time>2021-08-20T04:20:52Z</time>
      </trkpt>
      <trkpt lat="42.475614" lon="-5.355823">
        <ele>822.5</ele>
        <time>2021-08-20T04:21:07Z</time>
      </trkpt>
      <trkpt lat="42.475595" lon="-5.356068">
        <ele>821.0</ele>
        <time>2021-08-20T04:21:22Z</time>
      </trkpt>
      <trkpt lat="42.475494" lon="-5.356273">
        <ele>820.7</ele>
        <time>2021-08-20T04:21:48Z</time>
      </trkpt>
      <trkpt lat="42.475567" lon="-5.356507">
        <ele>820.7</ele>
        <time>2021-08-20T04:22:04Z</time>
      </trkpt>
      <trkpt lat="42.475618" lon="-5.356744">
        <ele>820.8</ele>
        <time>2021-08-20T04:22:16Z</time>
      </trkpt>
      <trkpt lat="42.475666" lon="-5.356988">
        <ele>821.0</ele>
        <time>2021-08-20T04:22:31Z</time>
      </trkpt>
      <trkpt lat="42.475746" lon="-5.357211">
        <ele>820.8</ele>
        <time>2021-08-20T04:22:46Z</time>
      </trkpt>
      <trkpt lat="42.475759" lon="-5.357464">
        <ele>820.8</ele>
        <time>2021-08-20T04:23:00Z</time>
      </trkpt>
      <trkpt lat="42.475806" lon="-5.357708">
        <ele>820.7</ele>
        <time>2021-08-20T04:23:14Z</time>
      </trkpt>
      <trkpt lat="42.475845" lon="-5.357960">
        <ele>820.8</ele>
        <time>2021-08-20T04:23:29Z</time>
      </trkpt>
      <trkpt lat="42.475943" lon="-5.358176">
        <ele>820.8</ele>
        <time>2021-08-20T04:23:44Z</time>
      </trkpt>
      <trkpt lat="42.476030" lon="-5.358391">
        <ele>820.8</ele>
        <time>2021-08-20T04:23:59Z</time>
      </trkpt>
      <trkpt lat="42.476087" lon="-5.358641">
        <ele>820.8</ele>
        <time>2021-08-20T04:24:14Z</time>
      </trkpt>
      <trkpt lat="42.476170" lon="-5.358877">
        <ele>820.9</ele>
        <time>2021-08-20T04:24:27Z</time>
      </trkpt>
      <trkpt lat="42.476263" lon="-5.359095">
        <ele>821.0</ele>
        <time>2021-08-20T04:24:44Z</time>
      </trkpt>
      <trkpt lat="42.476355" lon="-5.359312">
        <ele>820.9</ele>
        <time>2021-08-20T04:24:59Z</time>
      </trkpt>
      <trkpt lat="42.476474" lon="-5.359498">
        <ele>820.8</ele>
        <time>2021-08-20T04:25:13Z</time>
      </trkpt>
      <trkpt lat="42.476564" lon="-5.359727">
        <ele>820.9</ele>
        <time>2021-08-20T04:25:28Z</time>
      </trkpt>
      <trkpt lat="42.476662" lon="-5.359938">
        <ele>820.8</ele>
        <time>2021-08-20T04:25:42Z</time>
      </trkpt>
      <trkpt lat="42.476758" lon="-5.360155">
        <ele>820.6</ele>
        <time>2021-08-20T04:25:59Z</time>
      </trkpt>
      <trkpt lat="42.476845" lon="-5.360373">
        <ele>820.6</ele>
        <time>2021-08-20T04:26:12Z</time>
      </trkpt>
      <trkpt lat="42.476941" lon="-5.360581">
        <ele>820.6</ele>
        <time>2021-08-20T04:26:28Z</time>
      </trkpt>
      <trkpt lat="42.477043" lon="-5.360796">
        <ele>820.6</ele>
        <time>2021-08-20T04:26:45Z</time>
      </trkpt>
      <trkpt lat="42.477134" lon="-5.361008">
        <ele>820.8</ele>
        <time>2021-08-20T04:26:57Z</time>
      </trkpt>
      <trkpt lat="42.477255" lon="-5.361204">
        <ele>820.5</ele>
        <time>2021-08-20T04:27:12Z</time>
      </trkpt>
      <trkpt lat="42.477376" lon="-5.361392">
        <ele>820.5</ele>
        <time>2021-08-20T04:27:29Z</time>
      </trkpt>
      <trkpt lat="42.477476" lon="-5.361604">
        <ele>792.8</ele>
        <time>2021-08-20T04:27:43Z</time>
      </trkpt>
      <trkpt lat="42.477569" lon="-5.361826">
        <ele>792.6</ele>
        <time>2021-08-20T04:27:57Z</time>
      </trkpt>
      <trkpt lat="42.477673" lon="-5.362034">
        <ele>792.7</ele>
        <time>2021-08-20T04:28:12Z</time>
      </trkpt>
      <trkpt lat="42.477754" lon="-5.362257">
        <ele>792.8</ele>
        <time>2021-08-20T04:28:27Z</time>
      </trkpt>
      <trkpt lat="42.477856" lon="-5.362457">
        <ele>792.5</ele>
        <time>2021-08-20T04:28:42Z</time>
      </trkpt>
      <trkpt lat="42.477965" lon="-5.362662">
        <ele>792.6</ele>
        <time>2021-08-20T04:28:56Z</time>
      </trkpt>
      <trkpt lat="42.478053" lon="-5.362887">
        <ele>792.7</ele>
        <time>2021-08-20T04:29:10Z</time>
      </trkpt>
      <trkpt lat="42.478158" lon="-5.363102">
        <ele>792.6</ele>
        <time>2021-08-20T04:29:23Z</time>
      </trkpt>
      <trkpt lat="42.478260" lon="-5.363305">
        <ele>792.9</ele>
        <time>2021-08-20T04:29:42Z</time>
      </trkpt>
      <trkpt lat="42.478356" lon="-5.363522">
        <ele>793.0</ele>
        <time>2021-08-20T04:29:55Z</time>
      </trkpt>
      <trkpt lat="42.478439" lon="-5.363746">
        <ele>793.0</ele>
        <time>2021-08-20T04:30:10Z</time>
      </trkpt>
      <trkpt lat="42.478557" lon="-5.363941">
        <ele>793.0</ele>
        <time>2021-08-20T04:30:23Z</time>
      </trkpt>
      <trkpt lat="42.478679" lon="-5.364125">
        <ele>793.0</ele>
        <time>2021-08-20T04:30:40Z</time>
      </trkpt>
      <trkpt lat="42.478770" lon="-5.364369">
        <ele>793.1</ele>
        <time>2021-08-20T04:30:53Z</time>
      </trkpt>
      <trkpt lat="42.478862" lon="-5.364583">
        <ele>786.7</ele>
        <time>2021-08-20T04:31:06Z</time>
      </trkpt>
      <trkpt lat="42.478951" lon="-5.364798">
        <ele>788.0</ele>
        <time>2021-08-20T04:31:19Z</time>
      </trkpt>
      <trkpt lat="42.479046" lon="-5.365021">
        <ele>787.1</ele>
        <time>2021-08-20T04:31:35Z</time>
      </trkpt>
      <trkpt lat="42.479135" lon="-5.365255">
        <ele>787.7</ele>
        <time>2021-08-20T04:31:48Z</time>
      </trkpt>
      <trkpt lat="42.479205" lon="-5.365499">
        <ele>787.4</ele>
        <time>2021-08-20T04:32:05Z</time>
      </trkpt>
      <trkpt lat="42.479286" lon="-5.365732">
        <ele>789.5</ele>
        <time>2021-08-20T04:32:18Z</time>
      </trkpt>
      <trkpt lat="42.479349" lon="-5.365968">
        <ele>791.0</ele>
        <time>2021-08-20T04:32:32Z</time>
      </trkpt>
      <trkpt lat="42.479439" lon="-5.366201">
        <ele>791.3</ele>
        <time>2021-08-20T04:32:46Z</time>
      </trkpt>
      <trkpt lat="42.479514" lon="-5.366437">
        <ele>791.6</ele>
        <time>2021-08-20T04:33:04Z</time>
      </trkpt>
      <trkpt lat="42.479624" lon="-5.366639">
        <ele>791.7</ele>
        <time>2021-08-20T04:33:18Z</time>
      </trkpt>
      <trkpt lat="42.479731" lon="-5.366838">
        <ele>787.5</ele>
        <time>2021-08-20T04:33:36Z</time>
      </trkpt>
      <trkpt lat="42.479807" lon="-5.367064">
        <ele>786.6</ele>
        <time>2021-08-20T04:33:50Z</time>
      </trkpt>
      <trkpt lat="42.479898" lon="-5.367283">
        <ele>785.8</ele>
        <time>2021-08-20T04:34:04Z</time>
      </trkpt>
      <trkpt lat="42.479950" lon="-5.367521">
        <ele>785.8</ele>
        <time>2021-08-20T04:34:17Z</time>
      </trkpt>
      <trkpt lat="42.480005" lon="-5.367759">
        <ele>786.5</ele>
        <time>2021-08-20T04:34:31Z</time>
      </trkpt>
      <trkpt lat="42.480052" lon="-5.368008">
        <ele>787.3</ele>
        <time>2021-08-20T04:34:46Z</time>
      </trkpt>
      <trkpt lat="42.480161" lon="-5.368216">
        <ele>785.0</ele>
        <time>2021-08-20T04:34:59Z</time>
      </trkpt>
      <trkpt lat="42.480210" lon="-5.368452">
        <ele>781.7</ele>
        <time>2021-08-20T04:35:12Z</time>
      </trkpt>
      <trkpt lat="42.480276" lon="-5.368691">
        <ele>783.7</ele>
        <time>2021-08-20T04:35:24Z</time>
      </trkpt>
      <trkpt lat="42.480284" lon="-5.368944">
        <ele>790.7</ele>
        <time>2021-08-20T04:36:05Z</time>
      </trkpt>
      <trkpt lat="42.480357" lon="-5.369174">
        <ele>792.6</ele>
        <time>2021-08-20T04:36:21Z</time>
      </trkpt>
      <trkpt lat="42.480416" lon="-5.369426">
        <ele>794.8</ele>
        <time>2021-08-20T04:36:34Z</time>
      </trkpt>
      <trkpt lat="42.480478" lon="-5.369679">
        <ele>793.6</ele>
        <time>2021-08-20T04:36:51Z</time>
      </trkpt>
      <trkpt lat="42.480539" lon="-5.369914">
        <ele>794.5</ele>
        <time>2021-08-20T04:37:06Z</time>
      </trkpt>
      <trkpt lat="42.480621" lon="-5.370136">
        <ele>794.7</ele>
        <time>2021-08-20T04:37:22Z</time>
      </trkpt>
      <trkpt lat="42.480702" lon="-5.370368">
        <ele>796.5</ele>
        <time>2021-08-20T04:37:37Z</time>
      </trkpt>
      <trkpt lat="42.480763" lon="-5.370608">
        <ele>798.0</ele>
        <time>2021-08-20T04:37:50Z</time>
      </trkpt>
      <trkpt lat="42.480814" lon="-5.370842">
        <ele>800.1</ele>
        <time>2021-08-20T04:38:05Z</time>
      </trkpt>
      <trkpt lat="42.480915" lon="-5.371044">
        <ele>800.4</ele>
        <time>2021-08-20T04:38:19Z</time>
      </trkpt>
      <trkpt lat="42.480986" lon="-5.371272">
        <ele>800.4</ele>
        <time>2021-08-20T04:38:33Z</time>
      </trkpt>
      <trkpt lat="42.481086" lon="-5.371489">
        <ele>801.5</ele>
        <time>2021-08-20T04:38:49Z</time>
      </trkpt>
      <trkpt lat="42.481149" lon="-5.371727">
        <ele>800.7</ele>
        <time>2021-08-20T04:39:03Z</time>
      </trkpt>
      <trkpt lat="42.481223" lon="-5.371959">
        <ele>799.3</ele>
        <time>2021-08-20T04:39:18Z</time>
      </trkpt>
      <trkpt lat="42.481286" lon="-5.372192">
        <ele>798.7</ele>
        <time>2021-08-20T04:39:34Z</time>
      </trkpt>
      <trkpt lat="42.481362" lon="-5.372423">
        <ele>797.7</ele>
        <time>2021-08-20T04:39:47Z</time>
      </trkpt>
      <trkpt lat="42.481418" lon="-5.372657">
        <ele>798.2</ele>
        <time>2021-08-20T04:40:01Z</time>
      </trkpt>
      <trkpt lat="42.481489" lon="-5.372898">
        <ele>798.6</ele>
        <time>2021-08-20T04:40:15Z</time>
      </trkpt>
      <trkpt lat="42.481577" lon="-5.373124">
        <ele>797.0</ele>
        <time>2021-08-20T04:40:30Z</time>
      </trkpt>
      <trkpt lat="42.481632" lon="-5.373356">
        <ele>797.7</ele>
        <time>2021-08-20T04:40:42Z</time>
      </trkpt>
      <trkpt lat="42.481695" lon="-5.373590">
        <ele>796.3</ele>
        <time>2021-08-20T04:40:55Z</time>
      </trkpt>
      <trkpt lat="42.481755" lon="-5.373833">
        <ele>795.6</ele>
        <time>2021-08-20T04:41:11Z</time>
      </trkpt>
      <trkpt lat="42.481826" lon="-5.374068">
        <ele>795.3</ele>
        <time>2021-08-20T04:41:24Z</time>
      </trkpt>
      <trkpt lat="42.481925" lon="-5.374282">
        <ele>794.8</ele>
        <time>2021-08-20T04:41:39Z</time>
      </trkpt>
      <trkpt lat="42.481990" lon="-5.374527">
        <ele>794.1</ele>
        <time>2021-08-20T04:41:54Z</time>
      </trkpt>
      <trkpt lat="42.482075" lon="-5.374751">
        <ele>793.4</ele>
        <time>2021-08-20T04:42:08Z</time>
      </trkpt>
      <trkpt lat="42.482149" lon="-5.374979">
        <ele>794.5</ele>
        <time>2021-08-20T04:42:24Z</time>
      </trkpt>
      <trkpt lat="42.482226" lon="-5.375199">
        <ele>792.7</ele>
        <time>2021-08-20T04:42:41Z</time>
      </trkpt>
      <trkpt lat="42.482290" lon="-5.375429">
        <ele>793.1</ele>
        <time>2021-08-20T04:42:55Z</time>
      </trkpt>
      <trkpt lat="42.482350" lon="-5.375661">
        <ele>791.7</ele>
        <time>2021-08-20T04:43:08Z</time>
      </trkpt>
      <trkpt lat="42.482435" lon="-5.375878">
        <ele>791.5</ele>
        <time>2021-08-20T04:43:21Z</time>
      </trkpt>
      <trkpt lat="42.482501" lon="-5.376111">
        <ele>792.9</ele>
        <time>2021-08-20T04:43:35Z</time>
      </trkpt>
      <trkpt lat="42.482559" lon="-5.376354">
        <ele>791.8</ele>
        <time>2021-08-20T04:43:51Z</time>
      </trkpt>
      <trkpt lat="42.482628" lon="-5.376584">
        <ele>792.2</ele>
        <time>2021-08-20T04:44:03Z</time>
      </trkpt>
      <trkpt lat="42.482689" lon="-5.376823">
        <ele>791.8</ele>
        <time>2021-08-20T04:44:15Z</time>
      </trkpt>
      <trkpt lat="42.482768" lon="-5.377048">
        <ele>794.3</ele>
        <time>2021-08-20T04:44:34Z</time>
      </trkpt>
      <trkpt lat="42.482853" lon="-5.377268">
        <ele>795.5</ele>
        <time>2021-08-20T04:45:30Z</time>
      </trkpt>
      <trkpt lat="42.482936" lon="-5.377486">
        <ele>790.5</ele>
        <time>2021-08-20T04:45:48Z</time>
      </trkpt>
      <trkpt lat="42.483029" lon="-5.377714">
        <ele>791.2</ele>
        <time>2021-08-20T04:46:02Z</time>
      </trkpt>
      <trkpt lat="42.483096" lon="-5.377948">
        <ele>791.3</ele>
        <time>2021-08-20T04:46:15Z</time>
      </trkpt>
      <trkpt lat="42.483169" lon="-5.378175">
        <ele>790.9</ele>
        <time>2021-08-20T04:46:31Z</time>
      </trkpt>
      <trkpt lat="42.483197" lon="-5.378435">
        <ele>793.7</ele>
        <time>2021-08-20T04:46:41Z</time>
      </trkpt>
      <trkpt lat="42.483253" lon="-5.378685">
        <ele>799.1</ele>
        <time>2021-08-20T04:46:57Z</time>
      </trkpt>
      <trkpt lat="42.483298" lon="-5.378930">
        <ele>797.8</ele>
        <time>2021-08-20T04:47:12Z</time>
      </trkpt>
      <trkpt lat="42.483410" lon="-5.379129">
        <ele>796.8</ele>
        <time>2021-08-20T04:47:23Z</time>
      </trkpt>
      <trkpt lat="42.483477" lon="-5.379364">
        <ele>797.9</ele>
        <time>2021-08-20T04:47:35Z</time>
      </trkpt>
      <trkpt lat="42.483560" lon="-5.379586">
        <ele>796.2</ele>
        <time>2021-08-20T04:47:48Z</time>
      </trkpt>
      <trkpt lat="42.483639" lon="-5.379808">
        <ele>796.3</ele>
        <time>2021-08-20T04:48:03Z</time>
      </trkpt>
      <trkpt lat="42.483714" lon="-5.380031">
        <ele>797.2</ele>
        <time>2021-08-20T04:48:17Z</time>
      </trkpt>
      <trkpt lat="42.483785" lon="-5.380257">
        <ele>795.8</ele>
        <time>2021-08-20T04:48:31Z</time>
      </trkpt>
      <trkpt lat="42.483868" lon="-5.380488">
        <ele>795.4</ele>
        <time>2021-08-20T04:48:45Z</time>
      </trkpt>
      <trkpt lat="42.483931" lon="-5.380724">
        <ele>796.8</ele>
        <time>2021-08-20T04:48:59Z</time>
      </trkpt>
      <trkpt lat="42.483993" lon="-5.380959">
        <ele>795.8</ele>
        <time>2021-08-20T04:49:13Z</time>
      </trkpt>
      <trkpt lat="42.484065" lon="-5.381201">
        <ele>796.6</ele>
        <time>2021-08-20T04:49:27Z</time>
      </trkpt>
      <trkpt lat="42.484115" lon="-5.381438">
        <ele>797.7</ele>
        <time>2021-08-20T04:49:43Z</time>
      </trkpt>
      <trkpt lat="42.484209" lon="-5.381662">
        <ele>788.8</ele>
        <time>2021-08-20T04:49:58Z</time>
      </trkpt>
      <trkpt lat="42.484293" lon="-5.381880">
        <ele>784.0</ele>
        <time>2021-08-20T04:50:13Z</time>
      </trkpt>
      <trkpt lat="42.484373" lon="-5.382107">
        <ele>780.4</ele>
        <time>2021-08-20T04:50:28Z</time>
      </trkpt>
      <trkpt lat="42.484450" lon="-5.382332">
        <ele>778.7</ele>
        <time>2021-08-20T04:50:43Z</time>
      </trkpt>
      <trkpt lat="42.484534" lon="-5.382549">
        <ele>776.7</ele>
        <time>2021-08-20T04:50:57Z</time>
      </trkpt>
      <trkpt lat="42.484597" lon="-5.382786">
        <ele>776.9</ele>
        <time>2021-08-20T04:51:11Z</time>
      </trkpt>
      <trkpt lat="42.484683" lon="-5.383007">
        <ele>775.5</ele>
        <time>2021-08-20T04:51:26Z</time>
      </trkpt>
      <trkpt lat="42.484756" lon="-5.383235">
        <ele>774.3</ele>
        <time>2021-08-20T04:51:40Z</time>
      </trkpt>
      <trkpt lat="42.484836" lon="-5.383461">
        <ele>772.8</ele>
        <time>2021-08-20T04:51:56Z</time>
      </trkpt>
      <trkpt lat="42.484920" lon="-5.383679">
        <ele>771.2</ele>
        <time>2021-08-20T04:52:10Z</time>
      </trkpt>
      <trkpt lat="42.485009" lon="-5.383898">
        <ele>768.6</ele>
        <time>2021-08-20T04:52:25Z</time>
      </trkpt>
      <trkpt lat="42.485073" lon="-5.384127">
        <ele>769.5</ele>
        <time>2021-08-20T04:52:38Z</time>
      </trkpt>
      <trkpt lat="42.485130" lon="-5.384373">
        <ele>768.3</ele>
        <time>2021-08-20T04:52:52Z</time>
      </trkpt>
      <trkpt lat="42.485200" lon="-5.384599">
        <ele>768.7</ele>
        <time>2021-08-20T04:53:06Z</time>
      </trkpt>
      <trkpt lat="42.485287" lon="-5.384829">
        <ele>769.6</ele>
        <time>2021-08-20T04:53:20Z</time>
      </trkpt>
      <trkpt lat="42.485344" lon="-5.385084">
        <ele>770.0</ele>
        <time>2021-08-20T04:53:33Z</time>
      </trkpt>
      <trkpt lat="42.485426" lon="-5.385305">
        <ele>769.6</ele>
        <time>2021-08-20T04:53:49Z</time>
      </trkpt>
      <trkpt lat="42.485492" lon="-5.385537">
        <ele>768.1</ele>
        <time>2021-08-20T04:54:04Z</time>
      </trkpt>
      <trkpt lat="42.485585" lon="-5.385758">
        <ele>767.2</ele>
        <time>2021-08-20T04:54:17Z</time>
      </trkpt>
      <trkpt lat="42.485667" lon="-5.385977">
        <ele>765.8</ele>
        <time>2021-08-20T04:54:31Z</time>
      </trkpt>
      <trkpt lat="42.485749" lon="-5.386212">
        <ele>764.5</ele>
        <time>2021-08-20T04:54:46Z</time>
      </trkpt>
      <trkpt lat="42.485834" lon="-5.386433">
        <ele>764.4</ele>
        <time>2021-08-20T04:55:02Z</time>
      </trkpt>
      <trkpt lat="42.485934" lon="-5.386658">
        <ele>766.8</ele>
        <time>2021-08-20T04:55:17Z</time>
      </trkpt>
      <trkpt lat="42.486026" lon="-5.386870">
        <ele>767.4</ele>
        <time>2021-08-20T04:55:30Z</time>
      </trkpt>
      <trkpt lat="42.486130" lon="-5.387085">
        <ele>765.7</ele>
        <time>2021-08-20T04:55:48Z</time>
      </trkpt>
      <trkpt lat="42.486223" lon="-5.387305">
        <ele>765.3</ele>
        <time>2021-08-20T04:56:02Z</time>
      </trkpt>
      <trkpt lat="42.486319" lon="-5.387515">
        <ele>766.5</ele>
        <time>2021-08-20T04:56:14Z</time>
      </trkpt>
      <trkpt lat="42.486418" lon="-5.387734">
        <ele>765.6</ele>
        <time>2021-08-20T04:56:28Z</time>
      </trkpt>
      <trkpt lat="42.486505" lon="-5.387959">
        <ele>764.7</ele>
        <time>2021-08-20T04:56:45Z</time>
      </trkpt>
      <trkpt lat="42.486589" lon="-5.388182">
        <ele>765.6</ele>
        <time>2021-08-20T04:56:56Z</time>
      </trkpt>
      <trkpt lat="42.486675" lon="-5.388400">
        <ele>768.1</ele>
        <time>2021-08-20T04:57:09Z</time>
      </trkpt>
      <trkpt lat="42.486774" lon="-5.388609">
        <ele>768.8</ele>
        <time>2021-08-20T04:57:25Z</time>
      </trkpt>
      <trkpt lat="42.486863" lon="-5.388828">
        <ele>768.2</ele>
        <time>2021-08-20T04:57:39Z</time>
      </trkpt>
      <trkpt lat="42.486972" lon="-5.389025">
        <ele>765.7</ele>
        <time>2021-08-20T04:57:55Z</time>
      </trkpt>
      <trkpt lat="42.487065" lon="-5.389236">
        <ele>765.7</ele>
        <time>2021-08-20T04:58:07Z</time>
      </trkpt>
      <trkpt lat="42.487160" lon="-5.389445">
        <ele>766.9</ele>
        <time>2021-08-20T04:58:21Z</time>
      </trkpt>
      <trkpt lat="42.487248" lon="-5.389669">
        <ele>766.2</ele>
        <time>2021-08-20T04:58:35Z</time>
      </trkpt>
      <trkpt lat="42.487341" lon="-5.389887">
        <ele>765.5</ele>
        <time>2021-08-20T04:58:49Z</time>
      </trkpt>
      <trkpt lat="42.487419" lon="-5.390134">
        <ele>766.7</ele>
        <time>2021-08-20T04:59:02Z</time>
      </trkpt>
      <trkpt lat="42.487534" lon="-5.390349">
        <ele>765.8</ele>
        <time>2021-08-20T04:59:19Z</time>
      </trkpt>
      <trkpt lat="42.487628" lon="-5.390565">
        <ele>765.8</ele>
        <time>2021-08-20T04:59:30Z</time>
      </trkpt>
      <trkpt lat="42.487714" lon="-5.390781">
        <ele>766.7</ele>
        <time>2021-08-20T04:59:46Z</time>
      </trkpt>
      <trkpt lat="42.487808" lon="-5.390993">
        <ele>767.2</ele>
        <time>2021-08-20T05:00:01Z</time>
      </trkpt>
      <trkpt lat="42.487917" lon="-5.391213">
        <ele>769.8</ele>
        <time>2021-08-20T05:00:16Z</time>
      </trkpt>
      <trkpt lat="42.488004" lon="-5.391431">
        <ele>770.3</ele>
        <time>2021-08-20T05:00:29Z</time>
      </trkpt>
      <trkpt lat="42.488050" lon="-5.391823">
        <ele>806.6</ele>
        <time>2021-08-20T05:00:40Z</time>
      </trkpt>
      <trkpt lat="42.488082" lon="-5.392080">
        <ele>802.8</ele>
        <time>2021-08-20T05:00:42Z</time>
      </trkpt>
      <trkpt lat="42.488136" lon="-5.392323">
        <ele>797.2</ele>
        <time>2021-08-20T05:00:56Z</time>
      </trkpt>
      <trkpt lat="42.488249" lon="-5.392529">
        <ele>794.5</ele>
        <time>2021-08-20T05:01:11Z</time>
      </trkpt>
      <trkpt lat="42.488337" lon="-5.392747">
        <ele>793.4</ele>
        <time>2021-08-20T05:01:25Z</time>
      </trkpt>
      <trkpt lat="42.488453" lon="-5.392939">
        <ele>792.7</ele>
        <time>2021-08-20T05:01:40Z</time>
      </trkpt>
      <trkpt lat="42.488581" lon="-5.393116">
        <ele>789.5</ele>
        <time>2021-08-20T05:01:56Z</time>
      </trkpt>
      <trkpt lat="42.488707" lon="-5.393291">
        <ele>783.8</ele>
        <time>2021-08-20T05:02:11Z</time>
      </trkpt>
      <trkpt lat="42.488798" lon="-5.393541">
        <ele>780.5</ele>
        <time>2021-08-20T05:02:30Z</time>
      </trkpt>
      <trkpt lat="42.488913" lon="-5.393734">
        <ele>776.8</ele>
        <time>2021-08-20T05:02:44Z</time>
      </trkpt>
      <trkpt lat="42.489015" lon="-5.393940">
        <ele>776.6</ele>
        <time>2021-08-20T05:03:00Z</time>
      </trkpt>
      <trkpt lat="42.489108" lon="-5.394154">
        <ele>774.7</ele>
        <time>2021-08-20T05:03:12Z</time>
      </trkpt>
      <trkpt lat="42.489206" lon="-5.394367">
        <ele>775.2</ele>
        <time>2021-08-20T05:03:26Z</time>
      </trkpt>
      <trkpt lat="42.489309" lon="-5.394589">
        <ele>775.6</ele>
        <time>2021-08-20T05:03:43Z</time>
      </trkpt>
      <trkpt lat="42.489387" lon="-5.394819">
        <ele>776.1</ele>
        <time>2021-08-20T05:03:55Z</time>
      </trkpt>
      <trkpt lat="42.489485" lon="-5.395040">
        <ele>775.9</ele>
        <time>2021-08-20T05:04:09Z</time>
      </trkpt>
      <trkpt lat="42.489575" lon="-5.395263">
        <ele>775.5</ele>
        <time>2021-08-20T05:04:22Z</time>
      </trkpt>
      <trkpt lat="42.489668" lon="-5.395488">
        <ele>777.5</ele>
        <time>2021-08-20T05:04:36Z</time>
      </trkpt>
      <trkpt lat="42.489754" lon="-5.395711">
        <ele>780.0</ele>
        <time>2021-08-20T05:04:49Z</time>
      </trkpt>
      <trkpt lat="42.489852" lon="-5.395933">
        <ele>779.0</ele>
        <time>2021-08-20T05:05:02Z</time>
      </trkpt>
      <trkpt lat="42.489938" lon="-5.396152">
        <ele>778.8</ele>
        <time>2021-08-20T05:05:16Z</time>
      </trkpt>
      <trkpt lat="42.490044" lon="-5.396354">
        <ele>777.2</ele>
        <time>2021-08-20T05:05:30Z</time>
      </trkpt>
      <trkpt lat="42.490142" lon="-5.396561">
        <ele>776.2</ele>
        <time>2021-08-20T05:05:46Z</time>
      </trkpt>
      <trkpt lat="42.490254" lon="-5.396764">
        <ele>772.9</ele>
        <time>2021-08-20T05:06:01Z</time>
      </trkpt>
      <trkpt lat="42.490348" lon="-5.396973">
        <ele>769.7</ele>
        <time>2021-08-20T05:06:13Z</time>
      </trkpt>
      <trkpt lat="42.490434" lon="-5.397192">
        <ele>771.4</ele>
        <time>2021-08-20T05:06:25Z</time>
      </trkpt>
      <trkpt lat="42.490521" lon="-5.397416">
        <ele>771.6</ele>
        <time>2021-08-20T05:06:40Z</time>
      </trkpt>
      <trkpt lat="42.490615" lon="-5.397626">
        <ele>772.4</ele>
        <time>2021-08-20T05:06:53Z</time>
      </trkpt>
      <trkpt lat="42.490716" lon="-5.397837">
        <ele>770.9</ele>
        <time>2021-08-20T05:07:07Z</time>
      </trkpt>
      <trkpt lat="42.490823" lon="-5.398047">
        <ele>769.0</ele>
        <time>2021-08-20T05:07:22Z</time>
      </trkpt>
      <trkpt lat="42.490910" lon="-5.398274">
        <ele>767.6</ele>
        <time>2021-08-20T05:07:35Z</time>
      </trkpt>
      <trkpt lat="42.491000" lon="-5.398488">
        <ele>768.3</ele>
        <time>2021-08-20T05:07:47Z</time>
      </trkpt>
      <trkpt lat="42.491103" lon="-5.398704">
        <ele>769.0</ele>
        <time>2021-08-20T05:08:02Z</time>
      </trkpt>
      <trkpt lat="42.491193" lon="-5.398917">
        <ele>767.8</ele>
        <time>2021-08-20T05:08:16Z</time>
      </trkpt>
      <trkpt lat="42.491279" lon="-5.399136">
        <ele>767.2</ele>
        <time>2021-08-20T05:08:30Z</time>
      </trkpt>
      <trkpt lat="42.491378" lon="-5.399342">
        <ele>766.3</ele>
        <time>2021-08-20T05:08:43Z</time>
      </trkpt>
      <trkpt lat="42.491471" lon="-5.399557">
        <ele>767.3</ele>
        <time>2021-08-20T05:08:56Z</time>
      </trkpt>
      <trkpt lat="42.491561" lon="-5.399772">
        <ele>767.1</ele>
        <time>2021-08-20T05:09:09Z</time>
      </trkpt>
      <trkpt lat="42.491643" lon="-5.399989">
        <ele>765.6</ele>
        <time>2021-08-20T05:09:22Z</time>
      </trkpt>
      <trkpt lat="42.491742" lon="-5.400218">
        <ele>765.6</ele>
        <time>2021-08-20T05:09:36Z</time>
      </trkpt>
      <trkpt lat="42.491837" lon="-5.400439">
        <ele>767.1</ele>
        <time>2021-08-20T05:09:49Z</time>
      </trkpt>
      <trkpt lat="42.491928" lon="-5.400664">
        <ele>767.7</ele>
        <time>2021-08-20T05:10:01Z</time>
      </trkpt>
      <trkpt lat="42.492016" lon="-5.400898">
        <ele>767.5</ele>
        <time>2021-08-20T05:10:14Z</time>
      </trkpt>
      <trkpt lat="42.492103" lon="-5.401123">
        <ele>768.4</ele>
        <time>2021-08-20T05:10:26Z</time>
      </trkpt>
      <trkpt lat="42.492191" lon="-5.401351">
        <ele>770.8</ele>
        <time>2021-08-20T05:10:42Z</time>
      </trkpt>
      <trkpt lat="42.492281" lon="-5.401567">
        <ele>771.2</ele>
        <time>2021-08-20T05:10:53Z</time>
      </trkpt>
      <trkpt lat="42.492380" lon="-5.401792">
        <ele>771.3</ele>
        <time>2021-08-20T05:11:07Z</time>
      </trkpt>
      <trkpt lat="42.492467" lon="-5.402019">
        <ele>772.8</ele>
        <time>2021-08-20T05:11:20Z</time>
      </trkpt>
      <trkpt lat="42.492550" lon="-5.402248">
        <ele>773.5</ele>
        <time>2021-08-20T05:11:33Z</time>
      </trkpt>
      <trkpt lat="42.492649" lon="-5.402471">
        <ele>773.6</ele>
        <time>2021-08-20T05:11:46Z</time>
      </trkpt>
      <trkpt lat="42.492745" lon="-5.402682">
        <ele>773.3</ele>
        <time>2021-08-20T05:11:59Z</time>
      </trkpt>
      <trkpt lat="42.492837" lon="-5.402900">
        <ele>772.3</ele>
        <time>2021-08-20T05:12:14Z</time>
      </trkpt>
      <trkpt lat="42.492940" lon="-5.403119">
        <ele>772.2</ele>
        <time>2021-08-20T05:12:30Z</time>
      </trkpt>
      <trkpt lat="42.493044" lon="-5.403325">
        <ele>769.9</ele>
        <time>2021-08-20T05:12:44Z</time>
      </trkpt>
      <trkpt lat="42.493152" lon="-5.403537">
        <ele>767.6</ele>
        <time>2021-08-20T05:12:57Z</time>
      </trkpt>
      <trkpt lat="42.493243" lon="-5.403767">
        <ele>767.8</ele>
        <time>2021-08-20T05:13:10Z</time>
      </trkpt>
      <trkpt lat="42.493333" lon="-5.403998">
        <ele>769.0</ele>
        <time>2021-08-20T05:13:23Z</time>
      </trkpt>
      <trkpt lat="42.493413" lon="-5.404223">
        <ele>768.9</ele>
        <time>2021-08-20T05:13:36Z</time>
      </trkpt>
      <trkpt lat="42.493506" lon="-5.404434">
        <ele>770.0</ele>
        <time>2021-08-20T05:13:49Z</time>
      </trkpt>
      <trkpt lat="42.493613" lon="-5.404643">
        <ele>770.1</ele>
        <time>2021-08-20T05:14:03Z</time>
      </trkpt>
      <trkpt lat="42.493711" lon="-5.404849">
        <ele>807.6</ele>
        <time>2021-08-20T05:14:15Z</time>
      </trkpt>
      <trkpt lat="42.493805" lon="-5.405056">
        <ele>807.9</ele>
        <time>2021-08-20T05:14:28Z</time>
      </trkpt>
      <trkpt lat="42.493889" lon="-5.405287">
        <ele>808.0</ele>
        <time>2021-08-20T05:14:42Z</time>
      </trkpt>
      <trkpt lat="42.493968" lon="-5.405515">
        <ele>808.2</ele>
        <time>2021-08-20T05:14:53Z</time>
      </trkpt>
      <trkpt lat="42.494033" lon="-5.405745">
        <ele>808.2</ele>
        <time>2021-08-20T05:15:07Z</time>
      </trkpt>
      <trkpt lat="42.494103" lon="-5.405970">
        <ele>776.7</ele>
        <time>2021-08-20T05:15:20Z</time>
      </trkpt>
      <trkpt lat="42.494182" lon="-5.406189">
        <ele>778.5</ele>
        <time>2021-08-20T05:15:46Z</time>
      </trkpt>
      <trkpt lat="42.494249" lon="-5.406422">
        <ele>782.4</ele>
        <time>2021-08-20T05:16:02Z</time>
      </trkpt>
      <trkpt lat="42.494326" lon="-5.406645">
        <ele>784.6</ele>
        <time>2021-08-20T05:16:13Z</time>
      </trkpt>
      <trkpt lat="42.494383" lon="-5.406885">
        <ele>784.8</ele>
        <time>2021-08-20T05:16:26Z</time>
      </trkpt>
      <trkpt lat="42.494398" lon="-5.407129">
        <ele>785.0</ele>
        <time>2021-08-20T05:16:39Z</time>
      </trkpt>
      <trkpt lat="42.494389" lon="-5.407373">
        <ele>785.0</ele>
        <time>2021-08-20T05:16:51Z</time>
      </trkpt>
      <trkpt lat="42.494405" lon="-5.407621">
        <ele>785.1</ele>
        <time>2021-08-20T05:17:04Z</time>
      </trkpt>
      <trkpt lat="42.494484" lon="-5.407849">
        <ele>785.0</ele>
        <time>2021-08-20T05:17:20Z</time>
      </trkpt>
      <trkpt lat="42.494593" lon="-5.408047">
        <ele>785.0</ele>
        <time>2021-08-20T05:17:33Z</time>
      </trkpt>
      <trkpt lat="42.494756" lon="-5.408169">
        <ele>785.1</ele>
        <time>2021-08-20T05:17:46Z</time>
      </trkpt>
      <trkpt lat="42.494944" lon="-5.408199">
        <ele>785.1</ele>
        <time>2021-08-20T05:18:01Z</time>
      </trkpt>
      <trkpt lat="42.495112" lon="-5.408291">
        <ele>785.2</ele>
        <time>2021-08-20T05:18:16Z</time>
      </trkpt>
      <trkpt lat="42.495257" lon="-5.408448">
        <ele>788.6</ele>
        <time>2021-08-20T05:18:36Z</time>
      </trkpt>
      <trkpt lat="42.495353" lon="-5.408671">
        <ele>788.7</ele>
        <time>2021-08-20T05:18:49Z</time>
      </trkpt>
      <trkpt lat="42.495440" lon="-5.408889">
        <ele>788.6</ele>
        <time>2021-08-20T05:19:05Z</time>
      </trkpt>
      <trkpt lat="42.495535" lon="-5.409100">
        <ele>797.9</ele>
        <time>2021-08-20T05:19:21Z</time>
      </trkpt>
      <trkpt lat="42.495625" lon="-5.409328">
        <ele>799.8</ele>
        <time>2021-08-20T05:19:38Z</time>
      </trkpt>
      <trkpt lat="42.495736" lon="-5.409547">
        <ele>800.7</ele>
        <time>2021-08-20T05:19:56Z</time>
      </trkpt>
      <trkpt lat="42.495795" lon="-5.409783">
        <ele>801.2</ele>
        <time>2021-08-20T05:20:08Z</time>
      </trkpt>
      <trkpt lat="42.495893" lon="-5.409990">
        <ele>801.3</ele>
        <time>2021-08-20T05:20:25Z</time>
      </trkpt>
      <trkpt lat="42.495965" lon="-5.410218">
        <ele>799.8</ele>
        <time>2021-08-20T05:20:37Z</time>
      </trkpt>
      <trkpt lat="42.496044" lon="-5.410448">
        <ele>799.3</ele>
        <time>2021-08-20T05:20:52Z</time>
      </trkpt>
      <trkpt lat="42.496133" lon="-5.410662">
        <ele>799.2</ele>
        <time>2021-08-20T05:21:05Z</time>
      </trkpt>
      <trkpt lat="42.496197" lon="-5.410903">
        <ele>799.3</ele>
        <time>2021-08-20T05:21:21Z</time>
      </trkpt>
      <trkpt lat="42.496284" lon="-5.411123">
        <ele>799.3</ele>
        <time>2021-08-20T05:21:32Z</time>
      </trkpt>
      <trkpt lat="42.496357" lon="-5.411349">
        <ele>799.3</ele>
        <time>2021-08-20T05:21:46Z</time>
      </trkpt>
      <trkpt lat="42.496460" lon="-5.411550">
        <ele>799.3</ele>
        <time>2021-08-20T05:21:58Z</time>
      </trkpt>
      <trkpt lat="42.496568" lon="-5.411754">
        <ele>799.2</ele>
        <time>2021-08-20T05:22:14Z</time>
      </trkpt>
      <trkpt lat="42.496678" lon="-5.411959">
        <ele>799.1</ele>
        <time>2021-08-20T05:22:29Z</time>
      </trkpt>
      <trkpt lat="42.496769" lon="-5.412170">
        <ele>799.3</ele>
        <time>2021-08-20T05:22:45Z</time>
      </trkpt>
      <trkpt lat="42.496862" lon="-5.412394">
        <ele>799.1</ele>
        <time>2021-08-20T05:22:59Z</time>
      </trkpt>
      <trkpt lat="42.496956" lon="-5.412616">
        <ele>799.1</ele>
        <time>2021-08-20T05:23:13Z</time>
      </trkpt>
      <trkpt lat="42.497050" lon="-5.412830">
        <ele>799.1</ele>
        <time>2021-08-20T05:23:28Z</time>
      </trkpt>
      <trkpt lat="42.497143" lon="-5.413041">
        <ele>799.4</ele>
        <time>2021-08-20T05:23:43Z</time>
      </trkpt>
      <trkpt lat="42.497246" lon="-5.413245">
        <ele>799.1</ele>
        <time>2021-08-20T05:23:57Z</time>
      </trkpt>
      <trkpt lat="42.497339" lon="-5.413461">
        <ele>798.8</ele>
        <time>2021-08-20T05:24:09Z</time>
      </trkpt>
      <trkpt lat="42.497402" lon="-5.413693">
        <ele>798.5</ele>
        <time>2021-08-20T05:24:23Z</time>
      </trkpt>
      <trkpt lat="42.497442" lon="-5.413946">
        <ele>798.4</ele>
        <time>2021-08-20T05:24:38Z</time>
      </trkpt>
      <trkpt lat="42.497540" lon="-5.414153">
        <ele>798.3</ele>
        <time>2021-08-20T05:25:06Z</time>
      </trkpt>
      <trkpt lat="42.497586" lon="-5.414394">
        <ele>798.4</ele>
        <time>2021-08-20T05:25:25Z</time>
      </trkpt>
      <trkpt lat="42.497639" lon="-5.414628">
        <ele>798.2</ele>
        <time>2021-08-20T05:26:02Z</time>
      </trkpt>
      <trkpt lat="42.497715" lon="-5.414727">
        <ele>798.7</ele>
        <time>2021-08-20T05:56:57Z</time>
      </trkpt>
      <trkpt lat="42.497808" lon="-5.414940">
        <ele>798.5</ele>
        <time>2021-08-20T05:57:11Z</time>
      </trkpt>
      <trkpt lat="42.497880" lon="-5.415170">
        <ele>798.5</ele>
        <time>2021-08-20T05:57:51Z</time>
      </trkpt>
      <trkpt lat="42.498018" lon="-5.415339">
        <ele>799.0</ele>
        <time>2021-08-20T05:58:29Z</time>
      </trkpt>
      <trkpt lat="42.498129" lon="-5.415551">
        <ele>799.0</ele>
        <time>2021-08-20T05:58:48Z</time>
      </trkpt>
      <trkpt lat="42.498293" lon="-5.415651">
        <ele>798.4</ele>
        <time>2021-08-20T05:59:18Z</time>
      </trkpt>
      <trkpt lat="42.498410" lon="-5.415838">
        <ele>798.4</ele>
        <time>2021-08-20T05:59:44Z</time>
      </trkpt>
      <trkpt lat="42.498511" lon="-5.416056">
        <ele>798.5</ele>
        <time>2021-08-20T06:00:00Z</time>
      </trkpt>
      <trkpt lat="42.498589" lon="-5.416288">
        <ele>798.5</ele>
        <time>2021-08-20T06:00:15Z</time>
      </trkpt>
      <trkpt lat="42.498712" lon="-5.416468">
        <ele>774.4</ele>
        <time>2021-08-20T06:00:48Z</time>
      </trkpt>
      <trkpt lat="42.498770" lon="-5.416714">
        <ele>774.6</ele>
        <time>2021-08-20T06:01:07Z</time>
      </trkpt>
      <trkpt lat="42.498856" lon="-5.416933">
        <ele>774.5</ele>
        <time>2021-08-20T06:01:23Z</time>
      </trkpt>
      <trkpt lat="42.498827" lon="-5.417204">
        <ele>774.6</ele>
        <time>2021-08-20T06:01:35Z</time>
      </trkpt>
      <trkpt lat="42.498949" lon="-5.417400">
        <ele>774.8</ele>
        <time>2021-08-20T06:01:55Z</time>
      </trkpt>
      <trkpt lat="42.499119" lon="-5.417491">
        <ele>774.9</ele>
        <time>2021-08-20T06:02:23Z</time>
      </trkpt>
      <trkpt lat="42.499306" lon="-5.417581">
        <ele>773.0</ele>
        <time>2021-08-20T06:05:23Z</time>
      </trkpt>
      <trkpt lat="42.499422" lon="-5.417785">
        <ele>773.1</ele>
        <time>2021-08-20T06:05:36Z</time>
      </trkpt>
      <trkpt lat="42.499579" lon="-5.417924">
        <ele>772.8</ele>
        <time>2021-08-20T06:07:12Z</time>
      </trkpt>
      <trkpt lat="42.499729" lon="-5.418075">
        <ele>772.7</ele>
        <time>2021-08-20T06:07:32Z</time>
      </trkpt>
      <trkpt lat="42.499855" lon="-5.418255">
        <ele>772.5</ele>
        <time>2021-08-20T06:07:55Z</time>
      </trkpt>
      <trkpt lat="42.499960" lon="-5.418467">
        <ele>772.5</ele>
        <time>2021-08-20T06:08:20Z</time>
      </trkpt>
      <trkpt lat="42.500120" lon="-5.418590">
        <ele>772.2</ele>
        <time>2021-08-20T06:08:35Z</time>
      </trkpt>
      <trkpt lat="42.500210" lon="-5.418802">
        <ele>772.2</ele>
        <time>2021-08-20T06:08:52Z</time>
      </trkpt>
      <trkpt lat="42.500164" lon="-5.419042">
        <ele>775.7</ele>
        <time>2021-08-20T06:10:11Z</time>
      </trkpt>
      <trkpt lat="42.500291" lon="-5.419217">
        <ele>775.6</ele>
        <time>2021-08-20T06:10:38Z</time>
      </trkpt>
      <trkpt lat="42.500457" lon="-5.419314">
        <ele>775.6</ele>
        <time>2021-08-20T06:10:58Z</time>
      </trkpt>
      <trkpt lat="42.500608" lon="-5.419448">
        <ele>775.9</ele>
        <time>2021-08-20T06:11:35Z</time>
      </trkpt>
      <trkpt lat="42.500774" lon="-5.419541">
        <ele>775.8</ele>
        <time>2021-08-20T06:11:51Z</time>
      </trkpt>
      <trkpt lat="42.500941" lon="-5.419668">
        <ele>775.7</ele>
        <time>2021-08-20T06:12:12Z</time>
      </trkpt>
      <trkpt lat="42.501106" lon="-5.419771">
        <ele>775.6</ele>
        <time>2021-08-20T06:12:28Z</time>
      </trkpt>
      <trkpt lat="42.501281" lon="-5.419846">
        <ele>775.8</ele>
        <time>2021-08-20T06:12:44Z</time>
      </trkpt>
      <trkpt lat="42.501460" lon="-5.419918">
        <ele>789.8</ele>
        <time>2021-08-20T06:13:06Z</time>
      </trkpt>
      <trkpt lat="42.501633" lon="-5.420010">
        <ele>789.5</ele>
        <time>2021-08-20T06:13:29Z</time>
      </trkpt>
      <trkpt lat="42.501759" lon="-5.420189">
        <ele>785.5</ele>
        <time>2021-08-20T06:13:46Z</time>
      </trkpt>
      <trkpt lat="42.501880" lon="-5.420382">
        <ele>784.5</ele>
        <time>2021-08-20T06:14:12Z</time>
      </trkpt>
      <trkpt lat="42.502048" lon="-5.420493">
        <ele>781.5</ele>
        <time>2021-08-20T06:14:28Z</time>
      </trkpt>
      <trkpt lat="42.502217" lon="-5.420609">
        <ele>783.4</ele>
        <time>2021-08-20T06:14:53Z</time>
      </trkpt>
      <trkpt lat="42.502384" lon="-5.420722">
        <ele>785.5</ele>
        <time>2021-08-20T06:15:04Z</time>
      </trkpt>
      <trkpt lat="42.502568" lon="-5.420817">
        <ele>786.1</ele>
        <time>2021-08-20T06:15:17Z</time>
      </trkpt>
      <trkpt lat="42.502729" lon="-5.420973">
        <ele>785.1</ele>
        <time>2021-08-20T06:15:39Z</time>
      </trkpt>
      <trkpt lat="42.502887" lon="-5.421090">
        <ele>784.3</ele>
        <time>2021-08-20T06:15:49Z</time>
      </trkpt>
      <trkpt lat="42.503064" lon="-5.421178">
        <ele>782.4</ele>
        <time>2021-08-20T06:16:03Z</time>
      </trkpt>
      <trkpt lat="42.503239" lon="-5.421256">
        <ele>778.4</ele>
        <time>2021-08-20T06:16:21Z</time>
      </trkpt>
      <trkpt lat="42.503409" lon="-5.421366">
        <ele>771.6</ele>
        <time>2021-08-20T06:16:43Z</time>
      </trkpt>
      <trkpt lat="42.503583" lon="-5.421452">
        <ele>768.5</ele>
        <time>2021-08-20T06:16:57Z</time>
      </trkpt>
      <trkpt lat="42.503751" lon="-5.421579">
        <ele>766.6</ele>
        <time>2021-08-20T06:17:13Z</time>
      </trkpt>
      <trkpt lat="42.503907" lon="-5.421706">
        <ele>764.5</ele>
        <time>2021-08-20T06:17:32Z</time>
      </trkpt>
      <trkpt lat="42.504077" lon="-5.421794">
        <ele>763.4</ele>
        <time>2021-08-20T06:17:48Z</time>
      </trkpt>
      <trkpt lat="42.504245" lon="-5.421894">
        <ele>761.6</ele>
        <time>2021-08-20T06:18:05Z</time>
      </trkpt>
      <trkpt lat="42.504399" lon="-5.422025">
        <ele>760.4</ele>
        <time>2021-08-20T06:18:17Z</time>
      </trkpt>
      <trkpt lat="42.504546" lon="-5.422177">
        <ele>759.1</ele>
        <time>2021-08-20T06:18:36Z</time>
      </trkpt>
      <trkpt lat="42.504710" lon="-5.422288">
        <ele>757.4</ele>
        <time>2021-08-20T06:18:56Z</time>
      </trkpt>
      <trkpt lat="42.504874" lon="-5.422387">
        <ele>756.4</ele>
        <time>2021-08-20T06:19:06Z</time>
      </trkpt>
      <trkpt lat="42.505038" lon="-5.422495">
        <ele>758.1</ele>
        <time>2021-08-20T06:19:16Z</time>
      </trkpt>
      <trkpt lat="42.505198" lon="-5.422630">
        <ele>758.8</ele>
        <time>2021-08-20T06:19:30Z</time>
      </trkpt>
      <trkpt lat="42.505348" lon="-5.422768">
        <ele>766.5</ele>
        <time>2021-08-20T06:20:07Z</time>
      </trkpt>
      <trkpt lat="42.505488" lon="-5.422941">
        <ele>770.5</ele>
        <time>2021-08-20T06:20:14Z</time>
      </trkpt>
      <trkpt lat="42.505668" lon="-5.423021">
        <ele>772.2</ele>
        <time>2021-08-20T06:20:29Z</time>
      </trkpt>
      <trkpt lat="42.505830" lon="-5.423141">
        <ele>768.2</ele>
        <time>2021-08-20T06:20:50Z</time>
      </trkpt>
      <trkpt lat="42.505998" lon="-5.423238">
        <ele>765.5</ele>
        <time>2021-08-20T06:21:05Z</time>
      </trkpt>
      <trkpt lat="42.506173" lon="-5.423301">
        <ele>762.8</ele>
        <time>2021-08-20T06:21:25Z</time>
      </trkpt>
      <trkpt lat="42.506343" lon="-5.423382">
        <ele>760.0</ele>
        <time>2021-08-20T06:21:40Z</time>
      </trkpt>
      <trkpt lat="42.506509" lon="-5.423508">
        <ele>757.3</ele>
        <time>2021-08-20T06:21:56Z</time>
      </trkpt>
      <trkpt lat="42.506682" lon="-5.423608">
        <ele>757.9</ele>
        <time>2021-08-20T06:22:09Z</time>
      </trkpt>
      <trkpt lat="42.506850" lon="-5.423719">
        <ele>760.3</ele>
        <time>2021-08-20T06:22:18Z</time>
      </trkpt>
      <trkpt lat="42.506991" lon="-5.423887">
        <ele>763.5</ele>
        <time>2021-08-20T06:22:27Z</time>
      </trkpt>
      <trkpt lat="42.507146" lon="-5.424039">
        <ele>768.3</ele>
        <time>2021-08-20T06:22:37Z</time>
      </trkpt>
      <trkpt lat="42.507316" lon="-5.424123">
        <ele>774.5</ele>
        <time>2021-08-20T06:22:47Z</time>
      </trkpt>
      <trkpt lat="42.507477" lon="-5.424254">
        <ele>775.5</ele>
        <time>2021-08-20T06:22:57Z</time>
      </trkpt>
      <trkpt lat="42.507610" lon="-5.424427">
        <ele>777.5</ele>
        <time>2021-08-20T06:23:13Z</time>
      </trkpt>
      <trkpt lat="42.507743" lon="-5.424606">
        <ele>781.4</ele>
        <time>2021-08-20T06:23:25Z</time>
      </trkpt>
      <trkpt lat="42.507879" lon="-5.424776">
        <ele>784.2</ele>
        <time>2021-08-20T06:23:38Z</time>
      </trkpt>
      <trkpt lat="42.508032" lon="-5.424914">
        <ele>783.1</ele>
        <time>2021-08-20T06:23:53Z</time>
      </trkpt>
      <trkpt lat="42.508204" lon="-5.425014">
        <ele>782.8</ele>
        <time>2021-08-20T06:24:10Z</time>
      </trkpt>
      <trkpt lat="42.508374" lon="-5.425127">
        <ele>780.3</ele>
        <time>2021-08-20T06:24:21Z</time>
      </trkpt>
      <trkpt lat="42.508549" lon="-5.425247">
        <ele>779.6</ele>
        <time>2021-08-20T06:24:36Z</time>
      </trkpt>
      <trkpt lat="42.508707" lon="-5.425390">
        <ele>779.3</ele>
        <time>2021-08-20T06:24:51Z</time>
      </trkpt>
      <trkpt lat="42.508861" lon="-5.425571">
        <ele>777.4</ele>
        <time>2021-08-20T06:25:08Z</time>
      </trkpt>
      <trkpt lat="42.508958" lon="-5.425787">
        <ele>781.6</ele>
        <time>2021-08-20T06:25:26Z</time>
      </trkpt>
      <trkpt lat="42.509067" lon="-5.425989">
        <ele>802.0</ele>
        <time>2021-08-20T06:26:13Z</time>
      </trkpt>
      <trkpt lat="42.509257" lon="-5.426093">
        <ele>792.5</ele>
        <time>2021-08-20T06:26:26Z</time>
      </trkpt>
      <trkpt lat="42.509435" lon="-5.426177">
        <ele>785.2</ele>
        <time>2021-08-20T06:26:39Z</time>
      </trkpt>
      <trkpt lat="42.509603" lon="-5.426281">
        <ele>786.2</ele>
        <time>2021-08-20T06:26:55Z</time>
      </trkpt>
      <trkpt lat="42.509789" lon="-5.426280">
        <ele>784.2</ele>
        <time>2021-08-20T06:27:07Z</time>
      </trkpt>
      <trkpt lat="42.509970" lon="-5.426325">
        <ele>778.0</ele>
        <time>2021-08-20T06:27:26Z</time>
      </trkpt>
      <trkpt lat="42.510155" lon="-5.426385">
        <ele>779.1</ele>
        <time>2021-08-20T06:27:39Z</time>
      </trkpt>
      <trkpt lat="42.510321" lon="-5.426479">
        <ele>779.0</ele>
        <time>2021-08-20T06:27:50Z</time>
      </trkpt>
      <trkpt lat="42.510485" lon="-5.426596">
        <ele>777.1</ele>
        <time>2021-08-20T06:28:02Z</time>
      </trkpt>
      <trkpt lat="42.510647" lon="-5.426717">
        <ele>777.4</ele>
        <time>2021-08-20T06:28:17Z</time>
      </trkpt>
      <trkpt lat="42.510811" lon="-5.426845">
        <ele>780.4</ele>
        <time>2021-08-20T06:28:32Z</time>
      </trkpt>
      <trkpt lat="42.510974" lon="-5.426989">
        <ele>777.2</ele>
        <time>2021-08-20T06:28:49Z</time>
      </trkpt>
      <trkpt lat="42.511146" lon="-5.427076">
        <ele>781.9</ele>
        <time>2021-08-20T06:29:03Z</time>
      </trkpt>
      <trkpt lat="42.511288" lon="-5.427244">
        <ele>784.2</ele>
        <time>2021-08-20T06:29:15Z</time>
      </trkpt>
      <trkpt lat="42.511466" lon="-5.427347">
        <ele>785.7</ele>
        <time>2021-08-20T06:29:33Z</time>
      </trkpt>
      <trkpt lat="42.511632" lon="-5.427453">
        <ele>783.1</ele>
        <time>2021-08-20T06:29:49Z</time>
      </trkpt>
      <trkpt lat="42.511794" lon="-5.427569">
        <ele>783.3</ele>
        <time>2021-08-20T06:30:00Z</time>
      </trkpt>
      <trkpt lat="42.511970" lon="-5.427680">
        <ele>781.9</ele>
        <time>2021-08-20T06:30:15Z</time>
      </trkpt>
      <trkpt lat="42.512138" lon="-5.427790">
        <ele>782.1</ele>
        <time>2021-08-20T06:30:33Z</time>
      </trkpt>
      <trkpt lat="42.512287" lon="-5.427931">
        <ele>788.3</ele>
        <time>2021-08-20T06:30:42Z</time>
      </trkpt>
      <trkpt lat="42.512449" lon="-5.428063">
        <ele>790.6</ele>
        <time>2021-08-20T06:30:55Z</time>
      </trkpt>
      <trkpt lat="42.512586" lon="-5.428238">
        <ele>790.4</ele>
        <time>2021-08-20T06:31:12Z</time>
      </trkpt>
      <trkpt lat="42.512756" lon="-5.428328">
        <ele>789.0</ele>
        <time>2021-08-20T06:31:24Z</time>
      </trkpt>
      <trkpt lat="42.512917" lon="-5.428440">
        <ele>791.3</ele>
        <time>2021-08-20T06:31:38Z</time>
      </trkpt>
      <trkpt lat="42.513081" lon="-5.428576">
        <ele>792.3</ele>
        <time>2021-08-20T06:31:53Z</time>
      </trkpt>
      <trkpt lat="42.513247" lon="-5.428694">
        <ele>790.6</ele>
        <time>2021-08-20T06:32:07Z</time>
      </trkpt>
      <trkpt lat="42.513410" lon="-5.428804">
        <ele>788.7</ele>
        <time>2021-08-20T06:32:47Z</time>
      </trkpt>
      <trkpt lat="42.513575" lon="-5.428933">
        <ele>785.1</ele>
        <time>2021-08-20T06:32:59Z</time>
      </trkpt>
      <trkpt lat="42.513749" lon="-5.429031">
        <ele>782.7</ele>
        <time>2021-08-20T06:33:13Z</time>
      </trkpt>
      <trkpt lat="42.513906" lon="-5.429153">
        <ele>782.3</ele>
        <time>2021-08-20T06:33:26Z</time>
      </trkpt>
      <trkpt lat="42.514062" lon="-5.429281">
        <ele>782.8</ele>
        <time>2021-08-20T06:33:39Z</time>
      </trkpt>
      <trkpt lat="42.514238" lon="-5.429375">
        <ele>782.5</ele>
        <time>2021-08-20T06:33:56Z</time>
      </trkpt>
      <trkpt lat="42.514409" lon="-5.429520">
        <ele>783.4</ele>
        <time>2021-08-20T06:34:08Z</time>
      </trkpt>
      <trkpt lat="42.514583" lon="-5.429604">
        <ele>786.1</ele>
        <time>2021-08-20T06:34:23Z</time>
      </trkpt>
      <trkpt lat="42.514744" lon="-5.429732">
        <ele>786.2</ele>
        <time>2021-08-20T06:34:38Z</time>
      </trkpt>
      <trkpt lat="42.514907" lon="-5.429850">
        <ele>787.9</ele>
        <time>2021-08-20T06:34:52Z</time>
      </trkpt>
      <trkpt lat="42.515072" lon="-5.429973">
        <ele>785.1</ele>
        <time>2021-08-20T06:35:09Z</time>
      </trkpt>
      <trkpt lat="42.515216" lon="-5.430127">
        <ele>786.5</ele>
        <time>2021-08-20T06:35:24Z</time>
      </trkpt>
      <trkpt lat="42.515382" lon="-5.430250">
        <ele>785.5</ele>
        <time>2021-08-20T06:35:36Z</time>
      </trkpt>
      <trkpt lat="42.515552" lon="-5.430352">
        <ele>785.3</ele>
        <time>2021-08-20T06:35:49Z</time>
      </trkpt>
      <trkpt lat="42.515699" lon="-5.430492">
        <ele>785.5</ele>
        <time>2021-08-20T06:36:01Z</time>
      </trkpt>
      <trkpt lat="42.515873" lon="-5.430573">
        <ele>783.2</ele>
        <time>2021-08-20T06:36:16Z</time>
      </trkpt>
      <trkpt lat="42.516053" lon="-5.430695">
        <ele>783.8</ele>
        <time>2021-08-20T06:36:28Z</time>
      </trkpt>
      <trkpt lat="42.516233" lon="-5.430780">
        <ele>782.5</ele>
        <time>2021-08-20T06:36:41Z</time>
      </trkpt>
      <trkpt lat="42.516383" lon="-5.430918">
        <ele>780.7</ele>
        <time>2021-08-20T06:36:54Z</time>
      </trkpt>
      <trkpt lat="42.516547" lon="-5.431056">
        <ele>780.2</ele>
        <time>2021-08-20T06:37:08Z</time>
      </trkpt>
      <trkpt lat="42.516708" lon="-5.431174">
        <ele>779.9</ele>
        <time>2021-08-20T06:37:21Z</time>
      </trkpt>
      <trkpt lat="42.516870" lon="-5.431281">
        <ele>779.1</ele>
        <time>2021-08-20T06:37:34Z</time>
      </trkpt>
      <trkpt lat="42.517027" lon="-5.431400">
        <ele>780.5</ele>
        <time>2021-08-20T06:37:46Z</time>
      </trkpt>
      <trkpt lat="42.517188" lon="-5.431550">
        <ele>780.9</ele>
        <time>2021-08-20T06:38:00Z</time>
      </trkpt>
      <trkpt lat="42.517356" lon="-5.431661">
        <ele>781.9</ele>
        <time>2021-08-20T06:38:15Z</time>
      </trkpt>
      <trkpt lat="42.517524" lon="-5.431751">
        <ele>783.0</ele>
        <time>2021-08-20T06:38:26Z</time>
      </trkpt>
      <trkpt lat="42.517678" lon="-5.431884">
        <ele>782.4</ele>
        <time>2021-08-20T06:38:40Z</time>
      </trkpt>
      <trkpt lat="42.517838" lon="-5.432012">
        <ele>782.4</ele>
        <time>2021-08-20T06:38:54Z</time>
      </trkpt>
      <trkpt lat="42.518005" lon="-5.432112">
        <ele>782.6</ele>
        <time>2021-08-20T06:39:08Z</time>
      </trkpt>
      <trkpt lat="42.518167" lon="-5.432224">
        <ele>778.2</ele>
        <time>2021-08-20T06:39:23Z</time>
      </trkpt>
      <trkpt lat="42.518330" lon="-5.432338">
        <ele>781.3</ele>
        <time>2021-08-20T06:39:39Z</time>
      </trkpt>
      <trkpt lat="42.518506" lon="-5.432460">
        <ele>780.4</ele>
        <time>2021-08-20T06:39:50Z</time>
      </trkpt>
      <trkpt lat="42.518658" lon="-5.432595">
        <ele>781.8</ele>
        <time>2021-08-20T06:40:01Z</time>
      </trkpt>
      <trkpt lat="42.518818" lon="-5.432714">
        <ele>782.3</ele>
        <time>2021-08-20T06:40:14Z</time>
      </trkpt>
      <trkpt lat="42.518987" lon="-5.432812">
        <ele>779.2</ele>
        <time>2021-08-20T06:40:27Z</time>
      </trkpt>
      <trkpt lat="42.519176" lon="-5.432908">
        <ele>779.3</ele>
        <time>2021-08-20T06:40:40Z</time>
      </trkpt>
      <trkpt lat="42.519337" lon="-5.433024">
        <ele>779.3</ele>
        <time>2021-08-20T06:40:55Z</time>
      </trkpt>
      <trkpt lat="42.519499" lon="-5.433138">
        <ele>778.3</ele>
        <time>2021-08-20T06:41:08Z</time>
      </trkpt>
      <trkpt lat="42.519619" lon="-5.433360">
        <ele>785.6</ele>
        <time>2021-08-20T06:41:25Z</time>
      </trkpt>
      <trkpt lat="42.519797" lon="-5.433434">
        <ele>783.3</ele>
        <time>2021-08-20T06:41:38Z</time>
      </trkpt>
      <trkpt lat="42.519963" lon="-5.433557">
        <ele>782.2</ele>
        <time>2021-08-20T06:41:48Z</time>
      </trkpt>
      <trkpt lat="42.520113" lon="-5.433697">
        <ele>781.4</ele>
        <time>2021-08-20T06:42:02Z</time>
      </trkpt>
      <trkpt lat="42.520286" lon="-5.433788">
        <ele>781.8</ele>
        <time>2021-08-20T06:42:15Z</time>
      </trkpt>
      <trkpt lat="42.520450" lon="-5.433922">
        <ele>781.4</ele>
        <time>2021-08-20T06:42:30Z</time>
      </trkpt>
      <trkpt lat="42.520533" lon="-5.434144">
        <ele>784.2</ele>
        <time>2021-08-20T06:42:44Z</time>
      </trkpt>
      <trkpt lat="42.520588" lon="-5.434383">
        <ele>785.2</ele>
        <time>2021-08-20T06:42:59Z</time>
      </trkpt>
      <trkpt lat="42.520658" lon="-5.434615">
        <ele>787.2</ele>
        <time>2021-08-20T06:43:12Z</time>
      </trkpt>
      <trkpt lat="42.520834" lon="-5.434705">
        <ele>787.4</ele>
        <time>2021-08-20T06:43:24Z</time>
      </trkpt>
      <trkpt lat="42.521013" lon="-5.434671">
        <ele>788.3</ele>
        <time>2021-08-20T06:43:37Z</time>
      </trkpt>
      <trkpt lat="42.521192" lon="-5.434640">
        <ele>787.0</ele>
        <time>2021-08-20T06:43:50Z</time>
      </trkpt>
      <trkpt lat="42.521377" lon="-5.434653">
        <ele>788.2</ele>
        <time>2021-08-20T06:44:04Z</time>
      </trkpt>
      <trkpt lat="42.521551" lon="-5.434756">
        <ele>788.5</ele>
        <time>2021-08-20T06:44:21Z</time>
      </trkpt>
      <trkpt lat="42.521709" lon="-5.434873">
        <ele>788.1</ele>
        <time>2021-08-20T06:44:32Z</time>
      </trkpt>
      <trkpt lat="42.521870" lon="-5.434992">
        <ele>789.1</ele>
        <time>2021-08-20T06:44:45Z</time>
      </trkpt>
      <trkpt lat="42.522044" lon="-5.435101">
        <ele>789.7</ele>
        <time>2021-08-20T06:44:58Z</time>
      </trkpt>
      <trkpt lat="42.522211" lon="-5.435218">
        <ele>787.3</ele>
        <time>2021-08-20T06:45:12Z</time>
      </trkpt>
      <trkpt lat="42.522378" lon="-5.435347">
        <ele>787.6</ele>
        <time>2021-08-20T06:45:26Z</time>
      </trkpt>
      <trkpt lat="42.522541" lon="-5.435475">
        <ele>787.1</ele>
        <time>2021-08-20T06:45:39Z</time>
      </trkpt>
      <trkpt lat="42.522714" lon="-5.435593">
        <ele>785.5</ele>
        <time>2021-08-20T06:45:53Z</time>
      </trkpt>
      <trkpt lat="42.522875" lon="-5.435703">
        <ele>785.8</ele>
        <time>2021-08-20T06:46:08Z</time>
      </trkpt>
      <trkpt lat="42.523036" lon="-5.435840">
        <ele>789.1</ele>
        <time>2021-08-20T06:46:23Z</time>
      </trkpt>
      <trkpt lat="42.523202" lon="-5.435947">
        <ele>790.2</ele>
        <time>2021-08-20T06:46:34Z</time>
      </trkpt>
      <trkpt lat="42.523352" lon="-5.436091">
        <ele>788.3</ele>
        <time>2021-08-20T06:46:48Z</time>
      </trkpt>
      <trkpt lat="42.523526" lon="-5.436201">
        <ele>789.5</ele>
        <time>2021-08-20T06:47:00Z</time>
      </trkpt>
      <trkpt lat="42.523689" lon="-5.436306">
        <ele>788.2</ele>
        <time>2021-08-20T06:47:13Z</time>
      </trkpt>
      <trkpt lat="42.523854" lon="-5.436412">
        <ele>789.3</ele>
        <time>2021-08-20T06:47:28Z</time>
      </trkpt>
      <trkpt lat="42.524036" lon="-5.436516">
        <ele>789.9</ele>
        <time>2021-08-20T06:47:42Z</time>
      </trkpt>
      <trkpt lat="42.524181" lon="-5.436665">
        <ele>788.5</ele>
        <time>2021-08-20T06:47:54Z</time>
      </trkpt>
      <trkpt lat="42.524345" lon="-5.436792">
        <ele>788.4</ele>
        <time>2021-08-20T06:48:09Z</time>
      </trkpt>
      <trkpt lat="42.524504" lon="-5.436920">
        <ele>788.2</ele>
        <time>2021-08-20T06:48:22Z</time>
      </trkpt>
      <trkpt lat="42.524671" lon="-5.437021">
        <ele>788.7</ele>
        <time>2021-08-20T06:48:33Z</time>
      </trkpt>
      <trkpt lat="42.524834" lon="-5.437143">
        <ele>790.1</ele>
        <time>2021-08-20T06:48:47Z</time>
      </trkpt>
      <trkpt lat="42.524993" lon="-5.437273">
        <ele>788.6</ele>
        <time>2021-08-20T06:49:01Z</time>
      </trkpt>
      <trkpt lat="42.525155" lon="-5.437407">
        <ele>789.3</ele>
        <time>2021-08-20T06:49:15Z</time>
      </trkpt>
      <trkpt lat="42.525322" lon="-5.437506">
        <ele>790.0</ele>
        <time>2021-08-20T06:49:27Z</time>
      </trkpt>
      <trkpt lat="42.525482" lon="-5.437644">
        <ele>791.4</ele>
        <time>2021-08-20T06:49:42Z</time>
      </trkpt>
      <trkpt lat="42.525645" lon="-5.437765">
        <ele>791.2</ele>
        <time>2021-08-20T06:49:54Z</time>
      </trkpt>
      <trkpt lat="42.525804" lon="-5.437888">
        <ele>788.3</ele>
        <time>2021-08-20T06:50:07Z</time>
      </trkpt>
      <trkpt lat="42.525964" lon="-5.438011">
        <ele>790.7</ele>
        <time>2021-08-20T06:50:20Z</time>
      </trkpt>
      <trkpt lat="42.526123" lon="-5.438127">
        <ele>790.2</ele>
        <time>2021-08-20T06:50:35Z</time>
      </trkpt>
      <trkpt lat="42.526289" lon="-5.438256">
        <ele>789.4</ele>
        <time>2021-08-20T06:50:48Z</time>
      </trkpt>
      <trkpt lat="42.526461" lon="-5.438378">
        <ele>790.6</ele>
        <time>2021-08-20T06:51:01Z</time>
      </trkpt>
      <trkpt lat="42.526636" lon="-5.438479">
        <ele>791.3</ele>
        <time>2021-08-20T06:51:14Z</time>
      </trkpt>
      <trkpt lat="42.526805" lon="-5.438587">
        <ele>791.3</ele>
        <time>2021-08-20T06:51:28Z</time>
      </trkpt>
      <trkpt lat="42.526959" lon="-5.438736">
        <ele>790.3</ele>
        <time>2021-08-20T06:51:43Z</time>
      </trkpt>
      <trkpt lat="42.527132" lon="-5.438839">
        <ele>789.3</ele>
        <time>2021-08-20T06:51:54Z</time>
      </trkpt>
      <trkpt lat="42.527300" lon="-5.438955">
        <ele>789.5</ele>
        <time>2021-08-20T06:52:08Z</time>
      </trkpt>
      <trkpt lat="42.527454" lon="-5.439089">
        <ele>790.4</ele>
        <time>2021-08-20T06:52:21Z</time>
      </trkpt>
      <trkpt lat="42.527616" lon="-5.439209">
        <ele>791.5</ele>
        <time>2021-08-20T06:52:34Z</time>
      </trkpt>
      <trkpt lat="42.527782" lon="-5.439327">
        <ele>790.7</ele>
        <time>2021-08-20T06:52:48Z</time>
      </trkpt>
      <trkpt lat="42.527943" lon="-5.439454">
        <ele>791.0</ele>
        <time>2021-08-20T06:53:01Z</time>
      </trkpt>
      <trkpt lat="42.528112" lon="-5.439572">
        <ele>791.4</ele>
        <time>2021-08-20T06:53:14Z</time>
      </trkpt>
      <trkpt lat="42.528279" lon="-5.439694">
        <ele>792.1</ele>
        <time>2021-08-20T06:53:28Z</time>
      </trkpt>
      <trkpt lat="42.528451" lon="-5.439808">
        <ele>791.7</ele>
        <time>2021-08-20T06:53:41Z</time>
      </trkpt>
      <trkpt lat="42.528603" lon="-5.439941">
        <ele>793.5</ele>
        <time>2021-08-20T06:53:54Z</time>
      </trkpt>
      <trkpt lat="42.528766" lon="-5.440051">
        <ele>792.4</ele>
        <time>2021-08-20T06:54:07Z</time>
      </trkpt>
      <trkpt lat="42.528925" lon="-5.440173">
        <ele>791.2</ele>
        <time>2021-08-20T06:54:21Z</time>
      </trkpt>
      <trkpt lat="42.529089" lon="-5.440281">
        <ele>791.2</ele>
        <time>2021-08-20T06:54:31Z</time>
      </trkpt>
      <trkpt lat="42.529259" lon="-5.440371">
        <ele>790.6</ele>
        <time>2021-08-20T06:54:44Z</time>
      </trkpt>
      <trkpt lat="42.529410" lon="-5.440506">
        <ele>791.2</ele>
        <time>2021-08-20T06:54:57Z</time>
      </trkpt>
      <trkpt lat="42.529568" lon="-5.440640">
        <ele>790.8</ele>
        <time>2021-08-20T06:55:10Z</time>
      </trkpt>
      <trkpt lat="42.529728" lon="-5.440757">
        <ele>799.0</ele>
        <time>2021-08-20T06:55:24Z</time>
      </trkpt>
      <trkpt lat="42.529892" lon="-5.440874">
        <ele>785.4</ele>
        <time>2021-08-20T06:55:40Z</time>
      </trkpt>
      <trkpt lat="42.530064" lon="-5.440959">
        <ele>786.9</ele>
        <time>2021-08-20T06:55:50Z</time>
      </trkpt>
      <trkpt lat="42.530222" lon="-5.441084">
        <ele>789.5</ele>
        <time>2021-08-20T06:56:05Z</time>
      </trkpt>
      <trkpt lat="42.530384" lon="-5.441231">
        <ele>790.0</ele>
        <time>2021-08-20T06:56:19Z</time>
      </trkpt>
      <trkpt lat="42.530541" lon="-5.441356">
        <ele>789.9</ele>
        <time>2021-08-20T06:56:30Z</time>
      </trkpt>
      <trkpt lat="42.530700" lon="-5.441475">
        <ele>790.3</ele>
        <time>2021-08-20T06:56:43Z</time>
      </trkpt>
      <trkpt lat="42.530870" lon="-5.441596">
        <ele>790.2</ele>
        <time>2021-08-20T06:56:57Z</time>
      </trkpt>
      <trkpt lat="42.531031" lon="-5.441713">
        <ele>789.5</ele>
        <time>2021-08-20T06:57:11Z</time>
      </trkpt>
      <trkpt lat="42.531192" lon="-5.441823">
        <ele>790.7</ele>
        <time>2021-08-20T06:57:22Z</time>
      </trkpt>
      <trkpt lat="42.531375" lon="-5.441872">
        <ele>793.5</ele>
        <time>2021-08-20T06:57:37Z</time>
      </trkpt>
      <trkpt lat="42.531536" lon="-5.442004">
        <ele>793.7</ele>
        <time>2021-08-20T06:57:49Z</time>
      </trkpt>
      <trkpt lat="42.531688" lon="-5.442137">
        <ele>793.5</ele>
        <time>2021-08-20T06:58:03Z</time>
      </trkpt>
      <trkpt lat="42.531855" lon="-5.442231">
        <ele>798.1</ele>
        <time>2021-08-20T06:58:15Z</time>
      </trkpt>
      <trkpt lat="42.532014" lon="-5.442350">
        <ele>798.1</ele>
        <time>2021-08-20T06:58:29Z</time>
      </trkpt>
      <trkpt lat="42.532182" lon="-5.442456">
        <ele>798.1</ele>
        <time>2021-08-20T06:58:40Z</time>
      </trkpt>
      <trkpt lat="42.532343" lon="-5.442576">
        <ele>798.1</ele>
        <time>2021-08-20T06:58:53Z</time>
      </trkpt>
      <trkpt lat="42.532486" lon="-5.442734">
        <ele>798.0</ele>
        <time>2021-08-20T06:59:10Z</time>
      </trkpt>
      <trkpt lat="42.532650" lon="-5.442864">
        <ele>798.0</ele>
        <time>2021-08-20T07:00:12Z</time>
      </trkpt>
      <trkpt lat="42.532804" lon="-5.442996">
        <ele>798.0</ele>
        <time>2021-08-20T07:00:26Z</time>
      </trkpt>
      <trkpt lat="42.532944" lon="-5.443149">
        <ele>798.1</ele>
        <time>2021-08-20T07:00:39Z</time>
      </trkpt>
      <trkpt lat="42.533116" lon="-5.443237">
        <ele>798.1</ele>
        <time>2021-08-20T07:00:52Z</time>
      </trkpt>
      <trkpt lat="42.533288" lon="-5.443323">
        <ele>798.0</ele>
        <time>2021-08-20T07:01:03Z</time>
      </trkpt>
      <trkpt lat="42.533459" lon="-5.443417">
        <ele>797.9</ele>
        <time>2021-08-20T07:01:17Z</time>
      </trkpt>
      <trkpt lat="42.533615" lon="-5.443543">
        <ele>797.8</ele>
        <time>2021-08-20T07:01:28Z</time>
      </trkpt>
      <trkpt lat="42.533777" lon="-5.443674">
        <ele>797.8</ele>
        <time>2021-08-20T07:01:42Z</time>
      </trkpt>
      <trkpt lat="42.533946" lon="-5.443789">
        <ele>796.6</ele>
        <time>2021-08-20T07:01:55Z</time>
      </trkpt>
      <trkpt lat="42.534107" lon="-5.443903">
        <ele>796.5</ele>
        <time>2021-08-20T07:02:09Z</time>
      </trkpt>
      <trkpt lat="42.534277" lon="-5.444032">
        <ele>797.3</ele>
        <time>2021-08-20T07:02:23Z</time>
      </trkpt>
      <trkpt lat="42.534425" lon="-5.444173">
        <ele>796.6</ele>
        <time>2021-08-20T07:02:36Z</time>
      </trkpt>
      <trkpt lat="42.534591" lon="-5.444316">
        <ele>796.5</ele>
        <time>2021-08-20T07:02:49Z</time>
      </trkpt>
      <trkpt lat="42.534760" lon="-5.444403">
        <ele>797.7</ele>
        <time>2021-08-20T07:03:02Z</time>
      </trkpt>
      <trkpt lat="42.534936" lon="-5.444544">
        <ele>798.0</ele>
        <time>2021-08-20T07:03:19Z</time>
      </trkpt>
      <trkpt lat="42.535118" lon="-5.444638">
        <ele>799.6</ele>
        <time>2021-08-20T07:03:33Z</time>
      </trkpt>
      <trkpt lat="42.535284" lon="-5.444751">
        <ele>799.0</ele>
        <time>2021-08-20T07:03:48Z</time>
      </trkpt>
      <trkpt lat="42.535442" lon="-5.444872">
        <ele>799.2</ele>
        <time>2021-08-20T07:04:02Z</time>
      </trkpt>
      <trkpt lat="42.535571" lon="-5.445047">
        <ele>799.2</ele>
        <time>2021-08-20T07:09:41Z</time>
      </trkpt>
      <trkpt lat="42.535734" lon="-5.445174">
        <ele>799.1</ele>
        <time>2021-08-20T07:09:54Z</time>
      </trkpt>
      <trkpt lat="42.535904" lon="-5.445271">
        <ele>799.1</ele>
        <time>2021-08-20T07:10:06Z</time>
      </trkpt>
      <trkpt lat="42.536068" lon="-5.445376">
        <ele>799.3</ele>
        <time>2021-08-20T07:10:18Z</time>
      </trkpt>
      <trkpt lat="42.536227" lon="-5.445492">
        <ele>799.4</ele>
        <time>2021-08-20T07:10:32Z</time>
      </trkpt>
      <trkpt lat="42.536391" lon="-5.445604">
        <ele>799.4</ele>
        <time>2021-08-20T07:10:47Z</time>
      </trkpt>
      <trkpt lat="42.536549" lon="-5.445745">
        <ele>799.4</ele>
        <time>2021-08-20T07:10:58Z</time>
      </trkpt>
      <trkpt lat="42.536730" lon="-5.445847">
        <ele>799.4</ele>
        <time>2021-08-20T07:11:14Z</time>
      </trkpt>
      <trkpt lat="42.536895" lon="-5.445968">
        <ele>799.8</ele>
        <time>2021-08-20T07:11:28Z</time>
      </trkpt>
      <trkpt lat="42.537050" lon="-5.446100">
        <ele>798.8</ele>
        <time>2021-08-20T07:11:42Z</time>
      </trkpt>
      <trkpt lat="42.537219" lon="-5.446228">
        <ele>798.6</ele>
        <time>2021-08-20T07:11:56Z</time>
      </trkpt>
      <trkpt lat="42.537383" lon="-5.446350">
        <ele>798.2</ele>
        <time>2021-08-20T07:12:09Z</time>
      </trkpt>
      <trkpt lat="42.537550" lon="-5.446451">
        <ele>798.1</ele>
        <time>2021-08-20T07:12:23Z</time>
      </trkpt>
      <trkpt lat="42.537687" lon="-5.446624">
        <ele>797.3</ele>
        <time>2021-08-20T07:12:34Z</time>
      </trkpt>
      <trkpt lat="42.537778" lon="-5.446839">
        <ele>797.3</ele>
        <time>2021-08-20T07:12:48Z</time>
      </trkpt>
      <trkpt lat="42.537970" lon="-5.446861">
        <ele>797.6</ele>
        <time>2021-08-20T07:13:52Z</time>
      </trkpt>
      <trkpt lat="42.538131" lon="-5.446977">
        <ele>802.0</ele>
        <time>2021-08-20T07:14:06Z</time>
      </trkpt>
      <trkpt lat="42.538304" lon="-5.447094">
        <ele>802.7</ele>
        <time>2021-08-20T07:14:18Z</time>
      </trkpt>
      <trkpt lat="42.538470" lon="-5.447199">
        <ele>802.5</ele>
        <time>2021-08-20T07:14:30Z</time>
      </trkpt>
      <trkpt lat="42.538626" lon="-5.447323">
        <ele>803.1</ele>
        <time>2021-08-20T07:14:45Z</time>
      </trkpt>
      <trkpt lat="42.538793" lon="-5.447458">
        <ele>804.2</ele>
        <time>2021-08-20T07:14:58Z</time>
      </trkpt>
      <trkpt lat="42.538958" lon="-5.447594">
        <ele>803.4</ele>
        <time>2021-08-20T07:15:12Z</time>
      </trkpt>
      <trkpt lat="42.539130" lon="-5.447708">
        <ele>801.5</ele>
        <time>2021-08-20T07:15:27Z</time>
      </trkpt>
      <trkpt lat="42.539293" lon="-5.447820">
        <ele>801.3</ele>
        <time>2021-08-20T07:15:40Z</time>
      </trkpt>
      <trkpt lat="42.539452" lon="-5.447951">
        <ele>799.5</ele>
        <time>2021-08-20T07:15:53Z</time>
      </trkpt>
      <trkpt lat="42.539623" lon="-5.448051">
        <ele>799.2</ele>
        <time>2021-08-20T07:16:07Z</time>
      </trkpt>
      <trkpt lat="42.539772" lon="-5.448191">
        <ele>800.4</ele>
        <time>2021-08-20T07:16:21Z</time>
      </trkpt>
      <trkpt lat="42.539939" lon="-5.448291">
        <ele>797.8</ele>
        <time>2021-08-20T07:16:33Z</time>
      </trkpt>
      <trkpt lat="42.540109" lon="-5.448400">
        <ele>798.1</ele>
        <time>2021-08-20T07:16:47Z</time>
      </trkpt>
      <trkpt lat="42.540271" lon="-5.448506">
        <ele>797.9</ele>
        <time>2021-08-20T07:16:59Z</time>
      </trkpt>
      <trkpt lat="42.540436" lon="-5.448646">
        <ele>798.3</ele>
        <time>2021-08-20T07:17:12Z</time>
      </trkpt>
      <trkpt lat="42.540586" lon="-5.448789">
        <ele>798.4</ele>
        <time>2021-08-20T07:17:27Z</time>
      </trkpt>
      <trkpt lat="42.540751" lon="-5.448891">
        <ele>798.3</ele>
        <time>2021-08-20T07:17:40Z</time>
      </trkpt>
      <trkpt lat="42.540908" lon="-5.449022">
        <ele>798.2</ele>
        <time>2021-08-20T07:17:55Z</time>
      </trkpt>
      <trkpt lat="42.541096" lon="-5.449090">
        <ele>798.4</ele>
        <time>2021-08-20T07:18:08Z</time>
      </trkpt>
      <trkpt lat="42.541271" lon="-5.449155">
        <ele>798.3</ele>
        <time>2021-08-20T07:18:21Z</time>
      </trkpt>
      <trkpt lat="42.541428" lon="-5.449278">
        <ele>798.3</ele>
        <time>2021-08-20T07:18:35Z</time>
      </trkpt>
      <trkpt lat="42.541591" lon="-5.449398">
        <ele>798.4</ele>
        <time>2021-08-20T07:18:49Z</time>
      </trkpt>
      <trkpt lat="42.541763" lon="-5.449532">
        <ele>798.5</ele>
        <time>2021-08-20T07:19:03Z</time>
      </trkpt>
      <trkpt lat="42.541883" lon="-5.449724">
        <ele>799.2</ele>
        <time>2021-08-20T07:19:16Z</time>
      </trkpt>
      <trkpt lat="42.541995" lon="-5.449918">
        <ele>799.3</ele>
        <time>2021-08-20T07:19:31Z</time>
      </trkpt>
      <trkpt lat="42.542156" lon="-5.450036">
        <ele>799.1</ele>
        <time>2021-08-20T07:19:44Z</time>
      </trkpt>
      <trkpt lat="42.542285" lon="-5.450214">
        <ele>799.1</ele>
        <time>2021-08-20T07:20:01Z</time>
      </trkpt>
      <trkpt lat="42.542413" lon="-5.450397">
        <ele>799.1</ele>
        <time>2021-08-20T07:20:20Z</time>
      </trkpt>
      <trkpt lat="42.542588" lon="-5.450466">
        <ele>799.1</ele>
        <time>2021-08-20T07:20:34Z</time>
      </trkpt>
      <trkpt lat="42.542696" lon="-5.450666">
        <ele>799.1</ele>
        <time>2021-08-20T07:20:54Z</time>
      </trkpt>
      <trkpt lat="42.542718" lon="-5.450918">
        <ele>803.2</ele>
        <time>2021-08-20T07:21:07Z</time>
      </trkpt>
      <trkpt lat="42.542676" lon="-5.451158">
        <ele>808.4</ele>
        <time>2021-08-20T07:21:25Z</time>
      </trkpt>
      <trkpt lat="42.542746" lon="-5.451386">
        <ele>804.9</ele>
        <time>2021-08-20T07:21:42Z</time>
      </trkpt>
      <trkpt lat="42.542891" lon="-5.451552">
        <ele>802.0</ele>
        <time>2021-08-20T07:21:56Z</time>
      </trkpt>
      <trkpt lat="42.543068" lon="-5.451668">
        <ele>803.0</ele>
        <time>2021-08-20T07:22:50Z</time>
      </trkpt>
      <trkpt lat="42.543165" lon="-5.451890">
        <ele>802.5</ele>
        <time>2021-08-20T07:23:29Z</time>
      </trkpt>
      <trkpt lat="42.543280" lon="-5.452096">
        <ele>802.0</ele>
        <time>2021-08-20T07:23:42Z</time>
      </trkpt>
      <trkpt lat="42.543375" lon="-5.452321">
        <ele>798.6</ele>
        <time>2021-08-20T07:38:24Z</time>
      </trkpt>
      <trkpt lat="42.543419" lon="-5.452560">
        <ele>802.5</ele>
        <time>2021-08-20T07:38:39Z</time>
      </trkpt>
      <trkpt lat="42.543465" lon="-5.452800">
        <ele>804.2</ele>
        <time>2021-08-20T07:38:58Z</time>
      </trkpt>
      <trkpt lat="42.543512" lon="-5.453040">
        <ele>806.8</ele>
        <time>2021-08-20T07:39:12Z</time>
      </trkpt>
      <trkpt lat="42.543558" lon="-5.453300">
        <ele>811.6</ele>
        <time>2021-08-20T07:39:28Z</time>
      </trkpt>
      <trkpt lat="42.543606" lon="-5.453540">
        <ele>799.9</ele>
        <time>2021-08-20T07:39:46Z</time>
      </trkpt>
      <trkpt lat="42.543730" lon="-5.453721">
        <ele>801.0</ele>
        <time>2021-08-20T07:40:03Z</time>
      </trkpt>
      <trkpt lat="42.543864" lon="-5.453891">
        <ele>801.4</ele>
        <time>2021-08-20T07:41:36Z</time>
      </trkpt>
      <trkpt lat="42.543937" lon="-5.454124">
        <ele>802.6</ele>
        <time>2021-08-20T07:41:50Z</time>
      </trkpt>
      <trkpt lat="42.544013" lon="-5.454367">
        <ele>802.3</ele>
        <time>2021-08-20T07:42:10Z</time>
      </trkpt>
      <trkpt lat="42.544073" lon="-5.454606">
        <ele>802.4</ele>
        <time>2021-08-20T07:42:25Z</time>
      </trkpt>
      <trkpt lat="42.544181" lon="-5.454824">
        <ele>802.3</ele>
        <time>2021-08-20T07:42:40Z</time>
      </trkpt>
      <trkpt lat="42.544157" lon="-5.455071">
        <ele>802.3</ele>
        <time>2021-08-20T07:42:57Z</time>
      </trkpt>
      <trkpt lat="42.544232" lon="-5.455310">
        <ele>802.3</ele>
        <time>2021-08-20T07:43:16Z</time>
      </trkpt>
      <trkpt lat="42.544310" lon="-5.455531">
        <ele>802.4</ele>
        <time>2021-08-20T07:43:31Z</time>
      </trkpt>
      <trkpt lat="42.544376" lon="-5.455762">
        <ele>802.4</ele>
        <time>2021-08-20T07:43:46Z</time>
      </trkpt>
      <trkpt lat="42.544371" lon="-5.456008">
        <ele>802.5</ele>
        <time>2021-08-20T07:44:01Z</time>
      </trkpt>
      <trkpt lat="42.544369" lon="-5.456253">
        <ele>802.6</ele>
        <time>2021-08-20T07:44:16Z</time>
      </trkpt>
      <trkpt lat="42.544353" lon="-5.456504">
        <ele>802.7</ele>
        <time>2021-08-20T07:44:32Z</time>
      </trkpt>
      <trkpt lat="42.544413" lon="-5.456745">
        <ele>803.8</ele>
        <time>2021-08-20T07:45:08Z</time>
      </trkpt>
      <trkpt lat="42.544462" lon="-5.456984">
        <ele>804.2</ele>
        <time>2021-08-20T07:45:22Z</time>
      </trkpt>
      <trkpt lat="42.544502" lon="-5.457225">
        <ele>804.2</ele>
        <time>2021-08-20T07:45:37Z</time>
      </trkpt>
      <trkpt lat="42.544604" lon="-5.457437">
        <ele>804.6</ele>
        <time>2021-08-20T07:45:53Z</time>
      </trkpt>
      <trkpt lat="42.544662" lon="-5.457674">
        <ele>805.8</ele>
        <time>2021-08-20T07:46:11Z</time>
      </trkpt>
      <trkpt lat="42.544778" lon="-5.457879">
        <ele>805.8</ele>
        <time>2021-08-20T07:46:28Z</time>
      </trkpt>
      <trkpt lat="42.544875" lon="-5.458093">
        <ele>806.0</ele>
        <time>2021-08-20T07:46:43Z</time>
      </trkpt>
      <trkpt lat="42.544958" lon="-5.458324">
        <ele>806.3</ele>
        <time>2021-08-20T07:46:59Z</time>
      </trkpt>
      <trkpt lat="42.545090" lon="-5.458503">
        <ele>806.3</ele>
        <time>2021-08-20T07:47:16Z</time>
      </trkpt>
      <trkpt lat="42.545220" lon="-5.458686">
        <ele>806.6</ele>
        <time>2021-08-20T07:47:32Z</time>
      </trkpt>
      <trkpt lat="42.545339" lon="-5.458874">
        <ele>806.9</ele>
        <time>2021-08-20T07:47:44Z</time>
      </trkpt>
      <trkpt lat="42.545464" lon="-5.459058">
        <ele>806.8</ele>
        <time>2021-08-20T07:48:02Z</time>
      </trkpt>
      <trkpt lat="42.545600" lon="-5.459221">
        <ele>806.9</ele>
        <time>2021-08-20T07:48:16Z</time>
      </trkpt>
      <trkpt lat="42.545740" lon="-5.459388">
        <ele>806.9</ele>
        <time>2021-08-20T07:48:31Z</time>
      </trkpt>
      <trkpt lat="42.545881" lon="-5.459549">
        <ele>807.0</ele>
        <time>2021-08-20T07:48:46Z</time>
      </trkpt>
      <trkpt lat="42.546013" lon="-5.459719">
        <ele>807.0</ele>
        <time>2021-08-20T07:49:02Z</time>
      </trkpt>
      <trkpt lat="42.546174" lon="-5.459860">
        <ele>807.4</ele>
        <time>2021-08-20T07:49:19Z</time>
      </trkpt>
      <trkpt lat="42.546301" lon="-5.460040">
        <ele>807.5</ele>
        <time>2021-08-20T07:49:33Z</time>
      </trkpt>
      <trkpt lat="42.546401" lon="-5.460251">
        <ele>807.6</ele>
        <time>2021-08-20T07:49:48Z</time>
      </trkpt>
      <trkpt lat="42.546560" lon="-5.460374">
        <ele>807.3</ele>
        <time>2021-08-20T07:50:03Z</time>
      </trkpt>
      <trkpt lat="42.546680" lon="-5.460573">
        <ele>807.3</ele>
        <time>2021-08-20T07:50:21Z</time>
      </trkpt>
      <trkpt lat="42.546754" lon="-5.460797">
        <ele>807.3</ele>
        <time>2021-08-20T07:50:35Z</time>
      </trkpt>
      <trkpt lat="42.546878" lon="-5.460981">
        <ele>807.3</ele>
        <time>2021-08-20T07:50:50Z</time>
      </trkpt>
      <trkpt lat="42.547016" lon="-5.461145">
        <ele>807.3</ele>
        <time>2021-08-20T07:51:03Z</time>
      </trkpt>
      <trkpt lat="42.547145" lon="-5.461329">
        <ele>807.5</ele>
        <time>2021-08-20T07:51:18Z</time>
      </trkpt>
      <trkpt lat="42.547290" lon="-5.461490">
        <ele>807.5</ele>
        <time>2021-08-20T07:51:32Z</time>
      </trkpt>
      <trkpt lat="42.547434" lon="-5.461652">
        <ele>808.0</ele>
        <time>2021-08-20T07:51:47Z</time>
      </trkpt>
      <trkpt lat="42.547532" lon="-5.461875">
        <ele>808.1</ele>
        <time>2021-08-20T07:52:02Z</time>
      </trkpt>
      <trkpt lat="42.547669" lon="-5.462048">
        <ele>808.3</ele>
        <time>2021-08-20T07:52:19Z</time>
      </trkpt>
      <trkpt lat="42.547780" lon="-5.462243">
        <ele>808.6</ele>
        <time>2021-08-20T07:52:32Z</time>
      </trkpt>
      <trkpt lat="42.547931" lon="-5.462391">
        <ele>808.8</ele>
        <time>2021-08-20T07:52:47Z</time>
      </trkpt>
      <trkpt lat="42.548050" lon="-5.462580">
        <ele>808.7</ele>
        <time>2021-08-20T07:53:01Z</time>
      </trkpt>
      <trkpt lat="42.548185" lon="-5.462745">
        <ele>808.7</ele>
        <time>2021-08-20T07:53:15Z</time>
      </trkpt>
      <trkpt lat="42.548297" lon="-5.462940">
        <ele>808.6</ele>
        <time>2021-08-20T07:53:31Z</time>
      </trkpt>
      <trkpt lat="42.548423" lon="-5.463122">
        <ele>808.8</ele>
        <time>2021-08-20T07:53:46Z</time>
      </trkpt>
      <trkpt lat="42.548566" lon="-5.463282">
        <ele>808.8</ele>
        <time>2021-08-20T07:54:02Z</time>
      </trkpt>
      <trkpt lat="42.548658" lon="-5.463492">
        <ele>809.1</ele>
        <time>2021-08-20T07:54:17Z</time>
      </trkpt>
      <trkpt lat="42.548805" lon="-5.463656">
        <ele>809.1</ele>
        <time>2021-08-20T07:54:33Z</time>
      </trkpt>
      <trkpt lat="42.548920" lon="-5.463851">
        <ele>809.4</ele>
        <time>2021-08-20T07:54:48Z</time>
      </trkpt>
      <trkpt lat="42.549063" lon="-5.464025">
        <ele>809.4</ele>
        <time>2021-08-20T07:55:04Z</time>
      </trkpt>
      <trkpt lat="42.549185" lon="-5.464220">
        <ele>810.5</ele>
        <time>2021-08-20T07:55:22Z</time>
      </trkpt>
      <trkpt lat="42.549302" lon="-5.464410">
        <ele>811.1</ele>
        <time>2021-08-20T07:55:37Z</time>
      </trkpt>
      <trkpt lat="42.549471" lon="-5.464524">
        <ele>810.0</ele>
        <time>2021-08-20T07:55:51Z</time>
      </trkpt>
      <trkpt lat="42.549585" lon="-5.464718">
        <ele>809.6</ele>
        <time>2021-08-20T07:56:05Z</time>
      </trkpt>
      <trkpt lat="42.549724" lon="-5.464875">
        <ele>809.6</ele>
        <time>2021-08-20T07:56:19Z</time>
      </trkpt>
      <trkpt lat="42.549826" lon="-5.465078">
        <ele>809.5</ele>
        <time>2021-08-20T07:56:33Z</time>
      </trkpt>
      <trkpt lat="42.549955" lon="-5.465251">
        <ele>809.4</ele>
        <time>2021-08-20T07:56:46Z</time>
      </trkpt>
      <trkpt lat="42.550115" lon="-5.465389">
        <ele>809.4</ele>
        <time>2021-08-20T07:57:01Z</time>
      </trkpt>
      <trkpt lat="42.550226" lon="-5.465594">
        <ele>809.6</ele>
        <time>2021-08-20T07:57:15Z</time>
      </trkpt>
      <trkpt lat="42.550365" lon="-5.465761">
        <ele>809.7</ele>
        <time>2021-08-20T07:57:33Z</time>
      </trkpt>
      <trkpt lat="42.550495" lon="-5.465941">
        <ele>810.0</ele>
        <time>2021-08-20T07:57:47Z</time>
      </trkpt>
      <trkpt lat="42.550622" lon="-5.466121">
        <ele>810.0</ele>
        <time>2021-08-20T07:58:00Z</time>
      </trkpt>
      <trkpt lat="42.550757" lon="-5.466286">
        <ele>810.0</ele>
        <time>2021-08-20T07:58:17Z</time>
      </trkpt>
      <trkpt lat="42.550860" lon="-5.466488">
        <ele>810.0</ele>
        <time>2021-08-20T07:58:29Z</time>
      </trkpt>
      <trkpt lat="42.551043" lon="-5.466429">
        <ele>810.0</ele>
        <time>2021-08-20T07:58:46Z</time>
      </trkpt>
      <trkpt lat="42.551216" lon="-5.466497">
        <ele>810.1</ele>
        <time>2021-08-20T07:59:09Z</time>
      </trkpt>
      <trkpt lat="42.551375" lon="-5.466627">
        <ele>809.9</ele>
        <time>2021-08-20T07:59:22Z</time>
      </trkpt>
      <trkpt lat="42.551518" lon="-5.466800">
        <ele>810.0</ele>
        <time>2021-08-20T07:59:37Z</time>
      </trkpt>
      <trkpt lat="42.551654" lon="-5.466970">
        <ele>810.1</ele>
        <time>2021-08-20T07:59:51Z</time>
      </trkpt>
      <trkpt lat="42.551799" lon="-5.467121">
        <ele>809.9</ele>
        <time>2021-08-20T08:00:06Z</time>
      </trkpt>
      <trkpt lat="42.551942" lon="-5.467286">
        <ele>809.9</ele>
        <time>2021-08-20T08:00:20Z</time>
      </trkpt>
      <trkpt lat="42.552099" lon="-5.467437">
        <ele>809.8</ele>
        <time>2021-08-20T08:00:34Z</time>
      </trkpt>
      <trkpt lat="42.552245" lon="-5.467589">
        <ele>809.8</ele>
        <time>2021-08-20T08:00:51Z</time>
      </trkpt>
      <trkpt lat="42.552393" lon="-5.467733">
        <ele>809.8</ele>
        <time>2021-08-20T08:01:03Z</time>
      </trkpt>
      <trkpt lat="42.552531" lon="-5.467902">
        <ele>809.7</ele>
        <time>2021-08-20T08:01:20Z</time>
      </trkpt>
      <trkpt lat="42.552683" lon="-5.468045">
        <ele>809.9</ele>
        <time>2021-08-20T08:01:33Z</time>
      </trkpt>
      <trkpt lat="42.552828" lon="-5.468204">
        <ele>821.0</ele>
        <time>2021-08-20T08:01:48Z</time>
      </trkpt>
      <trkpt lat="42.552977" lon="-5.468347">
        <ele>825.9</ele>
        <time>2021-08-20T08:02:03Z</time>
      </trkpt>
      <trkpt lat="42.553134" lon="-5.468495">
        <ele>828.1</ele>
        <time>2021-08-20T08:02:17Z</time>
      </trkpt>
      <trkpt lat="42.553287" lon="-5.468635">
        <ele>827.1</ele>
        <time>2021-08-20T08:02:33Z</time>
      </trkpt>
      <trkpt lat="42.553449" lon="-5.468775">
        <ele>825.5</ele>
        <time>2021-08-20T08:02:47Z</time>
      </trkpt>
      <trkpt lat="42.553581" lon="-5.468943">
        <ele>824.4</ele>
        <time>2021-08-20T08:03:02Z</time>
      </trkpt>
      <trkpt lat="42.553730" lon="-5.469105">
        <ele>827.5</ele>
        <time>2021-08-20T08:03:17Z</time>
      </trkpt>
      <trkpt lat="42.553860" lon="-5.469276">
        <ele>827.7</ele>
        <time>2021-08-20T08:03:33Z</time>
      </trkpt>
      <trkpt lat="42.553987" lon="-5.469454">
        <ele>827.4</ele>
        <time>2021-08-20T08:03:44Z</time>
      </trkpt>
      <trkpt lat="42.554116" lon="-5.469633">
        <ele>827.3</ele>
        <time>2021-08-20T08:03:59Z</time>
      </trkpt>
      <trkpt lat="42.554232" lon="-5.469823">
        <ele>827.5</ele>
        <time>2021-08-20T08:04:14Z</time>
      </trkpt>
      <trkpt lat="42.554361" lon="-5.470013">
        <ele>828.1</ele>
        <time>2021-08-20T08:04:29Z</time>
      </trkpt>
      <trkpt lat="42.554517" lon="-5.470143">
        <ele>820.4</ele>
        <time>2021-08-20T08:04:44Z</time>
      </trkpt>
      <trkpt lat="42.554673" lon="-5.470267">
        <ele>819.5</ele>
        <time>2021-08-20T08:04:57Z</time>
      </trkpt>
      <trkpt lat="42.554801" lon="-5.470442">
        <ele>818.8</ele>
        <time>2021-08-20T08:05:13Z</time>
      </trkpt>
      <trkpt lat="42.554885" lon="-5.470668">
        <ele>818.8</ele>
        <time>2021-08-20T08:05:29Z</time>
      </trkpt>
      <trkpt lat="42.555024" lon="-5.470827">
        <ele>818.7</ele>
        <time>2021-08-20T08:05:42Z</time>
      </trkpt>
      <trkpt lat="42.555153" lon="-5.471010">
        <ele>818.7</ele>
        <time>2021-08-20T08:05:56Z</time>
      </trkpt>
      <trkpt lat="42.555281" lon="-5.471181">
        <ele>825.0</ele>
        <time>2021-08-20T08:06:09Z</time>
      </trkpt>
      <trkpt lat="42.555403" lon="-5.471371">
        <ele>824.7</ele>
        <time>2021-08-20T08:06:24Z</time>
      </trkpt>
      <trkpt lat="42.555507" lon="-5.471580">
        <ele>825.4</ele>
        <time>2021-08-20T08:06:39Z</time>
      </trkpt>
      <trkpt lat="42.555618" lon="-5.471775">
        <ele>826.6</ele>
        <time>2021-08-20T08:06:55Z</time>
      </trkpt>
      <trkpt lat="42.555721" lon="-5.471978">
        <ele>826.4</ele>
        <time>2021-08-20T08:07:07Z</time>
      </trkpt>
      <trkpt lat="42.555806" lon="-5.472199">
        <ele>829.8</ele>
        <time>2021-08-20T08:07:20Z</time>
      </trkpt>
      <trkpt lat="42.555877" lon="-5.472438">
        <ele>831.4</ele>
        <time>2021-08-20T08:07:35Z</time>
      </trkpt>
      <trkpt lat="42.555978" lon="-5.472641">
        <ele>833.1</ele>
        <time>2021-08-20T08:07:48Z</time>
      </trkpt>
      <trkpt lat="42.556089" lon="-5.472835">
        <ele>831.1</ele>
        <time>2021-08-20T08:08:02Z</time>
      </trkpt>
      <trkpt lat="42.556202" lon="-5.473029">
        <ele>829.2</ele>
        <time>2021-08-20T08:08:17Z</time>
      </trkpt>
      <trkpt lat="42.556282" lon="-5.473250">
        <ele>832.5</ele>
        <time>2021-08-20T08:08:32Z</time>
      </trkpt>
      <trkpt lat="42.556354" lon="-5.473479">
        <ele>827.5</ele>
        <time>2021-08-20T08:09:23Z</time>
      </trkpt>
      <trkpt lat="42.556400" lon="-5.473717">
        <ele>825.2</ele>
        <time>2021-08-20T08:09:39Z</time>
      </trkpt>
      <trkpt lat="42.556467" lon="-5.473955">
        <ele>828.4</ele>
        <time>2021-08-20T08:09:53Z</time>
      </trkpt>
      <trkpt lat="42.556528" lon="-5.474204">
        <ele>829.3</ele>
        <time>2021-08-20T08:10:07Z</time>
      </trkpt>
      <trkpt lat="42.556623" lon="-5.474414">
        <ele>832.4</ele>
        <time>2021-08-20T08:10:20Z</time>
      </trkpt>
      <trkpt lat="42.556727" lon="-5.474627">
        <ele>832.2</ele>
        <time>2021-08-20T08:10:36Z</time>
      </trkpt>
      <trkpt lat="42.556787" lon="-5.474858">
        <ele>832.4</ele>
        <time>2021-08-20T08:10:50Z</time>
      </trkpt>
      <trkpt lat="42.556876" lon="-5.475072">
        <ele>827.5</ele>
        <time>2021-08-20T08:11:04Z</time>
      </trkpt>
      <trkpt lat="42.556964" lon="-5.475304">
        <ele>828.3</ele>
        <time>2021-08-20T08:11:18Z</time>
      </trkpt>
      <trkpt lat="42.557058" lon="-5.475522">
        <ele>829.4</ele>
        <time>2021-08-20T08:11:32Z</time>
      </trkpt>
      <trkpt lat="42.557190" lon="-5.475714">
        <ele>829.3</ele>
        <time>2021-08-20T08:11:47Z</time>
      </trkpt>
      <trkpt lat="42.557304" lon="-5.475921">
        <ele>830.3</ele>
        <time>2021-08-20T08:12:00Z</time>
      </trkpt>
      <trkpt lat="42.557428" lon="-5.476102">
        <ele>831.2</ele>
        <time>2021-08-20T08:12:15Z</time>
      </trkpt>
      <trkpt lat="42.557564" lon="-5.476263">
        <ele>828.7</ele>
        <time>2021-08-20T08:12:29Z</time>
      </trkpt>
      <trkpt lat="42.557694" lon="-5.476439">
        <ele>829.4</ele>
        <time>2021-08-20T08:12:41Z</time>
      </trkpt>
      <trkpt lat="42.557817" lon="-5.476634">
        <ele>829.8</ele>
        <time>2021-08-20T08:12:55Z</time>
      </trkpt>
      <trkpt lat="42.557929" lon="-5.476831">
        <ele>828.5</ele>
        <time>2021-08-20T08:13:10Z</time>
      </trkpt>
      <trkpt lat="42.558081" lon="-5.476989">
        <ele>826.1</ele>
        <time>2021-08-20T08:13:23Z</time>
      </trkpt>
      <trkpt lat="42.558191" lon="-5.477187">
        <ele>827.9</ele>
        <time>2021-08-20T08:13:39Z</time>
      </trkpt>
      <trkpt lat="42.558288" lon="-5.477395">
        <ele>827.3</ele>
        <time>2021-08-20T08:13:51Z</time>
      </trkpt>
      <trkpt lat="42.558434" lon="-5.477578">
        <ele>824.9</ele>
        <time>2021-08-20T08:14:14Z</time>
      </trkpt>
      <trkpt lat="42.558533" lon="-5.477786">
        <ele>826.9</ele>
        <time>2021-08-20T08:14:28Z</time>
      </trkpt>
      <trkpt lat="42.558628" lon="-5.477994">
        <ele>830.3</ele>
        <time>2021-08-20T08:14:41Z</time>
      </trkpt>
      <trkpt lat="42.558739" lon="-5.478200">
        <ele>831.3</ele>
        <time>2021-08-20T08:14:56Z</time>
      </trkpt>
      <trkpt lat="42.558840" lon="-5.478405">
        <ele>834.0</ele>
        <time>2021-08-20T08:15:09Z</time>
      </trkpt>
      <trkpt lat="42.558942" lon="-5.478617">
        <ele>835.5</ele>
        <time>2021-08-20T08:15:24Z</time>
      </trkpt>
      <trkpt lat="42.559042" lon="-5.478833">
        <ele>834.2</ele>
        <time>2021-08-20T08:15:38Z</time>
      </trkpt>
      <trkpt lat="42.559168" lon="-5.479015">
        <ele>836.6</ele>
        <time>2021-08-20T08:15:51Z</time>
      </trkpt>
      <trkpt lat="42.559283" lon="-5.479214">
        <ele>835.4</ele>
        <time>2021-08-20T08:16:05Z</time>
      </trkpt>
      <trkpt lat="42.559399" lon="-5.479411">
        <ele>836.5</ele>
        <time>2021-08-20T08:16:22Z</time>
      </trkpt>
      <trkpt lat="42.559534" lon="-5.479596">
        <ele>839.7</ele>
        <time>2021-08-20T08:16:35Z</time>
      </trkpt>
      <trkpt lat="42.559682" lon="-5.479741">
        <ele>838.6</ele>
        <time>2021-08-20T08:16:48Z</time>
      </trkpt>
      <trkpt lat="42.559819" lon="-5.479911">
        <ele>838.8</ele>
        <time>2021-08-20T08:17:01Z</time>
      </trkpt>
      <trkpt lat="42.559964" lon="-5.480066">
        <ele>837.4</ele>
        <time>2021-08-20T08:17:15Z</time>
      </trkpt>
      <trkpt lat="42.560120" lon="-5.480194">
        <ele>841.0</ele>
        <time>2021-08-20T08:17:28Z</time>
      </trkpt>
      <trkpt lat="42.560271" lon="-5.480334">
        <ele>840.6</ele>
        <time>2021-08-20T08:17:42Z</time>
      </trkpt>
      <trkpt lat="42.560415" lon="-5.480492">
        <ele>839.0</ele>
        <time>2021-08-20T08:17:55Z</time>
      </trkpt>
      <trkpt lat="42.560562" lon="-5.480651">
        <ele>838.6</ele>
        <time>2021-08-20T08:18:10Z</time>
      </trkpt>
      <trkpt lat="42.560705" lon="-5.480821">
        <ele>837.4</ele>
        <time>2021-08-20T08:18:23Z</time>
      </trkpt>
      <trkpt lat="42.560837" lon="-5.481004">
        <ele>828.8</ele>
        <time>2021-08-20T08:18:37Z</time>
      </trkpt>
      <trkpt lat="42.560965" lon="-5.481191">
        <ele>827.9</ele>
        <time>2021-08-20T08:18:49Z</time>
      </trkpt>
      <trkpt lat="42.561093" lon="-5.481376">
        <ele>828.0</ele>
        <time>2021-08-20T08:19:03Z</time>
      </trkpt>
      <trkpt lat="42.561211" lon="-5.481567">
        <ele>828.1</ele>
        <time>2021-08-20T08:19:19Z</time>
      </trkpt>
      <trkpt lat="42.561342" lon="-5.481748">
        <ele>828.0</ele>
        <time>2021-08-20T08:19:31Z</time>
      </trkpt>
      <trkpt lat="42.561429" lon="-5.481970">
        <ele>827.9</ele>
        <time>2021-08-20T08:19:45Z</time>
      </trkpt>
      <trkpt lat="42.561555" lon="-5.482151">
        <ele>828.0</ele>
        <time>2021-08-20T08:19:59Z</time>
      </trkpt>
      <trkpt lat="42.561695" lon="-5.482315">
        <ele>828.0</ele>
        <time>2021-08-20T08:20:11Z</time>
      </trkpt>
      <trkpt lat="42.561829" lon="-5.482500">
        <ele>828.0</ele>
        <time>2021-08-20T08:20:26Z</time>
      </trkpt>
      <trkpt lat="42.561968" lon="-5.482672">
        <ele>828.0</ele>
        <time>2021-08-20T08:20:41Z</time>
      </trkpt>
      <trkpt lat="42.562079" lon="-5.482872">
        <ele>828.1</ele>
        <time>2021-08-20T08:20:56Z</time>
      </trkpt>
      <trkpt lat="42.562228" lon="-5.483044">
        <ele>828.1</ele>
        <time>2021-08-20T08:21:09Z</time>
      </trkpt>
      <trkpt lat="42.562384" lon="-5.483204">
        <ele>828.2</ele>
        <time>2021-08-20T08:21:25Z</time>
      </trkpt>
      <trkpt lat="42.562528" lon="-5.483353">
        <ele>829.0</ele>
        <time>2021-08-20T08:21:41Z</time>
      </trkpt>
      <trkpt lat="42.562645" lon="-5.483554">
        <ele>828.8</ele>
        <time>2021-08-20T08:21:54Z</time>
      </trkpt>
      <trkpt lat="42.562729" lon="-5.483775">
        <ele>828.8</ele>
        <time>2021-08-20T08:22:07Z</time>
      </trkpt>
      <trkpt lat="42.562805" lon="-5.484002">
        <ele>828.7</ele>
        <time>2021-08-20T08:22:22Z</time>
      </trkpt>
      <trkpt lat="42.562898" lon="-5.484220">
        <ele>828.7</ele>
        <time>2021-08-20T08:22:35Z</time>
      </trkpt>
      <trkpt lat="42.562969" lon="-5.484448">
        <ele>828.7</ele>
        <time>2021-08-20T08:22:49Z</time>
      </trkpt>
      <trkpt lat="42.563052" lon="-5.484667">
        <ele>828.7</ele>
        <time>2021-08-20T08:23:01Z</time>
      </trkpt>
      <trkpt lat="42.563138" lon="-5.484895">
        <ele>828.6</ele>
        <time>2021-08-20T08:23:17Z</time>
      </trkpt>
      <trkpt lat="42.563216" lon="-5.485126">
        <ele>828.6</ele>
        <time>2021-08-20T08:23:31Z</time>
      </trkpt>
      <trkpt lat="42.563311" lon="-5.485353">
        <ele>844.3</ele>
        <time>2021-08-20T08:23:45Z</time>
      </trkpt>
      <trkpt lat="42.563399" lon="-5.485591">
        <ele>844.3</ele>
        <time>2021-08-20T08:24:00Z</time>
      </trkpt>
      <trkpt lat="42.563547" lon="-5.485756">
        <ele>842.5</ele>
        <time>2021-08-20T08:24:15Z</time>
      </trkpt>
      <trkpt lat="42.563708" lon="-5.485888">
        <ele>845.2</ele>
        <time>2021-08-20T08:24:30Z</time>
      </trkpt>
      <trkpt lat="42.563859" lon="-5.486027">
        <ele>844.8</ele>
        <time>2021-08-20T08:24:50Z</time>
      </trkpt>
      <trkpt lat="42.564015" lon="-5.486331">
        <ele>808.3</ele>
        <time>2021-08-20T08:25:07Z</time>
      </trkpt>
      <trkpt lat="42.564218" lon="-5.486284">
        <ele>837.7</ele>
        <time>2021-08-20T08:25:15Z</time>
      </trkpt>
      <trkpt lat="42.564384" lon="-5.486396">
        <ele>834.6</ele>
        <time>2021-08-20T08:25:27Z</time>
      </trkpt>
      <trkpt lat="42.564445" lon="-5.486628">
        <ele>835.1</ele>
        <time>2021-08-20T08:25:44Z</time>
      </trkpt>
      <trkpt lat="42.564419" lon="-5.486877">
        <ele>837.2</ele>
        <time>2021-08-20T08:25:54Z</time>
      </trkpt>
      <trkpt lat="42.564413" lon="-5.487123">
        <ele>838.2</ele>
        <time>2021-08-20T08:26:08Z</time>
      </trkpt>
      <trkpt lat="42.564407" lon="-5.487376">
        <ele>836.3</ele>
        <time>2021-08-20T08:26:22Z</time>
      </trkpt>
      <trkpt lat="42.564377" lon="-5.487617">
        <ele>834.5</ele>
        <time>2021-08-20T08:26:42Z</time>
      </trkpt>
      <trkpt lat="42.564380" lon="-5.487873">
        <ele>834.3</ele>
        <time>2021-08-20T08:26:57Z</time>
      </trkpt>
      <trkpt lat="42.564376" lon="-5.488121">
        <ele>834.5</ele>
        <time>2021-08-20T08:27:11Z</time>
      </trkpt>
      <trkpt lat="42.564417" lon="-5.488365">
        <ele>838.7</ele>
        <time>2021-08-20T08:27:28Z</time>
      </trkpt>
      <trkpt lat="42.564504" lon="-5.488583">
        <ele>837.8</ele>
        <time>2021-08-20T08:27:40Z</time>
      </trkpt>
      <trkpt lat="42.564568" lon="-5.488814">
        <ele>837.7</ele>
        <time>2021-08-20T08:27:55Z</time>
      </trkpt>
      <trkpt lat="42.564641" lon="-5.489051">
        <ele>841.3</ele>
        <time>2021-08-20T08:28:11Z</time>
      </trkpt>
      <trkpt lat="42.564714" lon="-5.489279">
        <ele>843.8</ele>
        <time>2021-08-20T08:28:23Z</time>
      </trkpt>
      <trkpt lat="42.564794" lon="-5.489503">
        <ele>845.0</ele>
        <time>2021-08-20T08:28:37Z</time>
      </trkpt>
      <trkpt lat="42.564874" lon="-5.489721">
        <ele>845.0</ele>
        <time>2021-08-20T08:28:51Z</time>
      </trkpt>
      <trkpt lat="42.564954" lon="-5.489956">
        <ele>847.2</ele>
        <time>2021-08-20T08:29:06Z</time>
      </trkpt>
      <trkpt lat="42.565050" lon="-5.490170">
        <ele>846.8</ele>
        <time>2021-08-20T08:29:20Z</time>
      </trkpt>
      <trkpt lat="42.565125" lon="-5.490400">
        <ele>843.7</ele>
        <time>2021-08-20T08:29:35Z</time>
      </trkpt>
      <trkpt lat="42.565219" lon="-5.490617">
        <ele>845.2</ele>
        <time>2021-08-20T08:29:54Z</time>
      </trkpt>
      <trkpt lat="42.565283" lon="-5.490848">
        <ele>836.7</ele>
        <time>2021-08-20T08:30:13Z</time>
      </trkpt>
      <trkpt lat="42.565335" lon="-5.491083">
        <ele>836.8</ele>
        <time>2021-08-20T08:30:30Z</time>
      </trkpt>
      <trkpt lat="42.565404" lon="-5.491309">
        <ele>836.9</ele>
        <time>2021-08-20T08:30:48Z</time>
      </trkpt>
      <trkpt lat="42.565463" lon="-5.491550">
        <ele>838.9</ele>
        <time>2021-08-20T08:31:05Z</time>
      </trkpt>
      <trkpt lat="42.565544" lon="-5.491785">
        <ele>838.7</ele>
        <time>2021-08-20T08:31:21Z</time>
      </trkpt>
      <trkpt lat="42.565605" lon="-5.492015">
        <ele>839.2</ele>
        <time>2021-08-20T08:31:40Z</time>
      </trkpt>
      <trkpt lat="42.565673" lon="-5.492245">
        <ele>837.3</ele>
        <time>2021-08-20T08:31:54Z</time>
      </trkpt>
      <trkpt lat="42.565729" lon="-5.492486">
        <ele>837.2</ele>
        <time>2021-08-20T08:32:10Z</time>
      </trkpt>
      <trkpt lat="42.565801" lon="-5.492711">
        <ele>837.1</ele>
        <time>2021-08-20T08:32:26Z</time>
      </trkpt>
      <trkpt lat="42.565901" lon="-5.492929">
        <ele>836.9</ele>
        <time>2021-08-20T08:32:43Z</time>
      </trkpt>
      <trkpt lat="42.566010" lon="-5.493130">
        <ele>836.8</ele>
        <time>2021-08-20T08:32:59Z</time>
      </trkpt>
      <trkpt lat="42.566068" lon="-5.493372">
        <ele>837.2</ele>
        <time>2021-08-20T08:34:21Z</time>
      </trkpt>
      <trkpt lat="42.566156" lon="-5.493585">
        <ele>837.2</ele>
        <time>2021-08-20T08:34:55Z</time>
      </trkpt>
      <trkpt lat="42.566328" lon="-5.493675">
        <ele>837.9</ele>
        <time>2021-08-20T09:06:17Z</time>
      </trkpt>
      <trkpt lat="42.566444" lon="-5.493870">
        <ele>838.2</ele>
        <time>2021-08-20T09:06:39Z</time>
      </trkpt>
      <trkpt lat="42.566539" lon="-5.494083">
        <ele>838.1</ele>
        <time>2021-08-20T09:06:57Z</time>
      </trkpt>
      <trkpt lat="42.566614" lon="-5.494323">
        <ele>838.0</ele>
        <time>2021-08-20T09:07:16Z</time>
      </trkpt>
      <trkpt lat="42.566654" lon="-5.494566">
        <ele>838.0</ele>
        <time>2021-08-20T09:07:31Z</time>
      </trkpt>
      <trkpt lat="42.566719" lon="-5.494795">
        <ele>837.8</ele>
        <time>2021-08-20T09:07:46Z</time>
      </trkpt>
      <trkpt lat="42.566801" lon="-5.495022">
        <ele>838.0</ele>
        <time>2021-08-20T09:08:07Z</time>
      </trkpt>
      <trkpt lat="42.566862" lon="-5.495260">
        <ele>838.0</ele>
        <time>2021-08-20T09:08:33Z</time>
      </trkpt>
      <trkpt lat="42.566966" lon="-5.495471">
        <ele>837.8</ele>
        <time>2021-08-20T09:08:50Z</time>
      </trkpt>
      <trkpt lat="42.567028" lon="-5.495709">
        <ele>837.8</ele>
        <time>2021-08-20T09:09:06Z</time>
      </trkpt>
      <trkpt lat="42.567115" lon="-5.495924">
        <ele>837.9</ele>
        <time>2021-08-20T09:09:23Z</time>
      </trkpt>
      <trkpt lat="42.567249" lon="-5.496099">
        <ele>837.9</ele>
        <time>2021-08-20T09:09:39Z</time>
      </trkpt>
      <trkpt lat="42.567386" lon="-5.496257">
        <ele>837.8</ele>
        <time>2021-08-20T09:09:55Z</time>
      </trkpt>
      <trkpt lat="42.567497" lon="-5.496451">
        <ele>851.0</ele>
        <time>2021-08-20T09:10:12Z</time>
      </trkpt>
      <trkpt lat="42.567560" lon="-5.496688">
        <ele>850.9</ele>
        <time>2021-08-20T09:10:27Z</time>
      </trkpt>
      <trkpt lat="42.567619" lon="-5.496934">
        <ele>851.0</ele>
        <time>2021-08-20T09:10:45Z</time>
      </trkpt>
      <trkpt lat="42.567673" lon="-5.497170">
        <ele>850.9</ele>
        <time>2021-08-20T09:11:00Z</time>
      </trkpt>
      <trkpt lat="42.567678" lon="-5.497418">
        <ele>853.6</ele>
        <time>2021-08-20T09:11:15Z</time>
      </trkpt>
      <trkpt lat="42.567654" lon="-5.497681">
        <ele>853.7</ele>
        <time>2021-08-20T09:11:31Z</time>
      </trkpt>
      <trkpt lat="42.567678" lon="-5.497925">
        <ele>853.4</ele>
        <time>2021-08-20T09:11:46Z</time>
      </trkpt>
      <trkpt lat="42.567702" lon="-5.498170">
        <ele>853.3</ele>
        <time>2021-08-20T09:12:00Z</time>
      </trkpt>
      <trkpt lat="42.567744" lon="-5.498415">
        <ele>855.0</ele>
        <time>2021-08-20T09:12:17Z</time>
      </trkpt>
      <trkpt lat="42.567779" lon="-5.498667">
        <ele>855.0</ele>
        <time>2021-08-20T09:12:33Z</time>
      </trkpt>
      <trkpt lat="42.567810" lon="-5.498914">
        <ele>852.2</ele>
        <time>2021-08-20T09:12:49Z</time>
      </trkpt>
      <trkpt lat="42.567836" lon="-5.499162">
        <ele>850.1</ele>
        <time>2021-08-20T09:13:05Z</time>
      </trkpt>
      <trkpt lat="42.567884" lon="-5.499401">
        <ele>847.6</ele>
        <time>2021-08-20T09:13:21Z</time>
      </trkpt>
      <trkpt lat="42.567893" lon="-5.499652">
        <ele>850.3</ele>
        <time>2021-08-20T09:13:36Z</time>
      </trkpt>
      <trkpt lat="42.567902" lon="-5.499897">
        <ele>852.9</ele>
        <time>2021-08-20T09:13:51Z</time>
      </trkpt>
      <trkpt lat="42.567933" lon="-5.500139">
        <ele>850.6</ele>
        <time>2021-08-20T09:14:06Z</time>
      </trkpt>
      <trkpt lat="42.567956" lon="-5.500382">
        <ele>850.1</ele>
        <time>2021-08-20T09:14:20Z</time>
      </trkpt>
      <trkpt lat="42.567994" lon="-5.500628">
        <ele>849.4</ele>
        <time>2021-08-20T09:14:36Z</time>
      </trkpt>
      <trkpt lat="42.568030" lon="-5.500875">
        <ele>850.2</ele>
        <time>2021-08-20T09:14:52Z</time>
      </trkpt>
      <trkpt lat="42.568062" lon="-5.501124">
        <ele>848.5</ele>
        <time>2021-08-20T09:15:07Z</time>
      </trkpt>
      <trkpt lat="42.568118" lon="-5.501374">
        <ele>849.3</ele>
        <time>2021-08-20T09:15:23Z</time>
      </trkpt>
      <trkpt lat="42.568144" lon="-5.501616">
        <ele>850.3</ele>
        <time>2021-08-20T09:15:38Z</time>
      </trkpt>
      <trkpt lat="42.568189" lon="-5.501859">
        <ele>848.4</ele>
        <time>2021-08-20T09:15:53Z</time>
      </trkpt>
      <trkpt lat="42.568226" lon="-5.502106">
        <ele>846.4</ele>
        <time>2021-08-20T09:16:08Z</time>
      </trkpt>
      <trkpt lat="42.568254" lon="-5.502359">
        <ele>844.5</ele>
        <time>2021-08-20T09:16:24Z</time>
      </trkpt>
      <trkpt lat="42.568286" lon="-5.502604">
        <ele>846.2</ele>
        <time>2021-08-20T09:16:38Z</time>
      </trkpt>
      <trkpt lat="42.568328" lon="-5.502855">
        <ele>852.1</ele>
        <time>2021-08-20T09:16:53Z</time>
      </trkpt>
      <trkpt lat="42.568379" lon="-5.503091">
        <ele>852.0</ele>
        <time>2021-08-20T09:17:07Z</time>
      </trkpt>
      <trkpt lat="42.568424" lon="-5.503328">
        <ele>852.1</ele>
        <time>2021-08-20T09:17:22Z</time>
      </trkpt>
      <trkpt lat="42.568482" lon="-5.503588">
        <ele>852.1</ele>
        <time>2021-08-20T09:17:38Z</time>
      </trkpt>
      <trkpt lat="42.568557" lon="-5.503830">
        <ele>851.9</ele>
        <time>2021-08-20T09:17:54Z</time>
      </trkpt>
      <trkpt lat="42.568615" lon="-5.504089">
        <ele>851.9</ele>
        <time>2021-08-20T09:18:10Z</time>
      </trkpt>
      <trkpt lat="42.568685" lon="-5.504319">
        <ele>852.0</ele>
        <time>2021-08-20T09:18:25Z</time>
      </trkpt>
      <trkpt lat="42.568753" lon="-5.504564">
        <ele>853.0</ele>
        <time>2021-08-20T09:18:41Z</time>
      </trkpt>
      <trkpt lat="42.568828" lon="-5.504797">
        <ele>853.3</ele>
        <time>2021-08-20T09:18:56Z</time>
      </trkpt>
      <trkpt lat="42.568901" lon="-5.505023">
        <ele>850.8</ele>
        <time>2021-08-20T09:19:10Z</time>
      </trkpt>
      <trkpt lat="42.568979" lon="-5.505256">
        <ele>852.3</ele>
        <time>2021-08-20T09:19:25Z</time>
      </trkpt>
      <trkpt lat="42.569073" lon="-5.505476">
        <ele>851.4</ele>
        <time>2021-08-20T09:19:40Z</time>
      </trkpt>
      <trkpt lat="42.569166" lon="-5.505713">
        <ele>850.3</ele>
        <time>2021-08-20T09:19:55Z</time>
      </trkpt>
      <trkpt lat="42.569272" lon="-5.505920">
        <ele>849.0</ele>
        <time>2021-08-20T09:20:10Z</time>
      </trkpt>
      <trkpt lat="42.569351" lon="-5.506144">
        <ele>850.6</ele>
        <time>2021-08-20T09:20:23Z</time>
      </trkpt>
      <trkpt lat="42.569430" lon="-5.506367">
        <ele>851.2</ele>
        <time>2021-08-20T09:20:37Z</time>
      </trkpt>
      <trkpt lat="42.569501" lon="-5.506599">
        <ele>853.2</ele>
        <time>2021-08-20T09:20:51Z</time>
      </trkpt>
      <trkpt lat="42.569552" lon="-5.506865">
        <ele>853.1</ele>
        <time>2021-08-20T09:21:06Z</time>
      </trkpt>
      <trkpt lat="42.569617" lon="-5.507099">
        <ele>853.3</ele>
        <time>2021-08-20T09:21:22Z</time>
      </trkpt>
      <trkpt lat="42.569670" lon="-5.507342">
        <ele>855.2</ele>
        <time>2021-08-20T09:21:36Z</time>
      </trkpt>
      <trkpt lat="42.569725" lon="-5.507581">
        <ele>855.9</ele>
        <time>2021-08-20T09:21:51Z</time>
      </trkpt>
      <trkpt lat="42.569773" lon="-5.507827">
        <ele>853.8</ele>
        <time>2021-08-20T09:22:06Z</time>
      </trkpt>
      <trkpt lat="42.569832" lon="-5.508077">
        <ele>852.9</ele>
        <time>2021-08-20T09:22:20Z</time>
      </trkpt>
      <trkpt lat="42.569888" lon="-5.508310">
        <ele>855.8</ele>
        <time>2021-08-20T09:22:35Z</time>
      </trkpt>
      <trkpt lat="42.569932" lon="-5.508552">
        <ele>854.9</ele>
        <time>2021-08-20T09:22:48Z</time>
      </trkpt>
      <trkpt lat="42.569974" lon="-5.508816">
        <ele>857.6</ele>
        <time>2021-08-20T09:23:04Z</time>
      </trkpt>
      <trkpt lat="42.570024" lon="-5.509067">
        <ele>858.7</ele>
        <time>2021-08-20T09:23:25Z</time>
      </trkpt>
      <trkpt lat="42.570076" lon="-5.509316">
        <ele>857.6</ele>
        <time>2021-08-20T09:23:43Z</time>
      </trkpt>
      <trkpt lat="42.570111" lon="-5.509568">
        <ele>859.3</ele>
        <time>2021-08-20T09:23:59Z</time>
      </trkpt>
      <trkpt lat="42.570204" lon="-5.509785">
        <ele>852.8</ele>
        <time>2021-08-20T09:24:15Z</time>
      </trkpt>
      <trkpt lat="42.570265" lon="-5.510030">
        <ele>849.1</ele>
        <time>2021-08-20T09:24:32Z</time>
      </trkpt>
      <trkpt lat="42.570324" lon="-5.510267">
        <ele>846.8</ele>
        <time>2021-08-20T09:24:45Z</time>
      </trkpt>
      <trkpt lat="42.570379" lon="-5.510507">
        <ele>848.0</ele>
        <time>2021-08-20T09:24:59Z</time>
      </trkpt>
      <trkpt lat="42.570431" lon="-5.510751">
        <ele>850.1</ele>
        <time>2021-08-20T09:25:15Z</time>
      </trkpt>
      <trkpt lat="42.570462" lon="-5.510993">
        <ele>853.7</ele>
        <time>2021-08-20T09:25:30Z</time>
      </trkpt>
      <trkpt lat="42.570531" lon="-5.511235">
        <ele>856.6</ele>
        <time>2021-08-20T09:25:47Z</time>
      </trkpt>
      <trkpt lat="42.570564" lon="-5.511486">
        <ele>859.3</ele>
        <time>2021-08-20T09:26:04Z</time>
      </trkpt>
      <trkpt lat="42.570617" lon="-5.511750">
        <ele>860.0</ele>
        <time>2021-08-20T09:26:21Z</time>
      </trkpt>
      <trkpt lat="42.570687" lon="-5.511988">
        <ele>853.0</ele>
        <time>2021-08-20T09:26:39Z</time>
      </trkpt>
      <trkpt lat="42.570722" lon="-5.512239">
        <ele>856.5</ele>
        <time>2021-08-20T09:26:55Z</time>
      </trkpt>
      <trkpt lat="42.570770" lon="-5.512492">
        <ele>859.7</ele>
        <time>2021-08-20T09:27:11Z</time>
      </trkpt>
      <trkpt lat="42.570824" lon="-5.512744">
        <ele>863.1</ele>
        <time>2021-08-20T09:27:26Z</time>
      </trkpt>
      <trkpt lat="42.570884" lon="-5.512981">
        <ele>865.0</ele>
        <time>2021-08-20T09:27:43Z</time>
      </trkpt>
      <trkpt lat="42.570933" lon="-5.513216">
        <ele>866.0</ele>
        <time>2021-08-20T09:27:59Z</time>
      </trkpt>
      <trkpt lat="42.570967" lon="-5.513466">
        <ele>867.0</ele>
        <time>2021-08-20T09:28:15Z</time>
      </trkpt>
      <trkpt lat="42.571016" lon="-5.513717">
        <ele>865.0</ele>
        <time>2021-08-20T09:28:29Z</time>
      </trkpt>
      <trkpt lat="42.571083" lon="-5.513950">
        <ele>866.0</ele>
        <time>2021-08-20T09:28:44Z</time>
      </trkpt>
      <trkpt lat="42.571133" lon="-5.514183">
        <ele>868.0</ele>
        <time>2021-08-20T09:28:59Z</time>
      </trkpt>
      <trkpt lat="42.571199" lon="-5.514417">
        <ele>870.0</ele>
        <time>2021-08-20T09:29:18Z</time>
      </trkpt>
      <trkpt lat="42.571266" lon="-5.514650">
        <ele>870.0</ele>
        <time>2021-08-20T09:29:37Z</time>
      </trkpt>
      <trkpt lat="42.571283" lon="-5.514900">
        <ele>873.0</ele>
        <time>2021-08-20T09:29:54Z</time>
      </trkpt>
      <trkpt lat="42.571333" lon="-5.515133">
        <ele>875.0</ele>
        <time>2021-08-20T09:30:12Z</time>
      </trkpt>
      <trkpt lat="42.571383" lon="-5.515366">
        <ele>878.0</ele>
        <time>2021-08-20T09:30:30Z</time>
      </trkpt>
      <trkpt lat="42.571450" lon="-5.515600">
        <ele>880.0</ele>
        <time>2021-08-20T09:30:48Z</time>
      </trkpt>
      <trkpt lat="42.571512" lon="-5.515845">
        <ele>880.5</ele>
        <time>2021-08-20T09:31:09Z</time>
      </trkpt>
      <trkpt lat="42.571550" lon="-5.516083">
        <ele>880.0</ele>
        <time>2021-08-20T09:31:28Z</time>
      </trkpt>
      <trkpt lat="42.571625" lon="-5.516309">
        <ele>882.7</ele>
        <time>2021-08-20T09:31:49Z</time>
      </trkpt>
      <trkpt lat="42.571690" lon="-5.516552">
        <ele>883.8</ele>
        <time>2021-08-20T09:32:06Z</time>
      </trkpt>
      <trkpt lat="42.571741" lon="-5.516797">
        <ele>885.8</ele>
        <time>2021-08-20T09:32:24Z</time>
      </trkpt>
      <trkpt lat="42.571793" lon="-5.517036">
        <ele>887.9</ele>
        <time>2021-08-20T09:32:41Z</time>
      </trkpt>
      <trkpt lat="42.571841" lon="-5.517286">
        <ele>888.4</ele>
        <time>2021-08-20T09:32:58Z</time>
      </trkpt>
      <trkpt lat="42.571883" lon="-5.517533">
        <ele>890.0</ele>
        <time>2021-08-20T09:33:15Z</time>
      </trkpt>
      <trkpt lat="42.571952" lon="-5.517762">
        <ele>890.4</ele>
        <time>2021-08-20T09:33:35Z</time>
      </trkpt>
      <trkpt lat="42.572000" lon="-5.518016">
        <ele>890.0</ele>
        <time>2021-08-20T09:33:50Z</time>
      </trkpt>
      <trkpt lat="42.572048" lon="-5.518258">
        <ele>890.4</ele>
        <time>2021-08-20T09:34:09Z</time>
      </trkpt>
      <trkpt lat="42.572100" lon="-5.518500">
        <ele>890.0</ele>
        <time>2021-08-20T09:34:25Z</time>
      </trkpt>
      <trkpt lat="42.572150" lon="-5.518733">
        <ele>890.0</ele>
        <time>2021-08-20T09:34:41Z</time>
      </trkpt>
      <trkpt lat="42.572200" lon="-5.518967">
        <ele>890.0</ele>
        <time>2021-08-20T09:34:58Z</time>
      </trkpt>
      <trkpt lat="42.572266" lon="-5.519199">
        <ele>885.0</ele>
        <time>2021-08-20T09:35:16Z</time>
      </trkpt>
      <trkpt lat="42.572317" lon="-5.519450">
        <ele>890.0</ele>
        <time>2021-08-20T09:35:31Z</time>
      </trkpt>
      <trkpt lat="42.572366" lon="-5.519700">
        <ele>890.0</ele>
        <time>2021-08-20T09:35:48Z</time>
      </trkpt>
      <trkpt lat="42.572433" lon="-5.519933">
        <ele>882.0</ele>
        <time>2021-08-20T09:36:03Z</time>
      </trkpt>
      <trkpt lat="42.572466" lon="-5.520200">
        <ele>888.0</ele>
        <time>2021-08-20T09:36:18Z</time>
      </trkpt>
      <trkpt lat="42.572550" lon="-5.520433">
        <ele>888.0</ele>
        <time>2021-08-20T09:36:38Z</time>
      </trkpt>
      <trkpt lat="42.572583" lon="-5.520667">
        <ele>888.0</ele>
        <time>2021-08-20T09:36:56Z</time>
      </trkpt>
      <trkpt lat="42.572600" lon="-5.520916">
        <ele>888.0</ele>
        <time>2021-08-20T09:37:10Z</time>
      </trkpt>
      <trkpt lat="42.572600" lon="-5.521167">
        <ele>888.0</ele>
        <time>2021-08-20T09:37:26Z</time>
      </trkpt>
      <trkpt lat="42.572716" lon="-5.521366">
        <ele>888.0</ele>
        <time>2021-08-20T09:37:47Z</time>
      </trkpt>
      <trkpt lat="42.572800" lon="-5.521616">
        <ele>887.0</ele>
        <time>2021-08-20T09:38:03Z</time>
      </trkpt>
      <trkpt lat="42.572867" lon="-5.521867">
        <ele>889.0</ele>
        <time>2021-08-20T09:38:20Z</time>
      </trkpt>
      <trkpt lat="42.572916" lon="-5.522100">
        <ele>889.0</ele>
        <time>2021-08-20T09:38:38Z</time>
      </trkpt>
      <trkpt lat="42.572967" lon="-5.522350">
        <ele>889.0</ele>
        <time>2021-08-20T09:38:53Z</time>
      </trkpt>
      <trkpt lat="42.573000" lon="-5.522600">
        <ele>889.0</ele>
        <time>2021-08-20T09:39:08Z</time>
      </trkpt>
      <trkpt lat="42.573016" lon="-5.522850">
        <ele>889.0</ele>
        <time>2021-08-20T09:39:24Z</time>
      </trkpt>
      <trkpt lat="42.573050" lon="-5.523100">
        <ele>889.0</ele>
        <time>2021-08-20T09:39:41Z</time>
      </trkpt>
      <trkpt lat="42.573116" lon="-5.523350">
        <ele>889.0</ele>
        <time>2021-08-20T09:39:57Z</time>
      </trkpt>
      <trkpt lat="42.573167" lon="-5.523583">
        <ele>889.0</ele>
        <time>2021-08-20T09:40:12Z</time>
      </trkpt>
      <trkpt lat="42.573233" lon="-5.523833">
        <ele>890.0</ele>
        <time>2021-08-20T09:40:29Z</time>
      </trkpt>
      <trkpt lat="42.573283" lon="-5.524066">
        <ele>890.0</ele>
        <time>2021-08-20T09:40:43Z</time>
      </trkpt>
      <trkpt lat="42.573150" lon="-5.524250">
        <ele>890.0</ele>
        <time>2021-08-20T09:41:04Z</time>
      </trkpt>
      <trkpt lat="42.572983" lon="-5.524383">
        <ele>890.0</ele>
        <time>2021-08-20T09:41:20Z</time>
      </trkpt>
      <trkpt lat="42.572816" lon="-5.524516">
        <ele>890.0</ele>
        <time>2021-08-20T09:41:37Z</time>
      </trkpt>
      <trkpt lat="42.572683" lon="-5.524667">
        <ele>890.0</ele>
        <time>2021-08-20T09:41:56Z</time>
      </trkpt>
      <trkpt lat="42.572517" lon="-5.524816">
        <ele>890.0</ele>
        <time>2021-08-20T09:42:15Z</time>
      </trkpt>
      <trkpt lat="42.572350" lon="-5.524917">
        <ele>885.0</ele>
        <time>2021-08-20T09:42:33Z</time>
      </trkpt>
      <trkpt lat="42.572283" lon="-5.525150">
        <ele>890.0</ele>
        <time>2021-08-20T09:43:13Z</time>
      </trkpt>
      <trkpt lat="42.572117" lon="-5.525266">
        <ele>890.0</ele>
        <time>2021-08-20T09:47:52Z</time>
      </trkpt>
      <trkpt lat="42.571983" lon="-5.525433">
        <ele>890.0</ele>
        <time>2021-08-20T09:48:10Z</time>
      </trkpt>
      <trkpt lat="42.571867" lon="-5.525633">
        <ele>885.0</ele>
        <time>2021-08-20T09:48:25Z</time>
      </trkpt>
      <trkpt lat="42.571933" lon="-5.525866">
        <ele>890.0</ele>
        <time>2021-08-20T09:48:44Z</time>
      </trkpt>
      <trkpt lat="42.572000" lon="-5.526100">
        <ele>890.0</ele>
        <time>2021-08-20T09:49:00Z</time>
      </trkpt>
      <trkpt lat="42.572050" lon="-5.526333">
        <ele>885.0</ele>
        <time>2021-08-20T09:49:18Z</time>
      </trkpt>
      <trkpt lat="42.572117" lon="-5.526600">
        <ele>885.0</ele>
        <time>2021-08-20T09:49:38Z</time>
      </trkpt>
      <trkpt lat="42.572200" lon="-5.526817">
        <ele>890.0</ele>
        <time>2021-08-20T09:49:57Z</time>
      </trkpt>
      <trkpt lat="42.572317" lon="-5.527017">
        <ele>898.0</ele>
        <time>2021-08-20T09:50:16Z</time>
      </trkpt>
      <trkpt lat="42.572433" lon="-5.527217">
        <ele>898.0</ele>
        <time>2021-08-20T09:50:33Z</time>
      </trkpt>
      <trkpt lat="42.572583" lon="-5.527367">
        <ele>900.0</ele>
        <time>2021-08-20T09:50:53Z</time>
      </trkpt>
      <trkpt lat="42.572767" lon="-5.527383">
        <ele>898.0</ele>
        <time>2021-08-20T09:51:23Z</time>
      </trkpt>
      <trkpt lat="42.572950" lon="-5.527450">
        <ele>900.0</ele>
        <time>2021-08-20T09:51:42Z</time>
      </trkpt>
      <trkpt lat="42.573116" lon="-5.527567">
        <ele>900.0</ele>
        <time>2021-08-20T09:52:00Z</time>
      </trkpt>
      <trkpt lat="42.573200" lon="-5.527800">
        <ele>900.0</ele>
        <time>2021-08-20T09:52:19Z</time>
      </trkpt>
      <trkpt lat="42.573250" lon="-5.528050">
        <ele>900.0</ele>
        <time>2021-08-20T09:52:41Z</time>
      </trkpt>
      <trkpt lat="42.573266" lon="-5.528300">
        <ele>900.0</ele>
        <time>2021-08-20T09:53:01Z</time>
      </trkpt>
      <trkpt lat="42.573283" lon="-5.528550">
        <ele>900.0</ele>
        <time>2021-08-20T09:53:18Z</time>
      </trkpt>
      <trkpt lat="42.573300" lon="-5.528800">
        <ele>898.0</ele>
        <time>2021-08-20T09:53:35Z</time>
      </trkpt>
      <trkpt lat="42.573350" lon="-5.529033">
        <ele>900.0</ele>
        <time>2021-08-20T09:53:55Z</time>
      </trkpt>
      <trkpt lat="42.573433" lon="-5.529267">
        <ele>900.0</ele>
        <time>2021-08-20T09:54:13Z</time>
      </trkpt>
      <trkpt lat="42.573517" lon="-5.529500">
        <ele>900.0</ele>
        <time>2021-08-20T09:54:30Z</time>
      </trkpt>
      <trkpt lat="42.573616" lon="-5.529700">
        <ele>900.0</ele>
        <time>2021-08-20T09:54:47Z</time>
      </trkpt>
      <trkpt lat="42.573733" lon="-5.529900">
        <ele>900.0</ele>
        <time>2021-08-20T09:55:05Z</time>
      </trkpt>
      <trkpt lat="42.573833" lon="-5.530100">
        <ele>900.0</ele>
        <time>2021-08-20T09:55:22Z</time>
      </trkpt>
      <trkpt lat="42.573833" lon="-5.530350">
        <ele>900.0</ele>
        <time>2021-08-20T09:55:46Z</time>
      </trkpt>
      <trkpt lat="42.573900" lon="-5.530583">
        <ele>900.0</ele>
        <time>2021-08-20T09:56:28Z</time>
      </trkpt>
      <trkpt lat="42.574000" lon="-5.530800">
        <ele>900.0</ele>
        <time>2021-08-20T09:56:46Z</time>
      </trkpt>
      <trkpt lat="42.573883" lon="-5.530983">
        <ele>900.0</ele>
        <time>2021-08-20T09:57:07Z</time>
      </trkpt>
      <trkpt lat="42.573783" lon="-5.531200">
        <ele>900.0</ele>
        <time>2021-08-20T09:57:27Z</time>
      </trkpt>
      <trkpt lat="42.573883" lon="-5.531400">
        <ele>900.0</ele>
        <time>2021-08-20T09:57:41Z</time>
      </trkpt>
      <trkpt lat="42.573983" lon="-5.531600">
        <ele>900.0</ele>
        <time>2021-08-20T09:57:58Z</time>
      </trkpt>
      <trkpt lat="42.574050" lon="-5.531850">
        <ele>900.0</ele>
        <time>2021-08-20T09:58:14Z</time>
      </trkpt>
      <trkpt lat="42.574116" lon="-5.532083">
        <ele>900.0</ele>
        <time>2021-08-20T09:58:32Z</time>
      </trkpt>
      <trkpt lat="42.574183" lon="-5.532316">
        <ele>900.0</ele>
        <time>2021-08-20T09:58:49Z</time>
      </trkpt>
      <trkpt lat="42.574266" lon="-5.532566">
        <ele>900.0</ele>
        <time>2021-08-20T09:59:05Z</time>
      </trkpt>
      <trkpt lat="42.574300" lon="-5.532800">
        <ele>900.0</ele>
        <time>2021-08-20T09:59:21Z</time>
      </trkpt>
      <trkpt lat="42.574383" lon="-5.533033">
        <ele>900.0</ele>
        <time>2021-08-20T09:59:39Z</time>
      </trkpt>
      <trkpt lat="42.574450" lon="-5.533267">
        <ele>890.0</ele>
        <time>2021-08-20T09:59:56Z</time>
      </trkpt>
      <trkpt lat="42.574483" lon="-5.533517">
        <ele>900.0</ele>
        <time>2021-08-20T10:00:13Z</time>
      </trkpt>
      <trkpt lat="42.574483" lon="-5.533766">
        <ele>887.0</ele>
        <time>2021-08-20T10:00:30Z</time>
      </trkpt>
      <trkpt lat="42.574500" lon="-5.534016">
        <ele>886.0</ele>
        <time>2021-08-20T10:00:46Z</time>
      </trkpt>
      <trkpt lat="42.574525" lon="-5.534271">
        <ele>885.5</ele>
        <time>2021-08-20T10:01:04Z</time>
      </trkpt>
      <trkpt lat="42.574540" lon="-5.534515">
        <ele>885.2</ele>
        <time>2021-08-20T10:01:21Z</time>
      </trkpt>
      <trkpt lat="42.574571" lon="-5.534764">
        <ele>885.0</ele>
        <time>2021-08-20T10:01:38Z</time>
      </trkpt>
      <trkpt lat="42.574614" lon="-5.535015">
        <ele>884.9</ele>
        <time>2021-08-20T10:01:58Z</time>
      </trkpt>
      <trkpt lat="42.574670" lon="-5.535254">
        <ele>882.1</ele>
        <time>2021-08-20T10:02:15Z</time>
      </trkpt>
      <trkpt lat="42.574748" lon="-5.535480">
        <ele>879.2</ele>
        <time>2021-08-20T10:02:31Z</time>
      </trkpt>
      <trkpt lat="42.574781" lon="-5.535736">
        <ele>873.0</ele>
        <time>2021-08-20T10:02:48Z</time>
      </trkpt>
      <trkpt lat="42.574757" lon="-5.535984">
        <ele>876.1</ele>
        <time>2021-08-20T10:03:06Z</time>
      </trkpt>
      <trkpt lat="42.574792" lon="-5.536233">
        <ele>876.2</ele>
        <time>2021-08-20T10:03:25Z</time>
      </trkpt>
      <trkpt lat="42.574811" lon="-5.536488">
        <ele>876.4</ele>
        <time>2021-08-20T10:03:40Z</time>
      </trkpt>
      <trkpt lat="42.574838" lon="-5.536735">
        <ele>876.4</ele>
        <time>2021-08-20T10:03:56Z</time>
      </trkpt>
      <trkpt lat="42.574853" lon="-5.536981">
        <ele>868.5</ele>
        <time>2021-08-20T10:04:12Z</time>
      </trkpt>
      <trkpt lat="42.574884" lon="-5.537238">
        <ele>870.6</ele>
        <time>2021-08-20T10:04:28Z</time>
      </trkpt>
      <trkpt lat="42.574934" lon="-5.537488">
        <ele>867.4</ele>
        <time>2021-08-20T10:04:45Z</time>
      </trkpt>
      <trkpt lat="42.574950" lon="-5.537734">
        <ele>868.2</ele>
        <time>2021-08-20T10:05:01Z</time>
      </trkpt>
      <trkpt lat="42.574922" lon="-5.537975">
        <ele>865.5</ele>
        <time>2021-08-20T10:05:17Z</time>
      </trkpt>
      <trkpt lat="42.574884" lon="-5.538223">
        <ele>863.3</ele>
        <time>2021-08-20T10:05:33Z</time>
      </trkpt>
      <trkpt lat="42.574844" lon="-5.538480">
        <ele>862.6</ele>
        <time>2021-08-20T10:05:47Z</time>
      </trkpt>
      <trkpt lat="42.574959" lon="-5.538671">
        <ele>866.8</ele>
        <time>2021-08-20T10:06:01Z</time>
      </trkpt>
      <trkpt lat="42.574999" lon="-5.538908">
        <ele>867.0</ele>
        <time>2021-08-20T10:06:16Z</time>
      </trkpt>
      <trkpt lat="42.575110" lon="-5.539117">
        <ele>868.0</ele>
        <time>2021-08-20T10:06:32Z</time>
      </trkpt>
      <trkpt lat="42.575237" lon="-5.539303">
        <ele>868.6</ele>
        <time>2021-08-20T10:06:47Z</time>
      </trkpt>
      <trkpt lat="42.575294" lon="-5.539537">
        <ele>869.3</ele>
        <time>2021-08-20T10:07:04Z</time>
      </trkpt>
      <trkpt lat="42.575336" lon="-5.539778">
        <ele>868.2</ele>
        <time>2021-08-20T10:07:19Z</time>
      </trkpt>
      <trkpt lat="42.575394" lon="-5.540025">
        <ele>867.4</ele>
        <time>2021-08-20T10:07:35Z</time>
      </trkpt>
      <trkpt lat="42.575442" lon="-5.540262">
        <ele>867.4</ele>
        <time>2021-08-20T10:07:50Z</time>
      </trkpt>
      <trkpt lat="42.575491" lon="-5.540497">
        <ele>867.4</ele>
        <time>2021-08-20T10:08:06Z</time>
      </trkpt>
      <trkpt lat="42.575560" lon="-5.540734">
        <ele>867.4</ele>
        <time>2021-08-20T10:08:21Z</time>
      </trkpt>
      <trkpt lat="42.575603" lon="-5.540990">
        <ele>867.3</ele>
        <time>2021-08-20T10:08:37Z</time>
      </trkpt>
      <trkpt lat="42.575655" lon="-5.541225">
        <ele>867.3</ele>
        <time>2021-08-20T10:08:53Z</time>
      </trkpt>
      <trkpt lat="42.575734" lon="-5.541460">
        <ele>867.2</ele>
        <time>2021-08-20T10:09:09Z</time>
      </trkpt>
      <trkpt lat="42.575816" lon="-5.541687">
        <ele>856.9</ele>
        <time>2021-08-20T10:09:25Z</time>
      </trkpt>
      <trkpt lat="42.575940" lon="-5.541866">
        <ele>856.8</ele>
        <time>2021-08-20T10:09:39Z</time>
      </trkpt>
      <trkpt lat="42.576034" lon="-5.542081">
        <ele>856.8</ele>
        <time>2021-08-20T10:09:55Z</time>
      </trkpt>
      <trkpt lat="42.576133" lon="-5.542290">
        <ele>856.7</ele>
        <time>2021-08-20T10:10:10Z</time>
      </trkpt>
      <trkpt lat="42.576243" lon="-5.542491">
        <ele>852.0</ele>
        <time>2021-08-20T10:10:25Z</time>
      </trkpt>
      <trkpt lat="42.576344" lon="-5.542707">
        <ele>851.6</ele>
        <time>2021-08-20T10:10:42Z</time>
      </trkpt>
      <trkpt lat="42.576411" lon="-5.542943">
        <ele>850.4</ele>
        <time>2021-08-20T10:10:58Z</time>
      </trkpt>
      <trkpt lat="42.576482" lon="-5.543176">
        <ele>838.0</ele>
        <time>2021-08-20T10:11:15Z</time>
      </trkpt>
      <trkpt lat="42.576516" lon="-5.543418">
        <ele>838.0</ele>
        <time>2021-08-20T10:11:40Z</time>
      </trkpt>
      <trkpt lat="42.576515" lon="-5.543672">
        <ele>837.9</ele>
        <time>2021-08-20T10:11:58Z</time>
      </trkpt>
      <trkpt lat="42.576579" lon="-5.543904">
        <ele>838.2</ele>
        <time>2021-08-20T10:12:14Z</time>
      </trkpt>
      <trkpt lat="42.576728" lon="-5.544048">
        <ele>838.1</ele>
        <time>2021-08-20T10:12:32Z</time>
      </trkpt>
      <trkpt lat="42.576889" lon="-5.544175">
        <ele>837.9</ele>
        <time>2021-08-20T10:12:52Z</time>
      </trkpt>
      <trkpt lat="42.577001" lon="-5.544372">
        <ele>837.2</ele>
        <time>2021-08-20T10:13:08Z</time>
      </trkpt>
      <trkpt lat="42.577129" lon="-5.544549">
        <ele>837.1</ele>
        <time>2021-08-20T10:13:28Z</time>
      </trkpt>
      <trkpt lat="42.577212" lon="-5.544768">
        <ele>837.1</ele>
        <time>2021-08-20T10:13:46Z</time>
      </trkpt>
      <trkpt lat="42.577306" lon="-5.544980">
        <ele>837.2</ele>
        <time>2021-08-20T10:14:03Z</time>
      </trkpt>
      <trkpt lat="42.577415" lon="-5.545177">
        <ele>837.4</ele>
        <time>2021-08-20T10:14:21Z</time>
      </trkpt>
      <trkpt lat="42.577502" lon="-5.545393">
        <ele>837.2</ele>
        <time>2021-08-20T10:14:36Z</time>
      </trkpt>
      <trkpt lat="42.577608" lon="-5.545605">
        <ele>837.0</ele>
        <time>2021-08-20T10:14:52Z</time>
      </trkpt>
      <trkpt lat="42.577704" lon="-5.545811">
        <ele>837.0</ele>
        <time>2021-08-20T10:15:10Z</time>
      </trkpt>
      <trkpt lat="42.577826" lon="-5.546005">
        <ele>837.0</ele>
        <time>2021-08-20T10:15:28Z</time>
      </trkpt>
      <trkpt lat="42.577930" lon="-5.546217">
        <ele>835.8</ele>
        <time>2021-08-20T10:15:45Z</time>
      </trkpt>
      <trkpt lat="42.578019" lon="-5.546430">
        <ele>836.1</ele>
        <time>2021-08-20T10:16:02Z</time>
      </trkpt>
      <trkpt lat="42.578118" lon="-5.546636">
        <ele>833.3</ele>
        <time>2021-08-20T10:50:55Z</time>
      </trkpt>
      <trkpt lat="42.578188" lon="-5.546873">
        <ele>832.2</ele>
        <time>2021-08-20T10:51:13Z</time>
      </trkpt>
      <trkpt lat="42.578278" lon="-5.547101">
        <ele>832.3</ele>
        <time>2021-08-20T10:51:33Z</time>
      </trkpt>
      <trkpt lat="42.578398" lon="-5.547293">
        <ele>832.0</ele>
        <time>2021-08-20T10:51:53Z</time>
      </trkpt>
      <trkpt lat="42.578528" lon="-5.547464">
        <ele>831.2</ele>
        <time>2021-08-20T10:52:10Z</time>
      </trkpt>
      <trkpt lat="42.578617" lon="-5.547689">
        <ele>830.9</ele>
        <time>2021-08-20T10:52:26Z</time>
      </trkpt>
      <trkpt lat="42.578715" lon="-5.547917">
        <ele>830.3</ele>
        <time>2021-08-20T10:52:39Z</time>
      </trkpt>
      <trkpt lat="42.578818" lon="-5.548139">
        <ele>829.7</ele>
        <time>2021-08-20T10:52:55Z</time>
      </trkpt>
      <trkpt lat="42.578930" lon="-5.548335">
        <ele>829.5</ele>
        <time>2021-08-20T10:53:12Z</time>
      </trkpt>
      <trkpt lat="42.579047" lon="-5.548528">
        <ele>829.3</ele>
        <time>2021-08-20T10:53:29Z</time>
      </trkpt>
      <trkpt lat="42.579133" lon="-5.548744">
        <ele>828.8</ele>
        <time>2021-08-20T10:53:45Z</time>
      </trkpt>
      <trkpt lat="42.579206" lon="-5.548980">
        <ele>828.4</ele>
        <time>2021-08-20T10:53:59Z</time>
      </trkpt>
      <trkpt lat="42.579347" lon="-5.549131">
        <ele>828.2</ele>
        <time>2021-08-20T10:54:18Z</time>
      </trkpt>
      <trkpt lat="42.579447" lon="-5.549344">
        <ele>828.2</ele>
        <time>2021-08-20T10:54:35Z</time>
      </trkpt>
      <trkpt lat="42.579543" lon="-5.549568">
        <ele>828.0</ele>
        <time>2021-08-20T10:54:52Z</time>
      </trkpt>
      <trkpt lat="42.579645" lon="-5.549773">
        <ele>827.7</ele>
        <time>2021-08-20T10:55:09Z</time>
      </trkpt>
      <trkpt lat="42.579743" lon="-5.549983">
        <ele>827.1</ele>
        <time>2021-08-20T10:55:25Z</time>
      </trkpt>
      <trkpt lat="42.579843" lon="-5.550209">
        <ele>826.9</ele>
        <time>2021-08-20T10:55:41Z</time>
      </trkpt>
      <trkpt lat="42.579946" lon="-5.550416">
        <ele>826.2</ele>
        <time>2021-08-20T10:55:58Z</time>
      </trkpt>
      <trkpt lat="42.580044" lon="-5.550621">
        <ele>825.5</ele>
        <time>2021-08-20T10:56:13Z</time>
      </trkpt>
      <trkpt lat="42.580130" lon="-5.550836">
        <ele>825.2</ele>
        <time>2021-08-20T10:56:30Z</time>
      </trkpt>
      <trkpt lat="42.580188" lon="-5.551081">
        <ele>824.7</ele>
        <time>2021-08-20T10:56:52Z</time>
      </trkpt>
      <trkpt lat="42.580298" lon="-5.551279">
        <ele>824.4</ele>
        <time>2021-08-20T10:57:05Z</time>
      </trkpt>
      <trkpt lat="42.580385" lon="-5.551492">
        <ele>823.8</ele>
        <time>2021-08-20T10:57:19Z</time>
      </trkpt>
      <trkpt lat="42.580484" lon="-5.551702">
        <ele>823.0</ele>
        <time>2021-08-20T10:57:37Z</time>
      </trkpt>
      <trkpt lat="42.580604" lon="-5.551893">
        <ele>822.1</ele>
        <time>2021-08-20T10:57:52Z</time>
      </trkpt>
      <trkpt lat="42.580732" lon="-5.552086">
        <ele>821.5</ele>
        <time>2021-08-20T10:58:09Z</time>
      </trkpt>
      <trkpt lat="42.580839" lon="-5.552289">
        <ele>821.1</ele>
        <time>2021-08-20T10:58:26Z</time>
      </trkpt>
      <trkpt lat="42.580942" lon="-5.552493">
        <ele>820.1</ele>
        <time>2021-08-20T10:58:54Z</time>
      </trkpt>
      <trkpt lat="42.581015" lon="-5.552722">
        <ele>819.9</ele>
        <time>2021-08-20T10:59:09Z</time>
      </trkpt>
      <trkpt lat="42.581031" lon="-5.552983">
        <ele>819.5</ele>
        <time>2021-08-20T10:59:26Z</time>
      </trkpt>
      <trkpt lat="42.581052" lon="-5.553240">
        <ele>818.6</ele>
        <time>2021-08-20T10:59:44Z</time>
      </trkpt>
      <trkpt lat="42.581073" lon="-5.553483">
        <ele>817.6</ele>
        <time>2021-08-20T11:00:01Z</time>
      </trkpt>
      <trkpt lat="42.581164" lon="-5.553705">
        <ele>817.0</ele>
        <time>2021-08-20T11:00:18Z</time>
      </trkpt>
      <trkpt lat="42.581296" lon="-5.553879">
        <ele>816.4</ele>
        <time>2021-08-20T11:00:53Z</time>
      </trkpt>
      <trkpt lat="42.581293" lon="-5.554125">
        <ele>815.8</ele>
        <time>2021-08-20T11:01:14Z</time>
      </trkpt>
      <trkpt lat="42.581259" lon="-5.554370">
        <ele>815.5</ele>
        <time>2021-08-20T11:01:34Z</time>
      </trkpt>
      <trkpt lat="42.581328" lon="-5.554602">
        <ele>815.5</ele>
        <time>2021-08-20T11:01:48Z</time>
      </trkpt>
      <trkpt lat="42.581362" lon="-5.554848">
        <ele>815.6</ele>
        <time>2021-08-20T11:02:10Z</time>
      </trkpt>
      <trkpt lat="42.581452" lon="-5.555074">
        <ele>815.3</ele>
        <time>2021-08-20T11:02:27Z</time>
      </trkpt>
      <trkpt lat="42.581531" lon="-5.555311">
        <ele>815.2</ele>
        <time>2021-08-20T11:03:34Z</time>
      </trkpt>
      <trkpt lat="42.581622" lon="-5.555526">
        <ele>815.9</ele>
        <time>2021-08-20T11:03:51Z</time>
      </trkpt>
      <trkpt lat="42.581688" lon="-5.555769">
        <ele>815.9</ele>
        <time>2021-08-20T11:05:05Z</time>
      </trkpt>
      <trkpt lat="42.581802" lon="-5.555964">
        <ele>816.2</ele>
        <time>2021-08-20T11:05:20Z</time>
      </trkpt>
      <trkpt lat="42.581909" lon="-5.556175">
        <ele>815.9</ele>
        <time>2021-08-20T11:07:22Z</time>
      </trkpt>
      <trkpt lat="42.582002" lon="-5.556394">
        <ele>815.8</ele>
        <time>2021-08-20T11:07:37Z</time>
      </trkpt>
      <trkpt lat="42.582160" lon="-5.556532">
        <ele>815.6</ele>
        <time>2021-08-20T11:07:53Z</time>
      </trkpt>
      <trkpt lat="42.582314" lon="-5.556666">
        <ele>816.2</ele>
        <time>2021-08-20T11:08:08Z</time>
      </trkpt>
      <trkpt lat="42.582487" lon="-5.556756">
        <ele>816.0</ele>
        <time>2021-08-20T11:08:25Z</time>
      </trkpt>
      <trkpt lat="42.582641" lon="-5.556624">
        <ele>816.0</ele>
        <time>2021-08-20T11:08:48Z</time>
      </trkpt>
      <trkpt lat="42.582821" lon="-5.556578">
        <ele>816.1</ele>
        <time>2021-08-20T11:09:12Z</time>
      </trkpt>
      <trkpt lat="42.583002" lon="-5.556570">
        <ele>817.4</ele>
        <time>2021-08-20T11:09:54Z</time>
      </trkpt>
      <trkpt lat="42.583238" lon="-5.556485">
        <ele>817.5</ele>
        <time>2021-08-20T11:48:14Z</time>
      </trkpt>
      <trkpt lat="42.583347" lon="-5.556686">
        <ele>817.6</ele>
        <time>2021-08-20T11:48:35Z</time>
      </trkpt>
      <trkpt lat="42.583419" lon="-5.556913">
        <ele>817.4</ele>
        <time>2021-08-20T11:49:24Z</time>
      </trkpt>
      <trkpt lat="42.583578" lon="-5.557049">
        <ele>817.2</ele>
        <time>2021-08-20T11:50:00Z</time>
      </trkpt>
      <trkpt lat="42.583728" lon="-5.557189">
        <ele>817.6</ele>
        <time>2021-08-20T11:50:16Z</time>
      </trkpt>
      <trkpt lat="42.583906" lon="-5.557243">
        <ele>817.1</ele>
        <time>2021-08-20T11:50:31Z</time>
      </trkpt>
      <trkpt lat="42.584059" lon="-5.557381">
        <ele>817.1</ele>
        <time>2021-08-20T11:50:45Z</time>
      </trkpt>
      <trkpt lat="42.584206" lon="-5.557534">
        <ele>817.0</ele>
        <time>2021-08-20T11:50:57Z</time>
      </trkpt>
      <trkpt lat="42.584362" lon="-5.557684">
        <ele>817.3</ele>
        <time>2021-08-20T11:51:10Z</time>
      </trkpt>
      <trkpt lat="42.584525" lon="-5.557811">
        <ele>817.6</ele>
        <time>2021-08-20T11:51:31Z</time>
      </trkpt>
      <trkpt lat="42.584677" lon="-5.557962">
        <ele>817.5</ele>
        <time>2021-08-20T11:51:45Z</time>
      </trkpt>
      <trkpt lat="42.584847" lon="-5.558072">
        <ele>817.9</ele>
        <time>2021-08-20T11:52:00Z</time>
      </trkpt>
      <trkpt lat="42.585002" lon="-5.558228">
        <ele>818.9</ele>
        <time>2021-08-20T11:52:12Z</time>
      </trkpt>
      <trkpt lat="42.585157" lon="-5.558379">
        <ele>820.8</ele>
        <time>2021-08-20T11:52:25Z</time>
      </trkpt>
      <trkpt lat="42.585314" lon="-5.558519">
        <ele>818.8</ele>
        <time>2021-08-20T11:52:38Z</time>
      </trkpt>
      <trkpt lat="42.585458" lon="-5.558683">
        <ele>818.8</ele>
        <time>2021-08-20T11:52:56Z</time>
      </trkpt>
      <trkpt lat="42.585620" lon="-5.558801">
        <ele>818.5</ele>
        <time>2021-08-20T11:53:11Z</time>
      </trkpt>
      <trkpt lat="42.585768" lon="-5.558964">
        <ele>818.8</ele>
        <time>2021-08-20T11:53:27Z</time>
      </trkpt>
      <trkpt lat="42.585919" lon="-5.559113">
        <ele>818.9</ele>
        <time>2021-08-20T11:53:41Z</time>
      </trkpt>
      <trkpt lat="42.586074" lon="-5.559256">
        <ele>818.5</ele>
        <time>2021-08-20T11:53:55Z</time>
      </trkpt>
      <trkpt lat="42.586234" lon="-5.559381">
        <ele>818.3</ele>
        <time>2021-08-20T11:54:10Z</time>
      </trkpt>
      <trkpt lat="42.586374" lon="-5.559543">
        <ele>818.2</ele>
        <time>2021-08-20T11:54:26Z</time>
      </trkpt>
      <trkpt lat="42.586553" lon="-5.559594">
        <ele>818.1</ele>
        <time>2021-08-20T11:54:41Z</time>
      </trkpt>
      <trkpt lat="42.586668" lon="-5.559786">
        <ele>818.2</ele>
        <time>2021-08-20T11:54:51Z</time>
      </trkpt>
      <trkpt lat="42.586797" lon="-5.559957">
        <ele>818.2</ele>
        <time>2021-08-20T11:55:01Z</time>
      </trkpt>
      <trkpt lat="42.586864" lon="-5.560193">
        <ele>818.3</ele>
        <time>2021-08-20T11:55:26Z</time>
      </trkpt>
      <trkpt lat="42.586960" lon="-5.560410">
        <ele>818.2</ele>
        <time>2021-08-20T11:55:50Z</time>
      </trkpt>
      <trkpt lat="42.587067" lon="-5.560615">
        <ele>818.1</ele>
        <time>2021-08-20T11:56:04Z</time>
      </trkpt>
      <trkpt lat="42.587151" lon="-5.560847">
        <ele>817.9</ele>
        <time>2021-08-20T11:56:19Z</time>
      </trkpt>
      <trkpt lat="42.587194" lon="-5.561096">
        <ele>817.9</ele>
        <time>2021-08-20T11:56:36Z</time>
      </trkpt>
      <trkpt lat="42.587221" lon="-5.561341">
        <ele>817.9</ele>
        <time>2021-08-20T11:56:52Z</time>
      </trkpt>
      <trkpt lat="42.587404" lon="-5.561290">
        <ele>818.0</ele>
        <time>2021-08-20T11:57:07Z</time>
      </trkpt>
      <trkpt lat="42.587492" lon="-5.561071">
        <ele>817.9</ele>
        <time>2021-08-20T11:57:20Z</time>
      </trkpt>
      <trkpt lat="42.587649" lon="-5.560947">
        <ele>818.1</ele>
        <time>2021-08-20T11:57:33Z</time>
      </trkpt>
      <trkpt lat="42.587777" lon="-5.561136">
        <ele>818.1</ele>
        <time>2021-08-20T11:57:51Z</time>
      </trkpt>
      <trkpt lat="42.587905" lon="-5.561320">
        <ele>818.1</ele>
        <time>2021-08-20T11:58:05Z</time>
      </trkpt>
      <trkpt lat="42.588082" lon="-5.561390">
        <ele>818.1</ele>
        <time>2021-08-20T11:58:16Z</time>
      </trkpt>
      <trkpt lat="42.588254" lon="-5.561506">
        <ele>818.1</ele>
        <time>2021-08-20T11:58:30Z</time>
      </trkpt>
      <trkpt lat="42.588410" lon="-5.561633">
        <ele>818.0</ele>
        <time>2021-08-20T11:58:46Z</time>
      </trkpt>
      <trkpt lat="42.588576" lon="-5.561735">
        <ele>818.0</ele>
        <time>2021-08-20T11:58:58Z</time>
      </trkpt>
      <trkpt lat="42.588740" lon="-5.561845">
        <ele>818.1</ele>
        <time>2021-08-20T11:59:09Z</time>
      </trkpt>
      <trkpt lat="42.588904" lon="-5.561974">
        <ele>818.3</ele>
        <time>2021-08-20T11:59:22Z</time>
      </trkpt>
      <trkpt lat="42.589088" lon="-5.562058">
        <ele>818.4</ele>
        <time>2021-08-20T11:59:40Z</time>
      </trkpt>
      <trkpt lat="42.589252" lon="-5.562200">
        <ele>818.4</ele>
        <time>2021-08-20T12:00:10Z</time>
      </trkpt>
      <trkpt lat="42.589411" lon="-5.562353">
        <ele>818.6</ele>
        <time>2021-08-20T12:00:27Z</time>
      </trkpt>
      <trkpt lat="42.589589" lon="-5.562431">
        <ele>818.8</ele>
        <time>2021-08-20T12:00:43Z</time>
      </trkpt>
      <trkpt lat="42.589742" lon="-5.562588">
        <ele>819.1</ele>
        <time>2021-08-20T12:01:00Z</time>
      </trkpt>
      <trkpt lat="42.589903" lon="-5.562732">
        <ele>819.3</ele>
        <time>2021-08-20T12:01:23Z</time>
      </trkpt>
      <trkpt lat="42.590066" lon="-5.562871">
        <ele>819.2</ele>
        <time>2021-08-20T12:01:37Z</time>
      </trkpt>
      <trkpt lat="42.590220" lon="-5.563012">
        <ele>819.5</ele>
        <time>2021-08-20T12:01:51Z</time>
      </trkpt>
      <trkpt lat="42.590373" lon="-5.563144">
        <ele>819.6</ele>
        <time>2021-08-20T12:02:05Z</time>
      </trkpt>
      <trkpt lat="42.590541" lon="-5.563281">
        <ele>819.9</ele>
        <time>2021-08-20T12:02:24Z</time>
      </trkpt>
      <trkpt lat="42.590637" lon="-5.563512">
        <ele>819.8</ele>
        <time>2021-08-20T12:02:36Z</time>
      </trkpt>
      <trkpt lat="42.590748" lon="-5.563720">
        <ele>820.0</ele>
        <time>2021-08-20T12:02:51Z</time>
      </trkpt>
      <trkpt lat="42.590869" lon="-5.563904">
        <ele>819.9</ele>
        <time>2021-08-20T12:03:04Z</time>
      </trkpt>
      <trkpt lat="42.590996" lon="-5.564085">
        <ele>820.0</ele>
        <time>2021-08-20T12:03:15Z</time>
      </trkpt>
      <trkpt lat="42.591099" lon="-5.564295">
        <ele>820.1</ele>
        <time>2021-08-20T12:03:30Z</time>
      </trkpt>
      <trkpt lat="42.591229" lon="-5.564465">
        <ele>820.2</ele>
        <time>2021-08-20T12:03:45Z</time>
      </trkpt>
      <trkpt lat="42.591346" lon="-5.564674">
        <ele>820.4</ele>
        <time>2021-08-20T12:04:00Z</time>
      </trkpt>
      <trkpt lat="42.591438" lon="-5.564892">
        <ele>820.3</ele>
        <time>2021-08-20T12:04:14Z</time>
      </trkpt>
      <trkpt lat="42.591549" lon="-5.565100">
        <ele>820.5</ele>
        <time>2021-08-20T12:04:28Z</time>
      </trkpt>
      <trkpt lat="42.591705" lon="-5.565222">
        <ele>820.2</ele>
        <time>2021-08-20T12:05:50Z</time>
      </trkpt>
      <trkpt lat="42.591879" lon="-5.565317">
        <ele>820.4</ele>
        <time>2021-08-20T12:06:04Z</time>
      </trkpt>
      <trkpt lat="42.591989" lon="-5.565520">
        <ele>820.5</ele>
        <time>2021-08-20T12:06:19Z</time>
      </trkpt>
      <trkpt lat="42.592085" lon="-5.565741">
        <ele>820.7</ele>
        <time>2021-08-20T12:06:33Z</time>
      </trkpt>
      <trkpt lat="42.592214" lon="-5.565924">
        <ele>820.5</ele>
        <time>2021-08-20T12:06:46Z</time>
      </trkpt>
      <trkpt lat="42.592351" lon="-5.566114">
        <ele>820.6</ele>
        <time>2021-08-20T12:06:59Z</time>
      </trkpt>
      <trkpt lat="42.592485" lon="-5.566287">
        <ele>820.9</ele>
        <time>2021-08-20T12:07:16Z</time>
      </trkpt>
      <trkpt lat="42.592610" lon="-5.566466">
        <ele>821.0</ele>
        <time>2021-08-20T12:07:31Z</time>
      </trkpt>
      <trkpt lat="42.592732" lon="-5.566665">
        <ele>820.8</ele>
        <time>2021-08-20T12:07:47Z</time>
      </trkpt>
      <trkpt lat="42.592825" lon="-5.566880">
        <ele>821.3</ele>
        <time>2021-08-20T12:08:03Z</time>
      </trkpt>
      <trkpt lat="42.592943" lon="-5.567083">
        <ele>821.3</ele>
        <time>2021-08-20T12:08:21Z</time>
      </trkpt>
      <trkpt lat="42.593037" lon="-5.567303">
        <ele>821.3</ele>
        <time>2021-08-20T12:08:35Z</time>
      </trkpt>
      <trkpt lat="42.593162" lon="-5.567489">
        <ele>821.4</ele>
        <time>2021-08-20T12:08:52Z</time>
      </trkpt>
      <trkpt lat="42.593275" lon="-5.567682">
        <ele>821.3</ele>
        <time>2021-08-20T12:09:06Z</time>
      </trkpt>
      <trkpt lat="42.593426" lon="-5.567818">
        <ele>822.2</ele>
        <time>2021-08-20T12:09:24Z</time>
      </trkpt>
      <trkpt lat="42.593556" lon="-5.567991">
        <ele>822.3</ele>
        <time>2021-08-20T12:09:35Z</time>
      </trkpt>
      <trkpt lat="42.593737" lon="-5.568000">
        <ele>822.5</ele>
        <time>2021-08-20T12:10:05Z</time>
      </trkpt>
      <trkpt lat="42.593884" lon="-5.568156">
        <ele>822.7</ele>
        <time>2021-08-20T12:10:20Z</time>
      </trkpt>
      <trkpt lat="42.594038" lon="-5.568289">
        <ele>822.8</ele>
        <time>2021-08-20T12:10:35Z</time>
      </trkpt>
      <trkpt lat="42.594197" lon="-5.568433">
        <ele>822.8</ele>
        <time>2021-08-20T12:10:49Z</time>
      </trkpt>
      <trkpt lat="42.594368" lon="-5.568547">
        <ele>823.9</ele>
        <time>2021-08-20T12:11:04Z</time>
      </trkpt>
      <trkpt lat="42.594542" lon="-5.568631">
        <ele>824.0</ele>
        <time>2021-08-20T12:11:16Z</time>
      </trkpt>
      <trkpt lat="42.594691" lon="-5.568776">
        <ele>823.9</ele>
        <time>2021-08-20T12:11:57Z</time>
      </trkpt>
      <trkpt lat="42.594814" lon="-5.568963">
        <ele>825.5</ele>
        <time>2021-08-20T12:12:12Z</time>
      </trkpt>
      <trkpt lat="42.594958" lon="-5.569132">
        <ele>825.5</ele>
        <time>2021-08-20T12:12:28Z</time>
      </trkpt>
      <trkpt lat="42.595125" lon="-5.569239">
        <ele>825.4</ele>
        <time>2021-08-20T12:12:43Z</time>
      </trkpt>
      <trkpt lat="42.595282" lon="-5.569373">
        <ele>825.2</ele>
        <time>2021-08-20T12:12:59Z</time>
      </trkpt>
      <trkpt lat="42.595433" lon="-5.569533">
        <ele>827.5</ele>
        <time>2021-08-20T12:14:00Z</time>
      </trkpt>
      <trkpt lat="42.595526" lon="-5.569642">
        <ele>827.7</ele>
        <time>2021-08-21T04:35:46Z</time>
      </trkpt>
      <trkpt lat="42.595700" lon="-5.569717">
        <ele>827.6</ele>
        <time>2021-08-21T04:35:59Z</time>
      </trkpt>
      <trkpt lat="42.595881" lon="-5.569731">
        <ele>828.5</ele>
        <time>2021-08-21T04:36:16Z</time>
      </trkpt>
      <trkpt lat="42.596071" lon="-5.569741">
        <ele>828.7</ele>
        <time>2021-08-21T04:36:27Z</time>
      </trkpt>
      <trkpt lat="42.596259" lon="-5.569773">
        <ele>829.0</ele>
        <time>2021-08-21T04:36:41Z</time>
      </trkpt>
      <trkpt lat="42.596443" lon="-5.569812">
        <ele>829.5</ele>
        <time>2021-08-21T04:36:56Z</time>
      </trkpt>
      <trkpt lat="42.596622" lon="-5.569860">
        <ele>829.6</ele>
        <time>2021-08-21T04:37:09Z</time>
      </trkpt>
      <trkpt lat="42.596799" lon="-5.569821">
        <ele>830.0</ele>
        <time>2021-08-21T04:37:24Z</time>
      </trkpt>
      <trkpt lat="42.596982" lon="-5.569861">
        <ele>830.2</ele>
        <time>2021-08-21T04:37:41Z</time>
      </trkpt>
      <trkpt lat="42.597158" lon="-5.569936">
        <ele>830.7</ele>
        <time>2021-08-21T04:38:03Z</time>
      </trkpt>
      <trkpt lat="42.597338" lon="-5.569997">
        <ele>830.8</ele>
        <time>2021-08-21T04:38:17Z</time>
      </trkpt>
      <trkpt lat="42.597515" lon="-5.570064">
        <ele>830.8</ele>
        <time>2021-08-21T04:38:31Z</time>
      </trkpt>
      <trkpt lat="42.597696" lon="-5.570091">
        <ele>831.0</ele>
        <time>2021-08-21T04:38:46Z</time>
      </trkpt>
      <trkpt lat="42.597883" lon="-5.570160">
        <ele>831.3</ele>
        <time>2021-08-21T04:39:03Z</time>
      </trkpt>
      <trkpt lat="42.598039" lon="-5.570284">
        <ele>831.2</ele>
        <time>2021-08-21T04:39:18Z</time>
      </trkpt>
      <trkpt lat="42.598119" lon="-5.570046">
        <ele>831.3</ele>
        <time>2021-08-21T04:39:32Z</time>
      </trkpt>
      <trkpt lat="42.598208" lon="-5.569829">
        <ele>832.1</ele>
        <time>2021-08-21T04:39:46Z</time>
      </trkpt>
      <trkpt lat="42.598295" lon="-5.569593">
        <ele>832.8</ele>
        <time>2021-08-21T04:40:02Z</time>
      </trkpt>
      <trkpt lat="42.598332" lon="-5.569350">
        <ele>833.5</ele>
        <time>2021-08-21T04:40:18Z</time>
      </trkpt>
      <trkpt lat="42.598388" lon="-5.569108">
        <ele>834.2</ele>
        <time>2021-08-21T04:40:30Z</time>
      </trkpt>
      <trkpt lat="42.598455" lon="-5.568876">
        <ele>835.2</ele>
        <time>2021-08-21T04:40:48Z</time>
      </trkpt>
      <trkpt lat="42.598497" lon="-5.568633">
        <ele>835.6</ele>
        <time>2021-08-21T04:40:59Z</time>
      </trkpt>
      <trkpt lat="42.598545" lon="-5.568386">
        <ele>835.8</ele>
        <time>2021-08-21T04:41:12Z</time>
      </trkpt>
      <trkpt lat="42.598589" lon="-5.568139">
        <ele>836.1</ele>
        <time>2021-08-21T04:41:26Z</time>
      </trkpt>
      <trkpt lat="42.598659" lon="-5.567907">
        <ele>836.2</ele>
        <time>2021-08-21T04:41:43Z</time>
      </trkpt>
      <trkpt lat="42.598772" lon="-5.567696">
        <ele>836.4</ele>
        <time>2021-08-21T04:41:55Z</time>
      </trkpt>
      <trkpt lat="42.598917" lon="-5.567541">
        <ele>836.7</ele>
        <time>2021-08-21T04:42:14Z</time>
      </trkpt>
      <trkpt lat="42.599077" lon="-5.567418">
        <ele>837.0</ele>
        <time>2021-08-21T04:42:36Z</time>
      </trkpt>
      <trkpt lat="42.599256" lon="-5.567505">
        <ele>837.0</ele>
        <time>2021-08-21T04:42:51Z</time>
      </trkpt>
      <trkpt lat="42.599288" lon="-5.567748">
        <ele>836.9</ele>
        <time>2021-08-21T04:43:12Z</time>
      </trkpt>
      <trkpt lat="42.599209" lon="-5.567979">
        <ele>836.7</ele>
        <time>2021-08-21T04:43:25Z</time>
      </trkpt>
      <trkpt lat="42.599338" lon="-5.568164">
        <ele>836.5</ele>
        <time>2021-08-21T04:43:37Z</time>
      </trkpt>
      <trkpt lat="42.599310" lon="-5.568416">
        <ele>836.5</ele>
        <time>2021-08-21T04:43:53Z</time>
      </trkpt>
      <trkpt lat="42.599235" lon="-5.568643">
        <ele>836.5</ele>
        <time>2021-08-21T04:44:10Z</time>
      </trkpt>
      <trkpt lat="42.599240" lon="-5.568891">
        <ele>835.8</ele>
        <time>2021-08-21T04:44:25Z</time>
      </trkpt>
      <trkpt lat="42.599217" lon="-5.569142">
        <ele>835.1</ele>
        <time>2021-08-21T04:44:49Z</time>
      </trkpt>
      <trkpt lat="42.599271" lon="-5.569380">
        <ele>834.3</ele>
        <time>2021-08-21T04:45:15Z</time>
      </trkpt>
      <trkpt lat="42.599224" lon="-5.569619">
        <ele>834.1</ele>
        <time>2021-08-21T04:45:23Z</time>
      </trkpt>
      <trkpt lat="42.599131" lon="-5.569857">
        <ele>834.0</ele>
        <time>2021-08-21T04:45:31Z</time>
      </trkpt>
      <trkpt lat="42.599149" lon="-5.569954">
        <ele>833.4</ele>
        <time>2021-08-21T04:46:03Z</time>
      </trkpt>
      <trkpt lat="42.599320" lon="-5.570051">
        <ele>834.1</ele>
        <time>2021-08-21T04:46:20Z</time>
      </trkpt>
      <trkpt lat="42.599495" lon="-5.570144">
        <ele>834.4</ele>
        <time>2021-08-21T04:46:33Z</time>
      </trkpt>
      <trkpt lat="42.599659" lon="-5.570249">
        <ele>834.8</ele>
        <time>2021-08-21T04:46:48Z</time>
      </trkpt>
      <trkpt lat="42.599836" lon="-5.570348">
        <ele>834.8</ele>
        <time>2021-08-21T04:47:04Z</time>
      </trkpt>
      <trkpt lat="42.600014" lon="-5.570450">
        <ele>835.4</ele>
        <time>2021-08-21T04:47:19Z</time>
      </trkpt>
      <trkpt lat="42.600169" lon="-5.570612">
        <ele>836.3</ele>
        <time>2021-08-21T04:47:33Z</time>
      </trkpt>
      <trkpt lat="42.600342" lon="-5.570709">
        <ele>836.1</ele>
        <time>2021-08-21T04:47:46Z</time>
      </trkpt>
      <trkpt lat="42.600505" lon="-5.570593">
        <ele>836.3</ele>
        <time>2021-08-21T04:48:00Z</time>
      </trkpt>
      <trkpt lat="42.600635" lon="-5.570419">
        <ele>836.6</ele>
        <time>2021-08-21T04:48:14Z</time>
      </trkpt>
      <trkpt lat="42.600816" lon="-5.570465">
        <ele>837.0</ele>
        <time>2021-08-21T04:48:30Z</time>
      </trkpt>
      <trkpt lat="42.601004" lon="-5.570497">
        <ele>837.4</ele>
        <time>2021-08-21T04:48:44Z</time>
      </trkpt>
      <trkpt lat="42.601176" lon="-5.570583">
        <ele>837.7</ele>
        <time>2021-08-21T04:49:00Z</time>
      </trkpt>
      <trkpt lat="42.601353" lon="-5.570671">
        <ele>837.7</ele>
        <time>2021-08-21T04:49:14Z</time>
      </trkpt>
      <trkpt lat="42.601543" lon="-5.570728">
        <ele>837.7</ele>
        <time>2021-08-21T04:49:28Z</time>
      </trkpt>
      <trkpt lat="42.601685" lon="-5.570884">
        <ele>837.7</ele>
        <time>2021-08-21T04:49:40Z</time>
      </trkpt>
      <trkpt lat="42.601733" lon="-5.571134">
        <ele>837.9</ele>
        <time>2021-08-21T04:49:56Z</time>
      </trkpt>
      <trkpt lat="42.601749" lon="-5.571380">
        <ele>837.2</ele>
        <time>2021-08-21T04:50:11Z</time>
      </trkpt>
      <trkpt lat="42.601775" lon="-5.571630">
        <ele>835.9</ele>
        <time>2021-08-21T04:50:26Z</time>
      </trkpt>
      <trkpt lat="42.601899" lon="-5.571860">
        <ele>835.6</ele>
        <time>2021-08-21T04:50:46Z</time>
      </trkpt>
      <trkpt lat="42.601968" lon="-5.572087">
        <ele>835.0</ele>
        <time>2021-08-21T04:50:59Z</time>
      </trkpt>
      <trkpt lat="42.601933" lon="-5.572332">
        <ele>834.7</ele>
        <time>2021-08-21T04:51:11Z</time>
      </trkpt>
      <trkpt lat="42.601980" lon="-5.572580">
        <ele>834.7</ele>
        <time>2021-08-21T04:51:24Z</time>
      </trkpt>
      <trkpt lat="42.601984" lon="-5.572827">
        <ele>834.3</ele>
        <time>2021-08-21T04:51:38Z</time>
      </trkpt>
      <trkpt lat="42.601928" lon="-5.573074">
        <ele>833.8</ele>
        <time>2021-08-21T04:51:53Z</time>
      </trkpt>
      <trkpt lat="42.602064" lon="-5.573269">
        <ele>833.6</ele>
        <time>2021-08-21T04:52:04Z</time>
      </trkpt>
      <trkpt lat="42.602056" lon="-5.573531">
        <ele>833.2</ele>
        <time>2021-08-21T04:52:18Z</time>
      </trkpt>
      <trkpt lat="42.601962" lon="-5.573778">
        <ele>832.9</ele>
        <time>2021-08-21T04:52:31Z</time>
      </trkpt>
      <trkpt lat="42.602064" lon="-5.573981">
        <ele>833.1</ele>
        <time>2021-08-21T04:52:43Z</time>
      </trkpt>
      <trkpt lat="42.602052" lon="-5.574238">
        <ele>832.5</ele>
        <time>2021-08-21T04:52:58Z</time>
      </trkpt>
      <trkpt lat="42.602152" lon="-5.574448">
        <ele>832.5</ele>
        <time>2021-08-21T04:53:12Z</time>
      </trkpt>
      <trkpt lat="42.602164" lon="-5.574709">
        <ele>832.7</ele>
        <time>2021-08-21T04:53:28Z</time>
      </trkpt>
      <trkpt lat="42.602145" lon="-5.574969">
        <ele>832.5</ele>
        <time>2021-08-21T04:53:43Z</time>
      </trkpt>
      <trkpt lat="42.602028" lon="-5.575164">
        <ele>832.6</ele>
        <time>2021-08-21T04:53:59Z</time>
      </trkpt>
      <trkpt lat="42.602065" lon="-5.575405">
        <ele>832.6</ele>
        <time>2021-08-21T04:54:10Z</time>
      </trkpt>
      <trkpt lat="42.602037" lon="-5.575656">
        <ele>832.5</ele>
        <time>2021-08-21T04:54:19Z</time>
      </trkpt>
      <trkpt lat="42.602012" lon="-5.575911">
        <ele>832.6</ele>
        <time>2021-08-21T04:54:32Z</time>
      </trkpt>
      <trkpt lat="42.602059" lon="-5.576153">
        <ele>831.9</ele>
        <time>2021-08-21T04:54:45Z</time>
      </trkpt>
      <trkpt lat="42.602123" lon="-5.576387">
        <ele>831.5</ele>
        <time>2021-08-21T04:55:02Z</time>
      </trkpt>
      <trkpt lat="42.602039" lon="-5.576610">
        <ele>831.5</ele>
        <time>2021-08-21T04:55:11Z</time>
      </trkpt>
      <trkpt lat="42.602020" lon="-5.576858">
        <ele>831.5</ele>
        <time>2021-08-21T04:55:23Z</time>
      </trkpt>
      <trkpt lat="42.601951" lon="-5.577090">
        <ele>831.6</ele>
        <time>2021-08-21T04:55:36Z</time>
      </trkpt>
      <trkpt lat="42.601895" lon="-5.577328">
        <ele>831.4</ele>
        <time>2021-08-21T04:55:51Z</time>
      </trkpt>
      <trkpt lat="42.601987" lon="-5.577540">
        <ele>831.5</ele>
        <time>2021-08-21T04:56:13Z</time>
      </trkpt>
      <trkpt lat="42.601971" lon="-5.577791">
        <ele>831.8</ele>
        <time>2021-08-21T04:56:25Z</time>
      </trkpt>
      <trkpt lat="42.602031" lon="-5.578031">
        <ele>831.7</ele>
        <time>2021-08-21T04:56:38Z</time>
      </trkpt>
      <trkpt lat="42.602058" lon="-5.578285">
        <ele>831.7</ele>
        <time>2021-08-21T04:56:49Z</time>
      </trkpt>
      <trkpt lat="42.602075" lon="-5.578534">
        <ele>831.7</ele>
        <time>2021-08-21T04:57:01Z</time>
      </trkpt>
      <trkpt lat="42.602140" lon="-5.578767">
        <ele>831.6</ele>
        <time>2021-08-21T04:57:13Z</time>
      </trkpt>
      <trkpt lat="42.602131" lon="-5.579013">
        <ele>831.5</ele>
        <time>2021-08-21T04:57:27Z</time>
      </trkpt>
      <trkpt lat="42.602071" lon="-5.579248">
        <ele>831.5</ele>
        <time>2021-08-21T04:57:54Z</time>
      </trkpt>
      <trkpt lat="42.602082" lon="-5.579496">
        <ele>831.4</ele>
        <time>2021-08-21T04:58:02Z</time>
      </trkpt>
      <trkpt lat="42.601965" lon="-5.579707">
        <ele>830.9</ele>
        <time>2021-08-21T04:58:16Z</time>
      </trkpt>
      <trkpt lat="42.601892" lon="-5.579937">
        <ele>831.0</ele>
        <time>2021-08-21T04:58:27Z</time>
      </trkpt>
      <trkpt lat="42.601867" lon="-5.580190">
        <ele>830.9</ele>
        <time>2021-08-21T04:58:40Z</time>
      </trkpt>
      <trkpt lat="42.601783" lon="-5.580423">
        <ele>830.8</ele>
        <time>2021-08-21T04:58:54Z</time>
      </trkpt>
      <trkpt lat="42.601783" lon="-5.580674">
        <ele>830.5</ele>
        <time>2021-08-21T04:59:06Z</time>
      </trkpt>
      <trkpt lat="42.601739" lon="-5.580931">
        <ele>830.4</ele>
        <time>2021-08-21T04:59:19Z</time>
      </trkpt>
      <trkpt lat="42.601707" lon="-5.581179">
        <ele>830.4</ele>
        <time>2021-08-21T04:59:34Z</time>
      </trkpt>
      <trkpt lat="42.601643" lon="-5.581412">
        <ele>830.3</ele>
        <time>2021-08-21T05:00:04Z</time>
      </trkpt>
      <trkpt lat="42.601554" lon="-5.581643">
        <ele>830.4</ele>
        <time>2021-08-21T05:00:16Z</time>
      </trkpt>
      <trkpt lat="42.601518" lon="-5.581893">
        <ele>830.3</ele>
        <time>2021-08-21T05:00:30Z</time>
      </trkpt>
      <trkpt lat="42.601519" lon="-5.582137">
        <ele>830.5</ele>
        <time>2021-08-21T05:00:42Z</time>
      </trkpt>
      <trkpt lat="42.601489" lon="-5.582394">
        <ele>830.5</ele>
        <time>2021-08-21T05:01:10Z</time>
      </trkpt>
      <trkpt lat="42.601385" lon="-5.582602">
        <ele>830.5</ele>
        <time>2021-08-21T05:01:49Z</time>
      </trkpt>
      <trkpt lat="42.601342" lon="-5.582845">
        <ele>824.8</ele>
        <time>2021-08-21T05:02:05Z</time>
      </trkpt>
      <trkpt lat="42.601259" lon="-5.583066">
        <ele>824.5</ele>
        <time>2021-08-21T05:02:16Z</time>
      </trkpt>
      <trkpt lat="42.601169" lon="-5.583294">
        <ele>824.9</ele>
        <time>2021-08-21T05:02:30Z</time>
      </trkpt>
      <trkpt lat="42.601065" lon="-5.583497">
        <ele>824.9</ele>
        <time>2021-08-21T05:02:47Z</time>
      </trkpt>
      <trkpt lat="42.600976" lon="-5.583720">
        <ele>824.8</ele>
        <time>2021-08-21T05:02:58Z</time>
      </trkpt>
      <trkpt lat="42.600885" lon="-5.583933">
        <ele>825.5</ele>
        <time>2021-08-21T05:03:21Z</time>
      </trkpt>
      <trkpt lat="42.600854" lon="-5.584175">
        <ele>825.4</ele>
        <time>2021-08-21T05:03:51Z</time>
      </trkpt>
      <trkpt lat="42.600765" lon="-5.584405">
        <ele>825.7</ele>
        <time>2021-08-21T05:04:02Z</time>
      </trkpt>
      <trkpt lat="42.600668" lon="-5.584613">
        <ele>822.3</ele>
        <time>2021-08-21T05:04:15Z</time>
      </trkpt>
      <trkpt lat="42.600563" lon="-5.584826">
        <ele>822.5</ele>
        <time>2021-08-21T05:04:31Z</time>
      </trkpt>
      <trkpt lat="42.600463" lon="-5.585031">
        <ele>826.3</ele>
        <time>2021-08-21T05:04:44Z</time>
      </trkpt>
      <trkpt lat="42.600408" lon="-5.585267">
        <ele>826.3</ele>
        <time>2021-08-21T05:04:57Z</time>
      </trkpt>
      <trkpt lat="42.600299" lon="-5.585464">
        <ele>826.2</ele>
        <time>2021-08-21T05:05:07Z</time>
      </trkpt>
      <trkpt lat="42.600159" lon="-5.585635">
        <ele>826.1</ele>
        <time>2021-08-21T05:05:17Z</time>
      </trkpt>
      <trkpt lat="42.600086" lon="-5.585864">
        <ele>826.8</ele>
        <time>2021-08-21T05:05:31Z</time>
      </trkpt>
      <trkpt lat="42.599992" lon="-5.586090">
        <ele>826.7</ele>
        <time>2021-08-21T05:05:46Z</time>
      </trkpt>
      <trkpt lat="42.599930" lon="-5.586321">
        <ele>826.8</ele>
        <time>2021-08-21T05:05:59Z</time>
      </trkpt>
      <trkpt lat="42.599848" lon="-5.586545">
        <ele>826.7</ele>
        <time>2021-08-21T05:06:12Z</time>
      </trkpt>
      <trkpt lat="42.599747" lon="-5.586750">
        <ele>826.6</ele>
        <time>2021-08-21T05:06:28Z</time>
      </trkpt>
      <trkpt lat="42.599678" lon="-5.586985">
        <ele>822.3</ele>
        <time>2021-08-21T05:06:41Z</time>
      </trkpt>
      <trkpt lat="42.599608" lon="-5.587213">
        <ele>823.1</ele>
        <time>2021-08-21T05:06:55Z</time>
      </trkpt>
      <trkpt lat="42.599535" lon="-5.587457">
        <ele>820.6</ele>
        <time>2021-08-21T05:07:10Z</time>
      </trkpt>
      <trkpt lat="42.599461" lon="-5.587692">
        <ele>821.3</ele>
        <time>2021-08-21T05:07:23Z</time>
      </trkpt>
      <trkpt lat="42.599382" lon="-5.587917">
        <ele>823.9</ele>
        <time>2021-08-21T05:07:35Z</time>
      </trkpt>
      <trkpt lat="42.599267" lon="-5.588125">
        <ele>823.8</ele>
        <time>2021-08-21T05:07:48Z</time>
      </trkpt>
      <trkpt lat="42.599171" lon="-5.588347">
        <ele>823.2</ele>
        <time>2021-08-21T05:08:03Z</time>
      </trkpt>
      <trkpt lat="42.599085" lon="-5.588570">
        <ele>822.6</ele>
        <time>2021-08-21T05:08:18Z</time>
      </trkpt>
      <trkpt lat="42.598997" lon="-5.588793">
        <ele>819.2</ele>
        <time>2021-08-21T05:08:32Z</time>
      </trkpt>
      <trkpt lat="42.598920" lon="-5.589028">
        <ele>824.9</ele>
        <time>2021-08-21T05:08:44Z</time>
      </trkpt>
      <trkpt lat="42.598848" lon="-5.589256">
        <ele>824.9</ele>
        <time>2021-08-21T05:08:58Z</time>
      </trkpt>
      <trkpt lat="42.598772" lon="-5.589492">
        <ele>825.1</ele>
        <time>2021-08-21T05:09:12Z</time>
      </trkpt>
      <trkpt lat="42.598724" lon="-5.589730">
        <ele>825.2</ele>
        <time>2021-08-21T05:09:25Z</time>
      </trkpt>
      <trkpt lat="42.598675" lon="-5.589971">
        <ele>820.5</ele>
        <time>2021-08-21T05:09:38Z</time>
      </trkpt>
      <trkpt lat="42.598624" lon="-5.590207">
        <ele>822.0</ele>
        <time>2021-08-21T05:09:55Z</time>
      </trkpt>
      <trkpt lat="42.598648" lon="-5.590452">
        <ele>825.7</ele>
        <time>2021-08-21T05:10:05Z</time>
      </trkpt>
      <trkpt lat="42.598682" lon="-5.590701">
        <ele>825.6</ele>
        <time>2021-08-21T05:10:18Z</time>
      </trkpt>
      <trkpt lat="42.598719" lon="-5.590943">
        <ele>825.5</ele>
        <time>2021-08-21T05:10:34Z</time>
      </trkpt>
      <trkpt lat="42.598751" lon="-5.591187">
        <ele>825.6</ele>
        <time>2021-08-21T05:10:44Z</time>
      </trkpt>
      <trkpt lat="42.598743" lon="-5.591441">
        <ele>825.5</ele>
        <time>2021-08-21T05:10:59Z</time>
      </trkpt>
      <trkpt lat="42.598738" lon="-5.591692">
        <ele>835.8</ele>
        <time>2021-08-21T05:11:12Z</time>
      </trkpt>
      <trkpt lat="42.598711" lon="-5.591947">
        <ele>837.3</ele>
        <time>2021-08-21T05:11:26Z</time>
      </trkpt>
      <trkpt lat="42.598630" lon="-5.592179">
        <ele>844.9</ele>
        <time>2021-08-21T05:11:39Z</time>
      </trkpt>
      <trkpt lat="42.598578" lon="-5.592414">
        <ele>845.2</ele>
        <time>2021-08-21T05:11:56Z</time>
      </trkpt>
      <trkpt lat="42.598552" lon="-5.592656">
        <ele>836.4</ele>
        <time>2021-08-21T05:12:08Z</time>
      </trkpt>
      <trkpt lat="42.598605" lon="-5.592911">
        <ele>833.7</ele>
        <time>2021-08-21T05:12:27Z</time>
      </trkpt>
      <trkpt lat="42.598565" lon="-5.593155">
        <ele>833.8</ele>
        <time>2021-08-21T05:12:42Z</time>
      </trkpt>
      <trkpt lat="42.598563" lon="-5.593405">
        <ele>833.8</ele>
        <time>2021-08-21T05:12:56Z</time>
      </trkpt>
      <trkpt lat="42.598548" lon="-5.593664">
        <ele>833.6</ele>
        <time>2021-08-21T05:13:09Z</time>
      </trkpt>
      <trkpt lat="42.598569" lon="-5.593925">
        <ele>828.2</ele>
        <time>2021-08-21T05:13:23Z</time>
      </trkpt>
      <trkpt lat="42.598623" lon="-5.594182">
        <ele>828.1</ele>
        <time>2021-08-21T05:13:40Z</time>
      </trkpt>
      <trkpt lat="42.598623" lon="-5.594447">
        <ele>828.1</ele>
        <time>2021-08-21T05:14:02Z</time>
      </trkpt>
      <trkpt lat="42.598608" lon="-5.594704">
        <ele>827.0</ele>
        <time>2021-08-21T05:14:11Z</time>
      </trkpt>
      <trkpt lat="42.598579" lon="-5.594957">
        <ele>826.5</ele>
        <time>2021-08-21T05:14:23Z</time>
      </trkpt>
      <trkpt lat="42.598516" lon="-5.595197">
        <ele>826.5</ele>
        <time>2021-08-21T05:14:34Z</time>
      </trkpt>
      <trkpt lat="42.598508" lon="-5.595451">
        <ele>826.6</ele>
        <time>2021-08-21T05:14:48Z</time>
      </trkpt>
      <trkpt lat="42.598476" lon="-5.595700">
        <ele>826.8</ele>
        <time>2021-08-21T05:15:00Z</time>
      </trkpt>
      <trkpt lat="42.598472" lon="-5.595962">
        <ele>826.8</ele>
        <time>2021-08-21T05:15:11Z</time>
      </trkpt>
      <trkpt lat="42.598481" lon="-5.596217">
        <ele>831.1</ele>
        <time>2021-08-21T05:15:23Z</time>
      </trkpt>
      <trkpt lat="42.598460" lon="-5.596471">
        <ele>834.2</ele>
        <time>2021-08-21T05:15:34Z</time>
      </trkpt>
      <trkpt lat="42.598427" lon="-5.596714">
        <ele>838.3</ele>
        <time>2021-08-21T05:15:49Z</time>
      </trkpt>
      <trkpt lat="42.598396" lon="-5.596965">
        <ele>837.2</ele>
        <time>2021-08-21T05:16:03Z</time>
      </trkpt>
      <trkpt lat="42.598399" lon="-5.597229">
        <ele>837.9</ele>
        <time>2021-08-21T05:16:17Z</time>
      </trkpt>
      <trkpt lat="42.598367" lon="-5.597476">
        <ele>832.9</ele>
        <time>2021-08-21T05:16:32Z</time>
      </trkpt>
      <trkpt lat="42.598393" lon="-5.597735">
        <ele>832.7</ele>
        <time>2021-08-21T05:16:42Z</time>
      </trkpt>
      <trkpt lat="42.598393" lon="-5.597979">
        <ele>832.7</ele>
        <time>2021-08-21T05:16:56Z</time>
      </trkpt>
      <trkpt lat="42.598359" lon="-5.598226">
        <ele>832.7</ele>
        <time>2021-08-21T05:17:13Z</time>
      </trkpt>
      <trkpt lat="42.598297" lon="-5.598460">
        <ele>839.3</ele>
        <time>2021-08-21T05:17:26Z</time>
      </trkpt>
      <trkpt lat="42.598351" lon="-5.598703">
        <ele>832.8</ele>
        <time>2021-08-21T05:17:50Z</time>
      </trkpt>
      <trkpt lat="42.598524" lon="-5.598780">
        <ele>827.0</ele>
        <time>2021-08-21T05:18:33Z</time>
      </trkpt>
      <trkpt lat="42.598691" lon="-5.598883">
        <ele>826.9</ele>
        <time>2021-08-21T05:18:52Z</time>
      </trkpt>
      <trkpt lat="42.598865" lon="-5.598956">
        <ele>827.4</ele>
        <time>2021-08-21T05:19:18Z</time>
      </trkpt>
      <trkpt lat="42.598965" lon="-5.599177">
        <ele>827.6</ele>
        <time>2021-08-21T05:19:34Z</time>
      </trkpt>
      <trkpt lat="42.598974" lon="-5.599425">
        <ele>827.5</ele>
        <time>2021-08-21T05:19:50Z</time>
      </trkpt>
      <trkpt lat="42.598975" lon="-5.599678">
        <ele>827.6</ele>
        <time>2021-08-21T05:20:08Z</time>
      </trkpt>
      <trkpt lat="42.598947" lon="-5.599925">
        <ele>830.2</ele>
        <time>2021-08-21T05:20:25Z</time>
      </trkpt>
      <trkpt lat="42.598895" lon="-5.600161">
        <ele>831.7</ele>
        <time>2021-08-21T05:20:40Z</time>
      </trkpt>
      <trkpt lat="42.598798" lon="-5.600371">
        <ele>832.7</ele>
        <time>2021-08-21T05:20:57Z</time>
      </trkpt>
      <trkpt lat="42.598691" lon="-5.600584">
        <ele>831.0</ele>
        <time>2021-08-21T05:21:11Z</time>
      </trkpt>
      <trkpt lat="42.598542" lon="-5.600748">
        <ele>834.9</ele>
        <time>2021-08-21T05:21:24Z</time>
      </trkpt>
      <trkpt lat="42.598395" lon="-5.600914">
        <ele>833.4</ele>
        <time>2021-08-21T05:21:42Z</time>
      </trkpt>
      <trkpt lat="42.598226" lon="-5.601024">
        <ele>831.5</ele>
        <time>2021-08-21T05:21:53Z</time>
      </trkpt>
      <trkpt lat="42.598083" lon="-5.601182">
        <ele>831.1</ele>
        <time>2021-08-21T05:22:07Z</time>
      </trkpt>
      <trkpt lat="42.597952" lon="-5.601359">
        <ele>828.7</ele>
        <time>2021-08-21T05:22:22Z</time>
      </trkpt>
      <trkpt lat="42.597857" lon="-5.601567">
        <ele>826.1</ele>
        <time>2021-08-21T05:22:37Z</time>
      </trkpt>
      <trkpt lat="42.597850" lon="-5.601818">
        <ele>821.3</ele>
        <time>2021-08-21T05:22:54Z</time>
      </trkpt>
      <trkpt lat="42.597772" lon="-5.602039">
        <ele>819.0</ele>
        <time>2021-08-21T05:23:09Z</time>
      </trkpt>
      <trkpt lat="42.597715" lon="-5.602279">
        <ele>818.4</ele>
        <time>2021-08-21T05:23:23Z</time>
      </trkpt>
      <trkpt lat="42.597660" lon="-5.602522">
        <ele>820.1</ele>
        <time>2021-08-21T05:23:37Z</time>
      </trkpt>
      <trkpt lat="42.597498" lon="-5.602637">
        <ele>820.8</ele>
        <time>2021-08-21T05:23:54Z</time>
      </trkpt>
      <trkpt lat="42.597402" lon="-5.602859">
        <ele>821.6</ele>
        <time>2021-08-21T05:24:10Z</time>
      </trkpt>
      <trkpt lat="42.597303" lon="-5.603068">
        <ele>822.2</ele>
        <time>2021-08-21T05:24:23Z</time>
      </trkpt>
      <trkpt lat="42.597225" lon="-5.603294">
        <ele>823.1</ele>
        <time>2021-08-21T05:24:37Z</time>
      </trkpt>
      <trkpt lat="42.597150" lon="-5.603531">
        <ele>823.9</ele>
        <time>2021-08-21T05:24:47Z</time>
      </trkpt>
      <trkpt lat="42.597056" lon="-5.603758">
        <ele>825.1</ele>
        <time>2021-08-21T05:25:00Z</time>
      </trkpt>
      <trkpt lat="42.596979" lon="-5.603986">
        <ele>825.0</ele>
        <time>2021-08-21T05:25:14Z</time>
      </trkpt>
      <trkpt lat="42.596903" lon="-5.604219">
        <ele>828.3</ele>
        <time>2021-08-21T05:25:26Z</time>
      </trkpt>
      <trkpt lat="42.596824" lon="-5.604440">
        <ele>829.0</ele>
        <time>2021-08-21T05:25:40Z</time>
      </trkpt>
      <trkpt lat="42.596772" lon="-5.604677">
        <ele>831.5</ele>
        <time>2021-08-21T05:25:50Z</time>
      </trkpt>
      <trkpt lat="42.596688" lon="-5.604900">
        <ele>830.1</ele>
        <time>2021-08-21T05:26:06Z</time>
      </trkpt>
      <trkpt lat="42.596579" lon="-5.605104">
        <ele>830.1</ele>
        <time>2021-08-21T05:26:16Z</time>
      </trkpt>
      <trkpt lat="42.596496" lon="-5.605326">
        <ele>830.0</ele>
        <time>2021-08-21T05:26:30Z</time>
      </trkpt>
      <trkpt lat="42.596440" lon="-5.605574">
        <ele>827.9</ele>
        <time>2021-08-21T05:26:49Z</time>
      </trkpt>
      <trkpt lat="42.596434" lon="-5.605825">
        <ele>831.6</ele>
        <time>2021-08-21T05:26:58Z</time>
      </trkpt>
      <trkpt lat="42.596432" lon="-5.606071">
        <ele>834.7</ele>
        <time>2021-08-21T05:27:14Z</time>
      </trkpt>
      <trkpt lat="42.596413" lon="-5.606314">
        <ele>838.0</ele>
        <time>2021-08-21T05:27:27Z</time>
      </trkpt>
      <trkpt lat="42.596371" lon="-5.606566">
        <ele>838.8</ele>
        <time>2021-08-21T05:27:38Z</time>
      </trkpt>
      <trkpt lat="42.596391" lon="-5.606811">
        <ele>840.4</ele>
        <time>2021-08-21T05:27:51Z</time>
      </trkpt>
      <trkpt lat="42.596375" lon="-5.607059">
        <ele>839.9</ele>
        <time>2021-08-21T05:28:05Z</time>
      </trkpt>
      <trkpt lat="42.596348" lon="-5.607312">
        <ele>842.2</ele>
        <time>2021-08-21T05:28:18Z</time>
      </trkpt>
      <trkpt lat="42.596323" lon="-5.607580">
        <ele>836.6</ele>
        <time>2021-08-21T05:28:35Z</time>
      </trkpt>
      <trkpt lat="42.596278" lon="-5.607823">
        <ele>836.5</ele>
        <time>2021-08-21T05:28:44Z</time>
      </trkpt>
      <trkpt lat="42.596191" lon="-5.608044">
        <ele>836.6</ele>
        <time>2021-08-21T05:28:57Z</time>
      </trkpt>
      <trkpt lat="42.596193" lon="-5.608308">
        <ele>836.7</ele>
        <time>2021-08-21T05:29:14Z</time>
      </trkpt>
      <trkpt lat="42.596160" lon="-5.608550">
        <ele>842.6</ele>
        <time>2021-08-21T05:29:26Z</time>
      </trkpt>
      <trkpt lat="42.595982" lon="-5.608642">
        <ele>837.7</ele>
        <time>2021-08-21T05:29:41Z</time>
      </trkpt>
      <trkpt lat="42.595913" lon="-5.608892">
        <ele>837.3</ele>
        <time>2021-08-21T05:29:55Z</time>
      </trkpt>
      <trkpt lat="42.595814" lon="-5.609112">
        <ele>837.3</ele>
        <time>2021-08-21T05:30:11Z</time>
      </trkpt>
      <trkpt lat="42.595728" lon="-5.609342">
        <ele>837.2</ele>
        <time>2021-08-21T05:30:21Z</time>
      </trkpt>
      <trkpt lat="42.595613" lon="-5.609538">
        <ele>837.7</ele>
        <time>2021-08-21T05:30:33Z</time>
      </trkpt>
      <trkpt lat="42.595515" lon="-5.609751">
        <ele>837.9</ele>
        <time>2021-08-21T05:30:45Z</time>
      </trkpt>
      <trkpt lat="42.595429" lon="-5.609974">
        <ele>837.9</ele>
        <time>2021-08-21T05:30:58Z</time>
      </trkpt>
      <trkpt lat="42.595348" lon="-5.610201">
        <ele>837.9</ele>
        <time>2021-08-21T05:31:10Z</time>
      </trkpt>
      <trkpt lat="42.595271" lon="-5.610431">
        <ele>837.9</ele>
        <time>2021-08-21T05:31:22Z</time>
      </trkpt>
      <trkpt lat="42.595190" lon="-5.610672">
        <ele>841.2</ele>
        <time>2021-08-21T05:31:39Z</time>
      </trkpt>
      <trkpt lat="42.595100" lon="-5.610892">
        <ele>843.1</ele>
        <time>2021-08-21T05:31:51Z</time>
      </trkpt>
      <trkpt lat="42.595003" lon="-5.611106">
        <ele>842.0</ele>
        <time>2021-08-21T05:32:04Z</time>
      </trkpt>
      <trkpt lat="42.594908" lon="-5.611329">
        <ele>844.2</ele>
        <time>2021-08-21T05:32:21Z</time>
      </trkpt>
      <trkpt lat="42.594813" lon="-5.611541">
        <ele>845.7</ele>
        <time>2021-08-21T05:32:34Z</time>
      </trkpt>
      <trkpt lat="42.594738" lon="-5.611768">
        <ele>843.1</ele>
        <time>2021-08-21T05:32:48Z</time>
      </trkpt>
      <trkpt lat="42.594625" lon="-5.611963">
        <ele>849.4</ele>
        <time>2021-08-21T05:33:06Z</time>
      </trkpt>
      <trkpt lat="42.594437" lon="-5.611941">
        <ele>850.6</ele>
        <time>2021-08-21T05:33:20Z</time>
      </trkpt>
      <trkpt lat="42.594253" lon="-5.611894">
        <ele>851.3</ele>
        <time>2021-08-21T05:33:39Z</time>
      </trkpt>
      <trkpt lat="42.594259" lon="-5.612149">
        <ele>851.6</ele>
        <time>2021-08-21T05:34:02Z</time>
      </trkpt>
      <trkpt lat="42.594246" lon="-5.612421">
        <ele>851.8</ele>
        <time>2021-08-21T05:34:21Z</time>
      </trkpt>
      <trkpt lat="42.594332" lon="-5.612643">
        <ele>852.1</ele>
        <time>2021-08-21T05:34:35Z</time>
      </trkpt>
      <trkpt lat="42.594356" lon="-5.612887">
        <ele>854.9</ele>
        <time>2021-08-21T05:34:55Z</time>
      </trkpt>
      <trkpt lat="42.594427" lon="-5.613114">
        <ele>855.7</ele>
        <time>2021-08-21T05:35:14Z</time>
      </trkpt>
      <trkpt lat="42.594368" lon="-5.613352">
        <ele>857.0</ele>
        <time>2021-08-21T05:35:35Z</time>
      </trkpt>
      <trkpt lat="42.594238" lon="-5.613549">
        <ele>856.4</ele>
        <time>2021-08-21T05:35:48Z</time>
      </trkpt>
      <trkpt lat="42.594116" lon="-5.613738">
        <ele>856.8</ele>
        <time>2021-08-21T05:36:01Z</time>
      </trkpt>
      <trkpt lat="42.594014" lon="-5.613945">
        <ele>856.3</ele>
        <time>2021-08-21T05:36:15Z</time>
      </trkpt>
      <trkpt lat="42.593921" lon="-5.614157">
        <ele>858.3</ele>
        <time>2021-08-21T05:36:29Z</time>
      </trkpt>
      <trkpt lat="42.593835" lon="-5.614383">
        <ele>859.3</ele>
        <time>2021-08-21T05:36:46Z</time>
      </trkpt>
      <trkpt lat="42.593701" lon="-5.614559">
        <ele>865.4</ele>
        <time>2021-08-21T05:37:04Z</time>
      </trkpt>
      <trkpt lat="42.593644" lon="-5.614802">
        <ele>866.9</ele>
        <time>2021-08-21T05:37:16Z</time>
      </trkpt>
      <trkpt lat="42.593571" lon="-5.615035">
        <ele>867.0</ele>
        <time>2021-08-21T05:37:26Z</time>
      </trkpt>
      <trkpt lat="42.593477" lon="-5.615253">
        <ele>867.4</ele>
        <time>2021-08-21T05:37:39Z</time>
      </trkpt>
      <trkpt lat="42.593328" lon="-5.615405">
        <ele>867.4</ele>
        <time>2021-08-21T05:37:49Z</time>
      </trkpt>
      <trkpt lat="42.593270" lon="-5.615637">
        <ele>867.9</ele>
        <time>2021-08-21T05:38:28Z</time>
      </trkpt>
      <trkpt lat="42.593185" lon="-5.615862">
        <ele>867.8</ele>
        <time>2021-08-21T05:38:38Z</time>
      </trkpt>
      <trkpt lat="42.593083" lon="-5.616075">
        <ele>867.5</ele>
        <time>2021-08-21T05:38:51Z</time>
      </trkpt>
      <trkpt lat="42.592987" lon="-5.616283">
        <ele>866.9</ele>
        <time>2021-08-21T05:39:01Z</time>
      </trkpt>
      <trkpt lat="42.592887" lon="-5.616503">
        <ele>866.7</ele>
        <time>2021-08-21T05:39:13Z</time>
      </trkpt>
      <trkpt lat="42.592830" lon="-5.616740">
        <ele>866.6</ele>
        <time>2021-08-21T05:39:25Z</time>
      </trkpt>
      <trkpt lat="42.592745" lon="-5.616956">
        <ele>866.9</ele>
        <time>2021-08-21T05:39:41Z</time>
      </trkpt>
      <trkpt lat="42.592622" lon="-5.617142">
        <ele>866.9</ele>
        <time>2021-08-21T05:39:52Z</time>
      </trkpt>
      <trkpt lat="42.592539" lon="-5.617377">
        <ele>866.9</ele>
        <time>2021-08-21T05:40:06Z</time>
      </trkpt>
      <trkpt lat="42.592438" lon="-5.617579">
        <ele>866.8</ele>
        <time>2021-08-21T05:40:19Z</time>
      </trkpt>
      <trkpt lat="42.592338" lon="-5.617784">
        <ele>866.9</ele>
        <time>2021-08-21T05:40:32Z</time>
      </trkpt>
      <trkpt lat="42.592196" lon="-5.617937">
        <ele>867.3</ele>
        <time>2021-08-21T05:40:49Z</time>
      </trkpt>
      <trkpt lat="42.592083" lon="-5.618130">
        <ele>867.7</ele>
        <time>2021-08-21T05:43:02Z</time>
      </trkpt>
      <trkpt lat="42.592086" lon="-5.618395">
        <ele>867.7</ele>
        <time>2021-08-21T05:43:15Z</time>
      </trkpt>
      <trkpt lat="42.592013" lon="-5.618625">
        <ele>867.6</ele>
        <time>2021-08-21T05:43:27Z</time>
      </trkpt>
      <trkpt lat="42.591920" lon="-5.618837">
        <ele>867.5</ele>
        <time>2021-08-21T05:43:40Z</time>
      </trkpt>
      <trkpt lat="42.591808" lon="-5.619043">
        <ele>867.6</ele>
        <time>2021-08-21T05:43:53Z</time>
      </trkpt>
      <trkpt lat="42.591742" lon="-5.619290">
        <ele>867.7</ele>
        <time>2021-08-21T05:44:07Z</time>
      </trkpt>
      <trkpt lat="42.591659" lon="-5.619522">
        <ele>867.7</ele>
        <time>2021-08-21T05:44:20Z</time>
      </trkpt>
      <trkpt lat="42.591566" lon="-5.619752">
        <ele>867.7</ele>
        <time>2021-08-21T05:44:34Z</time>
      </trkpt>
      <trkpt lat="42.591470" lon="-5.619965">
        <ele>869.0</ele>
        <time>2021-08-21T05:44:46Z</time>
      </trkpt>
      <trkpt lat="42.591382" lon="-5.620197">
        <ele>869.3</ele>
        <time>2021-08-21T05:45:00Z</time>
      </trkpt>
      <trkpt lat="42.591296" lon="-5.620421">
        <ele>869.5</ele>
        <time>2021-08-21T05:45:12Z</time>
      </trkpt>
      <trkpt lat="42.591194" lon="-5.620632">
        <ele>869.2</ele>
        <time>2021-08-21T05:45:25Z</time>
      </trkpt>
      <trkpt lat="42.591084" lon="-5.620843">
        <ele>869.1</ele>
        <time>2021-08-21T05:45:43Z</time>
      </trkpt>
      <trkpt lat="42.590980" lon="-5.621062">
        <ele>869.3</ele>
        <time>2021-08-21T05:45:55Z</time>
      </trkpt>
      <trkpt lat="42.590886" lon="-5.621280">
        <ele>869.6</ele>
        <time>2021-08-21T05:46:08Z</time>
      </trkpt>
      <trkpt lat="42.590753" lon="-5.621449">
        <ele>869.6</ele>
        <time>2021-08-21T05:46:23Z</time>
      </trkpt>
      <trkpt lat="42.590641" lon="-5.621652">
        <ele>869.7</ele>
        <time>2021-08-21T05:46:37Z</time>
      </trkpt>
      <trkpt lat="42.590544" lon="-5.621868">
        <ele>869.7</ele>
        <time>2021-08-21T05:46:52Z</time>
      </trkpt>
      <trkpt lat="42.590442" lon="-5.622085">
        <ele>869.6</ele>
        <time>2021-08-21T05:47:03Z</time>
      </trkpt>
      <trkpt lat="42.590334" lon="-5.622284">
        <ele>869.6</ele>
        <time>2021-08-21T05:47:18Z</time>
      </trkpt>
      <trkpt lat="42.590233" lon="-5.622492">
        <ele>869.5</ele>
        <time>2021-08-21T05:47:29Z</time>
      </trkpt>
      <trkpt lat="42.590129" lon="-5.622695">
        <ele>869.5</ele>
        <time>2021-08-21T05:47:42Z</time>
      </trkpt>
      <trkpt lat="42.590023" lon="-5.622904">
        <ele>869.5</ele>
        <time>2021-08-21T05:47:55Z</time>
      </trkpt>
      <trkpt lat="42.589920" lon="-5.623108">
        <ele>869.4</ele>
        <time>2021-08-21T05:48:08Z</time>
      </trkpt>
      <trkpt lat="42.589820" lon="-5.623321">
        <ele>869.7</ele>
        <time>2021-08-21T05:48:24Z</time>
      </trkpt>
      <trkpt lat="42.589722" lon="-5.623532">
        <ele>869.8</ele>
        <time>2021-08-21T05:48:34Z</time>
      </trkpt>
      <trkpt lat="42.589607" lon="-5.623740">
        <ele>869.7</ele>
        <time>2021-08-21T05:48:47Z</time>
      </trkpt>
      <trkpt lat="42.589519" lon="-5.623956">
        <ele>869.7</ele>
        <time>2021-08-21T05:48:59Z</time>
      </trkpt>
      <trkpt lat="42.589430" lon="-5.624174">
        <ele>869.7</ele>
        <time>2021-08-21T05:49:11Z</time>
      </trkpt>
      <trkpt lat="42.589318" lon="-5.624389">
        <ele>878.8</ele>
        <time>2021-08-21T05:49:25Z</time>
      </trkpt>
      <trkpt lat="42.589224" lon="-5.624600">
        <ele>879.6</ele>
        <time>2021-08-21T05:49:37Z</time>
      </trkpt>
      <trkpt lat="42.589123" lon="-5.624805">
        <ele>881.0</ele>
        <time>2021-08-21T05:49:50Z</time>
      </trkpt>
      <trkpt lat="42.589024" lon="-5.625012">
        <ele>882.7</ele>
        <time>2021-08-21T05:50:02Z</time>
      </trkpt>
      <trkpt lat="42.588914" lon="-5.625217">
        <ele>884.3</ele>
        <time>2021-08-21T05:50:14Z</time>
      </trkpt>
      <trkpt lat="42.588819" lon="-5.625439">
        <ele>885.3</ele>
        <time>2021-08-21T05:50:28Z</time>
      </trkpt>
      <trkpt lat="42.588710" lon="-5.625641">
        <ele>882.0</ele>
        <time>2021-08-21T05:50:44Z</time>
      </trkpt>
      <trkpt lat="42.588606" lon="-5.625844">
        <ele>881.1</ele>
        <time>2021-08-21T05:50:55Z</time>
      </trkpt>
      <trkpt lat="42.588488" lon="-5.626031">
        <ele>881.1</ele>
        <time>2021-08-21T05:51:07Z</time>
      </trkpt>
      <trkpt lat="42.588350" lon="-5.626201">
        <ele>881.9</ele>
        <time>2021-08-21T05:51:23Z</time>
      </trkpt>
      <trkpt lat="42.588184" lon="-5.626333">
        <ele>882.0</ele>
        <time>2021-08-21T05:51:34Z</time>
      </trkpt>
      <trkpt lat="42.588012" lon="-5.626443">
        <ele>883.2</ele>
        <time>2021-08-21T05:51:48Z</time>
      </trkpt>
      <trkpt lat="42.587835" lon="-5.626526">
        <ele>884.5</ele>
        <time>2021-08-21T05:52:01Z</time>
      </trkpt>
      <trkpt lat="42.587679" lon="-5.626650">
        <ele>886.5</ele>
        <time>2021-08-21T05:52:15Z</time>
      </trkpt>
      <trkpt lat="42.587538" lon="-5.626802">
        <ele>890.9</ele>
        <time>2021-08-21T05:52:28Z</time>
      </trkpt>
      <trkpt lat="42.587418" lon="-5.626990">
        <ele>892.2</ele>
        <time>2021-08-21T05:52:41Z</time>
      </trkpt>
      <trkpt lat="42.587292" lon="-5.627165">
        <ele>895.2</ele>
        <time>2021-08-21T05:52:55Z</time>
      </trkpt>
      <trkpt lat="42.587168" lon="-5.627344">
        <ele>886.5</ele>
        <time>2021-08-21T05:53:07Z</time>
      </trkpt>
      <trkpt lat="42.587052" lon="-5.627539">
        <ele>885.9</ele>
        <time>2021-08-21T05:53:24Z</time>
      </trkpt>
      <trkpt lat="42.586930" lon="-5.627723">
        <ele>885.7</ele>
        <time>2021-08-21T05:53:37Z</time>
      </trkpt>
      <trkpt lat="42.586856" lon="-5.627957">
        <ele>885.7</ele>
        <time>2021-08-21T05:53:51Z</time>
      </trkpt>
      <trkpt lat="42.586757" lon="-5.628169">
        <ele>885.6</ele>
        <time>2021-08-21T05:54:09Z</time>
      </trkpt>
      <trkpt lat="42.586638" lon="-5.628370">
        <ele>885.5</ele>
        <time>2021-08-21T05:54:23Z</time>
      </trkpt>
      <trkpt lat="42.586585" lon="-5.628626">
        <ele>885.4</ele>
        <time>2021-08-21T05:54:36Z</time>
      </trkpt>
      <trkpt lat="42.586455" lon="-5.628824">
        <ele>889.1</ele>
        <time>2021-08-21T05:54:50Z</time>
      </trkpt>
      <trkpt lat="42.586275" lon="-5.628882">
        <ele>889.1</ele>
        <time>2021-08-21T05:54:58Z</time>
      </trkpt>
      <trkpt lat="42.586091" lon="-5.628882">
        <ele>890.7</ele>
        <time>2021-08-21T05:55:14Z</time>
      </trkpt>
      <trkpt lat="42.585941" lon="-5.629027">
        <ele>891.0</ele>
        <time>2021-08-21T05:55:27Z</time>
      </trkpt>
      <trkpt lat="42.585857" lon="-5.629249">
        <ele>891.4</ele>
        <time>2021-08-21T05:55:42Z</time>
      </trkpt>
      <trkpt lat="42.585786" lon="-5.629481">
        <ele>891.9</ele>
        <time>2021-08-21T05:55:59Z</time>
      </trkpt>
      <trkpt lat="42.585712" lon="-5.629706">
        <ele>892.4</ele>
        <time>2021-08-21T05:56:11Z</time>
      </trkpt>
      <trkpt lat="42.585627" lon="-5.629924">
        <ele>892.8</ele>
        <time>2021-08-21T05:56:24Z</time>
      </trkpt>
      <trkpt lat="42.585550" lon="-5.630153">
        <ele>893.3</ele>
        <time>2021-08-21T05:56:38Z</time>
      </trkpt>
      <trkpt lat="42.585482" lon="-5.630381">
        <ele>893.5</ele>
        <time>2021-08-21T05:56:52Z</time>
      </trkpt>
      <trkpt lat="42.585400" lon="-5.630602">
        <ele>893.6</ele>
        <time>2021-08-21T05:57:06Z</time>
      </trkpt>
      <trkpt lat="42.585348" lon="-5.630850">
        <ele>893.4</ele>
        <time>2021-08-21T05:57:21Z</time>
      </trkpt>
      <trkpt lat="42.585288" lon="-5.631086">
        <ele>893.4</ele>
        <time>2021-08-21T05:57:35Z</time>
      </trkpt>
      <trkpt lat="42.585200" lon="-5.631306">
        <ele>892.9</ele>
        <time>2021-08-21T05:58:01Z</time>
      </trkpt>
      <trkpt lat="42.585121" lon="-5.631530">
        <ele>893.2</ele>
        <time>2021-08-21T05:58:15Z</time>
      </trkpt>
      <trkpt lat="42.585049" lon="-5.631771">
        <ele>893.8</ele>
        <time>2021-08-21T05:58:33Z</time>
      </trkpt>
      <trkpt lat="42.584981" lon="-5.632001">
        <ele>894.1</ele>
        <time>2021-08-21T05:58:49Z</time>
      </trkpt>
      <trkpt lat="42.584849" lon="-5.632167">
        <ele>894.2</ele>
        <time>2021-08-21T05:59:04Z</time>
      </trkpt>
      <trkpt lat="42.584768" lon="-5.632392">
        <ele>894.2</ele>
        <time>2021-08-21T05:59:22Z</time>
      </trkpt>
      <trkpt lat="42.584674" lon="-5.632620">
        <ele>894.4</ele>
        <time>2021-08-21T05:59:37Z</time>
      </trkpt>
      <trkpt lat="42.584552" lon="-5.632808">
        <ele>894.4</ele>
        <time>2021-08-21T05:59:50Z</time>
      </trkpt>
      <trkpt lat="42.584450" lon="-5.633009">
        <ele>899.6</ele>
        <time>2021-08-21T06:00:05Z</time>
      </trkpt>
      <trkpt lat="42.584373" lon="-5.633235">
        <ele>901.7</ele>
        <time>2021-08-21T06:00:19Z</time>
      </trkpt>
      <trkpt lat="42.584282" lon="-5.633455">
        <ele>903.1</ele>
        <time>2021-08-21T06:00:35Z</time>
      </trkpt>
      <trkpt lat="42.584193" lon="-5.633670">
        <ele>903.1</ele>
        <time>2021-08-21T06:00:48Z</time>
      </trkpt>
      <trkpt lat="42.584150" lon="-5.633920">
        <ele>902.6</ele>
        <time>2021-08-21T06:01:03Z</time>
      </trkpt>
      <trkpt lat="42.584040" lon="-5.634123">
        <ele>901.0</ele>
        <time>2021-08-21T06:01:22Z</time>
      </trkpt>
      <trkpt lat="42.583754" lon="-5.634198">
        <ele>902.7</ele>
        <time>2021-08-21T06:06:45Z</time>
      </trkpt>
      <trkpt lat="42.583762" lon="-5.634475">
        <ele>901.2</ele>
        <time>2021-08-21T06:08:09Z</time>
      </trkpt>
      <trkpt lat="42.583691" lon="-5.634703">
        <ele>900.7</ele>
        <time>2021-08-21T06:08:21Z</time>
      </trkpt>
      <trkpt lat="42.583619" lon="-5.634932">
        <ele>900.7</ele>
        <time>2021-08-21T06:08:34Z</time>
      </trkpt>
      <trkpt lat="42.583572" lon="-5.635170">
        <ele>900.8</ele>
        <time>2021-08-21T06:08:49Z</time>
      </trkpt>
      <trkpt lat="42.583481" lon="-5.635387">
        <ele>902.3</ele>
        <time>2021-08-21T06:09:37Z</time>
      </trkpt>
      <trkpt lat="42.583379" lon="-5.635602">
        <ele>903.9</ele>
        <time>2021-08-21T06:09:49Z</time>
      </trkpt>
      <trkpt lat="42.583276" lon="-5.635813">
        <ele>905.6</ele>
        <time>2021-08-21T06:10:06Z</time>
      </trkpt>
      <trkpt lat="42.583157" lon="-5.636022">
        <ele>906.0</ele>
        <time>2021-08-21T06:10:19Z</time>
      </trkpt>
      <trkpt lat="42.583047" lon="-5.636236">
        <ele>906.2</ele>
        <time>2021-08-21T06:10:33Z</time>
      </trkpt>
      <trkpt lat="42.582940" lon="-5.636443">
        <ele>906.2</ele>
        <time>2021-08-21T06:10:49Z</time>
      </trkpt>
      <trkpt lat="42.582807" lon="-5.636617">
        <ele>906.1</ele>
        <time>2021-08-21T06:10:59Z</time>
      </trkpt>
      <trkpt lat="42.582665" lon="-5.636779">
        <ele>906.0</ele>
        <time>2021-08-21T06:11:12Z</time>
      </trkpt>
      <trkpt lat="42.582560" lon="-5.636985">
        <ele>906.1</ele>
        <time>2021-08-21T06:11:24Z</time>
      </trkpt>
      <trkpt lat="42.582457" lon="-5.637199">
        <ele>906.2</ele>
        <time>2021-08-21T06:11:37Z</time>
      </trkpt>
      <trkpt lat="42.582331" lon="-5.637381">
        <ele>907.4</ele>
        <time>2021-08-21T06:11:50Z</time>
      </trkpt>
      <trkpt lat="42.582233" lon="-5.637589">
        <ele>907.4</ele>
        <time>2021-08-21T06:12:03Z</time>
      </trkpt>
      <trkpt lat="42.582111" lon="-5.637795">
        <ele>907.3</ele>
        <time>2021-08-21T06:12:18Z</time>
      </trkpt>
      <trkpt lat="42.582005" lon="-5.638005">
        <ele>907.2</ele>
        <time>2021-08-21T06:12:32Z</time>
      </trkpt>
      <trkpt lat="42.581886" lon="-5.638189">
        <ele>907.4</ele>
        <time>2021-08-21T06:12:48Z</time>
      </trkpt>
      <trkpt lat="42.581763" lon="-5.638384">
        <ele>907.6</ele>
        <time>2021-08-21T06:12:59Z</time>
      </trkpt>
      <trkpt lat="42.581639" lon="-5.638579">
        <ele>907.7</ele>
        <time>2021-08-21T06:13:12Z</time>
      </trkpt>
      <trkpt lat="42.581519" lon="-5.638767">
        <ele>907.6</ele>
        <time>2021-08-21T06:13:25Z</time>
      </trkpt>
      <trkpt lat="42.581398" lon="-5.638974">
        <ele>907.7</ele>
        <time>2021-08-21T06:13:39Z</time>
      </trkpt>
      <trkpt lat="42.581279" lon="-5.639164">
        <ele>907.6</ele>
        <time>2021-08-21T06:13:52Z</time>
      </trkpt>
      <trkpt lat="42.581146" lon="-5.639341">
        <ele>907.6</ele>
        <time>2021-08-21T06:14:06Z</time>
      </trkpt>
      <trkpt lat="42.581020" lon="-5.639537">
        <ele>907.6</ele>
        <time>2021-08-21T06:14:23Z</time>
      </trkpt>
      <trkpt lat="42.580912" lon="-5.639745">
        <ele>907.5</ele>
        <time>2021-08-21T06:14:34Z</time>
      </trkpt>
      <trkpt lat="42.580806" lon="-5.639947">
        <ele>907.9</ele>
        <time>2021-08-21T06:14:47Z</time>
      </trkpt>
      <trkpt lat="42.580692" lon="-5.640143">
        <ele>907.8</ele>
        <time>2021-08-21T06:15:01Z</time>
      </trkpt>
      <trkpt lat="42.580568" lon="-5.640349">
        <ele>907.9</ele>
        <time>2021-08-21T06:15:15Z</time>
      </trkpt>
      <trkpt lat="42.580433" lon="-5.640532">
        <ele>907.7</ele>
        <time>2021-08-21T06:15:29Z</time>
      </trkpt>
      <trkpt lat="42.580308" lon="-5.640714">
        <ele>907.2</ele>
        <time>2021-08-21T06:15:41Z</time>
      </trkpt>
      <trkpt lat="42.580155" lon="-5.640872">
        <ele>907.1</ele>
        <time>2021-08-21T06:15:55Z</time>
      </trkpt>
      <trkpt lat="42.580005" lon="-5.641017">
        <ele>906.6</ele>
        <time>2021-08-21T06:16:10Z</time>
      </trkpt>
      <trkpt lat="42.579899" lon="-5.641216">
        <ele>906.3</ele>
        <time>2021-08-21T06:16:23Z</time>
      </trkpt>
      <trkpt lat="42.579822" lon="-5.641437">
        <ele>905.9</ele>
        <time>2021-08-21T06:16:35Z</time>
      </trkpt>
      <trkpt lat="42.579738" lon="-5.641654">
        <ele>905.7</ele>
        <time>2021-08-21T06:18:27Z</time>
      </trkpt>
      <trkpt lat="42.579557" lon="-5.641609">
        <ele>905.5</ele>
        <time>2021-08-21T06:18:44Z</time>
      </trkpt>
      <trkpt lat="42.579376" lon="-5.641659">
        <ele>905.4</ele>
        <time>2021-08-21T06:19:02Z</time>
      </trkpt>
      <trkpt lat="42.579237" lon="-5.641829">
        <ele>904.8</ele>
        <time>2021-08-21T06:19:15Z</time>
      </trkpt>
      <trkpt lat="42.579105" lon="-5.642021">
        <ele>904.8</ele>
        <time>2021-08-21T06:19:32Z</time>
      </trkpt>
      <trkpt lat="42.578991" lon="-5.642216">
        <ele>904.7</ele>
        <time>2021-08-21T06:19:48Z</time>
      </trkpt>
      <trkpt lat="42.578860" lon="-5.642386">
        <ele>904.0</ele>
        <time>2021-08-21T06:20:01Z</time>
      </trkpt>
      <trkpt lat="42.578721" lon="-5.642548">
        <ele>903.2</ele>
        <time>2021-08-21T06:20:15Z</time>
      </trkpt>
      <trkpt lat="42.578582" lon="-5.642703">
        <ele>900.2</ele>
        <time>2021-08-21T06:20:40Z</time>
      </trkpt>
      <trkpt lat="42.578459" lon="-5.642891">
        <ele>899.3</ele>
        <time>2021-08-21T06:20:54Z</time>
      </trkpt>
      <trkpt lat="42.578355" lon="-5.643114">
        <ele>898.6</ele>
        <time>2021-08-21T06:21:44Z</time>
      </trkpt>
      <trkpt lat="42.578217" lon="-5.643308">
        <ele>898.6</ele>
        <time>2021-08-21T06:22:01Z</time>
      </trkpt>
      <trkpt lat="42.578141" lon="-5.643532">
        <ele>898.5</ele>
        <time>2021-08-21T06:22:12Z</time>
      </trkpt>
      <trkpt lat="42.578040" lon="-5.643752">
        <ele>898.4</ele>
        <time>2021-08-21T06:22:27Z</time>
      </trkpt>
      <trkpt lat="42.577963" lon="-5.643990">
        <ele>898.3</ele>
        <time>2021-08-21T06:22:38Z</time>
      </trkpt>
      <trkpt lat="42.577897" lon="-5.644218">
        <ele>899.0</ele>
        <time>2021-08-21T06:22:50Z</time>
      </trkpt>
      <trkpt lat="42.577839" lon="-5.644450">
        <ele>898.8</ele>
        <time>2021-08-21T06:23:04Z</time>
      </trkpt>
      <trkpt lat="42.577782" lon="-5.644686">
        <ele>898.9</ele>
        <time>2021-08-21T06:23:18Z</time>
      </trkpt>
      <trkpt lat="42.577730" lon="-5.644949">
        <ele>899.0</ele>
        <time>2021-08-21T06:23:33Z</time>
      </trkpt>
      <trkpt lat="42.577697" lon="-5.645191">
        <ele>893.0</ele>
        <time>2021-08-21T06:24:08Z</time>
      </trkpt>
      <trkpt lat="42.577667" lon="-5.645442">
        <ele>893.8</ele>
        <time>2021-08-21T06:24:32Z</time>
      </trkpt>
      <trkpt lat="42.577560" lon="-5.645656">
        <ele>896.9</ele>
        <time>2021-08-21T06:24:45Z</time>
      </trkpt>
      <trkpt lat="42.577471" lon="-5.645882">
        <ele>896.7</ele>
        <time>2021-08-21T06:24:58Z</time>
      </trkpt>
      <trkpt lat="42.577410" lon="-5.646120">
        <ele>896.7</ele>
        <time>2021-08-21T06:25:13Z</time>
      </trkpt>
      <trkpt lat="42.577491" lon="-5.646349">
        <ele>896.7</ele>
        <time>2021-08-21T06:25:28Z</time>
      </trkpt>
      <trkpt lat="42.577529" lon="-5.646606">
        <ele>896.7</ele>
        <time>2021-08-21T06:25:43Z</time>
      </trkpt>
      <trkpt lat="42.577484" lon="-5.646857">
        <ele>902.7</ele>
        <time>2021-08-21T06:25:56Z</time>
      </trkpt>
      <trkpt lat="42.577433" lon="-5.647107">
        <ele>904.0</ele>
        <time>2021-08-21T06:26:12Z</time>
      </trkpt>
      <trkpt lat="42.577399" lon="-5.647351">
        <ele>902.0</ele>
        <time>2021-08-21T06:26:25Z</time>
      </trkpt>
      <trkpt lat="42.577324" lon="-5.647582">
        <ele>902.2</ele>
        <time>2021-08-21T06:26:38Z</time>
      </trkpt>
      <trkpt lat="42.577256" lon="-5.647814">
        <ele>904.0</ele>
        <time>2021-08-21T06:26:51Z</time>
      </trkpt>
      <trkpt lat="42.577146" lon="-5.648022">
        <ele>904.9</ele>
        <time>2021-08-21T06:27:07Z</time>
      </trkpt>
      <trkpt lat="42.577002" lon="-5.648191">
        <ele>908.0</ele>
        <time>2021-08-21T06:27:18Z</time>
      </trkpt>
      <trkpt lat="42.576873" lon="-5.648362">
        <ele>901.0</ele>
        <time>2021-08-21T06:27:33Z</time>
      </trkpt>
      <trkpt lat="42.576787" lon="-5.648579">
        <ele>901.5</ele>
        <time>2021-08-21T06:27:47Z</time>
      </trkpt>
      <trkpt lat="42.576744" lon="-5.648831">
        <ele>901.2</ele>
        <time>2021-08-21T06:28:04Z</time>
      </trkpt>
      <trkpt lat="42.576765" lon="-5.649081">
        <ele>901.3</ele>
        <time>2021-08-21T06:28:20Z</time>
      </trkpt>
      <trkpt lat="42.576771" lon="-5.649327">
        <ele>901.0</ele>
        <time>2021-08-21T06:28:35Z</time>
      </trkpt>
      <trkpt lat="42.576715" lon="-5.649567">
        <ele>901.0</ele>
        <time>2021-08-21T06:28:48Z</time>
      </trkpt>
      <trkpt lat="42.576600" lon="-5.649763">
        <ele>900.9</ele>
        <time>2021-08-21T06:29:01Z</time>
      </trkpt>
      <trkpt lat="42.576511" lon="-5.649980">
        <ele>901.1</ele>
        <time>2021-08-21T06:29:25Z</time>
      </trkpt>
      <trkpt lat="42.576534" lon="-5.650224">
        <ele>900.9</ele>
        <time>2021-08-21T06:29:41Z</time>
      </trkpt>
      <trkpt lat="42.576442" lon="-5.650437">
        <ele>900.9</ele>
        <time>2021-08-21T06:29:55Z</time>
      </trkpt>
      <trkpt lat="42.576333" lon="-5.650637">
        <ele>901.6</ele>
        <time>2021-08-21T06:30:10Z</time>
      </trkpt>
      <trkpt lat="42.576225" lon="-5.650842">
        <ele>903.1</ele>
        <time>2021-08-21T06:30:24Z</time>
      </trkpt>
      <trkpt lat="42.576109" lon="-5.651036">
        <ele>904.0</ele>
        <time>2021-08-21T06:30:37Z</time>
      </trkpt>
      <trkpt lat="42.575993" lon="-5.651234">
        <ele>904.0</ele>
        <time>2021-08-21T06:30:53Z</time>
      </trkpt>
      <trkpt lat="42.575912" lon="-5.651460">
        <ele>904.6</ele>
        <time>2021-08-21T06:31:06Z</time>
      </trkpt>
      <trkpt lat="42.575825" lon="-5.651676">
        <ele>905.6</ele>
        <time>2021-08-21T06:31:19Z</time>
      </trkpt>
      <trkpt lat="42.575714" lon="-5.651883">
        <ele>905.4</ele>
        <time>2021-08-21T06:31:32Z</time>
      </trkpt>
      <trkpt lat="42.575627" lon="-5.652112">
        <ele>905.7</ele>
        <time>2021-08-21T06:31:46Z</time>
      </trkpt>
      <trkpt lat="42.575538" lon="-5.652330">
        <ele>905.7</ele>
        <time>2021-08-21T06:32:00Z</time>
      </trkpt>
      <trkpt lat="42.575413" lon="-5.652511">
        <ele>905.8</ele>
        <time>2021-08-21T06:32:13Z</time>
      </trkpt>
      <trkpt lat="42.575331" lon="-5.652741">
        <ele>906.3</ele>
        <time>2021-08-21T06:32:30Z</time>
      </trkpt>
      <trkpt lat="42.575262" lon="-5.652984">
        <ele>905.7</ele>
        <time>2021-08-21T06:32:43Z</time>
      </trkpt>
      <trkpt lat="42.575153" lon="-5.653184">
        <ele>905.2</ele>
        <time>2021-08-21T06:32:57Z</time>
      </trkpt>
      <trkpt lat="42.575019" lon="-5.653366">
        <ele>905.4</ele>
        <time>2021-08-21T06:33:12Z</time>
      </trkpt>
      <trkpt lat="42.574907" lon="-5.653568">
        <ele>905.4</ele>
        <time>2021-08-21T06:33:25Z</time>
      </trkpt>
      <trkpt lat="42.574819" lon="-5.653783">
        <ele>905.9</ele>
        <time>2021-08-21T06:33:38Z</time>
      </trkpt>
      <trkpt lat="42.574686" lon="-5.653965">
        <ele>905.9</ele>
        <time>2021-08-21T06:33:51Z</time>
      </trkpt>
      <trkpt lat="42.574557" lon="-5.654143">
        <ele>906.0</ele>
        <time>2021-08-21T06:34:05Z</time>
      </trkpt>
      <trkpt lat="42.574463" lon="-5.654353">
        <ele>906.0</ele>
        <time>2021-08-21T06:34:18Z</time>
      </trkpt>
      <trkpt lat="42.574374" lon="-5.654583">
        <ele>905.8</ele>
        <time>2021-08-21T06:34:33Z</time>
      </trkpt>
      <trkpt lat="42.574287" lon="-5.654800">
        <ele>905.9</ele>
        <time>2021-08-21T06:34:47Z</time>
      </trkpt>
      <trkpt lat="42.574214" lon="-5.655041">
        <ele>905.9</ele>
        <time>2021-08-21T06:35:00Z</time>
      </trkpt>
      <trkpt lat="42.574139" lon="-5.655274">
        <ele>905.9</ele>
        <time>2021-08-21T06:35:15Z</time>
      </trkpt>
      <trkpt lat="42.574037" lon="-5.655504">
        <ele>905.7</ele>
        <time>2021-08-21T06:35:32Z</time>
      </trkpt>
      <trkpt lat="42.574004" lon="-5.655749">
        <ele>905.5</ele>
        <time>2021-08-21T06:35:42Z</time>
      </trkpt>
      <trkpt lat="42.573942" lon="-5.655984">
        <ele>905.4</ele>
        <time>2021-08-21T06:35:57Z</time>
      </trkpt>
      <trkpt lat="42.573906" lon="-5.656228">
        <ele>905.5</ele>
        <time>2021-08-21T06:36:14Z</time>
      </trkpt>
      <trkpt lat="42.573831" lon="-5.656459">
        <ele>905.6</ele>
        <time>2021-08-21T06:36:26Z</time>
      </trkpt>
      <trkpt lat="42.573747" lon="-5.656693">
        <ele>905.5</ele>
        <time>2021-08-21T06:36:38Z</time>
      </trkpt>
      <trkpt lat="42.573612" lon="-5.656886">
        <ele>905.4</ele>
        <time>2021-08-21T06:36:53Z</time>
      </trkpt>
      <trkpt lat="42.573498" lon="-5.657089">
        <ele>905.4</ele>
        <time>2021-08-21T06:37:08Z</time>
      </trkpt>
      <trkpt lat="42.573411" lon="-5.657325">
        <ele>895.7</ele>
        <time>2021-08-21T06:37:23Z</time>
      </trkpt>
      <trkpt lat="42.573322" lon="-5.657544">
        <ele>892.6</ele>
        <time>2021-08-21T06:37:37Z</time>
      </trkpt>
      <trkpt lat="42.573226" lon="-5.657764">
        <ele>892.1</ele>
        <time>2021-08-21T06:37:50Z</time>
      </trkpt>
      <trkpt lat="42.573128" lon="-5.657974">
        <ele>891.6</ele>
        <time>2021-08-21T06:38:03Z</time>
      </trkpt>
      <trkpt lat="42.572994" lon="-5.658144">
        <ele>889.2</ele>
        <time>2021-08-21T06:38:24Z</time>
      </trkpt>
      <trkpt lat="42.572851" lon="-5.658312">
        <ele>889.2</ele>
        <time>2021-08-21T06:39:37Z</time>
      </trkpt>
      <trkpt lat="42.572682" lon="-5.658401">
        <ele>888.3</ele>
        <time>2021-08-21T06:39:50Z</time>
      </trkpt>
      <trkpt lat="42.572484" lon="-5.658412">
        <ele>888.5</ele>
        <time>2021-08-21T06:40:06Z</time>
      </trkpt>
      <trkpt lat="42.572304" lon="-5.658400">
        <ele>890.1</ele>
        <time>2021-08-21T06:40:32Z</time>
      </trkpt>
      <trkpt lat="42.572118" lon="-5.658434">
        <ele>892.0</ele>
        <time>2021-08-21T06:40:44Z</time>
      </trkpt>
      <trkpt lat="42.571937" lon="-5.658454">
        <ele>891.8</ele>
        <time>2021-08-21T06:40:57Z</time>
      </trkpt>
      <trkpt lat="42.571752" lon="-5.658472">
        <ele>893.8</ele>
        <time>2021-08-21T06:41:13Z</time>
      </trkpt>
      <trkpt lat="42.571571" lon="-5.658496">
        <ele>892.5</ele>
        <time>2021-08-21T06:41:24Z</time>
      </trkpt>
      <trkpt lat="42.571387" lon="-5.658522">
        <ele>890.1</ele>
        <time>2021-08-21T06:41:37Z</time>
      </trkpt>
      <trkpt lat="42.571210" lon="-5.658475">
        <ele>891.0</ele>
        <time>2021-08-21T06:41:54Z</time>
      </trkpt>
      <trkpt lat="42.571055" lon="-5.658339">
        <ele>893.8</ele>
        <time>2021-08-21T06:42:08Z</time>
      </trkpt>
      <trkpt lat="42.570977" lon="-5.658115">
        <ele>890.4</ele>
        <time>2021-08-21T06:42:23Z</time>
      </trkpt>
      <trkpt lat="42.570940" lon="-5.657862">
        <ele>889.2</ele>
        <time>2021-08-21T06:42:46Z</time>
      </trkpt>
      <trkpt lat="42.570776" lon="-5.657731">
        <ele>890.1</ele>
        <time>2021-08-21T06:43:02Z</time>
      </trkpt>
      <trkpt lat="42.570601" lon="-5.657828">
        <ele>889.9</ele>
        <time>2021-08-21T06:43:22Z</time>
      </trkpt>
      <trkpt lat="42.570534" lon="-5.658062">
        <ele>891.1</ele>
        <time>2021-08-21T06:43:37Z</time>
      </trkpt>
      <trkpt lat="42.570319" lon="-5.658205">
        <ele>892.2</ele>
        <time>2021-08-21T06:44:09Z</time>
      </trkpt>
      <trkpt lat="42.570178" lon="-5.658378">
        <ele>894.4</ele>
        <time>2021-08-21T06:44:14Z</time>
      </trkpt>
      <trkpt lat="42.570317" lon="-5.658539">
        <ele>891.1</ele>
        <time>2021-08-21T06:44:29Z</time>
      </trkpt>
      <trkpt lat="42.570428" lon="-5.658741">
        <ele>891.4</ele>
        <time>2021-08-21T06:44:46Z</time>
      </trkpt>
      <trkpt lat="42.570522" lon="-5.658952">
        <ele>890.8</ele>
        <time>2021-08-21T06:44:58Z</time>
      </trkpt>
      <trkpt lat="42.570654" lon="-5.659121">
        <ele>892.9</ele>
        <time>2021-08-21T06:45:16Z</time>
      </trkpt>
      <trkpt lat="42.570780" lon="-5.659312">
        <ele>892.7</ele>
        <time>2021-08-21T06:45:32Z</time>
      </trkpt>
      <trkpt lat="42.570916" lon="-5.659497">
        <ele>893.0</ele>
        <time>2021-08-21T06:45:46Z</time>
      </trkpt>
      <trkpt lat="42.571038" lon="-5.659681">
        <ele>895.7</ele>
        <time>2021-08-21T06:45:59Z</time>
      </trkpt>
      <trkpt lat="42.571159" lon="-5.659872">
        <ele>895.9</ele>
        <time>2021-08-21T06:46:13Z</time>
      </trkpt>
      <trkpt lat="42.571289" lon="-5.660052">
        <ele>896.2</ele>
        <time>2021-08-21T06:46:29Z</time>
      </trkpt>
      <trkpt lat="42.571402" lon="-5.660265">
        <ele>895.1</ele>
        <time>2021-08-21T06:46:44Z</time>
      </trkpt>
      <trkpt lat="42.571531" lon="-5.660444">
        <ele>893.3</ele>
        <time>2021-08-21T06:47:00Z</time>
      </trkpt>
      <trkpt lat="42.571688" lon="-5.660605">
        <ele>894.9</ele>
        <time>2021-08-21T06:47:24Z</time>
      </trkpt>
      <trkpt lat="42.571849" lon="-5.660744">
        <ele>894.1</ele>
        <time>2021-08-21T06:47:38Z</time>
      </trkpt>
      <trkpt lat="42.571991" lon="-5.660914">
        <ele>897.0</ele>
        <time>2021-08-21T06:47:51Z</time>
      </trkpt>
      <trkpt lat="42.572077" lon="-5.661131">
        <ele>901.0</ele>
        <time>2021-08-21T06:48:07Z</time>
      </trkpt>
      <trkpt lat="42.572167" lon="-5.661343">
        <ele>905.2</ele>
        <time>2021-08-21T06:48:24Z</time>
      </trkpt>
      <trkpt lat="42.572243" lon="-5.661583">
        <ele>907.2</ele>
        <time>2021-08-21T06:48:46Z</time>
      </trkpt>
      <trkpt lat="42.572123" lon="-5.661771">
        <ele>909.3</ele>
        <time>2021-08-21T06:48:56Z</time>
      </trkpt>
      <trkpt lat="42.572037" lon="-5.661995">
        <ele>910.8</ele>
        <time>2021-08-21T06:49:09Z</time>
      </trkpt>
      <trkpt lat="42.571934" lon="-5.662212">
        <ele>910.8</ele>
        <time>2021-08-21T06:49:24Z</time>
      </trkpt>
      <trkpt lat="42.571903" lon="-5.662467">
        <ele>914.3</ele>
        <time>2021-08-21T06:49:41Z</time>
      </trkpt>
      <trkpt lat="42.571866" lon="-5.662713">
        <ele>916.2</ele>
        <time>2021-08-21T06:49:56Z</time>
      </trkpt>
      <trkpt lat="42.571823" lon="-5.662968">
        <ele>913.3</ele>
        <time>2021-08-21T06:50:10Z</time>
      </trkpt>
      <trkpt lat="42.571792" lon="-5.663210">
        <ele>912.0</ele>
        <time>2021-08-21T06:50:23Z</time>
      </trkpt>
      <trkpt lat="42.571806" lon="-5.663469">
        <ele>913.0</ele>
        <time>2021-08-21T06:50:37Z</time>
      </trkpt>
      <trkpt lat="42.571780" lon="-5.663718">
        <ele>913.0</ele>
        <time>2021-08-21T06:50:51Z</time>
      </trkpt>
      <trkpt lat="42.571746" lon="-5.663961">
        <ele>911.6</ele>
        <time>2021-08-21T06:51:04Z</time>
      </trkpt>
      <trkpt lat="42.571685" lon="-5.664212">
        <ele>910.5</ele>
        <time>2021-08-21T06:51:19Z</time>
      </trkpt>
      <trkpt lat="42.571642" lon="-5.664460">
        <ele>908.5</ele>
        <time>2021-08-21T06:51:33Z</time>
      </trkpt>
      <trkpt lat="42.571606" lon="-5.664703">
        <ele>911.8</ele>
        <time>2021-08-21T06:51:55Z</time>
      </trkpt>
      <trkpt lat="42.571576" lon="-5.664953">
        <ele>915.7</ele>
        <time>2021-08-21T06:52:11Z</time>
      </trkpt>
      <trkpt lat="42.571549" lon="-5.665195">
        <ele>917.0</ele>
        <time>2021-08-21T06:52:22Z</time>
      </trkpt>
      <trkpt lat="42.571531" lon="-5.665442">
        <ele>917.2</ele>
        <time>2021-08-21T06:52:38Z</time>
      </trkpt>
      <trkpt lat="42.571499" lon="-5.665682">
        <ele>918.2</ele>
        <time>2021-08-21T06:52:50Z</time>
      </trkpt>
      <trkpt lat="42.571442" lon="-5.665929">
        <ele>919.7</ele>
        <time>2021-08-21T06:53:05Z</time>
      </trkpt>
      <trkpt lat="42.571454" lon="-5.666183">
        <ele>920.0</ele>
        <time>2021-08-21T06:53:17Z</time>
      </trkpt>
      <trkpt lat="42.571454" lon="-5.666428">
        <ele>920.4</ele>
        <time>2021-08-21T06:53:30Z</time>
      </trkpt>
      <trkpt lat="42.571488" lon="-5.666672">
        <ele>921.0</ele>
        <time>2021-08-21T06:53:43Z</time>
      </trkpt>
      <trkpt lat="42.571495" lon="-5.666916">
        <ele>920.2</ele>
        <time>2021-08-21T06:53:56Z</time>
      </trkpt>
      <trkpt lat="42.571483" lon="-5.667178">
        <ele>907.2</ele>
        <time>2021-08-21T06:54:10Z</time>
      </trkpt>
      <trkpt lat="42.571471" lon="-5.667423">
        <ele>907.2</ele>
        <time>2021-08-21T06:54:26Z</time>
      </trkpt>
      <trkpt lat="42.571463" lon="-5.667676">
        <ele>907.3</ele>
        <time>2021-08-21T06:54:38Z</time>
      </trkpt>
      <trkpt lat="42.571466" lon="-5.667936">
        <ele>907.2</ele>
        <time>2021-08-21T06:54:54Z</time>
      </trkpt>
      <trkpt lat="42.571450" lon="-5.668191">
        <ele>914.8</ele>
        <time>2021-08-21T06:55:09Z</time>
      </trkpt>
      <trkpt lat="42.571488" lon="-5.668431">
        <ele>917.2</ele>
        <time>2021-08-21T06:55:25Z</time>
      </trkpt>
      <trkpt lat="42.571458" lon="-5.668695">
        <ele>913.2</ele>
        <time>2021-08-21T06:55:40Z</time>
      </trkpt>
      <trkpt lat="42.571427" lon="-5.668936">
        <ele>909.8</ele>
        <time>2021-08-21T06:55:53Z</time>
      </trkpt>
      <trkpt lat="42.571442" lon="-5.669180">
        <ele>909.5</ele>
        <time>2021-08-21T06:56:03Z</time>
      </trkpt>
      <trkpt lat="42.571450" lon="-5.669428">
        <ele>909.4</ele>
        <time>2021-08-21T06:56:16Z</time>
      </trkpt>
      <trkpt lat="42.571467" lon="-5.669692">
        <ele>908.5</ele>
        <time>2021-08-21T06:56:29Z</time>
      </trkpt>
      <trkpt lat="42.571459" lon="-5.669937">
        <ele>907.9</ele>
        <time>2021-08-21T06:56:41Z</time>
      </trkpt>
      <trkpt lat="42.571460" lon="-5.670196">
        <ele>908.1</ele>
        <time>2021-08-21T06:56:58Z</time>
      </trkpt>
      <trkpt lat="42.571472" lon="-5.670449">
        <ele>908.8</ele>
        <time>2021-08-21T06:57:10Z</time>
      </trkpt>
      <trkpt lat="42.571465" lon="-5.670702">
        <ele>907.2</ele>
        <time>2021-08-21T06:57:24Z</time>
      </trkpt>
      <trkpt lat="42.571456" lon="-5.670955">
        <ele>907.8</ele>
        <time>2021-08-21T06:57:40Z</time>
      </trkpt>
      <trkpt lat="42.571437" lon="-5.671215">
        <ele>906.9</ele>
        <time>2021-08-21T06:57:51Z</time>
      </trkpt>
      <trkpt lat="42.571418" lon="-5.671470">
        <ele>905.1</ele>
        <time>2021-08-21T06:58:05Z</time>
      </trkpt>
      <trkpt lat="42.571431" lon="-5.671725">
        <ele>904.3</ele>
        <time>2021-08-21T06:58:19Z</time>
      </trkpt>
      <trkpt lat="42.571445" lon="-5.671970">
        <ele>902.2</ele>
        <time>2021-08-21T06:58:33Z</time>
      </trkpt>
      <trkpt lat="42.571471" lon="-5.672215">
        <ele>902.3</ele>
        <time>2021-08-21T06:58:47Z</time>
      </trkpt>
      <trkpt lat="42.571479" lon="-5.672463">
        <ele>904.9</ele>
        <time>2021-08-21T06:59:01Z</time>
      </trkpt>
      <trkpt lat="42.571479" lon="-5.672717">
        <ele>906.2</ele>
        <time>2021-08-21T06:59:14Z</time>
      </trkpt>
      <trkpt lat="42.571484" lon="-5.672962">
        <ele>906.8</ele>
        <time>2021-08-21T06:59:27Z</time>
      </trkpt>
      <trkpt lat="42.571458" lon="-5.673216">
        <ele>907.1</ele>
        <time>2021-08-21T06:59:40Z</time>
      </trkpt>
      <trkpt lat="42.571458" lon="-5.673466">
        <ele>907.5</ele>
        <time>2021-08-21T06:59:54Z</time>
      </trkpt>
      <trkpt lat="42.571491" lon="-5.673717">
        <ele>906.0</ele>
        <time>2021-08-21T07:00:10Z</time>
      </trkpt>
      <trkpt lat="42.571483" lon="-5.673965">
        <ele>908.0</ele>
        <time>2021-08-21T07:00:25Z</time>
      </trkpt>
      <trkpt lat="42.571479" lon="-5.674213">
        <ele>908.1</ele>
        <time>2021-08-21T07:00:38Z</time>
      </trkpt>
      <trkpt lat="42.571440" lon="-5.674468">
        <ele>909.0</ele>
        <time>2021-08-21T07:00:55Z</time>
      </trkpt>
      <trkpt lat="42.571367" lon="-5.674696">
        <ele>908.1</ele>
        <time>2021-08-21T07:01:08Z</time>
      </trkpt>
      <trkpt lat="42.571296" lon="-5.674944">
        <ele>907.8</ele>
        <time>2021-08-21T07:01:21Z</time>
      </trkpt>
      <trkpt lat="42.571229" lon="-5.675172">
        <ele>907.1</ele>
        <time>2021-08-21T07:01:35Z</time>
      </trkpt>
      <trkpt lat="42.571173" lon="-5.675408">
        <ele>906.9</ele>
        <time>2021-08-21T07:01:46Z</time>
      </trkpt>
      <trkpt lat="42.571095" lon="-5.675629">
        <ele>907.8</ele>
        <time>2021-08-21T07:01:59Z</time>
      </trkpt>
      <trkpt lat="42.571053" lon="-5.675870">
        <ele>909.4</ele>
        <time>2021-08-21T07:02:14Z</time>
      </trkpt>
      <trkpt lat="42.570993" lon="-5.676101">
        <ele>902.6</ele>
        <time>2021-08-21T07:02:26Z</time>
      </trkpt>
      <trkpt lat="42.570916" lon="-5.676332">
        <ele>902.7</ele>
        <time>2021-08-21T07:02:37Z</time>
      </trkpt>
      <trkpt lat="42.570861" lon="-5.676575">
        <ele>902.6</ele>
        <time>2021-08-21T07:02:53Z</time>
      </trkpt>
      <trkpt lat="42.570788" lon="-5.676815">
        <ele>902.4</ele>
        <time>2021-08-21T07:03:07Z</time>
      </trkpt>
      <trkpt lat="42.570706" lon="-5.677037">
        <ele>903.1</ele>
        <time>2021-08-21T07:03:22Z</time>
      </trkpt>
      <trkpt lat="42.570666" lon="-5.677289">
        <ele>903.0</ele>
        <time>2021-08-21T07:03:37Z</time>
      </trkpt>
      <trkpt lat="42.570582" lon="-5.677517">
        <ele>902.8</ele>
        <time>2021-08-21T07:03:51Z</time>
      </trkpt>
      <trkpt lat="42.570520" lon="-5.677751">
        <ele>902.6</ele>
        <time>2021-08-21T07:04:05Z</time>
      </trkpt>
      <trkpt lat="42.570475" lon="-5.678000">
        <ele>902.5</ele>
        <time>2021-08-21T07:04:25Z</time>
      </trkpt>
      <trkpt lat="42.570414" lon="-5.678233">
        <ele>902.5</ele>
        <time>2021-08-21T07:04:36Z</time>
      </trkpt>
      <trkpt lat="42.570346" lon="-5.678467">
        <ele>901.5</ele>
        <time>2021-08-21T07:04:49Z</time>
      </trkpt>
      <trkpt lat="42.570302" lon="-5.678711">
        <ele>901.6</ele>
        <time>2021-08-21T07:05:06Z</time>
      </trkpt>
      <trkpt lat="42.570257" lon="-5.678956">
        <ele>901.1</ele>
        <time>2021-08-21T07:05:23Z</time>
      </trkpt>
      <trkpt lat="42.570168" lon="-5.679185">
        <ele>901.0</ele>
        <time>2021-08-21T07:05:39Z</time>
      </trkpt>
      <trkpt lat="42.570114" lon="-5.679429">
        <ele>900.2</ele>
        <time>2021-08-21T07:05:50Z</time>
      </trkpt>
      <trkpt lat="42.570067" lon="-5.679672">
        <ele>899.9</ele>
        <time>2021-08-21T07:06:03Z</time>
      </trkpt>
      <trkpt lat="42.569970" lon="-5.679881">
        <ele>901.1</ele>
        <time>2021-08-21T07:06:18Z</time>
      </trkpt>
      <trkpt lat="42.569890" lon="-5.680117">
        <ele>901.2</ele>
        <time>2021-08-21T07:06:31Z</time>
      </trkpt>
      <trkpt lat="42.569838" lon="-5.680356">
        <ele>901.7</ele>
        <time>2021-08-21T07:06:46Z</time>
      </trkpt>
      <trkpt lat="42.569785" lon="-5.680593">
        <ele>896.9</ele>
        <time>2021-08-21T07:07:02Z</time>
      </trkpt>
      <trkpt lat="42.569716" lon="-5.680819">
        <ele>899.4</ele>
        <time>2021-08-21T07:07:09Z</time>
      </trkpt>
      <trkpt lat="42.569667" lon="-5.681060">
        <ele>899.3</ele>
        <time>2021-08-21T07:07:23Z</time>
      </trkpt>
      <trkpt lat="42.569582" lon="-5.681281">
        <ele>898.7</ele>
        <time>2021-08-21T07:07:36Z</time>
      </trkpt>
      <trkpt lat="42.569488" lon="-5.681517">
        <ele>892.7</ele>
        <time>2021-08-21T07:08:04Z</time>
      </trkpt>
      <trkpt lat="42.569405" lon="-5.681757">
        <ele>892.1</ele>
        <time>2021-08-21T07:08:22Z</time>
      </trkpt>
      <trkpt lat="42.569312" lon="-5.681974">
        <ele>889.0</ele>
        <time>2021-08-21T07:08:36Z</time>
      </trkpt>
      <trkpt lat="42.569219" lon="-5.682189">
        <ele>889.0</ele>
        <time>2021-08-21T07:08:46Z</time>
      </trkpt>
      <trkpt lat="42.569131" lon="-5.682407">
        <ele>888.9</ele>
        <time>2021-08-21T07:09:02Z</time>
      </trkpt>
      <trkpt lat="42.569053" lon="-5.682650">
        <ele>889.0</ele>
        <time>2021-08-21T07:09:20Z</time>
      </trkpt>
      <trkpt lat="42.568950" lon="-5.682853">
        <ele>887.3</ele>
        <time>2021-08-21T07:09:33Z</time>
      </trkpt>
      <trkpt lat="42.568822" lon="-5.683047">
        <ele>889.1</ele>
        <time>2021-08-21T07:09:50Z</time>
      </trkpt>
      <trkpt lat="42.568756" lon="-5.683275">
        <ele>889.3</ele>
        <time>2021-08-21T07:10:01Z</time>
      </trkpt>
      <trkpt lat="42.568668" lon="-5.683505">
        <ele>890.3</ele>
        <time>2021-08-21T07:10:19Z</time>
      </trkpt>
      <trkpt lat="42.568574" lon="-5.683721">
        <ele>890.8</ele>
        <time>2021-08-21T07:10:34Z</time>
      </trkpt>
      <trkpt lat="42.568480" lon="-5.683939">
        <ele>891.7</ele>
        <time>2021-08-21T07:10:57Z</time>
      </trkpt>
      <trkpt lat="42.568381" lon="-5.684181">
        <ele>891.9</ele>
        <time>2021-08-21T07:11:10Z</time>
      </trkpt>
      <trkpt lat="42.568286" lon="-5.684396">
        <ele>891.9</ele>
        <time>2021-08-21T07:11:18Z</time>
      </trkpt>
      <trkpt lat="42.568189" lon="-5.684616">
        <ele>895.0</ele>
        <time>2021-08-21T07:11:35Z</time>
      </trkpt>
      <trkpt lat="42.568067" lon="-5.684816">
        <ele>894.2</ele>
        <time>2021-08-21T07:11:46Z</time>
      </trkpt>
      <trkpt lat="42.567969" lon="-5.685027">
        <ele>895.0</ele>
        <time>2021-08-21T07:11:57Z</time>
      </trkpt>
      <trkpt lat="42.567932" lon="-5.685274">
        <ele>896.1</ele>
        <time>2021-08-21T07:12:14Z</time>
      </trkpt>
      <trkpt lat="42.567840" lon="-5.685501">
        <ele>895.4</ele>
        <time>2021-08-21T07:12:28Z</time>
      </trkpt>
      <trkpt lat="42.567742" lon="-5.685714">
        <ele>895.9</ele>
        <time>2021-08-21T07:12:40Z</time>
      </trkpt>
      <trkpt lat="42.567626" lon="-5.685911">
        <ele>896.0</ele>
        <time>2021-08-21T07:12:53Z</time>
      </trkpt>
      <trkpt lat="42.567519" lon="-5.686125">
        <ele>897.5</ele>
        <time>2021-08-21T07:13:05Z</time>
      </trkpt>
      <trkpt lat="42.567438" lon="-5.686347">
        <ele>898.6</ele>
        <time>2021-08-21T07:13:16Z</time>
      </trkpt>
      <trkpt lat="42.567327" lon="-5.686554">
        <ele>898.9</ele>
        <time>2021-08-21T07:13:30Z</time>
      </trkpt>
      <trkpt lat="42.567224" lon="-5.686770">
        <ele>900.7</ele>
        <time>2021-08-21T07:13:48Z</time>
      </trkpt>
      <trkpt lat="42.567124" lon="-5.686995">
        <ele>901.7</ele>
        <time>2021-08-21T07:14:00Z</time>
      </trkpt>
      <trkpt lat="42.566994" lon="-5.687174">
        <ele>901.7</ele>
        <time>2021-08-21T07:14:11Z</time>
      </trkpt>
      <trkpt lat="42.566888" lon="-5.687376">
        <ele>901.8</ele>
        <time>2021-08-21T07:14:22Z</time>
      </trkpt>
      <trkpt lat="42.566794" lon="-5.687592">
        <ele>901.9</ele>
        <time>2021-08-21T07:14:33Z</time>
      </trkpt>
      <trkpt lat="42.566689" lon="-5.687797">
        <ele>901.8</ele>
        <time>2021-08-21T07:14:48Z</time>
      </trkpt>
      <trkpt lat="42.566606" lon="-5.688020">
        <ele>902.0</ele>
        <time>2021-08-21T07:15:03Z</time>
      </trkpt>
      <trkpt lat="42.566509" lon="-5.688232">
        <ele>902.0</ele>
        <time>2021-08-21T07:15:15Z</time>
      </trkpt>
      <trkpt lat="42.566399" lon="-5.688432">
        <ele>901.9</ele>
        <time>2021-08-21T07:15:31Z</time>
      </trkpt>
      <trkpt lat="42.566294" lon="-5.688643">
        <ele>911.2</ele>
        <time>2021-08-21T07:15:43Z</time>
      </trkpt>
      <trkpt lat="42.566163" lon="-5.688836">
        <ele>909.1</ele>
        <time>2021-08-21T07:15:56Z</time>
      </trkpt>
      <trkpt lat="42.566055" lon="-5.689045">
        <ele>909.8</ele>
        <time>2021-08-21T07:16:11Z</time>
      </trkpt>
      <trkpt lat="42.565962" lon="-5.689275">
        <ele>910.9</ele>
        <time>2021-08-21T07:16:26Z</time>
      </trkpt>
      <trkpt lat="42.565846" lon="-5.689472">
        <ele>910.5</ele>
        <time>2021-08-21T07:16:40Z</time>
      </trkpt>
      <trkpt lat="42.565734" lon="-5.689673">
        <ele>908.4</ele>
        <time>2021-08-21T07:16:56Z</time>
      </trkpt>
      <trkpt lat="42.565609" lon="-5.689862">
        <ele>905.1</ele>
        <time>2021-08-21T07:17:14Z</time>
      </trkpt>
      <trkpt lat="42.565506" lon="-5.690067">
        <ele>906.9</ele>
        <time>2021-08-21T07:17:28Z</time>
      </trkpt>
      <trkpt lat="42.565379" lon="-5.690254">
        <ele>906.2</ele>
        <time>2021-08-21T07:17:42Z</time>
      </trkpt>
      <trkpt lat="42.565267" lon="-5.690468">
        <ele>906.3</ele>
        <time>2021-08-21T07:17:56Z</time>
      </trkpt>
      <trkpt lat="42.565165" lon="-5.690673">
        <ele>906.7</ele>
        <time>2021-08-21T07:18:09Z</time>
      </trkpt>
      <trkpt lat="42.565060" lon="-5.690881">
        <ele>902.5</ele>
        <time>2021-08-21T07:18:22Z</time>
      </trkpt>
      <trkpt lat="42.564952" lon="-5.691079">
        <ele>902.4</ele>
        <time>2021-08-21T07:18:35Z</time>
      </trkpt>
      <trkpt lat="42.564836" lon="-5.691285">
        <ele>902.7</ele>
        <time>2021-08-21T07:18:52Z</time>
      </trkpt>
      <trkpt lat="42.564736" lon="-5.691502">
        <ele>904.6</ele>
        <time>2021-08-21T07:19:07Z</time>
      </trkpt>
      <trkpt lat="42.564640" lon="-5.691724">
        <ele>904.4</ele>
        <time>2021-08-21T07:19:21Z</time>
      </trkpt>
      <trkpt lat="42.564529" lon="-5.691917">
        <ele>904.5</ele>
        <time>2021-08-21T07:19:32Z</time>
      </trkpt>
      <trkpt lat="42.564440" lon="-5.692157">
        <ele>902.9</ele>
        <time>2021-08-21T07:19:48Z</time>
      </trkpt>
      <trkpt lat="42.564327" lon="-5.692362">
        <ele>902.3</ele>
        <time>2021-08-21T07:20:02Z</time>
      </trkpt>
      <trkpt lat="42.564211" lon="-5.692561">
        <ele>902.5</ele>
        <time>2021-08-21T07:20:17Z</time>
      </trkpt>
      <trkpt lat="42.564108" lon="-5.692764">
        <ele>902.5</ele>
        <time>2021-08-21T07:20:31Z</time>
      </trkpt>
      <trkpt lat="42.564002" lon="-5.692972">
        <ele>902.3</ele>
        <time>2021-08-21T07:20:45Z</time>
      </trkpt>
      <trkpt lat="42.563871" lon="-5.693145">
        <ele>902.3</ele>
        <time>2021-08-21T07:20:57Z</time>
      </trkpt>
      <trkpt lat="42.563746" lon="-5.693327">
        <ele>902.0</ele>
        <time>2021-08-21T07:21:10Z</time>
      </trkpt>
      <trkpt lat="42.563636" lon="-5.693521">
        <ele>902.1</ele>
        <time>2021-08-21T07:21:23Z</time>
      </trkpt>
      <trkpt lat="42.563525" lon="-5.693714">
        <ele>902.2</ele>
        <time>2021-08-21T07:21:39Z</time>
      </trkpt>
      <trkpt lat="42.563413" lon="-5.693921">
        <ele>902.2</ele>
        <time>2021-08-21T07:21:50Z</time>
      </trkpt>
      <trkpt lat="42.563343" lon="-5.694151">
        <ele>902.3</ele>
        <time>2021-08-21T07:22:06Z</time>
      </trkpt>
      <trkpt lat="42.563230" lon="-5.694360">
        <ele>902.0</ele>
        <time>2021-08-21T07:22:18Z</time>
      </trkpt>
      <trkpt lat="42.563104" lon="-5.694542">
        <ele>902.3</ele>
        <time>2021-08-21T07:22:35Z</time>
      </trkpt>
      <trkpt lat="42.563015" lon="-5.694768">
        <ele>902.6</ele>
        <time>2021-08-21T07:22:51Z</time>
      </trkpt>
      <trkpt lat="42.562919" lon="-5.694984">
        <ele>902.4</ele>
        <time>2021-08-21T07:23:05Z</time>
      </trkpt>
      <trkpt lat="42.562811" lon="-5.695192">
        <ele>902.2</ele>
        <time>2021-08-21T07:23:21Z</time>
      </trkpt>
      <trkpt lat="42.562714" lon="-5.695414">
        <ele>900.8</ele>
        <time>2021-08-21T07:23:32Z</time>
      </trkpt>
      <trkpt lat="42.562591" lon="-5.695609">
        <ele>900.8</ele>
        <time>2021-08-21T07:23:44Z</time>
      </trkpt>
      <trkpt lat="42.562491" lon="-5.695818">
        <ele>898.8</ele>
        <time>2021-08-21T07:24:02Z</time>
      </trkpt>
      <trkpt lat="42.562346" lon="-5.695984">
        <ele>898.0</ele>
        <time>2021-08-21T07:24:15Z</time>
      </trkpt>
      <trkpt lat="42.562240" lon="-5.696182">
        <ele>898.0</ele>
        <time>2021-08-21T07:24:30Z</time>
      </trkpt>
      <trkpt lat="42.562150" lon="-5.696399">
        <ele>898.1</ele>
        <time>2021-08-21T07:24:38Z</time>
      </trkpt>
      <trkpt lat="42.562041" lon="-5.696609">
        <ele>898.0</ele>
        <time>2021-08-21T07:24:58Z</time>
      </trkpt>
      <trkpt lat="42.562010" lon="-5.696859">
        <ele>898.1</ele>
        <time>2021-08-21T07:25:18Z</time>
      </trkpt>
      <trkpt lat="42.561908" lon="-5.697074">
        <ele>897.8</ele>
        <time>2021-08-21T07:25:33Z</time>
      </trkpt>
      <trkpt lat="42.561779" lon="-5.697258">
        <ele>897.9</ele>
        <time>2021-08-21T07:25:47Z</time>
      </trkpt>
      <trkpt lat="42.561608" lon="-5.697353">
        <ele>897.6</ele>
        <time>2021-08-21T07:26:03Z</time>
      </trkpt>
      <trkpt lat="42.561476" lon="-5.697547">
        <ele>897.7</ele>
        <time>2021-08-21T07:26:15Z</time>
      </trkpt>
      <trkpt lat="42.561388" lon="-5.697762">
        <ele>897.7</ele>
        <time>2021-08-21T07:26:22Z</time>
      </trkpt>
      <trkpt lat="42.561344" lon="-5.698010">
        <ele>897.5</ele>
        <time>2021-08-21T07:26:36Z</time>
      </trkpt>
      <trkpt lat="42.561221" lon="-5.698195">
        <ele>897.7</ele>
        <time>2021-08-21T07:26:51Z</time>
      </trkpt>
      <trkpt lat="42.561129" lon="-5.698408">
        <ele>897.9</ele>
        <time>2021-08-21T07:27:05Z</time>
      </trkpt>
      <trkpt lat="42.561000" lon="-5.698588">
        <ele>898.4</ele>
        <time>2021-08-21T07:27:21Z</time>
      </trkpt>
      <trkpt lat="42.560849" lon="-5.698758">
        <ele>898.3</ele>
        <time>2021-08-21T07:27:34Z</time>
      </trkpt>
      <trkpt lat="42.560750" lon="-5.698964">
        <ele>898.3</ele>
        <time>2021-08-21T07:27:45Z</time>
      </trkpt>
      <trkpt lat="42.560655" lon="-5.699172">
        <ele>898.2</ele>
        <time>2021-08-21T07:28:00Z</time>
      </trkpt>
      <trkpt lat="42.560523" lon="-5.699356">
        <ele>898.2</ele>
        <time>2021-08-21T07:28:10Z</time>
      </trkpt>
      <trkpt lat="42.560436" lon="-5.699573">
        <ele>898.8</ele>
        <time>2021-08-21T07:28:25Z</time>
      </trkpt>
      <trkpt lat="42.560344" lon="-5.699789">
        <ele>899.4</ele>
        <time>2021-08-21T07:28:41Z</time>
      </trkpt>
      <trkpt lat="42.560226" lon="-5.699987">
        <ele>899.5</ele>
        <time>2021-08-21T07:28:52Z</time>
      </trkpt>
      <trkpt lat="42.560115" lon="-5.700181">
        <ele>899.6</ele>
        <time>2021-08-21T07:29:04Z</time>
      </trkpt>
      <trkpt lat="42.560029" lon="-5.700402">
        <ele>900.0</ele>
        <time>2021-08-21T07:29:18Z</time>
      </trkpt>
      <trkpt lat="42.559910" lon="-5.700586">
        <ele>899.9</ele>
        <time>2021-08-21T07:29:34Z</time>
      </trkpt>
      <trkpt lat="42.559768" lon="-5.700764">
        <ele>900.3</ele>
        <time>2021-08-21T07:29:51Z</time>
      </trkpt>
      <trkpt lat="42.559614" lon="-5.700899">
        <ele>900.8</ele>
        <time>2021-08-21T07:30:04Z</time>
      </trkpt>
      <trkpt lat="42.559587" lon="-5.701152">
        <ele>901.2</ele>
        <time>2021-08-21T07:30:16Z</time>
      </trkpt>
      <trkpt lat="42.559547" lon="-5.701394">
        <ele>901.5</ele>
        <time>2021-08-21T07:30:29Z</time>
      </trkpt>
      <trkpt lat="42.559447" lon="-5.701598">
        <ele>901.5</ele>
        <time>2021-08-21T07:30:42Z</time>
      </trkpt>
      <trkpt lat="42.559339" lon="-5.701802">
        <ele>901.4</ele>
        <time>2021-08-21T07:30:57Z</time>
      </trkpt>
      <trkpt lat="42.559218" lon="-5.701988">
        <ele>901.4</ele>
        <time>2021-08-21T07:31:10Z</time>
      </trkpt>
      <trkpt lat="42.559112" lon="-5.702197">
        <ele>901.4</ele>
        <time>2021-08-21T07:31:25Z</time>
      </trkpt>
      <trkpt lat="42.558990" lon="-5.702380">
        <ele>901.6</ele>
        <time>2021-08-21T07:31:40Z</time>
      </trkpt>
      <trkpt lat="42.558875" lon="-5.702576">
        <ele>901.5</ele>
        <time>2021-08-21T07:31:54Z</time>
      </trkpt>
      <trkpt lat="42.558764" lon="-5.702775">
        <ele>905.2</ele>
        <time>2021-08-21T07:32:13Z</time>
      </trkpt>
      <trkpt lat="42.558615" lon="-5.702912">
        <ele>905.5</ele>
        <time>2021-08-21T07:32:25Z</time>
      </trkpt>
      <trkpt lat="42.558472" lon="-5.703061">
        <ele>905.7</ele>
        <time>2021-08-21T07:32:37Z</time>
      </trkpt>
      <trkpt lat="42.558347" lon="-5.703246">
        <ele>906.0</ele>
        <time>2021-08-21T07:32:53Z</time>
      </trkpt>
      <trkpt lat="42.558239" lon="-5.703451">
        <ele>905.7</ele>
        <time>2021-08-21T07:33:04Z</time>
      </trkpt>
      <trkpt lat="42.558118" lon="-5.703635">
        <ele>905.6</ele>
        <time>2021-08-21T07:33:20Z</time>
      </trkpt>
      <trkpt lat="42.558002" lon="-5.703824">
        <ele>906.1</ele>
        <time>2021-08-21T07:33:31Z</time>
      </trkpt>
      <trkpt lat="42.557877" lon="-5.704005">
        <ele>909.0</ele>
        <time>2021-08-21T07:33:46Z</time>
      </trkpt>
      <trkpt lat="42.557759" lon="-5.704197">
        <ele>908.3</ele>
        <time>2021-08-21T07:33:59Z</time>
      </trkpt>
      <trkpt lat="42.557674" lon="-5.704413">
        <ele>906.1</ele>
        <time>2021-08-21T07:34:13Z</time>
      </trkpt>
      <trkpt lat="42.557558" lon="-5.704603">
        <ele>909.3</ele>
        <time>2021-08-21T07:34:27Z</time>
      </trkpt>
      <trkpt lat="42.557450" lon="-5.704800">
        <ele>908.1</ele>
        <time>2021-08-21T07:34:42Z</time>
      </trkpt>
      <trkpt lat="42.557337" lon="-5.704996">
        <ele>909.0</ele>
        <time>2021-08-21T07:34:55Z</time>
      </trkpt>
      <trkpt lat="42.557241" lon="-5.705209">
        <ele>912.2</ele>
        <time>2021-08-21T07:35:09Z</time>
      </trkpt>
      <trkpt lat="42.557137" lon="-5.705415">
        <ele>915.2</ele>
        <time>2021-08-21T07:35:23Z</time>
      </trkpt>
      <trkpt lat="42.557095" lon="-5.705758">
        <ele>916.9</ele>
        <time>2021-08-21T07:36:08Z</time>
      </trkpt>
      <trkpt lat="42.557090" lon="-5.706015">
        <ele>917.7</ele>
        <time>2021-08-21T07:36:26Z</time>
      </trkpt>
      <trkpt lat="42.556960" lon="-5.706193">
        <ele>920.3</ele>
        <time>2021-08-21T07:36:37Z</time>
      </trkpt>
      <trkpt lat="42.556839" lon="-5.706385">
        <ele>921.9</ele>
        <time>2021-08-21T07:36:51Z</time>
      </trkpt>
      <trkpt lat="42.556742" lon="-5.706596">
        <ele>922.3</ele>
        <time>2021-08-21T07:37:05Z</time>
      </trkpt>
      <trkpt lat="42.556630" lon="-5.706799">
        <ele>922.6</ele>
        <time>2021-08-21T07:37:22Z</time>
      </trkpt>
      <trkpt lat="42.556523" lon="-5.707009">
        <ele>922.2</ele>
        <time>2021-08-21T07:37:35Z</time>
      </trkpt>
      <trkpt lat="42.556408" lon="-5.707221">
        <ele>920.1</ele>
        <time>2021-08-21T07:38:53Z</time>
      </trkpt>
      <trkpt lat="42.556317" lon="-5.707435">
        <ele>920.1</ele>
        <time>2021-08-21T07:39:05Z</time>
      </trkpt>
      <trkpt lat="42.556222" lon="-5.707652">
        <ele>920.1</ele>
        <time>2021-08-21T07:39:18Z</time>
      </trkpt>
      <trkpt lat="42.556129" lon="-5.707878">
        <ele>920.1</ele>
        <time>2021-08-21T07:39:34Z</time>
      </trkpt>
      <trkpt lat="42.556045" lon="-5.708111">
        <ele>920.1</ele>
        <time>2021-08-21T07:39:48Z</time>
      </trkpt>
      <trkpt lat="42.555939" lon="-5.708315">
        <ele>920.2</ele>
        <time>2021-08-21T07:40:03Z</time>
      </trkpt>
      <trkpt lat="42.555836" lon="-5.708516">
        <ele>920.1</ele>
        <time>2021-08-21T07:40:16Z</time>
      </trkpt>
      <trkpt lat="42.555739" lon="-5.708726">
        <ele>920.1</ele>
        <time>2021-08-21T07:40:29Z</time>
      </trkpt>
      <trkpt lat="42.555644" lon="-5.708956">
        <ele>920.1</ele>
        <time>2021-08-21T07:40:42Z</time>
      </trkpt>
      <trkpt lat="42.555546" lon="-5.709163">
        <ele>920.2</ele>
        <time>2021-08-21T07:40:55Z</time>
      </trkpt>
      <trkpt lat="42.555454" lon="-5.709406">
        <ele>920.0</ele>
        <time>2021-08-21T07:41:08Z</time>
      </trkpt>
      <trkpt lat="42.555373" lon="-5.709631">
        <ele>919.9</ele>
        <time>2021-08-21T07:41:22Z</time>
      </trkpt>
      <trkpt lat="42.555269" lon="-5.709846">
        <ele>919.9</ele>
        <time>2021-08-21T07:41:34Z</time>
      </trkpt>
      <trkpt lat="42.555159" lon="-5.710062">
        <ele>919.8</ele>
        <time>2021-08-21T07:41:48Z</time>
      </trkpt>
      <trkpt lat="42.555044" lon="-5.710277">
        <ele>918.1</ele>
        <time>2021-08-21T07:42:03Z</time>
      </trkpt>
      <trkpt lat="42.554969" lon="-5.710505">
        <ele>917.1</ele>
        <time>2021-08-21T07:42:18Z</time>
      </trkpt>
      <trkpt lat="42.554863" lon="-5.710703">
        <ele>916.4</ele>
        <time>2021-08-21T07:42:31Z</time>
      </trkpt>
      <trkpt lat="42.554766" lon="-5.710927">
        <ele>916.5</ele>
        <time>2021-08-21T07:42:44Z</time>
      </trkpt>
      <trkpt lat="42.554664" lon="-5.711140">
        <ele>916.8</ele>
        <time>2021-08-21T07:42:58Z</time>
      </trkpt>
      <trkpt lat="42.554562" lon="-5.711360">
        <ele>917.0</ele>
        <time>2021-08-21T07:43:12Z</time>
      </trkpt>
      <trkpt lat="42.554466" lon="-5.711574">
        <ele>916.0</ele>
        <time>2021-08-21T07:43:30Z</time>
      </trkpt>
      <trkpt lat="42.554359" lon="-5.711797">
        <ele>913.9</ele>
        <time>2021-08-21T07:43:44Z</time>
      </trkpt>
      <trkpt lat="42.554275" lon="-5.712029">
        <ele>911.9</ele>
        <time>2021-08-21T07:43:59Z</time>
      </trkpt>
      <trkpt lat="42.554181" lon="-5.712247">
        <ele>911.9</ele>
        <time>2021-08-21T07:44:14Z</time>
      </trkpt>
      <trkpt lat="42.554072" lon="-5.712479">
        <ele>912.5</ele>
        <time>2021-08-21T07:44:29Z</time>
      </trkpt>
      <trkpt lat="42.553974" lon="-5.712704">
        <ele>912.8</ele>
        <time>2021-08-21T07:44:43Z</time>
      </trkpt>
      <trkpt lat="42.553879" lon="-5.712924">
        <ele>914.1</ele>
        <time>2021-08-21T07:44:56Z</time>
      </trkpt>
      <trkpt lat="42.553774" lon="-5.713143">
        <ele>914.6</ele>
        <time>2021-08-21T07:45:09Z</time>
      </trkpt>
      <trkpt lat="42.553671" lon="-5.713370">
        <ele>915.0</ele>
        <time>2021-08-21T07:45:24Z</time>
      </trkpt>
      <trkpt lat="42.553572" lon="-5.713598">
        <ele>912.9</ele>
        <time>2021-08-21T07:45:39Z</time>
      </trkpt>
      <trkpt lat="42.553474" lon="-5.713823">
        <ele>914.9</ele>
        <time>2021-08-21T07:45:54Z</time>
      </trkpt>
      <trkpt lat="42.553379" lon="-5.714042">
        <ele>915.0</ele>
        <time>2021-08-21T07:46:08Z</time>
      </trkpt>
      <trkpt lat="42.553278" lon="-5.714262">
        <ele>915.0</ele>
        <time>2021-08-21T07:46:22Z</time>
      </trkpt>
      <trkpt lat="42.553147" lon="-5.714437">
        <ele>915.0</ele>
        <time>2021-08-21T07:46:34Z</time>
      </trkpt>
      <trkpt lat="42.553029" lon="-5.714629">
        <ele>915.2</ele>
        <time>2021-08-21T07:46:48Z</time>
      </trkpt>
      <trkpt lat="42.552938" lon="-5.714844">
        <ele>915.2</ele>
        <time>2021-08-21T07:47:01Z</time>
      </trkpt>
      <trkpt lat="42.552840" lon="-5.715062">
        <ele>915.1</ele>
        <time>2021-08-21T07:47:14Z</time>
      </trkpt>
      <trkpt lat="42.552752" lon="-5.715292">
        <ele>915.2</ele>
        <time>2021-08-21T07:47:29Z</time>
      </trkpt>
      <trkpt lat="42.552646" lon="-5.715518">
        <ele>914.1</ele>
        <time>2021-08-21T07:47:44Z</time>
      </trkpt>
      <trkpt lat="42.552569" lon="-5.715742">
        <ele>916.0</ele>
        <time>2021-08-21T07:47:57Z</time>
      </trkpt>
      <trkpt lat="42.552483" lon="-5.715971">
        <ele>915.6</ele>
        <time>2021-08-21T07:48:09Z</time>
      </trkpt>
      <trkpt lat="42.552372" lon="-5.716202">
        <ele>916.2</ele>
        <time>2021-08-21T07:48:24Z</time>
      </trkpt>
      <trkpt lat="42.552264" lon="-5.716421">
        <ele>915.9</ele>
        <time>2021-08-21T07:48:37Z</time>
      </trkpt>
      <trkpt lat="42.552169" lon="-5.716645">
        <ele>917.5</ele>
        <time>2021-08-21T07:48:51Z</time>
      </trkpt>
      <trkpt lat="42.552073" lon="-5.716858">
        <ele>919.2</ele>
        <time>2021-08-21T07:49:04Z</time>
      </trkpt>
      <trkpt lat="42.551967" lon="-5.717080">
        <ele>920.2</ele>
        <time>2021-08-21T07:49:17Z</time>
      </trkpt>
      <trkpt lat="42.551872" lon="-5.717297">
        <ele>918.3</ele>
        <time>2021-08-21T07:49:31Z</time>
      </trkpt>
      <trkpt lat="42.551760" lon="-5.717495">
        <ele>919.4</ele>
        <time>2021-08-21T07:49:43Z</time>
      </trkpt>
      <trkpt lat="42.551663" lon="-5.717736">
        <ele>921.1</ele>
        <time>2021-08-21T07:49:57Z</time>
      </trkpt>
      <trkpt lat="42.551547" lon="-5.717952">
        <ele>920.2</ele>
        <time>2021-08-21T07:50:11Z</time>
      </trkpt>
      <trkpt lat="42.551452" lon="-5.718163">
        <ele>922.5</ele>
        <time>2021-08-21T07:50:24Z</time>
      </trkpt>
      <trkpt lat="42.551363" lon="-5.718388">
        <ele>923.4</ele>
        <time>2021-08-21T07:50:37Z</time>
      </trkpt>
      <trkpt lat="42.551275" lon="-5.718602">
        <ele>923.0</ele>
        <time>2021-08-21T07:50:51Z</time>
      </trkpt>
      <trkpt lat="42.551167" lon="-5.718830">
        <ele>922.1</ele>
        <time>2021-08-21T07:51:05Z</time>
      </trkpt>
      <trkpt lat="42.551052" lon="-5.719028">
        <ele>919.2</ele>
        <time>2021-08-21T07:51:19Z</time>
      </trkpt>
      <trkpt lat="42.550942" lon="-5.719235">
        <ele>918.7</ele>
        <time>2021-08-21T07:51:34Z</time>
      </trkpt>
      <trkpt lat="42.550818" lon="-5.719431">
        <ele>919.7</ele>
        <time>2021-08-21T07:51:48Z</time>
      </trkpt>
      <trkpt lat="42.550716" lon="-5.719635">
        <ele>917.0</ele>
        <time>2021-08-21T07:52:01Z</time>
      </trkpt>
      <trkpt lat="42.550607" lon="-5.719840">
        <ele>921.8</ele>
        <time>2021-08-21T07:52:15Z</time>
      </trkpt>
      <trkpt lat="42.550516" lon="-5.720055">
        <ele>921.9</ele>
        <time>2021-08-21T07:52:31Z</time>
      </trkpt>
      <trkpt lat="42.550406" lon="-5.720275">
        <ele>917.8</ele>
        <time>2021-08-21T07:52:45Z</time>
      </trkpt>
      <trkpt lat="42.550296" lon="-5.720478">
        <ele>917.0</ele>
        <time>2021-08-21T07:53:01Z</time>
      </trkpt>
      <trkpt lat="42.550169" lon="-5.720656">
        <ele>914.8</ele>
        <time>2021-08-21T07:53:16Z</time>
      </trkpt>
      <trkpt lat="42.550042" lon="-5.720838">
        <ele>915.1</ele>
        <time>2021-08-21T07:53:30Z</time>
      </trkpt>
      <trkpt lat="42.549913" lon="-5.721013">
        <ele>915.0</ele>
        <time>2021-08-21T07:53:46Z</time>
      </trkpt>
      <trkpt lat="42.549785" lon="-5.721185">
        <ele>913.2</ele>
        <time>2021-08-21T07:54:01Z</time>
      </trkpt>
      <trkpt lat="42.549650" lon="-5.721374">
        <ele>915.9</ele>
        <time>2021-08-21T07:54:15Z</time>
      </trkpt>
      <trkpt lat="42.549515" lon="-5.721561">
        <ele>914.6</ele>
        <time>2021-08-21T07:54:30Z</time>
      </trkpt>
      <trkpt lat="42.549392" lon="-5.721750">
        <ele>916.8</ele>
        <time>2021-08-21T07:54:44Z</time>
      </trkpt>
      <trkpt lat="42.549258" lon="-5.721929">
        <ele>916.1</ele>
        <time>2021-08-21T07:54:58Z</time>
      </trkpt>
      <trkpt lat="42.549107" lon="-5.722069">
        <ele>914.8</ele>
        <time>2021-08-21T07:55:11Z</time>
      </trkpt>
      <trkpt lat="42.548940" lon="-5.722186">
        <ele>913.0</ele>
        <time>2021-08-21T07:55:26Z</time>
      </trkpt>
      <trkpt lat="42.548783" lon="-5.722333">
        <ele>912.3</ele>
        <time>2021-08-21T07:55:41Z</time>
      </trkpt>
      <trkpt lat="42.548652" lon="-5.722508">
        <ele>913.7</ele>
        <time>2021-08-21T07:55:56Z</time>
      </trkpt>
      <trkpt lat="42.548518" lon="-5.722674">
        <ele>910.5</ele>
        <time>2021-08-21T07:56:11Z</time>
      </trkpt>
      <trkpt lat="42.548392" lon="-5.722859">
        <ele>912.6</ele>
        <time>2021-08-21T07:56:25Z</time>
      </trkpt>
      <trkpt lat="42.548265" lon="-5.723051">
        <ele>914.5</ele>
        <time>2021-08-21T07:56:39Z</time>
      </trkpt>
      <trkpt lat="42.548154" lon="-5.723250">
        <ele>914.9</ele>
        <time>2021-08-21T07:56:53Z</time>
      </trkpt>
      <trkpt lat="42.548042" lon="-5.723459">
        <ele>918.0</ele>
        <time>2021-08-21T07:57:07Z</time>
      </trkpt>
      <trkpt lat="42.547924" lon="-5.723657">
        <ele>918.0</ele>
        <time>2021-08-21T07:57:19Z</time>
      </trkpt>
      <trkpt lat="42.547804" lon="-5.723851">
        <ele>918.2</ele>
        <time>2021-08-21T07:57:34Z</time>
      </trkpt>
      <trkpt lat="42.547676" lon="-5.724048">
        <ele>914.7</ele>
        <time>2021-08-21T07:57:49Z</time>
      </trkpt>
      <trkpt lat="42.547538" lon="-5.724218">
        <ele>916.9</ele>
        <time>2021-08-21T07:58:01Z</time>
      </trkpt>
      <trkpt lat="42.547412" lon="-5.724398">
        <ele>918.6</ele>
        <time>2021-08-21T07:58:15Z</time>
      </trkpt>
      <trkpt lat="42.547292" lon="-5.724605">
        <ele>920.0</ele>
        <time>2021-08-21T07:58:29Z</time>
      </trkpt>
      <trkpt lat="42.547151" lon="-5.724774">
        <ele>919.3</ele>
        <time>2021-08-21T07:58:42Z</time>
      </trkpt>
      <trkpt lat="42.547013" lon="-5.724959">
        <ele>918.4</ele>
        <time>2021-08-21T07:58:56Z</time>
      </trkpt>
      <trkpt lat="42.546888" lon="-5.725139">
        <ele>917.0</ele>
        <time>2021-08-21T07:59:09Z</time>
      </trkpt>
      <trkpt lat="42.546744" lon="-5.725314">
        <ele>916.0</ele>
        <time>2021-08-21T07:59:22Z</time>
      </trkpt>
      <trkpt lat="42.546614" lon="-5.725495">
        <ele>916.2</ele>
        <time>2021-08-21T07:59:36Z</time>
      </trkpt>
      <trkpt lat="42.546503" lon="-5.725697">
        <ele>916.6</ele>
        <time>2021-08-21T07:59:50Z</time>
      </trkpt>
      <trkpt lat="42.546368" lon="-5.725885">
        <ele>915.3</ele>
        <time>2021-08-21T08:00:04Z</time>
      </trkpt>
      <trkpt lat="42.546243" lon="-5.726061">
        <ele>915.8</ele>
        <time>2021-08-21T08:00:17Z</time>
      </trkpt>
      <trkpt lat="42.546098" lon="-5.726216">
        <ele>914.7</ele>
        <time>2021-08-21T08:00:40Z</time>
      </trkpt>
      <trkpt lat="42.545969" lon="-5.726401">
        <ele>914.0</ele>
        <time>2021-08-21T08:00:54Z</time>
      </trkpt>
      <trkpt lat="42.545834" lon="-5.726592">
        <ele>915.0</ele>
        <time>2021-08-21T08:01:08Z</time>
      </trkpt>
      <trkpt lat="42.545696" lon="-5.726780">
        <ele>916.7</ele>
        <time>2021-08-21T08:01:22Z</time>
      </trkpt>
      <trkpt lat="42.545562" lon="-5.726963">
        <ele>915.9</ele>
        <time>2021-08-21T08:01:37Z</time>
      </trkpt>
      <trkpt lat="42.545439" lon="-5.727152">
        <ele>913.7</ele>
        <time>2021-08-21T08:01:51Z</time>
      </trkpt>
      <trkpt lat="42.545294" lon="-5.727321">
        <ele>912.9</ele>
        <time>2021-08-21T08:02:05Z</time>
      </trkpt>
      <trkpt lat="42.545166" lon="-5.727517">
        <ele>911.1</ele>
        <time>2021-08-21T08:02:19Z</time>
      </trkpt>
      <trkpt lat="42.545020" lon="-5.727685">
        <ele>910.8</ele>
        <time>2021-08-21T08:02:33Z</time>
      </trkpt>
      <trkpt lat="42.544905" lon="-5.727879">
        <ele>911.7</ele>
        <time>2021-08-21T08:02:46Z</time>
      </trkpt>
      <trkpt lat="42.544757" lon="-5.728044">
        <ele>911.3</ele>
        <time>2021-08-21T08:03:00Z</time>
      </trkpt>
      <trkpt lat="42.544628" lon="-5.728238">
        <ele>911.0</ele>
        <time>2021-08-21T08:03:15Z</time>
      </trkpt>
      <trkpt lat="42.544495" lon="-5.728411">
        <ele>909.0</ele>
        <time>2021-08-21T08:03:27Z</time>
      </trkpt>
      <trkpt lat="42.544364" lon="-5.728580">
        <ele>909.2</ele>
        <time>2021-08-21T08:03:41Z</time>
      </trkpt>
      <trkpt lat="42.544240" lon="-5.728763">
        <ele>911.2</ele>
        <time>2021-08-21T08:03:55Z</time>
      </trkpt>
      <trkpt lat="42.544101" lon="-5.728922">
        <ele>911.0</ele>
        <time>2021-08-21T08:04:08Z</time>
      </trkpt>
      <trkpt lat="42.543969" lon="-5.729102">
        <ele>909.0</ele>
        <time>2021-08-21T08:04:22Z</time>
      </trkpt>
      <trkpt lat="42.543856" lon="-5.729298">
        <ele>908.4</ele>
        <time>2021-08-21T08:04:35Z</time>
      </trkpt>
      <trkpt lat="42.543734" lon="-5.729494">
        <ele>907.0</ele>
        <time>2021-08-21T08:04:48Z</time>
      </trkpt>
      <trkpt lat="42.543599" lon="-5.729662">
        <ele>904.9</ele>
        <time>2021-08-21T08:05:01Z</time>
      </trkpt>
      <trkpt lat="42.543457" lon="-5.729828">
        <ele>908.1</ele>
        <time>2021-08-21T08:05:15Z</time>
      </trkpt>
      <trkpt lat="42.543318" lon="-5.730007">
        <ele>906.7</ele>
        <time>2021-08-21T08:05:29Z</time>
      </trkpt>
      <trkpt lat="42.543189" lon="-5.730194">
        <ele>909.5</ele>
        <time>2021-08-21T08:05:43Z</time>
      </trkpt>
      <trkpt lat="42.543067" lon="-5.730377">
        <ele>910.8</ele>
        <time>2021-08-21T08:05:56Z</time>
      </trkpt>
      <trkpt lat="42.542928" lon="-5.730553">
        <ele>910.9</ele>
        <time>2021-08-21T08:06:10Z</time>
      </trkpt>
      <trkpt lat="42.542800" lon="-5.730742">
        <ele>909.5</ele>
        <time>2021-08-21T08:06:23Z</time>
      </trkpt>
      <trkpt lat="42.542668" lon="-5.730923">
        <ele>911.0</ele>
        <time>2021-08-21T08:06:37Z</time>
      </trkpt>
      <trkpt lat="42.542538" lon="-5.731115">
        <ele>910.0</ele>
        <time>2021-08-21T08:06:50Z</time>
      </trkpt>
      <trkpt lat="42.542409" lon="-5.731291">
        <ele>909.7</ele>
        <time>2021-08-21T08:07:04Z</time>
      </trkpt>
      <trkpt lat="42.542279" lon="-5.731469">
        <ele>910.1</ele>
        <time>2021-08-21T08:07:16Z</time>
      </trkpt>
      <trkpt lat="42.542149" lon="-5.731662">
        <ele>911.5</ele>
        <time>2021-08-21T08:07:31Z</time>
      </trkpt>
      <trkpt lat="42.542023" lon="-5.731855">
        <ele>912.0</ele>
        <time>2021-08-21T08:07:46Z</time>
      </trkpt>
      <trkpt lat="42.541897" lon="-5.732051">
        <ele>909.9</ele>
        <time>2021-08-21T08:07:59Z</time>
      </trkpt>
      <trkpt lat="42.541763" lon="-5.732237">
        <ele>911.1</ele>
        <time>2021-08-21T08:08:15Z</time>
      </trkpt>
      <trkpt lat="42.541637" lon="-5.732418">
        <ele>910.9</ele>
        <time>2021-08-21T08:08:28Z</time>
      </trkpt>
      <trkpt lat="42.541519" lon="-5.732611">
        <ele>909.8</ele>
        <time>2021-08-21T08:08:42Z</time>
      </trkpt>
      <trkpt lat="42.541385" lon="-5.732779">
        <ele>909.1</ele>
        <time>2021-08-21T08:08:57Z</time>
      </trkpt>
      <trkpt lat="42.541263" lon="-5.732966">
        <ele>904.5</ele>
        <time>2021-08-21T08:09:14Z</time>
      </trkpt>
      <trkpt lat="42.541109" lon="-5.733145">
        <ele>901.5</ele>
        <time>2021-08-21T08:09:27Z</time>
      </trkpt>
      <trkpt lat="42.540968" lon="-5.733320">
        <ele>901.6</ele>
        <time>2021-08-21T08:09:41Z</time>
      </trkpt>
      <trkpt lat="42.540804" lon="-5.733467">
        <ele>899.7</ele>
        <time>2021-08-21T08:09:56Z</time>
      </trkpt>
      <trkpt lat="42.540665" lon="-5.733621">
        <ele>899.9</ele>
        <time>2021-08-21T08:10:10Z</time>
      </trkpt>
      <trkpt lat="42.540522" lon="-5.733778">
        <ele>899.8</ele>
        <time>2021-08-21T08:10:23Z</time>
      </trkpt>
      <trkpt lat="42.540372" lon="-5.733943">
        <ele>899.5</ele>
        <time>2021-08-21T08:10:36Z</time>
      </trkpt>
      <trkpt lat="42.540210" lon="-5.734079">
        <ele>898.9</ele>
        <time>2021-08-21T08:10:50Z</time>
      </trkpt>
      <trkpt lat="42.540066" lon="-5.734258">
        <ele>898.7</ele>
        <time>2021-08-21T08:11:07Z</time>
      </trkpt>
      <trkpt lat="42.539949" lon="-5.734452">
        <ele>898.0</ele>
        <time>2021-08-21T08:11:22Z</time>
      </trkpt>
      <trkpt lat="42.539838" lon="-5.734648">
        <ele>898.4</ele>
        <time>2021-08-21T08:11:37Z</time>
      </trkpt>
      <trkpt lat="42.539711" lon="-5.734851">
        <ele>901.7</ele>
        <time>2021-08-21T08:11:52Z</time>
      </trkpt>
      <trkpt lat="42.539602" lon="-5.735064">
        <ele>906.4</ele>
        <time>2021-08-21T08:12:06Z</time>
      </trkpt>
      <trkpt lat="42.539509" lon="-5.735282">
        <ele>910.0</ele>
        <time>2021-08-21T08:12:21Z</time>
      </trkpt>
      <trkpt lat="42.539409" lon="-5.735495">
        <ele>912.9</ele>
        <time>2021-08-21T08:12:36Z</time>
      </trkpt>
      <trkpt lat="42.539320" lon="-5.735719">
        <ele>911.1</ele>
        <time>2021-08-21T08:12:51Z</time>
      </trkpt>
      <trkpt lat="42.539221" lon="-5.735929">
        <ele>907.1</ele>
        <time>2021-08-21T08:13:06Z</time>
      </trkpt>
      <trkpt lat="42.539105" lon="-5.736126">
        <ele>904.9</ele>
        <time>2021-08-21T08:13:20Z</time>
      </trkpt>
      <trkpt lat="42.538990" lon="-5.736328">
        <ele>904.9</ele>
        <time>2021-08-21T08:13:33Z</time>
      </trkpt>
      <trkpt lat="42.538878" lon="-5.736536">
        <ele>906.8</ele>
        <time>2021-08-21T08:13:48Z</time>
      </trkpt>
      <trkpt lat="42.538739" lon="-5.736724">
        <ele>906.7</ele>
        <time>2021-08-21T08:14:03Z</time>
      </trkpt>
      <trkpt lat="42.538577" lon="-5.736837">
        <ele>905.8</ele>
        <time>2021-08-21T08:15:09Z</time>
      </trkpt>
      <trkpt lat="42.538465" lon="-5.737077">
        <ele>906.3</ele>
        <time>2021-08-21T08:15:22Z</time>
      </trkpt>
      <trkpt lat="42.538318" lon="-5.737236">
        <ele>905.7</ele>
        <time>2021-08-21T08:15:35Z</time>
      </trkpt>
      <trkpt lat="42.538175" lon="-5.737390">
        <ele>904.8</ele>
        <time>2021-08-21T08:15:49Z</time>
      </trkpt>
      <trkpt lat="42.538047" lon="-5.737565">
        <ele>904.1</ele>
        <time>2021-08-21T08:16:02Z</time>
      </trkpt>
      <trkpt lat="42.537910" lon="-5.737743">
        <ele>905.9</ele>
        <time>2021-08-21T08:16:16Z</time>
      </trkpt>
      <trkpt lat="42.537784" lon="-5.737937">
        <ele>905.9</ele>
        <time>2021-08-21T08:16:30Z</time>
      </trkpt>
      <trkpt lat="42.537658" lon="-5.738125">
        <ele>905.6</ele>
        <time>2021-08-21T08:16:44Z</time>
      </trkpt>
      <trkpt lat="42.537537" lon="-5.738317">
        <ele>905.3</ele>
        <time>2021-08-21T08:16:57Z</time>
      </trkpt>
      <trkpt lat="42.537415" lon="-5.738515">
        <ele>905.1</ele>
        <time>2021-08-21T08:17:11Z</time>
      </trkpt>
      <trkpt lat="42.537286" lon="-5.738703">
        <ele>904.2</ele>
        <time>2021-08-21T08:17:26Z</time>
      </trkpt>
      <trkpt lat="42.537165" lon="-5.738885">
        <ele>904.1</ele>
        <time>2021-08-21T08:17:38Z</time>
      </trkpt>
      <trkpt lat="42.537036" lon="-5.739057">
        <ele>904.0</ele>
        <time>2021-08-21T08:17:53Z</time>
      </trkpt>
      <trkpt lat="42.536899" lon="-5.739248">
        <ele>904.0</ele>
        <time>2021-08-21T08:18:07Z</time>
      </trkpt>
      <trkpt lat="42.536771" lon="-5.739441">
        <ele>903.9</ele>
        <time>2021-08-21T08:18:22Z</time>
      </trkpt>
      <trkpt lat="42.536639" lon="-5.739612">
        <ele>903.8</ele>
        <time>2021-08-21T08:18:35Z</time>
      </trkpt>
      <trkpt lat="42.536500" lon="-5.739771">
        <ele>902.9</ele>
        <time>2021-08-21T08:18:58Z</time>
      </trkpt>
      <trkpt lat="42.536380" lon="-5.739967">
        <ele>903.8</ele>
        <time>2021-08-21T08:19:22Z</time>
      </trkpt>
      <trkpt lat="42.536249" lon="-5.740155">
        <ele>905.6</ele>
        <time>2021-08-21T08:19:36Z</time>
      </trkpt>
      <trkpt lat="42.536112" lon="-5.740333">
        <ele>904.9</ele>
        <time>2021-08-21T08:19:50Z</time>
      </trkpt>
      <trkpt lat="42.535980" lon="-5.740523">
        <ele>905.0</ele>
        <time>2021-08-21T08:20:05Z</time>
      </trkpt>
      <trkpt lat="42.535852" lon="-5.740696">
        <ele>900.8</ele>
        <time>2021-08-21T08:20:18Z</time>
      </trkpt>
      <trkpt lat="42.535742" lon="-5.740893">
        <ele>901.9</ele>
        <time>2021-08-21T08:20:31Z</time>
      </trkpt>
      <trkpt lat="42.535624" lon="-5.741111">
        <ele>903.6</ele>
        <time>2021-08-21T08:20:45Z</time>
      </trkpt>
      <trkpt lat="42.535494" lon="-5.741323">
        <ele>903.6</ele>
        <time>2021-08-21T08:21:00Z</time>
      </trkpt>
      <trkpt lat="42.535361" lon="-5.741506">
        <ele>903.1</ele>
        <time>2021-08-21T08:21:14Z</time>
      </trkpt>
      <trkpt lat="42.535254" lon="-5.741704">
        <ele>905.8</ele>
        <time>2021-08-21T08:21:28Z</time>
      </trkpt>
      <trkpt lat="42.535122" lon="-5.741889">
        <ele>905.8</ele>
        <time>2021-08-21T08:21:41Z</time>
      </trkpt>
      <trkpt lat="42.534989" lon="-5.742057">
        <ele>905.7</ele>
        <time>2021-08-21T08:21:54Z</time>
      </trkpt>
      <trkpt lat="42.534868" lon="-5.742241">
        <ele>905.8</ele>
        <time>2021-08-21T08:22:07Z</time>
      </trkpt>
      <trkpt lat="42.534738" lon="-5.742414">
        <ele>905.9</ele>
        <time>2021-08-21T08:22:19Z</time>
      </trkpt>
      <trkpt lat="42.534601" lon="-5.742575">
        <ele>904.0</ele>
        <time>2021-08-21T08:22:33Z</time>
      </trkpt>
      <trkpt lat="42.534491" lon="-5.742771">
        <ele>901.6</ele>
        <time>2021-08-21T08:22:46Z</time>
      </trkpt>
      <trkpt lat="42.534364" lon="-5.742958">
        <ele>902.6</ele>
        <time>2021-08-21T08:23:00Z</time>
      </trkpt>
      <trkpt lat="42.534218" lon="-5.743129">
        <ele>906.2</ele>
        <time>2021-08-21T08:23:14Z</time>
      </trkpt>
      <trkpt lat="42.534082" lon="-5.743295">
        <ele>905.2</ele>
        <time>2021-08-21T08:23:28Z</time>
      </trkpt>
      <trkpt lat="42.533957" lon="-5.743493">
        <ele>904.6</ele>
        <time>2021-08-21T08:23:41Z</time>
      </trkpt>
      <trkpt lat="42.533815" lon="-5.743667">
        <ele>904.7</ele>
        <time>2021-08-21T08:23:56Z</time>
      </trkpt>
      <trkpt lat="42.533693" lon="-5.743850">
        <ele>905.8</ele>
        <time>2021-08-21T08:24:10Z</time>
      </trkpt>
      <trkpt lat="42.533553" lon="-5.744012">
        <ele>904.7</ele>
        <time>2021-08-21T08:24:23Z</time>
      </trkpt>
      <trkpt lat="42.533425" lon="-5.744196">
        <ele>904.6</ele>
        <time>2021-08-21T08:24:36Z</time>
      </trkpt>
      <trkpt lat="42.533303" lon="-5.744385">
        <ele>900.8</ele>
        <time>2021-08-21T08:24:50Z</time>
      </trkpt>
      <trkpt lat="42.533188" lon="-5.744574">
        <ele>898.3</ele>
        <time>2021-08-21T08:25:02Z</time>
      </trkpt>
      <trkpt lat="42.533042" lon="-5.744741">
        <ele>900.0</ele>
        <time>2021-08-21T08:25:18Z</time>
      </trkpt>
      <trkpt lat="42.532899" lon="-5.744912">
        <ele>901.7</ele>
        <time>2021-08-21T08:25:32Z</time>
      </trkpt>
      <trkpt lat="42.532766" lon="-5.745084">
        <ele>899.0</ele>
        <time>2021-08-21T08:25:44Z</time>
      </trkpt>
      <trkpt lat="42.532617" lon="-5.745233">
        <ele>899.0</ele>
        <time>2021-08-21T08:25:57Z</time>
      </trkpt>
      <trkpt lat="42.532468" lon="-5.745379">
        <ele>898.8</ele>
        <time>2021-08-21T08:26:09Z</time>
      </trkpt>
      <trkpt lat="42.532338" lon="-5.745553">
        <ele>898.4</ele>
        <time>2021-08-21T08:26:24Z</time>
      </trkpt>
      <trkpt lat="42.532206" lon="-5.745724">
        <ele>895.6</ele>
        <time>2021-08-21T08:26:36Z</time>
      </trkpt>
      <trkpt lat="42.532064" lon="-5.745928">
        <ele>896.5</ele>
        <time>2021-08-21T08:26:52Z</time>
      </trkpt>
      <trkpt lat="42.531935" lon="-5.746111">
        <ele>894.1</ele>
        <time>2021-08-21T08:27:05Z</time>
      </trkpt>
      <trkpt lat="42.531796" lon="-5.746272">
        <ele>893.8</ele>
        <time>2021-08-21T08:27:20Z</time>
      </trkpt>
      <trkpt lat="42.531655" lon="-5.746434">
        <ele>894.0</ele>
        <time>2021-08-21T08:27:33Z</time>
      </trkpt>
      <trkpt lat="42.531514" lon="-5.746601">
        <ele>895.9</ele>
        <time>2021-08-21T08:27:46Z</time>
      </trkpt>
      <trkpt lat="42.531373" lon="-5.746770">
        <ele>898.0</ele>
        <time>2021-08-21T08:27:59Z</time>
      </trkpt>
      <trkpt lat="42.531253" lon="-5.746963">
        <ele>898.1</ele>
        <time>2021-08-21T08:28:12Z</time>
      </trkpt>
      <trkpt lat="42.531132" lon="-5.747154">
        <ele>899.7</ele>
        <time>2021-08-21T08:28:25Z</time>
      </trkpt>
      <trkpt lat="42.531021" lon="-5.747354">
        <ele>900.2</ele>
        <time>2021-08-21T08:28:39Z</time>
      </trkpt>
      <trkpt lat="42.530893" lon="-5.747533">
        <ele>899.2</ele>
        <time>2021-08-21T08:28:52Z</time>
      </trkpt>
      <trkpt lat="42.530769" lon="-5.747710">
        <ele>903.5</ele>
        <time>2021-08-21T08:29:05Z</time>
      </trkpt>
      <trkpt lat="42.530648" lon="-5.747907">
        <ele>905.2</ele>
        <time>2021-08-21T08:29:20Z</time>
      </trkpt>
      <trkpt lat="42.530521" lon="-5.748100">
        <ele>905.5</ele>
        <time>2021-08-21T08:29:33Z</time>
      </trkpt>
      <trkpt lat="42.530394" lon="-5.748281">
        <ele>905.7</ele>
        <time>2021-08-21T08:29:47Z</time>
      </trkpt>
      <trkpt lat="42.530276" lon="-5.748467">
        <ele>904.3</ele>
        <time>2021-08-21T08:30:00Z</time>
      </trkpt>
      <trkpt lat="42.530152" lon="-5.748651">
        <ele>903.7</ele>
        <time>2021-08-21T08:30:14Z</time>
      </trkpt>
      <trkpt lat="42.530018" lon="-5.748836">
        <ele>901.8</ele>
        <time>2021-08-21T08:30:28Z</time>
      </trkpt>
      <trkpt lat="42.529896" lon="-5.749027">
        <ele>901.9</ele>
        <time>2021-08-21T08:30:41Z</time>
      </trkpt>
      <trkpt lat="42.529761" lon="-5.749206">
        <ele>903.1</ele>
        <time>2021-08-21T08:30:55Z</time>
      </trkpt>
      <trkpt lat="42.529633" lon="-5.749395">
        <ele>903.6</ele>
        <time>2021-08-21T08:31:09Z</time>
      </trkpt>
      <trkpt lat="42.529502" lon="-5.749564">
        <ele>903.8</ele>
        <time>2021-08-21T08:31:22Z</time>
      </trkpt>
      <trkpt lat="42.529383" lon="-5.749758">
        <ele>903.5</ele>
        <time>2021-08-21T08:31:36Z</time>
      </trkpt>
      <trkpt lat="42.529259" lon="-5.749937">
        <ele>905.6</ele>
        <time>2021-08-21T08:31:49Z</time>
      </trkpt>
      <trkpt lat="42.529136" lon="-5.750130">
        <ele>904.1</ele>
        <time>2021-08-21T08:32:03Z</time>
      </trkpt>
      <trkpt lat="42.529031" lon="-5.750334">
        <ele>903.0</ele>
        <time>2021-08-21T08:32:18Z</time>
      </trkpt>
      <trkpt lat="42.528880" lon="-5.750490">
        <ele>902.0</ele>
        <time>2021-08-21T08:38:30Z</time>
      </trkpt>
      <trkpt lat="42.528734" lon="-5.750650">
        <ele>902.1</ele>
        <time>2021-08-21T08:38:44Z</time>
      </trkpt>
      <trkpt lat="42.528587" lon="-5.750802">
        <ele>901.8</ele>
        <time>2021-08-21T08:38:58Z</time>
      </trkpt>
      <trkpt lat="42.528413" lon="-5.750893">
        <ele>901.8</ele>
        <time>2021-08-21T08:39:45Z</time>
      </trkpt>
      <trkpt lat="42.528243" lon="-5.750976">
        <ele>901.7</ele>
        <time>2021-08-21T08:39:59Z</time>
      </trkpt>
      <trkpt lat="42.528099" lon="-5.751132">
        <ele>901.8</ele>
        <time>2021-08-21T08:40:12Z</time>
      </trkpt>
      <trkpt lat="42.528071" lon="-5.751379">
        <ele>901.5</ele>
        <time>2021-08-21T08:40:29Z</time>
      </trkpt>
      <trkpt lat="42.527963" lon="-5.751588">
        <ele>901.3</ele>
        <time>2021-08-21T08:40:44Z</time>
      </trkpt>
      <trkpt lat="42.527859" lon="-5.751797">
        <ele>900.8</ele>
        <time>2021-08-21T08:40:58Z</time>
      </trkpt>
      <trkpt lat="42.527754" lon="-5.752014">
        <ele>900.1</ele>
        <time>2021-08-21T08:41:12Z</time>
      </trkpt>
      <trkpt lat="42.527660" lon="-5.752225">
        <ele>899.4</ele>
        <time>2021-08-21T08:41:29Z</time>
      </trkpt>
      <trkpt lat="42.527524" lon="-5.752387">
        <ele>899.3</ele>
        <time>2021-08-21T08:41:40Z</time>
      </trkpt>
      <trkpt lat="42.527397" lon="-5.752570">
        <ele>899.3</ele>
        <time>2021-08-21T08:41:55Z</time>
      </trkpt>
      <trkpt lat="42.527274" lon="-5.752758">
        <ele>899.1</ele>
        <time>2021-08-21T08:42:11Z</time>
      </trkpt>
      <trkpt lat="42.527153" lon="-5.752953">
        <ele>899.1</ele>
        <time>2021-08-21T08:42:26Z</time>
      </trkpt>
      <trkpt lat="42.527020" lon="-5.753132">
        <ele>902.9</ele>
        <time>2021-08-21T08:42:38Z</time>
      </trkpt>
      <trkpt lat="42.526883" lon="-5.753311">
        <ele>903.0</ele>
        <time>2021-08-21T08:42:52Z</time>
      </trkpt>
      <trkpt lat="42.526742" lon="-5.753477">
        <ele>903.1</ele>
        <time>2021-08-21T08:43:06Z</time>
      </trkpt>
      <trkpt lat="42.526601" lon="-5.753646">
        <ele>906.2</ele>
        <time>2021-08-21T08:43:21Z</time>
      </trkpt>
      <trkpt lat="42.526468" lon="-5.753839">
        <ele>906.3</ele>
        <time>2021-08-21T08:43:34Z</time>
      </trkpt>
      <trkpt lat="42.526353" lon="-5.754040">
        <ele>905.2</ele>
        <time>2021-08-21T08:43:49Z</time>
      </trkpt>
      <trkpt lat="42.526233" lon="-5.754223">
        <ele>906.3</ele>
        <time>2021-08-21T08:44:03Z</time>
      </trkpt>
      <trkpt lat="42.526106" lon="-5.754419">
        <ele>906.9</ele>
        <time>2021-08-21T08:44:17Z</time>
      </trkpt>
      <trkpt lat="42.525981" lon="-5.754599">
        <ele>907.1</ele>
        <time>2021-08-21T08:44:30Z</time>
      </trkpt>
      <trkpt lat="42.525846" lon="-5.754786">
        <ele>907.0</ele>
        <time>2021-08-21T08:44:44Z</time>
      </trkpt>
      <trkpt lat="42.525720" lon="-5.754961">
        <ele>907.2</ele>
        <time>2021-08-21T08:44:58Z</time>
      </trkpt>
      <trkpt lat="42.525594" lon="-5.755156">
        <ele>906.2</ele>
        <time>2021-08-21T08:45:12Z</time>
      </trkpt>
      <trkpt lat="42.525458" lon="-5.755328">
        <ele>901.1</ele>
        <time>2021-08-21T08:45:25Z</time>
      </trkpt>
      <trkpt lat="42.525338" lon="-5.755521">
        <ele>899.6</ele>
        <time>2021-08-21T08:45:38Z</time>
      </trkpt>
      <trkpt lat="42.525201" lon="-5.755703">
        <ele>899.2</ele>
        <time>2021-08-21T08:45:52Z</time>
      </trkpt>
      <trkpt lat="42.525074" lon="-5.755885">
        <ele>899.6</ele>
        <time>2021-08-21T08:46:06Z</time>
      </trkpt>
      <trkpt lat="42.524937" lon="-5.756049">
        <ele>899.3</ele>
        <time>2021-08-21T08:46:20Z</time>
      </trkpt>
      <trkpt lat="42.524802" lon="-5.756219">
        <ele>899.1</ele>
        <time>2021-08-21T08:46:31Z</time>
      </trkpt>
      <trkpt lat="42.524683" lon="-5.756419">
        <ele>899.9</ele>
        <time>2021-08-21T08:46:49Z</time>
      </trkpt>
      <trkpt lat="42.524541" lon="-5.756601">
        <ele>900.3</ele>
        <time>2021-08-21T08:47:03Z</time>
      </trkpt>
      <trkpt lat="42.524427" lon="-5.756794">
        <ele>899.9</ele>
        <time>2021-08-21T08:47:17Z</time>
      </trkpt>
      <trkpt lat="42.524304" lon="-5.756991">
        <ele>899.7</ele>
        <time>2021-08-21T08:47:32Z</time>
      </trkpt>
      <trkpt lat="42.524179" lon="-5.757172">
        <ele>899.3</ele>
        <time>2021-08-21T08:47:46Z</time>
      </trkpt>
      <trkpt lat="42.524063" lon="-5.757390">
        <ele>899.4</ele>
        <time>2021-08-21T08:48:00Z</time>
      </trkpt>
      <trkpt lat="42.523938" lon="-5.757568">
        <ele>900.5</ele>
        <time>2021-08-21T08:48:14Z</time>
      </trkpt>
      <trkpt lat="42.523816" lon="-5.757753">
        <ele>900.5</ele>
        <time>2021-08-21T08:48:27Z</time>
      </trkpt>
      <trkpt lat="42.523697" lon="-5.757949">
        <ele>897.8</ele>
        <time>2021-08-21T08:48:41Z</time>
      </trkpt>
      <trkpt lat="42.523572" lon="-5.758131">
        <ele>896.2</ele>
        <time>2021-08-21T08:48:56Z</time>
      </trkpt>
      <trkpt lat="42.523434" lon="-5.758306">
        <ele>895.0</ele>
        <time>2021-08-21T08:49:11Z</time>
      </trkpt>
      <trkpt lat="42.523301" lon="-5.758494">
        <ele>895.4</ele>
        <time>2021-08-21T08:49:26Z</time>
      </trkpt>
      <trkpt lat="42.523176" lon="-5.758681">
        <ele>895.1</ele>
        <time>2021-08-21T08:49:40Z</time>
      </trkpt>
      <trkpt lat="42.523057" lon="-5.758873">
        <ele>895.3</ele>
        <time>2021-08-21T08:49:52Z</time>
      </trkpt>
      <trkpt lat="42.522939" lon="-5.759082">
        <ele>894.9</ele>
        <time>2021-08-21T08:50:07Z</time>
      </trkpt>
      <trkpt lat="42.522796" lon="-5.759264">
        <ele>894.9</ele>
        <time>2021-08-21T08:50:21Z</time>
      </trkpt>
      <trkpt lat="42.522647" lon="-5.759457">
        <ele>894.7</ele>
        <time>2021-08-21T08:50:35Z</time>
      </trkpt>
      <trkpt lat="42.522511" lon="-5.759654">
        <ele>894.9</ele>
        <time>2021-08-21T08:50:50Z</time>
      </trkpt>
      <trkpt lat="42.522379" lon="-5.759839">
        <ele>894.9</ele>
        <time>2021-08-21T08:51:07Z</time>
      </trkpt>
      <trkpt lat="42.522256" lon="-5.760023">
        <ele>894.9</ele>
        <time>2021-08-21T08:51:21Z</time>
      </trkpt>
      <trkpt lat="42.522121" lon="-5.760233">
        <ele>894.8</ele>
        <time>2021-08-21T08:51:35Z</time>
      </trkpt>
      <trkpt lat="42.521991" lon="-5.760431">
        <ele>895.1</ele>
        <time>2021-08-21T08:51:51Z</time>
      </trkpt>
      <trkpt lat="42.521848" lon="-5.760611">
        <ele>893.2</ele>
        <time>2021-08-21T08:52:07Z</time>
      </trkpt>
      <trkpt lat="42.521718" lon="-5.760782">
        <ele>893.9</ele>
        <time>2021-08-21T08:52:17Z</time>
      </trkpt>
      <trkpt lat="42.521607" lon="-5.760975">
        <ele>894.7</ele>
        <time>2021-08-21T08:52:34Z</time>
      </trkpt>
      <trkpt lat="42.521492" lon="-5.761172">
        <ele>894.5</ele>
        <time>2021-08-21T08:52:47Z</time>
      </trkpt>
      <trkpt lat="42.521360" lon="-5.761361">
        <ele>894.6</ele>
        <time>2021-08-21T08:53:01Z</time>
      </trkpt>
      <trkpt lat="42.521233" lon="-5.761543">
        <ele>894.6</ele>
        <time>2021-08-21T08:53:15Z</time>
      </trkpt>
      <trkpt lat="42.521118" lon="-5.761736">
        <ele>891.7</ele>
        <time>2021-08-21T08:53:29Z</time>
      </trkpt>
      <trkpt lat="42.521011" lon="-5.761945">
        <ele>891.4</ele>
        <time>2021-08-21T08:53:43Z</time>
      </trkpt>
      <trkpt lat="42.520910" lon="-5.762155">
        <ele>893.5</ele>
        <time>2021-08-21T08:53:56Z</time>
      </trkpt>
      <trkpt lat="42.520812" lon="-5.762377">
        <ele>892.0</ele>
        <time>2021-08-21T08:54:13Z</time>
      </trkpt>
      <trkpt lat="42.520722" lon="-5.762598">
        <ele>891.4</ele>
        <time>2021-08-21T08:54:28Z</time>
      </trkpt>
      <trkpt lat="42.520629" lon="-5.762829">
        <ele>891.3</ele>
        <time>2021-08-21T08:54:43Z</time>
      </trkpt>
      <trkpt lat="42.520547" lon="-5.763056">
        <ele>891.2</ele>
        <time>2021-08-21T08:54:57Z</time>
      </trkpt>
      <trkpt lat="42.520448" lon="-5.763264">
        <ele>891.0</ele>
        <time>2021-08-21T08:55:12Z</time>
      </trkpt>
      <trkpt lat="42.520356" lon="-5.763492">
        <ele>891.3</ele>
        <time>2021-08-21T08:55:28Z</time>
      </trkpt>
      <trkpt lat="42.520258" lon="-5.763709">
        <ele>891.3</ele>
        <time>2021-08-21T08:55:44Z</time>
      </trkpt>
      <trkpt lat="42.520155" lon="-5.763921">
        <ele>891.1</ele>
        <time>2021-08-21T08:55:57Z</time>
      </trkpt>
      <trkpt lat="42.520034" lon="-5.764116">
        <ele>890.9</ele>
        <time>2021-08-21T08:56:13Z</time>
      </trkpt>
      <trkpt lat="42.519896" lon="-5.764287">
        <ele>891.1</ele>
        <time>2021-08-21T08:56:28Z</time>
      </trkpt>
      <trkpt lat="42.519729" lon="-5.764386">
        <ele>891.1</ele>
        <time>2021-08-21T08:56:38Z</time>
      </trkpt>
      <trkpt lat="42.519574" lon="-5.764527">
        <ele>890.8</ele>
        <time>2021-08-21T08:56:54Z</time>
      </trkpt>
      <trkpt lat="42.519439" lon="-5.764698">
        <ele>890.8</ele>
        <time>2021-08-21T08:57:09Z</time>
      </trkpt>
      <trkpt lat="42.519282" lon="-5.764831">
        <ele>890.7</ele>
        <time>2021-08-21T08:57:25Z</time>
      </trkpt>
      <trkpt lat="42.519102" lon="-5.764934">
        <ele>891.2</ele>
        <time>2021-08-21T08:57:40Z</time>
      </trkpt>
      <trkpt lat="42.519249" lon="-5.764777">
        <ele>891.2</ele>
        <time>2021-08-21T08:58:55Z</time>
      </trkpt>
      <trkpt lat="42.519399" lon="-5.764623">
        <ele>890.8</ele>
        <time>2021-08-21T08:59:12Z</time>
      </trkpt>
      <trkpt lat="42.519551" lon="-5.764481">
        <ele>889.8</ele>
        <time>2021-08-21T08:59:33Z</time>
      </trkpt>
      <trkpt lat="42.519378" lon="-5.764582">
        <ele>890.8</ele>
        <time>2021-08-21T09:21:29Z</time>
      </trkpt>
      <trkpt lat="42.519237" lon="-5.764750">
        <ele>890.9</ele>
        <time>2021-08-21T09:21:48Z</time>
      </trkpt>
      <trkpt lat="42.519117" lon="-5.764936">
        <ele>891.0</ele>
        <time>2021-08-21T09:22:07Z</time>
      </trkpt>
      <trkpt lat="42.518968" lon="-5.765073">
        <ele>892.7</ele>
        <time>2021-08-21T09:22:46Z</time>
      </trkpt>
      <trkpt lat="42.518818" lon="-5.765234">
        <ele>895.7</ele>
        <time>2021-08-21T09:23:08Z</time>
      </trkpt>
      <trkpt lat="42.518639" lon="-5.765309">
        <ele>896.0</ele>
        <time>2021-08-21T09:23:26Z</time>
      </trkpt>
      <trkpt lat="42.518554" lon="-5.765539">
        <ele>896.2</ele>
        <time>2021-08-21T09:23:44Z</time>
      </trkpt>
      <trkpt lat="42.518415" lon="-5.765711">
        <ele>896.0</ele>
        <time>2021-08-21T09:24:00Z</time>
      </trkpt>
      <trkpt lat="42.518269" lon="-5.765862">
        <ele>895.3</ele>
        <time>2021-08-21T09:24:19Z</time>
      </trkpt>
      <trkpt lat="42.518121" lon="-5.766005">
        <ele>894.8</ele>
        <time>2021-08-21T09:24:35Z</time>
      </trkpt>
      <trkpt lat="42.518010" lon="-5.766219">
        <ele>892.1</ele>
        <time>2021-08-21T09:24:51Z</time>
      </trkpt>
      <trkpt lat="42.517888" lon="-5.766412">
        <ele>891.2</ele>
        <time>2021-08-21T09:25:06Z</time>
      </trkpt>
      <trkpt lat="42.517763" lon="-5.766607">
        <ele>891.3</ele>
        <time>2021-08-21T09:25:23Z</time>
      </trkpt>
      <trkpt lat="42.517638" lon="-5.766802">
        <ele>897.7</ele>
        <time>2021-08-21T09:26:05Z</time>
      </trkpt>
      <trkpt lat="42.517550" lon="-5.767030">
        <ele>898.2</ele>
        <time>2021-08-21T09:26:21Z</time>
      </trkpt>
      <trkpt lat="42.517440" lon="-5.767237">
        <ele>898.3</ele>
        <time>2021-08-21T09:26:37Z</time>
      </trkpt>
      <trkpt lat="42.517298" lon="-5.767396">
        <ele>898.2</ele>
        <time>2021-08-21T09:27:06Z</time>
      </trkpt>
      <trkpt lat="42.517142" lon="-5.767551">
        <ele>897.5</ele>
        <time>2021-08-21T09:27:21Z</time>
      </trkpt>
      <trkpt lat="42.517005" lon="-5.767723">
        <ele>897.1</ele>
        <time>2021-08-21T09:27:36Z</time>
      </trkpt>
      <trkpt lat="42.516861" lon="-5.767882">
        <ele>895.8</ele>
        <time>2021-08-21T09:27:54Z</time>
      </trkpt>
      <trkpt lat="42.516750" lon="-5.768076">
        <ele>893.9</ele>
        <time>2021-08-21T09:28:16Z</time>
      </trkpt>
      <trkpt lat="42.516614" lon="-5.768247">
        <ele>892.2</ele>
        <time>2021-08-21T09:28:29Z</time>
      </trkpt>
      <trkpt lat="42.516482" lon="-5.768417">
        <ele>892.0</ele>
        <time>2021-08-21T09:28:43Z</time>
      </trkpt>
      <trkpt lat="42.516370" lon="-5.768628">
        <ele>892.0</ele>
        <time>2021-08-21T09:28:58Z</time>
      </trkpt>
      <trkpt lat="42.516295" lon="-5.768853">
        <ele>891.9</ele>
        <time>2021-08-21T09:29:14Z</time>
      </trkpt>
      <trkpt lat="42.516241" lon="-5.769091">
        <ele>891.8</ele>
        <time>2021-08-21T09:29:28Z</time>
      </trkpt>
      <trkpt lat="42.516214" lon="-5.769349">
        <ele>891.7</ele>
        <time>2021-08-21T09:29:42Z</time>
      </trkpt>
      <trkpt lat="42.516207" lon="-5.769609">
        <ele>876.2</ele>
        <time>2021-08-21T09:29:58Z</time>
      </trkpt>
      <trkpt lat="42.516162" lon="-5.769856">
        <ele>874.8</ele>
        <time>2021-08-21T09:30:13Z</time>
      </trkpt>
      <trkpt lat="42.516129" lon="-5.770105">
        <ele>872.7</ele>
        <time>2021-08-21T09:30:29Z</time>
      </trkpt>
      <trkpt lat="42.516100" lon="-5.770350">
        <ele>873.6</ele>
        <time>2021-08-21T09:30:52Z</time>
      </trkpt>
      <trkpt lat="42.516059" lon="-5.770588">
        <ele>875.3</ele>
        <time>2021-08-21T09:31:28Z</time>
      </trkpt>
      <trkpt lat="42.515976" lon="-5.770818">
        <ele>874.0</ele>
        <time>2021-08-21T09:31:48Z</time>
      </trkpt>
      <trkpt lat="42.515856" lon="-5.771017">
        <ele>874.7</ele>
        <time>2021-08-21T09:32:04Z</time>
      </trkpt>
      <trkpt lat="42.515730" lon="-5.771200">
        <ele>873.2</ele>
        <time>2021-08-21T09:32:20Z</time>
      </trkpt>
      <trkpt lat="42.515623" lon="-5.771397">
        <ele>873.6</ele>
        <time>2021-08-21T09:32:37Z</time>
      </trkpt>
      <trkpt lat="42.515531" lon="-5.771609">
        <ele>872.7</ele>
        <time>2021-08-21T09:32:52Z</time>
      </trkpt>
      <trkpt lat="42.515422" lon="-5.771809">
        <ele>874.9</ele>
        <time>2021-08-21T09:33:06Z</time>
      </trkpt>
      <trkpt lat="42.515268" lon="-5.771961">
        <ele>871.8</ele>
        <time>2021-08-21T09:33:22Z</time>
      </trkpt>
      <trkpt lat="42.515298" lon="-5.772207">
        <ele>873.5</ele>
        <time>2021-08-21T09:33:48Z</time>
      </trkpt>
      <trkpt lat="42.515114" lon="-5.772266">
        <ele>869.6</ele>
        <time>2021-08-21T09:34:38Z</time>
      </trkpt>
      <trkpt lat="42.514993" lon="-5.772454">
        <ele>868.7</ele>
        <time>2021-08-21T09:34:52Z</time>
      </trkpt>
      <trkpt lat="42.514877" lon="-5.772661">
        <ele>867.4</ele>
        <time>2021-08-21T09:35:05Z</time>
      </trkpt>
      <trkpt lat="42.514770" lon="-5.772861">
        <ele>869.8</ele>
        <time>2021-08-21T09:35:20Z</time>
      </trkpt>
      <trkpt lat="42.514654" lon="-5.773069">
        <ele>869.9</ele>
        <time>2021-08-21T09:35:34Z</time>
      </trkpt>
      <trkpt lat="42.514547" lon="-5.773288">
        <ele>870.7</ele>
        <time>2021-08-21T09:35:47Z</time>
      </trkpt>
      <trkpt lat="42.514435" lon="-5.773500">
        <ele>871.8</ele>
        <time>2021-08-21T09:36:01Z</time>
      </trkpt>
      <trkpt lat="42.514311" lon="-5.773695">
        <ele>873.0</ele>
        <time>2021-08-21T09:36:15Z</time>
      </trkpt>
      <trkpt lat="42.514201" lon="-5.773893">
        <ele>874.8</ele>
        <time>2021-08-21T09:36:28Z</time>
      </trkpt>
      <trkpt lat="42.514058" lon="-5.774055">
        <ele>873.9</ele>
        <time>2021-08-21T09:36:43Z</time>
      </trkpt>
      <trkpt lat="42.513887" lon="-5.773958">
        <ele>872.8</ele>
        <time>2021-08-21T09:36:57Z</time>
      </trkpt>
      <trkpt lat="42.513729" lon="-5.773841">
        <ele>869.5</ele>
        <time>2021-08-21T09:37:11Z</time>
      </trkpt>
      <trkpt lat="42.513570" lon="-5.773701">
        <ele>865.9</ele>
        <time>2021-08-21T09:37:40Z</time>
      </trkpt>
      <trkpt lat="42.513433" lon="-5.773867">
        <ele>865.6</ele>
        <time>2021-08-21T09:37:59Z</time>
      </trkpt>
      <trkpt lat="42.513346" lon="-5.774086">
        <ele>866.7</ele>
        <time>2021-08-21T09:38:13Z</time>
      </trkpt>
      <trkpt lat="42.513268" lon="-5.774330">
        <ele>865.9</ele>
        <time>2021-08-21T09:38:28Z</time>
      </trkpt>
      <trkpt lat="42.513198" lon="-5.774562">
        <ele>865.8</ele>
        <time>2021-08-21T09:38:44Z</time>
      </trkpt>
      <trkpt lat="42.513110" lon="-5.774801">
        <ele>866.6</ele>
        <time>2021-08-21T09:38:58Z</time>
      </trkpt>
      <trkpt lat="42.513025" lon="-5.775020">
        <ele>867.7</ele>
        <time>2021-08-21T09:39:11Z</time>
      </trkpt>
      <trkpt lat="42.512962" lon="-5.775260">
        <ele>868.8</ele>
        <time>2021-08-21T09:39:25Z</time>
      </trkpt>
      <trkpt lat="42.512897" lon="-5.775489">
        <ele>870.0</ele>
        <time>2021-08-21T09:39:40Z</time>
      </trkpt>
      <trkpt lat="42.512816" lon="-5.775710">
        <ele>867.0</ele>
        <time>2021-08-21T09:39:55Z</time>
      </trkpt>
      <trkpt lat="42.512737" lon="-5.775937">
        <ele>868.7</ele>
        <time>2021-08-21T09:40:08Z</time>
      </trkpt>
      <trkpt lat="42.512645" lon="-5.776180">
        <ele>869.5</ele>
        <time>2021-08-21T09:40:23Z</time>
      </trkpt>
      <trkpt lat="42.512572" lon="-5.776422">
        <ele>869.0</ele>
        <time>2021-08-21T09:40:41Z</time>
      </trkpt>
      <trkpt lat="42.512486" lon="-5.776649">
        <ele>869.4</ele>
        <time>2021-08-21T09:40:55Z</time>
      </trkpt>
      <trkpt lat="42.512422" lon="-5.776884">
        <ele>870.8</ele>
        <time>2021-08-21T09:41:10Z</time>
      </trkpt>
      <trkpt lat="42.512329" lon="-5.777114">
        <ele>868.8</ele>
        <time>2021-08-21T09:41:24Z</time>
      </trkpt>
      <trkpt lat="42.512222" lon="-5.777312">
        <ele>866.0</ele>
        <time>2021-08-21T09:41:39Z</time>
      </trkpt>
      <trkpt lat="42.512120" lon="-5.777542">
        <ele>866.7</ele>
        <time>2021-08-21T09:41:54Z</time>
      </trkpt>
      <trkpt lat="42.512004" lon="-5.777756">
        <ele>869.1</ele>
        <time>2021-08-21T09:42:09Z</time>
      </trkpt>
      <trkpt lat="42.511885" lon="-5.777954">
        <ele>867.9</ele>
        <time>2021-08-21T09:42:24Z</time>
      </trkpt>
      <trkpt lat="42.511779" lon="-5.778164">
        <ele>867.6</ele>
        <time>2021-08-21T09:42:40Z</time>
      </trkpt>
      <trkpt lat="42.511665" lon="-5.778378">
        <ele>868.9</ele>
        <time>2021-08-21T09:42:54Z</time>
      </trkpt>
      <trkpt lat="42.511556" lon="-5.778588">
        <ele>867.8</ele>
        <time>2021-08-21T09:43:09Z</time>
      </trkpt>
      <trkpt lat="42.511444" lon="-5.778802">
        <ele>867.0</ele>
        <time>2021-08-21T09:43:24Z</time>
      </trkpt>
      <trkpt lat="42.511328" lon="-5.779012">
        <ele>864.7</ele>
        <time>2021-08-21T09:43:39Z</time>
      </trkpt>
      <trkpt lat="42.511212" lon="-5.779232">
        <ele>864.5</ele>
        <time>2021-08-21T09:43:54Z</time>
      </trkpt>
      <trkpt lat="42.511094" lon="-5.779432">
        <ele>865.7</ele>
        <time>2021-08-21T09:44:09Z</time>
      </trkpt>
      <trkpt lat="42.510988" lon="-5.779655">
        <ele>865.5</ele>
        <time>2021-08-21T09:44:24Z</time>
      </trkpt>
      <trkpt lat="42.510872" lon="-5.779873">
        <ele>867.9</ele>
        <time>2021-08-21T09:44:39Z</time>
      </trkpt>
      <trkpt lat="42.510749" lon="-5.780077">
        <ele>867.7</ele>
        <time>2021-08-21T09:44:57Z</time>
      </trkpt>
      <trkpt lat="42.510632" lon="-5.780275">
        <ele>870.9</ele>
        <time>2021-08-21T09:45:14Z</time>
      </trkpt>
      <trkpt lat="42.510503" lon="-5.780457">
        <ele>869.6</ele>
        <time>2021-08-21T09:45:28Z</time>
      </trkpt>
      <trkpt lat="42.510392" lon="-5.780652">
        <ele>868.9</ele>
        <time>2021-08-21T09:45:42Z</time>
      </trkpt>
      <trkpt lat="42.510291" lon="-5.780868">
        <ele>869.0</ele>
        <time>2021-08-21T09:45:55Z</time>
      </trkpt>
      <trkpt lat="42.510191" lon="-5.781077">
        <ele>868.0</ele>
        <time>2021-08-21T09:46:10Z</time>
      </trkpt>
      <trkpt lat="42.510079" lon="-5.781276">
        <ele>868.3</ele>
        <time>2021-08-21T09:46:24Z</time>
      </trkpt>
      <trkpt lat="42.509974" lon="-5.781478">
        <ele>866.8</ele>
        <time>2021-08-21T09:46:57Z</time>
      </trkpt>
      <trkpt lat="42.509877" lon="-5.781682">
        <ele>867.4</ele>
        <time>2021-08-21T09:47:19Z</time>
      </trkpt>
      <trkpt lat="42.509764" lon="-5.781877">
        <ele>868.6</ele>
        <time>2021-08-21T09:47:34Z</time>
      </trkpt>
      <trkpt lat="42.509647" lon="-5.782074">
        <ele>866.8</ele>
        <time>2021-08-21T09:48:07Z</time>
      </trkpt>
      <trkpt lat="42.509552" lon="-5.782292">
        <ele>866.3</ele>
        <time>2021-08-21T09:48:20Z</time>
      </trkpt>
      <trkpt lat="42.509434" lon="-5.782517">
        <ele>865.8</ele>
        <time>2021-08-21T09:48:35Z</time>
      </trkpt>
      <trkpt lat="42.509326" lon="-5.782717">
        <ele>866.7</ele>
        <time>2021-08-21T09:48:50Z</time>
      </trkpt>
      <trkpt lat="42.509204" lon="-5.782924">
        <ele>867.4</ele>
        <time>2021-08-21T09:49:05Z</time>
      </trkpt>
      <trkpt lat="42.509092" lon="-5.783124">
        <ele>866.9</ele>
        <time>2021-08-21T09:49:19Z</time>
      </trkpt>
      <trkpt lat="42.508987" lon="-5.783331">
        <ele>868.6</ele>
        <time>2021-08-21T09:49:32Z</time>
      </trkpt>
      <trkpt lat="42.508876" lon="-5.783539">
        <ele>869.1</ele>
        <time>2021-08-21T09:49:47Z</time>
      </trkpt>
      <trkpt lat="42.508769" lon="-5.783746">
        <ele>867.3</ele>
        <time>2021-08-21T09:50:00Z</time>
      </trkpt>
      <trkpt lat="42.508663" lon="-5.783960">
        <ele>865.7</ele>
        <time>2021-08-21T09:50:15Z</time>
      </trkpt>
      <trkpt lat="42.508542" lon="-5.784166">
        <ele>867.5</ele>
        <time>2021-08-21T09:50:29Z</time>
      </trkpt>
      <trkpt lat="42.508425" lon="-5.784380">
        <ele>867.3</ele>
        <time>2021-08-21T09:50:44Z</time>
      </trkpt>
      <trkpt lat="42.508307" lon="-5.784589">
        <ele>864.9</ele>
        <time>2021-08-21T09:51:00Z</time>
      </trkpt>
      <trkpt lat="42.508188" lon="-5.784808">
        <ele>866.7</ele>
        <time>2021-08-21T09:51:15Z</time>
      </trkpt>
      <trkpt lat="42.508084" lon="-5.785019">
        <ele>868.1</ele>
        <time>2021-08-21T09:51:29Z</time>
      </trkpt>
      <trkpt lat="42.507969" lon="-5.785210">
        <ele>867.3</ele>
        <time>2021-08-21T09:51:44Z</time>
      </trkpt>
      <trkpt lat="42.507862" lon="-5.785418">
        <ele>868.5</ele>
        <time>2021-08-21T09:51:58Z</time>
      </trkpt>
      <trkpt lat="42.507745" lon="-5.785623">
        <ele>867.1</ele>
        <time>2021-08-21T09:52:14Z</time>
      </trkpt>
      <trkpt lat="42.507636" lon="-5.785817">
        <ele>867.3</ele>
        <time>2021-08-21T09:52:27Z</time>
      </trkpt>
      <trkpt lat="42.507516" lon="-5.786017">
        <ele>866.3</ele>
        <time>2021-08-21T09:52:42Z</time>
      </trkpt>
      <trkpt lat="42.507416" lon="-5.786227">
        <ele>866.9</ele>
        <time>2021-08-21T09:52:57Z</time>
      </trkpt>
      <trkpt lat="42.507307" lon="-5.786434">
        <ele>867.7</ele>
        <time>2021-08-21T09:53:10Z</time>
      </trkpt>
      <trkpt lat="42.507196" lon="-5.786643">
        <ele>866.7</ele>
        <time>2021-08-21T09:53:25Z</time>
      </trkpt>
      <trkpt lat="42.507078" lon="-5.786841">
        <ele>864.8</ele>
        <time>2021-08-21T09:53:44Z</time>
      </trkpt>
      <trkpt lat="42.506974" lon="-5.787059">
        <ele>864.9</ele>
        <time>2021-08-21T09:53:59Z</time>
      </trkpt>
      <trkpt lat="42.506857" lon="-5.787252">
        <ele>865.5</ele>
        <time>2021-08-21T09:54:13Z</time>
      </trkpt>
      <trkpt lat="42.506747" lon="-5.787463">
        <ele>866.8</ele>
        <time>2021-08-21T09:54:28Z</time>
      </trkpt>
      <trkpt lat="42.506646" lon="-5.787673">
        <ele>865.7</ele>
        <time>2021-08-21T09:54:41Z</time>
      </trkpt>
      <trkpt lat="42.506521" lon="-5.787886">
        <ele>862.6</ele>
        <time>2021-08-21T09:54:56Z</time>
      </trkpt>
      <trkpt lat="42.506414" lon="-5.788086">
        <ele>861.8</ele>
        <time>2021-08-21T09:55:10Z</time>
      </trkpt>
      <trkpt lat="42.506311" lon="-5.788300">
        <ele>862.8</ele>
        <time>2021-08-21T09:55:25Z</time>
      </trkpt>
      <trkpt lat="42.506201" lon="-5.788506">
        <ele>861.8</ele>
        <time>2021-08-21T09:55:39Z</time>
      </trkpt>
      <trkpt lat="42.506091" lon="-5.788706">
        <ele>861.5</ele>
        <time>2021-08-21T09:55:53Z</time>
      </trkpt>
      <trkpt lat="42.505975" lon="-5.788908">
        <ele>862.2</ele>
        <time>2021-08-21T09:56:08Z</time>
      </trkpt>
      <trkpt lat="42.505862" lon="-5.789106">
        <ele>861.0</ele>
        <time>2021-08-21T09:56:22Z</time>
      </trkpt>
      <trkpt lat="42.505744" lon="-5.789327">
        <ele>862.9</ele>
        <time>2021-08-21T09:56:36Z</time>
      </trkpt>
      <trkpt lat="42.505624" lon="-5.789536">
        <ele>861.9</ele>
        <time>2021-08-21T09:56:51Z</time>
      </trkpt>
      <trkpt lat="42.505514" lon="-5.789747">
        <ele>859.0</ele>
        <time>2021-08-21T09:57:05Z</time>
      </trkpt>
      <trkpt lat="42.505390" lon="-5.789946">
        <ele>857.5</ele>
        <time>2021-08-21T09:57:19Z</time>
      </trkpt>
      <trkpt lat="42.505284" lon="-5.790144">
        <ele>856.6</ele>
        <time>2021-08-21T09:57:33Z</time>
      </trkpt>
      <trkpt lat="42.505171" lon="-5.790350">
        <ele>856.5</ele>
        <time>2021-08-21T09:57:46Z</time>
      </trkpt>
      <trkpt lat="42.505055" lon="-5.790571">
        <ele>855.0</ele>
        <time>2021-08-21T09:58:01Z</time>
      </trkpt>
      <trkpt lat="42.504952" lon="-5.790773">
        <ele>855.9</ele>
        <time>2021-08-21T09:58:15Z</time>
      </trkpt>
      <trkpt lat="42.504838" lon="-5.790966">
        <ele>856.6</ele>
        <time>2021-08-21T09:58:29Z</time>
      </trkpt>
      <trkpt lat="42.504735" lon="-5.791178">
        <ele>857.0</ele>
        <time>2021-08-21T09:58:44Z</time>
      </trkpt>
      <trkpt lat="42.504625" lon="-5.791373">
        <ele>858.2</ele>
        <time>2021-08-21T09:58:59Z</time>
      </trkpt>
      <trkpt lat="42.504524" lon="-5.791586">
        <ele>857.8</ele>
        <time>2021-08-21T09:59:13Z</time>
      </trkpt>
      <trkpt lat="42.504411" lon="-5.791789">
        <ele>857.8</ele>
        <time>2021-08-21T09:59:27Z</time>
      </trkpt>
      <trkpt lat="42.504296" lon="-5.791987">
        <ele>857.4</ele>
        <time>2021-08-21T09:59:41Z</time>
      </trkpt>
      <trkpt lat="42.504177" lon="-5.792180">
        <ele>856.0</ele>
        <time>2021-08-21T09:59:55Z</time>
      </trkpt>
      <trkpt lat="42.504069" lon="-5.792397">
        <ele>856.2</ele>
        <time>2021-08-21T10:00:09Z</time>
      </trkpt>
      <trkpt lat="42.503949" lon="-5.792587">
        <ele>856.0</ele>
        <time>2021-08-21T10:00:25Z</time>
      </trkpt>
      <trkpt lat="42.503838" lon="-5.792803">
        <ele>853.0</ele>
        <time>2021-08-21T10:00:39Z</time>
      </trkpt>
      <trkpt lat="42.503731" lon="-5.793000">
        <ele>854.1</ele>
        <time>2021-08-21T10:00:53Z</time>
      </trkpt>
      <trkpt lat="42.503619" lon="-5.793191">
        <ele>854.0</ele>
        <time>2021-08-21T10:01:07Z</time>
      </trkpt>
      <trkpt lat="42.503526" lon="-5.793412">
        <ele>852.6</ele>
        <time>2021-08-21T10:01:22Z</time>
      </trkpt>
      <trkpt lat="42.503409" lon="-5.793620">
        <ele>854.6</ele>
        <time>2021-08-21T10:01:36Z</time>
      </trkpt>
      <trkpt lat="42.503298" lon="-5.793817">
        <ele>855.0</ele>
        <time>2021-08-21T10:01:49Z</time>
      </trkpt>
      <trkpt lat="42.503185" lon="-5.794027">
        <ele>852.9</ele>
        <time>2021-08-21T10:02:04Z</time>
      </trkpt>
      <trkpt lat="42.503078" lon="-5.794224">
        <ele>853.0</ele>
        <time>2021-08-21T10:02:18Z</time>
      </trkpt>
      <trkpt lat="42.502959" lon="-5.794418">
        <ele>852.4</ele>
        <time>2021-08-21T10:02:32Z</time>
      </trkpt>
      <trkpt lat="42.502856" lon="-5.794628">
        <ele>851.6</ele>
        <time>2021-08-21T10:02:46Z</time>
      </trkpt>
      <trkpt lat="42.502748" lon="-5.794841">
        <ele>851.8</ele>
        <time>2021-08-21T10:03:01Z</time>
      </trkpt>
      <trkpt lat="42.502639" lon="-5.795044">
        <ele>852.8</ele>
        <time>2021-08-21T10:03:15Z</time>
      </trkpt>
      <trkpt lat="42.502526" lon="-5.795234">
        <ele>853.0</ele>
        <time>2021-08-21T10:03:29Z</time>
      </trkpt>
      <trkpt lat="42.502423" lon="-5.795436">
        <ele>855.2</ele>
        <time>2021-08-21T10:03:43Z</time>
      </trkpt>
      <trkpt lat="42.502310" lon="-5.795643">
        <ele>853.9</ele>
        <time>2021-08-21T10:03:57Z</time>
      </trkpt>
      <trkpt lat="42.502203" lon="-5.795840">
        <ele>853.8</ele>
        <time>2021-08-21T10:04:10Z</time>
      </trkpt>
      <trkpt lat="42.502085" lon="-5.796033">
        <ele>853.5</ele>
        <time>2021-08-21T10:04:24Z</time>
      </trkpt>
      <trkpt lat="42.501974" lon="-5.796245">
        <ele>852.9</ele>
        <time>2021-08-21T10:04:39Z</time>
      </trkpt>
      <trkpt lat="42.501858" lon="-5.796452">
        <ele>853.2</ele>
        <time>2021-08-21T10:04:53Z</time>
      </trkpt>
      <trkpt lat="42.501751" lon="-5.796664">
        <ele>853.1</ele>
        <time>2021-08-21T10:05:08Z</time>
      </trkpt>
      <trkpt lat="42.501644" lon="-5.796871">
        <ele>853.0</ele>
        <time>2021-08-21T10:05:21Z</time>
      </trkpt>
      <trkpt lat="42.501529" lon="-5.797070">
        <ele>852.8</ele>
        <time>2021-08-21T10:05:35Z</time>
      </trkpt>
      <trkpt lat="42.501421" lon="-5.797281">
        <ele>852.9</ele>
        <time>2021-08-21T10:05:49Z</time>
      </trkpt>
      <trkpt lat="42.501310" lon="-5.797478">
        <ele>849.9</ele>
        <time>2021-08-21T10:06:03Z</time>
      </trkpt>
      <trkpt lat="42.501204" lon="-5.797693">
        <ele>848.6</ele>
        <time>2021-08-21T10:06:17Z</time>
      </trkpt>
      <trkpt lat="42.501097" lon="-5.797901">
        <ele>849.7</ele>
        <time>2021-08-21T10:06:31Z</time>
      </trkpt>
      <trkpt lat="42.500967" lon="-5.798118">
        <ele>848.8</ele>
        <time>2021-08-21T10:06:46Z</time>
      </trkpt>
      <trkpt lat="42.500860" lon="-5.798320">
        <ele>849.8</ele>
        <time>2021-08-21T10:06:58Z</time>
      </trkpt>
      <trkpt lat="42.500741" lon="-5.798514">
        <ele>849.6</ele>
        <time>2021-08-21T10:07:15Z</time>
      </trkpt>
      <trkpt lat="42.500630" lon="-5.798717">
        <ele>849.7</ele>
        <time>2021-08-21T10:07:29Z</time>
      </trkpt>
      <trkpt lat="42.500523" lon="-5.798918">
        <ele>849.7</ele>
        <time>2021-08-21T10:07:43Z</time>
      </trkpt>
      <trkpt lat="42.500408" lon="-5.799118">
        <ele>849.7</ele>
        <time>2021-08-21T10:07:58Z</time>
      </trkpt>
      <trkpt lat="42.500301" lon="-5.799320">
        <ele>849.5</ele>
        <time>2021-08-21T10:08:09Z</time>
      </trkpt>
      <trkpt lat="42.500187" lon="-5.799524">
        <ele>849.4</ele>
        <time>2021-08-21T10:08:26Z</time>
      </trkpt>
      <trkpt lat="42.500087" lon="-5.799729">
        <ele>849.3</ele>
        <time>2021-08-21T10:08:40Z</time>
      </trkpt>
      <trkpt lat="42.499984" lon="-5.799932">
        <ele>848.8</ele>
        <time>2021-08-21T10:08:53Z</time>
      </trkpt>
      <trkpt lat="42.499872" lon="-5.800143">
        <ele>848.7</ele>
        <time>2021-08-21T10:09:07Z</time>
      </trkpt>
      <trkpt lat="42.499766" lon="-5.800345">
        <ele>848.9</ele>
        <time>2021-08-21T10:09:21Z</time>
      </trkpt>
      <trkpt lat="42.499668" lon="-5.800552">
        <ele>849.0</ele>
        <time>2021-08-21T10:09:36Z</time>
      </trkpt>
      <trkpt lat="42.499538" lon="-5.800739">
        <ele>848.9</ele>
        <time>2021-08-21T10:09:51Z</time>
      </trkpt>
      <trkpt lat="42.499432" lon="-5.800939">
        <ele>848.8</ele>
        <time>2021-08-21T10:10:04Z</time>
      </trkpt>
      <trkpt lat="42.499329" lon="-5.801142">
        <ele>848.8</ele>
        <time>2021-08-21T10:10:18Z</time>
      </trkpt>
      <trkpt lat="42.499216" lon="-5.801344">
        <ele>848.8</ele>
        <time>2021-08-21T10:10:33Z</time>
      </trkpt>
      <trkpt lat="42.499117" lon="-5.801548">
        <ele>848.8</ele>
        <time>2021-08-21T10:10:47Z</time>
      </trkpt>
      <trkpt lat="42.499015" lon="-5.801755">
        <ele>848.8</ele>
        <time>2021-08-21T10:10:58Z</time>
      </trkpt>
      <trkpt lat="42.498902" lon="-5.801961">
        <ele>848.8</ele>
        <time>2021-08-21T10:11:15Z</time>
      </trkpt>
      <trkpt lat="42.498804" lon="-5.802169">
        <ele>848.8</ele>
        <time>2021-08-21T10:11:27Z</time>
      </trkpt>
      <trkpt lat="42.498692" lon="-5.802371">
        <ele>848.8</ele>
        <time>2021-08-21T10:11:45Z</time>
      </trkpt>
      <trkpt lat="42.498574" lon="-5.802560">
        <ele>848.9</ele>
        <time>2021-08-21T10:11:58Z</time>
      </trkpt>
      <trkpt lat="42.498450" lon="-5.802757">
        <ele>849.2</ele>
        <time>2021-08-21T10:12:12Z</time>
      </trkpt>
      <trkpt lat="42.498342" lon="-5.802965">
        <ele>849.2</ele>
        <time>2021-08-21T10:12:32Z</time>
      </trkpt>
      <trkpt lat="42.498238" lon="-5.803167">
        <ele>849.1</ele>
        <time>2021-08-21T10:12:50Z</time>
      </trkpt>
      <trkpt lat="42.498114" lon="-5.803352">
        <ele>868.3</ele>
        <time>2021-08-21T10:13:05Z</time>
      </trkpt>
      <trkpt lat="42.497985" lon="-5.803552">
        <ele>867.8</ele>
        <time>2021-08-21T10:13:20Z</time>
      </trkpt>
      <trkpt lat="42.497884" lon="-5.803760">
        <ele>867.8</ele>
        <time>2021-08-21T10:13:35Z</time>
      </trkpt>
      <trkpt lat="42.497773" lon="-5.803961">
        <ele>867.9</ele>
        <time>2021-08-21T10:13:50Z</time>
      </trkpt>
      <trkpt lat="42.497662" lon="-5.804158">
        <ele>867.8</ele>
        <time>2021-08-21T10:14:04Z</time>
      </trkpt>
      <trkpt lat="42.497561" lon="-5.804363">
        <ele>867.9</ele>
        <time>2021-08-21T10:14:17Z</time>
      </trkpt>
      <trkpt lat="42.497440" lon="-5.804559">
        <ele>868.0</ele>
        <time>2021-08-21T10:14:32Z</time>
      </trkpt>
      <trkpt lat="42.497324" lon="-5.804760">
        <ele>868.0</ele>
        <time>2021-08-21T10:14:46Z</time>
      </trkpt>
      <trkpt lat="42.497200" lon="-5.804939">
        <ele>867.8</ele>
        <time>2021-08-21T10:14:59Z</time>
      </trkpt>
      <trkpt lat="42.497077" lon="-5.805138">
        <ele>867.9</ele>
        <time>2021-08-21T10:15:13Z</time>
      </trkpt>
      <trkpt lat="42.496965" lon="-5.805347">
        <ele>868.0</ele>
        <time>2021-08-21T10:15:32Z</time>
      </trkpt>
      <trkpt lat="42.496849" lon="-5.805549">
        <ele>868.0</ele>
        <time>2021-08-21T10:15:51Z</time>
      </trkpt>
      <trkpt lat="42.496739" lon="-5.805764">
        <ele>868.0</ele>
        <time>2021-08-21T10:16:07Z</time>
      </trkpt>
      <trkpt lat="42.496618" lon="-5.805955">
        <ele>867.8</ele>
        <time>2021-08-21T10:16:22Z</time>
      </trkpt>
      <trkpt lat="42.496506" lon="-5.806154">
        <ele>867.7</ele>
        <time>2021-08-21T10:16:37Z</time>
      </trkpt>
      <trkpt lat="42.496406" lon="-5.806364">
        <ele>867.7</ele>
        <time>2021-08-21T10:16:52Z</time>
      </trkpt>
      <trkpt lat="42.496283" lon="-5.806550">
        <ele>868.2</ele>
        <time>2021-08-21T10:17:08Z</time>
      </trkpt>
      <trkpt lat="42.496192" lon="-5.806698">
        <ele>868.1</ele>
        <time>2021-08-22T04:19:23Z</time>
      </trkpt>
      <trkpt lat="42.496068" lon="-5.806875">
        <ele>868.0</ele>
        <time>2021-08-22T04:19:38Z</time>
      </trkpt>
      <trkpt lat="42.495949" lon="-5.807067">
        <ele>868.2</ele>
        <time>2021-08-22T04:19:53Z</time>
      </trkpt>
      <trkpt lat="42.495819" lon="-5.807258">
        <ele>868.2</ele>
        <time>2021-08-22T04:20:07Z</time>
      </trkpt>
      <trkpt lat="42.495703" lon="-5.807452">
        <ele>867.8</ele>
        <time>2021-08-22T04:20:23Z</time>
      </trkpt>
      <trkpt lat="42.495590" lon="-5.807658">
        <ele>868.0</ele>
        <time>2021-08-22T04:20:41Z</time>
      </trkpt>
      <trkpt lat="42.495470" lon="-5.807843">
        <ele>867.6</ele>
        <time>2021-08-22T04:20:57Z</time>
      </trkpt>
      <trkpt lat="42.495355" lon="-5.808043">
        <ele>867.6</ele>
        <time>2021-08-22T04:21:09Z</time>
      </trkpt>
      <trkpt lat="42.495194" lon="-5.808162">
        <ele>866.9</ele>
        <time>2021-08-22T04:21:23Z</time>
      </trkpt>
      <trkpt lat="42.495088" lon="-5.808369">
        <ele>866.8</ele>
        <time>2021-08-22T04:21:44Z</time>
      </trkpt>
      <trkpt lat="42.494983" lon="-5.808580">
        <ele>866.8</ele>
        <time>2021-08-22T04:21:57Z</time>
      </trkpt>
      <trkpt lat="42.494854" lon="-5.808764">
        <ele>866.8</ele>
        <time>2021-08-22T04:22:10Z</time>
      </trkpt>
      <trkpt lat="42.494749" lon="-5.808977">
        <ele>866.9</ele>
        <time>2021-08-22T04:22:23Z</time>
      </trkpt>
      <trkpt lat="42.494626" lon="-5.809176">
        <ele>866.7</ele>
        <time>2021-08-22T04:22:39Z</time>
      </trkpt>
      <trkpt lat="42.494480" lon="-5.809343">
        <ele>866.3</ele>
        <time>2021-08-22T04:23:02Z</time>
      </trkpt>
      <trkpt lat="42.494370" lon="-5.809553">
        <ele>866.1</ele>
        <time>2021-08-22T04:23:08Z</time>
      </trkpt>
      <trkpt lat="42.494268" lon="-5.809760">
        <ele>865.9</ele>
        <time>2021-08-22T04:23:28Z</time>
      </trkpt>
      <trkpt lat="42.494159" lon="-5.809981">
        <ele>865.8</ele>
        <time>2021-08-22T04:23:37Z</time>
      </trkpt>
      <trkpt lat="42.494058" lon="-5.810195">
        <ele>865.9</ele>
        <time>2021-08-22T04:23:49Z</time>
      </trkpt>
      <trkpt lat="42.493940" lon="-5.810389">
        <ele>864.7</ele>
        <time>2021-08-22T04:24:04Z</time>
      </trkpt>
      <trkpt lat="42.493821" lon="-5.810582">
        <ele>864.7</ele>
        <time>2021-08-22T04:24:22Z</time>
      </trkpt>
      <trkpt lat="42.493740" lon="-5.810807">
        <ele>863.7</ele>
        <time>2021-08-22T04:24:34Z</time>
      </trkpt>
      <trkpt lat="42.493638" lon="-5.811016">
        <ele>862.3</ele>
        <time>2021-08-22T04:24:47Z</time>
      </trkpt>
      <trkpt lat="42.493503" lon="-5.811183">
        <ele>861.0</ele>
        <time>2021-08-22T04:25:01Z</time>
      </trkpt>
      <trkpt lat="42.493384" lon="-5.811385">
        <ele>860.8</ele>
        <time>2021-08-22T04:25:17Z</time>
      </trkpt>
      <trkpt lat="42.493326" lon="-5.811616">
        <ele>861.1</ele>
        <time>2021-08-22T04:25:31Z</time>
      </trkpt>
      <trkpt lat="42.493320" lon="-5.811863">
        <ele>860.9</ele>
        <time>2021-08-22T04:25:45Z</time>
      </trkpt>
      <trkpt lat="42.493233" lon="-5.812084">
        <ele>861.0</ele>
        <time>2021-08-22T04:26:00Z</time>
      </trkpt>
      <trkpt lat="42.493098" lon="-5.812264">
        <ele>861.0</ele>
        <time>2021-08-22T04:26:18Z</time>
      </trkpt>
      <trkpt lat="42.492983" lon="-5.812473">
        <ele>860.9</ele>
        <time>2021-08-22T04:26:32Z</time>
      </trkpt>
      <trkpt lat="42.492876" lon="-5.812686">
        <ele>861.1</ele>
        <time>2021-08-22T04:26:47Z</time>
      </trkpt>
      <trkpt lat="42.492793" lon="-5.812922">
        <ele>855.2</ele>
        <time>2021-08-22T04:26:57Z</time>
      </trkpt>
      <trkpt lat="42.492703" lon="-5.813135">
        <ele>856.5</ele>
        <time>2021-08-22T04:27:13Z</time>
      </trkpt>
      <trkpt lat="42.492657" lon="-5.813375">
        <ele>854.7</ele>
        <time>2021-08-22T04:27:26Z</time>
      </trkpt>
      <trkpt lat="42.492789" lon="-5.813546">
        <ele>850.2</ele>
        <time>2021-08-22T04:27:37Z</time>
      </trkpt>
      <trkpt lat="42.492878" lon="-5.813759">
        <ele>851.0</ele>
        <time>2021-08-22T04:27:51Z</time>
      </trkpt>
      <trkpt lat="42.492796" lon="-5.813980">
        <ele>854.0</ele>
        <time>2021-08-22T04:28:03Z</time>
      </trkpt>
      <trkpt lat="42.492649" lon="-5.814172">
        <ele>852.2</ele>
        <time>2021-08-22T04:28:17Z</time>
      </trkpt>
      <trkpt lat="42.492512" lon="-5.814370">
        <ele>852.7</ele>
        <time>2021-08-22T04:28:36Z</time>
      </trkpt>
      <trkpt lat="42.492417" lon="-5.814596">
        <ele>851.9</ele>
        <time>2021-08-22T04:28:49Z</time>
      </trkpt>
      <trkpt lat="42.492315" lon="-5.814815">
        <ele>853.2</ele>
        <time>2021-08-22T04:29:04Z</time>
      </trkpt>
      <trkpt lat="42.492212" lon="-5.815020">
        <ele>853.5</ele>
        <time>2021-08-22T04:29:17Z</time>
      </trkpt>
      <trkpt lat="42.492116" lon="-5.815229">
        <ele>853.1</ele>
        <time>2021-08-22T04:29:29Z</time>
      </trkpt>
      <trkpt lat="42.492013" lon="-5.815451">
        <ele>853.3</ele>
        <time>2021-08-22T04:29:45Z</time>
      </trkpt>
      <trkpt lat="42.491882" lon="-5.815634">
        <ele>852.9</ele>
        <time>2021-08-22T04:29:57Z</time>
      </trkpt>
      <trkpt lat="42.491720" lon="-5.815779">
        <ele>853.7</ele>
        <time>2021-08-22T04:30:13Z</time>
      </trkpt>
      <trkpt lat="42.491562" lon="-5.815926">
        <ele>854.7</ele>
        <time>2021-08-22T04:30:28Z</time>
      </trkpt>
      <trkpt lat="42.491417" lon="-5.816086">
        <ele>855.1</ele>
        <time>2021-08-22T04:30:40Z</time>
      </trkpt>
      <trkpt lat="42.491308" lon="-5.816291">
        <ele>856.9</ele>
        <time>2021-08-22T04:30:54Z</time>
      </trkpt>
      <trkpt lat="42.491199" lon="-5.816516">
        <ele>856.2</ele>
        <time>2021-08-22T04:31:08Z</time>
      </trkpt>
      <trkpt lat="42.491085" lon="-5.816712">
        <ele>858.5</ele>
        <time>2021-08-22T04:31:21Z</time>
      </trkpt>
      <trkpt lat="42.490974" lon="-5.816925">
        <ele>859.1</ele>
        <time>2021-08-22T04:31:34Z</time>
      </trkpt>
      <trkpt lat="42.490872" lon="-5.817127">
        <ele>857.7</ele>
        <time>2021-08-22T04:31:47Z</time>
      </trkpt>
      <trkpt lat="42.490764" lon="-5.817333">
        <ele>857.4</ele>
        <time>2021-08-22T04:32:00Z</time>
      </trkpt>
      <trkpt lat="42.490651" lon="-5.817530">
        <ele>855.9</ele>
        <time>2021-08-22T04:32:17Z</time>
      </trkpt>
      <trkpt lat="42.490539" lon="-5.817731">
        <ele>856.8</ele>
        <time>2021-08-22T04:32:29Z</time>
      </trkpt>
      <trkpt lat="42.490440" lon="-5.817952">
        <ele>858.3</ele>
        <time>2021-08-22T04:32:42Z</time>
      </trkpt>
      <trkpt lat="42.490344" lon="-5.818160">
        <ele>858.2</ele>
        <time>2021-08-22T04:32:56Z</time>
      </trkpt>
      <trkpt lat="42.490227" lon="-5.818357">
        <ele>857.7</ele>
        <time>2021-08-22T04:33:10Z</time>
      </trkpt>
      <trkpt lat="42.490120" lon="-5.818562">
        <ele>857.6</ele>
        <time>2021-08-22T04:33:25Z</time>
      </trkpt>
      <trkpt lat="42.490004" lon="-5.818765">
        <ele>857.5</ele>
        <time>2021-08-22T04:33:43Z</time>
      </trkpt>
      <trkpt lat="42.489886" lon="-5.818974">
        <ele>857.4</ele>
        <time>2021-08-22T04:33:54Z</time>
      </trkpt>
      <trkpt lat="42.489782" lon="-5.819174">
        <ele>857.5</ele>
        <time>2021-08-22T04:34:10Z</time>
      </trkpt>
      <trkpt lat="42.489684" lon="-5.819397">
        <ele>857.2</ele>
        <time>2021-08-22T04:34:19Z</time>
      </trkpt>
      <trkpt lat="42.489570" lon="-5.819589">
        <ele>857.9</ele>
        <time>2021-08-22T04:34:34Z</time>
      </trkpt>
      <trkpt lat="42.489461" lon="-5.819794">
        <ele>858.0</ele>
        <time>2021-08-22T04:34:48Z</time>
      </trkpt>
      <trkpt lat="42.489340" lon="-5.819982">
        <ele>855.8</ele>
        <time>2021-08-22T04:35:00Z</time>
      </trkpt>
      <trkpt lat="42.489215" lon="-5.820168">
        <ele>850.7</ele>
        <time>2021-08-22T04:35:12Z</time>
      </trkpt>
      <trkpt lat="42.489093" lon="-5.820352">
        <ele>847.8</ele>
        <time>2021-08-22T04:35:24Z</time>
      </trkpt>
      <trkpt lat="42.488997" lon="-5.820570">
        <ele>847.7</ele>
        <time>2021-08-22T04:35:38Z</time>
      </trkpt>
      <trkpt lat="42.488885" lon="-5.820761">
        <ele>844.2</ele>
        <time>2021-08-22T04:35:51Z</time>
      </trkpt>
      <trkpt lat="42.488777" lon="-5.820958">
        <ele>846.0</ele>
        <time>2021-08-22T04:36:04Z</time>
      </trkpt>
      <trkpt lat="42.488676" lon="-5.821173">
        <ele>844.4</ele>
        <time>2021-08-22T04:36:17Z</time>
      </trkpt>
      <trkpt lat="42.488567" lon="-5.821378">
        <ele>843.0</ele>
        <time>2021-08-22T04:36:31Z</time>
      </trkpt>
      <trkpt lat="42.488452" lon="-5.821572">
        <ele>843.8</ele>
        <time>2021-08-22T04:36:44Z</time>
      </trkpt>
      <trkpt lat="42.488350" lon="-5.821789">
        <ele>842.0</ele>
        <time>2021-08-22T04:36:59Z</time>
      </trkpt>
      <trkpt lat="42.488228" lon="-5.821987">
        <ele>842.8</ele>
        <time>2021-08-22T04:37:13Z</time>
      </trkpt>
      <trkpt lat="42.488132" lon="-5.822211">
        <ele>842.5</ele>
        <time>2021-08-22T04:37:27Z</time>
      </trkpt>
      <trkpt lat="42.488010" lon="-5.822400">
        <ele>844.5</ele>
        <time>2021-08-22T04:37:42Z</time>
      </trkpt>
      <trkpt lat="42.487896" lon="-5.822595">
        <ele>847.6</ele>
        <time>2021-08-22T04:37:55Z</time>
      </trkpt>
      <trkpt lat="42.487786" lon="-5.822819">
        <ele>849.0</ele>
        <time>2021-08-22T04:38:10Z</time>
      </trkpt>
      <trkpt lat="42.487663" lon="-5.823029">
        <ele>848.3</ele>
        <time>2021-08-22T04:38:26Z</time>
      </trkpt>
      <trkpt lat="42.487567" lon="-5.823241">
        <ele>844.6</ele>
        <time>2021-08-22T04:38:39Z</time>
      </trkpt>
      <trkpt lat="42.487455" lon="-5.823467">
        <ele>841.9</ele>
        <time>2021-08-22T04:38:53Z</time>
      </trkpt>
      <trkpt lat="42.487356" lon="-5.823676">
        <ele>841.6</ele>
        <time>2021-08-22T04:39:14Z</time>
      </trkpt>
      <trkpt lat="42.487234" lon="-5.823866">
        <ele>840.4</ele>
        <time>2021-08-22T04:39:34Z</time>
      </trkpt>
      <trkpt lat="42.487113" lon="-5.824054">
        <ele>841.3</ele>
        <time>2021-08-22T04:39:54Z</time>
      </trkpt>
      <trkpt lat="42.487028" lon="-5.824281">
        <ele>844.2</ele>
        <time>2021-08-22T04:40:05Z</time>
      </trkpt>
      <trkpt lat="42.486914" lon="-5.824480">
        <ele>844.7</ele>
        <time>2021-08-22T04:40:17Z</time>
      </trkpt>
      <trkpt lat="42.486801" lon="-5.824672">
        <ele>843.0</ele>
        <time>2021-08-22T04:40:31Z</time>
      </trkpt>
      <trkpt lat="42.486663" lon="-5.824838">
        <ele>838.4</ele>
        <time>2021-08-22T04:40:49Z</time>
      </trkpt>
      <trkpt lat="42.486582" lon="-5.825070">
        <ele>839.1</ele>
        <time>2021-08-22T04:41:02Z</time>
      </trkpt>
      <trkpt lat="42.486485" lon="-5.825285">
        <ele>841.3</ele>
        <time>2021-08-22T04:41:14Z</time>
      </trkpt>
      <trkpt lat="42.486388" lon="-5.825491">
        <ele>841.2</ele>
        <time>2021-08-22T04:41:29Z</time>
      </trkpt>
      <trkpt lat="42.486419" lon="-5.825753">
        <ele>838.8</ele>
        <time>2021-08-22T04:41:41Z</time>
      </trkpt>
      <trkpt lat="42.486330" lon="-5.825970">
        <ele>837.5</ele>
        <time>2021-08-22T04:41:56Z</time>
      </trkpt>
      <trkpt lat="42.486190" lon="-5.826144">
        <ele>837.0</ele>
        <time>2021-08-22T04:42:13Z</time>
      </trkpt>
      <trkpt lat="42.486084" lon="-5.826343">
        <ele>836.8</ele>
        <time>2021-08-22T04:42:25Z</time>
      </trkpt>
      <trkpt lat="42.486005" lon="-5.826574">
        <ele>837.8</ele>
        <time>2021-08-22T04:42:36Z</time>
      </trkpt>
      <trkpt lat="42.485922" lon="-5.826801">
        <ele>835.9</ele>
        <time>2021-08-22T04:42:49Z</time>
      </trkpt>
      <trkpt lat="42.485808" lon="-5.826999">
        <ele>840.4</ele>
        <time>2021-08-22T04:43:03Z</time>
      </trkpt>
      <trkpt lat="42.485740" lon="-5.827229">
        <ele>837.5</ele>
        <time>2021-08-22T04:43:16Z</time>
      </trkpt>
      <trkpt lat="42.485677" lon="-5.827464">
        <ele>835.4</ele>
        <time>2021-08-22T04:43:29Z</time>
      </trkpt>
      <trkpt lat="42.485602" lon="-5.827693">
        <ele>836.0</ele>
        <time>2021-08-22T04:43:42Z</time>
      </trkpt>
      <trkpt lat="42.485561" lon="-5.827939">
        <ele>836.3</ele>
        <time>2021-08-22T04:43:59Z</time>
      </trkpt>
      <trkpt lat="42.485494" lon="-5.828191">
        <ele>836.8</ele>
        <time>2021-08-22T04:44:11Z</time>
      </trkpt>
      <trkpt lat="42.485424" lon="-5.828424">
        <ele>836.6</ele>
        <time>2021-08-22T04:44:27Z</time>
      </trkpt>
      <trkpt lat="42.485389" lon="-5.828674">
        <ele>837.2</ele>
        <time>2021-08-22T04:44:39Z</time>
      </trkpt>
      <trkpt lat="42.485335" lon="-5.828918">
        <ele>838.3</ele>
        <time>2021-08-22T04:44:55Z</time>
      </trkpt>
      <trkpt lat="42.485266" lon="-5.829145">
        <ele>836.9</ele>
        <time>2021-08-22T04:45:05Z</time>
      </trkpt>
      <trkpt lat="42.485103" lon="-5.829248">
        <ele>841.5</ele>
        <time>2021-08-22T04:45:26Z</time>
      </trkpt>
      <trkpt lat="42.484930" lon="-5.829173">
        <ele>844.4</ele>
        <time>2021-08-22T04:45:39Z</time>
      </trkpt>
      <trkpt lat="42.484761" lon="-5.829066">
        <ele>847.3</ele>
        <time>2021-08-22T04:45:52Z</time>
      </trkpt>
      <trkpt lat="42.484568" lon="-5.829021">
        <ele>848.0</ele>
        <time>2021-08-22T04:46:08Z</time>
      </trkpt>
      <trkpt lat="42.484392" lon="-5.829119">
        <ele>851.8</ele>
        <time>2021-08-22T04:46:27Z</time>
      </trkpt>
      <trkpt lat="42.484318" lon="-5.829354">
        <ele>851.2</ele>
        <time>2021-08-22T04:46:42Z</time>
      </trkpt>
      <trkpt lat="42.484208" lon="-5.829556">
        <ele>851.1</ele>
        <time>2021-08-22T04:46:56Z</time>
      </trkpt>
      <trkpt lat="42.484111" lon="-5.829781">
        <ele>850.2</ele>
        <time>2021-08-22T04:47:10Z</time>
      </trkpt>
      <trkpt lat="42.484004" lon="-5.829980">
        <ele>849.5</ele>
        <time>2021-08-22T04:47:26Z</time>
      </trkpt>
      <trkpt lat="42.483882" lon="-5.830173">
        <ele>847.7</ele>
        <time>2021-08-22T04:47:37Z</time>
      </trkpt>
      <trkpt lat="42.483768" lon="-5.830362">
        <ele>845.1</ele>
        <time>2021-08-22T04:47:49Z</time>
      </trkpt>
      <trkpt lat="42.483675" lon="-5.830582">
        <ele>844.9</ele>
        <time>2021-08-22T04:48:02Z</time>
      </trkpt>
      <trkpt lat="42.483572" lon="-5.830804">
        <ele>846.3</ele>
        <time>2021-08-22T04:48:15Z</time>
      </trkpt>
      <trkpt lat="42.483464" lon="-5.831017">
        <ele>845.5</ele>
        <time>2021-08-22T04:48:32Z</time>
      </trkpt>
      <trkpt lat="42.483351" lon="-5.831219">
        <ele>845.3</ele>
        <time>2021-08-22T04:48:43Z</time>
      </trkpt>
      <trkpt lat="42.483230" lon="-5.831409">
        <ele>845.4</ele>
        <time>2021-08-22T04:48:59Z</time>
      </trkpt>
      <trkpt lat="42.483133" lon="-5.831621">
        <ele>845.7</ele>
        <time>2021-08-22T04:49:10Z</time>
      </trkpt>
      <trkpt lat="42.483015" lon="-5.831817">
        <ele>843.8</ele>
        <time>2021-08-22T04:49:27Z</time>
      </trkpt>
      <trkpt lat="42.482909" lon="-5.832024">
        <ele>843.3</ele>
        <time>2021-08-22T04:49:38Z</time>
      </trkpt>
      <trkpt lat="42.482806" lon="-5.832225">
        <ele>841.4</ele>
        <time>2021-08-22T04:49:51Z</time>
      </trkpt>
      <trkpt lat="42.482683" lon="-5.832412">
        <ele>839.1</ele>
        <time>2021-08-22T04:50:03Z</time>
      </trkpt>
      <trkpt lat="42.482568" lon="-5.832610">
        <ele>839.2</ele>
        <time>2021-08-22T04:50:15Z</time>
      </trkpt>
      <trkpt lat="42.482457" lon="-5.832828">
        <ele>837.7</ele>
        <time>2021-08-22T04:50:30Z</time>
      </trkpt>
      <trkpt lat="42.482352" lon="-5.833027">
        <ele>836.7</ele>
        <time>2021-08-22T04:50:42Z</time>
      </trkpt>
      <trkpt lat="42.482242" lon="-5.833225">
        <ele>836.8</ele>
        <time>2021-08-22T04:50:56Z</time>
      </trkpt>
      <trkpt lat="42.482123" lon="-5.833414">
        <ele>837.7</ele>
        <time>2021-08-22T04:51:08Z</time>
      </trkpt>
      <trkpt lat="42.482017" lon="-5.833614">
        <ele>837.1</ele>
        <time>2021-08-22T04:51:21Z</time>
      </trkpt>
      <trkpt lat="42.481909" lon="-5.833826">
        <ele>835.3</ele>
        <time>2021-08-22T04:51:34Z</time>
      </trkpt>
      <trkpt lat="42.481812" lon="-5.834034">
        <ele>836.2</ele>
        <time>2021-08-22T04:51:51Z</time>
      </trkpt>
      <trkpt lat="42.481687" lon="-5.834225">
        <ele>836.1</ele>
        <time>2021-08-22T04:52:05Z</time>
      </trkpt>
      <trkpt lat="42.481557" lon="-5.834403">
        <ele>839.3</ele>
        <time>2021-08-22T04:52:18Z</time>
      </trkpt>
      <trkpt lat="42.481468" lon="-5.834637">
        <ele>839.5</ele>
        <time>2021-08-22T04:52:32Z</time>
      </trkpt>
      <trkpt lat="42.481357" lon="-5.834832">
        <ele>839.3</ele>
        <time>2021-08-22T04:52:43Z</time>
      </trkpt>
      <trkpt lat="42.481252" lon="-5.835030">
        <ele>838.2</ele>
        <time>2021-08-22T04:53:00Z</time>
      </trkpt>
      <trkpt lat="42.481167" lon="-5.835250">
        <ele>837.8</ele>
        <time>2021-08-22T04:53:11Z</time>
      </trkpt>
      <trkpt lat="42.481066" lon="-5.835452">
        <ele>837.2</ele>
        <time>2021-08-22T04:53:24Z</time>
      </trkpt>
      <trkpt lat="42.480963" lon="-5.835654">
        <ele>836.7</ele>
        <time>2021-08-22T04:53:37Z</time>
      </trkpt>
      <trkpt lat="42.480858" lon="-5.835869">
        <ele>836.5</ele>
        <time>2021-08-22T04:53:51Z</time>
      </trkpt>
      <trkpt lat="42.480765" lon="-5.836088">
        <ele>838.7</ele>
        <time>2021-08-22T04:54:06Z</time>
      </trkpt>
      <trkpt lat="42.480653" lon="-5.836293">
        <ele>838.6</ele>
        <time>2021-08-22T04:54:20Z</time>
      </trkpt>
      <trkpt lat="42.480521" lon="-5.836460">
        <ele>839.4</ele>
        <time>2021-08-22T04:54:48Z</time>
      </trkpt>
      <trkpt lat="42.480430" lon="-5.836684">
        <ele>838.9</ele>
        <time>2021-08-22T04:55:02Z</time>
      </trkpt>
      <trkpt lat="42.480291" lon="-5.836850">
        <ele>838.4</ele>
        <time>2021-08-22T04:55:16Z</time>
      </trkpt>
      <trkpt lat="42.480189" lon="-5.837069">
        <ele>835.2</ele>
        <time>2021-08-22T04:55:30Z</time>
      </trkpt>
      <trkpt lat="42.480069" lon="-5.837255">
        <ele>837.3</ele>
        <time>2021-08-22T04:55:45Z</time>
      </trkpt>
      <trkpt lat="42.479966" lon="-5.837463">
        <ele>837.8</ele>
        <time>2021-08-22T04:55:57Z</time>
      </trkpt>
      <trkpt lat="42.479883" lon="-5.837681">
        <ele>837.5</ele>
        <time>2021-08-22T04:56:09Z</time>
      </trkpt>
      <trkpt lat="42.479773" lon="-5.837882">
        <ele>838.3</ele>
        <time>2021-08-22T04:56:22Z</time>
      </trkpt>
      <trkpt lat="42.479641" lon="-5.838072">
        <ele>837.7</ele>
        <time>2021-08-22T04:56:36Z</time>
      </trkpt>
      <trkpt lat="42.479536" lon="-5.838282">
        <ele>837.3</ele>
        <time>2021-08-22T04:56:49Z</time>
      </trkpt>
      <trkpt lat="42.479431" lon="-5.838492">
        <ele>838.2</ele>
        <time>2021-08-22T04:57:03Z</time>
      </trkpt>
      <trkpt lat="42.479315" lon="-5.838688">
        <ele>838.2</ele>
        <time>2021-08-22T04:57:16Z</time>
      </trkpt>
      <trkpt lat="42.479208" lon="-5.838891">
        <ele>839.7</ele>
        <time>2021-08-22T04:57:32Z</time>
      </trkpt>
      <trkpt lat="42.479083" lon="-5.839065">
        <ele>842.2</ele>
        <time>2021-08-22T04:57:45Z</time>
      </trkpt>
      <trkpt lat="42.478988" lon="-5.839275">
        <ele>841.0</ele>
        <time>2021-08-22T04:57:55Z</time>
      </trkpt>
      <trkpt lat="42.478887" lon="-5.839477">
        <ele>840.8</ele>
        <time>2021-08-22T04:58:07Z</time>
      </trkpt>
      <trkpt lat="42.478760" lon="-5.839678">
        <ele>839.5</ele>
        <time>2021-08-22T04:58:22Z</time>
      </trkpt>
      <trkpt lat="42.478650" lon="-5.839880">
        <ele>838.4</ele>
        <time>2021-08-22T04:58:34Z</time>
      </trkpt>
      <trkpt lat="42.478550" lon="-5.840108">
        <ele>837.4</ele>
        <time>2021-08-22T04:58:48Z</time>
      </trkpt>
      <trkpt lat="42.478453" lon="-5.840317">
        <ele>838.4</ele>
        <time>2021-08-22T04:59:00Z</time>
      </trkpt>
      <trkpt lat="42.478345" lon="-5.840515">
        <ele>839.1</ele>
        <time>2021-08-22T04:59:16Z</time>
      </trkpt>
      <trkpt lat="42.478236" lon="-5.840732">
        <ele>837.6</ele>
        <time>2021-08-22T04:59:27Z</time>
      </trkpt>
      <trkpt lat="42.478119" lon="-5.840926">
        <ele>838.7</ele>
        <time>2021-08-22T04:59:40Z</time>
      </trkpt>
      <trkpt lat="42.478012" lon="-5.841145">
        <ele>837.6</ele>
        <time>2021-08-22T04:59:53Z</time>
      </trkpt>
      <trkpt lat="42.477893" lon="-5.841341">
        <ele>839.9</ele>
        <time>2021-08-22T05:00:08Z</time>
      </trkpt>
      <trkpt lat="42.477793" lon="-5.841555">
        <ele>839.5</ele>
        <time>2021-08-22T05:00:22Z</time>
      </trkpt>
      <trkpt lat="42.477686" lon="-5.841762">
        <ele>840.2</ele>
        <time>2021-08-22T05:00:35Z</time>
      </trkpt>
      <trkpt lat="42.477564" lon="-5.841965">
        <ele>840.7</ele>
        <time>2021-08-22T05:00:48Z</time>
      </trkpt>
      <trkpt lat="42.477460" lon="-5.842168">
        <ele>840.2</ele>
        <time>2021-08-22T05:01:03Z</time>
      </trkpt>
      <trkpt lat="42.477352" lon="-5.842369">
        <ele>840.8</ele>
        <time>2021-08-22T05:01:17Z</time>
      </trkpt>
      <trkpt lat="42.477231" lon="-5.842571">
        <ele>839.0</ele>
        <time>2021-08-22T05:01:28Z</time>
      </trkpt>
      <trkpt lat="42.477125" lon="-5.842789">
        <ele>838.0</ele>
        <time>2021-08-22T05:01:43Z</time>
      </trkpt>
      <trkpt lat="42.477007" lon="-5.842982">
        <ele>837.2</ele>
        <time>2021-08-22T05:01:55Z</time>
      </trkpt>
      <trkpt lat="42.476903" lon="-5.843192">
        <ele>838.4</ele>
        <time>2021-08-22T05:02:05Z</time>
      </trkpt>
      <trkpt lat="42.476810" lon="-5.843407">
        <ele>837.9</ele>
        <time>2021-08-22T05:02:21Z</time>
      </trkpt>
      <trkpt lat="42.476711" lon="-5.843620">
        <ele>836.4</ele>
        <time>2021-08-22T05:02:31Z</time>
      </trkpt>
      <trkpt lat="42.476604" lon="-5.843827">
        <ele>836.4</ele>
        <time>2021-08-22T05:02:46Z</time>
      </trkpt>
      <trkpt lat="42.476491" lon="-5.844024">
        <ele>836.1</ele>
        <time>2021-08-22T05:02:58Z</time>
      </trkpt>
      <trkpt lat="42.476391" lon="-5.844233">
        <ele>836.2</ele>
        <time>2021-08-22T05:03:12Z</time>
      </trkpt>
      <trkpt lat="42.476264" lon="-5.844410">
        <ele>834.8</ele>
        <time>2021-08-22T05:03:24Z</time>
      </trkpt>
      <trkpt lat="42.476153" lon="-5.844606">
        <ele>836.6</ele>
        <time>2021-08-22T05:03:37Z</time>
      </trkpt>
      <trkpt lat="42.476042" lon="-5.844821">
        <ele>832.8</ele>
        <time>2021-08-22T05:03:56Z</time>
      </trkpt>
      <trkpt lat="42.475916" lon="-5.845005">
        <ele>833.3</ele>
        <time>2021-08-22T05:04:06Z</time>
      </trkpt>
      <trkpt lat="42.475809" lon="-5.845204">
        <ele>832.3</ele>
        <time>2021-08-22T05:04:17Z</time>
      </trkpt>
      <trkpt lat="42.475709" lon="-5.845413">
        <ele>833.3</ele>
        <time>2021-08-22T05:04:30Z</time>
      </trkpt>
      <trkpt lat="42.475640" lon="-5.845643">
        <ele>831.4</ele>
        <time>2021-08-22T05:04:44Z</time>
      </trkpt>
      <trkpt lat="42.475500" lon="-5.845841">
        <ele>830.8</ele>
        <time>2021-08-22T05:04:59Z</time>
      </trkpt>
      <trkpt lat="42.475378" lon="-5.846035">
        <ele>831.0</ele>
        <time>2021-08-22T05:05:12Z</time>
      </trkpt>
      <trkpt lat="42.475259" lon="-5.846219">
        <ele>829.8</ele>
        <time>2021-08-22T05:05:25Z</time>
      </trkpt>
      <trkpt lat="42.475166" lon="-5.846434">
        <ele>830.6</ele>
        <time>2021-08-22T05:05:38Z</time>
      </trkpt>
      <trkpt lat="42.475041" lon="-5.846640">
        <ele>830.3</ele>
        <time>2021-08-22T05:05:51Z</time>
      </trkpt>
      <trkpt lat="42.474942" lon="-5.846863">
        <ele>828.6</ele>
        <time>2021-08-22T05:06:09Z</time>
      </trkpt>
      <trkpt lat="42.474835" lon="-5.847066">
        <ele>829.1</ele>
        <time>2021-08-22T05:06:19Z</time>
      </trkpt>
      <trkpt lat="42.474732" lon="-5.847276">
        <ele>828.4</ele>
        <time>2021-08-22T05:06:35Z</time>
      </trkpt>
      <trkpt lat="42.474639" lon="-5.847503">
        <ele>828.5</ele>
        <time>2021-08-22T05:06:47Z</time>
      </trkpt>
      <trkpt lat="42.474508" lon="-5.847683">
        <ele>831.2</ele>
        <time>2021-08-22T05:07:02Z</time>
      </trkpt>
      <trkpt lat="42.474393" lon="-5.847896">
        <ele>831.2</ele>
        <time>2021-08-22T05:07:12Z</time>
      </trkpt>
      <trkpt lat="42.474281" lon="-5.848103">
        <ele>833.9</ele>
        <time>2021-08-22T05:07:25Z</time>
      </trkpt>
      <trkpt lat="42.474165" lon="-5.848304">
        <ele>834.6</ele>
        <time>2021-08-22T05:07:39Z</time>
      </trkpt>
      <trkpt lat="42.474053" lon="-5.848497">
        <ele>833.9</ele>
        <time>2021-08-22T05:07:55Z</time>
      </trkpt>
      <trkpt lat="42.473951" lon="-5.848701">
        <ele>835.2</ele>
        <time>2021-08-22T05:08:05Z</time>
      </trkpt>
      <trkpt lat="42.473845" lon="-5.848912">
        <ele>834.2</ele>
        <time>2021-08-22T05:08:18Z</time>
      </trkpt>
      <trkpt lat="42.473761" lon="-5.849149">
        <ele>832.5</ele>
        <time>2021-08-22T05:08:32Z</time>
      </trkpt>
      <trkpt lat="42.473634" lon="-5.849322">
        <ele>832.1</ele>
        <time>2021-08-22T05:08:44Z</time>
      </trkpt>
      <trkpt lat="42.473505" lon="-5.849515">
        <ele>834.1</ele>
        <time>2021-08-22T05:08:58Z</time>
      </trkpt>
      <trkpt lat="42.473383" lon="-5.849720">
        <ele>834.7</ele>
        <time>2021-08-22T05:09:11Z</time>
      </trkpt>
      <trkpt lat="42.473268" lon="-5.849918">
        <ele>832.9</ele>
        <time>2021-08-22T05:09:26Z</time>
      </trkpt>
      <trkpt lat="42.473153" lon="-5.850114">
        <ele>832.1</ele>
        <time>2021-08-22T05:09:37Z</time>
      </trkpt>
      <trkpt lat="42.473053" lon="-5.850338">
        <ele>831.7</ele>
        <time>2021-08-22T05:09:50Z</time>
      </trkpt>
      <trkpt lat="42.472944" lon="-5.850532">
        <ele>831.3</ele>
        <time>2021-08-22T05:10:02Z</time>
      </trkpt>
      <trkpt lat="42.472849" lon="-5.850748">
        <ele>828.8</ele>
        <time>2021-08-22T05:10:14Z</time>
      </trkpt>
      <trkpt lat="42.472740" lon="-5.850962">
        <ele>830.3</ele>
        <time>2021-08-22T05:10:30Z</time>
      </trkpt>
      <trkpt lat="42.472640" lon="-5.851166">
        <ele>830.6</ele>
        <time>2021-08-22T05:10:40Z</time>
      </trkpt>
      <trkpt lat="42.472534" lon="-5.851371">
        <ele>830.8</ele>
        <time>2021-08-22T05:10:54Z</time>
      </trkpt>
      <trkpt lat="42.472428" lon="-5.851575">
        <ele>830.0</ele>
        <time>2021-08-22T05:11:06Z</time>
      </trkpt>
      <trkpt lat="42.472302" lon="-5.851755">
        <ele>829.6</ele>
        <time>2021-08-22T05:11:21Z</time>
      </trkpt>
      <trkpt lat="42.472187" lon="-5.851951">
        <ele>829.4</ele>
        <time>2021-08-22T05:11:32Z</time>
      </trkpt>
      <trkpt lat="42.472076" lon="-5.852155">
        <ele>829.4</ele>
        <time>2021-08-22T05:11:45Z</time>
      </trkpt>
      <trkpt lat="42.471975" lon="-5.852356">
        <ele>831.3</ele>
        <time>2021-08-22T05:11:58Z</time>
      </trkpt>
      <trkpt lat="42.471850" lon="-5.852556">
        <ele>830.3</ele>
        <time>2021-08-22T05:12:12Z</time>
      </trkpt>
      <trkpt lat="42.471738" lon="-5.852752">
        <ele>832.5</ele>
        <time>2021-08-22T05:12:24Z</time>
      </trkpt>
      <trkpt lat="42.471632" lon="-5.852949">
        <ele>832.5</ele>
        <time>2021-08-22T05:12:36Z</time>
      </trkpt>
      <trkpt lat="42.471538" lon="-5.853168">
        <ele>829.3</ele>
        <time>2021-08-22T05:12:50Z</time>
      </trkpt>
      <trkpt lat="42.471428" lon="-5.853381">
        <ele>829.5</ele>
        <time>2021-08-22T05:13:04Z</time>
      </trkpt>
      <trkpt lat="42.471318" lon="-5.853583">
        <ele>829.5</ele>
        <time>2021-08-22T05:13:17Z</time>
      </trkpt>
      <trkpt lat="42.471194" lon="-5.853791">
        <ele>829.9</ele>
        <time>2021-08-22T05:13:31Z</time>
      </trkpt>
      <trkpt lat="42.471096" lon="-5.854007">
        <ele>831.2</ele>
        <time>2021-08-22T05:13:46Z</time>
      </trkpt>
      <trkpt lat="42.471004" lon="-5.854228">
        <ele>829.6</ele>
        <time>2021-08-22T05:13:59Z</time>
      </trkpt>
      <trkpt lat="42.470901" lon="-5.854433">
        <ele>827.8</ele>
        <time>2021-08-22T05:14:11Z</time>
      </trkpt>
      <trkpt lat="42.470763" lon="-5.854604">
        <ele>820.9</ele>
        <time>2021-08-22T05:14:25Z</time>
      </trkpt>
      <trkpt lat="42.470660" lon="-5.854805">
        <ele>826.5</ele>
        <time>2021-08-22T05:14:38Z</time>
      </trkpt>
      <trkpt lat="42.470564" lon="-5.855013">
        <ele>826.6</ele>
        <time>2021-08-22T05:14:52Z</time>
      </trkpt>
      <trkpt lat="42.470471" lon="-5.855225">
        <ele>828.8</ele>
        <time>2021-08-22T05:15:04Z</time>
      </trkpt>
      <trkpt lat="42.470352" lon="-5.855419">
        <ele>832.9</ele>
        <time>2021-08-22T05:15:17Z</time>
      </trkpt>
      <trkpt lat="42.470235" lon="-5.855609">
        <ele>832.1</ele>
        <time>2021-08-22T05:15:31Z</time>
      </trkpt>
      <trkpt lat="42.470124" lon="-5.855814">
        <ele>832.0</ele>
        <time>2021-08-22T05:15:45Z</time>
      </trkpt>
      <trkpt lat="42.470016" lon="-5.856020">
        <ele>834.1</ele>
        <time>2021-08-22T05:15:58Z</time>
      </trkpt>
      <trkpt lat="42.469899" lon="-5.856215">
        <ele>833.5</ele>
        <time>2021-08-22T05:16:11Z</time>
      </trkpt>
      <trkpt lat="42.469819" lon="-5.856436">
        <ele>830.9</ele>
        <time>2021-08-22T05:16:27Z</time>
      </trkpt>
      <trkpt lat="42.469727" lon="-5.856650">
        <ele>830.5</ele>
        <time>2021-08-22T05:16:37Z</time>
      </trkpt>
      <trkpt lat="42.469603" lon="-5.856834">
        <ele>830.2</ele>
        <time>2021-08-22T05:16:52Z</time>
      </trkpt>
      <trkpt lat="42.469500" lon="-5.857036">
        <ele>831.0</ele>
        <time>2021-08-22T05:17:01Z</time>
      </trkpt>
      <trkpt lat="42.469375" lon="-5.857225">
        <ele>831.6</ele>
        <time>2021-08-22T05:17:17Z</time>
      </trkpt>
      <trkpt lat="42.469277" lon="-5.857436">
        <ele>831.3</ele>
        <time>2021-08-22T05:17:30Z</time>
      </trkpt>
      <trkpt lat="42.469200" lon="-5.857671">
        <ele>831.6</ele>
        <time>2021-08-22T05:17:43Z</time>
      </trkpt>
      <trkpt lat="42.469066" lon="-5.857838">
        <ele>829.4</ele>
        <time>2021-08-22T05:17:55Z</time>
      </trkpt>
      <trkpt lat="42.468952" lon="-5.858040">
        <ele>829.4</ele>
        <time>2021-08-22T05:18:08Z</time>
      </trkpt>
      <trkpt lat="42.468851" lon="-5.858251">
        <ele>828.0</ele>
        <time>2021-08-22T05:18:21Z</time>
      </trkpt>
      <trkpt lat="42.468732" lon="-5.858444">
        <ele>828.7</ele>
        <time>2021-08-22T05:18:36Z</time>
      </trkpt>
      <trkpt lat="42.468617" lon="-5.858650">
        <ele>832.3</ele>
        <time>2021-08-22T05:18:45Z</time>
      </trkpt>
      <trkpt lat="42.468489" lon="-5.858842">
        <ele>832.4</ele>
        <time>2021-08-22T05:18:58Z</time>
      </trkpt>
      <trkpt lat="42.468373" lon="-5.859053">
        <ele>831.9</ele>
        <time>2021-08-22T05:19:12Z</time>
      </trkpt>
      <trkpt lat="42.468259" lon="-5.859253">
        <ele>831.0</ele>
        <time>2021-08-22T05:19:25Z</time>
      </trkpt>
      <trkpt lat="42.468152" lon="-5.859469">
        <ele>829.5</ele>
        <time>2021-08-22T05:19:40Z</time>
      </trkpt>
      <trkpt lat="42.468048" lon="-5.859675">
        <ele>828.4</ele>
        <time>2021-08-22T05:19:52Z</time>
      </trkpt>
      <trkpt lat="42.467942" lon="-5.859896">
        <ele>827.1</ele>
        <time>2021-08-22T05:20:07Z</time>
      </trkpt>
      <trkpt lat="42.467834" lon="-5.860098">
        <ele>826.3</ele>
        <time>2021-08-22T05:20:22Z</time>
      </trkpt>
      <trkpt lat="42.467732" lon="-5.860304">
        <ele>826.6</ele>
        <time>2021-08-22T05:20:32Z</time>
      </trkpt>
      <trkpt lat="42.467617" lon="-5.860497">
        <ele>826.1</ele>
        <time>2021-08-22T05:20:46Z</time>
      </trkpt>
      <trkpt lat="42.467504" lon="-5.860689">
        <ele>826.4</ele>
        <time>2021-08-22T05:20:58Z</time>
      </trkpt>
      <trkpt lat="42.467396" lon="-5.860909">
        <ele>827.2</ele>
        <time>2021-08-22T05:21:11Z</time>
      </trkpt>
      <trkpt lat="42.467291" lon="-5.861107">
        <ele>827.6</ele>
        <time>2021-08-22T05:21:26Z</time>
      </trkpt>
      <trkpt lat="42.467192" lon="-5.861315">
        <ele>828.5</ele>
        <time>2021-08-22T05:21:38Z</time>
      </trkpt>
      <trkpt lat="42.467077" lon="-5.861510">
        <ele>827.1</ele>
        <time>2021-08-22T05:21:51Z</time>
      </trkpt>
      <trkpt lat="42.466962" lon="-5.861701">
        <ele>827.8</ele>
        <time>2021-08-22T05:22:03Z</time>
      </trkpt>
      <trkpt lat="42.466849" lon="-5.861899">
        <ele>826.8</ele>
        <time>2021-08-22T05:22:20Z</time>
      </trkpt>
      <trkpt lat="42.466738" lon="-5.862111">
        <ele>827.7</ele>
        <time>2021-08-22T05:22:30Z</time>
      </trkpt>
      <trkpt lat="42.466627" lon="-5.862325">
        <ele>827.3</ele>
        <time>2021-08-22T05:22:48Z</time>
      </trkpt>
      <trkpt lat="42.466506" lon="-5.862511">
        <ele>827.2</ele>
        <time>2021-08-22T05:23:01Z</time>
      </trkpt>
      <trkpt lat="42.466381" lon="-5.862696">
        <ele>827.6</ele>
        <time>2021-08-22T05:23:10Z</time>
      </trkpt>
      <trkpt lat="42.466261" lon="-5.862911">
        <ele>828.3</ele>
        <time>2021-08-22T05:23:24Z</time>
      </trkpt>
      <trkpt lat="42.466148" lon="-5.863112">
        <ele>828.9</ele>
        <time>2021-08-22T05:23:38Z</time>
      </trkpt>
      <trkpt lat="42.466027" lon="-5.863305">
        <ele>828.4</ele>
        <time>2021-08-22T05:23:51Z</time>
      </trkpt>
      <trkpt lat="42.465929" lon="-5.863517">
        <ele>827.9</ele>
        <time>2021-08-22T05:24:04Z</time>
      </trkpt>
      <trkpt lat="42.465818" lon="-5.863725">
        <ele>825.6</ele>
        <time>2021-08-22T05:24:18Z</time>
      </trkpt>
      <trkpt lat="42.465725" lon="-5.863942">
        <ele>826.7</ele>
        <time>2021-08-22T05:24:32Z</time>
      </trkpt>
      <trkpt lat="42.465590" lon="-5.864121">
        <ele>827.3</ele>
        <time>2021-08-22T05:24:44Z</time>
      </trkpt>
      <trkpt lat="42.465463" lon="-5.864315">
        <ele>825.8</ele>
        <time>2021-08-22T05:24:57Z</time>
      </trkpt>
      <trkpt lat="42.465347" lon="-5.864510">
        <ele>826.2</ele>
        <time>2021-08-22T05:25:12Z</time>
      </trkpt>
      <trkpt lat="42.465238" lon="-5.864712">
        <ele>827.1</ele>
        <time>2021-08-22T05:25:26Z</time>
      </trkpt>
      <trkpt lat="42.465136" lon="-5.864919">
        <ele>828.5</ele>
        <time>2021-08-22T05:25:39Z</time>
      </trkpt>
      <trkpt lat="42.465038" lon="-5.865129">
        <ele>830.2</ele>
        <time>2021-08-22T05:25:51Z</time>
      </trkpt>
      <trkpt lat="42.464933" lon="-5.865344">
        <ele>828.6</ele>
        <time>2021-08-22T05:26:06Z</time>
      </trkpt>
      <trkpt lat="42.464835" lon="-5.865555">
        <ele>827.6</ele>
        <time>2021-08-22T05:26:15Z</time>
      </trkpt>
      <trkpt lat="42.464727" lon="-5.865772">
        <ele>828.3</ele>
        <time>2021-08-22T05:26:30Z</time>
      </trkpt>
      <trkpt lat="42.464633" lon="-5.865994">
        <ele>825.8</ele>
        <time>2021-08-22T05:26:43Z</time>
      </trkpt>
      <trkpt lat="42.464563" lon="-5.866219">
        <ele>828.2</ele>
        <time>2021-08-22T05:26:56Z</time>
      </trkpt>
      <trkpt lat="42.464658" lon="-5.866435">
        <ele>822.6</ele>
        <time>2021-08-22T05:27:11Z</time>
      </trkpt>
      <trkpt lat="42.464693" lon="-5.866677">
        <ele>818.7</ele>
        <time>2021-08-22T05:27:23Z</time>
      </trkpt>
      <trkpt lat="42.464734" lon="-5.866928">
        <ele>818.4</ele>
        <time>2021-08-22T05:27:36Z</time>
      </trkpt>
      <trkpt lat="42.464719" lon="-5.867177">
        <ele>814.2</ele>
        <time>2021-08-22T05:27:50Z</time>
      </trkpt>
      <trkpt lat="42.464734" lon="-5.867423">
        <ele>812.0</ele>
        <time>2021-08-22T05:28:04Z</time>
      </trkpt>
      <trkpt lat="42.464707" lon="-5.867671">
        <ele>813.2</ele>
        <time>2021-08-22T05:28:20Z</time>
      </trkpt>
      <trkpt lat="42.464680" lon="-5.867922">
        <ele>815.1</ele>
        <time>2021-08-22T05:28:30Z</time>
      </trkpt>
      <trkpt lat="42.464648" lon="-5.868164">
        <ele>814.7</ele>
        <time>2021-08-22T05:28:43Z</time>
      </trkpt>
      <trkpt lat="42.464620" lon="-5.868421">
        <ele>817.5</ele>
        <time>2021-08-22T05:28:57Z</time>
      </trkpt>
      <trkpt lat="42.464580" lon="-5.868671">
        <ele>817.5</ele>
        <time>2021-08-22T05:29:10Z</time>
      </trkpt>
      <trkpt lat="42.464537" lon="-5.868922">
        <ele>820.3</ele>
        <time>2021-08-22T05:29:24Z</time>
      </trkpt>
      <trkpt lat="42.464524" lon="-5.869174">
        <ele>821.5</ele>
        <time>2021-08-22T05:29:38Z</time>
      </trkpt>
      <trkpt lat="42.464478" lon="-5.869416">
        <ele>820.1</ele>
        <time>2021-08-22T05:29:54Z</time>
      </trkpt>
      <trkpt lat="42.464445" lon="-5.869665">
        <ele>822.3</ele>
        <time>2021-08-22T05:30:08Z</time>
      </trkpt>
      <trkpt lat="42.464407" lon="-5.869918">
        <ele>822.2</ele>
        <time>2021-08-22T05:30:22Z</time>
      </trkpt>
      <trkpt lat="42.464372" lon="-5.870191">
        <ele>821.7</ele>
        <time>2021-08-22T05:30:39Z</time>
      </trkpt>
      <trkpt lat="42.464362" lon="-5.870441">
        <ele>823.6</ele>
        <time>2021-08-22T05:30:51Z</time>
      </trkpt>
      <trkpt lat="42.464325" lon="-5.870698">
        <ele>823.0</ele>
        <time>2021-08-22T05:31:04Z</time>
      </trkpt>
      <trkpt lat="42.464264" lon="-5.870939">
        <ele>823.0</ele>
        <time>2021-08-22T05:31:19Z</time>
      </trkpt>
      <trkpt lat="42.464240" lon="-5.871196">
        <ele>824.9</ele>
        <time>2021-08-22T05:31:37Z</time>
      </trkpt>
      <trkpt lat="42.464221" lon="-5.871443">
        <ele>822.9</ele>
        <time>2021-08-22T05:31:47Z</time>
      </trkpt>
      <trkpt lat="42.464181" lon="-5.871690">
        <ele>821.1</ele>
        <time>2021-08-22T05:32:01Z</time>
      </trkpt>
      <trkpt lat="42.464169" lon="-5.871939">
        <ele>821.8</ele>
        <time>2021-08-22T05:32:15Z</time>
      </trkpt>
      <trkpt lat="42.464115" lon="-5.872174">
        <ele>822.3</ele>
        <time>2021-08-22T05:32:30Z</time>
      </trkpt>
      <trkpt lat="42.464097" lon="-5.872427">
        <ele>821.7</ele>
        <time>2021-08-22T05:32:44Z</time>
      </trkpt>
      <trkpt lat="42.464072" lon="-5.872669">
        <ele>820.8</ele>
        <time>2021-08-22T05:32:57Z</time>
      </trkpt>
      <trkpt lat="42.464051" lon="-5.872918">
        <ele>820.2</ele>
        <time>2021-08-22T05:33:12Z</time>
      </trkpt>
      <trkpt lat="42.464034" lon="-5.873174">
        <ele>820.2</ele>
        <time>2021-08-22T05:33:26Z</time>
      </trkpt>
      <trkpt lat="42.464002" lon="-5.873430">
        <ele>819.5</ele>
        <time>2021-08-22T05:33:41Z</time>
      </trkpt>
      <trkpt lat="42.463977" lon="-5.873680">
        <ele>820.2</ele>
        <time>2021-08-22T05:33:51Z</time>
      </trkpt>
      <trkpt lat="42.463970" lon="-5.873929">
        <ele>823.0</ele>
        <time>2021-08-22T05:34:04Z</time>
      </trkpt>
      <trkpt lat="42.463982" lon="-5.874191">
        <ele>820.7</ele>
        <time>2021-08-22T05:34:18Z</time>
      </trkpt>
      <trkpt lat="42.463979" lon="-5.874447">
        <ele>820.4</ele>
        <time>2021-08-22T05:34:31Z</time>
      </trkpt>
      <trkpt lat="42.463983" lon="-5.874707">
        <ele>825.1</ele>
        <time>2021-08-22T05:34:46Z</time>
      </trkpt>
      <trkpt lat="42.463978" lon="-5.874964">
        <ele>826.0</ele>
        <time>2021-08-22T05:35:00Z</time>
      </trkpt>
      <trkpt lat="42.463969" lon="-5.875209">
        <ele>826.0</ele>
        <time>2021-08-22T05:35:14Z</time>
      </trkpt>
      <trkpt lat="42.463969" lon="-5.875455">
        <ele>826.0</ele>
        <time>2021-08-22T05:35:26Z</time>
      </trkpt>
      <trkpt lat="42.463956" lon="-5.875700">
        <ele>826.1</ele>
        <time>2021-08-22T05:35:41Z</time>
      </trkpt>
      <trkpt lat="42.463990" lon="-5.875942">
        <ele>826.3</ele>
        <time>2021-08-22T05:35:54Z</time>
      </trkpt>
      <trkpt lat="42.463945" lon="-5.876192">
        <ele>826.0</ele>
        <time>2021-08-22T05:36:43Z</time>
      </trkpt>
      <trkpt lat="42.463932" lon="-5.876448">
        <ele>824.2</ele>
        <time>2021-08-22T05:36:55Z</time>
      </trkpt>
      <trkpt lat="42.463896" lon="-5.876700">
        <ele>824.7</ele>
        <time>2021-08-22T05:37:09Z</time>
      </trkpt>
      <trkpt lat="42.463967" lon="-5.876943">
        <ele>823.8</ele>
        <time>2021-08-22T05:37:29Z</time>
      </trkpt>
      <trkpt lat="42.463981" lon="-5.877194">
        <ele>823.5</ele>
        <time>2021-08-22T05:37:45Z</time>
      </trkpt>
      <trkpt lat="42.463957" lon="-5.877439">
        <ele>823.2</ele>
        <time>2021-08-22T05:38:02Z</time>
      </trkpt>
      <trkpt lat="42.463992" lon="-5.877696">
        <ele>823.3</ele>
        <time>2021-08-22T05:38:46Z</time>
      </trkpt>
      <trkpt lat="42.464029" lon="-5.877942">
        <ele>823.4</ele>
        <time>2021-08-22T05:39:17Z</time>
      </trkpt>
      <trkpt lat="42.464056" lon="-5.878189">
        <ele>823.3</ele>
        <time>2021-08-22T05:39:35Z</time>
      </trkpt>
      <trkpt lat="42.464079" lon="-5.878432">
        <ele>823.2</ele>
        <time>2021-08-22T05:39:52Z</time>
      </trkpt>
      <trkpt lat="42.464048" lon="-5.878675">
        <ele>821.7</ele>
        <time>2021-08-22T05:41:03Z</time>
      </trkpt>
      <trkpt lat="42.464063" lon="-5.878925">
        <ele>820.3</ele>
        <time>2021-08-22T05:41:19Z</time>
      </trkpt>
      <trkpt lat="42.464077" lon="-5.879170">
        <ele>820.2</ele>
        <time>2021-08-22T05:41:35Z</time>
      </trkpt>
      <trkpt lat="42.464050" lon="-5.879412">
        <ele>820.3</ele>
        <time>2021-08-22T05:41:53Z</time>
      </trkpt>
      <trkpt lat="42.464029" lon="-5.879668">
        <ele>820.5</ele>
        <time>2021-08-22T05:42:19Z</time>
      </trkpt>
      <trkpt lat="42.464000" lon="-5.879925">
        <ele>820.7</ele>
        <time>2021-08-22T05:42:36Z</time>
      </trkpt>
      <trkpt lat="42.463970" lon="-5.880174">
        <ele>823.1</ele>
        <time>2021-08-22T05:43:17Z</time>
      </trkpt>
      <trkpt lat="42.463895" lon="-5.880398">
        <ele>823.2</ele>
        <time>2021-08-22T05:43:35Z</time>
      </trkpt>
      <trkpt lat="42.463850" lon="-5.880652">
        <ele>821.4</ele>
        <time>2021-08-22T05:43:50Z</time>
      </trkpt>
      <trkpt lat="42.463833" lon="-5.880896">
        <ele>821.1</ele>
        <time>2021-08-22T05:44:03Z</time>
      </trkpt>
      <trkpt lat="42.463778" lon="-5.881131">
        <ele>820.6</ele>
        <time>2021-08-22T05:44:22Z</time>
      </trkpt>
      <trkpt lat="42.463772" lon="-5.881262">
        <ele>820.3</ele>
        <time>2021-08-22T06:17:41Z</time>
      </trkpt>
      <trkpt lat="42.463711" lon="-5.881500">
        <ele>823.4</ele>
        <time>2021-08-22T06:17:58Z</time>
      </trkpt>
      <trkpt lat="42.463687" lon="-5.881745">
        <ele>819.3</ele>
        <time>2021-08-22T06:18:36Z</time>
      </trkpt>
      <trkpt lat="42.463608" lon="-5.881974">
        <ele>819.7</ele>
        <time>2021-08-22T06:19:08Z</time>
      </trkpt>
      <trkpt lat="42.463606" lon="-5.882224">
        <ele>819.9</ele>
        <time>2021-08-22T06:19:24Z</time>
      </trkpt>
      <trkpt lat="42.463584" lon="-5.882481">
        <ele>819.5</ele>
        <time>2021-08-22T06:24:18Z</time>
      </trkpt>
      <trkpt lat="42.463497" lon="-5.882696">
        <ele>820.2</ele>
        <time>2021-08-22T06:24:31Z</time>
      </trkpt>
      <trkpt lat="42.463516" lon="-5.882942">
        <ele>820.4</ele>
        <time>2021-08-22T06:24:46Z</time>
      </trkpt>
      <trkpt lat="42.463559" lon="-5.883186">
        <ele>820.6</ele>
        <time>2021-08-22T06:24:58Z</time>
      </trkpt>
      <trkpt lat="42.463534" lon="-5.883432">
        <ele>820.8</ele>
        <time>2021-08-22T06:25:11Z</time>
      </trkpt>
      <trkpt lat="42.463493" lon="-5.883679">
        <ele>821.0</ele>
        <time>2021-08-22T06:25:26Z</time>
      </trkpt>
      <trkpt lat="42.463372" lon="-5.883869">
        <ele>821.3</ele>
        <time>2021-08-22T06:25:41Z</time>
      </trkpt>
      <trkpt lat="42.463378" lon="-5.884116">
        <ele>821.2</ele>
        <time>2021-08-22T06:25:56Z</time>
      </trkpt>
      <trkpt lat="42.463433" lon="-5.884380">
        <ele>821.7</ele>
        <time>2021-08-22T06:26:13Z</time>
      </trkpt>
      <trkpt lat="42.463479" lon="-5.884619">
        <ele>821.6</ele>
        <time>2021-08-22T06:26:25Z</time>
      </trkpt>
      <trkpt lat="42.463489" lon="-5.884873">
        <ele>821.3</ele>
        <time>2021-08-22T06:26:41Z</time>
      </trkpt>
      <trkpt lat="42.463473" lon="-5.885122">
        <ele>821.4</ele>
        <time>2021-08-22T06:26:54Z</time>
      </trkpt>
      <trkpt lat="42.463434" lon="-5.885376">
        <ele>821.5</ele>
        <time>2021-08-22T06:27:07Z</time>
      </trkpt>
      <trkpt lat="42.463397" lon="-5.885622">
        <ele>821.4</ele>
        <time>2021-08-22T06:27:20Z</time>
      </trkpt>
      <trkpt lat="42.463362" lon="-5.885872">
        <ele>821.5</ele>
        <time>2021-08-22T06:27:31Z</time>
      </trkpt>
      <trkpt lat="42.463361" lon="-5.886140">
        <ele>821.7</ele>
        <time>2021-08-22T06:27:43Z</time>
      </trkpt>
      <trkpt lat="42.463331" lon="-5.886389">
        <ele>821.7</ele>
        <time>2021-08-22T06:27:58Z</time>
      </trkpt>
      <trkpt lat="42.463341" lon="-5.886639">
        <ele>821.8</ele>
        <time>2021-08-22T06:28:13Z</time>
      </trkpt>
      <trkpt lat="42.463298" lon="-5.886879">
        <ele>821.8</ele>
        <time>2021-08-22T06:28:28Z</time>
      </trkpt>
      <trkpt lat="42.463276" lon="-5.887123">
        <ele>821.9</ele>
        <time>2021-08-22T06:28:44Z</time>
      </trkpt>
      <trkpt lat="42.463255" lon="-5.887367">
        <ele>821.9</ele>
        <time>2021-08-22T06:28:55Z</time>
      </trkpt>
      <trkpt lat="42.463197" lon="-5.887602">
        <ele>822.1</ele>
        <time>2021-08-22T06:29:06Z</time>
      </trkpt>
      <trkpt lat="42.463128" lon="-5.887830">
        <ele>821.9</ele>
        <time>2021-08-22T06:29:16Z</time>
      </trkpt>
      <trkpt lat="42.463156" lon="-5.888076">
        <ele>821.6</ele>
        <time>2021-08-22T06:29:48Z</time>
      </trkpt>
      <trkpt lat="42.463328" lon="-5.888150">
        <ele>821.6</ele>
        <time>2021-08-22T06:30:05Z</time>
      </trkpt>
      <trkpt lat="42.463498" lon="-5.888261">
        <ele>819.8</ele>
        <time>2021-08-22T06:30:20Z</time>
      </trkpt>
      <trkpt lat="42.463682" lon="-5.888326">
        <ele>817.1</ele>
        <time>2021-08-22T06:30:32Z</time>
      </trkpt>
      <trkpt lat="42.463842" lon="-5.888453">
        <ele>815.5</ele>
        <time>2021-08-22T06:30:50Z</time>
      </trkpt>
      <trkpt lat="42.464004" lon="-5.888575">
        <ele>816.6</ele>
        <time>2021-08-22T06:31:00Z</time>
      </trkpt>
      <trkpt lat="42.464136" lon="-5.888746">
        <ele>816.9</ele>
        <time>2021-08-22T06:31:14Z</time>
      </trkpt>
      <trkpt lat="42.464267" lon="-5.888925">
        <ele>812.6</ele>
        <time>2021-08-22T06:31:27Z</time>
      </trkpt>
      <trkpt lat="42.464373" lon="-5.889124">
        <ele>811.6</ele>
        <time>2021-08-22T06:31:41Z</time>
      </trkpt>
      <trkpt lat="42.464488" lon="-5.889318">
        <ele>810.3</ele>
        <time>2021-08-22T06:31:54Z</time>
      </trkpt>
      <trkpt lat="42.464617" lon="-5.889496">
        <ele>811.0</ele>
        <time>2021-08-22T06:32:08Z</time>
      </trkpt>
      <trkpt lat="42.464743" lon="-5.889682">
        <ele>810.1</ele>
        <time>2021-08-22T06:32:22Z</time>
      </trkpt>
      <trkpt lat="42.464853" lon="-5.889877">
        <ele>810.5</ele>
        <time>2021-08-22T06:32:36Z</time>
      </trkpt>
      <trkpt lat="42.464965" lon="-5.890070">
        <ele>810.0</ele>
        <time>2021-08-22T06:32:49Z</time>
      </trkpt>
      <trkpt lat="42.465091" lon="-5.890265">
        <ele>810.0</ele>
        <time>2021-08-22T06:33:04Z</time>
      </trkpt>
      <trkpt lat="42.465214" lon="-5.890450">
        <ele>810.3</ele>
        <time>2021-08-22T06:33:17Z</time>
      </trkpt>
      <trkpt lat="42.465318" lon="-5.890652">
        <ele>811.3</ele>
        <time>2021-08-22T06:33:31Z</time>
      </trkpt>
      <trkpt lat="42.465401" lon="-5.890871">
        <ele>812.3</ele>
        <time>2021-08-22T06:33:43Z</time>
      </trkpt>
      <trkpt lat="42.465554" lon="-5.891004">
        <ele>811.3</ele>
        <time>2021-08-22T06:33:57Z</time>
      </trkpt>
      <trkpt lat="42.465676" lon="-5.891197">
        <ele>811.1</ele>
        <time>2021-08-22T06:34:11Z</time>
      </trkpt>
      <trkpt lat="42.465829" lon="-5.891337">
        <ele>808.7</ele>
        <time>2021-08-22T06:34:26Z</time>
      </trkpt>
      <trkpt lat="42.465895" lon="-5.891580">
        <ele>809.1</ele>
        <time>2021-08-22T06:34:39Z</time>
      </trkpt>
      <trkpt lat="42.465991" lon="-5.891791">
        <ele>807.9</ele>
        <time>2021-08-22T06:34:53Z</time>
      </trkpt>
      <trkpt lat="42.466110" lon="-5.892000">
        <ele>807.9</ele>
        <time>2021-08-22T06:35:04Z</time>
      </trkpt>
      <trkpt lat="42.466216" lon="-5.892209">
        <ele>807.8</ele>
        <time>2021-08-22T06:35:16Z</time>
      </trkpt>
      <trkpt lat="42.466325" lon="-5.892416">
        <ele>807.7</ele>
        <time>2021-08-22T06:35:31Z</time>
      </trkpt>
      <trkpt lat="42.466437" lon="-5.892613">
        <ele>808.9</ele>
        <time>2021-08-22T06:35:46Z</time>
      </trkpt>
      <trkpt lat="42.466548" lon="-5.892817">
        <ele>810.6</ele>
        <time>2021-08-22T06:36:01Z</time>
      </trkpt>
      <trkpt lat="42.466642" lon="-5.893027">
        <ele>813.1</ele>
        <time>2021-08-22T06:36:11Z</time>
      </trkpt>
      <trkpt lat="42.466742" lon="-5.893232">
        <ele>815.7</ele>
        <time>2021-08-22T06:36:25Z</time>
      </trkpt>
      <trkpt lat="42.466845" lon="-5.893446">
        <ele>816.7</ele>
        <time>2021-08-22T06:36:39Z</time>
      </trkpt>
      <trkpt lat="42.466954" lon="-5.893651">
        <ele>816.0</ele>
        <time>2021-08-22T06:36:53Z</time>
      </trkpt>
      <trkpt lat="42.467062" lon="-5.893858">
        <ele>814.0</ele>
        <time>2021-08-22T06:37:08Z</time>
      </trkpt>
      <trkpt lat="42.467176" lon="-5.894055">
        <ele>816.0</ele>
        <time>2021-08-22T06:37:19Z</time>
      </trkpt>
      <trkpt lat="42.467250" lon="-5.894291">
        <ele>816.0</ele>
        <time>2021-08-22T06:37:32Z</time>
      </trkpt>
      <trkpt lat="42.467310" lon="-5.894529">
        <ele>818.0</ele>
        <time>2021-08-22T06:37:47Z</time>
      </trkpt>
      <trkpt lat="42.467321" lon="-5.894776">
        <ele>819.4</ele>
        <time>2021-08-22T06:37:59Z</time>
      </trkpt>
      <trkpt lat="42.467283" lon="-5.895028">
        <ele>819.5</ele>
        <time>2021-08-22T06:38:14Z</time>
      </trkpt>
      <trkpt lat="42.467261" lon="-5.895277">
        <ele>818.9</ele>
        <time>2021-08-22T06:38:27Z</time>
      </trkpt>
      <trkpt lat="42.467238" lon="-5.895524">
        <ele>820.1</ele>
        <time>2021-08-22T06:38:41Z</time>
      </trkpt>
      <trkpt lat="42.467202" lon="-5.895773">
        <ele>819.8</ele>
        <time>2021-08-22T06:38:55Z</time>
      </trkpt>
      <trkpt lat="42.467209" lon="-5.896040">
        <ele>818.0</ele>
        <time>2021-08-22T06:39:10Z</time>
      </trkpt>
      <trkpt lat="42.467244" lon="-5.896280">
        <ele>819.9</ele>
        <time>2021-08-22T06:39:22Z</time>
      </trkpt>
      <trkpt lat="42.467307" lon="-5.896512">
        <ele>821.8</ele>
        <time>2021-08-22T06:39:37Z</time>
      </trkpt>
      <trkpt lat="42.467337" lon="-5.896754">
        <ele>822.2</ele>
        <time>2021-08-22T06:39:52Z</time>
      </trkpt>
      <trkpt lat="42.467368" lon="-5.896995">
        <ele>822.2</ele>
        <time>2021-08-22T06:40:06Z</time>
      </trkpt>
      <trkpt lat="42.467404" lon="-5.897241">
        <ele>821.9</ele>
        <time>2021-08-22T06:40:20Z</time>
      </trkpt>
      <trkpt lat="42.467429" lon="-5.897494">
        <ele>826.3</ele>
        <time>2021-08-22T06:40:33Z</time>
      </trkpt>
      <trkpt lat="42.467441" lon="-5.897746">
        <ele>826.3</ele>
        <time>2021-08-22T06:40:45Z</time>
      </trkpt>
      <trkpt lat="42.467461" lon="-5.898000">
        <ele>826.3</ele>
        <time>2021-08-22T06:40:59Z</time>
      </trkpt>
      <trkpt lat="42.467490" lon="-5.898249">
        <ele>826.1</ele>
        <time>2021-08-22T06:41:13Z</time>
      </trkpt>
      <trkpt lat="42.467511" lon="-5.898497">
        <ele>826.7</ele>
        <time>2021-08-22T06:41:26Z</time>
      </trkpt>
      <trkpt lat="42.467543" lon="-5.898752">
        <ele>826.7</ele>
        <time>2021-08-22T06:41:40Z</time>
      </trkpt>
      <trkpt lat="42.467577" lon="-5.898997">
        <ele>826.8</ele>
        <time>2021-08-22T06:41:54Z</time>
      </trkpt>
      <trkpt lat="42.467594" lon="-5.899246">
        <ele>826.5</ele>
        <time>2021-08-22T06:42:08Z</time>
      </trkpt>
      <trkpt lat="42.467629" lon="-5.899489">
        <ele>826.6</ele>
        <time>2021-08-22T06:42:21Z</time>
      </trkpt>
      <trkpt lat="42.467651" lon="-5.899731">
        <ele>826.7</ele>
        <time>2021-08-22T06:42:38Z</time>
      </trkpt>
      <trkpt lat="42.467683" lon="-5.899981">
        <ele>826.8</ele>
        <time>2021-08-22T06:42:50Z</time>
      </trkpt>
      <trkpt lat="42.467704" lon="-5.900224">
        <ele>826.7</ele>
        <time>2021-08-22T06:43:03Z</time>
      </trkpt>
      <trkpt lat="42.467693" lon="-5.900480">
        <ele>826.6</ele>
        <time>2021-08-22T06:43:16Z</time>
      </trkpt>
      <trkpt lat="42.467759" lon="-5.900715">
        <ele>826.8</ele>
        <time>2021-08-22T06:43:29Z</time>
      </trkpt>
      <trkpt lat="42.467793" lon="-5.900970">
        <ele>826.6</ele>
        <time>2021-08-22T06:43:44Z</time>
      </trkpt>
      <trkpt lat="42.467823" lon="-5.901232">
        <ele>826.7</ele>
        <time>2021-08-22T06:43:57Z</time>
      </trkpt>
      <trkpt lat="42.467849" lon="-5.901482">
        <ele>826.8</ele>
        <time>2021-08-22T06:44:12Z</time>
      </trkpt>
      <trkpt lat="42.467891" lon="-5.901726">
        <ele>826.8</ele>
        <time>2021-08-22T06:44:26Z</time>
      </trkpt>
      <trkpt lat="42.467924" lon="-5.901979">
        <ele>826.7</ele>
        <time>2021-08-22T06:44:41Z</time>
      </trkpt>
      <trkpt lat="42.467955" lon="-5.902235">
        <ele>826.8</ele>
        <time>2021-08-22T06:44:55Z</time>
      </trkpt>
      <trkpt lat="42.467998" lon="-5.902476">
        <ele>826.9</ele>
        <time>2021-08-22T06:45:09Z</time>
      </trkpt>
      <trkpt lat="42.468033" lon="-5.902725">
        <ele>826.7</ele>
        <time>2021-08-22T06:45:23Z</time>
      </trkpt>
      <trkpt lat="42.468042" lon="-5.902972">
        <ele>826.7</ele>
        <time>2021-08-22T06:45:39Z</time>
      </trkpt>
      <trkpt lat="42.468060" lon="-5.903219">
        <ele>826.8</ele>
        <time>2021-08-22T06:45:52Z</time>
      </trkpt>
      <trkpt lat="42.468085" lon="-5.903479">
        <ele>826.7</ele>
        <time>2021-08-22T06:46:03Z</time>
      </trkpt>
      <trkpt lat="42.468118" lon="-5.903720">
        <ele>826.6</ele>
        <time>2021-08-22T06:46:18Z</time>
      </trkpt>
      <trkpt lat="42.468130" lon="-5.903968">
        <ele>826.7</ele>
        <time>2021-08-22T06:46:28Z</time>
      </trkpt>
      <trkpt lat="42.468138" lon="-5.904220">
        <ele>826.6</ele>
        <time>2021-08-22T06:46:41Z</time>
      </trkpt>
      <trkpt lat="42.468169" lon="-5.904462">
        <ele>826.7</ele>
        <time>2021-08-22T06:46:54Z</time>
      </trkpt>
      <trkpt lat="42.468182" lon="-5.904710">
        <ele>826.7</ele>
        <time>2021-08-22T06:47:07Z</time>
      </trkpt>
      <trkpt lat="42.468222" lon="-5.904951">
        <ele>826.6</ele>
        <time>2021-08-22T06:47:21Z</time>
      </trkpt>
      <trkpt lat="42.468257" lon="-5.905203">
        <ele>826.6</ele>
        <time>2021-08-22T06:47:39Z</time>
      </trkpt>
      <trkpt lat="42.468267" lon="-5.905450">
        <ele>826.7</ele>
        <time>2021-08-22T06:47:52Z</time>
      </trkpt>
      <trkpt lat="42.468292" lon="-5.905696">
        <ele>826.7</ele>
        <time>2021-08-22T06:48:06Z</time>
      </trkpt>
      <trkpt lat="42.468294" lon="-5.905942">
        <ele>826.6</ele>
        <time>2021-08-22T06:48:20Z</time>
      </trkpt>
      <trkpt lat="42.468322" lon="-5.906199">
        <ele>826.8</ele>
        <time>2021-08-22T06:48:34Z</time>
      </trkpt>
      <trkpt lat="42.468350" lon="-5.906454">
        <ele>826.7</ele>
        <time>2021-08-22T06:48:48Z</time>
      </trkpt>
      <trkpt lat="42.468370" lon="-5.906698">
        <ele>826.6</ele>
        <time>2021-08-22T06:49:01Z</time>
      </trkpt>
      <trkpt lat="42.468395" lon="-5.906944">
        <ele>826.6</ele>
        <time>2021-08-22T06:49:13Z</time>
      </trkpt>
      <trkpt lat="42.468416" lon="-5.907191">
        <ele>826.6</ele>
        <time>2021-08-22T06:49:29Z</time>
      </trkpt>
      <trkpt lat="42.468436" lon="-5.907440">
        <ele>826.7</ele>
        <time>2021-08-22T06:49:42Z</time>
      </trkpt>
      <trkpt lat="42.468454" lon="-5.907699">
        <ele>826.7</ele>
        <time>2021-08-22T06:49:53Z</time>
      </trkpt>
      <trkpt lat="42.468467" lon="-5.907950">
        <ele>826.6</ele>
        <time>2021-08-22T06:50:07Z</time>
      </trkpt>
      <trkpt lat="42.468477" lon="-5.908203">
        <ele>826.6</ele>
        <time>2021-08-22T06:50:21Z</time>
      </trkpt>
      <trkpt lat="42.468506" lon="-5.908449">
        <ele>826.6</ele>
        <time>2021-08-22T06:50:33Z</time>
      </trkpt>
      <trkpt lat="42.468566" lon="-5.908688">
        <ele>826.6</ele>
        <time>2021-08-22T06:50:46Z</time>
      </trkpt>
      <trkpt lat="42.468632" lon="-5.908924">
        <ele>826.6</ele>
        <time>2021-08-22T06:51:00Z</time>
      </trkpt>
      <trkpt lat="42.468702" lon="-5.909157">
        <ele>826.6</ele>
        <time>2021-08-22T06:51:14Z</time>
      </trkpt>
      <trkpt lat="42.468791" lon="-5.909370">
        <ele>826.6</ele>
        <time>2021-08-22T06:51:26Z</time>
      </trkpt>
      <trkpt lat="42.468883" lon="-5.909584">
        <ele>826.5</ele>
        <time>2021-08-22T06:51:41Z</time>
      </trkpt>
      <trkpt lat="42.468942" lon="-5.909817">
        <ele>826.6</ele>
        <time>2021-08-22T06:51:58Z</time>
      </trkpt>
      <trkpt lat="42.469011" lon="-5.910054">
        <ele>826.9</ele>
        <time>2021-08-22T06:52:14Z</time>
      </trkpt>
      <trkpt lat="42.469152" lon="-5.910216">
        <ele>827.2</ele>
        <time>2021-08-22T06:52:32Z</time>
      </trkpt>
      <trkpt lat="42.469312" lon="-5.910355">
        <ele>827.2</ele>
        <time>2021-08-22T06:52:43Z</time>
      </trkpt>
      <trkpt lat="42.469497" lon="-5.910427">
        <ele>826.9</ele>
        <time>2021-08-22T06:52:59Z</time>
      </trkpt>
      <trkpt lat="42.469672" lon="-5.910508">
        <ele>827.2</ele>
        <time>2021-08-22T06:53:28Z</time>
      </trkpt>
      <trkpt lat="42.469833" lon="-5.910628">
        <ele>827.3</ele>
        <time>2021-08-22T06:53:38Z</time>
      </trkpt>
      <trkpt lat="42.469936" lon="-5.910851">
        <ele>827.4</ele>
        <time>2021-08-22T06:53:51Z</time>
      </trkpt>
      <trkpt lat="42.470015" lon="-5.911074">
        <ele>827.3</ele>
        <time>2021-08-22T06:54:05Z</time>
      </trkpt>
      <trkpt lat="42.470159" lon="-5.911243">
        <ele>827.4</ele>
        <time>2021-08-22T06:54:24Z</time>
      </trkpt>
      <trkpt lat="42.470336" lon="-5.911333">
        <ele>827.5</ele>
        <time>2021-08-22T06:54:37Z</time>
      </trkpt>
      <trkpt lat="42.470413" lon="-5.911555">
        <ele>827.4</ele>
        <time>2021-08-22T06:54:54Z</time>
      </trkpt>
      <trkpt lat="42.470278" lon="-5.911724">
        <ele>826.9</ele>
        <time>2021-08-22T06:55:09Z</time>
      </trkpt>
      <trkpt lat="42.470268" lon="-5.911973">
        <ele>826.7</ele>
        <time>2021-08-22T06:55:17Z</time>
      </trkpt>
      <trkpt lat="42.470334" lon="-5.912209">
        <ele>826.9</ele>
        <time>2021-08-22T06:55:29Z</time>
      </trkpt>
      <trkpt lat="42.470445" lon="-5.912411">
        <ele>827.4</ele>
        <time>2021-08-22T06:55:41Z</time>
      </trkpt>
      <trkpt lat="42.470549" lon="-5.912613">
        <ele>827.7</ele>
        <time>2021-08-22T06:55:52Z</time>
      </trkpt>
      <trkpt lat="42.470618" lon="-5.912839">
        <ele>827.6</ele>
        <time>2021-08-22T06:56:04Z</time>
      </trkpt>
      <trkpt lat="42.470724" lon="-5.913043">
        <ele>827.5</ele>
        <time>2021-08-22T06:56:16Z</time>
      </trkpt>
      <trkpt lat="42.470845" lon="-5.913222">
        <ele>827.6</ele>
        <time>2021-08-22T06:56:29Z</time>
      </trkpt>
      <trkpt lat="42.470805" lon="-5.913468">
        <ele>827.7</ele>
        <time>2021-08-22T06:56:44Z</time>
      </trkpt>
      <trkpt lat="42.470732" lon="-5.913697">
        <ele>827.6</ele>
        <time>2021-08-22T06:56:57Z</time>
      </trkpt>
      <trkpt lat="42.470627" lon="-5.913900">
        <ele>827.7</ele>
        <time>2021-08-22T06:57:13Z</time>
      </trkpt>
      <trkpt lat="42.470583" lon="-5.914138">
        <ele>830.9</ele>
        <time>2021-08-22T06:57:26Z</time>
      </trkpt>
      <trkpt lat="42.470619" lon="-5.914377">
        <ele>831.2</ele>
        <time>2021-08-22T06:57:39Z</time>
      </trkpt>
      <trkpt lat="42.470691" lon="-5.914603">
        <ele>831.3</ele>
        <time>2021-08-22T06:57:53Z</time>
      </trkpt>
      <trkpt lat="42.470762" lon="-5.914853">
        <ele>832.5</ele>
        <time>2021-08-22T06:58:08Z</time>
      </trkpt>
      <trkpt lat="42.470829" lon="-5.915097">
        <ele>832.8</ele>
        <time>2021-08-22T06:58:23Z</time>
      </trkpt>
      <trkpt lat="42.470671" lon="-5.915237">
        <ele>834.6</ele>
        <time>2021-08-22T06:58:40Z</time>
      </trkpt>
      <trkpt lat="42.470503" lon="-5.915334">
        <ele>832.8</ele>
        <time>2021-08-22T06:58:51Z</time>
      </trkpt>
      <trkpt lat="42.470341" lon="-5.915453">
        <ele>832.1</ele>
        <time>2021-08-22T06:59:03Z</time>
      </trkpt>
      <trkpt lat="42.470237" lon="-5.915662">
        <ele>832.3</ele>
        <time>2021-08-22T06:59:17Z</time>
      </trkpt>
      <trkpt lat="42.470138" lon="-5.915879">
        <ele>831.2</ele>
        <time>2021-08-22T06:59:31Z</time>
      </trkpt>
      <trkpt lat="42.469976" lon="-5.916003">
        <ele>826.7</ele>
        <time>2021-08-22T07:04:27Z</time>
      </trkpt>
      <trkpt lat="42.469803" lon="-5.916091">
        <ele>826.8</ele>
        <time>2021-08-22T07:04:42Z</time>
      </trkpt>
      <trkpt lat="42.469669" lon="-5.916264">
        <ele>826.7</ele>
        <time>2021-08-22T07:04:56Z</time>
      </trkpt>
      <trkpt lat="42.469562" lon="-5.916470">
        <ele>826.7</ele>
        <time>2021-08-22T07:05:09Z</time>
      </trkpt>
      <trkpt lat="42.469419" lon="-5.916627">
        <ele>826.6</ele>
        <time>2021-08-22T07:05:25Z</time>
      </trkpt>
      <trkpt lat="42.469265" lon="-5.916754">
        <ele>826.6</ele>
        <time>2021-08-22T07:05:37Z</time>
      </trkpt>
      <trkpt lat="42.469110" lon="-5.916895">
        <ele>826.6</ele>
        <time>2021-08-22T07:05:51Z</time>
      </trkpt>
      <trkpt lat="42.468959" lon="-5.917032">
        <ele>826.8</ele>
        <time>2021-08-22T07:06:04Z</time>
      </trkpt>
      <trkpt lat="42.468817" lon="-5.917194">
        <ele>826.4</ele>
        <time>2021-08-22T07:06:18Z</time>
      </trkpt>
      <trkpt lat="42.468659" lon="-5.917325">
        <ele>826.6</ele>
        <time>2021-08-22T07:06:32Z</time>
      </trkpt>
      <trkpt lat="42.468522" lon="-5.917493">
        <ele>826.7</ele>
        <time>2021-08-22T07:06:46Z</time>
      </trkpt>
      <trkpt lat="42.468398" lon="-5.917681">
        <ele>826.7</ele>
        <time>2021-08-22T07:06:59Z</time>
      </trkpt>
      <trkpt lat="42.468250" lon="-5.917836">
        <ele>826.7</ele>
        <time>2021-08-22T07:07:12Z</time>
      </trkpt>
      <trkpt lat="42.468069" lon="-5.917889">
        <ele>840.5</ele>
        <time>2021-08-22T07:07:26Z</time>
      </trkpt>
      <trkpt lat="42.467892" lon="-5.917970">
        <ele>841.0</ele>
        <time>2021-08-22T07:07:39Z</time>
      </trkpt>
      <trkpt lat="42.467710" lon="-5.917992">
        <ele>842.7</ele>
        <time>2021-08-22T07:07:53Z</time>
      </trkpt>
      <trkpt lat="42.467528" lon="-5.918026">
        <ele>843.0</ele>
        <time>2021-08-22T07:08:07Z</time>
      </trkpt>
      <trkpt lat="42.467352" lon="-5.918097">
        <ele>839.2</ele>
        <time>2021-08-22T07:08:20Z</time>
      </trkpt>
      <trkpt lat="42.467169" lon="-5.918148">
        <ele>840.6</ele>
        <time>2021-08-22T07:08:37Z</time>
      </trkpt>
      <trkpt lat="42.466983" lon="-5.918224">
        <ele>841.0</ele>
        <time>2021-08-22T07:08:48Z</time>
      </trkpt>
      <trkpt lat="42.466810" lon="-5.918306">
        <ele>844.4</ele>
        <time>2021-08-22T07:09:00Z</time>
      </trkpt>
      <trkpt lat="42.466621" lon="-5.918345">
        <ele>838.1</ele>
        <time>2021-08-22T07:09:14Z</time>
      </trkpt>
      <trkpt lat="42.466436" lon="-5.918390">
        <ele>839.9</ele>
        <time>2021-08-22T07:09:28Z</time>
      </trkpt>
      <trkpt lat="42.466247" lon="-5.918461">
        <ele>839.8</ele>
        <time>2021-08-22T07:09:42Z</time>
      </trkpt>
      <trkpt lat="42.466055" lon="-5.918509">
        <ele>841.0</ele>
        <time>2021-08-22T07:09:56Z</time>
      </trkpt>
      <trkpt lat="42.465878" lon="-5.918566">
        <ele>840.9</ele>
        <time>2021-08-22T07:10:12Z</time>
      </trkpt>
      <trkpt lat="42.465701" lon="-5.918634">
        <ele>839.1</ele>
        <time>2021-08-22T07:10:23Z</time>
      </trkpt>
      <trkpt lat="42.465515" lon="-5.918658">
        <ele>837.9</ele>
        <time>2021-08-22T07:10:36Z</time>
      </trkpt>
      <trkpt lat="42.465324" lon="-5.918702">
        <ele>836.1</ele>
        <time>2021-08-22T07:10:50Z</time>
      </trkpt>
      <trkpt lat="42.465140" lon="-5.918758">
        <ele>836.9</ele>
        <time>2021-08-22T07:11:04Z</time>
      </trkpt>
      <trkpt lat="42.464956" lon="-5.918836">
        <ele>837.3</ele>
        <time>2021-08-22T07:11:17Z</time>
      </trkpt>
      <trkpt lat="42.464771" lon="-5.918879">
        <ele>837.4</ele>
        <time>2021-08-22T07:11:31Z</time>
      </trkpt>
      <trkpt lat="42.464584" lon="-5.918933">
        <ele>839.2</ele>
        <time>2021-08-22T07:11:46Z</time>
      </trkpt>
      <trkpt lat="42.464407" lon="-5.918996">
        <ele>837.7</ele>
        <time>2021-08-22T07:11:58Z</time>
      </trkpt>
      <trkpt lat="42.464216" lon="-5.919036">
        <ele>834.3</ele>
        <time>2021-08-22T07:12:13Z</time>
      </trkpt>
      <trkpt lat="42.464038" lon="-5.919089">
        <ele>833.7</ele>
        <time>2021-08-22T07:12:26Z</time>
      </trkpt>
      <trkpt lat="42.463863" lon="-5.919145">
        <ele>838.8</ele>
        <time>2021-08-22T07:12:39Z</time>
      </trkpt>
      <trkpt lat="42.463695" lon="-5.919266">
        <ele>838.8</ele>
        <time>2021-08-22T07:12:52Z</time>
      </trkpt>
      <trkpt lat="42.463682" lon="-5.919515">
        <ele>837.6</ele>
        <time>2021-08-22T07:13:07Z</time>
      </trkpt>
      <trkpt lat="42.463722" lon="-5.919754">
        <ele>840.4</ele>
        <time>2021-08-22T07:13:20Z</time>
      </trkpt>
      <trkpt lat="42.463752" lon="-5.920001">
        <ele>840.6</ele>
        <time>2021-08-22T07:13:35Z</time>
      </trkpt>
      <trkpt lat="42.463788" lon="-5.920260">
        <ele>841.5</ele>
        <time>2021-08-22T07:13:50Z</time>
      </trkpt>
      <trkpt lat="42.463823" lon="-5.920500">
        <ele>841.0</ele>
        <time>2021-08-22T07:14:05Z</time>
      </trkpt>
      <trkpt lat="42.463888" lon="-5.920728">
        <ele>842.2</ele>
        <time>2021-08-22T07:14:20Z</time>
      </trkpt>
      <trkpt lat="42.463965" lon="-5.920962">
        <ele>846.1</ele>
        <time>2021-08-22T07:14:33Z</time>
      </trkpt>
      <trkpt lat="42.464037" lon="-5.921188">
        <ele>847.3</ele>
        <time>2021-08-22T07:14:49Z</time>
      </trkpt>
      <trkpt lat="42.464107" lon="-5.921418">
        <ele>845.1</ele>
        <time>2021-08-22T07:15:02Z</time>
      </trkpt>
      <trkpt lat="42.464168" lon="-5.921653">
        <ele>849.8</ele>
        <time>2021-08-22T07:15:17Z</time>
      </trkpt>
      <trkpt lat="42.464181" lon="-5.921900">
        <ele>853.0</ele>
        <time>2021-08-22T07:15:33Z</time>
      </trkpt>
      <trkpt lat="42.464272" lon="-5.922112">
        <ele>853.8</ele>
        <time>2021-08-22T07:15:48Z</time>
      </trkpt>
      <trkpt lat="42.464339" lon="-5.922339">
        <ele>858.7</ele>
        <time>2021-08-22T07:19:43Z</time>
      </trkpt>
      <trkpt lat="42.464419" lon="-5.922559">
        <ele>858.1</ele>
        <time>2021-08-22T07:19:58Z</time>
      </trkpt>
      <trkpt lat="42.464476" lon="-5.922796">
        <ele>857.2</ele>
        <time>2021-08-22T07:20:13Z</time>
      </trkpt>
      <trkpt lat="42.464519" lon="-5.923051">
        <ele>859.9</ele>
        <time>2021-08-22T07:20:33Z</time>
      </trkpt>
      <trkpt lat="42.464526" lon="-5.923300">
        <ele>862.4</ele>
        <time>2021-08-22T07:20:47Z</time>
      </trkpt>
      <trkpt lat="42.464514" lon="-5.923549">
        <ele>865.3</ele>
        <time>2021-08-22T07:21:03Z</time>
      </trkpt>
      <trkpt lat="42.464499" lon="-5.923798">
        <ele>866.9</ele>
        <time>2021-08-22T07:21:16Z</time>
      </trkpt>
      <trkpt lat="42.464458" lon="-5.924050">
        <ele>871.1</ele>
        <time>2021-08-22T07:21:30Z</time>
      </trkpt>
      <trkpt lat="42.464375" lon="-5.924278">
        <ele>871.0</ele>
        <time>2021-08-22T07:21:48Z</time>
      </trkpt>
      <trkpt lat="42.464288" lon="-5.924497">
        <ele>870.9</ele>
        <time>2021-08-22T07:22:01Z</time>
      </trkpt>
      <trkpt lat="42.464217" lon="-5.924729">
        <ele>870.9</ele>
        <time>2021-08-22T07:22:16Z</time>
      </trkpt>
      <trkpt lat="42.464135" lon="-5.924956">
        <ele>870.9</ele>
        <time>2021-08-22T07:22:34Z</time>
      </trkpt>
      <trkpt lat="42.464095" lon="-5.925196">
        <ele>870.8</ele>
        <time>2021-08-22T07:22:47Z</time>
      </trkpt>
      <trkpt lat="42.464006" lon="-5.925410">
        <ele>870.8</ele>
        <time>2021-08-22T07:23:02Z</time>
      </trkpt>
      <trkpt lat="42.463916" lon="-5.925641">
        <ele>861.8</ele>
        <time>2021-08-22T07:23:42Z</time>
      </trkpt>
      <trkpt lat="42.463831" lon="-5.925871">
        <ele>862.0</ele>
        <time>2021-08-22T07:23:57Z</time>
      </trkpt>
      <trkpt lat="42.463727" lon="-5.926087">
        <ele>862.1</ele>
        <time>2021-08-22T07:24:11Z</time>
      </trkpt>
      <trkpt lat="42.463646" lon="-5.926317">
        <ele>862.3</ele>
        <time>2021-08-22T07:24:30Z</time>
      </trkpt>
      <trkpt lat="42.463528" lon="-5.926513">
        <ele>855.5</ele>
        <time>2021-08-22T07:24:46Z</time>
      </trkpt>
      <trkpt lat="42.463375" lon="-5.926654">
        <ele>854.9</ele>
        <time>2021-08-22T07:25:02Z</time>
      </trkpt>
      <trkpt lat="42.463336" lon="-5.926892">
        <ele>854.9</ele>
        <time>2021-08-22T07:25:16Z</time>
      </trkpt>
      <trkpt lat="42.463252" lon="-5.927109">
        <ele>854.8</ele>
        <time>2021-08-22T07:25:27Z</time>
      </trkpt>
      <trkpt lat="42.463122" lon="-5.927283">
        <ele>854.8</ele>
        <time>2021-08-22T07:25:43Z</time>
      </trkpt>
      <trkpt lat="42.463020" lon="-5.927506">
        <ele>854.7</ele>
        <time>2021-08-22T07:25:55Z</time>
      </trkpt>
      <trkpt lat="42.462895" lon="-5.927697">
        <ele>852.5</ele>
        <time>2021-08-22T07:26:13Z</time>
      </trkpt>
      <trkpt lat="42.462803" lon="-5.927920">
        <ele>853.7</ele>
        <time>2021-08-22T07:26:24Z</time>
      </trkpt>
      <trkpt lat="42.462714" lon="-5.928136">
        <ele>849.3</ele>
        <time>2021-08-22T07:26:38Z</time>
      </trkpt>
      <trkpt lat="42.462597" lon="-5.928350">
        <ele>849.3</ele>
        <time>2021-08-22T07:26:59Z</time>
      </trkpt>
      <trkpt lat="42.462464" lon="-5.928517">
        <ele>849.5</ele>
        <time>2021-08-22T07:27:11Z</time>
      </trkpt>
      <trkpt lat="42.462289" lon="-5.928604">
        <ele>849.5</ele>
        <time>2021-08-22T07:27:27Z</time>
      </trkpt>
      <trkpt lat="42.462117" lon="-5.928693">
        <ele>845.4</ele>
        <time>2021-08-22T07:27:42Z</time>
      </trkpt>
      <trkpt lat="42.461930" lon="-5.928705">
        <ele>845.2</ele>
        <time>2021-08-22T07:27:55Z</time>
      </trkpt>
      <trkpt lat="42.461746" lon="-5.928758">
        <ele>846.5</ele>
        <time>2021-08-22T07:28:08Z</time>
      </trkpt>
      <trkpt lat="42.461565" lon="-5.928810">
        <ele>846.7</ele>
        <time>2021-08-22T07:28:22Z</time>
      </trkpt>
      <trkpt lat="42.461383" lon="-5.928859">
        <ele>846.4</ele>
        <time>2021-08-22T07:28:36Z</time>
      </trkpt>
      <trkpt lat="42.461200" lon="-5.928900">
        <ele>843.6</ele>
        <time>2021-08-22T07:28:55Z</time>
      </trkpt>
      <trkpt lat="42.461016" lon="-5.928989">
        <ele>843.8</ele>
        <time>2021-08-22T07:29:10Z</time>
      </trkpt>
      <trkpt lat="42.460842" lon="-5.929057">
        <ele>844.9</ele>
        <time>2021-08-22T07:29:23Z</time>
      </trkpt>
      <trkpt lat="42.460668" lon="-5.929130">
        <ele>846.0</ele>
        <time>2021-08-22T07:29:53Z</time>
      </trkpt>
      <trkpt lat="42.460541" lon="-5.929317">
        <ele>846.0</ele>
        <time>2021-08-22T07:30:16Z</time>
      </trkpt>
      <trkpt lat="42.460429" lon="-5.929509">
        <ele>846.3</ele>
        <time>2021-08-22T07:30:32Z</time>
      </trkpt>
      <trkpt lat="42.460254" lon="-5.929575">
        <ele>847.5</ele>
        <time>2021-08-22T07:30:45Z</time>
      </trkpt>
      <trkpt lat="42.460091" lon="-5.929719">
        <ele>849.0</ele>
        <time>2021-08-22T07:31:00Z</time>
      </trkpt>
      <trkpt lat="42.459927" lon="-5.929842">
        <ele>849.0</ele>
        <time>2021-08-22T07:31:13Z</time>
      </trkpt>
      <trkpt lat="42.459787" lon="-5.930015">
        <ele>848.9</ele>
        <time>2021-08-22T07:31:28Z</time>
      </trkpt>
      <trkpt lat="42.459613" lon="-5.930114">
        <ele>849.1</ele>
        <time>2021-08-22T07:31:43Z</time>
      </trkpt>
      <trkpt lat="42.459430" lon="-5.930167">
        <ele>849.2</ele>
        <time>2021-08-22T07:31:55Z</time>
      </trkpt>
      <trkpt lat="42.459250" lon="-5.930174">
        <ele>849.5</ele>
        <time>2021-08-22T07:32:08Z</time>
      </trkpt>
      <trkpt lat="42.459061" lon="-5.930196">
        <ele>849.4</ele>
        <time>2021-08-22T07:32:22Z</time>
      </trkpt>
      <trkpt lat="42.458883" lon="-5.930150">
        <ele>849.1</ele>
        <time>2021-08-22T07:33:06Z</time>
      </trkpt>
      <trkpt lat="42.458707" lon="-5.930246">
        <ele>849.1</ele>
        <time>2021-08-22T07:33:33Z</time>
      </trkpt>
      <trkpt lat="42.458529" lon="-5.930282">
        <ele>849.2</ele>
        <time>2021-08-22T07:33:44Z</time>
      </trkpt>
      <trkpt lat="42.458342" lon="-5.930322">
        <ele>849.2</ele>
        <time>2021-08-22T07:33:57Z</time>
      </trkpt>
      <trkpt lat="42.458428" lon="-5.930471">
        <ele>849.2</ele>
        <time>2021-08-22T07:39:27Z</time>
      </trkpt>
      <trkpt lat="42.458442" lon="-5.930715">
        <ele>850.3</ele>
        <time>2021-08-22T07:39:40Z</time>
      </trkpt>
      <trkpt lat="42.458505" lon="-5.930949">
        <ele>851.4</ele>
        <time>2021-08-22T07:39:53Z</time>
      </trkpt>
      <trkpt lat="42.458618" lon="-5.931146">
        <ele>851.9</ele>
        <time>2021-08-22T07:40:10Z</time>
      </trkpt>
      <trkpt lat="42.458714" lon="-5.931360">
        <ele>851.0</ele>
        <time>2021-08-22T07:40:24Z</time>
      </trkpt>
      <trkpt lat="42.458804" lon="-5.931582">
        <ele>849.5</ele>
        <time>2021-08-22T07:40:38Z</time>
      </trkpt>
      <trkpt lat="42.458888" lon="-5.931798">
        <ele>849.6</ele>
        <time>2021-08-22T07:40:54Z</time>
      </trkpt>
      <trkpt lat="42.458973" lon="-5.932023">
        <ele>849.3</ele>
        <time>2021-08-22T07:41:07Z</time>
      </trkpt>
      <trkpt lat="42.459098" lon="-5.932226">
        <ele>849.0</ele>
        <time>2021-08-22T07:41:20Z</time>
      </trkpt>
      <trkpt lat="42.459209" lon="-5.932428">
        <ele>848.9</ele>
        <time>2021-08-22T07:41:36Z</time>
      </trkpt>
      <trkpt lat="42.459340" lon="-5.932606">
        <ele>849.1</ele>
        <time>2021-08-22T07:41:50Z</time>
      </trkpt>
      <trkpt lat="42.459450" lon="-5.932803">
        <ele>849.0</ele>
        <time>2021-08-22T07:42:04Z</time>
      </trkpt>
      <trkpt lat="42.459593" lon="-5.932958">
        <ele>848.9</ele>
        <time>2021-08-22T07:42:16Z</time>
      </trkpt>
      <trkpt lat="42.459709" lon="-5.933154">
        <ele>860.8</ele>
        <time>2021-08-22T07:42:41Z</time>
      </trkpt>
      <trkpt lat="42.459806" lon="-5.933367">
        <ele>857.7</ele>
        <time>2021-08-22T07:43:50Z</time>
      </trkpt>
      <trkpt lat="42.459899" lon="-5.933592">
        <ele>858.2</ele>
        <time>2021-08-22T07:44:05Z</time>
      </trkpt>
      <trkpt lat="42.459957" lon="-5.933830">
        <ele>852.7</ele>
        <time>2021-08-22T07:44:33Z</time>
      </trkpt>
      <trkpt lat="42.460056" lon="-5.934046">
        <ele>852.5</ele>
        <time>2021-08-22T07:44:46Z</time>
      </trkpt>
      <trkpt lat="42.460151" lon="-5.934258">
        <ele>852.5</ele>
        <time>2021-08-22T07:45:00Z</time>
      </trkpt>
      <trkpt lat="42.460238" lon="-5.934481">
        <ele>852.4</ele>
        <time>2021-08-22T07:45:12Z</time>
      </trkpt>
      <trkpt lat="42.460328" lon="-5.934717">
        <ele>858.0</ele>
        <time>2021-08-22T07:45:28Z</time>
      </trkpt>
      <trkpt lat="42.460466" lon="-5.934878">
        <ele>859.9</ele>
        <time>2021-08-22T07:45:41Z</time>
      </trkpt>
      <trkpt lat="42.460600" lon="-5.935046">
        <ele>861.8</ele>
        <time>2021-08-22T07:45:55Z</time>
      </trkpt>
      <trkpt lat="42.460738" lon="-5.935211">
        <ele>860.1</ele>
        <time>2021-08-22T07:46:09Z</time>
      </trkpt>
      <trkpt lat="42.460878" lon="-5.935390">
        <ele>862.4</ele>
        <time>2021-08-22T07:46:23Z</time>
      </trkpt>
      <trkpt lat="42.460989" lon="-5.935602">
        <ele>865.3</ele>
        <time>2021-08-22T07:46:40Z</time>
      </trkpt>
      <trkpt lat="42.461079" lon="-5.935817">
        <ele>864.4</ele>
        <time>2021-08-22T07:46:55Z</time>
      </trkpt>
      <trkpt lat="42.461200" lon="-5.935997">
        <ele>862.2</ele>
        <time>2021-08-22T07:47:09Z</time>
      </trkpt>
      <trkpt lat="42.461327" lon="-5.936173">
        <ele>863.3</ele>
        <time>2021-08-22T07:47:23Z</time>
      </trkpt>
      <trkpt lat="42.461440" lon="-5.936368">
        <ele>864.1</ele>
        <time>2021-08-22T07:47:37Z</time>
      </trkpt>
      <trkpt lat="42.461562" lon="-5.936562">
        <ele>864.3</ele>
        <time>2021-08-22T07:47:51Z</time>
      </trkpt>
      <trkpt lat="42.461660" lon="-5.936774">
        <ele>864.1</ele>
        <time>2021-08-22T07:48:05Z</time>
      </trkpt>
      <trkpt lat="42.461706" lon="-5.937021">
        <ele>863.9</ele>
        <time>2021-08-22T07:48:36Z</time>
      </trkpt>
      <trkpt lat="42.461816" lon="-5.937220">
        <ele>863.9</ele>
        <time>2021-08-22T07:48:50Z</time>
      </trkpt>
      <trkpt lat="42.461902" lon="-5.937439">
        <ele>863.8</ele>
        <time>2021-08-22T07:49:04Z</time>
      </trkpt>
      <trkpt lat="42.461976" lon="-5.937689">
        <ele>867.1</ele>
        <time>2021-08-22T07:49:18Z</time>
      </trkpt>
      <trkpt lat="42.462101" lon="-5.937882">
        <ele>866.6</ele>
        <time>2021-08-22T07:49:32Z</time>
      </trkpt>
      <trkpt lat="42.462225" lon="-5.938073">
        <ele>864.7</ele>
        <time>2021-08-22T07:49:46Z</time>
      </trkpt>
      <trkpt lat="42.462362" lon="-5.938237">
        <ele>866.6</ele>
        <time>2021-08-22T07:49:59Z</time>
      </trkpt>
      <trkpt lat="42.462488" lon="-5.938414">
        <ele>865.3</ele>
        <time>2021-08-22T07:50:12Z</time>
      </trkpt>
      <trkpt lat="42.462628" lon="-5.938569">
        <ele>866.8</ele>
        <time>2021-08-22T07:50:25Z</time>
      </trkpt>
      <trkpt lat="42.462771" lon="-5.938725">
        <ele>871.4</ele>
        <time>2021-08-22T07:50:42Z</time>
      </trkpt>
      <trkpt lat="42.462920" lon="-5.938870">
        <ele>873.4</ele>
        <time>2021-08-22T07:50:56Z</time>
      </trkpt>
      <trkpt lat="42.463083" lon="-5.938979">
        <ele>876.1</ele>
        <time>2021-08-22T07:51:10Z</time>
      </trkpt>
      <trkpt lat="42.463228" lon="-5.939132">
        <ele>876.5</ele>
        <time>2021-08-22T07:51:24Z</time>
      </trkpt>
      <trkpt lat="42.463379" lon="-5.939276">
        <ele>878.2</ele>
        <time>2021-08-22T07:51:38Z</time>
      </trkpt>
      <trkpt lat="42.463532" lon="-5.939412">
        <ele>879.4</ele>
        <time>2021-08-22T07:51:54Z</time>
      </trkpt>
      <trkpt lat="42.463678" lon="-5.939586">
        <ele>879.8</ele>
        <time>2021-08-22T07:52:08Z</time>
      </trkpt>
      <trkpt lat="42.463811" lon="-5.939775">
        <ele>881.2</ele>
        <time>2021-08-22T07:52:24Z</time>
      </trkpt>
      <trkpt lat="42.463929" lon="-5.939968">
        <ele>881.8</ele>
        <time>2021-08-22T07:52:38Z</time>
      </trkpt>
      <trkpt lat="42.464053" lon="-5.940168">
        <ele>883.8</ele>
        <time>2021-08-22T07:52:54Z</time>
      </trkpt>
      <trkpt lat="42.464144" lon="-5.940387">
        <ele>882.7</ele>
        <time>2021-08-22T07:53:08Z</time>
      </trkpt>
      <trkpt lat="42.464234" lon="-5.940606">
        <ele>881.6</ele>
        <time>2021-08-22T07:53:21Z</time>
      </trkpt>
      <trkpt lat="42.464328" lon="-5.940816">
        <ele>884.7</ele>
        <time>2021-08-22T07:53:33Z</time>
      </trkpt>
      <trkpt lat="42.464417" lon="-5.941029">
        <ele>888.7</ele>
        <time>2021-08-22T07:53:52Z</time>
      </trkpt>
      <trkpt lat="42.464484" lon="-5.941256">
        <ele>889.5</ele>
        <time>2021-08-22T07:54:04Z</time>
      </trkpt>
      <trkpt lat="42.464512" lon="-5.941510">
        <ele>888.3</ele>
        <time>2021-08-22T07:54:20Z</time>
      </trkpt>
      <trkpt lat="42.464565" lon="-5.941762">
        <ele>886.6</ele>
        <time>2021-08-22T07:54:36Z</time>
      </trkpt>
      <trkpt lat="42.464647" lon="-5.941991">
        <ele>904.7</ele>
        <time>2021-08-22T07:54:49Z</time>
      </trkpt>
      <trkpt lat="42.464746" lon="-5.942217">
        <ele>885.3</ele>
        <time>2021-08-22T07:55:04Z</time>
      </trkpt>
      <trkpt lat="42.464867" lon="-5.942402">
        <ele>886.8</ele>
        <time>2021-08-22T07:55:17Z</time>
      </trkpt>
      <trkpt lat="42.464985" lon="-5.942591">
        <ele>888.3</ele>
        <time>2021-08-22T07:55:31Z</time>
      </trkpt>
      <trkpt lat="42.465096" lon="-5.942785">
        <ele>889.2</ele>
        <time>2021-08-22T07:55:46Z</time>
      </trkpt>
      <trkpt lat="42.465228" lon="-5.942951">
        <ele>890.1</ele>
        <time>2021-08-22T07:56:02Z</time>
      </trkpt>
      <trkpt lat="42.465370" lon="-5.943103">
        <ele>888.1</ele>
        <time>2021-08-22T07:56:18Z</time>
      </trkpt>
      <trkpt lat="42.465404" lon="-5.943350">
        <ele>886.9</ele>
        <time>2021-08-22T08:06:32Z</time>
      </trkpt>
      <trkpt lat="42.465483" lon="-5.943604">
        <ele>887.0</ele>
        <time>2021-08-22T08:06:48Z</time>
      </trkpt>
      <trkpt lat="42.465563" lon="-5.943826">
        <ele>886.8</ele>
        <time>2021-08-22T08:07:11Z</time>
      </trkpt>
      <trkpt lat="42.465639" lon="-5.944064">
        <ele>888.3</ele>
        <time>2021-08-22T08:07:26Z</time>
      </trkpt>
      <trkpt lat="42.465724" lon="-5.944285">
        <ele>886.2</ele>
        <time>2021-08-22T08:07:40Z</time>
      </trkpt>
      <trkpt lat="42.465787" lon="-5.944515">
        <ele>884.2</ele>
        <time>2021-08-22T08:07:54Z</time>
      </trkpt>
      <trkpt lat="42.465833" lon="-5.944760">
        <ele>881.1</ele>
        <time>2021-08-22T08:08:10Z</time>
      </trkpt>
      <trkpt lat="42.465866" lon="-5.945007">
        <ele>879.8</ele>
        <time>2021-08-22T08:08:24Z</time>
      </trkpt>
      <trkpt lat="42.465871" lon="-5.945257">
        <ele>879.2</ele>
        <time>2021-08-22T08:08:38Z</time>
      </trkpt>
      <trkpt lat="42.465895" lon="-5.945522">
        <ele>879.2</ele>
        <time>2021-08-22T08:08:52Z</time>
      </trkpt>
      <trkpt lat="42.465905" lon="-5.945772">
        <ele>878.3</ele>
        <time>2021-08-22T08:09:08Z</time>
      </trkpt>
      <trkpt lat="42.465869" lon="-5.946021">
        <ele>877.0</ele>
        <time>2021-08-22T08:09:23Z</time>
      </trkpt>
      <trkpt lat="42.465830" lon="-5.946264">
        <ele>875.4</ele>
        <time>2021-08-22T08:09:37Z</time>
      </trkpt>
      <trkpt lat="42.465790" lon="-5.946510">
        <ele>875.8</ele>
        <time>2021-08-22T08:09:54Z</time>
      </trkpt>
      <trkpt lat="42.465741" lon="-5.946755">
        <ele>876.0</ele>
        <time>2021-08-22T08:10:07Z</time>
      </trkpt>
      <trkpt lat="42.465720" lon="-5.947006">
        <ele>875.3</ele>
        <time>2021-08-22T08:10:22Z</time>
      </trkpt>
      <trkpt lat="42.465662" lon="-5.947258">
        <ele>876.5</ele>
        <time>2021-08-22T08:10:38Z</time>
      </trkpt>
      <trkpt lat="42.465673" lon="-5.947516">
        <ele>876.2</ele>
        <time>2021-08-22T08:10:52Z</time>
      </trkpt>
      <trkpt lat="42.465646" lon="-5.947759">
        <ele>876.8</ele>
        <time>2021-08-22T08:11:06Z</time>
      </trkpt>
      <trkpt lat="42.465611" lon="-5.948012">
        <ele>875.1</ele>
        <time>2021-08-22T08:11:20Z</time>
      </trkpt>
      <trkpt lat="42.465563" lon="-5.948251">
        <ele>873.1</ele>
        <time>2021-08-22T08:11:33Z</time>
      </trkpt>
      <trkpt lat="42.465548" lon="-5.948497">
        <ele>873.1</ele>
        <time>2021-08-22T08:11:48Z</time>
      </trkpt>
      <trkpt lat="42.465508" lon="-5.948750">
        <ele>873.3</ele>
        <time>2021-08-22T08:12:01Z</time>
      </trkpt>
      <trkpt lat="42.465488" lon="-5.948993">
        <ele>873.6</ele>
        <time>2021-08-22T08:12:14Z</time>
      </trkpt>
      <trkpt lat="42.465444" lon="-5.949234">
        <ele>875.1</ele>
        <time>2021-08-22T08:12:28Z</time>
      </trkpt>
      <trkpt lat="42.465394" lon="-5.949476">
        <ele>874.2</ele>
        <time>2021-08-22T08:12:42Z</time>
      </trkpt>
      <trkpt lat="42.465357" lon="-5.949729">
        <ele>873.9</ele>
        <time>2021-08-22T08:12:56Z</time>
      </trkpt>
      <trkpt lat="42.465334" lon="-5.949988">
        <ele>875.2</ele>
        <time>2021-08-22T08:13:11Z</time>
      </trkpt>
      <trkpt lat="42.465291" lon="-5.950228">
        <ele>874.1</ele>
        <time>2021-08-22T08:13:26Z</time>
      </trkpt>
      <trkpt lat="42.465263" lon="-5.950472">
        <ele>875.4</ele>
        <time>2021-08-22T08:13:40Z</time>
      </trkpt>
      <trkpt lat="42.465220" lon="-5.950718">
        <ele>876.2</ele>
        <time>2021-08-22T08:13:54Z</time>
      </trkpt>
      <trkpt lat="42.465203" lon="-5.950971">
        <ele>876.5</ele>
        <time>2021-08-22T08:14:08Z</time>
      </trkpt>
      <trkpt lat="42.465163" lon="-5.951225">
        <ele>875.4</ele>
        <time>2021-08-22T08:14:22Z</time>
      </trkpt>
      <trkpt lat="42.465164" lon="-5.951469">
        <ele>873.0</ele>
        <time>2021-08-22T08:14:36Z</time>
      </trkpt>
      <trkpt lat="42.465161" lon="-5.951715">
        <ele>873.0</ele>
        <time>2021-08-22T08:14:49Z</time>
      </trkpt>
      <trkpt lat="42.465162" lon="-5.951975">
        <ele>874.3</ele>
        <time>2021-08-22T08:15:02Z</time>
      </trkpt>
      <trkpt lat="42.465150" lon="-5.952225">
        <ele>874.9</ele>
        <time>2021-08-22T08:15:16Z</time>
      </trkpt>
      <trkpt lat="42.465156" lon="-5.952469">
        <ele>877.2</ele>
        <time>2021-08-22T08:15:30Z</time>
      </trkpt>
      <trkpt lat="42.465143" lon="-5.952720">
        <ele>880.0</ele>
        <time>2021-08-22T08:15:43Z</time>
      </trkpt>
      <trkpt lat="42.465143" lon="-5.952967">
        <ele>879.0</ele>
        <time>2021-08-22T08:15:56Z</time>
      </trkpt>
      <trkpt lat="42.465146" lon="-5.953219">
        <ele>879.0</ele>
        <time>2021-08-22T08:16:11Z</time>
      </trkpt>
      <trkpt lat="42.465114" lon="-5.953465">
        <ele>879.2</ele>
        <time>2021-08-22T08:16:25Z</time>
      </trkpt>
      <trkpt lat="42.465155" lon="-5.953721">
        <ele>880.1</ele>
        <time>2021-08-22T08:16:39Z</time>
      </trkpt>
      <trkpt lat="42.465222" lon="-5.953947">
        <ele>880.0</ele>
        <time>2021-08-22T08:16:52Z</time>
      </trkpt>
      <trkpt lat="42.465275" lon="-5.954189">
        <ele>882.0</ele>
        <time>2021-08-22T08:17:07Z</time>
      </trkpt>
      <trkpt lat="42.465328" lon="-5.954431">
        <ele>882.4</ele>
        <time>2021-08-22T08:17:21Z</time>
      </trkpt>
      <trkpt lat="42.465391" lon="-5.954670">
        <ele>879.5</ele>
        <time>2021-08-22T08:17:35Z</time>
      </trkpt>
      <trkpt lat="42.465457" lon="-5.954900">
        <ele>880.9</ele>
        <time>2021-08-22T08:17:48Z</time>
      </trkpt>
      <trkpt lat="42.465515" lon="-5.955138">
        <ele>878.8</ele>
        <time>2021-08-22T08:18:03Z</time>
      </trkpt>
      <trkpt lat="42.465558" lon="-5.955380">
        <ele>878.1</ele>
        <time>2021-08-22T08:18:17Z</time>
      </trkpt>
      <trkpt lat="42.465609" lon="-5.955627">
        <ele>875.1</ele>
        <time>2021-08-22T08:18:32Z</time>
      </trkpt>
      <trkpt lat="42.465700" lon="-5.955849">
        <ele>874.0</ele>
        <time>2021-08-22T08:18:46Z</time>
      </trkpt>
      <trkpt lat="42.465779" lon="-5.956079">
        <ele>873.0</ele>
        <time>2021-08-22T08:18:59Z</time>
      </trkpt>
      <trkpt lat="42.465802" lon="-5.956322">
        <ele>874.1</ele>
        <time>2021-08-22T08:19:14Z</time>
      </trkpt>
      <trkpt lat="42.465829" lon="-5.956572">
        <ele>883.2</ele>
        <time>2021-08-22T08:19:25Z</time>
      </trkpt>
      <trkpt lat="42.465888" lon="-5.956810">
        <ele>881.6</ele>
        <time>2021-08-22T08:19:39Z</time>
      </trkpt>
      <trkpt lat="42.465928" lon="-5.957054">
        <ele>883.2</ele>
        <time>2021-08-22T08:19:53Z</time>
      </trkpt>
      <trkpt lat="42.465989" lon="-5.957295">
        <ele>884.0</ele>
        <time>2021-08-22T08:20:07Z</time>
      </trkpt>
      <trkpt lat="42.466059" lon="-5.957542">
        <ele>886.1</ele>
        <time>2021-08-22T08:20:23Z</time>
      </trkpt>
      <trkpt lat="42.466106" lon="-5.957790">
        <ele>887.5</ele>
        <time>2021-08-22T08:20:36Z</time>
      </trkpt>
      <trkpt lat="42.466123" lon="-5.958034">
        <ele>889.2</ele>
        <time>2021-08-22T08:20:48Z</time>
      </trkpt>
      <trkpt lat="42.466164" lon="-5.958281">
        <ele>888.5</ele>
        <time>2021-08-22T08:21:01Z</time>
      </trkpt>
      <trkpt lat="42.466239" lon="-5.958507">
        <ele>891.0</ele>
        <time>2021-08-22T08:21:16Z</time>
      </trkpt>
      <trkpt lat="42.466310" lon="-5.958732">
        <ele>892.9</ele>
        <time>2021-08-22T08:21:31Z</time>
      </trkpt>
      <trkpt lat="42.466363" lon="-5.958965">
        <ele>894.6</ele>
        <time>2021-08-22T08:21:43Z</time>
      </trkpt>
      <trkpt lat="42.466455" lon="-5.959180">
        <ele>891.9</ele>
        <time>2021-08-22T08:21:56Z</time>
      </trkpt>
      <trkpt lat="42.466522" lon="-5.959410">
        <ele>891.4</ele>
        <time>2021-08-22T08:22:10Z</time>
      </trkpt>
      <trkpt lat="42.466551" lon="-5.959661">
        <ele>894.1</ele>
        <time>2021-08-22T08:22:24Z</time>
      </trkpt>
      <trkpt lat="42.466593" lon="-5.959905">
        <ele>892.3</ele>
        <time>2021-08-22T08:22:38Z</time>
      </trkpt>
      <trkpt lat="42.466600" lon="-5.960150">
        <ele>891.2</ele>
        <time>2021-08-22T08:22:50Z</time>
      </trkpt>
      <trkpt lat="42.466613" lon="-5.960400">
        <ele>891.5</ele>
        <time>2021-08-22T08:23:01Z</time>
      </trkpt>
      <trkpt lat="42.466626" lon="-5.960645">
        <ele>889.8</ele>
        <time>2021-08-22T08:23:17Z</time>
      </trkpt>
      <trkpt lat="42.466671" lon="-5.960883">
        <ele>888.3</ele>
        <time>2021-08-22T08:23:31Z</time>
      </trkpt>
      <trkpt lat="42.466724" lon="-5.961125">
        <ele>890.2</ele>
        <time>2021-08-22T08:23:45Z</time>
      </trkpt>
      <trkpt lat="42.466767" lon="-5.961375">
        <ele>891.3</ele>
        <time>2021-08-22T08:23:58Z</time>
      </trkpt>
      <trkpt lat="42.466781" lon="-5.961625">
        <ele>895.3</ele>
        <time>2021-08-22T08:24:12Z</time>
      </trkpt>
      <trkpt lat="42.466847" lon="-5.961853">
        <ele>896.8</ele>
        <time>2021-08-22T08:24:27Z</time>
      </trkpt>
      <trkpt lat="42.466886" lon="-5.962099">
        <ele>894.0</ele>
        <time>2021-08-22T08:24:42Z</time>
      </trkpt>
      <trkpt lat="42.466996" lon="-5.962302">
        <ele>891.5</ele>
        <time>2021-08-22T08:24:57Z</time>
      </trkpt>
      <trkpt lat="42.467074" lon="-5.962532">
        <ele>895.0</ele>
        <time>2021-08-22T08:25:09Z</time>
      </trkpt>
      <trkpt lat="42.467142" lon="-5.962769">
        <ele>894.1</ele>
        <time>2021-08-22T08:25:25Z</time>
      </trkpt>
      <trkpt lat="42.467149" lon="-5.963049">
        <ele>895.9</ele>
        <time>2021-08-22T08:25:42Z</time>
      </trkpt>
      <trkpt lat="42.467201" lon="-5.963300">
        <ele>897.1</ele>
        <time>2021-08-22T08:25:53Z</time>
      </trkpt>
      <trkpt lat="42.467246" lon="-5.963537">
        <ele>898.9</ele>
        <time>2021-08-22T08:26:07Z</time>
      </trkpt>
      <trkpt lat="42.467265" lon="-5.963787">
        <ele>900.9</ele>
        <time>2021-08-22T08:26:20Z</time>
      </trkpt>
      <trkpt lat="42.467289" lon="-5.964034">
        <ele>902.8</ele>
        <time>2021-08-22T08:26:33Z</time>
      </trkpt>
      <trkpt lat="42.467280" lon="-5.964278">
        <ele>902.5</ele>
        <time>2021-08-22T08:26:47Z</time>
      </trkpt>
      <trkpt lat="42.467230" lon="-5.964529">
        <ele>905.6</ele>
        <time>2021-08-22T08:27:01Z</time>
      </trkpt>
      <trkpt lat="42.467215" lon="-5.964776">
        <ele>907.0</ele>
        <time>2021-08-22T08:27:15Z</time>
      </trkpt>
      <trkpt lat="42.467218" lon="-5.965022">
        <ele>908.0</ele>
        <time>2021-08-22T08:27:29Z</time>
      </trkpt>
      <trkpt lat="42.467216" lon="-5.965268">
        <ele>908.9</ele>
        <time>2021-08-22T08:27:41Z</time>
      </trkpt>
      <trkpt lat="42.467240" lon="-5.965511">
        <ele>909.4</ele>
        <time>2021-08-22T08:27:53Z</time>
      </trkpt>
      <trkpt lat="42.467267" lon="-5.965756">
        <ele>908.6</ele>
        <time>2021-08-22T08:28:08Z</time>
      </trkpt>
      <trkpt lat="42.467294" lon="-5.966004">
        <ele>909.7</ele>
        <time>2021-08-22T08:28:21Z</time>
      </trkpt>
      <trkpt lat="42.467327" lon="-5.966247">
        <ele>911.2</ele>
        <time>2021-08-22T08:28:33Z</time>
      </trkpt>
      <trkpt lat="42.467393" lon="-5.966493">
        <ele>912.3</ele>
        <time>2021-08-22T08:28:47Z</time>
      </trkpt>
      <trkpt lat="42.467438" lon="-5.966738">
        <ele>914.5</ele>
        <time>2021-08-22T08:29:01Z</time>
      </trkpt>
      <trkpt lat="42.467450" lon="-5.966993">
        <ele>915.1</ele>
        <time>2021-08-22T08:29:16Z</time>
      </trkpt>
      <trkpt lat="42.467435" lon="-5.967241">
        <ele>917.0</ele>
        <time>2021-08-22T08:29:32Z</time>
      </trkpt>
      <trkpt lat="42.467407" lon="-5.967484">
        <ele>916.3</ele>
        <time>2021-08-22T08:29:46Z</time>
      </trkpt>
      <trkpt lat="42.467365" lon="-5.967726">
        <ele>917.4</ele>
        <time>2021-08-22T08:29:59Z</time>
      </trkpt>
      <trkpt lat="42.467348" lon="-5.967975">
        <ele>917.1</ele>
        <time>2021-08-22T08:30:11Z</time>
      </trkpt>
      <trkpt lat="42.467311" lon="-5.968220">
        <ele>917.3</ele>
        <time>2021-08-22T08:30:26Z</time>
      </trkpt>
      <trkpt lat="42.467292" lon="-5.968477">
        <ele>917.7</ele>
        <time>2021-08-22T08:30:41Z</time>
      </trkpt>
      <trkpt lat="42.467268" lon="-5.968725">
        <ele>917.5</ele>
        <time>2021-08-22T08:30:56Z</time>
      </trkpt>
      <trkpt lat="42.467199" lon="-5.968983">
        <ele>915.2</ele>
        <time>2021-08-22T08:31:11Z</time>
      </trkpt>
      <trkpt lat="42.467165" lon="-5.969233">
        <ele>912.0</ele>
        <time>2021-08-22T08:31:27Z</time>
      </trkpt>
      <trkpt lat="42.467099" lon="-5.969479">
        <ele>909.0</ele>
        <time>2021-08-22T08:31:42Z</time>
      </trkpt>
      <trkpt lat="42.467087" lon="-5.969730">
        <ele>908.7</ele>
        <time>2021-08-22T08:31:55Z</time>
      </trkpt>
      <trkpt lat="42.467039" lon="-5.969969">
        <ele>906.8</ele>
        <time>2021-08-22T08:32:10Z</time>
      </trkpt>
      <trkpt lat="42.467021" lon="-5.970221">
        <ele>906.0</ele>
        <time>2021-08-22T08:32:32Z</time>
      </trkpt>
      <trkpt lat="42.466974" lon="-5.970461">
        <ele>908.9</ele>
        <time>2021-08-22T08:32:46Z</time>
      </trkpt>
      <trkpt lat="42.466881" lon="-5.970680">
        <ele>910.0</ele>
        <time>2021-08-22T08:33:01Z</time>
      </trkpt>
      <trkpt lat="42.466745" lon="-5.970843">
        <ele>912.7</ele>
        <time>2021-08-22T08:33:18Z</time>
      </trkpt>
      <trkpt lat="42.466705" lon="-5.971090">
        <ele>912.4</ele>
        <time>2021-08-22T08:33:32Z</time>
      </trkpt>
      <trkpt lat="42.466597" lon="-5.971294">
        <ele>912.8</ele>
        <time>2021-08-22T08:33:50Z</time>
      </trkpt>
      <trkpt lat="42.466512" lon="-5.971517">
        <ele>915.5</ele>
        <time>2021-08-22T08:34:06Z</time>
      </trkpt>
      <trkpt lat="42.466362" lon="-5.971653">
        <ele>918.1</ele>
        <time>2021-08-22T08:34:20Z</time>
      </trkpt>
      <trkpt lat="42.466236" lon="-5.971830">
        <ele>919.4</ele>
        <time>2021-08-22T08:34:34Z</time>
      </trkpt>
      <trkpt lat="42.466127" lon="-5.972037">
        <ele>917.5</ele>
        <time>2021-08-22T08:34:48Z</time>
      </trkpt>
      <trkpt lat="42.466058" lon="-5.972267">
        <ele>916.4</ele>
        <time>2021-08-22T08:35:01Z</time>
      </trkpt>
      <trkpt lat="42.465993" lon="-5.972501">
        <ele>917.1</ele>
        <time>2021-08-22T08:35:17Z</time>
      </trkpt>
      <trkpt lat="42.465864" lon="-5.972696">
        <ele>920.3</ele>
        <time>2021-08-22T08:35:33Z</time>
      </trkpt>
      <trkpt lat="42.465752" lon="-5.972897">
        <ele>919.9</ele>
        <time>2021-08-22T08:35:45Z</time>
      </trkpt>
      <trkpt lat="42.465657" lon="-5.973128">
        <ele>920.8</ele>
        <time>2021-08-22T08:36:00Z</time>
      </trkpt>
      <trkpt lat="42.465538" lon="-5.973320">
        <ele>919.5</ele>
        <time>2021-08-22T08:36:15Z</time>
      </trkpt>
      <trkpt lat="42.465418" lon="-5.973505">
        <ele>919.6</ele>
        <time>2021-08-22T08:36:30Z</time>
      </trkpt>
      <trkpt lat="42.465325" lon="-5.973720">
        <ele>917.9</ele>
        <time>2021-08-22T08:36:44Z</time>
      </trkpt>
      <trkpt lat="42.465211" lon="-5.973924">
        <ele>918.0</ele>
        <time>2021-08-22T08:36:59Z</time>
      </trkpt>
      <trkpt lat="42.465130" lon="-5.974148">
        <ele>914.7</ele>
        <time>2021-08-22T08:37:14Z</time>
      </trkpt>
      <trkpt lat="42.465027" lon="-5.974352">
        <ele>913.9</ele>
        <time>2021-08-22T08:37:29Z</time>
      </trkpt>
      <trkpt lat="42.464912" lon="-5.974539">
        <ele>913.0</ele>
        <time>2021-08-22T08:37:43Z</time>
      </trkpt>
      <trkpt lat="42.464805" lon="-5.974740">
        <ele>908.5</ele>
        <time>2021-08-22T08:37:58Z</time>
      </trkpt>
      <trkpt lat="42.464682" lon="-5.974925">
        <ele>907.4</ele>
        <time>2021-08-22T08:38:14Z</time>
      </trkpt>
      <trkpt lat="42.464544" lon="-5.975095">
        <ele>904.0</ele>
        <time>2021-08-22T08:38:29Z</time>
      </trkpt>
      <trkpt lat="42.464402" lon="-5.975244">
        <ele>900.2</ele>
        <time>2021-08-22T08:38:44Z</time>
      </trkpt>
      <trkpt lat="42.464234" lon="-5.975363">
        <ele>899.1</ele>
        <time>2021-08-22T08:38:58Z</time>
      </trkpt>
      <trkpt lat="42.464082" lon="-5.975516">
        <ele>897.8</ele>
        <time>2021-08-22T08:39:13Z</time>
      </trkpt>
      <trkpt lat="42.463919" lon="-5.975641">
        <ele>894.5</ele>
        <time>2021-08-22T08:39:29Z</time>
      </trkpt>
      <trkpt lat="42.463754" lon="-5.975781">
        <ele>893.8</ele>
        <time>2021-08-22T08:39:44Z</time>
      </trkpt>
      <trkpt lat="42.463604" lon="-5.975923">
        <ele>891.7</ele>
        <time>2021-08-22T08:40:00Z</time>
      </trkpt>
      <trkpt lat="42.463465" lon="-5.976080">
        <ele>889.2</ele>
        <time>2021-08-22T08:40:14Z</time>
      </trkpt>
      <trkpt lat="42.463372" lon="-5.976301">
        <ele>887.0</ele>
        <time>2021-08-22T08:40:31Z</time>
      </trkpt>
      <trkpt lat="42.463298" lon="-5.976529">
        <ele>883.6</ele>
        <time>2021-08-22T08:40:47Z</time>
      </trkpt>
      <trkpt lat="42.463240" lon="-5.976772">
        <ele>884.0</ele>
        <time>2021-08-22T08:41:00Z</time>
      </trkpt>
      <trkpt lat="42.463157" lon="-5.977003">
        <ele>884.0</ele>
        <time>2021-08-22T08:41:18Z</time>
      </trkpt>
      <trkpt lat="42.463063" lon="-5.977216">
        <ele>880.2</ele>
        <time>2021-08-22T08:41:28Z</time>
      </trkpt>
      <trkpt lat="42.462998" lon="-5.977447">
        <ele>880.1</ele>
        <time>2021-08-22T08:41:41Z</time>
      </trkpt>
      <trkpt lat="42.462921" lon="-5.977690">
        <ele>883.8</ele>
        <time>2021-08-22T08:41:57Z</time>
      </trkpt>
      <trkpt lat="42.462848" lon="-5.977917">
        <ele>886.8</ele>
        <time>2021-08-22T08:42:13Z</time>
      </trkpt>
      <trkpt lat="42.462787" lon="-5.978149">
        <ele>887.7</ele>
        <time>2021-08-22T08:42:30Z</time>
      </trkpt>
      <trkpt lat="42.462686" lon="-5.978354">
        <ele>889.4</ele>
        <time>2021-08-22T08:42:44Z</time>
      </trkpt>
      <trkpt lat="42.462588" lon="-5.978563">
        <ele>888.7</ele>
        <time>2021-08-22T08:42:58Z</time>
      </trkpt>
      <trkpt lat="42.462477" lon="-5.978758">
        <ele>889.3</ele>
        <time>2021-08-22T08:43:13Z</time>
      </trkpt>
      <trkpt lat="42.462349" lon="-5.978930">
        <ele>891.5</ele>
        <time>2021-08-22T08:43:26Z</time>
      </trkpt>
      <trkpt lat="42.462254" lon="-5.979138">
        <ele>893.0</ele>
        <time>2021-08-22T08:43:49Z</time>
      </trkpt>
      <trkpt lat="42.462139" lon="-5.979339">
        <ele>895.0</ele>
        <time>2021-08-22T08:44:03Z</time>
      </trkpt>
      <trkpt lat="42.462023" lon="-5.979536">
        <ele>898.4</ele>
        <time>2021-08-22T08:44:19Z</time>
      </trkpt>
      <trkpt lat="42.461905" lon="-5.979745">
        <ele>900.6</ele>
        <time>2021-08-22T08:44:32Z</time>
      </trkpt>
      <trkpt lat="42.461780" lon="-5.979937">
        <ele>900.0</ele>
        <time>2021-08-22T08:44:44Z</time>
      </trkpt>
      <trkpt lat="42.461669" lon="-5.980130">
        <ele>899.7</ele>
        <time>2021-08-22T08:45:01Z</time>
      </trkpt>
      <trkpt lat="42.461557" lon="-5.980333">
        <ele>901.2</ele>
        <time>2021-08-22T08:45:16Z</time>
      </trkpt>
      <trkpt lat="42.461437" lon="-5.980519">
        <ele>904.2</ele>
        <time>2021-08-22T08:45:30Z</time>
      </trkpt>
      <trkpt lat="42.461306" lon="-5.980696">
        <ele>910.6</ele>
        <time>2021-08-22T08:45:45Z</time>
      </trkpt>
      <trkpt lat="42.461201" lon="-5.980894">
        <ele>912.6</ele>
        <time>2021-08-22T08:45:59Z</time>
      </trkpt>
      <trkpt lat="42.461091" lon="-5.981092">
        <ele>915.2</ele>
        <time>2021-08-22T08:46:16Z</time>
      </trkpt>
      <trkpt lat="42.460992" lon="-5.981296">
        <ele>914.6</ele>
        <time>2021-08-22T08:46:35Z</time>
      </trkpt>
      <trkpt lat="42.460914" lon="-5.981523">
        <ele>916.7</ele>
        <time>2021-08-22T08:46:52Z</time>
      </trkpt>
      <trkpt lat="42.460844" lon="-5.981752">
        <ele>917.9</ele>
        <time>2021-08-22T08:47:06Z</time>
      </trkpt>
      <trkpt lat="42.460790" lon="-5.981992">
        <ele>916.5</ele>
        <time>2021-08-22T08:47:21Z</time>
      </trkpt>
      <trkpt lat="42.460729" lon="-5.982222">
        <ele>920.4</ele>
        <time>2021-08-22T08:47:35Z</time>
      </trkpt>
      <trkpt lat="42.460632" lon="-5.982441">
        <ele>920.5</ele>
        <time>2021-08-22T08:47:50Z</time>
      </trkpt>
      <trkpt lat="42.460587" lon="-5.982686">
        <ele>919.5</ele>
        <time>2021-08-22T08:48:04Z</time>
      </trkpt>
      <trkpt lat="42.460531" lon="-5.982918">
        <ele>919.0</ele>
        <time>2021-08-22T08:48:18Z</time>
      </trkpt>
      <trkpt lat="42.460472" lon="-5.983149">
        <ele>918.7</ele>
        <time>2021-08-22T08:48:32Z</time>
      </trkpt>
      <trkpt lat="42.460403" lon="-5.983385">
        <ele>920.7</ele>
        <time>2021-08-22T08:48:48Z</time>
      </trkpt>
      <trkpt lat="42.460338" lon="-5.983627">
        <ele>917.9</ele>
        <time>2021-08-22T08:49:01Z</time>
      </trkpt>
      <trkpt lat="42.460261" lon="-5.983848">
        <ele>919.3</ele>
        <time>2021-08-22T08:49:16Z</time>
      </trkpt>
      <trkpt lat="42.460244" lon="-5.984102">
        <ele>920.7</ele>
        <time>2021-08-22T08:49:30Z</time>
      </trkpt>
      <trkpt lat="42.460217" lon="-5.984351">
        <ele>921.1</ele>
        <time>2021-08-22T08:49:46Z</time>
      </trkpt>
      <trkpt lat="42.460174" lon="-5.984589">
        <ele>920.7</ele>
        <time>2021-08-22T08:49:59Z</time>
      </trkpt>
      <trkpt lat="42.460101" lon="-5.984817">
        <ele>920.9</ele>
        <time>2021-08-22T08:50:14Z</time>
      </trkpt>
      <trkpt lat="42.460048" lon="-5.985067">
        <ele>920.9</ele>
        <time>2021-08-22T08:50:28Z</time>
      </trkpt>
      <trkpt lat="42.459973" lon="-5.985292">
        <ele>920.4</ele>
        <time>2021-08-22T08:50:45Z</time>
      </trkpt>
      <trkpt lat="42.459922" lon="-5.985529">
        <ele>919.0</ele>
        <time>2021-08-22T08:51:08Z</time>
      </trkpt>
      <trkpt lat="42.459865" lon="-5.985763">
        <ele>921.1</ele>
        <time>2021-08-22T08:51:20Z</time>
      </trkpt>
      <trkpt lat="42.459794" lon="-5.985991">
        <ele>920.6</ele>
        <time>2021-08-22T08:51:35Z</time>
      </trkpt>
      <trkpt lat="42.459757" lon="-5.986231">
        <ele>918.0</ele>
        <time>2021-08-22T08:51:56Z</time>
      </trkpt>
      <trkpt lat="42.459716" lon="-5.986471">
        <ele>919.1</ele>
        <time>2021-08-22T08:52:10Z</time>
      </trkpt>
      <trkpt lat="42.459699" lon="-5.986730">
        <ele>915.5</ele>
        <time>2021-08-22T08:52:46Z</time>
      </trkpt>
      <trkpt lat="42.459643" lon="-5.986971">
        <ele>917.0</ele>
        <time>2021-08-22T08:53:00Z</time>
      </trkpt>
      <trkpt lat="42.459565" lon="-5.987202">
        <ele>917.3</ele>
        <time>2021-08-22T08:53:13Z</time>
      </trkpt>
      <trkpt lat="42.459549" lon="-5.987447">
        <ele>919.0</ele>
        <time>2021-08-22T08:53:27Z</time>
      </trkpt>
      <trkpt lat="42.459561" lon="-5.987695">
        <ele>915.3</ele>
        <time>2021-08-22T08:53:46Z</time>
      </trkpt>
      <trkpt lat="42.459485" lon="-5.987940">
        <ele>914.2</ele>
        <time>2021-08-22T08:54:00Z</time>
      </trkpt>
      <trkpt lat="42.459417" lon="-5.988173">
        <ele>914.1</ele>
        <time>2021-08-22T08:54:19Z</time>
      </trkpt>
      <trkpt lat="42.459370" lon="-5.988413">
        <ele>914.4</ele>
        <time>2021-08-22T08:54:32Z</time>
      </trkpt>
      <trkpt lat="42.459320" lon="-5.988655">
        <ele>913.0</ele>
        <time>2021-08-22T08:54:44Z</time>
      </trkpt>
      <trkpt lat="42.459298" lon="-5.988912">
        <ele>912.8</ele>
        <time>2021-08-22T08:54:59Z</time>
      </trkpt>
      <trkpt lat="42.459228" lon="-5.989147">
        <ele>915.5</ele>
        <time>2021-08-22T08:55:16Z</time>
      </trkpt>
      <trkpt lat="42.459228" lon="-5.989402">
        <ele>914.4</ele>
        <time>2021-08-22T08:55:30Z</time>
      </trkpt>
      <trkpt lat="42.459193" lon="-5.989653">
        <ele>915.5</ele>
        <time>2021-08-22T08:55:43Z</time>
      </trkpt>
      <trkpt lat="42.459139" lon="-5.989903">
        <ele>918.0</ele>
        <time>2021-08-22T08:55:59Z</time>
      </trkpt>
      <trkpt lat="42.459086" lon="-5.990137">
        <ele>919.5</ele>
        <time>2021-08-22T08:56:15Z</time>
      </trkpt>
      <trkpt lat="42.459071" lon="-5.990406">
        <ele>921.9</ele>
        <time>2021-08-22T08:56:29Z</time>
      </trkpt>
      <trkpt lat="42.459033" lon="-5.990645">
        <ele>918.5</ele>
        <time>2021-08-22T08:56:43Z</time>
      </trkpt>
      <trkpt lat="42.458991" lon="-5.990882">
        <ele>920.3</ele>
        <time>2021-08-22T08:56:55Z</time>
      </trkpt>
      <trkpt lat="42.458961" lon="-5.991128">
        <ele>920.2</ele>
        <time>2021-08-22T08:57:09Z</time>
      </trkpt>
      <trkpt lat="42.458918" lon="-5.991366">
        <ele>921.7</ele>
        <time>2021-08-22T08:57:23Z</time>
      </trkpt>
      <trkpt lat="42.458885" lon="-5.991607">
        <ele>921.3</ele>
        <time>2021-08-22T08:57:36Z</time>
      </trkpt>
      <trkpt lat="42.458845" lon="-5.991853">
        <ele>922.7</ele>
        <time>2021-08-22T08:57:50Z</time>
      </trkpt>
      <trkpt lat="42.458746" lon="-5.992063">
        <ele>920.0</ele>
        <time>2021-08-22T08:58:04Z</time>
      </trkpt>
      <trkpt lat="42.458624" lon="-5.992252">
        <ele>918.2</ele>
        <time>2021-08-22T08:58:18Z</time>
      </trkpt>
      <trkpt lat="42.458496" lon="-5.992428">
        <ele>918.0</ele>
        <time>2021-08-22T08:58:33Z</time>
      </trkpt>
      <trkpt lat="42.458362" lon="-5.992612">
        <ele>918.8</ele>
        <time>2021-08-22T08:58:47Z</time>
      </trkpt>
      <trkpt lat="42.458220" lon="-5.992796">
        <ele>917.3</ele>
        <time>2021-08-22T08:59:01Z</time>
      </trkpt>
      <trkpt lat="42.458083" lon="-5.992958">
        <ele>917.2</ele>
        <time>2021-08-22T08:59:14Z</time>
      </trkpt>
      <trkpt lat="42.457952" lon="-5.993127">
        <ele>917.6</ele>
        <time>2021-08-22T08:59:28Z</time>
      </trkpt>
      <trkpt lat="42.457813" lon="-5.993282">
        <ele>919.7</ele>
        <time>2021-08-22T08:59:45Z</time>
      </trkpt>
      <trkpt lat="42.457682" lon="-5.993468">
        <ele>918.0</ele>
        <time>2021-08-22T09:00:12Z</time>
      </trkpt>
      <trkpt lat="42.457534" lon="-5.993610">
        <ele>918.0</ele>
        <time>2021-08-22T09:00:31Z</time>
      </trkpt>
      <trkpt lat="42.457381" lon="-5.993746">
        <ele>918.7</ele>
        <time>2021-08-22T09:00:48Z</time>
      </trkpt>
      <trkpt lat="42.457261" lon="-5.993958">
        <ele>919.2</ele>
        <time>2021-08-22T09:01:01Z</time>
      </trkpt>
      <trkpt lat="42.457133" lon="-5.994133">
        <ele>915.9</ele>
        <time>2021-08-22T09:01:15Z</time>
      </trkpt>
      <trkpt lat="42.457005" lon="-5.994323">
        <ele>916.0</ele>
        <time>2021-08-22T09:01:30Z</time>
      </trkpt>
      <trkpt lat="42.456858" lon="-5.994481">
        <ele>919.0</ele>
        <time>2021-08-22T09:01:43Z</time>
      </trkpt>
      <trkpt lat="42.456730" lon="-5.994661">
        <ele>919.1</ele>
        <time>2021-08-22T09:01:56Z</time>
      </trkpt>
      <trkpt lat="42.456590" lon="-5.994825">
        <ele>916.8</ele>
        <time>2021-08-22T09:02:10Z</time>
      </trkpt>
      <trkpt lat="42.456471" lon="-5.995009">
        <ele>917.6</ele>
        <time>2021-08-22T09:02:24Z</time>
      </trkpt>
      <trkpt lat="42.456337" lon="-5.995173">
        <ele>919.1</ele>
        <time>2021-08-22T09:02:37Z</time>
      </trkpt>
      <trkpt lat="42.456215" lon="-5.995353">
        <ele>917.2</ele>
        <time>2021-08-22T09:02:51Z</time>
      </trkpt>
      <trkpt lat="42.456106" lon="-5.995563">
        <ele>917.3</ele>
        <time>2021-08-22T09:03:06Z</time>
      </trkpt>
      <trkpt lat="42.455951" lon="-5.995715">
        <ele>917.7</ele>
        <time>2021-08-22T09:04:12Z</time>
      </trkpt>
      <trkpt lat="42.455833" lon="-5.995900">
        <ele>920.6</ele>
        <time>2021-08-22T09:04:23Z</time>
      </trkpt>
      <trkpt lat="42.455698" lon="-5.996065">
        <ele>914.9</ele>
        <time>2021-08-22T09:10:07Z</time>
      </trkpt>
      <trkpt lat="42.455590" lon="-5.996278">
        <ele>914.9</ele>
        <time>2021-08-22T09:10:29Z</time>
      </trkpt>
      <trkpt lat="42.455471" lon="-5.996465">
        <ele>915.6</ele>
        <time>2021-08-22T09:10:48Z</time>
      </trkpt>
      <trkpt lat="42.455344" lon="-5.996673">
        <ele>915.8</ele>
        <time>2021-08-22T09:11:04Z</time>
      </trkpt>
      <trkpt lat="42.455212" lon="-5.996871">
        <ele>918.3</ele>
        <time>2021-08-22T09:11:19Z</time>
      </trkpt>
      <trkpt lat="42.455112" lon="-5.997075">
        <ele>915.6</ele>
        <time>2021-08-22T09:11:37Z</time>
      </trkpt>
      <trkpt lat="42.454988" lon="-5.997259">
        <ele>915.9</ele>
        <time>2021-08-22T09:11:50Z</time>
      </trkpt>
      <trkpt lat="42.454872" lon="-5.997455">
        <ele>914.4</ele>
        <time>2021-08-22T09:12:04Z</time>
      </trkpt>
      <trkpt lat="42.454757" lon="-5.997652">
        <ele>916.1</ele>
        <time>2021-08-22T09:12:18Z</time>
      </trkpt>
      <trkpt lat="42.454645" lon="-5.997845">
        <ele>915.8</ele>
        <time>2021-08-22T09:12:33Z</time>
      </trkpt>
      <trkpt lat="42.454532" lon="-5.998048">
        <ele>917.2</ele>
        <time>2021-08-22T09:12:47Z</time>
      </trkpt>
      <trkpt lat="42.454414" lon="-5.998242">
        <ele>916.8</ele>
        <time>2021-08-22T09:13:00Z</time>
      </trkpt>
      <trkpt lat="42.454290" lon="-5.998427">
        <ele>918.0</ele>
        <time>2021-08-22T09:13:17Z</time>
      </trkpt>
      <trkpt lat="42.454187" lon="-5.998631">
        <ele>916.4</ele>
        <time>2021-08-22T09:13:31Z</time>
      </trkpt>
      <trkpt lat="42.454060" lon="-5.998809">
        <ele>916.7</ele>
        <time>2021-08-22T09:13:45Z</time>
      </trkpt>
      <trkpt lat="42.453982" lon="-5.999030">
        <ele>917.9</ele>
        <time>2021-08-22T09:13:58Z</time>
      </trkpt>
      <trkpt lat="42.453909" lon="-5.999265">
        <ele>916.0</ele>
        <time>2021-08-22T09:14:29Z</time>
      </trkpt>
      <trkpt lat="42.453890" lon="-5.999513">
        <ele>917.4</ele>
        <time>2021-08-22T09:14:56Z</time>
      </trkpt>
      <trkpt lat="42.453908" lon="-5.999771">
        <ele>913.0</ele>
        <time>2021-08-22T09:15:27Z</time>
      </trkpt>
      <trkpt lat="42.453921" lon="-6.000022">
        <ele>917.1</ele>
        <time>2021-08-22T09:18:08Z</time>
      </trkpt>
      <trkpt lat="42.453895" lon="-6.000278">
        <ele>915.1</ele>
        <time>2021-08-22T09:18:23Z</time>
      </trkpt>
      <trkpt lat="42.453935" lon="-6.000521">
        <ele>913.1</ele>
        <time>2021-08-22T09:18:38Z</time>
      </trkpt>
      <trkpt lat="42.453983" lon="-6.000769">
        <ele>911.7</ele>
        <time>2021-08-22T09:18:54Z</time>
      </trkpt>
      <trkpt lat="42.454045" lon="-6.000998">
        <ele>911.2</ele>
        <time>2021-08-22T09:19:08Z</time>
      </trkpt>
      <trkpt lat="42.454136" lon="-6.001218">
        <ele>908.3</ele>
        <time>2021-08-22T09:19:24Z</time>
      </trkpt>
      <trkpt lat="42.454226" lon="-6.001430">
        <ele>907.5</ele>
        <time>2021-08-22T09:19:38Z</time>
      </trkpt>
      <trkpt lat="42.454259" lon="-6.001679">
        <ele>903.1</ele>
        <time>2021-08-22T09:19:53Z</time>
      </trkpt>
      <trkpt lat="42.454270" lon="-6.001930">
        <ele>898.8</ele>
        <time>2021-08-22T09:20:12Z</time>
      </trkpt>
      <trkpt lat="42.454285" lon="-6.002178">
        <ele>893.5</ele>
        <time>2021-08-22T09:20:26Z</time>
      </trkpt>
      <trkpt lat="42.454355" lon="-6.002407">
        <ele>891.8</ele>
        <time>2021-08-22T09:20:42Z</time>
      </trkpt>
      <trkpt lat="42.454404" lon="-6.002654">
        <ele>890.0</ele>
        <time>2021-08-22T09:20:55Z</time>
      </trkpt>
      <trkpt lat="42.454444" lon="-6.002893">
        <ele>888.4</ele>
        <time>2021-08-22T09:21:10Z</time>
      </trkpt>
      <trkpt lat="42.454483" lon="-6.003156">
        <ele>884.3</ele>
        <time>2021-08-22T09:21:26Z</time>
      </trkpt>
      <trkpt lat="42.454519" lon="-6.003399">
        <ele>881.7</ele>
        <time>2021-08-22T09:21:41Z</time>
      </trkpt>
      <trkpt lat="42.454515" lon="-6.003652">
        <ele>876.7</ele>
        <time>2021-08-22T09:21:57Z</time>
      </trkpt>
      <trkpt lat="42.454493" lon="-6.003898">
        <ele>874.7</ele>
        <time>2021-08-22T09:22:10Z</time>
      </trkpt>
      <trkpt lat="42.454480" lon="-6.004144">
        <ele>874.8</ele>
        <time>2021-08-22T09:22:25Z</time>
      </trkpt>
      <trkpt lat="42.454465" lon="-6.004406">
        <ele>873.5</ele>
        <time>2021-08-22T09:22:42Z</time>
      </trkpt>
      <trkpt lat="42.454450" lon="-6.004649">
        <ele>873.1</ele>
        <time>2021-08-22T09:22:55Z</time>
      </trkpt>
      <trkpt lat="42.454426" lon="-6.004896">
        <ele>872.2</ele>
        <time>2021-08-22T09:23:10Z</time>
      </trkpt>
      <trkpt lat="42.454384" lon="-6.005155">
        <ele>870.0</ele>
        <time>2021-08-22T09:23:27Z</time>
      </trkpt>
      <trkpt lat="42.454367" lon="-6.005404">
        <ele>867.5</ele>
        <time>2021-08-22T09:23:41Z</time>
      </trkpt>
      <trkpt lat="42.454363" lon="-6.005655">
        <ele>865.6</ele>
        <time>2021-08-22T09:23:56Z</time>
      </trkpt>
      <trkpt lat="42.454295" lon="-6.005892">
        <ele>864.7</ele>
        <time>2021-08-22T09:24:13Z</time>
      </trkpt>
      <trkpt lat="42.454331" lon="-6.006133">
        <ele>864.8</ele>
        <time>2021-08-22T09:24:39Z</time>
      </trkpt>
      <trkpt lat="42.454295" lon="-6.006375">
        <ele>866.4</ele>
        <time>2021-08-22T09:25:43Z</time>
      </trkpt>
      <trkpt lat="42.454324" lon="-6.006631">
        <ele>865.0</ele>
        <time>2021-08-22T09:25:58Z</time>
      </trkpt>
      <trkpt lat="42.454324" lon="-6.006884">
        <ele>864.7</ele>
        <time>2021-08-22T09:26:13Z</time>
      </trkpt>
      <trkpt lat="42.454337" lon="-6.007129">
        <ele>864.5</ele>
        <time>2021-08-22T09:26:29Z</time>
      </trkpt>
      <trkpt lat="42.454343" lon="-6.007381">
        <ele>861.4</ele>
        <time>2021-08-22T09:26:44Z</time>
      </trkpt>
      <trkpt lat="42.454334" lon="-6.007642">
        <ele>864.2</ele>
        <time>2021-08-22T09:27:01Z</time>
      </trkpt>
      <trkpt lat="42.454339" lon="-6.007894">
        <ele>864.5</ele>
        <time>2021-08-22T09:27:18Z</time>
      </trkpt>
      <trkpt lat="42.454335" lon="-6.008144">
        <ele>864.5</ele>
        <time>2021-08-22T09:27:32Z</time>
      </trkpt>
      <trkpt lat="42.454344" lon="-6.008394">
        <ele>864.8</ele>
        <time>2021-08-22T09:27:46Z</time>
      </trkpt>
      <trkpt lat="42.454326" lon="-6.008642">
        <ele>862.2</ele>
        <time>2021-08-22T09:28:01Z</time>
      </trkpt>
      <trkpt lat="42.454317" lon="-6.008888">
        <ele>858.7</ele>
        <time>2021-08-22T09:28:16Z</time>
      </trkpt>
      <trkpt lat="42.454327" lon="-6.009137">
        <ele>858.0</ele>
        <time>2021-08-22T09:28:32Z</time>
      </trkpt>
      <trkpt lat="42.454333" lon="-6.009381">
        <ele>857.4</ele>
        <time>2021-08-22T09:28:48Z</time>
      </trkpt>
      <trkpt lat="42.454345" lon="-6.009634">
        <ele>857.1</ele>
        <time>2021-08-22T09:29:04Z</time>
      </trkpt>
      <trkpt lat="42.454337" lon="-6.009883">
        <ele>857.1</ele>
        <time>2021-08-22T09:29:18Z</time>
      </trkpt>
      <trkpt lat="42.454339" lon="-6.010129">
        <ele>857.0</ele>
        <time>2021-08-22T09:29:30Z</time>
      </trkpt>
      <trkpt lat="42.454324" lon="-6.010388">
        <ele>856.7</ele>
        <time>2021-08-22T09:29:44Z</time>
      </trkpt>
      <trkpt lat="42.454304" lon="-6.010647">
        <ele>856.8</ele>
        <time>2021-08-22T09:29:59Z</time>
      </trkpt>
      <trkpt lat="42.454274" lon="-6.010902">
        <ele>856.6</ele>
        <time>2021-08-22T09:30:11Z</time>
      </trkpt>
      <trkpt lat="42.454270" lon="-6.011150">
        <ele>856.4</ele>
        <time>2021-08-22T09:30:26Z</time>
      </trkpt>
      <trkpt lat="42.454283" lon="-6.011403">
        <ele>856.2</ele>
        <time>2021-08-22T09:30:39Z</time>
      </trkpt>
      <trkpt lat="42.454261" lon="-6.011649">
        <ele>855.8</ele>
        <time>2021-08-22T09:30:54Z</time>
      </trkpt>
      <trkpt lat="42.454255" lon="-6.011900">
        <ele>853.2</ele>
        <time>2021-08-22T09:31:07Z</time>
      </trkpt>
      <trkpt lat="42.454280" lon="-6.012144">
        <ele>851.7</ele>
        <time>2021-08-22T09:31:23Z</time>
      </trkpt>
      <trkpt lat="42.454285" lon="-6.012389">
        <ele>852.3</ele>
        <time>2021-08-22T09:31:40Z</time>
      </trkpt>
      <trkpt lat="42.454280" lon="-6.012636">
        <ele>852.9</ele>
        <time>2021-08-22T09:31:53Z</time>
      </trkpt>
      <trkpt lat="42.454236" lon="-6.012882">
        <ele>853.2</ele>
        <time>2021-08-22T09:32:08Z</time>
      </trkpt>
      <trkpt lat="42.454231" lon="-6.013129">
        <ele>853.1</ele>
        <time>2021-08-22T09:32:22Z</time>
      </trkpt>
      <trkpt lat="42.454214" lon="-6.013375">
        <ele>852.6</ele>
        <time>2021-08-22T09:32:41Z</time>
      </trkpt>
      <trkpt lat="42.454167" lon="-6.013616">
        <ele>852.4</ele>
        <time>2021-08-22T09:32:56Z</time>
      </trkpt>
      <trkpt lat="42.454172" lon="-6.013867">
        <ele>852.0</ele>
        <time>2021-08-22T09:33:10Z</time>
      </trkpt>
      <trkpt lat="42.454171" lon="-6.014122">
        <ele>851.6</ele>
        <time>2021-08-22T09:33:23Z</time>
      </trkpt>
      <trkpt lat="42.454178" lon="-6.014386">
        <ele>851.3</ele>
        <time>2021-08-22T09:33:39Z</time>
      </trkpt>
      <trkpt lat="42.454233" lon="-6.014620">
        <ele>851.1</ele>
        <time>2021-08-22T09:33:52Z</time>
      </trkpt>
      <trkpt lat="42.454220" lon="-6.014871">
        <ele>850.9</ele>
        <time>2021-08-22T09:34:05Z</time>
      </trkpt>
      <trkpt lat="42.454189" lon="-6.015118">
        <ele>850.5</ele>
        <time>2021-08-22T09:34:22Z</time>
      </trkpt>
      <trkpt lat="42.454193" lon="-6.015367">
        <ele>850.2</ele>
        <time>2021-08-22T09:34:36Z</time>
      </trkpt>
      <trkpt lat="42.454197" lon="-6.015612">
        <ele>850.0</ele>
        <time>2021-08-22T09:34:49Z</time>
      </trkpt>
      <trkpt lat="42.454248" lon="-6.015859">
        <ele>849.1</ele>
        <time>2021-08-22T09:35:07Z</time>
      </trkpt>
      <trkpt lat="42.454268" lon="-6.016117">
        <ele>848.9</ele>
        <time>2021-08-22T09:35:23Z</time>
      </trkpt>
      <trkpt lat="42.454292" lon="-6.016374">
        <ele>849.2</ele>
        <time>2021-08-22T09:35:38Z</time>
      </trkpt>
      <trkpt lat="42.454317" lon="-6.016622">
        <ele>849.3</ele>
        <time>2021-08-22T09:35:54Z</time>
      </trkpt>
      <trkpt lat="42.454316" lon="-6.016867">
        <ele>849.5</ele>
        <time>2021-08-22T09:36:27Z</time>
      </trkpt>
      <trkpt lat="42.454318" lon="-6.017126">
        <ele>849.1</ele>
        <time>2021-08-22T09:36:51Z</time>
      </trkpt>
      <trkpt lat="42.454333" lon="-6.017380">
        <ele>848.5</ele>
        <time>2021-08-22T09:37:07Z</time>
      </trkpt>
      <trkpt lat="42.454317" lon="-6.017627">
        <ele>848.1</ele>
        <time>2021-08-22T09:37:21Z</time>
      </trkpt>
      <trkpt lat="42.454317" lon="-6.017873">
        <ele>847.5</ele>
        <time>2021-08-22T09:37:36Z</time>
      </trkpt>
      <trkpt lat="42.454324" lon="-6.018135">
        <ele>845.0</ele>
        <time>2021-08-22T09:38:06Z</time>
      </trkpt>
      <trkpt lat="42.454362" lon="-6.018393">
        <ele>843.9</ele>
        <time>2021-08-22T09:38:25Z</time>
      </trkpt>
      <trkpt lat="42.454337" lon="-6.018638">
        <ele>843.0</ele>
        <time>2021-08-22T09:38:56Z</time>
      </trkpt>
      <trkpt lat="42.454350" lon="-6.018884">
        <ele>842.7</ele>
        <time>2021-08-22T09:39:10Z</time>
      </trkpt>
      <trkpt lat="42.454359" lon="-6.019131">
        <ele>842.5</ele>
        <time>2021-08-22T09:39:27Z</time>
      </trkpt>
      <trkpt lat="42.454370" lon="-6.019380">
        <ele>842.5</ele>
        <time>2021-08-22T09:39:42Z</time>
      </trkpt>
      <trkpt lat="42.454496" lon="-6.019576">
        <ele>842.0</ele>
        <time>2021-08-22T09:39:58Z</time>
      </trkpt>
      <trkpt lat="42.454517" lon="-6.019834">
        <ele>842.0</ele>
        <time>2021-08-22T09:40:13Z</time>
      </trkpt>
      <trkpt lat="42.454545" lon="-6.020076">
        <ele>842.2</ele>
        <time>2021-08-22T09:40:28Z</time>
      </trkpt>
      <trkpt lat="42.454555" lon="-6.020320">
        <ele>841.4</ele>
        <time>2021-08-22T09:40:43Z</time>
      </trkpt>
      <trkpt lat="42.454559" lon="-6.020570">
        <ele>841.3</ele>
        <time>2021-08-22T09:40:57Z</time>
      </trkpt>
      <trkpt lat="42.454583" lon="-6.020817">
        <ele>841.4</ele>
        <time>2021-08-22T09:41:12Z</time>
      </trkpt>
      <trkpt lat="42.454562" lon="-6.021062">
        <ele>840.7</ele>
        <time>2021-08-22T09:41:28Z</time>
      </trkpt>
      <trkpt lat="42.454586" lon="-6.021317">
        <ele>840.4</ele>
        <time>2021-08-22T09:41:43Z</time>
      </trkpt>
      <trkpt lat="42.454596" lon="-6.021567">
        <ele>840.5</ele>
        <time>2021-08-22T09:41:58Z</time>
      </trkpt>
      <trkpt lat="42.454612" lon="-6.021812">
        <ele>840.5</ele>
        <time>2021-08-22T09:42:12Z</time>
      </trkpt>
      <trkpt lat="42.454638" lon="-6.022061">
        <ele>840.5</ele>
        <time>2021-08-22T09:42:27Z</time>
      </trkpt>
      <trkpt lat="42.454641" lon="-6.022314">
        <ele>840.5</ele>
        <time>2021-08-22T09:42:43Z</time>
      </trkpt>
      <trkpt lat="42.454612" lon="-6.022566">
        <ele>840.4</ele>
        <time>2021-08-22T09:42:59Z</time>
      </trkpt>
      <trkpt lat="42.454515" lon="-6.022786">
        <ele>840.7</ele>
        <time>2021-08-22T09:43:16Z</time>
      </trkpt>
      <trkpt lat="42.454384" lon="-6.022970">
        <ele>840.5</ele>
        <time>2021-08-22T09:43:31Z</time>
      </trkpt>
      <trkpt lat="42.454275" lon="-6.023174">
        <ele>840.5</ele>
        <time>2021-08-22T09:43:51Z</time>
      </trkpt>
      <trkpt lat="42.454123" lon="-6.023304">
        <ele>840.2</ele>
        <time>2021-08-22T09:44:11Z</time>
      </trkpt>
      <trkpt lat="42.453978" lon="-6.023482">
        <ele>837.0</ele>
        <time>2021-08-22T09:44:35Z</time>
      </trkpt>
      <trkpt lat="42.453840" lon="-6.023640">
        <ele>835.0</ele>
        <time>2021-08-22T09:44:46Z</time>
      </trkpt>
      <trkpt lat="42.453803" lon="-6.023893">
        <ele>836.6</ele>
        <time>2021-08-22T09:45:00Z</time>
      </trkpt>
      <trkpt lat="42.453838" lon="-6.024143">
        <ele>836.2</ele>
        <time>2021-08-22T09:45:12Z</time>
      </trkpt>
      <trkpt lat="42.453850" lon="-6.024416">
        <ele>837.5</ele>
        <time>2021-08-22T09:45:28Z</time>
      </trkpt>
      <trkpt lat="42.453854" lon="-6.024661">
        <ele>836.9</ele>
        <time>2021-08-22T09:45:42Z</time>
      </trkpt>
      <trkpt lat="42.453854" lon="-6.024916">
        <ele>838.0</ele>
        <time>2021-08-22T09:45:57Z</time>
      </trkpt>
      <trkpt lat="42.453872" lon="-6.025171">
        <ele>837.4</ele>
        <time>2021-08-22T09:46:12Z</time>
      </trkpt>
      <trkpt lat="42.453881" lon="-6.025422">
        <ele>838.1</ele>
        <time>2021-08-22T09:46:24Z</time>
      </trkpt>
      <trkpt lat="42.454037" lon="-6.025573">
        <ele>833.5</ele>
        <time>2021-08-22T09:46:40Z</time>
      </trkpt>
      <trkpt lat="42.454228" lon="-6.025586">
        <ele>831.3</ele>
        <time>2021-08-22T09:46:58Z</time>
      </trkpt>
      <trkpt lat="42.454322" lon="-6.025797">
        <ele>830.5</ele>
        <time>2021-08-22T09:47:18Z</time>
      </trkpt>
      <trkpt lat="42.454321" lon="-6.026048">
        <ele>833.2</ele>
        <time>2021-08-22T09:48:35Z</time>
      </trkpt>
      <trkpt lat="42.454310" lon="-6.026299">
        <ele>836.2</ele>
        <time>2021-08-22T09:48:49Z</time>
      </trkpt>
      <trkpt lat="42.454329" lon="-6.026546">
        <ele>833.8</ele>
        <time>2021-08-22T09:49:02Z</time>
      </trkpt>
      <trkpt lat="42.454339" lon="-6.026793">
        <ele>832.7</ele>
        <time>2021-08-22T09:49:14Z</time>
      </trkpt>
      <trkpt lat="42.454351" lon="-6.027051">
        <ele>833.3</ele>
        <time>2021-08-22T09:49:29Z</time>
      </trkpt>
      <trkpt lat="42.454366" lon="-6.027301">
        <ele>832.7</ele>
        <time>2021-08-22T09:49:44Z</time>
      </trkpt>
      <trkpt lat="42.454406" lon="-6.027547">
        <ele>831.5</ele>
        <time>2021-08-22T09:50:00Z</time>
      </trkpt>
      <trkpt lat="42.454420" lon="-6.027805">
        <ele>831.5</ele>
        <time>2021-08-22T09:50:14Z</time>
      </trkpt>
      <trkpt lat="42.454443" lon="-6.028053">
        <ele>831.6</ele>
        <time>2021-08-22T09:50:28Z</time>
      </trkpt>
      <trkpt lat="42.454453" lon="-6.028302">
        <ele>834.1</ele>
        <time>2021-08-22T09:50:41Z</time>
      </trkpt>
      <trkpt lat="42.454477" lon="-6.028546">
        <ele>835.9</ele>
        <time>2021-08-22T09:50:55Z</time>
      </trkpt>
      <trkpt lat="42.454475" lon="-6.028798">
        <ele>836.8</ele>
        <time>2021-08-22T09:51:09Z</time>
      </trkpt>
      <trkpt lat="42.454477" lon="-6.029057">
        <ele>836.0</ele>
        <time>2021-08-22T09:51:24Z</time>
      </trkpt>
      <trkpt lat="42.454485" lon="-6.029305">
        <ele>835.9</ele>
        <time>2021-08-22T09:51:40Z</time>
      </trkpt>
      <trkpt lat="42.454511" lon="-6.029548">
        <ele>834.8</ele>
        <time>2021-08-22T09:51:54Z</time>
      </trkpt>
      <trkpt lat="42.454534" lon="-6.029795">
        <ele>835.8</ele>
        <time>2021-08-22T09:52:07Z</time>
      </trkpt>
      <trkpt lat="42.454545" lon="-6.030040">
        <ele>834.7</ele>
        <time>2021-08-22T09:52:21Z</time>
      </trkpt>
      <trkpt lat="42.454557" lon="-6.030288">
        <ele>834.8</ele>
        <time>2021-08-22T09:52:35Z</time>
      </trkpt>
      <trkpt lat="42.454567" lon="-6.030542">
        <ele>835.5</ele>
        <time>2021-08-22T09:52:50Z</time>
      </trkpt>
      <trkpt lat="42.454581" lon="-6.030787">
        <ele>834.9</ele>
        <time>2021-08-22T09:53:03Z</time>
      </trkpt>
      <trkpt lat="42.454580" lon="-6.031037">
        <ele>836.5</ele>
        <time>2021-08-22T09:53:16Z</time>
      </trkpt>
      <trkpt lat="42.454618" lon="-6.031277">
        <ele>836.6</ele>
        <time>2021-08-22T09:53:30Z</time>
      </trkpt>
      <trkpt lat="42.454630" lon="-6.031537">
        <ele>837.8</ele>
        <time>2021-08-22T09:53:44Z</time>
      </trkpt>
      <trkpt lat="42.454648" lon="-6.031780">
        <ele>836.8</ele>
        <time>2021-08-22T09:54:00Z</time>
      </trkpt>
      <trkpt lat="42.454655" lon="-6.032025">
        <ele>835.7</ele>
        <time>2021-08-22T09:54:14Z</time>
      </trkpt>
      <trkpt lat="42.454646" lon="-6.032279">
        <ele>833.7</ele>
        <time>2021-08-22T09:54:29Z</time>
      </trkpt>
      <trkpt lat="42.454673" lon="-6.032521">
        <ele>835.3</ele>
        <time>2021-08-22T09:54:43Z</time>
      </trkpt>
      <trkpt lat="42.454674" lon="-6.032768">
        <ele>836.1</ele>
        <time>2021-08-22T09:54:57Z</time>
      </trkpt>
      <trkpt lat="42.454674" lon="-6.033014">
        <ele>833.7</ele>
        <time>2021-08-22T09:55:12Z</time>
      </trkpt>
      <trkpt lat="42.454654" lon="-6.033264">
        <ele>834.8</ele>
        <time>2021-08-22T09:55:26Z</time>
      </trkpt>
      <trkpt lat="42.454659" lon="-6.033531">
        <ele>832.9</ele>
        <time>2021-08-22T09:55:42Z</time>
      </trkpt>
      <trkpt lat="42.454646" lon="-6.033775">
        <ele>829.5</ele>
        <time>2021-08-22T09:55:57Z</time>
      </trkpt>
      <trkpt lat="42.454664" lon="-6.034023">
        <ele>830.4</ele>
        <time>2021-08-22T09:56:10Z</time>
      </trkpt>
      <trkpt lat="42.454719" lon="-6.034256">
        <ele>832.2</ele>
        <time>2021-08-22T09:56:25Z</time>
      </trkpt>
      <trkpt lat="42.454750" lon="-6.034501">
        <ele>829.3</ele>
        <time>2021-08-22T09:56:44Z</time>
      </trkpt>
      <trkpt lat="42.454804" lon="-6.034743">
        <ele>828.4</ele>
        <time>2021-08-22T09:56:59Z</time>
      </trkpt>
      <trkpt lat="42.454861" lon="-6.034983">
        <ele>827.9</ele>
        <time>2021-08-22T09:57:12Z</time>
      </trkpt>
      <trkpt lat="42.454903" lon="-6.035227">
        <ele>828.0</ele>
        <time>2021-08-22T09:57:25Z</time>
      </trkpt>
      <trkpt lat="42.454892" lon="-6.035483">
        <ele>830.8</ele>
        <time>2021-08-22T09:57:39Z</time>
      </trkpt>
      <trkpt lat="42.454938" lon="-6.035728">
        <ele>831.8</ele>
        <time>2021-08-22T09:57:52Z</time>
      </trkpt>
      <trkpt lat="42.454958" lon="-6.035973">
        <ele>831.0</ele>
        <time>2021-08-22T09:58:06Z</time>
      </trkpt>
      <trkpt lat="42.454978" lon="-6.036221">
        <ele>831.0</ele>
        <time>2021-08-22T09:58:20Z</time>
      </trkpt>
      <trkpt lat="42.454987" lon="-6.036465">
        <ele>830.5</ele>
        <time>2021-08-22T09:58:33Z</time>
      </trkpt>
      <trkpt lat="42.455029" lon="-6.036703">
        <ele>831.3</ele>
        <time>2021-08-22T09:58:45Z</time>
      </trkpt>
      <trkpt lat="42.455054" lon="-6.036958">
        <ele>830.2</ele>
        <time>2021-08-22T09:58:59Z</time>
      </trkpt>
      <trkpt lat="42.455112" lon="-6.037189">
        <ele>832.8</ele>
        <time>2021-08-22T09:59:11Z</time>
      </trkpt>
      <trkpt lat="42.455187" lon="-6.037422">
        <ele>836.6</ele>
        <time>2021-08-22T09:59:23Z</time>
      </trkpt>
      <trkpt lat="42.455244" lon="-6.037661">
        <ele>837.7</ele>
        <time>2021-08-22T09:59:37Z</time>
      </trkpt>
      <trkpt lat="42.455288" lon="-6.037899">
        <ele>837.8</ele>
        <time>2021-08-22T09:59:50Z</time>
      </trkpt>
      <trkpt lat="42.455314" lon="-6.038145">
        <ele>837.0</ele>
        <time>2021-08-22T10:00:04Z</time>
      </trkpt>
      <trkpt lat="42.455340" lon="-6.038387">
        <ele>836.2</ele>
        <time>2021-08-22T10:00:18Z</time>
      </trkpt>
      <trkpt lat="42.455378" lon="-6.038637">
        <ele>836.8</ele>
        <time>2021-08-22T10:00:31Z</time>
      </trkpt>
      <trkpt lat="42.455407" lon="-6.038890">
        <ele>837.9</ele>
        <time>2021-08-22T10:00:44Z</time>
      </trkpt>
      <trkpt lat="42.455442" lon="-6.039133">
        <ele>838.4</ele>
        <time>2021-08-22T10:00:56Z</time>
      </trkpt>
      <trkpt lat="42.455474" lon="-6.039383">
        <ele>839.5</ele>
        <time>2021-08-22T10:01:09Z</time>
      </trkpt>
      <trkpt lat="42.455510" lon="-6.039625">
        <ele>837.1</ele>
        <time>2021-08-22T10:01:23Z</time>
      </trkpt>
      <trkpt lat="42.455535" lon="-6.039876">
        <ele>836.9</ele>
        <time>2021-08-22T10:01:36Z</time>
      </trkpt>
      <trkpt lat="42.455580" lon="-6.040120">
        <ele>836.6</ele>
        <time>2021-08-22T10:01:50Z</time>
      </trkpt>
      <trkpt lat="42.455615" lon="-6.040363">
        <ele>836.4</ele>
        <time>2021-08-22T10:02:02Z</time>
      </trkpt>
      <trkpt lat="42.455646" lon="-6.040606">
        <ele>836.0</ele>
        <time>2021-08-22T10:02:15Z</time>
      </trkpt>
      <trkpt lat="42.455683" lon="-6.040857">
        <ele>836.9</ele>
        <time>2021-08-22T10:02:29Z</time>
      </trkpt>
      <trkpt lat="42.455723" lon="-6.041099">
        <ele>836.7</ele>
        <time>2021-08-22T10:02:41Z</time>
      </trkpt>
      <trkpt lat="42.455741" lon="-6.041355">
        <ele>835.7</ele>
        <time>2021-08-22T10:02:54Z</time>
      </trkpt>
      <trkpt lat="42.455775" lon="-6.041600">
        <ele>835.9</ele>
        <time>2021-08-22T10:03:07Z</time>
      </trkpt>
      <trkpt lat="42.455817" lon="-6.041839">
        <ele>834.8</ele>
        <time>2021-08-22T10:03:20Z</time>
      </trkpt>
      <trkpt lat="42.455848" lon="-6.042085">
        <ele>834.7</ele>
        <time>2021-08-22T10:03:34Z</time>
      </trkpt>
      <trkpt lat="42.455882" lon="-6.042331">
        <ele>836.8</ele>
        <time>2021-08-22T10:03:47Z</time>
      </trkpt>
      <trkpt lat="42.455905" lon="-6.042578">
        <ele>837.5</ele>
        <time>2021-08-22T10:04:00Z</time>
      </trkpt>
      <trkpt lat="42.455895" lon="-6.042828">
        <ele>835.7</ele>
        <time>2021-08-22T10:04:14Z</time>
      </trkpt>
      <trkpt lat="42.455837" lon="-6.043061">
        <ele>837.7</ele>
        <time>2021-08-22T10:04:26Z</time>
      </trkpt>
      <trkpt lat="42.455788" lon="-6.043300">
        <ele>838.0</ele>
        <time>2021-08-22T10:04:39Z</time>
      </trkpt>
      <trkpt lat="42.455787" lon="-6.043554">
        <ele>842.2</ele>
        <time>2021-08-22T10:04:55Z</time>
      </trkpt>
      <trkpt lat="42.455879" lon="-6.043767">
        <ele>843.7</ele>
        <time>2021-08-22T10:05:19Z</time>
      </trkpt>
      <trkpt lat="42.455796" lon="-6.043998">
        <ele>844.1</ele>
        <time>2021-08-22T10:06:00Z</time>
      </trkpt>
      <trkpt lat="42.455639" lon="-6.044121">
        <ele>844.1</ele>
        <time>2021-08-22T10:06:10Z</time>
      </trkpt>
      <trkpt lat="42.455479" lon="-6.044259">
        <ele>844.2</ele>
        <time>2021-08-22T10:06:23Z</time>
      </trkpt>
      <trkpt lat="42.455330" lon="-6.044401">
        <ele>844.3</ele>
        <time>2021-08-22T10:06:37Z</time>
      </trkpt>
      <trkpt lat="42.455159" lon="-6.044481">
        <ele>844.4</ele>
        <time>2021-08-22T10:06:50Z</time>
      </trkpt>
      <trkpt lat="42.454967" lon="-6.044484">
        <ele>844.4</ele>
        <time>2021-08-22T10:07:05Z</time>
      </trkpt>
      <trkpt lat="42.454782" lon="-6.044464">
        <ele>844.2</ele>
        <time>2021-08-22T10:07:32Z</time>
      </trkpt>
      <trkpt lat="42.454659" lon="-6.044649">
        <ele>844.4</ele>
        <time>2021-08-22T10:07:48Z</time>
      </trkpt>
      <trkpt lat="42.454481" lon="-6.044561">
        <ele>827.3</ele>
        <time>2021-08-22T10:08:24Z</time>
      </trkpt>
      <trkpt lat="42.454317" lon="-6.044671">
        <ele>841.0</ele>
        <time>2021-08-22T10:10:45Z</time>
      </trkpt>
      <trkpt lat="42.454449" lon="-6.044827">
        <ele>829.5</ele>
        <time>2021-08-22T10:11:53Z</time>
      </trkpt>
      <trkpt lat="42.454584" lon="-6.045006">
        <ele>829.8</ele>
        <time>2021-08-22T10:12:07Z</time>
      </trkpt>
      <trkpt lat="42.454650" lon="-6.045242">
        <ele>829.6</ele>
        <time>2021-08-22T10:12:23Z</time>
      </trkpt>
      <trkpt lat="42.454679" lon="-6.045490">
        <ele>829.6</ele>
        <time>2021-08-22T10:12:37Z</time>
      </trkpt>
      <trkpt lat="42.454702" lon="-6.045732">
        <ele>829.5</ele>
        <time>2021-08-22T10:12:51Z</time>
      </trkpt>
      <trkpt lat="42.454698" lon="-6.045983">
        <ele>835.0</ele>
        <time>2021-08-22T10:13:05Z</time>
      </trkpt>
      <trkpt lat="42.454716" lon="-6.046228">
        <ele>844.8</ele>
        <time>2021-08-22T10:13:20Z</time>
      </trkpt>
      <trkpt lat="42.454740" lon="-6.046479">
        <ele>845.0</ele>
        <time>2021-08-22T10:13:34Z</time>
      </trkpt>
      <trkpt lat="42.454580" lon="-6.046598">
        <ele>845.0</ele>
        <time>2021-08-22T10:13:50Z</time>
      </trkpt>
      <trkpt lat="42.454395" lon="-6.046577">
        <ele>845.2</ele>
        <time>2021-08-22T10:14:04Z</time>
      </trkpt>
      <trkpt lat="42.454229" lon="-6.046467">
        <ele>828.7</ele>
        <time>2021-08-22T10:14:19Z</time>
      </trkpt>
      <trkpt lat="42.454043" lon="-6.046396">
        <ele>827.9</ele>
        <time>2021-08-22T10:14:32Z</time>
      </trkpt>
      <trkpt lat="42.453864" lon="-6.046456">
        <ele>827.7</ele>
        <time>2021-08-22T10:14:46Z</time>
      </trkpt>
      <trkpt lat="42.453861" lon="-6.046706">
        <ele>829.9</ele>
        <time>2021-08-22T10:14:58Z</time>
      </trkpt>
      <trkpt lat="42.453992" lon="-6.046885">
        <ele>829.8</ele>
        <time>2021-08-22T10:15:38Z</time>
      </trkpt>
      <trkpt lat="42.454105" lon="-6.047078">
        <ele>829.7</ele>
        <time>2021-08-22T10:15:51Z</time>
      </trkpt>
      <trkpt lat="42.454205" lon="-6.047292">
        <ele>835.3</ele>
        <time>2021-08-22T10:16:19Z</time>
      </trkpt>
      <trkpt lat="42.454312" lon="-6.047504">
        <ele>834.6</ele>
        <time>2021-08-22T10:16:34Z</time>
      </trkpt>
      <trkpt lat="42.454411" lon="-6.047715">
        <ele>835.7</ele>
        <time>2021-08-22T10:16:51Z</time>
      </trkpt>
      <trkpt lat="42.454322" lon="-6.047931">
        <ele>835.8</ele>
        <time>2021-08-22T10:17:10Z</time>
      </trkpt>
      <trkpt lat="42.454334" lon="-6.048184">
        <ele>835.7</ele>
        <time>2021-08-22T10:17:27Z</time>
      </trkpt>
      <trkpt lat="42.454217" lon="-6.048377">
        <ele>842.6</ele>
        <time>2021-08-22T10:17:42Z</time>
      </trkpt>
      <trkpt lat="42.454112" lon="-6.048577">
        <ele>842.7</ele>
        <time>2021-08-22T10:17:59Z</time>
      </trkpt>
      <trkpt lat="42.453980" lon="-6.048756">
        <ele>842.8</ele>
        <time>2021-08-22T10:18:14Z</time>
      </trkpt>
      <trkpt lat="42.453873" lon="-6.048961">
        <ele>842.8</ele>
        <time>2021-08-22T10:18:28Z</time>
      </trkpt>
      <trkpt lat="42.453779" lon="-6.049181">
        <ele>836.8</ele>
        <time>2021-08-22T10:18:41Z</time>
      </trkpt>
      <trkpt lat="42.453703" lon="-6.049405">
        <ele>835.6</ele>
        <time>2021-08-22T10:18:55Z</time>
      </trkpt>
      <trkpt lat="42.453652" lon="-6.049652">
        <ele>836.8</ele>
        <time>2021-08-22T10:19:10Z</time>
      </trkpt>
      <trkpt lat="42.453584" lon="-6.049885">
        <ele>844.4</ele>
        <time>2021-08-22T10:19:23Z</time>
      </trkpt>
      <trkpt lat="42.453521" lon="-6.050118">
        <ele>844.3</ele>
        <time>2021-08-22T10:19:38Z</time>
      </trkpt>
      <trkpt lat="42.453452" lon="-6.050348">
        <ele>845.1</ele>
        <time>2021-08-22T10:20:00Z</time>
      </trkpt>
      <trkpt lat="42.453279" lon="-6.050269">
        <ele>848.3</ele>
        <time>2021-08-22T10:20:16Z</time>
      </trkpt>
      <trkpt lat="42.453089" lon="-6.050242">
        <ele>848.9</ele>
        <time>2021-08-22T10:20:30Z</time>
      </trkpt>
      <trkpt lat="42.452911" lon="-6.050286">
        <ele>850.1</ele>
        <time>2021-08-22T10:20:54Z</time>
      </trkpt>
      <trkpt lat="42.453025" lon="-6.050484">
        <ele>852.2</ele>
        <time>2021-08-22T10:21:33Z</time>
      </trkpt>
      <trkpt lat="42.453158" lon="-6.050650">
        <ele>853.0</ele>
        <time>2021-08-22T10:21:53Z</time>
      </trkpt>
      <trkpt lat="42.453150" lon="-6.050899">
        <ele>853.5</ele>
        <time>2021-08-22T10:22:37Z</time>
      </trkpt>
      <trkpt lat="42.453106" lon="-6.051143">
        <ele>863.6</ele>
        <time>2021-08-22T10:23:43Z</time>
      </trkpt>
      <trkpt lat="42.453050" lon="-6.051394">
        <ele>865.0</ele>
        <time>2021-08-22T10:24:02Z</time>
      </trkpt>
      <trkpt lat="42.453217" lon="-6.051531">
        <ele>865.3</ele>
        <time>2021-08-22T10:24:39Z</time>
      </trkpt>
      <trkpt lat="42.453343" lon="-6.051707">
        <ele>865.9</ele>
        <time>2021-08-22T10:24:59Z</time>
      </trkpt>
      <trkpt lat="42.453525" lon="-6.051780">
        <ele>865.9</ele>
        <time>2021-08-22T10:25:14Z</time>
      </trkpt>
      <trkpt lat="42.453658" lon="-6.051946">
        <ele>866.3</ele>
        <time>2021-08-22T10:25:27Z</time>
      </trkpt>
      <trkpt lat="42.453797" lon="-6.052114">
        <ele>866.8</ele>
        <time>2021-08-22T10:25:47Z</time>
      </trkpt>
      <trkpt lat="42.453938" lon="-6.052279">
        <ele>866.6</ele>
        <time>2021-08-22T10:26:04Z</time>
      </trkpt>
      <trkpt lat="42.454079" lon="-6.052443">
        <ele>867.0</ele>
        <time>2021-08-22T10:26:18Z</time>
      </trkpt>
      <trkpt lat="42.454202" lon="-6.052645">
        <ele>866.8</ele>
        <time>2021-08-22T10:26:43Z</time>
      </trkpt>
      <trkpt lat="42.454341" lon="-6.052815">
        <ele>866.6</ele>
        <time>2021-08-22T10:27:00Z</time>
      </trkpt>
      <trkpt lat="42.454482" lon="-6.052976">
        <ele>866.6</ele>
        <time>2021-08-22T10:27:16Z</time>
      </trkpt>
      <trkpt lat="42.454650" lon="-6.053106">
        <ele>866.6</ele>
        <time>2021-08-22T10:27:30Z</time>
      </trkpt>
      <trkpt lat="42.454803" lon="-6.053238">
        <ele>866.6</ele>
        <time>2021-08-22T10:27:44Z</time>
      </trkpt>
      <trkpt lat="42.454875" lon="-6.053475">
        <ele>866.8</ele>
        <time>2021-08-22T10:28:04Z</time>
      </trkpt>
      <trkpt lat="42.455053" lon="-6.053538">
        <ele>867.0</ele>
        <time>2021-08-22T10:28:19Z</time>
      </trkpt>
      <trkpt lat="42.455196" lon="-6.053703">
        <ele>867.3</ele>
        <time>2021-08-22T10:28:34Z</time>
      </trkpt>
      <trkpt lat="42.455344" lon="-6.053864">
        <ele>867.7</ele>
        <time>2021-08-22T10:28:50Z</time>
      </trkpt>
      <trkpt lat="42.455513" lon="-6.053974">
        <ele>868.3</ele>
        <time>2021-08-22T10:29:05Z</time>
      </trkpt>
      <trkpt lat="42.455688" lon="-6.054038">
        <ele>868.4</ele>
        <time>2021-08-22T10:29:20Z</time>
      </trkpt>
      <trkpt lat="42.455844" lon="-6.054183">
        <ele>868.1</ele>
        <time>2021-08-22T10:29:39Z</time>
      </trkpt>
      <trkpt lat="42.456019" lon="-6.054273">
        <ele>868.1</ele>
        <time>2021-08-22T10:29:55Z</time>
      </trkpt>
      <trkpt lat="42.456183" lon="-6.054390">
        <ele>868.0</ele>
        <time>2021-08-22T10:30:13Z</time>
      </trkpt>
      <trkpt lat="42.456325" lon="-6.054546">
        <ele>868.2</ele>
        <time>2021-08-22T10:30:28Z</time>
      </trkpt>
      <trkpt lat="42.456378" lon="-6.054791">
        <ele>868.2</ele>
        <time>2021-08-22T10:30:43Z</time>
      </trkpt>
      <trkpt lat="42.456401" lon="-6.055042">
        <ele>868.5</ele>
        <time>2021-08-22T10:30:54Z</time>
      </trkpt>
      <trkpt lat="42.456369" lon="-6.055289">
        <ele>868.6</ele>
        <time>2021-08-22T10:31:08Z</time>
      </trkpt>
      <trkpt lat="42.456474" lon="-6.055489">
        <ele>869.0</ele>
        <time>2021-08-22T10:31:20Z</time>
      </trkpt>
      <trkpt lat="42.456630" lon="-6.055643">
        <ele>869.3</ele>
        <time>2021-08-22T10:31:35Z</time>
      </trkpt>
      <trkpt lat="42.456789" lon="-6.055762">
        <ele>869.0</ele>
        <time>2021-08-22T10:31:50Z</time>
      </trkpt>
      <trkpt lat="42.456972" lon="-6.055794">
        <ele>868.8</ele>
        <time>2021-08-22T10:32:11Z</time>
      </trkpt>
      <trkpt lat="42.457142" lon="-6.055703">
        <ele>868.5</ele>
        <time>2021-08-22T10:32:25Z</time>
      </trkpt>
      <trkpt lat="42.457248" lon="-6.055909">
        <ele>868.5</ele>
        <time>2021-08-22T10:33:34Z</time>
      </trkpt>
      <trkpt lat="42.457318" lon="-6.056140">
        <ele>868.8</ele>
        <time>2021-08-22T10:33:47Z</time>
      </trkpt>
      <trkpt lat="42.457363" lon="-6.056397">
        <ele>869.7</ele>
        <time>2021-08-22T10:34:00Z</time>
      </trkpt>
      <trkpt lat="42.457484" lon="-6.056597">
        <ele>869.9</ele>
        <time>2021-08-22T10:34:13Z</time>
      </trkpt>
      <trkpt lat="42.457504" lon="-6.056853">
        <ele>869.9</ele>
        <time>2021-08-22T10:34:36Z</time>
      </trkpt>
      <trkpt lat="42.457451" lon="-6.057087">
        <ele>869.8</ele>
        <time>2021-08-22T10:34:49Z</time>
      </trkpt>
      <trkpt lat="42.457525" lon="-6.057315">
        <ele>870.0</ele>
        <time>2021-08-22T10:35:03Z</time>
      </trkpt>
      <trkpt lat="42.457500" lon="-6.057566">
        <ele>870.1</ele>
        <time>2021-08-22T10:35:19Z</time>
      </trkpt>
      <trkpt lat="42.457491" lon="-6.057527">
        <ele>871.3</ele>
        <time>2022-08-18T05:21:24Z</time>
      </trkpt>
      <trkpt lat="42.457381" lon="-6.057733">
        <ele>871.3</ele>
        <time>2022-08-18T05:21:39Z</time>
      </trkpt>
      <trkpt lat="42.457269" lon="-6.057933">
        <ele>871.7</ele>
        <time>2022-08-18T05:21:52Z</time>
      </trkpt>
      <trkpt lat="42.457175" lon="-6.058155">
        <ele>871.9</ele>
        <time>2022-08-18T05:22:12Z</time>
      </trkpt>
      <trkpt lat="42.457078" lon="-6.058364">
        <ele>871.9</ele>
        <time>2022-08-18T05:22:26Z</time>
      </trkpt>
      <trkpt lat="42.456976" lon="-6.058585">
        <ele>871.9</ele>
        <time>2022-08-18T05:22:40Z</time>
      </trkpt>
      <trkpt lat="42.456870" lon="-6.058784">
        <ele>872.0</ele>
        <time>2022-08-18T05:22:58Z</time>
      </trkpt>
      <trkpt lat="42.456869" lon="-6.059029">
        <ele>871.9</ele>
        <time>2022-08-18T05:23:14Z</time>
      </trkpt>
      <trkpt lat="42.456979" lon="-6.059245">
        <ele>871.8</ele>
        <time>2022-08-18T05:23:21Z</time>
      </trkpt>
      <trkpt lat="42.457089" lon="-6.059441">
        <ele>872.3</ele>
        <time>2022-08-18T05:23:33Z</time>
      </trkpt>
      <trkpt lat="42.457220" lon="-6.059621">
        <ele>872.5</ele>
        <time>2022-08-18T05:23:54Z</time>
      </trkpt>
      <trkpt lat="42.457352" lon="-6.059815">
        <ele>828.1</ele>
        <time>2022-08-18T05:24:25Z</time>
      </trkpt>
      <trkpt lat="42.457493" lon="-6.060082">
        <ele>843.3</ele>
        <time>2022-08-18T05:24:31Z</time>
      </trkpt>
      <trkpt lat="42.457573" lon="-6.060219">
        <ele>822.8</ele>
        <time>2022-08-18T05:24:40Z</time>
      </trkpt>
      <trkpt lat="42.457706" lon="-6.060424">
        <ele>820.8</ele>
        <time>2022-08-18T05:24:51Z</time>
      </trkpt>
      <trkpt lat="42.457799" lon="-6.060547">
        <ele>820.8</ele>
        <time>2022-08-18T05:25:01Z</time>
      </trkpt>
      <trkpt lat="42.457914" lon="-6.060728">
        <ele>874.4</ele>
        <time>2022-08-18T05:25:12Z</time>
      </trkpt>
      <trkpt lat="42.458029" lon="-6.060921">
        <ele>875.8</ele>
        <time>2022-08-18T05:25:25Z</time>
      </trkpt>
      <trkpt lat="42.458144" lon="-6.061127">
        <ele>876.0</ele>
        <time>2022-08-18T05:25:40Z</time>
      </trkpt>
      <trkpt lat="42.458258" lon="-6.061283">
        <ele>876.0</ele>
        <time>2022-08-18T05:25:48Z</time>
      </trkpt>
      <trkpt lat="42.458391" lon="-6.061462">
        <ele>876.2</ele>
        <time>2022-08-18T05:26:02Z</time>
      </trkpt>
      <trkpt lat="42.458522" lon="-6.061621">
        <ele>876.3</ele>
        <time>2022-08-18T05:26:18Z</time>
      </trkpt>
      <trkpt lat="42.458620" lon="-6.061828">
        <ele>876.5</ele>
        <time>2022-08-18T05:26:28Z</time>
      </trkpt>
      <trkpt lat="42.458728" lon="-6.062027">
        <ele>876.7</ele>
        <time>2022-08-18T05:26:43Z</time>
      </trkpt>
      <trkpt lat="42.458863" lon="-6.062197">
        <ele>876.8</ele>
        <time>2022-08-18T05:26:57Z</time>
      </trkpt>
      <trkpt lat="42.458902" lon="-6.062393">
        <ele>876.8</ele>
        <time>2022-08-18T05:27:08Z</time>
      </trkpt>
      <trkpt lat="42.458914" lon="-6.062645">
        <ele>876.8</ele>
        <time>2022-08-18T05:27:20Z</time>
      </trkpt>
      <trkpt lat="42.458930" lon="-6.062892">
        <ele>876.8</ele>
        <time>2022-08-18T05:27:35Z</time>
      </trkpt>
      <trkpt lat="42.458924" lon="-6.063145">
        <ele>876.8</ele>
        <time>2022-08-18T05:28:02Z</time>
      </trkpt>
      <trkpt lat="42.458885" lon="-6.063390">
        <ele>876.7</ele>
        <time>2022-08-18T05:28:16Z</time>
      </trkpt>
      <trkpt lat="42.458858" lon="-6.063580">
        <ele>873.7</ele>
        <time>2022-08-18T05:28:30Z</time>
      </trkpt>
      <trkpt lat="42.458772" lon="-6.063803">
        <ele>873.7</ele>
        <time>2022-08-18T05:28:42Z</time>
      </trkpt>
      <trkpt lat="42.458759" lon="-6.064329">
        <ele>867.9</ele>
        <time>2022-08-18T05:37:53Z</time>
      </trkpt>
      <trkpt lat="42.458683" lon="-6.064565">
        <ele>865.7</ele>
        <time>2022-08-18T05:38:07Z</time>
      </trkpt>
      <trkpt lat="42.458650" lon="-6.064805">
        <ele>865.7</ele>
        <time>2022-08-18T05:38:29Z</time>
      </trkpt>
      <trkpt lat="42.458622" lon="-6.065049">
        <ele>864.4</ele>
        <time>2022-08-18T05:38:41Z</time>
      </trkpt>
      <trkpt lat="42.458592" lon="-6.065292">
        <ele>866.5</ele>
        <time>2022-08-18T05:38:56Z</time>
      </trkpt>
      <trkpt lat="42.458590" lon="-6.065550">
        <ele>866.7</ele>
        <time>2022-08-18T05:39:11Z</time>
      </trkpt>
      <trkpt lat="42.458567" lon="-6.065800">
        <ele>865.7</ele>
        <time>2022-08-18T05:39:28Z</time>
      </trkpt>
      <trkpt lat="42.458574" lon="-6.066061">
        <ele>864.7</ele>
        <time>2022-08-18T05:40:01Z</time>
      </trkpt>
      <trkpt lat="42.458581" lon="-6.066306">
        <ele>862.0</ele>
        <time>2022-08-18T05:40:12Z</time>
      </trkpt>
      <trkpt lat="42.458582" lon="-6.066559">
        <ele>859.8</ele>
        <time>2022-08-18T05:40:27Z</time>
      </trkpt>
      <trkpt lat="42.458604" lon="-6.066809">
        <ele>857.7</ele>
        <time>2022-08-18T05:40:40Z</time>
      </trkpt>
      <trkpt lat="42.458614" lon="-6.067054">
        <ele>857.7</ele>
        <time>2022-08-18T05:40:54Z</time>
      </trkpt>
      <trkpt lat="42.458611" lon="-6.067300">
        <ele>857.7</ele>
        <time>2022-08-18T05:41:07Z</time>
      </trkpt>
      <trkpt lat="42.458616" lon="-6.067546">
        <ele>857.7</ele>
        <time>2022-08-18T05:41:19Z</time>
      </trkpt>
      <trkpt lat="42.458588" lon="-6.067796">
        <ele>858.4</ele>
        <time>2022-08-18T05:41:33Z</time>
      </trkpt>
      <trkpt lat="42.458600" lon="-6.068050">
        <ele>857.7</ele>
        <time>2022-08-18T05:41:46Z</time>
      </trkpt>
      <trkpt lat="42.458621" lon="-6.068298">
        <ele>856.4</ele>
        <time>2022-08-18T05:42:01Z</time>
      </trkpt>
      <trkpt lat="42.458668" lon="-6.068539">
        <ele>856.7</ele>
        <time>2022-08-18T05:42:15Z</time>
      </trkpt>
      <trkpt lat="42.458700" lon="-6.068786">
        <ele>857.6</ele>
        <time>2022-08-18T05:42:31Z</time>
      </trkpt>
      <trkpt lat="42.458732" lon="-6.069030">
        <ele>856.7</ele>
        <time>2022-08-18T05:42:45Z</time>
      </trkpt>
      <trkpt lat="42.458754" lon="-6.069278">
        <ele>852.8</ele>
        <time>2022-08-18T05:43:00Z</time>
      </trkpt>
      <trkpt lat="42.458809" lon="-6.069514">
        <ele>851.7</ele>
        <time>2022-08-18T05:43:13Z</time>
      </trkpt>
      <trkpt lat="42.458819" lon="-6.069759">
        <ele>849.7</ele>
        <time>2022-08-18T05:43:24Z</time>
      </trkpt>
      <trkpt lat="42.458839" lon="-6.070007">
        <ele>849.7</ele>
        <time>2022-08-18T05:43:38Z</time>
      </trkpt>
      <trkpt lat="42.458887" lon="-6.070253">
        <ele>847.8</ele>
        <time>2022-08-18T05:43:53Z</time>
      </trkpt>
      <trkpt lat="42.458887" lon="-6.070503">
        <ele>847.7</ele>
        <time>2022-08-18T05:44:07Z</time>
      </trkpt>
      <trkpt lat="42.458902" lon="-6.070755">
        <ele>846.5</ele>
        <time>2022-08-18T05:44:21Z</time>
      </trkpt>
      <trkpt lat="42.458922" lon="-6.071001">
        <ele>845.8</ele>
        <time>2022-08-18T05:44:34Z</time>
      </trkpt>
      <trkpt lat="42.458982" lon="-6.071240">
        <ele>848.7</ele>
        <time>2022-08-18T05:44:48Z</time>
      </trkpt>
      <trkpt lat="42.459015" lon="-6.071486">
        <ele>849.0</ele>
        <time>2022-08-18T05:45:01Z</time>
      </trkpt>
      <trkpt lat="42.459066" lon="-6.071720">
        <ele>848.8</ele>
        <time>2022-08-18T05:45:15Z</time>
      </trkpt>
      <trkpt lat="42.459095" lon="-6.071975">
        <ele>851.4</ele>
        <time>2022-08-18T05:45:29Z</time>
      </trkpt>
      <trkpt lat="42.459148" lon="-6.072217">
        <ele>851.8</ele>
        <time>2022-08-18T05:45:43Z</time>
      </trkpt>
      <trkpt lat="42.459191" lon="-6.072461">
        <ele>851.7</ele>
        <time>2022-08-18T05:45:56Z</time>
      </trkpt>
      <trkpt lat="42.459216" lon="-6.072719">
        <ele>851.7</ele>
        <time>2022-08-18T05:46:09Z</time>
      </trkpt>
      <trkpt lat="42.459248" lon="-6.072963">
        <ele>849.0</ele>
        <time>2022-08-18T05:46:23Z</time>
      </trkpt>
      <trkpt lat="42.459348" lon="-6.073169">
        <ele>848.7</ele>
        <time>2022-08-18T05:46:37Z</time>
      </trkpt>
      <trkpt lat="42.459428" lon="-6.073401">
        <ele>851.7</ele>
        <time>2022-08-18T05:47:03Z</time>
      </trkpt>
      <trkpt lat="42.459414" lon="-6.073659">
        <ele>853.0</ele>
        <time>2022-08-18T05:47:17Z</time>
      </trkpt>
      <trkpt lat="42.459415" lon="-6.073905">
        <ele>853.6</ele>
        <time>2022-08-18T05:47:31Z</time>
      </trkpt>
      <trkpt lat="42.459374" lon="-6.074148">
        <ele>853.7</ele>
        <time>2022-08-18T05:47:45Z</time>
      </trkpt>
      <trkpt lat="42.459373" lon="-6.074394">
        <ele>853.0</ele>
        <time>2022-08-18T05:47:59Z</time>
      </trkpt>
      <trkpt lat="42.459387" lon="-6.074642">
        <ele>854.7</ele>
        <time>2022-08-18T05:48:12Z</time>
      </trkpt>
      <trkpt lat="42.459369" lon="-6.074896">
        <ele>851.8</ele>
        <time>2022-08-18T05:48:30Z</time>
      </trkpt>
      <trkpt lat="42.459351" lon="-6.075145">
        <ele>853.7</ele>
        <time>2022-08-18T05:48:40Z</time>
      </trkpt>
      <trkpt lat="42.459318" lon="-6.075385">
        <ele>853.4</ele>
        <time>2022-08-18T05:48:52Z</time>
      </trkpt>
      <trkpt lat="42.459277" lon="-6.075628">
        <ele>855.6</ele>
        <time>2022-08-18T05:49:05Z</time>
      </trkpt>
      <trkpt lat="42.459234" lon="-6.075865">
        <ele>855.7</ele>
        <time>2022-08-18T05:49:20Z</time>
      </trkpt>
      <trkpt lat="42.459215" lon="-6.076120">
        <ele>855.7</ele>
        <time>2022-08-18T05:49:37Z</time>
      </trkpt>
      <trkpt lat="42.459203" lon="-6.076370">
        <ele>856.7</ele>
        <time>2022-08-18T05:49:48Z</time>
      </trkpt>
      <trkpt lat="42.459242" lon="-6.076615">
        <ele>857.4</ele>
        <time>2022-08-18T05:50:03Z</time>
      </trkpt>
      <trkpt lat="42.459216" lon="-6.076868">
        <ele>857.7</ele>
        <time>2022-08-18T05:50:15Z</time>
      </trkpt>
      <trkpt lat="42.459252" lon="-6.077147">
        <ele>855.8</ele>
        <time>2022-08-18T05:50:29Z</time>
      </trkpt>
      <trkpt lat="42.459254" lon="-6.077407">
        <ele>856.7</ele>
        <time>2022-08-18T05:50:44Z</time>
      </trkpt>
      <trkpt lat="42.459262" lon="-6.077655">
        <ele>856.8</ele>
        <time>2022-08-18T05:50:56Z</time>
      </trkpt>
      <trkpt lat="42.459257" lon="-6.077899">
        <ele>856.7</ele>
        <time>2022-08-18T05:51:09Z</time>
      </trkpt>
      <trkpt lat="42.459279" lon="-6.078151">
        <ele>856.0</ele>
        <time>2022-08-18T05:51:21Z</time>
      </trkpt>
      <trkpt lat="42.459256" lon="-6.078393">
        <ele>857.7</ele>
        <time>2022-08-18T05:51:36Z</time>
      </trkpt>
      <trkpt lat="42.459274" lon="-6.078641">
        <ele>857.5</ele>
        <time>2022-08-18T05:51:49Z</time>
      </trkpt>
      <trkpt lat="42.459318" lon="-6.078884">
        <ele>858.7</ele>
        <time>2022-08-18T05:52:03Z</time>
      </trkpt>
      <trkpt lat="42.459325" lon="-6.079135">
        <ele>858.7</ele>
        <time>2022-08-18T05:52:16Z</time>
      </trkpt>
      <trkpt lat="42.459303" lon="-6.079382">
        <ele>859.7</ele>
        <time>2022-08-18T05:52:29Z</time>
      </trkpt>
      <trkpt lat="42.459301" lon="-6.079634">
        <ele>860.7</ele>
        <time>2022-08-18T05:52:43Z</time>
      </trkpt>
      <trkpt lat="42.459321" lon="-6.079891">
        <ele>859.7</ele>
        <time>2022-08-18T05:52:56Z</time>
      </trkpt>
      <trkpt lat="42.459250" lon="-6.080118">
        <ele>858.0</ele>
        <time>2022-08-18T05:53:11Z</time>
      </trkpt>
      <trkpt lat="42.459226" lon="-6.080366">
        <ele>859.7</ele>
        <time>2022-08-18T05:53:24Z</time>
      </trkpt>
      <trkpt lat="42.459244" lon="-6.080616">
        <ele>861.7</ele>
        <time>2022-08-18T05:53:37Z</time>
      </trkpt>
      <trkpt lat="42.459239" lon="-6.080874">
        <ele>856.7</ele>
        <time>2022-08-18T05:53:58Z</time>
      </trkpt>
      <trkpt lat="42.459207" lon="-6.081116">
        <ele>858.7</ele>
        <time>2022-08-18T05:54:32Z</time>
      </trkpt>
      <trkpt lat="42.459387" lon="-6.081123">
        <ele>851.7</ele>
        <time>2022-08-18T05:56:35Z</time>
      </trkpt>
      <trkpt lat="42.459404" lon="-6.081368">
        <ele>853.6</ele>
        <time>2022-08-18T05:56:49Z</time>
      </trkpt>
      <trkpt lat="42.459476" lon="-6.081595">
        <ele>856.7</ele>
        <time>2022-08-18T05:57:02Z</time>
      </trkpt>
      <trkpt lat="42.459533" lon="-6.081831">
        <ele>856.7</ele>
        <time>2022-08-18T05:57:15Z</time>
      </trkpt>
      <trkpt lat="42.459584" lon="-6.082071">
        <ele>857.7</ele>
        <time>2022-08-18T05:57:28Z</time>
      </trkpt>
      <trkpt lat="42.459633" lon="-6.082330">
        <ele>857.7</ele>
        <time>2022-08-18T05:58:01Z</time>
      </trkpt>
      <trkpt lat="42.459663" lon="-6.082575">
        <ele>858.7</ele>
        <time>2022-08-18T05:58:13Z</time>
      </trkpt>
      <trkpt lat="42.459709" lon="-6.082819">
        <ele>859.7</ele>
        <time>2022-08-18T05:58:26Z</time>
      </trkpt>
      <trkpt lat="42.459768" lon="-6.083059">
        <ele>862.0</ele>
        <time>2022-08-18T05:58:37Z</time>
      </trkpt>
      <trkpt lat="42.459821" lon="-6.083301">
        <ele>860.7</ele>
        <time>2022-08-18T05:58:52Z</time>
      </trkpt>
      <trkpt lat="42.459882" lon="-6.083531">
        <ele>861.7</ele>
        <time>2022-08-18T05:59:05Z</time>
      </trkpt>
      <trkpt lat="42.459914" lon="-6.083782">
        <ele>862.7</ele>
        <time>2022-08-18T05:59:16Z</time>
      </trkpt>
      <trkpt lat="42.459992" lon="-6.084019">
        <ele>863.7</ele>
        <time>2022-08-18T05:59:31Z</time>
      </trkpt>
      <trkpt lat="42.460007" lon="-6.084285">
        <ele>866.8</ele>
        <time>2022-08-18T05:59:55Z</time>
      </trkpt>
      <trkpt lat="42.460081" lon="-6.084516">
        <ele>869.4</ele>
        <time>2022-08-18T06:00:09Z</time>
      </trkpt>
      <trkpt lat="42.460140" lon="-6.084747">
        <ele>869.7</ele>
        <time>2022-08-18T06:00:22Z</time>
      </trkpt>
      <trkpt lat="42.460166" lon="-6.084994">
        <ele>868.8</ele>
        <time>2022-08-18T06:00:34Z</time>
      </trkpt>
      <trkpt lat="42.460208" lon="-6.085249">
        <ele>864.7</ele>
        <time>2022-08-18T06:00:49Z</time>
      </trkpt>
      <trkpt lat="42.460248" lon="-6.085502">
        <ele>864.7</ele>
        <time>2022-08-18T06:01:03Z</time>
      </trkpt>
      <trkpt lat="42.460303" lon="-6.085740">
        <ele>864.7</ele>
        <time>2022-08-18T06:01:15Z</time>
      </trkpt>
      <trkpt lat="42.460377" lon="-6.085981">
        <ele>864.0</ele>
        <time>2022-08-18T06:01:27Z</time>
      </trkpt>
      <trkpt lat="42.460419" lon="-6.086228">
        <ele>862.7</ele>
        <time>2022-08-18T06:01:40Z</time>
      </trkpt>
      <trkpt lat="42.460460" lon="-6.086479">
        <ele>861.8</ele>
        <time>2022-08-18T06:01:54Z</time>
      </trkpt>
      <trkpt lat="42.460505" lon="-6.086718">
        <ele>862.8</ele>
        <time>2022-08-18T06:02:08Z</time>
      </trkpt>
      <trkpt lat="42.460596" lon="-6.086933">
        <ele>862.6</ele>
        <time>2022-08-18T06:02:25Z</time>
      </trkpt>
      <trkpt lat="42.460679" lon="-6.087167">
        <ele>862.7</ele>
        <time>2022-08-18T06:03:07Z</time>
      </trkpt>
      <trkpt lat="42.460738" lon="-6.087403">
        <ele>864.0</ele>
        <time>2022-08-18T06:03:19Z</time>
      </trkpt>
      <trkpt lat="42.460800" lon="-6.087655">
        <ele>863.7</ele>
        <time>2022-08-18T06:03:34Z</time>
      </trkpt>
      <trkpt lat="42.460854" lon="-6.087898">
        <ele>865.0</ele>
        <time>2022-08-18T06:03:48Z</time>
      </trkpt>
      <trkpt lat="42.460900" lon="-6.088144">
        <ele>867.6</ele>
        <time>2022-08-18T06:04:04Z</time>
      </trkpt>
      <trkpt lat="42.460944" lon="-6.088384">
        <ele>867.7</ele>
        <time>2022-08-18T06:04:17Z</time>
      </trkpt>
      <trkpt lat="42.460992" lon="-6.088623">
        <ele>867.6</ele>
        <time>2022-08-18T06:04:32Z</time>
      </trkpt>
      <trkpt lat="42.461037" lon="-6.088866">
        <ele>866.7</ele>
        <time>2022-08-18T06:04:45Z</time>
      </trkpt>
      <trkpt lat="42.461114" lon="-6.089102">
        <ele>867.7</ele>
        <time>2022-08-18T06:04:58Z</time>
      </trkpt>
      <trkpt lat="42.461158" lon="-6.089340">
        <ele>868.7</ele>
        <time>2022-08-18T06:05:14Z</time>
      </trkpt>
      <trkpt lat="42.461206" lon="-6.089581">
        <ele>867.7</ele>
        <time>2022-08-18T06:05:29Z</time>
      </trkpt>
      <trkpt lat="42.461255" lon="-6.089827">
        <ele>865.7</ele>
        <time>2022-08-18T06:05:41Z</time>
      </trkpt>
      <trkpt lat="42.461324" lon="-6.090060">
        <ele>865.7</ele>
        <time>2022-08-18T06:05:53Z</time>
      </trkpt>
      <trkpt lat="42.461362" lon="-6.090300">
        <ele>865.7</ele>
        <time>2022-08-18T06:06:04Z</time>
      </trkpt>
      <trkpt lat="42.461392" lon="-6.090550">
        <ele>864.7</ele>
        <time>2022-08-18T06:06:18Z</time>
      </trkpt>
      <trkpt lat="42.461441" lon="-6.090790">
        <ele>862.7</ele>
        <time>2022-08-18T06:06:31Z</time>
      </trkpt>
      <trkpt lat="42.461478" lon="-6.091030">
        <ele>864.0</ele>
        <time>2022-08-18T06:06:44Z</time>
      </trkpt>
      <trkpt lat="42.461580" lon="-6.091255">
        <ele>864.0</ele>
        <time>2022-08-18T06:07:04Z</time>
      </trkpt>
      <trkpt lat="42.461594" lon="-6.091501">
        <ele>863.7</ele>
        <time>2022-08-18T06:07:24Z</time>
      </trkpt>
      <trkpt lat="42.461623" lon="-6.091750">
        <ele>863.7</ele>
        <time>2022-08-18T06:07:35Z</time>
      </trkpt>
      <trkpt lat="42.461633" lon="-6.091994">
        <ele>863.7</ele>
        <time>2022-08-18T06:07:48Z</time>
      </trkpt>
      <trkpt lat="42.461666" lon="-6.092259">
        <ele>864.6</ele>
        <time>2022-08-18T06:08:01Z</time>
      </trkpt>
      <trkpt lat="42.461677" lon="-6.092511">
        <ele>864.7</ele>
        <time>2022-08-18T06:08:15Z</time>
      </trkpt>
      <trkpt lat="42.461684" lon="-6.092757">
        <ele>866.6</ele>
        <time>2022-08-18T06:08:28Z</time>
      </trkpt>
      <trkpt lat="42.461707" lon="-6.093001">
        <ele>867.7</ele>
        <time>2022-08-18T06:08:41Z</time>
      </trkpt>
      <trkpt lat="42.461719" lon="-6.093255">
        <ele>867.7</ele>
        <time>2022-08-18T06:08:53Z</time>
      </trkpt>
      <trkpt lat="42.461716" lon="-6.093516">
        <ele>869.3</ele>
        <time>2022-08-18T06:09:07Z</time>
      </trkpt>
      <trkpt lat="42.461724" lon="-6.093764">
        <ele>868.7</ele>
        <time>2022-08-18T06:09:19Z</time>
      </trkpt>
      <trkpt lat="42.461740" lon="-6.094028">
        <ele>869.4</ele>
        <time>2022-08-18T06:09:33Z</time>
      </trkpt>
      <trkpt lat="42.461748" lon="-6.094281">
        <ele>869.7</ele>
        <time>2022-08-18T06:09:48Z</time>
      </trkpt>
      <trkpt lat="42.461780" lon="-6.094529">
        <ele>868.7</ele>
        <time>2022-08-18T06:10:01Z</time>
      </trkpt>
      <trkpt lat="42.461790" lon="-6.094777">
        <ele>869.6</ele>
        <time>2022-08-18T06:10:14Z</time>
      </trkpt>
      <trkpt lat="42.461777" lon="-6.095034">
        <ele>869.4</ele>
        <time>2022-08-18T06:10:27Z</time>
      </trkpt>
      <trkpt lat="42.461770" lon="-6.095284">
        <ele>870.4</ele>
        <time>2022-08-18T06:10:39Z</time>
      </trkpt>
      <trkpt lat="42.461783" lon="-6.095528">
        <ele>870.7</ele>
        <time>2022-08-18T06:10:53Z</time>
      </trkpt>
      <trkpt lat="42.461796" lon="-6.095773">
        <ele>871.7</ele>
        <time>2022-08-18T06:11:07Z</time>
      </trkpt>
      <trkpt lat="42.461780" lon="-6.096024">
        <ele>871.7</ele>
        <time>2022-08-18T06:11:19Z</time>
      </trkpt>
      <trkpt lat="42.461776" lon="-6.096268">
        <ele>870.7</ele>
        <time>2022-08-18T06:11:33Z</time>
      </trkpt>
      <trkpt lat="42.461616" lon="-6.096383">
        <ele>871.7</ele>
        <time>2022-08-18T06:11:48Z</time>
      </trkpt>
      <trkpt lat="42.461469" lon="-6.096545">
        <ele>873.7</ele>
        <time>2022-08-18T06:12:05Z</time>
      </trkpt>
      <trkpt lat="42.461374" lon="-6.096755">
        <ele>873.7</ele>
        <time>2022-08-18T06:12:21Z</time>
      </trkpt>
      <trkpt lat="42.461276" lon="-6.096968">
        <ele>873.7</ele>
        <time>2022-08-18T06:12:34Z</time>
      </trkpt>
      <trkpt lat="42.461172" lon="-6.097187">
        <ele>874.7</ele>
        <time>2022-08-18T06:12:46Z</time>
      </trkpt>
      <trkpt lat="42.461083" lon="-6.097407">
        <ele>875.7</ele>
        <time>2022-08-18T06:13:03Z</time>
      </trkpt>
      <trkpt lat="42.460991" lon="-6.097629">
        <ele>876.7</ele>
        <time>2022-08-18T06:13:18Z</time>
      </trkpt>
      <trkpt lat="42.460875" lon="-6.097831">
        <ele>873.8</ele>
        <time>2022-08-18T06:14:06Z</time>
      </trkpt>
      <trkpt lat="42.460728" lon="-6.098018">
        <ele>874.7</ele>
        <time>2022-08-18T06:14:19Z</time>
      </trkpt>
      <trkpt lat="42.460611" lon="-6.098205">
        <ele>874.7</ele>
        <time>2022-08-18T06:14:33Z</time>
      </trkpt>
      <trkpt lat="42.460521" lon="-6.098420">
        <ele>875.7</ele>
        <time>2022-08-18T06:14:45Z</time>
      </trkpt>
      <trkpt lat="42.460444" lon="-6.098648">
        <ele>874.7</ele>
        <time>2022-08-18T06:14:57Z</time>
      </trkpt>
      <trkpt lat="42.460430" lon="-6.098891">
        <ele>875.7</ele>
        <time>2022-08-18T06:15:11Z</time>
      </trkpt>
      <trkpt lat="42.460447" lon="-6.099139">
        <ele>876.7</ele>
        <time>2022-08-18T06:15:25Z</time>
      </trkpt>
      <trkpt lat="42.460438" lon="-6.099392">
        <ele>875.7</ele>
        <time>2022-08-18T06:15:38Z</time>
      </trkpt>
      <trkpt lat="42.460426" lon="-6.099638">
        <ele>874.6</ele>
        <time>2022-08-18T06:15:48Z</time>
      </trkpt>
      <trkpt lat="42.460431" lon="-6.099886">
        <ele>874.3</ele>
        <time>2022-08-18T06:16:02Z</time>
      </trkpt>
      <trkpt lat="42.460424" lon="-6.100134">
        <ele>874.6</ele>
        <time>2022-08-18T06:16:16Z</time>
      </trkpt>
      <trkpt lat="42.460405" lon="-6.100382">
        <ele>874.6</ele>
        <time>2022-08-18T06:16:29Z</time>
      </trkpt>
      <trkpt lat="42.460400" lon="-6.100635">
        <ele>875.3</ele>
        <time>2022-08-18T06:16:44Z</time>
      </trkpt>
      <trkpt lat="42.460369" lon="-6.100881">
        <ele>875.6</ele>
        <time>2022-08-18T06:16:57Z</time>
      </trkpt>
      <trkpt lat="42.460365" lon="-6.101125">
        <ele>876.7</ele>
        <time>2022-08-18T06:17:11Z</time>
      </trkpt>
      <trkpt lat="42.460364" lon="-6.101375">
        <ele>880.6</ele>
        <time>2022-08-18T06:17:34Z</time>
      </trkpt>
      <trkpt lat="42.460324" lon="-6.101621">
        <ele>879.6</ele>
        <time>2022-08-18T06:17:47Z</time>
      </trkpt>
      <trkpt lat="42.460313" lon="-6.101873">
        <ele>878.7</ele>
        <time>2022-08-18T06:18:09Z</time>
      </trkpt>
      <trkpt lat="42.460268" lon="-6.102116">
        <ele>877.6</ele>
        <time>2022-08-18T06:18:37Z</time>
      </trkpt>
      <trkpt lat="42.460241" lon="-6.102364">
        <ele>878.6</ele>
        <time>2022-08-18T06:18:52Z</time>
      </trkpt>
      <trkpt lat="42.460216" lon="-6.102609">
        <ele>878.9</ele>
        <time>2022-08-18T06:19:04Z</time>
      </trkpt>
      <trkpt lat="42.460179" lon="-6.102858">
        <ele>878.6</ele>
        <time>2022-08-18T06:19:17Z</time>
      </trkpt>
      <trkpt lat="42.460107" lon="-6.103085">
        <ele>877.6</ele>
        <time>2022-08-18T06:19:30Z</time>
      </trkpt>
      <trkpt lat="42.460057" lon="-6.103325">
        <ele>878.6</ele>
        <time>2022-08-18T06:19:47Z</time>
      </trkpt>
      <trkpt lat="42.459990" lon="-6.103554">
        <ele>879.6</ele>
        <time>2022-08-18T06:20:04Z</time>
      </trkpt>
      <trkpt lat="42.459922" lon="-6.103784">
        <ele>880.3</ele>
        <time>2022-08-18T06:20:20Z</time>
      </trkpt>
      <trkpt lat="42.459897" lon="-6.104030">
        <ele>880.6</ele>
        <time>2022-08-18T06:20:34Z</time>
      </trkpt>
      <trkpt lat="42.459814" lon="-6.104268">
        <ele>884.3</ele>
        <time>2022-08-18T06:20:46Z</time>
      </trkpt>
      <trkpt lat="42.459770" lon="-6.104508">
        <ele>884.4</ele>
        <time>2022-08-18T06:20:59Z</time>
      </trkpt>
      <trkpt lat="42.459712" lon="-6.104763">
        <ele>885.6</ele>
        <time>2022-08-18T06:21:10Z</time>
      </trkpt>
      <trkpt lat="42.459638" lon="-6.104992">
        <ele>885.7</ele>
        <time>2022-08-18T06:21:21Z</time>
      </trkpt>
      <trkpt lat="42.459577" lon="-6.105223">
        <ele>884.6</ele>
        <time>2022-08-18T06:21:32Z</time>
      </trkpt>
      <trkpt lat="42.459518" lon="-6.105471">
        <ele>885.9</ele>
        <time>2022-08-18T06:21:47Z</time>
      </trkpt>
      <trkpt lat="42.459462" lon="-6.105719">
        <ele>883.9</ele>
        <time>2022-08-18T06:22:01Z</time>
      </trkpt>
      <trkpt lat="42.459396" lon="-6.105963">
        <ele>886.5</ele>
        <time>2022-08-18T06:22:14Z</time>
      </trkpt>
      <trkpt lat="42.459355" lon="-6.106202">
        <ele>885.6</ele>
        <time>2022-08-18T06:22:25Z</time>
      </trkpt>
      <trkpt lat="42.459311" lon="-6.106440">
        <ele>884.4</ele>
        <time>2022-08-18T06:22:37Z</time>
      </trkpt>
      <trkpt lat="42.459276" lon="-6.106682">
        <ele>885.6</ele>
        <time>2022-08-18T06:22:51Z</time>
      </trkpt>
      <trkpt lat="42.459236" lon="-6.106921">
        <ele>884.9</ele>
        <time>2022-08-18T06:23:02Z</time>
      </trkpt>
      <trkpt lat="42.459216" lon="-6.107168">
        <ele>886.3</ele>
        <time>2022-08-18T06:23:16Z</time>
      </trkpt>
      <trkpt lat="42.459162" lon="-6.107415">
        <ele>886.8</ele>
        <time>2022-08-18T06:23:30Z</time>
      </trkpt>
      <trkpt lat="42.459100" lon="-6.107653">
        <ele>886.7</ele>
        <time>2022-08-18T06:23:42Z</time>
      </trkpt>
      <trkpt lat="42.459117" lon="-6.107900">
        <ele>891.6</ele>
        <time>2022-08-18T06:24:39Z</time>
      </trkpt>
      <trkpt lat="42.459090" lon="-6.108143">
        <ele>891.3</ele>
        <time>2022-08-18T06:25:02Z</time>
      </trkpt>
      <trkpt lat="42.459052" lon="-6.108386">
        <ele>890.6</ele>
        <time>2022-08-18T06:25:16Z</time>
      </trkpt>
      <trkpt lat="42.459004" lon="-6.108627">
        <ele>891.6</ele>
        <time>2022-08-18T06:25:29Z</time>
      </trkpt>
      <trkpt lat="42.458965" lon="-6.108868">
        <ele>892.6</ele>
        <time>2022-08-18T06:25:43Z</time>
      </trkpt>
      <trkpt lat="42.458926" lon="-6.109106">
        <ele>892.6</ele>
        <time>2022-08-18T06:25:56Z</time>
      </trkpt>
      <trkpt lat="42.458895" lon="-6.109349">
        <ele>893.3</ele>
        <time>2022-08-18T06:26:06Z</time>
      </trkpt>
      <trkpt lat="42.458836" lon="-6.109583">
        <ele>891.9</ele>
        <time>2022-08-18T06:26:18Z</time>
      </trkpt>
      <trkpt lat="42.458810" lon="-6.109845">
        <ele>891.3</ele>
        <time>2022-08-18T06:26:32Z</time>
      </trkpt>
      <trkpt lat="42.458765" lon="-6.110091">
        <ele>892.6</ele>
        <time>2022-08-18T06:26:44Z</time>
      </trkpt>
      <trkpt lat="42.458709" lon="-6.110324">
        <ele>892.6</ele>
        <time>2022-08-18T06:26:56Z</time>
      </trkpt>
      <trkpt lat="42.458686" lon="-6.110566">
        <ele>891.6</ele>
        <time>2022-08-18T06:27:08Z</time>
      </trkpt>
      <trkpt lat="42.458625" lon="-6.110809">
        <ele>891.6</ele>
        <time>2022-08-18T06:27:23Z</time>
      </trkpt>
      <trkpt lat="42.458578" lon="-6.111049">
        <ele>891.8</ele>
        <time>2022-08-18T06:27:35Z</time>
      </trkpt>
      <trkpt lat="42.458525" lon="-6.111301">
        <ele>890.6</ele>
        <time>2022-08-18T06:27:48Z</time>
      </trkpt>
      <trkpt lat="42.458501" lon="-6.111546">
        <ele>891.6</ele>
        <time>2022-08-18T06:28:01Z</time>
      </trkpt>
      <trkpt lat="42.458469" lon="-6.111790">
        <ele>891.6</ele>
        <time>2022-08-18T06:28:14Z</time>
      </trkpt>
      <trkpt lat="42.458427" lon="-6.112035">
        <ele>891.6</ele>
        <time>2022-08-18T06:28:26Z</time>
      </trkpt>
      <trkpt lat="42.458371" lon="-6.112277">
        <ele>893.5</ele>
        <time>2022-08-18T06:28:38Z</time>
      </trkpt>
      <trkpt lat="42.458347" lon="-6.112524">
        <ele>894.6</ele>
        <time>2022-08-18T06:28:52Z</time>
      </trkpt>
      <trkpt lat="42.458306" lon="-6.112782">
        <ele>892.9</ele>
        <time>2022-08-18T06:29:04Z</time>
      </trkpt>
      <trkpt lat="42.458256" lon="-6.113042">
        <ele>893.6</ele>
        <time>2022-08-18T06:29:19Z</time>
      </trkpt>
      <trkpt lat="42.458198" lon="-6.113284">
        <ele>893.6</ele>
        <time>2022-08-18T06:29:33Z</time>
      </trkpt>
      <trkpt lat="42.458161" lon="-6.113530">
        <ele>893.7</ele>
        <time>2022-08-18T06:29:46Z</time>
      </trkpt>
      <trkpt lat="42.458127" lon="-6.113784">
        <ele>896.5</ele>
        <time>2022-08-18T06:29:59Z</time>
      </trkpt>
      <trkpt lat="42.458080" lon="-6.114025">
        <ele>898.6</ele>
        <time>2022-08-18T06:30:11Z</time>
      </trkpt>
      <trkpt lat="42.458034" lon="-6.114267">
        <ele>897.6</ele>
        <time>2022-08-18T06:30:26Z</time>
      </trkpt>
      <trkpt lat="42.457996" lon="-6.114515">
        <ele>898.6</ele>
        <time>2022-08-18T06:30:39Z</time>
      </trkpt>
      <trkpt lat="42.457950" lon="-6.114751">
        <ele>899.6</ele>
        <time>2022-08-18T06:30:52Z</time>
      </trkpt>
      <trkpt lat="42.457936" lon="-6.115000">
        <ele>899.3</ele>
        <time>2022-08-18T06:31:05Z</time>
      </trkpt>
      <trkpt lat="42.457852" lon="-6.115239">
        <ele>898.6</ele>
        <time>2022-08-18T06:31:18Z</time>
      </trkpt>
      <trkpt lat="42.457832" lon="-6.115490">
        <ele>897.9</ele>
        <time>2022-08-18T06:31:44Z</time>
      </trkpt>
      <trkpt lat="42.457775" lon="-6.115738">
        <ele>898.9</ele>
        <time>2022-08-18T06:31:59Z</time>
      </trkpt>
      <trkpt lat="42.457756" lon="-6.115987">
        <ele>899.6</ele>
        <time>2022-08-18T06:32:23Z</time>
      </trkpt>
      <trkpt lat="42.457723" lon="-6.116228">
        <ele>899.6</ele>
        <time>2022-08-18T06:32:36Z</time>
      </trkpt>
      <trkpt lat="42.457683" lon="-6.116471">
        <ele>902.6</ele>
        <time>2022-08-18T06:32:49Z</time>
      </trkpt>
      <trkpt lat="42.457645" lon="-6.116722">
        <ele>903.6</ele>
        <time>2022-08-18T06:33:01Z</time>
      </trkpt>
      <trkpt lat="42.457605" lon="-6.116971">
        <ele>903.6</ele>
        <time>2022-08-18T06:33:15Z</time>
      </trkpt>
      <trkpt lat="42.457554" lon="-6.117217">
        <ele>905.3</ele>
        <time>2022-08-18T06:33:29Z</time>
      </trkpt>
      <trkpt lat="42.457512" lon="-6.117455">
        <ele>904.6</ele>
        <time>2022-08-18T06:33:41Z</time>
      </trkpt>
      <trkpt lat="42.457471" lon="-6.117703">
        <ele>904.7</ele>
        <time>2022-08-18T06:33:53Z</time>
      </trkpt>
      <trkpt lat="42.457407" lon="-6.117940">
        <ele>904.6</ele>
        <time>2022-08-18T06:34:06Z</time>
      </trkpt>
      <trkpt lat="42.457387" lon="-6.118195">
        <ele>904.3</ele>
        <time>2022-08-18T06:34:27Z</time>
      </trkpt>
      <trkpt lat="42.457352" lon="-6.118441">
        <ele>904.5</ele>
        <time>2022-08-18T06:34:39Z</time>
      </trkpt>
      <trkpt lat="42.457296" lon="-6.118681">
        <ele>904.6</ele>
        <time>2022-08-18T06:34:51Z</time>
      </trkpt>
      <trkpt lat="42.457269" lon="-6.118927">
        <ele>906.6</ele>
        <time>2022-08-18T06:35:03Z</time>
      </trkpt>
      <trkpt lat="42.457224" lon="-6.119178">
        <ele>907.3</ele>
        <time>2022-08-18T06:35:18Z</time>
      </trkpt>
      <trkpt lat="42.457154" lon="-6.119553">
        <ele>909.0</ele>
        <time>2022-08-18T06:35:37Z</time>
      </trkpt>
      <trkpt lat="42.457101" lon="-6.119796">
        <ele>907.4</ele>
        <time>2022-08-18T06:35:52Z</time>
      </trkpt>
      <trkpt lat="42.457044" lon="-6.120052">
        <ele>909.7</ele>
        <time>2022-08-18T06:36:05Z</time>
      </trkpt>
      <trkpt lat="42.456988" lon="-6.120295">
        <ele>908.6</ele>
        <time>2022-08-18T06:36:18Z</time>
      </trkpt>
      <trkpt lat="42.456918" lon="-6.120531">
        <ele>908.6</ele>
        <time>2022-08-18T06:36:32Z</time>
      </trkpt>
      <trkpt lat="42.456872" lon="-6.120774">
        <ele>909.6</ele>
        <time>2022-08-18T06:36:45Z</time>
      </trkpt>
      <trkpt lat="42.456807" lon="-6.121009">
        <ele>911.6</ele>
        <time>2022-08-18T06:36:59Z</time>
      </trkpt>
      <trkpt lat="42.456766" lon="-6.121249">
        <ele>911.5</ele>
        <time>2022-08-18T06:37:10Z</time>
      </trkpt>
      <trkpt lat="42.456687" lon="-6.121476">
        <ele>911.6</ele>
        <time>2022-08-18T06:37:23Z</time>
      </trkpt>
      <trkpt lat="42.456640" lon="-6.121716">
        <ele>912.6</ele>
        <time>2022-08-18T06:37:36Z</time>
      </trkpt>
      <trkpt lat="42.456595" lon="-6.121953">
        <ele>912.7</ele>
        <time>2022-08-18T06:37:52Z</time>
      </trkpt>
      <trkpt lat="42.456543" lon="-6.122193">
        <ele>910.9</ele>
        <time>2022-08-18T06:38:05Z</time>
      </trkpt>
      <trkpt lat="42.456497" lon="-6.122439">
        <ele>912.6</ele>
        <time>2022-08-18T06:38:20Z</time>
      </trkpt>
      <trkpt lat="42.456428" lon="-6.122667">
        <ele>912.6</ele>
        <time>2022-08-18T06:38:33Z</time>
      </trkpt>
      <trkpt lat="42.456377" lon="-6.122909">
        <ele>910.7</ele>
        <time>2022-08-18T06:38:47Z</time>
      </trkpt>
      <trkpt lat="42.456315" lon="-6.123155">
        <ele>911.6</ele>
        <time>2022-08-18T06:38:59Z</time>
      </trkpt>
      <trkpt lat="42.456292" lon="-6.123403">
        <ele>912.4</ele>
        <time>2022-08-18T06:39:13Z</time>
      </trkpt>
      <trkpt lat="42.456222" lon="-6.123633">
        <ele>912.9</ele>
        <time>2022-08-18T06:39:27Z</time>
      </trkpt>
      <trkpt lat="42.456159" lon="-6.123870">
        <ele>911.6</ele>
        <time>2022-08-18T06:39:39Z</time>
      </trkpt>
      <trkpt lat="42.456119" lon="-6.124114">
        <ele>910.6</ele>
        <time>2022-08-18T06:39:54Z</time>
      </trkpt>
      <trkpt lat="42.456068" lon="-6.124364">
        <ele>911.6</ele>
        <time>2022-08-18T06:40:07Z</time>
      </trkpt>
      <trkpt lat="42.456009" lon="-6.124595">
        <ele>911.6</ele>
        <time>2022-08-18T06:40:20Z</time>
      </trkpt>
      <trkpt lat="42.455955" lon="-6.124829">
        <ele>909.6</ele>
        <time>2022-08-18T06:40:33Z</time>
      </trkpt>
      <trkpt lat="42.455889" lon="-6.125064">
        <ele>911.7</ele>
        <time>2022-08-18T06:40:45Z</time>
      </trkpt>
      <trkpt lat="42.455825" lon="-6.125302">
        <ele>910.6</ele>
        <time>2022-08-18T06:41:00Z</time>
      </trkpt>
      <trkpt lat="42.455783" lon="-6.125558">
        <ele>911.5</ele>
        <time>2022-08-18T06:41:12Z</time>
      </trkpt>
      <trkpt lat="42.455727" lon="-6.125804">
        <ele>913.6</ele>
        <time>2022-08-18T06:41:26Z</time>
      </trkpt>
      <trkpt lat="42.455695" lon="-6.126048">
        <ele>913.6</ele>
        <time>2022-08-18T06:41:38Z</time>
      </trkpt>
      <trkpt lat="42.455626" lon="-6.126276">
        <ele>915.5</ele>
        <time>2022-08-18T06:41:52Z</time>
      </trkpt>
      <trkpt lat="42.455582" lon="-6.126527">
        <ele>914.6</ele>
        <time>2022-08-18T06:42:05Z</time>
      </trkpt>
      <trkpt lat="42.455531" lon="-6.126775">
        <ele>913.8</ele>
        <time>2022-08-18T06:42:16Z</time>
      </trkpt>
      <trkpt lat="42.455475" lon="-6.127007">
        <ele>915.6</ele>
        <time>2022-08-18T06:42:28Z</time>
      </trkpt>
      <trkpt lat="42.455453" lon="-6.127257">
        <ele>916.5</ele>
        <time>2022-08-18T06:42:45Z</time>
      </trkpt>
      <trkpt lat="42.455423" lon="-6.127500">
        <ele>916.6</ele>
        <time>2022-08-18T06:42:57Z</time>
      </trkpt>
      <trkpt lat="42.455376" lon="-6.127738">
        <ele>918.6</ele>
        <time>2022-08-18T06:43:07Z</time>
      </trkpt>
      <trkpt lat="42.455341" lon="-6.127987">
        <ele>917.3</ele>
        <time>2022-08-18T06:43:23Z</time>
      </trkpt>
      <trkpt lat="42.455305" lon="-6.128239">
        <ele>917.6</ele>
        <time>2022-08-18T06:43:35Z</time>
      </trkpt>
      <trkpt lat="42.455289" lon="-6.128508">
        <ele>920.3</ele>
        <time>2022-08-18T06:43:49Z</time>
      </trkpt>
      <trkpt lat="42.455279" lon="-6.128765">
        <ele>919.6</ele>
        <time>2022-08-18T06:44:03Z</time>
      </trkpt>
      <trkpt lat="42.455233" lon="-6.129003">
        <ele>920.3</ele>
        <time>2022-08-18T06:44:16Z</time>
      </trkpt>
      <trkpt lat="42.455197" lon="-6.129256">
        <ele>918.7</ele>
        <time>2022-08-18T06:44:29Z</time>
      </trkpt>
      <trkpt lat="42.455177" lon="-6.129516">
        <ele>920.3</ele>
        <time>2022-08-18T06:44:43Z</time>
      </trkpt>
      <trkpt lat="42.455136" lon="-6.129773">
        <ele>920.6</ele>
        <time>2022-08-18T06:44:57Z</time>
      </trkpt>
      <trkpt lat="42.455113" lon="-6.130044">
        <ele>921.6</ele>
        <time>2022-08-18T06:45:10Z</time>
      </trkpt>
      <trkpt lat="42.455087" lon="-6.130298">
        <ele>919.6</ele>
        <time>2022-08-18T06:45:23Z</time>
      </trkpt>
      <trkpt lat="42.455035" lon="-6.130536">
        <ele>920.5</ele>
        <time>2022-08-18T06:45:37Z</time>
      </trkpt>
      <trkpt lat="42.455004" lon="-6.130782">
        <ele>923.3</ele>
        <time>2022-08-18T06:45:50Z</time>
      </trkpt>
      <trkpt lat="42.454975" lon="-6.131044">
        <ele>922.6</ele>
        <time>2022-08-18T06:46:03Z</time>
      </trkpt>
      <trkpt lat="42.454957" lon="-6.131300">
        <ele>923.6</ele>
        <time>2022-08-18T06:46:16Z</time>
      </trkpt>
      <trkpt lat="42.454911" lon="-6.131546">
        <ele>923.6</ele>
        <time>2022-08-18T06:46:29Z</time>
      </trkpt>
      <trkpt lat="42.454885" lon="-6.131802">
        <ele>923.6</ele>
        <time>2022-08-18T06:46:43Z</time>
      </trkpt>
      <trkpt lat="42.454854" lon="-6.132051">
        <ele>924.6</ele>
        <time>2022-08-18T06:46:56Z</time>
      </trkpt>
      <trkpt lat="42.454863" lon="-6.132301">
        <ele>924.9</ele>
        <time>2022-08-18T06:47:10Z</time>
      </trkpt>
      <trkpt lat="42.454869" lon="-6.132559">
        <ele>925.6</ele>
        <time>2022-08-18T06:47:22Z</time>
      </trkpt>
      <trkpt lat="42.454882" lon="-6.132815">
        <ele>925.6</ele>
        <time>2022-08-18T06:47:35Z</time>
      </trkpt>
      <trkpt lat="42.454897" lon="-6.133067">
        <ele>927.5</ele>
        <time>2022-08-18T06:47:48Z</time>
      </trkpt>
      <trkpt lat="42.454877" lon="-6.133316">
        <ele>930.5</ele>
        <time>2022-08-18T06:48:02Z</time>
      </trkpt>
      <trkpt lat="42.454894" lon="-6.133564">
        <ele>932.5</ele>
        <time>2022-08-18T06:48:16Z</time>
      </trkpt>
      <trkpt lat="42.454903" lon="-6.133816">
        <ele>933.5</ele>
        <time>2022-08-18T06:48:29Z</time>
      </trkpt>
      <trkpt lat="42.454885" lon="-6.134064">
        <ele>934.5</ele>
        <time>2022-08-18T06:48:44Z</time>
      </trkpt>
      <trkpt lat="42.454906" lon="-6.134316">
        <ele>930.5</ele>
        <time>2022-08-18T06:48:58Z</time>
      </trkpt>
      <trkpt lat="42.454899" lon="-6.134562">
        <ele>930.5</ele>
        <time>2022-08-18T06:49:11Z</time>
      </trkpt>
      <trkpt lat="42.454945" lon="-6.134808">
        <ele>931.5</ele>
        <time>2022-08-18T06:49:25Z</time>
      </trkpt>
      <trkpt lat="42.454865" lon="-6.135032">
        <ele>932.5</ele>
        <time>2022-08-18T06:49:38Z</time>
      </trkpt>
      <trkpt lat="42.454889" lon="-6.135285">
        <ele>933.5</ele>
        <time>2022-08-18T06:49:54Z</time>
      </trkpt>
      <trkpt lat="42.454934" lon="-6.135531">
        <ele>933.6</ele>
        <time>2022-08-18T06:50:05Z</time>
      </trkpt>
      <trkpt lat="42.454955" lon="-6.135781">
        <ele>932.8</ele>
        <time>2022-08-18T06:50:20Z</time>
      </trkpt>
      <trkpt lat="42.454960" lon="-6.136034">
        <ele>935.2</ele>
        <time>2022-08-18T06:50:34Z</time>
      </trkpt>
      <trkpt lat="42.454975" lon="-6.136277">
        <ele>936.5</ele>
        <time>2022-08-18T06:50:47Z</time>
      </trkpt>
      <trkpt lat="42.454970" lon="-6.136529">
        <ele>938.5</ele>
        <time>2022-08-18T06:51:01Z</time>
      </trkpt>
      <trkpt lat="42.454961" lon="-6.136785">
        <ele>938.6</ele>
        <time>2022-08-18T06:51:13Z</time>
      </trkpt>
      <trkpt lat="42.454948" lon="-6.137042">
        <ele>941.2</ele>
        <time>2022-08-18T06:51:28Z</time>
      </trkpt>
      <trkpt lat="42.454972" lon="-6.137299">
        <ele>940.5</ele>
        <time>2022-08-18T06:51:42Z</time>
      </trkpt>
      <trkpt lat="42.454959" lon="-6.137548">
        <ele>940.5</ele>
        <time>2022-08-18T06:51:56Z</time>
      </trkpt>
      <trkpt lat="42.454965" lon="-6.137792">
        <ele>941.5</ele>
        <time>2022-08-18T06:52:09Z</time>
      </trkpt>
      <trkpt lat="42.454955" lon="-6.138047">
        <ele>942.8</ele>
        <time>2022-08-18T06:52:23Z</time>
      </trkpt>
      <trkpt lat="42.454966" lon="-6.138293">
        <ele>942.5</ele>
        <time>2022-08-18T06:52:37Z</time>
      </trkpt>
      <trkpt lat="42.454995" lon="-6.138541">
        <ele>942.6</ele>
        <time>2022-08-18T06:52:51Z</time>
      </trkpt>
      <trkpt lat="42.454969" lon="-6.138799">
        <ele>946.2</ele>
        <time>2022-08-18T06:53:04Z</time>
      </trkpt>
      <trkpt lat="42.454965" lon="-6.139062">
        <ele>945.8</ele>
        <time>2022-08-18T06:53:17Z</time>
      </trkpt>
      <trkpt lat="42.454987" lon="-6.139311">
        <ele>946.5</ele>
        <time>2022-08-18T06:53:33Z</time>
      </trkpt>
      <trkpt lat="42.455005" lon="-6.139570">
        <ele>946.5</ele>
        <time>2022-08-18T06:53:45Z</time>
      </trkpt>
      <trkpt lat="42.455011" lon="-6.139818">
        <ele>947.5</ele>
        <time>2022-08-18T06:54:00Z</time>
      </trkpt>
      <trkpt lat="42.455002" lon="-6.140063">
        <ele>948.5</ele>
        <time>2022-08-18T06:54:13Z</time>
      </trkpt>
      <trkpt lat="42.455001" lon="-6.140312">
        <ele>949.5</ele>
        <time>2022-08-18T06:54:26Z</time>
      </trkpt>
      <trkpt lat="42.455002" lon="-6.140557">
        <ele>951.2</ele>
        <time>2022-08-18T06:54:39Z</time>
      </trkpt>
      <trkpt lat="42.455008" lon="-6.140802">
        <ele>952.2</ele>
        <time>2022-08-18T06:54:53Z</time>
      </trkpt>
      <trkpt lat="42.454998" lon="-6.141055">
        <ele>952.5</ele>
        <time>2022-08-18T06:55:07Z</time>
      </trkpt>
      <trkpt lat="42.455002" lon="-6.141307">
        <ele>953.2</ele>
        <time>2022-08-18T06:55:21Z</time>
      </trkpt>
      <trkpt lat="42.455014" lon="-6.141553">
        <ele>953.8</ele>
        <time>2022-08-18T06:55:35Z</time>
      </trkpt>
      <trkpt lat="42.454995" lon="-6.141805">
        <ele>954.5</ele>
        <time>2022-08-18T06:55:47Z</time>
      </trkpt>
      <trkpt lat="42.455016" lon="-6.142059">
        <ele>955.5</ele>
        <time>2022-08-18T06:56:01Z</time>
      </trkpt>
      <trkpt lat="42.454990" lon="-6.142307">
        <ele>954.5</ele>
        <time>2022-08-18T06:57:35Z</time>
      </trkpt>
      <trkpt lat="42.454993" lon="-6.142560">
        <ele>956.5</ele>
        <time>2022-08-18T06:57:47Z</time>
      </trkpt>
      <trkpt lat="42.454973" lon="-6.142804">
        <ele>956.5</ele>
        <time>2022-08-18T06:57:59Z</time>
      </trkpt>
      <trkpt lat="42.454972" lon="-6.143061">
        <ele>957.2</ele>
        <time>2022-08-18T06:58:12Z</time>
      </trkpt>
      <trkpt lat="42.454939" lon="-6.143322">
        <ele>959.5</ele>
        <time>2022-08-18T06:58:27Z</time>
      </trkpt>
      <trkpt lat="42.454911" lon="-6.143569">
        <ele>960.5</ele>
        <time>2022-08-18T06:58:40Z</time>
      </trkpt>
      <trkpt lat="42.454899" lon="-6.143815">
        <ele>960.5</ele>
        <time>2022-08-18T06:58:52Z</time>
      </trkpt>
      <trkpt lat="42.454878" lon="-6.144069">
        <ele>958.5</ele>
        <time>2022-08-18T06:59:06Z</time>
      </trkpt>
      <trkpt lat="42.454857" lon="-6.144326">
        <ele>959.5</ele>
        <time>2022-08-18T06:59:20Z</time>
      </trkpt>
      <trkpt lat="42.454833" lon="-6.144576">
        <ele>960.4</ele>
        <time>2022-08-18T06:59:32Z</time>
      </trkpt>
      <trkpt lat="42.454825" lon="-6.144838">
        <ele>961.2</ele>
        <time>2022-08-18T06:59:45Z</time>
      </trkpt>
      <trkpt lat="42.454826" lon="-6.145086">
        <ele>960.5</ele>
        <time>2022-08-18T06:59:58Z</time>
      </trkpt>
      <trkpt lat="42.454864" lon="-6.145332">
        <ele>960.5</ele>
        <time>2022-08-18T07:00:11Z</time>
      </trkpt>
      <trkpt lat="42.454917" lon="-6.145575">
        <ele>959.5</ele>
        <time>2022-08-18T07:00:24Z</time>
      </trkpt>
      <trkpt lat="42.454955" lon="-6.145818">
        <ele>960.5</ele>
        <time>2022-08-18T07:00:38Z</time>
      </trkpt>
      <trkpt lat="42.454995" lon="-6.146058">
        <ele>959.6</ele>
        <time>2022-08-18T07:00:51Z</time>
      </trkpt>
      <trkpt lat="42.455044" lon="-6.146298">
        <ele>962.5</ele>
        <time>2022-08-18T07:01:04Z</time>
      </trkpt>
      <trkpt lat="42.455088" lon="-6.146537">
        <ele>963.3</ele>
        <time>2022-08-18T07:01:19Z</time>
      </trkpt>
      <trkpt lat="42.455148" lon="-6.146772">
        <ele>963.5</ele>
        <time>2022-08-18T07:01:31Z</time>
      </trkpt>
      <trkpt lat="42.455185" lon="-6.147014">
        <ele>965.5</ele>
        <time>2022-08-18T07:01:43Z</time>
      </trkpt>
      <trkpt lat="42.455243" lon="-6.147259">
        <ele>965.5</ele>
        <time>2022-08-18T07:01:56Z</time>
      </trkpt>
      <trkpt lat="42.455282" lon="-6.147498">
        <ele>967.5</ele>
        <time>2022-08-18T07:02:09Z</time>
      </trkpt>
      <trkpt lat="42.455326" lon="-6.147740">
        <ele>969.5</ele>
        <time>2022-08-18T07:02:22Z</time>
      </trkpt>
      <trkpt lat="42.455332" lon="-6.147997">
        <ele>969.4</ele>
        <time>2022-08-18T07:02:36Z</time>
      </trkpt>
      <trkpt lat="42.455342" lon="-6.148244">
        <ele>968.4</ele>
        <time>2022-08-18T07:02:49Z</time>
      </trkpt>
      <trkpt lat="42.455366" lon="-6.148503">
        <ele>968.5</ele>
        <time>2022-08-18T07:03:02Z</time>
      </trkpt>
      <trkpt lat="42.455384" lon="-6.148752">
        <ele>969.4</ele>
        <time>2022-08-18T07:03:15Z</time>
      </trkpt>
      <trkpt lat="42.455401" lon="-6.149011">
        <ele>967.5</ele>
        <time>2022-08-18T07:03:28Z</time>
      </trkpt>
      <trkpt lat="42.455403" lon="-6.149271">
        <ele>970.5</ele>
        <time>2022-08-18T07:03:40Z</time>
      </trkpt>
      <trkpt lat="42.455402" lon="-6.149529">
        <ele>971.5</ele>
        <time>2022-08-18T07:03:53Z</time>
      </trkpt>
      <trkpt lat="42.455369" lon="-6.149777">
        <ele>970.4</ele>
        <time>2022-08-18T07:04:07Z</time>
      </trkpt>
      <trkpt lat="42.455363" lon="-6.150038">
        <ele>970.2</ele>
        <time>2022-08-18T07:04:21Z</time>
      </trkpt>
      <trkpt lat="42.455323" lon="-6.150288">
        <ele>969.5</ele>
        <time>2022-08-18T07:04:35Z</time>
      </trkpt>
      <trkpt lat="42.455320" lon="-6.150552">
        <ele>969.5</ele>
        <time>2022-08-18T07:04:48Z</time>
      </trkpt>
      <trkpt lat="42.455309" lon="-6.150799">
        <ele>970.5</ele>
        <time>2022-08-18T07:04:59Z</time>
      </trkpt>
      <trkpt lat="42.455286" lon="-6.151045">
        <ele>971.4</ele>
        <time>2022-08-18T07:05:12Z</time>
      </trkpt>
      <trkpt lat="42.455285" lon="-6.151292">
        <ele>972.6</ele>
        <time>2022-08-18T07:05:26Z</time>
      </trkpt>
      <trkpt lat="42.455289" lon="-6.151537">
        <ele>970.5</ele>
        <time>2022-08-18T07:05:39Z</time>
      </trkpt>
      <trkpt lat="42.455302" lon="-6.151794">
        <ele>971.5</ele>
        <time>2022-08-18T07:05:52Z</time>
      </trkpt>
      <trkpt lat="42.455282" lon="-6.152047">
        <ele>969.8</ele>
        <time>2022-08-18T07:06:07Z</time>
      </trkpt>
      <trkpt lat="42.455263" lon="-6.152304">
        <ele>970.2</ele>
        <time>2022-08-18T07:06:19Z</time>
      </trkpt>
      <trkpt lat="42.455278" lon="-6.152562">
        <ele>970.5</ele>
        <time>2022-08-18T07:06:33Z</time>
      </trkpt>
      <trkpt lat="42.455288" lon="-6.152807">
        <ele>971.5</ele>
        <time>2022-08-18T07:06:46Z</time>
      </trkpt>
      <trkpt lat="42.455275" lon="-6.153051">
        <ele>974.5</ele>
        <time>2022-08-18T07:06:57Z</time>
      </trkpt>
      <trkpt lat="42.455271" lon="-6.153298">
        <ele>970.5</ele>
        <time>2022-08-18T07:07:12Z</time>
      </trkpt>
      <trkpt lat="42.455259" lon="-6.153561">
        <ele>972.5</ele>
        <time>2022-08-18T07:07:27Z</time>
      </trkpt>
      <trkpt lat="42.455261" lon="-6.153811">
        <ele>977.5</ele>
        <time>2022-08-18T07:07:40Z</time>
      </trkpt>
      <trkpt lat="42.455258" lon="-6.154056">
        <ele>979.5</ele>
        <time>2022-08-18T07:07:53Z</time>
      </trkpt>
      <trkpt lat="42.455241" lon="-6.154314">
        <ele>978.5</ele>
        <time>2022-08-18T07:08:07Z</time>
      </trkpt>
      <trkpt lat="42.455222" lon="-6.154572">
        <ele>979.4</ele>
        <time>2022-08-18T07:08:20Z</time>
      </trkpt>
      <trkpt lat="42.455210" lon="-6.154820">
        <ele>980.5</ele>
        <time>2022-08-18T07:08:33Z</time>
      </trkpt>
      <trkpt lat="42.455205" lon="-6.155076">
        <ele>978.8</ele>
        <time>2022-08-18T07:08:47Z</time>
      </trkpt>
      <trkpt lat="42.455193" lon="-6.155319">
        <ele>980.4</ele>
        <time>2022-08-18T07:09:00Z</time>
      </trkpt>
      <trkpt lat="42.455158" lon="-6.155560">
        <ele>979.2</ele>
        <time>2022-08-18T07:09:14Z</time>
      </trkpt>
      <trkpt lat="42.455160" lon="-6.155819">
        <ele>977.5</ele>
        <time>2022-08-18T07:09:36Z</time>
      </trkpt>
      <trkpt lat="42.455065" lon="-6.156153">
        <ele>978.3</ele>
        <time>2022-08-18T07:09:58Z</time>
      </trkpt>
      <trkpt lat="42.455051" lon="-6.156400">
        <ele>975.5</ele>
        <time>2022-08-18T07:10:38Z</time>
      </trkpt>
      <trkpt lat="42.455074" lon="-6.156648">
        <ele>975.7</ele>
        <time>2022-08-18T07:11:02Z</time>
      </trkpt>
      <trkpt lat="42.455056" lon="-6.156898">
        <ele>972.5</ele>
        <time>2022-08-18T07:11:13Z</time>
      </trkpt>
      <trkpt lat="42.455081" lon="-6.157155">
        <ele>973.5</ele>
        <time>2022-08-18T07:11:30Z</time>
      </trkpt>
      <trkpt lat="42.455085" lon="-6.157412">
        <ele>974.5</ele>
        <time>2022-08-18T07:11:40Z</time>
      </trkpt>
      <trkpt lat="42.455098" lon="-6.157656">
        <ele>976.5</ele>
        <time>2022-08-18T07:12:01Z</time>
      </trkpt>
      <trkpt lat="42.455115" lon="-6.157900">
        <ele>974.5</ele>
        <time>2022-08-18T07:12:27Z</time>
      </trkpt>
      <trkpt lat="42.455146" lon="-6.158145">
        <ele>973.5</ele>
        <time>2022-08-18T07:12:44Z</time>
      </trkpt>
      <trkpt lat="42.455169" lon="-6.158390">
        <ele>975.6</ele>
        <time>2022-08-18T07:13:08Z</time>
      </trkpt>
      <trkpt lat="42.455217" lon="-6.158630">
        <ele>975.4</ele>
        <time>2022-08-18T07:13:25Z</time>
      </trkpt>
      <trkpt lat="42.455278" lon="-6.158864">
        <ele>979.8</ele>
        <time>2022-08-18T07:13:50Z</time>
      </trkpt>
      <trkpt lat="42.455315" lon="-6.159076">
        <ele>977.5</ele>
        <time>2022-08-18T07:14:06Z</time>
      </trkpt>
      <trkpt lat="42.455361" lon="-6.159350">
        <ele>973.5</ele>
        <time>2022-08-18T07:14:21Z</time>
      </trkpt>
      <trkpt lat="42.455399" lon="-6.159591">
        <ele>974.6</ele>
        <time>2022-08-18T07:14:34Z</time>
      </trkpt>
      <trkpt lat="42.455452" lon="-6.159837">
        <ele>970.5</ele>
        <time>2022-08-18T07:14:50Z</time>
      </trkpt>
      <trkpt lat="42.455486" lon="-6.160068">
        <ele>974.4</ele>
        <time>2022-08-18T07:15:01Z</time>
      </trkpt>
      <trkpt lat="42.455493" lon="-6.160312">
        <ele>973.5</ele>
        <time>2022-08-18T07:15:14Z</time>
      </trkpt>
      <trkpt lat="42.455502" lon="-6.160557">
        <ele>975.2</ele>
        <time>2022-08-18T07:15:24Z</time>
      </trkpt>
      <trkpt lat="42.455552" lon="-6.160798">
        <ele>974.5</ele>
        <time>2022-08-18T07:15:35Z</time>
      </trkpt>
      <trkpt lat="42.455580" lon="-6.161046">
        <ele>977.5</ele>
        <time>2022-08-18T07:15:49Z</time>
      </trkpt>
      <trkpt lat="42.455594" lon="-6.161295">
        <ele>976.6</ele>
        <time>2022-08-18T07:16:03Z</time>
      </trkpt>
      <trkpt lat="42.455598" lon="-6.161548">
        <ele>977.5</ele>
        <time>2022-08-18T07:16:15Z</time>
      </trkpt>
      <trkpt lat="42.455582" lon="-6.161812">
        <ele>985.1</ele>
        <time>2022-08-18T07:16:27Z</time>
      </trkpt>
      <trkpt lat="42.455551" lon="-6.162053">
        <ele>986.5</ele>
        <time>2022-08-18T07:24:37Z</time>
      </trkpt>
      <trkpt lat="42.455576" lon="-6.162298">
        <ele>988.1</ele>
        <time>2022-08-18T07:24:52Z</time>
      </trkpt>
      <trkpt lat="42.455579" lon="-6.162554">
        <ele>987.2</ele>
        <time>2022-08-18T07:25:07Z</time>
      </trkpt>
      <trkpt lat="42.455637" lon="-6.162798">
        <ele>988.5</ele>
        <time>2022-08-18T07:25:21Z</time>
      </trkpt>
      <trkpt lat="42.455703" lon="-6.163024">
        <ele>987.5</ele>
        <time>2022-08-18T07:25:35Z</time>
      </trkpt>
      <trkpt lat="42.455768" lon="-6.163261">
        <ele>985.5</ele>
        <time>2022-08-18T07:25:49Z</time>
      </trkpt>
      <trkpt lat="42.455833" lon="-6.163509">
        <ele>985.5</ele>
        <time>2022-08-18T07:26:03Z</time>
      </trkpt>
      <trkpt lat="42.455867" lon="-6.163764">
        <ele>982.4</ele>
        <time>2022-08-18T07:26:30Z</time>
      </trkpt>
      <trkpt lat="42.455933" lon="-6.163996">
        <ele>984.2</ele>
        <time>2022-08-18T07:26:45Z</time>
      </trkpt>
      <trkpt lat="42.455991" lon="-6.164230">
        <ele>987.2</ele>
        <time>2022-08-18T07:26:58Z</time>
      </trkpt>
      <trkpt lat="42.456031" lon="-6.164480">
        <ele>988.5</ele>
        <time>2022-08-18T07:27:13Z</time>
      </trkpt>
      <trkpt lat="42.456099" lon="-6.164725">
        <ele>990.4</ele>
        <time>2022-08-18T07:27:27Z</time>
      </trkpt>
      <trkpt lat="42.456124" lon="-6.164978">
        <ele>988.5</ele>
        <time>2022-08-18T07:27:42Z</time>
      </trkpt>
      <trkpt lat="42.456178" lon="-6.165224">
        <ele>989.6</ele>
        <time>2022-08-18T07:27:55Z</time>
      </trkpt>
      <trkpt lat="42.456225" lon="-6.165469">
        <ele>988.3</ele>
        <time>2022-08-18T07:28:09Z</time>
      </trkpt>
      <trkpt lat="42.456279" lon="-6.165709">
        <ele>988.5</ele>
        <time>2022-08-18T07:28:23Z</time>
      </trkpt>
      <trkpt lat="42.456304" lon="-6.165963">
        <ele>989.5</ele>
        <time>2022-08-18T07:28:56Z</time>
      </trkpt>
      <trkpt lat="42.456356" lon="-6.166202">
        <ele>988.5</ele>
        <time>2022-08-18T07:29:09Z</time>
      </trkpt>
      <trkpt lat="42.456412" lon="-6.166435">
        <ele>988.7</ele>
        <time>2022-08-18T07:29:22Z</time>
      </trkpt>
      <trkpt lat="42.456451" lon="-6.166676">
        <ele>988.4</ele>
        <time>2022-08-18T07:29:36Z</time>
      </trkpt>
      <trkpt lat="42.456511" lon="-6.166918">
        <ele>987.8</ele>
        <time>2022-08-18T07:29:50Z</time>
      </trkpt>
      <trkpt lat="42.456555" lon="-6.167161">
        <ele>987.4</ele>
        <time>2022-08-18T07:30:03Z</time>
      </trkpt>
      <trkpt lat="42.456611" lon="-6.167394">
        <ele>987.2</ele>
        <time>2022-08-18T07:30:56Z</time>
      </trkpt>
      <trkpt lat="42.456645" lon="-6.167643">
        <ele>988.5</ele>
        <time>2022-08-18T07:31:09Z</time>
      </trkpt>
      <trkpt lat="42.456694" lon="-6.167885">
        <ele>989.5</ele>
        <time>2022-08-18T07:31:23Z</time>
      </trkpt>
      <trkpt lat="42.456751" lon="-6.168120">
        <ele>991.5</ele>
        <time>2022-08-18T07:31:49Z</time>
      </trkpt>
      <trkpt lat="42.456812" lon="-6.168367">
        <ele>992.5</ele>
        <time>2022-08-18T07:32:03Z</time>
      </trkpt>
      <trkpt lat="42.456837" lon="-6.168620">
        <ele>991.5</ele>
        <time>2022-08-18T07:32:16Z</time>
      </trkpt>
      <trkpt lat="42.456876" lon="-6.168860">
        <ele>991.5</ele>
        <time>2022-08-18T07:32:28Z</time>
      </trkpt>
      <trkpt lat="42.456930" lon="-6.169109">
        <ele>989.5</ele>
        <time>2022-08-18T07:32:41Z</time>
      </trkpt>
      <trkpt lat="42.456984" lon="-6.169352">
        <ele>990.5</ele>
        <time>2022-08-18T07:32:54Z</time>
      </trkpt>
      <trkpt lat="42.457045" lon="-6.169602">
        <ele>988.8</ele>
        <time>2022-08-18T07:33:09Z</time>
      </trkpt>
      <trkpt lat="42.457093" lon="-6.169853">
        <ele>988.7</ele>
        <time>2022-08-18T07:33:24Z</time>
      </trkpt>
      <trkpt lat="42.457137" lon="-6.170100">
        <ele>986.5</ele>
        <time>2022-08-18T07:33:37Z</time>
      </trkpt>
      <trkpt lat="42.457186" lon="-6.170337">
        <ele>988.2</ele>
        <time>2022-08-18T07:33:49Z</time>
      </trkpt>
      <trkpt lat="42.457233" lon="-6.170580">
        <ele>990.4</ele>
        <time>2022-08-18T07:34:02Z</time>
      </trkpt>
      <trkpt lat="42.457286" lon="-6.170832">
        <ele>986.8</ele>
        <time>2022-08-18T07:34:16Z</time>
      </trkpt>
      <trkpt lat="42.457337" lon="-6.171080">
        <ele>989.4</ele>
        <time>2022-08-18T07:34:29Z</time>
      </trkpt>
      <trkpt lat="42.457380" lon="-6.171330">
        <ele>990.2</ele>
        <time>2022-08-18T07:34:43Z</time>
      </trkpt>
      <trkpt lat="42.457425" lon="-6.171572">
        <ele>990.4</ele>
        <time>2022-08-18T07:34:56Z</time>
      </trkpt>
      <trkpt lat="42.457466" lon="-6.171810">
        <ele>989.5</ele>
        <time>2022-08-18T07:35:09Z</time>
      </trkpt>
      <trkpt lat="42.457517" lon="-6.172059">
        <ele>991.2</ele>
        <time>2022-08-18T07:35:23Z</time>
      </trkpt>
      <trkpt lat="42.457567" lon="-6.172308">
        <ele>994.4</ele>
        <time>2022-08-18T07:35:37Z</time>
      </trkpt>
      <trkpt lat="42.457626" lon="-6.172545">
        <ele>992.8</ele>
        <time>2022-08-18T07:35:50Z</time>
      </trkpt>
      <trkpt lat="42.457662" lon="-6.172797">
        <ele>992.5</ele>
        <time>2022-08-18T07:36:04Z</time>
      </trkpt>
      <trkpt lat="42.457716" lon="-6.173039">
        <ele>993.5</ele>
        <time>2022-08-18T07:36:18Z</time>
      </trkpt>
      <trkpt lat="42.457772" lon="-6.173281">
        <ele>995.5</ele>
        <time>2022-08-18T07:36:31Z</time>
      </trkpt>
      <trkpt lat="42.457814" lon="-6.173528">
        <ele>994.8</ele>
        <time>2022-08-18T07:36:44Z</time>
      </trkpt>
      <trkpt lat="42.457848" lon="-6.173768">
        <ele>995.4</ele>
        <time>2022-08-18T07:36:57Z</time>
      </trkpt>
      <trkpt lat="42.457895" lon="-6.174009">
        <ele>994.5</ele>
        <time>2022-08-18T07:37:11Z</time>
      </trkpt>
      <trkpt lat="42.457952" lon="-6.174256">
        <ele>992.1</ele>
        <time>2022-08-18T07:37:25Z</time>
      </trkpt>
      <trkpt lat="42.457991" lon="-6.174495">
        <ele>992.5</ele>
        <time>2022-08-18T07:37:38Z</time>
      </trkpt>
      <trkpt lat="42.458043" lon="-6.174748">
        <ele>996.4</ele>
        <time>2022-08-18T07:37:52Z</time>
      </trkpt>
      <trkpt lat="42.458076" lon="-6.174998">
        <ele>998.4</ele>
        <time>2022-08-18T07:38:08Z</time>
      </trkpt>
      <trkpt lat="42.458119" lon="-6.175238">
        <ele>1001.4</ele>
        <time>2022-08-18T07:38:21Z</time>
      </trkpt>
      <trkpt lat="42.458159" lon="-6.175487">
        <ele>1000.7</ele>
        <time>2022-08-18T07:38:36Z</time>
      </trkpt>
      <trkpt lat="42.458197" lon="-6.175728">
        <ele>1000.4</ele>
        <time>2022-08-18T07:38:49Z</time>
      </trkpt>
      <trkpt lat="42.458259" lon="-6.175966">
        <ele>998.8</ele>
        <time>2022-08-18T07:39:04Z</time>
      </trkpt>
      <trkpt lat="42.458314" lon="-6.176201">
        <ele>996.5</ele>
        <time>2022-08-18T07:39:17Z</time>
      </trkpt>
      <trkpt lat="42.458341" lon="-6.176456">
        <ele>997.4</ele>
        <time>2022-08-18T07:39:32Z</time>
      </trkpt>
      <trkpt lat="42.458369" lon="-6.176712">
        <ele>1000.7</ele>
        <time>2022-08-18T07:40:07Z</time>
      </trkpt>
      <trkpt lat="42.458423" lon="-6.176947">
        <ele>998.4</ele>
        <time>2022-08-18T07:40:21Z</time>
      </trkpt>
      <trkpt lat="42.458463" lon="-6.177194">
        <ele>995.4</ele>
        <time>2022-08-18T07:40:35Z</time>
      </trkpt>
      <trkpt lat="42.458496" lon="-6.177448">
        <ele>994.4</ele>
        <time>2022-08-18T07:40:48Z</time>
      </trkpt>
      <trkpt lat="42.458538" lon="-6.177695">
        <ele>994.4</ele>
        <time>2022-08-18T07:41:02Z</time>
      </trkpt>
      <trkpt lat="42.458587" lon="-6.177932">
        <ele>996.3</ele>
        <time>2022-08-18T07:41:15Z</time>
      </trkpt>
      <trkpt lat="42.458608" lon="-6.178175">
        <ele>999.6</ele>
        <time>2022-08-18T07:41:27Z</time>
      </trkpt>
      <trkpt lat="42.458648" lon="-6.178429">
        <ele>998.4</ele>
        <time>2022-08-18T07:41:42Z</time>
      </trkpt>
      <trkpt lat="42.458692" lon="-6.178673">
        <ele>995.4</ele>
        <time>2022-08-18T07:41:55Z</time>
      </trkpt>
      <trkpt lat="42.458724" lon="-6.178920">
        <ele>996.4</ele>
        <time>2022-08-18T07:42:08Z</time>
      </trkpt>
      <trkpt lat="42.458770" lon="-6.179158">
        <ele>997.4</ele>
        <time>2022-08-18T07:42:21Z</time>
      </trkpt>
      <trkpt lat="42.458801" lon="-6.179410">
        <ele>997.4</ele>
        <time>2022-08-18T07:42:35Z</time>
      </trkpt>
      <trkpt lat="42.458835" lon="-6.179655">
        <ele>996.4</ele>
        <time>2022-08-18T07:42:48Z</time>
      </trkpt>
      <trkpt lat="42.458875" lon="-6.179905">
        <ele>996.4</ele>
        <time>2022-08-18T07:43:02Z</time>
      </trkpt>
      <trkpt lat="42.458908" lon="-6.180152">
        <ele>997.1</ele>
        <time>2022-08-18T07:43:15Z</time>
      </trkpt>
      <trkpt lat="42.458952" lon="-6.180397">
        <ele>997.2</ele>
        <time>2022-08-18T07:43:29Z</time>
      </trkpt>
      <trkpt lat="42.458992" lon="-6.180637">
        <ele>996.4</ele>
        <time>2022-08-18T07:43:42Z</time>
      </trkpt>
      <trkpt lat="42.459040" lon="-6.180887">
        <ele>994.5</ele>
        <time>2022-08-18T07:43:56Z</time>
      </trkpt>
      <trkpt lat="42.459084" lon="-6.181142">
        <ele>995.5</ele>
        <time>2022-08-18T07:44:11Z</time>
      </trkpt>
      <trkpt lat="42.459114" lon="-6.181385">
        <ele>994.4</ele>
        <time>2022-08-18T07:44:24Z</time>
      </trkpt>
      <trkpt lat="42.459141" lon="-6.181648">
        <ele>993.8</ele>
        <time>2022-08-18T07:44:37Z</time>
      </trkpt>
      <trkpt lat="42.459200" lon="-6.181899">
        <ele>994.4</ele>
        <time>2022-08-18T07:44:51Z</time>
      </trkpt>
      <trkpt lat="42.459213" lon="-6.182156">
        <ele>995.7</ele>
        <time>2022-08-18T07:45:05Z</time>
      </trkpt>
      <trkpt lat="42.459249" lon="-6.182407">
        <ele>996.4</ele>
        <time>2022-08-18T07:45:19Z</time>
      </trkpt>
      <trkpt lat="42.459293" lon="-6.182652">
        <ele>998.4</ele>
        <time>2022-08-18T07:45:33Z</time>
      </trkpt>
      <trkpt lat="42.459329" lon="-6.182892">
        <ele>996.4</ele>
        <time>2022-08-18T07:45:47Z</time>
      </trkpt>
      <trkpt lat="42.459397" lon="-6.183124">
        <ele>1001.1</ele>
        <time>2022-08-18T07:46:12Z</time>
      </trkpt>
      <trkpt lat="42.459440" lon="-6.183369">
        <ele>998.7</ele>
        <time>2022-08-18T07:46:26Z</time>
      </trkpt>
      <trkpt lat="42.459515" lon="-6.183610">
        <ele>1000.1</ele>
        <time>2022-08-18T07:46:46Z</time>
      </trkpt>
      <trkpt lat="42.459606" lon="-6.183825">
        <ele>999.5</ele>
        <time>2022-08-18T07:46:59Z</time>
      </trkpt>
      <trkpt lat="42.459689" lon="-6.184054">
        <ele>997.4</ele>
        <time>2022-08-18T07:47:12Z</time>
      </trkpt>
      <trkpt lat="42.459780" lon="-6.184273">
        <ele>997.4</ele>
        <time>2022-08-18T07:47:25Z</time>
      </trkpt>
      <trkpt lat="42.459861" lon="-6.184497">
        <ele>999.1</ele>
        <time>2022-08-18T07:47:39Z</time>
      </trkpt>
      <trkpt lat="42.459915" lon="-6.184744">
        <ele>999.4</ele>
        <time>2022-08-18T07:47:55Z</time>
      </trkpt>
      <trkpt lat="42.459979" lon="-6.184996">
        <ele>999.5</ele>
        <time>2022-08-18T07:48:09Z</time>
      </trkpt>
      <trkpt lat="42.460033" lon="-6.185235">
        <ele>996.4</ele>
        <time>2022-08-18T07:48:22Z</time>
      </trkpt>
      <trkpt lat="42.460061" lon="-6.185478">
        <ele>994.5</ele>
        <time>2022-08-18T07:48:36Z</time>
      </trkpt>
      <trkpt lat="42.460093" lon="-6.185728">
        <ele>994.5</ele>
        <time>2022-08-18T07:48:49Z</time>
      </trkpt>
      <trkpt lat="42.460129" lon="-6.185971">
        <ele>1000.3</ele>
        <time>2022-08-18T07:49:34Z</time>
      </trkpt>
      <trkpt lat="42.460175" lon="-6.186220">
        <ele>999.4</ele>
        <time>2022-08-18T07:49:48Z</time>
      </trkpt>
      <trkpt lat="42.460208" lon="-6.186472">
        <ele>1000.4</ele>
        <time>2022-08-18T07:50:04Z</time>
      </trkpt>
      <trkpt lat="42.460256" lon="-6.186711">
        <ele>998.7</ele>
        <time>2022-08-18T07:50:16Z</time>
      </trkpt>
      <trkpt lat="42.460296" lon="-6.186953">
        <ele>998.4</ele>
        <time>2022-08-18T07:50:29Z</time>
      </trkpt>
      <trkpt lat="42.460331" lon="-6.187205">
        <ele>996.7</ele>
        <time>2022-08-18T07:50:43Z</time>
      </trkpt>
      <trkpt lat="42.460374" lon="-6.187447">
        <ele>997.6</ele>
        <time>2022-08-18T07:50:55Z</time>
      </trkpt>
      <trkpt lat="42.460404" lon="-6.187692">
        <ele>998.4</ele>
        <time>2022-08-18T07:51:08Z</time>
      </trkpt>
      <trkpt lat="42.460431" lon="-6.187946">
        <ele>999.3</ele>
        <time>2022-08-18T07:51:22Z</time>
      </trkpt>
      <trkpt lat="42.460447" lon="-6.188189">
        <ele>999.4</ele>
        <time>2022-08-18T07:51:35Z</time>
      </trkpt>
      <trkpt lat="42.460497" lon="-6.188427">
        <ele>999.4</ele>
        <time>2022-08-18T07:51:48Z</time>
      </trkpt>
      <trkpt lat="42.460520" lon="-6.188674">
        <ele>999.5</ele>
        <time>2022-08-18T07:52:01Z</time>
      </trkpt>
      <trkpt lat="42.460550" lon="-6.188922">
        <ele>1000.7</ele>
        <time>2022-08-18T07:52:15Z</time>
      </trkpt>
      <trkpt lat="42.460588" lon="-6.189176">
        <ele>1002.4</ele>
        <time>2022-08-18T07:52:28Z</time>
      </trkpt>
      <trkpt lat="42.460603" lon="-6.189425">
        <ele>1003.4</ele>
        <time>2022-08-18T07:52:44Z</time>
      </trkpt>
      <trkpt lat="42.460638" lon="-6.189679">
        <ele>1004.5</ele>
        <time>2022-08-18T07:52:57Z</time>
      </trkpt>
      <trkpt lat="42.460665" lon="-6.189929">
        <ele>1005.4</ele>
        <time>2022-08-18T07:53:10Z</time>
      </trkpt>
      <trkpt lat="42.460741" lon="-6.190154">
        <ele>1009.4</ele>
        <time>2022-08-18T07:53:32Z</time>
      </trkpt>
      <trkpt lat="42.460785" lon="-6.190391">
        <ele>1007.5</ele>
        <time>2022-08-18T07:53:44Z</time>
      </trkpt>
      <trkpt lat="42.460815" lon="-6.190639">
        <ele>1007.1</ele>
        <time>2022-08-18T07:53:57Z</time>
      </trkpt>
      <trkpt lat="42.460845" lon="-6.190893">
        <ele>1007.4</ele>
        <time>2022-08-18T07:54:12Z</time>
      </trkpt>
      <trkpt lat="42.460890" lon="-6.191140">
        <ele>1007.4</ele>
        <time>2022-08-18T07:54:25Z</time>
      </trkpt>
      <trkpt lat="42.460927" lon="-6.191391">
        <ele>1008.4</ele>
        <time>2022-08-18T07:54:38Z</time>
      </trkpt>
      <trkpt lat="42.460958" lon="-6.191634">
        <ele>1009.1</ele>
        <time>2022-08-18T07:54:51Z</time>
      </trkpt>
      <trkpt lat="42.461007" lon="-6.191879">
        <ele>1008.4</ele>
        <time>2022-08-18T07:55:05Z</time>
      </trkpt>
      <trkpt lat="42.461044" lon="-6.192134">
        <ele>1007.5</ele>
        <time>2022-08-18T07:55:18Z</time>
      </trkpt>
      <trkpt lat="42.461068" lon="-6.192378">
        <ele>1008.4</ele>
        <time>2022-08-18T07:55:32Z</time>
      </trkpt>
      <trkpt lat="42.461066" lon="-6.192629">
        <ele>1006.4</ele>
        <time>2022-08-18T07:55:46Z</time>
      </trkpt>
      <trkpt lat="42.461051" lon="-6.192882">
        <ele>1005.7</ele>
        <time>2022-08-18T07:56:00Z</time>
      </trkpt>
      <trkpt lat="42.461043" lon="-6.193134">
        <ele>1008.4</ele>
        <time>2022-08-18T07:56:14Z</time>
      </trkpt>
      <trkpt lat="42.461061" lon="-6.193391">
        <ele>1008.4</ele>
        <time>2022-08-18T07:56:28Z</time>
      </trkpt>
      <trkpt lat="42.461071" lon="-6.193652">
        <ele>1008.4</ele>
        <time>2022-08-18T07:56:43Z</time>
      </trkpt>
      <trkpt lat="42.461070" lon="-6.193910">
        <ele>1009.3</ele>
        <time>2022-08-18T07:56:56Z</time>
      </trkpt>
      <trkpt lat="42.461077" lon="-6.194155">
        <ele>1010.4</ele>
        <time>2022-08-18T07:57:10Z</time>
      </trkpt>
      <trkpt lat="42.461081" lon="-6.194411">
        <ele>1010.4</ele>
        <time>2022-08-18T07:57:28Z</time>
      </trkpt>
      <trkpt lat="42.461087" lon="-6.194659">
        <ele>1009.2</ele>
        <time>2022-08-18T07:57:42Z</time>
      </trkpt>
      <trkpt lat="42.461066" lon="-6.194911">
        <ele>1010.1</ele>
        <time>2022-08-18T07:57:56Z</time>
      </trkpt>
      <trkpt lat="42.461063" lon="-6.195167">
        <ele>1008.7</ele>
        <time>2022-08-18T07:58:10Z</time>
      </trkpt>
      <trkpt lat="42.461049" lon="-6.195413">
        <ele>1007.4</ele>
        <time>2022-08-18T07:58:23Z</time>
      </trkpt>
      <trkpt lat="42.461057" lon="-6.195661">
        <ele>1009.4</ele>
        <time>2022-08-18T07:58:36Z</time>
      </trkpt>
      <trkpt lat="42.461043" lon="-6.195908">
        <ele>1009.3</ele>
        <time>2022-08-18T07:58:50Z</time>
      </trkpt>
      <trkpt lat="42.461045" lon="-6.196155">
        <ele>1008.6</ele>
        <time>2022-08-18T07:59:03Z</time>
      </trkpt>
      <trkpt lat="42.461041" lon="-6.196405">
        <ele>1011.1</ele>
        <time>2022-08-18T07:59:17Z</time>
      </trkpt>
      <trkpt lat="42.461038" lon="-6.196658">
        <ele>1011.4</ele>
        <time>2022-08-18T07:59:30Z</time>
      </trkpt>
      <trkpt lat="42.461026" lon="-6.196913">
        <ele>1012.3</ele>
        <time>2022-08-18T07:59:44Z</time>
      </trkpt>
      <trkpt lat="42.461052" lon="-6.197162">
        <ele>1011.4</ele>
        <time>2022-08-18T07:59:57Z</time>
      </trkpt>
      <trkpt lat="42.461040" lon="-6.197419">
        <ele>1012.3</ele>
        <time>2022-08-18T08:00:12Z</time>
      </trkpt>
      <trkpt lat="42.461012" lon="-6.197676">
        <ele>1012.4</ele>
        <time>2022-08-18T08:00:26Z</time>
      </trkpt>
      <trkpt lat="42.460998" lon="-6.197933">
        <ele>1011.3</ele>
        <time>2022-08-18T08:00:40Z</time>
      </trkpt>
      <trkpt lat="42.461001" lon="-6.198183">
        <ele>1010.5</ele>
        <time>2022-08-18T08:00:54Z</time>
      </trkpt>
      <trkpt lat="42.461018" lon="-6.198436">
        <ele>1010.4</ele>
        <time>2022-08-18T08:01:07Z</time>
      </trkpt>
      <trkpt lat="42.461040" lon="-6.198693">
        <ele>1012.4</ele>
        <time>2022-08-18T08:01:21Z</time>
      </trkpt>
      <trkpt lat="42.461072" lon="-6.198936">
        <ele>1011.5</ele>
        <time>2022-08-18T08:01:35Z</time>
      </trkpt>
      <trkpt lat="42.461122" lon="-6.199176">
        <ele>1012.4</ele>
        <time>2022-08-18T08:01:47Z</time>
      </trkpt>
      <trkpt lat="42.461191" lon="-6.199402">
        <ele>1011.4</ele>
        <time>2022-08-18T08:02:01Z</time>
      </trkpt>
      <trkpt lat="42.461251" lon="-6.199636">
        <ele>1011.4</ele>
        <time>2022-08-18T08:02:14Z</time>
      </trkpt>
      <trkpt lat="42.461316" lon="-6.199870">
        <ele>1011.4</ele>
        <time>2022-08-18T08:02:28Z</time>
      </trkpt>
      <trkpt lat="42.461362" lon="-6.200116">
        <ele>1011.4</ele>
        <time>2022-08-18T08:02:42Z</time>
      </trkpt>
      <trkpt lat="42.461418" lon="-6.200358">
        <ele>1011.4</ele>
        <time>2022-08-18T08:02:57Z</time>
      </trkpt>
      <trkpt lat="42.461430" lon="-6.200608">
        <ele>1010.4</ele>
        <time>2022-08-18T08:03:11Z</time>
      </trkpt>
      <trkpt lat="42.461436" lon="-6.200866">
        <ele>1011.4</ele>
        <time>2022-08-18T08:03:24Z</time>
      </trkpt>
      <trkpt lat="42.461427" lon="-6.201111">
        <ele>1012.4</ele>
        <time>2022-08-18T08:03:37Z</time>
      </trkpt>
      <trkpt lat="42.461435" lon="-6.201367">
        <ele>1012.6</ele>
        <time>2022-08-18T08:03:51Z</time>
      </trkpt>
      <trkpt lat="42.461489" lon="-6.201612">
        <ele>1012.4</ele>
        <time>2022-08-18T08:04:05Z</time>
      </trkpt>
      <trkpt lat="42.461534" lon="-6.201859">
        <ele>1013.4</ele>
        <time>2022-08-18T08:04:19Z</time>
      </trkpt>
      <trkpt lat="42.461574" lon="-6.202097">
        <ele>1012.5</ele>
        <time>2022-08-18T08:04:32Z</time>
      </trkpt>
      <trkpt lat="42.461634" lon="-6.202335">
        <ele>1010.7</ele>
        <time>2022-08-18T08:04:46Z</time>
      </trkpt>
      <trkpt lat="42.461687" lon="-6.202570">
        <ele>1009.6</ele>
        <time>2022-08-18T08:05:00Z</time>
      </trkpt>
      <trkpt lat="42.461702" lon="-6.202814">
        <ele>1012.3</ele>
        <time>2022-08-18T08:05:22Z</time>
      </trkpt>
      <trkpt lat="42.461696" lon="-6.203065">
        <ele>1011.4</ele>
        <time>2022-08-18T08:05:39Z</time>
      </trkpt>
      <trkpt lat="42.461728" lon="-6.203319">
        <ele>1013.1</ele>
        <time>2022-08-18T08:05:52Z</time>
      </trkpt>
      <trkpt lat="42.461780" lon="-6.203553">
        <ele>1014.3</ele>
        <time>2022-08-18T08:06:28Z</time>
      </trkpt>
      <trkpt lat="42.461820" lon="-6.203796">
        <ele>1012.4</ele>
        <time>2022-08-18T08:06:42Z</time>
      </trkpt>
      <trkpt lat="42.461863" lon="-6.204042">
        <ele>1009.4</ele>
        <time>2022-08-18T08:06:57Z</time>
      </trkpt>
      <trkpt lat="42.461926" lon="-6.204277">
        <ele>1009.4</ele>
        <time>2022-08-18T08:07:10Z</time>
      </trkpt>
      <trkpt lat="42.462034" lon="-6.204481">
        <ele>1010.1</ele>
        <time>2022-08-18T08:07:22Z</time>
      </trkpt>
      <trkpt lat="42.462164" lon="-6.204660">
        <ele>1009.6</ele>
        <time>2022-08-18T08:07:36Z</time>
      </trkpt>
      <trkpt lat="42.462297" lon="-6.204840">
        <ele>1009.4</ele>
        <time>2022-08-18T08:07:50Z</time>
      </trkpt>
      <trkpt lat="42.462400" lon="-6.205049">
        <ele>1011.4</ele>
        <time>2022-08-18T08:08:05Z</time>
      </trkpt>
      <trkpt lat="42.462493" lon="-6.205271">
        <ele>1012.3</ele>
        <time>2022-08-18T08:08:31Z</time>
      </trkpt>
      <trkpt lat="42.462676" lon="-6.205377">
        <ele>1012.4</ele>
        <time>2022-08-18T08:08:48Z</time>
      </trkpt>
      <trkpt lat="42.462798" lon="-6.205697">
        <ele>1012.4</ele>
        <time>2022-08-18T08:09:02Z</time>
      </trkpt>
      <trkpt lat="42.462883" lon="-6.205969">
        <ele>1013.1</ele>
        <time>2022-08-18T08:09:14Z</time>
      </trkpt>
      <trkpt lat="42.462926" lon="-6.206276">
        <ele>1014.4</ele>
        <time>2022-08-18T08:09:28Z</time>
      </trkpt>
      <trkpt lat="42.462903" lon="-6.206561">
        <ele>1012.7</ele>
        <time>2022-08-18T08:09:42Z</time>
      </trkpt>
      <trkpt lat="42.462853" lon="-6.206742">
        <ele>1010.7</ele>
        <time>2022-08-18T08:09:55Z</time>
      </trkpt>
      <trkpt lat="42.462884" lon="-6.207017">
        <ele>1008.7</ele>
        <time>2022-08-18T08:10:08Z</time>
      </trkpt>
      <trkpt lat="42.462971" lon="-6.207151">
        <ele>1008.3</ele>
        <time>2022-08-18T08:10:21Z</time>
      </trkpt>
      <trkpt lat="42.463030" lon="-6.207344">
        <ele>1006.3</ele>
        <time>2022-08-18T08:10:34Z</time>
      </trkpt>
      <trkpt lat="42.463090" lon="-6.207552">
        <ele>1009.3</ele>
        <time>2022-08-18T08:10:49Z</time>
      </trkpt>
      <trkpt lat="42.463116" lon="-6.207884">
        <ele>1010.3</ele>
        <time>2022-08-18T08:11:04Z</time>
      </trkpt>
      <trkpt lat="42.463002" lon="-6.208141">
        <ele>1014.3</ele>
        <time>2022-08-18T08:11:17Z</time>
      </trkpt>
      <trkpt lat="42.462868" lon="-6.208350">
        <ele>1017.3</ele>
        <time>2022-08-18T08:11:32Z</time>
      </trkpt>
      <trkpt lat="42.462668" lon="-6.208403">
        <ele>1015.4</ele>
        <time>2022-08-18T08:11:53Z</time>
      </trkpt>
      <trkpt lat="42.462590" lon="-6.208625">
        <ele>1008.3</ele>
        <time>2022-08-18T08:12:17Z</time>
      </trkpt>
      <trkpt lat="42.462607" lon="-6.208876">
        <ele>1009.6</ele>
        <time>2022-08-18T08:12:48Z</time>
      </trkpt>
      <trkpt lat="42.462637" lon="-6.209121">
        <ele>1007.3</ele>
        <time>2022-08-18T08:13:02Z</time>
      </trkpt>
      <trkpt lat="42.462680" lon="-6.209360">
        <ele>1007.3</ele>
        <time>2022-08-18T08:13:15Z</time>
      </trkpt>
      <trkpt lat="42.462693" lon="-6.209615">
        <ele>1006.0</ele>
        <time>2022-08-18T08:13:29Z</time>
      </trkpt>
      <trkpt lat="42.462688" lon="-6.209868">
        <ele>1006.3</ele>
        <time>2022-08-18T08:13:42Z</time>
      </trkpt>
      <trkpt lat="42.462714" lon="-6.210111">
        <ele>1008.3</ele>
        <time>2022-08-18T08:13:56Z</time>
      </trkpt>
      <trkpt lat="42.462731" lon="-6.210369">
        <ele>1008.4</ele>
        <time>2022-08-18T08:14:10Z</time>
      </trkpt>
      <trkpt lat="42.462773" lon="-6.210616">
        <ele>1008.3</ele>
        <time>2022-08-18T08:14:23Z</time>
      </trkpt>
      <trkpt lat="42.462851" lon="-6.210848">
        <ele>1008.6</ele>
        <time>2022-08-18T08:14:55Z</time>
      </trkpt>
      <trkpt lat="42.462873" lon="-6.211092">
        <ele>1007.3</ele>
        <time>2022-08-18T08:15:07Z</time>
      </trkpt>
      <trkpt lat="42.462901" lon="-6.211344">
        <ele>1006.3</ele>
        <time>2022-08-18T08:15:20Z</time>
      </trkpt>
      <trkpt lat="42.462907" lon="-6.211604">
        <ele>1006.3</ele>
        <time>2022-08-18T08:15:35Z</time>
      </trkpt>
      <trkpt lat="42.462934" lon="-6.211851">
        <ele>1004.4</ele>
        <time>2022-08-18T08:15:48Z</time>
      </trkpt>
      <trkpt lat="42.462924" lon="-6.212096">
        <ele>1004.3</ele>
        <time>2022-08-18T08:16:02Z</time>
      </trkpt>
      <trkpt lat="42.462946" lon="-6.212340">
        <ele>1004.3</ele>
        <time>2022-08-18T08:16:15Z</time>
      </trkpt>
      <trkpt lat="42.462950" lon="-6.212589">
        <ele>1003.3</ele>
        <time>2022-08-18T08:16:29Z</time>
      </trkpt>
      <trkpt lat="42.463002" lon="-6.212825">
        <ele>1003.3</ele>
        <time>2022-08-18T08:16:42Z</time>
      </trkpt>
      <trkpt lat="42.463020" lon="-6.213072">
        <ele>1004.3</ele>
        <time>2022-08-18T08:16:55Z</time>
      </trkpt>
      <trkpt lat="42.463042" lon="-6.213327">
        <ele>1003.3</ele>
        <time>2022-08-18T08:17:08Z</time>
      </trkpt>
      <trkpt lat="42.463042" lon="-6.213573">
        <ele>1002.3</ele>
        <time>2022-08-18T08:17:22Z</time>
      </trkpt>
      <trkpt lat="42.463058" lon="-6.213832">
        <ele>1002.3</ele>
        <time>2022-08-18T08:17:35Z</time>
      </trkpt>
      <trkpt lat="42.463072" lon="-6.214076">
        <ele>1002.4</ele>
        <time>2022-08-18T08:17:48Z</time>
      </trkpt>
      <trkpt lat="42.463099" lon="-6.214337">
        <ele>1003.3</ele>
        <time>2022-08-18T08:18:02Z</time>
      </trkpt>
      <trkpt lat="42.463096" lon="-6.214590">
        <ele>1003.3</ele>
        <time>2022-08-18T08:18:15Z</time>
      </trkpt>
      <trkpt lat="42.463094" lon="-6.214852">
        <ele>1002.3</ele>
        <time>2022-08-18T08:18:29Z</time>
      </trkpt>
      <trkpt lat="42.463129" lon="-6.215093">
        <ele>1003.3</ele>
        <time>2022-08-18T08:18:41Z</time>
      </trkpt>
      <trkpt lat="42.463172" lon="-6.215332">
        <ele>1004.2</ele>
        <time>2022-08-18T08:18:54Z</time>
      </trkpt>
      <trkpt lat="42.463210" lon="-6.215586">
        <ele>1005.3</ele>
        <time>2022-08-18T08:19:08Z</time>
      </trkpt>
      <trkpt lat="42.463279" lon="-6.215813">
        <ele>1005.2</ele>
        <time>2022-08-18T08:19:21Z</time>
      </trkpt>
      <trkpt lat="42.463324" lon="-6.216055">
        <ele>1005.4</ele>
        <time>2022-08-18T08:19:34Z</time>
      </trkpt>
      <trkpt lat="42.463383" lon="-6.216302">
        <ele>1007.0</ele>
        <time>2022-08-18T08:19:48Z</time>
      </trkpt>
      <trkpt lat="42.463414" lon="-6.216547">
        <ele>1005.3</ele>
        <time>2022-08-18T08:20:02Z</time>
      </trkpt>
      <trkpt lat="42.463460" lon="-6.216795">
        <ele>1007.3</ele>
        <time>2022-08-18T08:20:17Z</time>
      </trkpt>
      <trkpt lat="42.463554" lon="-6.217023">
        <ele>1007.3</ele>
        <time>2022-08-18T08:20:30Z</time>
      </trkpt>
      <trkpt lat="42.463645" lon="-6.217244">
        <ele>1005.6</ele>
        <time>2022-08-18T08:20:44Z</time>
      </trkpt>
      <trkpt lat="42.463745" lon="-6.217464">
        <ele>1006.3</ele>
        <time>2022-08-18T08:21:00Z</time>
      </trkpt>
      <trkpt lat="42.463876" lon="-6.217641">
        <ele>1006.3</ele>
        <time>2022-08-18T08:21:14Z</time>
      </trkpt>
      <trkpt lat="42.464018" lon="-6.217801">
        <ele>1007.3</ele>
        <time>2022-08-18T08:21:27Z</time>
      </trkpt>
      <trkpt lat="42.464171" lon="-6.217966">
        <ele>1005.4</ele>
        <time>2022-08-18T08:21:40Z</time>
      </trkpt>
      <trkpt lat="42.464292" lon="-6.218150">
        <ele>1006.3</ele>
        <time>2022-08-18T08:21:54Z</time>
      </trkpt>
      <trkpt lat="42.464412" lon="-6.218334">
        <ele>1005.3</ele>
        <time>2022-08-18T08:22:09Z</time>
      </trkpt>
      <trkpt lat="42.464501" lon="-6.218561">
        <ele>1005.3</ele>
        <time>2022-08-18T08:22:22Z</time>
      </trkpt>
      <trkpt lat="42.464497" lon="-6.218813">
        <ele>1005.3</ele>
        <time>2022-08-18T08:22:53Z</time>
      </trkpt>
      <trkpt lat="42.464455" lon="-6.219066">
        <ele>1004.3</ele>
        <time>2022-08-18T08:23:07Z</time>
      </trkpt>
      <trkpt lat="42.464415" lon="-6.219309">
        <ele>1003.3</ele>
        <time>2022-08-18T08:23:21Z</time>
      </trkpt>
      <trkpt lat="42.464354" lon="-6.219552">
        <ele>1001.3</ele>
        <time>2022-08-18T08:23:36Z</time>
      </trkpt>
      <trkpt lat="42.464316" lon="-6.219802">
        <ele>1003.3</ele>
        <time>2022-08-18T08:23:49Z</time>
      </trkpt>
      <trkpt lat="42.464252" lon="-6.220045">
        <ele>1006.2</ele>
        <time>2022-08-18T08:24:03Z</time>
      </trkpt>
      <trkpt lat="42.464202" lon="-6.220291">
        <ele>1006.4</ele>
        <time>2022-08-18T08:24:17Z</time>
      </trkpt>
      <trkpt lat="42.464192" lon="-6.220539">
        <ele>1008.3</ele>
        <time>2022-08-18T08:24:30Z</time>
      </trkpt>
      <trkpt lat="42.464149" lon="-6.220780">
        <ele>1007.3</ele>
        <time>2022-08-18T08:24:43Z</time>
      </trkpt>
      <trkpt lat="42.464094" lon="-6.221025">
        <ele>1009.3</ele>
        <time>2022-08-18T08:24:58Z</time>
      </trkpt>
      <trkpt lat="42.464069" lon="-6.221278">
        <ele>1011.0</ele>
        <time>2022-08-18T08:25:12Z</time>
      </trkpt>
      <trkpt lat="42.464015" lon="-6.221520">
        <ele>1011.4</ele>
        <time>2022-08-18T08:25:27Z</time>
      </trkpt>
      <trkpt lat="42.463990" lon="-6.221766">
        <ele>1012.3</ele>
        <time>2022-08-18T08:25:40Z</time>
      </trkpt>
      <trkpt lat="42.463989" lon="-6.222019">
        <ele>1013.0</ele>
        <time>2022-08-18T08:25:54Z</time>
      </trkpt>
      <trkpt lat="42.463995" lon="-6.222268">
        <ele>1011.3</ele>
        <time>2022-08-18T08:26:07Z</time>
      </trkpt>
      <trkpt lat="42.463970" lon="-6.222513">
        <ele>1012.3</ele>
        <time>2022-08-18T08:26:21Z</time>
      </trkpt>
      <trkpt lat="42.463985" lon="-6.222770">
        <ele>1013.3</ele>
        <time>2022-08-18T08:26:35Z</time>
      </trkpt>
      <trkpt lat="42.463966" lon="-6.223022">
        <ele>1015.3</ele>
        <time>2022-08-18T08:26:49Z</time>
      </trkpt>
      <trkpt lat="42.463990" lon="-6.223278">
        <ele>1015.3</ele>
        <time>2022-08-18T08:27:03Z</time>
      </trkpt>
      <trkpt lat="42.464007" lon="-6.223541">
        <ele>1017.0</ele>
        <time>2022-08-18T08:27:18Z</time>
      </trkpt>
      <trkpt lat="42.464031" lon="-6.223786">
        <ele>1015.3</ele>
        <time>2022-08-18T08:27:32Z</time>
      </trkpt>
      <trkpt lat="42.464054" lon="-6.224033">
        <ele>1015.3</ele>
        <time>2022-08-18T08:27:47Z</time>
      </trkpt>
      <trkpt lat="42.464089" lon="-6.224273">
        <ele>1016.2</ele>
        <time>2022-08-18T08:27:59Z</time>
      </trkpt>
      <trkpt lat="42.464134" lon="-6.224510">
        <ele>1016.3</ele>
        <time>2022-08-18T08:28:14Z</time>
      </trkpt>
      <trkpt lat="42.464206" lon="-6.224740">
        <ele>1016.6</ele>
        <time>2022-08-18T08:28:27Z</time>
      </trkpt>
      <trkpt lat="42.464280" lon="-6.224971">
        <ele>1015.3</ele>
        <time>2022-08-18T08:28:41Z</time>
      </trkpt>
      <trkpt lat="42.464365" lon="-6.225203">
        <ele>1016.3</ele>
        <time>2022-08-18T08:28:55Z</time>
      </trkpt>
      <trkpt lat="42.464370" lon="-6.225461">
        <ele>1020.0</ele>
        <time>2022-08-18T08:30:36Z</time>
      </trkpt>
      <trkpt lat="42.464445" lon="-6.225701">
        <ele>1020.3</ele>
        <time>2022-08-18T08:30:49Z</time>
      </trkpt>
      <trkpt lat="42.464534" lon="-6.225916">
        <ele>1019.1</ele>
        <time>2022-08-18T08:31:02Z</time>
      </trkpt>
      <trkpt lat="42.464621" lon="-6.226140">
        <ele>1017.3</ele>
        <time>2022-08-18T08:31:16Z</time>
      </trkpt>
      <trkpt lat="42.464702" lon="-6.226361">
        <ele>1018.3</ele>
        <time>2022-08-18T08:31:30Z</time>
      </trkpt>
      <trkpt lat="42.464796" lon="-6.226580">
        <ele>1019.6</ele>
        <time>2022-08-18T08:31:43Z</time>
      </trkpt>
      <trkpt lat="42.464857" lon="-6.226818">
        <ele>1021.3</ele>
        <time>2022-08-18T08:31:58Z</time>
      </trkpt>
      <trkpt lat="42.464936" lon="-6.227050">
        <ele>1024.3</ele>
        <time>2022-08-18T08:32:10Z</time>
      </trkpt>
      <trkpt lat="42.465023" lon="-6.227280">
        <ele>1025.3</ele>
        <time>2022-08-18T08:32:25Z</time>
      </trkpt>
      <trkpt lat="42.465121" lon="-6.227496">
        <ele>1025.3</ele>
        <time>2022-08-18T08:32:40Z</time>
      </trkpt>
      <trkpt lat="42.465216" lon="-6.227726">
        <ele>1023.3</ele>
        <time>2022-08-18T08:32:55Z</time>
      </trkpt>
      <trkpt lat="42.465303" lon="-6.227951">
        <ele>1023.3</ele>
        <time>2022-08-18T08:33:10Z</time>
      </trkpt>
      <trkpt lat="42.465375" lon="-6.228181">
        <ele>1023.0</ele>
        <time>2022-08-18T08:33:25Z</time>
      </trkpt>
      <trkpt lat="42.465457" lon="-6.228400">
        <ele>1022.3</ele>
        <time>2022-08-18T08:33:41Z</time>
      </trkpt>
      <trkpt lat="42.465534" lon="-6.228630">
        <ele>1024.2</ele>
        <time>2022-08-18T08:33:55Z</time>
      </trkpt>
      <trkpt lat="42.465610" lon="-6.228862">
        <ele>1026.3</ele>
        <time>2022-08-18T08:34:09Z</time>
      </trkpt>
      <trkpt lat="42.465686" lon="-6.229086">
        <ele>1028.3</ele>
        <time>2022-08-18T08:34:23Z</time>
      </trkpt>
      <trkpt lat="42.465766" lon="-6.229318">
        <ele>1028.3</ele>
        <time>2022-08-18T08:34:38Z</time>
      </trkpt>
      <trkpt lat="42.465857" lon="-6.229536">
        <ele>1030.3</ele>
        <time>2022-08-18T08:34:51Z</time>
      </trkpt>
      <trkpt lat="42.465950" lon="-6.229761">
        <ele>1031.3</ele>
        <time>2022-08-18T08:35:04Z</time>
      </trkpt>
      <trkpt lat="42.466034" lon="-6.229990">
        <ele>1032.2</ele>
        <time>2022-08-18T08:35:18Z</time>
      </trkpt>
      <trkpt lat="42.466123" lon="-6.230204">
        <ele>1030.4</ele>
        <time>2022-08-18T08:35:32Z</time>
      </trkpt>
      <trkpt lat="42.466202" lon="-6.230438">
        <ele>1029.6</ele>
        <time>2022-08-18T08:35:46Z</time>
      </trkpt>
      <trkpt lat="42.466288" lon="-6.230662">
        <ele>1028.4</ele>
        <time>2022-08-18T08:36:00Z</time>
      </trkpt>
      <trkpt lat="42.466395" lon="-6.230878">
        <ele>1028.3</ele>
        <time>2022-08-18T08:36:13Z</time>
      </trkpt>
      <trkpt lat="42.466474" lon="-6.231109">
        <ele>1030.3</ele>
        <time>2022-08-18T08:36:28Z</time>
      </trkpt>
      <trkpt lat="42.466532" lon="-6.231357">
        <ele>1032.2</ele>
        <time>2022-08-18T08:36:43Z</time>
      </trkpt>
      <trkpt lat="42.466627" lon="-6.231577">
        <ele>1034.2</ele>
        <time>2022-08-18T08:36:56Z</time>
      </trkpt>
      <trkpt lat="42.466698" lon="-6.231805">
        <ele>1033.4</ele>
        <time>2022-08-18T08:37:13Z</time>
      </trkpt>
      <trkpt lat="42.466790" lon="-6.232020">
        <ele>1032.4</ele>
        <time>2022-08-18T08:37:25Z</time>
      </trkpt>
      <trkpt lat="42.466886" lon="-6.232243">
        <ele>1031.3</ele>
        <time>2022-08-18T08:37:37Z</time>
      </trkpt>
      <trkpt lat="42.466968" lon="-6.232478">
        <ele>1032.3</ele>
        <time>2022-08-18T08:37:51Z</time>
      </trkpt>
      <trkpt lat="42.467047" lon="-6.232724">
        <ele>1033.3</ele>
        <time>2022-08-18T08:38:06Z</time>
      </trkpt>
      <trkpt lat="42.467142" lon="-6.232969">
        <ele>1033.3</ele>
        <time>2022-08-18T08:38:21Z</time>
      </trkpt>
      <trkpt lat="42.467226" lon="-6.233192">
        <ele>1035.3</ele>
        <time>2022-08-18T08:38:34Z</time>
      </trkpt>
      <trkpt lat="42.467297" lon="-6.233426">
        <ele>1035.3</ele>
        <time>2022-08-18T08:38:48Z</time>
      </trkpt>
      <trkpt lat="42.467370" lon="-6.233658">
        <ele>1036.4</ele>
        <time>2022-08-18T08:39:03Z</time>
      </trkpt>
      <trkpt lat="42.467449" lon="-6.233884">
        <ele>1036.3</ele>
        <time>2022-08-18T08:39:17Z</time>
      </trkpt>
      <trkpt lat="42.467530" lon="-6.234133">
        <ele>1035.3</ele>
        <time>2022-08-18T08:39:32Z</time>
      </trkpt>
      <trkpt lat="42.467614" lon="-6.234352">
        <ele>1037.2</ele>
        <time>2022-08-18T08:39:45Z</time>
      </trkpt>
      <trkpt lat="42.467695" lon="-6.234588">
        <ele>1036.3</ele>
        <time>2022-08-18T08:39:59Z</time>
      </trkpt>
      <trkpt lat="42.467774" lon="-6.234812">
        <ele>1036.2</ele>
        <time>2022-08-18T08:40:13Z</time>
      </trkpt>
      <trkpt lat="42.467835" lon="-6.235055">
        <ele>1035.4</ele>
        <time>2022-08-18T08:40:27Z</time>
      </trkpt>
      <trkpt lat="42.467927" lon="-6.235277">
        <ele>1039.0</ele>
        <time>2022-08-18T08:40:40Z</time>
      </trkpt>
      <trkpt lat="42.468015" lon="-6.235493">
        <ele>1039.2</ele>
        <time>2022-08-18T08:40:54Z</time>
      </trkpt>
      <trkpt lat="42.468104" lon="-6.235707">
        <ele>1039.3</ele>
        <time>2022-08-18T08:41:07Z</time>
      </trkpt>
      <trkpt lat="42.468183" lon="-6.235940">
        <ele>1042.2</ele>
        <time>2022-08-18T08:41:22Z</time>
      </trkpt>
      <trkpt lat="42.468258" lon="-6.236184">
        <ele>1041.6</ele>
        <time>2022-08-18T08:41:37Z</time>
      </trkpt>
      <trkpt lat="42.468353" lon="-6.236409">
        <ele>1044.0</ele>
        <time>2022-08-18T08:41:51Z</time>
      </trkpt>
      <trkpt lat="42.468448" lon="-6.236630">
        <ele>1045.3</ele>
        <time>2022-08-18T08:42:05Z</time>
      </trkpt>
      <trkpt lat="42.468525" lon="-6.236853">
        <ele>1044.3</ele>
        <time>2022-08-18T08:42:18Z</time>
      </trkpt>
      <trkpt lat="42.468605" lon="-6.237098">
        <ele>1045.0</ele>
        <time>2022-08-18T08:42:33Z</time>
      </trkpt>
      <trkpt lat="42.468699" lon="-6.237317">
        <ele>1046.3</ele>
        <time>2022-08-18T08:42:47Z</time>
      </trkpt>
      <trkpt lat="42.468800" lon="-6.237532">
        <ele>1046.3</ele>
        <time>2022-08-18T08:43:00Z</time>
      </trkpt>
      <trkpt lat="42.468905" lon="-6.237746">
        <ele>1048.0</ele>
        <time>2022-08-18T08:43:16Z</time>
      </trkpt>
      <trkpt lat="42.469001" lon="-6.237958">
        <ele>1047.3</ele>
        <time>2022-08-18T08:43:40Z</time>
      </trkpt>
      <trkpt lat="42.469070" lon="-6.238186">
        <ele>1049.2</ele>
        <time>2022-08-18T08:44:05Z</time>
      </trkpt>
      <trkpt lat="42.469175" lon="-6.238398">
        <ele>1047.3</ele>
        <time>2022-08-18T08:44:18Z</time>
      </trkpt>
      <trkpt lat="42.469272" lon="-6.238606">
        <ele>1046.3</ele>
        <time>2022-08-18T08:44:31Z</time>
      </trkpt>
      <trkpt lat="42.469360" lon="-6.238825">
        <ele>1046.3</ele>
        <time>2022-08-18T08:44:45Z</time>
      </trkpt>
      <trkpt lat="42.469434" lon="-6.239053">
        <ele>1045.4</ele>
        <time>2022-08-18T08:44:58Z</time>
      </trkpt>
      <trkpt lat="42.469510" lon="-6.239288">
        <ele>1045.2</ele>
        <time>2022-08-18T08:45:12Z</time>
      </trkpt>
      <trkpt lat="42.469593" lon="-6.239514">
        <ele>1046.0</ele>
        <time>2022-08-18T08:45:26Z</time>
      </trkpt>
      <trkpt lat="42.469659" lon="-6.239758">
        <ele>1045.3</ele>
        <time>2022-08-18T08:45:40Z</time>
      </trkpt>
      <trkpt lat="42.469747" lon="-6.239972">
        <ele>1046.3</ele>
        <time>2022-08-18T08:45:53Z</time>
      </trkpt>
      <trkpt lat="42.469843" lon="-6.240191">
        <ele>1049.3</ele>
        <time>2022-08-18T08:46:07Z</time>
      </trkpt>
      <trkpt lat="42.469948" lon="-6.240408">
        <ele>1050.3</ele>
        <time>2022-08-18T08:46:21Z</time>
      </trkpt>
      <trkpt lat="42.470048" lon="-6.240617">
        <ele>1049.3</ele>
        <time>2022-08-18T08:46:34Z</time>
      </trkpt>
      <trkpt lat="42.470138" lon="-6.240845">
        <ele>1050.2</ele>
        <time>2022-08-18T08:46:48Z</time>
      </trkpt>
      <trkpt lat="42.470207" lon="-6.241087">
        <ele>1050.3</ele>
        <time>2022-08-18T08:47:02Z</time>
      </trkpt>
      <trkpt lat="42.470297" lon="-6.241299">
        <ele>1048.3</ele>
        <time>2022-08-18T08:47:15Z</time>
      </trkpt>
      <trkpt lat="42.470392" lon="-6.241526">
        <ele>1050.3</ele>
        <time>2022-08-18T08:47:29Z</time>
      </trkpt>
      <trkpt lat="42.470489" lon="-6.241749">
        <ele>1049.3</ele>
        <time>2022-08-18T08:47:42Z</time>
      </trkpt>
      <trkpt lat="42.470563" lon="-6.241975">
        <ele>1052.2</ele>
        <time>2022-08-18T08:47:56Z</time>
      </trkpt>
      <trkpt lat="42.470659" lon="-6.242197">
        <ele>1050.3</ele>
        <time>2022-08-18T08:48:09Z</time>
      </trkpt>
      <trkpt lat="42.470745" lon="-6.242411">
        <ele>1051.2</ele>
        <time>2022-08-18T08:48:22Z</time>
      </trkpt>
      <trkpt lat="42.470823" lon="-6.242645">
        <ele>1050.3</ele>
        <time>2022-08-18T08:48:36Z</time>
      </trkpt>
      <trkpt lat="42.470906" lon="-6.242867">
        <ele>1051.2</ele>
        <time>2022-08-18T08:48:50Z</time>
      </trkpt>
      <trkpt lat="42.470997" lon="-6.243112">
        <ele>1050.3</ele>
        <time>2022-08-18T08:49:04Z</time>
      </trkpt>
      <trkpt lat="42.471096" lon="-6.243346">
        <ele>1051.2</ele>
        <time>2022-08-18T08:49:19Z</time>
      </trkpt>
      <trkpt lat="42.471188" lon="-6.243569">
        <ele>1050.3</ele>
        <time>2022-08-18T08:49:34Z</time>
      </trkpt>
      <trkpt lat="42.471267" lon="-6.243790">
        <ele>1051.2</ele>
        <time>2022-08-18T08:49:48Z</time>
      </trkpt>
      <trkpt lat="42.471358" lon="-6.244007">
        <ele>1052.2</ele>
        <time>2022-08-18T08:50:02Z</time>
      </trkpt>
      <trkpt lat="42.471484" lon="-6.244198">
        <ele>1050.2</ele>
        <time>2022-08-18T08:50:17Z</time>
      </trkpt>
      <trkpt lat="42.471595" lon="-6.244400">
        <ele>1051.2</ele>
        <time>2022-08-18T08:50:31Z</time>
      </trkpt>
      <trkpt lat="42.471631" lon="-6.244643">
        <ele>1050.2</ele>
        <time>2022-08-18T08:50:44Z</time>
      </trkpt>
      <trkpt lat="42.471718" lon="-6.244869">
        <ele>1052.2</ele>
        <time>2022-08-18T08:50:58Z</time>
      </trkpt>
      <trkpt lat="42.471816" lon="-6.245085">
        <ele>1051.2</ele>
        <time>2022-08-18T08:51:12Z</time>
      </trkpt>
      <trkpt lat="42.471872" lon="-6.245322">
        <ele>1051.2</ele>
        <time>2022-08-18T08:51:26Z</time>
      </trkpt>
      <trkpt lat="42.471943" lon="-6.245555">
        <ele>1050.3</ele>
        <time>2022-08-18T08:51:41Z</time>
      </trkpt>
      <trkpt lat="42.472007" lon="-6.245798">
        <ele>1050.2</ele>
        <time>2022-08-18T08:51:54Z</time>
      </trkpt>
      <trkpt lat="42.472043" lon="-6.246040">
        <ele>1049.2</ele>
        <time>2022-08-18T08:52:07Z</time>
      </trkpt>
      <trkpt lat="42.472098" lon="-6.246278">
        <ele>1049.2</ele>
        <time>2022-08-18T08:52:19Z</time>
      </trkpt>
      <trkpt lat="42.472155" lon="-6.246511">
        <ele>1049.2</ele>
        <time>2022-08-18T08:52:32Z</time>
      </trkpt>
      <trkpt lat="42.472197" lon="-6.246748">
        <ele>1050.2</ele>
        <time>2022-08-18T08:52:45Z</time>
      </trkpt>
      <trkpt lat="42.472246" lon="-6.246985">
        <ele>1049.2</ele>
        <time>2022-08-18T08:52:58Z</time>
      </trkpt>
      <trkpt lat="42.472308" lon="-6.247217">
        <ele>1049.2</ele>
        <time>2022-08-18T08:53:11Z</time>
      </trkpt>
      <trkpt lat="42.472401" lon="-6.247428">
        <ele>1048.2</ele>
        <time>2022-08-18T08:53:24Z</time>
      </trkpt>
      <trkpt lat="42.472491" lon="-6.247653">
        <ele>1049.2</ele>
        <time>2022-08-18T08:53:38Z</time>
      </trkpt>
      <trkpt lat="42.472528" lon="-6.247909">
        <ele>1050.3</ele>
        <time>2022-08-18T08:53:51Z</time>
      </trkpt>
      <trkpt lat="42.472580" lon="-6.248148">
        <ele>1052.2</ele>
        <time>2022-08-18T08:54:04Z</time>
      </trkpt>
      <trkpt lat="42.472629" lon="-6.248385">
        <ele>1053.2</ele>
        <time>2022-08-18T08:54:17Z</time>
      </trkpt>
      <trkpt lat="42.472681" lon="-6.248620">
        <ele>1053.2</ele>
        <time>2022-08-18T08:54:30Z</time>
      </trkpt>
      <trkpt lat="42.472751" lon="-6.248850">
        <ele>1051.2</ele>
        <time>2022-08-18T08:54:43Z</time>
      </trkpt>
      <trkpt lat="42.472814" lon="-6.249088">
        <ele>1049.5</ele>
        <time>2022-08-18T08:54:57Z</time>
      </trkpt>
      <trkpt lat="42.472871" lon="-6.249320">
        <ele>1050.2</ele>
        <time>2022-08-18T08:55:10Z</time>
      </trkpt>
      <trkpt lat="42.472919" lon="-6.249560">
        <ele>1051.2</ele>
        <time>2022-08-18T08:55:22Z</time>
      </trkpt>
      <trkpt lat="42.472984" lon="-6.249792">
        <ele>1052.2</ele>
        <time>2022-08-18T08:55:36Z</time>
      </trkpt>
      <trkpt lat="42.473060" lon="-6.250035">
        <ele>1050.3</ele>
        <time>2022-08-18T08:55:51Z</time>
      </trkpt>
      <trkpt lat="42.473120" lon="-6.250277">
        <ele>1050.2</ele>
        <time>2022-08-18T08:56:05Z</time>
      </trkpt>
      <trkpt lat="42.473187" lon="-6.250521">
        <ele>1051.2</ele>
        <time>2022-08-18T08:56:19Z</time>
      </trkpt>
      <trkpt lat="42.473265" lon="-6.250743">
        <ele>1051.2</ele>
        <time>2022-08-18T08:56:32Z</time>
      </trkpt>
      <trkpt lat="42.473359" lon="-6.250958">
        <ele>1053.2</ele>
        <time>2022-08-18T08:56:47Z</time>
      </trkpt>
      <trkpt lat="42.473454" lon="-6.251181">
        <ele>1054.9</ele>
        <time>2022-08-18T08:57:01Z</time>
      </trkpt>
      <trkpt lat="42.473557" lon="-6.251387">
        <ele>1055.2</ele>
        <time>2022-08-18T08:57:15Z</time>
      </trkpt>
      <trkpt lat="42.473655" lon="-6.251606">
        <ele>1054.2</ele>
        <time>2022-08-18T08:57:29Z</time>
      </trkpt>
      <trkpt lat="42.473759" lon="-6.251808">
        <ele>1055.2</ele>
        <time>2022-08-18T08:57:42Z</time>
      </trkpt>
      <trkpt lat="42.473852" lon="-6.252035">
        <ele>1054.2</ele>
        <time>2022-08-18T08:57:57Z</time>
      </trkpt>
      <trkpt lat="42.473970" lon="-6.252226">
        <ele>1052.2</ele>
        <time>2022-08-18T08:58:10Z</time>
      </trkpt>
      <trkpt lat="42.474068" lon="-6.252434">
        <ele>1052.2</ele>
        <time>2022-08-18T08:58:25Z</time>
      </trkpt>
      <trkpt lat="42.474174" lon="-6.252645">
        <ele>1053.5</ele>
        <time>2022-08-18T08:58:40Z</time>
      </trkpt>
      <trkpt lat="42.474137" lon="-6.252888">
        <ele>1053.3</ele>
        <time>2022-08-18T08:59:00Z</time>
      </trkpt>
      <trkpt lat="42.474152" lon="-6.253146">
        <ele>1052.2</ele>
        <time>2022-08-18T08:59:22Z</time>
      </trkpt>
      <trkpt lat="42.474159" lon="-6.253394">
        <ele>1053.0</ele>
        <time>2022-08-18T08:59:37Z</time>
      </trkpt>
      <trkpt lat="42.474122" lon="-6.253659">
        <ele>1050.3</ele>
        <time>2022-08-18T08:59:52Z</time>
      </trkpt>
      <trkpt lat="42.474151" lon="-6.253930">
        <ele>1049.2</ele>
        <time>2022-08-18T09:00:07Z</time>
      </trkpt>
      <trkpt lat="42.474158" lon="-6.254187">
        <ele>1050.2</ele>
        <time>2022-08-18T09:01:00Z</time>
      </trkpt>
      <trkpt lat="42.474231" lon="-6.254412">
        <ele>1051.3</ele>
        <time>2022-08-18T09:01:31Z</time>
      </trkpt>
      <trkpt lat="42.474387" lon="-6.254538">
        <ele>1050.2</ele>
        <time>2022-08-18T09:01:43Z</time>
      </trkpt>
      <trkpt lat="42.474479" lon="-6.254753">
        <ele>1049.2</ele>
        <time>2022-08-18T09:01:59Z</time>
      </trkpt>
      <trkpt lat="42.474637" lon="-6.254890">
        <ele>1053.2</ele>
        <time>2022-08-18T09:02:18Z</time>
      </trkpt>
      <trkpt lat="42.474757" lon="-6.255078">
        <ele>1053.9</ele>
        <time>2022-08-18T09:02:35Z</time>
      </trkpt>
      <trkpt lat="42.474876" lon="-6.255281">
        <ele>1054.2</ele>
        <time>2022-08-18T09:02:50Z</time>
      </trkpt>
      <trkpt lat="42.474961" lon="-6.255497">
        <ele>1056.1</ele>
        <time>2022-08-18T09:03:05Z</time>
      </trkpt>
      <trkpt lat="42.475039" lon="-6.255729">
        <ele>1057.2</ele>
        <time>2022-08-18T09:03:22Z</time>
      </trkpt>
      <trkpt lat="42.475107" lon="-6.255964">
        <ele>1060.2</ele>
        <time>2022-08-18T09:03:40Z</time>
      </trkpt>
      <trkpt lat="42.475136" lon="-6.256218">
        <ele>1061.2</ele>
        <time>2022-08-18T09:03:55Z</time>
      </trkpt>
      <trkpt lat="42.475163" lon="-6.256466">
        <ele>1063.3</ele>
        <time>2022-08-18T09:04:11Z</time>
      </trkpt>
      <trkpt lat="42.475228" lon="-6.256700">
        <ele>1063.2</ele>
        <time>2022-08-18T09:04:27Z</time>
      </trkpt>
      <trkpt lat="42.475298" lon="-6.256930">
        <ele>1065.1</ele>
        <time>2022-08-18T09:04:42Z</time>
      </trkpt>
      <trkpt lat="42.475346" lon="-6.257170">
        <ele>1067.3</ele>
        <time>2022-08-18T09:04:57Z</time>
      </trkpt>
      <trkpt lat="42.475473" lon="-6.257355">
        <ele>1069.2</ele>
        <time>2022-08-18T09:05:15Z</time>
      </trkpt>
      <trkpt lat="42.475573" lon="-6.257576">
        <ele>1071.2</ele>
        <time>2022-08-18T09:05:29Z</time>
      </trkpt>
      <trkpt lat="42.475690" lon="-6.257774">
        <ele>1073.0</ele>
        <time>2022-08-18T09:05:44Z</time>
      </trkpt>
      <trkpt lat="42.475771" lon="-6.257998">
        <ele>1074.2</ele>
        <time>2022-08-18T09:06:00Z</time>
      </trkpt>
      <trkpt lat="42.475870" lon="-6.258223">
        <ele>1078.2</ele>
        <time>2022-08-18T09:06:19Z</time>
      </trkpt>
      <trkpt lat="42.476011" lon="-6.258378">
        <ele>1078.2</ele>
        <time>2022-08-18T09:07:00Z</time>
      </trkpt>
      <trkpt lat="42.476129" lon="-6.258564">
        <ele>1077.9</ele>
        <time>2022-08-18T09:07:17Z</time>
      </trkpt>
      <trkpt lat="42.476254" lon="-6.258763">
        <ele>1079.2</ele>
        <time>2022-08-18T09:07:34Z</time>
      </trkpt>
      <trkpt lat="42.476385" lon="-6.258940">
        <ele>1082.2</ele>
        <time>2022-08-18T09:07:49Z</time>
      </trkpt>
      <trkpt lat="42.476506" lon="-6.259163">
        <ele>1082.2</ele>
        <time>2022-08-18T09:08:04Z</time>
      </trkpt>
      <trkpt lat="42.476631" lon="-6.259348">
        <ele>1083.2</ele>
        <time>2022-08-18T09:08:19Z</time>
      </trkpt>
      <trkpt lat="42.476765" lon="-6.259526">
        <ele>1084.2</ele>
        <time>2022-08-18T09:08:32Z</time>
      </trkpt>
      <trkpt lat="42.476890" lon="-6.259714">
        <ele>1086.9</ele>
        <time>2022-08-18T09:08:46Z</time>
      </trkpt>
      <trkpt lat="42.477014" lon="-6.259897">
        <ele>1089.1</ele>
        <time>2022-08-18T09:08:58Z</time>
      </trkpt>
      <trkpt lat="42.477142" lon="-6.260087">
        <ele>1091.2</ele>
        <time>2022-08-18T09:09:11Z</time>
      </trkpt>
      <trkpt lat="42.477278" lon="-6.260278">
        <ele>1090.5</ele>
        <time>2022-08-18T09:09:25Z</time>
      </trkpt>
      <trkpt lat="42.477414" lon="-6.260447">
        <ele>1092.2</ele>
        <time>2022-08-18T09:09:39Z</time>
      </trkpt>
      <trkpt lat="42.477540" lon="-6.260623">
        <ele>1092.2</ele>
        <time>2022-08-18T09:09:53Z</time>
      </trkpt>
      <trkpt lat="42.477665" lon="-6.260810">
        <ele>1091.2</ele>
        <time>2022-08-18T09:10:08Z</time>
      </trkpt>
      <trkpt lat="42.477798" lon="-6.260974">
        <ele>1091.9</ele>
        <time>2022-08-18T09:10:21Z</time>
      </trkpt>
      <trkpt lat="42.477890" lon="-6.261193">
        <ele>1092.2</ele>
        <time>2022-08-18T09:10:33Z</time>
      </trkpt>
      <trkpt lat="42.477963" lon="-6.261421">
        <ele>1092.2</ele>
        <time>2022-08-18T09:10:45Z</time>
      </trkpt>
      <trkpt lat="42.478007" lon="-6.261671">
        <ele>1092.2</ele>
        <time>2022-08-18T09:10:59Z</time>
      </trkpt>
      <trkpt lat="42.478051" lon="-6.261928">
        <ele>1094.2</ele>
        <time>2022-08-18T09:11:10Z</time>
      </trkpt>
      <trkpt lat="42.478044" lon="-6.262173">
        <ele>1095.2</ele>
        <time>2022-08-18T09:11:23Z</time>
      </trkpt>
      <trkpt lat="42.478093" lon="-6.262417">
        <ele>1093.2</ele>
        <time>2022-08-18T09:11:38Z</time>
      </trkpt>
      <trkpt lat="42.478109" lon="-6.262673">
        <ele>1091.2</ele>
        <time>2022-08-18T09:11:54Z</time>
      </trkpt>
      <trkpt lat="42.478170" lon="-6.262913">
        <ele>1090.2</ele>
        <time>2022-08-18T09:12:08Z</time>
      </trkpt>
      <trkpt lat="42.478224" lon="-6.263166">
        <ele>1089.4</ele>
        <time>2022-08-18T09:12:21Z</time>
      </trkpt>
      <trkpt lat="42.478262" lon="-6.263407">
        <ele>1091.1</ele>
        <time>2022-08-18T09:12:36Z</time>
      </trkpt>
      <trkpt lat="42.478282" lon="-6.263654">
        <ele>1089.2</ele>
        <time>2022-08-18T09:12:51Z</time>
      </trkpt>
      <trkpt lat="42.478313" lon="-6.263900">
        <ele>1090.2</ele>
        <time>2022-08-18T09:13:06Z</time>
      </trkpt>
      <trkpt lat="42.478350" lon="-6.264142">
        <ele>1089.5</ele>
        <time>2022-08-18T09:13:22Z</time>
      </trkpt>
      <trkpt lat="42.478396" lon="-6.264399">
        <ele>1084.3</ele>
        <time>2022-08-18T09:13:36Z</time>
      </trkpt>
      <trkpt lat="42.478386" lon="-6.264654">
        <ele>1085.2</ele>
        <time>2022-08-18T09:13:51Z</time>
      </trkpt>
      <trkpt lat="42.478410" lon="-6.264898">
        <ele>1085.4</ele>
        <time>2022-08-18T09:14:05Z</time>
      </trkpt>
      <trkpt lat="42.478470" lon="-6.265136">
        <ele>1084.2</ele>
        <time>2022-08-18T09:14:18Z</time>
      </trkpt>
      <trkpt lat="42.478507" lon="-6.265383">
        <ele>1085.9</ele>
        <time>2022-08-18T09:14:31Z</time>
      </trkpt>
      <trkpt lat="42.478546" lon="-6.265637">
        <ele>1087.2</ele>
        <time>2022-08-18T09:14:45Z</time>
      </trkpt>
      <trkpt lat="42.478523" lon="-6.265882">
        <ele>1086.2</ele>
        <time>2022-08-18T09:14:59Z</time>
      </trkpt>
      <trkpt lat="42.478561" lon="-6.266132">
        <ele>1084.2</ele>
        <time>2022-08-18T09:15:12Z</time>
      </trkpt>
      <trkpt lat="42.478579" lon="-6.266384">
        <ele>1083.9</ele>
        <time>2022-08-18T09:15:25Z</time>
      </trkpt>
      <trkpt lat="42.478621" lon="-6.266624">
        <ele>1085.1</ele>
        <time>2022-08-18T09:15:38Z</time>
      </trkpt>
      <trkpt lat="42.478649" lon="-6.266872">
        <ele>1085.2</ele>
        <time>2022-08-18T09:15:52Z</time>
      </trkpt>
      <trkpt lat="42.478683" lon="-6.267130">
        <ele>1085.2</ele>
        <time>2022-08-18T09:16:05Z</time>
      </trkpt>
      <trkpt lat="42.478716" lon="-6.267374">
        <ele>1085.2</ele>
        <time>2022-08-18T09:16:17Z</time>
      </trkpt>
      <trkpt lat="42.478744" lon="-6.267630">
        <ele>1085.2</ele>
        <time>2022-08-18T09:16:35Z</time>
      </trkpt>
      <trkpt lat="42.478788" lon="-6.267878">
        <ele>1084.2</ele>
        <time>2022-08-18T09:16:50Z</time>
      </trkpt>
      <trkpt lat="42.478842" lon="-6.268121">
        <ele>1084.2</ele>
        <time>2022-08-18T09:17:04Z</time>
      </trkpt>
      <trkpt lat="42.478862" lon="-6.268383">
        <ele>1087.2</ele>
        <time>2022-08-18T09:17:17Z</time>
      </trkpt>
      <trkpt lat="42.478891" lon="-6.268628">
        <ele>1087.1</ele>
        <time>2022-08-18T09:17:31Z</time>
      </trkpt>
      <trkpt lat="42.478923" lon="-6.268873">
        <ele>1087.9</ele>
        <time>2022-08-18T09:17:44Z</time>
      </trkpt>
      <trkpt lat="42.478935" lon="-6.269124">
        <ele>1089.2</ele>
        <time>2022-08-18T09:17:58Z</time>
      </trkpt>
      <trkpt lat="42.478979" lon="-6.269391">
        <ele>1091.9</ele>
        <time>2022-08-18T09:18:12Z</time>
      </trkpt>
      <trkpt lat="42.479006" lon="-6.269639">
        <ele>1090.2</ele>
        <time>2022-08-18T09:18:26Z</time>
      </trkpt>
      <trkpt lat="42.479041" lon="-6.269883">
        <ele>1088.2</ele>
        <time>2022-08-18T09:18:37Z</time>
      </trkpt>
      <trkpt lat="42.479052" lon="-6.270151">
        <ele>1088.2</ele>
        <time>2022-08-18T09:18:52Z</time>
      </trkpt>
      <trkpt lat="42.479087" lon="-6.270392">
        <ele>1089.0</ele>
        <time>2022-08-18T09:19:06Z</time>
      </trkpt>
      <trkpt lat="42.479090" lon="-6.270646">
        <ele>1087.2</ele>
        <time>2022-08-18T09:19:20Z</time>
      </trkpt>
      <trkpt lat="42.479125" lon="-6.270898">
        <ele>1087.9</ele>
        <time>2022-08-18T09:19:33Z</time>
      </trkpt>
      <trkpt lat="42.479116" lon="-6.271152">
        <ele>1089.2</ele>
        <time>2022-08-18T09:19:47Z</time>
      </trkpt>
      <trkpt lat="42.479071" lon="-6.271396">
        <ele>1091.9</ele>
        <time>2022-08-18T09:19:59Z</time>
      </trkpt>
      <trkpt lat="42.479036" lon="-6.271648">
        <ele>1091.2</ele>
        <time>2022-08-18T09:20:13Z</time>
      </trkpt>
      <trkpt lat="42.479019" lon="-6.271899">
        <ele>1092.2</ele>
        <time>2022-08-18T09:20:27Z</time>
      </trkpt>
      <trkpt lat="42.479031" lon="-6.272147">
        <ele>1093.2</ele>
        <time>2022-08-18T09:20:41Z</time>
      </trkpt>
      <trkpt lat="42.479006" lon="-6.272397">
        <ele>1096.1</ele>
        <time>2022-08-18T09:20:54Z</time>
      </trkpt>
      <trkpt lat="42.478976" lon="-6.272664">
        <ele>1096.3</ele>
        <time>2022-08-18T09:21:08Z</time>
      </trkpt>
      <trkpt lat="42.479010" lon="-6.272922">
        <ele>1096.2</ele>
        <time>2022-08-18T09:21:23Z</time>
      </trkpt>
      <trkpt lat="42.479097" lon="-6.273152">
        <ele>1097.9</ele>
        <time>2022-08-18T09:21:38Z</time>
      </trkpt>
      <trkpt lat="42.479164" lon="-6.273384">
        <ele>1098.2</ele>
        <time>2022-08-18T09:21:52Z</time>
      </trkpt>
      <trkpt lat="42.479249" lon="-6.273621">
        <ele>1098.0</ele>
        <time>2022-08-18T09:22:06Z</time>
      </trkpt>
      <trkpt lat="42.479314" lon="-6.273851">
        <ele>1099.9</ele>
        <time>2022-08-18T09:22:21Z</time>
      </trkpt>
      <trkpt lat="42.479387" lon="-6.274076">
        <ele>1100.5</ele>
        <time>2022-08-18T09:22:34Z</time>
      </trkpt>
      <trkpt lat="42.479443" lon="-6.274312">
        <ele>1104.9</ele>
        <time>2022-08-18T09:22:48Z</time>
      </trkpt>
      <trkpt lat="42.479506" lon="-6.274549">
        <ele>1107.2</ele>
        <time>2022-08-18T09:23:02Z</time>
      </trkpt>
      <trkpt lat="42.479563" lon="-6.274783">
        <ele>1108.2</ele>
        <time>2022-08-18T09:23:17Z</time>
      </trkpt>
      <trkpt lat="42.479616" lon="-6.275030">
        <ele>1107.1</ele>
        <time>2022-08-18T09:23:32Z</time>
      </trkpt>
      <trkpt lat="42.479643" lon="-6.275274">
        <ele>1107.2</ele>
        <time>2022-08-18T09:23:46Z</time>
      </trkpt>
      <trkpt lat="42.479674" lon="-6.275522">
        <ele>1108.9</ele>
        <time>2022-08-18T09:24:01Z</time>
      </trkpt>
      <trkpt lat="42.479738" lon="-6.275765">
        <ele>1111.1</ele>
        <time>2022-08-18T09:24:14Z</time>
      </trkpt>
      <trkpt lat="42.479770" lon="-6.276014">
        <ele>1112.2</ele>
        <time>2022-08-18T09:24:31Z</time>
      </trkpt>
      <trkpt lat="42.479838" lon="-6.276252">
        <ele>1113.2</ele>
        <time>2022-08-18T09:24:45Z</time>
      </trkpt>
      <trkpt lat="42.479879" lon="-6.276495">
        <ele>1113.2</ele>
        <time>2022-08-18T09:24:58Z</time>
      </trkpt>
      <trkpt lat="42.479931" lon="-6.276738">
        <ele>1111.5</ele>
        <time>2022-08-18T09:25:12Z</time>
      </trkpt>
      <trkpt lat="42.479971" lon="-6.276988">
        <ele>1110.2</ele>
        <time>2022-08-18T09:25:26Z</time>
      </trkpt>
      <trkpt lat="42.480011" lon="-6.277229">
        <ele>1109.2</ele>
        <time>2022-08-18T09:25:40Z</time>
      </trkpt>
      <trkpt lat="42.480060" lon="-6.277474">
        <ele>1111.1</ele>
        <time>2022-08-18T09:25:55Z</time>
      </trkpt>
      <trkpt lat="42.480110" lon="-6.277711">
        <ele>1110.2</ele>
        <time>2022-08-18T09:26:28Z</time>
      </trkpt>
      <trkpt lat="42.480172" lon="-6.277954">
        <ele>1109.2</ele>
        <time>2022-08-18T09:26:44Z</time>
      </trkpt>
      <trkpt lat="42.480209" lon="-6.278211">
        <ele>1108.2</ele>
        <time>2022-08-18T09:26:58Z</time>
      </trkpt>
      <trkpt lat="42.480268" lon="-6.278498">
        <ele>1111.9</ele>
        <time>2022-08-18T09:48:29Z</time>
      </trkpt>
      <trkpt lat="42.480376" lon="-6.278725">
        <ele>1111.2</ele>
        <time>2022-08-18T09:48:44Z</time>
      </trkpt>
      <trkpt lat="42.480477" lon="-6.278951">
        <ele>1112.2</ele>
        <time>2022-08-18T09:48:58Z</time>
      </trkpt>
      <trkpt lat="42.480562" lon="-6.279170">
        <ele>1109.3</ele>
        <time>2022-08-18T09:49:52Z</time>
      </trkpt>
      <trkpt lat="42.480675" lon="-6.279368">
        <ele>1108.2</ele>
        <time>2022-08-18T09:50:06Z</time>
      </trkpt>
      <trkpt lat="42.480795" lon="-6.279561">
        <ele>1109.2</ele>
        <time>2022-08-18T09:50:19Z</time>
      </trkpt>
      <trkpt lat="42.480851" lon="-6.279803">
        <ele>1109.2</ele>
        <time>2022-08-18T09:50:32Z</time>
      </trkpt>
      <trkpt lat="42.480963" lon="-6.280015">
        <ele>1111.2</ele>
        <time>2022-08-18T09:51:29Z</time>
      </trkpt>
      <trkpt lat="42.481044" lon="-6.280247">
        <ele>1113.2</ele>
        <time>2022-08-18T09:51:48Z</time>
      </trkpt>
      <trkpt lat="42.481167" lon="-6.280427">
        <ele>1114.2</ele>
        <time>2022-08-18T09:52:09Z</time>
      </trkpt>
      <trkpt lat="42.481288" lon="-6.280614">
        <ele>1115.5</ele>
        <time>2022-08-18T09:52:22Z</time>
      </trkpt>
      <trkpt lat="42.481399" lon="-6.280825">
        <ele>1116.1</ele>
        <time>2022-08-18T09:52:35Z</time>
      </trkpt>
      <trkpt lat="42.481500" lon="-6.281036">
        <ele>1115.3</ele>
        <time>2022-08-18T09:52:49Z</time>
      </trkpt>
      <trkpt lat="42.481607" lon="-6.281243">
        <ele>1116.9</ele>
        <time>2022-08-18T09:53:02Z</time>
      </trkpt>
      <trkpt lat="42.481626" lon="-6.281488">
        <ele>1115.5</ele>
        <time>2022-08-18T09:53:21Z</time>
      </trkpt>
      <trkpt lat="42.481666" lon="-6.281741">
        <ele>1117.9</ele>
        <time>2022-08-18T09:53:35Z</time>
      </trkpt>
      <trkpt lat="42.481760" lon="-6.281950">
        <ele>1120.2</ele>
        <time>2022-08-18T09:53:49Z</time>
      </trkpt>
      <trkpt lat="42.481846" lon="-6.282184">
        <ele>1121.1</ele>
        <time>2022-08-18T09:54:04Z</time>
      </trkpt>
      <trkpt lat="42.481876" lon="-6.282458">
        <ele>1121.2</ele>
        <time>2022-08-18T09:54:18Z</time>
      </trkpt>
      <trkpt lat="42.481926" lon="-6.282729">
        <ele>1123.9</ele>
        <time>2022-08-18T09:54:31Z</time>
      </trkpt>
      <trkpt lat="42.481992" lon="-6.282870">
        <ele>1122.3</ele>
        <time>2022-08-18T09:55:51Z</time>
      </trkpt>
      <trkpt lat="42.482017" lon="-6.283110">
        <ele>1123.2</ele>
        <time>2022-08-18T09:56:35Z</time>
      </trkpt>
      <trkpt lat="42.482075" lon="-6.283329">
        <ele>1123.2</ele>
        <time>2022-08-18T09:56:52Z</time>
      </trkpt>
      <trkpt lat="42.482110" lon="-6.283608">
        <ele>1124.2</ele>
        <time>2022-08-18T09:57:06Z</time>
      </trkpt>
      <trkpt lat="42.482164" lon="-6.283821">
        <ele>1125.9</ele>
        <time>2022-08-18T09:57:21Z</time>
      </trkpt>
      <trkpt lat="42.482224" lon="-6.284099">
        <ele>1126.2</ele>
        <time>2022-08-18T09:57:37Z</time>
      </trkpt>
      <trkpt lat="42.482243" lon="-6.284306">
        <ele>1133.2</ele>
        <time>2022-08-18T10:09:34Z</time>
      </trkpt>
      <trkpt lat="42.482287" lon="-6.284552">
        <ele>1136.1</ele>
        <time>2022-08-18T10:09:47Z</time>
      </trkpt>
      <trkpt lat="42.482332" lon="-6.284811">
        <ele>1136.2</ele>
        <time>2022-08-18T10:10:01Z</time>
      </trkpt>
      <trkpt lat="42.482362" lon="-6.285051">
        <ele>1137.2</ele>
        <time>2022-08-18T10:10:15Z</time>
      </trkpt>
      <trkpt lat="42.482425" lon="-6.285270">
        <ele>1136.1</ele>
        <time>2022-08-18T10:10:31Z</time>
      </trkpt>
      <trkpt lat="42.482450" lon="-6.285504">
        <ele>1139.1</ele>
        <time>2022-08-18T10:10:42Z</time>
      </trkpt>
      <trkpt lat="42.482491" lon="-6.285802">
        <ele>1141.2</ele>
        <time>2022-08-18T10:10:58Z</time>
      </trkpt>
      <trkpt lat="42.482544" lon="-6.285995">
        <ele>1142.3</ele>
        <time>2022-08-18T10:11:12Z</time>
      </trkpt>
      <trkpt lat="42.482587" lon="-6.286234">
        <ele>1141.2</ele>
        <time>2022-08-18T10:11:28Z</time>
      </trkpt>
      <trkpt lat="42.482644" lon="-6.286474">
        <ele>1142.2</ele>
        <time>2022-08-18T10:11:46Z</time>
      </trkpt>
      <trkpt lat="42.482699" lon="-6.286728">
        <ele>1142.4</ele>
        <time>2022-08-18T10:12:00Z</time>
      </trkpt>
      <trkpt lat="42.482699" lon="-6.287014">
        <ele>1143.2</ele>
        <time>2022-08-18T10:12:16Z</time>
      </trkpt>
      <trkpt lat="42.482754" lon="-6.287263">
        <ele>1142.2</ele>
        <time>2022-08-18T10:12:50Z</time>
      </trkpt>
      <trkpt lat="42.482782" lon="-6.287493">
        <ele>1154.2</ele>
        <time>2022-08-18T10:57:20Z</time>
      </trkpt>
      <trkpt lat="42.482824" lon="-6.287741">
        <ele>1155.2</ele>
        <time>2022-08-18T10:57:46Z</time>
      </trkpt>
      <trkpt lat="42.482860" lon="-6.287981">
        <ele>1156.9</ele>
        <time>2022-08-18T10:58:03Z</time>
      </trkpt>
      <trkpt lat="42.482887" lon="-6.288193">
        <ele>1156.3</ele>
        <time>2022-08-18T10:58:20Z</time>
      </trkpt>
      <trkpt lat="42.482905" lon="-6.288403">
        <ele>1155.2</ele>
        <time>2022-08-18T10:58:36Z</time>
      </trkpt>
      <trkpt lat="42.482935" lon="-6.288646">
        <ele>1153.2</ele>
        <time>2022-08-18T10:58:54Z</time>
      </trkpt>
      <trkpt lat="42.482945" lon="-6.288870">
        <ele>1152.2</ele>
        <time>2022-08-18T10:59:12Z</time>
      </trkpt>
      <trkpt lat="42.482977" lon="-6.289149">
        <ele>1151.2</ele>
        <time>2022-08-18T10:59:26Z</time>
      </trkpt>
      <trkpt lat="42.482976" lon="-6.289350">
        <ele>1153.2</ele>
        <time>2022-08-18T10:59:44Z</time>
      </trkpt>
      <trkpt lat="42.482938" lon="-6.289599">
        <ele>1155.1</ele>
        <time>2022-08-18T10:59:59Z</time>
      </trkpt>
      <trkpt lat="42.482899" lon="-6.289822">
        <ele>1157.2</ele>
        <time>2022-08-18T11:00:15Z</time>
      </trkpt>
      <trkpt lat="42.482837" lon="-6.290035">
        <ele>1159.1</ele>
        <time>2022-08-18T11:00:31Z</time>
      </trkpt>
      <trkpt lat="42.482799" lon="-6.290321">
        <ele>1162.2</ele>
        <time>2022-08-18T11:00:47Z</time>
      </trkpt>
      <trkpt lat="42.482731" lon="-6.290568">
        <ele>1161.2</ele>
        <time>2022-08-18T11:01:02Z</time>
      </trkpt>
      <trkpt lat="42.482712" lon="-6.290833">
        <ele>1165.2</ele>
        <time>2022-08-18T11:01:17Z</time>
      </trkpt>
      <trkpt lat="42.482708" lon="-6.291078">
        <ele>1165.0</ele>
        <time>2022-08-18T11:01:31Z</time>
      </trkpt>
      <trkpt lat="42.482659" lon="-6.291322">
        <ele>1166.2</ele>
        <time>2022-08-18T11:01:44Z</time>
      </trkpt>
      <trkpt lat="42.482626" lon="-6.291567">
        <ele>1165.2</ele>
        <time>2022-08-18T11:01:57Z</time>
      </trkpt>
      <trkpt lat="42.482640" lon="-6.291811">
        <ele>1167.1</ele>
        <time>2022-08-18T11:02:11Z</time>
      </trkpt>
      <trkpt lat="42.482635" lon="-6.292059">
        <ele>1167.1</ele>
        <time>2022-08-18T11:02:27Z</time>
      </trkpt>
      <trkpt lat="42.482638" lon="-6.292304">
        <ele>1168.4</ele>
        <time>2022-08-18T11:02:51Z</time>
      </trkpt>
      <trkpt lat="42.482674" lon="-6.292548">
        <ele>1168.2</ele>
        <time>2022-08-18T11:03:07Z</time>
      </trkpt>
      <trkpt lat="42.482699" lon="-6.292791">
        <ele>1171.2</ele>
        <time>2022-08-18T11:03:24Z</time>
      </trkpt>
      <trkpt lat="42.482719" lon="-6.293052">
        <ele>1172.2</ele>
        <time>2022-08-18T11:03:38Z</time>
      </trkpt>
      <trkpt lat="42.482729" lon="-6.293312">
        <ele>1175.9</ele>
        <time>2022-08-18T11:03:52Z</time>
      </trkpt>
      <trkpt lat="42.482752" lon="-6.293556">
        <ele>1175.3</ele>
        <time>2022-08-18T11:04:19Z</time>
      </trkpt>
      <trkpt lat="42.482798" lon="-6.293796">
        <ele>1176.2</ele>
        <time>2022-08-18T11:04:34Z</time>
      </trkpt>
      <trkpt lat="42.482844" lon="-6.294041">
        <ele>1178.9</ele>
        <time>2022-08-18T11:04:48Z</time>
      </trkpt>
      <trkpt lat="42.482885" lon="-6.294285">
        <ele>1179.2</ele>
        <time>2022-08-18T11:05:02Z</time>
      </trkpt>
      <trkpt lat="42.482916" lon="-6.294531">
        <ele>1179.2</ele>
        <time>2022-08-18T11:05:16Z</time>
      </trkpt>
      <trkpt lat="42.482964" lon="-6.294780">
        <ele>1181.1</ele>
        <time>2022-08-18T11:05:31Z</time>
      </trkpt>
      <trkpt lat="42.483017" lon="-6.295014">
        <ele>1183.1</ele>
        <time>2022-08-18T11:05:45Z</time>
      </trkpt>
      <trkpt lat="42.483044" lon="-6.295267">
        <ele>1183.0</ele>
        <time>2022-08-18T11:05:59Z</time>
      </trkpt>
      <trkpt lat="42.483125" lon="-6.295520">
        <ele>1183.2</ele>
        <time>2022-08-18T11:06:13Z</time>
      </trkpt>
      <trkpt lat="42.483153" lon="-6.295775">
        <ele>1182.2</ele>
        <time>2022-08-18T11:06:28Z</time>
      </trkpt>
      <trkpt lat="42.483166" lon="-6.296018">
        <ele>1181.9</ele>
        <time>2022-08-18T11:06:42Z</time>
      </trkpt>
      <trkpt lat="42.483147" lon="-6.296262">
        <ele>1184.9</ele>
        <time>2022-08-18T11:06:55Z</time>
      </trkpt>
      <trkpt lat="42.483123" lon="-6.296522">
        <ele>1186.3</ele>
        <time>2022-08-18T11:07:09Z</time>
      </trkpt>
      <trkpt lat="42.483154" lon="-6.296781">
        <ele>1185.2</ele>
        <time>2022-08-18T11:07:24Z</time>
      </trkpt>
      <trkpt lat="42.483184" lon="-6.297032">
        <ele>1187.2</ele>
        <time>2022-08-18T11:07:39Z</time>
      </trkpt>
      <trkpt lat="42.483219" lon="-6.297275">
        <ele>1187.9</ele>
        <time>2022-08-18T11:07:53Z</time>
      </trkpt>
      <trkpt lat="42.483290" lon="-6.297517">
        <ele>1189.2</ele>
        <time>2022-08-18T11:08:07Z</time>
      </trkpt>
      <trkpt lat="42.483350" lon="-6.297762">
        <ele>1188.2</ele>
        <time>2022-08-18T11:08:22Z</time>
      </trkpt>
      <trkpt lat="42.483421" lon="-6.297994">
        <ele>1189.2</ele>
        <time>2022-08-18T11:08:36Z</time>
      </trkpt>
      <trkpt lat="42.483502" lon="-6.298219">
        <ele>1189.2</ele>
        <time>2022-08-18T11:08:50Z</time>
      </trkpt>
      <trkpt lat="42.483592" lon="-6.298437">
        <ele>1187.1</ele>
        <time>2022-08-18T11:09:05Z</time>
      </trkpt>
      <trkpt lat="42.483644" lon="-6.298686">
        <ele>1186.2</ele>
        <time>2022-08-18T11:09:20Z</time>
      </trkpt>
      <trkpt lat="42.483599" lon="-6.298923">
        <ele>1190.2</ele>
        <time>2022-08-18T11:09:33Z</time>
      </trkpt>
      <trkpt lat="42.483663" lon="-6.299165">
        <ele>1190.5</ele>
        <time>2022-08-18T11:10:04Z</time>
      </trkpt>
      <trkpt lat="42.483732" lon="-6.299391">
        <ele>1191.9</ele>
        <time>2022-08-18T11:10:18Z</time>
      </trkpt>
      <trkpt lat="42.483853" lon="-6.299577">
        <ele>1193.2</ele>
        <time>2022-08-18T11:10:32Z</time>
      </trkpt>
      <trkpt lat="42.483990" lon="-6.299759">
        <ele>1192.2</ele>
        <time>2022-08-18T11:10:46Z</time>
      </trkpt>
      <trkpt lat="42.484121" lon="-6.299934">
        <ele>1194.2</ele>
        <time>2022-08-18T11:11:00Z</time>
      </trkpt>
      <trkpt lat="42.484233" lon="-6.300127">
        <ele>1192.3</ele>
        <time>2022-08-18T11:11:15Z</time>
      </trkpt>
      <trkpt lat="42.484345" lon="-6.300328">
        <ele>1192.1</ele>
        <time>2022-08-18T11:11:29Z</time>
      </trkpt>
      <trkpt lat="42.484450" lon="-6.300539">
        <ele>1192.9</ele>
        <time>2022-08-18T11:11:44Z</time>
      </trkpt>
      <trkpt lat="42.484545" lon="-6.300756">
        <ele>1192.2</ele>
        <time>2022-08-18T11:11:59Z</time>
      </trkpt>
      <trkpt lat="42.484647" lon="-6.300967">
        <ele>1193.4</ele>
        <time>2022-08-18T11:12:13Z</time>
      </trkpt>
      <trkpt lat="42.484745" lon="-6.301193">
        <ele>1193.2</ele>
        <time>2022-08-18T11:12:32Z</time>
      </trkpt>
      <trkpt lat="42.484836" lon="-6.301409">
        <ele>1194.3</ele>
        <time>2022-08-18T11:12:48Z</time>
      </trkpt>
      <trkpt lat="42.484934" lon="-6.301624">
        <ele>1193.9</ele>
        <time>2022-08-18T11:13:04Z</time>
      </trkpt>
      <trkpt lat="42.485037" lon="-6.301835">
        <ele>1196.2</ele>
        <time>2022-08-18T11:13:20Z</time>
      </trkpt>
      <trkpt lat="42.485130" lon="-6.302056">
        <ele>1197.2</ele>
        <time>2022-08-18T11:13:35Z</time>
      </trkpt>
      <trkpt lat="42.485199" lon="-6.302286">
        <ele>1200.1</ele>
        <time>2022-08-18T11:13:50Z</time>
      </trkpt>
      <trkpt lat="42.485281" lon="-6.302514">
        <ele>1201.9</ele>
        <time>2022-08-18T11:14:05Z</time>
      </trkpt>
      <trkpt lat="42.485342" lon="-6.302750">
        <ele>1204.2</ele>
        <time>2022-08-18T11:14:21Z</time>
      </trkpt>
      <trkpt lat="42.485413" lon="-6.302991">
        <ele>1205.1</ele>
        <time>2022-08-18T11:14:35Z</time>
      </trkpt>
      <trkpt lat="42.485479" lon="-6.303223">
        <ele>1206.5</ele>
        <time>2022-08-18T11:14:50Z</time>
      </trkpt>
      <trkpt lat="42.485552" lon="-6.303461">
        <ele>1208.9</ele>
        <time>2022-08-18T11:15:04Z</time>
      </trkpt>
      <trkpt lat="42.485631" lon="-6.303709">
        <ele>1211.1</ele>
        <time>2022-08-18T11:15:21Z</time>
      </trkpt>
      <trkpt lat="42.485699" lon="-6.303943">
        <ele>1211.2</ele>
        <time>2022-08-18T11:15:36Z</time>
      </trkpt>
      <trkpt lat="42.485769" lon="-6.304183">
        <ele>1213.2</ele>
        <time>2022-08-18T11:15:52Z</time>
      </trkpt>
      <trkpt lat="42.485859" lon="-6.304407">
        <ele>1216.1</ele>
        <time>2022-08-18T11:16:07Z</time>
      </trkpt>
      <trkpt lat="42.485947" lon="-6.304644">
        <ele>1215.9</ele>
        <time>2022-08-18T11:16:21Z</time>
      </trkpt>
      <trkpt lat="42.486019" lon="-6.304883">
        <ele>1219.2</ele>
        <time>2022-08-18T11:16:37Z</time>
      </trkpt>
      <trkpt lat="42.486123" lon="-6.305101">
        <ele>1219.2</ele>
        <time>2022-08-18T11:16:51Z</time>
      </trkpt>
      <trkpt lat="42.486215" lon="-6.305319">
        <ele>1219.2</ele>
        <time>2022-08-18T11:17:06Z</time>
      </trkpt>
      <trkpt lat="42.486287" lon="-6.305552">
        <ele>1219.2</ele>
        <time>2022-08-18T11:18:00Z</time>
      </trkpt>
      <trkpt lat="42.486365" lon="-6.305783">
        <ele>1217.2</ele>
        <time>2022-08-18T11:18:15Z</time>
      </trkpt>
      <trkpt lat="42.486431" lon="-6.306026">
        <ele>1217.2</ele>
        <time>2022-08-18T11:18:30Z</time>
      </trkpt>
      <trkpt lat="42.486524" lon="-6.306240">
        <ele>1219.9</ele>
        <time>2022-08-18T11:18:44Z</time>
      </trkpt>
      <trkpt lat="42.486624" lon="-6.306459">
        <ele>1220.9</ele>
        <time>2022-08-18T11:18:59Z</time>
      </trkpt>
      <trkpt lat="42.486634" lon="-6.306715">
        <ele>1220.5</ele>
        <time>2022-08-18T11:19:13Z</time>
      </trkpt>
      <trkpt lat="42.486702" lon="-6.306810">
        <ele>1218.2</ele>
        <time>2022-08-18T11:20:07Z</time>
      </trkpt>
      <trkpt lat="42.486640" lon="-6.307051">
        <ele>1217.1</ele>
        <time>2022-08-18T11:20:23Z</time>
      </trkpt>
      <trkpt lat="42.486637" lon="-6.307304">
        <ele>1219.2</ele>
        <time>2022-08-18T11:20:37Z</time>
      </trkpt>
      <trkpt lat="42.486638" lon="-6.307548">
        <ele>1220.5</ele>
        <time>2022-08-18T11:20:56Z</time>
      </trkpt>
      <trkpt lat="42.486644" lon="-6.307777">
        <ele>1222.2</ele>
        <time>2022-08-18T11:21:15Z</time>
      </trkpt>
      <trkpt lat="42.486630" lon="-6.308004">
        <ele>1224.4</ele>
        <time>2022-08-18T11:21:30Z</time>
      </trkpt>
      <trkpt lat="42.486570" lon="-6.308220">
        <ele>1227.2</ele>
        <time>2022-08-18T11:21:51Z</time>
      </trkpt>
      <trkpt lat="42.486473" lon="-6.308426">
        <ele>1231.2</ele>
        <time>2022-08-18T11:22:13Z</time>
      </trkpt>
      <trkpt lat="42.486410" lon="-6.308633">
        <ele>1234.2</ele>
        <time>2022-08-18T11:22:28Z</time>
      </trkpt>
      <trkpt lat="42.486311" lon="-6.308803">
        <ele>1239.2</ele>
        <time>2022-08-18T11:22:46Z</time>
      </trkpt>
      <trkpt lat="42.486213" lon="-6.309027">
        <ele>1242.2</ele>
        <time>2022-08-18T11:23:03Z</time>
      </trkpt>
      <trkpt lat="42.486214" lon="-6.309282">
        <ele>1248.2</ele>
        <time>2022-08-18T11:24:02Z</time>
      </trkpt>
      <trkpt lat="42.486293" lon="-6.309504">
        <ele>1247.2</ele>
        <time>2022-08-18T11:24:18Z</time>
      </trkpt>
      <trkpt lat="42.486256" lon="-6.309746">
        <ele>1249.2</ele>
        <time>2022-08-18T11:25:04Z</time>
      </trkpt>
      <trkpt lat="42.486220" lon="-6.309992">
        <ele>1251.2</ele>
        <time>2022-08-18T11:25:23Z</time>
      </trkpt>
      <trkpt lat="42.486197" lon="-6.310245">
        <ele>1253.9</ele>
        <time>2022-08-18T11:25:39Z</time>
      </trkpt>
      <trkpt lat="42.486182" lon="-6.310499">
        <ele>1255.2</ele>
        <time>2022-08-18T11:25:55Z</time>
      </trkpt>
      <trkpt lat="42.486192" lon="-6.310746">
        <ele>1257.2</ele>
        <time>2022-08-18T11:26:11Z</time>
      </trkpt>
      <trkpt lat="42.486230" lon="-6.310986">
        <ele>1256.9</ele>
        <time>2022-08-18T11:26:25Z</time>
      </trkpt>
      <trkpt lat="42.486279" lon="-6.311225">
        <ele>1258.4</ele>
        <time>2022-08-18T11:26:43Z</time>
      </trkpt>
      <trkpt lat="42.486343" lon="-6.311465">
        <ele>1258.2</ele>
        <time>2022-08-18T11:27:02Z</time>
      </trkpt>
      <trkpt lat="42.486434" lon="-6.311680">
        <ele>1259.9</ele>
        <time>2022-08-18T11:27:17Z</time>
      </trkpt>
      <trkpt lat="42.486567" lon="-6.311860">
        <ele>1261.2</ele>
        <time>2022-08-18T11:27:33Z</time>
      </trkpt>
      <trkpt lat="42.486690" lon="-6.312046">
        <ele>1262.1</ele>
        <time>2022-08-18T11:27:50Z</time>
      </trkpt>
      <trkpt lat="42.486806" lon="-6.312240">
        <ele>1264.2</ele>
        <time>2022-08-18T11:28:06Z</time>
      </trkpt>
      <trkpt lat="42.486931" lon="-6.312421">
        <ele>1266.2</ele>
        <time>2022-08-18T11:28:20Z</time>
      </trkpt>
      <trkpt lat="42.487064" lon="-6.312598">
        <ele>1266.9</ele>
        <time>2022-08-18T11:28:35Z</time>
      </trkpt>
      <trkpt lat="42.487169" lon="-6.312804">
        <ele>1268.1</ele>
        <time>2022-08-18T11:28:49Z</time>
      </trkpt>
      <trkpt lat="42.487328" lon="-6.312939">
        <ele>1269.2</ele>
        <time>2022-08-18T11:29:07Z</time>
      </trkpt>
      <trkpt lat="42.487480" lon="-6.313085">
        <ele>1271.2</ele>
        <time>2022-08-18T11:29:22Z</time>
      </trkpt>
      <trkpt lat="42.487639" lon="-6.313226">
        <ele>1272.1</ele>
        <time>2022-08-18T11:29:37Z</time>
      </trkpt>
      <trkpt lat="42.487793" lon="-6.313362">
        <ele>1273.1</ele>
        <time>2022-08-18T11:29:52Z</time>
      </trkpt>
      <trkpt lat="42.487949" lon="-6.313499">
        <ele>1272.5</ele>
        <time>2022-08-18T11:30:08Z</time>
      </trkpt>
      <trkpt lat="42.488092" lon="-6.313651">
        <ele>1272.2</ele>
        <time>2022-08-18T11:30:22Z</time>
      </trkpt>
      <trkpt lat="42.488219" lon="-6.313831">
        <ele>1272.2</ele>
        <time>2022-08-18T11:30:39Z</time>
      </trkpt>
      <trkpt lat="42.488339" lon="-6.314023">
        <ele>1274.7</ele>
        <time>2022-08-18T11:30:56Z</time>
      </trkpt>
      <trkpt lat="42.488396" lon="-6.314259">
        <ele>1279.9</ele>
        <time>2022-08-18T11:31:38Z</time>
      </trkpt>
      <trkpt lat="42.488412" lon="-6.314523">
        <ele>1279.2</ele>
        <time>2022-08-18T11:32:20Z</time>
      </trkpt>
      <trkpt lat="42.488323" lon="-6.314744">
        <ele>1279.1</ele>
        <time>2022-08-18T11:32:41Z</time>
      </trkpt>
      <trkpt lat="42.488232" lon="-6.314959">
        <ele>1282.1</ele>
        <time>2022-08-18T11:32:53Z</time>
      </trkpt>
      <trkpt lat="42.488209" lon="-6.315211">
        <ele>1281.2</ele>
        <time>2022-08-18T11:33:16Z</time>
      </trkpt>
      <trkpt lat="42.488187" lon="-6.315467">
        <ele>1282.2</ele>
        <time>2022-08-18T11:33:29Z</time>
      </trkpt>
      <trkpt lat="42.488156" lon="-6.315712">
        <ele>1282.2</ele>
        <time>2022-08-18T11:33:46Z</time>
      </trkpt>
      <trkpt lat="42.488206" lon="-6.315947">
        <ele>1282.2</ele>
        <time>2022-08-18T11:34:00Z</time>
      </trkpt>
      <trkpt lat="42.488235" lon="-6.316197">
        <ele>1283.9</ele>
        <time>2022-08-18T11:34:15Z</time>
      </trkpt>
      <trkpt lat="42.488250" lon="-6.316443">
        <ele>1285.9</ele>
        <time>2022-08-18T11:34:30Z</time>
      </trkpt>
      <trkpt lat="42.488303" lon="-6.316691">
        <ele>1287.2</ele>
        <time>2022-08-18T11:34:46Z</time>
      </trkpt>
      <trkpt lat="42.488368" lon="-6.316925">
        <ele>1286.2</ele>
        <time>2022-08-18T11:35:01Z</time>
      </trkpt>
      <trkpt lat="42.488430" lon="-6.317155">
        <ele>1289.2</ele>
        <time>2022-08-18T11:35:17Z</time>
      </trkpt>
      <trkpt lat="42.488553" lon="-6.317353">
        <ele>1290.8</ele>
        <time>2022-08-18T11:35:34Z</time>
      </trkpt>
      <trkpt lat="42.488662" lon="-6.317568">
        <ele>1294.1</ele>
        <time>2022-08-18T11:35:50Z</time>
      </trkpt>
      <trkpt lat="42.488782" lon="-6.317765">
        <ele>1294.2</ele>
        <time>2022-08-18T11:36:06Z</time>
      </trkpt>
      <trkpt lat="42.488908" lon="-6.317940">
        <ele>1296.2</ele>
        <time>2022-08-18T11:36:23Z</time>
      </trkpt>
      <trkpt lat="42.489043" lon="-6.318112">
        <ele>1298.2</ele>
        <time>2022-08-18T11:36:39Z</time>
      </trkpt>
      <trkpt lat="42.489191" lon="-6.318261">
        <ele>1300.1</ele>
        <time>2022-08-18T11:36:55Z</time>
      </trkpt>
      <trkpt lat="42.489319" lon="-6.318434">
        <ele>1299.2</ele>
        <time>2022-08-18T11:37:09Z</time>
      </trkpt>
      <trkpt lat="42.489449" lon="-6.318629">
        <ele>1303.2</ele>
        <time>2022-08-18T11:37:26Z</time>
      </trkpt>
      <trkpt lat="42.489614" lon="-6.318767">
        <ele>1304.2</ele>
        <time>2022-08-18T11:37:44Z</time>
      </trkpt>
      <trkpt lat="42.489776" lon="-6.318885">
        <ele>1305.1</ele>
        <time>2022-08-18T11:37:59Z</time>
      </trkpt>
      <trkpt lat="42.489906" lon="-6.319070">
        <ele>1308.1</ele>
        <time>2022-08-18T11:38:28Z</time>
      </trkpt>
      <trkpt lat="42.489965" lon="-6.319302">
        <ele>1310.9</ele>
        <time>2022-08-18T11:38:45Z</time>
      </trkpt>
      <trkpt lat="42.489979" lon="-6.319555">
        <ele>1312.2</ele>
        <time>2022-08-18T11:39:05Z</time>
      </trkpt>
      <trkpt lat="42.489907" lon="-6.319780">
        <ele>1311.1</ele>
        <time>2022-08-18T11:39:21Z</time>
      </trkpt>
      <trkpt lat="42.489798" lon="-6.319986">
        <ele>1310.2</ele>
        <time>2022-08-18T11:39:35Z</time>
      </trkpt>
      <trkpt lat="42.489704" lon="-6.320204">
        <ele>1311.8</ele>
        <time>2022-08-18T11:39:47Z</time>
      </trkpt>
      <trkpt lat="42.489683" lon="-6.320460">
        <ele>1313.8</ele>
        <time>2022-08-18T11:40:03Z</time>
      </trkpt>
      <trkpt lat="42.489653" lon="-6.320701">
        <ele>1312.2</ele>
        <time>2022-08-18T11:40:17Z</time>
      </trkpt>
      <trkpt lat="42.489647" lon="-6.320950">
        <ele>1314.2</ele>
        <time>2022-08-18T11:40:33Z</time>
      </trkpt>
      <trkpt lat="42.489701" lon="-6.321185">
        <ele>1318.2</ele>
        <time>2022-08-18T11:40:53Z</time>
      </trkpt>
      <trkpt lat="42.489781" lon="-6.321413">
        <ele>1320.2</ele>
        <time>2022-08-18T11:41:13Z</time>
      </trkpt>
      <trkpt lat="42.489918" lon="-6.321593">
        <ele>1322.2</ele>
        <time>2022-08-18T11:41:30Z</time>
      </trkpt>
      <trkpt lat="42.490001" lon="-6.321818">
        <ele>1325.2</ele>
        <time>2022-08-18T11:41:45Z</time>
      </trkpt>
      <trkpt lat="42.490105" lon="-6.322021">
        <ele>1328.1</ele>
        <time>2022-08-18T11:42:02Z</time>
      </trkpt>
      <trkpt lat="42.490221" lon="-6.322210">
        <ele>1328.9</ele>
        <time>2022-08-18T11:42:18Z</time>
      </trkpt>
      <trkpt lat="42.490339" lon="-6.322408">
        <ele>1331.2</ele>
        <time>2022-08-18T11:43:20Z</time>
      </trkpt>
      <trkpt lat="42.490482" lon="-6.322557">
        <ele>1333.4</ele>
        <time>2022-08-18T11:43:33Z</time>
      </trkpt>
      <trkpt lat="42.490646" lon="-6.322701">
        <ele>1335.2</ele>
        <time>2022-08-18T11:43:48Z</time>
      </trkpt>
      <trkpt lat="42.490785" lon="-6.322856">
        <ele>1335.2</ele>
        <time>2022-08-18T11:44:05Z</time>
      </trkpt>
      <trkpt lat="42.490964" lon="-6.322938">
        <ele>1337.1</ele>
        <time>2022-08-18T11:44:17Z</time>
      </trkpt>
      <trkpt lat="42.491071" lon="-6.323141">
        <ele>1338.4</ele>
        <time>2022-08-18T11:44:32Z</time>
      </trkpt>
      <trkpt lat="42.491191" lon="-6.323329">
        <ele>1339.1</ele>
        <time>2022-08-18T11:44:45Z</time>
      </trkpt>
      <trkpt lat="42.491303" lon="-6.323538">
        <ele>1343.2</ele>
        <time>2022-08-18T11:45:01Z</time>
      </trkpt>
      <trkpt lat="42.491399" lon="-6.323751">
        <ele>1344.2</ele>
        <time>2022-08-18T11:45:17Z</time>
      </trkpt>
      <trkpt lat="42.491486" lon="-6.323986">
        <ele>1345.2</ele>
        <time>2022-08-18T11:45:31Z</time>
      </trkpt>
      <trkpt lat="42.491522" lon="-6.324232">
        <ele>1345.2</ele>
        <time>2022-08-18T11:45:44Z</time>
      </trkpt>
      <trkpt lat="42.491532" lon="-6.324478">
        <ele>1345.2</ele>
        <time>2022-08-18T11:45:57Z</time>
      </trkpt>
      <trkpt lat="42.491554" lon="-6.324724">
        <ele>1346.2</ele>
        <time>2022-08-18T11:46:10Z</time>
      </trkpt>
      <trkpt lat="42.491567" lon="-6.324976">
        <ele>1347.2</ele>
        <time>2022-08-18T11:46:24Z</time>
      </trkpt>
      <trkpt lat="42.491561" lon="-6.325225">
        <ele>1346.1</ele>
        <time>2022-08-18T11:46:38Z</time>
      </trkpt>
      <trkpt lat="42.491576" lon="-6.325476">
        <ele>1346.2</ele>
        <time>2022-08-18T11:46:51Z</time>
      </trkpt>
      <trkpt lat="42.491575" lon="-6.325731">
        <ele>1345.2</ele>
        <time>2022-08-18T11:47:06Z</time>
      </trkpt>
      <trkpt lat="42.491583" lon="-6.325980">
        <ele>1344.9</ele>
        <time>2022-08-18T11:47:18Z</time>
      </trkpt>
      <trkpt lat="42.491565" lon="-6.326237">
        <ele>1346.1</ele>
        <time>2022-08-18T11:47:31Z</time>
      </trkpt>
      <trkpt lat="42.491571" lon="-6.326488">
        <ele>1344.2</ele>
        <time>2022-08-18T11:47:44Z</time>
      </trkpt>
      <trkpt lat="42.491608" lon="-6.326730">
        <ele>1347.1</ele>
        <time>2022-08-18T11:47:58Z</time>
      </trkpt>
      <trkpt lat="42.491577" lon="-6.326996">
        <ele>1345.2</ele>
        <time>2022-08-18T11:48:14Z</time>
      </trkpt>
      <trkpt lat="42.491504" lon="-6.327223">
        <ele>1344.2</ele>
        <time>2022-08-18T11:48:35Z</time>
      </trkpt>
      <trkpt lat="42.491385" lon="-6.327413">
        <ele>1347.1</ele>
        <time>2022-08-18T11:48:51Z</time>
      </trkpt>
      <trkpt lat="42.491275" lon="-6.327625">
        <ele>1349.1</ele>
        <time>2022-08-18T11:49:09Z</time>
      </trkpt>
      <trkpt lat="42.491140" lon="-6.327804">
        <ele>1348.9</ele>
        <time>2022-08-18T11:49:24Z</time>
      </trkpt>
      <trkpt lat="42.490986" lon="-6.327947">
        <ele>1351.1</ele>
        <time>2022-08-18T11:49:42Z</time>
      </trkpt>
      <trkpt lat="42.490825" lon="-6.328067">
        <ele>1350.2</ele>
        <time>2022-08-18T11:50:00Z</time>
      </trkpt>
      <trkpt lat="42.490653" lon="-6.328165">
        <ele>1355.8</ele>
        <time>2022-08-18T11:50:19Z</time>
      </trkpt>
      <trkpt lat="42.490485" lon="-6.328258">
        <ele>1357.1</ele>
        <time>2022-08-18T11:50:34Z</time>
      </trkpt>
      <trkpt lat="42.490323" lon="-6.328374">
        <ele>1360.1</ele>
        <time>2022-08-18T11:50:47Z</time>
      </trkpt>
      <trkpt lat="42.490176" lon="-6.328540">
        <ele>1362.8</ele>
        <time>2022-08-18T11:51:02Z</time>
      </trkpt>
      <trkpt lat="42.490060" lon="-6.328738">
        <ele>1369.1</ele>
        <time>2022-08-18T11:51:40Z</time>
      </trkpt>
      <trkpt lat="42.489972" lon="-6.328960">
        <ele>1368.1</ele>
        <time>2022-08-18T11:52:02Z</time>
      </trkpt>
      <trkpt lat="42.489903" lon="-6.329193">
        <ele>1369.4</ele>
        <time>2022-08-18T11:52:16Z</time>
      </trkpt>
      <trkpt lat="42.489845" lon="-6.329428">
        <ele>1372.1</ele>
        <time>2022-08-18T11:52:31Z</time>
      </trkpt>
      <trkpt lat="42.489799" lon="-6.329670">
        <ele>1373.1</ele>
        <time>2022-08-18T11:52:46Z</time>
      </trkpt>
      <trkpt lat="42.489762" lon="-6.329912">
        <ele>1376.1</ele>
        <time>2022-08-18T11:53:01Z</time>
      </trkpt>
      <trkpt lat="42.489713" lon="-6.330159">
        <ele>1377.1</ele>
        <time>2022-08-18T11:53:17Z</time>
      </trkpt>
      <trkpt lat="42.489685" lon="-6.330418">
        <ele>1379.1</ele>
        <time>2022-08-18T11:53:32Z</time>
      </trkpt>
      <trkpt lat="42.489718" lon="-6.330663">
        <ele>1379.8</ele>
        <time>2022-08-18T11:53:48Z</time>
      </trkpt>
      <trkpt lat="42.489842" lon="-6.330849">
        <ele>1380.1</ele>
        <time>2022-08-18T11:54:04Z</time>
      </trkpt>
      <trkpt lat="42.489959" lon="-6.331035">
        <ele>1384.1</ele>
        <time>2022-08-18T11:54:19Z</time>
      </trkpt>
      <trkpt lat="42.490059" lon="-6.331247">
        <ele>1385.8</ele>
        <time>2022-08-18T11:54:34Z</time>
      </trkpt>
      <trkpt lat="42.490172" lon="-6.331450">
        <ele>1386.1</ele>
        <time>2022-08-18T11:54:49Z</time>
      </trkpt>
      <trkpt lat="42.490277" lon="-6.331649">
        <ele>1388.4</ele>
        <time>2022-08-18T11:55:02Z</time>
      </trkpt>
      <trkpt lat="42.490377" lon="-6.331864">
        <ele>1388.1</ele>
        <time>2022-08-18T11:55:28Z</time>
      </trkpt>
      <trkpt lat="42.490500" lon="-6.332055">
        <ele>1388.1</ele>
        <time>2022-08-18T11:55:48Z</time>
      </trkpt>
      <trkpt lat="42.490610" lon="-6.332252">
        <ele>1387.1</ele>
        <time>2022-08-18T11:56:05Z</time>
      </trkpt>
      <trkpt lat="42.490732" lon="-6.332450">
        <ele>1388.1</ele>
        <time>2022-08-18T11:56:20Z</time>
      </trkpt>
      <trkpt lat="42.490846" lon="-6.332653">
        <ele>1388.1</ele>
        <time>2022-08-18T11:56:42Z</time>
      </trkpt>
      <trkpt lat="42.490953" lon="-6.332866">
        <ele>1387.1</ele>
        <time>2022-08-18T11:56:57Z</time>
      </trkpt>
      <trkpt lat="42.491065" lon="-6.333068">
        <ele>1387.1</ele>
        <time>2022-08-18T11:57:10Z</time>
      </trkpt>
      <trkpt lat="42.491175" lon="-6.333278">
        <ele>1386.9</ele>
        <time>2022-08-18T11:57:25Z</time>
      </trkpt>
      <trkpt lat="42.491283" lon="-6.333494">
        <ele>1388.1</ele>
        <time>2022-08-18T11:57:40Z</time>
      </trkpt>
      <trkpt lat="42.491395" lon="-6.333698">
        <ele>1391.1</ele>
        <time>2022-08-18T11:58:14Z</time>
      </trkpt>
      <trkpt lat="42.491480" lon="-6.333931">
        <ele>1390.2</ele>
        <time>2022-08-18T11:58:29Z</time>
      </trkpt>
      <trkpt lat="42.491556" lon="-6.334165">
        <ele>1389.9</ele>
        <time>2022-08-18T11:58:43Z</time>
      </trkpt>
      <trkpt lat="42.491620" lon="-6.334399">
        <ele>1390.2</ele>
        <time>2022-08-18T11:58:58Z</time>
      </trkpt>
      <trkpt lat="42.491645" lon="-6.334646">
        <ele>1390.1</ele>
        <time>2022-08-18T11:59:12Z</time>
      </trkpt>
      <trkpt lat="42.491639" lon="-6.334897">
        <ele>1389.2</ele>
        <time>2022-08-18T11:59:26Z</time>
      </trkpt>
      <trkpt lat="42.491638" lon="-6.335145">
        <ele>1389.9</ele>
        <time>2022-08-18T11:59:47Z</time>
      </trkpt>
      <trkpt lat="42.491649" lon="-6.335400">
        <ele>1391.8</ele>
        <time>2022-08-18T12:00:03Z</time>
      </trkpt>
      <trkpt lat="42.491622" lon="-6.335646">
        <ele>1391.1</ele>
        <time>2022-08-18T12:00:17Z</time>
      </trkpt>
      <trkpt lat="42.491605" lon="-6.335903">
        <ele>1392.1</ele>
        <time>2022-08-18T12:00:33Z</time>
      </trkpt>
      <trkpt lat="42.491542" lon="-6.336141">
        <ele>1397.4</ele>
        <time>2022-08-18T12:00:50Z</time>
      </trkpt>
      <trkpt lat="42.491499" lon="-6.336380">
        <ele>1398.1</ele>
        <time>2022-08-18T12:01:07Z</time>
      </trkpt>
      <trkpt lat="42.491448" lon="-6.336620">
        <ele>1399.1</ele>
        <time>2022-08-18T12:01:23Z</time>
      </trkpt>
      <trkpt lat="42.491425" lon="-6.336863">
        <ele>1401.1</ele>
        <time>2022-08-18T12:01:37Z</time>
      </trkpt>
      <trkpt lat="42.491374" lon="-6.337099">
        <ele>1403.8</ele>
        <time>2022-08-18T12:01:53Z</time>
      </trkpt>
      <trkpt lat="42.491304" lon="-6.337330">
        <ele>1404.1</ele>
        <time>2022-08-18T12:02:08Z</time>
      </trkpt>
      <trkpt lat="42.491217" lon="-6.337560">
        <ele>1404.2</ele>
        <time>2022-08-18T12:02:24Z</time>
      </trkpt>
      <trkpt lat="42.491143" lon="-6.337792">
        <ele>1404.8</ele>
        <time>2022-08-18T12:02:38Z</time>
      </trkpt>
      <trkpt lat="42.491055" lon="-6.338007">
        <ele>1404.1</ele>
        <time>2022-08-18T12:02:53Z</time>
      </trkpt>
      <trkpt lat="42.490972" lon="-6.338241">
        <ele>1403.4</ele>
        <time>2022-08-18T12:03:09Z</time>
      </trkpt>
      <trkpt lat="42.490903" lon="-6.338476">
        <ele>1403.2</ele>
        <time>2022-08-18T12:03:24Z</time>
      </trkpt>
      <trkpt lat="42.490860" lon="-6.338731">
        <ele>1405.1</ele>
        <time>2022-08-18T12:05:23Z</time>
      </trkpt>
      <trkpt lat="42.490798" lon="-6.338972">
        <ele>1404.1</ele>
        <time>2022-08-18T12:05:36Z</time>
      </trkpt>
      <trkpt lat="42.490738" lon="-6.339214">
        <ele>1404.2</ele>
        <time>2022-08-18T12:05:50Z</time>
      </trkpt>
      <trkpt lat="42.490696" lon="-6.339460">
        <ele>1405.1</ele>
        <time>2022-08-18T12:06:03Z</time>
      </trkpt>
      <trkpt lat="42.490668" lon="-6.339720">
        <ele>1406.2</ele>
        <time>2022-08-18T12:06:17Z</time>
      </trkpt>
      <trkpt lat="42.490682" lon="-6.339977">
        <ele>1408.1</ele>
        <time>2022-08-18T12:06:31Z</time>
      </trkpt>
      <trkpt lat="42.490705" lon="-6.340221">
        <ele>1410.8</ele>
        <time>2022-08-18T12:06:45Z</time>
      </trkpt>
      <trkpt lat="42.490732" lon="-6.340468">
        <ele>1413.1</ele>
        <time>2022-08-18T12:06:59Z</time>
      </trkpt>
      <trkpt lat="42.490766" lon="-6.340711">
        <ele>1413.1</ele>
        <time>2022-08-18T12:07:13Z</time>
      </trkpt>
      <trkpt lat="42.490825" lon="-6.340945">
        <ele>1414.8</ele>
        <time>2022-08-18T12:07:32Z</time>
      </trkpt>
      <trkpt lat="42.490868" lon="-6.341189">
        <ele>1418.0</ele>
        <time>2022-08-18T12:07:59Z</time>
      </trkpt>
      <trkpt lat="42.490872" lon="-6.341446">
        <ele>1418.1</ele>
        <time>2022-08-18T12:08:14Z</time>
      </trkpt>
      <trkpt lat="42.490900" lon="-6.341683">
        <ele>1420.0</ele>
        <time>2022-08-18T12:08:30Z</time>
      </trkpt>
      <trkpt lat="42.490993" lon="-6.342032">
        <ele>1426.1</ele>
        <time>2022-08-19T05:10:12Z</time>
      </trkpt>
      <trkpt lat="42.491092" lon="-6.342252">
        <ele>1429.0</ele>
        <time>2022-08-19T05:10:27Z</time>
      </trkpt>
      <trkpt lat="42.491209" lon="-6.342451">
        <ele>1426.7</ele>
        <time>2022-08-19T05:10:42Z</time>
      </trkpt>
      <trkpt lat="42.491331" lon="-6.342651">
        <ele>1430.2</ele>
        <time>2022-08-19T05:10:58Z</time>
      </trkpt>
      <trkpt lat="42.491498" lon="-6.342775">
        <ele>1430.2</ele>
        <time>2022-08-19T05:11:15Z</time>
      </trkpt>
      <trkpt lat="42.491624" lon="-6.342971">
        <ele>1431.3</ele>
        <time>2022-08-19T05:11:29Z</time>
      </trkpt>
      <trkpt lat="42.491737" lon="-6.343180">
        <ele>1434.0</ele>
        <time>2022-08-19T05:11:45Z</time>
      </trkpt>
      <trkpt lat="42.491789" lon="-6.343430">
        <ele>1435.0</ele>
        <time>2022-08-19T05:12:04Z</time>
      </trkpt>
      <trkpt lat="42.491843" lon="-6.343656">
        <ele>1437.0</ele>
        <time>2022-08-19T05:12:24Z</time>
      </trkpt>
      <trkpt lat="42.491836" lon="-6.343926">
        <ele>1437.0</ele>
        <time>2022-08-19T05:12:38Z</time>
      </trkpt>
      <trkpt lat="42.491983" lon="-6.344170">
        <ele>1437.0</ele>
        <time>2022-08-19T05:13:01Z</time>
      </trkpt>
      <trkpt lat="42.492102" lon="-6.344369">
        <ele>1437.0</ele>
        <time>2022-08-19T05:13:34Z</time>
      </trkpt>
      <trkpt lat="42.492192" lon="-6.344594">
        <ele>1434.1</ele>
        <time>2022-08-19T05:13:49Z</time>
      </trkpt>
      <trkpt lat="42.492280" lon="-6.344820">
        <ele>1436.1</ele>
        <time>2022-08-19T05:14:05Z</time>
      </trkpt>
      <trkpt lat="42.492384" lon="-6.345033">
        <ele>1436.8</ele>
        <time>2022-08-19T05:14:34Z</time>
      </trkpt>
      <trkpt lat="42.492478" lon="-6.345258">
        <ele>1439.1</ele>
        <time>2022-08-19T05:14:48Z</time>
      </trkpt>
      <trkpt lat="42.492573" lon="-6.345473">
        <ele>1440.1</ele>
        <time>2022-08-19T05:15:26Z</time>
      </trkpt>
      <trkpt lat="42.492634" lon="-6.345704">
        <ele>1440.4</ele>
        <time>2022-08-19T05:15:40Z</time>
      </trkpt>
      <trkpt lat="42.492663" lon="-6.345946">
        <ele>1440.1</ele>
        <time>2022-08-19T05:15:55Z</time>
      </trkpt>
      <trkpt lat="42.492674" lon="-6.346194">
        <ele>1440.9</ele>
        <time>2022-08-19T05:16:09Z</time>
      </trkpt>
      <trkpt lat="42.492632" lon="-6.346433">
        <ele>1439.1</ele>
        <time>2022-08-19T05:16:22Z</time>
      </trkpt>
      <trkpt lat="42.492607" lon="-6.346679">
        <ele>1443.0</ele>
        <time>2022-08-19T05:16:42Z</time>
      </trkpt>
      <trkpt lat="42.492537" lon="-6.346919">
        <ele>1442.1</ele>
        <time>2022-08-19T05:16:57Z</time>
      </trkpt>
      <trkpt lat="42.492484" lon="-6.347166">
        <ele>1441.8</ele>
        <time>2022-08-19T05:17:12Z</time>
      </trkpt>
      <trkpt lat="42.492452" lon="-6.347413">
        <ele>1444.0</ele>
        <time>2022-08-19T05:17:26Z</time>
      </trkpt>
      <trkpt lat="42.492418" lon="-6.347653">
        <ele>1445.1</ele>
        <time>2022-08-19T05:17:40Z</time>
      </trkpt>
      <trkpt lat="42.492361" lon="-6.347898">
        <ele>1442.1</ele>
        <time>2022-08-19T05:17:55Z</time>
      </trkpt>
      <trkpt lat="42.492305" lon="-6.348141">
        <ele>1445.8</ele>
        <time>2022-08-19T05:18:25Z</time>
      </trkpt>
      <trkpt lat="42.492221" lon="-6.348364">
        <ele>1450.1</ele>
        <time>2022-08-19T05:18:40Z</time>
      </trkpt>
      <trkpt lat="42.492115" lon="-6.348575">
        <ele>1452.1</ele>
        <time>2022-08-19T05:18:53Z</time>
      </trkpt>
      <trkpt lat="42.492083" lon="-6.348818">
        <ele>1451.4</ele>
        <time>2022-08-19T05:19:06Z</time>
      </trkpt>
      <trkpt lat="42.492068" lon="-6.349075">
        <ele>1452.9</ele>
        <time>2022-08-19T05:19:20Z</time>
      </trkpt>
      <trkpt lat="42.492017" lon="-6.349310">
        <ele>1454.8</ele>
        <time>2022-08-19T05:19:33Z</time>
      </trkpt>
      <trkpt lat="42.491949" lon="-6.349538">
        <ele>1457.1</ele>
        <time>2022-08-19T05:19:48Z</time>
      </trkpt>
      <trkpt lat="42.491906" lon="-6.349800">
        <ele>1461.0</ele>
        <time>2022-08-19T05:20:03Z</time>
      </trkpt>
      <trkpt lat="42.491860" lon="-6.350042">
        <ele>1462.1</ele>
        <time>2022-08-19T05:20:16Z</time>
      </trkpt>
      <trkpt lat="42.491753" lon="-6.350239">
        <ele>1462.8</ele>
        <time>2022-08-19T05:20:30Z</time>
      </trkpt>
      <trkpt lat="42.491572" lon="-6.350308">
        <ele>1461.8</ele>
        <time>2022-08-19T05:20:45Z</time>
      </trkpt>
      <trkpt lat="42.491395" lon="-6.350247">
        <ele>1463.8</ele>
        <time>2022-08-19T05:20:58Z</time>
      </trkpt>
      <trkpt lat="42.491228" lon="-6.350146">
        <ele>1464.8</ele>
        <time>2022-08-19T05:21:10Z</time>
      </trkpt>
      <trkpt lat="42.491048" lon="-6.350154">
        <ele>1464.1</ele>
        <time>2022-08-19T05:21:22Z</time>
      </trkpt>
      <trkpt lat="42.490867" lon="-6.350179">
        <ele>1465.1</ele>
        <time>2022-08-19T05:21:35Z</time>
      </trkpt>
      <trkpt lat="42.490684" lon="-6.350206">
        <ele>1469.1</ele>
        <time>2022-08-19T05:21:50Z</time>
      </trkpt>
      <trkpt lat="42.490500" lon="-6.350262">
        <ele>1473.1</ele>
        <time>2022-08-19T05:22:04Z</time>
      </trkpt>
      <trkpt lat="42.490334" lon="-6.350357">
        <ele>1477.0</ele>
        <time>2022-08-19T05:22:26Z</time>
      </trkpt>
      <trkpt lat="42.490170" lon="-6.350474">
        <ele>1476.1</ele>
        <time>2022-08-19T05:22:40Z</time>
      </trkpt>
      <trkpt lat="42.490013" lon="-6.350614">
        <ele>1479.8</ele>
        <time>2022-08-19T05:22:55Z</time>
      </trkpt>
      <trkpt lat="42.489898" lon="-6.350815">
        <ele>1481.1</ele>
        <time>2022-08-19T05:23:09Z</time>
      </trkpt>
      <trkpt lat="42.489800" lon="-6.351031">
        <ele>1483.1</ele>
        <time>2022-08-19T05:23:43Z</time>
      </trkpt>
      <trkpt lat="42.489811" lon="-6.351279">
        <ele>1481.2</ele>
        <time>2022-08-19T05:23:55Z</time>
      </trkpt>
      <trkpt lat="42.489836" lon="-6.351526">
        <ele>1478.8</ele>
        <time>2022-08-19T05:24:08Z</time>
      </trkpt>
      <trkpt lat="42.489933" lon="-6.351738">
        <ele>1480.0</ele>
        <time>2022-08-19T05:24:21Z</time>
      </trkpt>
      <trkpt lat="42.490031" lon="-6.351965">
        <ele>1481.1</ele>
        <time>2022-08-19T05:24:36Z</time>
      </trkpt>
      <trkpt lat="42.490145" lon="-6.352161">
        <ele>1482.1</ele>
        <time>2022-08-19T05:24:49Z</time>
      </trkpt>
      <trkpt lat="42.490274" lon="-6.352351">
        <ele>1484.1</ele>
        <time>2022-08-19T05:25:04Z</time>
      </trkpt>
      <trkpt lat="42.490412" lon="-6.352522">
        <ele>1484.1</ele>
        <time>2022-08-19T05:25:19Z</time>
      </trkpt>
      <trkpt lat="42.490576" lon="-6.352651">
        <ele>1486.1</ele>
        <time>2022-08-19T05:25:32Z</time>
      </trkpt>
      <trkpt lat="42.490745" lon="-6.352778">
        <ele>1487.1</ele>
        <time>2022-08-19T05:25:45Z</time>
      </trkpt>
      <trkpt lat="42.490907" lon="-6.352901">
        <ele>1487.1</ele>
        <time>2022-08-19T05:25:58Z</time>
      </trkpt>
      <trkpt lat="42.491071" lon="-6.353028">
        <ele>1488.1</ele>
        <time>2022-08-19T05:26:12Z</time>
      </trkpt>
      <trkpt lat="42.491205" lon="-6.353194">
        <ele>1487.4</ele>
        <time>2022-08-19T05:26:24Z</time>
      </trkpt>
      <trkpt lat="42.491316" lon="-6.353390">
        <ele>1490.1</ele>
        <time>2022-08-19T05:26:39Z</time>
      </trkpt>
      <trkpt lat="42.491388" lon="-6.353625">
        <ele>1488.8</ele>
        <time>2022-08-19T05:26:54Z</time>
      </trkpt>
      <trkpt lat="42.491483" lon="-6.353848">
        <ele>1490.1</ele>
        <time>2022-08-19T05:27:09Z</time>
      </trkpt>
      <trkpt lat="42.491571" lon="-6.354079">
        <ele>1491.1</ele>
        <time>2022-08-19T05:27:23Z</time>
      </trkpt>
      <trkpt lat="42.491591" lon="-6.354333">
        <ele>1494.1</ele>
        <time>2022-08-19T05:27:39Z</time>
      </trkpt>
      <trkpt lat="42.491573" lon="-6.354582">
        <ele>1490.1</ele>
        <time>2022-08-19T05:27:55Z</time>
      </trkpt>
      <trkpt lat="42.491633" lon="-6.354821">
        <ele>1489.4</ele>
        <time>2022-08-19T05:28:09Z</time>
      </trkpt>
      <trkpt lat="42.491498" lon="-6.355006">
        <ele>1488.4</ele>
        <time>2022-08-19T05:28:25Z</time>
      </trkpt>
      <trkpt lat="42.491351" lon="-6.355152">
        <ele>1487.1</ele>
        <time>2022-08-19T05:28:38Z</time>
      </trkpt>
      <trkpt lat="42.491213" lon="-6.355321">
        <ele>1486.1</ele>
        <time>2022-08-19T05:28:51Z</time>
      </trkpt>
      <trkpt lat="42.491063" lon="-6.355473">
        <ele>1492.8</ele>
        <time>2022-08-19T05:29:05Z</time>
      </trkpt>
      <trkpt lat="42.490940" lon="-6.355665">
        <ele>1495.1</ele>
        <time>2022-08-19T05:29:18Z</time>
      </trkpt>
      <trkpt lat="42.490819" lon="-6.355864">
        <ele>1499.0</ele>
        <time>2022-08-19T05:29:31Z</time>
      </trkpt>
      <trkpt lat="42.490788" lon="-6.356121">
        <ele>1494.4</ele>
        <time>2022-08-19T05:29:45Z</time>
      </trkpt>
      <trkpt lat="42.490771" lon="-6.356367">
        <ele>1491.1</ele>
        <time>2022-08-19T05:30:01Z</time>
      </trkpt>
      <trkpt lat="42.490774" lon="-6.356624">
        <ele>1489.4</ele>
        <time>2022-08-19T05:30:13Z</time>
      </trkpt>
      <trkpt lat="42.490779" lon="-6.356874">
        <ele>1491.0</ele>
        <time>2022-08-19T05:30:28Z</time>
      </trkpt>
      <trkpt lat="42.490776" lon="-6.357126">
        <ele>1490.4</ele>
        <time>2022-08-19T05:30:42Z</time>
      </trkpt>
      <trkpt lat="42.490760" lon="-6.357383">
        <ele>1492.1</ele>
        <time>2022-08-19T05:30:56Z</time>
      </trkpt>
      <trkpt lat="42.490725" lon="-6.357629">
        <ele>1494.0</ele>
        <time>2022-08-19T05:31:10Z</time>
      </trkpt>
      <trkpt lat="42.490671" lon="-6.357875">
        <ele>1494.4</ele>
        <time>2022-08-19T05:31:37Z</time>
      </trkpt>
      <trkpt lat="42.490592" lon="-6.358097">
        <ele>1494.1</ele>
        <time>2022-08-19T05:31:52Z</time>
      </trkpt>
      <trkpt lat="42.490524" lon="-6.358342">
        <ele>1490.4</ele>
        <time>2022-08-19T05:32:05Z</time>
      </trkpt>
      <trkpt lat="42.490436" lon="-6.358570">
        <ele>1491.1</ele>
        <time>2022-08-19T05:32:19Z</time>
      </trkpt>
      <trkpt lat="42.490310" lon="-6.358762">
        <ele>1494.0</ele>
        <time>2022-08-19T05:32:32Z</time>
      </trkpt>
      <trkpt lat="42.490246" lon="-6.358992">
        <ele>1496.1</ele>
        <time>2022-08-19T05:32:45Z</time>
      </trkpt>
      <trkpt lat="42.490170" lon="-6.359224">
        <ele>1495.1</ele>
        <time>2022-08-19T05:32:59Z</time>
      </trkpt>
      <trkpt lat="42.490074" lon="-6.359450">
        <ele>1495.1</ele>
        <time>2022-08-19T05:33:12Z</time>
      </trkpt>
      <trkpt lat="42.489967" lon="-6.359695">
        <ele>1495.1</ele>
        <time>2022-08-19T05:33:27Z</time>
      </trkpt>
      <trkpt lat="42.489847" lon="-6.359896">
        <ele>1495.1</ele>
        <time>2022-08-19T05:33:41Z</time>
      </trkpt>
      <trkpt lat="42.489735" lon="-6.360106">
        <ele>1496.4</ele>
        <time>2022-08-19T05:33:57Z</time>
      </trkpt>
      <trkpt lat="42.489589" lon="-6.360265">
        <ele>1496.2</ele>
        <time>2022-08-19T05:34:10Z</time>
      </trkpt>
      <trkpt lat="42.489465" lon="-6.360444">
        <ele>1496.1</ele>
        <time>2022-08-19T05:34:24Z</time>
      </trkpt>
      <trkpt lat="42.489333" lon="-6.360610">
        <ele>1496.1</ele>
        <time>2022-08-19T05:34:38Z</time>
      </trkpt>
      <trkpt lat="42.489204" lon="-6.360781">
        <ele>1496.1</ele>
        <time>2022-08-19T05:34:51Z</time>
      </trkpt>
      <trkpt lat="42.489113" lon="-6.360999">
        <ele>1497.8</ele>
        <time>2022-08-19T05:35:03Z</time>
      </trkpt>
      <trkpt lat="42.489018" lon="-6.361219">
        <ele>1499.1</ele>
        <time>2022-08-19T05:35:27Z</time>
      </trkpt>
      <trkpt lat="42.488988" lon="-6.361486">
        <ele>1499.1</ele>
        <time>2022-08-19T05:36:28Z</time>
      </trkpt>
      <trkpt lat="42.488857" lon="-6.361671">
        <ele>1506.0</ele>
        <time>2022-08-19T05:37:19Z</time>
      </trkpt>
      <trkpt lat="42.488729" lon="-6.361850">
        <ele>1500.1</ele>
        <time>2022-08-19T05:38:15Z</time>
      </trkpt>
      <trkpt lat="42.488639" lon="-6.362068">
        <ele>1499.1</ele>
        <time>2022-08-19T05:39:21Z</time>
      </trkpt>
      <trkpt lat="42.488641" lon="-6.362324">
        <ele>1496.2</ele>
        <time>2022-08-19T05:39:36Z</time>
      </trkpt>
      <trkpt lat="42.488615" lon="-6.362573">
        <ele>1493.2</ele>
        <time>2022-08-19T05:39:50Z</time>
      </trkpt>
      <trkpt lat="42.488586" lon="-6.362838">
        <ele>1493.1</ele>
        <time>2022-08-19T05:40:04Z</time>
      </trkpt>
      <trkpt lat="42.488580" lon="-6.363092">
        <ele>1492.1</ele>
        <time>2022-08-19T05:40:18Z</time>
      </trkpt>
      <trkpt lat="42.488578" lon="-6.363340">
        <ele>1490.1</ele>
        <time>2022-08-19T05:40:32Z</time>
      </trkpt>
      <trkpt lat="42.488598" lon="-6.363588">
        <ele>1489.1</ele>
        <time>2022-08-19T05:40:44Z</time>
      </trkpt>
      <trkpt lat="42.488665" lon="-6.363816">
        <ele>1488.1</ele>
        <time>2022-08-19T05:40:58Z</time>
      </trkpt>
      <trkpt lat="42.488719" lon="-6.364057">
        <ele>1487.8</ele>
        <time>2022-08-19T05:41:14Z</time>
      </trkpt>
      <trkpt lat="42.488768" lon="-6.364312">
        <ele>1486.2</ele>
        <time>2022-08-19T05:41:27Z</time>
      </trkpt>
      <trkpt lat="42.488849" lon="-6.364535">
        <ele>1486.1</ele>
        <time>2022-08-19T05:41:47Z</time>
      </trkpt>
      <trkpt lat="42.488940" lon="-6.364746">
        <ele>1485.4</ele>
        <time>2022-08-19T05:42:00Z</time>
      </trkpt>
      <trkpt lat="42.488994" lon="-6.364992">
        <ele>1482.1</ele>
        <time>2022-08-19T05:42:12Z</time>
      </trkpt>
      <trkpt lat="42.489070" lon="-6.365215">
        <ele>1480.1</ele>
        <time>2022-08-19T05:42:26Z</time>
      </trkpt>
      <trkpt lat="42.489155" lon="-6.365437">
        <ele>1477.2</ele>
        <time>2022-08-19T05:42:43Z</time>
      </trkpt>
      <trkpt lat="42.489177" lon="-6.365679">
        <ele>1476.1</ele>
        <time>2022-08-19T05:42:55Z</time>
      </trkpt>
      <trkpt lat="42.489205" lon="-6.365922">
        <ele>1474.4</ele>
        <time>2022-08-19T05:43:11Z</time>
      </trkpt>
      <trkpt lat="42.489227" lon="-6.366181">
        <ele>1472.1</ele>
        <time>2022-08-19T05:43:25Z</time>
      </trkpt>
      <trkpt lat="42.489265" lon="-6.366428">
        <ele>1474.3</ele>
        <time>2022-08-19T05:43:38Z</time>
      </trkpt>
      <trkpt lat="42.489296" lon="-6.366675">
        <ele>1475.1</ele>
        <time>2022-08-19T05:43:53Z</time>
      </trkpt>
      <trkpt lat="42.489290" lon="-6.366926">
        <ele>1474.1</ele>
        <time>2022-08-19T05:44:07Z</time>
      </trkpt>
      <trkpt lat="42.489204" lon="-6.367144">
        <ele>1474.1</ele>
        <time>2022-08-19T05:44:20Z</time>
      </trkpt>
      <trkpt lat="42.489138" lon="-6.367373">
        <ele>1474.0</ele>
        <time>2022-08-19T05:44:33Z</time>
      </trkpt>
      <trkpt lat="42.489107" lon="-6.367622">
        <ele>1473.1</ele>
        <time>2022-08-19T05:44:46Z</time>
      </trkpt>
      <trkpt lat="42.489073" lon="-6.367872">
        <ele>1472.0</ele>
        <time>2022-08-19T05:45:01Z</time>
      </trkpt>
      <trkpt lat="42.489109" lon="-6.368112">
        <ele>1469.1</ele>
        <time>2022-08-19T05:45:15Z</time>
      </trkpt>
      <trkpt lat="42.489130" lon="-6.368378">
        <ele>1466.1</ele>
        <time>2022-08-19T05:45:29Z</time>
      </trkpt>
      <trkpt lat="42.489121" lon="-6.368624">
        <ele>1466.8</ele>
        <time>2022-08-19T05:45:41Z</time>
      </trkpt>
      <trkpt lat="42.489120" lon="-6.368871">
        <ele>1469.1</ele>
        <time>2022-08-19T05:45:54Z</time>
      </trkpt>
      <trkpt lat="42.489098" lon="-6.369120">
        <ele>1468.1</ele>
        <time>2022-08-19T05:46:07Z</time>
      </trkpt>
      <trkpt lat="42.489091" lon="-6.369374">
        <ele>1469.3</ele>
        <time>2022-08-19T05:46:43Z</time>
      </trkpt>
      <trkpt lat="42.489093" lon="-6.369626">
        <ele>1469.1</ele>
        <time>2022-08-19T05:46:57Z</time>
      </trkpt>
      <trkpt lat="42.489118" lon="-6.369869">
        <ele>1468.1</ele>
        <time>2022-08-19T05:47:11Z</time>
      </trkpt>
      <trkpt lat="42.489162" lon="-6.370106">
        <ele>1468.8</ele>
        <time>2022-08-19T05:47:25Z</time>
      </trkpt>
      <trkpt lat="42.489196" lon="-6.370358">
        <ele>1468.9</ele>
        <time>2022-08-19T05:47:38Z</time>
      </trkpt>
      <trkpt lat="42.489269" lon="-6.370598">
        <ele>1469.0</ele>
        <time>2022-08-19T05:47:52Z</time>
      </trkpt>
      <trkpt lat="42.489311" lon="-6.370838">
        <ele>1473.1</ele>
        <time>2022-08-19T05:48:04Z</time>
      </trkpt>
      <trkpt lat="42.489388" lon="-6.371078">
        <ele>1477.1</ele>
        <time>2022-08-19T05:48:19Z</time>
      </trkpt>
      <trkpt lat="42.489466" lon="-6.371314">
        <ele>1476.1</ele>
        <time>2022-08-19T05:48:32Z</time>
      </trkpt>
      <trkpt lat="42.489566" lon="-6.371539">
        <ele>1475.1</ele>
        <time>2022-08-19T05:48:46Z</time>
      </trkpt>
      <trkpt lat="42.489665" lon="-6.371746">
        <ele>1472.1</ele>
        <time>2022-08-19T05:48:59Z</time>
      </trkpt>
      <trkpt lat="42.489758" lon="-6.371975">
        <ele>1473.1</ele>
        <time>2022-08-19T05:49:13Z</time>
      </trkpt>
      <trkpt lat="42.489848" lon="-6.372202">
        <ele>1472.9</ele>
        <time>2022-08-19T05:49:27Z</time>
      </trkpt>
      <trkpt lat="42.489933" lon="-6.372433">
        <ele>1471.1</ele>
        <time>2022-08-19T05:49:41Z</time>
      </trkpt>
      <trkpt lat="42.489989" lon="-6.372677">
        <ele>1472.0</ele>
        <time>2022-08-19T05:49:54Z</time>
      </trkpt>
      <trkpt lat="42.490003" lon="-6.372927">
        <ele>1476.1</ele>
        <time>2022-08-19T05:50:07Z</time>
      </trkpt>
      <trkpt lat="42.489933" lon="-6.373156">
        <ele>1480.8</ele>
        <time>2022-08-19T05:50:22Z</time>
      </trkpt>
      <trkpt lat="42.489852" lon="-6.373378">
        <ele>1481.4</ele>
        <time>2022-08-19T05:50:37Z</time>
      </trkpt>
      <trkpt lat="42.489697" lon="-6.373517">
        <ele>1484.8</ele>
        <time>2022-08-19T05:50:51Z</time>
      </trkpt>
      <trkpt lat="42.489525" lon="-6.373605">
        <ele>1487.1</ele>
        <time>2022-08-19T05:51:06Z</time>
      </trkpt>
      <trkpt lat="42.489354" lon="-6.373709">
        <ele>1487.1</ele>
        <time>2022-08-19T05:51:21Z</time>
      </trkpt>
      <trkpt lat="42.489208" lon="-6.373874">
        <ele>1488.1</ele>
        <time>2022-08-19T05:51:37Z</time>
      </trkpt>
      <trkpt lat="42.489074" lon="-6.374053">
        <ele>1485.2</ele>
        <time>2022-08-19T05:51:51Z</time>
      </trkpt>
      <trkpt lat="42.488959" lon="-6.374247">
        <ele>1482.1</ele>
        <time>2022-08-19T05:52:05Z</time>
      </trkpt>
      <trkpt lat="42.488832" lon="-6.374424">
        <ele>1481.1</ele>
        <time>2022-08-19T05:52:21Z</time>
      </trkpt>
      <trkpt lat="42.488738" lon="-6.374646">
        <ele>1478.1</ele>
        <time>2022-08-19T05:52:35Z</time>
      </trkpt>
      <trkpt lat="42.488649" lon="-6.374861">
        <ele>1476.2</ele>
        <time>2022-08-19T05:52:49Z</time>
      </trkpt>
      <trkpt lat="42.488553" lon="-6.375074">
        <ele>1472.4</ele>
        <time>2022-08-19T05:53:02Z</time>
      </trkpt>
      <trkpt lat="42.488476" lon="-6.375298">
        <ele>1471.2</ele>
        <time>2022-08-19T05:53:16Z</time>
      </trkpt>
      <trkpt lat="42.488399" lon="-6.375540">
        <ele>1472.1</ele>
        <time>2022-08-19T05:53:31Z</time>
      </trkpt>
      <trkpt lat="42.488370" lon="-6.375792">
        <ele>1471.1</ele>
        <time>2022-08-19T05:53:45Z</time>
      </trkpt>
      <trkpt lat="42.488397" lon="-6.376034">
        <ele>1468.1</ele>
        <time>2022-08-19T05:53:58Z</time>
      </trkpt>
      <trkpt lat="42.488397" lon="-6.376282">
        <ele>1466.1</ele>
        <time>2022-08-19T05:54:11Z</time>
      </trkpt>
      <trkpt lat="42.488422" lon="-6.376541">
        <ele>1464.4</ele>
        <time>2022-08-19T05:54:28Z</time>
      </trkpt>
      <trkpt lat="42.488428" lon="-6.376790">
        <ele>1462.1</ele>
        <time>2022-08-19T05:54:42Z</time>
      </trkpt>
      <trkpt lat="42.488426" lon="-6.377040">
        <ele>1462.0</ele>
        <time>2022-08-19T05:54:55Z</time>
      </trkpt>
      <trkpt lat="42.488440" lon="-6.377295">
        <ele>1460.4</ele>
        <time>2022-08-19T05:55:10Z</time>
      </trkpt>
      <trkpt lat="42.488478" lon="-6.377544">
        <ele>1460.0</ele>
        <time>2022-08-19T05:55:30Z</time>
      </trkpt>
      <trkpt lat="42.488494" lon="-6.377794">
        <ele>1462.1</ele>
        <time>2022-08-19T05:55:45Z</time>
      </trkpt>
      <trkpt lat="42.488466" lon="-6.378043">
        <ele>1462.1</ele>
        <time>2022-08-19T05:56:06Z</time>
      </trkpt>
      <trkpt lat="42.488411" lon="-6.378285">
        <ele>1459.9</ele>
        <time>2022-08-19T05:56:20Z</time>
      </trkpt>
      <trkpt lat="42.488356" lon="-6.378521">
        <ele>1462.1</ele>
        <time>2022-08-19T05:56:35Z</time>
      </trkpt>
      <trkpt lat="42.488242" lon="-6.378719">
        <ele>1461.3</ele>
        <time>2022-08-19T05:56:47Z</time>
      </trkpt>
      <trkpt lat="42.488159" lon="-6.378951">
        <ele>1462.1</ele>
        <time>2022-08-19T05:57:00Z</time>
      </trkpt>
      <trkpt lat="42.488061" lon="-6.379162">
        <ele>1459.4</ele>
        <time>2022-08-19T05:57:13Z</time>
      </trkpt>
      <trkpt lat="42.487962" lon="-6.379374">
        <ele>1458.2</ele>
        <time>2022-08-19T05:57:26Z</time>
      </trkpt>
      <trkpt lat="42.487868" lon="-6.379596">
        <ele>1453.2</ele>
        <time>2022-08-19T05:57:40Z</time>
      </trkpt>
      <trkpt lat="42.487781" lon="-6.379828">
        <ele>1449.1</ele>
        <time>2022-08-19T05:57:55Z</time>
      </trkpt>
      <trkpt lat="42.487693" lon="-6.380045">
        <ele>1448.4</ele>
        <time>2022-08-19T05:58:08Z</time>
      </trkpt>
      <trkpt lat="42.487608" lon="-6.380282">
        <ele>1449.2</ele>
        <time>2022-08-19T05:58:22Z</time>
      </trkpt>
      <trkpt lat="42.487570" lon="-6.380538">
        <ele>1448.1</ele>
        <time>2022-08-19T05:58:37Z</time>
      </trkpt>
      <trkpt lat="42.487558" lon="-6.380795">
        <ele>1449.8</ele>
        <time>2022-08-19T05:58:48Z</time>
      </trkpt>
      <trkpt lat="42.487565" lon="-6.381048">
        <ele>1454.0</ele>
        <time>2022-08-19T05:58:58Z</time>
      </trkpt>
      <trkpt lat="42.487594" lon="-6.381292">
        <ele>1462.9</ele>
        <time>2022-08-19T05:59:23Z</time>
      </trkpt>
      <trkpt lat="42.487693" lon="-6.381508">
        <ele>1458.2</ele>
        <time>2022-08-19T05:59:36Z</time>
      </trkpt>
      <trkpt lat="42.487778" lon="-6.381734">
        <ele>1457.1</ele>
        <time>2022-08-19T05:59:50Z</time>
      </trkpt>
      <trkpt lat="42.487842" lon="-6.381964">
        <ele>1456.1</ele>
        <time>2022-08-19T06:00:04Z</time>
      </trkpt>
      <trkpt lat="42.487893" lon="-6.382211">
        <ele>1454.2</ele>
        <time>2022-08-19T06:00:19Z</time>
      </trkpt>
      <trkpt lat="42.487957" lon="-6.382454">
        <ele>1454.1</ele>
        <time>2022-08-19T06:00:32Z</time>
      </trkpt>
      <trkpt lat="42.488064" lon="-6.382673">
        <ele>1458.1</ele>
        <time>2022-08-19T06:00:56Z</time>
      </trkpt>
      <trkpt lat="42.488084" lon="-6.382924">
        <ele>1459.1</ele>
        <time>2022-08-19T06:01:09Z</time>
      </trkpt>
      <trkpt lat="42.488112" lon="-6.383173">
        <ele>1458.1</ele>
        <time>2022-08-19T06:01:23Z</time>
      </trkpt>
      <trkpt lat="42.488156" lon="-6.383420">
        <ele>1458.1</ele>
        <time>2022-08-19T06:01:37Z</time>
      </trkpt>
      <trkpt lat="42.488191" lon="-6.383674">
        <ele>1455.2</ele>
        <time>2022-08-19T06:01:51Z</time>
      </trkpt>
      <trkpt lat="42.488221" lon="-6.383918">
        <ele>1452.4</ele>
        <time>2022-08-19T06:02:06Z</time>
      </trkpt>
      <trkpt lat="42.488265" lon="-6.384168">
        <ele>1450.2</ele>
        <time>2022-08-19T06:02:20Z</time>
      </trkpt>
      <trkpt lat="42.488365" lon="-6.384379">
        <ele>1449.1</ele>
        <time>2022-08-19T06:02:35Z</time>
      </trkpt>
      <trkpt lat="42.488539" lon="-6.384459">
        <ele>1446.1</ele>
        <time>2022-08-19T06:02:51Z</time>
      </trkpt>
      <trkpt lat="42.488678" lon="-6.384639">
        <ele>1446.0</ele>
        <time>2022-08-19T06:03:07Z</time>
      </trkpt>
      <trkpt lat="42.488834" lon="-6.384782">
        <ele>1446.0</ele>
        <time>2022-08-19T06:03:18Z</time>
      </trkpt>
      <trkpt lat="42.488996" lon="-6.384892">
        <ele>1446.0</ele>
        <time>2022-08-19T06:03:33Z</time>
      </trkpt>
      <trkpt lat="42.489167" lon="-6.384975">
        <ele>1446.0</ele>
        <time>2022-08-19T06:03:58Z</time>
      </trkpt>
      <trkpt lat="42.489316" lon="-6.385126">
        <ele>1446.0</ele>
        <time>2022-08-19T06:04:12Z</time>
      </trkpt>
      <trkpt lat="42.489391" lon="-6.385365">
        <ele>1446.0</ele>
        <time>2022-08-19T06:04:27Z</time>
      </trkpt>
      <trkpt lat="42.489434" lon="-6.385607">
        <ele>1446.0</ele>
        <time>2022-08-19T06:04:43Z</time>
      </trkpt>
      <trkpt lat="42.489543" lon="-6.385836">
        <ele>1446.0</ele>
        <time>2022-08-19T06:04:57Z</time>
      </trkpt>
      <trkpt lat="42.489669" lon="-6.386033">
        <ele>1446.0</ele>
        <time>2022-08-19T06:05:11Z</time>
      </trkpt>
      <trkpt lat="42.489768" lon="-6.386251">
        <ele>1446.0</ele>
        <time>2022-08-19T06:05:24Z</time>
      </trkpt>
      <trkpt lat="42.489901" lon="-6.386437">
        <ele>1446.0</ele>
        <time>2022-08-19T06:05:39Z</time>
      </trkpt>
      <trkpt lat="42.490049" lon="-6.386585">
        <ele>1436.1</ele>
        <time>2022-08-19T06:05:51Z</time>
      </trkpt>
      <trkpt lat="42.490204" lon="-6.386725">
        <ele>1437.4</ele>
        <time>2022-08-19T06:06:15Z</time>
      </trkpt>
      <trkpt lat="42.490292" lon="-6.386941">
        <ele>1436.1</ele>
        <time>2022-08-19T06:06:44Z</time>
      </trkpt>
      <trkpt lat="42.490335" lon="-6.387192">
        <ele>1433.1</ele>
        <time>2022-08-19T06:07:01Z</time>
      </trkpt>
      <trkpt lat="42.490427" lon="-6.387418">
        <ele>1433.4</ele>
        <time>2022-08-19T06:07:17Z</time>
      </trkpt>
      <trkpt lat="42.490512" lon="-6.387651">
        <ele>1429.2</ele>
        <time>2022-08-19T06:07:36Z</time>
      </trkpt>
      <trkpt lat="42.490487" lon="-6.387897">
        <ele>1429.4</ele>
        <time>2022-08-19T06:07:50Z</time>
      </trkpt>
      <trkpt lat="42.490448" lon="-6.388145">
        <ele>1427.4</ele>
        <time>2022-08-19T06:08:05Z</time>
      </trkpt>
      <trkpt lat="42.490405" lon="-6.388383">
        <ele>1426.8</ele>
        <time>2022-08-19T06:08:18Z</time>
      </trkpt>
      <trkpt lat="42.490380" lon="-6.388626">
        <ele>1427.1</ele>
        <time>2022-08-19T06:08:30Z</time>
      </trkpt>
      <trkpt lat="42.490322" lon="-6.388863">
        <ele>1427.4</ele>
        <time>2022-08-19T06:08:43Z</time>
      </trkpt>
      <trkpt lat="42.490204" lon="-6.389056">
        <ele>1429.0</ele>
        <time>2022-08-19T06:08:57Z</time>
      </trkpt>
      <trkpt lat="42.490104" lon="-6.389268">
        <ele>1429.1</ele>
        <time>2022-08-19T06:09:09Z</time>
      </trkpt>
      <trkpt lat="42.490076" lon="-6.389528">
        <ele>1430.2</ele>
        <time>2022-08-19T06:09:23Z</time>
      </trkpt>
      <trkpt lat="42.490075" lon="-6.389772">
        <ele>1430.0</ele>
        <time>2022-08-19T06:09:38Z</time>
      </trkpt>
      <trkpt lat="42.490069" lon="-6.390030">
        <ele>1431.9</ele>
        <time>2022-08-19T06:09:52Z</time>
      </trkpt>
      <trkpt lat="42.490057" lon="-6.390274">
        <ele>1432.1</ele>
        <time>2022-08-19T06:10:05Z</time>
      </trkpt>
      <trkpt lat="42.490065" lon="-6.390528">
        <ele>1432.4</ele>
        <time>2022-08-19T06:10:19Z</time>
      </trkpt>
      <trkpt lat="42.490044" lon="-6.390778">
        <ele>1431.4</ele>
        <time>2022-08-19T06:10:33Z</time>
      </trkpt>
      <trkpt lat="42.489986" lon="-6.391011">
        <ele>1432.1</ele>
        <time>2022-08-19T06:10:47Z</time>
      </trkpt>
      <trkpt lat="42.489962" lon="-6.391263">
        <ele>1434.1</ele>
        <time>2022-08-19T06:11:00Z</time>
      </trkpt>
      <trkpt lat="42.490021" lon="-6.391508">
        <ele>1434.1</ele>
        <time>2022-08-19T06:11:14Z</time>
      </trkpt>
      <trkpt lat="42.490067" lon="-6.391753">
        <ele>1433.8</ele>
        <time>2022-08-19T06:11:33Z</time>
      </trkpt>
      <trkpt lat="42.490174" lon="-6.391952">
        <ele>1434.8</ele>
        <time>2022-08-19T06:11:46Z</time>
      </trkpt>
      <trkpt lat="42.490322" lon="-6.392096">
        <ele>1434.1</ele>
        <time>2022-08-19T06:12:00Z</time>
      </trkpt>
      <trkpt lat="42.490475" lon="-6.392254">
        <ele>1433.1</ele>
        <time>2022-08-19T06:12:15Z</time>
      </trkpt>
      <trkpt lat="42.490614" lon="-6.392426">
        <ele>1433.1</ele>
        <time>2022-08-19T06:12:28Z</time>
      </trkpt>
      <trkpt lat="42.490753" lon="-6.392584">
        <ele>1432.4</ele>
        <time>2022-08-19T06:12:43Z</time>
      </trkpt>
      <trkpt lat="42.490900" lon="-6.392737">
        <ele>1429.1</ele>
        <time>2022-08-19T06:12:57Z</time>
      </trkpt>
      <trkpt lat="42.491031" lon="-6.392903">
        <ele>1428.1</ele>
        <time>2022-08-19T06:13:13Z</time>
      </trkpt>
      <trkpt lat="42.491112" lon="-6.393133">
        <ele>1426.8</ele>
        <time>2022-08-19T06:13:27Z</time>
      </trkpt>
      <trkpt lat="42.491202" lon="-6.393346">
        <ele>1434.9</ele>
        <time>2022-08-19T06:14:27Z</time>
      </trkpt>
      <trkpt lat="42.491151" lon="-6.393583">
        <ele>1439.0</ele>
        <time>2022-08-19T06:15:16Z</time>
      </trkpt>
      <trkpt lat="42.491010" lon="-6.393747">
        <ele>1435.4</ele>
        <time>2022-08-19T06:15:30Z</time>
      </trkpt>
      <trkpt lat="42.490889" lon="-6.393952">
        <ele>1431.2</ele>
        <time>2022-08-19T06:15:43Z</time>
      </trkpt>
      <trkpt lat="42.490794" lon="-6.394180">
        <ele>1429.4</ele>
        <time>2022-08-19T06:15:56Z</time>
      </trkpt>
      <trkpt lat="42.490747" lon="-6.394426">
        <ele>1426.1</ele>
        <time>2022-08-19T06:16:10Z</time>
      </trkpt>
      <trkpt lat="42.490763" lon="-6.394676">
        <ele>1426.0</ele>
        <time>2022-08-19T06:16:23Z</time>
      </trkpt>
      <trkpt lat="42.490782" lon="-6.394936">
        <ele>1426.2</ele>
        <time>2022-08-19T06:16:37Z</time>
      </trkpt>
      <trkpt lat="42.490806" lon="-6.395187">
        <ele>1427.9</ele>
        <time>2022-08-19T06:16:51Z</time>
      </trkpt>
      <trkpt lat="42.490847" lon="-6.395431">
        <ele>1430.0</ele>
        <time>2022-08-19T06:17:05Z</time>
      </trkpt>
      <trkpt lat="42.490903" lon="-6.395668">
        <ele>1431.0</ele>
        <time>2022-08-19T06:17:19Z</time>
      </trkpt>
      <trkpt lat="42.490957" lon="-6.395917">
        <ele>1432.1</ele>
        <time>2022-08-19T06:17:33Z</time>
      </trkpt>
      <trkpt lat="42.491025" lon="-6.396149">
        <ele>1434.1</ele>
        <time>2022-08-19T06:17:48Z</time>
      </trkpt>
      <trkpt lat="42.491090" lon="-6.396391">
        <ele>1435.1</ele>
        <time>2022-08-19T06:18:03Z</time>
      </trkpt>
      <trkpt lat="42.491148" lon="-6.396637">
        <ele>1431.1</ele>
        <time>2022-08-19T06:18:17Z</time>
      </trkpt>
      <trkpt lat="42.491198" lon="-6.396882">
        <ele>1431.1</ele>
        <time>2022-08-19T06:18:30Z</time>
      </trkpt>
      <trkpt lat="42.491266" lon="-6.397112">
        <ele>1431.1</ele>
        <time>2022-08-19T06:18:44Z</time>
      </trkpt>
      <trkpt lat="42.491374" lon="-6.397324">
        <ele>1431.8</ele>
        <time>2022-08-19T06:18:59Z</time>
      </trkpt>
      <trkpt lat="42.491493" lon="-6.397517">
        <ele>1431.1</ele>
        <time>2022-08-19T06:19:14Z</time>
      </trkpt>
      <trkpt lat="42.491625" lon="-6.397706">
        <ele>1433.1</ele>
        <time>2022-08-19T06:19:29Z</time>
      </trkpt>
      <trkpt lat="42.491757" lon="-6.397900">
        <ele>1432.1</ele>
        <time>2022-08-19T06:19:44Z</time>
      </trkpt>
      <trkpt lat="42.491899" lon="-6.398058">
        <ele>1433.1</ele>
        <time>2022-08-19T06:19:59Z</time>
      </trkpt>
      <trkpt lat="42.492019" lon="-6.398242">
        <ele>1435.0</ele>
        <time>2022-08-19T06:20:18Z</time>
      </trkpt>
      <trkpt lat="42.491983" lon="-6.398496">
        <ele>1439.1</ele>
        <time>2022-08-19T06:20:38Z</time>
      </trkpt>
      <trkpt lat="42.491909" lon="-6.398728">
        <ele>1440.1</ele>
        <time>2022-08-19T06:20:52Z</time>
      </trkpt>
      <trkpt lat="42.491882" lon="-6.398980">
        <ele>1441.0</ele>
        <time>2022-08-19T06:21:04Z</time>
      </trkpt>
      <trkpt lat="42.491816" lon="-6.399215">
        <ele>1443.1</ele>
        <time>2022-08-19T06:21:22Z</time>
      </trkpt>
      <trkpt lat="42.491725" lon="-6.399439">
        <ele>1443.1</ele>
        <time>2022-08-19T06:21:36Z</time>
      </trkpt>
      <trkpt lat="42.491684" lon="-6.399689">
        <ele>1442.4</ele>
        <time>2022-08-19T06:21:50Z</time>
      </trkpt>
      <trkpt lat="42.491722" lon="-6.399941">
        <ele>1441.1</ele>
        <time>2022-08-19T06:22:04Z</time>
      </trkpt>
      <trkpt lat="42.491789" lon="-6.400188">
        <ele>1442.1</ele>
        <time>2022-08-19T06:22:18Z</time>
      </trkpt>
      <trkpt lat="42.491840" lon="-6.400434">
        <ele>1440.1</ele>
        <time>2022-08-19T06:22:35Z</time>
      </trkpt>
      <trkpt lat="42.491936" lon="-6.400661">
        <ele>1440.1</ele>
        <time>2022-08-19T06:22:49Z</time>
      </trkpt>
      <trkpt lat="42.492005" lon="-6.400897">
        <ele>1442.8</ele>
        <time>2022-08-19T06:23:02Z</time>
      </trkpt>
      <trkpt lat="42.492059" lon="-6.401141">
        <ele>1444.1</ele>
        <time>2022-08-19T06:23:18Z</time>
      </trkpt>
      <trkpt lat="42.492141" lon="-6.401365">
        <ele>1447.0</ele>
        <time>2022-08-19T06:23:32Z</time>
      </trkpt>
      <trkpt lat="42.492187" lon="-6.401608">
        <ele>1446.1</ele>
        <time>2022-08-19T06:23:45Z</time>
      </trkpt>
      <trkpt lat="42.492241" lon="-6.401857">
        <ele>1445.1</ele>
        <time>2022-08-19T06:24:01Z</time>
      </trkpt>
      <trkpt lat="42.492279" lon="-6.402099">
        <ele>1444.1</ele>
        <time>2022-08-19T06:24:16Z</time>
      </trkpt>
      <trkpt lat="42.492370" lon="-6.402322">
        <ele>1442.4</ele>
        <time>2022-08-19T06:24:29Z</time>
      </trkpt>
      <trkpt lat="42.492421" lon="-6.402569">
        <ele>1443.1</ele>
        <time>2022-08-19T06:24:46Z</time>
      </trkpt>
      <trkpt lat="42.492472" lon="-6.402821">
        <ele>1442.8</ele>
        <time>2022-08-19T06:25:00Z</time>
      </trkpt>
      <trkpt lat="42.492481" lon="-6.403078">
        <ele>1444.3</ele>
        <time>2022-08-19T06:25:14Z</time>
      </trkpt>
      <trkpt lat="42.492415" lon="-6.403322">
        <ele>1447.9</ele>
        <time>2022-08-19T06:25:30Z</time>
      </trkpt>
      <trkpt lat="42.492449" lon="-6.403564">
        <ele>1449.8</ele>
        <time>2022-08-19T06:25:44Z</time>
      </trkpt>
      <trkpt lat="42.492485" lon="-6.403806">
        <ele>1451.1</ele>
        <time>2022-08-19T06:25:57Z</time>
      </trkpt>
      <trkpt lat="42.492592" lon="-6.404015">
        <ele>1453.0</ele>
        <time>2022-08-19T06:26:31Z</time>
      </trkpt>
      <trkpt lat="42.492583" lon="-6.404266">
        <ele>1451.4</ele>
        <time>2022-08-19T06:26:49Z</time>
      </trkpt>
      <trkpt lat="42.492545" lon="-6.404515">
        <ele>1453.0</ele>
        <time>2022-08-19T06:27:03Z</time>
      </trkpt>
      <trkpt lat="42.492482" lon="-6.404756">
        <ele>1455.7</ele>
        <time>2022-08-19T06:27:17Z</time>
      </trkpt>
      <trkpt lat="42.492443" lon="-6.404995">
        <ele>1459.1</ele>
        <time>2022-08-19T06:27:32Z</time>
      </trkpt>
      <trkpt lat="42.492317" lon="-6.405175">
        <ele>1462.0</ele>
        <time>2022-08-19T06:27:47Z</time>
      </trkpt>
      <trkpt lat="42.492194" lon="-6.405373">
        <ele>1461.1</ele>
        <time>2022-08-19T06:28:03Z</time>
      </trkpt>
      <trkpt lat="42.492045" lon="-6.405523">
        <ele>1463.8</ele>
        <time>2022-08-19T06:28:18Z</time>
      </trkpt>
      <trkpt lat="42.491880" lon="-6.405620">
        <ele>1465.1</ele>
        <time>2022-08-19T06:28:37Z</time>
      </trkpt>
      <trkpt lat="42.491709" lon="-6.405721">
        <ele>1465.0</ele>
        <time>2022-08-19T06:28:54Z</time>
      </trkpt>
      <trkpt lat="42.491526" lon="-6.405783">
        <ele>1468.1</ele>
        <time>2022-08-19T06:29:08Z</time>
      </trkpt>
      <trkpt lat="42.491349" lon="-6.405850">
        <ele>1471.0</ele>
        <time>2022-08-19T06:29:22Z</time>
      </trkpt>
      <trkpt lat="42.491166" lon="-6.405882">
        <ele>1475.8</ele>
        <time>2022-08-19T06:29:41Z</time>
      </trkpt>
      <trkpt lat="42.490981" lon="-6.405910">
        <ele>1475.4</ele>
        <time>2022-08-19T06:29:55Z</time>
      </trkpt>
      <trkpt lat="42.490798" lon="-6.405970">
        <ele>1475.8</ele>
        <time>2022-08-19T06:30:08Z</time>
      </trkpt>
      <trkpt lat="42.490631" lon="-6.406088">
        <ele>1477.2</ele>
        <time>2022-08-19T06:30:24Z</time>
      </trkpt>
      <trkpt lat="42.490452" lon="-6.406138">
        <ele>1481.8</ele>
        <time>2022-08-19T06:30:39Z</time>
      </trkpt>
      <trkpt lat="42.490274" lon="-6.406226">
        <ele>1482.1</ele>
        <time>2022-08-19T06:30:56Z</time>
      </trkpt>
      <trkpt lat="42.490092" lon="-6.406257">
        <ele>1484.8</ele>
        <time>2022-08-19T06:31:13Z</time>
      </trkpt>
      <trkpt lat="42.489919" lon="-6.406329">
        <ele>1483.8</ele>
        <time>2022-08-19T06:31:28Z</time>
      </trkpt>
      <trkpt lat="42.489770" lon="-6.406479">
        <ele>1484.1</ele>
        <time>2022-08-19T06:31:44Z</time>
      </trkpt>
      <trkpt lat="42.489649" lon="-6.406677">
        <ele>1485.0</ele>
        <time>2022-08-19T06:31:58Z</time>
      </trkpt>
      <trkpt lat="42.489597" lon="-6.406926">
        <ele>1489.0</ele>
        <time>2022-08-19T06:32:13Z</time>
      </trkpt>
      <trkpt lat="42.489593" lon="-6.407185">
        <ele>1491.1</ele>
        <time>2022-08-19T06:32:29Z</time>
      </trkpt>
      <trkpt lat="42.489664" lon="-6.407412">
        <ele>1477.3</ele>
        <time>2022-08-19T06:32:43Z</time>
      </trkpt>
      <trkpt lat="42.489729" lon="-6.407612">
        <ele>1481.5</ele>
        <time>2022-08-19T06:32:57Z</time>
      </trkpt>
      <trkpt lat="42.489793" lon="-6.407847">
        <ele>1483.1</ele>
        <time>2022-08-19T06:33:09Z</time>
      </trkpt>
      <trkpt lat="42.489900" lon="-6.408051">
        <ele>1484.1</ele>
        <time>2022-08-19T06:33:21Z</time>
      </trkpt>
      <trkpt lat="42.490013" lon="-6.408247">
        <ele>1487.0</ele>
        <time>2022-08-19T06:33:35Z</time>
      </trkpt>
      <trkpt lat="42.490078" lon="-6.408485">
        <ele>1489.1</ele>
        <time>2022-08-19T06:33:50Z</time>
      </trkpt>
      <trkpt lat="42.490158" lon="-6.408713">
        <ele>1489.1</ele>
        <time>2022-08-19T06:34:03Z</time>
      </trkpt>
      <trkpt lat="42.490240" lon="-6.408934">
        <ele>1490.0</ele>
        <time>2022-08-19T06:34:19Z</time>
      </trkpt>
      <trkpt lat="42.490322" lon="-6.409160">
        <ele>1490.1</ele>
        <time>2022-08-19T06:34:33Z</time>
      </trkpt>
      <trkpt lat="42.490429" lon="-6.409382">
        <ele>1495.8</ele>
        <time>2022-08-19T06:34:46Z</time>
      </trkpt>
      <trkpt lat="42.490442" lon="-6.409641">
        <ele>1495.1</ele>
        <time>2022-08-19T06:35:00Z</time>
      </trkpt>
      <trkpt lat="42.490470" lon="-6.409889">
        <ele>1495.1</ele>
        <time>2022-08-19T06:35:10Z</time>
      </trkpt>
      <trkpt lat="42.490518" lon="-6.410130">
        <ele>1494.1</ele>
        <time>2022-08-19T06:35:25Z</time>
      </trkpt>
      <trkpt lat="42.490505" lon="-6.410378">
        <ele>1494.1</ele>
        <time>2022-08-19T06:35:37Z</time>
      </trkpt>
      <trkpt lat="42.490547" lon="-6.410615">
        <ele>1493.1</ele>
        <time>2022-08-19T06:35:52Z</time>
      </trkpt>
      <trkpt lat="42.490568" lon="-6.410873">
        <ele>1494.1</ele>
        <time>2022-08-19T06:36:07Z</time>
      </trkpt>
      <trkpt lat="42.490583" lon="-6.411137">
        <ele>1495.1</ele>
        <time>2022-08-19T06:36:19Z</time>
      </trkpt>
      <trkpt lat="42.490531" lon="-6.411381">
        <ele>1496.1</ele>
        <time>2022-08-19T06:36:35Z</time>
      </trkpt>
      <trkpt lat="42.490468" lon="-6.411613">
        <ele>1495.0</ele>
        <time>2022-08-19T06:36:54Z</time>
      </trkpt>
      <trkpt lat="42.490398" lon="-6.411854">
        <ele>1495.0</ele>
        <time>2022-08-19T06:37:07Z</time>
      </trkpt>
      <trkpt lat="42.490325" lon="-6.412081">
        <ele>1495.1</ele>
        <time>2022-08-19T06:37:20Z</time>
      </trkpt>
      <trkpt lat="42.490213" lon="-6.412273">
        <ele>1495.1</ele>
        <time>2022-08-19T06:37:33Z</time>
      </trkpt>
      <trkpt lat="42.490097" lon="-6.412463">
        <ele>1497.1</ele>
        <time>2022-08-19T06:37:45Z</time>
      </trkpt>
      <trkpt lat="42.489964" lon="-6.412639">
        <ele>1496.1</ele>
        <time>2022-08-19T06:37:59Z</time>
      </trkpt>
      <trkpt lat="42.489835" lon="-6.412822">
        <ele>1496.1</ele>
        <time>2022-08-19T06:38:15Z</time>
      </trkpt>
      <trkpt lat="42.489707" lon="-6.412996">
        <ele>1498.1</ele>
        <time>2022-08-19T06:38:31Z</time>
      </trkpt>
      <trkpt lat="42.489628" lon="-6.413234">
        <ele>1498.1</ele>
        <time>2022-08-19T06:38:49Z</time>
      </trkpt>
      <trkpt lat="42.489600" lon="-6.413487">
        <ele>1498.1</ele>
        <time>2022-08-19T06:39:01Z</time>
      </trkpt>
      <trkpt lat="42.489578" lon="-6.413732">
        <ele>1498.3</ele>
        <time>2022-08-19T06:39:14Z</time>
      </trkpt>
      <trkpt lat="42.489595" lon="-6.413983">
        <ele>1498.1</ele>
        <time>2022-08-19T06:39:27Z</time>
      </trkpt>
      <trkpt lat="42.489593" lon="-6.414235">
        <ele>1496.1</ele>
        <time>2022-08-19T06:39:44Z</time>
      </trkpt>
      <trkpt lat="42.489588" lon="-6.414487">
        <ele>1496.1</ele>
        <time>2022-08-19T06:40:46Z</time>
      </trkpt>
      <trkpt lat="42.489592" lon="-6.414750">
        <ele>1496.0</ele>
        <time>2022-08-19T06:40:57Z</time>
      </trkpt>
      <trkpt lat="42.489632" lon="-6.414994">
        <ele>1496.1</ele>
        <time>2022-08-19T06:41:10Z</time>
      </trkpt>
      <trkpt lat="42.489654" lon="-6.415244">
        <ele>1496.1</ele>
        <time>2022-08-19T06:41:24Z</time>
      </trkpt>
      <trkpt lat="42.489639" lon="-6.415489">
        <ele>1497.1</ele>
        <time>2022-08-19T06:41:39Z</time>
      </trkpt>
      <trkpt lat="42.489622" lon="-6.415742">
        <ele>1497.0</ele>
        <time>2022-08-19T06:41:52Z</time>
      </trkpt>
      <trkpt lat="42.489573" lon="-6.415981">
        <ele>1498.0</ele>
        <time>2022-08-19T06:42:05Z</time>
      </trkpt>
      <trkpt lat="42.489540" lon="-6.416223">
        <ele>1496.1</ele>
        <time>2022-08-19T06:42:19Z</time>
      </trkpt>
      <trkpt lat="42.489527" lon="-6.416477">
        <ele>1496.1</ele>
        <time>2022-08-19T06:42:33Z</time>
      </trkpt>
      <trkpt lat="42.489552" lon="-6.416732">
        <ele>1495.8</ele>
        <time>2022-08-19T06:42:46Z</time>
      </trkpt>
      <trkpt lat="42.489536" lon="-6.416986">
        <ele>1495.7</ele>
        <time>2022-08-19T06:43:00Z</time>
      </trkpt>
      <trkpt lat="42.489537" lon="-6.417233">
        <ele>1496.1</ele>
        <time>2022-08-19T06:43:12Z</time>
      </trkpt>
      <trkpt lat="42.489530" lon="-6.417484">
        <ele>1497.1</ele>
        <time>2022-08-19T06:43:25Z</time>
      </trkpt>
      <trkpt lat="42.489513" lon="-6.417733">
        <ele>1496.1</ele>
        <time>2022-08-19T06:43:41Z</time>
      </trkpt>
      <trkpt lat="42.489459" lon="-6.417976">
        <ele>1495.1</ele>
        <time>2022-08-19T06:43:59Z</time>
      </trkpt>
      <trkpt lat="42.489440" lon="-6.418224">
        <ele>1495.1</ele>
        <time>2022-08-19T06:44:14Z</time>
      </trkpt>
      <trkpt lat="42.489309" lon="-6.418397">
        <ele>1497.1</ele>
        <time>2022-08-19T06:44:28Z</time>
      </trkpt>
      <trkpt lat="42.489150" lon="-6.418529">
        <ele>1499.0</ele>
        <time>2022-08-19T06:44:43Z</time>
      </trkpt>
      <trkpt lat="42.488985" lon="-6.418634">
        <ele>1503.0</ele>
        <time>2022-08-19T06:44:57Z</time>
      </trkpt>
      <trkpt lat="42.488845" lon="-6.418798">
        <ele>1505.0</ele>
        <time>2022-08-19T06:45:12Z</time>
      </trkpt>
      <trkpt lat="42.488701" lon="-6.418952">
        <ele>1504.1</ele>
        <time>2022-08-19T06:45:24Z</time>
      </trkpt>
      <trkpt lat="42.488566" lon="-6.419120">
        <ele>1506.0</ele>
        <time>2022-08-19T06:45:37Z</time>
      </trkpt>
      <trkpt lat="42.488504" lon="-6.419357">
        <ele>1506.1</ele>
        <time>2022-08-19T06:46:01Z</time>
      </trkpt>
      <trkpt lat="42.488458" lon="-6.419614">
        <ele>1506.1</ele>
        <time>2022-08-19T06:46:17Z</time>
      </trkpt>
      <trkpt lat="42.488414" lon="-6.419856">
        <ele>1506.0</ele>
        <time>2022-08-19T06:46:30Z</time>
      </trkpt>
      <trkpt lat="42.488336" lon="-6.420094">
        <ele>1506.1</ele>
        <time>2022-08-19T06:46:43Z</time>
      </trkpt>
      <trkpt lat="42.488312" lon="-6.420342">
        <ele>1507.0</ele>
        <time>2022-08-19T06:46:57Z</time>
      </trkpt>
      <trkpt lat="42.488309" lon="-6.420586">
        <ele>1504.3</ele>
        <time>2022-08-19T06:47:18Z</time>
      </trkpt>
      <trkpt lat="42.488347" lon="-6.420843">
        <ele>1503.0</ele>
        <time>2022-08-19T06:47:31Z</time>
      </trkpt>
      <trkpt lat="42.488430" lon="-6.421065">
        <ele>1502.4</ele>
        <time>2022-08-19T06:47:45Z</time>
      </trkpt>
      <trkpt lat="42.488490" lon="-6.421300">
        <ele>1501.0</ele>
        <time>2022-08-19T06:47:58Z</time>
      </trkpt>
      <trkpt lat="42.488555" lon="-6.421531">
        <ele>1499.0</ele>
        <time>2022-08-19T06:48:10Z</time>
      </trkpt>
      <trkpt lat="42.488595" lon="-6.421771">
        <ele>1498.0</ele>
        <time>2022-08-19T06:48:24Z</time>
      </trkpt>
      <trkpt lat="42.488620" lon="-6.422015">
        <ele>1494.1</ele>
        <time>2022-08-19T06:48:43Z</time>
      </trkpt>
      <trkpt lat="42.488682" lon="-6.422256">
        <ele>1491.7</ele>
        <time>2022-08-19T06:48:56Z</time>
      </trkpt>
      <trkpt lat="42.488754" lon="-6.422496">
        <ele>1490.3</ele>
        <time>2022-08-19T06:49:10Z</time>
      </trkpt>
      <trkpt lat="42.488839" lon="-6.422718">
        <ele>1491.0</ele>
        <time>2022-08-19T06:49:26Z</time>
      </trkpt>
      <trkpt lat="42.488907" lon="-6.422957">
        <ele>1489.0</ele>
        <time>2022-08-19T06:49:38Z</time>
      </trkpt>
      <trkpt lat="42.488930" lon="-6.423209">
        <ele>1489.0</ele>
        <time>2022-08-19T06:49:53Z</time>
      </trkpt>
      <trkpt lat="42.488883" lon="-6.423459">
        <ele>1488.0</ele>
        <time>2022-08-19T06:50:08Z</time>
      </trkpt>
      <trkpt lat="42.488842" lon="-6.423713">
        <ele>1487.0</ele>
        <time>2022-08-19T06:50:23Z</time>
      </trkpt>
      <trkpt lat="42.488802" lon="-6.423960">
        <ele>1486.0</ele>
        <time>2022-08-19T06:50:38Z</time>
      </trkpt>
      <trkpt lat="42.488843" lon="-6.424201">
        <ele>1485.0</ele>
        <time>2022-08-19T06:50:53Z</time>
      </trkpt>
      <trkpt lat="42.488890" lon="-6.424445">
        <ele>1481.0</ele>
        <time>2022-08-19T06:51:10Z</time>
      </trkpt>
      <trkpt lat="42.488990" lon="-6.424667">
        <ele>1480.0</ele>
        <time>2022-08-19T06:51:27Z</time>
      </trkpt>
      <trkpt lat="42.489100" lon="-6.424878">
        <ele>1478.1</ele>
        <time>2022-08-19T06:51:40Z</time>
      </trkpt>
      <trkpt lat="42.489138" lon="-6.425129">
        <ele>1476.0</ele>
        <time>2022-08-19T06:51:54Z</time>
      </trkpt>
      <trkpt lat="42.489199" lon="-6.425362">
        <ele>1475.3</ele>
        <time>2022-08-19T06:52:07Z</time>
      </trkpt>
      <trkpt lat="42.489270" lon="-6.425594">
        <ele>1477.0</ele>
        <time>2022-08-19T06:52:21Z</time>
      </trkpt>
      <trkpt lat="42.489353" lon="-6.425834">
        <ele>1476.3</ele>
        <time>2022-08-19T06:52:35Z</time>
      </trkpt>
      <trkpt lat="42.489433" lon="-6.426065">
        <ele>1475.0</ele>
        <time>2022-08-19T06:52:49Z</time>
      </trkpt>
      <trkpt lat="42.489514" lon="-6.426300">
        <ele>1469.0</ele>
        <time>2022-08-19T06:53:10Z</time>
      </trkpt>
      <trkpt lat="42.489578" lon="-6.426527">
        <ele>1465.0</ele>
        <time>2022-08-19T06:53:27Z</time>
      </trkpt>
      <trkpt lat="42.489659" lon="-6.426745">
        <ele>1461.0</ele>
        <time>2022-08-19T06:53:44Z</time>
      </trkpt>
      <trkpt lat="42.489751" lon="-6.426956">
        <ele>1460.0</ele>
        <time>2022-08-19T06:54:02Z</time>
      </trkpt>
      <trkpt lat="42.489864" lon="-6.427146">
        <ele>1457.3</ele>
        <time>2022-08-19T06:54:24Z</time>
      </trkpt>
      <trkpt lat="42.490007" lon="-6.427297">
        <ele>1455.7</ele>
        <time>2022-08-19T06:54:42Z</time>
      </trkpt>
      <trkpt lat="42.490143" lon="-6.427470">
        <ele>1449.0</ele>
        <time>2022-08-19T06:55:02Z</time>
      </trkpt>
      <trkpt lat="42.490269" lon="-6.427653">
        <ele>1446.3</ele>
        <time>2022-08-19T06:55:19Z</time>
      </trkpt>
      <trkpt lat="42.490425" lon="-6.427782">
        <ele>1446.1</ele>
        <time>2022-08-19T06:55:35Z</time>
      </trkpt>
      <trkpt lat="42.490576" lon="-6.427939">
        <ele>1442.3</ele>
        <time>2022-08-19T06:55:52Z</time>
      </trkpt>
      <trkpt lat="42.490708" lon="-6.428109">
        <ele>1439.1</ele>
        <time>2022-08-19T06:56:18Z</time>
      </trkpt>
      <trkpt lat="42.490853" lon="-6.428260">
        <ele>1437.0</ele>
        <time>2022-08-19T06:56:30Z</time>
      </trkpt>
      <trkpt lat="42.491001" lon="-6.428425">
        <ele>1437.2</ele>
        <time>2022-08-19T06:56:44Z</time>
      </trkpt>
      <trkpt lat="42.491110" lon="-6.428629">
        <ele>1436.0</ele>
        <time>2022-08-19T06:57:00Z</time>
      </trkpt>
      <trkpt lat="42.491170" lon="-6.428860">
        <ele>1434.7</ele>
        <time>2022-08-19T06:57:14Z</time>
      </trkpt>
      <trkpt lat="42.491245" lon="-6.429087">
        <ele>1432.1</ele>
        <time>2022-08-19T06:57:27Z</time>
      </trkpt>
      <trkpt lat="42.491255" lon="-6.429337">
        <ele>1430.0</ele>
        <time>2022-08-19T06:57:49Z</time>
      </trkpt>
      <trkpt lat="42.491351" lon="-6.429567">
        <ele>1427.0</ele>
        <time>2022-08-19T06:58:08Z</time>
      </trkpt>
      <trkpt lat="42.491446" lon="-6.429786">
        <ele>1426.3</ele>
        <time>2022-08-19T06:58:23Z</time>
      </trkpt>
      <trkpt lat="42.491514" lon="-6.430020">
        <ele>1425.0</ele>
        <time>2022-08-19T06:58:37Z</time>
      </trkpt>
      <trkpt lat="42.491577" lon="-6.430269">
        <ele>1423.3</ele>
        <time>2022-08-19T06:58:52Z</time>
      </trkpt>
      <trkpt lat="42.491618" lon="-6.430516">
        <ele>1418.1</ele>
        <time>2022-08-19T06:59:17Z</time>
      </trkpt>
      <trkpt lat="42.491674" lon="-6.430763">
        <ele>1419.0</ele>
        <time>2022-08-19T06:59:31Z</time>
      </trkpt>
      <trkpt lat="42.491740" lon="-6.431000">
        <ele>1418.0</ele>
        <time>2022-08-19T06:59:44Z</time>
      </trkpt>
      <trkpt lat="42.491830" lon="-6.431227">
        <ele>1416.0</ele>
        <time>2022-08-19T06:59:55Z</time>
      </trkpt>
      <trkpt lat="42.491824" lon="-6.431473">
        <ele>1413.3</ele>
        <time>2022-08-19T07:00:09Z</time>
      </trkpt>
      <trkpt lat="42.491848" lon="-6.431727">
        <ele>1412.9</ele>
        <time>2022-08-19T07:00:26Z</time>
      </trkpt>
      <trkpt lat="42.491835" lon="-6.431989">
        <ele>1412.0</ele>
        <time>2022-08-19T07:00:42Z</time>
      </trkpt>
      <trkpt lat="42.491806" lon="-6.432244">
        <ele>1409.1</ele>
        <time>2022-08-19T07:00:54Z</time>
      </trkpt>
      <trkpt lat="42.491782" lon="-6.432491">
        <ele>1406.3</ele>
        <time>2022-08-19T07:01:07Z</time>
      </trkpt>
      <trkpt lat="42.491754" lon="-6.432736">
        <ele>1405.0</ele>
        <time>2022-08-19T07:01:20Z</time>
      </trkpt>
      <trkpt lat="42.491712" lon="-6.432974">
        <ele>1405.0</ele>
        <time>2022-08-19T07:01:33Z</time>
      </trkpt>
      <trkpt lat="42.491690" lon="-6.433218">
        <ele>1407.0</ele>
        <time>2022-08-19T07:01:47Z</time>
      </trkpt>
      <trkpt lat="42.491676" lon="-6.433465">
        <ele>1407.0</ele>
        <time>2022-08-19T07:01:59Z</time>
      </trkpt>
      <trkpt lat="42.491646" lon="-6.433710">
        <ele>1405.8</ele>
        <time>2022-08-19T07:02:12Z</time>
      </trkpt>
      <trkpt lat="42.491588" lon="-6.433944">
        <ele>1406.7</ele>
        <time>2022-08-19T07:02:25Z</time>
      </trkpt>
      <trkpt lat="42.491572" lon="-6.434193">
        <ele>1407.1</ele>
        <time>2022-08-19T07:02:38Z</time>
      </trkpt>
      <trkpt lat="42.491546" lon="-6.434444">
        <ele>1408.3</ele>
        <time>2022-08-19T07:02:51Z</time>
      </trkpt>
      <trkpt lat="42.491519" lon="-6.434692">
        <ele>1409.1</ele>
        <time>2022-08-19T07:03:04Z</time>
      </trkpt>
      <trkpt lat="42.491480" lon="-6.434937">
        <ele>1408.0</ele>
        <time>2022-08-19T07:03:17Z</time>
      </trkpt>
      <trkpt lat="42.491455" lon="-6.435185">
        <ele>1405.0</ele>
        <time>2022-08-19T07:03:31Z</time>
      </trkpt>
      <trkpt lat="42.491416" lon="-6.435430">
        <ele>1403.0</ele>
        <time>2022-08-19T07:03:45Z</time>
      </trkpt>
      <trkpt lat="42.491374" lon="-6.435674">
        <ele>1403.1</ele>
        <time>2022-08-19T07:03:59Z</time>
      </trkpt>
      <trkpt lat="42.491346" lon="-6.435919">
        <ele>1401.0</ele>
        <time>2022-08-19T07:04:14Z</time>
      </trkpt>
      <trkpt lat="42.491314" lon="-6.436171">
        <ele>1402.1</ele>
        <time>2022-08-19T07:04:27Z</time>
      </trkpt>
      <trkpt lat="42.491292" lon="-6.436417">
        <ele>1401.0</ele>
        <time>2022-08-19T07:04:40Z</time>
      </trkpt>
      <trkpt lat="42.491261" lon="-6.436659">
        <ele>1400.0</ele>
        <time>2022-08-19T07:04:55Z</time>
      </trkpt>
      <trkpt lat="42.491223" lon="-6.436903">
        <ele>1400.1</ele>
        <time>2022-08-19T07:05:05Z</time>
      </trkpt>
      <trkpt lat="42.491204" lon="-6.437152">
        <ele>1399.1</ele>
        <time>2022-08-19T07:05:19Z</time>
      </trkpt>
      <trkpt lat="42.491212" lon="-6.437397">
        <ele>1396.0</ele>
        <time>2022-08-19T07:05:31Z</time>
      </trkpt>
      <trkpt lat="42.491136" lon="-6.437622">
        <ele>1396.0</ele>
        <time>2022-08-19T07:05:43Z</time>
      </trkpt>
      <trkpt lat="42.491031" lon="-6.437826">
        <ele>1397.9</ele>
        <time>2022-08-19T07:05:54Z</time>
      </trkpt>
      <trkpt lat="42.490987" lon="-6.438066">
        <ele>1398.0</ele>
        <time>2022-08-19T07:06:09Z</time>
      </trkpt>
      <trkpt lat="42.491014" lon="-6.438322">
        <ele>1397.3</ele>
        <time>2022-08-19T07:06:19Z</time>
      </trkpt>
      <trkpt lat="42.491032" lon="-6.438572">
        <ele>1396.1</ele>
        <time>2022-08-19T07:06:31Z</time>
      </trkpt>
      <trkpt lat="42.491071" lon="-6.438815">
        <ele>1397.1</ele>
        <time>2022-08-19T07:06:44Z</time>
      </trkpt>
      <trkpt lat="42.491133" lon="-6.439048">
        <ele>1397.0</ele>
        <time>2022-08-19T07:06:58Z</time>
      </trkpt>
      <trkpt lat="42.491185" lon="-6.439288">
        <ele>1397.1</ele>
        <time>2022-08-19T07:07:09Z</time>
      </trkpt>
      <trkpt lat="42.491266" lon="-6.439510">
        <ele>1397.0</ele>
        <time>2022-08-19T07:07:22Z</time>
      </trkpt>
      <trkpt lat="42.491336" lon="-6.439735">
        <ele>1394.1</ele>
        <time>2022-08-19T07:07:35Z</time>
      </trkpt>
      <trkpt lat="42.491444" lon="-6.439942">
        <ele>1393.0</ele>
        <time>2022-08-19T07:07:52Z</time>
      </trkpt>
      <trkpt lat="42.491561" lon="-6.440154">
        <ele>1392.3</ele>
        <time>2022-08-19T07:08:13Z</time>
      </trkpt>
      <trkpt lat="42.491718" lon="-6.440281">
        <ele>1392.0</ele>
        <time>2022-08-19T07:08:24Z</time>
      </trkpt>
      <trkpt lat="42.491875" lon="-6.440415">
        <ele>1388.1</ele>
        <time>2022-08-19T07:08:38Z</time>
      </trkpt>
      <trkpt lat="42.492028" lon="-6.440559">
        <ele>1384.0</ele>
        <time>2022-08-19T07:08:54Z</time>
      </trkpt>
      <trkpt lat="42.492197" lon="-6.440644">
        <ele>1381.3</ele>
        <time>2022-08-19T07:09:08Z</time>
      </trkpt>
      <trkpt lat="42.492361" lon="-6.440765">
        <ele>1377.0</ele>
        <time>2022-08-19T07:09:24Z</time>
      </trkpt>
      <trkpt lat="42.492537" lon="-6.440855">
        <ele>1373.0</ele>
        <time>2022-08-19T07:09:41Z</time>
      </trkpt>
      <trkpt lat="42.492679" lon="-6.441007">
        <ele>1370.8</ele>
        <time>2022-08-19T07:09:56Z</time>
      </trkpt>
      <trkpt lat="42.492826" lon="-6.441155">
        <ele>1370.0</ele>
        <time>2022-08-19T07:10:11Z</time>
      </trkpt>
      <trkpt lat="42.492962" lon="-6.441321">
        <ele>1364.0</ele>
        <time>2022-08-19T07:10:28Z</time>
      </trkpt>
      <trkpt lat="42.493098" lon="-6.441493">
        <ele>1361.1</ele>
        <time>2022-08-19T07:10:46Z</time>
      </trkpt>
      <trkpt lat="42.493263" lon="-6.441610">
        <ele>1355.1</ele>
        <time>2022-08-19T07:11:06Z</time>
      </trkpt>
      <trkpt lat="42.493438" lon="-6.441694">
        <ele>1350.1</ele>
        <time>2022-08-19T07:11:22Z</time>
      </trkpt>
      <trkpt lat="42.493610" lon="-6.441766">
        <ele>1346.0</ele>
        <time>2022-08-19T07:11:40Z</time>
      </trkpt>
      <trkpt lat="42.493783" lon="-6.441834">
        <ele>1344.0</ele>
        <time>2022-08-19T07:11:57Z</time>
      </trkpt>
      <trkpt lat="42.493965" lon="-6.441904">
        <ele>1343.0</ele>
        <time>2022-08-19T07:12:19Z</time>
      </trkpt>
      <trkpt lat="42.494143" lon="-6.441940">
        <ele>1340.0</ele>
        <time>2022-08-19T07:12:35Z</time>
      </trkpt>
      <trkpt lat="42.494322" lon="-6.441981">
        <ele>1335.7</ele>
        <time>2022-08-19T07:12:58Z</time>
      </trkpt>
      <trkpt lat="42.494491" lon="-6.442085">
        <ele>1330.9</ele>
        <time>2022-08-19T07:13:21Z</time>
      </trkpt>
      <trkpt lat="42.494662" lon="-6.442179">
        <ele>1328.0</ele>
        <time>2022-08-19T07:13:36Z</time>
      </trkpt>
      <trkpt lat="42.494818" lon="-6.442304">
        <ele>1323.0</ele>
        <time>2022-08-19T07:13:53Z</time>
      </trkpt>
      <trkpt lat="42.494994" lon="-6.442388">
        <ele>1320.1</ele>
        <time>2022-08-19T07:14:10Z</time>
      </trkpt>
      <trkpt lat="42.495131" lon="-6.442570">
        <ele>1318.1</ele>
        <time>2022-08-19T07:14:26Z</time>
      </trkpt>
      <trkpt lat="42.495292" lon="-6.442709">
        <ele>1318.0</ele>
        <time>2022-08-19T07:14:38Z</time>
      </trkpt>
      <trkpt lat="42.495380" lon="-6.442923">
        <ele>1318.0</ele>
        <time>2022-08-19T07:14:51Z</time>
      </trkpt>
      <trkpt lat="42.495442" lon="-6.443154">
        <ele>1315.0</ele>
        <time>2022-08-19T07:15:08Z</time>
      </trkpt>
      <trkpt lat="42.495537" lon="-6.443369">
        <ele>1313.0</ele>
        <time>2022-08-19T07:15:23Z</time>
      </trkpt>
      <trkpt lat="42.495630" lon="-6.443590">
        <ele>1312.0</ele>
        <time>2022-08-19T07:15:40Z</time>
      </trkpt>
      <trkpt lat="42.495726" lon="-6.443804">
        <ele>1308.0</ele>
        <time>2022-08-19T07:15:57Z</time>
      </trkpt>
      <trkpt lat="42.495804" lon="-6.444033">
        <ele>1304.1</ele>
        <time>2022-08-19T07:16:15Z</time>
      </trkpt>
      <trkpt lat="42.495924" lon="-6.444224">
        <ele>1300.0</ele>
        <time>2022-08-19T07:16:32Z</time>
      </trkpt>
      <trkpt lat="42.496006" lon="-6.444449">
        <ele>1300.0</ele>
        <time>2022-08-19T07:16:47Z</time>
      </trkpt>
      <trkpt lat="42.496113" lon="-6.444646">
        <ele>1297.0</ele>
        <time>2022-08-19T07:17:06Z</time>
      </trkpt>
      <trkpt lat="42.496187" lon="-6.444870">
        <ele>1294.0</ele>
        <time>2022-08-19T07:17:22Z</time>
      </trkpt>
      <trkpt lat="42.496309" lon="-6.445058">
        <ele>1290.0</ele>
        <time>2022-08-19T07:17:37Z</time>
      </trkpt>
      <trkpt lat="42.496380" lon="-6.445292">
        <ele>1290.3</ele>
        <time>2022-08-19T07:17:55Z</time>
      </trkpt>
      <trkpt lat="42.496461" lon="-6.445518">
        <ele>1285.0</ele>
        <time>2022-08-19T07:18:13Z</time>
      </trkpt>
      <trkpt lat="42.496518" lon="-6.445770">
        <ele>1283.0</ele>
        <time>2022-08-19T07:18:28Z</time>
      </trkpt>
      <trkpt lat="42.496508" lon="-6.446017">
        <ele>1281.0</ele>
        <time>2022-08-19T07:18:49Z</time>
      </trkpt>
      <trkpt lat="42.496528" lon="-6.446260">
        <ele>1280.0</ele>
        <time>2022-08-19T07:19:03Z</time>
      </trkpt>
      <trkpt lat="42.496565" lon="-6.446503">
        <ele>1276.0</ele>
        <time>2022-08-19T07:19:20Z</time>
      </trkpt>
      <trkpt lat="42.496603" lon="-6.446742">
        <ele>1272.0</ele>
        <time>2022-08-19T07:19:33Z</time>
      </trkpt>
      <trkpt lat="42.496669" lon="-6.446989">
        <ele>1271.7</ele>
        <time>2022-08-19T07:19:50Z</time>
      </trkpt>
      <trkpt lat="42.496718" lon="-6.447229">
        <ele>1271.1</ele>
        <time>2022-08-19T07:20:05Z</time>
      </trkpt>
      <trkpt lat="42.496748" lon="-6.447472">
        <ele>1268.9</ele>
        <time>2022-08-19T07:20:18Z</time>
      </trkpt>
      <trkpt lat="42.496770" lon="-6.447715">
        <ele>1267.0</ele>
        <time>2022-08-19T07:20:32Z</time>
      </trkpt>
      <trkpt lat="42.496815" lon="-6.447951">
        <ele>1265.0</ele>
        <time>2022-08-19T07:20:45Z</time>
      </trkpt>
      <trkpt lat="42.496840" lon="-6.448196">
        <ele>1264.0</ele>
        <time>2022-08-19T07:21:00Z</time>
      </trkpt>
      <trkpt lat="42.496865" lon="-6.448443">
        <ele>1261.3</ele>
        <time>2022-08-19T07:21:13Z</time>
      </trkpt>
      <trkpt lat="42.496898" lon="-6.448689">
        <ele>1259.3</ele>
        <time>2022-08-19T07:21:26Z</time>
      </trkpt>
      <trkpt lat="42.496942" lon="-6.448937">
        <ele>1261.0</ele>
        <time>2022-08-19T07:21:41Z</time>
      </trkpt>
      <trkpt lat="42.496979" lon="-6.449181">
        <ele>1257.3</ele>
        <time>2022-08-19T07:21:54Z</time>
      </trkpt>
      <trkpt lat="42.496928" lon="-6.449418">
        <ele>1258.9</ele>
        <time>2022-08-19T07:22:09Z</time>
      </trkpt>
      <trkpt lat="42.496948" lon="-6.449665">
        <ele>1259.0</ele>
        <time>2022-08-19T07:22:21Z</time>
      </trkpt>
      <trkpt lat="42.496944" lon="-6.449921">
        <ele>1256.7</ele>
        <time>2022-08-19T07:22:35Z</time>
      </trkpt>
      <trkpt lat="42.496917" lon="-6.450163">
        <ele>1256.0</ele>
        <time>2022-08-19T07:22:48Z</time>
      </trkpt>
      <trkpt lat="42.496886" lon="-6.450416">
        <ele>1254.0</ele>
        <time>2022-08-19T07:23:04Z</time>
      </trkpt>
      <trkpt lat="42.496904" lon="-6.450660">
        <ele>1252.0</ele>
        <time>2022-08-19T07:23:17Z</time>
      </trkpt>
      <trkpt lat="42.496924" lon="-6.450907">
        <ele>1251.0</ele>
        <time>2022-08-19T07:23:33Z</time>
      </trkpt>
      <trkpt lat="42.496948" lon="-6.451154">
        <ele>1248.0</ele>
        <time>2022-08-19T07:23:47Z</time>
      </trkpt>
      <trkpt lat="42.496982" lon="-6.451401">
        <ele>1245.0</ele>
        <time>2022-08-19T07:24:01Z</time>
      </trkpt>
      <trkpt lat="42.497027" lon="-6.451646">
        <ele>1242.0</ele>
        <time>2022-08-19T07:24:15Z</time>
      </trkpt>
      <trkpt lat="42.497092" lon="-6.451879">
        <ele>1239.1</ele>
        <time>2022-08-19T07:24:30Z</time>
      </trkpt>
      <trkpt lat="42.497122" lon="-6.452123">
        <ele>1238.0</ele>
        <time>2022-08-19T07:24:48Z</time>
      </trkpt>
      <trkpt lat="42.497121" lon="-6.452374">
        <ele>1236.0</ele>
        <time>2022-08-19T07:25:04Z</time>
      </trkpt>
      <trkpt lat="42.497124" lon="-6.452628">
        <ele>1232.0</ele>
        <time>2022-08-19T07:25:21Z</time>
      </trkpt>
      <trkpt lat="42.497070" lon="-6.452866">
        <ele>1228.0</ele>
        <time>2022-08-19T07:25:41Z</time>
      </trkpt>
      <trkpt lat="42.497039" lon="-6.453110">
        <ele>1226.1</ele>
        <time>2022-08-19T07:25:58Z</time>
      </trkpt>
      <trkpt lat="42.496979" lon="-6.453348">
        <ele>1220.1</ele>
        <time>2022-08-19T07:26:19Z</time>
      </trkpt>
      <trkpt lat="42.496977" lon="-6.453602">
        <ele>1216.0</ele>
        <time>2022-08-19T07:26:41Z</time>
      </trkpt>
      <trkpt lat="42.496995" lon="-6.453845">
        <ele>1211.8</ele>
        <time>2022-08-19T07:27:04Z</time>
      </trkpt>
      <trkpt lat="42.497004" lon="-6.454090">
        <ele>1206.0</ele>
        <time>2022-08-19T07:27:30Z</time>
      </trkpt>
      <trkpt lat="42.497062" lon="-6.454323">
        <ele>1202.0</ele>
        <time>2022-08-19T07:27:56Z</time>
      </trkpt>
      <trkpt lat="42.497137" lon="-6.454552">
        <ele>1197.1</ele>
        <time>2022-08-19T07:28:24Z</time>
      </trkpt>
      <trkpt lat="42.497228" lon="-6.454763">
        <ele>1193.0</ele>
        <time>2022-08-19T07:28:42Z</time>
      </trkpt>
      <trkpt lat="42.497319" lon="-6.454978">
        <ele>1188.3</ele>
        <time>2022-08-19T07:29:06Z</time>
      </trkpt>
      <trkpt lat="42.497615" lon="-6.455044">
        <ele>1159.3</ele>
        <time>2022-08-19T07:46:32Z</time>
      </trkpt>
      <trkpt lat="42.497617" lon="-6.455206">
        <ele>1158.7</ele>
        <time>2022-08-19T07:46:48Z</time>
      </trkpt>
      <trkpt lat="42.497290" lon="-6.455180">
        <ele>1158.7</ele>
        <time>2022-08-19T07:47:19Z</time>
      </trkpt>
      <trkpt lat="42.496922" lon="-6.455201">
        <ele>1158.7</ele>
        <time>2022-08-19T07:47:32Z</time>
      </trkpt>
      <trkpt lat="42.497349" lon="-6.455690">
        <ele>1158.7</ele>
        <time>2022-08-19T07:47:45Z</time>
      </trkpt>
      <trkpt lat="42.497532" lon="-6.455768">
        <ele>1158.7</ele>
        <time>2022-08-19T07:47:59Z</time>
      </trkpt>
      <trkpt lat="42.497685" lon="-6.455902">
        <ele>1158.7</ele>
        <time>2022-08-19T07:48:25Z</time>
      </trkpt>
      <trkpt lat="42.497843" lon="-6.456027">
        <ele>1158.7</ele>
        <time>2022-08-19T07:49:01Z</time>
      </trkpt>
      <trkpt lat="42.498020" lon="-6.456086">
        <ele>1158.0</ele>
        <time>2022-08-19T07:49:17Z</time>
      </trkpt>
      <trkpt lat="42.498193" lon="-6.456156">
        <ele>1158.0</ele>
        <time>2022-08-19T07:49:42Z</time>
      </trkpt>
      <trkpt lat="42.498340" lon="-6.456303">
        <ele>1158.0</ele>
        <time>2022-08-19T07:49:57Z</time>
      </trkpt>
      <trkpt lat="42.498446" lon="-6.456511">
        <ele>1158.0</ele>
        <time>2022-08-19T07:50:13Z</time>
      </trkpt>
      <trkpt lat="42.498575" lon="-6.456705">
        <ele>1158.0</ele>
        <time>2022-08-19T07:50:33Z</time>
      </trkpt>
      <trkpt lat="42.498719" lon="-6.456876">
        <ele>1149.1</ele>
        <time>2022-08-19T07:50:46Z</time>
      </trkpt>
      <trkpt lat="42.498891" lon="-6.456957">
        <ele>1145.9</ele>
        <time>2022-08-19T07:51:18Z</time>
      </trkpt>
      <trkpt lat="42.498993" lon="-6.457165">
        <ele>1147.4</ele>
        <time>2022-08-19T07:52:02Z</time>
      </trkpt>
      <trkpt lat="42.499102" lon="-6.457365">
        <ele>1147.4</ele>
        <time>2022-08-19T07:52:15Z</time>
      </trkpt>
      <trkpt lat="42.499172" lon="-6.457610">
        <ele>1147.4</ele>
        <time>2022-08-19T07:52:30Z</time>
      </trkpt>
      <trkpt lat="42.499260" lon="-6.457832">
        <ele>1147.4</ele>
        <time>2022-08-19T07:52:44Z</time>
      </trkpt>
      <trkpt lat="42.499352" lon="-6.458042">
        <ele>1147.4</ele>
        <time>2022-08-19T07:52:59Z</time>
      </trkpt>
      <trkpt lat="42.499493" lon="-6.458209">
        <ele>1147.4</ele>
        <time>2022-08-19T07:53:16Z</time>
      </trkpt>
      <trkpt lat="42.499648" lon="-6.458343">
        <ele>1147.4</ele>
        <time>2022-08-19T07:53:31Z</time>
      </trkpt>
      <trkpt lat="42.499826" lon="-6.458409">
        <ele>1134.3</ele>
        <time>2022-08-19T07:54:10Z</time>
      </trkpt>
      <trkpt lat="42.500012" lon="-6.458443">
        <ele>1132.5</ele>
        <time>2022-08-19T07:54:23Z</time>
      </trkpt>
      <trkpt lat="42.500195" lon="-6.458466">
        <ele>1133.8</ele>
        <time>2022-08-19T07:54:38Z</time>
      </trkpt>
      <trkpt lat="42.500375" lon="-6.458510">
        <ele>1131.8</ele>
        <time>2022-08-19T07:54:52Z</time>
      </trkpt>
      <trkpt lat="42.500544" lon="-6.458603">
        <ele>1127.7</ele>
        <time>2022-08-19T07:55:06Z</time>
      </trkpt>
      <trkpt lat="42.500684" lon="-6.458761">
        <ele>1124.8</ele>
        <time>2022-08-19T07:55:20Z</time>
      </trkpt>
      <trkpt lat="42.500838" lon="-6.458894">
        <ele>1123.7</ele>
        <time>2022-08-19T07:55:33Z</time>
      </trkpt>
      <trkpt lat="42.500980" lon="-6.459046">
        <ele>1123.7</ele>
        <time>2022-08-19T07:55:46Z</time>
      </trkpt>
      <trkpt lat="42.501136" lon="-6.459187">
        <ele>1121.7</ele>
        <time>2022-08-19T07:56:01Z</time>
      </trkpt>
      <trkpt lat="42.501309" lon="-6.459302">
        <ele>1120.8</ele>
        <time>2022-08-19T07:56:15Z</time>
      </trkpt>
      <trkpt lat="42.501495" lon="-6.459397">
        <ele>1119.7</ele>
        <time>2022-08-19T07:56:39Z</time>
      </trkpt>
      <trkpt lat="42.501621" lon="-6.459211">
        <ele>1122.4</ele>
        <time>2022-08-19T07:56:56Z</time>
      </trkpt>
      <trkpt lat="42.501826" lon="-6.459075">
        <ele>1123.7</ele>
        <time>2022-08-19T07:57:09Z</time>
      </trkpt>
      <trkpt lat="42.501925" lon="-6.459153">
        <ele>1121.8</ele>
        <time>2022-08-19T07:57:23Z</time>
      </trkpt>
      <trkpt lat="42.502088" lon="-6.459265">
        <ele>1118.7</ele>
        <time>2022-08-19T07:57:36Z</time>
      </trkpt>
      <trkpt lat="42.502242" lon="-6.459400">
        <ele>1118.8</ele>
        <time>2022-08-19T07:57:48Z</time>
      </trkpt>
      <trkpt lat="42.502412" lon="-6.459497">
        <ele>1117.8</ele>
        <time>2022-08-19T07:58:02Z</time>
      </trkpt>
      <trkpt lat="42.502594" lon="-6.459551">
        <ele>1119.8</ele>
        <time>2022-08-19T08:01:26Z</time>
      </trkpt>
      <trkpt lat="42.502777" lon="-6.459597">
        <ele>1119.7</ele>
        <time>2022-08-19T08:01:40Z</time>
      </trkpt>
      <trkpt lat="42.502963" lon="-6.459635">
        <ele>1120.7</ele>
        <time>2022-08-19T08:01:57Z</time>
      </trkpt>
      <trkpt lat="42.503146" lon="-6.459663">
        <ele>1121.0</ele>
        <time>2022-08-19T08:02:10Z</time>
      </trkpt>
      <trkpt lat="42.503322" lon="-6.459714">
        <ele>1120.7</ele>
        <time>2022-08-19T08:02:23Z</time>
      </trkpt>
      <trkpt lat="42.503488" lon="-6.459838">
        <ele>1119.7</ele>
        <time>2022-08-19T08:02:36Z</time>
      </trkpt>
      <trkpt lat="42.503658" lon="-6.459937">
        <ele>1119.8</ele>
        <time>2022-08-19T08:02:49Z</time>
      </trkpt>
      <trkpt lat="42.503807" lon="-6.460079">
        <ele>1120.7</ele>
        <time>2022-08-19T08:03:03Z</time>
      </trkpt>
      <trkpt lat="42.503928" lon="-6.460301">
        <ele>1121.7</ele>
        <time>2022-08-19T08:03:19Z</time>
      </trkpt>
      <trkpt lat="42.504058" lon="-6.460480">
        <ele>1122.7</ele>
        <time>2022-08-19T08:03:33Z</time>
      </trkpt>
      <trkpt lat="42.504206" lon="-6.460655">
        <ele>1120.8</ele>
        <time>2022-08-19T08:03:49Z</time>
      </trkpt>
      <trkpt lat="42.504353" lon="-6.460800">
        <ele>1118.7</ele>
        <time>2022-08-19T08:04:04Z</time>
      </trkpt>
      <trkpt lat="42.504492" lon="-6.460957">
        <ele>1120.6</ele>
        <time>2022-08-19T08:04:18Z</time>
      </trkpt>
      <trkpt lat="42.504660" lon="-6.461085">
        <ele>1123.7</ele>
        <time>2022-08-19T08:04:34Z</time>
      </trkpt>
      <trkpt lat="42.504834" lon="-6.461192">
        <ele>1123.7</ele>
        <time>2022-08-19T08:04:48Z</time>
      </trkpt>
      <trkpt lat="42.505012" lon="-6.461297">
        <ele>1122.7</ele>
        <time>2022-08-19T08:05:05Z</time>
      </trkpt>
      <trkpt lat="42.505174" lon="-6.461430">
        <ele>1119.1</ele>
        <time>2022-08-19T08:05:20Z</time>
      </trkpt>
      <trkpt lat="42.505333" lon="-6.461554">
        <ele>1116.7</ele>
        <time>2022-08-19T08:05:34Z</time>
      </trkpt>
      <trkpt lat="42.505486" lon="-6.461697">
        <ele>1113.8</ele>
        <time>2022-08-19T08:05:47Z</time>
      </trkpt>
      <trkpt lat="42.505637" lon="-6.461851">
        <ele>1113.7</ele>
        <time>2022-08-19T08:06:00Z</time>
      </trkpt>
      <trkpt lat="42.505793" lon="-6.461982">
        <ele>1112.7</ele>
        <time>2022-08-19T08:06:13Z</time>
      </trkpt>
      <trkpt lat="42.505939" lon="-6.462143">
        <ele>1115.7</ele>
        <time>2022-08-19T08:06:30Z</time>
      </trkpt>
      <trkpt lat="42.506057" lon="-6.462330">
        <ele>1117.8</ele>
        <time>2022-08-19T08:06:45Z</time>
      </trkpt>
      <trkpt lat="42.506183" lon="-6.462517">
        <ele>1118.7</ele>
        <time>2022-08-19T08:06:58Z</time>
      </trkpt>
      <trkpt lat="42.506293" lon="-6.462711">
        <ele>1117.8</ele>
        <time>2022-08-19T08:07:12Z</time>
      </trkpt>
      <trkpt lat="42.506413" lon="-6.462896">
        <ele>1120.0</ele>
        <time>2022-08-19T08:07:26Z</time>
      </trkpt>
      <trkpt lat="42.506515" lon="-6.463117">
        <ele>1120.7</ele>
        <time>2022-08-19T08:07:40Z</time>
      </trkpt>
      <trkpt lat="42.506621" lon="-6.463326">
        <ele>1123.0</ele>
        <time>2022-08-19T08:07:54Z</time>
      </trkpt>
      <trkpt lat="42.506724" lon="-6.463530">
        <ele>1121.8</ele>
        <time>2022-08-19T08:08:09Z</time>
      </trkpt>
      <trkpt lat="42.506841" lon="-6.463721">
        <ele>1122.7</ele>
        <time>2022-08-19T08:08:22Z</time>
      </trkpt>
      <trkpt lat="42.507001" lon="-6.463869">
        <ele>1125.9</ele>
        <time>2022-08-19T08:09:04Z</time>
      </trkpt>
      <trkpt lat="42.507116" lon="-6.464078">
        <ele>1120.8</ele>
        <time>2022-08-19T08:09:19Z</time>
      </trkpt>
      <trkpt lat="42.507165" lon="-6.464316">
        <ele>1118.8</ele>
        <time>2022-08-19T08:09:33Z</time>
      </trkpt>
      <trkpt lat="42.507144" lon="-6.464569">
        <ele>1115.1</ele>
        <time>2022-08-19T08:09:50Z</time>
      </trkpt>
      <trkpt lat="42.507115" lon="-6.464812">
        <ele>1113.4</ele>
        <time>2022-08-19T08:10:04Z</time>
      </trkpt>
      <trkpt lat="42.507123" lon="-6.465061">
        <ele>1110.7</ele>
        <time>2022-08-19T08:10:22Z</time>
      </trkpt>
      <trkpt lat="42.507157" lon="-6.465304">
        <ele>1105.8</ele>
        <time>2022-08-19T08:10:36Z</time>
      </trkpt>
      <trkpt lat="42.507183" lon="-6.465561">
        <ele>1103.7</ele>
        <time>2022-08-19T08:10:50Z</time>
      </trkpt>
      <trkpt lat="42.507206" lon="-6.465809">
        <ele>1099.0</ele>
        <time>2022-08-19T08:11:04Z</time>
      </trkpt>
      <trkpt lat="42.507321" lon="-6.466011">
        <ele>1096.7</ele>
        <time>2022-08-19T08:11:17Z</time>
      </trkpt>
      <trkpt lat="42.507454" lon="-6.466176">
        <ele>1095.7</ele>
        <time>2022-08-19T08:12:03Z</time>
      </trkpt>
      <trkpt lat="42.507583" lon="-6.466356">
        <ele>1087.1</ele>
        <time>2022-08-19T08:12:28Z</time>
      </trkpt>
      <trkpt lat="42.507738" lon="-6.466499">
        <ele>1081.9</ele>
        <time>2022-08-19T08:12:47Z</time>
      </trkpt>
      <trkpt lat="42.507898" lon="-6.466619">
        <ele>1077.0</ele>
        <time>2022-08-19T08:13:10Z</time>
      </trkpt>
      <trkpt lat="42.508066" lon="-6.466723">
        <ele>1065.7</ele>
        <time>2022-08-19T08:13:41Z</time>
      </trkpt>
      <trkpt lat="42.508205" lon="-6.466886">
        <ele>1063.7</ele>
        <time>2022-08-19T08:14:05Z</time>
      </trkpt>
      <trkpt lat="42.508384" lon="-6.466946">
        <ele>1060.7</ele>
        <time>2022-08-19T08:14:25Z</time>
      </trkpt>
      <trkpt lat="42.508559" lon="-6.467036">
        <ele>1055.8</ele>
        <time>2022-08-19T08:14:47Z</time>
      </trkpt>
      <trkpt lat="42.508724" lon="-6.467143">
        <ele>1049.8</ele>
        <time>2022-08-19T08:15:10Z</time>
      </trkpt>
      <trkpt lat="42.508910" lon="-6.467210">
        <ele>1047.9</ele>
        <time>2022-08-19T08:15:28Z</time>
      </trkpt>
      <trkpt lat="42.509091" lon="-6.467273">
        <ele>1043.7</ele>
        <time>2022-08-19T08:15:48Z</time>
      </trkpt>
      <trkpt lat="42.509263" lon="-6.467375">
        <ele>1041.0</ele>
        <time>2022-08-19T08:16:04Z</time>
      </trkpt>
      <trkpt lat="42.509425" lon="-6.467501">
        <ele>1040.7</ele>
        <time>2022-08-19T08:16:19Z</time>
      </trkpt>
      <trkpt lat="42.509591" lon="-6.467632">
        <ele>1040.1</ele>
        <time>2022-08-19T08:16:37Z</time>
      </trkpt>
      <trkpt lat="42.509744" lon="-6.467771">
        <ele>1036.5</ele>
        <time>2022-08-19T08:16:50Z</time>
      </trkpt>
      <trkpt lat="42.509863" lon="-6.467978">
        <ele>1034.7</ele>
        <time>2022-08-19T08:17:05Z</time>
      </trkpt>
      <trkpt lat="42.509987" lon="-6.468175">
        <ele>1032.7</ele>
        <time>2022-08-19T08:17:20Z</time>
      </trkpt>
      <trkpt lat="42.510152" lon="-6.468276">
        <ele>1031.7</ele>
        <time>2022-08-19T08:17:34Z</time>
      </trkpt>
      <trkpt lat="42.510310" lon="-6.468410">
        <ele>1029.0</ele>
        <time>2022-08-19T08:17:51Z</time>
      </trkpt>
      <trkpt lat="42.510452" lon="-6.468576">
        <ele>1028.7</ele>
        <time>2022-08-19T08:18:06Z</time>
      </trkpt>
      <trkpt lat="42.510575" lon="-6.468757">
        <ele>1029.7</ele>
        <time>2022-08-19T08:18:19Z</time>
      </trkpt>
      <trkpt lat="42.510704" lon="-6.468949">
        <ele>1028.7</ele>
        <time>2022-08-19T08:18:33Z</time>
      </trkpt>
      <trkpt lat="42.510855" lon="-6.469095">
        <ele>1027.7</ele>
        <time>2022-08-19T08:18:48Z</time>
      </trkpt>
      <trkpt lat="42.511000" lon="-6.469244">
        <ele>1025.8</ele>
        <time>2022-08-19T08:19:03Z</time>
      </trkpt>
      <trkpt lat="42.511132" lon="-6.469425">
        <ele>1022.8</ele>
        <time>2022-08-19T08:19:18Z</time>
      </trkpt>
      <trkpt lat="42.511294" lon="-6.469552">
        <ele>1020.0</ele>
        <time>2022-08-19T08:19:34Z</time>
      </trkpt>
      <trkpt lat="42.511456" lon="-6.469676">
        <ele>1020.7</ele>
        <time>2022-08-19T08:19:49Z</time>
      </trkpt>
      <trkpt lat="42.511616" lon="-6.469803">
        <ele>1017.7</ele>
        <time>2022-08-19T08:20:04Z</time>
      </trkpt>
      <trkpt lat="42.511791" lon="-6.469909">
        <ele>1016.7</ele>
        <time>2022-08-19T08:20:26Z</time>
      </trkpt>
      <trkpt lat="42.511941" lon="-6.470056">
        <ele>1012.0</ele>
        <time>2022-08-19T08:20:43Z</time>
      </trkpt>
      <trkpt lat="42.512099" lon="-6.470204">
        <ele>1010.0</ele>
        <time>2022-08-19T08:21:02Z</time>
      </trkpt>
      <trkpt lat="42.512254" lon="-6.470343">
        <ele>1008.7</ele>
        <time>2022-08-19T08:21:16Z</time>
      </trkpt>
      <trkpt lat="42.512404" lon="-6.470493">
        <ele>1006.7</ele>
        <time>2022-08-19T08:21:32Z</time>
      </trkpt>
      <trkpt lat="42.512562" lon="-6.470627">
        <ele>1002.0</ele>
        <time>2022-08-19T08:21:49Z</time>
      </trkpt>
      <trkpt lat="42.512734" lon="-6.470741">
        <ele>1000.8</ele>
        <time>2022-08-19T08:22:04Z</time>
      </trkpt>
      <trkpt lat="42.512900" lon="-6.470838">
        <ele>997.7</ele>
        <time>2022-08-19T08:22:19Z</time>
      </trkpt>
      <trkpt lat="42.513050" lon="-6.470992">
        <ele>995.7</ele>
        <time>2022-08-19T08:22:35Z</time>
      </trkpt>
      <trkpt lat="42.513215" lon="-6.471108">
        <ele>993.7</ele>
        <time>2022-08-19T08:22:50Z</time>
      </trkpt>
      <trkpt lat="42.513400" lon="-6.471187">
        <ele>990.4</ele>
        <time>2022-08-19T08:23:05Z</time>
      </trkpt>
      <trkpt lat="42.513554" lon="-6.471321">
        <ele>988.0</ele>
        <time>2022-08-19T08:23:19Z</time>
      </trkpt>
      <trkpt lat="42.513729" lon="-6.471433">
        <ele>987.7</ele>
        <time>2022-08-19T08:23:33Z</time>
      </trkpt>
      <trkpt lat="42.513826" lon="-6.471648">
        <ele>986.7</ele>
        <time>2022-08-19T08:23:49Z</time>
      </trkpt>
      <trkpt lat="42.513928" lon="-6.471856">
        <ele>986.7</ele>
        <time>2022-08-19T08:24:05Z</time>
      </trkpt>
      <trkpt lat="42.514078" lon="-6.471995">
        <ele>985.7</ele>
        <time>2022-08-19T08:24:20Z</time>
      </trkpt>
      <trkpt lat="42.514277" lon="-6.472042">
        <ele>983.8</ele>
        <time>2022-08-19T08:24:35Z</time>
      </trkpt>
      <trkpt lat="42.514457" lon="-6.472049">
        <ele>981.7</ele>
        <time>2022-08-19T08:24:49Z</time>
      </trkpt>
      <trkpt lat="42.514624" lon="-6.472150">
        <ele>982.6</ele>
        <time>2022-08-19T08:25:04Z</time>
      </trkpt>
      <trkpt lat="42.514796" lon="-6.472245">
        <ele>980.7</ele>
        <time>2022-08-19T08:25:18Z</time>
      </trkpt>
      <trkpt lat="42.514980" lon="-6.472298">
        <ele>978.0</ele>
        <time>2022-08-19T08:25:33Z</time>
      </trkpt>
      <trkpt lat="42.515160" lon="-6.472217">
        <ele>973.7</ele>
        <time>2022-08-19T08:25:49Z</time>
      </trkpt>
      <trkpt lat="42.515342" lon="-6.472166">
        <ele>970.0</ele>
        <time>2022-08-19T08:26:04Z</time>
      </trkpt>
      <trkpt lat="42.515528" lon="-6.472112">
        <ele>965.7</ele>
        <time>2022-08-19T08:26:19Z</time>
      </trkpt>
      <trkpt lat="42.515713" lon="-6.472062">
        <ele>962.8</ele>
        <time>2022-08-19T08:26:34Z</time>
      </trkpt>
      <trkpt lat="42.515898" lon="-6.472011">
        <ele>958.0</ele>
        <time>2022-08-19T08:26:50Z</time>
      </trkpt>
      <trkpt lat="42.516077" lon="-6.472037">
        <ele>957.7</ele>
        <time>2022-08-19T08:27:06Z</time>
      </trkpt>
      <trkpt lat="42.516266" lon="-6.472025">
        <ele>955.0</ele>
        <time>2022-08-19T08:27:20Z</time>
      </trkpt>
      <trkpt lat="42.516451" lon="-6.472030">
        <ele>954.7</ele>
        <time>2022-08-19T08:27:36Z</time>
      </trkpt>
      <trkpt lat="42.516601" lon="-6.472177">
        <ele>951.0</ele>
        <time>2022-08-19T08:27:52Z</time>
      </trkpt>
      <trkpt lat="42.516734" lon="-6.472348">
        <ele>950.7</ele>
        <time>2022-08-19T08:28:04Z</time>
      </trkpt>
      <trkpt lat="42.516877" lon="-6.472508">
        <ele>950.7</ele>
        <time>2022-08-19T08:28:18Z</time>
      </trkpt>
      <trkpt lat="42.516996" lon="-6.472703">
        <ele>951.7</ele>
        <time>2022-08-19T08:28:31Z</time>
      </trkpt>
      <trkpt lat="42.517117" lon="-6.472902">
        <ele>950.7</ele>
        <time>2022-08-19T08:28:45Z</time>
      </trkpt>
      <trkpt lat="42.517236" lon="-6.473113">
        <ele>950.7</ele>
        <time>2022-08-19T08:29:00Z</time>
      </trkpt>
      <trkpt lat="42.517344" lon="-6.473329">
        <ele>951.3</ele>
        <time>2022-08-19T08:29:14Z</time>
      </trkpt>
      <trkpt lat="42.517475" lon="-6.473499">
        <ele>956.4</ele>
        <time>2022-08-19T08:29:29Z</time>
      </trkpt>
      <trkpt lat="42.517613" lon="-6.473673">
        <ele>956.7</ele>
        <time>2022-08-19T08:29:45Z</time>
      </trkpt>
      <trkpt lat="42.517773" lon="-6.473785">
        <ele>955.0</ele>
        <time>2022-08-19T08:29:59Z</time>
      </trkpt>
      <trkpt lat="42.517880" lon="-6.473989">
        <ele>954.6</ele>
        <time>2022-08-19T08:30:15Z</time>
      </trkpt>
      <trkpt lat="42.517998" lon="-6.474182">
        <ele>952.7</ele>
        <time>2022-08-19T08:30:30Z</time>
      </trkpt>
      <trkpt lat="42.518114" lon="-6.474391">
        <ele>950.6</ele>
        <time>2022-08-19T08:30:48Z</time>
      </trkpt>
      <trkpt lat="42.518209" lon="-6.474607">
        <ele>949.0</ele>
        <time>2022-08-19T08:31:03Z</time>
      </trkpt>
      <trkpt lat="42.518303" lon="-6.474819">
        <ele>946.7</ele>
        <time>2022-08-19T08:31:16Z</time>
      </trkpt>
      <trkpt lat="42.518396" lon="-6.475052">
        <ele>947.5</ele>
        <time>2022-08-19T08:31:31Z</time>
      </trkpt>
      <trkpt lat="42.518511" lon="-6.475254">
        <ele>947.4</ele>
        <time>2022-08-19T08:31:44Z</time>
      </trkpt>
      <trkpt lat="42.518633" lon="-6.475450">
        <ele>948.7</ele>
        <time>2022-08-19T08:31:58Z</time>
      </trkpt>
      <trkpt lat="42.518729" lon="-6.475667">
        <ele>947.4</ele>
        <time>2022-08-19T08:32:12Z</time>
      </trkpt>
      <trkpt lat="42.518812" lon="-6.475891">
        <ele>946.7</ele>
        <time>2022-08-19T08:32:26Z</time>
      </trkpt>
      <trkpt lat="42.518926" lon="-6.476088">
        <ele>947.4</ele>
        <time>2022-08-19T08:32:39Z</time>
      </trkpt>
      <trkpt lat="42.518994" lon="-6.476316">
        <ele>946.0</ele>
        <time>2022-08-19T08:32:52Z</time>
      </trkpt>
      <trkpt lat="42.519066" lon="-6.476557">
        <ele>944.7</ele>
        <time>2022-08-19T08:33:05Z</time>
      </trkpt>
      <trkpt lat="42.519167" lon="-6.476777">
        <ele>942.7</ele>
        <time>2022-08-19T08:33:18Z</time>
      </trkpt>
      <trkpt lat="42.519278" lon="-6.476984">
        <ele>944.7</ele>
        <time>2022-08-19T08:33:31Z</time>
      </trkpt>
      <trkpt lat="42.519384" lon="-6.477197">
        <ele>942.9</ele>
        <time>2022-08-19T08:33:46Z</time>
      </trkpt>
      <trkpt lat="42.519511" lon="-6.477373">
        <ele>943.7</ele>
        <time>2022-08-19T08:34:01Z</time>
      </trkpt>
      <trkpt lat="42.519652" lon="-6.477534">
        <ele>943.7</ele>
        <time>2022-08-19T08:34:20Z</time>
      </trkpt>
      <trkpt lat="42.519801" lon="-6.477705">
        <ele>942.7</ele>
        <time>2022-08-19T08:34:55Z</time>
      </trkpt>
      <trkpt lat="42.519975" lon="-6.477827">
        <ele>939.4</ele>
        <time>2022-08-19T08:35:12Z</time>
      </trkpt>
      <trkpt lat="42.520106" lon="-6.477995">
        <ele>937.0</ele>
        <time>2022-08-19T08:35:27Z</time>
      </trkpt>
      <trkpt lat="42.520276" lon="-6.478121">
        <ele>931.7</ele>
        <time>2022-08-19T08:35:41Z</time>
      </trkpt>
      <trkpt lat="42.520407" lon="-6.478305">
        <ele>931.4</ele>
        <time>2022-08-19T08:35:56Z</time>
      </trkpt>
      <trkpt lat="42.520540" lon="-6.478477">
        <ele>937.5</ele>
        <time>2022-08-19T08:36:10Z</time>
      </trkpt>
      <trkpt lat="42.520699" lon="-6.478597">
        <ele>936.4</ele>
        <time>2022-08-19T08:36:27Z</time>
      </trkpt>
      <trkpt lat="42.520864" lon="-6.478700">
        <ele>936.4</ele>
        <time>2022-08-19T08:36:46Z</time>
      </trkpt>
      <trkpt lat="42.521038" lon="-6.478771">
        <ele>936.4</ele>
        <time>2022-08-19T08:37:19Z</time>
      </trkpt>
      <trkpt lat="42.521213" lon="-6.478832">
        <ele>936.4</ele>
        <time>2022-08-19T08:37:30Z</time>
      </trkpt>
      <trkpt lat="42.521381" lon="-6.478925">
        <ele>936.4</ele>
        <time>2022-08-19T08:37:45Z</time>
      </trkpt>
      <trkpt lat="42.521531" lon="-6.479066">
        <ele>936.4</ele>
        <time>2022-08-19T08:38:00Z</time>
      </trkpt>
      <trkpt lat="42.521683" lon="-6.479210">
        <ele>936.4</ele>
        <time>2022-08-19T08:38:16Z</time>
      </trkpt>
      <trkpt lat="42.521830" lon="-6.479373">
        <ele>936.4</ele>
        <time>2022-08-19T08:38:30Z</time>
      </trkpt>
      <trkpt lat="42.521946" lon="-6.479561">
        <ele>919.7</ele>
        <time>2022-08-19T08:38:53Z</time>
      </trkpt>
      <trkpt lat="42.522120" lon="-6.479689">
        <ele>924.6</ele>
        <time>2022-08-19T08:39:09Z</time>
      </trkpt>
      <trkpt lat="42.522289" lon="-6.479830">
        <ele>925.9</ele>
        <time>2022-08-19T08:39:20Z</time>
      </trkpt>
      <trkpt lat="42.522390" lon="-6.480040">
        <ele>926.1</ele>
        <time>2022-08-19T08:39:34Z</time>
      </trkpt>
      <trkpt lat="42.522472" lon="-6.480269">
        <ele>926.1</ele>
        <time>2022-08-19T08:39:48Z</time>
      </trkpt>
      <trkpt lat="42.522574" lon="-6.480476">
        <ele>926.1</ele>
        <time>2022-08-19T08:40:00Z</time>
      </trkpt>
      <trkpt lat="42.522701" lon="-6.480656">
        <ele>926.1</ele>
        <time>2022-08-19T08:40:56Z</time>
      </trkpt>
      <trkpt lat="42.522830" lon="-6.480833">
        <ele>926.1</ele>
        <time>2022-08-19T08:41:19Z</time>
      </trkpt>
      <trkpt lat="42.522943" lon="-6.481031">
        <ele>926.1</ele>
        <time>2022-08-19T08:41:44Z</time>
      </trkpt>
      <trkpt lat="42.523058" lon="-6.481250">
        <ele>926.1</ele>
        <time>2022-08-19T08:42:00Z</time>
      </trkpt>
      <trkpt lat="42.523164" lon="-6.481464">
        <ele>926.1</ele>
        <time>2022-08-19T08:42:17Z</time>
      </trkpt>
      <trkpt lat="42.523283" lon="-6.481653">
        <ele>905.6</ele>
        <time>2022-08-19T08:42:36Z</time>
      </trkpt>
      <trkpt lat="42.523404" lon="-6.481842">
        <ele>903.4</ele>
        <time>2022-08-19T08:42:56Z</time>
      </trkpt>
      <trkpt lat="42.523531" lon="-6.482019">
        <ele>896.8</ele>
        <time>2022-08-19T08:43:30Z</time>
      </trkpt>
      <trkpt lat="42.523626" lon="-6.482229">
        <ele>897.6</ele>
        <time>2022-08-19T08:43:44Z</time>
      </trkpt>
      <trkpt lat="42.523695" lon="-6.482465">
        <ele>893.0</ele>
        <time>2022-08-19T08:44:03Z</time>
      </trkpt>
      <trkpt lat="42.523750" lon="-6.482699">
        <ele>887.0</ele>
        <time>2022-08-19T08:44:22Z</time>
      </trkpt>
      <trkpt lat="42.523802" lon="-6.482941">
        <ele>881.8</ele>
        <time>2022-08-19T08:44:40Z</time>
      </trkpt>
      <trkpt lat="42.523919" lon="-6.483129">
        <ele>879.6</ele>
        <time>2022-08-19T08:44:55Z</time>
      </trkpt>
      <trkpt lat="42.524032" lon="-6.483329">
        <ele>877.0</ele>
        <time>2022-08-19T08:45:12Z</time>
      </trkpt>
      <trkpt lat="42.524086" lon="-6.483565">
        <ele>873.0</ele>
        <time>2022-08-19T08:45:38Z</time>
      </trkpt>
      <trkpt lat="42.524182" lon="-6.483786">
        <ele>868.8</ele>
        <time>2022-08-19T08:45:53Z</time>
      </trkpt>
      <trkpt lat="42.524319" lon="-6.483948">
        <ele>866.9</ele>
        <time>2022-08-19T08:46:10Z</time>
      </trkpt>
      <trkpt lat="42.524450" lon="-6.484144">
        <ele>868.7</ele>
        <time>2022-08-19T08:46:32Z</time>
      </trkpt>
      <trkpt lat="42.524561" lon="-6.484336">
        <ele>865.0</ele>
        <time>2022-08-19T08:46:46Z</time>
      </trkpt>
      <trkpt lat="42.524675" lon="-6.484552">
        <ele>862.8</ele>
        <time>2022-08-19T08:47:01Z</time>
      </trkpt>
      <trkpt lat="42.524712" lon="-6.484804">
        <ele>863.7</ele>
        <time>2022-08-19T08:47:14Z</time>
      </trkpt>
      <trkpt lat="42.524807" lon="-6.485023">
        <ele>864.7</ele>
        <time>2022-08-19T08:47:27Z</time>
      </trkpt>
      <trkpt lat="42.524907" lon="-6.485239">
        <ele>861.4</ele>
        <time>2022-08-19T08:47:41Z</time>
      </trkpt>
      <trkpt lat="42.525028" lon="-6.485438">
        <ele>858.7</ele>
        <time>2022-08-19T08:47:55Z</time>
      </trkpt>
      <trkpt lat="42.525128" lon="-6.485657">
        <ele>859.7</ele>
        <time>2022-08-19T08:48:11Z</time>
      </trkpt>
      <trkpt lat="42.525238" lon="-6.485862">
        <ele>858.7</ele>
        <time>2022-08-19T08:48:27Z</time>
      </trkpt>
      <trkpt lat="42.525300" lon="-6.486098">
        <ele>855.7</ele>
        <time>2022-08-19T08:48:41Z</time>
      </trkpt>
      <trkpt lat="42.525358" lon="-6.486329">
        <ele>856.7</ele>
        <time>2022-08-19T08:48:52Z</time>
      </trkpt>
      <trkpt lat="42.525372" lon="-6.486585">
        <ele>857.7</ele>
        <time>2022-08-19T08:49:07Z</time>
      </trkpt>
      <trkpt lat="42.525299" lon="-6.486815">
        <ele>855.7</ele>
        <time>2022-08-19T08:49:24Z</time>
      </trkpt>
      <trkpt lat="42.525294" lon="-6.487071">
        <ele>858.6</ele>
        <time>2022-08-19T08:49:51Z</time>
      </trkpt>
      <trkpt lat="42.525307" lon="-6.487322">
        <ele>859.6</ele>
        <time>2022-08-19T08:50:05Z</time>
      </trkpt>
      <trkpt lat="42.525317" lon="-6.487583">
        <ele>858.9</ele>
        <time>2022-08-19T08:50:19Z</time>
      </trkpt>
      <trkpt lat="42.525358" lon="-6.487829">
        <ele>855.0</ele>
        <time>2022-08-19T08:50:32Z</time>
      </trkpt>
      <trkpt lat="42.525385" lon="-6.488083">
        <ele>853.7</ele>
        <time>2022-08-19T08:50:46Z</time>
      </trkpt>
      <trkpt lat="42.525437" lon="-6.488331">
        <ele>851.7</ele>
        <time>2022-08-19T08:51:00Z</time>
      </trkpt>
      <trkpt lat="42.525504" lon="-6.488567">
        <ele>852.6</ele>
        <time>2022-08-19T08:51:13Z</time>
      </trkpt>
      <trkpt lat="42.525561" lon="-6.488807">
        <ele>852.7</ele>
        <time>2022-08-19T08:51:28Z</time>
      </trkpt>
      <trkpt lat="42.525652" lon="-6.489034">
        <ele>851.7</ele>
        <time>2022-08-19T08:51:41Z</time>
      </trkpt>
      <trkpt lat="42.525754" lon="-6.489244">
        <ele>852.3</ele>
        <time>2022-08-19T08:51:55Z</time>
      </trkpt>
      <trkpt lat="42.525821" lon="-6.489494">
        <ele>853.7</ele>
        <time>2022-08-19T08:52:10Z</time>
      </trkpt>
      <trkpt lat="42.525854" lon="-6.489742">
        <ele>852.7</ele>
        <time>2022-08-19T08:52:24Z</time>
      </trkpt>
      <trkpt lat="42.525835" lon="-6.489991">
        <ele>850.7</ele>
        <time>2022-08-19T08:52:39Z</time>
      </trkpt>
      <trkpt lat="42.525749" lon="-6.490219">
        <ele>849.7</ele>
        <time>2022-08-19T08:52:56Z</time>
      </trkpt>
      <trkpt lat="42.525749" lon="-6.490465">
        <ele>850.6</ele>
        <time>2022-08-19T08:53:09Z</time>
      </trkpt>
      <trkpt lat="42.525783" lon="-6.490712">
        <ele>850.6</ele>
        <time>2022-08-19T08:53:22Z</time>
      </trkpt>
      <trkpt lat="42.525853" lon="-6.490942">
        <ele>850.0</ele>
        <time>2022-08-19T08:53:36Z</time>
      </trkpt>
      <trkpt lat="42.525935" lon="-6.491161">
        <ele>848.4</ele>
        <time>2022-08-19T08:53:49Z</time>
      </trkpt>
      <trkpt lat="42.526013" lon="-6.491394">
        <ele>848.7</ele>
        <time>2022-08-19T08:54:03Z</time>
      </trkpt>
      <trkpt lat="42.526096" lon="-6.491614">
        <ele>847.7</ele>
        <time>2022-08-19T08:54:17Z</time>
      </trkpt>
      <trkpt lat="42.526170" lon="-6.491844">
        <ele>848.6</ele>
        <time>2022-08-19T08:54:31Z</time>
      </trkpt>
      <trkpt lat="42.526188" lon="-6.492091">
        <ele>848.4</ele>
        <time>2022-08-19T08:54:45Z</time>
      </trkpt>
      <trkpt lat="42.526196" lon="-6.492341">
        <ele>848.6</ele>
        <time>2022-08-19T08:54:58Z</time>
      </trkpt>
      <trkpt lat="42.526234" lon="-6.492595">
        <ele>850.6</ele>
        <time>2022-08-19T08:55:14Z</time>
      </trkpt>
      <trkpt lat="42.526285" lon="-6.492841">
        <ele>847.7</ele>
        <time>2022-08-19T08:55:29Z</time>
      </trkpt>
      <trkpt lat="42.526385" lon="-6.493052">
        <ele>845.0</ele>
        <time>2022-08-19T08:55:44Z</time>
      </trkpt>
      <trkpt lat="42.526482" lon="-6.493273">
        <ele>843.7</ele>
        <time>2022-08-19T08:55:58Z</time>
      </trkpt>
      <trkpt lat="42.526607" lon="-6.493461">
        <ele>841.7</ele>
        <time>2022-08-19T08:56:12Z</time>
      </trkpt>
      <trkpt lat="42.526744" lon="-6.493621">
        <ele>838.7</ele>
        <time>2022-08-19T08:56:25Z</time>
      </trkpt>
      <trkpt lat="42.526925" lon="-6.493626">
        <ele>838.6</ele>
        <time>2022-08-19T08:56:37Z</time>
      </trkpt>
      <trkpt lat="42.527108" lon="-6.493611">
        <ele>836.9</ele>
        <time>2022-08-19T08:56:50Z</time>
      </trkpt>
      <trkpt lat="42.527289" lon="-6.493664">
        <ele>836.6</ele>
        <time>2022-08-19T08:57:05Z</time>
      </trkpt>
      <trkpt lat="42.527472" lon="-6.493682">
        <ele>835.9</ele>
        <time>2022-08-19T08:57:19Z</time>
      </trkpt>
      <trkpt lat="42.527648" lon="-6.493757">
        <ele>832.9</ele>
        <time>2022-08-19T08:57:33Z</time>
      </trkpt>
      <trkpt lat="42.527827" lon="-6.493810">
        <ele>831.7</ele>
        <time>2022-08-19T08:57:47Z</time>
      </trkpt>
      <trkpt lat="42.528013" lon="-6.493858">
        <ele>832.7</ele>
        <time>2022-08-19T08:58:02Z</time>
      </trkpt>
      <trkpt lat="42.528174" lon="-6.494001">
        <ele>834.6</ele>
        <time>2022-08-19T08:58:16Z</time>
      </trkpt>
      <trkpt lat="42.528290" lon="-6.494198">
        <ele>833.3</ele>
        <time>2022-08-19T08:58:30Z</time>
      </trkpt>
      <trkpt lat="42.528426" lon="-6.494365">
        <ele>837.3</ele>
        <time>2022-08-19T08:58:46Z</time>
      </trkpt>
      <trkpt lat="42.528546" lon="-6.494551">
        <ele>837.6</ele>
        <time>2022-08-19T08:59:01Z</time>
      </trkpt>
      <trkpt lat="42.528640" lon="-6.494773">
        <ele>837.6</ele>
        <time>2022-08-19T08:59:15Z</time>
      </trkpt>
      <trkpt lat="42.528632" lon="-6.495019">
        <ele>836.8</ele>
        <time>2022-08-19T09:00:32Z</time>
      </trkpt>
      <trkpt lat="42.528656" lon="-6.495265">
        <ele>837.6</ele>
        <time>2022-08-19T09:00:45Z</time>
      </trkpt>
      <trkpt lat="42.528696" lon="-6.495507">
        <ele>833.7</ele>
        <time>2022-08-19T09:00:59Z</time>
      </trkpt>
      <trkpt lat="42.528731" lon="-6.495747">
        <ele>833.3</ele>
        <time>2022-08-19T09:01:12Z</time>
      </trkpt>
      <trkpt lat="42.528708" lon="-6.495992">
        <ele>835.7</ele>
        <time>2022-08-19T09:01:25Z</time>
      </trkpt>
      <trkpt lat="42.528750" lon="-6.496234">
        <ele>833.6</ele>
        <time>2022-08-19T09:01:38Z</time>
      </trkpt>
      <trkpt lat="42.528844" lon="-6.496446">
        <ele>831.6</ele>
        <time>2022-08-19T09:01:52Z</time>
      </trkpt>
      <trkpt lat="42.528956" lon="-6.496643">
        <ele>831.4</ele>
        <time>2022-08-19T09:02:05Z</time>
      </trkpt>
      <trkpt lat="42.529065" lon="-6.496846">
        <ele>832.6</ele>
        <time>2022-08-19T09:02:19Z</time>
      </trkpt>
      <trkpt lat="42.529165" lon="-6.497062">
        <ele>833.9</ele>
        <time>2022-08-19T09:02:35Z</time>
      </trkpt>
      <trkpt lat="42.529221" lon="-6.497297">
        <ele>831.6</ele>
        <time>2022-08-19T09:02:48Z</time>
      </trkpt>
      <trkpt lat="42.529223" lon="-6.497552">
        <ele>833.6</ele>
        <time>2022-08-19T09:03:02Z</time>
      </trkpt>
      <trkpt lat="42.529200" lon="-6.497809">
        <ele>831.6</ele>
        <time>2022-08-19T09:03:16Z</time>
      </trkpt>
      <trkpt lat="42.529185" lon="-6.498057">
        <ele>828.9</ele>
        <time>2022-08-19T09:03:31Z</time>
      </trkpt>
      <trkpt lat="42.529309" lon="-6.498241">
        <ele>829.6</ele>
        <time>2022-08-19T09:03:45Z</time>
      </trkpt>
      <trkpt lat="42.529451" lon="-6.498395">
        <ele>827.8</ele>
        <time>2022-08-19T09:04:00Z</time>
      </trkpt>
      <trkpt lat="42.529544" lon="-6.498604">
        <ele>821.9</ele>
        <time>2022-08-19T09:04:17Z</time>
      </trkpt>
      <trkpt lat="42.529594" lon="-6.498848">
        <ele>817.6</ele>
        <time>2022-08-19T09:04:34Z</time>
      </trkpt>
      <trkpt lat="42.529644" lon="-6.499084">
        <ele>817.6</ele>
        <time>2022-08-19T09:04:47Z</time>
      </trkpt>
      <trkpt lat="42.529740" lon="-6.499308">
        <ele>813.9</ele>
        <time>2022-08-19T09:05:00Z</time>
      </trkpt>
      <trkpt lat="42.529878" lon="-6.499472">
        <ele>810.9</ele>
        <time>2022-08-19T09:05:16Z</time>
      </trkpt>
      <trkpt lat="42.529963" lon="-6.499690">
        <ele>805.7</ele>
        <time>2022-08-19T09:05:30Z</time>
      </trkpt>
      <trkpt lat="42.530101" lon="-6.499864">
        <ele>801.8</ele>
        <time>2022-08-19T09:05:46Z</time>
      </trkpt>
      <trkpt lat="42.530222" lon="-6.500055">
        <ele>800.6</ele>
        <time>2022-08-19T09:06:01Z</time>
      </trkpt>
      <trkpt lat="42.530269" lon="-6.500297">
        <ele>797.7</ele>
        <time>2022-08-19T09:06:14Z</time>
      </trkpt>
      <trkpt lat="42.530289" lon="-6.500554">
        <ele>795.6</ele>
        <time>2022-08-19T09:06:29Z</time>
      </trkpt>
      <trkpt lat="42.530279" lon="-6.500816">
        <ele>795.4</ele>
        <time>2022-08-19T09:06:42Z</time>
      </trkpt>
      <trkpt lat="42.530265" lon="-6.501063">
        <ele>793.9</ele>
        <time>2022-08-19T09:06:57Z</time>
      </trkpt>
      <trkpt lat="42.530241" lon="-6.501594">
        <ele>791.0</ele>
        <time>2022-08-19T09:07:11Z</time>
      </trkpt>
      <trkpt lat="42.530268" lon="-6.501945">
        <ele>786.6</ele>
        <time>2022-08-19T09:07:27Z</time>
      </trkpt>
      <trkpt lat="42.530418" lon="-6.501682">
        <ele>776.9</ele>
        <time>2022-08-19T09:08:33Z</time>
      </trkpt>
      <trkpt lat="42.530505" lon="-6.501463">
        <ele>774.9</ele>
        <time>2022-08-19T09:08:54Z</time>
      </trkpt>
      <trkpt lat="42.530569" lon="-6.501701">
        <ele>772.0</ele>
        <time>2022-08-19T09:09:12Z</time>
      </trkpt>
      <trkpt lat="42.530603" lon="-6.501959">
        <ele>770.7</ele>
        <time>2022-08-19T09:09:26Z</time>
      </trkpt>
      <trkpt lat="42.530605" lon="-6.502207">
        <ele>772.6</ele>
        <time>2022-08-19T09:09:40Z</time>
      </trkpt>
      <trkpt lat="42.530532" lon="-6.502435">
        <ele>772.3</ele>
        <time>2022-08-19T09:09:58Z</time>
      </trkpt>
      <trkpt lat="42.530420" lon="-6.502634">
        <ele>769.7</ele>
        <time>2022-08-19T09:10:14Z</time>
      </trkpt>
      <trkpt lat="42.530405" lon="-6.502885">
        <ele>768.5</ele>
        <time>2022-08-19T09:10:31Z</time>
      </trkpt>
      <trkpt lat="42.530419" lon="-6.503131">
        <ele>766.6</ele>
        <time>2022-08-19T09:10:48Z</time>
      </trkpt>
      <trkpt lat="42.530432" lon="-6.503378">
        <ele>766.6</ele>
        <time>2022-08-19T09:11:03Z</time>
      </trkpt>
      <trkpt lat="42.530451" lon="-6.503625">
        <ele>763.6</ele>
        <time>2022-08-19T09:11:19Z</time>
      </trkpt>
      <trkpt lat="42.530473" lon="-6.503870">
        <ele>763.0</ele>
        <time>2022-08-19T09:11:37Z</time>
      </trkpt>
      <trkpt lat="42.530481" lon="-6.504123">
        <ele>759.9</ele>
        <time>2022-08-19T09:12:00Z</time>
      </trkpt>
      <trkpt lat="42.530507" lon="-6.504378">
        <ele>757.6</ele>
        <time>2022-08-19T09:12:16Z</time>
      </trkpt>
      <trkpt lat="42.530526" lon="-6.504630">
        <ele>755.7</ele>
        <time>2022-08-19T09:12:33Z</time>
      </trkpt>
      <trkpt lat="42.530518" lon="-6.504879">
        <ele>754.7</ele>
        <time>2022-08-19T09:12:57Z</time>
      </trkpt>
      <trkpt lat="42.530505" lon="-6.505136">
        <ele>750.9</ele>
        <time>2022-08-19T09:13:18Z</time>
      </trkpt>
      <trkpt lat="42.530497" lon="-6.505384">
        <ele>749.6</ele>
        <time>2022-08-19T09:13:37Z</time>
      </trkpt>
      <trkpt lat="42.530478" lon="-6.505637">
        <ele>744.7</ele>
        <time>2022-08-19T09:13:55Z</time>
      </trkpt>
      <trkpt lat="42.530412" lon="-6.505872">
        <ele>741.0</ele>
        <time>2022-08-19T09:14:14Z</time>
      </trkpt>
      <trkpt lat="42.530371" lon="-6.506122">
        <ele>739.6</ele>
        <time>2022-08-19T09:14:30Z</time>
      </trkpt>
      <trkpt lat="42.530268" lon="-6.506330">
        <ele>737.5</ele>
        <time>2022-08-19T09:14:48Z</time>
      </trkpt>
      <trkpt lat="42.530200" lon="-6.506573">
        <ele>737.6</ele>
        <time>2022-08-19T09:15:04Z</time>
      </trkpt>
      <trkpt lat="42.530131" lon="-6.506804">
        <ele>735.4</ele>
        <time>2022-08-19T09:15:22Z</time>
      </trkpt>
      <trkpt lat="42.530036" lon="-6.507012">
        <ele>733.6</ele>
        <time>2022-08-19T09:15:41Z</time>
      </trkpt>
      <trkpt lat="42.530052" lon="-6.507262">
        <ele>734.9</ele>
        <time>2022-08-19T09:16:01Z</time>
      </trkpt>
      <trkpt lat="42.530099" lon="-6.507508">
        <ele>733.6</ele>
        <time>2022-08-19T09:16:18Z</time>
      </trkpt>
      <trkpt lat="42.530158" lon="-6.507743">
        <ele>731.6</ele>
        <time>2022-08-19T09:16:33Z</time>
      </trkpt>
      <trkpt lat="42.530190" lon="-6.508002">
        <ele>732.6</ele>
        <time>2022-08-19T09:16:47Z</time>
      </trkpt>
      <trkpt lat="42.530178" lon="-6.508254">
        <ele>730.7</ele>
        <time>2022-08-19T09:17:04Z</time>
      </trkpt>
      <trkpt lat="42.530179" lon="-6.508501">
        <ele>730.0</ele>
        <time>2022-08-19T09:17:19Z</time>
      </trkpt>
      <trkpt lat="42.530206" lon="-6.508758">
        <ele>730.7</ele>
        <time>2022-08-19T09:17:38Z</time>
      </trkpt>
      <trkpt lat="42.530280" lon="-6.508985">
        <ele>730.7</ele>
        <time>2022-08-19T09:17:56Z</time>
      </trkpt>
      <trkpt lat="42.530396" lon="-6.509180">
        <ele>732.9</ele>
        <time>2022-08-19T09:18:18Z</time>
      </trkpt>
      <trkpt lat="42.530522" lon="-6.509372">
        <ele>735.6</ele>
        <time>2022-08-19T09:18:34Z</time>
      </trkpt>
      <trkpt lat="42.530624" lon="-6.509582">
        <ele>733.9</ele>
        <time>2022-08-19T09:18:58Z</time>
      </trkpt>
      <trkpt lat="42.530717" lon="-6.509799">
        <ele>732.0</ele>
        <time>2022-08-19T09:19:38Z</time>
      </trkpt>
      <trkpt lat="42.530818" lon="-6.510005">
        <ele>728.6</ele>
        <time>2022-08-19T09:20:26Z</time>
      </trkpt>
      <trkpt lat="42.530912" lon="-6.510216">
        <ele>724.9</ele>
        <time>2022-08-19T09:20:45Z</time>
      </trkpt>
      <trkpt lat="42.530951" lon="-6.510457">
        <ele>717.9</ele>
        <time>2022-08-19T09:21:02Z</time>
      </trkpt>
      <trkpt lat="42.531031" lon="-6.510676">
        <ele>714.9</ele>
        <time>2022-08-19T09:21:18Z</time>
      </trkpt>
      <trkpt lat="42.531185" lon="-6.510803">
        <ele>712.5</ele>
        <time>2022-08-19T09:21:33Z</time>
      </trkpt>
      <trkpt lat="42.531365" lon="-6.510770">
        <ele>712.3</ele>
        <time>2022-08-19T09:22:08Z</time>
      </trkpt>
      <trkpt lat="42.531549" lon="-6.510701">
        <ele>711.8</ele>
        <time>2022-08-19T09:22:24Z</time>
      </trkpt>
      <trkpt lat="42.531723" lon="-6.510637">
        <ele>709.6</ele>
        <time>2022-08-19T09:22:38Z</time>
      </trkpt>
      <trkpt lat="42.531907" lon="-6.510608">
        <ele>707.6</ele>
        <time>2022-08-19T09:22:55Z</time>
      </trkpt>
      <trkpt lat="42.532093" lon="-6.510581">
        <ele>703.6</ele>
        <time>2022-08-19T09:24:04Z</time>
      </trkpt>
      <trkpt lat="42.532278" lon="-6.510559">
        <ele>703.6</ele>
        <time>2022-08-19T09:24:24Z</time>
      </trkpt>
      <trkpt lat="42.532463" lon="-6.510548">
        <ele>702.7</ele>
        <time>2022-08-19T09:24:44Z</time>
      </trkpt>
      <trkpt lat="42.532609" lon="-6.510706">
        <ele>695.9</ele>
        <time>2022-08-19T09:25:11Z</time>
      </trkpt>
      <trkpt lat="42.532668" lon="-6.510945">
        <ele>690.6</ele>
        <time>2022-08-19T09:25:31Z</time>
      </trkpt>
      <trkpt lat="42.532733" lon="-6.511184">
        <ele>685.6</ele>
        <time>2022-08-19T09:25:48Z</time>
      </trkpt>
      <trkpt lat="42.532847" lon="-6.511389">
        <ele>681.0</ele>
        <time>2022-08-19T09:26:11Z</time>
      </trkpt>
      <trkpt lat="42.533015" lon="-6.511273">
        <ele>675.6</ele>
        <time>2022-08-19T09:26:35Z</time>
      </trkpt>
      <trkpt lat="42.533201" lon="-6.511259">
        <ele>676.3</ele>
        <time>2022-08-19T09:26:55Z</time>
      </trkpt>
      <trkpt lat="42.533385" lon="-6.511267">
        <ele>673.7</ele>
        <time>2022-08-19T09:27:11Z</time>
      </trkpt>
      <trkpt lat="42.533569" lon="-6.511258">
        <ele>667.7</ele>
        <time>2022-08-19T09:27:32Z</time>
      </trkpt>
      <trkpt lat="42.533751" lon="-6.511267">
        <ele>661.7</ele>
        <time>2022-08-19T09:27:56Z</time>
      </trkpt>
      <trkpt lat="42.533933" lon="-6.511249">
        <ele>657.6</ele>
        <time>2022-08-19T09:28:18Z</time>
      </trkpt>
      <trkpt lat="42.534117" lon="-6.511204">
        <ele>654.4</ele>
        <time>2022-08-19T09:28:35Z</time>
      </trkpt>
      <trkpt lat="42.534298" lon="-6.511211">
        <ele>650.9</ele>
        <time>2022-08-19T09:28:54Z</time>
      </trkpt>
      <trkpt lat="42.534466" lon="-6.511108">
        <ele>649.5</ele>
        <time>2022-08-19T09:29:09Z</time>
      </trkpt>
      <trkpt lat="42.534642" lon="-6.511050">
        <ele>649.7</ele>
        <time>2022-08-19T09:29:24Z</time>
      </trkpt>
      <trkpt lat="42.534816" lon="-6.510975">
        <ele>645.6</ele>
        <time>2022-08-19T09:29:42Z</time>
      </trkpt>
      <trkpt lat="42.534998" lon="-6.510922">
        <ele>643.7</ele>
        <time>2022-08-19T09:29:56Z</time>
      </trkpt>
      <trkpt lat="42.535012" lon="-6.511171">
        <ele>638.6</ele>
        <time>2022-08-19T09:30:20Z</time>
      </trkpt>
      <trkpt lat="42.534979" lon="-6.511419">
        <ele>637.9</ele>
        <time>2022-08-19T09:30:33Z</time>
      </trkpt>
      <trkpt lat="42.534975" lon="-6.511670">
        <ele>636.8</ele>
        <time>2022-08-19T09:30:46Z</time>
      </trkpt>
      <trkpt lat="42.534867" lon="-6.511881">
        <ele>636.6</ele>
        <time>2022-08-19T09:31:02Z</time>
      </trkpt>
      <trkpt lat="42.534720" lon="-6.512043">
        <ele>634.0</ele>
        <time>2022-08-19T09:31:16Z</time>
      </trkpt>
      <trkpt lat="42.534632" lon="-6.512258">
        <ele>634.6</ele>
        <time>2022-08-19T09:31:29Z</time>
      </trkpt>
      <trkpt lat="42.534571" lon="-6.512492">
        <ele>634.5</ele>
        <time>2022-08-19T09:31:45Z</time>
      </trkpt>
      <trkpt lat="42.534469" lon="-6.512702">
        <ele>637.3</ele>
        <time>2022-08-19T09:32:00Z</time>
      </trkpt>
      <trkpt lat="42.534356" lon="-6.512897">
        <ele>640.6</ele>
        <time>2022-08-19T09:32:18Z</time>
      </trkpt>
      <trkpt lat="42.534224" lon="-6.513080">
        <ele>638.3</ele>
        <time>2022-08-19T09:32:37Z</time>
      </trkpt>
      <trkpt lat="42.534175" lon="-6.513331">
        <ele>638.6</ele>
        <time>2022-08-19T09:32:54Z</time>
      </trkpt>
      <trkpt lat="42.534164" lon="-6.513588">
        <ele>637.6</ele>
        <time>2022-08-19T09:33:10Z</time>
      </trkpt>
      <trkpt lat="42.534185" lon="-6.513835">
        <ele>637.4</ele>
        <time>2022-08-19T09:33:25Z</time>
      </trkpt>
      <trkpt lat="42.534320" lon="-6.514002">
        <ele>636.6</ele>
        <time>2022-08-19T09:33:39Z</time>
      </trkpt>
      <trkpt lat="42.534490" lon="-6.514113">
        <ele>637.3</ele>
        <time>2022-08-19T09:33:54Z</time>
      </trkpt>
      <trkpt lat="42.534656" lon="-6.514228">
        <ele>637.6</ele>
        <time>2022-08-19T09:34:07Z</time>
      </trkpt>
      <trkpt lat="42.534738" lon="-6.514445">
        <ele>634.4</ele>
        <time>2022-08-19T09:34:22Z</time>
      </trkpt>
      <trkpt lat="42.534721" lon="-6.514697">
        <ele>629.6</ele>
        <time>2022-08-19T09:34:45Z</time>
      </trkpt>
      <trkpt lat="42.534754" lon="-6.514945">
        <ele>624.4</ele>
        <time>2022-08-19T09:35:13Z</time>
      </trkpt>
      <trkpt lat="42.534799" lon="-6.515186">
        <ele>618.7</ele>
        <time>2022-08-19T09:35:33Z</time>
      </trkpt>
      <trkpt lat="42.534776" lon="-6.515434">
        <ele>615.7</ele>
        <time>2022-08-19T09:35:55Z</time>
      </trkpt>
      <trkpt lat="42.534807" lon="-6.515685">
        <ele>610.7</ele>
        <time>2022-08-19T09:36:14Z</time>
      </trkpt>
      <trkpt lat="42.534829" lon="-6.515937">
        <ele>608.6</ele>
        <time>2022-08-19T09:36:33Z</time>
      </trkpt>
      <trkpt lat="42.534875" lon="-6.516177">
        <ele>603.5</ele>
        <time>2022-08-19T09:36:51Z</time>
      </trkpt>
      <trkpt lat="42.534937" lon="-6.516417">
        <ele>603.0</ele>
        <time>2022-08-19T09:37:33Z</time>
      </trkpt>
      <trkpt lat="42.535058" lon="-6.516605">
        <ele>600.6</ele>
        <time>2022-08-19T09:37:52Z</time>
      </trkpt>
      <trkpt lat="42.535168" lon="-6.516802">
        <ele>600.6</ele>
        <time>2022-08-19T09:38:15Z</time>
      </trkpt>
      <trkpt lat="42.535337" lon="-6.516896">
        <ele>598.9</ele>
        <time>2022-08-19T09:38:53Z</time>
      </trkpt>
      <trkpt lat="42.535511" lon="-6.516984">
        <ele>599.7</ele>
        <time>2022-08-19T09:39:07Z</time>
      </trkpt>
      <trkpt lat="42.535684" lon="-6.517082">
        <ele>601.6</ele>
        <time>2022-08-19T09:39:21Z</time>
      </trkpt>
      <trkpt lat="42.535848" lon="-6.517189">
        <ele>601.6</ele>
        <time>2022-08-19T09:39:42Z</time>
      </trkpt>
      <trkpt lat="42.536031" lon="-6.517254">
        <ele>598.9</ele>
        <time>2022-08-19T09:39:58Z</time>
      </trkpt>
      <trkpt lat="42.536210" lon="-6.517341">
        <ele>597.6</ele>
        <time>2022-08-19T09:40:13Z</time>
      </trkpt>
      <trkpt lat="42.536391" lon="-6.517310">
        <ele>593.6</ele>
        <time>2022-08-19T09:40:47Z</time>
      </trkpt>
      <trkpt lat="42.536530" lon="-6.517324">
        <ele>594.4</ele>
        <time>2022-08-19T09:54:16Z</time>
      </trkpt>
      <trkpt lat="42.536639" lon="-6.517326">
        <ele>582.7</ele>
        <time>2022-08-19T09:54:27Z</time>
      </trkpt>
      <trkpt lat="42.536818" lon="-6.517370">
        <ele>578.7</ele>
        <time>2022-08-19T09:54:40Z</time>
      </trkpt>
      <trkpt lat="42.536955" lon="-6.517529">
        <ele>585.6</ele>
        <time>2022-08-19T09:54:57Z</time>
      </trkpt>
      <trkpt lat="42.537110" lon="-6.517667">
        <ele>584.6</ele>
        <time>2022-08-19T09:55:12Z</time>
      </trkpt>
      <trkpt lat="42.537246" lon="-6.517830">
        <ele>584.9</ele>
        <time>2022-08-19T09:55:27Z</time>
      </trkpt>
      <trkpt lat="42.537356" lon="-6.518026">
        <ele>581.9</ele>
        <time>2022-08-19T09:55:44Z</time>
      </trkpt>
      <trkpt lat="42.537516" lon="-6.518155">
        <ele>578.6</ele>
        <time>2022-08-19T09:56:25Z</time>
      </trkpt>
      <trkpt lat="42.537574" lon="-6.518395">
        <ele>578.6</ele>
        <time>2022-08-19T09:56:46Z</time>
      </trkpt>
      <trkpt lat="42.537598" lon="-6.518648">
        <ele>576.6</ele>
        <time>2022-08-19T09:57:29Z</time>
      </trkpt>
      <trkpt lat="42.537594" lon="-6.518896">
        <ele>577.6</ele>
        <time>2022-08-19T09:58:10Z</time>
      </trkpt>
      <trkpt lat="42.537611" lon="-6.519143">
        <ele>571.6</ele>
        <time>2022-08-19T09:58:39Z</time>
      </trkpt>
      <trkpt lat="42.537735" lon="-6.519326">
        <ele>569.6</ele>
        <time>2022-08-19T09:59:41Z</time>
      </trkpt>
      <trkpt lat="42.537789" lon="-6.519567">
        <ele>571.6</ele>
        <time>2022-08-19T09:59:58Z</time>
      </trkpt>
      <trkpt lat="42.537879" lon="-6.519935">
        <ele>559.0</ele>
        <time>2022-08-19T10:00:27Z</time>
      </trkpt>
      <trkpt lat="42.537936" lon="-6.520149">
        <ele>554.6</ele>
        <time>2022-08-19T10:00:46Z</time>
      </trkpt>
      <trkpt lat="42.537995" lon="-6.520367">
        <ele>605.5</ele>
        <time>2022-08-19T10:00:59Z</time>
      </trkpt>
      <trkpt lat="42.538073" lon="-6.520602">
        <ele>583.0</ele>
        <time>2022-08-19T10:01:09Z</time>
      </trkpt>
      <trkpt lat="42.538186" lon="-6.520794">
        <ele>565.6</ele>
        <time>2022-08-19T10:01:31Z</time>
      </trkpt>
      <trkpt lat="42.538230" lon="-6.521031">
        <ele>567.6</ele>
        <time>2022-08-19T10:01:44Z</time>
      </trkpt>
      <trkpt lat="42.538283" lon="-6.521264">
        <ele>565.6</ele>
        <time>2022-08-19T10:01:58Z</time>
      </trkpt>
      <trkpt lat="42.538376" lon="-6.521474">
        <ele>563.6</ele>
        <time>2022-08-19T10:02:25Z</time>
      </trkpt>
      <trkpt lat="42.538447" lon="-6.521677">
        <ele>558.5</ele>
        <time>2022-08-19T10:03:10Z</time>
      </trkpt>
      <trkpt lat="42.538506" lon="-6.521924">
        <ele>561.3</ele>
        <time>2022-08-19T10:03:24Z</time>
      </trkpt>
      <trkpt lat="42.538585" lon="-6.522134">
        <ele>563.6</ele>
        <time>2022-08-19T10:03:37Z</time>
      </trkpt>
      <trkpt lat="42.538640" lon="-6.522364">
        <ele>567.6</ele>
        <time>2022-08-19T10:03:49Z</time>
      </trkpt>
      <trkpt lat="42.538776" lon="-6.522566">
        <ele>569.6</ele>
        <time>2022-08-19T10:04:33Z</time>
      </trkpt>
      <trkpt lat="42.538931" lon="-6.522708">
        <ele>571.6</ele>
        <time>2022-08-19T10:04:45Z</time>
      </trkpt>
      <trkpt lat="42.539083" lon="-6.522840">
        <ele>570.6</ele>
        <time>2022-08-19T10:05:17Z</time>
      </trkpt>
      <trkpt lat="42.539140" lon="-6.523075">
        <ele>567.9</ele>
        <time>2022-08-19T10:05:31Z</time>
      </trkpt>
      <trkpt lat="42.539236" lon="-6.523294">
        <ele>565.9</ele>
        <time>2022-08-19T10:05:47Z</time>
      </trkpt>
      <trkpt lat="42.539315" lon="-6.523518">
        <ele>560.6</ele>
        <time>2022-08-19T10:06:05Z</time>
      </trkpt>
      <trkpt lat="42.539409" lon="-6.523741">
        <ele>566.6</ele>
        <time>2022-08-19T10:06:18Z</time>
      </trkpt>
      <trkpt lat="42.539506" lon="-6.523948">
        <ele>567.6</ele>
        <time>2022-08-19T10:06:31Z</time>
      </trkpt>
      <trkpt lat="42.539631" lon="-6.524127">
        <ele>569.6</ele>
        <time>2022-08-19T10:06:44Z</time>
      </trkpt>
      <trkpt lat="42.539733" lon="-6.524332">
        <ele>569.6</ele>
        <time>2022-08-19T10:06:57Z</time>
      </trkpt>
      <trkpt lat="42.539836" lon="-6.524542">
        <ele>570.6</ele>
        <time>2022-08-19T10:07:11Z</time>
      </trkpt>
      <trkpt lat="42.539962" lon="-6.524727">
        <ele>569.7</ele>
        <time>2022-08-19T10:07:26Z</time>
      </trkpt>
      <trkpt lat="42.540112" lon="-6.524866">
        <ele>565.9</ele>
        <time>2022-08-19T10:07:40Z</time>
      </trkpt>
      <trkpt lat="42.540204" lon="-6.525095">
        <ele>563.6</ele>
        <time>2022-08-19T10:07:54Z</time>
      </trkpt>
      <trkpt lat="42.540330" lon="-6.525272">
        <ele>566.6</ele>
        <time>2022-08-19T10:08:06Z</time>
      </trkpt>
      <trkpt lat="42.540414" lon="-6.525488">
        <ele>567.6</ele>
        <time>2022-08-19T10:08:20Z</time>
      </trkpt>
      <trkpt lat="42.540493" lon="-6.525718">
        <ele>569.6</ele>
        <time>2022-08-19T10:08:34Z</time>
      </trkpt>
      <trkpt lat="42.540616" lon="-6.525897">
        <ele>571.6</ele>
        <time>2022-08-19T10:08:48Z</time>
      </trkpt>
      <trkpt lat="42.540735" lon="-6.526090">
        <ele>571.3</ele>
        <time>2022-08-19T10:09:03Z</time>
      </trkpt>
      <trkpt lat="42.540867" lon="-6.526270">
        <ele>568.7</ele>
        <time>2022-08-19T10:09:15Z</time>
      </trkpt>
      <trkpt lat="42.540978" lon="-6.526462">
        <ele>566.6</ele>
        <time>2022-08-19T10:09:29Z</time>
      </trkpt>
      <trkpt lat="42.541115" lon="-6.526632">
        <ele>567.6</ele>
        <time>2022-08-19T10:09:42Z</time>
      </trkpt>
      <trkpt lat="42.541238" lon="-6.526819">
        <ele>565.6</ele>
        <time>2022-08-19T10:09:55Z</time>
      </trkpt>
      <trkpt lat="42.541364" lon="-6.527012">
        <ele>564.6</ele>
        <time>2022-08-19T10:10:10Z</time>
      </trkpt>
      <trkpt lat="42.541480" lon="-6.527202">
        <ele>565.5</ele>
        <time>2022-08-19T10:10:23Z</time>
      </trkpt>
      <trkpt lat="42.541610" lon="-6.527381">
        <ele>566.6</ele>
        <time>2022-08-19T10:10:36Z</time>
      </trkpt>
      <trkpt lat="42.541707" lon="-6.527594">
        <ele>565.6</ele>
        <time>2022-08-19T10:10:51Z</time>
      </trkpt>
      <trkpt lat="42.541841" lon="-6.527758">
        <ele>566.6</ele>
        <time>2022-08-19T10:11:09Z</time>
      </trkpt>
      <trkpt lat="42.541958" lon="-6.527953">
        <ele>566.7</ele>
        <time>2022-08-19T10:11:25Z</time>
      </trkpt>
      <trkpt lat="42.542052" lon="-6.528166">
        <ele>565.7</ele>
        <time>2022-08-19T10:11:37Z</time>
      </trkpt>
      <trkpt lat="42.542159" lon="-6.528379">
        <ele>567.6</ele>
        <time>2022-08-19T10:11:52Z</time>
      </trkpt>
      <trkpt lat="42.542280" lon="-6.528562">
        <ele>569.5</ele>
        <time>2022-08-19T10:12:04Z</time>
      </trkpt>
      <trkpt lat="42.542376" lon="-6.528786">
        <ele>569.5</ele>
        <time>2022-08-19T10:12:18Z</time>
      </trkpt>
      <trkpt lat="42.542462" lon="-6.529002">
        <ele>567.6</ele>
        <time>2022-08-19T10:12:32Z</time>
      </trkpt>
      <trkpt lat="42.542541" lon="-6.529224">
        <ele>568.6</ele>
        <time>2022-08-19T10:12:45Z</time>
      </trkpt>
      <trkpt lat="42.542643" lon="-6.529425">
        <ele>565.9</ele>
        <time>2022-08-19T10:12:59Z</time>
      </trkpt>
      <trkpt lat="42.542762" lon="-6.529613">
        <ele>568.8</ele>
        <time>2022-08-19T10:13:13Z</time>
      </trkpt>
      <trkpt lat="42.542839" lon="-6.529839">
        <ele>566.7</ele>
        <time>2022-08-19T10:13:28Z</time>
      </trkpt>
      <trkpt lat="42.542929" lon="-6.530052">
        <ele>563.5</ele>
        <time>2022-08-19T10:13:42Z</time>
      </trkpt>
      <trkpt lat="42.543005" lon="-6.530287">
        <ele>563.6</ele>
        <time>2022-08-19T10:13:58Z</time>
      </trkpt>
      <trkpt lat="42.543123" lon="-6.530490">
        <ele>562.6</ele>
        <time>2022-08-19T10:14:09Z</time>
      </trkpt>
      <trkpt lat="42.543235" lon="-6.530689">
        <ele>560.9</ele>
        <time>2022-08-19T10:14:23Z</time>
      </trkpt>
      <trkpt lat="42.543326" lon="-6.530905">
        <ele>562.6</ele>
        <time>2022-08-19T10:14:38Z</time>
      </trkpt>
      <trkpt lat="42.543426" lon="-6.531117">
        <ele>562.7</ele>
        <time>2022-08-19T10:14:52Z</time>
      </trkpt>
      <trkpt lat="42.543526" lon="-6.531325">
        <ele>562.6</ele>
        <time>2022-08-19T10:15:06Z</time>
      </trkpt>
      <trkpt lat="42.543650" lon="-6.531534">
        <ele>572.5</ele>
        <time>2022-08-19T10:33:00Z</time>
      </trkpt>
      <trkpt lat="42.543748" lon="-6.531746">
        <ele>572.4</ele>
        <time>2022-08-19T10:33:15Z</time>
      </trkpt>
      <trkpt lat="42.543839" lon="-6.531968">
        <ele>570.7</ele>
        <time>2022-08-19T10:33:36Z</time>
      </trkpt>
      <trkpt lat="42.543933" lon="-6.532176">
        <ele>570.7</ele>
        <time>2022-08-19T10:33:51Z</time>
      </trkpt>
      <trkpt lat="42.544042" lon="-6.532387">
        <ele>570.7</ele>
        <time>2022-08-19T10:34:04Z</time>
      </trkpt>
      <trkpt lat="42.544155" lon="-6.532599">
        <ele>570.7</ele>
        <time>2022-08-19T10:34:17Z</time>
      </trkpt>
      <trkpt lat="42.544241" lon="-6.532822">
        <ele>570.7</ele>
        <time>2022-08-19T10:34:30Z</time>
      </trkpt>
      <trkpt lat="42.544363" lon="-6.533025">
        <ele>570.7</ele>
        <time>2022-08-19T10:34:44Z</time>
      </trkpt>
      <trkpt lat="42.544463" lon="-6.533229">
        <ele>565.4</ele>
        <time>2022-08-19T10:34:57Z</time>
      </trkpt>
      <trkpt lat="42.544566" lon="-6.533438">
        <ele>570.1</ele>
        <time>2022-08-19T10:35:08Z</time>
      </trkpt>
      <trkpt lat="42.544660" lon="-6.533658">
        <ele>570.1</ele>
        <time>2022-08-19T10:35:23Z</time>
      </trkpt>
      <trkpt lat="42.544767" lon="-6.533866">
        <ele>570.2</ele>
        <time>2022-08-19T10:35:36Z</time>
      </trkpt>
      <trkpt lat="42.544878" lon="-6.534082">
        <ele>570.3</ele>
        <time>2022-08-19T10:35:52Z</time>
      </trkpt>
      <trkpt lat="42.544986" lon="-6.534310">
        <ele>569.6</ele>
        <time>2022-08-19T10:36:06Z</time>
      </trkpt>
      <trkpt lat="42.545093" lon="-6.534527">
        <ele>570.3</ele>
        <time>2022-08-19T10:36:22Z</time>
      </trkpt>
      <trkpt lat="42.545186" lon="-6.534745">
        <ele>570.3</ele>
        <time>2022-08-19T10:36:35Z</time>
      </trkpt>
      <trkpt lat="42.545288" lon="-6.534981">
        <ele>570.3</ele>
        <time>2022-08-19T10:36:50Z</time>
      </trkpt>
      <trkpt lat="42.545387" lon="-6.535196">
        <ele>570.3</ele>
        <time>2022-08-19T10:37:04Z</time>
      </trkpt>
      <trkpt lat="42.545489" lon="-6.535401">
        <ele>570.3</ele>
        <time>2022-08-19T10:37:17Z</time>
      </trkpt>
      <trkpt lat="42.545589" lon="-6.535615">
        <ele>570.3</ele>
        <time>2022-08-19T10:37:31Z</time>
      </trkpt>
      <trkpt lat="42.545668" lon="-6.535840">
        <ele>566.7</ele>
        <time>2022-08-19T10:37:44Z</time>
      </trkpt>
      <trkpt lat="42.545709" lon="-6.536095">
        <ele>568.6</ele>
        <time>2022-08-19T10:37:57Z</time>
      </trkpt>
      <trkpt lat="42.545710" lon="-6.536341">
        <ele>570.6</ele>
        <time>2022-08-19T10:38:13Z</time>
      </trkpt>
      <trkpt lat="42.545670" lon="-6.536580">
        <ele>572.6</ele>
        <time>2022-08-19T10:38:25Z</time>
      </trkpt>
      <trkpt lat="42.545654" lon="-6.536832">
        <ele>573.6</ele>
        <time>2022-08-19T10:38:38Z</time>
      </trkpt>
      <trkpt lat="42.545631" lon="-6.537086">
        <ele>573.6</ele>
        <time>2022-08-19T10:38:52Z</time>
      </trkpt>
      <trkpt lat="42.545640" lon="-6.537338">
        <ele>573.6</ele>
        <time>2022-08-19T10:39:06Z</time>
      </trkpt>
      <trkpt lat="42.545662" lon="-6.537590">
        <ele>574.6</ele>
        <time>2022-08-19T10:39:21Z</time>
      </trkpt>
      <trkpt lat="42.545700" lon="-6.537838">
        <ele>576.6</ele>
        <time>2022-08-19T10:39:35Z</time>
      </trkpt>
      <trkpt lat="42.545744" lon="-6.538075">
        <ele>575.6</ele>
        <time>2022-08-19T10:39:48Z</time>
      </trkpt>
      <trkpt lat="42.545824" lon="-6.538302">
        <ele>576.6</ele>
        <time>2022-08-19T10:40:01Z</time>
      </trkpt>
      <trkpt lat="42.545943" lon="-6.538510">
        <ele>578.6</ele>
        <time>2022-08-19T10:40:14Z</time>
      </trkpt>
      <trkpt lat="42.546040" lon="-6.538719">
        <ele>577.7</ele>
        <time>2022-08-19T10:40:28Z</time>
      </trkpt>
      <trkpt lat="42.546141" lon="-6.538922">
        <ele>578.6</ele>
        <time>2022-08-19T10:40:41Z</time>
      </trkpt>
      <trkpt lat="42.546230" lon="-6.539142">
        <ele>579.6</ele>
        <time>2022-08-19T10:40:54Z</time>
      </trkpt>
      <trkpt lat="42.546282" lon="-6.539383">
        <ele>578.7</ele>
        <time>2022-08-19T10:41:07Z</time>
      </trkpt>
      <trkpt lat="42.546299" lon="-6.539627">
        <ele>580.6</ele>
        <time>2022-08-19T10:41:21Z</time>
      </trkpt>
      <trkpt lat="42.546304" lon="-6.539872">
        <ele>579.8</ele>
        <time>2022-08-19T10:41:33Z</time>
      </trkpt>
      <trkpt lat="42.546322" lon="-6.540132">
        <ele>580.6</ele>
        <time>2022-08-19T10:41:47Z</time>
      </trkpt>
      <trkpt lat="42.546335" lon="-6.540378">
        <ele>580.6</ele>
        <time>2022-08-19T10:42:01Z</time>
      </trkpt>
      <trkpt lat="42.546358" lon="-6.540634">
        <ele>578.6</ele>
        <time>2022-08-19T10:42:15Z</time>
      </trkpt>
      <trkpt lat="42.546363" lon="-6.540878">
        <ele>580.3</ele>
        <time>2022-08-19T10:42:28Z</time>
      </trkpt>
      <trkpt lat="42.546370" lon="-6.541133">
        <ele>580.6</ele>
        <time>2022-08-19T10:42:43Z</time>
      </trkpt>
      <trkpt lat="42.546389" lon="-6.541386">
        <ele>580.6</ele>
        <time>2022-08-19T10:42:56Z</time>
      </trkpt>
      <trkpt lat="42.546401" lon="-6.541641">
        <ele>582.5</ele>
        <time>2022-08-19T10:43:09Z</time>
      </trkpt>
      <trkpt lat="42.546411" lon="-6.541886">
        <ele>583.3</ele>
        <time>2022-08-19T10:43:23Z</time>
      </trkpt>
      <trkpt lat="42.546412" lon="-6.542136">
        <ele>583.6</ele>
        <time>2022-08-19T10:43:38Z</time>
      </trkpt>
      <trkpt lat="42.546381" lon="-6.542395">
        <ele>584.6</ele>
        <time>2022-08-19T10:43:52Z</time>
      </trkpt>
      <trkpt lat="42.546354" lon="-6.542637">
        <ele>583.6</ele>
        <time>2022-08-19T10:44:05Z</time>
      </trkpt>
      <trkpt lat="42.546326" lon="-6.542881">
        <ele>585.6</ele>
        <time>2022-08-19T10:44:18Z</time>
      </trkpt>
      <trkpt lat="42.546309" lon="-6.543134">
        <ele>587.6</ele>
        <time>2022-08-19T10:44:32Z</time>
      </trkpt>
      <trkpt lat="42.546294" lon="-6.543385">
        <ele>587.6</ele>
        <time>2022-08-19T10:44:45Z</time>
      </trkpt>
      <trkpt lat="42.546271" lon="-6.543629">
        <ele>588.6</ele>
        <time>2022-08-19T10:44:58Z</time>
      </trkpt>
      <trkpt lat="42.546239" lon="-6.543870">
        <ele>589.6</ele>
        <time>2022-08-19T10:45:12Z</time>
      </trkpt>
      <trkpt lat="42.546228" lon="-6.544116">
        <ele>588.6</ele>
        <time>2022-08-19T10:45:26Z</time>
      </trkpt>
      <trkpt lat="42.546212" lon="-6.544361">
        <ele>589.6</ele>
        <time>2022-08-19T10:45:40Z</time>
      </trkpt>
      <trkpt lat="42.546187" lon="-6.544605">
        <ele>590.8</ele>
        <time>2022-08-19T10:45:53Z</time>
      </trkpt>
      <trkpt lat="42.546157" lon="-6.544858">
        <ele>590.6</ele>
        <time>2022-08-19T10:46:07Z</time>
      </trkpt>
      <trkpt lat="42.546144" lon="-6.545104">
        <ele>591.6</ele>
        <time>2022-08-19T10:46:20Z</time>
      </trkpt>
      <trkpt lat="42.546117" lon="-6.545353">
        <ele>592.6</ele>
        <time>2022-08-19T10:46:34Z</time>
      </trkpt>
      <trkpt lat="42.546107" lon="-6.545608">
        <ele>594.3</ele>
        <time>2022-08-19T10:46:48Z</time>
      </trkpt>
      <trkpt lat="42.546086" lon="-6.545851">
        <ele>596.5</ele>
        <time>2022-08-19T10:47:02Z</time>
      </trkpt>
      <trkpt lat="42.546056" lon="-6.546096">
        <ele>598.6</ele>
        <time>2022-08-19T10:47:16Z</time>
      </trkpt>
      <trkpt lat="42.546040" lon="-6.546346">
        <ele>596.7</ele>
        <time>2022-08-19T10:47:32Z</time>
      </trkpt>
      <trkpt lat="42.546025" lon="-6.546591">
        <ele>597.6</ele>
        <time>2022-08-19T10:47:46Z</time>
      </trkpt>
      <trkpt lat="42.545992" lon="-6.546835">
        <ele>598.6</ele>
        <time>2022-08-19T10:47:59Z</time>
      </trkpt>
      <trkpt lat="42.545969" lon="-6.547100">
        <ele>598.6</ele>
        <time>2022-08-19T10:48:14Z</time>
      </trkpt>
      <trkpt lat="42.545939" lon="-6.547344">
        <ele>599.6</ele>
        <time>2022-08-19T10:48:26Z</time>
      </trkpt>
      <trkpt lat="42.545913" lon="-6.547603">
        <ele>599.6</ele>
        <time>2022-08-19T10:48:39Z</time>
      </trkpt>
      <trkpt lat="42.545904" lon="-6.547855">
        <ele>601.6</ele>
        <time>2022-08-19T10:48:52Z</time>
      </trkpt>
      <trkpt lat="42.545883" lon="-6.548117">
        <ele>601.7</ele>
        <time>2022-08-19T10:49:04Z</time>
      </trkpt>
      <trkpt lat="42.545847" lon="-6.548367">
        <ele>603.6</ele>
        <time>2022-08-19T10:49:18Z</time>
      </trkpt>
      <trkpt lat="42.545792" lon="-6.548617">
        <ele>602.3</ele>
        <time>2022-08-19T10:49:32Z</time>
      </trkpt>
      <trkpt lat="42.545710" lon="-6.548850">
        <ele>602.6</ele>
        <time>2022-08-19T10:49:46Z</time>
      </trkpt>
      <trkpt lat="42.545616" lon="-6.549073">
        <ele>600.7</ele>
        <time>2022-08-19T10:49:59Z</time>
      </trkpt>
      <trkpt lat="42.545517" lon="-6.549293">
        <ele>602.3</ele>
        <time>2022-08-19T10:50:13Z</time>
      </trkpt>
      <trkpt lat="42.545429" lon="-6.549519">
        <ele>604.5</ele>
        <time>2022-08-19T10:50:26Z</time>
      </trkpt>
      <trkpt lat="42.545362" lon="-6.549754">
        <ele>605.3</ele>
        <time>2022-08-19T10:50:40Z</time>
      </trkpt>
      <trkpt lat="42.545347" lon="-6.550005">
        <ele>601.7</ele>
        <time>2022-08-19T10:50:57Z</time>
      </trkpt>
      <trkpt lat="42.545341" lon="-6.550249">
        <ele>600.6</ele>
        <time>2022-08-19T10:51:44Z</time>
      </trkpt>
      <trkpt lat="42.545170" lon="-6.550364">
        <ele>598.7</ele>
        <time>2022-08-19T10:52:01Z</time>
      </trkpt>
      <trkpt lat="42.545076" lon="-6.550578">
        <ele>596.6</ele>
        <time>2022-08-19T10:52:17Z</time>
      </trkpt>
      <trkpt lat="42.544997" lon="-6.550805">
        <ele>596.3</ele>
        <time>2022-08-19T10:52:30Z</time>
      </trkpt>
      <trkpt lat="42.544927" lon="-6.551031">
        <ele>593.6</ele>
        <time>2022-08-19T10:52:44Z</time>
      </trkpt>
      <trkpt lat="42.544860" lon="-6.551271">
        <ele>592.6</ele>
        <time>2022-08-19T10:52:58Z</time>
      </trkpt>
      <trkpt lat="42.544807" lon="-6.551512">
        <ele>591.9</ele>
        <time>2022-08-19T10:53:13Z</time>
      </trkpt>
      <trkpt lat="42.544770" lon="-6.551752">
        <ele>589.7</ele>
        <time>2022-08-19T10:53:27Z</time>
      </trkpt>
      <trkpt lat="42.544689" lon="-6.551976">
        <ele>589.6</ele>
        <time>2022-08-19T10:53:40Z</time>
      </trkpt>
      <trkpt lat="42.544675" lon="-6.552228">
        <ele>588.6</ele>
        <time>2022-08-19T10:53:55Z</time>
      </trkpt>
      <trkpt lat="42.544623" lon="-6.552487">
        <ele>587.6</ele>
        <time>2022-08-19T10:54:10Z</time>
      </trkpt>
      <trkpt lat="42.544585" lon="-6.552738">
        <ele>585.7</ele>
        <time>2022-08-19T10:54:26Z</time>
      </trkpt>
      <trkpt lat="42.544509" lon="-6.552961">
        <ele>582.6</ele>
        <time>2022-08-19T10:54:40Z</time>
      </trkpt>
      <trkpt lat="42.544448" lon="-6.553208">
        <ele>580.6</ele>
        <time>2022-08-19T10:54:56Z</time>
      </trkpt>
      <trkpt lat="42.544350" lon="-6.553428">
        <ele>575.4</ele>
        <time>2022-08-19T10:55:26Z</time>
      </trkpt>
      <trkpt lat="42.544266" lon="-6.553644">
        <ele>572.7</ele>
        <time>2022-08-19T10:55:41Z</time>
      </trkpt>
      <trkpt lat="42.544193" lon="-6.553868">
        <ele>569.6</ele>
        <time>2022-08-19T10:55:58Z</time>
      </trkpt>
      <trkpt lat="42.544105" lon="-6.554094">
        <ele>569.5</ele>
        <time>2022-08-19T10:56:12Z</time>
      </trkpt>
      <trkpt lat="42.544065" lon="-6.554350">
        <ele>568.6</ele>
        <time>2022-08-19T10:56:29Z</time>
      </trkpt>
      <trkpt lat="42.544042" lon="-6.554599">
        <ele>563.6</ele>
        <time>2022-08-19T10:56:43Z</time>
      </trkpt>
      <trkpt lat="42.543989" lon="-6.554852">
        <ele>561.6</ele>
        <time>2022-08-19T10:56:56Z</time>
      </trkpt>
      <trkpt lat="42.543954" lon="-6.555104">
        <ele>558.7</ele>
        <time>2022-08-19T10:57:11Z</time>
      </trkpt>
      <trkpt lat="42.543959" lon="-6.555359">
        <ele>554.6</ele>
        <time>2022-08-19T10:57:28Z</time>
      </trkpt>
      <trkpt lat="42.543967" lon="-6.555622">
        <ele>552.6</ele>
        <time>2022-08-19T10:57:44Z</time>
      </trkpt>
      <trkpt lat="42.543868" lon="-6.555839">
        <ele>551.6</ele>
        <time>2022-08-19T10:57:57Z</time>
      </trkpt>
      <trkpt lat="42.543703" lon="-6.555970">
        <ele>549.6</ele>
        <time>2022-08-19T10:58:10Z</time>
      </trkpt>
      <trkpt lat="42.543544" lon="-6.556103">
        <ele>548.7</ele>
        <time>2022-08-19T10:58:23Z</time>
      </trkpt>
      <trkpt lat="42.543391" lon="-6.556235">
        <ele>548.6</ele>
        <time>2022-08-19T10:58:36Z</time>
      </trkpt>
      <trkpt lat="42.543255" lon="-6.556421">
        <ele>549.5</ele>
        <time>2022-08-19T10:58:51Z</time>
      </trkpt>
      <trkpt lat="42.543117" lon="-6.556591">
        <ele>546.7</ele>
        <time>2022-08-19T10:59:05Z</time>
      </trkpt>
      <trkpt lat="42.542972" lon="-6.556761">
        <ele>548.9</ele>
        <time>2022-08-19T10:59:20Z</time>
      </trkpt>
      <trkpt lat="42.542841" lon="-6.556930">
        <ele>549.6</ele>
        <time>2022-08-19T10:59:34Z</time>
      </trkpt>
      <trkpt lat="42.542698" lon="-6.557098">
        <ele>550.3</ele>
        <time>2022-08-19T10:59:48Z</time>
      </trkpt>
      <trkpt lat="42.542550" lon="-6.557259">
        <ele>550.7</ele>
        <time>2022-08-19T11:00:02Z</time>
      </trkpt>
      <trkpt lat="42.542424" lon="-6.557436">
        <ele>553.6</ele>
        <time>2022-08-19T11:00:17Z</time>
      </trkpt>
      <trkpt lat="42.542295" lon="-6.557607">
        <ele>554.9</ele>
        <time>2022-08-19T11:00:35Z</time>
      </trkpt>
      <trkpt lat="42.542156" lon="-6.557765">
        <ele>555.6</ele>
        <time>2022-08-19T11:00:48Z</time>
      </trkpt>
      <trkpt lat="42.542002" lon="-6.557911">
        <ele>556.5</ele>
        <time>2022-08-19T11:01:03Z</time>
      </trkpt>
      <trkpt lat="42.541897" lon="-6.558130">
        <ele>561.6</ele>
        <time>2022-08-19T11:02:09Z</time>
      </trkpt>
      <trkpt lat="42.541834" lon="-6.558375">
        <ele>565.3</ele>
        <time>2022-08-19T11:02:24Z</time>
      </trkpt>
      <trkpt lat="42.541738" lon="-6.558596">
        <ele>566.6</ele>
        <time>2022-08-19T11:02:40Z</time>
      </trkpt>
      <trkpt lat="42.541622" lon="-6.558803">
        <ele>569.6</ele>
        <time>2022-08-19T11:02:56Z</time>
      </trkpt>
      <trkpt lat="42.541494" lon="-6.558976">
        <ele>570.6</ele>
        <time>2022-08-19T11:03:15Z</time>
      </trkpt>
      <trkpt lat="42.541406" lon="-6.559206">
        <ele>572.6</ele>
        <time>2022-08-19T11:03:31Z</time>
      </trkpt>
      <trkpt lat="42.541350" lon="-6.559454">
        <ele>574.5</ele>
        <time>2022-08-19T11:03:44Z</time>
      </trkpt>
      <trkpt lat="42.541273" lon="-6.559678">
        <ele>572.7</ele>
        <time>2022-08-19T11:04:00Z</time>
      </trkpt>
      <trkpt lat="42.541157" lon="-6.559876">
        <ele>569.6</ele>
        <time>2022-08-19T11:04:14Z</time>
      </trkpt>
      <trkpt lat="42.541022" lon="-6.560060">
        <ele>568.3</ele>
        <time>2022-08-19T11:04:30Z</time>
      </trkpt>
      <trkpt lat="42.540894" lon="-6.560238">
        <ele>566.7</ele>
        <time>2022-08-19T11:04:44Z</time>
      </trkpt>
      <trkpt lat="42.540749" lon="-6.560406">
        <ele>563.7</ele>
        <time>2022-08-19T11:05:00Z</time>
      </trkpt>
      <trkpt lat="42.540608" lon="-6.560572">
        <ele>561.7</ele>
        <time>2022-08-19T11:05:15Z</time>
      </trkpt>
      <trkpt lat="42.540505" lon="-6.560720">
        <ele>559.7</ele>
        <time>2022-08-19T11:06:07Z</time>
      </trkpt>
      <trkpt lat="42.540365" lon="-6.560843">
        <ele>557.4</ele>
        <time>2022-08-19T11:06:22Z</time>
      </trkpt>
      <trkpt lat="42.540195" lon="-6.560930">
        <ele>556.4</ele>
        <time>2022-08-19T11:06:36Z</time>
      </trkpt>
      <trkpt lat="42.540040" lon="-6.561081">
        <ele>554.9</ele>
        <time>2022-08-19T11:06:50Z</time>
      </trkpt>
      <trkpt lat="42.539900" lon="-6.561239">
        <ele>553.9</ele>
        <time>2022-08-19T11:07:04Z</time>
      </trkpt>
      <trkpt lat="42.539755" lon="-6.561404">
        <ele>554.7</ele>
        <time>2022-08-19T11:07:20Z</time>
      </trkpt>
      <trkpt lat="42.539595" lon="-6.561521">
        <ele>552.7</ele>
        <time>2022-08-19T11:07:34Z</time>
      </trkpt>
      <trkpt lat="42.539428" lon="-6.561625">
        <ele>551.7</ele>
        <time>2022-08-19T11:07:49Z</time>
      </trkpt>
      <trkpt lat="42.539290" lon="-6.561794">
        <ele>549.0</ele>
        <time>2022-08-19T11:08:04Z</time>
      </trkpt>
      <trkpt lat="42.539167" lon="-6.561982">
        <ele>543.7</ele>
        <time>2022-08-19T11:08:39Z</time>
      </trkpt>
      <trkpt lat="42.539014" lon="-6.562111">
        <ele>543.7</ele>
        <time>2022-08-19T11:08:57Z</time>
      </trkpt>
      <trkpt lat="42.538919" lon="-6.562320">
        <ele>539.0</ele>
        <time>2022-08-19T11:09:15Z</time>
      </trkpt>
      <trkpt lat="42.538853" lon="-6.562560">
        <ele>537.7</ele>
        <time>2022-08-19T11:09:31Z</time>
      </trkpt>
      <trkpt lat="42.538802" lon="-6.562808">
        <ele>536.7</ele>
        <time>2022-08-19T11:09:47Z</time>
      </trkpt>
      <trkpt lat="42.538769" lon="-6.563048">
        <ele>540.7</ele>
        <time>2022-08-19T11:10:07Z</time>
      </trkpt>
      <trkpt lat="42.538730" lon="-6.563289">
        <ele>536.8</ele>
        <time>2022-08-19T11:10:23Z</time>
      </trkpt>
      <trkpt lat="42.538698" lon="-6.563538">
        <ele>532.7</ele>
        <time>2022-08-19T11:10:38Z</time>
      </trkpt>
      <trkpt lat="42.538625" lon="-6.563766">
        <ele>529.7</ele>
        <time>2022-08-19T11:10:54Z</time>
      </trkpt>
      <trkpt lat="42.538574" lon="-6.564008">
        <ele>528.0</ele>
        <time>2022-08-19T11:11:09Z</time>
      </trkpt>
      <trkpt lat="42.538570" lon="-6.564258">
        <ele>527.0</ele>
        <time>2022-08-19T11:11:33Z</time>
      </trkpt>
      <trkpt lat="42.538599" lon="-6.564512">
        <ele>527.0</ele>
        <time>2022-08-19T11:11:50Z</time>
      </trkpt>
      <trkpt lat="42.538567" lon="-6.564756">
        <ele>524.7</ele>
        <time>2022-08-19T11:12:04Z</time>
      </trkpt>
      <trkpt lat="42.538567" lon="-6.565011">
        <ele>522.7</ele>
        <time>2022-08-19T11:12:19Z</time>
      </trkpt>
      <trkpt lat="42.538570" lon="-6.565268">
        <ele>519.7</ele>
        <time>2022-08-19T11:12:33Z</time>
      </trkpt>
      <trkpt lat="42.538616" lon="-6.565507">
        <ele>522.6</ele>
        <time>2022-08-19T11:12:45Z</time>
      </trkpt>
      <trkpt lat="42.538664" lon="-6.565760">
        <ele>520.8</ele>
        <time>2022-08-19T11:12:59Z</time>
      </trkpt>
      <trkpt lat="42.538705" lon="-6.566023">
        <ele>519.8</ele>
        <time>2022-08-19T11:13:13Z</time>
      </trkpt>
      <trkpt lat="42.538739" lon="-6.566274">
        <ele>519.7</ele>
        <time>2022-08-19T11:13:28Z</time>
      </trkpt>
      <trkpt lat="42.538773" lon="-6.566525">
        <ele>519.7</ele>
        <time>2022-08-19T11:13:42Z</time>
      </trkpt>
      <trkpt lat="42.538812" lon="-6.566780">
        <ele>519.6</ele>
        <time>2022-08-19T11:13:57Z</time>
      </trkpt>
      <trkpt lat="42.538831" lon="-6.567034">
        <ele>517.7</ele>
        <time>2022-08-19T11:14:11Z</time>
      </trkpt>
      <trkpt lat="42.538855" lon="-6.567293">
        <ele>515.8</ele>
        <time>2022-08-19T11:14:26Z</time>
      </trkpt>
      <trkpt lat="42.538893" lon="-6.567533">
        <ele>515.8</ele>
        <time>2022-08-19T11:14:40Z</time>
      </trkpt>
      <trkpt lat="42.538944" lon="-6.567777">
        <ele>516.7</ele>
        <time>2022-08-19T11:14:54Z</time>
      </trkpt>
      <trkpt lat="42.538888" lon="-6.568010">
        <ele>516.3</ele>
        <time>2022-08-19T11:15:07Z</time>
      </trkpt>
      <trkpt lat="42.538827" lon="-6.568249">
        <ele>518.7</ele>
        <time>2022-08-19T11:15:22Z</time>
      </trkpt>
      <trkpt lat="42.538743" lon="-6.568471">
        <ele>515.9</ele>
        <time>2022-08-19T11:15:36Z</time>
      </trkpt>
      <trkpt lat="42.538651" lon="-6.568699">
        <ele>514.8</ele>
        <time>2022-08-19T11:15:49Z</time>
      </trkpt>
      <trkpt lat="42.538577" lon="-6.568933">
        <ele>512.7</ele>
        <time>2022-08-19T11:16:03Z</time>
      </trkpt>
      <trkpt lat="42.538510" lon="-6.569169">
        <ele>512.7</ele>
        <time>2022-08-19T11:16:17Z</time>
      </trkpt>
      <trkpt lat="42.538450" lon="-6.569409">
        <ele>514.6</ele>
        <time>2022-08-19T11:16:32Z</time>
      </trkpt>
      <trkpt lat="42.538396" lon="-6.569654">
        <ele>516.6</ele>
        <time>2022-08-19T11:16:44Z</time>
      </trkpt>
      <trkpt lat="42.538393" lon="-6.569917">
        <ele>518.7</ele>
        <time>2022-08-19T11:16:58Z</time>
      </trkpt>
      <trkpt lat="42.538366" lon="-6.570170">
        <ele>518.9</ele>
        <time>2022-08-19T11:17:13Z</time>
      </trkpt>
      <trkpt lat="42.538359" lon="-6.570418">
        <ele>518.7</ele>
        <time>2022-08-19T11:17:28Z</time>
      </trkpt>
      <trkpt lat="42.538335" lon="-6.570672">
        <ele>517.0</ele>
        <time>2022-08-19T11:17:42Z</time>
      </trkpt>
      <trkpt lat="42.538294" lon="-6.570927">
        <ele>516.5</ele>
        <time>2022-08-19T11:17:57Z</time>
      </trkpt>
      <trkpt lat="42.538280" lon="-6.571170">
        <ele>516.7</ele>
        <time>2022-08-19T11:18:11Z</time>
      </trkpt>
      <trkpt lat="42.538244" lon="-6.571428">
        <ele>516.7</ele>
        <time>2022-08-19T11:18:25Z</time>
      </trkpt>
      <trkpt lat="42.538212" lon="-6.571687">
        <ele>515.7</ele>
        <time>2022-08-19T11:18:39Z</time>
      </trkpt>
      <trkpt lat="42.538182" lon="-6.571932">
        <ele>515.7</ele>
        <time>2022-08-19T11:18:53Z</time>
      </trkpt>
      <trkpt lat="42.538157" lon="-6.572182">
        <ele>517.6</ele>
        <time>2022-08-19T11:19:08Z</time>
      </trkpt>
      <trkpt lat="42.538136" lon="-6.572439">
        <ele>514.7</ele>
        <time>2022-08-19T11:19:22Z</time>
      </trkpt>
      <trkpt lat="42.538105" lon="-6.572692">
        <ele>515.7</ele>
        <time>2022-08-19T11:19:36Z</time>
      </trkpt>
      <trkpt lat="42.538086" lon="-6.572951">
        <ele>514.0</ele>
        <time>2022-08-19T11:19:50Z</time>
      </trkpt>
      <trkpt lat="42.538057" lon="-6.573211">
        <ele>514.7</ele>
        <time>2022-08-19T11:20:05Z</time>
      </trkpt>
      <trkpt lat="42.538032" lon="-6.573453">
        <ele>515.4</ele>
        <time>2022-08-19T11:20:19Z</time>
      </trkpt>
      <trkpt lat="42.537995" lon="-6.573709">
        <ele>515.0</ele>
        <time>2022-08-19T11:20:33Z</time>
      </trkpt>
      <trkpt lat="42.537970" lon="-6.573968">
        <ele>514.6</ele>
        <time>2022-08-19T11:20:48Z</time>
      </trkpt>
      <trkpt lat="42.537954" lon="-6.574213">
        <ele>514.7</ele>
        <time>2022-08-19T11:21:01Z</time>
      </trkpt>
      <trkpt lat="42.537940" lon="-6.574461">
        <ele>517.7</ele>
        <time>2022-08-19T11:21:15Z</time>
      </trkpt>
      <trkpt lat="42.537897" lon="-6.574702">
        <ele>517.7</ele>
        <time>2022-08-19T11:21:29Z</time>
      </trkpt>
      <trkpt lat="42.537854" lon="-6.574956">
        <ele>516.7</ele>
        <time>2022-08-19T11:21:43Z</time>
      </trkpt>
      <trkpt lat="42.537808" lon="-6.575192">
        <ele>515.7</ele>
        <time>2022-08-19T11:21:57Z</time>
      </trkpt>
      <trkpt lat="42.537720" lon="-6.575410">
        <ele>515.7</ele>
        <time>2022-08-19T11:22:10Z</time>
      </trkpt>
      <trkpt lat="42.537613" lon="-6.575621">
        <ele>515.7</ele>
        <time>2022-08-19T11:22:25Z</time>
      </trkpt>
      <trkpt lat="42.537497" lon="-6.575810">
        <ele>514.8</ele>
        <time>2022-08-19T11:22:38Z</time>
      </trkpt>
      <trkpt lat="42.537369" lon="-6.575993">
        <ele>516.6</ele>
        <time>2022-08-19T11:22:52Z</time>
      </trkpt>
      <trkpt lat="42.537250" lon="-6.576180">
        <ele>517.9</ele>
        <time>2022-08-19T11:23:06Z</time>
      </trkpt>
      <trkpt lat="42.537121" lon="-6.576371">
        <ele>515.7</ele>
        <time>2022-08-19T11:23:20Z</time>
      </trkpt>
      <trkpt lat="42.536999" lon="-6.576566">
        <ele>514.8</ele>
        <time>2022-08-19T11:23:35Z</time>
      </trkpt>
      <trkpt lat="42.536904" lon="-6.576775">
        <ele>517.7</ele>
        <time>2022-08-19T11:23:49Z</time>
      </trkpt>
      <trkpt lat="42.536778" lon="-6.576955">
        <ele>517.7</ele>
        <time>2022-08-19T11:24:03Z</time>
      </trkpt>
      <trkpt lat="42.536638" lon="-6.577125">
        <ele>518.7</ele>
        <time>2022-08-19T11:24:18Z</time>
      </trkpt>
      <trkpt lat="42.536506" lon="-6.577310">
        <ele>516.6</ele>
        <time>2022-08-19T11:24:34Z</time>
      </trkpt>
      <trkpt lat="42.536370" lon="-6.577476">
        <ele>514.7</ele>
        <time>2022-08-19T11:24:47Z</time>
      </trkpt>
      <trkpt lat="42.536245" lon="-6.577666">
        <ele>514.7</ele>
        <time>2022-08-19T11:25:01Z</time>
      </trkpt>
      <trkpt lat="42.536151" lon="-6.577895">
        <ele>513.8</ele>
        <time>2022-08-19T11:25:15Z</time>
      </trkpt>
      <trkpt lat="42.536070" lon="-6.578121">
        <ele>515.0</ele>
        <time>2022-08-19T11:25:29Z</time>
      </trkpt>
      <trkpt lat="42.536017" lon="-6.578367">
        <ele>516.6</ele>
        <time>2022-08-19T11:25:43Z</time>
      </trkpt>
      <trkpt lat="42.535994" lon="-6.578620">
        <ele>517.7</ele>
        <time>2022-08-19T11:25:58Z</time>
      </trkpt>
      <trkpt lat="42.535985" lon="-6.578866">
        <ele>516.7</ele>
        <time>2022-08-19T11:26:11Z</time>
      </trkpt>
      <trkpt lat="42.536020" lon="-6.579117">
        <ele>516.7</ele>
        <time>2022-08-19T11:26:25Z</time>
      </trkpt>
      <trkpt lat="42.536080" lon="-6.579349">
        <ele>516.0</ele>
        <time>2022-08-19T11:26:39Z</time>
      </trkpt>
      <trkpt lat="42.536155" lon="-6.579589">
        <ele>515.7</ele>
        <time>2022-08-19T11:26:54Z</time>
      </trkpt>
      <trkpt lat="42.536194" lon="-6.579842">
        <ele>515.5</ele>
        <time>2022-08-19T11:27:09Z</time>
      </trkpt>
      <trkpt lat="42.536210" lon="-6.580104">
        <ele>512.4</ele>
        <time>2022-08-19T11:27:25Z</time>
      </trkpt>
      <trkpt lat="42.536227" lon="-6.580354">
        <ele>513.8</ele>
        <time>2022-08-19T11:27:40Z</time>
      </trkpt>
      <trkpt lat="42.536125" lon="-6.580558">
        <ele>513.8</ele>
        <time>2022-08-19T11:27:53Z</time>
      </trkpt>
      <trkpt lat="42.536036" lon="-6.580791">
        <ele>513.7</ele>
        <time>2022-08-19T11:28:08Z</time>
      </trkpt>
      <trkpt lat="42.535935" lon="-6.581011">
        <ele>509.7</ele>
        <time>2022-08-19T11:28:23Z</time>
      </trkpt>
      <trkpt lat="42.535805" lon="-6.581181">
        <ele>507.6</ele>
        <time>2022-08-19T11:28:37Z</time>
      </trkpt>
      <trkpt lat="42.535657" lon="-6.581324">
        <ele>505.7</ele>
        <time>2022-08-19T11:28:52Z</time>
      </trkpt>
      <trkpt lat="42.535482" lon="-6.581402">
        <ele>506.7</ele>
        <time>2022-08-19T11:29:07Z</time>
      </trkpt>
      <trkpt lat="42.535329" lon="-6.581551">
        <ele>505.8</ele>
        <time>2022-08-19T11:29:21Z</time>
      </trkpt>
      <trkpt lat="42.535181" lon="-6.581715">
        <ele>506.6</ele>
        <time>2022-08-19T11:29:33Z</time>
      </trkpt>
      <trkpt lat="42.535042" lon="-6.581890">
        <ele>507.0</ele>
        <time>2022-08-19T11:29:47Z</time>
      </trkpt>
      <trkpt lat="42.534921" lon="-6.582073">
        <ele>506.0</ele>
        <time>2022-08-19T11:30:00Z</time>
      </trkpt>
      <trkpt lat="42.534799" lon="-6.582256">
        <ele>506.7</ele>
        <time>2022-08-19T11:30:14Z</time>
      </trkpt>
      <trkpt lat="42.534769" lon="-6.582510">
        <ele>505.0</ele>
        <time>2022-08-19T11:30:40Z</time>
      </trkpt>
      <trkpt lat="42.534723" lon="-6.582762">
        <ele>505.7</ele>
        <time>2022-08-19T11:30:54Z</time>
      </trkpt>
      <trkpt lat="42.534625" lon="-6.582982">
        <ele>504.7</ele>
        <time>2022-08-19T11:31:13Z</time>
      </trkpt>
      <trkpt lat="42.534561" lon="-6.583211">
        <ele>505.4</ele>
        <time>2022-08-19T11:31:27Z</time>
      </trkpt>
      <trkpt lat="42.534569" lon="-6.583457">
        <ele>505.7</ele>
        <time>2022-08-19T11:31:40Z</time>
      </trkpt>
      <trkpt lat="42.534669" lon="-6.583671">
        <ele>506.7</ele>
        <time>2022-08-19T11:31:55Z</time>
      </trkpt>
      <trkpt lat="42.534796" lon="-6.583860">
        <ele>507.7</ele>
        <time>2022-08-19T11:32:09Z</time>
      </trkpt>
      <trkpt lat="42.534903" lon="-6.584069">
        <ele>509.6</ele>
        <time>2022-08-19T11:32:23Z</time>
      </trkpt>
      <trkpt lat="42.534935" lon="-6.584316">
        <ele>511.4</ele>
        <time>2022-08-19T11:32:37Z</time>
      </trkpt>
      <trkpt lat="42.534965" lon="-6.584566">
        <ele>511.4</ele>
        <time>2022-08-19T11:32:51Z</time>
      </trkpt>
      <trkpt lat="42.535016" lon="-6.584804">
        <ele>512.4</ele>
        <time>2022-08-19T11:33:05Z</time>
      </trkpt>
      <trkpt lat="42.535045" lon="-6.585045">
        <ele>511.7</ele>
        <time>2022-08-19T11:33:20Z</time>
      </trkpt>
      <trkpt lat="42.535085" lon="-6.585291">
        <ele>509.7</ele>
        <time>2022-08-19T11:33:34Z</time>
      </trkpt>
      <trkpt lat="42.535151" lon="-6.585525">
        <ele>507.7</ele>
        <time>2022-08-19T11:33:49Z</time>
      </trkpt>
      <trkpt lat="42.535253" lon="-6.585730">
        <ele>507.8</ele>
        <time>2022-08-19T11:34:03Z</time>
      </trkpt>
      <trkpt lat="42.535361" lon="-6.585942">
        <ele>508.6</ele>
        <time>2022-08-19T11:34:18Z</time>
      </trkpt>
      <trkpt lat="42.535497" lon="-6.586118">
        <ele>510.0</ele>
        <time>2022-08-19T11:34:33Z</time>
      </trkpt>
      <trkpt lat="42.535650" lon="-6.586263">
        <ele>511.0</ele>
        <time>2022-08-19T11:34:49Z</time>
      </trkpt>
      <trkpt lat="42.535779" lon="-6.586439">
        <ele>509.7</ele>
        <time>2022-08-19T11:35:01Z</time>
      </trkpt>
      <trkpt lat="42.535910" lon="-6.586624">
        <ele>508.0</ele>
        <time>2022-08-19T11:35:15Z</time>
      </trkpt>
      <trkpt lat="42.535995" lon="-6.586841">
        <ele>505.6</ele>
        <time>2022-08-19T11:35:30Z</time>
      </trkpt>
      <trkpt lat="42.536105" lon="-6.587058">
        <ele>503.7</ele>
        <time>2022-08-19T11:35:45Z</time>
      </trkpt>
      <trkpt lat="42.536241" lon="-6.587252">
        <ele>503.7</ele>
        <time>2022-08-19T11:36:00Z</time>
      </trkpt>
      <trkpt lat="42.536363" lon="-6.587443">
        <ele>503.9</ele>
        <time>2022-08-19T11:36:14Z</time>
      </trkpt>
      <trkpt lat="42.536508" lon="-6.587593">
        <ele>506.7</ele>
        <time>2022-08-19T11:36:35Z</time>
      </trkpt>
      <trkpt lat="42.536672" lon="-6.587709">
        <ele>509.7</ele>
        <time>2022-08-19T11:37:00Z</time>
      </trkpt>
      <trkpt lat="42.536806" lon="-6.587890">
        <ele>508.7</ele>
        <time>2022-08-19T11:37:14Z</time>
      </trkpt>
      <trkpt lat="42.536944" lon="-6.588073">
        <ele>508.7</ele>
        <time>2022-08-19T11:37:28Z</time>
      </trkpt>
      <trkpt lat="42.537072" lon="-6.588249">
        <ele>505.8</ele>
        <time>2022-08-19T11:37:43Z</time>
      </trkpt>
      <trkpt lat="42.537224" lon="-6.588396">
        <ele>504.7</ele>
        <time>2022-08-19T11:37:58Z</time>
      </trkpt>
      <trkpt lat="42.537371" lon="-6.588537">
        <ele>505.7</ele>
        <time>2022-08-19T11:38:12Z</time>
      </trkpt>
      <trkpt lat="42.537523" lon="-6.588684">
        <ele>500.4</ele>
        <time>2022-08-19T11:38:27Z</time>
      </trkpt>
      <trkpt lat="42.537651" lon="-6.588861">
        <ele>502.7</ele>
        <time>2022-08-19T11:38:52Z</time>
      </trkpt>
      <trkpt lat="42.537796" lon="-6.589049">
        <ele>503.7</ele>
        <time>2022-08-19T11:39:06Z</time>
      </trkpt>
      <trkpt lat="42.537929" lon="-6.589219">
        <ele>503.6</ele>
        <time>2022-08-19T11:39:21Z</time>
      </trkpt>
      <trkpt lat="42.538006" lon="-6.589428">
        <ele>505.6</ele>
        <time>2022-08-19T11:39:41Z</time>
      </trkpt>
      <trkpt lat="42.538236" lon="-6.589654">
        <ele>507.7</ele>
        <time>2022-08-19T11:40:16Z</time>
      </trkpt>
      <trkpt lat="42.538403" lon="-6.589624">
        <ele>505.7</ele>
        <time>2022-08-19T11:40:51Z</time>
      </trkpt>
      <trkpt lat="42.538641" lon="-6.589502">
        <ele>503.0</ele>
        <time>2022-08-19T11:41:32Z</time>
      </trkpt>
      <trkpt lat="42.538770" lon="-6.589409">
        <ele>504.4</ele>
        <time>2022-08-19T11:41:51Z</time>
      </trkpt>
      <trkpt lat="42.538964" lon="-6.589305">
        <ele>504.4</ele>
        <time>2022-08-19T11:42:06Z</time>
      </trkpt>
      <trkpt lat="42.539221" lon="-6.589205">
        <ele>503.8</ele>
        <time>2022-08-19T11:42:21Z</time>
      </trkpt>
      <trkpt lat="42.539289" lon="-6.589315">
        <ele>502.0</ele>
        <time>2022-08-19T11:42:35Z</time>
      </trkpt>
      <trkpt lat="42.539363" lon="-6.589549">
        <ele>498.8</ele>
        <time>2022-08-19T11:42:47Z</time>
      </trkpt>
      <trkpt lat="42.539432" lon="-6.589798">
        <ele>497.7</ele>
        <time>2022-08-19T11:43:02Z</time>
      </trkpt>
      <trkpt lat="42.539520" lon="-6.590039">
        <ele>499.6</ele>
        <time>2022-08-19T11:43:17Z</time>
      </trkpt>
      <trkpt lat="42.539577" lon="-6.590272">
        <ele>499.7</ele>
        <time>2022-08-19T11:43:30Z</time>
      </trkpt>
      <trkpt lat="42.539643" lon="-6.590514">
        <ele>499.7</ele>
        <time>2022-08-19T11:43:46Z</time>
      </trkpt>
      <trkpt lat="42.539759" lon="-6.590709">
        <ele>500.5</ele>
        <time>2022-08-19T11:43:59Z</time>
      </trkpt>
      <trkpt lat="42.539911" lon="-6.590844">
        <ele>496.0</ele>
        <time>2022-08-19T11:44:14Z</time>
      </trkpt>
      <trkpt lat="42.540074" lon="-6.590986">
        <ele>495.5</ele>
        <time>2022-08-19T11:44:28Z</time>
      </trkpt>
      <trkpt lat="42.540224" lon="-6.591140">
        <ele>495.7</ele>
        <time>2022-08-19T11:44:42Z</time>
      </trkpt>
      <trkpt lat="42.540315" lon="-6.591359">
        <ele>498.4</ele>
        <time>2022-08-19T11:44:55Z</time>
      </trkpt>
      <trkpt lat="42.540464" lon="-6.591524">
        <ele>502.3</ele>
        <time>2022-08-19T11:45:10Z</time>
      </trkpt>
      <trkpt lat="42.540635" lon="-6.591638">
        <ele>502.9</ele>
        <time>2022-08-19T11:45:43Z</time>
      </trkpt>
      <trkpt lat="42.540735" lon="-6.591849">
        <ele>502.7</ele>
        <time>2022-08-19T11:45:57Z</time>
      </trkpt>
      <trkpt lat="42.540841" lon="-6.592064">
        <ele>506.5</ele>
        <time>2022-08-19T11:46:13Z</time>
      </trkpt>
      <trkpt lat="42.540977" lon="-6.592240">
        <ele>508.7</ele>
        <time>2022-08-19T11:46:28Z</time>
      </trkpt>
      <trkpt lat="42.541112" lon="-6.592415">
        <ele>510.6</ele>
        <time>2022-08-19T11:46:45Z</time>
      </trkpt>
      <trkpt lat="42.541213" lon="-6.592622">
        <ele>525.4</ele>
        <time>2022-08-19T11:49:13Z</time>
      </trkpt>
      <trkpt lat="42.541281" lon="-6.592957">
        <ele>529.2</ele>
        <time>2022-08-19T11:49:31Z</time>
      </trkpt>
      <trkpt lat="42.541452" lon="-6.592980">
        <ele>529.4</ele>
        <time>2022-08-19T11:49:48Z</time>
      </trkpt>
      <trkpt lat="42.541695" lon="-6.592986">
        <ele>529.4</ele>
        <time>2022-08-19T11:50:03Z</time>
      </trkpt>
      <trkpt lat="42.541879" lon="-6.592962">
        <ele>529.4</ele>
        <time>2022-08-19T11:50:17Z</time>
      </trkpt>
      <trkpt lat="42.542093" lon="-6.592957">
        <ele>529.1</ele>
        <time>2022-08-19T11:50:31Z</time>
      </trkpt>
      <trkpt lat="42.542264" lon="-6.592957">
        <ele>529.5</ele>
        <time>2022-08-19T11:50:45Z</time>
      </trkpt>
      <trkpt lat="42.542431" lon="-6.592945">
        <ele>529.5</ele>
        <time>2022-08-19T11:51:00Z</time>
      </trkpt>
      <trkpt lat="42.542610" lon="-6.592997">
        <ele>530.2</ele>
        <time>2022-08-19T11:51:13Z</time>
      </trkpt>
      <trkpt lat="42.542776" lon="-6.592962">
        <ele>531.6</ele>
        <time>2022-08-19T11:51:39Z</time>
      </trkpt>
      <trkpt lat="42.543012" lon="-6.593009">
        <ele>531.9</ele>
        <time>2022-08-19T11:53:26Z</time>
      </trkpt>
      <trkpt lat="42.543012" lon="-6.593235">
        <ele>531.8</ele>
        <time>2022-08-19T11:53:41Z</time>
      </trkpt>
      <trkpt lat="42.543054" lon="-6.593386">
        <ele>531.8</ele>
        <time>2022-08-20T04:56:59Z</time>
      </trkpt>
      <trkpt lat="42.543217" lon="-6.593340">
        <ele>531.9</ele>
        <time>2022-08-20T04:57:23Z</time>
      </trkpt>
      <trkpt lat="42.543344" lon="-6.593151">
        <ele>536.0</ele>
        <time>2022-08-20T04:57:32Z</time>
      </trkpt>
      <trkpt lat="42.543472" lon="-6.592976">
        <ele>536.4</ele>
        <time>2022-08-20T04:57:41Z</time>
      </trkpt>
      <trkpt lat="42.543606" lon="-6.592812">
        <ele>536.8</ele>
        <time>2022-08-20T04:57:55Z</time>
      </trkpt>
      <trkpt lat="42.543744" lon="-6.592656">
        <ele>539.3</ele>
        <time>2022-08-20T04:58:12Z</time>
      </trkpt>
      <trkpt lat="42.543915" lon="-6.592560">
        <ele>541.5</ele>
        <time>2022-08-20T04:58:32Z</time>
      </trkpt>
      <trkpt lat="42.544095" lon="-6.592528">
        <ele>541.9</ele>
        <time>2022-08-20T04:58:45Z</time>
      </trkpt>
      <trkpt lat="42.544278" lon="-6.592487">
        <ele>541.5</ele>
        <time>2022-08-20T04:58:59Z</time>
      </trkpt>
      <trkpt lat="42.544465" lon="-6.592479">
        <ele>542.3</ele>
        <time>2022-08-20T04:59:11Z</time>
      </trkpt>
      <trkpt lat="42.544605" lon="-6.592323">
        <ele>542.8</ele>
        <time>2022-08-20T04:59:25Z</time>
      </trkpt>
      <trkpt lat="42.544755" lon="-6.592267">
        <ele>542.5</ele>
        <time>2022-08-20T05:00:22Z</time>
      </trkpt>
      <trkpt lat="42.544894" lon="-6.592298">
        <ele>542.0</ele>
        <time>2022-08-20T05:33:32Z</time>
      </trkpt>
      <trkpt lat="42.544998" lon="-6.592528">
        <ele>541.9</ele>
        <time>2022-08-20T05:33:58Z</time>
      </trkpt>
      <trkpt lat="42.545238" lon="-6.592609">
        <ele>536.6</ele>
        <time>2022-08-20T05:34:27Z</time>
      </trkpt>
      <trkpt lat="42.545451" lon="-6.592649">
        <ele>530.3</ele>
        <time>2022-08-20T05:34:46Z</time>
      </trkpt>
      <trkpt lat="42.545652" lon="-6.592620">
        <ele>529.2</ele>
        <time>2022-08-20T05:35:07Z</time>
      </trkpt>
      <trkpt lat="42.545853" lon="-6.592580">
        <ele>525.0</ele>
        <time>2022-08-20T05:35:24Z</time>
      </trkpt>
      <trkpt lat="42.545989" lon="-6.592539">
        <ele>522.5</ele>
        <time>2022-08-20T05:35:42Z</time>
      </trkpt>
      <trkpt lat="42.546173" lon="-6.592522">
        <ele>519.8</ele>
        <time>2022-08-20T05:35:56Z</time>
      </trkpt>
      <trkpt lat="42.546348" lon="-6.592470">
        <ele>519.6</ele>
        <time>2022-08-20T05:36:14Z</time>
      </trkpt>
      <trkpt lat="42.546532" lon="-6.592452">
        <ele>518.8</ele>
        <time>2022-08-20T05:36:27Z</time>
      </trkpt>
      <trkpt lat="42.546706" lon="-6.592421">
        <ele>518.1</ele>
        <time>2022-08-20T05:36:41Z</time>
      </trkpt>
      <trkpt lat="42.546878" lon="-6.592465">
        <ele>516.8</ele>
        <time>2022-08-20T05:36:56Z</time>
      </trkpt>
      <trkpt lat="42.546923" lon="-6.592714">
        <ele>516.8</ele>
        <time>2022-08-20T05:37:11Z</time>
      </trkpt>
      <trkpt lat="42.546974" lon="-6.592954">
        <ele>516.3</ele>
        <time>2022-08-20T05:37:36Z</time>
      </trkpt>
      <trkpt lat="42.547054" lon="-6.593189">
        <ele>516.2</ele>
        <time>2022-08-20T05:37:51Z</time>
      </trkpt>
      <trkpt lat="42.547097" lon="-6.593439">
        <ele>516.2</ele>
        <time>2022-08-20T05:38:06Z</time>
      </trkpt>
      <trkpt lat="42.547221" lon="-6.593926">
        <ele>515.3</ele>
        <time>2022-08-20T05:42:54Z</time>
      </trkpt>
      <trkpt lat="42.547442" lon="-6.593851">
        <ele>510.5</ele>
        <time>2022-08-20T05:43:15Z</time>
      </trkpt>
      <trkpt lat="42.547557" lon="-6.593880">
        <ele>510.5</ele>
        <time>2022-08-20T05:43:30Z</time>
      </trkpt>
      <trkpt lat="42.547655" lon="-6.594013">
        <ele>510.2</ele>
        <time>2022-08-20T05:43:44Z</time>
      </trkpt>
      <trkpt lat="42.547702" lon="-6.594174">
        <ele>510.2</ele>
        <time>2022-08-20T05:44:01Z</time>
      </trkpt>
      <trkpt lat="42.548045" lon="-6.594018">
        <ele>509.9</ele>
        <time>2022-08-20T05:44:16Z</time>
      </trkpt>
      <trkpt lat="42.548200" lon="-6.593879">
        <ele>510.0</ele>
        <time>2022-08-20T05:44:33Z</time>
      </trkpt>
      <trkpt lat="42.548341" lon="-6.593710">
        <ele>510.1</ele>
        <time>2022-08-20T05:44:47Z</time>
      </trkpt>
      <trkpt lat="42.548529" lon="-6.593683">
        <ele>509.5</ele>
        <time>2022-08-20T05:45:04Z</time>
      </trkpt>
      <trkpt lat="42.548699" lon="-6.593794">
        <ele>509.5</ele>
        <time>2022-08-20T05:45:23Z</time>
      </trkpt>
      <trkpt lat="42.548873" lon="-6.593879">
        <ele>510.0</ele>
        <time>2022-08-20T05:45:40Z</time>
      </trkpt>
      <trkpt lat="42.549053" lon="-6.593910">
        <ele>509.6</ele>
        <time>2022-08-20T05:45:56Z</time>
      </trkpt>
      <trkpt lat="42.549248" lon="-6.593903">
        <ele>513.8</ele>
        <time>2022-08-20T05:46:11Z</time>
      </trkpt>
      <trkpt lat="42.549444" lon="-6.593881">
        <ele>511.7</ele>
        <time>2022-08-20T05:46:25Z</time>
      </trkpt>
      <trkpt lat="42.549621" lon="-6.593835">
        <ele>511.4</ele>
        <time>2022-08-20T05:46:39Z</time>
      </trkpt>
      <trkpt lat="42.549800" lon="-6.593763">
        <ele>511.6</ele>
        <time>2022-08-20T05:46:52Z</time>
      </trkpt>
      <trkpt lat="42.549977" lon="-6.593663">
        <ele>510.7</ele>
        <time>2022-08-20T05:47:07Z</time>
      </trkpt>
      <trkpt lat="42.550148" lon="-6.593583">
        <ele>509.8</ele>
        <time>2022-08-20T05:47:29Z</time>
      </trkpt>
      <trkpt lat="42.550312" lon="-6.593462">
        <ele>510.0</ele>
        <time>2022-08-20T05:47:42Z</time>
      </trkpt>
      <trkpt lat="42.550484" lon="-6.593366">
        <ele>510.4</ele>
        <time>2022-08-20T05:47:57Z</time>
      </trkpt>
      <trkpt lat="42.550649" lon="-6.593262">
        <ele>510.8</ele>
        <time>2022-08-20T05:48:11Z</time>
      </trkpt>
      <trkpt lat="42.550820" lon="-6.593170">
        <ele>510.8</ele>
        <time>2022-08-20T05:48:28Z</time>
      </trkpt>
      <trkpt lat="42.550988" lon="-6.593080">
        <ele>510.8</ele>
        <time>2022-08-20T05:48:41Z</time>
      </trkpt>
      <trkpt lat="42.551163" lon="-6.592983">
        <ele>512.2</ele>
        <time>2022-08-20T05:48:57Z</time>
      </trkpt>
      <trkpt lat="42.551336" lon="-6.592886">
        <ele>512.7</ele>
        <time>2022-08-20T05:49:12Z</time>
      </trkpt>
      <trkpt lat="42.551518" lon="-6.592827">
        <ele>512.2</ele>
        <time>2022-08-20T05:49:27Z</time>
      </trkpt>
      <trkpt lat="42.551700" lon="-6.592767">
        <ele>512.3</ele>
        <time>2022-08-20T05:49:40Z</time>
      </trkpt>
      <trkpt lat="42.551875" lon="-6.592688">
        <ele>512.3</ele>
        <time>2022-08-20T05:49:54Z</time>
      </trkpt>
      <trkpt lat="42.552053" lon="-6.592643">
        <ele>512.3</ele>
        <time>2022-08-20T05:50:07Z</time>
      </trkpt>
      <trkpt lat="42.552244" lon="-6.592627">
        <ele>511.9</ele>
        <time>2022-08-20T05:50:24Z</time>
      </trkpt>
      <trkpt lat="42.552428" lon="-6.592586">
        <ele>511.9</ele>
        <time>2022-08-20T05:50:36Z</time>
      </trkpt>
      <trkpt lat="42.552613" lon="-6.592511">
        <ele>511.9</ele>
        <time>2022-08-20T05:50:51Z</time>
      </trkpt>
      <trkpt lat="42.552804" lon="-6.592467">
        <ele>511.9</ele>
        <time>2022-08-20T05:51:07Z</time>
      </trkpt>
      <trkpt lat="42.552990" lon="-6.592448">
        <ele>511.9</ele>
        <time>2022-08-20T05:51:20Z</time>
      </trkpt>
      <trkpt lat="42.553177" lon="-6.592503">
        <ele>512.0</ele>
        <time>2022-08-20T05:51:36Z</time>
      </trkpt>
      <trkpt lat="42.553356" lon="-6.592419">
        <ele>512.0</ele>
        <time>2022-08-20T05:51:52Z</time>
      </trkpt>
      <trkpt lat="42.553547" lon="-6.592388">
        <ele>512.0</ele>
        <time>2022-08-20T05:52:07Z</time>
      </trkpt>
      <trkpt lat="42.553731" lon="-6.592373">
        <ele>512.6</ele>
        <time>2022-08-20T05:52:21Z</time>
      </trkpt>
      <trkpt lat="42.553922" lon="-6.592369">
        <ele>513.9</ele>
        <time>2022-08-20T05:52:34Z</time>
      </trkpt>
      <trkpt lat="42.554106" lon="-6.592287">
        <ele>512.6</ele>
        <time>2022-08-20T05:52:48Z</time>
      </trkpt>
      <trkpt lat="42.554292" lon="-6.592242">
        <ele>512.5</ele>
        <time>2022-08-20T05:53:03Z</time>
      </trkpt>
      <trkpt lat="42.554465" lon="-6.592159">
        <ele>512.6</ele>
        <time>2022-08-20T05:53:20Z</time>
      </trkpt>
      <trkpt lat="42.554641" lon="-6.592106">
        <ele>512.8</ele>
        <time>2022-08-20T05:53:32Z</time>
      </trkpt>
      <trkpt lat="42.554823" lon="-6.592057">
        <ele>512.5</ele>
        <time>2022-08-20T05:53:48Z</time>
      </trkpt>
      <trkpt lat="42.554993" lon="-6.591974">
        <ele>513.2</ele>
        <time>2022-08-20T05:54:04Z</time>
      </trkpt>
      <trkpt lat="42.555165" lon="-6.591881">
        <ele>512.6</ele>
        <time>2022-08-20T05:54:18Z</time>
      </trkpt>
      <trkpt lat="42.555346" lon="-6.591767">
        <ele>514.1</ele>
        <time>2022-08-20T05:54:31Z</time>
      </trkpt>
      <trkpt lat="42.555526" lon="-6.591665">
        <ele>512.7</ele>
        <time>2022-08-20T05:54:55Z</time>
      </trkpt>
      <trkpt lat="42.555686" lon="-6.591546">
        <ele>518.5</ele>
        <time>2022-08-20T05:55:07Z</time>
      </trkpt>
      <trkpt lat="42.555846" lon="-6.591435">
        <ele>518.2</ele>
        <time>2022-08-20T05:55:20Z</time>
      </trkpt>
      <trkpt lat="42.556015" lon="-6.591320">
        <ele>518.6</ele>
        <time>2022-08-20T05:55:34Z</time>
      </trkpt>
      <trkpt lat="42.556180" lon="-6.591191">
        <ele>518.6</ele>
        <time>2022-08-20T05:55:48Z</time>
      </trkpt>
      <trkpt lat="42.556352" lon="-6.591076">
        <ele>512.7</ele>
        <time>2022-08-20T05:56:01Z</time>
      </trkpt>
      <trkpt lat="42.556521" lon="-6.590973">
        <ele>534.1</ele>
        <time>2022-08-20T05:56:16Z</time>
      </trkpt>
      <trkpt lat="42.556678" lon="-6.590845">
        <ele>517.6</ele>
        <time>2022-08-20T05:56:33Z</time>
      </trkpt>
      <trkpt lat="42.556816" lon="-6.590673">
        <ele>518.6</ele>
        <time>2022-08-20T05:56:45Z</time>
      </trkpt>
      <trkpt lat="42.556972" lon="-6.590508">
        <ele>518.6</ele>
        <time>2022-08-20T05:57:00Z</time>
      </trkpt>
      <trkpt lat="42.557109" lon="-6.590326">
        <ele>518.6</ele>
        <time>2022-08-20T05:57:12Z</time>
      </trkpt>
      <trkpt lat="42.557252" lon="-6.590149">
        <ele>518.6</ele>
        <time>2022-08-20T05:57:27Z</time>
      </trkpt>
      <trkpt lat="42.557395" lon="-6.589981">
        <ele>518.6</ele>
        <time>2022-08-20T05:57:42Z</time>
      </trkpt>
      <trkpt lat="42.557504" lon="-6.589780">
        <ele>513.6</ele>
        <time>2022-08-20T05:57:56Z</time>
      </trkpt>
      <trkpt lat="42.557628" lon="-6.589597">
        <ele>515.6</ele>
        <time>2022-08-20T05:58:08Z</time>
      </trkpt>
      <trkpt lat="42.557771" lon="-6.589415">
        <ele>516.6</ele>
        <time>2022-08-20T05:58:23Z</time>
      </trkpt>
      <trkpt lat="42.557890" lon="-6.589211">
        <ele>518.3</ele>
        <time>2022-08-20T05:58:38Z</time>
      </trkpt>
      <trkpt lat="42.558027" lon="-6.589036">
        <ele>515.9</ele>
        <time>2022-08-20T05:58:56Z</time>
      </trkpt>
      <trkpt lat="42.558152" lon="-6.588847">
        <ele>516.3</ele>
        <time>2022-08-20T05:59:13Z</time>
      </trkpt>
      <trkpt lat="42.558265" lon="-6.588650">
        <ele>518.3</ele>
        <time>2022-08-20T05:59:30Z</time>
      </trkpt>
      <trkpt lat="42.558391" lon="-6.588469">
        <ele>518.6</ele>
        <time>2022-08-20T05:59:48Z</time>
      </trkpt>
      <trkpt lat="42.558503" lon="-6.588262">
        <ele>518.6</ele>
        <time>2022-08-20T06:00:08Z</time>
      </trkpt>
      <trkpt lat="42.558641" lon="-6.588083">
        <ele>533.2</ele>
        <time>2022-08-20T06:00:24Z</time>
      </trkpt>
      <trkpt lat="42.558829" lon="-6.588057">
        <ele>529.4</ele>
        <time>2022-08-20T06:00:37Z</time>
      </trkpt>
      <trkpt lat="42.558920" lon="-6.588295">
        <ele>530.7</ele>
        <time>2022-08-20T06:00:48Z</time>
      </trkpt>
      <trkpt lat="42.559002" lon="-6.588517">
        <ele>518.7</ele>
        <time>2022-08-20T06:01:02Z</time>
      </trkpt>
      <trkpt lat="42.559134" lon="-6.588690">
        <ele>532.6</ele>
        <time>2022-08-20T06:01:15Z</time>
      </trkpt>
      <trkpt lat="42.559262" lon="-6.588874">
        <ele>530.6</ele>
        <time>2022-08-20T06:01:31Z</time>
      </trkpt>
      <trkpt lat="42.559398" lon="-6.589037">
        <ele>530.6</ele>
        <time>2022-08-20T06:01:53Z</time>
      </trkpt>
      <trkpt lat="42.559522" lon="-6.589218">
        <ele>529.6</ele>
        <time>2022-08-20T06:02:06Z</time>
      </trkpt>
      <trkpt lat="42.559651" lon="-6.589403">
        <ele>530.7</ele>
        <time>2022-08-20T06:02:19Z</time>
      </trkpt>
      <trkpt lat="42.559799" lon="-6.589579">
        <ele>528.6</ele>
        <time>2022-08-20T06:02:34Z</time>
      </trkpt>
      <trkpt lat="42.559932" lon="-6.589761">
        <ele>527.6</ele>
        <time>2022-08-20T06:02:48Z</time>
      </trkpt>
      <trkpt lat="42.560066" lon="-6.589926">
        <ele>526.4</ele>
        <time>2022-08-20T06:03:04Z</time>
      </trkpt>
      <trkpt lat="42.560186" lon="-6.590110">
        <ele>524.7</ele>
        <time>2022-08-20T06:03:18Z</time>
      </trkpt>
      <trkpt lat="42.560332" lon="-6.590269">
        <ele>524.9</ele>
        <time>2022-08-20T06:03:32Z</time>
      </trkpt>
      <trkpt lat="42.560459" lon="-6.590443">
        <ele>526.2</ele>
        <time>2022-08-20T06:03:46Z</time>
      </trkpt>
      <trkpt lat="42.560583" lon="-6.590629">
        <ele>528.6</ele>
        <time>2022-08-20T06:04:00Z</time>
      </trkpt>
      <trkpt lat="42.560709" lon="-6.590835">
        <ele>527.3</ele>
        <time>2022-08-20T06:04:14Z</time>
      </trkpt>
      <trkpt lat="42.560844" lon="-6.591018">
        <ele>528.6</ele>
        <time>2022-08-20T06:04:29Z</time>
      </trkpt>
      <trkpt lat="42.560984" lon="-6.591192">
        <ele>528.6</ele>
        <time>2022-08-20T06:04:46Z</time>
      </trkpt>
      <trkpt lat="42.561130" lon="-6.591363">
        <ele>528.6</ele>
        <time>2022-08-20T06:04:59Z</time>
      </trkpt>
      <trkpt lat="42.561251" lon="-6.591550">
        <ele>531.6</ele>
        <time>2022-08-20T06:05:15Z</time>
      </trkpt>
      <trkpt lat="42.561383" lon="-6.591749">
        <ele>529.4</ele>
        <time>2022-08-20T06:05:29Z</time>
      </trkpt>
      <trkpt lat="42.561504" lon="-6.591930">
        <ele>531.4</ele>
        <time>2022-08-20T06:05:42Z</time>
      </trkpt>
      <trkpt lat="42.561647" lon="-6.592089">
        <ele>530.6</ele>
        <time>2022-08-20T06:05:56Z</time>
      </trkpt>
      <trkpt lat="42.561784" lon="-6.592274">
        <ele>529.6</ele>
        <time>2022-08-20T06:06:10Z</time>
      </trkpt>
      <trkpt lat="42.561915" lon="-6.592446">
        <ele>529.9</ele>
        <time>2022-08-20T06:06:25Z</time>
      </trkpt>
      <trkpt lat="42.562039" lon="-6.592634">
        <ele>529.6</ele>
        <time>2022-08-20T06:06:41Z</time>
      </trkpt>
      <trkpt lat="42.562203" lon="-6.592738">
        <ele>530.6</ele>
        <time>2022-08-20T06:06:55Z</time>
      </trkpt>
      <trkpt lat="42.562382" lon="-6.592807">
        <ele>528.6</ele>
        <time>2022-08-20T06:07:10Z</time>
      </trkpt>
      <trkpt lat="42.562502" lon="-6.593006">
        <ele>532.6</ele>
        <time>2022-08-20T06:07:39Z</time>
      </trkpt>
      <trkpt lat="42.562620" lon="-6.593198">
        <ele>527.6</ele>
        <time>2022-08-20T06:07:56Z</time>
      </trkpt>
      <trkpt lat="42.562756" lon="-6.593387">
        <ele>528.6</ele>
        <time>2022-08-20T06:08:09Z</time>
      </trkpt>
      <trkpt lat="42.562895" lon="-6.593565">
        <ele>526.6</ele>
        <time>2022-08-20T06:08:22Z</time>
      </trkpt>
      <trkpt lat="42.562906" lon="-6.593813">
        <ele>528.6</ele>
        <time>2022-08-20T06:08:35Z</time>
      </trkpt>
      <trkpt lat="42.562935" lon="-6.594061">
        <ele>531.4</ele>
        <time>2022-08-20T06:08:53Z</time>
      </trkpt>
      <trkpt lat="42.563057" lon="-6.594259">
        <ele>530.7</ele>
        <time>2022-08-20T06:09:07Z</time>
      </trkpt>
      <trkpt lat="42.563218" lon="-6.594375">
        <ele>528.9</ele>
        <time>2022-08-20T06:09:19Z</time>
      </trkpt>
      <trkpt lat="42.563359" lon="-6.594545">
        <ele>528.6</ele>
        <time>2022-08-20T06:09:36Z</time>
      </trkpt>
      <trkpt lat="42.563505" lon="-6.594697">
        <ele>527.6</ele>
        <time>2022-08-20T06:09:54Z</time>
      </trkpt>
      <trkpt lat="42.563634" lon="-6.594866">
        <ele>525.7</ele>
        <time>2022-08-20T06:10:09Z</time>
      </trkpt>
      <trkpt lat="42.563731" lon="-6.595088">
        <ele>527.2</ele>
        <time>2022-08-20T06:10:23Z</time>
      </trkpt>
      <trkpt lat="42.563673" lon="-6.595326">
        <ele>529.6</ele>
        <time>2022-08-20T06:10:38Z</time>
      </trkpt>
      <trkpt lat="42.563778" lon="-6.595549">
        <ele>526.9</ele>
        <time>2022-08-20T06:10:53Z</time>
      </trkpt>
      <trkpt lat="42.563909" lon="-6.595745">
        <ele>526.6</ele>
        <time>2022-08-20T06:11:06Z</time>
      </trkpt>
      <trkpt lat="42.564039" lon="-6.595953">
        <ele>526.6</ele>
        <time>2022-08-20T06:11:21Z</time>
      </trkpt>
      <trkpt lat="42.564182" lon="-6.596113">
        <ele>528.5</ele>
        <time>2022-08-20T06:11:35Z</time>
      </trkpt>
      <trkpt lat="42.564312" lon="-6.596293">
        <ele>525.6</ele>
        <time>2022-08-20T06:11:50Z</time>
      </trkpt>
      <trkpt lat="42.564433" lon="-6.596480">
        <ele>524.6</ele>
        <time>2022-08-20T06:12:04Z</time>
      </trkpt>
      <trkpt lat="42.564576" lon="-6.596632">
        <ele>526.6</ele>
        <time>2022-08-20T06:12:17Z</time>
      </trkpt>
      <trkpt lat="42.564732" lon="-6.596772">
        <ele>526.6</ele>
        <time>2022-08-20T06:12:38Z</time>
      </trkpt>
      <trkpt lat="42.564860" lon="-6.596977">
        <ele>527.6</ele>
        <time>2022-08-20T06:12:52Z</time>
      </trkpt>
      <trkpt lat="42.564979" lon="-6.597161">
        <ele>527.6</ele>
        <time>2022-08-20T06:13:05Z</time>
      </trkpt>
      <trkpt lat="42.565106" lon="-6.597338">
        <ele>526.9</ele>
        <time>2022-08-20T06:13:18Z</time>
      </trkpt>
      <trkpt lat="42.565240" lon="-6.597520">
        <ele>527.6</ele>
        <time>2022-08-20T06:13:33Z</time>
      </trkpt>
      <trkpt lat="42.565384" lon="-6.597679">
        <ele>524.6</ele>
        <time>2022-08-20T06:13:49Z</time>
      </trkpt>
      <trkpt lat="42.565546" lon="-6.597801">
        <ele>526.3</ele>
        <time>2022-08-20T06:14:07Z</time>
      </trkpt>
      <trkpt lat="42.565680" lon="-6.597969">
        <ele>528.0</ele>
        <time>2022-08-20T06:14:21Z</time>
      </trkpt>
      <trkpt lat="42.565813" lon="-6.598155">
        <ele>529.7</ele>
        <time>2022-08-20T06:14:42Z</time>
      </trkpt>
      <trkpt lat="42.565975" lon="-6.598270">
        <ele>527.4</ele>
        <time>2022-08-20T06:14:58Z</time>
      </trkpt>
      <trkpt lat="42.566134" lon="-6.598412">
        <ele>527.6</ele>
        <time>2022-08-20T06:15:12Z</time>
      </trkpt>
      <trkpt lat="42.566281" lon="-6.598552">
        <ele>526.5</ele>
        <time>2022-08-20T06:15:26Z</time>
      </trkpt>
      <trkpt lat="42.566429" lon="-6.598723">
        <ele>524.5</ele>
        <time>2022-08-20T06:15:41Z</time>
      </trkpt>
      <trkpt lat="42.566589" lon="-6.598864">
        <ele>525.5</ele>
        <time>2022-08-20T06:15:54Z</time>
      </trkpt>
      <trkpt lat="42.566730" lon="-6.599020">
        <ele>527.6</ele>
        <time>2022-08-20T06:16:08Z</time>
      </trkpt>
      <trkpt lat="42.566864" lon="-6.599185">
        <ele>525.6</ele>
        <time>2022-08-20T06:16:21Z</time>
      </trkpt>
      <trkpt lat="42.567006" lon="-6.599346">
        <ele>523.6</ele>
        <time>2022-08-20T06:16:34Z</time>
      </trkpt>
      <trkpt lat="42.567150" lon="-6.599524">
        <ele>524.6</ele>
        <time>2022-08-20T06:16:48Z</time>
      </trkpt>
      <trkpt lat="42.567314" lon="-6.599660">
        <ele>525.8</ele>
        <time>2022-08-20T06:17:03Z</time>
      </trkpt>
      <trkpt lat="42.567461" lon="-6.599809">
        <ele>526.6</ele>
        <time>2022-08-20T06:17:17Z</time>
      </trkpt>
      <trkpt lat="42.567601" lon="-6.599977">
        <ele>529.6</ele>
        <time>2022-08-20T06:17:30Z</time>
      </trkpt>
      <trkpt lat="42.567737" lon="-6.600142">
        <ele>533.3</ele>
        <time>2022-08-20T06:17:43Z</time>
      </trkpt>
      <trkpt lat="42.567877" lon="-6.600296">
        <ele>534.7</ele>
        <time>2022-08-20T06:17:59Z</time>
      </trkpt>
      <trkpt lat="42.568022" lon="-6.600461">
        <ele>531.7</ele>
        <time>2022-08-20T06:18:12Z</time>
      </trkpt>
      <trkpt lat="42.568170" lon="-6.600607">
        <ele>529.0</ele>
        <time>2022-08-20T06:18:26Z</time>
      </trkpt>
      <trkpt lat="42.568324" lon="-6.600748">
        <ele>528.6</ele>
        <time>2022-08-20T06:18:40Z</time>
      </trkpt>
      <trkpt lat="42.568509" lon="-6.600862">
        <ele>531.3</ele>
        <time>2022-08-20T06:18:53Z</time>
      </trkpt>
      <trkpt lat="42.568659" lon="-6.600997">
        <ele>536.6</ele>
        <time>2022-08-20T06:19:07Z</time>
      </trkpt>
      <trkpt lat="42.568819" lon="-6.601128">
        <ele>536.6</ele>
        <time>2022-08-20T06:19:22Z</time>
      </trkpt>
      <trkpt lat="42.568995" lon="-6.601215">
        <ele>535.6</ele>
        <time>2022-08-20T06:19:36Z</time>
      </trkpt>
      <trkpt lat="42.569166" lon="-6.601299">
        <ele>537.5</ele>
        <time>2022-08-20T06:19:50Z</time>
      </trkpt>
      <trkpt lat="42.569345" lon="-6.601384">
        <ele>539.5</ele>
        <time>2022-08-20T06:20:03Z</time>
      </trkpt>
      <trkpt lat="42.569525" lon="-6.601443">
        <ele>538.6</ele>
        <time>2022-08-20T06:20:19Z</time>
      </trkpt>
      <trkpt lat="42.569691" lon="-6.601552">
        <ele>540.3</ele>
        <time>2022-08-20T06:20:33Z</time>
      </trkpt>
      <trkpt lat="42.569874" lon="-6.601593">
        <ele>542.6</ele>
        <time>2022-08-20T06:20:45Z</time>
      </trkpt>
      <trkpt lat="42.570034" lon="-6.601730">
        <ele>535.7</ele>
        <time>2022-08-20T06:21:00Z</time>
      </trkpt>
      <trkpt lat="42.570211" lon="-6.601825">
        <ele>533.9</ele>
        <time>2022-08-20T06:21:16Z</time>
      </trkpt>
      <trkpt lat="42.570393" lon="-6.601906">
        <ele>534.5</ele>
        <time>2022-08-20T06:21:31Z</time>
      </trkpt>
      <trkpt lat="42.570565" lon="-6.601990">
        <ele>532.7</ele>
        <time>2022-08-20T06:21:44Z</time>
      </trkpt>
      <trkpt lat="42.570708" lon="-6.602166">
        <ele>530.6</ele>
        <time>2022-08-20T06:21:59Z</time>
      </trkpt>
      <trkpt lat="42.570764" lon="-6.602410">
        <ele>529.9</ele>
        <time>2022-08-20T06:22:12Z</time>
      </trkpt>
      <trkpt lat="42.570817" lon="-6.602652">
        <ele>531.3</ele>
        <time>2022-08-20T06:22:24Z</time>
      </trkpt>
      <trkpt lat="42.570882" lon="-6.602894">
        <ele>532.3</ele>
        <time>2022-08-20T06:22:38Z</time>
      </trkpt>
      <trkpt lat="42.570963" lon="-6.603115">
        <ele>531.3</ele>
        <time>2022-08-20T06:22:53Z</time>
      </trkpt>
      <trkpt lat="42.571073" lon="-6.603324">
        <ele>532.6</ele>
        <time>2022-08-20T06:23:08Z</time>
      </trkpt>
      <trkpt lat="42.571191" lon="-6.603522">
        <ele>534.4</ele>
        <time>2022-08-20T06:23:22Z</time>
      </trkpt>
      <trkpt lat="42.571322" lon="-6.603702">
        <ele>536.6</ele>
        <time>2022-08-20T06:23:37Z</time>
      </trkpt>
      <trkpt lat="42.571458" lon="-6.603885">
        <ele>538.5</ele>
        <time>2022-08-20T06:23:50Z</time>
      </trkpt>
      <trkpt lat="42.571591" lon="-6.604061">
        <ele>536.6</ele>
        <time>2022-08-20T06:24:05Z</time>
      </trkpt>
      <trkpt lat="42.571736" lon="-6.604207">
        <ele>535.6</ele>
        <time>2022-08-20T06:24:18Z</time>
      </trkpt>
      <trkpt lat="42.571885" lon="-6.604352">
        <ele>536.7</ele>
        <time>2022-08-20T06:24:31Z</time>
      </trkpt>
      <trkpt lat="42.572007" lon="-6.604542">
        <ele>538.6</ele>
        <time>2022-08-20T06:24:45Z</time>
      </trkpt>
      <trkpt lat="42.572074" lon="-6.604787">
        <ele>537.6</ele>
        <time>2022-08-20T06:24:58Z</time>
      </trkpt>
      <trkpt lat="42.572146" lon="-6.605016">
        <ele>537.7</ele>
        <time>2022-08-20T06:25:12Z</time>
      </trkpt>
      <trkpt lat="42.572180" lon="-6.605262">
        <ele>537.6</ele>
        <time>2022-08-20T06:25:25Z</time>
      </trkpt>
      <trkpt lat="42.572213" lon="-6.605505">
        <ele>535.6</ele>
        <time>2022-08-20T06:25:41Z</time>
      </trkpt>
      <trkpt lat="42.572218" lon="-6.605652">
        <ele>538.7</ele>
        <time>2022-08-20T06:30:06Z</time>
      </trkpt>
      <trkpt lat="42.572266" lon="-6.605905">
        <ele>535.6</ele>
        <time>2022-08-20T06:30:21Z</time>
      </trkpt>
      <trkpt lat="42.572294" lon="-6.606164">
        <ele>532.6</ele>
        <time>2022-08-20T06:30:36Z</time>
      </trkpt>
      <trkpt lat="42.572327" lon="-6.606420">
        <ele>534.6</ele>
        <time>2022-08-20T06:30:50Z</time>
      </trkpt>
      <trkpt lat="42.572358" lon="-6.606675">
        <ele>534.9</ele>
        <time>2022-08-20T06:31:04Z</time>
      </trkpt>
      <trkpt lat="42.572378" lon="-6.606929">
        <ele>536.3</ele>
        <time>2022-08-20T06:31:19Z</time>
      </trkpt>
      <trkpt lat="42.572395" lon="-6.607175">
        <ele>533.6</ele>
        <time>2022-08-20T06:31:33Z</time>
      </trkpt>
      <trkpt lat="42.572388" lon="-6.607431">
        <ele>531.3</ele>
        <time>2022-08-20T06:31:54Z</time>
      </trkpt>
      <trkpt lat="42.572417" lon="-6.607675">
        <ele>530.9</ele>
        <time>2022-08-20T06:32:08Z</time>
      </trkpt>
      <trkpt lat="42.572461" lon="-6.607928">
        <ele>528.6</ele>
        <time>2022-08-20T06:32:21Z</time>
      </trkpt>
      <trkpt lat="42.572487" lon="-6.608176">
        <ele>529.5</ele>
        <time>2022-08-20T06:32:35Z</time>
      </trkpt>
      <trkpt lat="42.572517" lon="-6.608421">
        <ele>523.9</ele>
        <time>2022-08-20T06:32:59Z</time>
      </trkpt>
      <trkpt lat="42.572500" lon="-6.608667">
        <ele>524.6</ele>
        <time>2022-08-20T06:33:19Z</time>
      </trkpt>
      <trkpt lat="42.572598" lon="-6.608873">
        <ele>526.5</ele>
        <time>2022-08-20T06:33:32Z</time>
      </trkpt>
      <trkpt lat="42.572681" lon="-6.609098">
        <ele>524.6</ele>
        <time>2022-08-20T06:33:45Z</time>
      </trkpt>
      <trkpt lat="42.572744" lon="-6.609328">
        <ele>524.5</ele>
        <time>2022-08-20T06:33:58Z</time>
      </trkpt>
      <trkpt lat="42.572800" lon="-6.609592">
        <ele>522.6</ele>
        <time>2022-08-20T06:34:13Z</time>
      </trkpt>
      <trkpt lat="42.572859" lon="-6.609831">
        <ele>523.6</ele>
        <time>2022-08-20T06:34:27Z</time>
      </trkpt>
      <trkpt lat="42.572943" lon="-6.610063">
        <ele>523.6</ele>
        <time>2022-08-20T06:34:43Z</time>
      </trkpt>
      <trkpt lat="42.573024" lon="-6.610292">
        <ele>525.3</ele>
        <time>2022-08-20T06:34:58Z</time>
      </trkpt>
      <trkpt lat="42.573159" lon="-6.610459">
        <ele>524.7</ele>
        <time>2022-08-20T06:35:10Z</time>
      </trkpt>
      <trkpt lat="42.573260" lon="-6.610678">
        <ele>522.5</ele>
        <time>2022-08-20T06:35:23Z</time>
      </trkpt>
      <trkpt lat="42.573358" lon="-6.610895">
        <ele>521.6</ele>
        <time>2022-08-20T06:35:37Z</time>
      </trkpt>
      <trkpt lat="42.573490" lon="-6.611073">
        <ele>518.9</ele>
        <time>2022-08-20T06:35:52Z</time>
      </trkpt>
      <trkpt lat="42.573632" lon="-6.611232">
        <ele>518.6</ele>
        <time>2022-08-20T06:36:07Z</time>
      </trkpt>
      <trkpt lat="42.573789" lon="-6.611374">
        <ele>516.6</ele>
        <time>2022-08-20T06:36:21Z</time>
      </trkpt>
      <trkpt lat="42.573918" lon="-6.611555">
        <ele>514.6</ele>
        <time>2022-08-20T06:36:37Z</time>
      </trkpt>
      <trkpt lat="42.574043" lon="-6.611734">
        <ele>516.3</ele>
        <time>2022-08-20T06:36:50Z</time>
      </trkpt>
      <trkpt lat="42.574171" lon="-6.611926">
        <ele>513.7</ele>
        <time>2022-08-20T06:37:02Z</time>
      </trkpt>
      <trkpt lat="42.574319" lon="-6.612078">
        <ele>516.5</ele>
        <time>2022-08-20T06:37:15Z</time>
      </trkpt>
      <trkpt lat="42.574437" lon="-6.612284">
        <ele>513.9</ele>
        <time>2022-08-20T06:37:28Z</time>
      </trkpt>
      <trkpt lat="42.574487" lon="-6.612531">
        <ele>514.5</ele>
        <time>2022-08-20T06:37:42Z</time>
      </trkpt>
      <trkpt lat="42.574535" lon="-6.612768">
        <ele>516.6</ele>
        <time>2022-08-20T06:37:55Z</time>
      </trkpt>
      <trkpt lat="42.574578" lon="-6.613027">
        <ele>518.6</ele>
        <time>2022-08-20T06:38:09Z</time>
      </trkpt>
      <trkpt lat="42.574609" lon="-6.613275">
        <ele>519.6</ele>
        <time>2022-08-20T06:38:23Z</time>
      </trkpt>
      <trkpt lat="42.574608" lon="-6.613542">
        <ele>517.6</ele>
        <time>2022-08-20T06:38:37Z</time>
      </trkpt>
      <trkpt lat="42.574613" lon="-6.613795">
        <ele>519.6</ele>
        <time>2022-08-20T06:38:50Z</time>
      </trkpt>
      <trkpt lat="42.574648" lon="-6.614045">
        <ele>520.6</ele>
        <time>2022-08-20T06:39:04Z</time>
      </trkpt>
      <trkpt lat="42.574670" lon="-6.614304">
        <ele>520.6</ele>
        <time>2022-08-20T06:39:18Z</time>
      </trkpt>
      <trkpt lat="42.574683" lon="-6.614564">
        <ele>520.9</ele>
        <time>2022-08-20T06:39:31Z</time>
      </trkpt>
      <trkpt lat="42.574713" lon="-6.614805">
        <ele>520.6</ele>
        <time>2022-08-20T06:39:45Z</time>
      </trkpt>
      <trkpt lat="42.574740" lon="-6.615072">
        <ele>519.6</ele>
        <time>2022-08-20T06:39:58Z</time>
      </trkpt>
      <trkpt lat="42.574759" lon="-6.615331">
        <ele>519.6</ele>
        <time>2022-08-20T06:40:12Z</time>
      </trkpt>
      <trkpt lat="42.574789" lon="-6.615582">
        <ele>518.6</ele>
        <time>2022-08-20T06:40:26Z</time>
      </trkpt>
      <trkpt lat="42.574798" lon="-6.615830">
        <ele>518.6</ele>
        <time>2022-08-20T06:40:39Z</time>
      </trkpt>
      <trkpt lat="42.574831" lon="-6.616079">
        <ele>516.6</ele>
        <time>2022-08-20T06:40:54Z</time>
      </trkpt>
      <trkpt lat="42.574866" lon="-6.616321">
        <ele>515.9</ele>
        <time>2022-08-20T06:41:06Z</time>
      </trkpt>
      <trkpt lat="42.574904" lon="-6.616563">
        <ele>515.6</ele>
        <time>2022-08-20T06:41:18Z</time>
      </trkpt>
      <trkpt lat="42.574934" lon="-6.616805">
        <ele>513.6</ele>
        <time>2022-08-20T06:41:32Z</time>
      </trkpt>
      <trkpt lat="42.574978" lon="-6.617047">
        <ele>512.6</ele>
        <time>2022-08-20T06:41:45Z</time>
      </trkpt>
      <trkpt lat="42.575022" lon="-6.617287">
        <ele>512.6</ele>
        <time>2022-08-20T06:41:59Z</time>
      </trkpt>
      <trkpt lat="42.575056" lon="-6.617546">
        <ele>514.3</ele>
        <time>2022-08-20T06:42:13Z</time>
      </trkpt>
      <trkpt lat="42.575109" lon="-6.617789">
        <ele>515.6</ele>
        <time>2022-08-20T06:42:25Z</time>
      </trkpt>
      <trkpt lat="42.575126" lon="-6.618049">
        <ele>515.6</ele>
        <time>2022-08-20T06:42:39Z</time>
      </trkpt>
      <trkpt lat="42.575166" lon="-6.618299">
        <ele>514.6</ele>
        <time>2022-08-20T06:42:54Z</time>
      </trkpt>
      <trkpt lat="42.575187" lon="-6.618554">
        <ele>515.2</ele>
        <time>2022-08-20T06:43:08Z</time>
      </trkpt>
      <trkpt lat="42.575224" lon="-6.618795">
        <ele>517.5</ele>
        <time>2022-08-20T06:43:20Z</time>
      </trkpt>
      <trkpt lat="42.575242" lon="-6.619046">
        <ele>517.3</ele>
        <time>2022-08-20T06:43:35Z</time>
      </trkpt>
      <trkpt lat="42.575278" lon="-6.619294">
        <ele>517.6</ele>
        <time>2022-08-20T06:43:49Z</time>
      </trkpt>
      <trkpt lat="42.575314" lon="-6.619533">
        <ele>515.5</ele>
        <time>2022-08-20T06:44:02Z</time>
      </trkpt>
      <trkpt lat="42.575329" lon="-6.619781">
        <ele>515.7</ele>
        <time>2022-08-20T06:44:14Z</time>
      </trkpt>
      <trkpt lat="42.575349" lon="-6.620041">
        <ele>515.6</ele>
        <time>2022-08-20T06:44:29Z</time>
      </trkpt>
      <trkpt lat="42.575351" lon="-6.620297">
        <ele>514.6</ele>
        <time>2022-08-20T06:44:43Z</time>
      </trkpt>
      <trkpt lat="42.575366" lon="-6.620558">
        <ele>517.3</ele>
        <time>2022-08-20T06:44:56Z</time>
      </trkpt>
      <trkpt lat="42.575375" lon="-6.620806">
        <ele>517.6</ele>
        <time>2022-08-20T06:45:09Z</time>
      </trkpt>
      <trkpt lat="42.575369" lon="-6.621055">
        <ele>516.6</ele>
        <time>2022-08-20T06:45:22Z</time>
      </trkpt>
      <trkpt lat="42.575396" lon="-6.621306">
        <ele>515.6</ele>
        <time>2022-08-20T06:45:35Z</time>
      </trkpt>
      <trkpt lat="42.575416" lon="-6.621582">
        <ele>515.6</ele>
        <time>2022-08-20T06:45:49Z</time>
      </trkpt>
      <trkpt lat="42.575440" lon="-6.621831">
        <ele>513.7</ele>
        <time>2022-08-20T06:46:03Z</time>
      </trkpt>
      <trkpt lat="42.575466" lon="-6.622077">
        <ele>515.4</ele>
        <time>2022-08-20T06:46:16Z</time>
      </trkpt>
      <trkpt lat="42.575470" lon="-6.622342">
        <ele>516.6</ele>
        <time>2022-08-20T06:46:29Z</time>
      </trkpt>
      <trkpt lat="42.575480" lon="-6.622599">
        <ele>514.9</ele>
        <time>2022-08-20T06:46:42Z</time>
      </trkpt>
      <trkpt lat="42.575508" lon="-6.622852">
        <ele>512.6</ele>
        <time>2022-08-20T06:46:55Z</time>
      </trkpt>
      <trkpt lat="42.575531" lon="-6.623098">
        <ele>511.9</ele>
        <time>2022-08-20T06:47:09Z</time>
      </trkpt>
      <trkpt lat="42.575552" lon="-6.623347">
        <ele>514.3</ele>
        <time>2022-08-20T06:47:22Z</time>
      </trkpt>
      <trkpt lat="42.575553" lon="-6.623605">
        <ele>512.6</ele>
        <time>2022-08-20T06:47:36Z</time>
      </trkpt>
      <trkpt lat="42.575567" lon="-6.623866">
        <ele>511.6</ele>
        <time>2022-08-20T06:47:49Z</time>
      </trkpt>
      <trkpt lat="42.575596" lon="-6.624110">
        <ele>513.5</ele>
        <time>2022-08-20T06:48:03Z</time>
      </trkpt>
      <trkpt lat="42.575625" lon="-6.624356">
        <ele>511.6</ele>
        <time>2022-08-20T06:48:16Z</time>
      </trkpt>
      <trkpt lat="42.575655" lon="-6.624598">
        <ele>511.6</ele>
        <time>2022-08-20T06:48:29Z</time>
      </trkpt>
      <trkpt lat="42.575668" lon="-6.624843">
        <ele>511.6</ele>
        <time>2022-08-20T06:48:42Z</time>
      </trkpt>
      <trkpt lat="42.575719" lon="-6.625079">
        <ele>510.6</ele>
        <time>2022-08-20T06:48:56Z</time>
      </trkpt>
      <trkpt lat="42.575770" lon="-6.625326">
        <ele>509.7</ele>
        <time>2022-08-20T06:49:10Z</time>
      </trkpt>
      <trkpt lat="42.575818" lon="-6.625577">
        <ele>512.6</ele>
        <time>2022-08-20T06:49:23Z</time>
      </trkpt>
      <trkpt lat="42.575848" lon="-6.625826">
        <ele>511.9</ele>
        <time>2022-08-20T06:49:35Z</time>
      </trkpt>
      <trkpt lat="42.575865" lon="-6.626076">
        <ele>513.6</ele>
        <time>2022-08-20T06:49:49Z</time>
      </trkpt>
      <trkpt lat="42.575899" lon="-6.626317">
        <ele>513.6</ele>
        <time>2022-08-20T06:50:02Z</time>
      </trkpt>
      <trkpt lat="42.575920" lon="-6.626562">
        <ele>511.6</ele>
        <time>2022-08-20T06:50:15Z</time>
      </trkpt>
      <trkpt lat="42.575947" lon="-6.626804">
        <ele>510.6</ele>
        <time>2022-08-20T06:50:28Z</time>
      </trkpt>
      <trkpt lat="42.575953" lon="-6.627049">
        <ele>508.3</ele>
        <time>2022-08-20T06:50:41Z</time>
      </trkpt>
      <trkpt lat="42.575971" lon="-6.627300">
        <ele>511.6</ele>
        <time>2022-08-20T06:50:56Z</time>
      </trkpt>
      <trkpt lat="42.576019" lon="-6.627549">
        <ele>510.0</ele>
        <time>2022-08-20T06:52:35Z</time>
      </trkpt>
      <trkpt lat="42.576088" lon="-6.627789">
        <ele>510.6</ele>
        <time>2022-08-20T06:52:48Z</time>
      </trkpt>
      <trkpt lat="42.576165" lon="-6.628031">
        <ele>509.9</ele>
        <time>2022-08-20T06:53:01Z</time>
      </trkpt>
      <trkpt lat="42.576244" lon="-6.628262">
        <ele>510.6</ele>
        <time>2022-08-20T06:53:15Z</time>
      </trkpt>
      <trkpt lat="42.576328" lon="-6.628490">
        <ele>513.5</ele>
        <time>2022-08-20T06:53:37Z</time>
      </trkpt>
      <trkpt lat="42.576415" lon="-6.628728">
        <ele>512.7</ele>
        <time>2022-08-20T06:53:51Z</time>
      </trkpt>
      <trkpt lat="42.576514" lon="-6.628952">
        <ele>513.6</ele>
        <time>2022-08-20T06:54:06Z</time>
      </trkpt>
      <trkpt lat="42.576613" lon="-6.629175">
        <ele>513.6</ele>
        <time>2022-08-20T06:54:20Z</time>
      </trkpt>
      <trkpt lat="42.576718" lon="-6.629393">
        <ele>509.9</ele>
        <time>2022-08-20T06:54:34Z</time>
      </trkpt>
      <trkpt lat="42.576832" lon="-6.629583">
        <ele>510.5</ele>
        <time>2022-08-20T06:54:48Z</time>
      </trkpt>
      <trkpt lat="42.576969" lon="-6.629766">
        <ele>510.4</ele>
        <time>2022-08-20T06:55:02Z</time>
      </trkpt>
      <trkpt lat="42.577093" lon="-6.629956">
        <ele>509.6</ele>
        <time>2022-08-20T06:55:16Z</time>
      </trkpt>
      <trkpt lat="42.577226" lon="-6.630142">
        <ele>510.3</ele>
        <time>2022-08-20T06:55:30Z</time>
      </trkpt>
      <trkpt lat="42.577353" lon="-6.630317">
        <ele>509.6</ele>
        <time>2022-08-20T06:55:43Z</time>
      </trkpt>
      <trkpt lat="42.577472" lon="-6.630531">
        <ele>510.6</ele>
        <time>2022-08-20T06:55:57Z</time>
      </trkpt>
      <trkpt lat="42.577584" lon="-6.630743">
        <ele>509.6</ele>
        <time>2022-08-20T06:56:12Z</time>
      </trkpt>
      <trkpt lat="42.577678" lon="-6.630955">
        <ele>508.6</ele>
        <time>2022-08-20T06:56:25Z</time>
      </trkpt>
      <trkpt lat="42.577773" lon="-6.631174">
        <ele>507.7</ele>
        <time>2022-08-20T06:56:38Z</time>
      </trkpt>
      <trkpt lat="42.577859" lon="-6.631394">
        <ele>506.6</ele>
        <time>2022-08-20T06:56:52Z</time>
      </trkpt>
      <trkpt lat="42.577939" lon="-6.631623">
        <ele>508.8</ele>
        <time>2022-08-20T06:57:05Z</time>
      </trkpt>
      <trkpt lat="42.578021" lon="-6.631855">
        <ele>511.6</ele>
        <time>2022-08-20T06:57:20Z</time>
      </trkpt>
      <trkpt lat="42.578089" lon="-6.632089">
        <ele>510.8</ele>
        <time>2022-08-20T06:57:34Z</time>
      </trkpt>
      <trkpt lat="42.578114" lon="-6.632348">
        <ele>508.9</ele>
        <time>2022-08-20T06:57:48Z</time>
      </trkpt>
      <trkpt lat="42.578095" lon="-6.632597">
        <ele>508.4</ele>
        <time>2022-08-20T06:58:01Z</time>
      </trkpt>
      <trkpt lat="42.578053" lon="-6.632843">
        <ele>507.7</ele>
        <time>2022-08-20T06:58:14Z</time>
      </trkpt>
      <trkpt lat="42.577998" lon="-6.633093">
        <ele>507.5</ele>
        <time>2022-08-20T06:58:28Z</time>
      </trkpt>
      <trkpt lat="42.577963" lon="-6.633336">
        <ele>507.6</ele>
        <time>2022-08-20T06:58:41Z</time>
      </trkpt>
      <trkpt lat="42.577903" lon="-6.633580">
        <ele>506.6</ele>
        <time>2022-08-20T06:58:55Z</time>
      </trkpt>
      <trkpt lat="42.577851" lon="-6.633842">
        <ele>507.6</ele>
        <time>2022-08-20T06:59:08Z</time>
      </trkpt>
      <trkpt lat="42.577784" lon="-6.634081">
        <ele>505.7</ele>
        <time>2022-08-20T06:59:23Z</time>
      </trkpt>
      <trkpt lat="42.577704" lon="-6.634313">
        <ele>504.7</ele>
        <time>2022-08-20T06:59:37Z</time>
      </trkpt>
      <trkpt lat="42.577611" lon="-6.634537">
        <ele>504.6</ele>
        <time>2022-08-20T06:59:50Z</time>
      </trkpt>
      <trkpt lat="42.577514" lon="-6.634763">
        <ele>505.6</ele>
        <time>2022-08-20T07:00:03Z</time>
      </trkpt>
      <trkpt lat="42.577442" lon="-6.635003">
        <ele>505.3</ele>
        <time>2022-08-20T07:00:17Z</time>
      </trkpt>
      <trkpt lat="42.577360" lon="-6.635220">
        <ele>505.9</ele>
        <time>2022-08-20T07:00:29Z</time>
      </trkpt>
      <trkpt lat="42.577300" lon="-6.635458">
        <ele>508.6</ele>
        <time>2022-08-20T07:00:43Z</time>
      </trkpt>
      <trkpt lat="42.577242" lon="-6.635711">
        <ele>508.6</ele>
        <time>2022-08-20T07:00:58Z</time>
      </trkpt>
      <trkpt lat="42.577194" lon="-6.635951">
        <ele>507.3</ele>
        <time>2022-08-20T07:01:10Z</time>
      </trkpt>
      <trkpt lat="42.577143" lon="-6.636186">
        <ele>506.5</ele>
        <time>2022-08-20T07:01:24Z</time>
      </trkpt>
      <trkpt lat="42.577125" lon="-6.636441">
        <ele>504.6</ele>
        <time>2022-08-20T07:01:38Z</time>
      </trkpt>
      <trkpt lat="42.577120" lon="-6.636688">
        <ele>505.6</ele>
        <time>2022-08-20T07:01:50Z</time>
      </trkpt>
      <trkpt lat="42.577100" lon="-6.636941">
        <ele>507.6</ele>
        <time>2022-08-20T07:02:03Z</time>
      </trkpt>
      <trkpt lat="42.577073" lon="-6.637199">
        <ele>505.6</ele>
        <time>2022-08-20T07:02:18Z</time>
      </trkpt>
      <trkpt lat="42.577019" lon="-6.637448">
        <ele>506.7</ele>
        <time>2022-08-20T07:02:31Z</time>
      </trkpt>
      <trkpt lat="42.576973" lon="-6.637714">
        <ele>509.3</ele>
        <time>2022-08-20T07:02:44Z</time>
      </trkpt>
      <trkpt lat="42.576917" lon="-6.637973">
        <ele>508.6</ele>
        <time>2022-08-20T07:02:59Z</time>
      </trkpt>
      <trkpt lat="42.576882" lon="-6.638225">
        <ele>508.6</ele>
        <time>2022-08-20T07:03:13Z</time>
      </trkpt>
      <trkpt lat="42.576873" lon="-6.638470">
        <ele>509.6</ele>
        <time>2022-08-20T07:03:27Z</time>
      </trkpt>
      <trkpt lat="42.576819" lon="-6.638707">
        <ele>511.0</ele>
        <time>2022-08-20T07:03:54Z</time>
      </trkpt>
      <trkpt lat="42.576781" lon="-6.638970">
        <ele>511.5</ele>
        <time>2022-08-20T07:04:09Z</time>
      </trkpt>
      <trkpt lat="42.576803" lon="-6.639216">
        <ele>509.9</ele>
        <time>2022-08-20T07:04:24Z</time>
      </trkpt>
      <trkpt lat="42.576836" lon="-6.639466">
        <ele>506.6</ele>
        <time>2022-08-20T07:04:38Z</time>
      </trkpt>
      <trkpt lat="42.576899" lon="-6.639698">
        <ele>512.6</ele>
        <time>2022-08-20T07:04:57Z</time>
      </trkpt>
      <trkpt lat="42.576946" lon="-6.639940">
        <ele>507.5</ele>
        <time>2022-08-20T07:05:24Z</time>
      </trkpt>
      <trkpt lat="42.577026" lon="-6.640162">
        <ele>506.9</ele>
        <time>2022-08-20T07:05:37Z</time>
      </trkpt>
      <trkpt lat="42.577110" lon="-6.640386">
        <ele>506.4</ele>
        <time>2022-08-20T07:05:50Z</time>
      </trkpt>
      <trkpt lat="42.577205" lon="-6.640606">
        <ele>506.6</ele>
        <time>2022-08-20T07:06:04Z</time>
      </trkpt>
      <trkpt lat="42.577279" lon="-6.640829">
        <ele>509.6</ele>
        <time>2022-08-20T07:06:17Z</time>
      </trkpt>
      <trkpt lat="42.577326" lon="-6.641084">
        <ele>510.9</ele>
        <time>2022-08-20T07:06:30Z</time>
      </trkpt>
      <trkpt lat="42.577371" lon="-6.641332">
        <ele>511.6</ele>
        <time>2022-08-20T07:06:43Z</time>
      </trkpt>
      <trkpt lat="42.577377" lon="-6.641579">
        <ele>514.6</ele>
        <time>2022-08-20T07:06:56Z</time>
      </trkpt>
      <trkpt lat="42.577401" lon="-6.641821">
        <ele>514.7</ele>
        <time>2022-08-20T07:07:09Z</time>
      </trkpt>
      <trkpt lat="42.577391" lon="-6.642073">
        <ele>514.6</ele>
        <time>2022-08-20T07:07:24Z</time>
      </trkpt>
      <trkpt lat="42.577410" lon="-6.642316">
        <ele>513.7</ele>
        <time>2022-08-20T07:07:36Z</time>
      </trkpt>
      <trkpt lat="42.577400" lon="-6.642564">
        <ele>514.6</ele>
        <time>2022-08-20T07:07:49Z</time>
      </trkpt>
      <trkpt lat="42.577401" lon="-6.642828">
        <ele>513.3</ele>
        <time>2022-08-20T07:08:04Z</time>
      </trkpt>
      <trkpt lat="42.577419" lon="-6.643087">
        <ele>511.6</ele>
        <time>2022-08-20T07:08:19Z</time>
      </trkpt>
      <trkpt lat="42.577402" lon="-6.643331">
        <ele>512.6</ele>
        <time>2022-08-20T07:08:32Z</time>
      </trkpt>
      <trkpt lat="42.577383" lon="-6.643577">
        <ele>511.6</ele>
        <time>2022-08-20T07:08:45Z</time>
      </trkpt>
      <trkpt lat="42.577366" lon="-6.643822">
        <ele>512.6</ele>
        <time>2022-08-20T07:08:59Z</time>
      </trkpt>
      <trkpt lat="42.577374" lon="-6.644068">
        <ele>513.6</ele>
        <time>2022-08-20T07:09:11Z</time>
      </trkpt>
      <trkpt lat="42.577417" lon="-6.644305">
        <ele>513.7</ele>
        <time>2022-08-20T07:09:26Z</time>
      </trkpt>
      <trkpt lat="42.577420" lon="-6.644559">
        <ele>509.7</ele>
        <time>2022-08-20T07:09:41Z</time>
      </trkpt>
      <trkpt lat="42.577423" lon="-6.644814">
        <ele>508.7</ele>
        <time>2022-08-20T07:10:07Z</time>
      </trkpt>
      <trkpt lat="42.577405" lon="-6.645077">
        <ele>506.4</ele>
        <time>2022-08-20T07:10:22Z</time>
      </trkpt>
      <trkpt lat="42.577359" lon="-6.645318">
        <ele>508.8</ele>
        <time>2022-08-20T07:10:35Z</time>
      </trkpt>
      <trkpt lat="42.577357" lon="-6.645579">
        <ele>510.6</ele>
        <time>2022-08-20T07:10:49Z</time>
      </trkpt>
      <trkpt lat="42.577358" lon="-6.645840">
        <ele>507.9</ele>
        <time>2022-08-20T07:11:02Z</time>
      </trkpt>
      <trkpt lat="42.577333" lon="-6.646085">
        <ele>509.6</ele>
        <time>2022-08-20T07:11:16Z</time>
      </trkpt>
      <trkpt lat="42.577302" lon="-6.646328">
        <ele>508.6</ele>
        <time>2022-08-20T07:11:30Z</time>
      </trkpt>
      <trkpt lat="42.577273" lon="-6.646574">
        <ele>507.6</ele>
        <time>2022-08-20T07:11:44Z</time>
      </trkpt>
      <trkpt lat="42.577234" lon="-6.646819">
        <ele>506.6</ele>
        <time>2022-08-20T07:11:57Z</time>
      </trkpt>
      <trkpt lat="42.577218" lon="-6.647080">
        <ele>506.5</ele>
        <time>2022-08-20T07:12:11Z</time>
      </trkpt>
      <trkpt lat="42.577208" lon="-6.647329">
        <ele>504.6</ele>
        <time>2022-08-20T07:12:26Z</time>
      </trkpt>
      <trkpt lat="42.577188" lon="-6.647577">
        <ele>507.3</ele>
        <time>2022-08-20T07:12:38Z</time>
      </trkpt>
      <trkpt lat="42.577181" lon="-6.647823">
        <ele>506.6</ele>
        <time>2022-08-20T07:12:51Z</time>
      </trkpt>
      <trkpt lat="42.577156" lon="-6.648079">
        <ele>508.3</ele>
        <time>2022-08-20T07:13:04Z</time>
      </trkpt>
      <trkpt lat="42.577146" lon="-6.648325">
        <ele>508.7</ele>
        <time>2022-08-20T07:13:17Z</time>
      </trkpt>
      <trkpt lat="42.577125" lon="-6.648584">
        <ele>509.6</ele>
        <time>2022-08-20T07:13:32Z</time>
      </trkpt>
      <trkpt lat="42.577105" lon="-6.648839">
        <ele>508.6</ele>
        <time>2022-08-20T07:13:47Z</time>
      </trkpt>
      <trkpt lat="42.577070" lon="-6.649098">
        <ele>509.6</ele>
        <time>2022-08-20T07:14:00Z</time>
      </trkpt>
      <trkpt lat="42.577032" lon="-6.649354">
        <ele>511.6</ele>
        <time>2022-08-20T07:14:14Z</time>
      </trkpt>
      <trkpt lat="42.577028" lon="-6.649600">
        <ele>510.6</ele>
        <time>2022-08-20T07:14:27Z</time>
      </trkpt>
      <trkpt lat="42.577014" lon="-6.649860">
        <ele>506.8</ele>
        <time>2022-08-20T07:14:41Z</time>
      </trkpt>
      <trkpt lat="42.576984" lon="-6.650113">
        <ele>508.6</ele>
        <time>2022-08-20T07:14:55Z</time>
      </trkpt>
      <trkpt lat="42.576912" lon="-6.650352">
        <ele>508.6</ele>
        <time>2022-08-20T07:15:10Z</time>
      </trkpt>
      <trkpt lat="42.576946" lon="-6.650602">
        <ele>502.6</ele>
        <time>2022-08-20T07:17:15Z</time>
      </trkpt>
      <trkpt lat="42.576916" lon="-6.650856">
        <ele>500.6</ele>
        <time>2022-08-20T07:17:31Z</time>
      </trkpt>
      <trkpt lat="42.576910" lon="-6.651104">
        <ele>500.7</ele>
        <time>2022-08-20T07:17:45Z</time>
      </trkpt>
      <trkpt lat="42.576919" lon="-6.651349">
        <ele>500.5</ele>
        <time>2022-08-20T07:17:58Z</time>
      </trkpt>
      <trkpt lat="42.576922" lon="-6.651603">
        <ele>500.4</ele>
        <time>2022-08-20T07:18:12Z</time>
      </trkpt>
      <trkpt lat="42.576945" lon="-6.651861">
        <ele>497.6</ele>
        <time>2022-08-20T07:18:27Z</time>
      </trkpt>
      <trkpt lat="42.576969" lon="-6.652119">
        <ele>496.9</ele>
        <time>2022-08-20T07:18:42Z</time>
      </trkpt>
      <trkpt lat="42.576997" lon="-6.652367">
        <ele>496.6</ele>
        <time>2022-08-20T07:18:56Z</time>
      </trkpt>
      <trkpt lat="42.577057" lon="-6.652616">
        <ele>498.6</ele>
        <time>2022-08-20T07:19:11Z</time>
      </trkpt>
      <trkpt lat="42.577086" lon="-6.652865">
        <ele>500.6</ele>
        <time>2022-08-20T07:19:24Z</time>
      </trkpt>
      <trkpt lat="42.577118" lon="-6.653120">
        <ele>499.7</ele>
        <time>2022-08-20T07:19:38Z</time>
      </trkpt>
      <trkpt lat="42.577126" lon="-6.653369">
        <ele>499.8</ele>
        <time>2022-08-20T07:19:52Z</time>
      </trkpt>
      <trkpt lat="42.577121" lon="-6.653624">
        <ele>502.5</ele>
        <time>2022-08-20T07:20:04Z</time>
      </trkpt>
      <trkpt lat="42.577083" lon="-6.653876">
        <ele>503.6</ele>
        <time>2022-08-20T07:20:17Z</time>
      </trkpt>
      <trkpt lat="42.577038" lon="-6.654128">
        <ele>505.6</ele>
        <time>2022-08-20T07:20:30Z</time>
      </trkpt>
      <trkpt lat="42.576945" lon="-6.654348">
        <ele>504.6</ele>
        <time>2022-08-20T07:20:43Z</time>
      </trkpt>
      <trkpt lat="42.576906" lon="-6.654587">
        <ele>505.2</ele>
        <time>2022-08-20T07:20:56Z</time>
      </trkpt>
      <trkpt lat="42.576886" lon="-6.654844">
        <ele>503.6</ele>
        <time>2022-08-20T07:21:09Z</time>
      </trkpt>
      <trkpt lat="42.576874" lon="-6.655103">
        <ele>501.8</ele>
        <time>2022-08-20T07:21:23Z</time>
      </trkpt>
      <trkpt lat="42.576904" lon="-6.655353">
        <ele>502.6</ele>
        <time>2022-08-20T07:21:37Z</time>
      </trkpt>
      <trkpt lat="42.576951" lon="-6.655596">
        <ele>501.7</ele>
        <time>2022-08-20T07:21:50Z</time>
      </trkpt>
      <trkpt lat="42.577005" lon="-6.655837">
        <ele>501.6</ele>
        <time>2022-08-20T07:22:03Z</time>
      </trkpt>
      <trkpt lat="42.576996" lon="-6.656092">
        <ele>500.9</ele>
        <time>2022-08-20T07:22:16Z</time>
      </trkpt>
      <trkpt lat="42.576997" lon="-6.656344">
        <ele>497.9</ele>
        <time>2022-08-20T07:22:31Z</time>
      </trkpt>
      <trkpt lat="42.576980" lon="-6.656612">
        <ele>497.6</ele>
        <time>2022-08-20T07:22:45Z</time>
      </trkpt>
      <trkpt lat="42.576955" lon="-6.656868">
        <ele>498.6</ele>
        <time>2022-08-20T07:22:57Z</time>
      </trkpt>
      <trkpt lat="42.576933" lon="-6.657125">
        <ele>498.6</ele>
        <time>2022-08-20T07:23:10Z</time>
      </trkpt>
      <trkpt lat="42.576851" lon="-6.657365">
        <ele>498.7</ele>
        <time>2022-08-20T07:23:25Z</time>
      </trkpt>
      <trkpt lat="42.576757" lon="-6.657577">
        <ele>500.5</ele>
        <time>2022-08-20T07:23:39Z</time>
      </trkpt>
      <trkpt lat="42.576636" lon="-6.657769">
        <ele>500.7</ele>
        <time>2022-08-20T07:23:52Z</time>
      </trkpt>
      <trkpt lat="42.576526" lon="-6.657986">
        <ele>502.6</ele>
        <time>2022-08-20T07:24:05Z</time>
      </trkpt>
      <trkpt lat="42.576433" lon="-6.658220">
        <ele>502.6</ele>
        <time>2022-08-20T07:24:20Z</time>
      </trkpt>
      <trkpt lat="42.576368" lon="-6.658451">
        <ele>502.6</ele>
        <time>2022-08-20T07:24:34Z</time>
      </trkpt>
      <trkpt lat="42.576339" lon="-6.658702">
        <ele>502.6</ele>
        <time>2022-08-20T07:24:51Z</time>
      </trkpt>
      <trkpt lat="42.576305" lon="-6.658952">
        <ele>501.6</ele>
        <time>2022-08-20T07:25:06Z</time>
      </trkpt>
      <trkpt lat="42.576265" lon="-6.659192">
        <ele>500.3</ele>
        <time>2022-08-20T07:25:19Z</time>
      </trkpt>
      <trkpt lat="42.576215" lon="-6.659442">
        <ele>500.6</ele>
        <time>2022-08-20T07:25:33Z</time>
      </trkpt>
      <trkpt lat="42.576176" lon="-6.659686">
        <ele>501.6</ele>
        <time>2022-08-20T07:25:46Z</time>
      </trkpt>
      <trkpt lat="42.576154" lon="-6.659941">
        <ele>501.6</ele>
        <time>2022-08-20T07:26:00Z</time>
      </trkpt>
      <trkpt lat="42.576127" lon="-6.660196">
        <ele>501.6</ele>
        <time>2022-08-20T07:26:15Z</time>
      </trkpt>
      <trkpt lat="42.576122" lon="-6.660441">
        <ele>499.6</ele>
        <time>2022-08-20T07:26:33Z</time>
      </trkpt>
      <trkpt lat="42.576067" lon="-6.660683">
        <ele>501.6</ele>
        <time>2022-08-20T07:26:47Z</time>
      </trkpt>
      <trkpt lat="42.576128" lon="-6.660913">
        <ele>500.6</ele>
        <time>2022-08-20T07:27:04Z</time>
      </trkpt>
      <trkpt lat="42.576212" lon="-6.661132">
        <ele>500.0</ele>
        <time>2022-08-20T07:27:19Z</time>
      </trkpt>
      <trkpt lat="42.576311" lon="-6.661355">
        <ele>497.6</ele>
        <time>2022-08-20T07:27:33Z</time>
      </trkpt>
      <trkpt lat="42.576391" lon="-6.661576">
        <ele>496.6</ele>
        <time>2022-08-20T07:27:50Z</time>
      </trkpt>
      <trkpt lat="42.576504" lon="-6.661783">
        <ele>498.6</ele>
        <time>2022-08-20T07:28:02Z</time>
      </trkpt>
      <trkpt lat="42.576591" lon="-6.662005">
        <ele>500.6</ele>
        <time>2022-08-20T07:28:16Z</time>
      </trkpt>
      <trkpt lat="42.576676" lon="-6.662244">
        <ele>499.6</ele>
        <time>2022-08-20T07:28:31Z</time>
      </trkpt>
      <trkpt lat="42.576756" lon="-6.662466">
        <ele>497.6</ele>
        <time>2022-08-20T07:28:45Z</time>
      </trkpt>
      <trkpt lat="42.576860" lon="-6.662682">
        <ele>493.9</ele>
        <time>2022-08-20T07:29:03Z</time>
      </trkpt>
      <trkpt lat="42.576935" lon="-6.662909">
        <ele>489.7</ele>
        <time>2022-08-20T07:29:17Z</time>
      </trkpt>
      <trkpt lat="42.576997" lon="-6.663151">
        <ele>490.6</ele>
        <time>2022-08-20T07:29:33Z</time>
      </trkpt>
      <trkpt lat="42.577129" lon="-6.663337">
        <ele>494.2</ele>
        <time>2022-08-20T07:29:55Z</time>
      </trkpt>
      <trkpt lat="42.577169" lon="-6.663588">
        <ele>498.9</ele>
        <time>2022-08-20T07:30:33Z</time>
      </trkpt>
      <trkpt lat="42.577271" lon="-6.663808">
        <ele>495.6</ele>
        <time>2022-08-20T07:30:50Z</time>
      </trkpt>
      <trkpt lat="42.577370" lon="-6.664014">
        <ele>492.0</ele>
        <time>2022-08-20T07:31:07Z</time>
      </trkpt>
      <trkpt lat="42.577449" lon="-6.664246">
        <ele>489.6</ele>
        <time>2022-08-20T07:31:22Z</time>
      </trkpt>
      <trkpt lat="42.577472" lon="-6.664509">
        <ele>492.5</ele>
        <time>2022-08-20T07:31:36Z</time>
      </trkpt>
      <trkpt lat="42.577572" lon="-6.664732">
        <ele>491.6</ele>
        <time>2022-08-20T07:31:48Z</time>
      </trkpt>
      <trkpt lat="42.577655" lon="-6.664965">
        <ele>493.6</ele>
        <time>2022-08-20T07:32:04Z</time>
      </trkpt>
      <trkpt lat="42.577737" lon="-6.665193">
        <ele>494.6</ele>
        <time>2022-08-20T07:32:18Z</time>
      </trkpt>
      <trkpt lat="42.577809" lon="-6.665420">
        <ele>495.7</ele>
        <time>2022-08-20T07:32:31Z</time>
      </trkpt>
      <trkpt lat="42.577911" lon="-6.665629">
        <ele>491.6</ele>
        <time>2022-08-20T07:32:48Z</time>
      </trkpt>
      <trkpt lat="42.577986" lon="-6.665865">
        <ele>492.5</ele>
        <time>2022-08-20T07:33:01Z</time>
      </trkpt>
      <trkpt lat="42.578066" lon="-6.666102">
        <ele>489.9</ele>
        <time>2022-08-20T07:33:18Z</time>
      </trkpt>
      <trkpt lat="42.578195" lon="-6.666282">
        <ele>485.6</ele>
        <time>2022-08-20T07:33:30Z</time>
      </trkpt>
      <trkpt lat="42.578309" lon="-6.666480">
        <ele>486.6</ele>
        <time>2022-08-20T07:33:45Z</time>
      </trkpt>
      <trkpt lat="42.578429" lon="-6.666670">
        <ele>491.2</ele>
        <time>2022-08-20T07:34:01Z</time>
      </trkpt>
      <trkpt lat="42.578549" lon="-6.666863">
        <ele>491.9</ele>
        <time>2022-08-20T07:34:21Z</time>
      </trkpt>
      <trkpt lat="42.578714" lon="-6.666985">
        <ele>491.3</ele>
        <time>2022-08-20T07:34:37Z</time>
      </trkpt>
      <trkpt lat="42.578893" lon="-6.667072">
        <ele>493.3</ele>
        <time>2022-08-20T07:34:51Z</time>
      </trkpt>
      <trkpt lat="42.578955" lon="-6.667317">
        <ele>492.7</ele>
        <time>2022-08-20T07:35:05Z</time>
      </trkpt>
      <trkpt lat="42.579023" lon="-6.667551">
        <ele>490.9</ele>
        <time>2022-08-20T07:35:20Z</time>
      </trkpt>
      <trkpt lat="42.579159" lon="-6.667716">
        <ele>490.6</ele>
        <time>2022-08-20T07:35:38Z</time>
      </trkpt>
      <trkpt lat="42.579264" lon="-6.667941">
        <ele>486.6</ele>
        <time>2022-08-20T07:35:57Z</time>
      </trkpt>
      <trkpt lat="42.579361" lon="-6.668164">
        <ele>489.3</ele>
        <time>2022-08-20T07:36:07Z</time>
      </trkpt>
      <trkpt lat="42.579438" lon="-6.668398">
        <ele>490.6</ele>
        <time>2022-08-20T07:36:23Z</time>
      </trkpt>
      <trkpt lat="42.579528" lon="-6.668616">
        <ele>495.3</ele>
        <time>2022-08-20T07:36:45Z</time>
      </trkpt>
      <trkpt lat="42.579644" lon="-6.668804">
        <ele>491.6</ele>
        <time>2022-08-20T07:37:00Z</time>
      </trkpt>
      <trkpt lat="42.579743" lon="-6.669020">
        <ele>491.3</ele>
        <time>2022-08-20T07:37:17Z</time>
      </trkpt>
      <trkpt lat="42.579851" lon="-6.669234">
        <ele>491.7</ele>
        <time>2022-08-20T07:37:30Z</time>
      </trkpt>
      <trkpt lat="42.579949" lon="-6.669448">
        <ele>489.6</ele>
        <time>2022-08-20T07:37:45Z</time>
      </trkpt>
      <trkpt lat="42.580018" lon="-6.669680">
        <ele>488.6</ele>
        <time>2022-08-20T07:38:01Z</time>
      </trkpt>
      <trkpt lat="42.580127" lon="-6.669899">
        <ele>486.6</ele>
        <time>2022-08-20T07:38:16Z</time>
      </trkpt>
      <trkpt lat="42.580232" lon="-6.670110">
        <ele>487.6</ele>
        <time>2022-08-20T07:38:30Z</time>
      </trkpt>
      <trkpt lat="42.580326" lon="-6.670327">
        <ele>486.6</ele>
        <time>2022-08-20T07:38:47Z</time>
      </trkpt>
      <trkpt lat="42.580424" lon="-6.670543">
        <ele>485.3</ele>
        <time>2022-08-20T07:39:03Z</time>
      </trkpt>
      <trkpt lat="42.580541" lon="-6.670738">
        <ele>483.7</ele>
        <time>2022-08-20T07:39:18Z</time>
      </trkpt>
      <trkpt lat="42.580641" lon="-6.670949">
        <ele>481.9</ele>
        <time>2022-08-20T07:39:33Z</time>
      </trkpt>
      <trkpt lat="42.580746" lon="-6.671154">
        <ele>478.7</ele>
        <time>2022-08-20T07:39:48Z</time>
      </trkpt>
      <trkpt lat="42.580827" lon="-6.671391">
        <ele>479.9</ele>
        <time>2022-08-20T07:40:04Z</time>
      </trkpt>
      <trkpt lat="42.580917" lon="-6.671608">
        <ele>480.6</ele>
        <time>2022-08-20T07:40:17Z</time>
      </trkpt>
      <trkpt lat="42.581019" lon="-6.671822">
        <ele>480.6</ele>
        <time>2022-08-20T07:40:33Z</time>
      </trkpt>
      <trkpt lat="42.581122" lon="-6.672037">
        <ele>482.6</ele>
        <time>2022-08-20T07:40:46Z</time>
      </trkpt>
      <trkpt lat="42.581249" lon="-6.672218">
        <ele>486.6</ele>
        <time>2022-08-20T07:40:58Z</time>
      </trkpt>
      <trkpt lat="42.581386" lon="-6.672381">
        <ele>488.9</ele>
        <time>2022-08-20T07:41:12Z</time>
      </trkpt>
      <trkpt lat="42.581531" lon="-6.672531">
        <ele>489.3</ele>
        <time>2022-08-20T07:41:25Z</time>
      </trkpt>
      <trkpt lat="42.581659" lon="-6.672721">
        <ele>491.3</ele>
        <time>2022-08-20T07:41:42Z</time>
      </trkpt>
      <trkpt lat="42.581821" lon="-6.672841">
        <ele>491.6</ele>
        <time>2022-08-20T07:41:56Z</time>
      </trkpt>
      <trkpt lat="42.581968" lon="-6.673006">
        <ele>489.6</ele>
        <time>2022-08-20T07:42:10Z</time>
      </trkpt>
      <trkpt lat="42.582119" lon="-6.673157">
        <ele>490.4</ele>
        <time>2022-08-20T07:42:24Z</time>
      </trkpt>
      <trkpt lat="42.582264" lon="-6.673309">
        <ele>491.6</ele>
        <time>2022-08-20T07:42:37Z</time>
      </trkpt>
      <trkpt lat="42.582402" lon="-6.673487">
        <ele>491.6</ele>
        <time>2022-08-20T07:42:52Z</time>
      </trkpt>
      <trkpt lat="42.582532" lon="-6.673663">
        <ele>492.6</ele>
        <time>2022-08-20T07:43:06Z</time>
      </trkpt>
      <trkpt lat="42.582712" lon="-6.673753">
        <ele>496.6</ele>
        <time>2022-08-20T07:43:20Z</time>
      </trkpt>
      <trkpt lat="42.582855" lon="-6.673910">
        <ele>493.7</ele>
        <time>2022-08-20T07:43:37Z</time>
      </trkpt>
      <trkpt lat="42.583010" lon="-6.674050">
        <ele>493.9</ele>
        <time>2022-08-20T07:43:54Z</time>
      </trkpt>
      <trkpt lat="42.583134" lon="-6.674236">
        <ele>490.6</ele>
        <time>2022-08-20T07:44:12Z</time>
      </trkpt>
      <trkpt lat="42.583183" lon="-6.674473">
        <ele>491.0</ele>
        <time>2022-08-20T07:44:25Z</time>
      </trkpt>
      <trkpt lat="42.583284" lon="-6.674680">
        <ele>495.9</ele>
        <time>2022-08-20T07:44:35Z</time>
      </trkpt>
      <trkpt lat="42.583349" lon="-6.674921">
        <ele>497.5</ele>
        <time>2022-08-20T07:44:49Z</time>
      </trkpt>
      <trkpt lat="42.583532" lon="-6.674979">
        <ele>494.7</ele>
        <time>2022-08-20T07:45:02Z</time>
      </trkpt>
      <trkpt lat="42.583712" lon="-6.675036">
        <ele>496.6</ele>
        <time>2022-08-20T07:45:17Z</time>
      </trkpt>
      <trkpt lat="42.583871" lon="-6.675165">
        <ele>495.6</ele>
        <time>2022-08-20T07:45:33Z</time>
      </trkpt>
      <trkpt lat="42.584000" lon="-6.675338">
        <ele>495.6</ele>
        <time>2022-08-20T07:45:49Z</time>
      </trkpt>
      <trkpt lat="42.584140" lon="-6.675519">
        <ele>494.6</ele>
        <time>2022-08-20T07:46:02Z</time>
      </trkpt>
      <trkpt lat="42.584304" lon="-6.675651">
        <ele>496.3</ele>
        <time>2022-08-20T07:46:16Z</time>
      </trkpt>
      <trkpt lat="42.584452" lon="-6.675805">
        <ele>497.6</ele>
        <time>2022-08-20T07:46:32Z</time>
      </trkpt>
      <trkpt lat="42.584578" lon="-6.675991">
        <ele>499.7</ele>
        <time>2022-08-20T07:46:57Z</time>
      </trkpt>
      <trkpt lat="42.584735" lon="-6.676119">
        <ele>501.6</ele>
        <time>2022-08-20T07:47:13Z</time>
      </trkpt>
      <trkpt lat="42.584858" lon="-6.676306">
        <ele>500.6</ele>
        <time>2022-08-20T07:47:28Z</time>
      </trkpt>
      <trkpt lat="42.585009" lon="-6.676453">
        <ele>499.7</ele>
        <time>2022-08-20T07:47:44Z</time>
      </trkpt>
      <trkpt lat="42.585132" lon="-6.676631">
        <ele>502.3</ele>
        <time>2022-08-20T07:48:00Z</time>
      </trkpt>
      <trkpt lat="42.585298" lon="-6.676759">
        <ele>505.6</ele>
        <time>2022-08-20T07:48:17Z</time>
      </trkpt>
      <trkpt lat="42.585466" lon="-6.676874">
        <ele>506.6</ele>
        <time>2022-08-20T07:48:32Z</time>
      </trkpt>
      <trkpt lat="42.585622" lon="-6.677011">
        <ele>506.5</ele>
        <time>2022-08-20T07:48:46Z</time>
      </trkpt>
      <trkpt lat="42.585779" lon="-6.677157">
        <ele>507.5</ele>
        <time>2022-08-20T07:49:00Z</time>
      </trkpt>
      <trkpt lat="42.585933" lon="-6.677297">
        <ele>509.6</ele>
        <time>2022-08-20T07:49:16Z</time>
      </trkpt>
      <trkpt lat="42.586072" lon="-6.677478">
        <ele>510.6</ele>
        <time>2022-08-20T07:49:32Z</time>
      </trkpt>
      <trkpt lat="42.586221" lon="-6.677623">
        <ele>512.6</ele>
        <time>2022-08-20T07:49:47Z</time>
      </trkpt>
      <trkpt lat="42.586372" lon="-6.677761">
        <ele>514.5</ele>
        <time>2022-08-20T07:50:02Z</time>
      </trkpt>
      <trkpt lat="42.586523" lon="-6.677908">
        <ele>513.6</ele>
        <time>2022-08-20T07:50:19Z</time>
      </trkpt>
      <trkpt lat="42.586659" lon="-6.678074">
        <ele>513.6</ele>
        <time>2022-08-20T07:50:33Z</time>
      </trkpt>
      <trkpt lat="42.586790" lon="-6.678246">
        <ele>514.6</ele>
        <time>2022-08-20T07:50:47Z</time>
      </trkpt>
      <trkpt lat="42.586928" lon="-6.678426">
        <ele>513.6</ele>
        <time>2022-08-20T07:51:02Z</time>
      </trkpt>
      <trkpt lat="42.587054" lon="-6.678609">
        <ele>515.6</ele>
        <time>2022-08-20T07:51:17Z</time>
      </trkpt>
      <trkpt lat="42.587188" lon="-6.678779">
        <ele>517.6</ele>
        <time>2022-08-20T07:51:31Z</time>
      </trkpt>
      <trkpt lat="42.587302" lon="-6.678978">
        <ele>520.3</ele>
        <time>2022-08-20T07:51:46Z</time>
      </trkpt>
      <trkpt lat="42.587301" lon="-6.679232">
        <ele>521.5</ele>
        <time>2022-08-20T07:52:02Z</time>
      </trkpt>
      <trkpt lat="42.587246" lon="-6.679467">
        <ele>520.6</ele>
        <time>2022-08-20T07:52:17Z</time>
      </trkpt>
      <trkpt lat="42.587164" lon="-6.679685">
        <ele>522.4</ele>
        <time>2022-08-20T07:52:33Z</time>
      </trkpt>
      <trkpt lat="42.587063" lon="-6.679903">
        <ele>522.6</ele>
        <time>2022-08-20T07:52:48Z</time>
      </trkpt>
      <trkpt lat="42.586979" lon="-6.680127">
        <ele>521.6</ele>
        <time>2022-08-20T07:53:03Z</time>
      </trkpt>
      <trkpt lat="42.586935" lon="-6.680373">
        <ele>521.6</ele>
        <time>2022-08-20T07:53:18Z</time>
      </trkpt>
      <trkpt lat="42.586966" lon="-6.680625">
        <ele>522.6</ele>
        <time>2022-08-20T07:53:34Z</time>
      </trkpt>
      <trkpt lat="42.586998" lon="-6.680865">
        <ele>524.6</ele>
        <time>2022-08-20T07:53:51Z</time>
      </trkpt>
      <trkpt lat="42.587079" lon="-6.681094">
        <ele>523.7</ele>
        <time>2022-08-20T07:54:07Z</time>
      </trkpt>
      <trkpt lat="42.587174" lon="-6.681310">
        <ele>521.7</ele>
        <time>2022-08-20T07:54:22Z</time>
      </trkpt>
      <trkpt lat="42.587276" lon="-6.681525">
        <ele>522.6</ele>
        <time>2022-08-20T07:54:37Z</time>
      </trkpt>
      <trkpt lat="42.587393" lon="-6.681719">
        <ele>522.3</ele>
        <time>2022-08-20T07:55:00Z</time>
      </trkpt>
      <trkpt lat="42.587513" lon="-6.681920">
        <ele>521.7</ele>
        <time>2022-08-20T07:55:14Z</time>
      </trkpt>
      <trkpt lat="42.587640" lon="-6.682101">
        <ele>523.6</ele>
        <time>2022-08-20T07:55:28Z</time>
      </trkpt>
      <trkpt lat="42.587768" lon="-6.682279">
        <ele>521.5</ele>
        <time>2022-08-20T07:55:43Z</time>
      </trkpt>
      <trkpt lat="42.587861" lon="-6.682491">
        <ele>519.6</ele>
        <time>2022-08-20T07:55:56Z</time>
      </trkpt>
      <trkpt lat="42.587976" lon="-6.682680">
        <ele>519.6</ele>
        <time>2022-08-20T07:56:10Z</time>
      </trkpt>
      <trkpt lat="42.588075" lon="-6.682886">
        <ele>518.6</ele>
        <time>2022-08-20T07:56:23Z</time>
      </trkpt>
      <trkpt lat="42.588161" lon="-6.683111">
        <ele>517.7</ele>
        <time>2022-08-20T07:56:38Z</time>
      </trkpt>
      <trkpt lat="42.588231" lon="-6.683339">
        <ele>516.6</ele>
        <time>2022-08-20T07:56:53Z</time>
      </trkpt>
      <trkpt lat="42.588267" lon="-6.683588">
        <ele>515.6</ele>
        <time>2022-08-20T07:57:11Z</time>
      </trkpt>
      <trkpt lat="42.588283" lon="-6.683834">
        <ele>516.7</ele>
        <time>2022-08-20T07:57:25Z</time>
      </trkpt>
      <trkpt lat="42.588278" lon="-6.684087">
        <ele>515.7</ele>
        <time>2022-08-20T07:57:39Z</time>
      </trkpt>
      <trkpt lat="42.588267" lon="-6.684338">
        <ele>515.6</ele>
        <time>2022-08-20T07:57:53Z</time>
      </trkpt>
      <trkpt lat="42.588281" lon="-6.684584">
        <ele>514.6</ele>
        <time>2022-08-20T07:58:07Z</time>
      </trkpt>
      <trkpt lat="42.588307" lon="-6.684831">
        <ele>514.6</ele>
        <time>2022-08-20T07:58:28Z</time>
      </trkpt>
      <trkpt lat="42.588339" lon="-6.685082">
        <ele>517.6</ele>
        <time>2022-08-20T07:58:43Z</time>
      </trkpt>
      <trkpt lat="42.588375" lon="-6.685336">
        <ele>516.6</ele>
        <time>2022-08-20T07:58:57Z</time>
      </trkpt>
      <trkpt lat="42.588421" lon="-6.685581">
        <ele>517.3</ele>
        <time>2022-08-20T07:59:17Z</time>
      </trkpt>
      <trkpt lat="42.588469" lon="-6.685819">
        <ele>513.8</ele>
        <time>2022-08-20T07:59:41Z</time>
      </trkpt>
      <trkpt lat="42.588524" lon="-6.686063">
        <ele>513.6</ele>
        <time>2022-08-20T07:59:55Z</time>
      </trkpt>
      <trkpt lat="42.588589" lon="-6.686308">
        <ele>512.6</ele>
        <time>2022-08-20T08:00:10Z</time>
      </trkpt>
      <trkpt lat="42.588651" lon="-6.686557">
        <ele>510.6</ele>
        <time>2022-08-20T08:00:27Z</time>
      </trkpt>
      <trkpt lat="42.588707" lon="-6.686805">
        <ele>507.6</ele>
        <time>2022-08-20T08:00:43Z</time>
      </trkpt>
      <trkpt lat="42.588787" lon="-6.687024">
        <ele>506.6</ele>
        <time>2022-08-20T08:01:02Z</time>
      </trkpt>
      <trkpt lat="42.588869" lon="-6.687243">
        <ele>505.6</ele>
        <time>2022-08-20T08:01:25Z</time>
      </trkpt>
      <trkpt lat="42.588931" lon="-6.687489">
        <ele>502.7</ele>
        <time>2022-08-20T08:01:39Z</time>
      </trkpt>
      <trkpt lat="42.588981" lon="-6.687728">
        <ele>502.6</ele>
        <time>2022-08-20T08:01:53Z</time>
      </trkpt>
      <trkpt lat="42.589053" lon="-6.687968">
        <ele>501.6</ele>
        <time>2022-08-20T08:02:07Z</time>
      </trkpt>
      <trkpt lat="42.589139" lon="-6.688200">
        <ele>505.5</ele>
        <time>2022-08-20T08:02:22Z</time>
      </trkpt>
      <trkpt lat="42.589220" lon="-6.688418">
        <ele>503.7</ele>
        <time>2022-08-20T08:02:36Z</time>
      </trkpt>
      <trkpt lat="42.589294" lon="-6.688658">
        <ele>503.6</ele>
        <time>2022-08-20T08:02:50Z</time>
      </trkpt>
      <trkpt lat="42.589372" lon="-6.688889">
        <ele>502.6</ele>
        <time>2022-08-20T08:03:05Z</time>
      </trkpt>
      <trkpt lat="42.589400" lon="-6.689132">
        <ele>501.6</ele>
        <time>2022-08-20T08:03:19Z</time>
      </trkpt>
      <trkpt lat="42.589397" lon="-6.689388">
        <ele>501.5</ele>
        <time>2022-08-20T08:03:33Z</time>
      </trkpt>
      <trkpt lat="42.589366" lon="-6.689633">
        <ele>499.6</ele>
        <time>2022-08-20T08:03:47Z</time>
      </trkpt>
      <trkpt lat="42.589353" lon="-6.689885">
        <ele>499.6</ele>
        <time>2022-08-20T08:04:00Z</time>
      </trkpt>
      <trkpt lat="42.589407" lon="-6.690134">
        <ele>499.6</ele>
        <time>2022-08-20T08:04:14Z</time>
      </trkpt>
      <trkpt lat="42.589451" lon="-6.690383">
        <ele>498.6</ele>
        <time>2022-08-20T08:04:28Z</time>
      </trkpt>
      <trkpt lat="42.589524" lon="-6.690631">
        <ele>497.6</ele>
        <time>2022-08-20T08:04:44Z</time>
      </trkpt>
      <trkpt lat="42.589596" lon="-6.690863">
        <ele>497.6</ele>
        <time>2022-08-20T08:04:56Z</time>
      </trkpt>
      <trkpt lat="42.589636" lon="-6.691111">
        <ele>498.6</ele>
        <time>2022-08-20T08:05:10Z</time>
      </trkpt>
      <trkpt lat="42.589708" lon="-6.691345">
        <ele>498.6</ele>
        <time>2022-08-20T08:05:23Z</time>
      </trkpt>
      <trkpt lat="42.589795" lon="-6.691567">
        <ele>497.6</ele>
        <time>2022-08-20T08:05:38Z</time>
      </trkpt>
      <trkpt lat="42.589952" lon="-6.691688">
        <ele>495.6</ele>
        <time>2022-08-20T08:05:53Z</time>
      </trkpt>
      <trkpt lat="42.590087" lon="-6.691865">
        <ele>493.6</ele>
        <time>2022-08-20T08:06:09Z</time>
      </trkpt>
      <trkpt lat="42.590179" lon="-6.692091">
        <ele>493.7</ele>
        <time>2022-08-20T08:06:26Z</time>
      </trkpt>
      <trkpt lat="42.590314" lon="-6.692272">
        <ele>491.9</ele>
        <time>2022-08-20T08:06:41Z</time>
      </trkpt>
      <trkpt lat="42.590456" lon="-6.692433">
        <ele>492.5</ele>
        <time>2022-08-20T08:06:57Z</time>
      </trkpt>
      <trkpt lat="42.590586" lon="-6.692603">
        <ele>493.6</ele>
        <time>2022-08-20T08:07:54Z</time>
      </trkpt>
      <trkpt lat="42.590656" lon="-6.692835">
        <ele>496.6</ele>
        <time>2022-08-20T08:08:09Z</time>
      </trkpt>
      <trkpt lat="42.590720" lon="-6.693073">
        <ele>497.6</ele>
        <time>2022-08-20T08:08:23Z</time>
      </trkpt>
      <trkpt lat="42.590781" lon="-6.693304">
        <ele>498.9</ele>
        <time>2022-08-20T08:08:37Z</time>
      </trkpt>
      <trkpt lat="42.590852" lon="-6.693534">
        <ele>499.5</ele>
        <time>2022-08-20T08:08:51Z</time>
      </trkpt>
      <trkpt lat="42.590938" lon="-6.693755">
        <ele>499.7</ele>
        <time>2022-08-20T08:09:06Z</time>
      </trkpt>
      <trkpt lat="42.591018" lon="-6.693995">
        <ele>499.5</ele>
        <time>2022-08-20T08:09:21Z</time>
      </trkpt>
      <trkpt lat="42.591094" lon="-6.694233">
        <ele>501.6</ele>
        <time>2022-08-20T08:09:35Z</time>
      </trkpt>
      <trkpt lat="42.591175" lon="-6.694456">
        <ele>502.6</ele>
        <time>2022-08-20T08:09:50Z</time>
      </trkpt>
      <trkpt lat="42.591234" lon="-6.694703">
        <ele>497.6</ele>
        <time>2022-08-20T08:10:05Z</time>
      </trkpt>
      <trkpt lat="42.591314" lon="-6.694933">
        <ele>495.9</ele>
        <time>2022-08-20T08:10:21Z</time>
      </trkpt>
      <trkpt lat="42.591385" lon="-6.695171">
        <ele>494.6</ele>
        <time>2022-08-20T08:10:36Z</time>
      </trkpt>
      <trkpt lat="42.591457" lon="-6.695408">
        <ele>496.6</ele>
        <time>2022-08-20T08:10:51Z</time>
      </trkpt>
      <trkpt lat="42.591510" lon="-6.695645">
        <ele>494.6</ele>
        <time>2022-08-20T08:11:05Z</time>
      </trkpt>
      <trkpt lat="42.591566" lon="-6.695879">
        <ele>496.6</ele>
        <time>2022-08-20T08:11:19Z</time>
      </trkpt>
      <trkpt lat="42.591652" lon="-6.696103">
        <ele>499.5</ele>
        <time>2022-08-20T08:11:33Z</time>
      </trkpt>
      <trkpt lat="42.591731" lon="-6.696332">
        <ele>497.0</ele>
        <time>2022-08-20T08:11:47Z</time>
      </trkpt>
      <trkpt lat="42.591823" lon="-6.696558">
        <ele>498.8</ele>
        <time>2022-08-20T08:12:02Z</time>
      </trkpt>
      <trkpt lat="42.591902" lon="-6.696794">
        <ele>496.6</ele>
        <time>2022-08-20T08:12:17Z</time>
      </trkpt>
      <trkpt lat="42.591981" lon="-6.697031">
        <ele>497.3</ele>
        <time>2022-08-20T08:12:31Z</time>
      </trkpt>
      <trkpt lat="42.592071" lon="-6.697255">
        <ele>499.3</ele>
        <time>2022-08-20T08:12:46Z</time>
      </trkpt>
      <trkpt lat="42.592152" lon="-6.697488">
        <ele>498.6</ele>
        <time>2022-08-20T08:13:01Z</time>
      </trkpt>
      <trkpt lat="42.592214" lon="-6.697719">
        <ele>496.9</ele>
        <time>2022-08-20T08:13:15Z</time>
      </trkpt>
      <trkpt lat="42.592297" lon="-6.697940">
        <ele>497.5</ele>
        <time>2022-08-20T08:13:36Z</time>
      </trkpt>
      <trkpt lat="42.592393" lon="-6.698165">
        <ele>496.6</ele>
        <time>2022-08-20T08:13:50Z</time>
      </trkpt>
      <trkpt lat="42.592463" lon="-6.698390">
        <ele>499.3</ele>
        <time>2022-08-20T08:14:04Z</time>
      </trkpt>
      <trkpt lat="42.592551" lon="-6.698609">
        <ele>497.0</ele>
        <time>2022-08-20T08:14:18Z</time>
      </trkpt>
      <trkpt lat="42.592599" lon="-6.698851">
        <ele>495.9</ele>
        <time>2022-08-20T08:14:34Z</time>
      </trkpt>
      <trkpt lat="42.592658" lon="-6.699083">
        <ele>497.6</ele>
        <time>2022-08-20T08:14:47Z</time>
      </trkpt>
      <trkpt lat="42.592725" lon="-6.699316">
        <ele>497.9</ele>
        <time>2022-08-20T08:15:01Z</time>
      </trkpt>
      <trkpt lat="42.592774" lon="-6.699566">
        <ele>496.6</ele>
        <time>2022-08-20T08:15:15Z</time>
      </trkpt>
      <trkpt lat="42.592856" lon="-6.699794">
        <ele>496.6</ele>
        <time>2022-08-20T08:15:30Z</time>
      </trkpt>
      <trkpt lat="42.592924" lon="-6.700036">
        <ele>496.9</ele>
        <time>2022-08-20T08:15:44Z</time>
      </trkpt>
      <trkpt lat="42.592981" lon="-6.700278">
        <ele>497.5</ele>
        <time>2022-08-20T08:15:59Z</time>
      </trkpt>
      <trkpt lat="42.593037" lon="-6.700520">
        <ele>498.6</ele>
        <time>2022-08-20T08:16:14Z</time>
      </trkpt>
      <trkpt lat="42.593098" lon="-6.700760">
        <ele>499.5</ele>
        <time>2022-08-20T08:16:28Z</time>
      </trkpt>
      <trkpt lat="42.593136" lon="-6.701013">
        <ele>500.6</ele>
        <time>2022-08-20T08:16:42Z</time>
      </trkpt>
      <trkpt lat="42.593178" lon="-6.701264">
        <ele>500.8</ele>
        <time>2022-08-20T08:16:57Z</time>
      </trkpt>
      <trkpt lat="42.593205" lon="-6.701514">
        <ele>503.6</ele>
        <time>2022-08-20T08:17:13Z</time>
      </trkpt>
      <trkpt lat="42.593240" lon="-6.701765">
        <ele>505.8</ele>
        <time>2022-08-20T08:17:29Z</time>
      </trkpt>
      <trkpt lat="42.593303" lon="-6.701999">
        <ele>506.5</ele>
        <time>2022-08-20T08:17:45Z</time>
      </trkpt>
      <trkpt lat="42.593380" lon="-6.702228">
        <ele>508.6</ele>
        <time>2022-08-20T08:18:00Z</time>
      </trkpt>
      <trkpt lat="42.593418" lon="-6.702473">
        <ele>510.9</ele>
        <time>2022-08-20T08:18:16Z</time>
      </trkpt>
      <trkpt lat="42.593454" lon="-6.702714">
        <ele>510.3</ele>
        <time>2022-08-20T08:18:30Z</time>
      </trkpt>
      <trkpt lat="42.593496" lon="-6.702973">
        <ele>511.6</ele>
        <time>2022-08-20T08:18:45Z</time>
      </trkpt>
      <trkpt lat="42.593561" lon="-6.703207">
        <ele>513.6</ele>
        <time>2022-08-20T08:18:59Z</time>
      </trkpt>
      <trkpt lat="42.593622" lon="-6.703443">
        <ele>510.7</ele>
        <time>2022-08-20T08:19:13Z</time>
      </trkpt>
      <trkpt lat="42.593695" lon="-6.703683">
        <ele>510.6</ele>
        <time>2022-08-20T08:19:27Z</time>
      </trkpt>
      <trkpt lat="42.593778" lon="-6.703905">
        <ele>512.6</ele>
        <time>2022-08-20T08:19:41Z</time>
      </trkpt>
      <trkpt lat="42.593872" lon="-6.704124">
        <ele>513.3</ele>
        <time>2022-08-20T08:19:55Z</time>
      </trkpt>
      <trkpt lat="42.593950" lon="-6.704345">
        <ele>513.5</ele>
        <time>2022-08-20T08:20:08Z</time>
      </trkpt>
      <trkpt lat="42.594063" lon="-6.704554">
        <ele>513.7</ele>
        <time>2022-08-20T08:20:23Z</time>
      </trkpt>
      <trkpt lat="42.594143" lon="-6.704774">
        <ele>511.7</ele>
        <time>2022-08-20T08:20:43Z</time>
      </trkpt>
      <trkpt lat="42.594207" lon="-6.705018">
        <ele>513.6</ele>
        <time>2022-08-20T08:20:58Z</time>
      </trkpt>
      <trkpt lat="42.594281" lon="-6.705258">
        <ele>513.6</ele>
        <time>2022-08-20T08:21:13Z</time>
      </trkpt>
      <trkpt lat="42.594374" lon="-6.705470">
        <ele>514.6</ele>
        <time>2022-08-20T08:21:27Z</time>
      </trkpt>
      <trkpt lat="42.594454" lon="-6.705704">
        <ele>515.4</ele>
        <time>2022-08-20T08:21:42Z</time>
      </trkpt>
      <trkpt lat="42.594535" lon="-6.705926">
        <ele>514.6</ele>
        <time>2022-08-20T08:21:57Z</time>
      </trkpt>
      <trkpt lat="42.594608" lon="-6.706156">
        <ele>514.5</ele>
        <time>2022-08-20T08:22:12Z</time>
      </trkpt>
      <trkpt lat="42.594706" lon="-6.706366">
        <ele>515.6</ele>
        <time>2022-08-20T08:22:27Z</time>
      </trkpt>
      <trkpt lat="42.594806" lon="-6.706574">
        <ele>515.5</ele>
        <time>2022-08-20T08:22:42Z</time>
      </trkpt>
      <trkpt lat="42.594899" lon="-6.706785">
        <ele>515.7</ele>
        <time>2022-08-20T08:22:56Z</time>
      </trkpt>
      <trkpt lat="42.594992" lon="-6.707007">
        <ele>515.7</ele>
        <time>2022-08-20T08:23:24Z</time>
      </trkpt>
      <trkpt lat="42.595075" lon="-6.707231">
        <ele>516.5</ele>
        <time>2022-08-20T08:23:36Z</time>
      </trkpt>
      <trkpt lat="42.595172" lon="-6.707445">
        <ele>516.6</ele>
        <time>2022-08-20T08:23:49Z</time>
      </trkpt>
      <trkpt lat="42.595244" lon="-6.707670">
        <ele>515.6</ele>
        <time>2022-08-20T08:24:02Z</time>
      </trkpt>
      <trkpt lat="42.595344" lon="-6.707888">
        <ele>513.6</ele>
        <time>2022-08-20T08:24:15Z</time>
      </trkpt>
      <trkpt lat="42.595403" lon="-6.708134">
        <ele>512.9</ele>
        <time>2022-08-20T08:24:29Z</time>
      </trkpt>
      <trkpt lat="42.595491" lon="-6.708356">
        <ele>511.6</ele>
        <time>2022-08-20T08:24:42Z</time>
      </trkpt>
      <trkpt lat="42.595585" lon="-6.708581">
        <ele>510.6</ele>
        <time>2022-08-20T08:24:55Z</time>
      </trkpt>
      <trkpt lat="42.595673" lon="-6.708799">
        <ele>509.9</ele>
        <time>2022-08-20T08:25:08Z</time>
      </trkpt>
      <trkpt lat="42.595765" lon="-6.709018">
        <ele>508.3</ele>
        <time>2022-08-20T08:25:21Z</time>
      </trkpt>
      <trkpt lat="42.595852" lon="-6.709238">
        <ele>507.6</ele>
        <time>2022-08-20T08:25:34Z</time>
      </trkpt>
      <trkpt lat="42.595927" lon="-6.709469">
        <ele>508.4</ele>
        <time>2022-08-20T08:25:47Z</time>
      </trkpt>
      <trkpt lat="42.596014" lon="-6.709684">
        <ele>506.6</ele>
        <time>2022-08-20T08:26:00Z</time>
      </trkpt>
      <trkpt lat="42.596097" lon="-6.709908">
        <ele>505.9</ele>
        <time>2022-08-20T08:26:13Z</time>
      </trkpt>
      <trkpt lat="42.596183" lon="-6.710141">
        <ele>506.6</ele>
        <time>2022-08-20T08:26:26Z</time>
      </trkpt>
      <trkpt lat="42.596267" lon="-6.710362">
        <ele>504.6</ele>
        <time>2022-08-20T08:26:39Z</time>
      </trkpt>
      <trkpt lat="42.596349" lon="-6.710582">
        <ele>505.6</ele>
        <time>2022-08-20T08:26:52Z</time>
      </trkpt>
      <trkpt lat="42.596444" lon="-6.710790">
        <ele>504.8</ele>
        <time>2022-08-20T08:27:04Z</time>
      </trkpt>
      <trkpt lat="42.596523" lon="-6.711020">
        <ele>508.5</ele>
        <time>2022-08-20T08:27:17Z</time>
      </trkpt>
      <trkpt lat="42.596604" lon="-6.711243">
        <ele>507.6</ele>
        <time>2022-08-20T08:27:30Z</time>
      </trkpt>
      <trkpt lat="42.596699" lon="-6.711460">
        <ele>506.6</ele>
        <time>2022-08-20T08:27:43Z</time>
      </trkpt>
      <trkpt lat="42.596782" lon="-6.711682">
        <ele>503.7</ele>
        <time>2022-08-20T08:27:57Z</time>
      </trkpt>
      <trkpt lat="42.596868" lon="-6.711915">
        <ele>504.6</ele>
        <time>2022-08-20T08:28:10Z</time>
      </trkpt>
      <trkpt lat="42.596960" lon="-6.712142">
        <ele>507.6</ele>
        <time>2022-08-20T08:28:24Z</time>
      </trkpt>
      <trkpt lat="42.597045" lon="-6.712360">
        <ele>506.6</ele>
        <time>2022-08-20T08:28:37Z</time>
      </trkpt>
      <trkpt lat="42.597121" lon="-6.712591">
        <ele>505.4</ele>
        <time>2022-08-20T08:28:50Z</time>
      </trkpt>
      <trkpt lat="42.597204" lon="-6.712830">
        <ele>504.6</ele>
        <time>2022-08-20T08:29:04Z</time>
      </trkpt>
      <trkpt lat="42.597288" lon="-6.713059">
        <ele>506.6</ele>
        <time>2022-08-20T08:29:18Z</time>
      </trkpt>
      <trkpt lat="42.597395" lon="-6.713272">
        <ele>506.6</ele>
        <time>2022-08-20T08:29:32Z</time>
      </trkpt>
      <trkpt lat="42.597528" lon="-6.713437">
        <ele>506.6</ele>
        <time>2022-08-20T08:29:45Z</time>
      </trkpt>
      <trkpt lat="42.597662" lon="-6.713618">
        <ele>503.7</ele>
        <time>2022-08-20T08:30:11Z</time>
      </trkpt>
      <trkpt lat="42.597821" lon="-6.713772">
        <ele>504.6</ele>
        <time>2022-08-20T08:30:26Z</time>
      </trkpt>
      <trkpt lat="42.597970" lon="-6.713930">
        <ele>504.6</ele>
        <time>2022-08-20T08:30:40Z</time>
      </trkpt>
      <trkpt lat="42.598117" lon="-6.714089">
        <ele>502.9</ele>
        <time>2022-08-20T08:30:54Z</time>
      </trkpt>
      <trkpt lat="42.598261" lon="-6.714236">
        <ele>503.6</ele>
        <time>2022-08-20T08:31:08Z</time>
      </trkpt>
      <trkpt lat="42.598406" lon="-6.714397">
        <ele>501.6</ele>
        <time>2022-08-20T08:31:22Z</time>
      </trkpt>
      <trkpt lat="42.598574" lon="-6.714489">
        <ele>501.6</ele>
        <time>2022-08-20T08:31:38Z</time>
      </trkpt>
      <trkpt lat="42.598680" lon="-6.714692">
        <ele>501.0</ele>
        <time>2022-08-20T08:31:52Z</time>
      </trkpt>
      <trkpt lat="42.598776" lon="-6.714900">
        <ele>496.5</ele>
        <time>2022-08-20T08:32:12Z</time>
      </trkpt>
      <trkpt lat="42.598888" lon="-6.715116">
        <ele>489.7</ele>
        <time>2022-08-20T08:32:57Z</time>
      </trkpt>
      <trkpt lat="42.599017" lon="-6.715297">
        <ele>487.7</ele>
        <time>2022-08-20T08:33:12Z</time>
      </trkpt>
      <trkpt lat="42.599151" lon="-6.715465">
        <ele>486.6</ele>
        <time>2022-08-20T08:33:28Z</time>
      </trkpt>
      <trkpt lat="42.599274" lon="-6.715655">
        <ele>486.5</ele>
        <time>2022-08-20T08:33:41Z</time>
      </trkpt>
      <trkpt lat="42.599385" lon="-6.715868">
        <ele>486.6</ele>
        <time>2022-08-20T08:33:55Z</time>
      </trkpt>
      <trkpt lat="42.599465" lon="-6.716108">
        <ele>486.6</ele>
        <time>2022-08-20T08:34:08Z</time>
      </trkpt>
      <trkpt lat="42.599528" lon="-6.716346">
        <ele>487.6</ele>
        <time>2022-08-20T08:34:22Z</time>
      </trkpt>
      <trkpt lat="42.599527" lon="-6.716599">
        <ele>486.6</ele>
        <time>2022-08-20T08:34:35Z</time>
      </trkpt>
      <trkpt lat="42.599541" lon="-6.716859">
        <ele>485.6</ele>
        <time>2022-08-20T08:34:49Z</time>
      </trkpt>
      <trkpt lat="42.599561" lon="-6.717117">
        <ele>484.7</ele>
        <time>2022-08-20T08:35:03Z</time>
      </trkpt>
      <trkpt lat="42.599585" lon="-6.717382">
        <ele>485.7</ele>
        <time>2022-08-20T08:35:16Z</time>
      </trkpt>
      <trkpt lat="42.599578" lon="-6.717632">
        <ele>487.5</ele>
        <time>2022-08-20T08:35:29Z</time>
      </trkpt>
      <trkpt lat="42.599546" lon="-6.717876">
        <ele>484.6</ele>
        <time>2022-08-20T08:35:42Z</time>
      </trkpt>
      <trkpt lat="42.599531" lon="-6.718123">
        <ele>483.6</ele>
        <time>2022-08-20T08:35:56Z</time>
      </trkpt>
      <trkpt lat="42.599539" lon="-6.718367">
        <ele>480.6</ele>
        <time>2022-08-20T08:36:10Z</time>
      </trkpt>
      <trkpt lat="42.599580" lon="-6.718623">
        <ele>478.6</ele>
        <time>2022-08-20T08:36:23Z</time>
      </trkpt>
      <trkpt lat="42.599605" lon="-6.718876">
        <ele>478.5</ele>
        <time>2022-08-20T08:36:37Z</time>
      </trkpt>
      <trkpt lat="42.599592" lon="-6.719135">
        <ele>480.5</ele>
        <time>2022-08-20T08:36:49Z</time>
      </trkpt>
      <trkpt lat="42.599587" lon="-6.719383">
        <ele>482.5</ele>
        <time>2022-08-20T08:37:02Z</time>
      </trkpt>
      <trkpt lat="42.599606" lon="-6.719630">
        <ele>483.6</ele>
        <time>2022-08-20T08:37:14Z</time>
      </trkpt>
      <trkpt lat="42.599640" lon="-6.719883">
        <ele>484.6</ele>
        <time>2022-08-20T08:37:27Z</time>
      </trkpt>
      <trkpt lat="42.599601" lon="-6.720128">
        <ele>482.6</ele>
        <time>2022-08-20T08:37:41Z</time>
      </trkpt>
      <trkpt lat="42.599622" lon="-6.720382">
        <ele>481.5</ele>
        <time>2022-08-20T08:37:55Z</time>
      </trkpt>
      <trkpt lat="42.599651" lon="-6.720632">
        <ele>483.6</ele>
        <time>2022-08-20T08:38:08Z</time>
      </trkpt>
      <trkpt lat="42.599635" lon="-6.720877">
        <ele>485.5</ele>
        <time>2022-08-20T08:38:21Z</time>
      </trkpt>
      <trkpt lat="42.599661" lon="-6.721129">
        <ele>489.6</ele>
        <time>2022-08-20T08:38:36Z</time>
      </trkpt>
      <trkpt lat="42.599692" lon="-6.721386">
        <ele>488.6</ele>
        <time>2022-08-20T08:38:50Z</time>
      </trkpt>
      <trkpt lat="42.599692" lon="-6.721644">
        <ele>484.3</ele>
        <time>2022-08-20T08:39:04Z</time>
      </trkpt>
      <trkpt lat="42.599739" lon="-6.721893">
        <ele>484.6</ele>
        <time>2022-08-20T08:39:18Z</time>
      </trkpt>
      <trkpt lat="42.599731" lon="-6.722153">
        <ele>486.5</ele>
        <time>2022-08-20T08:39:40Z</time>
      </trkpt>
      <trkpt lat="42.599692" lon="-6.722393">
        <ele>483.7</ele>
        <time>2022-08-20T08:39:53Z</time>
      </trkpt>
      <trkpt lat="42.599696" lon="-6.722645">
        <ele>480.7</ele>
        <time>2022-08-20T08:40:05Z</time>
      </trkpt>
      <trkpt lat="42.599743" lon="-6.722893">
        <ele>482.5</ele>
        <time>2022-08-20T08:40:18Z</time>
      </trkpt>
      <trkpt lat="42.599773" lon="-6.723136">
        <ele>485.5</ele>
        <time>2022-08-20T08:40:44Z</time>
      </trkpt>
      <trkpt lat="42.599770" lon="-6.723389">
        <ele>485.6</ele>
        <time>2022-08-20T08:40:58Z</time>
      </trkpt>
      <trkpt lat="42.599840" lon="-6.723634">
        <ele>485.6</ele>
        <time>2022-08-20T08:41:10Z</time>
      </trkpt>
      <trkpt lat="42.599817" lon="-6.723880">
        <ele>485.6</ele>
        <time>2022-08-20T08:41:23Z</time>
      </trkpt>
      <trkpt lat="42.599775" lon="-6.724119">
        <ele>484.6</ele>
        <time>2022-08-20T08:41:38Z</time>
      </trkpt>
      <trkpt lat="42.599790" lon="-6.724380">
        <ele>483.6</ele>
        <time>2022-08-20T08:41:52Z</time>
      </trkpt>
      <trkpt lat="42.599776" lon="-6.724628">
        <ele>483.6</ele>
        <time>2022-08-20T08:42:04Z</time>
      </trkpt>
      <trkpt lat="42.599807" lon="-6.724871">
        <ele>484.3</ele>
        <time>2022-08-20T08:42:16Z</time>
      </trkpt>
      <trkpt lat="42.599794" lon="-6.725134">
        <ele>483.8</ele>
        <time>2022-08-20T08:42:31Z</time>
      </trkpt>
      <trkpt lat="42.599737" lon="-6.725369">
        <ele>481.6</ele>
        <time>2022-08-20T08:42:48Z</time>
      </trkpt>
      <trkpt lat="42.599719" lon="-6.725587">
        <ele>481.6</ele>
        <time>2022-08-20T08:43:05Z</time>
      </trkpt>
      <trkpt lat="42.599665" lon="-6.725754">
        <ele>481.5</ele>
        <time>2022-08-20T08:43:19Z</time>
      </trkpt>
      <trkpt lat="42.599662" lon="-6.725884">
        <ele>482.6</ele>
        <time>2022-08-20T08:44:20Z</time>
      </trkpt>
      <trkpt lat="42.599601" lon="-6.726105">
        <ele>482.6</ele>
        <time>2022-08-20T08:48:31Z</time>
      </trkpt>
      <trkpt lat="42.599635" lon="-6.726356">
        <ele>482.6</ele>
        <time>2022-08-20T08:48:47Z</time>
      </trkpt>
      <trkpt lat="42.599713" lon="-6.726543">
        <ele>478.9</ele>
        <time>2022-08-20T08:49:03Z</time>
      </trkpt>
      <trkpt lat="42.599777" lon="-6.726782">
        <ele>473.7</ele>
        <time>2022-08-20T08:49:20Z</time>
      </trkpt>
      <trkpt lat="42.599851" lon="-6.726951">
        <ele>471.6</ele>
        <time>2022-08-20T08:49:36Z</time>
      </trkpt>
      <trkpt lat="42.599941" lon="-6.727219">
        <ele>472.6</ele>
        <time>2022-08-20T08:49:47Z</time>
      </trkpt>
      <trkpt lat="42.599983" lon="-6.727481">
        <ele>476.2</ele>
        <time>2022-08-20T08:49:56Z</time>
      </trkpt>
      <trkpt lat="42.599962" lon="-6.727726">
        <ele>478.6</ele>
        <time>2022-08-20T08:50:07Z</time>
      </trkpt>
      <trkpt lat="42.599946" lon="-6.727988">
        <ele>477.6</ele>
        <time>2022-08-20T08:50:20Z</time>
      </trkpt>
      <trkpt lat="42.599995" lon="-6.728227">
        <ele>480.6</ele>
        <time>2022-08-20T08:50:54Z</time>
      </trkpt>
      <trkpt lat="42.600019" lon="-6.728479">
        <ele>479.6</ele>
        <time>2022-08-20T08:51:17Z</time>
      </trkpt>
      <trkpt lat="42.600026" lon="-6.728731">
        <ele>480.6</ele>
        <time>2022-08-20T08:51:30Z</time>
      </trkpt>
      <trkpt lat="42.600027" lon="-6.728981">
        <ele>481.2</ele>
        <time>2022-08-20T08:51:43Z</time>
      </trkpt>
      <trkpt lat="42.600029" lon="-6.729232">
        <ele>479.0</ele>
        <time>2022-08-20T08:51:57Z</time>
      </trkpt>
      <trkpt lat="42.600056" lon="-6.729477">
        <ele>473.6</ele>
        <time>2022-08-20T08:52:11Z</time>
      </trkpt>
      <trkpt lat="42.600079" lon="-6.729736">
        <ele>469.7</ele>
        <time>2022-08-20T08:52:26Z</time>
      </trkpt>
      <trkpt lat="42.600085" lon="-6.729989">
        <ele>472.2</ele>
        <time>2022-08-20T08:52:41Z</time>
      </trkpt>
      <trkpt lat="42.600096" lon="-6.730241">
        <ele>472.9</ele>
        <time>2022-08-20T08:53:06Z</time>
      </trkpt>
      <trkpt lat="42.600086" lon="-6.730499">
        <ele>473.7</ele>
        <time>2022-08-20T08:53:18Z</time>
      </trkpt>
      <trkpt lat="42.600095" lon="-6.730757">
        <ele>474.6</ele>
        <time>2022-08-20T08:53:31Z</time>
      </trkpt>
      <trkpt lat="42.600129" lon="-6.731006">
        <ele>474.6</ele>
        <time>2022-08-20T08:53:46Z</time>
      </trkpt>
      <trkpt lat="42.600134" lon="-6.731260">
        <ele>472.6</ele>
        <time>2022-08-20T08:54:10Z</time>
      </trkpt>
      <trkpt lat="42.600136" lon="-6.731514">
        <ele>477.3</ele>
        <time>2022-08-20T08:54:24Z</time>
      </trkpt>
      <trkpt lat="42.600188" lon="-6.731757">
        <ele>477.6</ele>
        <time>2022-08-20T08:54:38Z</time>
      </trkpt>
      <trkpt lat="42.600266" lon="-6.731988">
        <ele>478.8</ele>
        <time>2022-08-20T08:54:51Z</time>
      </trkpt>
      <trkpt lat="42.600331" lon="-6.732216">
        <ele>476.6</ele>
        <time>2022-08-20T08:55:03Z</time>
      </trkpt>
      <trkpt lat="42.600416" lon="-6.732441">
        <ele>476.5</ele>
        <time>2022-08-20T08:55:16Z</time>
      </trkpt>
      <trkpt lat="42.600487" lon="-6.732683">
        <ele>475.5</ele>
        <time>2022-08-20T08:55:29Z</time>
      </trkpt>
      <trkpt lat="42.600556" lon="-6.732919">
        <ele>475.6</ele>
        <time>2022-08-20T08:55:42Z</time>
      </trkpt>
      <trkpt lat="42.600604" lon="-6.733170">
        <ele>476.3</ele>
        <time>2022-08-20T08:55:55Z</time>
      </trkpt>
      <trkpt lat="42.600653" lon="-6.733420">
        <ele>477.5</ele>
        <time>2022-08-20T08:56:08Z</time>
      </trkpt>
      <trkpt lat="42.600717" lon="-6.733666">
        <ele>476.9</ele>
        <time>2022-08-20T08:56:21Z</time>
      </trkpt>
      <trkpt lat="42.600780" lon="-6.733906">
        <ele>474.5</ele>
        <time>2022-08-20T08:56:34Z</time>
      </trkpt>
      <trkpt lat="42.600835" lon="-6.734151">
        <ele>475.3</ele>
        <time>2022-08-20T08:56:47Z</time>
      </trkpt>
      <trkpt lat="42.600887" lon="-6.734399">
        <ele>475.7</ele>
        <time>2022-08-20T08:57:01Z</time>
      </trkpt>
      <trkpt lat="42.600952" lon="-6.734647">
        <ele>474.6</ele>
        <time>2022-08-20T08:57:15Z</time>
      </trkpt>
      <trkpt lat="42.601011" lon="-6.734885">
        <ele>477.6</ele>
        <time>2022-08-20T08:57:28Z</time>
      </trkpt>
      <trkpt lat="42.601075" lon="-6.735131">
        <ele>477.6</ele>
        <time>2022-08-20T08:57:42Z</time>
      </trkpt>
      <trkpt lat="42.601140" lon="-6.735376">
        <ele>477.9</ele>
        <time>2022-08-20T08:57:55Z</time>
      </trkpt>
      <trkpt lat="42.601209" lon="-6.735617">
        <ele>476.6</ele>
        <time>2022-08-20T08:58:09Z</time>
      </trkpt>
      <trkpt lat="42.601268" lon="-6.735862">
        <ele>476.6</ele>
        <time>2022-08-20T08:58:22Z</time>
      </trkpt>
      <trkpt lat="42.601350" lon="-6.736082">
        <ele>473.6</ele>
        <time>2022-08-20T08:58:35Z</time>
      </trkpt>
      <trkpt lat="42.601416" lon="-6.736320">
        <ele>474.6</ele>
        <time>2022-08-20T08:58:49Z</time>
      </trkpt>
      <trkpt lat="42.601492" lon="-6.736548">
        <ele>475.6</ele>
        <time>2022-08-20T08:59:03Z</time>
      </trkpt>
      <trkpt lat="42.601557" lon="-6.736789">
        <ele>477.3</ele>
        <time>2022-08-20T08:59:17Z</time>
      </trkpt>
      <trkpt lat="42.601636" lon="-6.737026">
        <ele>476.9</ele>
        <time>2022-08-20T08:59:31Z</time>
      </trkpt>
      <trkpt lat="42.601722" lon="-6.737253">
        <ele>475.6</ele>
        <time>2022-08-20T08:59:43Z</time>
      </trkpt>
      <trkpt lat="42.601812" lon="-6.737472">
        <ele>476.6</ele>
        <time>2022-08-20T08:59:56Z</time>
      </trkpt>
      <trkpt lat="42.601920" lon="-6.737686">
        <ele>476.8</ele>
        <time>2022-08-20T09:00:10Z</time>
      </trkpt>
      <trkpt lat="42.602020" lon="-6.737902">
        <ele>474.7</ele>
        <time>2022-08-20T09:00:24Z</time>
      </trkpt>
      <trkpt lat="42.602134" lon="-6.738109">
        <ele>476.3</ele>
        <time>2022-08-20T09:00:37Z</time>
      </trkpt>
      <trkpt lat="42.602243" lon="-6.738311">
        <ele>476.7</ele>
        <time>2022-08-20T09:00:50Z</time>
      </trkpt>
      <trkpt lat="42.602347" lon="-6.738515">
        <ele>477.7</ele>
        <time>2022-08-20T09:01:03Z</time>
      </trkpt>
      <trkpt lat="42.602450" lon="-6.738723">
        <ele>478.6</ele>
        <time>2022-08-20T09:01:18Z</time>
      </trkpt>
      <trkpt lat="42.602568" lon="-6.738925">
        <ele>477.6</ele>
        <time>2022-08-20T09:01:31Z</time>
      </trkpt>
      <trkpt lat="42.602655" lon="-6.739142">
        <ele>479.6</ele>
        <time>2022-08-20T09:01:44Z</time>
      </trkpt>
      <trkpt lat="42.602754" lon="-6.739351">
        <ele>477.7</ele>
        <time>2022-08-20T09:01:58Z</time>
      </trkpt>
      <trkpt lat="42.602871" lon="-6.739559">
        <ele>480.5</ele>
        <time>2022-08-20T09:02:14Z</time>
      </trkpt>
      <trkpt lat="42.602986" lon="-6.739757">
        <ele>482.6</ele>
        <time>2022-08-20T09:02:26Z</time>
      </trkpt>
      <trkpt lat="42.603098" lon="-6.739964">
        <ele>482.6</ele>
        <time>2022-08-20T09:02:40Z</time>
      </trkpt>
      <trkpt lat="42.603196" lon="-6.740169">
        <ele>483.5</ele>
        <time>2022-08-20T09:02:53Z</time>
      </trkpt>
      <trkpt lat="42.603288" lon="-6.740383">
        <ele>483.5</ele>
        <time>2022-08-20T09:03:05Z</time>
      </trkpt>
      <trkpt lat="42.603417" lon="-6.740571">
        <ele>486.6</ele>
        <time>2022-08-20T09:03:18Z</time>
      </trkpt>
      <trkpt lat="42.603527" lon="-6.740778">
        <ele>487.3</ele>
        <time>2022-08-20T09:03:31Z</time>
      </trkpt>
      <trkpt lat="42.603638" lon="-6.740985">
        <ele>486.6</ele>
        <time>2022-08-20T09:03:44Z</time>
      </trkpt>
      <trkpt lat="42.603740" lon="-6.741192">
        <ele>487.5</ele>
        <time>2022-08-20T09:03:57Z</time>
      </trkpt>
      <trkpt lat="42.603834" lon="-6.741414">
        <ele>488.6</ele>
        <time>2022-08-20T09:04:11Z</time>
      </trkpt>
      <trkpt lat="42.603934" lon="-6.741621">
        <ele>490.3</ele>
        <time>2022-08-20T09:04:24Z</time>
      </trkpt>
      <trkpt lat="42.604022" lon="-6.741853">
        <ele>493.3</ele>
        <time>2022-08-20T09:04:38Z</time>
      </trkpt>
      <trkpt lat="42.604098" lon="-6.741951">
        <ele>493.6</ele>
        <time>2022-08-20T09:10:14Z</time>
      </trkpt>
      <trkpt lat="42.604172" lon="-6.742109">
        <ele>495.6</ele>
        <time>2022-08-20T09:10:27Z</time>
      </trkpt>
      <trkpt lat="42.604268" lon="-6.742333">
        <ele>496.6</ele>
        <time>2022-08-20T09:10:41Z</time>
      </trkpt>
      <trkpt lat="42.604377" lon="-6.742540">
        <ele>498.6</ele>
        <time>2022-08-20T09:10:54Z</time>
      </trkpt>
      <trkpt lat="42.604497" lon="-6.742747">
        <ele>499.6</ele>
        <time>2022-08-20T09:11:07Z</time>
      </trkpt>
      <trkpt lat="42.604589" lon="-6.742970">
        <ele>501.6</ele>
        <time>2022-08-20T09:11:21Z</time>
      </trkpt>
      <trkpt lat="42.604640" lon="-6.743205">
        <ele>504.6</ele>
        <time>2022-08-20T09:11:34Z</time>
      </trkpt>
      <trkpt lat="42.604692" lon="-6.743451">
        <ele>507.5</ele>
        <time>2022-08-20T09:11:48Z</time>
      </trkpt>
      <trkpt lat="42.604735" lon="-6.743696">
        <ele>508.6</ele>
        <time>2022-08-20T09:12:02Z</time>
      </trkpt>
      <trkpt lat="42.604768" lon="-6.743951">
        <ele>509.9</ele>
        <time>2022-08-20T09:12:15Z</time>
      </trkpt>
      <trkpt lat="42.604805" lon="-6.744194">
        <ele>513.6</ele>
        <time>2022-08-20T09:12:29Z</time>
      </trkpt>
      <trkpt lat="42.604850" lon="-6.744434">
        <ele>513.6</ele>
        <time>2022-08-20T09:12:42Z</time>
      </trkpt>
      <trkpt lat="42.604886" lon="-6.744684">
        <ele>512.5</ele>
        <time>2022-08-20T09:12:55Z</time>
      </trkpt>
      <trkpt lat="42.604933" lon="-6.744936">
        <ele>512.6</ele>
        <time>2022-08-20T09:13:09Z</time>
      </trkpt>
      <trkpt lat="42.604966" lon="-6.745187">
        <ele>513.6</ele>
        <time>2022-08-20T09:13:23Z</time>
      </trkpt>
      <trkpt lat="42.605006" lon="-6.745430">
        <ele>515.5</ele>
        <time>2022-08-20T09:13:37Z</time>
      </trkpt>
      <trkpt lat="42.605022" lon="-6.745693">
        <ele>515.4</ele>
        <time>2022-08-20T09:13:52Z</time>
      </trkpt>
      <trkpt lat="42.605071" lon="-6.745941">
        <ele>517.6</ele>
        <time>2022-08-20T09:14:05Z</time>
      </trkpt>
      <trkpt lat="42.605119" lon="-6.746182">
        <ele>517.6</ele>
        <time>2022-08-20T09:14:18Z</time>
      </trkpt>
      <trkpt lat="42.605174" lon="-6.746415">
        <ele>518.5</ele>
        <time>2022-08-20T09:14:31Z</time>
      </trkpt>
      <trkpt lat="42.605215" lon="-6.746668">
        <ele>519.7</ele>
        <time>2022-08-20T09:14:45Z</time>
      </trkpt>
      <trkpt lat="42.605264" lon="-6.746904">
        <ele>522.5</ele>
        <time>2022-08-20T09:14:59Z</time>
      </trkpt>
      <trkpt lat="42.605294" lon="-6.747151">
        <ele>523.6</ele>
        <time>2022-08-20T09:15:13Z</time>
      </trkpt>
      <trkpt lat="42.605321" lon="-6.747398">
        <ele>524.6</ele>
        <time>2022-08-20T09:15:28Z</time>
      </trkpt>
      <trkpt lat="42.605372" lon="-6.747646">
        <ele>527.6</ele>
        <time>2022-08-20T09:15:43Z</time>
      </trkpt>
      <trkpt lat="42.605405" lon="-6.747892">
        <ele>529.6</ele>
        <time>2022-08-20T09:15:57Z</time>
      </trkpt>
      <trkpt lat="42.605436" lon="-6.748141">
        <ele>528.9</ele>
        <time>2022-08-20T09:16:13Z</time>
      </trkpt>
      <trkpt lat="42.605466" lon="-6.748392">
        <ele>531.6</ele>
        <time>2022-08-20T09:16:29Z</time>
      </trkpt>
      <trkpt lat="42.605490" lon="-6.748648">
        <ele>532.6</ele>
        <time>2022-08-20T09:16:44Z</time>
      </trkpt>
      <trkpt lat="42.605537" lon="-6.748891">
        <ele>533.2</ele>
        <time>2022-08-20T09:17:00Z</time>
      </trkpt>
      <trkpt lat="42.605565" lon="-6.749144">
        <ele>532.9</ele>
        <time>2022-08-20T09:17:16Z</time>
      </trkpt>
      <trkpt lat="42.605598" lon="-6.749395">
        <ele>530.9</ele>
        <time>2022-08-20T09:17:31Z</time>
      </trkpt>
      <trkpt lat="42.605636" lon="-6.749644">
        <ele>531.6</ele>
        <time>2022-08-20T09:17:45Z</time>
      </trkpt>
      <trkpt lat="42.605674" lon="-6.749893">
        <ele>534.8</ele>
        <time>2022-08-20T09:17:59Z</time>
      </trkpt>
      <trkpt lat="42.605760" lon="-6.750109">
        <ele>537.8</ele>
        <time>2022-08-20T09:18:12Z</time>
      </trkpt>
      <trkpt lat="42.605790" lon="-6.750360">
        <ele>538.7</ele>
        <time>2022-08-20T09:18:45Z</time>
      </trkpt>
      <trkpt lat="42.605832" lon="-6.750616">
        <ele>538.6</ele>
        <time>2022-08-20T09:18:57Z</time>
      </trkpt>
      <trkpt lat="42.605856" lon="-6.750861">
        <ele>541.5</ele>
        <time>2022-08-20T09:19:10Z</time>
      </trkpt>
      <trkpt lat="42.605895" lon="-6.751108">
        <ele>540.9</ele>
        <time>2022-08-20T09:19:22Z</time>
      </trkpt>
      <trkpt lat="42.605939" lon="-6.751357">
        <ele>540.5</ele>
        <time>2022-08-20T09:19:35Z</time>
      </trkpt>
      <trkpt lat="42.605956" lon="-6.751617">
        <ele>542.6</ele>
        <time>2022-08-20T09:19:49Z</time>
      </trkpt>
      <trkpt lat="42.605986" lon="-6.751868">
        <ele>545.3</ele>
        <time>2022-08-20T09:20:02Z</time>
      </trkpt>
      <trkpt lat="42.606015" lon="-6.752122">
        <ele>544.3</ele>
        <time>2022-08-20T09:20:16Z</time>
      </trkpt>
      <trkpt lat="42.606027" lon="-6.752377">
        <ele>545.5</ele>
        <time>2022-08-20T09:20:30Z</time>
      </trkpt>
      <trkpt lat="42.606043" lon="-6.752624">
        <ele>545.5</ele>
        <time>2022-08-20T09:20:44Z</time>
      </trkpt>
      <trkpt lat="42.606059" lon="-6.752884">
        <ele>548.8</ele>
        <time>2022-08-20T09:20:58Z</time>
      </trkpt>
      <trkpt lat="42.606076" lon="-6.753131">
        <ele>551.6</ele>
        <time>2022-08-20T09:21:12Z</time>
      </trkpt>
      <trkpt lat="42.606098" lon="-6.753377">
        <ele>552.4</ele>
        <time>2022-08-20T09:21:25Z</time>
      </trkpt>
      <trkpt lat="42.606132" lon="-6.753632">
        <ele>554.6</ele>
        <time>2022-08-20T09:21:39Z</time>
      </trkpt>
      <trkpt lat="42.606157" lon="-6.753881">
        <ele>556.9</ele>
        <time>2022-08-20T09:21:52Z</time>
      </trkpt>
      <trkpt lat="42.606148" lon="-6.754127">
        <ele>555.6</ele>
        <time>2022-08-20T09:22:06Z</time>
      </trkpt>
      <trkpt lat="42.606162" lon="-6.754381">
        <ele>556.6</ele>
        <time>2022-08-20T09:22:21Z</time>
      </trkpt>
      <trkpt lat="42.606189" lon="-6.754628">
        <ele>558.3</ele>
        <time>2022-08-20T09:22:35Z</time>
      </trkpt>
      <trkpt lat="42.606206" lon="-6.754884">
        <ele>558.6</ele>
        <time>2022-08-20T09:22:50Z</time>
      </trkpt>
      <trkpt lat="42.606218" lon="-6.755132">
        <ele>558.6</ele>
        <time>2022-08-20T09:23:06Z</time>
      </trkpt>
      <trkpt lat="42.606157" lon="-6.755373">
        <ele>563.3</ele>
        <time>2022-08-20T09:23:27Z</time>
      </trkpt>
      <trkpt lat="42.606100" lon="-6.755620">
        <ele>566.6</ele>
        <time>2022-08-20T09:23:48Z</time>
      </trkpt>
      <trkpt lat="42.606067" lon="-6.755869">
        <ele>565.3</ele>
        <time>2022-08-20T09:24:31Z</time>
      </trkpt>
      <trkpt lat="42.606001" lon="-6.756110">
        <ele>566.6</ele>
        <time>2022-08-20T09:24:45Z</time>
      </trkpt>
      <trkpt lat="42.605932" lon="-6.756336">
        <ele>565.7</ele>
        <time>2022-08-20T09:24:57Z</time>
      </trkpt>
      <trkpt lat="42.605884" lon="-6.756578">
        <ele>565.6</ele>
        <time>2022-08-20T09:25:11Z</time>
      </trkpt>
      <trkpt lat="42.605839" lon="-6.756815">
        <ele>563.7</ele>
        <time>2022-08-20T09:25:27Z</time>
      </trkpt>
      <trkpt lat="42.605798" lon="-6.757064">
        <ele>571.7</ele>
        <time>2022-08-20T09:25:42Z</time>
      </trkpt>
      <trkpt lat="42.605675" lon="-6.757257">
        <ele>571.5</ele>
        <time>2022-08-20T09:25:57Z</time>
      </trkpt>
      <trkpt lat="42.605633" lon="-6.757496">
        <ele>571.7</ele>
        <time>2022-08-20T09:26:11Z</time>
      </trkpt>
      <trkpt lat="42.605555" lon="-6.757732">
        <ele>571.7</ele>
        <time>2022-08-20T09:26:24Z</time>
      </trkpt>
      <trkpt lat="42.605506" lon="-6.757987">
        <ele>571.7</ele>
        <time>2022-08-20T09:26:40Z</time>
      </trkpt>
      <trkpt lat="42.605432" lon="-6.758251">
        <ele>559.6</ele>
        <time>2022-08-20T09:26:55Z</time>
      </trkpt>
      <trkpt lat="42.605384" lon="-6.758493">
        <ele>554.7</ele>
        <time>2022-08-20T09:27:18Z</time>
      </trkpt>
      <trkpt lat="42.605326" lon="-6.758728">
        <ele>554.6</ele>
        <time>2022-08-20T09:27:32Z</time>
      </trkpt>
      <trkpt lat="42.605137" lon="-6.758706">
        <ele>550.9</ele>
        <time>2022-08-20T09:27:55Z</time>
      </trkpt>
      <trkpt lat="42.604981" lon="-6.758577">
        <ele>550.6</ele>
        <time>2022-08-20T09:28:10Z</time>
      </trkpt>
      <trkpt lat="42.604798" lon="-6.758546">
        <ele>550.6</ele>
        <time>2022-08-20T09:28:24Z</time>
      </trkpt>
      <trkpt lat="42.604634" lon="-6.758661">
        <ele>550.6</ele>
        <time>2022-08-20T09:28:41Z</time>
      </trkpt>
      <trkpt lat="42.604541" lon="-6.758887">
        <ele>549.7</ele>
        <time>2022-08-20T09:28:55Z</time>
      </trkpt>
      <trkpt lat="42.604484" lon="-6.759130">
        <ele>545.9</ele>
        <time>2022-08-20T09:29:11Z</time>
      </trkpt>
      <trkpt lat="42.604445" lon="-6.759374">
        <ele>545.5</ele>
        <time>2022-08-20T09:29:25Z</time>
      </trkpt>
      <trkpt lat="42.604405" lon="-6.759625">
        <ele>544.6</ele>
        <time>2022-08-20T09:29:39Z</time>
      </trkpt>
      <trkpt lat="42.604374" lon="-6.759890">
        <ele>541.6</ele>
        <time>2022-08-20T09:30:01Z</time>
      </trkpt>
      <trkpt lat="42.604302" lon="-6.760120">
        <ele>536.7</ele>
        <time>2022-08-20T09:30:19Z</time>
      </trkpt>
      <trkpt lat="42.604196" lon="-6.760339">
        <ele>535.6</ele>
        <time>2022-08-20T09:30:33Z</time>
      </trkpt>
      <trkpt lat="42.604088" lon="-6.760546">
        <ele>537.7</ele>
        <time>2022-08-20T09:30:47Z</time>
      </trkpt>
      <trkpt lat="42.603944" lon="-6.760731">
        <ele>536.7</ele>
        <time>2022-08-20T09:31:01Z</time>
      </trkpt>
      <trkpt lat="42.603849" lon="-6.760943">
        <ele>535.6</ele>
        <time>2022-08-20T09:31:17Z</time>
      </trkpt>
      <trkpt lat="42.603773" lon="-6.761178">
        <ele>533.9</ele>
        <time>2022-08-20T09:31:38Z</time>
      </trkpt>
      <trkpt lat="42.603689" lon="-6.761401">
        <ele>532.7</ele>
        <time>2022-08-20T09:31:54Z</time>
      </trkpt>
      <trkpt lat="42.603611" lon="-6.761626">
        <ele>534.5</ele>
        <time>2022-08-20T09:32:07Z</time>
      </trkpt>
      <trkpt lat="42.603540" lon="-6.761859">
        <ele>531.7</ele>
        <time>2022-08-20T09:32:21Z</time>
      </trkpt>
      <trkpt lat="42.603460" lon="-6.762079">
        <ele>532.3</ele>
        <time>2022-08-20T09:32:38Z</time>
      </trkpt>
      <trkpt lat="42.603367" lon="-6.762296">
        <ele>531.6</ele>
        <time>2022-08-20T09:32:53Z</time>
      </trkpt>
      <trkpt lat="42.603269" lon="-6.762505">
        <ele>530.6</ele>
        <time>2022-08-20T09:33:07Z</time>
      </trkpt>
      <trkpt lat="42.603119" lon="-6.762645">
        <ele>527.3</ele>
        <time>2022-08-20T09:33:23Z</time>
      </trkpt>
      <trkpt lat="42.602960" lon="-6.762799">
        <ele>528.6</ele>
        <time>2022-08-20T09:33:37Z</time>
      </trkpt>
      <trkpt lat="42.602791" lon="-6.762923">
        <ele>526.9</ele>
        <time>2022-08-20T09:33:54Z</time>
      </trkpt>
      <trkpt lat="42.602629" lon="-6.763052">
        <ele>527.3</ele>
        <time>2022-08-20T09:34:07Z</time>
      </trkpt>
      <trkpt lat="42.602445" lon="-6.763132">
        <ele>521.6</ele>
        <time>2022-08-20T09:34:33Z</time>
      </trkpt>
      <trkpt lat="42.602253" lon="-6.763146">
        <ele>517.6</ele>
        <time>2022-08-20T09:47:13Z</time>
      </trkpt>
      <trkpt lat="42.602073" lon="-6.763080">
        <ele>515.6</ele>
        <time>2022-08-20T09:47:27Z</time>
      </trkpt>
      <trkpt lat="42.601908" lon="-6.762982">
        <ele>514.3</ele>
        <time>2022-08-20T09:48:24Z</time>
      </trkpt>
      <trkpt lat="42.601722" lon="-6.762961">
        <ele>517.9</ele>
        <time>2022-08-20T09:49:11Z</time>
      </trkpt>
      <trkpt lat="42.601527" lon="-6.762958">
        <ele>514.6</ele>
        <time>2022-08-20T09:49:27Z</time>
      </trkpt>
      <trkpt lat="42.601508" lon="-6.763207">
        <ele>512.7</ele>
        <time>2022-08-20T09:49:44Z</time>
      </trkpt>
      <trkpt lat="42.601517" lon="-6.763460">
        <ele>512.6</ele>
        <time>2022-08-20T09:49:59Z</time>
      </trkpt>
      <trkpt lat="42.601391" lon="-6.763653">
        <ele>509.9</ele>
        <time>2022-08-20T09:50:14Z</time>
      </trkpt>
      <trkpt lat="42.601231" lon="-6.763768">
        <ele>508.6</ele>
        <time>2022-08-20T09:50:28Z</time>
      </trkpt>
      <trkpt lat="42.601149" lon="-6.763986">
        <ele>509.6</ele>
        <time>2022-08-20T09:50:58Z</time>
      </trkpt>
      <trkpt lat="42.601113" lon="-6.764227">
        <ele>508.6</ele>
        <time>2022-08-20T09:51:15Z</time>
      </trkpt>
      <trkpt lat="42.601087" lon="-6.764501">
        <ele>508.3</ele>
        <time>2022-08-20T09:51:47Z</time>
      </trkpt>
      <trkpt lat="42.601062" lon="-6.764765">
        <ele>508.5</ele>
        <time>2022-08-20T09:52:02Z</time>
      </trkpt>
      <trkpt lat="42.601025" lon="-6.765016">
        <ele>506.9</ele>
        <time>2022-08-20T09:52:17Z</time>
      </trkpt>
      <trkpt lat="42.600978" lon="-6.765260">
        <ele>507.6</ele>
        <time>2022-08-20T09:52:32Z</time>
      </trkpt>
      <trkpt lat="42.600963" lon="-6.765506">
        <ele>508.6</ele>
        <time>2022-08-20T09:52:46Z</time>
      </trkpt>
      <trkpt lat="42.600826" lon="-6.765670">
        <ele>507.7</ele>
        <time>2022-08-20T09:53:03Z</time>
      </trkpt>
      <trkpt lat="42.600646" lon="-6.765620">
        <ele>505.6</ele>
        <time>2022-08-20T09:53:15Z</time>
      </trkpt>
      <trkpt lat="42.600465" lon="-6.765602">
        <ele>505.6</ele>
        <time>2022-08-20T09:53:31Z</time>
      </trkpt>
      <trkpt lat="42.600278" lon="-6.765627">
        <ele>505.6</ele>
        <time>2022-08-20T09:53:47Z</time>
      </trkpt>
      <trkpt lat="42.600094" lon="-6.765628">
        <ele>506.3</ele>
        <time>2022-08-20T09:54:01Z</time>
      </trkpt>
      <trkpt lat="42.599904" lon="-6.765639">
        <ele>506.7</ele>
        <time>2022-08-20T09:54:16Z</time>
      </trkpt>
      <trkpt lat="42.599714" lon="-6.765652">
        <ele>505.6</ele>
        <time>2022-08-20T09:54:31Z</time>
      </trkpt>
      <trkpt lat="42.599532" lon="-6.765647">
        <ele>504.7</ele>
        <time>2022-08-20T09:54:44Z</time>
      </trkpt>
      <trkpt lat="42.599344" lon="-6.765625">
        <ele>501.6</ele>
        <time>2022-08-20T09:54:58Z</time>
      </trkpt>
      <trkpt lat="42.599163" lon="-6.765589">
        <ele>502.6</ele>
        <time>2022-08-20T09:55:12Z</time>
      </trkpt>
      <trkpt lat="42.598977" lon="-6.765561">
        <ele>499.6</ele>
        <time>2022-08-20T09:55:25Z</time>
      </trkpt>
      <trkpt lat="42.598792" lon="-6.765569">
        <ele>499.6</ele>
        <time>2022-08-20T09:55:39Z</time>
      </trkpt>
      <trkpt lat="42.598603" lon="-6.765547">
        <ele>499.6</ele>
        <time>2022-08-20T09:55:53Z</time>
      </trkpt>
      <trkpt lat="42.598419" lon="-6.765530">
        <ele>500.6</ele>
        <time>2022-08-20T09:56:07Z</time>
      </trkpt>
      <trkpt lat="42.598228" lon="-6.765534">
        <ele>500.6</ele>
        <time>2022-08-20T09:56:20Z</time>
      </trkpt>
      <trkpt lat="42.598042" lon="-6.765535">
        <ele>500.0</ele>
        <time>2022-08-20T09:56:36Z</time>
      </trkpt>
      <trkpt lat="42.597852" lon="-6.765503">
        <ele>497.6</ele>
        <time>2022-08-20T09:56:49Z</time>
      </trkpt>
      <trkpt lat="42.597666" lon="-6.765458">
        <ele>498.6</ele>
        <time>2022-08-20T09:57:03Z</time>
      </trkpt>
      <trkpt lat="42.597478" lon="-6.765386">
        <ele>500.6</ele>
        <time>2022-08-20T09:57:19Z</time>
      </trkpt>
      <trkpt lat="42.597307" lon="-6.765296">
        <ele>501.7</ele>
        <time>2022-08-20T09:57:35Z</time>
      </trkpt>
      <trkpt lat="42.597130" lon="-6.765183">
        <ele>502.6</ele>
        <time>2022-08-20T09:57:49Z</time>
      </trkpt>
      <trkpt lat="42.596948" lon="-6.765166">
        <ele>501.6</ele>
        <time>2022-08-20T09:58:03Z</time>
      </trkpt>
      <trkpt lat="42.596765" lon="-6.765149">
        <ele>499.7</ele>
        <time>2022-08-20T09:58:17Z</time>
      </trkpt>
      <trkpt lat="42.596576" lon="-6.765091">
        <ele>495.7</ele>
        <time>2022-08-20T09:58:34Z</time>
      </trkpt>
      <trkpt lat="42.596561" lon="-6.765341">
        <ele>495.6</ele>
        <time>2022-08-20T09:58:52Z</time>
      </trkpt>
      <trkpt lat="42.596562" lon="-6.765591">
        <ele>496.0</ele>
        <time>2022-08-20T09:59:27Z</time>
      </trkpt>
      <trkpt lat="42.596635" lon="-6.765816">
        <ele>494.0</ele>
        <time>2022-08-20T09:59:40Z</time>
      </trkpt>
      <trkpt lat="42.596714" lon="-6.766041">
        <ele>495.6</ele>
        <time>2022-08-20T09:59:53Z</time>
      </trkpt>
      <trkpt lat="42.596847" lon="-6.766222">
        <ele>497.6</ele>
        <time>2022-08-20T10:00:07Z</time>
      </trkpt>
      <trkpt lat="42.596926" lon="-6.766454">
        <ele>497.6</ele>
        <time>2022-08-20T10:00:20Z</time>
      </trkpt>
      <trkpt lat="42.596995" lon="-6.766696">
        <ele>496.4</ele>
        <time>2022-08-20T10:00:34Z</time>
      </trkpt>
      <trkpt lat="42.597083" lon="-6.766914">
        <ele>497.6</ele>
        <time>2022-08-20T10:01:16Z</time>
      </trkpt>
      <trkpt lat="42.597224" lon="-6.767083">
        <ele>498.4</ele>
        <time>2022-08-20T10:01:31Z</time>
      </trkpt>
      <trkpt lat="42.597393" lon="-6.767196">
        <ele>498.6</ele>
        <time>2022-08-20T10:01:44Z</time>
      </trkpt>
      <trkpt lat="42.597550" lon="-6.767330">
        <ele>499.6</ele>
        <time>2022-08-20T10:01:57Z</time>
      </trkpt>
      <trkpt lat="42.597687" lon="-6.767504">
        <ele>500.4</ele>
        <time>2022-08-20T10:02:11Z</time>
      </trkpt>
      <trkpt lat="42.597796" lon="-6.767703">
        <ele>501.6</ele>
        <time>2022-08-20T10:02:26Z</time>
      </trkpt>
      <trkpt lat="42.597928" lon="-6.767899">
        <ele>504.4</ele>
        <time>2022-08-20T10:02:41Z</time>
      </trkpt>
      <trkpt lat="42.598097" lon="-6.768035">
        <ele>506.6</ele>
        <time>2022-08-20T10:02:56Z</time>
      </trkpt>
      <trkpt lat="42.598244" lon="-6.768180">
        <ele>509.6</ele>
        <time>2022-08-20T10:03:11Z</time>
      </trkpt>
      <trkpt lat="42.598329" lon="-6.768409">
        <ele>511.6</ele>
        <time>2022-08-20T10:03:27Z</time>
      </trkpt>
      <trkpt lat="42.598396" lon="-6.768641">
        <ele>512.9</ele>
        <time>2022-08-20T10:03:43Z</time>
      </trkpt>
      <trkpt lat="42.598423" lon="-6.768895">
        <ele>511.7</ele>
        <time>2022-08-20T10:04:00Z</time>
      </trkpt>
      <trkpt lat="42.598482" lon="-6.769135">
        <ele>511.4</ele>
        <time>2022-08-20T10:04:16Z</time>
      </trkpt>
      <trkpt lat="42.598593" lon="-6.769349">
        <ele>509.6</ele>
        <time>2022-08-20T10:04:31Z</time>
      </trkpt>
      <trkpt lat="42.598716" lon="-6.769543">
        <ele>508.6</ele>
        <time>2022-08-20T10:04:49Z</time>
      </trkpt>
      <trkpt lat="42.598799" lon="-6.769760">
        <ele>509.6</ele>
        <time>2022-08-20T10:05:03Z</time>
      </trkpt>
      <trkpt lat="42.598877" lon="-6.769985">
        <ele>509.6</ele>
        <time>2022-08-20T10:05:24Z</time>
      </trkpt>
      <trkpt lat="42.598990" lon="-6.770187">
        <ele>509.0</ele>
        <time>2022-08-20T10:05:39Z</time>
      </trkpt>
      <trkpt lat="42.599117" lon="-6.770380">
        <ele>508.6</ele>
        <time>2022-08-20T10:05:54Z</time>
      </trkpt>
      <trkpt lat="42.599203" lon="-6.770607">
        <ele>507.6</ele>
        <time>2022-08-20T10:06:09Z</time>
      </trkpt>
      <trkpt lat="42.599295" lon="-6.770823">
        <ele>508.5</ele>
        <time>2022-08-20T10:06:23Z</time>
      </trkpt>
      <trkpt lat="42.599387" lon="-6.771033">
        <ele>507.6</ele>
        <time>2022-08-20T10:06:37Z</time>
      </trkpt>
      <trkpt lat="42.599474" lon="-6.771266">
        <ele>507.6</ele>
        <time>2022-08-20T10:06:51Z</time>
      </trkpt>
      <trkpt lat="42.599563" lon="-6.771489">
        <ele>507.0</ele>
        <time>2022-08-20T10:07:08Z</time>
      </trkpt>
      <trkpt lat="42.599627" lon="-6.771719">
        <ele>507.7</ele>
        <time>2022-08-20T10:07:54Z</time>
      </trkpt>
      <trkpt lat="42.599765" lon="-6.771880">
        <ele>506.7</ele>
        <time>2022-08-20T10:08:09Z</time>
      </trkpt>
      <trkpt lat="42.599848" lon="-6.772112">
        <ele>506.6</ele>
        <time>2022-08-20T10:08:47Z</time>
      </trkpt>
      <trkpt lat="42.599974" lon="-6.772301">
        <ele>505.9</ele>
        <time>2022-08-20T10:09:02Z</time>
      </trkpt>
      <trkpt lat="42.600073" lon="-6.772515">
        <ele>506.6</ele>
        <time>2022-08-20T10:09:17Z</time>
      </trkpt>
      <trkpt lat="42.600177" lon="-6.772746">
        <ele>507.0</ele>
        <time>2022-08-20T10:09:31Z</time>
      </trkpt>
      <trkpt lat="42.600303" lon="-6.772921">
        <ele>506.6</ele>
        <time>2022-08-20T10:09:45Z</time>
      </trkpt>
      <trkpt lat="42.600426" lon="-6.773111">
        <ele>506.7</ele>
        <time>2022-08-20T10:09:59Z</time>
      </trkpt>
      <trkpt lat="42.600552" lon="-6.773293">
        <ele>509.6</ele>
        <time>2022-08-20T10:10:13Z</time>
      </trkpt>
      <trkpt lat="42.600686" lon="-6.773468">
        <ele>509.7</ele>
        <time>2022-08-20T10:10:28Z</time>
      </trkpt>
      <trkpt lat="42.600824" lon="-6.773630">
        <ele>508.0</ele>
        <time>2022-08-20T10:11:08Z</time>
      </trkpt>
      <trkpt lat="42.600973" lon="-6.773774">
        <ele>507.4</ele>
        <time>2022-08-20T10:11:21Z</time>
      </trkpt>
      <trkpt lat="42.601113" lon="-6.773928">
        <ele>507.6</ele>
        <time>2022-08-20T10:11:35Z</time>
      </trkpt>
      <trkpt lat="42.601248" lon="-6.774091">
        <ele>507.7</ele>
        <time>2022-08-20T10:11:48Z</time>
      </trkpt>
      <trkpt lat="42.601381" lon="-6.774257">
        <ele>508.9</ele>
        <time>2022-08-20T10:12:01Z</time>
      </trkpt>
      <trkpt lat="42.601519" lon="-6.774414">
        <ele>510.6</ele>
        <time>2022-08-20T10:12:14Z</time>
      </trkpt>
      <trkpt lat="42.601660" lon="-6.774569">
        <ele>513.3</ele>
        <time>2022-08-20T10:12:28Z</time>
      </trkpt>
      <trkpt lat="42.601679" lon="-6.774826">
        <ele>514.7</ele>
        <time>2022-08-20T10:12:45Z</time>
      </trkpt>
      <trkpt lat="42.601663" lon="-6.775070">
        <ele>514.6</ele>
        <time>2022-08-20T10:12:59Z</time>
      </trkpt>
      <trkpt lat="42.601602" lon="-6.775317">
        <ele>513.7</ele>
        <time>2022-08-20T10:13:14Z</time>
      </trkpt>
      <trkpt lat="42.601529" lon="-6.775542">
        <ele>513.7</ele>
        <time>2022-08-20T10:13:27Z</time>
      </trkpt>
      <trkpt lat="42.601442" lon="-6.775771">
        <ele>513.7</ele>
        <time>2022-08-20T10:13:41Z</time>
      </trkpt>
      <trkpt lat="42.601331" lon="-6.775974">
        <ele>511.0</ele>
        <time>2022-08-20T10:13:57Z</time>
      </trkpt>
      <trkpt lat="42.601242" lon="-6.776194">
        <ele>514.6</ele>
        <time>2022-08-20T10:14:29Z</time>
      </trkpt>
      <trkpt lat="42.601243" lon="-6.776439">
        <ele>511.7</ele>
        <time>2022-08-20T10:15:15Z</time>
      </trkpt>
      <trkpt lat="42.601393" lon="-6.776602">
        <ele>511.7</ele>
        <time>2022-08-20T10:15:35Z</time>
      </trkpt>
      <trkpt lat="42.601503" lon="-6.776806">
        <ele>510.6</ele>
        <time>2022-08-20T10:15:50Z</time>
      </trkpt>
      <trkpt lat="42.601552" lon="-6.777042">
        <ele>512.6</ele>
        <time>2022-08-20T10:16:03Z</time>
      </trkpt>
      <trkpt lat="42.601543" lon="-6.777291">
        <ele>514.7</ele>
        <time>2022-08-20T10:16:17Z</time>
      </trkpt>
      <trkpt lat="42.601548" lon="-6.777544">
        <ele>514.7</ele>
        <time>2022-08-20T10:16:32Z</time>
      </trkpt>
      <trkpt lat="42.601557" lon="-6.777810">
        <ele>514.6</ele>
        <time>2022-08-20T10:16:47Z</time>
      </trkpt>
      <trkpt lat="42.601552" lon="-6.778055">
        <ele>514.7</ele>
        <time>2022-08-20T10:17:46Z</time>
      </trkpt>
      <trkpt lat="42.601548" lon="-6.778306">
        <ele>517.3</ele>
        <time>2022-08-20T10:18:02Z</time>
      </trkpt>
      <trkpt lat="42.601589" lon="-6.778546">
        <ele>517.6</ele>
        <time>2022-08-20T10:18:15Z</time>
      </trkpt>
      <trkpt lat="42.601618" lon="-6.778789">
        <ele>519.6</ele>
        <time>2022-08-20T10:18:29Z</time>
      </trkpt>
      <trkpt lat="42.601609" lon="-6.779047">
        <ele>519.7</ele>
        <time>2022-08-20T10:18:43Z</time>
      </trkpt>
      <trkpt lat="42.601596" lon="-6.779297">
        <ele>520.7</ele>
        <time>2022-08-20T10:18:57Z</time>
      </trkpt>
      <trkpt lat="42.601594" lon="-6.779542">
        <ele>520.7</ele>
        <time>2022-08-20T10:19:11Z</time>
      </trkpt>
      <trkpt lat="42.601584" lon="-6.779791">
        <ele>523.5</ele>
        <time>2022-08-20T10:19:26Z</time>
      </trkpt>
      <trkpt lat="42.601595" lon="-6.780035">
        <ele>525.6</ele>
        <time>2022-08-20T10:19:40Z</time>
      </trkpt>
      <trkpt lat="42.601577" lon="-6.780289">
        <ele>526.7</ele>
        <time>2022-08-20T10:19:56Z</time>
      </trkpt>
      <trkpt lat="42.601570" lon="-6.780539">
        <ele>530.3</ele>
        <time>2022-08-20T10:20:12Z</time>
      </trkpt>
      <trkpt lat="42.601572" lon="-6.780789">
        <ele>531.6</ele>
        <time>2022-08-20T10:20:28Z</time>
      </trkpt>
      <trkpt lat="42.601582" lon="-6.781038">
        <ele>535.6</ele>
        <time>2022-08-20T10:20:45Z</time>
      </trkpt>
      <trkpt lat="42.601585" lon="-6.781283">
        <ele>536.6</ele>
        <time>2022-08-20T10:21:02Z</time>
      </trkpt>
      <trkpt lat="42.601601" lon="-6.781533">
        <ele>541.6</ele>
        <time>2022-08-20T10:21:20Z</time>
      </trkpt>
      <trkpt lat="42.601658" lon="-6.781774">
        <ele>544.3</ele>
        <time>2022-08-20T10:21:34Z</time>
      </trkpt>
      <trkpt lat="42.601674" lon="-6.782019">
        <ele>547.6</ele>
        <time>2022-08-20T10:21:53Z</time>
      </trkpt>
      <trkpt lat="42.601790" lon="-6.782223">
        <ele>545.6</ele>
        <time>2022-08-20T10:22:57Z</time>
      </trkpt>
      <trkpt lat="42.601864" lon="-6.782458">
        <ele>548.6</ele>
        <time>2022-08-20T10:23:12Z</time>
      </trkpt>
      <trkpt lat="42.601925" lon="-6.782697">
        <ele>548.6</ele>
        <time>2022-08-20T10:23:52Z</time>
      </trkpt>
      <trkpt lat="42.602002" lon="-6.782920">
        <ele>547.8</ele>
        <time>2022-08-20T10:24:05Z</time>
      </trkpt>
      <trkpt lat="42.602088" lon="-6.783139">
        <ele>547.7</ele>
        <time>2022-08-20T10:24:19Z</time>
      </trkpt>
      <trkpt lat="42.602143" lon="-6.783373">
        <ele>547.9</ele>
        <time>2022-08-20T10:24:32Z</time>
      </trkpt>
      <trkpt lat="42.602153" lon="-6.783630">
        <ele>547.8</ele>
        <time>2022-08-20T10:24:47Z</time>
      </trkpt>
      <trkpt lat="42.602101" lon="-6.783875">
        <ele>546.0</ele>
        <time>2022-08-20T10:25:26Z</time>
      </trkpt>
      <trkpt lat="42.602100" lon="-6.784121">
        <ele>544.7</ele>
        <time>2022-08-20T10:25:39Z</time>
      </trkpt>
      <trkpt lat="42.602101" lon="-6.784371">
        <ele>542.7</ele>
        <time>2022-08-20T10:25:53Z</time>
      </trkpt>
      <trkpt lat="42.602112" lon="-6.784616">
        <ele>540.7</ele>
        <time>2022-08-20T10:26:08Z</time>
      </trkpt>
      <trkpt lat="42.602181" lon="-6.784859">
        <ele>538.7</ele>
        <time>2022-08-20T10:26:23Z</time>
      </trkpt>
      <trkpt lat="42.602265" lon="-6.785076">
        <ele>537.7</ele>
        <time>2022-08-20T10:26:36Z</time>
      </trkpt>
      <trkpt lat="42.602289" lon="-6.785321">
        <ele>536.7</ele>
        <time>2022-08-20T10:26:50Z</time>
      </trkpt>
      <trkpt lat="42.602318" lon="-6.785564">
        <ele>536.7</ele>
        <time>2022-08-20T10:27:04Z</time>
      </trkpt>
      <trkpt lat="42.602377" lon="-6.785800">
        <ele>533.7</ele>
        <time>2022-08-20T10:27:19Z</time>
      </trkpt>
      <trkpt lat="42.602487" lon="-6.786018">
        <ele>535.7</ele>
        <time>2022-08-20T10:27:35Z</time>
      </trkpt>
      <trkpt lat="42.602586" lon="-6.786244">
        <ele>535.6</ele>
        <time>2022-08-20T10:27:50Z</time>
      </trkpt>
      <trkpt lat="42.602547" lon="-6.786513">
        <ele>533.7</ele>
        <time>2022-08-20T10:28:05Z</time>
      </trkpt>
      <trkpt lat="42.602497" lon="-6.786760">
        <ele>534.4</ele>
        <time>2022-08-20T10:28:20Z</time>
      </trkpt>
      <trkpt lat="42.602475" lon="-6.787007">
        <ele>534.4</ele>
        <time>2022-08-20T10:28:34Z</time>
      </trkpt>
      <trkpt lat="42.602463" lon="-6.787254">
        <ele>535.4</ele>
        <time>2022-08-20T10:28:47Z</time>
      </trkpt>
      <trkpt lat="42.602462" lon="-6.787515">
        <ele>535.6</ele>
        <time>2022-08-20T10:29:01Z</time>
      </trkpt>
      <trkpt lat="42.602543" lon="-6.787735">
        <ele>538.6</ele>
        <time>2022-08-20T10:29:16Z</time>
      </trkpt>
      <trkpt lat="42.602671" lon="-6.787909">
        <ele>543.6</ele>
        <time>2022-08-20T10:29:30Z</time>
      </trkpt>
      <trkpt lat="42.602789" lon="-6.788105">
        <ele>544.6</ele>
        <time>2022-08-20T10:29:45Z</time>
      </trkpt>
      <trkpt lat="42.602911" lon="-6.788304">
        <ele>545.6</ele>
        <time>2022-08-20T10:29:59Z</time>
      </trkpt>
      <trkpt lat="42.603060" lon="-6.788445">
        <ele>546.8</ele>
        <time>2022-08-20T10:30:13Z</time>
      </trkpt>
      <trkpt lat="42.603221" lon="-6.788583">
        <ele>548.4</ele>
        <time>2022-08-20T10:30:29Z</time>
      </trkpt>
      <trkpt lat="42.603355" lon="-6.788750">
        <ele>549.6</ele>
        <time>2022-08-20T10:30:42Z</time>
      </trkpt>
      <trkpt lat="42.603494" lon="-6.788908">
        <ele>551.7</ele>
        <time>2022-08-20T10:30:56Z</time>
      </trkpt>
      <trkpt lat="42.603639" lon="-6.789096">
        <ele>552.7</ele>
        <time>2022-08-20T10:31:11Z</time>
      </trkpt>
      <trkpt lat="42.603783" lon="-6.789278">
        <ele>554.7</ele>
        <time>2022-08-20T10:31:26Z</time>
      </trkpt>
      <trkpt lat="42.603900" lon="-6.789464">
        <ele>553.7</ele>
        <time>2022-08-20T10:31:41Z</time>
      </trkpt>
      <trkpt lat="42.604002" lon="-6.789672">
        <ele>553.8</ele>
        <time>2022-08-20T10:31:55Z</time>
      </trkpt>
      <trkpt lat="42.604055" lon="-6.789914">
        <ele>552.7</ele>
        <time>2022-08-20T10:32:09Z</time>
      </trkpt>
      <trkpt lat="42.604083" lon="-6.790157">
        <ele>553.6</ele>
        <time>2022-08-20T10:32:22Z</time>
      </trkpt>
      <trkpt lat="42.604135" lon="-6.790391">
        <ele>555.7</ele>
        <time>2022-08-20T10:32:37Z</time>
      </trkpt>
      <trkpt lat="42.604225" lon="-6.790613">
        <ele>557.6</ele>
        <time>2022-08-20T10:32:51Z</time>
      </trkpt>
      <trkpt lat="42.604319" lon="-6.790824">
        <ele>558.9</ele>
        <time>2022-08-20T10:33:06Z</time>
      </trkpt>
      <trkpt lat="42.604426" lon="-6.791052">
        <ele>559.7</ele>
        <time>2022-08-20T10:33:22Z</time>
      </trkpt>
      <trkpt lat="42.604522" lon="-6.791267">
        <ele>559.7</ele>
        <time>2022-08-20T10:33:37Z</time>
      </trkpt>
      <trkpt lat="42.604650" lon="-6.791447">
        <ele>561.7</ele>
        <time>2022-08-20T10:33:51Z</time>
      </trkpt>
      <trkpt lat="42.604760" lon="-6.791647">
        <ele>563.6</ele>
        <time>2022-08-20T10:34:06Z</time>
      </trkpt>
      <trkpt lat="42.604729" lon="-6.791895">
        <ele>564.7</ele>
        <time>2022-08-20T10:34:20Z</time>
      </trkpt>
      <trkpt lat="42.604729" lon="-6.792159">
        <ele>566.7</ele>
        <time>2022-08-20T10:34:35Z</time>
      </trkpt>
      <trkpt lat="42.604725" lon="-6.792405">
        <ele>567.7</ele>
        <time>2022-08-20T10:34:49Z</time>
      </trkpt>
      <trkpt lat="42.604738" lon="-6.792655">
        <ele>568.6</ele>
        <time>2022-08-20T10:35:04Z</time>
      </trkpt>
      <trkpt lat="42.604765" lon="-6.792898">
        <ele>569.6</ele>
        <time>2022-08-20T10:35:18Z</time>
      </trkpt>
      <trkpt lat="42.604784" lon="-6.793145">
        <ele>571.7</ele>
        <time>2022-08-20T10:35:32Z</time>
      </trkpt>
      <trkpt lat="42.604778" lon="-6.793396">
        <ele>569.7</ele>
        <time>2022-08-20T10:35:45Z</time>
      </trkpt>
      <trkpt lat="42.604762" lon="-6.793641">
        <ele>569.9</ele>
        <time>2022-08-20T10:35:58Z</time>
      </trkpt>
      <trkpt lat="42.604777" lon="-6.793886">
        <ele>570.7</ele>
        <time>2022-08-20T10:36:13Z</time>
      </trkpt>
      <trkpt lat="42.604798" lon="-6.794137">
        <ele>585.9</ele>
        <time>2022-08-20T10:36:29Z</time>
      </trkpt>
      <trkpt lat="42.604799" lon="-6.794397">
        <ele>587.6</ele>
        <time>2022-08-20T10:36:44Z</time>
      </trkpt>
      <trkpt lat="42.604794" lon="-6.794653">
        <ele>586.3</ele>
        <time>2022-08-20T10:36:59Z</time>
      </trkpt>
      <trkpt lat="42.604770" lon="-6.794920">
        <ele>585.4</ele>
        <time>2022-08-20T10:37:14Z</time>
      </trkpt>
      <trkpt lat="42.604764" lon="-6.795179">
        <ele>586.3</ele>
        <time>2022-08-20T10:37:34Z</time>
      </trkpt>
      <trkpt lat="42.604761" lon="-6.795439">
        <ele>585.4</ele>
        <time>2022-08-20T10:37:49Z</time>
      </trkpt>
      <trkpt lat="42.604754" lon="-6.795683">
        <ele>586.4</ele>
        <time>2022-08-20T10:38:04Z</time>
      </trkpt>
      <trkpt lat="42.604729" lon="-6.795934">
        <ele>586.3</ele>
        <time>2022-08-20T10:38:20Z</time>
      </trkpt>
      <trkpt lat="42.604705" lon="-6.796190">
        <ele>586.4</ele>
        <time>2022-08-20T10:38:35Z</time>
      </trkpt>
      <trkpt lat="42.604671" lon="-6.796441">
        <ele>586.3</ele>
        <time>2022-08-20T10:38:50Z</time>
      </trkpt>
      <trkpt lat="42.604582" lon="-6.796661">
        <ele>586.3</ele>
        <time>2022-08-20T10:39:05Z</time>
      </trkpt>
      <trkpt lat="42.604472" lon="-6.796874">
        <ele>586.3</ele>
        <time>2022-08-20T10:39:22Z</time>
      </trkpt>
      <trkpt lat="42.604387" lon="-6.797101">
        <ele>586.3</ele>
        <time>2022-08-20T10:39:38Z</time>
      </trkpt>
      <trkpt lat="42.604285" lon="-6.797324">
        <ele>567.7</ele>
        <time>2022-08-20T10:39:54Z</time>
      </trkpt>
      <trkpt lat="42.604213" lon="-6.797552">
        <ele>586.3</ele>
        <time>2022-08-20T10:40:09Z</time>
      </trkpt>
      <trkpt lat="42.604146" lon="-6.797780">
        <ele>586.3</ele>
        <time>2022-08-20T10:40:27Z</time>
      </trkpt>
      <trkpt lat="42.604034" lon="-6.797986">
        <ele>586.3</ele>
        <time>2022-08-20T10:40:52Z</time>
      </trkpt>
      <trkpt lat="42.603979" lon="-6.798233">
        <ele>586.3</ele>
        <time>2022-08-20T10:41:08Z</time>
      </trkpt>
      <trkpt lat="42.603939" lon="-6.798473">
        <ele>565.7</ele>
        <time>2022-08-20T10:41:25Z</time>
      </trkpt>
      <trkpt lat="42.603917" lon="-6.798717">
        <ele>564.0</ele>
        <time>2022-08-20T10:41:39Z</time>
      </trkpt>
      <trkpt lat="42.603931" lon="-6.798974">
        <ele>562.7</ele>
        <time>2022-08-20T10:41:54Z</time>
      </trkpt>
      <trkpt lat="42.603946" lon="-6.799232">
        <ele>564.7</ele>
        <time>2022-08-20T10:42:09Z</time>
      </trkpt>
      <trkpt lat="42.603974" lon="-6.799493">
        <ele>561.7</ele>
        <time>2022-08-20T10:42:25Z</time>
      </trkpt>
      <trkpt lat="42.604012" lon="-6.799751">
        <ele>557.7</ele>
        <time>2022-08-20T10:42:40Z</time>
      </trkpt>
      <trkpt lat="42.604019" lon="-6.800001">
        <ele>557.0</ele>
        <time>2022-08-20T10:42:57Z</time>
      </trkpt>
      <trkpt lat="42.604042" lon="-6.800253">
        <ele>556.8</ele>
        <time>2022-08-20T10:43:12Z</time>
      </trkpt>
      <trkpt lat="42.604077" lon="-6.800507">
        <ele>556.7</ele>
        <time>2022-08-20T10:43:28Z</time>
      </trkpt>
      <trkpt lat="42.604108" lon="-6.800748">
        <ele>556.4</ele>
        <time>2022-08-20T10:43:43Z</time>
      </trkpt>
      <trkpt lat="42.604174" lon="-6.800979">
        <ele>555.7</ele>
        <time>2022-08-20T10:43:58Z</time>
      </trkpt>
      <trkpt lat="42.604218" lon="-6.801218">
        <ele>550.0</ele>
        <time>2022-08-20T10:44:14Z</time>
      </trkpt>
      <trkpt lat="42.604282" lon="-6.801449">
        <ele>549.7</ele>
        <time>2022-08-20T10:44:29Z</time>
      </trkpt>
      <trkpt lat="42.604314" lon="-6.801704">
        <ele>550.7</ele>
        <time>2022-08-20T10:44:43Z</time>
      </trkpt>
      <trkpt lat="42.604366" lon="-6.801954">
        <ele>549.8</ele>
        <time>2022-08-20T10:44:58Z</time>
      </trkpt>
      <trkpt lat="42.604419" lon="-6.802195">
        <ele>551.7</ele>
        <time>2022-08-20T10:45:13Z</time>
      </trkpt>
      <trkpt lat="42.604483" lon="-6.802425">
        <ele>552.7</ele>
        <time>2022-08-20T10:45:28Z</time>
      </trkpt>
      <trkpt lat="42.604473" lon="-6.802671">
        <ele>550.0</ele>
        <time>2022-08-20T10:45:42Z</time>
      </trkpt>
      <trkpt lat="42.604480" lon="-6.802930">
        <ele>546.8</ele>
        <time>2022-08-20T10:45:59Z</time>
      </trkpt>
      <trkpt lat="42.604458" lon="-6.803179">
        <ele>547.4</ele>
        <time>2022-08-20T10:46:14Z</time>
      </trkpt>
      <trkpt lat="42.604457" lon="-6.803429">
        <ele>561.6</ele>
        <time>2022-08-20T10:46:31Z</time>
      </trkpt>
      <trkpt lat="42.604479" lon="-6.803680">
        <ele>561.6</ele>
        <time>2022-08-20T10:46:46Z</time>
      </trkpt>
      <trkpt lat="42.604495" lon="-6.803928">
        <ele>547.7</ele>
        <time>2022-08-20T10:47:00Z</time>
      </trkpt>
      <trkpt lat="42.604541" lon="-6.804175">
        <ele>546.7</ele>
        <time>2022-08-20T10:47:15Z</time>
      </trkpt>
      <trkpt lat="42.604524" lon="-6.804432">
        <ele>544.7</ele>
        <time>2022-08-20T10:47:29Z</time>
      </trkpt>
      <trkpt lat="42.604523" lon="-6.804689">
        <ele>543.7</ele>
        <time>2022-08-20T10:47:44Z</time>
      </trkpt>
      <trkpt lat="42.604555" lon="-6.804950">
        <ele>541.8</ele>
        <time>2022-08-20T10:48:00Z</time>
      </trkpt>
      <trkpt lat="42.604540" lon="-6.805205">
        <ele>541.7</ele>
        <time>2022-08-20T10:48:24Z</time>
      </trkpt>
      <trkpt lat="42.604532" lon="-6.805454">
        <ele>541.4</ele>
        <time>2022-08-20T10:48:38Z</time>
      </trkpt>
      <trkpt lat="42.604547" lon="-6.805712">
        <ele>542.7</ele>
        <time>2022-08-20T10:48:52Z</time>
      </trkpt>
      <trkpt lat="42.604515" lon="-6.805958">
        <ele>541.5</ele>
        <time>2022-08-20T10:49:06Z</time>
      </trkpt>
      <trkpt lat="42.604498" lon="-6.806202">
        <ele>540.0</ele>
        <time>2022-08-20T10:49:20Z</time>
      </trkpt>
      <trkpt lat="42.604468" lon="-6.806447">
        <ele>538.4</ele>
        <time>2022-08-20T10:49:36Z</time>
      </trkpt>
      <trkpt lat="42.604411" lon="-6.806688">
        <ele>535.1</ele>
        <time>2022-08-20T10:50:02Z</time>
      </trkpt>
      <trkpt lat="42.604388" lon="-6.806939">
        <ele>535.1</ele>
        <time>2022-08-20T10:50:22Z</time>
      </trkpt>
      <trkpt lat="42.604302" lon="-6.807174">
        <ele>535.1</ele>
        <time>2022-08-20T10:50:38Z</time>
      </trkpt>
      <trkpt lat="42.604222" lon="-6.807412">
        <ele>535.1</ele>
        <time>2022-08-20T10:50:59Z</time>
      </trkpt>
      <trkpt lat="42.604201" lon="-6.807675">
        <ele>542.2</ele>
        <time>2022-08-20T10:51:16Z</time>
      </trkpt>
      <trkpt lat="42.604167" lon="-6.807915">
        <ele>532.0</ele>
        <time>2022-08-20T10:51:47Z</time>
      </trkpt>
      <trkpt lat="42.604144" lon="-6.808158">
        <ele>534.8</ele>
        <time>2022-08-20T10:52:22Z</time>
      </trkpt>
      <trkpt lat="42.604165" lon="-6.808408">
        <ele>534.8</ele>
        <time>2022-08-20T10:52:44Z</time>
      </trkpt>
      <trkpt lat="42.604190" lon="-6.808667">
        <ele>531.5</ele>
        <time>2022-08-20T10:53:00Z</time>
      </trkpt>
      <trkpt lat="42.604217" lon="-6.808915">
        <ele>531.3</ele>
        <time>2022-08-20T10:53:13Z</time>
      </trkpt>
      <trkpt lat="42.604247" lon="-6.809160">
        <ele>512.3</ele>
        <time>2022-08-20T10:53:31Z</time>
      </trkpt>
      <trkpt lat="42.604311" lon="-6.809391">
        <ele>526.4</ele>
        <time>2022-08-20T10:54:10Z</time>
      </trkpt>
      <trkpt lat="42.604418" lon="-6.809593">
        <ele>526.4</ele>
        <time>2022-08-20T10:54:40Z</time>
      </trkpt>
      <trkpt lat="42.604514" lon="-6.809809">
        <ele>523.9</ele>
        <time>2022-08-20T10:54:58Z</time>
      </trkpt>
      <trkpt lat="42.604610" lon="-6.810017">
        <ele>510.5</ele>
        <time>2022-08-20T10:55:24Z</time>
      </trkpt>
      <trkpt lat="42.604790" lon="-6.810045">
        <ele>518.0</ele>
        <time>2022-08-20T10:55:39Z</time>
      </trkpt>
      <trkpt lat="42.604959" lon="-6.810135">
        <ele>517.9</ele>
        <time>2022-08-20T10:55:58Z</time>
      </trkpt>
      <trkpt lat="42.605114" lon="-6.810260">
        <ele>517.9</ele>
        <time>2022-08-20T10:56:23Z</time>
      </trkpt>
      <trkpt lat="42.605294" lon="-6.810322">
        <ele>513.6</ele>
        <time>2022-08-20T10:56:43Z</time>
      </trkpt>
      <trkpt lat="42.605440" lon="-6.810468">
        <ele>509.2</ele>
        <time>2022-08-20T10:57:27Z</time>
      </trkpt>
      <trkpt lat="42.605525" lon="-6.810685">
        <ele>510.3</ele>
        <time>2022-08-20T10:57:54Z</time>
      </trkpt>
      <trkpt lat="42.605689" lon="-6.810807">
        <ele>502.7</ele>
        <time>2022-08-20T10:58:17Z</time>
      </trkpt>
      <trkpt lat="42.605869" lon="-6.810861">
        <ele>501.0</ele>
        <time>2022-08-20T10:58:49Z</time>
      </trkpt>
      <trkpt lat="42.606062" lon="-6.810905">
        <ele>500.7</ele>
        <time>2022-08-20T10:59:10Z</time>
      </trkpt>
      <trkpt lat="42.606253" lon="-6.810905">
        <ele>500.7</ele>
        <time>2022-08-20T10:59:25Z</time>
      </trkpt>
      <trkpt lat="42.606437" lon="-6.810914">
        <ele>499.7</ele>
        <time>2022-08-20T10:59:41Z</time>
      </trkpt>
      <trkpt lat="42.606601" lon="-6.810890">
        <ele>499.7</ele>
        <time>2022-08-20T10:59:58Z</time>
      </trkpt>
      <trkpt lat="42.606781" lon="-6.810890">
        <ele>491.0</ele>
        <time>2022-08-20T11:00:15Z</time>
      </trkpt>
      <trkpt lat="42.606983" lon="-6.810923">
        <ele>498.4</ele>
        <time>2022-08-20T11:00:33Z</time>
      </trkpt>
      <trkpt lat="42.607158" lon="-6.810920">
        <ele>497.9</ele>
        <time>2022-08-20T11:00:54Z</time>
      </trkpt>
      <trkpt lat="42.607338" lon="-6.810932">
        <ele>497.9</ele>
        <time>2022-08-20T11:01:10Z</time>
      </trkpt>
      <trkpt lat="42.607538" lon="-6.810938">
        <ele>497.9</ele>
        <time>2022-08-20T11:01:26Z</time>
      </trkpt>
      <trkpt lat="42.607720" lon="-6.810941">
        <ele>498.1</ele>
        <time>2022-08-20T11:01:39Z</time>
      </trkpt>
      <trkpt lat="42.607897" lon="-6.810956">
        <ele>498.1</ele>
        <time>2022-08-20T11:01:45Z</time>
      </trkpt>
      <trkpt lat="42.608077" lon="-6.810958">
        <ele>498.0</ele>
        <time>2022-08-20T11:02:05Z</time>
      </trkpt>
      <trkpt lat="42.608261" lon="-6.810929">
        <ele>498.0</ele>
        <time>2022-08-20T11:02:20Z</time>
      </trkpt>
      <trkpt lat="42.608433" lon="-6.810902">
        <ele>498.5</ele>
        <time>2022-08-20T11:03:05Z</time>
        <cmt>0000051</cmt>
        <sym>C:\Program Files (x86)\CompeGPS\symbols\GARMIN.ZIP\WAYPOINT.bmp</sym>
      </trkpt>
      <trkpt lat="42.608596" lon="-6.810854">
        <ele>498.9</ele>
        <time>2022-08-21T03:44:36Z</time>
      </trkpt>
      <trkpt lat="42.608800" lon="-6.810750">
        <ele>499.0</ele>
        <time>2022-08-21T03:45:25Z</time>
      </trkpt>
      <trkpt lat="42.608877" lon="-6.810956">
        <ele>501.4</ele>
        <time>2022-08-21T03:45:31Z</time>
      </trkpt>
      <trkpt lat="42.608925" lon="-6.811202">
        <ele>501.9</ele>
        <time>2022-08-21T03:45:45Z</time>
      </trkpt>
      <trkpt lat="42.609042" lon="-6.811388">
        <ele>503.7</ele>
        <time>2022-08-21T03:46:25Z</time>
      </trkpt>
      <trkpt lat="42.609144" lon="-6.811590">
        <ele>503.3</ele>
        <time>2022-08-21T03:46:38Z</time>
      </trkpt>
      <trkpt lat="42.609255" lon="-6.811792">
        <ele>504.6</ele>
        <time>2022-08-21T03:46:56Z</time>
      </trkpt>
      <trkpt lat="42.609290" lon="-6.812028">
        <ele>504.6</ele>
        <time>2022-08-21T03:47:06Z</time>
      </trkpt>
      <trkpt lat="42.609349" lon="-6.812231">
        <ele>503.3</ele>
        <time>2022-08-21T03:48:46Z</time>
      </trkpt>
      <trkpt lat="42.609381" lon="-6.812536">
        <ele>503.4</ele>
        <time>2022-08-21T03:48:59Z</time>
      </trkpt>
      <trkpt lat="42.609468" lon="-6.812736">
        <ele>503.4</ele>
        <time>2022-08-21T03:49:09Z</time>
      </trkpt>
      <trkpt lat="42.609595" lon="-6.812935">
        <ele>499.2</ele>
        <time>2022-08-21T03:50:19Z</time>
      </trkpt>
      <trkpt lat="42.609666" lon="-6.813167">
        <ele>500.5</ele>
        <time>2022-08-21T03:50:31Z</time>
      </trkpt>
      <trkpt lat="42.609773" lon="-6.813361">
        <ele>499.9</ele>
        <time>2022-08-21T03:50:47Z</time>
      </trkpt>
      <trkpt lat="42.609929" lon="-6.813509">
        <ele>498.9</ele>
        <time>2022-08-21T03:51:03Z</time>
      </trkpt>
      <trkpt lat="42.610096" lon="-6.813626">
        <ele>498.8</ele>
        <time>2022-08-21T03:51:14Z</time>
      </trkpt>
      <trkpt lat="42.610276" lon="-6.813695">
        <ele>498.0</ele>
        <time>2022-08-21T03:51:31Z</time>
      </trkpt>
      <trkpt lat="42.610452" lon="-6.813768">
        <ele>498.0</ele>
        <time>2022-08-21T03:51:49Z</time>
      </trkpt>
      <trkpt lat="42.610634" lon="-6.813788">
        <ele>497.9</ele>
        <time>2022-08-21T03:52:01Z</time>
      </trkpt>
      <trkpt lat="42.610805" lon="-6.813885">
        <ele>497.9</ele>
        <time>2022-08-21T03:52:13Z</time>
      </trkpt>
      <trkpt lat="42.610973" lon="-6.813995">
        <ele>498.5</ele>
        <time>2022-08-21T03:52:25Z</time>
      </trkpt>
      <trkpt lat="42.611146" lon="-6.814069">
        <ele>498.5</ele>
        <time>2022-08-21T03:52:39Z</time>
      </trkpt>
      <trkpt lat="42.611316" lon="-6.814157">
        <ele>499.3</ele>
        <time>2022-08-21T03:52:53Z</time>
      </trkpt>
      <trkpt lat="42.611483" lon="-6.814258">
        <ele>499.2</ele>
        <time>2022-08-21T03:53:06Z</time>
      </trkpt>
      <trkpt lat="42.611640" lon="-6.814382">
        <ele>499.6</ele>
        <time>2022-08-21T03:53:19Z</time>
      </trkpt>
      <trkpt lat="42.611792" lon="-6.814529">
        <ele>500.3</ele>
        <time>2022-08-21T03:53:37Z</time>
      </trkpt>
      <trkpt lat="42.611933" lon="-6.814683">
        <ele>500.4</ele>
        <time>2022-08-21T03:53:53Z</time>
      </trkpt>
      <trkpt lat="42.612113" lon="-6.814753">
        <ele>500.4</ele>
        <time>2022-08-21T03:54:07Z</time>
      </trkpt>
      <trkpt lat="42.612275" lon="-6.814893">
        <ele>502.4</ele>
        <time>2022-08-21T03:54:20Z</time>
      </trkpt>
      <trkpt lat="42.612453" lon="-6.814959">
        <ele>502.4</ele>
        <time>2022-08-21T03:54:35Z</time>
      </trkpt>
      <trkpt lat="42.612627" lon="-6.815035">
        <ele>502.4</ele>
        <time>2022-08-21T03:54:46Z</time>
      </trkpt>
      <trkpt lat="42.612813" lon="-6.815081">
        <ele>502.4</ele>
        <time>2022-08-21T03:54:58Z</time>
      </trkpt>
      <trkpt lat="42.613002" lon="-6.815091">
        <ele>500.4</ele>
        <time>2022-08-21T03:56:21Z</time>
      </trkpt>
      <trkpt lat="42.613188" lon="-6.815042">
        <ele>500.4</ele>
        <time>2022-08-21T03:56:35Z</time>
      </trkpt>
      <trkpt lat="42.613371" lon="-6.815015">
        <ele>495.7</ele>
        <time>2022-08-21T03:56:48Z</time>
      </trkpt>
      <trkpt lat="42.613536" lon="-6.814908">
        <ele>497.0</ele>
        <time>2022-08-21T03:57:04Z</time>
      </trkpt>
      <trkpt lat="42.613709" lon="-6.814828">
        <ele>493.0</ele>
        <time>2022-08-21T03:57:19Z</time>
      </trkpt>
      <trkpt lat="42.613890" lon="-6.814839">
        <ele>492.7</ele>
        <time>2022-08-21T03:57:37Z</time>
      </trkpt>
      <trkpt lat="42.614058" lon="-6.814928">
        <ele>492.8</ele>
        <time>2022-08-21T03:57:50Z</time>
      </trkpt>
      <trkpt lat="42.614241" lon="-6.814954">
        <ele>490.7</ele>
        <time>2022-08-21T03:58:03Z</time>
      </trkpt>
      <trkpt lat="42.614423" lon="-6.815040">
        <ele>490.4</ele>
        <time>2022-08-21T03:58:17Z</time>
      </trkpt>
      <trkpt lat="42.614593" lon="-6.815136">
        <ele>492.6</ele>
        <time>2022-08-21T03:58:27Z</time>
      </trkpt>
      <trkpt lat="42.614752" lon="-6.815267">
        <ele>502.4</ele>
        <time>2022-08-21T03:59:13Z</time>
      </trkpt>
      <trkpt lat="42.614906" lon="-6.815419">
        <ele>505.6</ele>
        <time>2022-08-21T03:59:23Z</time>
      </trkpt>
      <trkpt lat="42.615050" lon="-6.815583">
        <ele>505.7</ele>
        <time>2022-08-21T03:59:38Z</time>
      </trkpt>
      <trkpt lat="42.615175" lon="-6.815776">
        <ele>506.7</ele>
        <time>2022-08-21T03:59:52Z</time>
      </trkpt>
      <trkpt lat="42.615254" lon="-6.816000">
        <ele>507.7</ele>
        <time>2022-08-21T04:00:05Z</time>
      </trkpt>
      <trkpt lat="42.615277" lon="-6.816248">
        <ele>507.7</ele>
        <time>2022-08-21T04:00:16Z</time>
      </trkpt>
      <trkpt lat="42.615315" lon="-6.816492">
        <ele>509.7</ele>
        <time>2022-08-21T04:00:28Z</time>
      </trkpt>
      <trkpt lat="42.615314" lon="-6.816737">
        <ele>511.7</ele>
        <time>2022-08-21T04:00:41Z</time>
      </trkpt>
      <trkpt lat="42.615252" lon="-6.816970">
        <ele>509.5</ele>
        <time>2022-08-21T04:00:56Z</time>
      </trkpt>
      <trkpt lat="42.615183" lon="-6.817204">
        <ele>508.7</ele>
        <time>2022-08-21T04:01:13Z</time>
      </trkpt>
      <trkpt lat="42.615145" lon="-6.817452">
        <ele>509.4</ele>
        <time>2022-08-21T04:01:27Z</time>
      </trkpt>
      <trkpt lat="42.615096" lon="-6.817695">
        <ele>509.7</ele>
        <time>2022-08-21T04:01:40Z</time>
      </trkpt>
      <trkpt lat="42.615019" lon="-6.817926">
        <ele>508.7</ele>
        <time>2022-08-21T04:02:05Z</time>
      </trkpt>
      <trkpt lat="42.614962" lon="-6.818173">
        <ele>508.7</ele>
        <time>2022-08-21T04:02:19Z</time>
      </trkpt>
      <trkpt lat="42.614903" lon="-6.818407">
        <ele>505.7</ele>
        <time>2022-08-21T04:02:34Z</time>
      </trkpt>
      <trkpt lat="42.614758" lon="-6.818584">
        <ele>501.7</ele>
        <time>2022-08-21T04:02:45Z</time>
      </trkpt>
      <trkpt lat="42.614606" lon="-6.818740">
        <ele>499.0</ele>
        <time>2022-08-21T04:02:58Z</time>
      </trkpt>
      <trkpt lat="42.614439" lon="-6.818855">
        <ele>496.7</ele>
        <time>2022-08-21T04:03:13Z</time>
      </trkpt>
      <trkpt lat="42.614256" lon="-6.818903">
        <ele>495.7</ele>
        <time>2022-08-21T04:03:26Z</time>
      </trkpt>
      <trkpt lat="42.614080" lon="-6.818961">
        <ele>496.6</ele>
        <time>2022-08-21T04:03:40Z</time>
      </trkpt>
      <trkpt lat="42.613893" lon="-6.818980">
        <ele>495.7</ele>
        <time>2022-08-21T04:03:52Z</time>
      </trkpt>
      <trkpt lat="42.613711" lon="-6.818933">
        <ele>498.7</ele>
        <time>2022-08-21T04:04:15Z</time>
      </trkpt>
      <trkpt lat="42.613530" lon="-6.818956">
        <ele>496.7</ele>
        <time>2022-08-21T04:04:29Z</time>
      </trkpt>
      <trkpt lat="42.613349" lon="-6.818923">
        <ele>496.7</ele>
        <time>2022-08-21T04:04:43Z</time>
      </trkpt>
      <trkpt lat="42.613158" lon="-6.818915">
        <ele>494.7</ele>
        <time>2022-08-21T04:04:58Z</time>
      </trkpt>
      <trkpt lat="42.612977" lon="-6.818900">
        <ele>497.7</ele>
        <time>2022-08-21T04:05:11Z</time>
      </trkpt>
      <trkpt lat="42.612800" lon="-6.818981">
        <ele>496.7</ele>
        <time>2022-08-21T04:05:25Z</time>
      </trkpt>
      <trkpt lat="42.612672" lon="-6.819172">
        <ele>494.8</ele>
        <time>2022-08-21T04:05:41Z</time>
      </trkpt>
      <trkpt lat="42.612548" lon="-6.819366">
        <ele>495.7</ele>
        <time>2022-08-21T04:05:57Z</time>
      </trkpt>
      <trkpt lat="42.612407" lon="-6.819524">
        <ele>496.7</ele>
        <time>2022-08-21T04:06:09Z</time>
      </trkpt>
      <trkpt lat="42.612256" lon="-6.819668">
        <ele>494.7</ele>
        <time>2022-08-21T04:06:22Z</time>
      </trkpt>
      <trkpt lat="42.612071" lon="-6.819735">
        <ele>491.7</ele>
        <time>2022-08-21T04:06:36Z</time>
      </trkpt>
      <trkpt lat="42.611886" lon="-6.819764">
        <ele>492.6</ele>
        <time>2022-08-21T04:06:51Z</time>
      </trkpt>
      <trkpt lat="42.611757" lon="-6.819943">
        <ele>492.7</ele>
        <time>2022-08-21T04:07:19Z</time>
      </trkpt>
      <trkpt lat="42.611698" lon="-6.820184">
        <ele>495.7</ele>
        <time>2022-08-21T04:07:39Z</time>
      </trkpt>
      <trkpt lat="42.611730" lon="-6.820430">
        <ele>500.4</ele>
        <time>2022-08-21T04:07:54Z</time>
      </trkpt>
      <trkpt lat="42.611839" lon="-6.820630">
        <ele>501.7</ele>
        <time>2022-08-21T04:08:12Z</time>
      </trkpt>
      <trkpt lat="42.612021" lon="-6.820663">
        <ele>502.7</ele>
        <time>2022-08-21T04:08:25Z</time>
      </trkpt>
      <trkpt lat="42.612187" lon="-6.820768">
        <ele>502.0</ele>
        <time>2022-08-21T04:08:46Z</time>
      </trkpt>
      <trkpt lat="42.612355" lon="-6.820862">
        <ele>498.0</ele>
        <time>2022-08-21T04:09:06Z</time>
      </trkpt>
      <trkpt lat="42.612517" lon="-6.820969">
        <ele>498.0</ele>
        <time>2022-08-21T04:09:18Z</time>
      </trkpt>
      <trkpt lat="42.612699" lon="-6.821073">
        <ele>498.7</ele>
        <time>2022-08-21T04:09:32Z</time>
      </trkpt>
      <trkpt lat="42.612870" lon="-6.821169">
        <ele>499.7</ele>
        <time>2022-08-21T04:09:47Z</time>
      </trkpt>
      <trkpt lat="42.613033" lon="-6.821297">
        <ele>500.7</ele>
        <time>2022-08-21T04:09:59Z</time>
      </trkpt>
      <trkpt lat="42.613219" lon="-6.821322">
        <ele>498.7</ele>
        <time>2022-08-21T04:10:14Z</time>
      </trkpt>
      <trkpt lat="42.613404" lon="-6.821297">
        <ele>500.7</ele>
        <time>2022-08-21T04:10:31Z</time>
      </trkpt>
      <trkpt lat="42.613567" lon="-6.821190">
        <ele>506.7</ele>
        <time>2022-08-21T04:10:45Z</time>
      </trkpt>
      <trkpt lat="42.613717" lon="-6.821044">
        <ele>504.7</ele>
        <time>2022-08-21T04:11:00Z</time>
      </trkpt>
      <trkpt lat="42.613879" lon="-6.820933">
        <ele>503.7</ele>
        <time>2022-08-21T04:11:13Z</time>
      </trkpt>
      <trkpt lat="42.614070" lon="-6.820901">
        <ele>501.7</ele>
        <time>2022-08-21T04:11:26Z</time>
      </trkpt>
      <trkpt lat="42.614251" lon="-6.820869">
        <ele>500.7</ele>
        <time>2022-08-21T04:11:39Z</time>
      </trkpt>
      <trkpt lat="42.614430" lon="-6.820920">
        <ele>500.7</ele>
        <time>2022-08-21T04:11:51Z</time>
      </trkpt>
      <trkpt lat="42.614596" lon="-6.821017">
        <ele>500.4</ele>
        <time>2022-08-21T04:12:02Z</time>
      </trkpt>
      <trkpt lat="42.614756" lon="-6.821150">
        <ele>498.7</ele>
        <time>2022-08-21T04:12:14Z</time>
      </trkpt>
      <trkpt lat="42.614908" lon="-6.821290">
        <ele>497.7</ele>
        <time>2022-08-21T04:12:25Z</time>
      </trkpt>
      <trkpt lat="42.615024" lon="-6.821477">
        <ele>497.6</ele>
        <time>2022-08-21T04:12:35Z</time>
      </trkpt>
      <trkpt lat="42.615120" lon="-6.821689">
        <ele>496.7</ele>
        <time>2022-08-21T04:12:49Z</time>
      </trkpt>
      <trkpt lat="42.615162" lon="-6.821930">
        <ele>497.7</ele>
        <time>2022-08-21T04:13:05Z</time>
      </trkpt>
      <trkpt lat="42.615166" lon="-6.822181">
        <ele>498.7</ele>
        <time>2022-08-21T04:13:18Z</time>
      </trkpt>
      <trkpt lat="42.615138" lon="-6.822631">
        <ele>516.3</ele>
        <time>2022-08-21T04:13:39Z</time>
      </trkpt>
      <trkpt lat="42.615007" lon="-6.822800">
        <ele>507.5</ele>
        <time>2022-08-21T04:13:49Z</time>
      </trkpt>
      <trkpt lat="42.614986" lon="-6.823044">
        <ele>507.8</ele>
        <time>2022-08-21T04:14:02Z</time>
      </trkpt>
      <trkpt lat="42.614949" lon="-6.823289">
        <ele>506.8</ele>
        <time>2022-08-21T04:14:16Z</time>
      </trkpt>
      <trkpt lat="42.614944" lon="-6.823544">
        <ele>508.7</ele>
        <time>2022-08-21T04:14:29Z</time>
      </trkpt>
      <trkpt lat="42.614961" lon="-6.823807">
        <ele>510.7</ele>
        <time>2022-08-21T04:14:43Z</time>
      </trkpt>
      <trkpt lat="42.615012" lon="-6.824055">
        <ele>509.7</ele>
        <time>2022-08-21T04:14:56Z</time>
      </trkpt>
      <trkpt lat="42.615096" lon="-6.824290">
        <ele>509.7</ele>
        <time>2022-08-21T04:15:12Z</time>
      </trkpt>
      <trkpt lat="42.615205" lon="-6.824485">
        <ele>509.7</ele>
        <time>2022-08-21T04:15:23Z</time>
      </trkpt>
      <trkpt lat="42.615323" lon="-6.824669">
        <ele>506.7</ele>
        <time>2022-08-21T04:15:38Z</time>
      </trkpt>
      <trkpt lat="42.615480" lon="-6.824803">
        <ele>506.7</ele>
        <time>2022-08-21T04:15:54Z</time>
      </trkpt>
      <trkpt lat="42.615652" lon="-6.824880">
        <ele>506.7</ele>
        <time>2022-08-21T04:16:05Z</time>
      </trkpt>
      <trkpt lat="42.615806" lon="-6.825018">
        <ele>503.7</ele>
        <time>2022-08-21T04:16:17Z</time>
      </trkpt>
      <trkpt lat="42.615956" lon="-6.825158">
        <ele>504.7</ele>
        <time>2022-08-21T04:16:32Z</time>
      </trkpt>
      <trkpt lat="42.616123" lon="-6.825277">
        <ele>505.7</ele>
        <time>2022-08-21T04:16:45Z</time>
      </trkpt>
      <trkpt lat="42.616288" lon="-6.825374">
        <ele>506.7</ele>
        <time>2022-08-21T04:16:57Z</time>
      </trkpt>
      <trkpt lat="42.616444" lon="-6.825523">
        <ele>503.7</ele>
        <time>2022-08-21T04:17:10Z</time>
      </trkpt>
      <trkpt lat="42.616593" lon="-6.825678">
        <ele>504.7</ele>
        <time>2022-08-21T04:17:23Z</time>
      </trkpt>
      <trkpt lat="42.616738" lon="-6.825826">
        <ele>504.0</ele>
        <time>2022-08-21T04:17:37Z</time>
      </trkpt>
      <trkpt lat="42.616868" lon="-6.826001">
        <ele>502.7</ele>
        <time>2022-08-21T04:17:51Z</time>
      </trkpt>
      <trkpt lat="42.617003" lon="-6.826190">
        <ele>502.7</ele>
        <time>2022-08-21T04:18:05Z</time>
      </trkpt>
      <trkpt lat="42.617033" lon="-6.826436">
        <ele>513.7</ele>
        <time>2022-08-21T04:19:23Z</time>
      </trkpt>
      <trkpt lat="42.617156" lon="-6.826629">
        <ele>512.8</ele>
        <time>2022-08-21T04:19:35Z</time>
      </trkpt>
      <trkpt lat="42.617285" lon="-6.826823">
        <ele>512.7</ele>
        <time>2022-08-21T04:19:53Z</time>
      </trkpt>
      <trkpt lat="42.617391" lon="-6.827022">
        <ele>510.8</ele>
        <time>2022-08-21T04:20:09Z</time>
      </trkpt>
      <trkpt lat="42.617477" lon="-6.827242">
        <ele>508.7</ele>
        <time>2022-08-21T04:20:23Z</time>
      </trkpt>
      <trkpt lat="42.617575" lon="-6.827447">
        <ele>508.7</ele>
        <time>2022-08-21T04:20:35Z</time>
      </trkpt>
      <trkpt lat="42.617671" lon="-6.827681">
        <ele>510.7</ele>
        <time>2022-08-21T04:20:50Z</time>
      </trkpt>
      <trkpt lat="42.617753" lon="-6.827900">
        <ele>511.6</ele>
        <time>2022-08-21T04:21:01Z</time>
      </trkpt>
      <trkpt lat="42.617813" lon="-6.828132">
        <ele>512.4</ele>
        <time>2022-08-21T04:21:15Z</time>
      </trkpt>
      <trkpt lat="42.617926" lon="-6.828343">
        <ele>512.7</ele>
        <time>2022-08-21T04:21:30Z</time>
      </trkpt>
      <trkpt lat="42.618007" lon="-6.828586">
        <ele>513.7</ele>
        <time>2022-08-21T04:21:42Z</time>
      </trkpt>
      <trkpt lat="42.618106" lon="-6.828792">
        <ele>514.7</ele>
        <time>2022-08-21T04:21:57Z</time>
      </trkpt>
      <trkpt lat="42.618197" lon="-6.829009">
        <ele>514.6</ele>
        <time>2022-08-21T04:22:07Z</time>
      </trkpt>
      <trkpt lat="42.618308" lon="-6.829210">
        <ele>513.7</ele>
        <time>2022-08-21T04:22:22Z</time>
      </trkpt>
      <trkpt lat="42.618447" lon="-6.829375">
        <ele>514.7</ele>
        <time>2022-08-21T04:22:36Z</time>
      </trkpt>
      <trkpt lat="42.618620" lon="-6.829459">
        <ele>512.0</ele>
        <time>2022-08-21T04:22:51Z</time>
      </trkpt>
      <trkpt lat="42.618799" lon="-6.829543">
        <ele>511.7</ele>
        <time>2022-08-21T04:23:02Z</time>
      </trkpt>
      <trkpt lat="42.618975" lon="-6.829636">
        <ele>513.7</ele>
        <time>2022-08-21T04:23:17Z</time>
      </trkpt>
      <trkpt lat="42.619144" lon="-6.829727">
        <ele>510.7</ele>
        <time>2022-08-21T04:23:33Z</time>
      </trkpt>
      <trkpt lat="42.619307" lon="-6.829831">
        <ele>508.7</ele>
        <time>2022-08-21T04:23:45Z</time>
      </trkpt>
      <trkpt lat="42.619485" lon="-6.829907">
        <ele>508.6</ele>
        <time>2022-08-21T04:23:59Z</time>
      </trkpt>
      <trkpt lat="42.619651" lon="-6.830053">
        <ele>507.6</ele>
        <time>2022-08-21T04:24:16Z</time>
      </trkpt>
      <trkpt lat="42.619817" lon="-6.830150">
        <ele>508.4</ele>
        <time>2022-08-21T04:24:31Z</time>
      </trkpt>
      <trkpt lat="42.619992" lon="-6.830245">
        <ele>507.7</ele>
        <time>2022-08-21T04:24:43Z</time>
      </trkpt>
      <trkpt lat="42.620177" lon="-6.830306">
        <ele>505.7</ele>
        <time>2022-08-21T04:25:00Z</time>
      </trkpt>
      <trkpt lat="42.620357" lon="-6.830368">
        <ele>506.6</ele>
        <time>2022-08-21T04:25:11Z</time>
      </trkpt>
      <trkpt lat="42.620540" lon="-6.830409">
        <ele>505.7</ele>
        <time>2022-08-21T04:25:25Z</time>
      </trkpt>
      <trkpt lat="42.620719" lon="-6.830437">
        <ele>507.7</ele>
        <time>2022-08-21T04:25:43Z</time>
      </trkpt>
      <trkpt lat="42.620895" lon="-6.830373">
        <ele>511.7</ele>
        <time>2022-08-21T04:25:59Z</time>
      </trkpt>
      <trkpt lat="42.621056" lon="-6.830255">
        <ele>513.6</ele>
        <time>2022-08-21T04:26:14Z</time>
      </trkpt>
      <trkpt lat="42.621232" lon="-6.830143">
        <ele>515.0</ele>
        <time>2022-08-21T04:26:29Z</time>
      </trkpt>
      <trkpt lat="42.621390" lon="-6.830009">
        <ele>516.7</ele>
        <time>2022-08-21T04:26:41Z</time>
      </trkpt>
      <trkpt lat="42.621540" lon="-6.829871">
        <ele>517.7</ele>
        <time>2022-08-21T04:26:53Z</time>
      </trkpt>
      <trkpt lat="42.621701" lon="-6.829742">
        <ele>515.7</ele>
        <time>2022-08-21T04:27:11Z</time>
      </trkpt>
      <trkpt lat="42.621856" lon="-6.829604">
        <ele>511.7</ele>
        <time>2022-08-21T04:27:25Z</time>
      </trkpt>
      <trkpt lat="42.622005" lon="-6.829465">
        <ele>511.7</ele>
        <time>2022-08-21T04:27:36Z</time>
      </trkpt>
      <trkpt lat="42.622176" lon="-6.829383">
        <ele>511.7</ele>
        <time>2022-08-21T04:27:47Z</time>
      </trkpt>
      <trkpt lat="42.622362" lon="-6.829378">
        <ele>510.7</ele>
        <time>2022-08-21T04:28:00Z</time>
      </trkpt>
      <trkpt lat="42.622544" lon="-6.829405">
        <ele>512.0</ele>
        <time>2022-08-21T04:28:11Z</time>
      </trkpt>
      <trkpt lat="42.622726" lon="-6.829471">
        <ele>509.7</ele>
        <time>2022-08-21T04:28:23Z</time>
      </trkpt>
      <trkpt lat="42.622882" lon="-6.829626">
        <ele>506.7</ele>
        <time>2022-08-21T04:28:37Z</time>
      </trkpt>
      <trkpt lat="42.623030" lon="-6.829770">
        <ele>507.7</ele>
        <time>2022-08-21T04:28:46Z</time>
      </trkpt>
      <trkpt lat="42.623178" lon="-6.829911">
        <ele>506.7</ele>
        <time>2022-08-21T04:28:56Z</time>
      </trkpt>
      <trkpt lat="42.623277" lon="-6.830116">
        <ele>502.1</ele>
        <time>2022-08-21T04:29:10Z</time>
      </trkpt>
      <trkpt lat="42.623348" lon="-6.830342">
        <ele>501.4</ele>
        <time>2022-08-21T04:29:22Z</time>
      </trkpt>
      <trkpt lat="42.623384" lon="-6.830589">
        <ele>498.0</ele>
        <time>2022-08-21T04:29:36Z</time>
      </trkpt>
      <trkpt lat="42.623406" lon="-6.830834">
        <ele>501.4</ele>
        <time>2022-08-21T04:29:48Z</time>
      </trkpt>
      <trkpt lat="42.623384" lon="-6.831085">
        <ele>503.6</ele>
        <time>2022-08-21T04:30:01Z</time>
      </trkpt>
      <trkpt lat="42.623389" lon="-6.831335">
        <ele>508.6</ele>
        <time>2022-08-21T04:30:14Z</time>
      </trkpt>
      <trkpt lat="42.623357" lon="-6.831577">
        <ele>510.4</ele>
        <time>2022-08-21T04:30:29Z</time>
      </trkpt>
      <trkpt lat="42.623318" lon="-6.831816">
        <ele>512.4</ele>
        <time>2022-08-21T04:30:40Z</time>
      </trkpt>
      <trkpt lat="42.623275" lon="-6.832060">
        <ele>515.6</ele>
        <time>2022-08-21T04:30:53Z</time>
      </trkpt>
      <trkpt lat="42.623246" lon="-6.832301">
        <ele>515.0</ele>
        <time>2022-08-21T04:31:05Z</time>
      </trkpt>
      <trkpt lat="42.623189" lon="-6.832540">
        <ele>513.7</ele>
        <time>2022-08-21T04:31:19Z</time>
      </trkpt>
      <trkpt lat="42.623113" lon="-6.832781">
        <ele>512.7</ele>
        <time>2022-08-21T04:31:33Z</time>
      </trkpt>
      <trkpt lat="42.623039" lon="-6.833008">
        <ele>511.0</ele>
        <time>2022-08-21T04:31:49Z</time>
      </trkpt>
      <trkpt lat="42.622957" lon="-6.833231">
        <ele>512.7</ele>
        <time>2022-08-21T04:32:02Z</time>
      </trkpt>
      <trkpt lat="42.622874" lon="-6.833462">
        <ele>514.0</ele>
        <time>2022-08-21T04:32:20Z</time>
      </trkpt>
      <trkpt lat="42.622749" lon="-6.833642">
        <ele>513.7</ele>
        <time>2022-08-21T04:32:33Z</time>
      </trkpt>
      <trkpt lat="42.622592" lon="-6.833772">
        <ele>512.7</ele>
        <time>2022-08-21T04:32:56Z</time>
      </trkpt>
      <trkpt lat="42.622452" lon="-6.833975">
        <ele>512.0</ele>
        <time>2022-08-21T04:33:09Z</time>
      </trkpt>
      <trkpt lat="42.622306" lon="-6.834148">
        <ele>513.4</ele>
        <time>2022-08-21T04:33:23Z</time>
      </trkpt>
      <trkpt lat="42.622149" lon="-6.834308">
        <ele>512.7</ele>
        <time>2022-08-21T04:33:35Z</time>
      </trkpt>
      <trkpt lat="42.622003" lon="-6.834479">
        <ele>514.4</ele>
        <time>2022-08-21T04:33:49Z</time>
      </trkpt>
      <trkpt lat="42.621848" lon="-6.834612">
        <ele>514.7</ele>
        <time>2022-08-21T04:34:03Z</time>
      </trkpt>
      <trkpt lat="42.621709" lon="-6.834774">
        <ele>517.7</ele>
        <time>2022-08-21T04:34:17Z</time>
      </trkpt>
      <trkpt lat="42.621558" lon="-6.834920">
        <ele>517.7</ele>
        <time>2022-08-21T04:34:31Z</time>
      </trkpt>
      <trkpt lat="42.621417" lon="-6.835092">
        <ele>517.6</ele>
        <time>2022-08-21T04:34:45Z</time>
      </trkpt>
      <trkpt lat="42.621263" lon="-6.835245">
        <ele>517.7</ele>
        <time>2022-08-21T04:34:59Z</time>
      </trkpt>
      <trkpt lat="42.621128" lon="-6.835411">
        <ele>518.9</ele>
        <time>2022-08-21T04:35:11Z</time>
      </trkpt>
      <trkpt lat="42.621035" lon="-6.835622">
        <ele>519.7</ele>
        <time>2022-08-21T04:35:26Z</time>
      </trkpt>
      <trkpt lat="42.620985" lon="-6.835872">
        <ele>519.6</ele>
        <time>2022-08-21T04:35:40Z</time>
      </trkpt>
      <trkpt lat="42.620963" lon="-6.836116">
        <ele>518.8</ele>
        <time>2022-08-21T04:35:53Z</time>
      </trkpt>
      <trkpt lat="42.621000" lon="-6.836362">
        <ele>517.6</ele>
        <time>2022-08-21T04:36:06Z</time>
      </trkpt>
      <trkpt lat="42.621055" lon="-6.836599">
        <ele>517.5</ele>
        <time>2022-08-21T04:36:19Z</time>
      </trkpt>
      <trkpt lat="42.621134" lon="-6.836843">
        <ele>518.4</ele>
        <time>2022-08-21T04:36:33Z</time>
      </trkpt>
      <trkpt lat="42.621257" lon="-6.837053">
        <ele>518.7</ele>
        <time>2022-08-21T04:36:51Z</time>
      </trkpt>
      <trkpt lat="42.621398" lon="-6.837226">
        <ele>520.7</ele>
        <time>2022-08-21T04:37:06Z</time>
      </trkpt>
      <trkpt lat="42.621573" lon="-6.837336">
        <ele>520.7</ele>
        <time>2022-08-21T04:37:19Z</time>
      </trkpt>
      <trkpt lat="42.621744" lon="-6.837438">
        <ele>518.7</ele>
        <time>2022-08-21T04:37:33Z</time>
      </trkpt>
      <trkpt lat="42.621897" lon="-6.837567">
        <ele>521.7</ele>
        <time>2022-08-21T04:37:48Z</time>
      </trkpt>
      <trkpt lat="42.622070" lon="-6.837658">
        <ele>521.7</ele>
        <time>2022-08-21T04:38:02Z</time>
      </trkpt>
      <trkpt lat="42.622230" lon="-6.837803">
        <ele>519.0</ele>
        <time>2022-08-21T04:38:17Z</time>
      </trkpt>
      <trkpt lat="42.622389" lon="-6.837925">
        <ele>517.7</ele>
        <time>2022-08-21T04:38:31Z</time>
      </trkpt>
      <trkpt lat="42.622645" lon="-6.838262">
        <ele>514.2</ele>
        <time>2022-08-21T04:38:48Z</time>
      </trkpt>
      <trkpt lat="42.622739" lon="-6.838483">
        <ele>523.7</ele>
        <time>2022-08-21T04:39:10Z</time>
      </trkpt>
      <trkpt lat="42.622852" lon="-6.838675">
        <ele>528.7</ele>
        <time>2022-08-21T04:39:21Z</time>
      </trkpt>
      <trkpt lat="42.623015" lon="-6.838782">
        <ele>525.7</ele>
        <time>2022-08-21T04:39:41Z</time>
      </trkpt>
      <trkpt lat="42.623181" lon="-6.838887">
        <ele>522.9</ele>
        <time>2022-08-21T04:39:54Z</time>
      </trkpt>
      <trkpt lat="42.623355" lon="-6.839001">
        <ele>524.0</ele>
        <time>2022-08-21T04:40:09Z</time>
      </trkpt>
      <trkpt lat="42.623534" lon="-6.839108">
        <ele>519.7</ele>
        <time>2022-08-21T04:40:25Z</time>
      </trkpt>
      <trkpt lat="42.623719" lon="-6.839180">
        <ele>518.5</ele>
        <time>2022-08-21T04:40:34Z</time>
      </trkpt>
      <trkpt lat="42.623880" lon="-6.839327">
        <ele>515.7</ele>
        <time>2022-08-21T04:40:48Z</time>
      </trkpt>
      <trkpt lat="42.624020" lon="-6.839489">
        <ele>514.7</ele>
        <time>2022-08-21T04:41:04Z</time>
      </trkpt>
      <trkpt lat="42.624096" lon="-6.839732">
        <ele>516.7</ele>
        <time>2022-08-21T04:41:17Z</time>
      </trkpt>
      <trkpt lat="42.624203" lon="-6.839950">
        <ele>518.7</ele>
        <time>2022-08-21T04:41:32Z</time>
      </trkpt>
      <trkpt lat="42.624295" lon="-6.840169">
        <ele>519.4</ele>
        <time>2022-08-21T04:41:45Z</time>
      </trkpt>
      <trkpt lat="42.624372" lon="-6.840394">
        <ele>520.7</ele>
        <time>2022-08-21T04:41:55Z</time>
      </trkpt>
      <trkpt lat="42.624460" lon="-6.840622">
        <ele>521.6</ele>
        <time>2022-08-21T04:42:13Z</time>
      </trkpt>
      <trkpt lat="42.624525" lon="-6.840853">
        <ele>522.1</ele>
        <time>2022-08-21T04:42:26Z</time>
      </trkpt>
      <trkpt lat="42.624626" lon="-6.841069">
        <ele>522.7</ele>
        <time>2022-08-21T04:42:39Z</time>
      </trkpt>
      <trkpt lat="42.624700" lon="-6.841302">
        <ele>525.6</ele>
        <time>2022-08-21T04:42:53Z</time>
      </trkpt>
      <trkpt lat="42.624821" lon="-6.841499">
        <ele>522.7</ele>
        <time>2022-08-21T04:43:09Z</time>
      </trkpt>
      <trkpt lat="42.624894" lon="-6.841726">
        <ele>523.7</ele>
        <time>2022-08-21T04:43:25Z</time>
      </trkpt>
      <trkpt lat="42.624986" lon="-6.841946">
        <ele>525.0</ele>
        <time>2022-08-21T04:43:36Z</time>
      </trkpt>
      <trkpt lat="42.625113" lon="-6.842140">
        <ele>524.7</ele>
        <time>2022-08-21T04:43:50Z</time>
      </trkpt>
      <trkpt lat="42.625218" lon="-6.842341">
        <ele>524.7</ele>
        <time>2022-08-21T04:44:03Z</time>
      </trkpt>
      <trkpt lat="42.625336" lon="-6.842527">
        <ele>525.7</ele>
        <time>2022-08-21T04:44:19Z</time>
      </trkpt>
      <trkpt lat="42.625393" lon="-6.842770">
        <ele>525.7</ele>
        <time>2022-08-21T04:44:32Z</time>
      </trkpt>
      <trkpt lat="42.625518" lon="-6.842954">
        <ele>527.0</ele>
        <time>2022-08-21T04:44:46Z</time>
      </trkpt>
      <trkpt lat="42.625644" lon="-6.843133">
        <ele>528.4</ele>
        <time>2022-08-21T04:45:00Z</time>
      </trkpt>
      <trkpt lat="42.625800" lon="-6.843274">
        <ele>529.7</ele>
        <time>2022-08-21T04:45:14Z</time>
      </trkpt>
      <trkpt lat="42.625933" lon="-6.843450">
        <ele>531.7</ele>
        <time>2022-08-21T04:45:26Z</time>
      </trkpt>
      <trkpt lat="42.626066" lon="-6.843640">
        <ele>533.7</ele>
        <time>2022-08-21T04:45:44Z</time>
      </trkpt>
      <trkpt lat="42.626169" lon="-6.843841">
        <ele>531.7</ele>
        <time>2022-08-21T04:45:59Z</time>
      </trkpt>
      <trkpt lat="42.626224" lon="-6.844083">
        <ele>529.6</ele>
        <time>2022-08-21T04:46:13Z</time>
      </trkpt>
      <trkpt lat="42.626214" lon="-6.844333">
        <ele>529.7</ele>
        <time>2022-08-21T04:46:30Z</time>
      </trkpt>
      <trkpt lat="42.626355" lon="-6.844485">
        <ele>524.4</ele>
        <time>2022-08-21T04:55:11Z</time>
      </trkpt>
      <trkpt lat="42.626453" lon="-6.844704">
        <ele>527.3</ele>
        <time>2022-08-21T04:55:30Z</time>
      </trkpt>
      <trkpt lat="42.626483" lon="-6.844948">
        <ele>526.7</ele>
        <time>2022-08-21T04:55:58Z</time>
      </trkpt>
      <trkpt lat="42.626470" lon="-6.845195">
        <ele>525.6</ele>
        <time>2022-08-21T04:56:11Z</time>
      </trkpt>
      <trkpt lat="42.626482" lon="-6.845452">
        <ele>528.0</ele>
        <time>2022-08-21T04:56:28Z</time>
      </trkpt>
      <trkpt lat="42.626534" lon="-6.845694">
        <ele>525.5</ele>
        <time>2022-08-21T04:56:48Z</time>
      </trkpt>
      <trkpt lat="42.626632" lon="-6.845901">
        <ele>520.7</ele>
        <time>2022-08-21T04:57:09Z</time>
      </trkpt>
      <trkpt lat="42.626724" lon="-6.846115">
        <ele>521.6</ele>
        <time>2022-08-21T04:57:19Z</time>
      </trkpt>
      <trkpt lat="42.626864" lon="-6.846271">
        <ele>517.7</ele>
        <time>2022-08-21T04:57:33Z</time>
      </trkpt>
      <trkpt lat="42.627039" lon="-6.846361">
        <ele>519.7</ele>
        <time>2022-08-21T04:57:49Z</time>
      </trkpt>
      <trkpt lat="42.627209" lon="-6.846464">
        <ele>517.0</ele>
        <time>2022-08-21T04:58:02Z</time>
      </trkpt>
      <trkpt lat="42.627398" lon="-6.846500">
        <ele>516.7</ele>
        <time>2022-08-21T04:58:14Z</time>
      </trkpt>
      <trkpt lat="42.627580" lon="-6.846514">
        <ele>517.7</ele>
        <time>2022-08-21T04:58:30Z</time>
      </trkpt>
      <trkpt lat="42.627761" lon="-6.846532">
        <ele>519.7</ele>
        <time>2022-08-21T04:58:47Z</time>
      </trkpt>
      <trkpt lat="42.627945" lon="-6.846592">
        <ele>519.8</ele>
        <time>2022-08-21T04:59:00Z</time>
      </trkpt>
      <trkpt lat="42.628135" lon="-6.846656">
        <ele>520.6</ele>
        <time>2022-08-21T04:59:11Z</time>
      </trkpt>
      <trkpt lat="42.628313" lon="-6.846694">
        <ele>520.6</ele>
        <time>2022-08-21T04:59:26Z</time>
      </trkpt>
      <trkpt lat="42.628488" lon="-6.846766">
        <ele>521.7</ele>
        <time>2022-08-21T04:59:40Z</time>
      </trkpt>
      <trkpt lat="42.628668" lon="-6.846872">
        <ele>521.7</ele>
        <time>2022-08-21T04:59:51Z</time>
      </trkpt>
      <trkpt lat="42.628840" lon="-6.846951">
        <ele>519.8</ele>
        <time>2022-08-21T05:00:04Z</time>
      </trkpt>
      <trkpt lat="42.629011" lon="-6.847076">
        <ele>520.0</ele>
        <time>2022-08-21T05:00:19Z</time>
      </trkpt>
      <trkpt lat="42.629185" lon="-6.847166">
        <ele>520.7</ele>
        <time>2022-08-21T05:00:31Z</time>
      </trkpt>
      <trkpt lat="42.629351" lon="-6.847278">
        <ele>518.8</ele>
        <time>2022-08-21T05:00:46Z</time>
      </trkpt>
      <trkpt lat="42.629507" lon="-6.847410">
        <ele>519.8</ele>
        <time>2022-08-21T05:00:57Z</time>
      </trkpt>
      <trkpt lat="42.629663" lon="-6.847553">
        <ele>520.6</ele>
        <time>2022-08-21T05:01:13Z</time>
      </trkpt>
      <trkpt lat="42.629806" lon="-6.847710">
        <ele>522.7</ele>
        <time>2022-08-21T05:01:28Z</time>
      </trkpt>
      <trkpt lat="42.629949" lon="-6.847873">
        <ele>525.6</ele>
        <time>2022-08-21T05:01:42Z</time>
      </trkpt>
      <trkpt lat="42.630105" lon="-6.848015">
        <ele>523.7</ele>
        <time>2022-08-21T05:01:58Z</time>
      </trkpt>
      <trkpt lat="42.630231" lon="-6.848208">
        <ele>526.4</ele>
        <time>2022-08-21T05:02:11Z</time>
      </trkpt>
      <trkpt lat="42.630375" lon="-6.848375">
        <ele>526.7</ele>
        <time>2022-08-21T05:02:22Z</time>
      </trkpt>
      <trkpt lat="42.630536" lon="-6.848521">
        <ele>528.4</ele>
        <time>2022-08-21T05:02:35Z</time>
      </trkpt>
      <trkpt lat="42.630657" lon="-6.848703">
        <ele>528.6</ele>
        <time>2022-08-21T05:02:51Z</time>
      </trkpt>
      <trkpt lat="42.630791" lon="-6.848888">
        <ele>526.6</ele>
        <time>2022-08-21T05:03:06Z</time>
      </trkpt>
      <trkpt lat="42.630953" lon="-6.849027">
        <ele>525.7</ele>
        <time>2022-08-21T05:03:20Z</time>
      </trkpt>
      <trkpt lat="42.631104" lon="-6.849172">
        <ele>525.7</ele>
        <time>2022-08-21T05:03:33Z</time>
      </trkpt>
      <trkpt lat="42.631234" lon="-6.849357">
        <ele>525.9</ele>
        <time>2022-08-21T05:03:44Z</time>
      </trkpt>
      <trkpt lat="42.631367" lon="-6.849536">
        <ele>528.4</ele>
        <time>2022-08-21T05:03:59Z</time>
      </trkpt>
      <trkpt lat="42.631506" lon="-6.849694">
        <ele>527.7</ele>
        <time>2022-08-21T05:04:13Z</time>
      </trkpt>
      <trkpt lat="42.631637" lon="-6.849874">
        <ele>526.7</ele>
        <time>2022-08-21T05:04:24Z</time>
      </trkpt>
      <trkpt lat="42.631778" lon="-6.850033">
        <ele>528.7</ele>
        <time>2022-08-21T05:04:39Z</time>
      </trkpt>
      <trkpt lat="42.631921" lon="-6.850193">
        <ele>527.7</ele>
        <time>2022-08-21T05:04:52Z</time>
      </trkpt>
      <trkpt lat="42.632065" lon="-6.850368">
        <ele>527.7</ele>
        <time>2022-08-21T05:05:06Z</time>
      </trkpt>
      <trkpt lat="42.632201" lon="-6.850541">
        <ele>529.6</ele>
        <time>2022-08-21T05:05:20Z</time>
      </trkpt>
      <trkpt lat="42.632332" lon="-6.850726">
        <ele>531.7</ele>
        <time>2022-08-21T05:05:32Z</time>
      </trkpt>
      <trkpt lat="42.632470" lon="-6.850891">
        <ele>534.7</ele>
        <time>2022-08-21T05:05:46Z</time>
      </trkpt>
      <trkpt lat="42.632610" lon="-6.851070">
        <ele>536.7</ele>
        <time>2022-08-21T05:05:59Z</time>
      </trkpt>
      <trkpt lat="42.632725" lon="-6.851269">
        <ele>539.7</ele>
        <time>2022-08-21T05:06:13Z</time>
      </trkpt>
      <trkpt lat="42.632884" lon="-6.851420">
        <ele>536.8</ele>
        <time>2022-08-21T05:06:28Z</time>
      </trkpt>
      <trkpt lat="42.633024" lon="-6.851590">
        <ele>535.0</ele>
        <time>2022-08-21T05:06:43Z</time>
      </trkpt>
      <trkpt lat="42.633123" lon="-6.851805">
        <ele>529.7</ele>
        <time>2022-08-21T05:06:58Z</time>
      </trkpt>
      <trkpt lat="42.633227" lon="-6.852015">
        <ele>527.0</ele>
        <time>2022-08-21T05:07:18Z</time>
      </trkpt>
      <trkpt lat="42.633410" lon="-6.852095">
        <ele>527.6</ele>
        <time>2022-08-21T05:07:31Z</time>
      </trkpt>
      <trkpt lat="42.633549" lon="-6.852254">
        <ele>528.7</ele>
        <time>2022-08-21T05:07:41Z</time>
      </trkpt>
      <trkpt lat="42.633692" lon="-6.852406">
        <ele>528.4</ele>
        <time>2022-08-21T05:07:55Z</time>
      </trkpt>
      <trkpt lat="42.633855" lon="-6.852508">
        <ele>529.7</ele>
        <time>2022-08-21T05:08:05Z</time>
      </trkpt>
      <trkpt lat="42.634035" lon="-6.852574">
        <ele>530.7</ele>
        <time>2022-08-21T05:08:18Z</time>
      </trkpt>
      <trkpt lat="42.634211" lon="-6.852640">
        <ele>527.7</ele>
        <time>2022-08-21T05:08:31Z</time>
      </trkpt>
      <trkpt lat="42.634383" lon="-6.852709">
        <ele>529.7</ele>
        <time>2022-08-21T05:08:47Z</time>
      </trkpt>
      <trkpt lat="42.634557" lon="-6.852775">
        <ele>528.0</ele>
        <time>2022-08-21T05:09:00Z</time>
      </trkpt>
      <trkpt lat="42.634738" lon="-6.852806">
        <ele>526.8</ele>
        <time>2022-08-21T05:09:11Z</time>
      </trkpt>
      <trkpt lat="42.634908" lon="-6.852897">
        <ele>527.7</ele>
        <time>2022-08-21T05:09:26Z</time>
      </trkpt>
      <trkpt lat="42.635073" lon="-6.852996">
        <ele>527.7</ele>
        <time>2022-08-21T05:09:37Z</time>
      </trkpt>
      <trkpt lat="42.635240" lon="-6.853109">
        <ele>527.4</ele>
        <time>2022-08-21T05:09:50Z</time>
      </trkpt>
      <trkpt lat="42.635388" lon="-6.853256">
        <ele>529.4</ele>
        <time>2022-08-21T05:10:06Z</time>
      </trkpt>
      <trkpt lat="42.635553" lon="-6.853369">
        <ele>532.7</ele>
        <time>2022-08-21T05:10:20Z</time>
      </trkpt>
      <trkpt lat="42.635718" lon="-6.853497">
        <ele>532.7</ele>
        <time>2022-08-21T05:10:32Z</time>
      </trkpt>
      <trkpt lat="42.635846" lon="-6.853669">
        <ele>535.0</ele>
        <time>2022-08-21T05:10:47Z</time>
      </trkpt>
      <trkpt lat="42.635992" lon="-6.853818">
        <ele>535.4</ele>
        <time>2022-08-21T05:10:58Z</time>
      </trkpt>
      <trkpt lat="42.636151" lon="-6.853948">
        <ele>537.4</ele>
        <time>2022-08-21T05:11:10Z</time>
      </trkpt>
      <trkpt lat="42.636298" lon="-6.854092">
        <ele>539.7</ele>
        <time>2022-08-21T05:11:27Z</time>
      </trkpt>
      <trkpt lat="42.636455" lon="-6.854215">
        <ele>538.7</ele>
        <time>2022-08-21T05:11:40Z</time>
      </trkpt>
      <trkpt lat="42.636618" lon="-6.854319">
        <ele>537.7</ele>
        <time>2022-08-21T05:11:56Z</time>
      </trkpt>
      <trkpt lat="42.636750" lon="-6.854487">
        <ele>538.7</ele>
        <time>2022-08-21T05:12:06Z</time>
      </trkpt>
      <trkpt lat="42.636896" lon="-6.854635">
        <ele>538.7</ele>
        <time>2022-08-21T05:12:21Z</time>
      </trkpt>
      <trkpt lat="42.637043" lon="-6.854781">
        <ele>538.0</ele>
        <time>2022-08-21T05:12:36Z</time>
      </trkpt>
      <trkpt lat="42.637199" lon="-6.854929">
        <ele>536.7</ele>
        <time>2022-08-21T05:12:49Z</time>
      </trkpt>
      <trkpt lat="42.637318" lon="-6.855114">
        <ele>536.7</ele>
        <time>2022-08-21T05:13:03Z</time>
      </trkpt>
      <trkpt lat="42.637429" lon="-6.855316">
        <ele>536.7</ele>
        <time>2022-08-21T05:13:16Z</time>
      </trkpt>
      <trkpt lat="42.637547" lon="-6.855503">
        <ele>536.7</ele>
        <time>2022-08-21T05:13:29Z</time>
      </trkpt>
      <trkpt lat="42.637695" lon="-6.855665">
        <ele>536.4</ele>
        <time>2022-08-21T05:13:43Z</time>
      </trkpt>
      <trkpt lat="42.637814" lon="-6.855853">
        <ele>536.4</ele>
        <time>2022-08-21T05:13:58Z</time>
      </trkpt>
      <trkpt lat="42.637936" lon="-6.856056">
        <ele>537.6</ele>
        <time>2022-08-21T05:14:13Z</time>
      </trkpt>
      <trkpt lat="42.638059" lon="-6.856257">
        <ele>538.0</ele>
        <time>2022-08-21T05:14:24Z</time>
      </trkpt>
      <trkpt lat="42.638175" lon="-6.856445">
        <ele>538.8</ele>
        <time>2022-08-21T05:14:36Z</time>
      </trkpt>
      <trkpt lat="42.638273" lon="-6.856661">
        <ele>539.7</ele>
        <time>2022-08-21T05:14:50Z</time>
      </trkpt>
      <trkpt lat="42.638357" lon="-6.856899">
        <ele>540.6</ele>
        <time>2022-08-21T05:15:06Z</time>
      </trkpt>
      <trkpt lat="42.638415" lon="-6.857142">
        <ele>541.7</ele>
        <time>2022-08-21T05:15:22Z</time>
      </trkpt>
      <trkpt lat="42.638477" lon="-6.857387">
        <ele>539.7</ele>
        <time>2022-08-21T05:15:35Z</time>
      </trkpt>
      <trkpt lat="42.638545" lon="-6.857622">
        <ele>541.6</ele>
        <time>2022-08-21T05:15:52Z</time>
      </trkpt>
      <trkpt lat="42.638596" lon="-6.857866">
        <ele>542.6</ele>
        <time>2022-08-21T05:16:07Z</time>
      </trkpt>
      <trkpt lat="42.638653" lon="-6.858102">
        <ele>540.7</ele>
        <time>2022-08-21T05:16:19Z</time>
      </trkpt>
      <trkpt lat="42.638692" lon="-6.858346">
        <ele>540.6</ele>
        <time>2022-08-21T05:16:31Z</time>
      </trkpt>
      <trkpt lat="42.638718" lon="-6.858598">
        <ele>538.7</ele>
        <time>2022-08-21T05:17:32Z</time>
      </trkpt>
      <trkpt lat="42.638747" lon="-6.858852">
        <ele>538.7</ele>
        <time>2022-08-21T05:17:43Z</time>
      </trkpt>
      <trkpt lat="42.638757" lon="-6.859101">
        <ele>541.7</ele>
        <time>2022-08-21T05:17:56Z</time>
      </trkpt>
      <trkpt lat="42.638797" lon="-6.859346">
        <ele>539.7</ele>
        <time>2022-08-21T05:18:13Z</time>
      </trkpt>
      <trkpt lat="42.638858" lon="-6.859598">
        <ele>538.8</ele>
        <time>2022-08-21T05:18:32Z</time>
      </trkpt>
      <trkpt lat="42.638900" lon="-6.859846">
        <ele>540.6</ele>
        <time>2022-08-21T05:18:48Z</time>
      </trkpt>
      <trkpt lat="42.638912" lon="-6.860104">
        <ele>542.7</ele>
        <time>2022-08-21T05:19:00Z</time>
      </trkpt>
      <trkpt lat="42.638875" lon="-6.860359">
        <ele>540.7</ele>
        <time>2022-08-21T05:19:14Z</time>
      </trkpt>
      <trkpt lat="42.638811" lon="-6.860602">
        <ele>539.6</ele>
        <time>2022-08-21T05:19:28Z</time>
      </trkpt>
      <trkpt lat="42.638765" lon="-6.860839">
        <ele>541.4</ele>
        <time>2022-08-21T05:19:40Z</time>
      </trkpt>
      <trkpt lat="42.638665" lon="-6.861044">
        <ele>542.0</ele>
        <time>2022-08-21T05:19:56Z</time>
      </trkpt>
      <trkpt lat="42.638537" lon="-6.861224">
        <ele>543.4</ele>
        <time>2022-08-21T05:20:10Z</time>
      </trkpt>
      <trkpt lat="42.638390" lon="-6.861383">
        <ele>547.3</ele>
        <time>2022-08-21T05:20:23Z</time>
      </trkpt>
      <trkpt lat="42.638253" lon="-6.861561">
        <ele>548.4</ele>
        <time>2022-08-21T05:20:37Z</time>
      </trkpt>
      <trkpt lat="42.638109" lon="-6.861712">
        <ele>550.7</ele>
        <time>2022-08-21T05:20:50Z</time>
      </trkpt>
      <trkpt lat="42.638022" lon="-6.861931">
        <ele>548.7</ele>
        <time>2022-08-21T05:21:00Z</time>
      </trkpt>
      <trkpt lat="42.637923" lon="-6.862138">
        <ele>547.7</ele>
        <time>2022-08-21T05:21:14Z</time>
      </trkpt>
      <trkpt lat="42.637880" lon="-6.862388">
        <ele>548.7</ele>
        <time>2022-08-21T05:21:28Z</time>
      </trkpt>
      <trkpt lat="42.637898" lon="-6.862638">
        <ele>547.7</ele>
        <time>2022-08-21T05:21:45Z</time>
      </trkpt>
      <trkpt lat="42.637917" lon="-6.862883">
        <ele>548.5</ele>
        <time>2022-08-21T05:21:58Z</time>
      </trkpt>
      <trkpt lat="42.637975" lon="-6.863137">
        <ele>553.6</ele>
        <time>2022-08-21T05:22:11Z</time>
      </trkpt>
      <trkpt lat="42.638062" lon="-6.863362">
        <ele>554.7</ele>
        <time>2022-08-21T05:22:25Z</time>
      </trkpt>
      <trkpt lat="42.638168" lon="-6.863574">
        <ele>553.7</ele>
        <time>2022-08-21T05:22:38Z</time>
      </trkpt>
      <trkpt lat="42.638271" lon="-6.863775">
        <ele>552.7</ele>
        <time>2022-08-21T05:22:52Z</time>
      </trkpt>
      <trkpt lat="42.638379" lon="-6.863980">
        <ele>552.0</ele>
        <time>2022-08-21T05:23:06Z</time>
      </trkpt>
      <trkpt lat="42.638506" lon="-6.864179">
        <ele>551.0</ele>
        <time>2022-08-21T05:23:20Z</time>
      </trkpt>
      <trkpt lat="42.638604" lon="-6.864392">
        <ele>550.0</ele>
        <time>2022-08-21T05:23:35Z</time>
      </trkpt>
      <trkpt lat="42.638709" lon="-6.864596">
        <ele>551.6</ele>
        <time>2022-08-21T05:23:49Z</time>
      </trkpt>
      <trkpt lat="42.638831" lon="-6.864795">
        <ele>552.7</ele>
        <time>2022-08-21T05:24:00Z</time>
      </trkpt>
      <trkpt lat="42.638947" lon="-6.864996">
        <ele>550.7</ele>
        <time>2022-08-21T05:24:15Z</time>
      </trkpt>
      <trkpt lat="42.639042" lon="-6.865210">
        <ele>550.0</ele>
        <time>2022-08-21T05:24:29Z</time>
      </trkpt>
      <trkpt lat="42.639155" lon="-6.865409">
        <ele>551.7</ele>
        <time>2022-08-21T05:24:43Z</time>
      </trkpt>
      <trkpt lat="42.639269" lon="-6.865615">
        <ele>549.7</ele>
        <time>2022-08-21T05:24:58Z</time>
      </trkpt>
      <trkpt lat="42.639349" lon="-6.865841">
        <ele>550.7</ele>
        <time>2022-08-21T05:25:10Z</time>
      </trkpt>
      <trkpt lat="42.639361" lon="-6.866091">
        <ele>550.7</ele>
        <time>2022-08-21T05:25:29Z</time>
      </trkpt>
      <trkpt lat="42.639520" lon="-6.866208">
        <ele>547.7</ele>
        <time>2022-08-21T05:26:28Z</time>
      </trkpt>
      <trkpt lat="42.639653" lon="-6.866396">
        <ele>545.4</ele>
        <time>2022-08-21T05:26:41Z</time>
      </trkpt>
      <trkpt lat="42.639732" lon="-6.866634">
        <ele>543.7</ele>
        <time>2022-08-21T05:26:56Z</time>
      </trkpt>
      <trkpt lat="42.639822" lon="-6.866848">
        <ele>566.2</ele>
        <time>2022-08-21T05:27:07Z</time>
      </trkpt>
      <trkpt lat="42.639936" lon="-6.867040">
        <ele>564.8</ele>
        <time>2022-08-21T05:27:14Z</time>
      </trkpt>
      <trkpt lat="42.640025" lon="-6.867256">
        <ele>541.1</ele>
        <time>2022-08-21T05:27:34Z</time>
      </trkpt>
      <trkpt lat="42.640230" lon="-6.867555">
        <ele>553.8</ele>
        <time>2022-08-21T05:27:50Z</time>
      </trkpt>
      <trkpt lat="42.640293" lon="-6.867791">
        <ele>553.8</ele>
        <time>2022-08-21T05:28:02Z</time>
      </trkpt>
      <trkpt lat="42.640477" lon="-6.867769">
        <ele>553.2</ele>
        <time>2022-08-21T05:28:21Z</time>
      </trkpt>
      <trkpt lat="42.640645" lon="-6.867860">
        <ele>553.2</ele>
        <time>2022-08-21T05:28:57Z</time>
      </trkpt>
      <trkpt lat="42.640819" lon="-6.867930">
        <ele>553.2</ele>
        <time>2022-08-21T05:29:11Z</time>
      </trkpt>
      <trkpt lat="42.640999" lon="-6.867885">
        <ele>553.2</ele>
        <time>2022-08-21T05:29:27Z</time>
      </trkpt>
      <trkpt lat="42.641183" lon="-6.867887">
        <ele>551.8</ele>
        <time>2022-08-21T05:29:40Z</time>
      </trkpt>
      <trkpt lat="42.641367" lon="-6.867907">
        <ele>549.7</ele>
        <time>2022-08-21T05:29:55Z</time>
      </trkpt>
      <trkpt lat="42.641548" lon="-6.867979">
        <ele>549.6</ele>
        <time>2022-08-21T05:30:08Z</time>
      </trkpt>
      <trkpt lat="42.641721" lon="-6.868068">
        <ele>550.0</ele>
        <time>2022-08-21T05:30:22Z</time>
      </trkpt>
      <trkpt lat="42.641881" lon="-6.868200">
        <ele>548.7</ele>
        <time>2022-08-21T05:30:37Z</time>
      </trkpt>
      <trkpt lat="42.642025" lon="-6.868364">
        <ele>544.0</ele>
        <time>2022-08-21T05:30:57Z</time>
      </trkpt>
      <trkpt lat="42.642180" lon="-6.868540">
        <ele>544.7</ele>
        <time>2022-08-21T05:31:10Z</time>
      </trkpt>
      <trkpt lat="42.642316" lon="-6.868712">
        <ele>541.7</ele>
        <time>2022-08-21T05:31:21Z</time>
      </trkpt>
      <trkpt lat="42.642467" lon="-6.868846">
        <ele>546.7</ele>
        <time>2022-08-21T05:31:32Z</time>
      </trkpt>
      <trkpt lat="42.642605" lon="-6.869029">
        <ele>547.0</ele>
        <time>2022-08-21T05:31:49Z</time>
      </trkpt>
      <trkpt lat="42.642749" lon="-6.869197">
        <ele>545.4</ele>
        <time>2022-08-21T05:32:04Z</time>
      </trkpt>
      <trkpt lat="42.642885" lon="-6.869367">
        <ele>547.7</ele>
        <time>2022-08-21T05:32:15Z</time>
      </trkpt>
      <trkpt lat="42.643018" lon="-6.869537">
        <ele>547.4</ele>
        <time>2022-08-21T05:32:30Z</time>
      </trkpt>
      <trkpt lat="42.643167" lon="-6.869706">
        <ele>548.4</ele>
        <time>2022-08-21T05:32:44Z</time>
      </trkpt>
      <trkpt lat="42.643315" lon="-6.869855">
        <ele>549.7</ele>
        <time>2022-08-21T05:32:57Z</time>
      </trkpt>
      <trkpt lat="42.643472" lon="-6.869985">
        <ele>553.0</ele>
        <time>2022-08-21T05:33:11Z</time>
      </trkpt>
      <trkpt lat="42.643613" lon="-6.870154">
        <ele>550.7</ele>
        <time>2022-08-21T05:33:25Z</time>
      </trkpt>
      <trkpt lat="42.643782" lon="-6.870293">
        <ele>550.7</ele>
        <time>2022-08-21T05:33:39Z</time>
      </trkpt>
      <trkpt lat="42.643920" lon="-6.870465">
        <ele>547.6</ele>
        <time>2022-08-21T05:33:55Z</time>
      </trkpt>
      <trkpt lat="42.644047" lon="-6.870648">
        <ele>549.4</ele>
        <time>2022-08-21T05:34:07Z</time>
      </trkpt>
      <trkpt lat="42.644188" lon="-6.870800">
        <ele>551.7</ele>
        <time>2022-08-21T05:34:20Z</time>
      </trkpt>
      <trkpt lat="42.644321" lon="-6.870970">
        <ele>553.7</ele>
        <time>2022-08-21T05:34:33Z</time>
      </trkpt>
      <trkpt lat="42.644470" lon="-6.871130">
        <ele>553.7</ele>
        <time>2022-08-21T05:34:47Z</time>
      </trkpt>
      <trkpt lat="42.644609" lon="-6.871293">
        <ele>556.6</ele>
        <time>2022-08-21T05:35:00Z</time>
      </trkpt>
      <trkpt lat="42.644783" lon="-6.871438">
        <ele>565.4</ele>
        <time>2022-08-21T05:35:11Z</time>
      </trkpt>
      <trkpt lat="42.644882" lon="-6.871648">
        <ele>560.1</ele>
        <time>2022-08-21T05:35:27Z</time>
      </trkpt>
      <trkpt lat="42.644974" lon="-6.871865">
        <ele>559.7</ele>
        <time>2022-08-21T05:35:41Z</time>
      </trkpt>
      <trkpt lat="42.645113" lon="-6.872023">
        <ele>558.0</ele>
        <time>2022-08-21T05:35:56Z</time>
      </trkpt>
      <trkpt lat="42.645285" lon="-6.872108">
        <ele>557.0</ele>
        <time>2022-08-21T05:36:10Z</time>
      </trkpt>
      <trkpt lat="42.645466" lon="-6.872187">
        <ele>558.6</ele>
        <time>2022-08-21T05:36:25Z</time>
      </trkpt>
      <trkpt lat="42.645651" lon="-6.872255">
        <ele>559.6</ele>
        <time>2022-08-21T05:36:39Z</time>
      </trkpt>
      <trkpt lat="42.645818" lon="-6.872372">
        <ele>557.7</ele>
        <time>2022-08-21T05:36:49Z</time>
      </trkpt>
      <trkpt lat="42.645986" lon="-6.872494">
        <ele>556.8</ele>
        <time>2022-08-21T05:37:07Z</time>
      </trkpt>
      <trkpt lat="42.646118" lon="-6.872670">
        <ele>555.7</ele>
        <time>2022-08-21T05:37:20Z</time>
      </trkpt>
      <trkpt lat="42.646222" lon="-6.872875">
        <ele>554.7</ele>
        <time>2022-08-21T05:37:37Z</time>
      </trkpt>
      <trkpt lat="42.646329" lon="-6.873085">
        <ele>556.0</ele>
        <time>2022-08-21T05:37:51Z</time>
      </trkpt>
      <trkpt lat="42.646440" lon="-6.873296">
        <ele>554.7</ele>
        <time>2022-08-21T05:38:05Z</time>
      </trkpt>
      <trkpt lat="42.646549" lon="-6.873514">
        <ele>557.7</ele>
        <time>2022-08-21T05:38:20Z</time>
      </trkpt>
      <trkpt lat="42.646653" lon="-6.873716">
        <ele>558.0</ele>
        <time>2022-08-21T05:38:32Z</time>
      </trkpt>
      <trkpt lat="42.646768" lon="-6.873908">
        <ele>560.7</ele>
        <time>2022-08-21T05:38:49Z</time>
      </trkpt>
      <trkpt lat="42.646851" lon="-6.874135">
        <ele>557.8</ele>
        <time>2022-08-21T05:39:01Z</time>
      </trkpt>
      <trkpt lat="42.646912" lon="-6.874372">
        <ele>558.4</ele>
        <time>2022-08-21T05:39:14Z</time>
      </trkpt>
      <trkpt lat="42.647005" lon="-6.874585">
        <ele>560.7</ele>
        <time>2022-08-21T05:39:27Z</time>
      </trkpt>
      <trkpt lat="42.647112" lon="-6.874783">
        <ele>558.1</ele>
        <time>2022-08-21T05:39:43Z</time>
      </trkpt>
      <trkpt lat="42.647219" lon="-6.874987">
        <ele>558.1</ele>
        <time>2022-08-21T05:39:58Z</time>
      </trkpt>
      <trkpt lat="42.647341" lon="-6.875172">
        <ele>558.1</ele>
        <time>2022-08-21T05:40:13Z</time>
      </trkpt>
      <trkpt lat="42.647469" lon="-6.875359">
        <ele>558.1</ele>
        <time>2022-08-21T05:40:27Z</time>
      </trkpt>
      <trkpt lat="42.647617" lon="-6.875519">
        <ele>558.1</ele>
        <time>2022-08-21T05:40:42Z</time>
      </trkpt>
      <trkpt lat="42.647745" lon="-6.875698">
        <ele>558.1</ele>
        <time>2022-08-21T05:40:53Z</time>
      </trkpt>
      <trkpt lat="42.647914" lon="-6.875783">
        <ele>558.2</ele>
        <time>2022-08-21T05:41:20Z</time>
      </trkpt>
      <trkpt lat="42.648057" lon="-6.875947">
        <ele>558.0</ele>
        <time>2022-08-21T05:52:57Z</time>
      </trkpt>
      <trkpt lat="42.648107" lon="-6.876202">
        <ele>558.0</ele>
        <time>2022-08-21T05:53:10Z</time>
      </trkpt>
      <trkpt lat="42.648125" lon="-6.876449">
        <ele>558.0</ele>
        <time>2022-08-21T05:53:24Z</time>
      </trkpt>
      <trkpt lat="42.648113" lon="-6.876700">
        <ele>561.0</ele>
        <time>2022-08-21T05:53:39Z</time>
      </trkpt>
      <trkpt lat="42.648079" lon="-6.876941">
        <ele>557.1</ele>
        <time>2022-08-21T05:53:52Z</time>
      </trkpt>
      <trkpt lat="42.648029" lon="-6.877176">
        <ele>557.1</ele>
        <time>2022-08-21T05:54:09Z</time>
      </trkpt>
      <trkpt lat="42.648033" lon="-6.877427">
        <ele>557.1</ele>
        <time>2022-08-21T05:54:26Z</time>
      </trkpt>
      <trkpt lat="42.648015" lon="-6.877672">
        <ele>557.1</ele>
        <time>2022-08-21T05:54:40Z</time>
      </trkpt>
      <trkpt lat="42.648098" lon="-6.877889">
        <ele>557.1</ele>
        <time>2022-08-21T05:54:53Z</time>
      </trkpt>
      <trkpt lat="42.648185" lon="-6.878124">
        <ele>563.1</ele>
        <time>2022-08-21T05:55:07Z</time>
      </trkpt>
      <trkpt lat="42.648313" lon="-6.878299">
        <ele>561.4</ele>
        <time>2022-08-21T05:55:21Z</time>
      </trkpt>
      <trkpt lat="42.648402" lon="-6.878518">
        <ele>561.4</ele>
        <time>2022-08-21T05:55:35Z</time>
      </trkpt>
      <trkpt lat="42.648497" lon="-6.878747">
        <ele>561.4</ele>
        <time>2022-08-21T05:55:51Z</time>
      </trkpt>
      <trkpt lat="42.648581" lon="-6.878973">
        <ele>562.7</ele>
        <time>2022-08-21T05:56:04Z</time>
      </trkpt>
      <trkpt lat="42.648682" lon="-6.879183">
        <ele>562.7</ele>
        <time>2022-08-21T05:56:18Z</time>
      </trkpt>
      <trkpt lat="42.648739" lon="-6.879434">
        <ele>562.7</ele>
        <time>2022-08-21T05:56:31Z</time>
      </trkpt>
      <trkpt lat="42.648845" lon="-6.879655">
        <ele>564.0</ele>
        <time>2022-08-21T05:56:47Z</time>
      </trkpt>
      <trkpt lat="42.648935" lon="-6.879872">
        <ele>568.0</ele>
        <time>2022-08-21T05:57:01Z</time>
      </trkpt>
      <trkpt lat="42.649070" lon="-6.880035">
        <ele>567.9</ele>
        <time>2022-08-21T05:57:13Z</time>
      </trkpt>
      <trkpt lat="42.649175" lon="-6.880244">
        <ele>567.9</ele>
        <time>2022-08-21T05:57:28Z</time>
      </trkpt>
      <trkpt lat="42.649270" lon="-6.880472">
        <ele>568.0</ele>
        <time>2022-08-21T05:57:52Z</time>
      </trkpt>
      <trkpt lat="42.649236" lon="-6.880725">
        <ele>569.0</ele>
        <time>2022-08-21T05:58:06Z</time>
      </trkpt>
      <trkpt lat="42.649270" lon="-6.880977">
        <ele>569.0</ele>
        <time>2022-08-21T05:58:21Z</time>
      </trkpt>
      <trkpt lat="42.649357" lon="-6.881200">
        <ele>568.0</ele>
        <time>2022-08-21T05:58:32Z</time>
      </trkpt>
      <trkpt lat="42.649405" lon="-6.881440">
        <ele>569.7</ele>
        <time>2022-08-21T05:58:46Z</time>
      </trkpt>
      <trkpt lat="42.649398" lon="-6.881687">
        <ele>567.9</ele>
        <time>2022-08-21T05:58:59Z</time>
      </trkpt>
      <trkpt lat="42.649413" lon="-6.881933">
        <ele>568.0</ele>
        <time>2022-08-21T05:59:13Z</time>
      </trkpt>
      <trkpt lat="42.649441" lon="-6.882192">
        <ele>567.5</ele>
        <time>2022-08-21T05:59:28Z</time>
      </trkpt>
      <trkpt lat="42.649470" lon="-6.882443">
        <ele>569.6</ele>
        <time>2022-08-21T05:59:46Z</time>
      </trkpt>
      <trkpt lat="42.649526" lon="-6.882676">
        <ele>570.9</ele>
        <time>2022-08-21T05:59:59Z</time>
      </trkpt>
      <trkpt lat="42.649542" lon="-6.882953">
        <ele>570.9</ele>
        <time>2022-08-21T06:00:11Z</time>
      </trkpt>
      <trkpt lat="42.649578" lon="-6.883197">
        <ele>570.9</ele>
        <time>2022-08-21T06:00:24Z</time>
      </trkpt>
      <trkpt lat="42.649634" lon="-6.883436">
        <ele>570.9</ele>
        <time>2022-08-21T06:00:41Z</time>
      </trkpt>
      <trkpt lat="42.649681" lon="-6.883672">
        <ele>570.9</ele>
        <time>2022-08-21T06:00:54Z</time>
      </trkpt>
      <trkpt lat="42.649741" lon="-6.883917">
        <ele>570.9</ele>
        <time>2022-08-21T06:01:06Z</time>
      </trkpt>
      <trkpt lat="42.649732" lon="-6.884183">
        <ele>577.1</ele>
        <time>2022-08-21T06:01:19Z</time>
      </trkpt>
      <trkpt lat="42.649781" lon="-6.884433">
        <ele>580.5</ele>
        <time>2022-08-21T06:01:33Z</time>
      </trkpt>
      <trkpt lat="42.649805" lon="-6.884691">
        <ele>580.5</ele>
        <time>2022-08-21T06:01:48Z</time>
      </trkpt>
      <trkpt lat="42.649858" lon="-6.884950">
        <ele>580.5</ele>
        <time>2022-08-21T06:02:03Z</time>
      </trkpt>
      <trkpt lat="42.649937" lon="-6.885179">
        <ele>580.5</ele>
        <time>2022-08-21T06:02:18Z</time>
      </trkpt>
      <trkpt lat="42.650049" lon="-6.885381">
        <ele>590.7</ele>
        <time>2022-08-21T06:02:32Z</time>
      </trkpt>
      <trkpt lat="42.650160" lon="-6.885577">
        <ele>585.3</ele>
        <time>2022-08-21T06:03:02Z</time>
      </trkpt>
      <trkpt lat="42.650251" lon="-6.885788">
        <ele>588.0</ele>
        <time>2022-08-21T06:03:17Z</time>
      </trkpt>
      <trkpt lat="42.650377" lon="-6.885988">
        <ele>589.0</ele>
        <time>2022-08-21T06:03:33Z</time>
      </trkpt>
      <trkpt lat="42.650415" lon="-6.886229">
        <ele>589.0</ele>
        <time>2022-08-21T06:03:43Z</time>
      </trkpt>
      <trkpt lat="42.650405" lon="-6.886476">
        <ele>589.5</ele>
        <time>2022-08-21T06:03:58Z</time>
      </trkpt>
      <trkpt lat="42.650426" lon="-6.886724">
        <ele>592.7</ele>
        <time>2022-08-21T06:04:09Z</time>
      </trkpt>
      <trkpt lat="42.650489" lon="-6.886959">
        <ele>589.7</ele>
        <time>2022-08-21T06:04:35Z</time>
      </trkpt>
      <trkpt lat="42.650567" lon="-6.887181">
        <ele>590.7</ele>
        <time>2022-08-21T06:04:49Z</time>
      </trkpt>
      <trkpt lat="42.650713" lon="-6.887334">
        <ele>590.8</ele>
        <time>2022-08-21T06:05:04Z</time>
      </trkpt>
      <trkpt lat="42.650881" lon="-6.887423">
        <ele>591.7</ele>
        <time>2022-08-21T06:05:16Z</time>
      </trkpt>
      <trkpt lat="42.651052" lon="-6.887540">
        <ele>592.7</ele>
        <time>2022-08-21T06:05:35Z</time>
      </trkpt>
      <trkpt lat="42.651216" lon="-6.887643">
        <ele>591.7</ele>
        <time>2022-08-21T06:05:51Z</time>
      </trkpt>
      <trkpt lat="42.651368" lon="-6.887779">
        <ele>590.7</ele>
        <time>2022-08-21T06:06:04Z</time>
      </trkpt>
      <trkpt lat="42.651502" lon="-6.887959">
        <ele>589.7</ele>
        <time>2022-08-21T06:06:19Z</time>
      </trkpt>
      <trkpt lat="42.651623" lon="-6.888141">
        <ele>589.7</ele>
        <time>2022-08-21T06:06:35Z</time>
      </trkpt>
      <trkpt lat="42.651758" lon="-6.888333">
        <ele>587.8</ele>
        <time>2022-08-21T06:06:49Z</time>
      </trkpt>
      <trkpt lat="42.651910" lon="-6.888467">
        <ele>584.8</ele>
        <time>2022-08-21T06:07:02Z</time>
      </trkpt>
      <trkpt lat="42.652072" lon="-6.888603">
        <ele>585.7</ele>
        <time>2022-08-21T06:07:20Z</time>
      </trkpt>
      <trkpt lat="42.652246" lon="-6.888686">
        <ele>586.7</ele>
        <time>2022-08-21T06:07:36Z</time>
      </trkpt>
      <trkpt lat="42.652404" lon="-6.888805">
        <ele>585.7</ele>
        <time>2022-08-21T06:07:46Z</time>
      </trkpt>
      <trkpt lat="42.652567" lon="-6.888943">
        <ele>583.0</ele>
        <time>2022-08-21T06:08:00Z</time>
      </trkpt>
      <trkpt lat="42.652716" lon="-6.889088">
        <ele>577.7</ele>
        <time>2022-08-21T06:08:19Z</time>
      </trkpt>
      <trkpt lat="42.652864" lon="-6.889238">
        <ele>578.7</ele>
        <time>2022-08-21T06:08:30Z</time>
      </trkpt>
      <trkpt lat="42.653049" lon="-6.889339">
        <ele>575.7</ele>
        <time>2022-08-21T06:08:46Z</time>
      </trkpt>
      <trkpt lat="42.653226" lon="-6.889442">
        <ele>576.6</ele>
        <time>2022-08-21T06:09:03Z</time>
      </trkpt>
      <trkpt lat="42.653407" lon="-6.889450">
        <ele>579.7</ele>
        <time>2022-08-21T06:09:19Z</time>
      </trkpt>
      <trkpt lat="42.653576" lon="-6.889364">
        <ele>581.6</ele>
        <time>2022-08-21T06:09:32Z</time>
      </trkpt>
      <trkpt lat="42.653700" lon="-6.889548">
        <ele>584.6</ele>
        <time>2022-08-21T06:10:24Z</time>
      </trkpt>
      <trkpt lat="42.653810" lon="-6.889746">
        <ele>582.7</ele>
        <time>2022-08-21T06:10:39Z</time>
      </trkpt>
      <trkpt lat="42.653898" lon="-6.889970">
        <ele>580.7</ele>
        <time>2022-08-21T06:10:54Z</time>
      </trkpt>
      <trkpt lat="42.654053" lon="-6.890098">
        <ele>580.7</ele>
        <time>2022-08-21T06:11:05Z</time>
      </trkpt>
      <trkpt lat="42.654199" lon="-6.890247">
        <ele>578.0</ele>
        <time>2022-08-21T06:11:18Z</time>
      </trkpt>
      <trkpt lat="42.654356" lon="-6.890392">
        <ele>575.7</ele>
        <time>2022-08-21T06:11:35Z</time>
      </trkpt>
      <trkpt lat="42.654483" lon="-6.890577">
        <ele>577.5</ele>
        <time>2022-08-21T06:11:49Z</time>
      </trkpt>
      <trkpt lat="42.654625" lon="-6.890748">
        <ele>580.4</ele>
        <time>2022-08-21T06:12:04Z</time>
      </trkpt>
      <trkpt lat="42.654739" lon="-6.890941">
        <ele>582.7</ele>
        <time>2022-08-21T06:12:16Z</time>
      </trkpt>
      <trkpt lat="42.654859" lon="-6.891144">
        <ele>582.7</ele>
        <time>2022-08-21T06:12:29Z</time>
      </trkpt>
      <trkpt lat="42.654955" lon="-6.891367">
        <ele>579.7</ele>
        <time>2022-08-21T06:12:40Z</time>
      </trkpt>
      <trkpt lat="42.655051" lon="-6.891577">
        <ele>581.7</ele>
        <time>2022-08-21T06:12:54Z</time>
      </trkpt>
      <trkpt lat="42.655139" lon="-6.891796">
        <ele>581.7</ele>
        <time>2022-08-21T06:13:09Z</time>
      </trkpt>
      <trkpt lat="42.655273" lon="-6.891987">
        <ele>583.7</ele>
        <time>2022-08-21T06:13:23Z</time>
      </trkpt>
      <trkpt lat="42.655437" lon="-6.892089">
        <ele>584.7</ele>
        <time>2022-08-21T06:13:35Z</time>
      </trkpt>
      <trkpt lat="42.655618" lon="-6.892200">
        <ele>584.6</ele>
        <time>2022-08-21T06:13:51Z</time>
      </trkpt>
      <trkpt lat="42.655792" lon="-6.892263">
        <ele>584.7</ele>
        <time>2022-08-21T06:14:03Z</time>
      </trkpt>
      <trkpt lat="42.655978" lon="-6.892331">
        <ele>582.7</ele>
        <time>2022-08-21T06:14:19Z</time>
      </trkpt>
      <trkpt lat="42.656155" lon="-6.892421">
        <ele>582.7</ele>
        <time>2022-08-21T06:14:32Z</time>
      </trkpt>
      <trkpt lat="42.656334" lon="-6.892457">
        <ele>580.7</ele>
        <time>2022-08-21T06:14:42Z</time>
      </trkpt>
      <trkpt lat="42.656508" lon="-6.892561">
        <ele>583.7</ele>
        <time>2022-08-21T06:14:56Z</time>
      </trkpt>
      <trkpt lat="42.656613" lon="-6.892768">
        <ele>583.7</ele>
        <time>2022-08-21T06:15:12Z</time>
      </trkpt>
      <trkpt lat="42.656677" lon="-6.892998">
        <ele>583.7</ele>
        <time>2022-08-21T06:15:25Z</time>
      </trkpt>
      <trkpt lat="42.656726" lon="-6.893233">
        <ele>581.7</ele>
        <time>2022-08-21T06:15:36Z</time>
      </trkpt>
      <trkpt lat="42.656787" lon="-6.893466">
        <ele>579.7</ele>
        <time>2022-08-21T06:15:50Z</time>
      </trkpt>
      <trkpt lat="42.656907" lon="-6.893663">
        <ele>578.8</ele>
        <time>2022-08-21T06:16:15Z</time>
      </trkpt>
      <trkpt lat="42.656969" lon="-6.893907">
        <ele>580.0</ele>
        <time>2022-08-21T06:16:28Z</time>
      </trkpt>
      <trkpt lat="42.657068" lon="-6.894116">
        <ele>579.7</ele>
        <time>2022-08-21T06:16:42Z</time>
      </trkpt>
      <trkpt lat="42.657088" lon="-6.894370">
        <ele>582.7</ele>
        <time>2022-08-21T06:17:12Z</time>
      </trkpt>
      <trkpt lat="42.656958" lon="-6.894554">
        <ele>582.7</ele>
        <time>2022-08-21T06:17:22Z</time>
      </trkpt>
      <trkpt lat="42.656855" lon="-6.894754">
        <ele>585.7</ele>
        <time>2022-08-21T06:17:34Z</time>
      </trkpt>
      <trkpt lat="42.656677" lon="-6.894871">
        <ele>587.6</ele>
        <time>2022-08-21T06:17:53Z</time>
      </trkpt>
      <trkpt lat="42.656493" lon="-6.894869">
        <ele>589.7</ele>
        <time>2022-08-21T06:18:07Z</time>
      </trkpt>
      <trkpt lat="42.656331" lon="-6.894987">
        <ele>587.7</ele>
        <time>2022-08-21T06:18:18Z</time>
      </trkpt>
      <trkpt lat="42.656206" lon="-6.895179">
        <ele>587.7</ele>
        <time>2022-08-21T06:18:31Z</time>
      </trkpt>
      <trkpt lat="42.656124" lon="-6.895400">
        <ele>589.5</ele>
        <time>2022-08-21T06:18:43Z</time>
      </trkpt>
      <trkpt lat="42.655953" lon="-6.895482">
        <ele>589.8</ele>
        <time>2022-08-21T06:18:59Z</time>
      </trkpt>
      <trkpt lat="42.655767" lon="-6.895451">
        <ele>586.7</ele>
        <time>2022-08-21T06:19:36Z</time>
      </trkpt>
      <trkpt lat="42.655621" lon="-6.895304">
        <ele>581.7</ele>
        <time>2022-08-21T06:19:48Z</time>
      </trkpt>
      <trkpt lat="42.655439" lon="-6.895377">
        <ele>577.7</ele>
        <time>2022-08-21T06:20:21Z</time>
      </trkpt>
      <trkpt lat="42.655340" lon="-6.895592">
        <ele>581.6</ele>
        <time>2022-08-21T06:20:36Z</time>
      </trkpt>
      <trkpt lat="42.655311" lon="-6.895848">
        <ele>585.6</ele>
        <time>2022-08-21T06:20:52Z</time>
      </trkpt>
      <trkpt lat="42.655263" lon="-6.896096">
        <ele>585.8</ele>
        <time>2022-08-21T06:21:05Z</time>
      </trkpt>
      <trkpt lat="42.655248" lon="-6.896346">
        <ele>586.4</ele>
        <time>2022-08-21T06:21:18Z</time>
      </trkpt>
      <trkpt lat="42.655158" lon="-6.896566">
        <ele>589.7</ele>
        <time>2022-08-21T06:21:35Z</time>
      </trkpt>
      <trkpt lat="42.655094" lon="-6.896800">
        <ele>591.0</ele>
        <time>2022-08-21T06:21:49Z</time>
      </trkpt>
      <trkpt lat="42.655047" lon="-6.897049">
        <ele>588.0</ele>
        <time>2022-08-21T06:22:02Z</time>
      </trkpt>
      <trkpt lat="42.654958" lon="-6.897270">
        <ele>590.0</ele>
        <time>2022-08-21T06:22:16Z</time>
      </trkpt>
      <trkpt lat="42.654900" lon="-6.897511">
        <ele>590.4</ele>
        <time>2022-08-21T06:22:30Z</time>
      </trkpt>
      <trkpt lat="42.654823" lon="-6.897746">
        <ele>587.7</ele>
        <time>2022-08-21T06:22:44Z</time>
      </trkpt>
      <trkpt lat="42.654730" lon="-6.897957">
        <ele>589.7</ele>
        <time>2022-08-21T06:22:55Z</time>
      </trkpt>
      <trkpt lat="42.654650" lon="-6.898188">
        <ele>587.7</ele>
        <time>2022-08-21T06:23:08Z</time>
      </trkpt>
      <trkpt lat="42.654589" lon="-6.898434">
        <ele>589.7</ele>
        <time>2022-08-21T06:23:22Z</time>
      </trkpt>
      <trkpt lat="42.654546" lon="-6.898681">
        <ele>589.7</ele>
        <time>2022-08-21T06:23:35Z</time>
      </trkpt>
      <trkpt lat="42.654496" lon="-6.898919">
        <ele>590.7</ele>
        <time>2022-08-21T06:23:49Z</time>
      </trkpt>
      <trkpt lat="42.654454" lon="-6.899175">
        <ele>589.7</ele>
        <time>2022-08-21T06:24:03Z</time>
      </trkpt>
      <trkpt lat="42.654466" lon="-6.899430">
        <ele>590.6</ele>
        <time>2022-08-21T06:24:18Z</time>
      </trkpt>
      <trkpt lat="42.654488" lon="-6.899678">
        <ele>595.5</ele>
        <time>2022-08-21T06:24:30Z</time>
      </trkpt>
      <trkpt lat="42.654483" lon="-6.899931">
        <ele>598.7</ele>
        <time>2022-08-21T06:24:47Z</time>
      </trkpt>
      <trkpt lat="42.654503" lon="-6.900192">
        <ele>601.6</ele>
        <time>2022-08-21T06:25:02Z</time>
      </trkpt>
      <trkpt lat="42.654544" lon="-6.900436">
        <ele>600.7</ele>
        <time>2022-08-21T06:25:15Z</time>
      </trkpt>
      <trkpt lat="42.654587" lon="-6.900676">
        <ele>598.1</ele>
        <time>2022-08-21T06:25:29Z</time>
      </trkpt>
      <trkpt lat="42.654652" lon="-6.900913">
        <ele>597.7</ele>
        <time>2022-08-21T06:25:43Z</time>
      </trkpt>
      <trkpt lat="42.654688" lon="-6.901156">
        <ele>596.7</ele>
        <time>2022-08-21T06:25:57Z</time>
      </trkpt>
      <trkpt lat="42.654760" lon="-6.901384">
        <ele>596.7</ele>
        <time>2022-08-21T06:26:09Z</time>
      </trkpt>
      <trkpt lat="42.654795" lon="-6.901630">
        <ele>596.7</ele>
        <time>2022-08-21T06:26:23Z</time>
      </trkpt>
      <trkpt lat="42.654848" lon="-6.901877">
        <ele>595.7</ele>
        <time>2022-08-21T06:26:36Z</time>
      </trkpt>
      <trkpt lat="42.654907" lon="-6.902127">
        <ele>595.7</ele>
        <time>2022-08-21T06:26:50Z</time>
      </trkpt>
      <trkpt lat="42.654979" lon="-6.902358">
        <ele>595.6</ele>
        <time>2022-08-21T06:27:04Z</time>
      </trkpt>
      <trkpt lat="42.655021" lon="-6.902601">
        <ele>596.7</ele>
        <time>2022-08-21T06:27:18Z</time>
      </trkpt>
      <trkpt lat="42.655064" lon="-6.902856">
        <ele>599.3</ele>
        <time>2022-08-21T06:27:33Z</time>
      </trkpt>
      <trkpt lat="42.655132" lon="-6.903102">
        <ele>597.0</ele>
        <time>2022-08-21T06:27:50Z</time>
      </trkpt>
      <trkpt lat="42.655179" lon="-6.903344">
        <ele>597.7</ele>
        <time>2022-08-21T06:28:04Z</time>
      </trkpt>
      <trkpt lat="42.655242" lon="-6.903577">
        <ele>597.7</ele>
        <time>2022-08-21T06:28:17Z</time>
      </trkpt>
      <trkpt lat="42.655288" lon="-6.903821">
        <ele>598.7</ele>
        <time>2022-08-21T06:28:28Z</time>
      </trkpt>
      <trkpt lat="42.655327" lon="-6.904064">
        <ele>598.7</ele>
        <time>2022-08-21T06:28:43Z</time>
      </trkpt>
      <trkpt lat="42.655386" lon="-6.904307">
        <ele>599.7</ele>
        <time>2022-08-21T06:29:00Z</time>
      </trkpt>
      <trkpt lat="42.655467" lon="-6.904533">
        <ele>600.9</ele>
        <time>2022-08-21T06:29:13Z</time>
      </trkpt>
      <trkpt lat="42.655547" lon="-6.904753">
        <ele>602.7</ele>
        <time>2022-08-21T06:29:26Z</time>
      </trkpt>
      <trkpt lat="42.655648" lon="-6.904978">
        <ele>601.7</ele>
        <time>2022-08-21T06:29:40Z</time>
      </trkpt>
      <trkpt lat="42.655771" lon="-6.905176">
        <ele>597.7</ele>
        <time>2022-08-21T06:29:57Z</time>
      </trkpt>
      <trkpt lat="42.655904" lon="-6.905373">
        <ele>593.7</ele>
        <time>2022-08-21T06:30:12Z</time>
      </trkpt>
      <trkpt lat="42.656040" lon="-6.905534">
        <ele>589.7</ele>
        <time>2022-08-21T06:30:27Z</time>
      </trkpt>
      <trkpt lat="42.656187" lon="-6.905696">
        <ele>590.7</ele>
        <time>2022-08-21T06:30:41Z</time>
      </trkpt>
      <trkpt lat="42.656341" lon="-6.905849">
        <ele>591.8</ele>
        <time>2022-08-21T06:30:54Z</time>
      </trkpt>
      <trkpt lat="42.656474" lon="-6.906022">
        <ele>592.7</ele>
        <time>2022-08-21T06:31:07Z</time>
      </trkpt>
      <trkpt lat="42.656557" lon="-6.906263">
        <ele>594.6</ele>
        <time>2022-08-21T06:31:22Z</time>
      </trkpt>
      <trkpt lat="42.656644" lon="-6.906486">
        <ele>597.7</ele>
        <time>2022-08-21T06:31:35Z</time>
      </trkpt>
      <trkpt lat="42.656723" lon="-6.906719">
        <ele>596.7</ele>
        <time>2022-08-21T06:31:52Z</time>
      </trkpt>
      <trkpt lat="42.656767" lon="-6.906960">
        <ele>597.7</ele>
        <time>2022-08-21T06:32:05Z</time>
      </trkpt>
      <trkpt lat="42.656829" lon="-6.907201">
        <ele>598.7</ele>
        <time>2022-08-21T06:32:19Z</time>
      </trkpt>
      <trkpt lat="42.656891" lon="-6.907440">
        <ele>599.7</ele>
        <time>2022-08-21T06:32:32Z</time>
      </trkpt>
      <trkpt lat="42.656959" lon="-6.907673">
        <ele>599.7</ele>
        <time>2022-08-21T06:32:46Z</time>
      </trkpt>
      <trkpt lat="42.657043" lon="-6.907907">
        <ele>599.7</ele>
        <time>2022-08-21T06:33:00Z</time>
      </trkpt>
      <trkpt lat="42.657152" lon="-6.908120">
        <ele>599.7</ele>
        <time>2022-08-21T06:33:14Z</time>
      </trkpt>
      <trkpt lat="42.657279" lon="-6.908319">
        <ele>597.8</ele>
        <time>2022-08-21T06:33:30Z</time>
      </trkpt>
      <trkpt lat="42.657425" lon="-6.908465">
        <ele>596.7</ele>
        <time>2022-08-21T06:33:46Z</time>
      </trkpt>
      <trkpt lat="42.657594" lon="-6.908561">
        <ele>597.4</ele>
        <time>2022-08-21T06:33:58Z</time>
      </trkpt>
      <trkpt lat="42.657755" lon="-6.908676">
        <ele>596.8</ele>
        <time>2022-08-21T06:34:10Z</time>
      </trkpt>
      <trkpt lat="42.657927" lon="-6.908779">
        <ele>593.0</ele>
        <time>2022-08-21T06:34:25Z</time>
      </trkpt>
      <trkpt lat="42.658101" lon="-6.908860">
        <ele>591.0</ele>
        <time>2022-08-21T06:34:38Z</time>
      </trkpt>
      <trkpt lat="42.658259" lon="-6.908995">
        <ele>590.7</ele>
        <time>2022-08-21T06:34:53Z</time>
      </trkpt>
      <trkpt lat="42.658411" lon="-6.909153">
        <ele>590.0</ele>
        <time>2022-08-21T06:35:09Z</time>
      </trkpt>
      <trkpt lat="42.658526" lon="-6.909346">
        <ele>588.7</ele>
        <time>2022-08-21T06:35:22Z</time>
      </trkpt>
      <trkpt lat="42.658637" lon="-6.909555">
        <ele>588.7</ele>
        <time>2022-08-21T06:35:37Z</time>
      </trkpt>
      <trkpt lat="42.658720" lon="-6.909783">
        <ele>587.7</ele>
        <time>2022-08-21T06:35:49Z</time>
      </trkpt>
      <trkpt lat="42.658784" lon="-6.910025">
        <ele>588.7</ele>
        <time>2022-08-21T06:36:04Z</time>
      </trkpt>
      <trkpt lat="42.658789" lon="-6.910288">
        <ele>590.7</ele>
        <time>2022-08-21T06:36:18Z</time>
      </trkpt>
      <trkpt lat="42.658762" lon="-6.910550">
        <ele>592.6</ele>
        <time>2022-08-21T06:36:32Z</time>
      </trkpt>
      <trkpt lat="42.658722" lon="-6.910798">
        <ele>594.7</ele>
        <time>2022-08-21T06:36:47Z</time>
      </trkpt>
      <trkpt lat="42.658649" lon="-6.911023">
        <ele>596.7</ele>
        <time>2022-08-21T06:37:00Z</time>
      </trkpt>
      <trkpt lat="42.658528" lon="-6.911204">
        <ele>597.7</ele>
        <time>2022-08-21T06:37:13Z</time>
      </trkpt>
      <trkpt lat="42.658401" lon="-6.911380">
        <ele>599.7</ele>
        <time>2022-08-21T06:37:24Z</time>
      </trkpt>
      <trkpt lat="42.658259" lon="-6.911563">
        <ele>597.7</ele>
        <time>2022-08-21T06:37:42Z</time>
      </trkpt>
      <trkpt lat="42.658094" lon="-6.911697">
        <ele>597.5</ele>
        <time>2022-08-21T06:37:56Z</time>
      </trkpt>
      <trkpt lat="42.657929" lon="-6.911825">
        <ele>598.7</ele>
        <time>2022-08-21T06:38:12Z</time>
      </trkpt>
      <trkpt lat="42.657776" lon="-6.911986">
        <ele>598.7</ele>
        <time>2022-08-21T06:38:30Z</time>
      </trkpt>
      <trkpt lat="42.657693" lon="-6.912228">
        <ele>601.6</ele>
        <time>2022-08-21T06:38:43Z</time>
      </trkpt>
      <trkpt lat="42.657616" lon="-6.912459">
        <ele>603.7</ele>
        <time>2022-08-21T06:38:57Z</time>
      </trkpt>
      <trkpt lat="42.657564" lon="-6.912717">
        <ele>602.7</ele>
        <time>2022-08-21T06:39:11Z</time>
      </trkpt>
      <trkpt lat="42.657543" lon="-6.912971">
        <ele>603.5</ele>
        <time>2022-08-21T06:39:25Z</time>
      </trkpt>
      <trkpt lat="42.657579" lon="-6.913222">
        <ele>601.7</ele>
        <time>2022-08-21T06:39:39Z</time>
      </trkpt>
      <trkpt lat="42.657642" lon="-6.913454">
        <ele>601.7</ele>
        <time>2022-08-21T06:39:52Z</time>
      </trkpt>
      <trkpt lat="42.657736" lon="-6.913681">
        <ele>600.7</ele>
        <time>2022-08-21T06:40:06Z</time>
      </trkpt>
      <trkpt lat="42.657872" lon="-6.913859">
        <ele>601.0</ele>
        <time>2022-08-21T06:40:19Z</time>
      </trkpt>
      <trkpt lat="42.658023" lon="-6.913996">
        <ele>603.4</ele>
        <time>2022-08-21T06:40:38Z</time>
      </trkpt>
      <trkpt lat="42.658174" lon="-6.914132">
        <ele>601.8</ele>
        <time>2022-08-21T06:40:50Z</time>
      </trkpt>
      <trkpt lat="42.658339" lon="-6.914248">
        <ele>599.8</ele>
        <time>2022-08-21T06:41:00Z</time>
      </trkpt>
      <trkpt lat="42.658498" lon="-6.914393">
        <ele>597.7</ele>
        <time>2022-08-21T06:41:16Z</time>
      </trkpt>
      <trkpt lat="42.658647" lon="-6.914545">
        <ele>595.8</ele>
        <time>2022-08-21T06:41:28Z</time>
      </trkpt>
      <trkpt lat="42.658800" lon="-6.914694">
        <ele>595.7</ele>
        <time>2022-08-21T06:41:45Z</time>
      </trkpt>
      <trkpt lat="42.658947" lon="-6.914846">
        <ele>595.7</ele>
        <time>2022-08-21T06:41:56Z</time>
      </trkpt>
      <trkpt lat="42.659084" lon="-6.915016">
        <ele>596.7</ele>
        <time>2022-08-21T06:42:12Z</time>
      </trkpt>
      <trkpt lat="42.659188" lon="-6.915225">
        <ele>596.9</ele>
        <time>2022-08-21T06:42:26Z</time>
      </trkpt>
      <trkpt lat="42.659313" lon="-6.915424">
        <ele>600.4</ele>
        <time>2022-08-21T06:42:43Z</time>
      </trkpt>
      <trkpt lat="42.659398" lon="-6.915650">
        <ele>599.7</ele>
        <time>2022-08-21T06:43:00Z</time>
      </trkpt>
      <trkpt lat="42.659430" lon="-6.915891">
        <ele>598.7</ele>
        <time>2022-08-21T06:43:15Z</time>
      </trkpt>
      <trkpt lat="42.659585" lon="-6.916019">
        <ele>597.7</ele>
        <time>2022-08-21T06:43:27Z</time>
      </trkpt>
      <trkpt lat="42.659718" lon="-6.916190">
        <ele>598.7</ele>
        <time>2022-08-21T06:43:40Z</time>
      </trkpt>
      <trkpt lat="42.659855" lon="-6.916361">
        <ele>597.7</ele>
        <time>2022-08-21T06:43:51Z</time>
      </trkpt>
      <trkpt lat="42.659961" lon="-6.916575">
        <ele>599.7</ele>
        <time>2022-08-21T06:44:06Z</time>
      </trkpt>
      <trkpt lat="42.660022" lon="-6.916813">
        <ele>601.7</ele>
        <time>2022-08-21T06:44:20Z</time>
      </trkpt>
      <trkpt lat="42.660081" lon="-6.917061">
        <ele>601.7</ele>
        <time>2022-08-21T06:44:38Z</time>
      </trkpt>
      <trkpt lat="42.660150" lon="-6.917292">
        <ele>601.7</ele>
        <time>2022-08-21T06:44:48Z</time>
      </trkpt>
      <trkpt lat="42.660192" lon="-6.917530">
        <ele>600.7</ele>
        <time>2022-08-21T06:45:24Z</time>
      </trkpt>
      <trkpt lat="42.660169" lon="-6.917778">
        <ele>601.7</ele>
        <time>2022-08-21T06:45:38Z</time>
      </trkpt>
      <trkpt lat="42.660140" lon="-6.918040">
        <ele>602.7</ele>
        <time>2022-08-21T06:46:38Z</time>
      </trkpt>
      <trkpt lat="42.660116" lon="-6.918287">
        <ele>601.4</ele>
        <time>2022-08-21T06:46:50Z</time>
      </trkpt>
      <trkpt lat="42.660090" lon="-6.918554">
        <ele>603.7</ele>
        <time>2022-08-21T06:47:05Z</time>
      </trkpt>
      <trkpt lat="42.660081" lon="-6.918805">
        <ele>605.7</ele>
        <time>2022-08-21T06:47:21Z</time>
      </trkpt>
      <trkpt lat="42.660083" lon="-6.919062">
        <ele>604.8</ele>
        <time>2022-08-21T06:47:36Z</time>
      </trkpt>
      <trkpt lat="42.660071" lon="-6.919318">
        <ele>602.7</ele>
        <time>2022-08-21T06:47:49Z</time>
      </trkpt>
      <trkpt lat="42.660036" lon="-6.919575">
        <ele>604.0</ele>
        <time>2022-08-21T06:48:03Z</time>
      </trkpt>
      <trkpt lat="42.659993" lon="-6.919829">
        <ele>604.7</ele>
        <time>2022-08-21T06:48:15Z</time>
      </trkpt>
      <trkpt lat="42.659979" lon="-6.920084">
        <ele>605.7</ele>
        <time>2022-08-21T06:48:31Z</time>
      </trkpt>
      <trkpt lat="42.659964" lon="-6.920341">
        <ele>605.7</ele>
        <time>2022-08-21T06:48:43Z</time>
      </trkpt>
      <trkpt lat="42.659971" lon="-6.920591">
        <ele>608.4</ele>
        <time>2022-08-21T06:48:57Z</time>
      </trkpt>
      <trkpt lat="42.659989" lon="-6.920844">
        <ele>608.7</ele>
        <time>2022-08-21T06:49:13Z</time>
      </trkpt>
      <trkpt lat="42.660009" lon="-6.921101">
        <ele>605.8</ele>
        <time>2022-08-21T06:49:27Z</time>
      </trkpt>
      <trkpt lat="42.660036" lon="-6.921344">
        <ele>604.0</ele>
        <time>2022-08-21T06:49:37Z</time>
      </trkpt>
      <trkpt lat="42.660135" lon="-6.921562">
        <ele>600.7</ele>
        <time>2022-08-21T06:49:51Z</time>
      </trkpt>
      <trkpt lat="42.660242" lon="-6.921771">
        <ele>601.6</ele>
        <time>2022-08-21T06:50:06Z</time>
      </trkpt>
      <trkpt lat="42.660340" lon="-6.921988">
        <ele>601.7</ele>
        <time>2022-08-21T06:50:20Z</time>
      </trkpt>
      <trkpt lat="42.660438" lon="-6.922197">
        <ele>604.6</ele>
        <time>2022-08-21T06:50:31Z</time>
      </trkpt>
      <trkpt lat="42.660464" lon="-6.922439">
        <ele>608.4</ele>
        <time>2022-08-21T06:50:47Z</time>
      </trkpt>
      <trkpt lat="42.660510" lon="-6.922676">
        <ele>606.6</ele>
        <time>2022-08-21T06:51:01Z</time>
      </trkpt>
      <trkpt lat="42.660564" lon="-6.922918">
        <ele>607.6</ele>
        <time>2022-08-21T06:51:17Z</time>
      </trkpt>
      <trkpt lat="42.660654" lon="-6.923145">
        <ele>608.0</ele>
        <time>2022-08-21T06:51:30Z</time>
      </trkpt>
      <trkpt lat="42.660699" lon="-6.923392">
        <ele>606.7</ele>
        <time>2022-08-21T06:51:43Z</time>
      </trkpt>
      <trkpt lat="42.660753" lon="-6.923630">
        <ele>607.8</ele>
        <time>2022-08-21T06:51:57Z</time>
      </trkpt>
      <trkpt lat="42.660819" lon="-6.923864">
        <ele>609.8</ele>
        <time>2022-08-21T06:52:13Z</time>
      </trkpt>
      <trkpt lat="42.660856" lon="-6.924107">
        <ele>608.8</ele>
        <time>2022-08-21T06:52:25Z</time>
      </trkpt>
      <trkpt lat="42.660937" lon="-6.924340">
        <ele>611.6</ele>
        <time>2022-08-21T06:52:41Z</time>
      </trkpt>
      <trkpt lat="42.661014" lon="-6.924572">
        <ele>613.9</ele>
        <time>2022-08-21T06:52:55Z</time>
      </trkpt>
      <trkpt lat="42.661105" lon="-6.924795">
        <ele>609.0</ele>
        <time>2022-08-21T06:53:08Z</time>
      </trkpt>
      <trkpt lat="42.661191" lon="-6.925021">
        <ele>610.0</ele>
        <time>2022-08-21T06:53:22Z</time>
      </trkpt>
      <trkpt lat="42.661280" lon="-6.925244">
        <ele>610.8</ele>
        <time>2022-08-21T06:53:37Z</time>
      </trkpt>
      <trkpt lat="42.661399" lon="-6.925454">
        <ele>609.7</ele>
        <time>2022-08-21T06:53:53Z</time>
      </trkpt>
      <trkpt lat="42.661523" lon="-6.925641">
        <ele>610.7</ele>
        <time>2022-08-21T06:54:07Z</time>
      </trkpt>
      <trkpt lat="42.661633" lon="-6.925838">
        <ele>610.7</ele>
        <time>2022-08-21T06:54:20Z</time>
      </trkpt>
      <trkpt lat="42.661752" lon="-6.926050">
        <ele>609.7</ele>
        <time>2022-08-21T06:54:34Z</time>
      </trkpt>
      <trkpt lat="42.661826" lon="-6.926281">
        <ele>612.7</ele>
        <time>2022-08-21T06:54:52Z</time>
      </trkpt>
      <trkpt lat="42.661941" lon="-6.926479">
        <ele>619.5</ele>
        <time>2022-08-21T06:55:06Z</time>
      </trkpt>
      <trkpt lat="42.662105" lon="-6.926587">
        <ele>617.6</ele>
        <time>2022-08-21T06:55:19Z</time>
      </trkpt>
      <trkpt lat="42.662291" lon="-6.926594">
        <ele>615.8</ele>
        <time>2022-08-21T06:55:34Z</time>
      </trkpt>
      <trkpt lat="42.662475" lon="-6.926563">
        <ele>613.0</ele>
        <time>2022-08-21T06:55:49Z</time>
      </trkpt>
      <trkpt lat="42.662663" lon="-6.926584">
        <ele>613.7</ele>
        <time>2022-08-21T06:56:05Z</time>
      </trkpt>
      <trkpt lat="42.662859" lon="-6.926609">
        <ele>616.7</ele>
        <time>2022-08-21T06:56:17Z</time>
      </trkpt>
      <trkpt lat="42.663044" lon="-6.926623">
        <ele>617.0</ele>
        <time>2022-08-21T06:56:29Z</time>
      </trkpt>
      <trkpt lat="42.663227" lon="-6.926650">
        <ele>616.6</ele>
        <time>2022-08-21T06:56:42Z</time>
      </trkpt>
      <trkpt lat="42.663409" lon="-6.926682">
        <ele>616.7</ele>
        <time>2022-08-21T06:56:57Z</time>
      </trkpt>
      <trkpt lat="42.663591" lon="-6.926718">
        <ele>615.7</ele>
        <time>2022-08-21T06:57:11Z</time>
      </trkpt>
      <trkpt lat="42.663772" lon="-6.926688">
        <ele>615.8</ele>
        <time>2022-08-21T06:57:26Z</time>
      </trkpt>
      <trkpt lat="42.663962" lon="-6.926680">
        <ele>614.0</ele>
        <time>2022-08-21T06:57:42Z</time>
      </trkpt>
      <trkpt lat="42.664142" lon="-6.926711">
        <ele>612.7</ele>
        <time>2022-08-21T06:57:54Z</time>
      </trkpt>
      <trkpt lat="42.664324" lon="-6.926738">
        <ele>610.6</ele>
        <time>2022-08-21T06:58:10Z</time>
      </trkpt>
      <trkpt lat="42.664507" lon="-6.926667">
        <ele>612.6</ele>
        <time>2022-08-21T06:58:21Z</time>
      </trkpt>
      <trkpt lat="42.664689" lon="-6.926623">
        <ele>612.7</ele>
        <time>2022-08-21T06:58:35Z</time>
      </trkpt>
      <trkpt lat="42.664873" lon="-6.926557">
        <ele>612.7</ele>
        <time>2022-08-21T06:58:50Z</time>
      </trkpt>
      <trkpt lat="42.665055" lon="-6.926540">
        <ele>608.6</ele>
        <time>2022-08-21T06:59:08Z</time>
      </trkpt>
      <trkpt lat="42.665224" lon="-6.926666">
        <ele>607.7</ele>
        <time>2022-08-21T06:59:41Z</time>
      </trkpt>
      <trkpt lat="42.665381" lon="-6.926795">
        <ele>610.4</ele>
        <time>2022-08-21T06:59:57Z</time>
      </trkpt>
      <trkpt lat="42.665543" lon="-6.926903">
        <ele>609.7</ele>
        <time>2022-08-21T07:00:10Z</time>
      </trkpt>
      <trkpt lat="42.665695" lon="-6.927036">
        <ele>607.8</ele>
        <time>2022-08-21T07:00:23Z</time>
      </trkpt>
      <trkpt lat="42.665846" lon="-6.927207">
        <ele>605.7</ele>
        <time>2022-08-21T07:00:38Z</time>
      </trkpt>
      <trkpt lat="42.665932" lon="-6.927431">
        <ele>606.5</ele>
        <time>2022-08-21T07:00:51Z</time>
      </trkpt>
      <trkpt lat="42.665911" lon="-6.927678">
        <ele>607.7</ele>
        <time>2022-08-21T07:01:01Z</time>
      </trkpt>
      <trkpt lat="42.665874" lon="-6.927931">
        <ele>610.4</ele>
        <time>2022-08-21T07:01:18Z</time>
      </trkpt>
      <trkpt lat="42.665812" lon="-6.928176">
        <ele>611.8</ele>
        <time>2022-08-21T07:01:32Z</time>
      </trkpt>
      <trkpt lat="42.665802" lon="-6.928428">
        <ele>611.7</ele>
        <time>2022-08-21T07:01:46Z</time>
      </trkpt>
      <trkpt lat="42.665731" lon="-6.928655">
        <ele>612.1</ele>
        <time>2022-08-21T07:02:00Z</time>
      </trkpt>
      <trkpt lat="42.665693" lon="-6.928897">
        <ele>611.7</ele>
        <time>2022-08-21T07:02:14Z</time>
      </trkpt>
      <trkpt lat="42.665639" lon="-6.929134">
        <ele>611.7</ele>
        <time>2022-08-21T07:02:29Z</time>
      </trkpt>
      <trkpt lat="42.665563" lon="-6.929365">
        <ele>614.0</ele>
        <time>2022-08-21T07:03:17Z</time>
      </trkpt>
      <trkpt lat="42.665492" lon="-6.929604">
        <ele>608.8</ele>
        <time>2022-08-21T07:03:30Z</time>
      </trkpt>
      <trkpt lat="42.665406" lon="-6.929829">
        <ele>609.7</ele>
        <time>2022-08-21T07:03:47Z</time>
      </trkpt>
      <trkpt lat="42.665329" lon="-6.930054">
        <ele>608.8</ele>
        <time>2022-08-21T07:04:03Z</time>
      </trkpt>
      <trkpt lat="42.665260" lon="-6.930292">
        <ele>608.7</ele>
        <time>2022-08-21T07:04:19Z</time>
      </trkpt>
      <trkpt lat="42.665209" lon="-6.930540">
        <ele>610.4</ele>
        <time>2022-08-21T07:04:33Z</time>
      </trkpt>
      <trkpt lat="42.665282" lon="-6.930776">
        <ele>612.7</ele>
        <time>2022-08-21T07:04:46Z</time>
      </trkpt>
      <trkpt lat="42.665382" lon="-6.930982">
        <ele>613.7</ele>
        <time>2022-08-21T07:04:58Z</time>
      </trkpt>
      <trkpt lat="42.665467" lon="-6.931198">
        <ele>613.1</ele>
        <time>2022-08-21T07:05:15Z</time>
      </trkpt>
      <trkpt lat="42.665551" lon="-6.931424">
        <ele>613.7</ele>
        <time>2022-08-21T07:05:29Z</time>
      </trkpt>
      <trkpt lat="42.665641" lon="-6.931642">
        <ele>617.3</ele>
        <time>2022-08-21T07:05:42Z</time>
      </trkpt>
      <trkpt lat="42.665707" lon="-6.931876">
        <ele>617.4</ele>
        <time>2022-08-21T07:05:56Z</time>
      </trkpt>
      <trkpt lat="42.665769" lon="-6.932109">
        <ele>615.8</ele>
        <time>2022-08-21T07:06:09Z</time>
      </trkpt>
      <trkpt lat="42.665792" lon="-6.932362">
        <ele>617.7</ele>
        <time>2022-08-21T07:06:25Z</time>
      </trkpt>
      <trkpt lat="42.665814" lon="-6.932620">
        <ele>619.7</ele>
        <time>2022-08-21T07:06:40Z</time>
      </trkpt>
      <trkpt lat="42.665835" lon="-6.932865">
        <ele>618.7</ele>
        <time>2022-08-21T07:06:53Z</time>
      </trkpt>
      <trkpt lat="42.665865" lon="-6.933123">
        <ele>619.8</ele>
        <time>2022-08-21T07:07:06Z</time>
      </trkpt>
      <trkpt lat="42.665908" lon="-6.933377">
        <ele>619.0</ele>
        <time>2022-08-21T07:07:21Z</time>
      </trkpt>
      <trkpt lat="42.665932" lon="-6.933628">
        <ele>614.7</ele>
        <time>2022-08-21T07:07:36Z</time>
      </trkpt>
      <trkpt lat="42.665972" lon="-6.933870">
        <ele>615.7</ele>
        <time>2022-08-21T07:07:48Z</time>
      </trkpt>
      <trkpt lat="42.665985" lon="-6.934117">
        <ele>616.7</ele>
        <time>2022-08-21T07:08:03Z</time>
      </trkpt>
      <trkpt lat="42.666042" lon="-6.934351">
        <ele>615.7</ele>
        <time>2022-08-21T07:08:16Z</time>
      </trkpt>
      <trkpt lat="42.666116" lon="-6.934584">
        <ele>611.6</ele>
        <time>2022-08-21T07:08:41Z</time>
      </trkpt>
      <trkpt lat="42.666163" lon="-6.934826">
        <ele>617.9</ele>
        <time>2022-08-21T07:08:54Z</time>
      </trkpt>
      <trkpt lat="42.666235" lon="-6.935059">
        <ele>617.7</ele>
        <time>2022-08-21T07:09:07Z</time>
      </trkpt>
      <trkpt lat="42.666280" lon="-6.935304">
        <ele>618.7</ele>
        <time>2022-08-21T07:09:22Z</time>
      </trkpt>
      <trkpt lat="42.666325" lon="-6.935549">
        <ele>621.4</ele>
        <time>2022-08-21T07:09:37Z</time>
      </trkpt>
      <trkpt lat="42.666340" lon="-6.935798">
        <ele>619.7</ele>
        <time>2022-08-21T07:09:49Z</time>
      </trkpt>
      <trkpt lat="42.666411" lon="-6.936042">
        <ele>617.8</ele>
        <time>2022-08-21T07:10:05Z</time>
      </trkpt>
      <trkpt lat="42.666452" lon="-6.936294">
        <ele>618.7</ele>
        <time>2022-08-21T07:10:19Z</time>
      </trkpt>
      <trkpt lat="42.666433" lon="-6.936546">
        <ele>619.7</ele>
        <time>2022-08-21T07:10:31Z</time>
      </trkpt>
      <trkpt lat="42.666370" lon="-6.936785">
        <ele>620.7</ele>
        <time>2022-08-21T07:10:47Z</time>
      </trkpt>
      <trkpt lat="42.666310" lon="-6.937024">
        <ele>620.7</ele>
        <time>2022-08-21T07:10:59Z</time>
      </trkpt>
      <trkpt lat="42.666263" lon="-6.937270">
        <ele>620.6</ele>
        <time>2022-08-21T07:11:15Z</time>
      </trkpt>
      <trkpt lat="42.666289" lon="-6.937523">
        <ele>622.7</ele>
        <time>2022-08-21T07:11:31Z</time>
      </trkpt>
      <trkpt lat="42.666357" lon="-6.937760">
        <ele>623.7</ele>
        <time>2022-08-21T07:11:44Z</time>
      </trkpt>
      <trkpt lat="42.666428" lon="-6.937993">
        <ele>623.7</ele>
        <time>2022-08-21T07:11:58Z</time>
      </trkpt>
      <trkpt lat="42.666375" lon="-6.938235">
        <ele>621.8</ele>
        <time>2022-08-21T07:12:11Z</time>
      </trkpt>
      <trkpt lat="42.666293" lon="-6.938453">
        <ele>621.7</ele>
        <time>2022-08-21T07:12:23Z</time>
      </trkpt>
      <trkpt lat="42.666226" lon="-6.938690">
        <ele>622.8</ele>
        <time>2022-08-21T07:12:37Z</time>
      </trkpt>
      <trkpt lat="42.666128" lon="-6.938899">
        <ele>624.0</ele>
        <time>2022-08-21T07:13:04Z</time>
      </trkpt>
      <trkpt lat="42.665975" lon="-6.939046">
        <ele>618.8</ele>
        <time>2022-08-21T07:13:19Z</time>
      </trkpt>
      <trkpt lat="42.665813" lon="-6.939153">
        <ele>626.7</ele>
        <time>2022-08-21T07:13:45Z</time>
      </trkpt>
      <trkpt lat="42.665692" lon="-6.939344">
        <ele>624.7</ele>
        <time>2022-08-21T07:14:04Z</time>
      </trkpt>
      <trkpt lat="42.665536" lon="-6.939500">
        <ele>624.7</ele>
        <time>2022-08-21T07:14:23Z</time>
      </trkpt>
      <trkpt lat="42.665393" lon="-6.939661">
        <ele>621.7</ele>
        <time>2022-08-21T07:14:34Z</time>
      </trkpt>
      <trkpt lat="42.665306" lon="-6.939875">
        <ele>621.4</ele>
        <time>2022-08-21T07:14:54Z</time>
      </trkpt>
      <trkpt lat="42.665173" lon="-6.940066">
        <ele>621.8</ele>
        <time>2022-08-21T07:15:07Z</time>
      </trkpt>
      <trkpt lat="42.664998" lon="-6.940181">
        <ele>622.7</ele>
        <time>2022-08-21T07:15:23Z</time>
      </trkpt>
      <trkpt lat="42.664824" lon="-6.940274">
        <ele>624.7</ele>
        <time>2022-08-21T07:15:36Z</time>
      </trkpt>
      <trkpt lat="42.664673" lon="-6.940408">
        <ele>624.7</ele>
        <time>2022-08-21T07:15:52Z</time>
      </trkpt>
      <trkpt lat="42.664502" lon="-6.940508">
        <ele>623.7</ele>
        <time>2022-08-21T07:16:07Z</time>
      </trkpt>
      <trkpt lat="42.664337" lon="-6.940637">
        <ele>622.0</ele>
        <time>2022-08-21T07:16:23Z</time>
      </trkpt>
      <trkpt lat="42.664189" lon="-6.940781">
        <ele>623.0</ele>
        <time>2022-08-21T07:16:36Z</time>
      </trkpt>
      <trkpt lat="42.664094" lon="-6.940998">
        <ele>623.7</ele>
        <time>2022-08-21T07:16:51Z</time>
      </trkpt>
      <trkpt lat="42.664013" lon="-6.941218">
        <ele>622.7</ele>
        <time>2022-08-21T07:17:06Z</time>
      </trkpt>
      <trkpt lat="42.664035" lon="-6.941461">
        <ele>623.6</ele>
        <time>2022-08-21T07:17:18Z</time>
      </trkpt>
      <trkpt lat="42.664030" lon="-6.941710">
        <ele>624.7</ele>
        <time>2022-08-21T07:17:28Z</time>
      </trkpt>
      <trkpt lat="42.664045" lon="-6.941962">
        <ele>621.7</ele>
        <time>2022-08-21T07:17:43Z</time>
      </trkpt>
      <trkpt lat="42.664018" lon="-6.942220">
        <ele>621.5</ele>
        <time>2022-08-21T07:18:01Z</time>
      </trkpt>
      <trkpt lat="42.664081" lon="-6.942454">
        <ele>623.8</ele>
        <time>2022-08-21T07:18:32Z</time>
      </trkpt>
      <trkpt lat="42.664167" lon="-6.942673">
        <ele>623.7</ele>
        <time>2022-08-21T07:18:57Z</time>
      </trkpt>
      <trkpt lat="42.664268" lon="-6.942896">
        <ele>624.7</ele>
        <time>2022-08-21T07:19:10Z</time>
      </trkpt>
      <trkpt lat="42.664366" lon="-6.943113">
        <ele>625.8</ele>
        <time>2022-08-21T07:19:30Z</time>
      </trkpt>
      <trkpt lat="42.664352" lon="-6.943365">
        <ele>628.7</ele>
        <time>2022-08-21T07:19:41Z</time>
      </trkpt>
      <trkpt lat="42.664381" lon="-6.943610">
        <ele>627.8</ele>
        <time>2022-08-21T07:19:54Z</time>
      </trkpt>
      <trkpt lat="42.664462" lon="-6.943846">
        <ele>627.5</ele>
        <time>2022-08-21T07:20:09Z</time>
      </trkpt>
      <trkpt lat="42.664549" lon="-6.944074">
        <ele>625.5</ele>
        <time>2022-08-21T07:20:25Z</time>
      </trkpt>
      <trkpt lat="42.664648" lon="-6.944282">
        <ele>622.8</ele>
        <time>2022-08-21T07:20:41Z</time>
      </trkpt>
      <trkpt lat="42.664745" lon="-6.944495">
        <ele>623.7</ele>
        <time>2022-08-21T07:20:53Z</time>
      </trkpt>
      <trkpt lat="42.664836" lon="-6.944711">
        <ele>623.8</ele>
        <time>2022-08-21T07:21:10Z</time>
      </trkpt>
      <trkpt lat="42.664944" lon="-6.944909">
        <ele>624.8</ele>
        <time>2022-08-21T07:21:24Z</time>
      </trkpt>
      <trkpt lat="42.665025" lon="-6.945151">
        <ele>625.5</ele>
        <time>2022-08-21T07:21:39Z</time>
      </trkpt>
      <trkpt lat="42.665059" lon="-6.945406">
        <ele>627.4</ele>
        <time>2022-08-21T07:21:53Z</time>
      </trkpt>
      <trkpt lat="42.665054" lon="-6.945652">
        <ele>627.8</ele>
        <time>2022-08-21T07:22:05Z</time>
      </trkpt>
      <trkpt lat="42.665101" lon="-6.945899">
        <ele>629.0</ele>
        <time>2022-08-21T07:22:22Z</time>
      </trkpt>
      <trkpt lat="42.665182" lon="-6.946125">
        <ele>627.8</ele>
        <time>2022-08-21T07:22:35Z</time>
      </trkpt>
      <trkpt lat="42.665284" lon="-6.946337">
        <ele>627.8</ele>
        <time>2022-08-21T07:22:49Z</time>
      </trkpt>
      <trkpt lat="42.665333" lon="-6.946576">
        <ele>630.7</ele>
        <time>2022-08-21T07:23:07Z</time>
      </trkpt>
      <trkpt lat="42.665307" lon="-6.946821">
        <ele>630.7</ele>
        <time>2022-08-21T07:23:19Z</time>
      </trkpt>
      <trkpt lat="42.665267" lon="-6.947071">
        <ele>631.8</ele>
        <time>2022-08-21T07:23:35Z</time>
      </trkpt>
      <trkpt lat="42.665279" lon="-6.947317">
        <ele>631.8</ele>
        <time>2022-08-21T07:23:48Z</time>
      </trkpt>
      <trkpt lat="42.665264" lon="-6.947578">
        <ele>632.7</ele>
        <time>2022-08-21T07:24:01Z</time>
      </trkpt>
      <trkpt lat="42.665236" lon="-6.947833">
        <ele>632.8</ele>
        <time>2022-08-21T07:24:15Z</time>
      </trkpt>
      <trkpt lat="42.665163" lon="-6.948061">
        <ele>632.5</ele>
        <time>2022-08-21T07:24:28Z</time>
      </trkpt>
      <trkpt lat="42.665113" lon="-6.948298">
        <ele>631.8</ele>
        <time>2022-08-21T07:24:41Z</time>
      </trkpt>
      <trkpt lat="42.665072" lon="-6.948550">
        <ele>632.5</ele>
        <time>2022-08-21T07:24:58Z</time>
      </trkpt>
      <trkpt lat="42.665078" lon="-6.948804">
        <ele>633.8</ele>
        <time>2022-08-21T07:25:13Z</time>
      </trkpt>
      <trkpt lat="42.665015" lon="-6.949042">
        <ele>632.8</ele>
        <time>2022-08-21T07:25:27Z</time>
      </trkpt>
      <trkpt lat="42.664989" lon="-6.949293">
        <ele>634.7</ele>
        <time>2022-08-21T07:25:40Z</time>
      </trkpt>
      <trkpt lat="42.664971" lon="-6.949557">
        <ele>632.8</ele>
        <time>2022-08-21T07:25:56Z</time>
      </trkpt>
      <trkpt lat="42.664962" lon="-6.949807">
        <ele>632.8</ele>
        <time>2022-08-21T07:26:09Z</time>
      </trkpt>
      <trkpt lat="42.664927" lon="-6.950052">
        <ele>633.4</ele>
        <time>2022-08-21T07:26:22Z</time>
      </trkpt>
      <trkpt lat="42.664891" lon="-6.950305">
        <ele>633.8</ele>
        <time>2022-08-21T07:26:35Z</time>
      </trkpt>
      <trkpt lat="42.664851" lon="-6.950561">
        <ele>633.8</ele>
        <time>2022-08-21T07:26:48Z</time>
      </trkpt>
      <trkpt lat="42.664827" lon="-6.950805">
        <ele>635.8</ele>
        <time>2022-08-21T07:27:03Z</time>
      </trkpt>
      <trkpt lat="42.664778" lon="-6.951056">
        <ele>635.8</ele>
        <time>2022-08-21T07:27:15Z</time>
      </trkpt>
      <trkpt lat="42.664744" lon="-6.951314">
        <ele>636.5</ele>
        <time>2022-08-21T07:27:33Z</time>
      </trkpt>
      <trkpt lat="42.664685" lon="-6.951551">
        <ele>637.8</ele>
        <time>2022-08-21T07:27:44Z</time>
      </trkpt>
      <trkpt lat="42.664615" lon="-6.951788">
        <ele>637.8</ele>
        <time>2022-08-21T07:27:59Z</time>
      </trkpt>
      <trkpt lat="42.664598" lon="-6.952033">
        <ele>638.7</ele>
        <time>2022-08-21T07:28:12Z</time>
      </trkpt>
      <trkpt lat="42.664583" lon="-6.952278">
        <ele>640.8</ele>
        <time>2022-08-21T07:28:26Z</time>
      </trkpt>
      <trkpt lat="42.664545" lon="-6.952531">
        <ele>642.5</ele>
        <time>2022-08-21T07:28:39Z</time>
      </trkpt>
      <trkpt lat="42.664521" lon="-6.952790">
        <ele>640.5</ele>
        <time>2022-08-21T07:28:55Z</time>
      </trkpt>
      <trkpt lat="42.664511" lon="-6.953037">
        <ele>642.5</ele>
        <time>2022-08-21T07:29:10Z</time>
      </trkpt>
      <trkpt lat="42.664508" lon="-6.953292">
        <ele>642.1</ele>
        <time>2022-08-21T07:29:25Z</time>
      </trkpt>
      <trkpt lat="42.664519" lon="-6.953557">
        <ele>641.8</ele>
        <time>2022-08-21T07:29:38Z</time>
      </trkpt>
      <trkpt lat="42.664469" lon="-6.953801">
        <ele>641.8</ele>
        <time>2022-08-21T07:29:53Z</time>
      </trkpt>
      <trkpt lat="42.664401" lon="-6.954040">
        <ele>640.7</ele>
        <time>2022-08-21T07:30:06Z</time>
      </trkpt>
      <trkpt lat="42.664345" lon="-6.954282">
        <ele>644.8</ele>
        <time>2022-08-21T07:30:21Z</time>
      </trkpt>
      <trkpt lat="42.664410" lon="-6.954512">
        <ele>641.1</ele>
        <time>2022-08-21T07:30:34Z</time>
      </trkpt>
      <trkpt lat="42.664553" lon="-6.954663">
        <ele>638.5</ele>
        <time>2022-08-21T07:30:52Z</time>
      </trkpt>
      <trkpt lat="42.664695" lon="-6.954819">
        <ele>641.3</ele>
        <time>2022-08-21T07:30:58Z</time>
      </trkpt>
      <trkpt lat="42.664858" lon="-6.954953">
        <ele>642.7</ele>
        <time>2022-08-21T07:31:14Z</time>
      </trkpt>
      <trkpt lat="42.665000" lon="-6.955117">
        <ele>641.2</ele>
        <time>2022-08-21T07:31:33Z</time>
      </trkpt>
      <trkpt lat="42.665165" lon="-6.955238">
        <ele>636.8</ele>
        <time>2022-08-21T07:31:45Z</time>
      </trkpt>
      <trkpt lat="42.665321" lon="-6.955379">
        <ele>635.8</ele>
        <time>2022-08-21T07:32:02Z</time>
      </trkpt>
      <trkpt lat="42.665483" lon="-6.955494">
        <ele>632.8</ele>
        <time>2022-08-21T07:32:17Z</time>
      </trkpt>
      <trkpt lat="42.665649" lon="-6.955605">
        <ele>630.8</ele>
        <time>2022-08-21T07:32:31Z</time>
      </trkpt>
      <trkpt lat="42.665815" lon="-6.955728">
        <ele>628.8</ele>
        <time>2022-08-21T07:32:44Z</time>
      </trkpt>
      <trkpt lat="42.665952" lon="-6.955888">
        <ele>627.8</ele>
        <time>2022-08-21T07:32:58Z</time>
      </trkpt>
      <trkpt lat="42.666108" lon="-6.956013">
        <ele>628.8</ele>
        <time>2022-08-21T07:33:13Z</time>
      </trkpt>
      <trkpt lat="42.666251" lon="-6.956169">
        <ele>627.8</ele>
        <time>2022-08-21T07:33:32Z</time>
      </trkpt>
      <trkpt lat="42.666407" lon="-6.956307">
        <ele>626.5</ele>
        <time>2022-08-21T07:33:42Z</time>
      </trkpt>
      <trkpt lat="42.666551" lon="-6.956463">
        <ele>627.7</ele>
        <time>2022-08-21T07:34:00Z</time>
      </trkpt>
      <trkpt lat="42.666703" lon="-6.956595">
        <ele>628.8</ele>
        <time>2022-08-21T07:34:11Z</time>
      </trkpt>
      <trkpt lat="42.666846" lon="-6.956749">
        <ele>629.8</ele>
        <time>2022-08-21T07:34:24Z</time>
      </trkpt>
      <trkpt lat="42.667005" lon="-6.956870">
        <ele>633.5</ele>
        <time>2022-08-21T07:34:39Z</time>
      </trkpt>
      <trkpt lat="42.667172" lon="-6.956969">
        <ele>634.8</ele>
        <time>2022-08-21T07:34:54Z</time>
      </trkpt>
      <trkpt lat="42.667333" lon="-6.957091">
        <ele>633.8</ele>
        <time>2022-08-21T07:35:06Z</time>
      </trkpt>
      <trkpt lat="42.667466" lon="-6.957259">
        <ele>632.8</ele>
        <time>2022-08-21T07:35:21Z</time>
      </trkpt>
      <trkpt lat="42.667615" lon="-6.957404">
        <ele>633.5</ele>
        <time>2022-08-21T07:35:33Z</time>
      </trkpt>
      <trkpt lat="42.667768" lon="-6.957549">
        <ele>633.0</ele>
        <time>2022-08-21T07:35:48Z</time>
      </trkpt>
      <trkpt lat="42.667926" lon="-6.957681">
        <ele>634.8</ele>
        <time>2022-08-21T07:36:00Z</time>
      </trkpt>
      <trkpt lat="42.668081" lon="-6.957836">
        <ele>633.1</ele>
        <time>2022-08-21T07:36:17Z</time>
      </trkpt>
      <trkpt lat="42.668243" lon="-6.957958">
        <ele>636.4</ele>
        <time>2022-08-21T07:36:30Z</time>
      </trkpt>
      <trkpt lat="42.668396" lon="-6.958089">
        <ele>636.7</ele>
        <time>2022-08-21T07:36:43Z</time>
      </trkpt>
      <trkpt lat="42.668549" lon="-6.958221">
        <ele>638.8</ele>
        <time>2022-08-21T07:36:57Z</time>
      </trkpt>
      <trkpt lat="42.668698" lon="-6.958363">
        <ele>639.5</ele>
        <time>2022-08-21T07:37:11Z</time>
      </trkpt>
      <trkpt lat="42.668860" lon="-6.958510">
        <ele>637.8</ele>
        <time>2022-08-21T07:37:25Z</time>
      </trkpt>
      <trkpt lat="42.669033" lon="-6.958608">
        <ele>636.8</ele>
        <time>2022-08-21T07:37:37Z</time>
      </trkpt>
      <trkpt lat="42.669191" lon="-6.958742">
        <ele>636.8</ele>
        <time>2022-08-21T07:37:53Z</time>
      </trkpt>
      <trkpt lat="42.669348" lon="-6.958880">
        <ele>636.8</ele>
        <time>2022-08-21T07:38:08Z</time>
      </trkpt>
      <trkpt lat="42.669490" lon="-6.959032">
        <ele>637.8</ele>
        <time>2022-08-21T07:38:19Z</time>
      </trkpt>
      <trkpt lat="42.669624" lon="-6.959194">
        <ele>635.5</ele>
        <time>2022-08-21T07:38:33Z</time>
      </trkpt>
      <trkpt lat="42.669741" lon="-6.959382">
        <ele>637.8</ele>
        <time>2022-08-21T07:38:46Z</time>
      </trkpt>
      <trkpt lat="42.669857" lon="-6.959573">
        <ele>640.8</ele>
        <time>2022-08-21T07:39:04Z</time>
      </trkpt>
      <trkpt lat="42.669921" lon="-6.959810">
        <ele>642.0</ele>
        <time>2022-08-21T07:39:18Z</time>
      </trkpt>
      <trkpt lat="42.670030" lon="-6.960020">
        <ele>640.8</ele>
        <time>2022-08-21T07:39:33Z</time>
      </trkpt>
      <trkpt lat="42.670132" lon="-6.960226">
        <ele>640.0</ele>
        <time>2022-08-21T07:39:46Z</time>
      </trkpt>
      <trkpt lat="42.670236" lon="-6.960431">
        <ele>639.7</ele>
        <time>2022-08-21T07:40:00Z</time>
      </trkpt>
      <trkpt lat="42.670317" lon="-6.960661">
        <ele>637.8</ele>
        <time>2022-08-21T07:40:14Z</time>
      </trkpt>
      <trkpt lat="42.670412" lon="-6.960890">
        <ele>636.8</ele>
        <time>2022-08-21T07:40:29Z</time>
      </trkpt>
      <trkpt lat="42.670499" lon="-6.961113">
        <ele>637.8</ele>
        <time>2022-08-21T07:40:42Z</time>
      </trkpt>
      <trkpt lat="42.670589" lon="-6.961337">
        <ele>636.8</ele>
        <time>2022-08-21T07:40:56Z</time>
      </trkpt>
      <trkpt lat="42.670671" lon="-6.961561">
        <ele>638.7</ele>
        <time>2022-08-21T07:41:10Z</time>
      </trkpt>
      <trkpt lat="42.670752" lon="-6.961785">
        <ele>639.8</ele>
        <time>2022-08-21T07:41:22Z</time>
      </trkpt>
      <trkpt lat="42.670821" lon="-6.962016">
        <ele>641.8</ele>
        <time>2022-08-21T07:41:34Z</time>
      </trkpt>
      <trkpt lat="42.670880" lon="-6.962273">
        <ele>640.8</ele>
        <time>2022-08-21T07:41:49Z</time>
      </trkpt>
      <trkpt lat="42.670988" lon="-6.962480">
        <ele>644.8</ele>
        <time>2022-08-21T07:42:21Z</time>
      </trkpt>
      <trkpt lat="42.671056" lon="-6.962718">
        <ele>639.8</ele>
        <time>2022-08-21T07:42:50Z</time>
      </trkpt>
      <trkpt lat="42.671136" lon="-6.962940">
        <ele>640.8</ele>
        <time>2022-08-21T07:43:01Z</time>
      </trkpt>
      <trkpt lat="42.671225" lon="-6.963188">
        <ele>640.8</ele>
        <time>2022-08-21T07:43:28Z</time>
      </trkpt>
      <trkpt lat="42.671309" lon="-6.963408">
        <ele>645.1</ele>
        <time>2022-08-21T07:44:00Z</time>
      </trkpt>
      <trkpt lat="42.671420" lon="-6.963609">
        <ele>642.8</ele>
        <time>2022-08-21T07:44:46Z</time>
      </trkpt>
      <trkpt lat="42.671517" lon="-6.963829">
        <ele>643.7</ele>
        <time>2022-08-21T07:44:58Z</time>
      </trkpt>
      <trkpt lat="42.671611" lon="-6.964042">
        <ele>644.8</ele>
        <time>2022-08-21T07:45:13Z</time>
      </trkpt>
      <trkpt lat="42.671708" lon="-6.964257">
        <ele>645.0</ele>
        <time>2022-08-21T07:45:31Z</time>
      </trkpt>
      <trkpt lat="42.671795" lon="-6.964478">
        <ele>644.7</ele>
        <time>2022-08-21T07:45:53Z</time>
      </trkpt>
      <trkpt lat="42.671873" lon="-6.964713">
        <ele>644.8</ele>
        <time>2022-08-21T07:46:02Z</time>
      </trkpt>
      <trkpt lat="42.671988" lon="-6.964904">
        <ele>646.0</ele>
        <time>2022-08-21T07:46:18Z</time>
      </trkpt>
      <trkpt lat="42.672092" lon="-6.965107">
        <ele>642.8</ele>
        <time>2022-08-21T07:46:29Z</time>
      </trkpt>
      <trkpt lat="42.672224" lon="-6.965291">
        <ele>641.8</ele>
        <time>2022-08-21T07:48:26Z</time>
      </trkpt>
      <trkpt lat="42.672308" lon="-6.965511">
        <ele>642.8</ele>
        <time>2022-08-21T07:48:43Z</time>
      </trkpt>
      <trkpt lat="42.672424" lon="-6.965717">
        <ele>643.7</ele>
        <time>2022-08-21T07:49:00Z</time>
      </trkpt>
      <trkpt lat="42.672524" lon="-6.965952">
        <ele>643.8</ele>
        <time>2022-08-21T07:49:54Z</time>
      </trkpt>
      <trkpt lat="42.672618" lon="-6.966162">
        <ele>644.7</ele>
        <time>2022-08-21T07:50:08Z</time>
      </trkpt>
      <trkpt lat="42.672729" lon="-6.966359">
        <ele>651.3</ele>
        <time>2022-08-21T07:50:22Z</time>
      </trkpt>
      <trkpt lat="42.672857" lon="-6.966546">
        <ele>654.2</ele>
        <time>2022-08-21T07:50:36Z</time>
      </trkpt>
      <trkpt lat="42.672910" lon="-6.966788">
        <ele>654.2</ele>
        <time>2022-08-21T07:50:47Z</time>
      </trkpt>
      <trkpt lat="42.672947" lon="-6.967028">
        <ele>654.2</ele>
        <time>2022-08-21T07:51:02Z</time>
      </trkpt>
      <trkpt lat="42.672950" lon="-6.967274">
        <ele>655.9</ele>
        <time>2022-08-21T07:51:16Z</time>
      </trkpt>
      <trkpt lat="42.672865" lon="-6.967491">
        <ele>656.4</ele>
        <time>2022-08-21T07:51:27Z</time>
      </trkpt>
      <trkpt lat="42.672759" lon="-6.967690">
        <ele>656.5</ele>
        <time>2022-08-21T07:51:41Z</time>
      </trkpt>
      <trkpt lat="42.672637" lon="-6.967882">
        <ele>656.5</ele>
        <time>2022-08-21T07:52:23Z</time>
      </trkpt>
      <trkpt lat="42.672520" lon="-6.968076">
        <ele>650.8</ele>
        <time>2022-08-21T07:52:52Z</time>
      </trkpt>
      <trkpt lat="42.672389" lon="-6.968245">
        <ele>649.8</ele>
        <time>2022-08-21T07:53:06Z</time>
      </trkpt>
      <trkpt lat="42.672237" lon="-6.968396">
        <ele>650.8</ele>
        <time>2022-08-21T07:53:21Z</time>
      </trkpt>
      <trkpt lat="42.672093" lon="-6.968549">
        <ele>652.8</ele>
        <time>2022-08-21T07:53:34Z</time>
      </trkpt>
      <trkpt lat="42.671938" lon="-6.968684">
        <ele>660.3</ele>
        <time>2022-08-21T07:53:44Z</time>
      </trkpt>
      <trkpt lat="42.671790" lon="-6.968834">
        <ele>660.3</ele>
        <time>2022-08-21T07:53:57Z</time>
      </trkpt>
      <trkpt lat="42.671645" lon="-6.969002">
        <ele>660.3</ele>
        <time>2022-08-21T07:54:11Z</time>
      </trkpt>
      <trkpt lat="42.671718" lon="-6.969230">
        <ele>660.3</ele>
        <time>2022-08-21T07:54:26Z</time>
      </trkpt>
      <trkpt lat="42.671871" lon="-6.969384">
        <ele>660.3</ele>
        <time>2022-08-21T07:54:36Z</time>
      </trkpt>
      <trkpt lat="42.672015" lon="-6.969540">
        <ele>660.3</ele>
        <time>2022-08-21T07:54:51Z</time>
      </trkpt>
      <trkpt lat="42.672160" lon="-6.969696">
        <ele>660.3</ele>
        <time>2022-08-21T07:55:03Z</time>
      </trkpt>
      <trkpt lat="42.672305" lon="-6.969851">
        <ele>660.3</ele>
        <time>2022-08-21T07:55:19Z</time>
      </trkpt>
      <trkpt lat="42.672419" lon="-6.970050">
        <ele>660.3</ele>
        <time>2022-08-21T07:55:33Z</time>
      </trkpt>
      <trkpt lat="42.672577" lon="-6.970169">
        <ele>660.3</ele>
        <time>2022-08-21T07:55:46Z</time>
      </trkpt>
      <trkpt lat="42.672697" lon="-6.970361">
        <ele>658.1</ele>
        <time>2022-08-21T07:56:01Z</time>
      </trkpt>
      <trkpt lat="42.672708" lon="-6.970606">
        <ele>656.8</ele>
        <time>2022-08-21T07:56:12Z</time>
      </trkpt>
      <trkpt lat="42.672687" lon="-6.970850">
        <ele>657.8</ele>
        <time>2022-08-21T07:56:25Z</time>
      </trkpt>
      <trkpt lat="42.672616" lon="-6.971081">
        <ele>656.9</ele>
        <time>2022-08-21T07:56:38Z</time>
      </trkpt>
      <trkpt lat="42.672584" lon="-6.971328">
        <ele>655.8</ele>
        <time>2022-08-21T07:56:49Z</time>
      </trkpt>
      <trkpt lat="42.672533" lon="-6.971571">
        <ele>656.8</ele>
        <time>2022-08-21T07:57:45Z</time>
      </trkpt>
      <trkpt lat="42.672544" lon="-6.971818">
        <ele>655.5</ele>
        <time>2022-08-21T07:57:56Z</time>
      </trkpt>
      <trkpt lat="42.672563" lon="-6.972068">
        <ele>657.7</ele>
        <time>2022-08-21T07:58:09Z</time>
      </trkpt>
      <trkpt lat="42.672571" lon="-6.972319">
        <ele>657.8</ele>
        <time>2022-08-21T07:58:21Z</time>
      </trkpt>
      <trkpt lat="42.672618" lon="-6.972560">
        <ele>657.5</ele>
        <time>2022-08-21T07:58:34Z</time>
      </trkpt>
      <trkpt lat="42.672583" lon="-6.972810">
        <ele>660.8</ele>
        <time>2022-08-21T07:58:47Z</time>
      </trkpt>
      <trkpt lat="42.672580" lon="-6.973062">
        <ele>672.8</ele>
        <time>2022-08-21T07:59:02Z</time>
      </trkpt>
      <trkpt lat="42.672545" lon="-6.973302">
        <ele>662.5</ele>
        <time>2022-08-21T07:59:12Z</time>
      </trkpt>
      <trkpt lat="42.672505" lon="-6.973555">
        <ele>669.2</ele>
        <time>2022-08-21T07:59:29Z</time>
      </trkpt>
      <trkpt lat="42.672476" lon="-6.973802">
        <ele>673.1</ele>
        <time>2022-08-21T07:59:40Z</time>
      </trkpt>
      <trkpt lat="42.672432" lon="-6.974061">
        <ele>673.1</ele>
        <time>2022-08-21T08:00:12Z</time>
      </trkpt>
      <trkpt lat="42.672449" lon="-6.974312">
        <ele>673.1</ele>
        <time>2022-08-21T08:00:22Z</time>
      </trkpt>
      <trkpt lat="42.672449" lon="-6.974568">
        <ele>673.1</ele>
        <time>2022-08-21T08:00:36Z</time>
      </trkpt>
      <trkpt lat="42.672489" lon="-6.974808">
        <ele>673.1</ele>
        <time>2022-08-21T08:00:50Z</time>
      </trkpt>
      <trkpt lat="42.672461" lon="-6.975055">
        <ele>673.1</ele>
        <time>2022-08-21T08:01:03Z</time>
      </trkpt>
      <trkpt lat="42.672509" lon="-6.975296">
        <ele>673.1</ele>
        <time>2022-08-21T08:01:17Z</time>
      </trkpt>
      <trkpt lat="42.672531" lon="-6.975554">
        <ele>673.1</ele>
        <time>2022-08-21T08:01:32Z</time>
      </trkpt>
      <trkpt lat="42.672580" lon="-6.975790">
        <ele>673.1</ele>
        <time>2022-08-21T08:01:47Z</time>
      </trkpt>
      <trkpt lat="42.672593" lon="-6.976045">
        <ele>673.1</ele>
        <time>2022-08-21T08:02:22Z</time>
      </trkpt>
      <trkpt lat="42.672547" lon="-6.976287">
        <ele>673.1</ele>
        <time>2022-08-21T08:02:35Z</time>
      </trkpt>
      <trkpt lat="42.672496" lon="-6.976529">
        <ele>682.8</ele>
        <time>2022-08-21T08:02:47Z</time>
      </trkpt>
      <trkpt lat="42.672457" lon="-6.976774">
        <ele>682.1</ele>
        <time>2022-08-21T08:02:58Z</time>
      </trkpt>
      <trkpt lat="42.672417" lon="-6.977021">
        <ele>685.8</ele>
        <time>2022-08-21T08:03:28Z</time>
      </trkpt>
      <trkpt lat="42.672421" lon="-6.977265">
        <ele>685.8</ele>
        <time>2022-08-21T08:03:40Z</time>
      </trkpt>
      <trkpt lat="42.672413" lon="-6.977511">
        <ele>685.8</ele>
        <time>2022-08-21T08:03:51Z</time>
      </trkpt>
      <trkpt lat="42.672395" lon="-6.977773">
        <ele>684.8</ele>
        <time>2022-08-21T08:04:06Z</time>
      </trkpt>
      <trkpt lat="42.672400" lon="-6.978020">
        <ele>683.8</ele>
        <time>2022-08-21T08:04:21Z</time>
      </trkpt>
      <trkpt lat="42.672361" lon="-6.978262">
        <ele>682.8</ele>
        <time>2022-08-21T08:04:35Z</time>
      </trkpt>
      <trkpt lat="42.672329" lon="-6.978525">
        <ele>684.7</ele>
        <time>2022-08-21T08:04:49Z</time>
      </trkpt>
      <trkpt lat="42.672157" lon="-6.978630">
        <ele>685.8</ele>
        <time>2022-08-21T08:05:03Z</time>
      </trkpt>
      <trkpt lat="42.671973" lon="-6.978589">
        <ele>677.1</ele>
        <time>2022-08-21T08:05:40Z</time>
      </trkpt>
      <trkpt lat="42.671804" lon="-6.978681">
        <ele>673.9</ele>
        <time>2022-08-21T08:05:59Z</time>
      </trkpt>
      <trkpt lat="42.671639" lon="-6.978783">
        <ele>672.8</ele>
        <time>2022-08-21T08:06:14Z</time>
      </trkpt>
      <trkpt lat="42.671460" lon="-6.978861">
        <ele>669.9</ele>
        <time>2022-08-21T08:06:31Z</time>
      </trkpt>
      <trkpt lat="42.671281" lon="-6.978891">
        <ele>671.8</ele>
        <time>2022-08-21T08:06:41Z</time>
      </trkpt>
      <trkpt lat="42.671106" lon="-6.978985">
        <ele>670.4</ele>
        <time>2022-08-21T08:06:55Z</time>
      </trkpt>
      <trkpt lat="42.671071" lon="-6.979253">
        <ele>670.4</ele>
        <time>2022-08-21T08:07:11Z</time>
      </trkpt>
      <trkpt lat="42.670979" lon="-6.979472">
        <ele>670.4</ele>
        <time>2022-08-21T08:07:25Z</time>
      </trkpt>
      <trkpt lat="42.670918" lon="-6.979713">
        <ele>670.4</ele>
        <time>2022-08-21T08:07:40Z</time>
      </trkpt>
      <trkpt lat="42.670904" lon="-6.979971">
        <ele>670.4</ele>
        <time>2022-08-21T08:07:54Z</time>
      </trkpt>
      <trkpt lat="42.670931" lon="-6.980219">
        <ele>663.8</ele>
        <time>2022-08-21T08:08:07Z</time>
      </trkpt>
      <trkpt lat="42.670945" lon="-6.980465">
        <ele>664.8</ele>
        <time>2022-08-21T08:08:20Z</time>
      </trkpt>
      <trkpt lat="42.670918" lon="-6.980716">
        <ele>663.8</ele>
        <time>2022-08-21T08:08:37Z</time>
      </trkpt>
      <trkpt lat="42.670886" lon="-6.980958">
        <ele>673.0</ele>
        <time>2022-08-21T08:09:21Z</time>
      </trkpt>
      <trkpt lat="42.670784" lon="-6.981160">
        <ele>673.0</ele>
        <time>2022-08-21T08:09:32Z</time>
      </trkpt>
      <trkpt lat="42.670647" lon="-6.981330">
        <ele>673.0</ele>
        <time>2022-08-21T08:09:45Z</time>
      </trkpt>
      <trkpt lat="42.670585" lon="-6.981569">
        <ele>672.9</ele>
        <time>2022-08-21T08:09:59Z</time>
      </trkpt>
      <trkpt lat="42.670570" lon="-6.981818">
        <ele>672.9</ele>
        <time>2022-08-21T08:10:11Z</time>
      </trkpt>
      <trkpt lat="42.670521" lon="-6.982065">
        <ele>672.9</ele>
        <time>2022-08-21T08:10:24Z</time>
      </trkpt>
      <trkpt lat="42.670563" lon="-6.982304">
        <ele>672.9</ele>
        <time>2022-08-21T08:10:37Z</time>
      </trkpt>
      <trkpt lat="42.670649" lon="-6.982522">
        <ele>672.9</ele>
        <time>2022-08-21T08:10:49Z</time>
      </trkpt>
      <trkpt lat="42.670769" lon="-6.982710">
        <ele>672.9</ele>
        <time>2022-08-21T08:11:02Z</time>
      </trkpt>
      <trkpt lat="42.670889" lon="-6.982901">
        <ele>672.9</ele>
        <time>2022-08-21T08:11:15Z</time>
      </trkpt>
      <trkpt lat="42.670972" lon="-6.983119">
        <ele>667.7</ele>
        <time>2022-08-21T08:11:30Z</time>
      </trkpt>
      <trkpt lat="42.671058" lon="-6.983337">
        <ele>667.8</ele>
        <time>2022-08-21T08:11:41Z</time>
      </trkpt>
      <trkpt lat="42.671136" lon="-6.983562">
        <ele>666.8</ele>
        <time>2022-08-21T08:11:53Z</time>
      </trkpt>
      <trkpt lat="42.671226" lon="-6.983778">
        <ele>669.7</ele>
        <time>2022-08-21T08:12:10Z</time>
      </trkpt>
      <trkpt lat="42.671319" lon="-6.984004">
        <ele>666.8</ele>
        <time>2022-08-21T08:12:23Z</time>
      </trkpt>
      <trkpt lat="42.671393" lon="-6.984233">
        <ele>675.6</ele>
        <time>2022-08-21T08:12:33Z</time>
      </trkpt>
      <trkpt lat="42.671396" lon="-6.984489">
        <ele>676.0</ele>
        <time>2022-08-21T08:13:29Z</time>
      </trkpt>
      <trkpt lat="42.671442" lon="-6.984735">
        <ele>679.2</ele>
        <time>2022-08-21T08:13:42Z</time>
      </trkpt>
      <trkpt lat="42.671547" lon="-6.984943">
        <ele>679.2</ele>
        <time>2022-08-21T08:13:56Z</time>
      </trkpt>
      <trkpt lat="42.671674" lon="-6.985131">
        <ele>679.2</ele>
        <time>2022-08-21T08:14:05Z</time>
      </trkpt>
      <trkpt lat="42.671729" lon="-6.985370">
        <ele>679.6</ele>
        <time>2022-08-21T08:14:19Z</time>
      </trkpt>
      <trkpt lat="42.671752" lon="-6.985614">
        <ele>679.6</ele>
        <time>2022-08-21T08:14:32Z</time>
      </trkpt>
      <trkpt lat="42.671819" lon="-6.985843">
        <ele>679.6</ele>
        <time>2022-08-21T08:14:45Z</time>
      </trkpt>
      <trkpt lat="42.671932" lon="-6.986034">
        <ele>679.6</ele>
        <time>2022-08-21T08:14:59Z</time>
      </trkpt>
      <trkpt lat="42.672057" lon="-6.986210">
        <ele>679.6</ele>
        <time>2022-08-21T08:15:12Z</time>
      </trkpt>
      <trkpt lat="42.672192" lon="-6.986373">
        <ele>679.6</ele>
        <time>2022-08-21T08:15:29Z</time>
      </trkpt>
      <trkpt lat="42.672274" lon="-6.986593">
        <ele>671.8</ele>
        <time>2022-08-21T08:15:39Z</time>
      </trkpt>
      <trkpt lat="42.672370" lon="-6.986799">
        <ele>671.8</ele>
        <time>2022-08-21T08:15:53Z</time>
      </trkpt>
      <trkpt lat="42.672498" lon="-6.986989">
        <ele>671.8</ele>
        <time>2022-08-21T08:16:04Z</time>
      </trkpt>
      <trkpt lat="42.672618" lon="-6.987186">
        <ele>674.8</ele>
        <time>2022-08-21T08:16:17Z</time>
      </trkpt>
      <trkpt lat="42.672703" lon="-6.987410">
        <ele>673.9</ele>
        <time>2022-08-21T08:16:29Z</time>
      </trkpt>
      <trkpt lat="42.672757" lon="-6.987654">
        <ele>676.8</ele>
        <time>2022-08-21T08:16:55Z</time>
      </trkpt>
      <trkpt lat="42.672863" lon="-6.987853">
        <ele>674.8</ele>
        <time>2022-08-21T08:17:08Z</time>
      </trkpt>
      <trkpt lat="42.672950" lon="-6.988068">
        <ele>674.8</ele>
        <time>2022-08-21T08:17:17Z</time>
      </trkpt>
      <trkpt lat="42.672994" lon="-6.988323">
        <ele>675.8</ele>
        <time>2022-08-21T08:17:32Z</time>
      </trkpt>
      <trkpt lat="42.672972" lon="-6.988581">
        <ele>677.5</ele>
        <time>2022-08-21T08:17:42Z</time>
      </trkpt>
      <trkpt lat="42.672993" lon="-6.988827">
        <ele>682.0</ele>
        <time>2022-08-21T08:17:57Z</time>
      </trkpt>
      <trkpt lat="42.672945" lon="-6.989074">
        <ele>682.0</ele>
        <time>2022-08-21T08:18:08Z</time>
      </trkpt>
      <trkpt lat="42.672891" lon="-6.989313">
        <ele>682.0</ele>
        <time>2022-08-21T08:18:21Z</time>
      </trkpt>
      <trkpt lat="42.672874" lon="-6.989569">
        <ele>682.0</ele>
        <time>2022-08-21T08:18:38Z</time>
      </trkpt>
      <trkpt lat="42.672811" lon="-6.989810">
        <ele>682.0</ele>
        <time>2022-08-21T08:18:49Z</time>
      </trkpt>
      <trkpt lat="42.672770" lon="-6.990072">
        <ele>682.0</ele>
        <time>2022-08-21T08:19:03Z</time>
      </trkpt>
      <trkpt lat="42.672804" lon="-6.990330">
        <ele>682.0</ele>
        <time>2022-08-21T08:19:16Z</time>
      </trkpt>
      <trkpt lat="42.672865" lon="-6.990565">
        <ele>682.0</ele>
        <time>2022-08-21T08:19:30Z</time>
      </trkpt>
      <trkpt lat="42.673027" lon="-6.990707">
        <ele>682.0</ele>
        <time>2022-08-21T08:19:43Z</time>
      </trkpt>
      <trkpt lat="42.673091" lon="-6.990945">
        <ele>682.0</ele>
        <time>2022-08-21T08:19:55Z</time>
      </trkpt>
      <trkpt lat="42.673241" lon="-6.991089">
        <ele>681.8</ele>
        <time>2022-08-21T08:20:09Z</time>
      </trkpt>
      <trkpt lat="42.673261" lon="-6.991360">
        <ele>682.8</ele>
        <time>2022-08-21T08:20:22Z</time>
      </trkpt>
      <trkpt lat="42.673231" lon="-6.991609">
        <ele>683.8</ele>
        <time>2022-08-21T08:20:34Z</time>
      </trkpt>
      <trkpt lat="42.673178" lon="-6.991849">
        <ele>683.5</ele>
        <time>2022-08-21T08:20:46Z</time>
      </trkpt>
      <trkpt lat="42.673130" lon="-6.992086">
        <ele>685.8</ele>
        <time>2022-08-21T08:21:02Z</time>
      </trkpt>
      <trkpt lat="42.673116" lon="-6.992332">
        <ele>687.8</ele>
        <time>2022-08-21T08:21:13Z</time>
      </trkpt>
      <trkpt lat="42.673147" lon="-6.992586">
        <ele>690.8</ele>
        <time>2022-08-21T08:21:26Z</time>
      </trkpt>
      <trkpt lat="42.673219" lon="-6.992812">
        <ele>693.8</ele>
        <time>2022-08-21T08:21:40Z</time>
      </trkpt>
      <trkpt lat="42.673285" lon="-6.993051">
        <ele>692.8</ele>
        <time>2022-08-21T08:21:53Z</time>
      </trkpt>
      <trkpt lat="42.673384" lon="-6.993267">
        <ele>692.8</ele>
        <time>2022-08-21T08:22:06Z</time>
      </trkpt>
      <trkpt lat="42.673537" lon="-6.993427">
        <ele>690.8</ele>
        <time>2022-08-21T08:22:20Z</time>
      </trkpt>
      <trkpt lat="42.673691" lon="-6.993567">
        <ele>690.5</ele>
        <time>2022-08-21T08:22:33Z</time>
      </trkpt>
      <trkpt lat="42.673877" lon="-6.993599">
        <ele>687.8</ele>
        <time>2022-08-21T08:22:47Z</time>
      </trkpt>
      <trkpt lat="42.674045" lon="-6.993698">
        <ele>687.8</ele>
        <time>2022-08-21T08:23:03Z</time>
      </trkpt>
      <trkpt lat="42.674209" lon="-6.993810">
        <ele>689.8</ele>
        <time>2022-08-21T08:23:19Z</time>
      </trkpt>
      <trkpt lat="42.674344" lon="-6.993994">
        <ele>693.8</ele>
        <time>2022-08-21T08:23:34Z</time>
      </trkpt>
      <trkpt lat="42.674491" lon="-6.994147">
        <ele>694.5</ele>
        <time>2022-08-21T08:23:49Z</time>
      </trkpt>
      <trkpt lat="42.674640" lon="-6.994295">
        <ele>695.8</ele>
        <time>2022-08-21T08:24:02Z</time>
      </trkpt>
      <trkpt lat="42.674743" lon="-6.994515">
        <ele>696.8</ele>
        <time>2022-08-21T08:24:18Z</time>
      </trkpt>
      <trkpt lat="42.674857" lon="-6.994717">
        <ele>697.5</ele>
        <time>2022-08-21T08:24:36Z</time>
      </trkpt>
      <trkpt lat="42.674949" lon="-6.994931">
        <ele>700.8</ele>
        <time>2022-08-21T08:24:48Z</time>
      </trkpt>
      <trkpt lat="42.675063" lon="-6.995128">
        <ele>704.8</ele>
        <time>2022-08-21T08:25:03Z</time>
      </trkpt>
      <trkpt lat="42.675242" lon="-6.995192">
        <ele>706.8</ele>
        <time>2022-08-21T08:25:17Z</time>
      </trkpt>
      <trkpt lat="42.675422" lon="-6.995280">
        <ele>709.5</ele>
        <time>2022-08-21T08:25:34Z</time>
      </trkpt>
      <trkpt lat="42.675577" lon="-6.995440">
        <ele>711.5</ele>
        <time>2022-08-21T08:25:50Z</time>
      </trkpt>
      <trkpt lat="42.675750" lon="-6.995568">
        <ele>711.8</ele>
        <time>2022-08-21T08:26:09Z</time>
      </trkpt>
      <trkpt lat="42.675891" lon="-6.995728">
        <ele>714.7</ele>
        <time>2022-08-21T08:26:20Z</time>
      </trkpt>
      <trkpt lat="42.676020" lon="-6.995918">
        <ele>715.1</ele>
        <time>2022-08-21T08:26:34Z</time>
      </trkpt>
      <trkpt lat="42.676038" lon="-6.996171">
        <ele>720.5</ele>
        <time>2022-08-21T08:26:47Z</time>
      </trkpt>
      <trkpt lat="42.676024" lon="-6.996418">
        <ele>724.7</ele>
        <time>2022-08-21T08:27:03Z</time>
      </trkpt>
      <trkpt lat="42.676101" lon="-6.996649">
        <ele>725.8</ele>
        <time>2022-08-21T08:27:16Z</time>
      </trkpt>
      <trkpt lat="42.676159" lon="-6.996888">
        <ele>725.5</ele>
        <time>2022-08-21T08:27:31Z</time>
      </trkpt>
      <trkpt lat="42.676123" lon="-6.997132">
        <ele>724.8</ele>
        <time>2022-08-21T08:27:45Z</time>
      </trkpt>
      <trkpt lat="42.676048" lon="-6.997356">
        <ele>727.7</ele>
        <time>2022-08-21T08:28:00Z</time>
      </trkpt>
      <trkpt lat="42.675981" lon="-6.997593">
        <ele>729.7</ele>
        <time>2022-08-21T08:28:15Z</time>
      </trkpt>
      <trkpt lat="42.675890" lon="-6.997805">
        <ele>731.8</ele>
        <time>2022-08-21T08:28:30Z</time>
      </trkpt>
      <trkpt lat="42.675763" lon="-6.997987">
        <ele>735.8</ele>
        <time>2022-08-21T08:28:44Z</time>
      </trkpt>
      <trkpt lat="42.675769" lon="-6.998233">
        <ele>736.8</ele>
        <time>2022-08-21T08:29:04Z</time>
      </trkpt>
      <trkpt lat="42.675887" lon="-6.998428">
        <ele>740.7</ele>
        <time>2022-08-21T08:29:19Z</time>
      </trkpt>
      <trkpt lat="42.676016" lon="-6.998615">
        <ele>743.8</ele>
        <time>2022-08-21T08:29:35Z</time>
      </trkpt>
      <trkpt lat="42.676130" lon="-6.998803">
        <ele>742.5</ele>
        <time>2022-08-21T08:29:48Z</time>
      </trkpt>
      <trkpt lat="42.676194" lon="-6.999043">
        <ele>746.7</ele>
        <time>2022-08-21T08:30:05Z</time>
      </trkpt>
      <trkpt lat="42.676251" lon="-6.999298">
        <ele>748.8</ele>
        <time>2022-08-21T08:30:20Z</time>
      </trkpt>
      <trkpt lat="42.676318" lon="-6.999531">
        <ele>752.8</ele>
        <time>2022-08-21T08:30:32Z</time>
      </trkpt>
      <trkpt lat="42.676422" lon="-6.999738">
        <ele>753.7</ele>
        <time>2022-08-21T08:30:45Z</time>
      </trkpt>
      <trkpt lat="42.676488" lon="-6.999971">
        <ele>753.8</ele>
        <time>2022-08-21T08:30:58Z</time>
      </trkpt>
      <trkpt lat="42.676646" lon="-7.000121">
        <ele>754.8</ele>
        <time>2022-08-21T08:31:12Z</time>
      </trkpt>
      <trkpt lat="42.676821" lon="-7.000200">
        <ele>757.8</ele>
        <time>2022-08-21T08:31:25Z</time>
      </trkpt>
      <trkpt lat="42.677003" lon="-7.000225">
        <ele>759.5</ele>
        <time>2022-08-21T08:31:39Z</time>
      </trkpt>
      <trkpt lat="42.677181" lon="-7.000193">
        <ele>761.5</ele>
        <time>2022-08-21T08:31:54Z</time>
      </trkpt>
      <trkpt lat="42.677366" lon="-7.000161">
        <ele>765.8</ele>
        <time>2022-08-21T08:32:07Z</time>
      </trkpt>
      <trkpt lat="42.677530" lon="-7.000270">
        <ele>766.8</ele>
        <time>2022-08-21T08:32:27Z</time>
      </trkpt>
      <trkpt lat="42.677689" lon="-7.000410">
        <ele>761.9</ele>
        <time>2022-08-21T08:32:46Z</time>
      </trkpt>
      <trkpt lat="42.677838" lon="-7.000583">
        <ele>761.1</ele>
        <time>2022-08-21T08:33:03Z</time>
      </trkpt>
      <trkpt lat="42.677999" lon="-7.000695">
        <ele>760.8</ele>
        <time>2022-08-21T08:33:14Z</time>
      </trkpt>
      <trkpt lat="42.678157" lon="-7.000830">
        <ele>759.9</ele>
        <time>2022-08-21T08:33:30Z</time>
      </trkpt>
      <trkpt lat="42.678308" lon="-7.000967">
        <ele>759.8</ele>
        <time>2022-08-21T08:33:44Z</time>
      </trkpt>
      <trkpt lat="42.678461" lon="-7.001115">
        <ele>758.8</ele>
        <time>2022-08-21T08:33:56Z</time>
      </trkpt>
      <trkpt lat="42.678620" lon="-7.001229">
        <ele>758.8</ele>
        <time>2022-08-21T08:34:11Z</time>
      </trkpt>
      <trkpt lat="42.678733" lon="-7.001441">
        <ele>756.8</ele>
        <time>2022-08-21T08:34:26Z</time>
      </trkpt>
      <trkpt lat="42.678838" lon="-7.001640">
        <ele>754.8</ele>
        <time>2022-08-21T08:34:38Z</time>
      </trkpt>
      <trkpt lat="42.678986" lon="-7.001800">
        <ele>753.8</ele>
        <time>2022-08-21T08:34:51Z</time>
      </trkpt>
      <trkpt lat="42.679132" lon="-7.001949">
        <ele>752.8</ele>
        <time>2022-08-21T08:35:05Z</time>
      </trkpt>
      <trkpt lat="42.679249" lon="-7.002135">
        <ele>752.8</ele>
        <time>2022-08-21T08:35:22Z</time>
      </trkpt>
      <trkpt lat="42.679358" lon="-7.002333">
        <ele>751.5</ele>
        <time>2022-08-21T08:35:38Z</time>
      </trkpt>
      <trkpt lat="42.679488" lon="-7.002506">
        <ele>749.8</ele>
        <time>2022-08-21T08:35:49Z</time>
      </trkpt>
      <trkpt lat="42.679647" lon="-7.002624">
        <ele>749.8</ele>
        <time>2022-08-21T08:36:09Z</time>
      </trkpt>
      <trkpt lat="42.679753" lon="-7.002823">
        <ele>746.8</ele>
        <time>2022-08-21T08:36:24Z</time>
      </trkpt>
      <trkpt lat="42.679895" lon="-7.002979">
        <ele>747.7</ele>
        <time>2022-08-21T08:36:36Z</time>
      </trkpt>
      <trkpt lat="42.680034" lon="-7.003148">
        <ele>750.8</ele>
        <time>2022-08-21T08:36:49Z</time>
      </trkpt>
      <trkpt lat="42.680174" lon="-7.003305">
        <ele>750.8</ele>
        <time>2022-08-21T08:37:09Z</time>
      </trkpt>
      <trkpt lat="42.680218" lon="-7.003544">
        <ele>752.8</ele>
        <time>2022-08-21T08:37:26Z</time>
      </trkpt>
      <trkpt lat="42.680039" lon="-7.003579">
        <ele>754.8</ele>
        <time>2022-08-21T08:37:55Z</time>
      </trkpt>
      <trkpt lat="42.679853" lon="-7.003554">
        <ele>758.4</ele>
        <time>2022-08-21T08:38:18Z</time>
      </trkpt>
      <trkpt lat="42.679874" lon="-7.003800">
        <ele>764.8</ele>
        <time>2022-08-21T08:38:53Z</time>
      </trkpt>
      <trkpt lat="42.679983" lon="-7.004000">
        <ele>765.8</ele>
        <time>2022-08-21T08:39:11Z</time>
      </trkpt>
      <trkpt lat="42.680097" lon="-7.004207">
        <ele>770.5</ele>
        <time>2022-08-21T08:39:32Z</time>
      </trkpt>
      <trkpt lat="42.680266" lon="-7.004292">
        <ele>772.8</ele>
        <time>2022-08-21T08:39:50Z</time>
      </trkpt>
      <trkpt lat="42.680402" lon="-7.004458">
        <ele>776.8</ele>
        <time>2022-08-21T08:40:13Z</time>
      </trkpt>
      <trkpt lat="42.680546" lon="-7.004608">
        <ele>779.8</ele>
        <time>2022-08-21T08:40:35Z</time>
      </trkpt>
      <trkpt lat="42.680679" lon="-7.004804">
        <ele>785.4</ele>
        <time>2022-08-21T08:40:51Z</time>
      </trkpt>
      <trkpt lat="42.680833" lon="-7.004948">
        <ele>790.7</ele>
        <time>2022-08-21T08:41:08Z</time>
      </trkpt>
      <trkpt lat="42.680990" lon="-7.005080">
        <ele>796.8</ele>
        <time>2022-08-21T08:41:25Z</time>
      </trkpt>
      <trkpt lat="42.681142" lon="-7.005216">
        <ele>802.7</ele>
        <time>2022-08-21T08:41:41Z</time>
      </trkpt>
      <trkpt lat="42.681289" lon="-7.005372">
        <ele>807.8</ele>
        <time>2022-08-21T08:41:59Z</time>
      </trkpt>
      <trkpt lat="42.681413" lon="-7.005554">
        <ele>804.9</ele>
        <time>2022-08-21T08:42:15Z</time>
      </trkpt>
      <trkpt lat="42.681506" lon="-7.005802">
        <ele>802.2</ele>
        <time>2022-08-21T08:42:36Z</time>
      </trkpt>
      <trkpt lat="42.681553" lon="-7.006043">
        <ele>806.7</ele>
        <time>2022-08-21T08:42:51Z</time>
      </trkpt>
      <trkpt lat="42.681682" lon="-7.006224">
        <ele>810.8</ele>
        <time>2022-08-21T08:43:15Z</time>
      </trkpt>
      <trkpt lat="42.681732" lon="-7.005976">
        <ele>826.7</ele>
        <time>2022-08-21T08:44:38Z</time>
      </trkpt>
      <trkpt lat="42.681896" lon="-7.006087">
        <ele>829.8</ele>
        <time>2022-08-21T08:44:59Z</time>
      </trkpt>
      <trkpt lat="42.682029" lon="-7.006260">
        <ele>831.8</ele>
        <time>2022-08-21T08:45:20Z</time>
      </trkpt>
      <trkpt lat="42.682183" lon="-7.006390">
        <ele>838.8</ele>
        <time>2022-08-21T08:45:42Z</time>
      </trkpt>
      <trkpt lat="42.682276" lon="-7.006600">
        <ele>840.7</ele>
        <time>2022-08-21T08:46:05Z</time>
      </trkpt>
      <trkpt lat="42.682374" lon="-7.006809">
        <ele>844.8</ele>
        <time>2022-08-21T08:46:31Z</time>
      </trkpt>
      <trkpt lat="42.682541" lon="-7.006921">
        <ele>848.8</ele>
        <time>2022-08-21T08:46:53Z</time>
      </trkpt>
      <trkpt lat="42.682677" lon="-7.007087">
        <ele>851.5</ele>
        <time>2022-08-21T08:47:16Z</time>
      </trkpt>
      <trkpt lat="42.682785" lon="-7.007294">
        <ele>865.8</ele>
        <time>2022-08-21T08:47:44Z</time>
      </trkpt>
      <trkpt lat="42.682939" lon="-7.007422">
        <ele>867.7</ele>
        <time>2022-08-21T08:48:01Z</time>
      </trkpt>
      <trkpt lat="42.683071" lon="-7.007588">
        <ele>867.8</ele>
        <time>2022-08-21T08:48:22Z</time>
      </trkpt>
      <trkpt lat="42.683211" lon="-7.007755">
        <ele>870.8</ele>
        <time>2022-08-21T08:48:43Z</time>
      </trkpt>
      <trkpt lat="42.683385" lon="-7.007824">
        <ele>874.5</ele>
        <time>2022-08-21T08:49:00Z</time>
      </trkpt>
      <trkpt lat="42.683358" lon="-7.007580">
        <ele>879.8</ele>
        <time>2022-08-21T08:49:38Z</time>
      </trkpt>
      <trkpt lat="42.683435" lon="-7.007342">
        <ele>881.2</ele>
        <time>2022-08-21T08:49:56Z</time>
      </trkpt>
      <trkpt lat="42.683613" lon="-7.007409">
        <ele>902.9</ele>
        <time>2022-08-21T08:50:10Z</time>
      </trkpt>
      <trkpt lat="42.683768" lon="-7.007534">
        <ele>902.9</ele>
        <time>2022-08-21T08:50:26Z</time>
      </trkpt>
      <trkpt lat="42.683905" lon="-7.007694">
        <ele>889.8</ele>
        <time>2022-08-21T08:50:50Z</time>
      </trkpt>
      <trkpt lat="42.684044" lon="-7.007851">
        <ele>890.5</ele>
        <time>2022-08-21T08:51:08Z</time>
      </trkpt>
      <trkpt lat="42.684162" lon="-7.008040">
        <ele>897.8</ele>
        <time>2022-08-21T08:51:25Z</time>
      </trkpt>
      <trkpt lat="42.684205" lon="-7.008281">
        <ele>901.6</ele>
        <time>2022-08-21T08:51:39Z</time>
      </trkpt>
      <trkpt lat="42.684250" lon="-7.008523">
        <ele>902.1</ele>
        <time>2022-08-21T08:51:55Z</time>
      </trkpt>
      <trkpt lat="42.684318" lon="-7.008750">
        <ele>902.8</ele>
        <time>2022-08-21T08:52:13Z</time>
      </trkpt>
      <trkpt lat="42.684484" lon="-7.008851">
        <ele>904.8</ele>
        <time>2022-08-21T08:52:31Z</time>
      </trkpt>
      <trkpt lat="42.684648" lon="-7.008961">
        <ele>908.8</ele>
        <time>2022-08-21T08:53:01Z</time>
      </trkpt>
      <trkpt lat="42.684637" lon="-7.009220">
        <ele>909.8</ele>
        <time>2022-08-21T08:53:21Z</time>
      </trkpt>
      <trkpt lat="42.684725" lon="-7.009440">
        <ele>911.8</ele>
        <time>2022-08-21T08:53:38Z</time>
      </trkpt>
      <trkpt lat="42.684882" lon="-7.009572">
        <ele>912.8</ele>
        <time>2022-08-21T08:53:57Z</time>
      </trkpt>
      <trkpt lat="42.685066" lon="-7.009640">
        <ele>919.5</ele>
        <time>2022-08-21T08:54:15Z</time>
      </trkpt>
      <trkpt lat="42.685174" lon="-7.009843">
        <ele>919.5</ele>
        <time>2022-08-21T08:54:28Z</time>
      </trkpt>
      <trkpt lat="42.685316" lon="-7.009998">
        <ele>919.5</ele>
        <time>2022-08-21T08:54:52Z</time>
      </trkpt>
      <trkpt lat="42.685489" lon="-7.010076">
        <ele>919.5</ele>
        <time>2022-08-21T08:55:07Z</time>
      </trkpt>
      <trkpt lat="42.685628" lon="-7.010242">
        <ele>919.5</ele>
        <time>2022-08-21T08:55:21Z</time>
      </trkpt>
      <trkpt lat="42.685759" lon="-7.010413">
        <ele>919.5</ele>
        <time>2022-08-21T08:55:36Z</time>
      </trkpt>
      <trkpt lat="42.685946" lon="-7.010475">
        <ele>919.5</ele>
        <time>2022-08-21T08:56:00Z</time>
      </trkpt>
      <trkpt lat="42.686100" lon="-7.010623">
        <ele>931.1</ele>
        <time>2022-08-21T08:56:19Z</time>
      </trkpt>
      <trkpt lat="42.686279" lon="-7.010650">
        <ele>931.1</ele>
        <time>2022-08-21T08:56:35Z</time>
      </trkpt>
      <trkpt lat="42.686411" lon="-7.010821">
        <ele>931.1</ele>
        <time>2022-08-21T08:57:43Z</time>
      </trkpt>
      <trkpt lat="42.686550" lon="-7.010995">
        <ele>931.1</ele>
        <time>2022-08-21T08:57:56Z</time>
      </trkpt>
      <trkpt lat="42.686681" lon="-7.011174">
        <ele>931.1</ele>
        <time>2022-08-21T08:58:16Z</time>
      </trkpt>
      <trkpt lat="42.686790" lon="-7.011371">
        <ele>931.1</ele>
        <time>2022-08-21T08:58:34Z</time>
      </trkpt>
      <trkpt lat="42.686890" lon="-7.011580">
        <ele>931.1</ele>
        <time>2022-08-21T08:58:53Z</time>
      </trkpt>
      <trkpt lat="42.686960" lon="-7.011807">
        <ele>931.1</ele>
        <time>2022-08-21T08:59:11Z</time>
      </trkpt>
      <trkpt lat="42.686834" lon="-7.012015">
        <ele>940.8</ele>
        <time>2022-08-21T08:59:28Z</time>
      </trkpt>
      <trkpt lat="42.686732" lon="-7.012225">
        <ele>944.8</ele>
        <time>2022-08-21T08:59:46Z</time>
      </trkpt>
      <trkpt lat="42.686612" lon="-7.012411">
        <ele>944.8</ele>
        <time>2022-08-21T09:00:01Z</time>
      </trkpt>
      <trkpt lat="42.686700" lon="-7.012642">
        <ele>952.8</ele>
        <time>2022-08-21T09:00:29Z</time>
      </trkpt>
      <trkpt lat="42.686825" lon="-7.012830">
        <ele>956.4</ele>
        <time>2022-08-21T09:00:49Z</time>
      </trkpt>
      <trkpt lat="42.686985" lon="-7.012957">
        <ele>959.8</ele>
        <time>2022-08-21T09:01:06Z</time>
      </trkpt>
      <trkpt lat="42.687165" lon="-7.013041">
        <ele>960.8</ele>
        <time>2022-08-21T09:01:25Z</time>
      </trkpt>
      <trkpt lat="42.687349" lon="-7.013059">
        <ele>959.8</ele>
        <time>2022-08-21T09:01:40Z</time>
      </trkpt>
      <trkpt lat="42.687490" lon="-7.012884">
        <ele>963.8</ele>
        <time>2022-08-21T09:01:55Z</time>
      </trkpt>
      <trkpt lat="42.687642" lon="-7.012751">
        <ele>965.5</ele>
        <time>2022-08-21T09:02:14Z</time>
      </trkpt>
      <trkpt lat="42.687810" lon="-7.012651">
        <ele>966.8</ele>
        <time>2022-08-21T09:02:29Z</time>
      </trkpt>
      <trkpt lat="42.687993" lon="-7.012637">
        <ele>965.8</ele>
        <time>2022-08-21T09:02:43Z</time>
      </trkpt>
      <trkpt lat="42.688169" lon="-7.012686">
        <ele>967.8</ele>
        <time>2022-08-21T09:03:00Z</time>
      </trkpt>
      <trkpt lat="42.688341" lon="-7.012756">
        <ele>970.8</ele>
        <time>2022-08-21T09:03:16Z</time>
      </trkpt>
      <trkpt lat="42.688522" lon="-7.012801">
        <ele>972.8</ele>
        <time>2022-08-21T09:03:31Z</time>
      </trkpt>
      <trkpt lat="42.688711" lon="-7.012835">
        <ele>973.8</ele>
        <time>2022-08-21T09:03:47Z</time>
      </trkpt>
      <trkpt lat="42.688892" lon="-7.012891">
        <ele>976.5</ele>
        <time>2022-08-21T09:04:05Z</time>
      </trkpt>
      <trkpt lat="42.689067" lon="-7.012981">
        <ele>979.5</ele>
        <time>2022-08-21T09:04:23Z</time>
      </trkpt>
      <trkpt lat="42.689182" lon="-7.013172">
        <ele>980.8</ele>
        <time>2022-08-21T09:04:37Z</time>
      </trkpt>
      <trkpt lat="42.689232" lon="-7.013410">
        <ele>982.8</ele>
        <time>2022-08-21T09:04:58Z</time>
      </trkpt>
      <trkpt lat="42.689324" lon="-7.013621">
        <ele>985.7</ele>
        <time>2022-08-21T09:05:17Z</time>
      </trkpt>
      <trkpt lat="42.689416" lon="-7.013834">
        <ele>988.8</ele>
        <time>2022-08-21T09:05:36Z</time>
      </trkpt>
      <trkpt lat="42.689532" lon="-7.014030">
        <ele>991.6</ele>
        <time>2022-08-21T09:05:52Z</time>
      </trkpt>
      <trkpt lat="42.689632" lon="-7.014235">
        <ele>995.7</ele>
        <time>2022-08-21T09:06:12Z</time>
      </trkpt>
      <trkpt lat="42.689759" lon="-7.014427">
        <ele>998.5</ele>
        <time>2022-08-21T09:06:36Z</time>
      </trkpt>
      <trkpt lat="42.689858" lon="-7.014641">
        <ele>1000.8</ele>
        <time>2022-08-21T09:06:52Z</time>
      </trkpt>
      <trkpt lat="42.689987" lon="-7.014814">
        <ele>1003.7</ele>
        <time>2022-08-21T09:07:09Z</time>
      </trkpt>
      <trkpt lat="42.690145" lon="-7.014963">
        <ele>1008.7</ele>
        <time>2022-08-21T09:07:27Z</time>
      </trkpt>
      <trkpt lat="42.690315" lon="-7.015043">
        <ele>1007.8</ele>
        <time>2022-08-21T09:07:49Z</time>
      </trkpt>
      <trkpt lat="42.690496" lon="-7.015042">
        <ele>1011.8</ele>
        <time>2022-08-21T09:08:10Z</time>
      </trkpt>
      <trkpt lat="42.690675" lon="-7.015074">
        <ele>1015.8</ele>
        <time>2022-08-21T09:08:24Z</time>
      </trkpt>
      <trkpt lat="42.690855" lon="-7.015118">
        <ele>1018.8</ele>
        <time>2022-08-21T09:08:42Z</time>
      </trkpt>
      <trkpt lat="42.691037" lon="-7.015113">
        <ele>1019.8</ele>
        <time>2022-08-21T09:09:01Z</time>
      </trkpt>
      <trkpt lat="42.691214" lon="-7.015186">
        <ele>1018.8</ele>
        <time>2022-08-21T09:09:21Z</time>
      </trkpt>
      <trkpt lat="42.691400" lon="-7.015238">
        <ele>1019.7</ele>
        <time>2022-08-21T09:09:40Z</time>
      </trkpt>
      <trkpt lat="42.691582" lon="-7.015285">
        <ele>1021.8</ele>
        <time>2022-08-21T09:09:56Z</time>
      </trkpt>
      <trkpt lat="42.691754" lon="-7.015375">
        <ele>1025.8</ele>
        <time>2022-08-21T09:10:17Z</time>
      </trkpt>
      <trkpt lat="42.691910" lon="-7.015499">
        <ele>1025.8</ele>
        <time>2022-08-21T09:10:33Z</time>
      </trkpt>
      <trkpt lat="42.692069" lon="-7.015629">
        <ele>1029.8</ele>
        <time>2022-08-21T09:10:47Z</time>
      </trkpt>
      <trkpt lat="42.692187" lon="-7.015839">
        <ele>1033.8</ele>
        <time>2022-08-21T09:11:11Z</time>
      </trkpt>
      <trkpt lat="42.692256" lon="-7.016066">
        <ele>1033.8</ele>
        <time>2022-08-21T09:11:27Z</time>
      </trkpt>
      <trkpt lat="42.692325" lon="-7.016299">
        <ele>1037.8</ele>
        <time>2022-08-21T09:11:46Z</time>
      </trkpt>
      <trkpt lat="42.692444" lon="-7.016483">
        <ele>1039.8</ele>
        <time>2022-08-21T09:12:03Z</time>
      </trkpt>
      <trkpt lat="42.692551" lon="-7.016691">
        <ele>1042.8</ele>
        <time>2022-08-21T09:12:21Z</time>
      </trkpt>
      <trkpt lat="42.692610" lon="-7.016934">
        <ele>1048.5</ele>
        <time>2022-08-21T09:12:38Z</time>
      </trkpt>
      <trkpt lat="42.692724" lon="-7.017140">
        <ele>1049.7</ele>
        <time>2022-08-21T09:12:54Z</time>
      </trkpt>
      <trkpt lat="42.692866" lon="-7.017297">
        <ele>1054.8</ele>
        <time>2022-08-21T09:13:11Z</time>
      </trkpt>
      <trkpt lat="42.692976" lon="-7.017496">
        <ele>1054.8</ele>
        <time>2022-08-21T09:13:30Z</time>
      </trkpt>
      <trkpt lat="42.693130" lon="-7.017633">
        <ele>1054.5</ele>
        <time>2022-08-21T09:13:43Z</time>
      </trkpt>
      <trkpt lat="42.693271" lon="-7.017784">
        <ele>1058.8</ele>
        <time>2022-08-21T09:13:59Z</time>
      </trkpt>
      <trkpt lat="42.693422" lon="-7.017924">
        <ele>1060.9</ele>
        <time>2022-08-21T09:14:16Z</time>
      </trkpt>
      <trkpt lat="42.693587" lon="-7.018041">
        <ele>1060.8</ele>
        <time>2022-08-21T09:14:32Z</time>
      </trkpt>
      <trkpt lat="42.693770" lon="-7.018117">
        <ele>1060.8</ele>
        <time>2022-08-21T09:14:56Z</time>
      </trkpt>
      <trkpt lat="42.693946" lon="-7.018190">
        <ele>1063.8</ele>
        <time>2022-08-21T09:15:14Z</time>
      </trkpt>
      <trkpt lat="42.694128" lon="-7.018229">
        <ele>1063.7</ele>
        <time>2022-08-21T09:15:39Z</time>
      </trkpt>
      <trkpt lat="42.694303" lon="-7.018307">
        <ele>1065.5</ele>
        <time>2022-08-21T09:15:54Z</time>
      </trkpt>
      <trkpt lat="42.694481" lon="-7.018366">
        <ele>1062.9</ele>
        <time>2022-08-21T09:16:09Z</time>
      </trkpt>
      <trkpt lat="42.694661" lon="-7.018427">
        <ele>1061.8</ele>
        <time>2022-08-21T09:16:27Z</time>
      </trkpt>
      <trkpt lat="42.694835" lon="-7.018517">
        <ele>1060.8</ele>
        <time>2022-08-21T09:16:43Z</time>
      </trkpt>
      <trkpt lat="42.695009" lon="-7.018599">
        <ele>1059.1</ele>
        <time>2022-08-21T09:16:59Z</time>
      </trkpt>
      <trkpt lat="42.695191" lon="-7.018573">
        <ele>1059.8</ele>
        <time>2022-08-21T09:17:12Z</time>
      </trkpt>
      <trkpt lat="42.695375" lon="-7.018546">
        <ele>1061.8</ele>
        <time>2022-08-21T09:17:29Z</time>
      </trkpt>
      <trkpt lat="42.695563" lon="-7.018493">
        <ele>1064.8</ele>
        <time>2022-08-21T09:17:45Z</time>
      </trkpt>
      <trkpt lat="42.695744" lon="-7.018481">
        <ele>1068.1</ele>
        <time>2022-08-21T09:18:05Z</time>
      </trkpt>
      <trkpt lat="42.695926" lon="-7.018451">
        <ele>1068.8</ele>
        <time>2022-08-21T09:18:22Z</time>
      </trkpt>
      <trkpt lat="42.696104" lon="-7.018490">
        <ele>1069.8</ele>
        <time>2022-08-21T09:18:38Z</time>
      </trkpt>
      <trkpt lat="42.696283" lon="-7.018436">
        <ele>1070.8</ele>
        <time>2022-08-21T09:18:57Z</time>
      </trkpt>
      <trkpt lat="42.696462" lon="-7.018461">
        <ele>1073.5</ele>
        <time>2022-08-21T09:19:17Z</time>
      </trkpt>
      <trkpt lat="42.696613" lon="-7.018603">
        <ele>1077.8</ele>
        <time>2022-08-21T09:19:36Z</time>
      </trkpt>
      <trkpt lat="42.696755" lon="-7.018765">
        <ele>1080.5</ele>
        <time>2022-08-21T09:19:51Z</time>
      </trkpt>
      <trkpt lat="42.696908" lon="-7.018896">
        <ele>1084.8</ele>
        <time>2022-08-21T09:21:29Z</time>
      </trkpt>
      <trkpt lat="42.697021" lon="-7.019089">
        <ele>1087.8</ele>
        <time>2022-08-21T09:21:47Z</time>
      </trkpt>
      <trkpt lat="42.697139" lon="-7.019294">
        <ele>1089.8</ele>
        <time>2022-08-21T09:22:06Z</time>
      </trkpt>
      <trkpt lat="42.697269" lon="-7.019469">
        <ele>1091.8</ele>
        <time>2022-08-21T09:22:24Z</time>
      </trkpt>
      <trkpt lat="42.697435" lon="-7.019585">
        <ele>1095.7</ele>
        <time>2022-08-21T09:22:39Z</time>
      </trkpt>
      <trkpt lat="42.697582" lon="-7.019749">
        <ele>1097.8</ele>
        <time>2022-08-21T09:22:57Z</time>
      </trkpt>
      <trkpt lat="42.697733" lon="-7.019892">
        <ele>1101.8</ele>
        <time>2022-08-21T09:23:20Z</time>
      </trkpt>
      <trkpt lat="42.697899" lon="-7.019994">
        <ele>1100.8</ele>
        <time>2022-08-21T09:23:38Z</time>
      </trkpt>
      <trkpt lat="42.698065" lon="-7.020092">
        <ele>1103.6</ele>
        <time>2022-08-21T09:24:36Z</time>
      </trkpt>
      <trkpt lat="42.698250" lon="-7.020151">
        <ele>1102.5</ele>
        <time>2022-08-21T09:24:53Z</time>
      </trkpt>
      <trkpt lat="42.698425" lon="-7.020094">
        <ele>1103.5</ele>
        <time>2022-08-21T09:25:08Z</time>
      </trkpt>
      <trkpt lat="42.698596" lon="-7.020013">
        <ele>1103.8</ele>
        <time>2022-08-21T09:25:22Z</time>
      </trkpt>
      <trkpt lat="42.698770" lon="-7.019924">
        <ele>1104.8</ele>
        <time>2022-08-21T09:25:42Z</time>
      </trkpt>
      <trkpt lat="42.698936" lon="-7.019818">
        <ele>1106.7</ele>
        <time>2022-08-21T09:25:58Z</time>
      </trkpt>
      <trkpt lat="42.699118" lon="-7.019798">
        <ele>1109.8</ele>
        <time>2022-08-21T09:26:14Z</time>
      </trkpt>
      <trkpt lat="42.699293" lon="-7.019871">
        <ele>1112.5</ele>
        <time>2022-08-21T09:26:40Z</time>
      </trkpt>
      <trkpt lat="42.699453" lon="-7.019984">
        <ele>1120.8</ele>
        <time>2022-08-21T09:27:05Z</time>
      </trkpt>
      <trkpt lat="42.699607" lon="-7.020121">
        <ele>1122.8</ele>
        <time>2022-08-21T09:27:27Z</time>
      </trkpt>
      <trkpt lat="42.699765" lon="-7.020251">
        <ele>1139.5</ele>
        <time>2022-08-21T09:27:53Z</time>
      </trkpt>
      <trkpt lat="42.699917" lon="-7.020385">
        <ele>1164.4</ele>
        <time>2022-08-21T09:28:08Z</time>
      </trkpt>
      <trkpt lat="42.700097" lon="-7.020451">
        <ele>1164.4</ele>
        <time>2022-08-21T09:28:27Z</time>
      </trkpt>
      <trkpt lat="42.700268" lon="-7.020544">
        <ele>1164.4</ele>
        <time>2022-08-21T09:28:45Z</time>
      </trkpt>
      <trkpt lat="42.700422" lon="-7.020683">
        <ele>1164.4</ele>
        <time>2022-08-21T09:29:00Z</time>
      </trkpt>
      <trkpt lat="42.700586" lon="-7.020794">
        <ele>1164.4</ele>
        <time>2022-08-21T09:29:19Z</time>
      </trkpt>
      <trkpt lat="42.700738" lon="-7.020943">
        <ele>1164.4</ele>
        <time>2022-08-21T09:29:39Z</time>
      </trkpt>
      <trkpt lat="42.700904" lon="-7.021057">
        <ele>1164.4</ele>
        <time>2022-08-21T09:29:59Z</time>
      </trkpt>
      <trkpt lat="42.701058" lon="-7.021184">
        <ele>1164.4</ele>
        <time>2022-08-21T09:30:14Z</time>
      </trkpt>
      <trkpt lat="42.701116" lon="-7.021417">
        <ele>1164.4</ele>
        <time>2022-08-21T09:30:37Z</time>
      </trkpt>
      <trkpt lat="42.701169" lon="-7.021654">
        <ele>1164.4</ele>
        <time>2022-08-21T09:30:54Z</time>
      </trkpt>
      <trkpt lat="42.701241" lon="-7.021897">
        <ele>1154.8</ele>
        <time>2022-08-21T09:31:14Z</time>
      </trkpt>
      <trkpt lat="42.701316" lon="-7.022123">
        <ele>1165.5</ele>
        <time>2022-08-21T09:31:30Z</time>
      </trkpt>
      <trkpt lat="42.701491" lon="-7.022197">
        <ele>1164.8</ele>
        <time>2022-08-21T09:32:26Z</time>
      </trkpt>
      <trkpt lat="42.701621" lon="-7.022379">
        <ele>1165.7</ele>
        <time>2022-08-21T09:32:37Z</time>
      </trkpt>
      <trkpt lat="42.701783" lon="-7.022522">
        <ele>1169.8</ele>
        <time>2022-08-21T09:32:53Z</time>
      </trkpt>
      <trkpt lat="42.701949" lon="-7.022658">
        <ele>1160.8</ele>
        <time>2022-08-21T09:33:06Z</time>
      </trkpt>
      <trkpt lat="42.702116" lon="-7.022756">
        <ele>1159.8</ele>
        <time>2022-08-21T09:33:20Z</time>
      </trkpt>
      <trkpt lat="42.702254" lon="-7.022931">
        <ele>1162.7</ele>
        <time>2022-08-21T09:33:35Z</time>
      </trkpt>
      <trkpt lat="42.702415" lon="-7.023064">
        <ele>1165.8</ele>
        <time>2022-08-21T09:33:50Z</time>
      </trkpt>
      <trkpt lat="42.702544" lon="-7.023253">
        <ele>1165.8</ele>
        <time>2022-08-21T09:34:07Z</time>
      </trkpt>
      <trkpt lat="42.702720" lon="-7.023359">
        <ele>1165.8</ele>
        <time>2022-08-21T09:34:23Z</time>
      </trkpt>
      <trkpt lat="42.702871" lon="-7.023504">
        <ele>1167.8</ele>
        <time>2022-08-21T09:34:37Z</time>
      </trkpt>
      <trkpt lat="42.702995" lon="-7.023691">
        <ele>1168.8</ele>
        <time>2022-08-21T09:34:51Z</time>
      </trkpt>
      <trkpt lat="42.703151" lon="-7.023826">
        <ele>1171.8</ele>
        <time>2022-08-21T09:35:04Z</time>
      </trkpt>
      <trkpt lat="42.703316" lon="-7.023937">
        <ele>1172.8</ele>
        <time>2022-08-21T09:35:22Z</time>
      </trkpt>
      <trkpt lat="42.703475" lon="-7.024051">
        <ele>1173.5</ele>
        <time>2022-08-21T09:35:37Z</time>
      </trkpt>
      <trkpt lat="42.703649" lon="-7.024123">
        <ele>1174.8</ele>
        <time>2022-08-21T09:35:49Z</time>
      </trkpt>
      <trkpt lat="42.703815" lon="-7.024226">
        <ele>1176.8</ele>
        <time>2022-08-21T09:36:03Z</time>
      </trkpt>
      <trkpt lat="42.703967" lon="-7.024375">
        <ele>1175.8</ele>
        <time>2022-08-21T09:36:19Z</time>
      </trkpt>
      <trkpt lat="42.704106" lon="-7.024533">
        <ele>1175.8</ele>
        <time>2022-08-21T09:36:35Z</time>
      </trkpt>
      <trkpt lat="42.704250" lon="-7.024694">
        <ele>1177.5</ele>
        <time>2022-08-21T09:36:50Z</time>
      </trkpt>
      <trkpt lat="42.704392" lon="-7.024845">
        <ele>1177.8</ele>
        <time>2022-08-21T09:37:05Z</time>
      </trkpt>
      <trkpt lat="42.704541" lon="-7.024993">
        <ele>1180.8</ele>
        <time>2022-08-21T09:37:22Z</time>
      </trkpt>
      <trkpt lat="42.704673" lon="-7.025168">
        <ele>1181.8</ele>
        <time>2022-08-21T09:37:38Z</time>
      </trkpt>
      <trkpt lat="42.704810" lon="-7.025336">
        <ele>1183.8</ele>
        <time>2022-08-21T09:38:01Z</time>
      </trkpt>
      <trkpt lat="42.704949" lon="-7.025508">
        <ele>1187.5</ele>
        <time>2022-08-21T09:38:21Z</time>
      </trkpt>
      <trkpt lat="42.705088" lon="-7.025669">
        <ele>1188.8</ele>
        <time>2022-08-21T09:38:39Z</time>
      </trkpt>
      <trkpt lat="42.705229" lon="-7.025822">
        <ele>1193.8</ele>
        <time>2022-08-21T09:38:55Z</time>
      </trkpt>
      <trkpt lat="42.705391" lon="-7.025942">
        <ele>1197.7</ele>
        <time>2022-08-21T09:39:16Z</time>
      </trkpt>
      <trkpt lat="42.705543" lon="-7.026085">
        <ele>1199.8</ele>
        <time>2022-08-21T09:39:34Z</time>
      </trkpt>
      <trkpt lat="42.705682" lon="-7.026252">
        <ele>1201.1</ele>
        <time>2022-08-21T09:39:52Z</time>
      </trkpt>
      <trkpt lat="42.705841" lon="-7.026404">
        <ele>1202.5</ele>
        <time>2022-08-21T09:40:13Z</time>
      </trkpt>
      <trkpt lat="42.705854" lon="-7.026653">
        <ele>1201.8</ele>
        <time>2022-08-21T09:40:34Z</time>
      </trkpt>
      <trkpt lat="42.705811" lon="-7.026902">
        <ele>1199.8</ele>
        <time>2022-08-21T09:40:48Z</time>
      </trkpt>
      <trkpt lat="42.705805" lon="-7.027156">
        <ele>1207.8</ele>
        <time>2022-08-21T09:41:17Z</time>
      </trkpt>
      <trkpt lat="42.705824" lon="-7.027401">
        <ele>1208.8</ele>
        <time>2022-08-21T09:41:31Z</time>
      </trkpt>
      <trkpt lat="42.705861" lon="-7.027650">
        <ele>1210.8</ele>
        <time>2022-08-21T09:41:47Z</time>
      </trkpt>
      <trkpt lat="42.705925" lon="-7.027904">
        <ele>1209.8</ele>
        <time>2022-08-21T09:42:04Z</time>
      </trkpt>
      <trkpt lat="42.705981" lon="-7.028145">
        <ele>1210.5</ele>
        <time>2022-08-21T09:42:22Z</time>
      </trkpt>
      <trkpt lat="42.706071" lon="-7.028362">
        <ele>1211.8</ele>
        <time>2022-08-21T09:42:35Z</time>
      </trkpt>
      <trkpt lat="42.706168" lon="-7.028577">
        <ele>1214.1</ele>
        <time>2022-08-21T09:42:51Z</time>
      </trkpt>
      <trkpt lat="42.706286" lon="-7.028788">
        <ele>1214.8</ele>
        <time>2022-08-21T09:43:11Z</time>
      </trkpt>
      <trkpt lat="42.706407" lon="-7.028986">
        <ele>1216.5</ele>
        <time>2022-08-21T09:43:26Z</time>
      </trkpt>
      <trkpt lat="42.706482" lon="-7.029214">
        <ele>1217.5</ele>
        <time>2022-08-21T09:43:46Z</time>
      </trkpt>
      <trkpt lat="42.706550" lon="-7.029447">
        <ele>1219.8</ele>
        <time>2022-08-21T09:44:00Z</time>
      </trkpt>
      <trkpt lat="42.706638" lon="-7.029663">
        <ele>1222.1</ele>
        <time>2022-08-21T09:44:15Z</time>
      </trkpt>
      <trkpt lat="42.706531" lon="-7.029873">
        <ele>1221.8</ele>
        <time>2022-08-21T09:44:30Z</time>
      </trkpt>
      <trkpt lat="42.706376" lon="-7.030004">
        <ele>1220.8</ele>
        <time>2022-08-21T09:44:50Z</time>
      </trkpt>
      <trkpt lat="42.706210" lon="-7.030124">
        <ele>1223.7</ele>
        <time>2022-08-21T09:45:12Z</time>
      </trkpt>
      <trkpt lat="42.706065" lon="-7.030288">
        <ele>1227.8</ele>
        <time>2022-08-21T09:45:27Z</time>
      </trkpt>
      <trkpt lat="42.705941" lon="-7.030488">
        <ele>1229.8</ele>
        <time>2022-08-21T09:45:43Z</time>
      </trkpt>
      <trkpt lat="42.705813" lon="-7.030668">
        <ele>1230.7</ele>
        <time>2022-08-21T09:45:57Z</time>
      </trkpt>
      <trkpt lat="42.705808" lon="-7.030917">
        <ele>1233.7</ele>
        <time>2022-08-21T09:46:19Z</time>
      </trkpt>
      <trkpt lat="42.705873" lon="-7.031154">
        <ele>1238.8</ele>
        <time>2022-08-21T09:46:35Z</time>
      </trkpt>
      <trkpt lat="42.705903" lon="-7.031401">
        <ele>1239.8</ele>
        <time>2022-08-21T09:46:54Z</time>
      </trkpt>
      <trkpt lat="42.705994" lon="-7.031621">
        <ele>1242.7</ele>
        <time>2022-08-21T09:47:07Z</time>
      </trkpt>
      <trkpt lat="42.706115" lon="-7.031817">
        <ele>1244.8</ele>
        <time>2022-08-21T09:47:21Z</time>
      </trkpt>
      <trkpt lat="42.706250" lon="-7.031981">
        <ele>1244.8</ele>
        <time>2022-08-21T09:47:36Z</time>
      </trkpt>
      <trkpt lat="42.706393" lon="-7.032147">
        <ele>1245.9</ele>
        <time>2022-08-21T09:47:54Z</time>
      </trkpt>
      <trkpt lat="42.706519" lon="-7.032341">
        <ele>1243.8</ele>
        <time>2022-08-21T09:48:11Z</time>
      </trkpt>
      <trkpt lat="42.706662" lon="-7.032491">
        <ele>1245.8</ele>
        <time>2022-08-21T09:48:26Z</time>
      </trkpt>
      <trkpt lat="42.706810" lon="-7.032646">
        <ele>1247.7</ele>
        <time>2022-08-21T09:48:45Z</time>
      </trkpt>
      <trkpt lat="42.706946" lon="-7.032822">
        <ele>1248.8</ele>
        <time>2022-08-21T09:48:57Z</time>
      </trkpt>
      <trkpt lat="42.707125" lon="-7.032916">
        <ele>1248.8</ele>
        <time>2022-08-21T09:49:09Z</time>
      </trkpt>
      <trkpt lat="42.707277" lon="-7.033051">
        <ele>1249.7</ele>
        <time>2022-08-21T09:49:23Z</time>
      </trkpt>
      <trkpt lat="42.707372" lon="-7.033273">
        <ele>1249.1</ele>
        <time>2022-08-21T09:49:38Z</time>
      </trkpt>
      <trkpt lat="42.707439" lon="-7.033503">
        <ele>1274.1</ele>
        <time>2022-08-21T09:49:52Z</time>
      </trkpt>
      <trkpt lat="42.707580" lon="-7.033658">
        <ele>1250.2</ele>
        <time>2022-08-21T09:50:08Z</time>
      </trkpt>
      <trkpt lat="42.707610" lon="-7.033906">
        <ele>1253.7</ele>
        <time>2022-08-21T09:50:22Z</time>
      </trkpt>
      <trkpt lat="42.707624" lon="-7.034150">
        <ele>1254.8</ele>
        <time>2022-08-21T09:50:36Z</time>
      </trkpt>
      <trkpt lat="42.707669" lon="-7.034394">
        <ele>1256.8</ele>
        <time>2022-08-21T09:50:50Z</time>
      </trkpt>
      <trkpt lat="42.707707" lon="-7.034638">
        <ele>1258.5</ele>
        <time>2022-08-21T09:51:08Z</time>
      </trkpt>
      <trkpt lat="42.707802" lon="-7.034866">
        <ele>1260.8</ele>
        <time>2022-08-21T09:51:23Z</time>
      </trkpt>
      <trkpt lat="42.707858" lon="-7.035101">
        <ele>1263.5</ele>
        <time>2022-08-21T09:51:39Z</time>
      </trkpt>
      <trkpt lat="42.707916" lon="-7.035333">
        <ele>1264.9</ele>
        <time>2022-08-21T09:51:54Z</time>
      </trkpt>
      <trkpt lat="42.707964" lon="-7.035573">
        <ele>1265.1</ele>
        <time>2022-08-21T09:52:09Z</time>
      </trkpt>
      <trkpt lat="42.707934" lon="-7.035818">
        <ele>1261.8</ele>
        <time>2022-08-21T09:52:25Z</time>
      </trkpt>
      <trkpt lat="42.707861" lon="-7.036050">
        <ele>1263.9</ele>
        <time>2022-08-21T09:52:40Z</time>
      </trkpt>
      <trkpt lat="42.707799" lon="-7.036283">
        <ele>1261.9</ele>
        <time>2022-08-21T09:52:55Z</time>
      </trkpt>
      <trkpt lat="42.707681" lon="-7.036473">
        <ele>1261.8</ele>
        <time>2022-08-21T09:53:13Z</time>
      </trkpt>
      <trkpt lat="42.707521" lon="-7.036593">
        <ele>1261.8</ele>
        <time>2022-08-21T09:53:27Z</time>
      </trkpt>
      <trkpt lat="42.707370" lon="-7.036739">
        <ele>1265.5</ele>
        <time>2022-08-21T09:53:45Z</time>
      </trkpt>
      <trkpt lat="42.707247" lon="-7.036919">
        <ele>1271.5</ele>
        <time>2022-08-21T09:54:09Z</time>
      </trkpt>
      <trkpt lat="42.707203" lon="-7.037165">
        <ele>1277.1</ele>
        <time>2022-08-21T09:55:59Z</time>
      </trkpt>
      <trkpt lat="42.707197" lon="-7.037424">
        <ele>1276.8</ele>
        <time>2022-08-21T09:56:12Z</time>
      </trkpt>
      <trkpt lat="42.707244" lon="-7.037670">
        <ele>1277.1</ele>
        <time>2022-08-21T09:56:28Z</time>
      </trkpt>
      <trkpt lat="42.707256" lon="-7.037935">
        <ele>1276.7</ele>
        <time>2022-08-21T09:56:44Z</time>
      </trkpt>
      <trkpt lat="42.707239" lon="-7.038187">
        <ele>1276.8</ele>
        <time>2022-08-21T09:56:56Z</time>
      </trkpt>
      <trkpt lat="42.707204" lon="-7.038431">
        <ele>1277.8</ele>
        <time>2022-08-21T09:57:10Z</time>
      </trkpt>
      <trkpt lat="42.707242" lon="-7.038679">
        <ele>1281.8</ele>
        <time>2022-08-21T09:57:25Z</time>
      </trkpt>
      <trkpt lat="42.707237" lon="-7.038940">
        <ele>1280.8</ele>
        <time>2022-08-21T09:57:40Z</time>
      </trkpt>
      <trkpt lat="42.707285" lon="-7.039183">
        <ele>1281.8</ele>
        <time>2022-08-21T09:57:57Z</time>
      </trkpt>
      <trkpt lat="42.707338" lon="-7.039429">
        <ele>1281.9</ele>
        <time>2022-08-21T09:58:09Z</time>
      </trkpt>
      <trkpt lat="42.707381" lon="-7.039674">
        <ele>1283.8</ele>
        <time>2022-08-21T09:58:26Z</time>
      </trkpt>
      <trkpt lat="42.707470" lon="-7.039910">
        <ele>1285.7</ele>
        <time>2022-08-21T09:58:47Z</time>
      </trkpt>
      <trkpt lat="42.707553" lon="-7.040132">
        <ele>1284.8</ele>
        <time>2022-08-21T09:59:00Z</time>
      </trkpt>
      <trkpt lat="42.707612" lon="-7.040368">
        <ele>1281.8</ele>
        <time>2022-08-21T09:59:15Z</time>
      </trkpt>
      <trkpt lat="42.707643" lon="-7.040617">
        <ele>1278.8</ele>
        <time>2022-08-21T09:59:27Z</time>
      </trkpt>
      <trkpt lat="42.707655" lon="-7.040877">
        <ele>1282.5</ele>
        <time>2022-08-21T09:59:42Z</time>
      </trkpt>
      <trkpt lat="42.707684" lon="-7.041122">
        <ele>1281.5</ele>
        <time>2022-08-21T09:59:57Z</time>
      </trkpt>
      <trkpt lat="42.707739" lon="-7.041383">
        <ele>1280.8</ele>
        <time>2022-08-21T10:00:13Z</time>
      </trkpt>
      <trkpt lat="42.707751" lon="-7.041634">
        <ele>1283.8</ele>
        <time>2022-08-21T10:00:26Z</time>
      </trkpt>
      <trkpt lat="42.707735" lon="-7.041884">
        <ele>1288.5</ele>
        <time>2022-08-21T10:00:40Z</time>
      </trkpt>
      <trkpt lat="42.707723" lon="-7.042137">
        <ele>1289.8</ele>
        <time>2022-08-21T10:00:51Z</time>
      </trkpt>
      <trkpt lat="42.707665" lon="-7.042370">
        <ele>1290.8</ele>
        <time>2022-08-21T10:01:05Z</time>
      </trkpt>
      <trkpt lat="42.707650" lon="-7.042623">
        <ele>1295.5</ele>
        <time>2022-08-21T10:01:30Z</time>
      </trkpt>
      <trkpt lat="42.707533" lon="-7.042817">
        <ele>1297.6</ele>
        <time>2022-08-21T10:01:52Z</time>
      </trkpt>
      <trkpt lat="42.707604" lon="-7.043042">
        <ele>1293.9</ele>
        <time>2022-08-21T10:03:26Z</time>
      </trkpt>
      <trkpt lat="42.707572" lon="-7.043295">
        <ele>1293.9</ele>
        <time>2022-08-21T10:03:42Z</time>
      </trkpt>
      <trkpt lat="42.707707" lon="-7.043466">
        <ele>1300.5</ele>
        <time>2022-08-21T10:04:03Z</time>
      </trkpt>
      <trkpt lat="42.707762" lon="-7.043703">
        <ele>1298.5</ele>
        <time>2022-08-21T10:04:24Z</time>
      </trkpt>
      <trkpt lat="42.707834" lon="-7.043931">
        <ele>1298.4</ele>
        <time>2022-08-21T10:04:43Z</time>
      </trkpt>
      <trkpt lat="42.707783" lon="-7.044166">
        <ele>1298.0</ele>
        <time>2022-08-21T10:06:00Z</time>
      </trkpt>
      <trkpt lat="42.707700" lon="-7.044473">
        <ele>1297.0</ele>
        <time>2022-08-22T04:56:18Z</time>
      </trkpt>
      <trkpt lat="42.707729" lon="-7.044723">
        <ele>1293.7</ele>
        <time>2022-08-22T04:56:37Z</time>
      </trkpt>
      <trkpt lat="42.707749" lon="-7.044969">
        <ele>1293.7</ele>
        <time>2022-08-22T04:57:08Z</time>
      </trkpt>
      <trkpt lat="42.707841" lon="-7.045183">
        <ele>1293.7</ele>
        <time>2022-08-22T04:57:45Z</time>
      </trkpt>
      <trkpt lat="42.707915" lon="-7.045410">
        <ele>1293.7</ele>
        <time>2022-08-22T04:58:02Z</time>
      </trkpt>
      <trkpt lat="42.707942" lon="-7.045658">
        <ele>1293.7</ele>
        <time>2022-08-22T04:58:20Z</time>
      </trkpt>
      <trkpt lat="42.707958" lon="-7.045906">
        <ele>1293.7</ele>
        <time>2022-08-22T04:58:34Z</time>
      </trkpt>
      <trkpt lat="42.707964" lon="-7.046152">
        <ele>1284.8</ele>
        <time>2022-08-22T04:58:50Z</time>
      </trkpt>
      <trkpt lat="42.707972" lon="-7.046402">
        <ele>1280.1</ele>
        <time>2022-08-22T04:59:14Z</time>
      </trkpt>
      <trkpt lat="42.707921" lon="-7.046647">
        <ele>1280.8</ele>
        <time>2022-08-22T04:59:30Z</time>
      </trkpt>
      <trkpt lat="42.707869" lon="-7.046885">
        <ele>1280.8</ele>
        <time>2022-08-22T04:59:42Z</time>
      </trkpt>
      <trkpt lat="42.707771" lon="-7.047116">
        <ele>1280.8</ele>
        <time>2022-08-22T04:59:55Z</time>
      </trkpt>
      <trkpt lat="42.707678" lon="-7.047344">
        <ele>1280.8</ele>
        <time>2022-08-22T05:00:10Z</time>
      </trkpt>
      <trkpt lat="42.707579" lon="-7.047554">
        <ele>1280.8</ele>
        <time>2022-08-22T05:00:24Z</time>
      </trkpt>
      <trkpt lat="42.707502" lon="-7.047787">
        <ele>1276.8</ele>
        <time>2022-08-22T05:00:38Z</time>
      </trkpt>
      <trkpt lat="42.707390" lon="-7.047981">
        <ele>1276.5</ele>
        <time>2022-08-22T05:00:51Z</time>
      </trkpt>
      <trkpt lat="42.707316" lon="-7.048217">
        <ele>1275.1</ele>
        <time>2022-08-22T05:01:03Z</time>
      </trkpt>
      <trkpt lat="42.707205" lon="-7.048414">
        <ele>1274.8</ele>
        <time>2022-08-22T05:01:18Z</time>
      </trkpt>
      <trkpt lat="42.707120" lon="-7.048636">
        <ele>1273.8</ele>
        <time>2022-08-22T05:01:33Z</time>
      </trkpt>
      <trkpt lat="42.707053" lon="-7.048873">
        <ele>1274.8</ele>
        <time>2022-08-22T05:01:46Z</time>
      </trkpt>
      <trkpt lat="42.706985" lon="-7.049120">
        <ele>1273.5</ele>
        <time>2022-08-22T05:01:59Z</time>
      </trkpt>
      <trkpt lat="42.706913" lon="-7.049348">
        <ele>1274.8</ele>
        <time>2022-08-22T05:02:11Z</time>
      </trkpt>
      <trkpt lat="42.706896" lon="-7.049611">
        <ele>1274.8</ele>
        <time>2022-08-22T05:02:25Z</time>
      </trkpt>
      <trkpt lat="42.706815" lon="-7.049830">
        <ele>1278.8</ele>
        <time>2022-08-22T05:02:40Z</time>
      </trkpt>
      <trkpt lat="42.706763" lon="-7.050083">
        <ele>1279.1</ele>
        <time>2022-08-22T05:02:53Z</time>
      </trkpt>
      <trkpt lat="42.706722" lon="-7.050329">
        <ele>1276.9</ele>
        <time>2022-08-22T05:03:06Z</time>
      </trkpt>
      <trkpt lat="42.706632" lon="-7.050576">
        <ele>1277.8</ele>
        <time>2022-08-22T05:03:21Z</time>
      </trkpt>
      <trkpt lat="42.706544" lon="-7.050795">
        <ele>1277.8</ele>
        <time>2022-08-22T05:03:34Z</time>
      </trkpt>
      <trkpt lat="42.706392" lon="-7.050959">
        <ele>1278.8</ele>
        <time>2022-08-22T05:03:49Z</time>
      </trkpt>
      <trkpt lat="42.706220" lon="-7.051034">
        <ele>1280.1</ele>
        <time>2022-08-22T05:04:02Z</time>
      </trkpt>
      <trkpt lat="42.706037" lon="-7.051078">
        <ele>1281.5</ele>
        <time>2022-08-22T05:04:19Z</time>
      </trkpt>
      <trkpt lat="42.705858" lon="-7.051030">
        <ele>1285.8</ele>
        <time>2022-08-22T05:04:35Z</time>
      </trkpt>
      <trkpt lat="42.705676" lon="-7.051023">
        <ele>1286.1</ele>
        <time>2022-08-22T05:04:50Z</time>
      </trkpt>
      <trkpt lat="42.705514" lon="-7.051137">
        <ele>1284.1</ele>
        <time>2022-08-22T05:05:07Z</time>
      </trkpt>
      <trkpt lat="42.705439" lon="-7.051365">
        <ele>1281.8</ele>
        <time>2022-08-22T05:05:21Z</time>
      </trkpt>
      <trkpt lat="42.705370" lon="-7.051599">
        <ele>1283.8</ele>
        <time>2022-08-22T05:05:34Z</time>
      </trkpt>
      <trkpt lat="42.705336" lon="-7.051858">
        <ele>1283.8</ele>
        <time>2022-08-22T05:05:48Z</time>
      </trkpt>
      <trkpt lat="42.705299" lon="-7.052100">
        <ele>1282.1</ele>
        <time>2022-08-22T05:06:07Z</time>
      </trkpt>
      <trkpt lat="42.705231" lon="-7.052328">
        <ele>1280.8</ele>
        <time>2022-08-22T05:06:22Z</time>
      </trkpt>
      <trkpt lat="42.705152" lon="-7.052554">
        <ele>1280.8</ele>
        <time>2022-08-22T05:06:39Z</time>
      </trkpt>
      <trkpt lat="42.705091" lon="-7.052800">
        <ele>1278.8</ele>
        <time>2022-08-22T05:06:55Z</time>
      </trkpt>
      <trkpt lat="42.705054" lon="-7.053041">
        <ele>1274.8</ele>
        <time>2022-08-22T05:07:14Z</time>
      </trkpt>
      <trkpt lat="42.705059" lon="-7.053293">
        <ele>1270.8</ele>
        <time>2022-08-22T05:07:34Z</time>
      </trkpt>
      <trkpt lat="42.704995" lon="-7.053530">
        <ele>1268.1</ele>
        <time>2022-08-22T05:07:53Z</time>
      </trkpt>
      <trkpt lat="42.704878" lon="-7.053722">
        <ele>1264.2</ele>
        <time>2022-08-22T05:08:08Z</time>
      </trkpt>
      <trkpt lat="42.704766" lon="-7.053923">
        <ele>1263.8</ele>
        <time>2022-08-22T05:08:24Z</time>
      </trkpt>
      <trkpt lat="42.704692" lon="-7.054172">
        <ele>1261.1</ele>
        <time>2022-08-22T05:08:43Z</time>
      </trkpt>
      <trkpt lat="42.704577" lon="-7.054391">
        <ele>1257.9</ele>
        <time>2022-08-22T05:08:58Z</time>
      </trkpt>
      <trkpt lat="42.704438" lon="-7.054555">
        <ele>1258.9</ele>
        <time>2022-08-22T05:09:10Z</time>
      </trkpt>
      <trkpt lat="42.704353" lon="-7.054772">
        <ele>1256.8</ele>
        <time>2022-08-22T05:09:22Z</time>
      </trkpt>
      <trkpt lat="42.704208" lon="-7.054936">
        <ele>1255.8</ele>
        <time>2022-08-22T05:09:36Z</time>
      </trkpt>
      <trkpt lat="42.704047" lon="-7.055073">
        <ele>1253.8</ele>
        <time>2022-08-22T05:09:53Z</time>
      </trkpt>
      <trkpt lat="42.703906" lon="-7.055230">
        <ele>1253.8</ele>
        <time>2022-08-22T05:10:06Z</time>
      </trkpt>
      <trkpt lat="42.703751" lon="-7.055365">
        <ele>1251.9</ele>
        <time>2022-08-22T05:10:19Z</time>
      </trkpt>
      <trkpt lat="42.703600" lon="-7.055531">
        <ele>1253.8</ele>
        <time>2022-08-22T05:10:37Z</time>
      </trkpt>
      <trkpt lat="42.703510" lon="-7.055746">
        <ele>1253.8</ele>
        <time>2022-08-22T05:10:49Z</time>
      </trkpt>
      <trkpt lat="42.703435" lon="-7.055978">
        <ele>1253.8</ele>
        <time>2022-08-22T05:11:00Z</time>
      </trkpt>
      <trkpt lat="42.703333" lon="-7.056180">
        <ele>1254.9</ele>
        <time>2022-08-22T05:11:18Z</time>
      </trkpt>
      <trkpt lat="42.703280" lon="-7.056422">
        <ele>1252.8</ele>
        <time>2022-08-22T05:11:34Z</time>
      </trkpt>
      <trkpt lat="42.703275" lon="-7.056674">
        <ele>1251.8</ele>
        <time>2022-08-22T05:11:49Z</time>
      </trkpt>
      <trkpt lat="42.703313" lon="-7.056925">
        <ele>1251.8</ele>
        <time>2022-08-22T05:12:06Z</time>
      </trkpt>
      <trkpt lat="42.703342" lon="-7.057170">
        <ele>1245.9</ele>
        <time>2022-08-22T05:12:24Z</time>
      </trkpt>
      <trkpt lat="42.703384" lon="-7.057408">
        <ele>1244.1</ele>
        <time>2022-08-22T05:12:38Z</time>
      </trkpt>
      <trkpt lat="42.703428" lon="-7.057651">
        <ele>1240.8</ele>
        <time>2022-08-22T05:12:51Z</time>
      </trkpt>
      <trkpt lat="42.703456" lon="-7.057917">
        <ele>1241.5</ele>
        <time>2022-08-22T05:13:07Z</time>
      </trkpt>
      <trkpt lat="42.703477" lon="-7.058163">
        <ele>1242.8</ele>
        <time>2022-08-22T05:13:23Z</time>
      </trkpt>
      <trkpt lat="42.703518" lon="-7.058405">
        <ele>1242.8</ele>
        <time>2022-08-22T05:13:38Z</time>
      </trkpt>
      <trkpt lat="42.703626" lon="-7.058605">
        <ele>1247.8</ele>
        <time>2022-08-22T05:13:53Z</time>
      </trkpt>
      <trkpt lat="42.703665" lon="-7.058849">
        <ele>1247.8</ele>
        <time>2022-08-22T05:14:08Z</time>
      </trkpt>
      <trkpt lat="42.703736" lon="-7.059075">
        <ele>1250.8</ele>
        <time>2022-08-22T05:14:21Z</time>
      </trkpt>
      <trkpt lat="42.703784" lon="-7.059311">
        <ele>1252.8</ele>
        <time>2022-08-22T05:14:35Z</time>
      </trkpt>
      <trkpt lat="42.703863" lon="-7.059553">
        <ele>1255.8</ele>
        <time>2022-08-22T05:14:53Z</time>
      </trkpt>
      <trkpt lat="42.703943" lon="-7.059773">
        <ele>1256.8</ele>
        <time>2022-08-22T05:15:05Z</time>
      </trkpt>
      <trkpt lat="42.704015" lon="-7.060009">
        <ele>1259.8</ele>
        <time>2022-08-22T05:15:22Z</time>
      </trkpt>
      <trkpt lat="42.704076" lon="-7.060259">
        <ele>1257.8</ele>
        <time>2022-08-22T05:15:37Z</time>
      </trkpt>
      <trkpt lat="42.704115" lon="-7.060510">
        <ele>1258.1</ele>
        <time>2022-08-22T05:15:52Z</time>
      </trkpt>
      <trkpt lat="42.704217" lon="-7.060713">
        <ele>1260.8</ele>
        <time>2022-08-22T05:16:03Z</time>
      </trkpt>
      <trkpt lat="42.704299" lon="-7.060937">
        <ele>1263.8</ele>
        <time>2022-08-22T05:16:18Z</time>
      </trkpt>
      <trkpt lat="42.704372" lon="-7.061163">
        <ele>1269.8</ele>
        <time>2022-08-22T05:16:35Z</time>
      </trkpt>
      <trkpt lat="42.704497" lon="-7.061343">
        <ele>1270.8</ele>
        <time>2022-08-22T05:16:50Z</time>
      </trkpt>
      <trkpt lat="42.704639" lon="-7.061514">
        <ele>1269.8</ele>
        <time>2022-08-22T05:17:47Z</time>
      </trkpt>
      <trkpt lat="42.704769" lon="-7.061704">
        <ele>1262.2</ele>
        <time>2022-08-22T05:18:03Z</time>
      </trkpt>
      <trkpt lat="42.704901" lon="-7.061883">
        <ele>1262.8</ele>
        <time>2022-08-22T05:18:17Z</time>
      </trkpt>
      <trkpt lat="42.704952" lon="-7.062133">
        <ele>1259.8</ele>
        <time>2022-08-22T05:18:30Z</time>
      </trkpt>
      <trkpt lat="42.704982" lon="-7.062385">
        <ele>1255.8</ele>
        <time>2022-08-22T05:18:45Z</time>
      </trkpt>
      <trkpt lat="42.704935" lon="-7.062638">
        <ele>1255.8</ele>
        <time>2022-08-22T05:18:59Z</time>
      </trkpt>
      <trkpt lat="42.704883" lon="-7.062878">
        <ele>1257.8</ele>
        <time>2022-08-22T05:19:13Z</time>
      </trkpt>
      <trkpt lat="42.704836" lon="-7.063118">
        <ele>1257.8</ele>
        <time>2022-08-22T05:19:27Z</time>
      </trkpt>
      <trkpt lat="42.704755" lon="-7.063352">
        <ele>1252.9</ele>
        <time>2022-08-22T05:19:42Z</time>
      </trkpt>
      <trkpt lat="42.704741" lon="-7.063598">
        <ele>1251.9</ele>
        <time>2022-08-22T05:19:57Z</time>
      </trkpt>
      <trkpt lat="42.704678" lon="-7.063841">
        <ele>1250.8</ele>
        <time>2022-08-22T05:20:11Z</time>
      </trkpt>
      <trkpt lat="42.704657" lon="-7.064095">
        <ele>1249.9</ele>
        <time>2022-08-22T05:20:25Z</time>
      </trkpt>
      <trkpt lat="42.704514" lon="-7.064244">
        <ele>1250.8</ele>
        <time>2022-08-22T05:20:46Z</time>
      </trkpt>
      <trkpt lat="42.704484" lon="-7.064490">
        <ele>1250.2</ele>
        <time>2022-08-22T05:20:57Z</time>
      </trkpt>
      <trkpt lat="42.704350" lon="-7.064661">
        <ele>1253.8</ele>
        <time>2022-08-22T05:21:16Z</time>
      </trkpt>
      <trkpt lat="42.704228" lon="-7.064852">
        <ele>1253.6</ele>
        <time>2022-08-22T05:21:33Z</time>
      </trkpt>
      <trkpt lat="42.704152" lon="-7.065078">
        <ele>1254.8</ele>
        <time>2022-08-22T05:21:46Z</time>
      </trkpt>
      <trkpt lat="42.704059" lon="-7.065295">
        <ele>1256.8</ele>
        <time>2022-08-22T05:22:03Z</time>
      </trkpt>
      <trkpt lat="42.704004" lon="-7.065534">
        <ele>1259.9</ele>
        <time>2022-08-22T05:22:20Z</time>
      </trkpt>
      <trkpt lat="42.704022" lon="-7.065784">
        <ele>1258.8</ele>
        <time>2022-08-22T05:22:35Z</time>
      </trkpt>
      <trkpt lat="42.704007" lon="-7.066029">
        <ele>1259.6</ele>
        <time>2022-08-22T05:22:51Z</time>
      </trkpt>
      <trkpt lat="42.704042" lon="-7.066270">
        <ele>1257.8</ele>
        <time>2022-08-22T05:23:06Z</time>
      </trkpt>
      <trkpt lat="42.704155" lon="-7.066476">
        <ele>1258.2</ele>
        <time>2022-08-22T05:23:23Z</time>
      </trkpt>
      <trkpt lat="42.704239" lon="-7.066708">
        <ele>1257.1</ele>
        <time>2022-08-22T05:23:37Z</time>
      </trkpt>
      <trkpt lat="42.704353" lon="-7.066946">
        <ele>1256.9</ele>
        <time>2022-08-22T05:23:52Z</time>
      </trkpt>
      <trkpt lat="42.704484" lon="-7.067124">
        <ele>1254.9</ele>
        <time>2022-08-22T05:24:08Z</time>
      </trkpt>
      <trkpt lat="42.704562" lon="-7.067359">
        <ele>1253.6</ele>
        <time>2022-08-22T05:24:24Z</time>
      </trkpt>
      <trkpt lat="42.704636" lon="-7.067591">
        <ele>1256.8</ele>
        <time>2022-08-22T05:24:39Z</time>
      </trkpt>
      <trkpt lat="42.704639" lon="-7.067845">
        <ele>1254.8</ele>
        <time>2022-08-22T05:24:55Z</time>
      </trkpt>
      <trkpt lat="42.704697" lon="-7.068084">
        <ele>1250.8</ele>
        <time>2022-08-22T05:25:12Z</time>
      </trkpt>
      <trkpt lat="42.704758" lon="-7.068315">
        <ele>1246.9</ele>
        <time>2022-08-22T05:25:43Z</time>
      </trkpt>
      <trkpt lat="42.704746" lon="-7.068567">
        <ele>1243.2</ele>
        <time>2022-08-22T05:25:59Z</time>
      </trkpt>
      <trkpt lat="42.704706" lon="-7.068822">
        <ele>1239.9</ele>
        <time>2022-08-22T05:26:14Z</time>
      </trkpt>
      <trkpt lat="42.704633" lon="-7.069049">
        <ele>1239.6</ele>
        <time>2022-08-22T05:26:28Z</time>
      </trkpt>
      <trkpt lat="42.704521" lon="-7.069244">
        <ele>1236.9</ele>
        <time>2022-08-22T05:26:46Z</time>
      </trkpt>
      <trkpt lat="42.704408" lon="-7.069436">
        <ele>1235.8</ele>
        <time>2022-08-22T05:27:02Z</time>
      </trkpt>
      <trkpt lat="42.704269" lon="-7.069602">
        <ele>1229.2</ele>
        <time>2022-08-22T05:27:18Z</time>
      </trkpt>
      <trkpt lat="42.704103" lon="-7.069699">
        <ele>1228.8</ele>
        <time>2022-08-22T05:27:34Z</time>
      </trkpt>
      <trkpt lat="42.703944" lon="-7.069831">
        <ele>1224.9</ele>
        <time>2022-08-22T05:27:51Z</time>
      </trkpt>
      <trkpt lat="42.703774" lon="-7.069976">
        <ele>1223.6</ele>
        <time>2022-08-22T05:28:07Z</time>
      </trkpt>
      <trkpt lat="42.703618" lon="-7.070104">
        <ele>1222.8</ele>
        <time>2022-08-22T05:28:17Z</time>
      </trkpt>
      <trkpt lat="42.703465" lon="-7.070235">
        <ele>1228.5</ele>
        <time>2022-08-22T05:28:29Z</time>
      </trkpt>
      <trkpt lat="42.703289" lon="-7.070318">
        <ele>1234.6</ele>
        <time>2022-08-22T05:29:05Z</time>
      </trkpt>
      <trkpt lat="42.703102" lon="-7.070343">
        <ele>1233.6</ele>
        <time>2022-08-22T05:29:21Z</time>
      </trkpt>
      <trkpt lat="42.702919" lon="-7.070409">
        <ele>1230.9</ele>
        <time>2022-08-22T05:29:40Z</time>
      </trkpt>
      <trkpt lat="42.702754" lon="-7.070511">
        <ele>1228.9</ele>
        <time>2022-08-22T05:29:56Z</time>
      </trkpt>
      <trkpt lat="42.702611" lon="-7.070682">
        <ele>1226.6</ele>
        <time>2022-08-22T05:30:12Z</time>
      </trkpt>
      <trkpt lat="42.702487" lon="-7.070866">
        <ele>1221.9</ele>
        <time>2022-08-22T05:30:25Z</time>
      </trkpt>
      <trkpt lat="42.702336" lon="-7.071005">
        <ele>1222.6</ele>
        <time>2022-08-22T05:30:36Z</time>
      </trkpt>
      <trkpt lat="42.702164" lon="-7.071079">
        <ele>1223.9</ele>
        <time>2022-08-22T05:30:50Z</time>
      </trkpt>
      <trkpt lat="42.702011" lon="-7.071218">
        <ele>1226.8</ele>
        <time>2022-08-22T05:31:03Z</time>
      </trkpt>
      <trkpt lat="42.701841" lon="-7.071307">
        <ele>1223.2</ele>
        <time>2022-08-22T05:31:17Z</time>
      </trkpt>
      <trkpt lat="42.701682" lon="-7.071422">
        <ele>1222.9</ele>
        <time>2022-08-22T05:31:30Z</time>
      </trkpt>
      <trkpt lat="42.701521" lon="-7.071535">
        <ele>1221.9</ele>
        <time>2022-08-22T05:31:42Z</time>
      </trkpt>
      <trkpt lat="42.701362" lon="-7.071659">
        <ele>1218.9</ele>
        <time>2022-08-22T05:31:56Z</time>
      </trkpt>
      <trkpt lat="42.701181" lon="-7.071755">
        <ele>1218.9</ele>
        <time>2022-08-22T05:32:09Z</time>
      </trkpt>
      <trkpt lat="42.701016" lon="-7.071860">
        <ele>1218.9</ele>
        <time>2022-08-22T05:32:21Z</time>
      </trkpt>
      <trkpt lat="42.700850" lon="-7.071968">
        <ele>1220.8</ele>
        <time>2022-08-22T05:32:33Z</time>
      </trkpt>
      <trkpt lat="42.700684" lon="-7.072086">
        <ele>1221.9</ele>
        <time>2022-08-22T05:32:47Z</time>
      </trkpt>
      <trkpt lat="42.700534" lon="-7.072223">
        <ele>1221.9</ele>
        <time>2022-08-22T05:33:01Z</time>
      </trkpt>
      <trkpt lat="42.700382" lon="-7.072366">
        <ele>1225.5</ele>
        <time>2022-08-22T05:33:13Z</time>
      </trkpt>
      <trkpt lat="42.700215" lon="-7.072473">
        <ele>1226.6</ele>
        <time>2022-08-22T05:33:25Z</time>
      </trkpt>
      <trkpt lat="42.700033" lon="-7.072475">
        <ele>1225.9</ele>
        <time>2022-08-22T05:33:40Z</time>
      </trkpt>
      <trkpt lat="42.699859" lon="-7.072557">
        <ele>1223.9</ele>
        <time>2022-08-22T05:33:57Z</time>
      </trkpt>
      <trkpt lat="42.699712" lon="-7.072702">
        <ele>1224.6</ele>
        <time>2022-08-22T05:34:11Z</time>
      </trkpt>
      <trkpt lat="42.699548" lon="-7.072814">
        <ele>1224.6</ele>
        <time>2022-08-22T05:34:25Z</time>
      </trkpt>
      <trkpt lat="42.699400" lon="-7.072969">
        <ele>1221.9</ele>
        <time>2022-08-22T05:34:39Z</time>
      </trkpt>
      <trkpt lat="42.699330" lon="-7.073215">
        <ele>1218.9</ele>
        <time>2022-08-22T05:34:56Z</time>
      </trkpt>
      <trkpt lat="42.699242" lon="-7.073435">
        <ele>1218.9</ele>
        <time>2022-08-22T05:35:10Z</time>
      </trkpt>
      <trkpt lat="42.699172" lon="-7.073679">
        <ele>1220.8</ele>
        <time>2022-08-22T05:35:25Z</time>
      </trkpt>
      <trkpt lat="42.699080" lon="-7.073902">
        <ele>1219.9</ele>
        <time>2022-08-22T05:35:38Z</time>
      </trkpt>
      <trkpt lat="42.698975" lon="-7.074106">
        <ele>1227.3</ele>
        <time>2022-08-22T05:35:51Z</time>
      </trkpt>
      <trkpt lat="42.698861" lon="-7.074295">
        <ele>1226.6</ele>
        <time>2022-08-22T05:36:06Z</time>
      </trkpt>
      <trkpt lat="42.698725" lon="-7.074469">
        <ele>1227.4</ele>
        <time>2022-08-22T05:36:20Z</time>
      </trkpt>
      <trkpt lat="42.698595" lon="-7.074648">
        <ele>1227.4</ele>
        <time>2022-08-22T05:36:36Z</time>
      </trkpt>
      <trkpt lat="42.698504" lon="-7.074865">
        <ele>1219.8</ele>
        <time>2022-08-22T05:36:51Z</time>
      </trkpt>
      <trkpt lat="42.698368" lon="-7.075027">
        <ele>1221.8</ele>
        <time>2022-08-22T05:37:03Z</time>
      </trkpt>
      <trkpt lat="42.698232" lon="-7.075204">
        <ele>1221.9</ele>
        <time>2022-08-22T05:37:18Z</time>
      </trkpt>
      <trkpt lat="42.698129" lon="-7.075410">
        <ele>1221.9</ele>
        <time>2022-08-22T05:37:31Z</time>
      </trkpt>
      <trkpt lat="42.698032" lon="-7.075628">
        <ele>1222.2</ele>
        <time>2022-08-22T05:37:45Z</time>
      </trkpt>
      <trkpt lat="42.698080" lon="-7.075869">
        <ele>1221.9</ele>
        <time>2022-08-22T05:38:01Z</time>
      </trkpt>
      <trkpt lat="42.698107" lon="-7.076113">
        <ele>1219.9</ele>
        <time>2022-08-22T05:38:16Z</time>
      </trkpt>
      <trkpt lat="42.698253" lon="-7.076262">
        <ele>1222.1</ele>
        <time>2022-08-22T05:38:57Z</time>
      </trkpt>
      <trkpt lat="42.698313" lon="-7.076505">
        <ele>1222.9</ele>
        <time>2022-08-22T05:39:12Z</time>
      </trkpt>
      <trkpt lat="42.698389" lon="-7.076729">
        <ele>1221.9</ele>
        <time>2022-08-22T05:39:25Z</time>
      </trkpt>
      <trkpt lat="42.698460" lon="-7.076962">
        <ele>1221.2</ele>
        <time>2022-08-22T05:39:41Z</time>
      </trkpt>
      <trkpt lat="42.698508" lon="-7.077206">
        <ele>1217.9</ele>
        <time>2022-08-22T05:40:00Z</time>
      </trkpt>
      <trkpt lat="42.698565" lon="-7.077441">
        <ele>1217.9</ele>
        <time>2022-08-22T05:40:17Z</time>
      </trkpt>
      <trkpt lat="42.698682" lon="-7.077636">
        <ele>1219.8</ele>
        <time>2022-08-22T05:40:32Z</time>
      </trkpt>
      <trkpt lat="42.698804" lon="-7.077830">
        <ele>1221.6</ele>
        <time>2022-08-22T05:40:45Z</time>
      </trkpt>
      <trkpt lat="42.698895" lon="-7.078050">
        <ele>1222.7</ele>
        <time>2022-08-22T05:41:01Z</time>
      </trkpt>
      <trkpt lat="42.698914" lon="-7.078299">
        <ele>1221.9</ele>
        <time>2022-08-22T05:41:17Z</time>
      </trkpt>
      <trkpt lat="42.698943" lon="-7.078542">
        <ele>1220.9</ele>
        <time>2022-08-22T05:41:33Z</time>
      </trkpt>
      <trkpt lat="42.698938" lon="-7.078796">
        <ele>1219.8</ele>
        <time>2022-08-22T05:41:48Z</time>
      </trkpt>
      <trkpt lat="42.698934" lon="-7.079052">
        <ele>1223.6</ele>
        <time>2022-08-22T05:42:04Z</time>
      </trkpt>
      <trkpt lat="42.698931" lon="-7.079297">
        <ele>1221.9</ele>
        <time>2022-08-22T05:42:19Z</time>
      </trkpt>
      <trkpt lat="42.698859" lon="-7.079524">
        <ele>1220.9</ele>
        <time>2022-08-22T05:42:35Z</time>
      </trkpt>
      <trkpt lat="42.698767" lon="-7.079744">
        <ele>1226.6</ele>
        <time>2022-08-22T05:42:49Z</time>
      </trkpt>
      <trkpt lat="42.698743" lon="-7.079991">
        <ele>1226.9</ele>
        <time>2022-08-22T05:43:05Z</time>
      </trkpt>
      <trkpt lat="42.698652" lon="-7.080221">
        <ele>1229.9</ele>
        <time>2022-08-22T05:43:20Z</time>
      </trkpt>
      <trkpt lat="42.698733" lon="-7.080446">
        <ele>1231.2</ele>
        <time>2022-08-22T05:43:34Z</time>
      </trkpt>
      <trkpt lat="42.698784" lon="-7.080690">
        <ele>1235.8</ele>
        <time>2022-08-22T05:43:49Z</time>
      </trkpt>
      <trkpt lat="42.698855" lon="-7.080917">
        <ele>1242.8</ele>
        <time>2022-08-22T05:44:08Z</time>
      </trkpt>
      <trkpt lat="42.698887" lon="-7.081172">
        <ele>1245.8</ele>
        <time>2022-08-22T05:44:30Z</time>
      </trkpt>
      <trkpt lat="42.698875" lon="-7.081418">
        <ele>1246.9</ele>
        <time>2022-08-22T05:44:56Z</time>
      </trkpt>
      <trkpt lat="42.698812" lon="-7.081649">
        <ele>1246.0</ele>
        <time>2022-08-22T05:45:09Z</time>
      </trkpt>
      <trkpt lat="42.698803" lon="-7.081896">
        <ele>1248.9</ele>
        <time>2022-08-22T05:45:25Z</time>
      </trkpt>
      <trkpt lat="42.698788" lon="-7.082149">
        <ele>1249.9</ele>
        <time>2022-08-22T05:45:42Z</time>
      </trkpt>
      <trkpt lat="42.698773" lon="-7.082394">
        <ele>1251.6</ele>
        <time>2022-08-22T05:46:00Z</time>
      </trkpt>
      <trkpt lat="42.698758" lon="-7.082639">
        <ele>1253.8</ele>
        <time>2022-08-22T05:46:20Z</time>
      </trkpt>
      <trkpt lat="42.698770" lon="-7.082884">
        <ele>1254.9</ele>
        <time>2022-08-22T05:46:40Z</time>
      </trkpt>
      <trkpt lat="42.698746" lon="-7.083130">
        <ele>1256.2</ele>
        <time>2022-08-22T05:46:53Z</time>
      </trkpt>
      <trkpt lat="42.698753" lon="-7.083383">
        <ele>1257.9</ele>
        <time>2022-08-22T05:47:10Z</time>
      </trkpt>
      <trkpt lat="42.698721" lon="-7.083635">
        <ele>1262.8</ele>
        <time>2022-08-22T05:47:32Z</time>
      </trkpt>
      <trkpt lat="42.698600" lon="-7.083823">
        <ele>1264.9</ele>
        <time>2022-08-22T05:47:55Z</time>
      </trkpt>
      <trkpt lat="42.698561" lon="-7.084064">
        <ele>1264.9</ele>
        <time>2022-08-22T05:48:15Z</time>
      </trkpt>
      <trkpt lat="42.698534" lon="-7.084315">
        <ele>1264.9</ele>
        <time>2022-08-22T05:54:21Z</time>
      </trkpt>
      <trkpt lat="42.698719" lon="-7.084358">
        <ele>1266.9</ele>
        <time>2022-08-22T05:54:34Z</time>
      </trkpt>
      <trkpt lat="42.698752" lon="-7.084602">
        <ele>1267.2</ele>
        <time>2022-08-22T05:54:54Z</time>
      </trkpt>
      <trkpt lat="42.698784" lon="-7.084847">
        <ele>1263.9</ele>
        <time>2022-08-22T05:55:11Z</time>
      </trkpt>
      <trkpt lat="42.698809" lon="-7.085095">
        <ele>1263.9</ele>
        <time>2022-08-22T05:55:27Z</time>
      </trkpt>
      <trkpt lat="42.698847" lon="-7.085352">
        <ele>1264.7</ele>
        <time>2022-08-22T05:55:42Z</time>
      </trkpt>
      <trkpt lat="42.698891" lon="-7.085593">
        <ele>1265.9</ele>
        <time>2022-08-22T05:55:56Z</time>
      </trkpt>
      <trkpt lat="42.698929" lon="-7.085841">
        <ele>1265.9</ele>
        <time>2022-08-22T05:56:12Z</time>
      </trkpt>
      <trkpt lat="42.698982" lon="-7.086084">
        <ele>1265.2</ele>
        <time>2022-08-22T05:56:27Z</time>
      </trkpt>
      <trkpt lat="42.699011" lon="-7.086332">
        <ele>1264.8</ele>
        <time>2022-08-22T05:56:43Z</time>
      </trkpt>
      <trkpt lat="42.699042" lon="-7.086580">
        <ele>1263.9</ele>
        <time>2022-08-22T05:56:58Z</time>
      </trkpt>
      <trkpt lat="42.699098" lon="-7.086813">
        <ele>1263.0</ele>
        <time>2022-08-22T05:57:12Z</time>
      </trkpt>
      <trkpt lat="42.699119" lon="-7.087070">
        <ele>1260.8</ele>
        <time>2022-08-22T05:57:27Z</time>
      </trkpt>
      <trkpt lat="42.699169" lon="-7.087307">
        <ele>1261.9</ele>
        <time>2022-08-22T05:57:46Z</time>
      </trkpt>
      <trkpt lat="42.699212" lon="-7.087545">
        <ele>1261.6</ele>
        <time>2022-08-22T05:58:03Z</time>
      </trkpt>
      <trkpt lat="42.699229" lon="-7.087792">
        <ele>1259.9</ele>
        <time>2022-08-22T05:58:17Z</time>
      </trkpt>
      <trkpt lat="42.699252" lon="-7.088052">
        <ele>1257.9</ele>
        <time>2022-08-22T05:58:31Z</time>
      </trkpt>
      <trkpt lat="42.699279" lon="-7.088304">
        <ele>1257.9</ele>
        <time>2022-08-22T05:58:45Z</time>
      </trkpt>
      <trkpt lat="42.699315" lon="-7.088562">
        <ele>1258.9</ele>
        <time>2022-08-22T05:58:59Z</time>
      </trkpt>
      <trkpt lat="42.699387" lon="-7.088786">
        <ele>1256.9</ele>
        <time>2022-08-22T05:59:12Z</time>
      </trkpt>
      <trkpt lat="42.699463" lon="-7.089013">
        <ele>1256.9</ele>
        <time>2022-08-22T05:59:25Z</time>
      </trkpt>
      <trkpt lat="42.699565" lon="-7.089224">
        <ele>1256.7</ele>
        <time>2022-08-22T05:59:39Z</time>
      </trkpt>
      <trkpt lat="42.699616" lon="-7.089467">
        <ele>1254.9</ele>
        <time>2022-08-22T05:59:56Z</time>
      </trkpt>
      <trkpt lat="42.699586" lon="-7.089716">
        <ele>1251.0</ele>
        <time>2022-08-22T06:00:13Z</time>
      </trkpt>
      <trkpt lat="42.699591" lon="-7.089961">
        <ele>1247.2</ele>
        <time>2022-08-22T06:00:27Z</time>
      </trkpt>
      <trkpt lat="42.699595" lon="-7.090208">
        <ele>1245.9</ele>
        <time>2022-08-22T06:00:42Z</time>
      </trkpt>
      <trkpt lat="42.699623" lon="-7.090451">
        <ele>1243.2</ele>
        <time>2022-08-22T06:00:56Z</time>
      </trkpt>
      <trkpt lat="42.699743" lon="-7.090637">
        <ele>1241.9</ele>
        <time>2022-08-22T06:01:10Z</time>
      </trkpt>
      <trkpt lat="42.699866" lon="-7.090833">
        <ele>1241.9</ele>
        <time>2022-08-22T06:01:25Z</time>
      </trkpt>
      <trkpt lat="42.699923" lon="-7.091076">
        <ele>1238.9</ele>
        <time>2022-08-22T06:01:41Z</time>
      </trkpt>
      <trkpt lat="42.699967" lon="-7.091327">
        <ele>1234.2</ele>
        <time>2022-08-22T06:01:57Z</time>
      </trkpt>
      <trkpt lat="42.700051" lon="-7.091551">
        <ele>1231.0</ele>
        <time>2022-08-22T06:02:12Z</time>
      </trkpt>
      <trkpt lat="42.700135" lon="-7.091783">
        <ele>1229.9</ele>
        <time>2022-08-22T06:02:28Z</time>
      </trkpt>
      <trkpt lat="42.700269" lon="-7.091970">
        <ele>1229.9</ele>
        <time>2022-08-22T06:02:41Z</time>
      </trkpt>
      <trkpt lat="42.700401" lon="-7.092150">
        <ele>1227.2</ele>
        <time>2022-08-22T06:02:54Z</time>
      </trkpt>
      <trkpt lat="42.700528" lon="-7.092337">
        <ele>1225.9</ele>
        <time>2022-08-22T06:03:10Z</time>
      </trkpt>
      <trkpt lat="42.700650" lon="-7.092523">
        <ele>1223.9</ele>
        <time>2022-08-22T06:03:24Z</time>
      </trkpt>
      <trkpt lat="42.700785" lon="-7.092686">
        <ele>1223.8</ele>
        <time>2022-08-22T06:03:39Z</time>
      </trkpt>
      <trkpt lat="42.700921" lon="-7.092861">
        <ele>1223.9</ele>
        <time>2022-08-22T06:03:53Z</time>
      </trkpt>
      <trkpt lat="42.701009" lon="-7.093080">
        <ele>1220.9</ele>
        <time>2022-08-22T06:04:10Z</time>
      </trkpt>
      <trkpt lat="42.701072" lon="-7.093316">
        <ele>1216.9</ele>
        <time>2022-08-22T06:04:29Z</time>
      </trkpt>
      <trkpt lat="42.701141" lon="-7.093561">
        <ele>1212.9</ele>
        <time>2022-08-22T06:04:47Z</time>
      </trkpt>
      <trkpt lat="42.701217" lon="-7.093800">
        <ele>1212.0</ele>
        <time>2022-08-22T06:05:03Z</time>
      </trkpt>
      <trkpt lat="42.701373" lon="-7.094174">
        <ele>1211.9</ele>
        <time>2022-08-22T06:05:30Z</time>
      </trkpt>
      <trkpt lat="42.701517" lon="-7.094337">
        <ele>1208.2</ele>
        <time>2022-08-22T06:05:46Z</time>
      </trkpt>
      <trkpt lat="42.701643" lon="-7.094512">
        <ele>1208.9</ele>
        <time>2022-08-22T06:06:02Z</time>
      </trkpt>
      <trkpt lat="42.701767" lon="-7.094693">
        <ele>1208.2</ele>
        <time>2022-08-22T06:06:16Z</time>
      </trkpt>
      <trkpt lat="42.701890" lon="-7.094872">
        <ele>1207.0</ele>
        <time>2022-08-22T06:06:30Z</time>
      </trkpt>
      <trkpt lat="42.702008" lon="-7.095057">
        <ele>1209.9</ele>
        <time>2022-08-22T06:06:44Z</time>
      </trkpt>
      <trkpt lat="42.702130" lon="-7.095238">
        <ele>1209.2</ele>
        <time>2022-08-22T06:06:59Z</time>
      </trkpt>
      <trkpt lat="42.702254" lon="-7.095430">
        <ele>1211.8</ele>
        <time>2022-08-22T06:07:16Z</time>
      </trkpt>
      <trkpt lat="42.702374" lon="-7.095617">
        <ele>1214.8</ele>
        <time>2022-08-22T06:07:34Z</time>
      </trkpt>
      <trkpt lat="42.702499" lon="-7.095793">
        <ele>1215.9</ele>
        <time>2022-08-22T06:07:51Z</time>
      </trkpt>
      <trkpt lat="42.702619" lon="-7.095981">
        <ele>1218.9</ele>
        <time>2022-08-22T06:08:06Z</time>
      </trkpt>
      <trkpt lat="42.702742" lon="-7.096170">
        <ele>1217.2</ele>
        <time>2022-08-22T06:08:23Z</time>
      </trkpt>
      <trkpt lat="42.702888" lon="-7.096326">
        <ele>1214.9</ele>
        <time>2022-08-22T06:08:37Z</time>
      </trkpt>
      <trkpt lat="42.703022" lon="-7.096514">
        <ele>1213.8</ele>
        <time>2022-08-22T06:08:52Z</time>
      </trkpt>
      <trkpt lat="42.703154" lon="-7.096691">
        <ele>1214.9</ele>
        <time>2022-08-22T06:09:06Z</time>
      </trkpt>
      <trkpt lat="42.703296" lon="-7.096844">
        <ele>1215.9</ele>
        <time>2022-08-22T06:09:21Z</time>
      </trkpt>
      <trkpt lat="42.703452" lon="-7.096984">
        <ele>1218.9</ele>
        <time>2022-08-22T06:09:35Z</time>
      </trkpt>
      <trkpt lat="42.703596" lon="-7.097142">
        <ele>1218.0</ele>
        <time>2022-08-22T06:09:49Z</time>
      </trkpt>
      <trkpt lat="42.703736" lon="-7.097309">
        <ele>1217.7</ele>
        <time>2022-08-22T06:10:03Z</time>
      </trkpt>
      <trkpt lat="42.703884" lon="-7.097472">
        <ele>1218.2</ele>
        <time>2022-08-22T06:10:18Z</time>
      </trkpt>
      <trkpt lat="42.704021" lon="-7.097645">
        <ele>1220.2</ele>
        <time>2022-08-22T06:10:32Z</time>
      </trkpt>
      <trkpt lat="42.704150" lon="-7.097837">
        <ele>1219.8</ele>
        <time>2022-08-22T06:10:48Z</time>
      </trkpt>
      <trkpt lat="42.704189" lon="-7.098084">
        <ele>1224.0</ele>
        <time>2022-08-22T06:11:03Z</time>
      </trkpt>
      <trkpt lat="42.704235" lon="-7.098343">
        <ele>1223.8</ele>
        <time>2022-08-22T06:11:18Z</time>
      </trkpt>
      <trkpt lat="42.704289" lon="-7.098581">
        <ele>1224.9</ele>
        <time>2022-08-22T06:11:33Z</time>
      </trkpt>
      <trkpt lat="42.704319" lon="-7.098848">
        <ele>1227.9</ele>
        <time>2022-08-22T06:11:50Z</time>
      </trkpt>
      <trkpt lat="42.704393" lon="-7.099076">
        <ele>1226.0</ele>
        <time>2022-08-22T06:12:04Z</time>
      </trkpt>
      <trkpt lat="42.704534" lon="-7.099235">
        <ele>1226.9</ele>
        <time>2022-08-22T06:12:18Z</time>
      </trkpt>
      <trkpt lat="42.704694" lon="-7.099366">
        <ele>1225.9</ele>
        <time>2022-08-22T06:12:32Z</time>
      </trkpt>
      <trkpt lat="42.704816" lon="-7.099556">
        <ele>1226.9</ele>
        <time>2022-08-22T06:12:48Z</time>
      </trkpt>
      <trkpt lat="42.704882" lon="-7.099799">
        <ele>1227.9</ele>
        <time>2022-08-22T06:13:04Z</time>
      </trkpt>
      <trkpt lat="42.704921" lon="-7.100046">
        <ele>1228.6</ele>
        <time>2022-08-22T06:13:20Z</time>
      </trkpt>
      <trkpt lat="42.704996" lon="-7.100280">
        <ele>1230.9</ele>
        <time>2022-08-22T06:13:38Z</time>
      </trkpt>
      <trkpt lat="42.705063" lon="-7.100523">
        <ele>1231.9</ele>
        <time>2022-08-22T06:13:54Z</time>
      </trkpt>
      <trkpt lat="42.705064" lon="-7.100774">
        <ele>1232.2</ele>
        <time>2022-08-22T06:14:15Z</time>
      </trkpt>
      <trkpt lat="42.705098" lon="-7.101028">
        <ele>1237.9</ele>
        <time>2022-08-22T06:31:57Z</time>
      </trkpt>
      <trkpt lat="42.705096" lon="-7.101277">
        <ele>1238.9</ele>
        <time>2022-08-22T06:32:12Z</time>
      </trkpt>
      <trkpt lat="42.705081" lon="-7.101524">
        <ele>1239.2</ele>
        <time>2022-08-22T06:32:30Z</time>
      </trkpt>
      <trkpt lat="42.705146" lon="-7.101759">
        <ele>1239.0</ele>
        <time>2022-08-22T06:33:01Z</time>
      </trkpt>
      <trkpt lat="42.705082" lon="-7.101994">
        <ele>1237.2</ele>
        <time>2022-08-22T06:33:53Z</time>
      </trkpt>
      <trkpt lat="42.705075" lon="-7.102250">
        <ele>1238.9</ele>
        <time>2022-08-22T06:34:42Z</time>
      </trkpt>
      <trkpt lat="42.705060" lon="-7.102504">
        <ele>1236.9</ele>
        <time>2022-08-22T06:34:58Z</time>
      </trkpt>
      <trkpt lat="42.705099" lon="-7.102746">
        <ele>1235.9</ele>
        <time>2022-08-22T06:35:12Z</time>
      </trkpt>
      <trkpt lat="42.705159" lon="-7.102987">
        <ele>1234.9</ele>
        <time>2022-08-22T06:35:27Z</time>
      </trkpt>
      <trkpt lat="42.705233" lon="-7.103214">
        <ele>1232.2</ele>
        <time>2022-08-22T06:35:41Z</time>
      </trkpt>
      <trkpt lat="42.705308" lon="-7.103441">
        <ele>1233.9</ele>
        <time>2022-08-22T06:35:56Z</time>
      </trkpt>
      <trkpt lat="42.705378" lon="-7.103681">
        <ele>1234.0</ele>
        <time>2022-08-22T06:36:11Z</time>
      </trkpt>
      <trkpt lat="42.705427" lon="-7.103919">
        <ele>1232.9</ele>
        <time>2022-08-22T06:36:25Z</time>
      </trkpt>
      <trkpt lat="42.705451" lon="-7.104175">
        <ele>1233.9</ele>
        <time>2022-08-22T06:36:40Z</time>
      </trkpt>
      <trkpt lat="42.705423" lon="-7.104427">
        <ele>1236.6</ele>
        <time>2022-08-22T06:36:56Z</time>
      </trkpt>
      <trkpt lat="42.705345" lon="-7.104667">
        <ele>1238.6</ele>
        <time>2022-08-22T06:37:12Z</time>
      </trkpt>
      <trkpt lat="42.705240" lon="-7.104886">
        <ele>1237.9</ele>
        <time>2022-08-22T06:37:28Z</time>
      </trkpt>
      <trkpt lat="42.705172" lon="-7.105120">
        <ele>1236.9</ele>
        <time>2022-08-22T06:37:48Z</time>
      </trkpt>
      <trkpt lat="42.705137" lon="-7.105372">
        <ele>1234.9</ele>
        <time>2022-08-22T06:38:03Z</time>
      </trkpt>
      <trkpt lat="42.705147" lon="-7.105629">
        <ele>1232.9</ele>
        <time>2022-08-22T06:38:18Z</time>
      </trkpt>
      <trkpt lat="42.705225" lon="-7.105861">
        <ele>1231.9</ele>
        <time>2022-08-22T06:38:32Z</time>
      </trkpt>
      <trkpt lat="42.705295" lon="-7.106090">
        <ele>1231.9</ele>
        <time>2022-08-22T06:38:46Z</time>
      </trkpt>
      <trkpt lat="42.705431" lon="-7.106251">
        <ele>1231.8</ele>
        <time>2022-08-22T06:39:00Z</time>
      </trkpt>
      <trkpt lat="42.705532" lon="-7.106457">
        <ele>1233.6</ele>
        <time>2022-08-22T06:39:12Z</time>
      </trkpt>
      <trkpt lat="42.705600" lon="-7.106691">
        <ele>1233.9</ele>
        <time>2022-08-22T06:39:26Z</time>
      </trkpt>
      <trkpt lat="42.705685" lon="-7.106923">
        <ele>1236.9</ele>
        <time>2022-08-22T06:39:41Z</time>
      </trkpt>
      <trkpt lat="42.705734" lon="-7.107168">
        <ele>1238.9</ele>
        <time>2022-08-22T06:40:00Z</time>
      </trkpt>
      <trkpt lat="42.705742" lon="-7.107422">
        <ele>1237.8</ele>
        <time>2022-08-22T06:40:13Z</time>
      </trkpt>
      <trkpt lat="42.705775" lon="-7.107691">
        <ele>1240.2</ele>
        <time>2022-08-22T06:40:27Z</time>
      </trkpt>
      <trkpt lat="42.705876" lon="-7.107921">
        <ele>1237.8</ele>
        <time>2022-08-22T06:40:42Z</time>
      </trkpt>
      <trkpt lat="42.705963" lon="-7.108142">
        <ele>1239.6</ele>
        <time>2022-08-22T06:41:01Z</time>
      </trkpt>
      <trkpt lat="42.706113" lon="-7.108284">
        <ele>1239.9</ele>
        <time>2022-08-22T06:41:15Z</time>
      </trkpt>
      <trkpt lat="42.706293" lon="-7.108343">
        <ele>1243.2</ele>
        <time>2022-08-22T06:41:30Z</time>
      </trkpt>
      <trkpt lat="42.706482" lon="-7.108328">
        <ele>1242.9</ele>
        <time>2022-08-22T06:41:45Z</time>
      </trkpt>
      <trkpt lat="42.706661" lon="-7.108295">
        <ele>1244.6</ele>
        <time>2022-08-22T06:42:00Z</time>
      </trkpt>
      <trkpt lat="42.706843" lon="-7.108255">
        <ele>1246.6</ele>
        <time>2022-08-22T06:42:15Z</time>
      </trkpt>
      <trkpt lat="42.707022" lon="-7.108190">
        <ele>1247.9</ele>
        <time>2022-08-22T06:42:34Z</time>
      </trkpt>
      <trkpt lat="42.707207" lon="-7.108208">
        <ele>1248.0</ele>
        <time>2022-08-22T06:42:46Z</time>
      </trkpt>
      <trkpt lat="42.707365" lon="-7.108330">
        <ele>1247.8</ele>
        <time>2022-08-22T06:42:59Z</time>
      </trkpt>
      <trkpt lat="42.707542" lon="-7.108418">
        <ele>1246.9</ele>
        <time>2022-08-22T06:43:13Z</time>
      </trkpt>
      <trkpt lat="42.707674" lon="-7.108604">
        <ele>1245.9</ele>
        <time>2022-08-22T06:43:35Z</time>
      </trkpt>
      <trkpt lat="42.707782" lon="-7.108804">
        <ele>1240.9</ele>
        <time>2022-08-22T06:43:53Z</time>
      </trkpt>
      <trkpt lat="42.707793" lon="-7.109050">
        <ele>1238.9</ele>
        <time>2022-08-22T06:44:09Z</time>
      </trkpt>
      <trkpt lat="42.707781" lon="-7.109304">
        <ele>1240.2</ele>
        <time>2022-08-22T06:44:25Z</time>
      </trkpt>
      <trkpt lat="42.707744" lon="-7.109550">
        <ele>1241.9</ele>
        <time>2022-08-22T06:44:43Z</time>
      </trkpt>
      <trkpt lat="42.707661" lon="-7.109768">
        <ele>1240.9</ele>
        <time>2022-08-22T06:44:59Z</time>
      </trkpt>
      <trkpt lat="42.707566" lon="-7.109978">
        <ele>1239.8</ele>
        <time>2022-08-22T06:45:14Z</time>
      </trkpt>
      <trkpt lat="42.707496" lon="-7.110215">
        <ele>1239.9</ele>
        <time>2022-08-22T06:45:29Z</time>
      </trkpt>
      <trkpt lat="42.707468" lon="-7.110467">
        <ele>1238.9</ele>
        <time>2022-08-22T06:45:44Z</time>
      </trkpt>
      <trkpt lat="42.707554" lon="-7.110687">
        <ele>1240.0</ele>
        <time>2022-08-22T06:46:16Z</time>
      </trkpt>
      <trkpt lat="42.707697" lon="-7.110848">
        <ele>1236.9</ele>
        <time>2022-08-22T06:46:32Z</time>
      </trkpt>
      <trkpt lat="42.707793" lon="-7.111068">
        <ele>1235.9</ele>
        <time>2022-08-22T06:46:46Z</time>
      </trkpt>
      <trkpt lat="42.707859" lon="-7.111302">
        <ele>1235.9</ele>
        <time>2022-08-22T06:47:02Z</time>
      </trkpt>
      <trkpt lat="42.708030" lon="-7.111389">
        <ele>1232.9</ele>
        <time>2022-08-22T06:47:16Z</time>
      </trkpt>
      <trkpt lat="42.708223" lon="-7.111390">
        <ele>1234.6</ele>
        <time>2022-08-22T06:47:32Z</time>
      </trkpt>
      <trkpt lat="42.708404" lon="-7.111349">
        <ele>1234.9</ele>
        <time>2022-08-22T06:47:47Z</time>
      </trkpt>
      <trkpt lat="42.708591" lon="-7.111349">
        <ele>1234.2</ele>
        <time>2022-08-22T06:48:02Z</time>
      </trkpt>
      <trkpt lat="42.708774" lon="-7.111371">
        <ele>1231.9</ele>
        <time>2022-08-22T06:48:18Z</time>
      </trkpt>
      <trkpt lat="42.708952" lon="-7.111326">
        <ele>1233.2</ele>
        <time>2022-08-22T06:48:31Z</time>
      </trkpt>
      <trkpt lat="42.709138" lon="-7.111327">
        <ele>1233.8</ele>
        <time>2022-08-22T06:48:45Z</time>
      </trkpt>
      <trkpt lat="42.709330" lon="-7.111318">
        <ele>1231.0</ele>
        <time>2022-08-22T06:48:59Z</time>
      </trkpt>
      <trkpt lat="42.709520" lon="-7.111272">
        <ele>1229.9</ele>
        <time>2022-08-22T06:49:14Z</time>
      </trkpt>
      <trkpt lat="42.709703" lon="-7.111282">
        <ele>1227.9</ele>
        <time>2022-08-22T06:49:56Z</time>
      </trkpt>
      <trkpt lat="42.709883" lon="-7.111345">
        <ele>1230.0</ele>
        <time>2022-08-22T06:50:16Z</time>
      </trkpt>
      <trkpt lat="42.710003" lon="-7.111533">
        <ele>1228.9</ele>
        <time>2022-08-22T06:50:32Z</time>
      </trkpt>
      <trkpt lat="42.710007" lon="-7.111781">
        <ele>1229.2</ele>
        <time>2022-08-22T06:50:46Z</time>
      </trkpt>
      <trkpt lat="42.709927" lon="-7.112000">
        <ele>1228.9</ele>
        <time>2022-08-22T06:51:01Z</time>
      </trkpt>
      <trkpt lat="42.709905" lon="-7.112252">
        <ele>1229.6</ele>
        <time>2022-08-22T06:51:17Z</time>
      </trkpt>
      <trkpt lat="42.709893" lon="-7.112499">
        <ele>1227.9</ele>
        <time>2022-08-22T06:51:32Z</time>
      </trkpt>
      <trkpt lat="42.709913" lon="-7.112753">
        <ele>1229.9</ele>
        <time>2022-08-22T06:52:12Z</time>
      </trkpt>
      <trkpt lat="42.709998" lon="-7.112968">
        <ele>1228.9</ele>
        <time>2022-08-22T06:52:26Z</time>
      </trkpt>
      <trkpt lat="42.710108" lon="-7.113171">
        <ele>1228.9</ele>
        <time>2022-08-22T06:52:39Z</time>
      </trkpt>
      <trkpt lat="42.710182" lon="-7.113402">
        <ele>1229.9</ele>
        <time>2022-08-22T06:52:52Z</time>
      </trkpt>
      <trkpt lat="42.710329" lon="-7.113549">
        <ele>1231.8</ele>
        <time>2022-08-22T06:53:07Z</time>
      </trkpt>
      <trkpt lat="42.710430" lon="-7.113754">
        <ele>1233.9</ele>
        <time>2022-08-22T06:53:21Z</time>
      </trkpt>
      <trkpt lat="42.710557" lon="-7.113930">
        <ele>1237.9</ele>
        <time>2022-08-22T06:53:36Z</time>
      </trkpt>
      <trkpt lat="42.710630" lon="-7.114158">
        <ele>1235.9</ele>
        <time>2022-08-22T06:53:50Z</time>
      </trkpt>
      <trkpt lat="42.710594" lon="-7.114411">
        <ele>1241.8</ele>
        <time>2022-08-22T06:54:26Z</time>
      </trkpt>
      <trkpt lat="42.710520" lon="-7.114641">
        <ele>1241.9</ele>
        <time>2022-08-22T06:54:38Z</time>
      </trkpt>
      <trkpt lat="42.710438" lon="-7.114866">
        <ele>1240.9</ele>
        <time>2022-08-22T06:54:51Z</time>
      </trkpt>
      <trkpt lat="42.710378" lon="-7.115101">
        <ele>1238.9</ele>
        <time>2022-08-22T06:55:05Z</time>
      </trkpt>
      <trkpt lat="42.710317" lon="-7.115341">
        <ele>1243.9</ele>
        <time>2022-08-22T06:55:21Z</time>
      </trkpt>
      <trkpt lat="42.710175" lon="-7.115558">
        <ele>1248.5</ele>
        <time>2022-08-22T06:55:35Z</time>
      </trkpt>
      <trkpt lat="42.710055" lon="-7.115759">
        <ele>1242.0</ele>
        <time>2022-08-22T06:55:50Z</time>
      </trkpt>
      <trkpt lat="42.709956" lon="-7.115975">
        <ele>1239.9</ele>
        <time>2022-08-22T06:56:06Z</time>
      </trkpt>
      <trkpt lat="42.709882" lon="-7.116204">
        <ele>1240.9</ele>
        <time>2022-08-22T06:56:19Z</time>
      </trkpt>
      <trkpt lat="42.709852" lon="-7.116455">
        <ele>1239.9</ele>
        <time>2022-08-22T06:56:33Z</time>
      </trkpt>
      <trkpt lat="42.709760" lon="-7.116675">
        <ele>1240.9</ele>
        <time>2022-08-22T06:57:23Z</time>
      </trkpt>
      <trkpt lat="42.709694" lon="-7.116908">
        <ele>1241.9</ele>
        <time>2022-08-22T06:57:37Z</time>
      </trkpt>
      <trkpt lat="42.709634" lon="-7.117147">
        <ele>1242.6</ele>
        <time>2022-08-22T06:57:55Z</time>
      </trkpt>
      <trkpt lat="42.709619" lon="-7.117406">
        <ele>1241.9</ele>
        <time>2022-08-22T06:58:09Z</time>
      </trkpt>
      <trkpt lat="42.709608" lon="-7.117655">
        <ele>1240.8</ele>
        <time>2022-08-22T06:58:23Z</time>
      </trkpt>
      <trkpt lat="42.709704" lon="-7.117879">
        <ele>1241.9</ele>
        <time>2022-08-22T06:58:38Z</time>
      </trkpt>
      <trkpt lat="42.709883" lon="-7.117969">
        <ele>1241.5</ele>
        <time>2022-08-22T06:58:53Z</time>
      </trkpt>
      <trkpt lat="42.710062" lon="-7.118014">
        <ele>1244.9</ele>
        <time>2022-08-22T06:59:08Z</time>
      </trkpt>
      <trkpt lat="42.710235" lon="-7.118097">
        <ele>1245.9</ele>
        <time>2022-08-22T06:59:22Z</time>
      </trkpt>
      <trkpt lat="42.710411" lon="-7.118165">
        <ele>1245.8</ele>
        <time>2022-08-22T06:59:36Z</time>
      </trkpt>
      <trkpt lat="42.710543" lon="-7.118344">
        <ele>1249.9</ele>
        <time>2022-08-22T07:00:19Z</time>
      </trkpt>
      <trkpt lat="42.710560" lon="-7.118590">
        <ele>1251.9</ele>
        <time>2022-08-22T07:00:48Z</time>
      </trkpt>
      <trkpt lat="42.710528" lon="-7.118842">
        <ele>1251.9</ele>
        <time>2022-08-22T07:01:03Z</time>
      </trkpt>
      <trkpt lat="42.710586" lon="-7.119075">
        <ele>1255.9</ele>
        <time>2022-08-22T07:01:16Z</time>
      </trkpt>
      <trkpt lat="42.710625" lon="-7.119323">
        <ele>1257.2</ele>
        <time>2022-08-22T07:01:34Z</time>
      </trkpt>
      <trkpt lat="42.710703" lon="-7.119555">
        <ele>1257.6</ele>
        <time>2022-08-22T07:01:49Z</time>
      </trkpt>
      <trkpt lat="42.710713" lon="-7.119805">
        <ele>1262.8</ele>
        <time>2022-08-22T07:02:05Z</time>
      </trkpt>
      <trkpt lat="42.710722" lon="-7.120060">
        <ele>1264.9</ele>
        <time>2022-08-22T07:02:21Z</time>
      </trkpt>
      <trkpt lat="42.710721" lon="-7.120308">
        <ele>1264.9</ele>
        <time>2022-08-22T07:02:36Z</time>
      </trkpt>
      <trkpt lat="42.710764" lon="-7.120554">
        <ele>1265.9</ele>
        <time>2022-08-22T07:02:51Z</time>
      </trkpt>
      <trkpt lat="42.710847" lon="-7.120785">
        <ele>1264.9</ele>
        <time>2022-08-22T07:03:09Z</time>
      </trkpt>
      <trkpt lat="42.710961" lon="-7.120988">
        <ele>1264.9</ele>
        <time>2022-08-22T07:03:25Z</time>
      </trkpt>
      <trkpt lat="42.711081" lon="-7.121180">
        <ele>1267.9</ele>
        <time>2022-08-22T07:03:40Z</time>
      </trkpt>
      <trkpt lat="42.711162" lon="-7.121410">
        <ele>1270.1</ele>
        <time>2022-08-22T07:03:59Z</time>
      </trkpt>
      <trkpt lat="42.711246" lon="-7.121635">
        <ele>1274.0</ele>
        <time>2022-08-22T07:04:36Z</time>
      </trkpt>
      <trkpt lat="42.711344" lon="-7.121843">
        <ele>1279.9</ele>
        <time>2022-08-22T07:05:29Z</time>
      </trkpt>
      <trkpt lat="42.711434" lon="-7.122063">
        <ele>1276.9</ele>
        <time>2022-08-22T07:05:42Z</time>
      </trkpt>
      <trkpt lat="42.711527" lon="-7.122281">
        <ele>1276.9</ele>
        <time>2022-08-22T07:06:32Z</time>
      </trkpt>
      <trkpt lat="42.711642" lon="-7.122491">
        <ele>1276.9</ele>
        <time>2022-08-22T07:06:47Z</time>
      </trkpt>
      <trkpt lat="42.711784" lon="-7.122667">
        <ele>1277.9</ele>
        <time>2022-08-22T07:07:00Z</time>
      </trkpt>
      <trkpt lat="42.711902" lon="-7.122857">
        <ele>1281.0</ele>
        <time>2022-08-22T07:07:48Z</time>
      </trkpt>
      <trkpt lat="42.712010" lon="-7.123077">
        <ele>1278.9</ele>
        <time>2022-08-22T07:08:02Z</time>
      </trkpt>
      <trkpt lat="42.712118" lon="-7.123281">
        <ele>1279.6</ele>
        <time>2022-08-22T07:08:17Z</time>
      </trkpt>
      <trkpt lat="42.712233" lon="-7.123476">
        <ele>1280.0</ele>
        <time>2022-08-22T07:08:32Z</time>
      </trkpt>
      <trkpt lat="42.712310" lon="-7.123700">
        <ele>1280.9</ele>
        <time>2022-08-22T07:08:45Z</time>
      </trkpt>
      <trkpt lat="42.712286" lon="-7.123949">
        <ele>1284.8</ele>
        <time>2022-08-22T07:09:01Z</time>
      </trkpt>
      <trkpt lat="42.712338" lon="-7.124193">
        <ele>1288.9</ele>
        <time>2022-08-22T07:09:20Z</time>
      </trkpt>
      <trkpt lat="42.712275" lon="-7.124425">
        <ele>1293.9</ele>
        <time>2022-08-22T07:09:36Z</time>
      </trkpt>
      <trkpt lat="42.712267" lon="-7.124694">
        <ele>1295.9</ele>
        <time>2022-08-22T07:09:55Z</time>
      </trkpt>
      <trkpt lat="42.712296" lon="-7.124936">
        <ele>1298.9</ele>
        <time>2022-08-22T07:10:14Z</time>
      </trkpt>
      <trkpt lat="42.712332" lon="-7.125184">
        <ele>1301.9</ele>
        <time>2022-08-22T07:10:33Z</time>
      </trkpt>
      <trkpt lat="42.712467" lon="-7.125362">
        <ele>1304.6</ele>
        <time>2022-08-22T07:10:57Z</time>
      </trkpt>
      <trkpt lat="42.712718" lon="-7.125257">
        <ele>1315.6</ele>
        <time>2022-08-22T07:11:16Z</time>
      </trkpt>
      <trkpt lat="42.712786" lon="-7.125315">
        <ele>1319.8</ele>
        <time>2022-08-22T07:11:41Z</time>
      </trkpt>
      <trkpt lat="42.712736" lon="-7.125688">
        <ele>1323.0</ele>
        <time>2022-08-22T07:12:08Z</time>
      </trkpt>
      <trkpt lat="42.712638" lon="-7.125902">
        <ele>1330.6</ele>
        <time>2022-08-22T07:12:32Z</time>
      </trkpt>
      <trkpt lat="42.712555" lon="-7.126128">
        <ele>1333.9</ele>
        <time>2022-08-22T07:12:56Z</time>
      </trkpt>
      <trkpt lat="42.712664" lon="-7.126328">
        <ele>1332.9</ele>
        <time>2022-08-22T07:13:10Z</time>
      </trkpt>
      <trkpt lat="42.712789" lon="-7.126525">
        <ele>1332.2</ele>
        <time>2022-08-22T07:13:25Z</time>
      </trkpt>
      <trkpt lat="42.712901" lon="-7.126728">
        <ele>1334.9</ele>
        <time>2022-08-22T07:13:42Z</time>
      </trkpt>
      <trkpt lat="42.713021" lon="-7.126928">
        <ele>1335.9</ele>
        <time>2022-08-22T07:13:57Z</time>
      </trkpt>
      <trkpt lat="42.713143" lon="-7.127114">
        <ele>1335.9</ele>
        <time>2022-08-22T07:14:14Z</time>
      </trkpt>
      <trkpt lat="42.713268" lon="-7.127308">
        <ele>1332.2</ele>
        <time>2022-08-22T07:18:05Z</time>
      </trkpt>
      <trkpt lat="42.713374" lon="-7.127520">
        <ele>1332.9</ele>
        <time>2022-08-22T07:18:19Z</time>
      </trkpt>
      <trkpt lat="42.713484" lon="-7.127720">
        <ele>1333.7</ele>
        <time>2022-08-22T07:18:32Z</time>
      </trkpt>
      <trkpt lat="42.713608" lon="-7.127904">
        <ele>1333.9</ele>
        <time>2022-08-22T07:18:51Z</time>
      </trkpt>
      <trkpt lat="42.713727" lon="-7.128090">
        <ele>1333.9</ele>
        <time>2022-08-22T07:19:05Z</time>
      </trkpt>
      <trkpt lat="42.713845" lon="-7.128287">
        <ele>1332.9</ele>
        <time>2022-08-22T07:19:20Z</time>
      </trkpt>
      <trkpt lat="42.713969" lon="-7.128482">
        <ele>1331.9</ele>
        <time>2022-08-22T07:19:35Z</time>
      </trkpt>
      <trkpt lat="42.714100" lon="-7.128668">
        <ele>1331.9</ele>
        <time>2022-08-22T07:19:51Z</time>
      </trkpt>
      <trkpt lat="42.714242" lon="-7.128841">
        <ele>1331.9</ele>
        <time>2022-08-22T07:20:07Z</time>
      </trkpt>
      <trkpt lat="42.714401" lon="-7.128984">
        <ele>1331.9</ele>
        <time>2022-08-22T07:20:24Z</time>
      </trkpt>
      <trkpt lat="42.714574" lon="-7.129097">
        <ele>1329.9</ele>
        <time>2022-08-22T07:20:41Z</time>
      </trkpt>
      <trkpt lat="42.714761" lon="-7.129167">
        <ele>1327.9</ele>
        <time>2022-08-22T07:20:56Z</time>
      </trkpt>
      <trkpt lat="42.714930" lon="-7.129269">
        <ele>1327.9</ele>
        <time>2022-08-22T07:21:11Z</time>
      </trkpt>
      <trkpt lat="42.715087" lon="-7.129406">
        <ele>1328.9</ele>
        <time>2022-08-22T07:21:26Z</time>
      </trkpt>
      <trkpt lat="42.715227" lon="-7.129581">
        <ele>1328.9</ele>
        <time>2022-08-22T07:21:42Z</time>
      </trkpt>
      <trkpt lat="42.715347" lon="-7.129782">
        <ele>1328.9</ele>
        <time>2022-08-22T07:21:57Z</time>
      </trkpt>
      <trkpt lat="42.715462" lon="-7.129981">
        <ele>1327.9</ele>
        <time>2022-08-22T07:22:12Z</time>
      </trkpt>
      <trkpt lat="42.715587" lon="-7.130176">
        <ele>1326.2</ele>
        <time>2022-08-22T07:22:28Z</time>
      </trkpt>
      <trkpt lat="42.715711" lon="-7.130369">
        <ele>1326.9</ele>
        <time>2022-08-22T07:22:42Z</time>
      </trkpt>
      <trkpt lat="42.715850" lon="-7.130543">
        <ele>1325.9</ele>
        <time>2022-08-22T07:22:57Z</time>
      </trkpt>
      <trkpt lat="42.715965" lon="-7.130738">
        <ele>1326.9</ele>
        <time>2022-08-22T07:23:12Z</time>
      </trkpt>
      <trkpt lat="42.716061" lon="-7.130960">
        <ele>1326.9</ele>
        <time>2022-08-22T07:23:27Z</time>
      </trkpt>
      <trkpt lat="42.716170" lon="-7.131173">
        <ele>1326.9</ele>
        <time>2022-08-22T07:23:41Z</time>
      </trkpt>
      <trkpt lat="42.716232" lon="-7.131406">
        <ele>1328.9</ele>
        <time>2022-08-22T07:23:57Z</time>
      </trkpt>
      <trkpt lat="42.716310" lon="-7.131641">
        <ele>1327.9</ele>
        <time>2022-08-22T07:24:13Z</time>
      </trkpt>
      <trkpt lat="42.716361" lon="-7.131879">
        <ele>1324.9</ele>
        <time>2022-08-22T07:24:29Z</time>
      </trkpt>
      <trkpt lat="42.716412" lon="-7.132125">
        <ele>1323.6</ele>
        <time>2022-08-22T07:24:44Z</time>
      </trkpt>
      <trkpt lat="42.716452" lon="-7.132377">
        <ele>1321.9</ele>
        <time>2022-08-22T07:24:59Z</time>
      </trkpt>
      <trkpt lat="42.716492" lon="-7.132633">
        <ele>1318.9</ele>
        <time>2022-08-22T07:25:13Z</time>
      </trkpt>
      <trkpt lat="42.716527" lon="-7.132877">
        <ele>1319.7</ele>
        <time>2022-08-22T07:25:26Z</time>
      </trkpt>
      <trkpt lat="42.716594" lon="-7.133113">
        <ele>1318.0</ele>
        <time>2022-08-22T07:25:46Z</time>
      </trkpt>
      <trkpt lat="42.716667" lon="-7.133349">
        <ele>1316.9</ele>
        <time>2022-08-22T07:25:59Z</time>
      </trkpt>
      <trkpt lat="42.716738" lon="-7.133585">
        <ele>1314.9</ele>
        <time>2022-08-22T07:26:13Z</time>
      </trkpt>
      <trkpt lat="42.716832" lon="-7.133807">
        <ele>1315.9</ele>
        <time>2022-08-22T07:26:28Z</time>
      </trkpt>
      <trkpt lat="42.716939" lon="-7.134007">
        <ele>1316.7</ele>
        <time>2022-08-22T07:26:43Z</time>
      </trkpt>
      <trkpt lat="42.717039" lon="-7.134212">
        <ele>1317.9</ele>
        <time>2022-08-22T07:27:00Z</time>
      </trkpt>
      <trkpt lat="42.717172" lon="-7.134400">
        <ele>1318.9</ele>
        <time>2022-08-22T07:27:20Z</time>
      </trkpt>
      <trkpt lat="42.717302" lon="-7.134583">
        <ele>1317.9</ele>
        <time>2022-08-22T07:27:38Z</time>
      </trkpt>
      <trkpt lat="42.717415" lon="-7.134780">
        <ele>1316.8</ele>
        <time>2022-08-22T07:27:53Z</time>
      </trkpt>
      <trkpt lat="42.717531" lon="-7.134974">
        <ele>1314.9</ele>
        <time>2022-08-22T07:28:11Z</time>
      </trkpt>
      <trkpt lat="42.717660" lon="-7.135164">
        <ele>1315.9</ele>
        <time>2022-08-22T07:28:28Z</time>
      </trkpt>
      <trkpt lat="42.717787" lon="-7.135337">
        <ele>1315.9</ele>
        <time>2022-08-22T07:28:40Z</time>
      </trkpt>
      <trkpt lat="42.717903" lon="-7.135539">
        <ele>1312.9</ele>
        <time>2022-08-22T07:28:55Z</time>
      </trkpt>
      <trkpt lat="42.718024" lon="-7.135746">
        <ele>1312.0</ele>
        <time>2022-08-22T07:29:09Z</time>
      </trkpt>
      <trkpt lat="42.718125" lon="-7.135950">
        <ele>1309.9</ele>
        <time>2022-08-22T07:29:24Z</time>
      </trkpt>
      <trkpt lat="42.718238" lon="-7.136163">
        <ele>1310.9</ele>
        <time>2022-08-22T07:29:39Z</time>
      </trkpt>
      <trkpt lat="42.718318" lon="-7.136400">
        <ele>1309.9</ele>
        <time>2022-08-22T07:29:53Z</time>
      </trkpt>
      <trkpt lat="42.718398" lon="-7.136637">
        <ele>1310.0</ele>
        <time>2022-08-22T07:30:07Z</time>
      </trkpt>
      <trkpt lat="42.718487" lon="-7.136862">
        <ele>1307.0</ele>
        <time>2022-08-22T07:30:22Z</time>
      </trkpt>
      <trkpt lat="42.718562" lon="-7.137091">
        <ele>1304.9</ele>
        <time>2022-08-22T07:30:37Z</time>
      </trkpt>
      <trkpt lat="42.718609" lon="-7.137329">
        <ele>1303.9</ele>
        <time>2022-08-22T07:30:51Z</time>
      </trkpt>
      <trkpt lat="42.718675" lon="-7.137561">
        <ele>1301.9</ele>
        <time>2022-08-22T07:31:06Z</time>
      </trkpt>
      <trkpt lat="42.718721" lon="-7.137803">
        <ele>1300.2</ele>
        <time>2022-08-22T07:31:21Z</time>
      </trkpt>
      <trkpt lat="42.718789" lon="-7.138037">
        <ele>1301.2</ele>
        <time>2022-08-22T07:31:35Z</time>
      </trkpt>
      <trkpt lat="42.718854" lon="-7.138280">
        <ele>1300.9</ele>
        <time>2022-08-22T07:31:49Z</time>
      </trkpt>
      <trkpt lat="42.718912" lon="-7.138528">
        <ele>1299.0</ele>
        <time>2022-08-22T07:32:03Z</time>
      </trkpt>
      <trkpt lat="42.718981" lon="-7.138770">
        <ele>1298.9</ele>
        <time>2022-08-22T07:32:17Z</time>
      </trkpt>
      <trkpt lat="42.719050" lon="-7.139010">
        <ele>1296.9</ele>
        <time>2022-08-22T07:32:30Z</time>
      </trkpt>
      <trkpt lat="42.719122" lon="-7.139236">
        <ele>1295.2</ele>
        <time>2022-08-22T07:32:44Z</time>
      </trkpt>
      <trkpt lat="42.719220" lon="-7.139454">
        <ele>1293.0</ele>
        <time>2022-08-22T07:32:59Z</time>
      </trkpt>
      <trkpt lat="42.719344" lon="-7.139637">
        <ele>1291.9</ele>
        <time>2022-08-22T07:33:13Z</time>
      </trkpt>
      <trkpt lat="42.719484" lon="-7.139809">
        <ele>1293.9</ele>
        <time>2022-08-22T07:33:27Z</time>
      </trkpt>
      <trkpt lat="42.719638" lon="-7.139952">
        <ele>1295.9</ele>
        <time>2022-08-22T07:33:41Z</time>
      </trkpt>
      <trkpt lat="42.719800" lon="-7.140085">
        <ele>1296.0</ele>
        <time>2022-08-22T07:33:56Z</time>
      </trkpt>
      <trkpt lat="42.719956" lon="-7.140212">
        <ele>1296.0</ele>
        <time>2022-08-22T07:34:10Z</time>
      </trkpt>
      <trkpt lat="42.720127" lon="-7.140320">
        <ele>1294.8</ele>
        <time>2022-08-22T07:34:23Z</time>
      </trkpt>
      <trkpt lat="42.720292" lon="-7.140446">
        <ele>1296.6</ele>
        <time>2022-08-22T07:34:38Z</time>
      </trkpt>
      <trkpt lat="42.720461" lon="-7.140560">
        <ele>1299.9</ele>
        <time>2022-08-22T07:34:52Z</time>
      </trkpt>
      <trkpt lat="42.720629" lon="-7.140679">
        <ele>1298.2</ele>
        <time>2022-08-22T07:35:07Z</time>
      </trkpt>
      <trkpt lat="42.720762" lon="-7.140851">
        <ele>1298.9</ele>
        <time>2022-08-22T07:35:22Z</time>
      </trkpt>
      <trkpt lat="42.720904" lon="-7.141025">
        <ele>1300.9</ele>
        <time>2022-08-22T07:35:36Z</time>
      </trkpt>
      <trkpt lat="42.721044" lon="-7.141179">
        <ele>1300.7</ele>
        <time>2022-08-22T07:35:49Z</time>
      </trkpt>
      <trkpt lat="42.721173" lon="-7.141366">
        <ele>1301.0</ele>
        <time>2022-08-22T07:36:04Z</time>
      </trkpt>
      <trkpt lat="42.721285" lon="-7.141571">
        <ele>1301.0</ele>
        <time>2022-08-22T07:36:18Z</time>
      </trkpt>
      <trkpt lat="42.721409" lon="-7.141760">
        <ele>1298.9</ele>
        <time>2022-08-22T07:36:33Z</time>
      </trkpt>
      <trkpt lat="42.721516" lon="-7.141972">
        <ele>1298.0</ele>
        <time>2022-08-22T07:36:48Z</time>
      </trkpt>
      <trkpt lat="42.721634" lon="-7.142157">
        <ele>1297.9</ele>
        <time>2022-08-22T07:37:02Z</time>
      </trkpt>
      <trkpt lat="42.721755" lon="-7.142343">
        <ele>1294.7</ele>
        <time>2022-08-22T07:37:16Z</time>
      </trkpt>
      <trkpt lat="42.721869" lon="-7.142538">
        <ele>1293.9</ele>
        <time>2022-08-22T07:37:30Z</time>
      </trkpt>
      <trkpt lat="42.721988" lon="-7.142724">
        <ele>1293.9</ele>
        <time>2022-08-22T07:37:43Z</time>
      </trkpt>
      <trkpt lat="42.722095" lon="-7.142933">
        <ele>1293.9</ele>
        <time>2022-08-22T07:37:57Z</time>
      </trkpt>
      <trkpt lat="42.722199" lon="-7.143137">
        <ele>1293.9</ele>
        <time>2022-08-22T07:38:11Z</time>
      </trkpt>
      <trkpt lat="42.722301" lon="-7.143352">
        <ele>1292.9</ele>
        <time>2022-08-22T07:38:24Z</time>
      </trkpt>
      <trkpt lat="42.722401" lon="-7.143577">
        <ele>1293.2</ele>
        <time>2022-08-22T07:38:39Z</time>
      </trkpt>
      <trkpt lat="42.722479" lon="-7.143802">
        <ele>1292.9</ele>
        <time>2022-08-22T07:38:53Z</time>
      </trkpt>
      <trkpt lat="42.722543" lon="-7.144039">
        <ele>1291.9</ele>
        <time>2022-08-22T07:39:28Z</time>
      </trkpt>
      <trkpt lat="42.722601" lon="-7.144274">
        <ele>1293.0</ele>
        <time>2022-08-22T07:39:42Z</time>
      </trkpt>
      <trkpt lat="42.722683" lon="-7.144498">
        <ele>1291.9</ele>
        <time>2022-08-22T07:39:56Z</time>
      </trkpt>
      <trkpt lat="42.722740" lon="-7.144758">
        <ele>1293.9</ele>
        <time>2022-08-22T07:40:10Z</time>
      </trkpt>
      <trkpt lat="42.722815" lon="-7.144985">
        <ele>1293.9</ele>
        <time>2022-08-22T07:40:23Z</time>
      </trkpt>
      <trkpt lat="42.722863" lon="-7.145222">
        <ele>1295.9</ele>
        <time>2022-08-22T07:40:35Z</time>
      </trkpt>
      <trkpt lat="42.722922" lon="-7.145461">
        <ele>1295.0</ele>
        <time>2022-08-22T07:40:49Z</time>
      </trkpt>
      <trkpt lat="42.723010" lon="-7.145690">
        <ele>1294.9</ele>
        <time>2022-08-22T07:41:03Z</time>
      </trkpt>
      <trkpt lat="42.723083" lon="-7.145917">
        <ele>1295.6</ele>
        <time>2022-08-22T07:41:17Z</time>
      </trkpt>
      <trkpt lat="42.723173" lon="-7.146131">
        <ele>1294.9</ele>
        <time>2022-08-22T07:41:31Z</time>
      </trkpt>
      <trkpt lat="42.723246" lon="-7.146359">
        <ele>1295.7</ele>
        <time>2022-08-22T07:41:45Z</time>
      </trkpt>
      <trkpt lat="42.723339" lon="-7.146569">
        <ele>1294.9</ele>
        <time>2022-08-22T07:41:58Z</time>
      </trkpt>
      <trkpt lat="42.723444" lon="-7.146790">
        <ele>1293.9</ele>
        <time>2022-08-22T07:42:13Z</time>
      </trkpt>
      <trkpt lat="42.723549" lon="-7.146998">
        <ele>1294.8</ele>
        <time>2022-08-22T07:42:27Z</time>
      </trkpt>
      <trkpt lat="42.723674" lon="-7.147188">
        <ele>1293.9</ele>
        <time>2022-08-22T07:42:41Z</time>
      </trkpt>
      <trkpt lat="42.723802" lon="-7.147363">
        <ele>1292.9</ele>
        <time>2022-08-22T07:42:54Z</time>
      </trkpt>
      <trkpt lat="42.723929" lon="-7.147548">
        <ele>1291.9</ele>
        <time>2022-08-22T07:43:08Z</time>
      </trkpt>
      <trkpt lat="42.724061" lon="-7.147740">
        <ele>1292.0</ele>
        <time>2022-08-22T07:43:23Z</time>
      </trkpt>
      <trkpt lat="42.724207" lon="-7.147909">
        <ele>1291.0</ele>
        <time>2022-08-22T07:43:38Z</time>
      </trkpt>
      <trkpt lat="42.724365" lon="-7.148048">
        <ele>1291.7</ele>
        <time>2022-08-22T07:43:53Z</time>
      </trkpt>
      <trkpt lat="42.724510" lon="-7.148208">
        <ele>1290.9</ele>
        <time>2022-08-22T07:44:08Z</time>
      </trkpt>
      <trkpt lat="42.724641" lon="-7.148376">
        <ele>1291.9</ele>
        <time>2022-08-22T07:44:21Z</time>
      </trkpt>
      <trkpt lat="42.724777" lon="-7.148537">
        <ele>1291.3</ele>
        <time>2022-08-22T07:44:35Z</time>
      </trkpt>
      <trkpt lat="42.724900" lon="-7.148718">
        <ele>1290.9</ele>
        <time>2022-08-22T07:44:49Z</time>
      </trkpt>
      <trkpt lat="42.725032" lon="-7.148890">
        <ele>1290.9</ele>
        <time>2022-08-22T07:45:03Z</time>
      </trkpt>
      <trkpt lat="42.725129" lon="-7.149102">
        <ele>1289.9</ele>
        <time>2022-08-22T07:45:17Z</time>
      </trkpt>
      <trkpt lat="42.725242" lon="-7.149310">
        <ele>1289.1</ele>
        <time>2022-08-22T07:45:33Z</time>
      </trkpt>
      <trkpt lat="42.725364" lon="-7.149491">
        <ele>1288.0</ele>
        <time>2022-08-22T07:45:48Z</time>
      </trkpt>
      <trkpt lat="42.725491" lon="-7.149666">
        <ele>1284.7</ele>
        <time>2022-08-22T07:46:02Z</time>
      </trkpt>
      <trkpt lat="42.725626" lon="-7.149851">
        <ele>1286.9</ele>
        <time>2022-08-22T07:46:16Z</time>
      </trkpt>
      <trkpt lat="42.725742" lon="-7.150052">
        <ele>1287.9</ele>
        <time>2022-08-22T07:46:31Z</time>
      </trkpt>
      <trkpt lat="42.725868" lon="-7.150245">
        <ele>1287.2</ele>
        <time>2022-08-22T07:46:46Z</time>
      </trkpt>
      <trkpt lat="42.725983" lon="-7.150437">
        <ele>1286.9</ele>
        <time>2022-08-22T07:46:59Z</time>
      </trkpt>
      <trkpt lat="42.726082" lon="-7.150648">
        <ele>1286.0</ele>
        <time>2022-08-22T07:47:13Z</time>
      </trkpt>
      <trkpt lat="42.726231" lon="-7.150790">
        <ele>1285.9</ele>
        <time>2022-08-22T07:47:27Z</time>
      </trkpt>
      <trkpt lat="42.726368" lon="-7.150974">
        <ele>1287.9</ele>
        <time>2022-08-22T07:47:43Z</time>
      </trkpt>
      <trkpt lat="42.726488" lon="-7.151158">
        <ele>1289.9</ele>
        <time>2022-08-22T07:47:57Z</time>
      </trkpt>
      <trkpt lat="42.726586" lon="-7.151378">
        <ele>1290.2</ele>
        <time>2022-08-22T07:48:12Z</time>
      </trkpt>
      <trkpt lat="42.726679" lon="-7.151605">
        <ele>1290.9</ele>
        <time>2022-08-22T07:48:27Z</time>
      </trkpt>
      <trkpt lat="42.726788" lon="-7.151804">
        <ele>1290.9</ele>
        <time>2022-08-22T07:48:42Z</time>
      </trkpt>
      <trkpt lat="42.726866" lon="-7.152042">
        <ele>1290.9</ele>
        <time>2022-08-22T07:49:18Z</time>
      </trkpt>
      <trkpt lat="42.726923" lon="-7.152280">
        <ele>1288.9</ele>
        <time>2022-08-22T07:49:33Z</time>
      </trkpt>
      <trkpt lat="42.727002" lon="-7.152513">
        <ele>1291.9</ele>
        <time>2022-08-22T07:49:46Z</time>
      </trkpt>
      <trkpt lat="42.727103" lon="-7.152733">
        <ele>1291.0</ele>
        <time>2022-08-22T07:50:00Z</time>
      </trkpt>
      <trkpt lat="42.727199" lon="-7.152949">
        <ele>1290.9</ele>
        <time>2022-08-22T07:50:14Z</time>
      </trkpt>
      <trkpt lat="42.727300" lon="-7.153162">
        <ele>1292.6</ele>
        <time>2022-08-22T07:50:28Z</time>
      </trkpt>
      <trkpt lat="42.727417" lon="-7.153357">
        <ele>1294.9</ele>
        <time>2022-08-22T07:50:43Z</time>
      </trkpt>
      <trkpt lat="42.727562" lon="-7.153522">
        <ele>1295.2</ele>
        <time>2022-08-22T07:50:57Z</time>
      </trkpt>
      <trkpt lat="42.727705" lon="-7.153694">
        <ele>1295.9</ele>
        <time>2022-08-22T07:51:12Z</time>
      </trkpt>
      <trkpt lat="42.727846" lon="-7.153858">
        <ele>1293.9</ele>
        <time>2022-08-22T07:51:27Z</time>
      </trkpt>
      <trkpt lat="42.728007" lon="-7.154005">
        <ele>1293.9</ele>
        <time>2022-08-22T07:51:42Z</time>
      </trkpt>
      <trkpt lat="42.728159" lon="-7.154155">
        <ele>1293.7</ele>
        <time>2022-08-22T07:51:56Z</time>
      </trkpt>
      <trkpt lat="42.728317" lon="-7.154282">
        <ele>1293.2</ele>
        <time>2022-08-22T07:52:10Z</time>
      </trkpt>
      <trkpt lat="42.728480" lon="-7.154411">
        <ele>1291.9</ele>
        <time>2022-08-22T07:52:24Z</time>
      </trkpt>
      <trkpt lat="42.728638" lon="-7.154556">
        <ele>1290.9</ele>
        <time>2022-08-22T07:52:39Z</time>
      </trkpt>
      <trkpt lat="42.728795" lon="-7.154709">
        <ele>1290.2</ele>
        <time>2022-08-22T07:53:12Z</time>
      </trkpt>
      <trkpt lat="42.728926" lon="-7.154888">
        <ele>1290.8</ele>
        <time>2022-08-22T07:53:27Z</time>
      </trkpt>
      <trkpt lat="42.729069" lon="-7.155042">
        <ele>1288.9</ele>
        <time>2022-08-22T07:53:41Z</time>
      </trkpt>
      <trkpt lat="42.729232" lon="-7.155149">
        <ele>1284.9</ele>
        <time>2022-08-22T07:53:55Z</time>
      </trkpt>
      <trkpt lat="42.729407" lon="-7.155236">
        <ele>1283.9</ele>
        <time>2022-08-22T07:54:09Z</time>
      </trkpt>
      <trkpt lat="42.729575" lon="-7.155336">
        <ele>1281.0</ele>
        <time>2022-08-22T07:54:25Z</time>
      </trkpt>
      <trkpt lat="42.729721" lon="-7.155502">
        <ele>1284.0</ele>
        <time>2022-08-22T07:54:41Z</time>
      </trkpt>
      <trkpt lat="42.729888" lon="-7.155616">
        <ele>1285.9</ele>
        <time>2022-08-22T07:54:55Z</time>
      </trkpt>
      <trkpt lat="42.730058" lon="-7.155712">
        <ele>1286.9</ele>
        <time>2022-08-22T07:55:08Z</time>
      </trkpt>
      <trkpt lat="42.730238" lon="-7.155782">
        <ele>1286.2</ele>
        <time>2022-08-22T07:55:22Z</time>
      </trkpt>
      <trkpt lat="42.730409" lon="-7.155900">
        <ele>1283.2</ele>
        <time>2022-08-22T07:55:36Z</time>
      </trkpt>
      <trkpt lat="42.730541" lon="-7.156084">
        <ele>1281.9</ele>
        <time>2022-08-22T07:55:51Z</time>
      </trkpt>
      <trkpt lat="42.730689" lon="-7.156232">
        <ele>1284.8</ele>
        <time>2022-08-22T07:56:06Z</time>
      </trkpt>
      <trkpt lat="42.730833" lon="-7.156380">
        <ele>1287.6</ele>
        <time>2022-08-22T07:56:19Z</time>
      </trkpt>
      <trkpt lat="42.731003" lon="-7.156499">
        <ele>1288.9</ele>
        <time>2022-08-22T07:56:33Z</time>
      </trkpt>
      <trkpt lat="42.731133" lon="-7.156678">
        <ele>1288.9</ele>
        <time>2022-08-22T07:56:48Z</time>
      </trkpt>
      <trkpt lat="42.731323" lon="-7.157089">
        <ele>1289.9</ele>
        <time>2022-08-22T08:19:50Z</time>
      </trkpt>
      <trkpt lat="42.731439" lon="-7.157280">
        <ele>1292.6</ele>
        <time>2022-08-22T08:20:05Z</time>
      </trkpt>
      <trkpt lat="42.731546" lon="-7.157478">
        <ele>1293.9</ele>
        <time>2022-08-22T08:21:06Z</time>
      </trkpt>
      <trkpt lat="42.731683" lon="-7.157642">
        <ele>1295.7</ele>
        <time>2022-08-22T08:21:20Z</time>
      </trkpt>
      <trkpt lat="42.731777" lon="-7.157859">
        <ele>1293.9</ele>
        <time>2022-08-22T08:21:36Z</time>
      </trkpt>
      <trkpt lat="42.731869" lon="-7.158078">
        <ele>1293.9</ele>
        <time>2022-08-22T08:22:00Z</time>
      </trkpt>
      <trkpt lat="42.731979" lon="-7.158281">
        <ele>1294.9</ele>
        <time>2022-08-22T08:22:15Z</time>
      </trkpt>
      <trkpt lat="42.732085" lon="-7.158481">
        <ele>1294.7</ele>
        <time>2022-08-22T08:22:29Z</time>
      </trkpt>
      <trkpt lat="42.732191" lon="-7.158690">
        <ele>1295.9</ele>
        <time>2022-08-22T08:22:54Z</time>
      </trkpt>
      <trkpt lat="42.732320" lon="-7.158884">
        <ele>1294.9</ele>
        <time>2022-08-22T08:23:08Z</time>
      </trkpt>
      <trkpt lat="42.732450" lon="-7.159054">
        <ele>1293.9</ele>
        <time>2022-08-22T08:23:25Z</time>
      </trkpt>
      <trkpt lat="42.732598" lon="-7.159195">
        <ele>1294.9</ele>
        <time>2022-08-22T08:23:39Z</time>
      </trkpt>
      <trkpt lat="42.732735" lon="-7.159364">
        <ele>1294.9</ele>
        <time>2022-08-22T08:23:54Z</time>
      </trkpt>
      <trkpt lat="42.732883" lon="-7.159505">
        <ele>1295.9</ele>
        <time>2022-08-22T08:24:17Z</time>
      </trkpt>
      <trkpt lat="42.733019" lon="-7.159671">
        <ele>1295.8</ele>
        <time>2022-08-22T08:24:29Z</time>
      </trkpt>
      <trkpt lat="42.733141" lon="-7.159851">
        <ele>1295.9</ele>
        <time>2022-08-22T08:24:46Z</time>
      </trkpt>
      <trkpt lat="42.733251" lon="-7.160056">
        <ele>1295.0</ele>
        <time>2022-08-22T08:25:02Z</time>
      </trkpt>
      <trkpt lat="42.733351" lon="-7.160270">
        <ele>1293.9</ele>
        <time>2022-08-22T08:25:16Z</time>
      </trkpt>
      <trkpt lat="42.733450" lon="-7.160476">
        <ele>1292.9</ele>
        <time>2022-08-22T08:25:31Z</time>
      </trkpt>
      <trkpt lat="42.733544" lon="-7.160688">
        <ele>1293.9</ele>
        <time>2022-08-22T08:25:47Z</time>
      </trkpt>
      <trkpt lat="42.733627" lon="-7.160911">
        <ele>1293.9</ele>
        <time>2022-08-22T08:26:09Z</time>
      </trkpt>
      <trkpt lat="42.733735" lon="-7.161108">
        <ele>1294.9</ele>
        <time>2022-08-22T08:26:22Z</time>
      </trkpt>
      <trkpt lat="42.733772" lon="-7.161350">
        <ele>1293.0</ele>
        <time>2022-08-22T08:26:38Z</time>
      </trkpt>
      <trkpt lat="42.733870" lon="-7.161572">
        <ele>1292.7</ele>
        <time>2022-08-22T08:26:52Z</time>
      </trkpt>
      <trkpt lat="42.733982" lon="-7.161771">
        <ele>1295.9</ele>
        <time>2022-08-22T08:27:21Z</time>
      </trkpt>
      <trkpt lat="42.734107" lon="-7.161964">
        <ele>1294.2</ele>
        <time>2022-08-22T08:27:35Z</time>
      </trkpt>
      <trkpt lat="42.734190" lon="-7.162183">
        <ele>1293.9</ele>
        <time>2022-08-22T08:27:48Z</time>
      </trkpt>
      <trkpt lat="42.734285" lon="-7.162400">
        <ele>1292.9</ele>
        <time>2022-08-22T08:28:11Z</time>
      </trkpt>
      <trkpt lat="42.734373" lon="-7.162618">
        <ele>1292.9</ele>
        <time>2022-08-22T08:28:22Z</time>
      </trkpt>
      <trkpt lat="42.734439" lon="-7.162857">
        <ele>1290.9</ele>
        <time>2022-08-22T08:28:38Z</time>
      </trkpt>
      <trkpt lat="42.734495" lon="-7.163101">
        <ele>1291.9</ele>
        <time>2022-08-22T08:28:53Z</time>
      </trkpt>
      <trkpt lat="42.734563" lon="-7.163343">
        <ele>1290.9</ele>
        <time>2022-08-22T08:29:08Z</time>
      </trkpt>
      <trkpt lat="42.734609" lon="-7.163581">
        <ele>1288.9</ele>
        <time>2022-08-22T08:29:24Z</time>
      </trkpt>
      <trkpt lat="42.734659" lon="-7.163823">
        <ele>1286.0</ele>
        <time>2022-08-22T08:29:39Z</time>
      </trkpt>
      <trkpt lat="42.734740" lon="-7.164047">
        <ele>1284.0</ele>
        <time>2022-08-22T08:29:56Z</time>
      </trkpt>
      <trkpt lat="42.734805" lon="-7.164278">
        <ele>1283.9</ele>
        <time>2022-08-22T08:30:09Z</time>
      </trkpt>
      <trkpt lat="42.734875" lon="-7.164513">
        <ele>1284.2</ele>
        <time>2022-08-22T08:30:23Z</time>
      </trkpt>
      <trkpt lat="42.734956" lon="-7.164741">
        <ele>1280.9</ele>
        <time>2022-08-22T08:30:39Z</time>
      </trkpt>
      <trkpt lat="42.735036" lon="-7.164978">
        <ele>1277.9</ele>
        <time>2022-08-22T08:30:55Z</time>
      </trkpt>
      <trkpt lat="42.735089" lon="-7.165213">
        <ele>1278.9</ele>
        <time>2022-08-22T08:31:10Z</time>
      </trkpt>
      <trkpt lat="42.735175" lon="-7.165437">
        <ele>1277.9</ele>
        <time>2022-08-22T08:31:24Z</time>
      </trkpt>
      <trkpt lat="42.735232" lon="-7.165671">
        <ele>1278.9</ele>
        <time>2022-08-22T08:31:39Z</time>
      </trkpt>
      <trkpt lat="42.735297" lon="-7.165916">
        <ele>1278.7</ele>
        <time>2022-08-22T08:31:54Z</time>
      </trkpt>
      <trkpt lat="42.735359" lon="-7.166168">
        <ele>1276.2</ele>
        <time>2022-08-22T08:32:09Z</time>
      </trkpt>
      <trkpt lat="42.735434" lon="-7.166401">
        <ele>1276.9</ele>
        <time>2022-08-22T08:32:24Z</time>
      </trkpt>
      <trkpt lat="42.735521" lon="-7.166638">
        <ele>1274.9</ele>
        <time>2022-08-22T08:32:39Z</time>
      </trkpt>
      <trkpt lat="42.735629" lon="-7.166838">
        <ele>1272.9</ele>
        <time>2022-08-22T08:32:57Z</time>
      </trkpt>
      <trkpt lat="42.735690" lon="-7.167075">
        <ele>1271.9</ele>
        <time>2022-08-22T08:33:12Z</time>
      </trkpt>
      <trkpt lat="42.735791" lon="-7.167278">
        <ele>1269.9</ele>
        <time>2022-08-22T08:33:25Z</time>
      </trkpt>
      <trkpt lat="42.735899" lon="-7.167485">
        <ele>1269.9</ele>
        <time>2022-08-22T08:33:39Z</time>
      </trkpt>
      <trkpt lat="42.735971" lon="-7.167711">
        <ele>1270.7</ele>
        <time>2022-08-22T08:33:58Z</time>
      </trkpt>
      <trkpt lat="42.736090" lon="-7.167897">
        <ele>1269.9</ele>
        <time>2022-08-22T08:34:11Z</time>
      </trkpt>
      <trkpt lat="42.736203" lon="-7.168096">
        <ele>1269.9</ele>
        <time>2022-08-22T08:34:26Z</time>
      </trkpt>
      <trkpt lat="42.736307" lon="-7.168299">
        <ele>1267.9</ele>
        <time>2022-08-22T08:34:41Z</time>
      </trkpt>
      <trkpt lat="42.736389" lon="-7.168521">
        <ele>1267.9</ele>
        <time>2022-08-22T08:34:57Z</time>
      </trkpt>
      <trkpt lat="42.736475" lon="-7.168742">
        <ele>1266.9</ele>
        <time>2022-08-22T08:35:13Z</time>
      </trkpt>
      <trkpt lat="42.736545" lon="-7.168975">
        <ele>1266.9</ele>
        <time>2022-08-22T08:35:30Z</time>
      </trkpt>
      <trkpt lat="42.736616" lon="-7.169208">
        <ele>1267.7</ele>
        <time>2022-08-22T08:35:46Z</time>
      </trkpt>
      <trkpt lat="42.736831" lon="-7.169388">
        <ele>1275.2</ele>
        <time>2022-08-22T08:35:59Z</time>
      </trkpt>
      <trkpt lat="42.736838" lon="-7.169636">
        <ele>1266.8</ele>
        <time>2022-08-22T08:36:14Z</time>
      </trkpt>
      <trkpt lat="42.736987" lon="-7.169819">
        <ele>1278.3</ele>
        <time>2022-08-22T08:36:31Z</time>
      </trkpt>
      <trkpt lat="42.737017" lon="-7.170063">
        <ele>1244.2</ele>
        <time>2022-08-22T08:36:45Z</time>
      </trkpt>
      <trkpt lat="42.737132" lon="-7.170293">
        <ele>1254.5</ele>
        <time>2022-08-22T08:37:00Z</time>
      </trkpt>
      <trkpt lat="42.737148" lon="-7.170541">
        <ele>1259.3</ele>
        <time>2022-08-22T08:37:21Z</time>
      </trkpt>
      <trkpt lat="42.737186" lon="-7.170785">
        <ele>1256.9</ele>
        <time>2022-08-22T08:37:32Z</time>
      </trkpt>
      <trkpt lat="42.737212" lon="-7.171027">
        <ele>1253.9</ele>
        <time>2022-08-22T08:37:46Z</time>
      </trkpt>
      <trkpt lat="42.737173" lon="-7.171276">
        <ele>1253.0</ele>
        <time>2022-08-22T08:38:02Z</time>
      </trkpt>
      <trkpt lat="42.737059" lon="-7.171466">
        <ele>1254.9</ele>
        <time>2022-08-22T08:38:17Z</time>
      </trkpt>
      <trkpt lat="42.736962" lon="-7.171680">
        <ele>1255.0</ele>
        <time>2022-08-22T08:38:33Z</time>
      </trkpt>
      <trkpt lat="42.736900" lon="-7.171927">
        <ele>1254.7</ele>
        <time>2022-08-22T08:38:49Z</time>
      </trkpt>
      <trkpt lat="42.736899" lon="-7.172179">
        <ele>1251.0</ele>
        <time>2022-08-22T08:39:12Z</time>
      </trkpt>
      <trkpt lat="42.736945" lon="-7.172419">
        <ele>1250.3</ele>
        <time>2022-08-22T08:39:25Z</time>
      </trkpt>
      <trkpt lat="42.736984" lon="-7.172663">
        <ele>1249.0</ele>
        <time>2022-08-22T08:39:40Z</time>
      </trkpt>
      <trkpt lat="42.737012" lon="-7.172912">
        <ele>1246.1</ele>
        <time>2022-08-22T08:39:56Z</time>
      </trkpt>
      <trkpt lat="42.737038" lon="-7.173156">
        <ele>1246.0</ele>
        <time>2022-08-22T08:40:11Z</time>
      </trkpt>
      <trkpt lat="42.737089" lon="-7.173392">
        <ele>1242.0</ele>
        <time>2022-08-22T08:40:26Z</time>
      </trkpt>
      <trkpt lat="42.737195" lon="-7.173593">
        <ele>1242.0</ele>
        <time>2022-08-22T08:40:42Z</time>
      </trkpt>
      <trkpt lat="42.737322" lon="-7.173774">
        <ele>1239.0</ele>
        <time>2022-08-22T08:41:00Z</time>
      </trkpt>
      <trkpt lat="42.737502" lon="-7.173846">
        <ele>1236.3</ele>
        <time>2022-08-22T08:41:15Z</time>
      </trkpt>
      <trkpt lat="42.737672" lon="-7.173937">
        <ele>1234.3</ele>
        <time>2022-08-22T08:41:26Z</time>
      </trkpt>
      <trkpt lat="42.737838" lon="-7.174035">
        <ele>1233.0</ele>
        <time>2022-08-22T08:42:06Z</time>
      </trkpt>
      <trkpt lat="42.737993" lon="-7.174171">
        <ele>1234.7</ele>
        <time>2022-08-22T08:42:23Z</time>
      </trkpt>
      <trkpt lat="42.738164" lon="-7.174262">
        <ele>1234.9</ele>
        <time>2022-08-22T08:42:35Z</time>
      </trkpt>
      <trkpt lat="42.738343" lon="-7.174328">
        <ele>1231.3</ele>
        <time>2022-08-22T08:42:48Z</time>
      </trkpt>
      <trkpt lat="42.738529" lon="-7.174319">
        <ele>1232.0</ele>
        <time>2022-08-22T08:43:03Z</time>
      </trkpt>
      <trkpt lat="42.738709" lon="-7.174294">
        <ele>1230.0</ele>
        <time>2022-08-22T08:43:16Z</time>
      </trkpt>
      <trkpt lat="42.738880" lon="-7.174375">
        <ele>1230.1</ele>
        <time>2022-08-22T08:43:30Z</time>
      </trkpt>
      <trkpt lat="42.739024" lon="-7.174527">
        <ele>1230.0</ele>
        <time>2022-08-22T08:43:45Z</time>
      </trkpt>
      <trkpt lat="42.739175" lon="-7.174670">
        <ele>1229.0</ele>
        <time>2022-08-22T08:44:01Z</time>
      </trkpt>
      <trkpt lat="42.739301" lon="-7.174845">
        <ele>1228.0</ele>
        <time>2022-08-22T08:44:15Z</time>
      </trkpt>
      <trkpt lat="42.739464" lon="-7.174957">
        <ele>1228.0</ele>
        <time>2022-08-22T08:44:29Z</time>
      </trkpt>
      <trkpt lat="42.739653" lon="-7.175012">
        <ele>1228.0</ele>
        <time>2022-08-22T08:44:42Z</time>
      </trkpt>
      <trkpt lat="42.739827" lon="-7.175106">
        <ele>1228.3</ele>
        <time>2022-08-22T08:45:00Z</time>
      </trkpt>
      <trkpt lat="42.739951" lon="-7.175299">
        <ele>1227.0</ele>
        <time>2022-08-22T08:45:14Z</time>
      </trkpt>
      <trkpt lat="42.740091" lon="-7.175454">
        <ele>1228.3</ele>
        <time>2022-08-22T08:45:28Z</time>
      </trkpt>
      <trkpt lat="42.740240" lon="-7.175604">
        <ele>1226.0</ele>
        <time>2022-08-22T08:45:44Z</time>
      </trkpt>
      <trkpt lat="42.740392" lon="-7.175760">
        <ele>1224.0</ele>
        <time>2022-08-22T08:46:00Z</time>
      </trkpt>
      <trkpt lat="42.740538" lon="-7.175908">
        <ele>1223.9</ele>
        <time>2022-08-22T08:46:14Z</time>
      </trkpt>
      <trkpt lat="42.740681" lon="-7.176060">
        <ele>1223.0</ele>
        <time>2022-08-22T08:46:29Z</time>
      </trkpt>
      <trkpt lat="42.740835" lon="-7.176205">
        <ele>1223.0</ele>
        <time>2022-08-22T08:46:44Z</time>
      </trkpt>
      <trkpt lat="42.740951" lon="-7.176396">
        <ele>1223.0</ele>
        <time>2022-08-22T08:47:02Z</time>
      </trkpt>
      <trkpt lat="42.741061" lon="-7.176592">
        <ele>1193.3</ele>
        <time>2022-08-22T08:47:16Z</time>
      </trkpt>
      <trkpt lat="42.741200" lon="-7.176787">
        <ele>1193.3</ele>
        <time>2022-08-22T08:47:30Z</time>
      </trkpt>
      <trkpt lat="42.741331" lon="-7.176957">
        <ele>1193.3</ele>
        <time>2022-08-22T08:47:44Z</time>
      </trkpt>
      <trkpt lat="42.741474" lon="-7.177129">
        <ele>1193.3</ele>
        <time>2022-08-22T08:48:00Z</time>
      </trkpt>
      <trkpt lat="42.741624" lon="-7.177303">
        <ele>1193.3</ele>
        <time>2022-08-22T08:48:15Z</time>
      </trkpt>
      <trkpt lat="42.741777" lon="-7.177447">
        <ele>1193.3</ele>
        <time>2022-08-22T08:48:30Z</time>
      </trkpt>
      <trkpt lat="42.741917" lon="-7.177605">
        <ele>1215.9</ele>
        <time>2022-08-22T08:48:44Z</time>
      </trkpt>
      <trkpt lat="42.742033" lon="-7.177798">
        <ele>1215.0</ele>
        <time>2022-08-22T08:48:57Z</time>
      </trkpt>
      <trkpt lat="42.742176" lon="-7.177948">
        <ele>1212.0</ele>
        <time>2022-08-22T08:49:12Z</time>
      </trkpt>
      <trkpt lat="42.742362" lon="-7.177969">
        <ele>1193.3</ele>
        <time>2022-08-22T08:49:32Z</time>
      </trkpt>
      <trkpt lat="42.742545" lon="-7.177967">
        <ele>1193.3</ele>
        <time>2022-08-22T08:49:46Z</time>
      </trkpt>
      <trkpt lat="42.742729" lon="-7.177989">
        <ele>1193.3</ele>
        <time>2022-08-22T08:50:01Z</time>
      </trkpt>
      <trkpt lat="42.742912" lon="-7.177993">
        <ele>1193.3</ele>
        <time>2022-08-22T08:50:14Z</time>
      </trkpt>
      <trkpt lat="42.743091" lon="-7.178067">
        <ele>1193.3</ele>
        <time>2022-08-22T08:50:30Z</time>
      </trkpt>
      <trkpt lat="42.743274" lon="-7.178017">
        <ele>1193.3</ele>
        <time>2022-08-22T08:51:14Z</time>
      </trkpt>
      <trkpt lat="42.743458" lon="-7.178003">
        <ele>1193.3</ele>
        <time>2022-08-22T08:51:27Z</time>
      </trkpt>
      <trkpt lat="42.743638" lon="-7.177972">
        <ele>1193.3</ele>
        <time>2022-08-22T08:52:20Z</time>
      </trkpt>
      <trkpt lat="42.743822" lon="-7.178025">
        <ele>1193.3</ele>
        <time>2022-08-22T08:52:33Z</time>
      </trkpt>
      <trkpt lat="42.743988" lon="-7.178136">
        <ele>1192.7</ele>
        <time>2022-08-22T08:52:48Z</time>
      </trkpt>
      <trkpt lat="42.744152" lon="-7.178255">
        <ele>1188.3</ele>
        <time>2022-08-22T08:53:02Z</time>
      </trkpt>
      <trkpt lat="42.744269" lon="-7.178486">
        <ele>1188.3</ele>
        <time>2022-08-22T08:53:17Z</time>
      </trkpt>
      <trkpt lat="42.744266" lon="-7.178742">
        <ele>1187.4</ele>
        <time>2022-08-22T08:53:33Z</time>
      </trkpt>
      <trkpt lat="42.744243" lon="-7.178989">
        <ele>1187.4</ele>
        <time>2022-08-22T08:53:47Z</time>
      </trkpt>
      <trkpt lat="42.744160" lon="-7.179214">
        <ele>1187.4</ele>
        <time>2022-08-22T08:54:02Z</time>
      </trkpt>
      <trkpt lat="42.744103" lon="-7.179449">
        <ele>1187.4</ele>
        <time>2022-08-22T08:54:17Z</time>
      </trkpt>
      <trkpt lat="42.744080" lon="-7.179703">
        <ele>1187.4</ele>
        <time>2022-08-22T08:54:32Z</time>
      </trkpt>
      <trkpt lat="42.744036" lon="-7.179955">
        <ele>1187.4</ele>
        <time>2022-08-22T08:54:46Z</time>
      </trkpt>
      <trkpt lat="42.744022" lon="-7.180205">
        <ele>1187.4</ele>
        <time>2022-08-22T08:55:01Z</time>
      </trkpt>
      <trkpt lat="42.743983" lon="-7.180446">
        <ele>1184.0</ele>
        <time>2022-08-22T08:55:15Z</time>
      </trkpt>
      <trkpt lat="42.743907" lon="-7.180687">
        <ele>1180.4</ele>
        <time>2022-08-22T08:55:31Z</time>
      </trkpt>
      <trkpt lat="42.743883" lon="-7.180931">
        <ele>1183.0</ele>
        <time>2022-08-22T08:55:44Z</time>
      </trkpt>
      <trkpt lat="42.743768" lon="-7.181131">
        <ele>1185.0</ele>
        <time>2022-08-22T08:55:58Z</time>
      </trkpt>
      <trkpt lat="42.743729" lon="-7.181379">
        <ele>1184.0</ele>
        <time>2022-08-22T08:56:14Z</time>
      </trkpt>
      <trkpt lat="42.743635" lon="-7.181594">
        <ele>1180.3</ele>
        <time>2022-08-22T08:56:30Z</time>
      </trkpt>
      <trkpt lat="42.743548" lon="-7.181814">
        <ele>1179.0</ele>
        <time>2022-08-22T08:56:46Z</time>
      </trkpt>
      <trkpt lat="42.743512" lon="-7.182060">
        <ele>1177.0</ele>
        <time>2022-08-22T08:57:01Z</time>
      </trkpt>
      <trkpt lat="42.743532" lon="-7.182314">
        <ele>1176.0</ele>
        <time>2022-08-22T08:57:14Z</time>
      </trkpt>
      <trkpt lat="42.743646" lon="-7.182504">
        <ele>1177.9</ele>
        <time>2022-08-22T08:57:25Z</time>
      </trkpt>
      <trkpt lat="42.743704" lon="-7.182740">
        <ele>1175.9</ele>
        <time>2022-08-22T08:57:39Z</time>
      </trkpt>
      <trkpt lat="42.743763" lon="-7.182984">
        <ele>1175.0</ele>
        <time>2022-08-22T08:57:54Z</time>
      </trkpt>
      <trkpt lat="42.743818" lon="-7.183231">
        <ele>1176.3</ele>
        <time>2022-08-22T08:58:08Z</time>
      </trkpt>
      <trkpt lat="42.743877" lon="-7.183465">
        <ele>1176.0</ele>
        <time>2022-08-22T08:58:22Z</time>
      </trkpt>
      <trkpt lat="42.743959" lon="-7.183683">
        <ele>1175.3</ele>
        <time>2022-08-22T08:58:36Z</time>
      </trkpt>
      <trkpt lat="42.744098" lon="-7.183838">
        <ele>1170.0</ele>
        <time>2022-08-22T08:58:52Z</time>
      </trkpt>
      <trkpt lat="42.744219" lon="-7.184022">
        <ele>1171.3</ele>
        <time>2022-08-22T08:59:08Z</time>
      </trkpt>
      <trkpt lat="42.744296" lon="-7.184258">
        <ele>1171.2</ele>
        <time>2022-08-22T08:59:25Z</time>
      </trkpt>
      <trkpt lat="42.744240" lon="-7.184514">
        <ele>1174.9</ele>
        <time>2022-08-22T08:59:40Z</time>
      </trkpt>
      <trkpt lat="42.744154" lon="-7.184733">
        <ele>1175.0</ele>
        <time>2022-08-22T08:59:55Z</time>
      </trkpt>
      <trkpt lat="42.744084" lon="-7.184964">
        <ele>1172.0</ele>
        <time>2022-08-22T09:00:10Z</time>
      </trkpt>
      <trkpt lat="42.743944" lon="-7.185145">
        <ele>1174.9</ele>
        <time>2022-08-22T09:00:25Z</time>
      </trkpt>
      <trkpt lat="42.743856" lon="-7.185363">
        <ele>1172.3</ele>
        <time>2022-08-22T09:00:40Z</time>
      </trkpt>
      <trkpt lat="42.743794" lon="-7.185594">
        <ele>1171.0</ele>
        <time>2022-08-22T09:00:56Z</time>
      </trkpt>
      <trkpt lat="42.743738" lon="-7.185829">
        <ele>1167.1</ele>
        <time>2022-08-22T09:01:10Z</time>
      </trkpt>
      <trkpt lat="42.743717" lon="-7.186077">
        <ele>1167.0</ele>
        <time>2022-08-22T09:01:24Z</time>
      </trkpt>
      <trkpt lat="42.743757" lon="-7.186322">
        <ele>1169.0</ele>
        <time>2022-08-22T09:01:38Z</time>
      </trkpt>
      <trkpt lat="42.743816" lon="-7.186562">
        <ele>1170.0</ele>
        <time>2022-08-22T09:01:52Z</time>
      </trkpt>
      <trkpt lat="42.743848" lon="-7.186807">
        <ele>1172.3</ele>
        <time>2022-08-22T09:02:06Z</time>
      </trkpt>
      <trkpt lat="42.743935" lon="-7.187027">
        <ele>1169.0</ele>
        <time>2022-08-22T09:02:21Z</time>
      </trkpt>
      <trkpt lat="42.744086" lon="-7.187160">
        <ele>1170.7</ele>
        <time>2022-08-22T09:02:37Z</time>
      </trkpt>
      <trkpt lat="42.744247" lon="-7.187313">
        <ele>1171.2</ele>
        <time>2022-08-22T09:02:53Z</time>
      </trkpt>
      <trkpt lat="42.744414" lon="-7.187444">
        <ele>1172.3</ele>
        <time>2022-08-22T09:03:08Z</time>
      </trkpt>
      <trkpt lat="42.744581" lon="-7.187548">
        <ele>1169.3</ele>
        <time>2022-08-22T09:03:23Z</time>
      </trkpt>
      <trkpt lat="42.744729" lon="-7.187701">
        <ele>1171.0</ele>
        <time>2022-08-22T09:03:38Z</time>
      </trkpt>
      <trkpt lat="42.744811" lon="-7.187934">
        <ele>1170.0</ele>
        <time>2022-08-22T09:03:54Z</time>
      </trkpt>
      <trkpt lat="42.744827" lon="-7.188185">
        <ele>1171.0</ele>
        <time>2022-08-22T09:04:11Z</time>
      </trkpt>
      <trkpt lat="42.744757" lon="-7.188420">
        <ele>1172.0</ele>
        <time>2022-08-22T09:04:24Z</time>
      </trkpt>
      <trkpt lat="42.744710" lon="-7.188665">
        <ele>1172.0</ele>
        <time>2022-08-22T09:04:40Z</time>
      </trkpt>
      <trkpt lat="42.744616" lon="-7.188880">
        <ele>1170.3</ele>
        <time>2022-08-22T09:04:56Z</time>
      </trkpt>
      <trkpt lat="42.744523" lon="-7.189093">
        <ele>1168.0</ele>
        <time>2022-08-22T09:05:12Z</time>
      </trkpt>
      <trkpt lat="42.744363" lon="-7.189230">
        <ele>1167.0</ele>
        <time>2022-08-22T09:05:27Z</time>
      </trkpt>
      <trkpt lat="42.744212" lon="-7.189376">
        <ele>1167.0</ele>
        <time>2022-08-22T09:05:41Z</time>
      </trkpt>
      <trkpt lat="42.744049" lon="-7.189496">
        <ele>1166.0</ele>
        <time>2022-08-22T09:05:55Z</time>
      </trkpt>
      <trkpt lat="42.743878" lon="-7.189583">
        <ele>1162.0</ele>
        <time>2022-08-22T09:06:08Z</time>
      </trkpt>
      <trkpt lat="42.743708" lon="-7.189679">
        <ele>1160.3</ele>
        <time>2022-08-22T09:06:24Z</time>
      </trkpt>
      <trkpt lat="42.743529" lon="-7.189775">
        <ele>1160.3</ele>
        <time>2022-08-22T09:07:48Z</time>
      </trkpt>
      <trkpt lat="42.743356" lon="-7.189844">
        <ele>1160.0</ele>
        <time>2022-08-22T09:08:00Z</time>
      </trkpt>
      <trkpt lat="42.743173" lon="-7.189905">
        <ele>1158.3</ele>
        <time>2022-08-22T09:08:13Z</time>
      </trkpt>
      <trkpt lat="42.743002" lon="-7.189985">
        <ele>1156.9</ele>
        <time>2022-08-22T09:08:25Z</time>
      </trkpt>
      <trkpt lat="42.742829" lon="-7.190054">
        <ele>1156.0</ele>
        <time>2022-08-22T09:08:39Z</time>
      </trkpt>
      <trkpt lat="42.742657" lon="-7.190144">
        <ele>1156.0</ele>
        <time>2022-08-22T09:08:52Z</time>
      </trkpt>
      <trkpt lat="42.742478" lon="-7.190213">
        <ele>1155.9</ele>
        <time>2022-08-22T09:09:05Z</time>
      </trkpt>
      <trkpt lat="42.742306" lon="-7.190303">
        <ele>1157.0</ele>
        <time>2022-08-22T09:09:18Z</time>
      </trkpt>
      <trkpt lat="42.742127" lon="-7.190382">
        <ele>1156.1</ele>
        <time>2022-08-22T09:09:31Z</time>
      </trkpt>
      <trkpt lat="42.741954" lon="-7.190470">
        <ele>1152.3</ele>
        <time>2022-08-22T09:09:45Z</time>
      </trkpt>
      <trkpt lat="42.741792" lon="-7.190583">
        <ele>1151.1</ele>
        <time>2022-08-22T09:09:59Z</time>
      </trkpt>
      <trkpt lat="42.741626" lon="-7.190692">
        <ele>1147.3</ele>
        <time>2022-08-22T09:10:13Z</time>
      </trkpt>
      <trkpt lat="42.741455" lon="-7.190791">
        <ele>1146.0</ele>
        <time>2022-08-22T09:10:27Z</time>
      </trkpt>
      <trkpt lat="42.741284" lon="-7.190909">
        <ele>1146.0</ele>
        <time>2022-08-22T09:10:41Z</time>
      </trkpt>
      <trkpt lat="42.741117" lon="-7.191002">
        <ele>1146.0</ele>
        <time>2022-08-22T09:10:53Z</time>
      </trkpt>
      <trkpt lat="42.740955" lon="-7.191121">
        <ele>1146.0</ele>
        <time>2022-08-22T09:11:06Z</time>
      </trkpt>
      <trkpt lat="42.740796" lon="-7.191238">
        <ele>1145.0</ele>
        <time>2022-08-22T09:11:19Z</time>
      </trkpt>
      <trkpt lat="42.740640" lon="-7.191387">
        <ele>1145.0</ele>
        <time>2022-08-22T09:11:32Z</time>
      </trkpt>
      <trkpt lat="42.740493" lon="-7.191528">
        <ele>1143.0</ele>
        <time>2022-08-22T09:11:45Z</time>
      </trkpt>
      <trkpt lat="42.740369" lon="-7.191715">
        <ele>1145.0</ele>
        <time>2022-08-22T09:11:59Z</time>
      </trkpt>
      <trkpt lat="42.740253" lon="-7.191903">
        <ele>1142.0</ele>
        <time>2022-08-22T09:12:12Z</time>
      </trkpt>
      <trkpt lat="42.740201" lon="-7.192140">
        <ele>1140.0</ele>
        <time>2022-08-22T09:12:25Z</time>
      </trkpt>
      <trkpt lat="42.740144" lon="-7.192381">
        <ele>1136.0</ele>
        <time>2022-08-22T09:12:40Z</time>
      </trkpt>
      <trkpt lat="42.740254" lon="-7.192582">
        <ele>1131.0</ele>
        <time>2022-08-22T09:12:56Z</time>
      </trkpt>
      <trkpt lat="42.740402" lon="-7.192740">
        <ele>1128.0</ele>
        <time>2022-08-22T09:13:10Z</time>
      </trkpt>
      <trkpt lat="42.740533" lon="-7.192911">
        <ele>1127.0</ele>
        <time>2022-08-22T09:13:23Z</time>
      </trkpt>
      <trkpt lat="42.740655" lon="-7.193104">
        <ele>1122.3</ele>
        <time>2022-08-22T09:13:38Z</time>
      </trkpt>
      <trkpt lat="42.740707" lon="-7.193338">
        <ele>1121.0</ele>
        <time>2022-08-22T09:13:51Z</time>
      </trkpt>
      <trkpt lat="42.740656" lon="-7.193584">
        <ele>1115.1</ele>
        <time>2022-08-22T09:14:04Z</time>
      </trkpt>
      <trkpt lat="42.740633" lon="-7.193830">
        <ele>1112.0</ele>
        <time>2022-08-22T09:14:18Z</time>
      </trkpt>
      <trkpt lat="42.740609" lon="-7.194083">
        <ele>1108.0</ele>
        <time>2022-08-22T09:14:34Z</time>
      </trkpt>
      <trkpt lat="42.740614" lon="-7.194331">
        <ele>1105.0</ele>
        <time>2022-08-22T09:14:51Z</time>
      </trkpt>
      <trkpt lat="42.740641" lon="-7.194595">
        <ele>1099.3</ele>
        <time>2022-08-22T09:15:07Z</time>
      </trkpt>
      <trkpt lat="42.740616" lon="-7.194837">
        <ele>1097.0</ele>
        <time>2022-08-22T09:15:19Z</time>
      </trkpt>
      <trkpt lat="42.740629" lon="-7.195092">
        <ele>1096.0</ele>
        <time>2022-08-22T09:15:33Z</time>
      </trkpt>
      <trkpt lat="42.740750" lon="-7.195279">
        <ele>1093.3</ele>
        <time>2022-08-22T09:15:49Z</time>
      </trkpt>
      <trkpt lat="42.740900" lon="-7.195421">
        <ele>1090.0</ele>
        <time>2022-08-22T09:16:02Z</time>
      </trkpt>
      <trkpt lat="42.741010" lon="-7.195622">
        <ele>1089.0</ele>
        <time>2022-08-22T09:16:16Z</time>
      </trkpt>
      <trkpt lat="42.741118" lon="-7.195826">
        <ele>1090.0</ele>
        <time>2022-08-22T09:16:30Z</time>
      </trkpt>
      <trkpt lat="42.741203" lon="-7.196048">
        <ele>1086.0</ele>
        <time>2022-08-22T09:16:45Z</time>
      </trkpt>
      <trkpt lat="42.741273" lon="-7.196285">
        <ele>1084.0</ele>
        <time>2022-08-22T09:16:58Z</time>
      </trkpt>
      <trkpt lat="42.741355" lon="-7.196507">
        <ele>1080.0</ele>
        <time>2022-08-22T09:17:12Z</time>
      </trkpt>
      <trkpt lat="42.741446" lon="-7.196722">
        <ele>1079.0</ele>
        <time>2022-08-22T09:17:26Z</time>
      </trkpt>
      <trkpt lat="42.741559" lon="-7.196922">
        <ele>1078.0</ele>
        <time>2022-08-22T09:17:41Z</time>
      </trkpt>
      <trkpt lat="42.741670" lon="-7.197125">
        <ele>1074.0</ele>
        <time>2022-08-22T09:17:57Z</time>
      </trkpt>
      <trkpt lat="42.741793" lon="-7.197326">
        <ele>1070.0</ele>
        <time>2022-08-22T09:18:13Z</time>
      </trkpt>
      <trkpt lat="42.741883" lon="-7.197556">
        <ele>1068.0</ele>
        <time>2022-08-22T09:18:28Z</time>
      </trkpt>
      <trkpt lat="42.742000" lon="-7.197743">
        <ele>1064.0</ele>
        <time>2022-08-22T09:18:43Z</time>
      </trkpt>
      <trkpt lat="42.742100" lon="-7.197949">
        <ele>1062.0</ele>
        <time>2022-08-22T09:18:57Z</time>
      </trkpt>
      <trkpt lat="42.742192" lon="-7.198163">
        <ele>1060.9</ele>
        <time>2022-08-22T09:19:11Z</time>
      </trkpt>
      <trkpt lat="42.742293" lon="-7.198367">
        <ele>1057.0</ele>
        <time>2022-08-22T09:19:26Z</time>
      </trkpt>
      <trkpt lat="42.742383" lon="-7.198579">
        <ele>1057.3</ele>
        <time>2022-08-22T09:19:40Z</time>
      </trkpt>
      <trkpt lat="42.742474" lon="-7.198800">
        <ele>1053.3</ele>
        <time>2022-08-22T09:19:58Z</time>
      </trkpt>
      <trkpt lat="42.742582" lon="-7.198999">
        <ele>1054.0</ele>
        <time>2022-08-22T09:20:11Z</time>
      </trkpt>
      <trkpt lat="42.742689" lon="-7.199200">
        <ele>1052.3</ele>
        <time>2022-08-22T09:20:25Z</time>
      </trkpt>
      <trkpt lat="42.742802" lon="-7.199394">
        <ele>1050.0</ele>
        <time>2022-08-22T09:20:39Z</time>
      </trkpt>
      <trkpt lat="42.742914" lon="-7.199589">
        <ele>1048.1</ele>
        <time>2022-08-22T09:20:54Z</time>
      </trkpt>
      <trkpt lat="42.743014" lon="-7.199794">
        <ele>1045.0</ele>
        <time>2022-08-22T09:21:08Z</time>
      </trkpt>
      <trkpt lat="42.743136" lon="-7.199976">
        <ele>1044.0</ele>
        <time>2022-08-22T09:21:22Z</time>
      </trkpt>
      <trkpt lat="42.743239" lon="-7.200180">
        <ele>1044.3</ele>
        <time>2022-08-22T09:21:37Z</time>
      </trkpt>
      <trkpt lat="42.743312" lon="-7.200410">
        <ele>1041.3</ele>
        <time>2022-08-22T09:21:51Z</time>
      </trkpt>
      <trkpt lat="42.743444" lon="-7.200583">
        <ele>1040.0</ele>
        <time>2022-08-22T09:22:07Z</time>
      </trkpt>
      <trkpt lat="42.743502" lon="-7.200818">
        <ele>1036.0</ele>
        <time>2022-08-22T09:22:22Z</time>
      </trkpt>
      <trkpt lat="42.743527" lon="-7.201062">
        <ele>1033.0</ele>
        <time>2022-08-22T09:22:37Z</time>
      </trkpt>
      <trkpt lat="42.743556" lon="-7.201310">
        <ele>1032.0</ele>
        <time>2022-08-22T09:22:54Z</time>
      </trkpt>
      <trkpt lat="42.743589" lon="-7.201551">
        <ele>1029.0</ele>
        <time>2022-08-22T09:23:08Z</time>
      </trkpt>
      <trkpt lat="42.743562" lon="-7.201800">
        <ele>1026.3</ele>
        <time>2022-08-22T09:23:23Z</time>
      </trkpt>
      <trkpt lat="42.743513" lon="-7.202044">
        <ele>1024.0</ele>
        <time>2022-08-22T09:23:37Z</time>
      </trkpt>
      <trkpt lat="42.743421" lon="-7.202261">
        <ele>1022.0</ele>
        <time>2022-08-22T09:23:52Z</time>
      </trkpt>
      <trkpt lat="42.743336" lon="-7.202486">
        <ele>1021.0</ele>
        <time>2022-08-22T09:24:07Z</time>
      </trkpt>
      <trkpt lat="42.743250" lon="-7.202707">
        <ele>1017.3</ele>
        <time>2022-08-22T09:24:46Z</time>
      </trkpt>
      <trkpt lat="42.743184" lon="-7.202943">
        <ele>1013.0</ele>
        <time>2022-08-22T09:25:00Z</time>
      </trkpt>
      <trkpt lat="42.743122" lon="-7.203173">
        <ele>1010.3</ele>
        <time>2022-08-22T09:25:15Z</time>
      </trkpt>
      <trkpt lat="42.743053" lon="-7.203424">
        <ele>1007.0</ele>
        <time>2022-08-22T09:25:30Z</time>
      </trkpt>
      <trkpt lat="42.742965" lon="-7.203642">
        <ele>1002.0</ele>
        <time>2022-08-22T09:25:47Z</time>
      </trkpt>
      <trkpt lat="42.742893" lon="-7.203885">
        <ele>1001.0</ele>
        <time>2022-08-22T09:26:04Z</time>
      </trkpt>
      <trkpt lat="42.742786" lon="-7.204109">
        <ele>998.0</ele>
        <time>2022-08-22T09:26:20Z</time>
      </trkpt>
      <trkpt lat="42.742655" lon="-7.204291">
        <ele>995.0</ele>
        <time>2022-08-22T09:26:35Z</time>
      </trkpt>
      <trkpt lat="42.742523" lon="-7.204469">
        <ele>992.0</ele>
        <time>2022-08-22T09:26:52Z</time>
      </trkpt>
      <trkpt lat="42.742470" lon="-7.204707">
        <ele>988.0</ele>
        <time>2022-08-22T09:27:08Z</time>
      </trkpt>
      <trkpt lat="42.742654" lon="-7.204723">
        <ele>987.0</ele>
        <time>2022-08-22T09:27:20Z</time>
      </trkpt>
      <trkpt lat="42.742834" lon="-7.204743">
        <ele>985.0</ele>
        <time>2022-08-22T09:27:34Z</time>
      </trkpt>
      <trkpt lat="42.743015" lon="-7.204771">
        <ele>984.1</ele>
        <time>2022-08-22T09:27:47Z</time>
      </trkpt>
      <trkpt lat="42.743198" lon="-7.204743">
        <ele>980.1</ele>
        <time>2022-08-22T09:28:02Z</time>
      </trkpt>
      <trkpt lat="42.743374" lon="-7.204683">
        <ele>979.3</ele>
        <time>2022-08-22T09:28:16Z</time>
      </trkpt>
      <trkpt lat="42.743557" lon="-7.204686">
        <ele>977.0</ele>
        <time>2022-08-22T09:28:32Z</time>
      </trkpt>
      <trkpt lat="42.743741" lon="-7.204708">
        <ele>973.0</ele>
        <time>2022-08-22T09:28:45Z</time>
      </trkpt>
      <trkpt lat="42.743920" lon="-7.204689">
        <ele>960.1</ele>
        <time>2022-08-22T09:29:00Z</time>
      </trkpt>
      <trkpt lat="42.744082" lon="-7.204797">
        <ele>960.1</ele>
        <time>2022-08-22T09:29:21Z</time>
      </trkpt>
      <trkpt lat="42.743971" lon="-7.205002">
        <ele>960.2</ele>
        <time>2022-08-22T09:29:34Z</time>
      </trkpt>
      <trkpt lat="42.743833" lon="-7.205159">
        <ele>960.1</ele>
        <time>2022-08-22T09:29:45Z</time>
      </trkpt>
      <trkpt lat="42.743734" lon="-7.205373">
        <ele>960.1</ele>
        <time>2022-08-22T09:29:59Z</time>
      </trkpt>
      <trkpt lat="42.743634" lon="-7.205581">
        <ele>960.1</ele>
        <time>2022-08-22T09:30:13Z</time>
      </trkpt>
      <trkpt lat="42.743518" lon="-7.205777">
        <ele>953.1</ele>
        <time>2022-08-22T09:30:28Z</time>
      </trkpt>
      <trkpt lat="42.743468" lon="-7.206020">
        <ele>951.0</ele>
        <time>2022-08-22T09:30:46Z</time>
      </trkpt>
      <trkpt lat="42.743318" lon="-7.206176">
        <ele>957.1</ele>
        <time>2022-08-22T09:30:58Z</time>
      </trkpt>
      <trkpt lat="42.743501" lon="-7.206212">
        <ele>950.0</ele>
        <time>2022-08-22T09:31:41Z</time>
      </trkpt>
      <trkpt lat="42.743673" lon="-7.206343">
        <ele>947.0</ele>
        <time>2022-08-22T09:32:04Z</time>
      </trkpt>
      <trkpt lat="42.743788" lon="-7.206538">
        <ele>943.9</ele>
        <time>2022-08-22T09:32:18Z</time>
      </trkpt>
      <trkpt lat="42.743892" lon="-7.206743">
        <ele>939.0</ele>
        <time>2022-08-22T09:32:34Z</time>
      </trkpt>
      <trkpt lat="42.744016" lon="-7.206949">
        <ele>933.0</ele>
        <time>2022-08-22T09:32:49Z</time>
      </trkpt>
      <trkpt lat="42.744073" lon="-7.207201">
        <ele>932.0</ele>
        <time>2022-08-22T09:33:01Z</time>
      </trkpt>
      <trkpt lat="42.744151" lon="-7.207422">
        <ele>930.0</ele>
        <time>2022-08-22T09:33:15Z</time>
      </trkpt>
      <trkpt lat="42.744271" lon="-7.207618">
        <ele>927.0</ele>
        <time>2022-08-22T09:33:30Z</time>
      </trkpt>
      <trkpt lat="42.744321" lon="-7.207858">
        <ele>928.0</ele>
        <time>2022-08-22T09:33:45Z</time>
      </trkpt>
      <trkpt lat="42.744341" lon="-7.208114">
        <ele>926.3</ele>
        <time>2022-08-22T09:34:02Z</time>
      </trkpt>
      <trkpt lat="42.744360" lon="-7.208360">
        <ele>920.0</ele>
        <time>2022-08-22T09:34:22Z</time>
      </trkpt>
      <trkpt lat="42.744506" lon="-7.208520">
        <ele>920.3</ele>
        <time>2022-08-22T09:34:39Z</time>
      </trkpt>
      <trkpt lat="42.744621" lon="-7.208713">
        <ele>914.1</ele>
        <time>2022-08-22T09:34:55Z</time>
      </trkpt>
      <trkpt lat="42.744755" lon="-7.208886">
        <ele>908.1</ele>
        <time>2022-08-22T09:35:11Z</time>
      </trkpt>
      <trkpt lat="42.744837" lon="-7.209108">
        <ele>904.0</ele>
        <time>2022-08-22T09:35:26Z</time>
      </trkpt>
      <trkpt lat="42.744880" lon="-7.209350">
        <ele>904.0</ele>
        <time>2022-08-22T09:35:41Z</time>
      </trkpt>
      <trkpt lat="42.744927" lon="-7.209591">
        <ele>901.0</ele>
        <time>2022-08-22T09:35:58Z</time>
      </trkpt>
      <trkpt lat="42.744949" lon="-7.209834">
        <ele>898.3</ele>
        <time>2022-08-22T09:36:11Z</time>
      </trkpt>
      <trkpt lat="42.744952" lon="-7.210081">
        <ele>897.0</ele>
        <time>2022-08-22T09:36:26Z</time>
      </trkpt>
      <trkpt lat="42.744971" lon="-7.210339">
        <ele>897.0</ele>
        <time>2022-08-22T09:36:42Z</time>
      </trkpt>
      <trkpt lat="42.745045" lon="-7.210566">
        <ele>894.1</ele>
        <time>2022-08-22T09:36:57Z</time>
      </trkpt>
      <trkpt lat="42.745089" lon="-7.210804">
        <ele>890.1</ele>
        <time>2022-08-22T09:37:11Z</time>
      </trkpt>
      <trkpt lat="42.745181" lon="-7.211017">
        <ele>891.0</ele>
        <time>2022-08-22T09:37:26Z</time>
      </trkpt>
      <trkpt lat="42.745245" lon="-7.211263">
        <ele>891.3</ele>
        <time>2022-08-22T09:37:46Z</time>
      </trkpt>
      <trkpt lat="42.745284" lon="-7.211522">
        <ele>889.0</ele>
        <time>2022-08-22T09:37:59Z</time>
      </trkpt>
      <trkpt lat="42.745319" lon="-7.211767">
        <ele>889.0</ele>
        <time>2022-08-22T09:38:13Z</time>
      </trkpt>
      <trkpt lat="42.745422" lon="-7.211968">
        <ele>884.3</ele>
        <time>2022-08-22T09:38:27Z</time>
      </trkpt>
      <trkpt lat="42.745569" lon="-7.212122">
        <ele>884.1</ele>
        <time>2022-08-22T09:38:39Z</time>
      </trkpt>
      <trkpt lat="42.745698" lon="-7.212295">
        <ele>879.1</ele>
        <time>2022-08-22T09:38:56Z</time>
      </trkpt>
      <trkpt lat="42.745808" lon="-7.212494">
        <ele>877.0</ele>
        <time>2022-08-22T09:39:10Z</time>
      </trkpt>
      <trkpt lat="42.745934" lon="-7.212677">
        <ele>875.0</ele>
        <time>2022-08-22T09:39:26Z</time>
      </trkpt>
      <trkpt lat="42.746067" lon="-7.212846">
        <ele>873.0</ele>
        <time>2022-08-22T09:39:54Z</time>
      </trkpt>
      <trkpt lat="42.746191" lon="-7.213039">
        <ele>871.0</ele>
        <time>2022-08-22T09:40:06Z</time>
      </trkpt>
      <trkpt lat="42.746353" lon="-7.213166">
        <ele>869.3</ele>
        <time>2022-08-22T09:40:21Z</time>
      </trkpt>
      <trkpt lat="42.746491" lon="-7.213324">
        <ele>864.3</ele>
        <time>2022-08-22T09:40:34Z</time>
      </trkpt>
      <trkpt lat="42.746609" lon="-7.213510">
        <ele>863.0</ele>
        <time>2022-08-22T09:40:50Z</time>
      </trkpt>
      <trkpt lat="42.746735" lon="-7.213713">
        <ele>861.3</ele>
        <time>2022-08-22T09:41:04Z</time>
      </trkpt>
      <trkpt lat="42.746847" lon="-7.213928">
        <ele>861.5</ele>
        <time>2022-08-22T09:41:20Z</time>
      </trkpt>
      <trkpt lat="42.746914" lon="-7.214157">
        <ele>856.9</ele>
        <time>2022-08-22T09:41:33Z</time>
      </trkpt>
      <trkpt lat="42.747011" lon="-7.214367">
        <ele>854.9</ele>
        <time>2022-08-22T09:41:50Z</time>
      </trkpt>
      <trkpt lat="42.747128" lon="-7.214573">
        <ele>855.0</ele>
        <time>2022-08-22T09:42:05Z</time>
      </trkpt>
      <trkpt lat="42.747247" lon="-7.214761">
        <ele>850.0</ele>
        <time>2022-08-22T09:42:20Z</time>
      </trkpt>
      <trkpt lat="42.747326" lon="-7.214988">
        <ele>842.2</ele>
        <time>2022-08-22T09:42:36Z</time>
      </trkpt>
      <trkpt lat="42.747388" lon="-7.215218">
        <ele>839.3</ele>
        <time>2022-08-22T09:42:50Z</time>
      </trkpt>
      <trkpt lat="42.747428" lon="-7.215464">
        <ele>838.9</ele>
        <time>2022-08-22T09:43:04Z</time>
      </trkpt>
      <trkpt lat="42.747487" lon="-7.215701">
        <ele>838.0</ele>
        <time>2022-08-22T09:43:18Z</time>
      </trkpt>
      <trkpt lat="42.747551" lon="-7.215938">
        <ele>836.0</ele>
        <time>2022-08-22T09:43:35Z</time>
      </trkpt>
      <trkpt lat="42.747590" lon="-7.216184">
        <ele>836.3</ele>
        <time>2022-08-22T09:43:50Z</time>
      </trkpt>
      <trkpt lat="42.747527" lon="-7.216417">
        <ele>837.7</ele>
        <time>2022-08-22T09:45:40Z</time>
      </trkpt>
      <trkpt lat="42.747396" lon="-7.216587">
        <ele>838.0</ele>
        <time>2022-08-22T09:46:11Z</time>
      </trkpt>
      <trkpt lat="42.747441" lon="-7.216833">
        <ele>837.0</ele>
        <time>2022-08-22T09:46:25Z</time>
      </trkpt>
      <trkpt lat="42.747438" lon="-7.217079">
        <ele>833.3</ele>
        <time>2022-08-22T09:46:42Z</time>
      </trkpt>
      <trkpt lat="42.747382" lon="-7.217318">
        <ele>831.0</ele>
        <time>2022-08-22T09:47:01Z</time>
      </trkpt>
      <trkpt lat="42.747439" lon="-7.217557">
        <ele>829.0</ele>
        <time>2022-08-22T09:47:16Z</time>
      </trkpt>
      <trkpt lat="42.747539" lon="-7.217762">
        <ele>826.0</ele>
        <time>2022-08-22T09:47:30Z</time>
      </trkpt>
      <trkpt lat="42.747659" lon="-7.217955">
        <ele>824.0</ele>
        <time>2022-08-22T09:47:43Z</time>
      </trkpt>
      <trkpt lat="42.747792" lon="-7.218128">
        <ele>823.0</ele>
        <time>2022-08-22T09:48:01Z</time>
      </trkpt>
      <trkpt lat="42.747967" lon="-7.218199">
        <ele>821.0</ele>
        <time>2022-08-22T09:48:16Z</time>
      </trkpt>
      <trkpt lat="42.748148" lon="-7.218284">
        <ele>822.0</ele>
        <time>2022-08-22T09:48:28Z</time>
      </trkpt>
      <trkpt lat="42.748303" lon="-7.218438">
        <ele>819.1</ele>
        <time>2022-08-22T09:48:43Z</time>
      </trkpt>
      <trkpt lat="42.748443" lon="-7.218604">
        <ele>817.0</ele>
        <time>2022-08-22T09:49:01Z</time>
      </trkpt>
      <trkpt lat="42.748588" lon="-7.218761">
        <ele>815.0</ele>
        <time>2022-08-22T09:49:16Z</time>
      </trkpt>
      <trkpt lat="42.748625" lon="-7.219003">
        <ele>810.3</ele>
        <time>2022-08-22T09:49:44Z</time>
      </trkpt>
      <trkpt lat="42.748675" lon="-7.219251">
        <ele>810.3</ele>
        <time>2022-08-22T09:50:00Z</time>
      </trkpt>
      <trkpt lat="42.748748" lon="-7.219478">
        <ele>806.6</ele>
        <time>2022-08-22T09:50:22Z</time>
      </trkpt>
      <trkpt lat="42.748890" lon="-7.219639">
        <ele>806.6</ele>
        <time>2022-08-22T09:50:44Z</time>
      </trkpt>
      <trkpt lat="42.749083" lon="-7.219636">
        <ele>806.6</ele>
        <time>2022-08-22T09:50:56Z</time>
      </trkpt>
      <trkpt lat="42.749253" lon="-7.219730">
        <ele>806.6</ele>
        <time>2022-08-22T09:51:10Z</time>
      </trkpt>
      <trkpt lat="42.749447" lon="-7.219736">
        <ele>806.6</ele>
        <time>2022-08-22T09:51:23Z</time>
      </trkpt>
      <trkpt lat="42.749632" lon="-7.219775">
        <ele>806.6</ele>
        <time>2022-08-22T09:51:37Z</time>
      </trkpt>
      <trkpt lat="42.749806" lon="-7.219867">
        <ele>806.6</ele>
        <time>2022-08-22T09:51:51Z</time>
      </trkpt>
      <trkpt lat="42.749971" lon="-7.219974">
        <ele>797.4</ele>
        <time>2022-08-22T09:52:05Z</time>
      </trkpt>
      <trkpt lat="42.750115" lon="-7.220128">
        <ele>798.1</ele>
        <time>2022-08-22T09:52:19Z</time>
      </trkpt>
      <trkpt lat="42.750268" lon="-7.220277">
        <ele>798.1</ele>
        <time>2022-08-22T09:52:34Z</time>
      </trkpt>
      <trkpt lat="42.750422" lon="-7.220412">
        <ele>798.1</ele>
        <time>2022-08-22T09:52:49Z</time>
      </trkpt>
      <trkpt lat="42.750468" lon="-7.220666">
        <ele>793.1</ele>
        <time>2022-08-22T09:53:24Z</time>
      </trkpt>
      <trkpt lat="42.750582" lon="-7.220857">
        <ele>793.1</ele>
        <time>2022-08-22T09:53:39Z</time>
      </trkpt>
      <trkpt lat="42.750700" lon="-7.221054">
        <ele>792.0</ele>
        <time>2022-08-22T09:53:54Z</time>
      </trkpt>
      <trkpt lat="42.750802" lon="-7.221263">
        <ele>793.1</ele>
        <time>2022-08-22T09:54:22Z</time>
      </trkpt>
      <trkpt lat="42.750910" lon="-7.221471">
        <ele>793.1</ele>
        <time>2022-08-22T09:54:37Z</time>
      </trkpt>
      <trkpt lat="42.750944" lon="-7.221712">
        <ele>791.5</ele>
        <time>2022-08-22T09:54:53Z</time>
      </trkpt>
      <trkpt lat="42.750866" lon="-7.221940">
        <ele>791.5</ele>
        <time>2022-08-22T09:55:09Z</time>
      </trkpt>
      <trkpt lat="42.750791" lon="-7.222173">
        <ele>791.5</ele>
        <time>2022-08-22T09:55:23Z</time>
      </trkpt>
      <trkpt lat="42.750759" lon="-7.222414">
        <ele>791.5</ele>
        <time>2022-08-22T09:55:42Z</time>
      </trkpt>
      <trkpt lat="42.750775" lon="-7.222659">
        <ele>791.5</ele>
        <time>2022-08-22T09:55:58Z</time>
      </trkpt>
      <trkpt lat="42.750819" lon="-7.222906">
        <ele>791.5</ele>
        <time>2022-08-22T09:56:12Z</time>
      </trkpt>
      <trkpt lat="42.750796" lon="-7.223154">
        <ele>791.5</ele>
        <time>2022-08-22T09:56:24Z</time>
      </trkpt>
      <trkpt lat="42.750759" lon="-7.223401">
        <ele>758.7</ele>
        <time>2022-08-22T09:56:44Z</time>
      </trkpt>
      <trkpt lat="42.750748" lon="-7.223657">
        <ele>754.6</ele>
        <time>2022-08-22T09:57:08Z</time>
      </trkpt>
      <trkpt lat="42.750748" lon="-7.223911">
        <ele>757.6</ele>
        <time>2022-08-22T09:57:24Z</time>
      </trkpt>
      <trkpt lat="42.750854" lon="-7.224111">
        <ele>761.7</ele>
        <time>2022-08-22T09:57:41Z</time>
      </trkpt>
      <trkpt lat="42.750984" lon="-7.224298">
        <ele>759.7</ele>
        <time>2022-08-22T09:57:57Z</time>
      </trkpt>
      <trkpt lat="42.751087" lon="-7.224503">
        <ele>756.7</ele>
        <time>2022-08-22T09:58:10Z</time>
      </trkpt>
      <trkpt lat="42.751219" lon="-7.224672">
        <ele>753.7</ele>
        <time>2022-08-22T09:58:25Z</time>
      </trkpt>
      <trkpt lat="42.751316" lon="-7.224890">
        <ele>751.7</ele>
        <time>2022-08-22T09:58:39Z</time>
      </trkpt>
      <trkpt lat="42.751426" lon="-7.225113">
        <ele>751.0</ele>
        <time>2022-08-22T09:58:54Z</time>
      </trkpt>
      <trkpt lat="42.751581" lon="-7.225252">
        <ele>753.7</ele>
        <time>2022-08-22T09:59:09Z</time>
      </trkpt>
      <trkpt lat="42.751744" lon="-7.225365">
        <ele>750.7</ele>
        <time>2022-08-22T09:59:23Z</time>
      </trkpt>
      <trkpt lat="42.751895" lon="-7.225522">
        <ele>751.7</ele>
        <time>2022-08-22T09:59:46Z</time>
      </trkpt>
      <trkpt lat="42.752068" lon="-7.225627">
        <ele>749.7</ele>
        <time>2022-08-22T10:00:00Z</time>
      </trkpt>
      <trkpt lat="42.752231" lon="-7.225737">
        <ele>749.8</ele>
        <time>2022-08-22T10:00:13Z</time>
      </trkpt>
      <trkpt lat="42.752395" lon="-7.225853">
        <ele>750.7</ele>
        <time>2022-08-22T10:00:29Z</time>
      </trkpt>
      <trkpt lat="42.752573" lon="-7.225893">
        <ele>749.8</ele>
        <time>2022-08-22T10:00:44Z</time>
      </trkpt>
      <trkpt lat="42.752751" lon="-7.225975">
        <ele>743.7</ele>
        <time>2022-08-22T10:01:40Z</time>
      </trkpt>
      <trkpt lat="42.752914" lon="-7.226085">
        <ele>741.7</ele>
        <time>2022-08-22T10:02:09Z</time>
      </trkpt>
      <trkpt lat="42.753110" lon="-7.226105">
        <ele>738.7</ele>
        <time>2022-08-22T10:02:24Z</time>
      </trkpt>
      <trkpt lat="42.753297" lon="-7.226131">
        <ele>738.7</ele>
        <time>2022-08-22T10:02:40Z</time>
      </trkpt>
      <trkpt lat="42.753474" lon="-7.226205">
        <ele>735.7</ele>
        <time>2022-08-22T10:02:57Z</time>
      </trkpt>
      <trkpt lat="42.753640" lon="-7.226367">
        <ele>734.7</ele>
        <time>2022-08-22T10:03:10Z</time>
      </trkpt>
      <trkpt lat="42.753805" lon="-7.226557">
        <ele>733.7</ele>
        <time>2022-08-22T10:03:25Z</time>
      </trkpt>
      <trkpt lat="42.753931" lon="-7.226748">
        <ele>728.0</ele>
        <time>2022-08-22T10:03:40Z</time>
      </trkpt>
      <trkpt lat="42.754040" lon="-7.226962">
        <ele>724.7</ele>
        <time>2022-08-22T10:03:59Z</time>
      </trkpt>
      <trkpt lat="42.754109" lon="-7.227188">
        <ele>721.7</ele>
        <time>2022-08-22T10:04:13Z</time>
      </trkpt>
      <trkpt lat="42.754211" lon="-7.227398">
        <ele>719.7</ele>
        <time>2022-08-22T10:04:26Z</time>
      </trkpt>
      <trkpt lat="42.754327" lon="-7.227596">
        <ele>719.0</ele>
        <time>2022-08-22T10:04:44Z</time>
      </trkpt>
      <trkpt lat="42.754449" lon="-7.227789">
        <ele>714.7</ele>
        <time>2022-08-22T10:04:58Z</time>
      </trkpt>
      <trkpt lat="42.754582" lon="-7.227962">
        <ele>708.8</ele>
        <time>2022-08-22T10:05:11Z</time>
      </trkpt>
      <trkpt lat="42.754709" lon="-7.228147">
        <ele>709.4</ele>
        <time>2022-08-22T10:05:25Z</time>
      </trkpt>
      <trkpt lat="42.754869" lon="-7.228281">
        <ele>707.7</ele>
        <time>2022-08-22T10:05:41Z</time>
      </trkpt>
      <trkpt lat="42.755030" lon="-7.228409">
        <ele>703.0</ele>
        <time>2022-08-22T10:05:59Z</time>
      </trkpt>
      <trkpt lat="42.755170" lon="-7.228570">
        <ele>698.0</ele>
        <time>2022-08-22T10:06:17Z</time>
      </trkpt>
      <trkpt lat="42.755294" lon="-7.228756">
        <ele>697.9</ele>
        <time>2022-08-22T10:06:31Z</time>
      </trkpt>
      <trkpt lat="42.755419" lon="-7.228940">
        <ele>692.7</ele>
        <time>2022-08-22T10:06:45Z</time>
      </trkpt>
      <trkpt lat="42.755525" lon="-7.229145">
        <ele>691.7</ele>
        <time>2022-08-22T10:06:58Z</time>
      </trkpt>
      <trkpt lat="42.755623" lon="-7.229359">
        <ele>691.7</ele>
        <time>2022-08-22T10:07:12Z</time>
      </trkpt>
      <trkpt lat="42.755613" lon="-7.229619">
        <ele>688.8</ele>
        <time>2022-08-22T10:07:26Z</time>
      </trkpt>
      <trkpt lat="42.755618" lon="-7.229867">
        <ele>690.0</ele>
        <time>2022-08-22T10:07:43Z</time>
      </trkpt>
      <trkpt lat="42.755707" lon="-7.230091">
        <ele>685.0</ele>
        <time>2022-08-22T10:07:58Z</time>
      </trkpt>
      <trkpt lat="42.755790" lon="-7.230313">
        <ele>682.8</ele>
        <time>2022-08-22T10:08:28Z</time>
      </trkpt>
      <trkpt lat="42.755872" lon="-7.230542">
        <ele>680.7</ele>
        <time>2022-08-22T10:08:50Z</time>
      </trkpt>
      <trkpt lat="42.755869" lon="-7.230800">
        <ele>677.7</ele>
        <time>2022-08-22T10:09:14Z</time>
      </trkpt>
      <trkpt lat="42.755785" lon="-7.231018">
        <ele>678.0</ele>
        <time>2022-08-22T10:09:47Z</time>
      </trkpt>
      <trkpt lat="42.755747" lon="-7.231252">
        <ele>677.7</ele>
        <time>2022-08-22T10:10:22Z</time>
      </trkpt>
      <trkpt lat="42.755696" lon="-7.231504">
        <ele>678.6</ele>
        <time>2022-08-22T10:10:36Z</time>
      </trkpt>
      <trkpt lat="42.755691" lon="-7.231709">
        <ele>678.5</ele>
        <time>2022-08-22T10:10:51Z</time>
      </trkpt>
      <trkpt lat="42.755671" lon="-7.231980">
        <ele>678.7</ele>
        <time>2022-08-22T10:11:31Z</time>
      </trkpt>
      <trkpt lat="42.755720" lon="-7.232232">
        <ele>682.3</ele>
        <time>2022-08-22T10:11:45Z</time>
      </trkpt>
      <trkpt lat="42.755796" lon="-7.232469">
        <ele>686.6</ele>
        <time>2022-08-22T10:11:58Z</time>
      </trkpt>
      <trkpt lat="42.755848" lon="-7.232714">
        <ele>686.0</ele>
        <time>2022-08-22T10:12:15Z</time>
      </trkpt>
      <trkpt lat="42.755904" lon="-7.232951">
        <ele>681.8</ele>
        <time>2022-08-22T10:12:28Z</time>
      </trkpt>
      <trkpt lat="42.756019" lon="-7.233155">
        <ele>683.7</ele>
        <time>2022-08-22T10:13:15Z</time>
      </trkpt>
      <trkpt lat="42.756135" lon="-7.233360">
        <ele>685.7</ele>
        <time>2022-08-22T10:13:28Z</time>
      </trkpt>
      <trkpt lat="42.756166" lon="-7.233614">
        <ele>683.7</ele>
        <time>2022-08-22T10:13:43Z</time>
      </trkpt>
      <trkpt lat="42.756184" lon="-7.233869">
        <ele>683.7</ele>
        <time>2022-08-22T10:13:58Z</time>
      </trkpt>
      <trkpt lat="42.756202" lon="-7.234117">
        <ele>680.7</ele>
        <time>2022-08-22T10:14:15Z</time>
      </trkpt>
      <trkpt lat="42.756172" lon="-7.234365">
        <ele>676.6</ele>
        <time>2022-08-22T10:14:28Z</time>
      </trkpt>
      <trkpt lat="42.756176" lon="-7.234624">
        <ele>677.8</ele>
        <time>2022-08-22T10:14:44Z</time>
      </trkpt>
      <trkpt lat="42.756126" lon="-7.234860">
        <ele>677.9</ele>
        <time>2022-08-22T10:15:02Z</time>
      </trkpt>
      <trkpt lat="42.756097" lon="-7.235126">
        <ele>669.1</ele>
        <time>2022-08-22T10:15:34Z</time>
      </trkpt>
      <trkpt lat="42.756127" lon="-7.235385">
        <ele>680.2</ele>
        <time>2022-08-22T10:15:49Z</time>
      </trkpt>
      <trkpt lat="42.756153" lon="-7.235629">
        <ele>680.2</ele>
        <time>2022-08-22T10:16:04Z</time>
      </trkpt>
      <trkpt lat="42.756184" lon="-7.235872">
        <ele>680.2</ele>
        <time>2022-08-22T10:16:18Z</time>
      </trkpt>
      <trkpt lat="42.756171" lon="-7.236131">
        <ele>675.9</ele>
        <time>2022-08-22T10:16:32Z</time>
      </trkpt>
      <trkpt lat="42.756150" lon="-7.236375">
        <ele>676.0</ele>
        <time>2022-08-22T10:16:46Z</time>
      </trkpt>
      <trkpt lat="42.756119" lon="-7.236620">
        <ele>675.9</ele>
        <time>2022-08-22T10:17:00Z</time>
      </trkpt>
      <trkpt lat="42.756117" lon="-7.236875">
        <ele>675.8</ele>
        <time>2022-08-22T10:17:33Z</time>
      </trkpt>
      <trkpt lat="42.756126" lon="-7.237123">
        <ele>675.0</ele>
        <time>2022-08-22T10:17:47Z</time>
      </trkpt>
      <trkpt lat="42.756110" lon="-7.237377">
        <ele>675.1</ele>
        <time>2022-08-22T10:18:01Z</time>
      </trkpt>
      <trkpt lat="42.756099" lon="-7.237634">
        <ele>671.9</ele>
        <time>2022-08-22T10:18:16Z</time>
      </trkpt>
      <trkpt lat="42.756092" lon="-7.237891">
        <ele>671.8</ele>
        <time>2022-08-22T10:18:32Z</time>
      </trkpt>
      <trkpt lat="42.756075" lon="-7.238142">
        <ele>671.9</ele>
        <time>2022-08-22T10:19:03Z</time>
      </trkpt>
      <trkpt lat="42.756061" lon="-7.238402">
        <ele>671.1</ele>
        <time>2022-08-22T10:19:18Z</time>
      </trkpt>
      <trkpt lat="42.756059" lon="-7.238652">
        <ele>671.1</ele>
        <time>2022-08-22T10:19:34Z</time>
      </trkpt>
      <trkpt lat="42.756036" lon="-7.238916">
        <ele>674.0</ele>
        <time>2022-08-22T10:19:48Z</time>
      </trkpt>
      <trkpt lat="42.755994" lon="-7.239158">
        <ele>673.9</ele>
        <time>2022-08-22T10:20:02Z</time>
      </trkpt>
      <trkpt lat="42.755995" lon="-7.239407">
        <ele>669.7</ele>
        <time>2022-08-22T10:20:16Z</time>
      </trkpt>
      <trkpt lat="42.755984" lon="-7.239659">
        <ele>669.5</ele>
        <time>2022-08-22T10:20:32Z</time>
      </trkpt>
      <trkpt lat="42.755968" lon="-7.239874">
        <ele>669.5</ele>
        <time>2022-08-22T10:21:22Z</time>
      </trkpt>
      <trkpt lat="42.755962" lon="-7.240130">
        <ele>669.5</ele>
        <time>2022-08-22T10:21:37Z</time>
      </trkpt>
      <trkpt lat="42.755955" lon="-7.240382">
        <ele>669.5</ele>
        <time>2022-08-22T10:21:51Z</time>
      </trkpt>
      <trkpt lat="42.755950" lon="-7.240633">
        <ele>668.0</ele>
        <time>2022-08-22T10:22:07Z</time>
      </trkpt>
      <trkpt lat="42.755933" lon="-7.240883">
        <ele>669.0</ele>
        <time>2022-08-22T10:22:27Z</time>
      </trkpt>
      <trkpt lat="42.755917" lon="-7.241046">
        <ele>669.2</ele>
        <time>2022-08-23T04:35:45Z</time>
      </trkpt>
      <trkpt lat="42.755915" lon="-7.241235">
        <ele>667.6</ele>
        <time>2022-08-23T04:36:04Z</time>
      </trkpt>
      <trkpt lat="42.755880" lon="-7.241476">
        <ele>667.5</ele>
        <time>2022-08-23T04:59:34Z</time>
      </trkpt>
      <trkpt lat="42.755850" lon="-7.241720">
        <ele>666.4</ele>
        <time>2022-08-23T04:59:47Z</time>
      </trkpt>
      <trkpt lat="42.755793" lon="-7.241952">
        <ele>666.1</ele>
        <time>2022-08-23T05:00:05Z</time>
      </trkpt>
      <trkpt lat="42.755706" lon="-7.242171">
        <ele>663.5</ele>
        <time>2022-08-23T05:00:18Z</time>
      </trkpt>
      <trkpt lat="42.755589" lon="-7.242361">
        <ele>663.5</ele>
        <time>2022-08-23T05:00:44Z</time>
      </trkpt>
      <trkpt lat="42.755555" lon="-7.242605">
        <ele>663.5</ele>
        <time>2022-08-23T05:00:57Z</time>
      </trkpt>
      <trkpt lat="42.755482" lon="-7.242835">
        <ele>662.8</ele>
        <time>2022-08-23T05:01:10Z</time>
      </trkpt>
      <trkpt lat="42.755385" lon="-7.243049">
        <ele>662.7</ele>
        <time>2022-08-23T05:01:23Z</time>
      </trkpt>
      <trkpt lat="42.755286" lon="-7.243258">
        <ele>662.3</ele>
        <time>2022-08-23T05:01:36Z</time>
      </trkpt>
      <trkpt lat="42.755205" lon="-7.243478">
        <ele>662.2</ele>
        <time>2022-08-23T05:01:50Z</time>
      </trkpt>
      <trkpt lat="42.755277" lon="-7.243704">
        <ele>662.4</ele>
        <time>2022-08-23T05:02:38Z</time>
      </trkpt>
      <trkpt lat="42.755432" lon="-7.243836">
        <ele>663.0</ele>
        <time>2022-08-23T05:03:53Z</time>
      </trkpt>
      <trkpt lat="42.755610" lon="-7.243772">
        <ele>663.0</ele>
        <time>2022-08-23T05:04:08Z</time>
      </trkpt>
      <trkpt lat="42.755767" lon="-7.243634">
        <ele>663.0</ele>
        <time>2022-08-23T05:04:23Z</time>
      </trkpt>
      <trkpt lat="42.755947" lon="-7.243620">
        <ele>663.0</ele>
        <time>2022-08-23T05:04:39Z</time>
      </trkpt>
      <trkpt lat="42.756129" lon="-7.243674">
        <ele>663.0</ele>
        <time>2022-08-23T05:04:53Z</time>
      </trkpt>
      <trkpt lat="42.756302" lon="-7.243794">
        <ele>650.0</ele>
        <time>2022-08-23T05:05:10Z</time>
      </trkpt>
      <trkpt lat="42.756481" lon="-7.243814">
        <ele>647.7</ele>
        <time>2022-08-23T05:05:23Z</time>
      </trkpt>
      <trkpt lat="42.756657" lon="-7.243891">
        <ele>650.7</ele>
        <time>2022-08-23T05:05:38Z</time>
      </trkpt>
      <trkpt lat="42.756841" lon="-7.243970">
        <ele>649.6</ele>
        <time>2022-08-23T05:05:54Z</time>
      </trkpt>
      <trkpt lat="42.757018" lon="-7.244033">
        <ele>651.6</ele>
        <time>2022-08-23T05:06:07Z</time>
      </trkpt>
      <trkpt lat="42.757207" lon="-7.244105">
        <ele>650.9</ele>
        <time>2022-08-23T05:06:17Z</time>
      </trkpt>
      <trkpt lat="42.757390" lon="-7.244161">
        <ele>652.7</ele>
        <time>2022-08-23T05:06:30Z</time>
      </trkpt>
      <trkpt lat="42.757564" lon="-7.244242">
        <ele>653.7</ele>
        <time>2022-08-23T05:06:43Z</time>
      </trkpt>
      <trkpt lat="42.757734" lon="-7.244365">
        <ele>654.7</ele>
        <time>2022-08-23T05:06:56Z</time>
      </trkpt>
      <trkpt lat="42.757888" lon="-7.244495">
        <ele>656.0</ele>
        <time>2022-08-23T05:07:10Z</time>
      </trkpt>
      <trkpt lat="42.758037" lon="-7.244645">
        <ele>652.4</ele>
        <time>2022-08-23T05:07:24Z</time>
      </trkpt>
      <trkpt lat="42.758202" lon="-7.244763">
        <ele>653.4</ele>
        <time>2022-08-23T05:07:38Z</time>
      </trkpt>
      <trkpt lat="42.758352" lon="-7.244901">
        <ele>654.4</ele>
        <time>2022-08-23T05:07:52Z</time>
      </trkpt>
      <trkpt lat="42.758513" lon="-7.245031">
        <ele>655.7</ele>
        <time>2022-08-23T05:08:06Z</time>
      </trkpt>
      <trkpt lat="42.758675" lon="-7.245182">
        <ele>658.4</ele>
        <time>2022-08-23T05:08:21Z</time>
      </trkpt>
      <trkpt lat="42.758818" lon="-7.245332">
        <ele>659.4</ele>
        <time>2022-08-23T05:08:35Z</time>
      </trkpt>
      <trkpt lat="42.758984" lon="-7.245448">
        <ele>664.4</ele>
        <time>2022-08-23T05:08:48Z</time>
      </trkpt>
      <trkpt lat="42.759121" lon="-7.245612">
        <ele>663.7</ele>
        <time>2022-08-23T05:09:00Z</time>
      </trkpt>
      <trkpt lat="42.759278" lon="-7.245738">
        <ele>661.7</ele>
        <time>2022-08-23T05:09:14Z</time>
      </trkpt>
      <trkpt lat="42.759434" lon="-7.245867">
        <ele>660.7</ele>
        <time>2022-08-23T05:09:26Z</time>
      </trkpt>
      <trkpt lat="42.759607" lon="-7.245948">
        <ele>662.7</ele>
        <time>2022-08-23T05:09:40Z</time>
      </trkpt>
      <trkpt lat="42.759777" lon="-7.246030">
        <ele>663.7</ele>
        <time>2022-08-23T05:09:53Z</time>
      </trkpt>
      <trkpt lat="42.759944" lon="-7.246127">
        <ele>665.6</ele>
        <time>2022-08-23T05:10:05Z</time>
      </trkpt>
      <trkpt lat="42.760103" lon="-7.246244">
        <ele>666.7</ele>
        <time>2022-08-23T05:10:17Z</time>
      </trkpt>
      <trkpt lat="42.760237" lon="-7.246429">
        <ele>666.0</ele>
        <time>2022-08-23T05:10:30Z</time>
      </trkpt>
      <trkpt lat="42.760358" lon="-7.246626">
        <ele>669.4</ele>
        <time>2022-08-23T05:10:45Z</time>
      </trkpt>
      <trkpt lat="42.760499" lon="-7.246797">
        <ele>668.0</ele>
        <time>2022-08-23T05:11:00Z</time>
      </trkpt>
      <trkpt lat="42.760591" lon="-7.247012">
        <ele>667.7</ele>
        <time>2022-08-23T05:11:12Z</time>
      </trkpt>
      <trkpt lat="42.760641" lon="-7.247254">
        <ele>670.7</ele>
        <time>2022-08-23T05:11:26Z</time>
      </trkpt>
      <trkpt lat="42.760640" lon="-7.247506">
        <ele>672.7</ele>
        <time>2022-08-23T05:11:44Z</time>
      </trkpt>
      <trkpt lat="42.760709" lon="-7.247738">
        <ele>673.4</ele>
        <time>2022-08-23T05:11:59Z</time>
      </trkpt>
      <trkpt lat="42.760836" lon="-7.247925">
        <ele>675.9</ele>
        <time>2022-08-23T05:12:17Z</time>
      </trkpt>
      <trkpt lat="42.760989" lon="-7.248065">
        <ele>681.6</ele>
        <time>2022-08-23T05:12:31Z</time>
      </trkpt>
      <trkpt lat="42.761122" lon="-7.248245">
        <ele>682.0</ele>
        <time>2022-08-23T05:12:48Z</time>
      </trkpt>
      <trkpt lat="42.761245" lon="-7.248445">
        <ele>680.7</ele>
        <time>2022-08-23T05:13:01Z</time>
      </trkpt>
      <trkpt lat="42.761406" lon="-7.248577">
        <ele>681.6</ele>
        <time>2022-08-23T05:13:15Z</time>
      </trkpt>
      <trkpt lat="42.761596" lon="-7.248603">
        <ele>682.7</ele>
        <time>2022-08-23T05:13:29Z</time>
      </trkpt>
      <trkpt lat="42.761775" lon="-7.248670">
        <ele>683.7</ele>
        <time>2022-08-23T05:13:42Z</time>
      </trkpt>
      <trkpt lat="42.761936" lon="-7.248789">
        <ele>684.7</ele>
        <time>2022-08-23T05:13:55Z</time>
      </trkpt>
      <trkpt lat="42.762115" lon="-7.248815">
        <ele>686.7</ele>
        <time>2022-08-23T05:14:10Z</time>
      </trkpt>
      <trkpt lat="42.762297" lon="-7.248792">
        <ele>685.8</ele>
        <time>2022-08-23T05:14:24Z</time>
      </trkpt>
      <trkpt lat="42.762477" lon="-7.248781">
        <ele>680.8</ele>
        <time>2022-08-23T05:14:37Z</time>
      </trkpt>
      <trkpt lat="42.762648" lon="-7.248870">
        <ele>680.7</ele>
        <time>2022-08-23T05:14:50Z</time>
      </trkpt>
      <trkpt lat="42.762828" lon="-7.248912">
        <ele>679.7</ele>
        <time>2022-08-23T05:15:04Z</time>
      </trkpt>
      <trkpt lat="42.763011" lon="-7.248882">
        <ele>678.7</ele>
        <time>2022-08-23T05:15:17Z</time>
      </trkpt>
      <trkpt lat="42.763180" lon="-7.248972">
        <ele>681.7</ele>
        <time>2022-08-23T05:15:29Z</time>
      </trkpt>
      <trkpt lat="42.763336" lon="-7.249097">
        <ele>680.7</ele>
        <time>2022-08-23T05:15:45Z</time>
      </trkpt>
      <trkpt lat="42.763507" lon="-7.249191">
        <ele>684.6</ele>
        <time>2022-08-23T05:15:58Z</time>
      </trkpt>
      <trkpt lat="42.763679" lon="-7.249296">
        <ele>685.7</ele>
        <time>2022-08-23T05:16:15Z</time>
      </trkpt>
      <trkpt lat="42.763793" lon="-7.249495">
        <ele>684.4</ele>
        <time>2022-08-23T05:16:29Z</time>
      </trkpt>
      <trkpt lat="42.763976" lon="-7.249563">
        <ele>687.7</ele>
        <time>2022-08-23T05:16:41Z</time>
      </trkpt>
      <trkpt lat="42.764156" lon="-7.249570">
        <ele>686.7</ele>
        <time>2022-08-23T05:16:54Z</time>
      </trkpt>
      <trkpt lat="42.764333" lon="-7.249633">
        <ele>686.7</ele>
        <time>2022-08-23T05:17:29Z</time>
      </trkpt>
      <trkpt lat="42.764467" lon="-7.249804">
        <ele>686.7</ele>
        <time>2022-08-23T05:17:44Z</time>
      </trkpt>
      <trkpt lat="42.764622" lon="-7.249953">
        <ele>688.7</ele>
        <time>2022-08-23T05:18:00Z</time>
      </trkpt>
      <trkpt lat="42.764725" lon="-7.250173">
        <ele>686.6</ele>
        <time>2022-08-23T05:18:13Z</time>
      </trkpt>
      <trkpt lat="42.764818" lon="-7.250396">
        <ele>687.6</ele>
        <time>2022-08-23T05:18:26Z</time>
      </trkpt>
      <trkpt lat="42.764931" lon="-7.250595">
        <ele>687.7</ele>
        <time>2022-08-23T05:18:39Z</time>
      </trkpt>
      <trkpt lat="42.765003" lon="-7.250820">
        <ele>690.6</ele>
        <time>2022-08-23T05:18:55Z</time>
      </trkpt>
      <trkpt lat="42.765108" lon="-7.251023">
        <ele>692.7</ele>
        <time>2022-08-23T05:19:10Z</time>
      </trkpt>
      <trkpt lat="42.765223" lon="-7.251219">
        <ele>691.7</ele>
        <time>2022-08-23T05:19:25Z</time>
      </trkpt>
      <trkpt lat="42.765314" lon="-7.251486">
        <ele>696.3</ele>
        <time>2022-08-23T05:19:41Z</time>
      </trkpt>
      <trkpt lat="42.765391" lon="-7.251713">
        <ele>695.7</ele>
        <time>2022-08-23T05:19:57Z</time>
      </trkpt>
      <trkpt lat="42.765524" lon="-7.251897">
        <ele>690.1</ele>
        <time>2022-08-23T05:20:11Z</time>
      </trkpt>
      <trkpt lat="42.765664" lon="-7.252049">
        <ele>688.7</ele>
        <time>2022-08-23T05:20:26Z</time>
      </trkpt>
      <trkpt lat="42.765756" lon="-7.252264">
        <ele>690.6</ele>
        <time>2022-08-23T05:20:41Z</time>
      </trkpt>
      <trkpt lat="42.765853" lon="-7.252470">
        <ele>693.7</ele>
        <time>2022-08-23T05:20:54Z</time>
      </trkpt>
      <trkpt lat="42.765876" lon="-7.252718">
        <ele>693.7</ele>
        <time>2022-08-23T05:21:07Z</time>
      </trkpt>
      <trkpt lat="42.765898" lon="-7.252965">
        <ele>694.7</ele>
        <time>2022-08-23T05:21:21Z</time>
      </trkpt>
      <trkpt lat="42.765894" lon="-7.253220">
        <ele>696.7</ele>
        <time>2022-08-23T05:21:35Z</time>
      </trkpt>
      <trkpt lat="42.765945" lon="-7.253468">
        <ele>702.3</ele>
        <time>2022-08-23T05:21:49Z</time>
      </trkpt>
      <trkpt lat="42.766035" lon="-7.253688">
        <ele>706.7</ele>
        <time>2022-08-23T05:22:07Z</time>
      </trkpt>
      <trkpt lat="42.766196" lon="-7.253800">
        <ele>709.7</ele>
        <time>2022-08-23T05:22:22Z</time>
      </trkpt>
      <trkpt lat="42.766381" lon="-7.253807">
        <ele>709.7</ele>
        <time>2022-08-23T05:22:56Z</time>
      </trkpt>
      <trkpt lat="42.766559" lon="-7.253876">
        <ele>710.7</ele>
        <time>2022-08-23T05:23:14Z</time>
      </trkpt>
      <trkpt lat="42.766725" lon="-7.253998">
        <ele>707.9</ele>
        <time>2022-08-23T05:23:30Z</time>
      </trkpt>
      <trkpt lat="42.766829" lon="-7.254201">
        <ele>705.7</ele>
        <time>2022-08-23T05:23:45Z</time>
      </trkpt>
      <trkpt lat="42.766908" lon="-7.254435">
        <ele>703.0</ele>
        <time>2022-08-23T05:24:03Z</time>
      </trkpt>
      <trkpt lat="42.766993" lon="-7.254652">
        <ele>704.0</ele>
        <time>2022-08-23T05:24:18Z</time>
      </trkpt>
      <trkpt lat="42.767146" lon="-7.254787">
        <ele>705.4</ele>
        <time>2022-08-23T05:24:32Z</time>
      </trkpt>
      <trkpt lat="42.767311" lon="-7.254886">
        <ele>705.7</ele>
        <time>2022-08-23T05:24:50Z</time>
      </trkpt>
      <trkpt lat="42.767478" lon="-7.254999">
        <ele>705.0</ele>
        <time>2022-08-23T05:25:09Z</time>
      </trkpt>
      <trkpt lat="42.767606" lon="-7.255172">
        <ele>706.7</ele>
        <time>2022-08-23T05:25:25Z</time>
      </trkpt>
      <trkpt lat="42.767768" lon="-7.255298">
        <ele>704.7</ele>
        <time>2022-08-23T05:25:38Z</time>
      </trkpt>
      <trkpt lat="42.767931" lon="-7.255421">
        <ele>707.7</ele>
        <time>2022-08-23T05:25:52Z</time>
      </trkpt>
      <trkpt lat="42.768107" lon="-7.255485">
        <ele>712.7</ele>
        <time>2022-08-23T05:26:05Z</time>
      </trkpt>
      <trkpt lat="42.768270" lon="-7.255590">
        <ele>714.7</ele>
        <time>2022-08-23T05:26:20Z</time>
      </trkpt>
      <trkpt lat="42.768388" lon="-7.255780">
        <ele>714.7</ele>
        <time>2022-08-23T05:26:36Z</time>
      </trkpt>
      <trkpt lat="42.768429" lon="-7.256029">
        <ele>711.7</ele>
        <time>2022-08-23T05:26:49Z</time>
      </trkpt>
      <trkpt lat="42.768466" lon="-7.256279">
        <ele>712.7</ele>
        <time>2022-08-23T05:27:06Z</time>
      </trkpt>
      <trkpt lat="42.768634" lon="-7.256371">
        <ele>715.0</ele>
        <time>2022-08-23T05:27:21Z</time>
      </trkpt>
      <trkpt lat="42.768776" lon="-7.256532">
        <ele>714.7</ele>
        <time>2022-08-23T05:27:39Z</time>
      </trkpt>
      <trkpt lat="42.768803" lon="-7.256780">
        <ele>715.8</ele>
        <time>2022-08-23T05:27:55Z</time>
      </trkpt>
      <trkpt lat="42.768782" lon="-7.257036">
        <ele>719.6</ele>
        <time>2022-08-23T05:28:16Z</time>
      </trkpt>
      <trkpt lat="42.768850" lon="-7.257266">
        <ele>722.4</ele>
        <time>2022-08-23T05:28:36Z</time>
      </trkpt>
      <trkpt lat="42.768942" lon="-7.257481">
        <ele>722.7</ele>
        <time>2022-08-23T05:28:56Z</time>
      </trkpt>
      <trkpt lat="42.769006" lon="-7.257714">
        <ele>729.6</ele>
        <time>2022-08-23T05:29:17Z</time>
      </trkpt>
      <trkpt lat="42.769102" lon="-7.257930">
        <ele>734.7</ele>
        <time>2022-08-23T05:29:39Z</time>
      </trkpt>
      <trkpt lat="42.769255" lon="-7.258060">
        <ele>736.7</ele>
        <time>2022-08-23T05:29:58Z</time>
      </trkpt>
      <trkpt lat="42.769403" lon="-7.258201">
        <ele>739.7</ele>
        <time>2022-08-23T05:30:14Z</time>
      </trkpt>
      <trkpt lat="42.769540" lon="-7.258377">
        <ele>741.7</ele>
        <time>2022-08-23T05:30:34Z</time>
      </trkpt>
      <trkpt lat="42.769670" lon="-7.258556">
        <ele>744.7</ele>
        <time>2022-08-23T05:30:50Z</time>
      </trkpt>
      <trkpt lat="42.769801" lon="-7.258745">
        <ele>745.6</ele>
        <time>2022-08-23T05:31:12Z</time>
      </trkpt>
      <trkpt lat="42.769918" lon="-7.258932">
        <ele>748.6</ele>
        <time>2022-08-23T05:31:29Z</time>
      </trkpt>
      <trkpt lat="42.770016" lon="-7.259141">
        <ele>748.8</ele>
        <time>2022-08-23T05:31:45Z</time>
      </trkpt>
      <trkpt lat="42.770082" lon="-7.259369">
        <ele>748.7</ele>
        <time>2022-08-23T05:32:03Z</time>
      </trkpt>
      <trkpt lat="42.770192" lon="-7.259565">
        <ele>755.1</ele>
        <time>2022-08-23T05:32:22Z</time>
      </trkpt>
      <trkpt lat="42.770238" lon="-7.259808">
        <ele>756.7</ele>
        <time>2022-08-23T05:32:42Z</time>
      </trkpt>
      <trkpt lat="42.770330" lon="-7.260020">
        <ele>757.7</ele>
        <time>2022-08-23T05:33:04Z</time>
      </trkpt>
      <trkpt lat="42.770426" lon="-7.260231">
        <ele>760.5</ele>
        <time>2022-08-23T05:33:21Z</time>
      </trkpt>
      <trkpt lat="42.770465" lon="-7.260471">
        <ele>760.7</ele>
        <time>2022-08-23T05:33:39Z</time>
      </trkpt>
      <trkpt lat="42.770479" lon="-7.260724">
        <ele>767.6</ele>
        <time>2022-08-23T05:33:58Z</time>
      </trkpt>
      <trkpt lat="42.770540" lon="-7.260959">
        <ele>771.4</ele>
        <time>2022-08-23T05:34:14Z</time>
      </trkpt>
      <trkpt lat="42.770578" lon="-7.261198">
        <ele>772.6</ele>
        <time>2022-08-23T05:34:31Z</time>
      </trkpt>
      <trkpt lat="42.770593" lon="-7.261462">
        <ele>769.7</ele>
        <time>2022-08-23T05:34:48Z</time>
      </trkpt>
      <trkpt lat="42.770544" lon="-7.261699">
        <ele>768.7</ele>
        <time>2022-08-23T05:35:04Z</time>
      </trkpt>
      <trkpt lat="42.770443" lon="-7.261908">
        <ele>766.7</ele>
        <time>2022-08-23T05:35:18Z</time>
      </trkpt>
      <trkpt lat="42.770383" lon="-7.262141">
        <ele>769.4</ele>
        <time>2022-08-23T05:35:35Z</time>
      </trkpt>
      <trkpt lat="42.770236" lon="-7.262292">
        <ele>769.7</ele>
        <time>2022-08-23T05:35:50Z</time>
      </trkpt>
      <trkpt lat="42.770103" lon="-7.262466">
        <ele>769.7</ele>
        <time>2022-08-23T05:36:05Z</time>
      </trkpt>
      <trkpt lat="42.769941" lon="-7.262580">
        <ele>771.4</ele>
        <time>2022-08-23T05:36:19Z</time>
      </trkpt>
      <trkpt lat="42.769847" lon="-7.262791">
        <ele>774.4</ele>
        <time>2022-08-23T05:36:38Z</time>
      </trkpt>
      <trkpt lat="42.769732" lon="-7.262986">
        <ele>777.4</ele>
        <time>2022-08-23T05:36:54Z</time>
      </trkpt>
      <trkpt lat="42.769663" lon="-7.263220">
        <ele>779.6</ele>
        <time>2022-08-23T05:37:09Z</time>
      </trkpt>
      <trkpt lat="42.769654" lon="-7.263465">
        <ele>782.7</ele>
        <time>2022-08-23T05:37:27Z</time>
      </trkpt>
      <trkpt lat="42.769639" lon="-7.263713">
        <ele>784.7</ele>
        <time>2022-08-23T05:37:44Z</time>
      </trkpt>
      <trkpt lat="42.769569" lon="-7.263951">
        <ele>787.6</ele>
        <time>2022-08-23T05:38:00Z</time>
      </trkpt>
      <trkpt lat="42.769507" lon="-7.264181">
        <ele>788.7</ele>
        <time>2022-08-23T05:38:16Z</time>
      </trkpt>
      <trkpt lat="42.769365" lon="-7.264336">
        <ele>791.4</ele>
        <time>2022-08-23T05:38:34Z</time>
      </trkpt>
      <trkpt lat="42.769251" lon="-7.264533">
        <ele>794.7</ele>
        <time>2022-08-23T05:38:54Z</time>
      </trkpt>
      <trkpt lat="42.769169" lon="-7.264757">
        <ele>799.7</ele>
        <time>2022-08-23T05:39:08Z</time>
      </trkpt>
      <trkpt lat="42.768997" lon="-7.264846">
        <ele>804.3</ele>
        <time>2022-08-23T05:39:26Z</time>
      </trkpt>
      <trkpt lat="42.768846" lon="-7.265009">
        <ele>807.6</ele>
        <time>2022-08-23T05:39:48Z</time>
      </trkpt>
      <trkpt lat="42.768796" lon="-7.265252">
        <ele>805.7</ele>
        <time>2022-08-23T05:40:03Z</time>
      </trkpt>
      <trkpt lat="42.768747" lon="-7.265489">
        <ele>806.3</ele>
        <time>2022-08-23T05:40:20Z</time>
      </trkpt>
      <trkpt lat="42.768743" lon="-7.265749">
        <ele>818.7</ele>
        <time>2022-08-23T05:43:57Z</time>
      </trkpt>
      <trkpt lat="42.768722" lon="-7.266006">
        <ele>817.5</ele>
        <time>2022-08-23T05:44:14Z</time>
      </trkpt>
      <trkpt lat="42.768688" lon="-7.266251">
        <ele>813.9</ele>
        <time>2022-08-23T05:44:28Z</time>
      </trkpt>
      <trkpt lat="42.768673" lon="-7.266497">
        <ele>811.7</ele>
        <time>2022-08-23T05:44:41Z</time>
      </trkpt>
      <trkpt lat="42.768662" lon="-7.266744">
        <ele>808.7</ele>
        <time>2022-08-23T05:44:57Z</time>
      </trkpt>
      <trkpt lat="42.768612" lon="-7.266994">
        <ele>813.0</ele>
        <time>2022-08-23T05:45:30Z</time>
      </trkpt>
      <trkpt lat="42.768576" lon="-7.267253">
        <ele>811.7</ele>
        <time>2022-08-23T05:45:44Z</time>
      </trkpt>
      <trkpt lat="42.768552" lon="-7.267496">
        <ele>810.7</ele>
        <time>2022-08-23T05:45:57Z</time>
      </trkpt>
      <trkpt lat="42.768534" lon="-7.267742">
        <ele>813.3</ele>
        <time>2022-08-23T05:46:11Z</time>
      </trkpt>
      <trkpt lat="42.768629" lon="-7.267966">
        <ele>819.5</ele>
        <time>2022-08-23T05:46:31Z</time>
      </trkpt>
      <trkpt lat="42.768597" lon="-7.268213">
        <ele>826.3</ele>
        <time>2022-08-23T05:46:48Z</time>
      </trkpt>
      <trkpt lat="42.768488" lon="-7.268420">
        <ele>833.5</ele>
        <time>2022-08-23T05:47:07Z</time>
      </trkpt>
      <trkpt lat="42.768357" lon="-7.268589">
        <ele>844.5</ele>
        <time>2022-08-23T05:47:40Z</time>
      </trkpt>
      <trkpt lat="42.768287" lon="-7.268824">
        <ele>844.7</ele>
        <time>2022-08-23T05:47:58Z</time>
      </trkpt>
      <trkpt lat="42.768224" lon="-7.269060">
        <ele>844.7</ele>
        <time>2022-08-23T05:48:12Z</time>
      </trkpt>
      <trkpt lat="42.768145" lon="-7.269288">
        <ele>850.6</ele>
        <time>2022-08-23T05:48:29Z</time>
      </trkpt>
      <trkpt lat="42.768065" lon="-7.269512">
        <ele>848.9</ele>
        <time>2022-08-23T05:48:45Z</time>
      </trkpt>
      <trkpt lat="42.767955" lon="-7.269706">
        <ele>848.7</ele>
        <time>2022-08-23T05:49:00Z</time>
      </trkpt>
      <trkpt lat="42.767861" lon="-7.269929">
        <ele>848.7</ele>
        <time>2022-08-23T05:49:16Z</time>
      </trkpt>
      <trkpt lat="42.767782" lon="-7.270159">
        <ele>851.4</ele>
        <time>2022-08-23T05:49:31Z</time>
      </trkpt>
      <trkpt lat="42.767722" lon="-7.270410">
        <ele>853.6</ele>
        <time>2022-08-23T05:49:47Z</time>
      </trkpt>
      <trkpt lat="42.767698" lon="-7.270660">
        <ele>855.3</ele>
        <time>2022-08-23T05:50:03Z</time>
      </trkpt>
      <trkpt lat="42.767647" lon="-7.270901">
        <ele>856.7</ele>
        <time>2022-08-23T05:50:17Z</time>
      </trkpt>
      <trkpt lat="42.767563" lon="-7.271137">
        <ele>858.7</ele>
        <time>2022-08-23T05:50:33Z</time>
      </trkpt>
      <trkpt lat="42.767450" lon="-7.271338">
        <ele>860.7</ele>
        <time>2022-08-23T05:50:47Z</time>
      </trkpt>
      <trkpt lat="42.767275" lon="-7.271446">
        <ele>859.0</ele>
        <time>2022-08-23T05:51:02Z</time>
      </trkpt>
      <trkpt lat="42.767115" lon="-7.271587">
        <ele>860.7</ele>
        <time>2022-08-23T05:51:18Z</time>
      </trkpt>
      <trkpt lat="42.766974" lon="-7.271740">
        <ele>860.7</ele>
        <time>2022-08-23T05:51:33Z</time>
      </trkpt>
      <trkpt lat="42.766839" lon="-7.271924">
        <ele>863.4</ele>
        <time>2022-08-23T05:51:50Z</time>
      </trkpt>
      <trkpt lat="42.766685" lon="-7.272066">
        <ele>861.7</ele>
        <time>2022-08-23T05:52:05Z</time>
      </trkpt>
      <trkpt lat="42.766528" lon="-7.272205">
        <ele>861.6</ele>
        <time>2022-08-23T05:52:19Z</time>
      </trkpt>
      <trkpt lat="42.766378" lon="-7.272352">
        <ele>860.6</ele>
        <time>2022-08-23T05:52:34Z</time>
      </trkpt>
      <trkpt lat="42.766261" lon="-7.272549">
        <ele>858.4</ele>
        <time>2022-08-23T05:52:49Z</time>
      </trkpt>
      <trkpt lat="42.766182" lon="-7.272768">
        <ele>858.5</ele>
        <time>2022-08-23T05:53:03Z</time>
      </trkpt>
      <trkpt lat="42.766095" lon="-7.272984">
        <ele>859.7</ele>
        <time>2022-08-23T05:53:19Z</time>
      </trkpt>
      <trkpt lat="42.766034" lon="-7.273228">
        <ele>859.6</ele>
        <time>2022-08-23T05:53:34Z</time>
      </trkpt>
      <trkpt lat="42.765975" lon="-7.273475">
        <ele>860.9</ele>
        <time>2022-08-23T05:53:49Z</time>
      </trkpt>
      <trkpt lat="42.765931" lon="-7.273716">
        <ele>861.6</ele>
        <time>2022-08-23T05:54:03Z</time>
      </trkpt>
      <trkpt lat="42.765893" lon="-7.273962">
        <ele>860.7</ele>
        <time>2022-08-23T05:54:17Z</time>
      </trkpt>
      <trkpt lat="42.765858" lon="-7.274213">
        <ele>859.7</ele>
        <time>2022-08-23T05:54:31Z</time>
      </trkpt>
      <trkpt lat="42.765843" lon="-7.274461">
        <ele>857.7</ele>
        <time>2022-08-23T05:54:48Z</time>
      </trkpt>
      <trkpt lat="42.765776" lon="-7.274693">
        <ele>863.4</ele>
        <time>2022-08-23T05:55:31Z</time>
      </trkpt>
      <trkpt lat="42.765836" lon="-7.274939">
        <ele>861.7</ele>
        <time>2022-08-23T05:55:49Z</time>
      </trkpt>
      <trkpt lat="42.765910" lon="-7.275167">
        <ele>862.7</ele>
        <time>2022-08-23T05:56:04Z</time>
      </trkpt>
      <trkpt lat="42.765913" lon="-7.275430">
        <ele>865.7</ele>
        <time>2022-08-23T05:56:22Z</time>
      </trkpt>
      <trkpt lat="42.765768" lon="-7.275602">
        <ele>868.4</ele>
        <time>2022-08-23T05:56:45Z</time>
      </trkpt>
      <trkpt lat="42.765624" lon="-7.275755">
        <ele>868.7</ele>
        <time>2022-08-23T05:56:58Z</time>
      </trkpt>
      <trkpt lat="42.765470" lon="-7.275903">
        <ele>870.7</ele>
        <time>2022-08-23T05:57:14Z</time>
      </trkpt>
      <trkpt lat="42.765321" lon="-7.276065">
        <ele>870.7</ele>
        <time>2022-08-23T05:57:27Z</time>
      </trkpt>
      <trkpt lat="42.765208" lon="-7.276268">
        <ele>867.7</ele>
        <time>2022-08-23T05:57:41Z</time>
      </trkpt>
      <trkpt lat="42.765070" lon="-7.276448">
        <ele>868.7</ele>
        <time>2022-08-23T05:57:55Z</time>
      </trkpt>
      <trkpt lat="42.764968" lon="-7.276664">
        <ele>869.7</ele>
        <time>2022-08-23T05:58:09Z</time>
      </trkpt>
      <trkpt lat="42.764854" lon="-7.276857">
        <ele>869.7</ele>
        <time>2022-08-23T05:58:23Z</time>
      </trkpt>
      <trkpt lat="42.764746" lon="-7.277076">
        <ele>867.7</ele>
        <time>2022-08-23T05:58:38Z</time>
      </trkpt>
      <trkpt lat="42.764655" lon="-7.277294">
        <ele>867.7</ele>
        <time>2022-08-23T05:59:09Z</time>
      </trkpt>
      <trkpt lat="42.764559" lon="-7.277515">
        <ele>866.7</ele>
        <time>2022-08-23T05:59:25Z</time>
      </trkpt>
      <trkpt lat="42.764498" lon="-7.277758">
        <ele>865.7</ele>
        <time>2022-08-23T05:59:41Z</time>
      </trkpt>
      <trkpt lat="42.764457" lon="-7.278010">
        <ele>864.7</ele>
        <time>2022-08-23T05:59:57Z</time>
      </trkpt>
      <trkpt lat="42.764422" lon="-7.278257">
        <ele>866.7</ele>
        <time>2022-08-23T06:00:12Z</time>
      </trkpt>
      <trkpt lat="42.764406" lon="-7.278506">
        <ele>865.0</ele>
        <time>2022-08-23T06:00:26Z</time>
      </trkpt>
      <trkpt lat="42.764412" lon="-7.278752">
        <ele>864.7</ele>
        <time>2022-08-23T06:00:40Z</time>
      </trkpt>
      <trkpt lat="42.764407" lon="-7.279008">
        <ele>865.0</ele>
        <time>2022-08-23T06:00:55Z</time>
      </trkpt>
      <trkpt lat="42.764415" lon="-7.279257">
        <ele>865.7</ele>
        <time>2022-08-23T06:01:10Z</time>
      </trkpt>
      <trkpt lat="42.764413" lon="-7.279512">
        <ele>866.6</ele>
        <time>2022-08-23T06:01:25Z</time>
      </trkpt>
      <trkpt lat="42.764400" lon="-7.279766">
        <ele>866.8</ele>
        <time>2022-08-23T06:01:40Z</time>
      </trkpt>
      <trkpt lat="42.764403" lon="-7.280013">
        <ele>866.9</ele>
        <time>2022-08-23T06:01:54Z</time>
      </trkpt>
      <trkpt lat="42.764431" lon="-7.280258">
        <ele>867.7</ele>
        <time>2022-08-23T06:02:09Z</time>
      </trkpt>
      <trkpt lat="42.764483" lon="-7.280494">
        <ele>868.7</ele>
        <time>2022-08-23T06:02:23Z</time>
      </trkpt>
      <trkpt lat="42.764567" lon="-7.280729">
        <ele>869.7</ele>
        <time>2022-08-23T06:02:38Z</time>
      </trkpt>
      <trkpt lat="42.764670" lon="-7.280941">
        <ele>870.7</ele>
        <time>2022-08-23T06:02:54Z</time>
      </trkpt>
      <trkpt lat="42.764794" lon="-7.281139">
        <ele>871.7</ele>
        <time>2022-08-23T06:03:11Z</time>
      </trkpt>
      <trkpt lat="42.764923" lon="-7.281318">
        <ele>871.7</ele>
        <time>2022-08-23T06:03:25Z</time>
      </trkpt>
      <trkpt lat="42.765037" lon="-7.281508">
        <ele>870.9</ele>
        <time>2022-08-23T06:03:39Z</time>
      </trkpt>
      <trkpt lat="42.765162" lon="-7.281702">
        <ele>869.8</ele>
        <time>2022-08-23T06:03:54Z</time>
      </trkpt>
      <trkpt lat="42.765301" lon="-7.281882">
        <ele>871.7</ele>
        <time>2022-08-23T06:04:09Z</time>
      </trkpt>
      <trkpt lat="42.765430" lon="-7.282070">
        <ele>870.6</ele>
        <time>2022-08-23T06:04:24Z</time>
      </trkpt>
      <trkpt lat="42.765557" lon="-7.282253">
        <ele>870.7</ele>
        <time>2022-08-23T06:04:39Z</time>
      </trkpt>
      <trkpt lat="42.765700" lon="-7.282422">
        <ele>870.7</ele>
        <time>2022-08-23T06:04:56Z</time>
      </trkpt>
      <trkpt lat="42.765861" lon="-7.282561">
        <ele>871.0</ele>
        <time>2022-08-23T06:05:12Z</time>
      </trkpt>
      <trkpt lat="42.766032" lon="-7.282670">
        <ele>871.7</ele>
        <time>2022-08-23T06:05:27Z</time>
      </trkpt>
      <trkpt lat="42.766213" lon="-7.282741">
        <ele>872.9</ele>
        <time>2022-08-23T06:05:42Z</time>
      </trkpt>
      <trkpt lat="42.766394" lon="-7.282784">
        <ele>872.7</ele>
        <time>2022-08-23T06:06:01Z</time>
      </trkpt>
      <trkpt lat="42.766584" lon="-7.282811">
        <ele>874.6</ele>
        <time>2022-08-23T06:06:18Z</time>
      </trkpt>
      <trkpt lat="42.766768" lon="-7.282815">
        <ele>875.7</ele>
        <time>2022-08-23T06:06:33Z</time>
      </trkpt>
      <trkpt lat="42.766949" lon="-7.282823">
        <ele>877.4</ele>
        <time>2022-08-23T06:06:47Z</time>
      </trkpt>
      <trkpt lat="42.767133" lon="-7.282803">
        <ele>878.7</ele>
        <time>2022-08-23T06:07:01Z</time>
      </trkpt>
      <trkpt lat="42.767322" lon="-7.282819">
        <ele>880.4</ele>
        <time>2022-08-23T06:07:16Z</time>
      </trkpt>
      <trkpt lat="42.767500" lon="-7.282772">
        <ele>878.0</ele>
        <time>2022-08-23T06:07:30Z</time>
      </trkpt>
      <trkpt lat="42.767662" lon="-7.282657">
        <ele>878.7</ele>
        <time>2022-08-23T06:07:45Z</time>
      </trkpt>
      <trkpt lat="42.767839" lon="-7.282581">
        <ele>878.7</ele>
        <time>2022-08-23T06:08:01Z</time>
      </trkpt>
      <trkpt lat="42.767998" lon="-7.282701">
        <ele>879.0</ele>
        <time>2022-08-23T06:08:16Z</time>
      </trkpt>
      <trkpt lat="42.768088" lon="-7.282932">
        <ele>874.7</ele>
        <time>2022-08-23T06:08:30Z</time>
      </trkpt>
      <trkpt lat="42.768127" lon="-7.283178">
        <ele>873.0</ele>
        <time>2022-08-23T06:08:44Z</time>
      </trkpt>
      <trkpt lat="42.768132" lon="-7.283431">
        <ele>871.7</ele>
        <time>2022-08-23T06:08:59Z</time>
      </trkpt>
      <trkpt lat="42.768131" lon="-7.283691">
        <ele>874.3</ele>
        <time>2022-08-23T06:09:13Z</time>
      </trkpt>
      <trkpt lat="42.768096" lon="-7.283936">
        <ele>874.7</ele>
        <time>2022-08-23T06:09:28Z</time>
      </trkpt>
      <trkpt lat="42.768039" lon="-7.284182">
        <ele>877.0</ele>
        <time>2022-08-23T06:09:44Z</time>
      </trkpt>
      <trkpt lat="42.767988" lon="-7.284430">
        <ele>878.6</ele>
        <time>2022-08-23T06:10:01Z</time>
      </trkpt>
      <trkpt lat="42.767934" lon="-7.284669">
        <ele>881.6</ele>
        <time>2022-08-23T06:10:16Z</time>
      </trkpt>
      <trkpt lat="42.767858" lon="-7.284907">
        <ele>881.6</ele>
        <time>2022-08-23T06:10:33Z</time>
      </trkpt>
      <trkpt lat="42.767761" lon="-7.285120">
        <ele>885.6</ele>
        <time>2022-08-23T06:10:52Z</time>
      </trkpt>
      <trkpt lat="42.767647" lon="-7.285311">
        <ele>889.4</ele>
        <time>2022-08-23T06:11:08Z</time>
      </trkpt>
      <trkpt lat="42.767552" lon="-7.285525">
        <ele>889.6</ele>
        <time>2022-08-23T06:11:25Z</time>
      </trkpt>
      <trkpt lat="42.767496" lon="-7.285760">
        <ele>891.7</ele>
        <time>2022-08-23T06:11:42Z</time>
      </trkpt>
      <trkpt lat="42.767497" lon="-7.286012">
        <ele>892.0</ele>
        <time>2022-08-23T06:12:05Z</time>
      </trkpt>
      <trkpt lat="42.767531" lon="-7.286256">
        <ele>895.5</ele>
        <time>2022-08-23T06:12:25Z</time>
      </trkpt>
      <trkpt lat="42.767536" lon="-7.286507">
        <ele>899.8</ele>
        <time>2022-08-23T06:12:47Z</time>
      </trkpt>
      <trkpt lat="42.767581" lon="-7.286746">
        <ele>899.7</ele>
        <time>2022-08-23T06:13:05Z</time>
      </trkpt>
      <trkpt lat="42.767624" lon="-7.286992">
        <ele>897.6</ele>
        <time>2022-08-23T06:13:19Z</time>
      </trkpt>
      <trkpt lat="42.767681" lon="-7.287045">
        <ele>901.7</ele>
        <time>2022-08-23T06:14:41Z</time>
      </trkpt>
      <trkpt lat="42.767714" lon="-7.287288">
        <ele>899.6</ele>
        <time>2022-08-23T06:14:57Z</time>
      </trkpt>
      <trkpt lat="42.767774" lon="-7.287528">
        <ele>895.8</ele>
        <time>2022-08-23T06:15:17Z</time>
      </trkpt>
      <trkpt lat="42.767856" lon="-7.287758">
        <ele>892.8</ele>
        <time>2022-08-23T06:15:38Z</time>
      </trkpt>
      <trkpt lat="42.767839" lon="-7.288006">
        <ele>886.0</ele>
        <time>2022-08-23T06:15:50Z</time>
      </trkpt>
      <trkpt lat="42.767837" lon="-7.288261">
        <ele>885.0</ele>
        <time>2022-08-23T06:16:09Z</time>
      </trkpt>
      <trkpt lat="42.767801" lon="-7.288502">
        <ele>882.3</ele>
        <time>2022-08-23T06:16:24Z</time>
      </trkpt>
      <trkpt lat="42.767704" lon="-7.288731">
        <ele>881.0</ele>
        <time>2022-08-23T06:16:38Z</time>
      </trkpt>
      <trkpt lat="42.767626" lon="-7.288956">
        <ele>878.0</ele>
        <time>2022-08-23T06:16:50Z</time>
      </trkpt>
      <trkpt lat="42.767585" lon="-7.289208">
        <ele>876.6</ele>
        <time>2022-08-23T06:17:05Z</time>
      </trkpt>
      <trkpt lat="42.767495" lon="-7.289427">
        <ele>873.7</ele>
        <time>2022-08-23T06:17:21Z</time>
      </trkpt>
      <trkpt lat="42.767387" lon="-7.289631">
        <ele>870.7</ele>
        <time>2022-08-23T06:17:35Z</time>
      </trkpt>
      <trkpt lat="42.767273" lon="-7.289857">
        <ele>868.7</ele>
        <time>2022-08-23T06:17:50Z</time>
      </trkpt>
      <trkpt lat="42.767218" lon="-7.290097">
        <ele>865.7</ele>
        <time>2022-08-23T06:18:10Z</time>
      </trkpt>
      <trkpt lat="42.767123" lon="-7.290321">
        <ele>862.8</ele>
        <time>2022-08-23T06:18:28Z</time>
      </trkpt>
      <trkpt lat="42.767071" lon="-7.290559">
        <ele>857.8</ele>
        <time>2022-08-23T06:18:44Z</time>
      </trkpt>
      <trkpt lat="42.766977" lon="-7.290775">
        <ele>857.7</ele>
        <time>2022-08-23T06:19:06Z</time>
      </trkpt>
      <trkpt lat="42.766940" lon="-7.291027">
        <ele>856.0</ele>
        <time>2022-08-23T06:19:26Z</time>
      </trkpt>
      <trkpt lat="42.766902" lon="-7.291272">
        <ele>850.5</ele>
        <time>2022-08-23T06:19:48Z</time>
      </trkpt>
      <trkpt lat="42.766830" lon="-7.291497">
        <ele>846.7</ele>
        <time>2022-08-23T06:20:07Z</time>
      </trkpt>
      <trkpt lat="42.766754" lon="-7.291731">
        <ele>840.7</ele>
        <time>2022-08-23T06:20:28Z</time>
      </trkpt>
      <trkpt lat="42.766714" lon="-7.291993">
        <ele>841.4</ele>
        <time>2022-08-23T06:20:46Z</time>
      </trkpt>
      <trkpt lat="42.766657" lon="-7.292235">
        <ele>841.6</ele>
        <time>2022-08-23T06:21:02Z</time>
      </trkpt>
      <trkpt lat="42.766619" lon="-7.292486">
        <ele>836.7</ele>
        <time>2022-08-23T06:21:16Z</time>
      </trkpt>
      <trkpt lat="42.766590" lon="-7.292737">
        <ele>832.7</ele>
        <time>2022-08-23T06:21:30Z</time>
      </trkpt>
      <trkpt lat="42.766567" lon="-7.292984">
        <ele>826.0</ele>
        <time>2022-08-23T06:21:46Z</time>
      </trkpt>
      <trkpt lat="42.766536" lon="-7.293244">
        <ele>820.0</ele>
        <time>2022-08-23T06:22:01Z</time>
      </trkpt>
      <trkpt lat="42.766495" lon="-7.293492">
        <ele>817.7</ele>
        <time>2022-08-23T06:22:15Z</time>
      </trkpt>
      <trkpt lat="42.766459" lon="-7.293737">
        <ele>816.7</ele>
        <time>2022-08-23T06:22:30Z</time>
      </trkpt>
      <trkpt lat="42.766348" lon="-7.293932">
        <ele>813.7</ele>
        <time>2022-08-23T06:22:46Z</time>
      </trkpt>
      <trkpt lat="42.766293" lon="-7.294168">
        <ele>808.0</ele>
        <time>2022-08-23T06:23:09Z</time>
      </trkpt>
      <trkpt lat="42.766248" lon="-7.294415">
        <ele>801.0</ele>
        <time>2022-08-23T06:23:29Z</time>
      </trkpt>
      <trkpt lat="42.766254" lon="-7.294664">
        <ele>796.7</ele>
        <time>2022-08-23T06:23:49Z</time>
      </trkpt>
      <trkpt lat="42.766252" lon="-7.294912">
        <ele>791.7</ele>
        <time>2022-08-23T06:24:07Z</time>
      </trkpt>
      <trkpt lat="42.766202" lon="-7.295151">
        <ele>785.7</ele>
        <time>2022-08-23T06:24:24Z</time>
      </trkpt>
      <trkpt lat="42.766127" lon="-7.295388">
        <ele>780.0</ele>
        <time>2022-08-23T06:24:39Z</time>
      </trkpt>
      <trkpt lat="42.766059" lon="-7.295621">
        <ele>777.7</ele>
        <time>2022-08-23T06:24:55Z</time>
      </trkpt>
      <trkpt lat="42.766050" lon="-7.295867">
        <ele>776.4</ele>
        <time>2022-08-23T06:25:13Z</time>
      </trkpt>
      <trkpt lat="42.766090" lon="-7.296107">
        <ele>770.7</ele>
        <time>2022-08-23T06:25:41Z</time>
      </trkpt>
      <trkpt lat="42.766165" lon="-7.296340">
        <ele>767.6</ele>
        <time>2022-08-23T06:26:05Z</time>
      </trkpt>
      <trkpt lat="42.766344" lon="-7.296261">
        <ele>766.7</ele>
        <time>2022-08-23T06:26:30Z</time>
      </trkpt>
      <trkpt lat="42.766515" lon="-7.296354">
        <ele>760.2</ele>
        <time>2022-08-23T06:26:47Z</time>
      </trkpt>
      <trkpt lat="42.766538" lon="-7.296608">
        <ele>749.7</ele>
        <time>2022-08-23T06:27:16Z</time>
      </trkpt>
      <trkpt lat="42.766563" lon="-7.296853">
        <ele>751.6</ele>
        <time>2022-08-23T06:27:37Z</time>
      </trkpt>
      <trkpt lat="42.766636" lon="-7.297082">
        <ele>744.7</ele>
        <time>2022-08-23T06:27:58Z</time>
      </trkpt>
      <trkpt lat="42.766649" lon="-7.297337">
        <ele>740.7</ele>
        <time>2022-08-23T06:28:17Z</time>
      </trkpt>
      <trkpt lat="42.766763" lon="-7.297542">
        <ele>743.5</ele>
        <time>2022-08-23T06:28:57Z</time>
      </trkpt>
      <trkpt lat="42.766766" lon="-7.297788">
        <ele>743.6</ele>
        <time>2022-08-23T06:29:10Z</time>
      </trkpt>
      <trkpt lat="42.766733" lon="-7.298037">
        <ele>741.3</ele>
        <time>2022-08-23T06:29:25Z</time>
      </trkpt>
      <trkpt lat="42.766685" lon="-7.298281">
        <ele>738.9</ele>
        <time>2022-08-23T06:29:43Z</time>
      </trkpt>
      <trkpt lat="42.766668" lon="-7.298534">
        <ele>739.4</ele>
        <time>2022-08-23T06:30:00Z</time>
      </trkpt>
      <trkpt lat="42.766760" lon="-7.298756">
        <ele>742.6</ele>
        <time>2022-08-23T06:30:16Z</time>
      </trkpt>
      <trkpt lat="42.766775" lon="-7.299004">
        <ele>745.6</ele>
        <time>2022-08-23T06:30:31Z</time>
      </trkpt>
      <trkpt lat="42.766779" lon="-7.299258">
        <ele>748.6</ele>
        <time>2022-08-23T06:30:46Z</time>
      </trkpt>
      <trkpt lat="42.766798" lon="-7.299510">
        <ele>751.6</ele>
        <time>2022-08-23T06:31:02Z</time>
      </trkpt>
      <trkpt lat="42.766805" lon="-7.299770">
        <ele>754.2</ele>
        <time>2022-08-23T06:31:20Z</time>
      </trkpt>
      <trkpt lat="42.766734" lon="-7.299997">
        <ele>756.3</ele>
        <time>2022-08-23T06:31:35Z</time>
      </trkpt>
      <trkpt lat="42.766747" lon="-7.300253">
        <ele>755.7</ele>
        <time>2022-08-23T06:31:51Z</time>
      </trkpt>
      <trkpt lat="42.766697" lon="-7.300492">
        <ele>757.7</ele>
        <time>2022-08-23T06:32:05Z</time>
      </trkpt>
      <trkpt lat="42.766642" lon="-7.300733">
        <ele>760.6</ele>
        <time>2022-08-23T06:32:20Z</time>
      </trkpt>
      <trkpt lat="42.766614" lon="-7.300979">
        <ele>760.6</ele>
        <time>2022-08-23T06:32:36Z</time>
      </trkpt>
      <trkpt lat="42.766584" lon="-7.301226">
        <ele>761.6</ele>
        <time>2022-08-23T06:33:04Z</time>
      </trkpt>
      <trkpt lat="42.766561" lon="-7.301478">
        <ele>758.2</ele>
        <time>2022-08-23T06:33:19Z</time>
      </trkpt>
      <trkpt lat="42.766542" lon="-7.301730">
        <ele>758.7</ele>
        <time>2022-08-23T06:33:39Z</time>
      </trkpt>
      <trkpt lat="42.766580" lon="-7.301979">
        <ele>758.7</ele>
        <time>2022-08-23T06:33:55Z</time>
      </trkpt>
      <trkpt lat="42.766598" lon="-7.302233">
        <ele>758.7</ele>
        <time>2022-08-23T06:34:11Z</time>
      </trkpt>
      <trkpt lat="42.766642" lon="-7.302474">
        <ele>758.7</ele>
        <time>2022-08-23T06:34:26Z</time>
      </trkpt>
      <trkpt lat="42.766702" lon="-7.302722">
        <ele>758.7</ele>
        <time>2022-08-23T06:34:39Z</time>
      </trkpt>
      <trkpt lat="42.766829" lon="-7.302908">
        <ele>758.7</ele>
        <time>2022-08-23T06:34:54Z</time>
      </trkpt>
      <trkpt lat="42.767016" lon="-7.302857">
        <ele>763.9</ele>
        <time>2022-08-23T06:35:11Z</time>
      </trkpt>
      <trkpt lat="42.767204" lon="-7.302850">
        <ele>767.6</ele>
        <time>2022-08-23T06:35:26Z</time>
      </trkpt>
      <trkpt lat="42.767355" lon="-7.302986">
        <ele>766.6</ele>
        <time>2022-08-23T06:40:04Z</time>
      </trkpt>
      <trkpt lat="42.767503" lon="-7.303136">
        <ele>765.6</ele>
        <time>2022-08-23T06:40:20Z</time>
      </trkpt>
      <trkpt lat="42.767651" lon="-7.303290">
        <ele>764.7</ele>
        <time>2022-08-23T06:40:41Z</time>
      </trkpt>
      <trkpt lat="42.767761" lon="-7.303496">
        <ele>762.6</ele>
        <time>2022-08-23T06:40:56Z</time>
      </trkpt>
      <trkpt lat="42.767876" lon="-7.303705">
        <ele>758.9</ele>
        <time>2022-08-23T06:41:24Z</time>
      </trkpt>
      <trkpt lat="42.767956" lon="-7.303924">
        <ele>756.6</ele>
        <time>2022-08-23T06:41:38Z</time>
      </trkpt>
      <trkpt lat="42.768037" lon="-7.304170">
        <ele>756.6</ele>
        <time>2022-08-23T06:41:56Z</time>
      </trkpt>
      <trkpt lat="42.768173" lon="-7.304350">
        <ele>757.6</ele>
        <time>2022-08-23T06:42:09Z</time>
      </trkpt>
      <trkpt lat="42.768313" lon="-7.304522">
        <ele>757.6</ele>
        <time>2022-08-23T06:42:25Z</time>
      </trkpt>
      <trkpt lat="42.768459" lon="-7.304694">
        <ele>755.7</ele>
        <time>2022-08-23T06:42:41Z</time>
      </trkpt>
      <trkpt lat="42.768556" lon="-7.304904">
        <ele>752.8</ele>
        <time>2022-08-23T06:42:56Z</time>
      </trkpt>
      <trkpt lat="42.768629" lon="-7.305154">
        <ele>751.6</ele>
        <time>2022-08-23T06:43:31Z</time>
      </trkpt>
      <trkpt lat="42.768692" lon="-7.305385">
        <ele>753.7</ele>
        <time>2022-08-23T06:44:28Z</time>
      </trkpt>
      <trkpt lat="42.768636" lon="-7.305631">
        <ele>756.3</ele>
        <time>2022-08-23T06:44:48Z</time>
      </trkpt>
      <trkpt lat="42.768496" lon="-7.305787">
        <ele>756.6</ele>
        <time>2022-08-23T06:45:01Z</time>
      </trkpt>
      <trkpt lat="42.768341" lon="-7.305937">
        <ele>755.7</ele>
        <time>2022-08-23T06:45:15Z</time>
      </trkpt>
      <trkpt lat="42.768208" lon="-7.306121">
        <ele>751.7</ele>
        <time>2022-08-23T06:45:35Z</time>
      </trkpt>
      <trkpt lat="42.768098" lon="-7.306326">
        <ele>749.7</ele>
        <time>2022-08-23T06:45:48Z</time>
      </trkpt>
      <trkpt lat="42.767978" lon="-7.306526">
        <ele>750.6</ele>
        <time>2022-08-23T06:46:02Z</time>
      </trkpt>
      <trkpt lat="42.767905" lon="-7.306750">
        <ele>749.7</ele>
        <time>2022-08-23T06:46:18Z</time>
      </trkpt>
      <trkpt lat="42.767857" lon="-7.306997">
        <ele>751.6</ele>
        <time>2022-08-23T06:46:31Z</time>
      </trkpt>
      <trkpt lat="42.767827" lon="-7.307261">
        <ele>747.7</ele>
        <time>2022-08-23T06:46:47Z</time>
      </trkpt>
      <trkpt lat="42.767832" lon="-7.307506">
        <ele>747.6</ele>
        <time>2022-08-23T06:47:02Z</time>
      </trkpt>
      <trkpt lat="42.767837" lon="-7.307754">
        <ele>746.7</ele>
        <time>2022-08-23T06:47:18Z</time>
      </trkpt>
      <trkpt lat="42.767940" lon="-7.307967">
        <ele>743.6</ele>
        <time>2022-08-23T06:47:33Z</time>
      </trkpt>
      <trkpt lat="42.768073" lon="-7.308146">
        <ele>743.7</ele>
        <time>2022-08-23T06:47:50Z</time>
      </trkpt>
      <trkpt lat="42.768187" lon="-7.308343">
        <ele>742.6</ele>
        <time>2022-08-23T06:48:06Z</time>
      </trkpt>
      <trkpt lat="42.768336" lon="-7.308484">
        <ele>739.7</ele>
        <time>2022-08-23T06:48:21Z</time>
      </trkpt>
      <trkpt lat="42.768481" lon="-7.308647">
        <ele>735.7</ele>
        <time>2022-08-23T06:48:37Z</time>
      </trkpt>
      <trkpt lat="42.768592" lon="-7.308860">
        <ele>733.6</ele>
        <time>2022-08-23T06:48:52Z</time>
      </trkpt>
      <trkpt lat="42.768671" lon="-7.309080">
        <ele>728.7</ele>
        <time>2022-08-23T06:49:07Z</time>
      </trkpt>
      <trkpt lat="42.768741" lon="-7.309317">
        <ele>728.6</ele>
        <time>2022-08-23T06:49:22Z</time>
      </trkpt>
      <trkpt lat="42.768844" lon="-7.309534">
        <ele>731.3</ele>
        <time>2022-08-23T06:49:38Z</time>
      </trkpt>
      <trkpt lat="42.768988" lon="-7.309690">
        <ele>730.6</ele>
        <time>2022-08-23T06:49:54Z</time>
      </trkpt>
      <trkpt lat="42.769149" lon="-7.309825">
        <ele>729.6</ele>
        <time>2022-08-23T06:50:10Z</time>
      </trkpt>
      <trkpt lat="42.769309" lon="-7.309967">
        <ele>726.7</ele>
        <time>2022-08-23T06:50:25Z</time>
      </trkpt>
      <trkpt lat="42.769444" lon="-7.310139">
        <ele>723.6</ele>
        <time>2022-08-23T06:50:46Z</time>
      </trkpt>
      <trkpt lat="42.769598" lon="-7.310267">
        <ele>720.7</ele>
        <time>2022-08-23T06:51:00Z</time>
      </trkpt>
      <trkpt lat="42.769766" lon="-7.310362">
        <ele>718.7</ele>
        <time>2022-08-23T06:51:30Z</time>
      </trkpt>
      <trkpt lat="42.769949" lon="-7.310416">
        <ele>716.7</ele>
        <time>2022-08-23T06:51:44Z</time>
      </trkpt>
      <trkpt lat="42.770139" lon="-7.310433">
        <ele>715.6</ele>
        <time>2022-08-23T06:52:01Z</time>
      </trkpt>
      <trkpt lat="42.770319" lon="-7.310467">
        <ele>713.7</ele>
        <time>2022-08-23T06:52:15Z</time>
      </trkpt>
      <trkpt lat="42.770510" lon="-7.310474">
        <ele>712.6</ele>
        <time>2022-08-23T06:52:30Z</time>
      </trkpt>
      <trkpt lat="42.770698" lon="-7.310484">
        <ele>709.7</ele>
        <time>2022-08-23T06:52:50Z</time>
      </trkpt>
      <trkpt lat="42.770884" lon="-7.310500">
        <ele>706.7</ele>
        <time>2022-08-23T06:53:04Z</time>
      </trkpt>
      <trkpt lat="42.771067" lon="-7.310489">
        <ele>702.0</ele>
        <time>2022-08-23T06:53:21Z</time>
      </trkpt>
      <trkpt lat="42.771260" lon="-7.310433">
        <ele>701.6</ele>
        <time>2022-08-23T06:53:37Z</time>
      </trkpt>
      <trkpt lat="42.771434" lon="-7.310364">
        <ele>702.6</ele>
        <time>2022-08-23T06:53:53Z</time>
      </trkpt>
      <trkpt lat="42.771618" lon="-7.310285">
        <ele>701.8</ele>
        <time>2022-08-23T06:54:09Z</time>
      </trkpt>
      <trkpt lat="42.771796" lon="-7.310225">
        <ele>696.5</ele>
        <time>2022-08-23T06:54:28Z</time>
      </trkpt>
      <trkpt lat="42.771976" lon="-7.310192">
        <ele>694.6</ele>
        <time>2022-08-23T06:54:48Z</time>
      </trkpt>
      <trkpt lat="42.772151" lon="-7.310099">
        <ele>695.6</ele>
        <time>2022-08-23T06:55:02Z</time>
      </trkpt>
      <trkpt lat="42.772339" lon="-7.310088">
        <ele>692.6</ele>
        <time>2022-08-23T06:55:24Z</time>
      </trkpt>
      <trkpt lat="42.772519" lon="-7.310029">
        <ele>690.6</ele>
        <time>2022-08-23T06:55:38Z</time>
      </trkpt>
      <trkpt lat="42.772688" lon="-7.309937">
        <ele>690.6</ele>
        <time>2022-08-23T06:55:51Z</time>
      </trkpt>
      <trkpt lat="42.772844" lon="-7.309801">
        <ele>689.6</ele>
        <time>2022-08-23T06:56:10Z</time>
      </trkpt>
      <trkpt lat="42.773012" lon="-7.309684">
        <ele>690.6</ele>
        <time>2022-08-23T06:56:26Z</time>
      </trkpt>
      <trkpt lat="42.772951" lon="-7.309929">
        <ele>679.6</ele>
        <time>2022-08-23T06:56:50Z</time>
      </trkpt>
      <trkpt lat="42.772826" lon="-7.310110">
        <ele>677.9</ele>
        <time>2022-08-23T06:57:15Z</time>
      </trkpt>
      <trkpt lat="42.772678" lon="-7.310252">
        <ele>670.7</ele>
        <time>2022-08-23T06:57:27Z</time>
      </trkpt>
      <trkpt lat="42.772505" lon="-7.310345">
        <ele>668.3</ele>
        <time>2022-08-23T06:57:43Z</time>
      </trkpt>
      <trkpt lat="42.772392" lon="-7.310548">
        <ele>666.6</ele>
        <time>2022-08-23T06:58:01Z</time>
      </trkpt>
      <trkpt lat="42.772234" lon="-7.310685">
        <ele>668.6</ele>
        <time>2022-08-23T06:58:16Z</time>
      </trkpt>
      <trkpt lat="42.772065" lon="-7.310789">
        <ele>667.6</ele>
        <time>2022-08-23T06:58:33Z</time>
      </trkpt>
      <trkpt lat="42.771883" lon="-7.310912">
        <ele>667.6</ele>
        <time>2022-08-23T06:58:51Z</time>
      </trkpt>
      <trkpt lat="42.771703" lon="-7.310949">
        <ele>668.3</ele>
        <time>2022-08-23T06:59:08Z</time>
      </trkpt>
      <trkpt lat="42.771538" lon="-7.311061">
        <ele>666.7</ele>
        <time>2022-08-23T06:59:22Z</time>
      </trkpt>
      <trkpt lat="42.771373" lon="-7.311180">
        <ele>668.6</ele>
        <time>2022-08-23T06:59:40Z</time>
      </trkpt>
      <trkpt lat="42.771251" lon="-7.311364">
        <ele>661.6</ele>
        <time>2022-08-23T06:59:57Z</time>
      </trkpt>
      <trkpt lat="42.771435" lon="-7.311355">
        <ele>660.6</ele>
        <time>2022-08-23T07:01:16Z</time>
      </trkpt>
      <trkpt lat="42.771599" lon="-7.311475">
        <ele>660.6</ele>
        <time>2022-08-23T07:01:32Z</time>
      </trkpt>
      <trkpt lat="42.771684" lon="-7.311690">
        <ele>656.7</ele>
        <time>2022-08-23T07:03:18Z</time>
      </trkpt>
      <trkpt lat="42.771628" lon="-7.311931">
        <ele>656.7</ele>
        <time>2022-08-23T07:03:34Z</time>
      </trkpt>
      <trkpt lat="42.771532" lon="-7.312154">
        <ele>657.7</ele>
        <time>2022-08-23T07:08:28Z</time>
      </trkpt>
      <trkpt lat="42.771386" lon="-7.312304">
        <ele>652.7</ele>
        <time>2022-08-23T07:08:44Z</time>
      </trkpt>
      <trkpt lat="42.771245" lon="-7.312464">
        <ele>654.6</ele>
        <time>2022-08-23T07:08:58Z</time>
      </trkpt>
      <trkpt lat="42.771119" lon="-7.312645">
        <ele>655.6</ele>
        <time>2022-08-23T07:09:13Z</time>
      </trkpt>
      <trkpt lat="42.771052" lon="-7.312876">
        <ele>659.6</ele>
        <time>2022-08-23T07:09:44Z</time>
      </trkpt>
      <trkpt lat="42.771045" lon="-7.313138">
        <ele>659.7</ele>
        <time>2022-08-23T07:10:12Z</time>
      </trkpt>
      <trkpt lat="42.771009" lon="-7.313393">
        <ele>660.6</ele>
        <time>2022-08-23T07:10:25Z</time>
      </trkpt>
      <trkpt lat="42.770938" lon="-7.313634">
        <ele>661.6</ele>
        <time>2022-08-23T07:10:38Z</time>
      </trkpt>
      <trkpt lat="42.770859" lon="-7.313868">
        <ele>660.7</ele>
        <time>2022-08-23T07:10:52Z</time>
      </trkpt>
      <trkpt lat="42.770897" lon="-7.314112">
        <ele>659.8</ele>
        <time>2022-08-23T07:12:04Z</time>
      </trkpt>
      <trkpt lat="42.770987" lon="-7.314340">
        <ele>658.6</ele>
        <time>2022-08-23T07:12:17Z</time>
      </trkpt>
      <trkpt lat="42.771130" lon="-7.314505">
        <ele>661.6</ele>
        <time>2022-08-23T07:12:32Z</time>
      </trkpt>
      <trkpt lat="42.771293" lon="-7.314638">
        <ele>662.6</ele>
        <time>2022-08-23T07:12:46Z</time>
      </trkpt>
      <trkpt lat="42.771407" lon="-7.314859">
        <ele>664.6</ele>
        <time>2022-08-23T07:13:00Z</time>
      </trkpt>
      <trkpt lat="42.771460" lon="-7.315103">
        <ele>662.6</ele>
        <time>2022-08-23T07:13:13Z</time>
      </trkpt>
      <trkpt lat="42.771419" lon="-7.315347">
        <ele>663.6</ele>
        <time>2022-08-23T07:13:31Z</time>
      </trkpt>
      <trkpt lat="42.771385" lon="-7.315598">
        <ele>667.3</ele>
        <time>2022-08-23T07:13:47Z</time>
      </trkpt>
      <trkpt lat="42.771263" lon="-7.315790">
        <ele>671.7</ele>
        <time>2022-08-23T07:13:59Z</time>
      </trkpt>
      <trkpt lat="42.771191" lon="-7.316023">
        <ele>672.6</ele>
        <time>2022-08-23T07:14:11Z</time>
      </trkpt>
      <trkpt lat="42.771236" lon="-7.316276">
        <ele>674.5</ele>
        <time>2022-08-23T07:14:25Z</time>
      </trkpt>
      <trkpt lat="42.771311" lon="-7.316511">
        <ele>673.6</ele>
        <time>2022-08-23T07:14:41Z</time>
      </trkpt>
      <trkpt lat="42.771356" lon="-7.316754">
        <ele>674.6</ele>
        <time>2022-08-23T07:14:57Z</time>
      </trkpt>
      <trkpt lat="42.771402" lon="-7.316999">
        <ele>675.7</ele>
        <time>2022-08-23T07:15:15Z</time>
      </trkpt>
      <trkpt lat="42.771473" lon="-7.317237">
        <ele>674.6</ele>
        <time>2022-08-23T07:15:32Z</time>
      </trkpt>
      <trkpt lat="42.771523" lon="-7.317486">
        <ele>672.6</ele>
        <time>2022-08-23T07:15:49Z</time>
      </trkpt>
      <trkpt lat="42.771616" lon="-7.317698">
        <ele>672.7</ele>
        <time>2022-08-23T07:16:04Z</time>
      </trkpt>
      <trkpt lat="42.771698" lon="-7.317926">
        <ele>671.6</ele>
        <time>2022-08-23T07:16:20Z</time>
      </trkpt>
      <trkpt lat="42.771789" lon="-7.318141">
        <ele>669.6</ele>
        <time>2022-08-23T07:16:37Z</time>
      </trkpt>
      <trkpt lat="42.771931" lon="-7.318308">
        <ele>666.6</ele>
        <time>2022-08-23T07:17:00Z</time>
      </trkpt>
      <trkpt lat="42.772122" lon="-7.318287">
        <ele>663.0</ele>
        <time>2022-08-23T07:17:16Z</time>
      </trkpt>
      <trkpt lat="42.772313" lon="-7.318313">
        <ele>661.6</ele>
        <time>2022-08-23T07:17:29Z</time>
      </trkpt>
      <trkpt lat="42.772458" lon="-7.318459">
        <ele>662.6</ele>
        <time>2022-08-23T07:17:42Z</time>
      </trkpt>
      <trkpt lat="42.772520" lon="-7.318693">
        <ele>664.6</ele>
        <time>2022-08-23T07:17:57Z</time>
      </trkpt>
      <trkpt lat="42.772566" lon="-7.318934">
        <ele>663.6</ele>
        <time>2022-08-23T07:18:13Z</time>
      </trkpt>
      <trkpt lat="42.772605" lon="-7.319184">
        <ele>661.6</ele>
        <time>2022-08-23T07:18:29Z</time>
      </trkpt>
      <trkpt lat="42.772603" lon="-7.319440">
        <ele>662.4</ele>
        <time>2022-08-23T07:18:45Z</time>
      </trkpt>
      <trkpt lat="42.772598" lon="-7.319686">
        <ele>663.6</ele>
        <time>2022-08-23T07:19:00Z</time>
      </trkpt>
      <trkpt lat="42.772559" lon="-7.319931">
        <ele>661.6</ele>
        <time>2022-08-23T07:19:16Z</time>
      </trkpt>
      <trkpt lat="42.772514" lon="-7.320170">
        <ele>661.6</ele>
        <time>2022-08-23T07:19:31Z</time>
      </trkpt>
      <trkpt lat="42.772479" lon="-7.320437">
        <ele>662.6</ele>
        <time>2022-08-23T07:19:47Z</time>
      </trkpt>
      <trkpt lat="42.772514" lon="-7.320698">
        <ele>663.6</ele>
        <time>2022-08-23T07:20:02Z</time>
      </trkpt>
      <trkpt lat="42.772589" lon="-7.320929">
        <ele>662.7</ele>
        <time>2022-08-23T07:20:17Z</time>
      </trkpt>
      <trkpt lat="42.772706" lon="-7.321123">
        <ele>662.7</ele>
        <time>2022-08-23T07:20:32Z</time>
      </trkpt>
      <trkpt lat="42.772697" lon="-7.321199">
        <ele>663.1</ele>
        <time>2022-08-23T08:03:17Z</time>
      </trkpt>
      <trkpt lat="42.772828" lon="-7.321383">
        <ele>663.1</ele>
        <time>2022-08-23T08:03:32Z</time>
      </trkpt>
      <trkpt lat="42.772893" lon="-7.321615">
        <ele>663.1</ele>
        <time>2022-08-23T08:03:49Z</time>
      </trkpt>
      <trkpt lat="42.772947" lon="-7.321852">
        <ele>663.1</ele>
        <time>2022-08-23T08:04:03Z</time>
      </trkpt>
      <trkpt lat="42.772979" lon="-7.322102">
        <ele>668.6</ele>
        <time>2022-08-23T08:04:17Z</time>
      </trkpt>
      <trkpt lat="42.773042" lon="-7.322349">
        <ele>666.6</ele>
        <time>2022-08-23T08:04:33Z</time>
      </trkpt>
      <trkpt lat="42.773123" lon="-7.322580">
        <ele>665.7</ele>
        <time>2022-08-23T08:04:48Z</time>
      </trkpt>
      <trkpt lat="42.773223" lon="-7.322793">
        <ele>667.6</ele>
        <time>2022-08-23T08:05:02Z</time>
      </trkpt>
      <trkpt lat="42.773314" lon="-7.323006">
        <ele>669.3</ele>
        <time>2022-08-23T08:05:17Z</time>
      </trkpt>
      <trkpt lat="42.773402" lon="-7.323224">
        <ele>668.6</ele>
        <time>2022-08-23T08:05:33Z</time>
      </trkpt>
      <trkpt lat="42.773484" lon="-7.323460">
        <ele>666.7</ele>
        <time>2022-08-23T08:05:49Z</time>
      </trkpt>
      <trkpt lat="42.773559" lon="-7.323694">
        <ele>665.6</ele>
        <time>2022-08-23T08:06:04Z</time>
      </trkpt>
      <trkpt lat="42.773625" lon="-7.323939">
        <ele>663.0</ele>
        <time>2022-08-23T08:06:19Z</time>
      </trkpt>
      <trkpt lat="42.773669" lon="-7.324184">
        <ele>663.9</ele>
        <time>2022-08-23T08:06:34Z</time>
      </trkpt>
      <trkpt lat="42.773716" lon="-7.324424">
        <ele>661.7</ele>
        <time>2022-08-23T08:06:50Z</time>
      </trkpt>
      <trkpt lat="42.773759" lon="-7.324672">
        <ele>664.5</ele>
        <time>2022-08-23T08:07:05Z</time>
      </trkpt>
      <trkpt lat="42.773806" lon="-7.324930">
        <ele>662.9</ele>
        <time>2022-08-23T08:07:21Z</time>
      </trkpt>
      <trkpt lat="42.773827" lon="-7.325181">
        <ele>661.8</ele>
        <time>2022-08-23T08:07:36Z</time>
      </trkpt>
      <trkpt lat="42.773833" lon="-7.325438">
        <ele>661.5</ele>
        <time>2022-08-23T08:07:51Z</time>
      </trkpt>
      <trkpt lat="42.773823" lon="-7.325694">
        <ele>662.3</ele>
        <time>2022-08-23T08:08:07Z</time>
      </trkpt>
      <trkpt lat="42.773799" lon="-7.325938">
        <ele>663.6</ele>
        <time>2022-08-23T08:08:21Z</time>
      </trkpt>
      <trkpt lat="42.773741" lon="-7.326175">
        <ele>665.6</ele>
        <time>2022-08-23T08:08:35Z</time>
      </trkpt>
      <trkpt lat="42.773676" lon="-7.326418">
        <ele>664.3</ele>
        <time>2022-08-23T08:08:51Z</time>
      </trkpt>
      <trkpt lat="42.773654" lon="-7.326668">
        <ele>663.6</ele>
        <time>2022-08-23T08:09:05Z</time>
      </trkpt>
      <trkpt lat="42.773510" lon="-7.326833">
        <ele>665.6</ele>
        <time>2022-08-23T08:09:21Z</time>
      </trkpt>
      <trkpt lat="42.773333" lon="-7.326921">
        <ele>667.6</ele>
        <time>2022-08-23T08:09:36Z</time>
      </trkpt>
      <trkpt lat="42.773162" lon="-7.327019">
        <ele>670.6</ele>
        <time>2022-08-23T08:09:51Z</time>
      </trkpt>
      <trkpt lat="42.772991" lon="-7.327106">
        <ele>672.3</ele>
        <time>2022-08-23T08:10:06Z</time>
      </trkpt>
      <trkpt lat="42.772808" lon="-7.327183">
        <ele>671.9</ele>
        <time>2022-08-23T08:10:22Z</time>
      </trkpt>
      <trkpt lat="42.772639" lon="-7.327319">
        <ele>672.3</ele>
        <time>2022-08-23T08:10:37Z</time>
      </trkpt>
      <trkpt lat="42.772578" lon="-7.327557">
        <ele>674.5</ele>
        <time>2022-08-23T08:10:52Z</time>
      </trkpt>
      <trkpt lat="42.772630" lon="-7.327799">
        <ele>676.8</ele>
        <time>2022-08-23T08:11:06Z</time>
      </trkpt>
      <trkpt lat="42.772743" lon="-7.328003">
        <ele>676.6</ele>
        <time>2022-08-23T08:11:20Z</time>
      </trkpt>
      <trkpt lat="42.772836" lon="-7.328214">
        <ele>677.7</ele>
        <time>2022-08-23T08:11:36Z</time>
      </trkpt>
      <trkpt lat="42.772914" lon="-7.328447">
        <ele>679.5</ele>
        <time>2022-08-23T08:11:51Z</time>
      </trkpt>
      <trkpt lat="42.772978" lon="-7.328676">
        <ele>678.7</ele>
        <time>2022-08-23T08:12:27Z</time>
      </trkpt>
      <trkpt lat="42.773057" lon="-7.328916">
        <ele>676.3</ele>
        <time>2022-08-23T08:12:40Z</time>
      </trkpt>
      <trkpt lat="42.773181" lon="-7.329104">
        <ele>676.7</ele>
        <time>2022-08-23T08:12:53Z</time>
      </trkpt>
      <trkpt lat="42.773226" lon="-7.329360">
        <ele>676.5</ele>
        <time>2022-08-23T08:13:05Z</time>
      </trkpt>
      <trkpt lat="42.773204" lon="-7.329621">
        <ele>677.6</ele>
        <time>2022-08-23T08:13:19Z</time>
      </trkpt>
      <trkpt lat="42.773202" lon="-7.329869">
        <ele>677.7</ele>
        <time>2022-08-23T08:13:32Z</time>
      </trkpt>
      <trkpt lat="42.773177" lon="-7.330122">
        <ele>675.6</ele>
        <time>2022-08-23T08:13:45Z</time>
      </trkpt>
      <trkpt lat="42.773170" lon="-7.330367">
        <ele>673.6</ele>
        <time>2022-08-23T08:13:58Z</time>
      </trkpt>
      <trkpt lat="42.773191" lon="-7.330632">
        <ele>674.6</ele>
        <time>2022-08-23T08:14:11Z</time>
      </trkpt>
      <trkpt lat="42.773182" lon="-7.330878">
        <ele>672.7</ele>
        <time>2022-08-23T08:14:26Z</time>
      </trkpt>
      <trkpt lat="42.773148" lon="-7.331122">
        <ele>673.6</ele>
        <time>2022-08-23T08:14:40Z</time>
      </trkpt>
      <trkpt lat="42.773123" lon="-7.331373">
        <ele>675.6</ele>
        <time>2022-08-23T08:14:55Z</time>
      </trkpt>
      <trkpt lat="42.773082" lon="-7.331612">
        <ele>674.6</ele>
        <time>2022-08-23T08:15:09Z</time>
      </trkpt>
      <trkpt lat="42.773037" lon="-7.331850">
        <ele>674.6</ele>
        <time>2022-08-23T08:15:23Z</time>
      </trkpt>
      <trkpt lat="42.773003" lon="-7.332098">
        <ele>674.5</ele>
        <time>2022-08-23T08:15:39Z</time>
      </trkpt>
      <trkpt lat="42.772957" lon="-7.332338">
        <ele>672.9</ele>
        <time>2022-08-23T08:15:53Z</time>
      </trkpt>
      <trkpt lat="42.772916" lon="-7.332578">
        <ele>671.7</ele>
        <time>2022-08-23T08:16:07Z</time>
      </trkpt>
      <trkpt lat="42.772872" lon="-7.332822">
        <ele>670.7</ele>
        <time>2022-08-23T08:16:21Z</time>
      </trkpt>
      <trkpt lat="42.772826" lon="-7.333079">
        <ele>670.6</ele>
        <time>2022-08-23T08:16:36Z</time>
      </trkpt>
      <trkpt lat="42.772783" lon="-7.333348">
        <ele>669.6</ele>
        <time>2022-08-23T08:16:51Z</time>
      </trkpt>
      <trkpt lat="42.772761" lon="-7.333602">
        <ele>667.9</ele>
        <time>2022-08-23T08:17:05Z</time>
      </trkpt>
      <trkpt lat="42.772768" lon="-7.333861">
        <ele>667.6</ele>
        <time>2022-08-23T08:17:22Z</time>
      </trkpt>
      <trkpt lat="42.772774" lon="-7.334115">
        <ele>668.3</ele>
        <time>2022-08-23T08:17:37Z</time>
      </trkpt>
      <trkpt lat="42.772788" lon="-7.334362">
        <ele>664.9</ele>
        <time>2022-08-23T08:17:52Z</time>
      </trkpt>
      <trkpt lat="42.772832" lon="-7.334618">
        <ele>664.6</ele>
        <time>2022-08-23T08:18:07Z</time>
      </trkpt>
      <trkpt lat="42.772875" lon="-7.334871">
        <ele>664.6</ele>
        <time>2022-08-23T08:18:22Z</time>
      </trkpt>
      <trkpt lat="42.772903" lon="-7.335115">
        <ele>663.6</ele>
        <time>2022-08-23T08:18:35Z</time>
      </trkpt>
      <trkpt lat="42.772945" lon="-7.335356">
        <ele>663.6</ele>
        <time>2022-08-23T08:18:50Z</time>
      </trkpt>
      <trkpt lat="42.773006" lon="-7.335595">
        <ele>661.6</ele>
        <time>2022-08-23T08:19:04Z</time>
      </trkpt>
      <trkpt lat="42.773076" lon="-7.335823">
        <ele>660.6</ele>
        <time>2022-08-23T08:19:18Z</time>
      </trkpt>
      <trkpt lat="42.773163" lon="-7.336040">
        <ele>659.9</ele>
        <time>2022-08-23T08:19:31Z</time>
      </trkpt>
      <trkpt lat="42.773247" lon="-7.336262">
        <ele>657.3</ele>
        <time>2022-08-23T08:19:46Z</time>
      </trkpt>
      <trkpt lat="42.773329" lon="-7.336495">
        <ele>656.6</ele>
        <time>2022-08-23T08:20:00Z</time>
      </trkpt>
      <trkpt lat="42.773425" lon="-7.336712">
        <ele>654.6</ele>
        <time>2022-08-23T08:20:16Z</time>
      </trkpt>
      <trkpt lat="42.773527" lon="-7.336933">
        <ele>654.6</ele>
        <time>2022-08-23T08:20:31Z</time>
      </trkpt>
      <trkpt lat="42.773638" lon="-7.337145">
        <ele>648.9</ele>
        <time>2022-08-23T08:20:45Z</time>
      </trkpt>
      <trkpt lat="42.773731" lon="-7.337373">
        <ele>648.7</ele>
        <time>2022-08-23T08:20:59Z</time>
      </trkpt>
      <trkpt lat="42.773830" lon="-7.337597">
        <ele>647.6</ele>
        <time>2022-08-23T08:21:13Z</time>
      </trkpt>
      <trkpt lat="42.773913" lon="-7.337827">
        <ele>645.6</ele>
        <time>2022-08-23T08:21:28Z</time>
      </trkpt>
      <trkpt lat="42.774001" lon="-7.338050">
        <ele>643.7</ele>
        <time>2022-08-23T08:21:41Z</time>
      </trkpt>
      <trkpt lat="42.774028" lon="-7.338302">
        <ele>637.7</ele>
        <time>2022-08-23T08:21:57Z</time>
      </trkpt>
      <trkpt lat="42.774015" lon="-7.338550">
        <ele>623.9</ele>
        <time>2022-08-23T08:23:16Z</time>
      </trkpt>
      <trkpt lat="42.773957" lon="-7.338784">
        <ele>630.0</ele>
        <time>2022-08-23T08:23:36Z</time>
      </trkpt>
      <trkpt lat="42.773892" lon="-7.339002">
        <ele>630.0</ele>
        <time>2022-08-23T08:23:51Z</time>
      </trkpt>
      <trkpt lat="42.773853" lon="-7.339239">
        <ele>630.0</ele>
        <time>2022-08-23T08:24:12Z</time>
      </trkpt>
      <trkpt lat="42.773964" lon="-7.339434">
        <ele>628.9</ele>
        <time>2022-08-23T08:24:25Z</time>
      </trkpt>
      <trkpt lat="42.774050" lon="-7.339665">
        <ele>628.9</ele>
        <time>2022-08-23T08:24:40Z</time>
      </trkpt>
      <trkpt lat="42.774178" lon="-7.339850">
        <ele>624.1</ele>
        <time>2022-08-23T08:24:56Z</time>
      </trkpt>
      <trkpt lat="42.774349" lon="-7.339969">
        <ele>621.6</ele>
        <time>2022-08-23T08:25:12Z</time>
      </trkpt>
      <trkpt lat="42.774454" lon="-7.340176">
        <ele>622.5</ele>
        <time>2022-08-23T08:25:30Z</time>
      </trkpt>
      <trkpt lat="42.774505" lon="-7.340419">
        <ele>620.7</ele>
        <time>2022-08-23T08:25:45Z</time>
      </trkpt>
      <trkpt lat="42.774542" lon="-7.340664">
        <ele>620.7</ele>
        <time>2022-08-23T08:26:00Z</time>
      </trkpt>
      <trkpt lat="42.774647" lon="-7.340867">
        <ele>621.6</ele>
        <time>2022-08-23T08:28:33Z</time>
      </trkpt>
      <trkpt lat="42.774718" lon="-7.341094">
        <ele>619.5</ele>
        <time>2022-08-23T08:29:02Z</time>
      </trkpt>
      <trkpt lat="42.774791" lon="-7.341323">
        <ele>619.6</ele>
        <time>2022-08-23T08:29:24Z</time>
      </trkpt>
      <trkpt lat="42.774846" lon="-7.341572">
        <ele>618.6</ele>
        <time>2022-08-23T08:29:42Z</time>
      </trkpt>
      <trkpt lat="42.774840" lon="-7.341817">
        <ele>617.9</ele>
        <time>2022-08-23T08:29:58Z</time>
      </trkpt>
      <trkpt lat="42.774825" lon="-7.342069">
        <ele>620.6</ele>
        <time>2022-08-23T08:30:16Z</time>
      </trkpt>
      <trkpt lat="42.774816" lon="-7.342314">
        <ele>619.3</ele>
        <time>2022-08-23T08:30:31Z</time>
      </trkpt>
      <trkpt lat="42.774789" lon="-7.342570">
        <ele>620.6</ele>
        <time>2022-08-23T08:30:48Z</time>
      </trkpt>
      <trkpt lat="42.774711" lon="-7.342796">
        <ele>621.9</ele>
        <time>2022-08-23T08:31:03Z</time>
      </trkpt>
      <trkpt lat="42.774646" lon="-7.343026">
        <ele>619.7</ele>
        <time>2022-08-23T08:31:19Z</time>
      </trkpt>
      <trkpt lat="42.774613" lon="-7.343280">
        <ele>621.6</ele>
        <time>2022-08-23T08:31:36Z</time>
      </trkpt>
      <trkpt lat="42.774575" lon="-7.343522">
        <ele>619.6</ele>
        <time>2022-08-23T08:31:51Z</time>
      </trkpt>
      <trkpt lat="42.774532" lon="-7.343772">
        <ele>616.6</ele>
        <time>2022-08-23T08:32:07Z</time>
      </trkpt>
      <trkpt lat="42.774484" lon="-7.344027">
        <ele>614.6</ele>
        <time>2022-08-23T08:32:23Z</time>
      </trkpt>
      <trkpt lat="42.774444" lon="-7.344285">
        <ele>614.6</ele>
        <time>2022-08-23T08:32:39Z</time>
      </trkpt>
      <trkpt lat="42.774414" lon="-7.344529">
        <ele>614.6</ele>
        <time>2022-08-23T08:32:54Z</time>
      </trkpt>
      <trkpt lat="42.774381" lon="-7.344787">
        <ele>613.7</ele>
        <time>2022-08-23T08:33:09Z</time>
      </trkpt>
      <trkpt lat="42.774334" lon="-7.345026">
        <ele>612.3</ele>
        <time>2022-08-23T08:33:24Z</time>
      </trkpt>
      <trkpt lat="42.774271" lon="-7.345256">
        <ele>612.5</ele>
        <time>2022-08-23T08:33:39Z</time>
      </trkpt>
      <trkpt lat="42.774190" lon="-7.345482">
        <ele>612.5</ele>
        <time>2022-08-23T08:33:56Z</time>
      </trkpt>
      <trkpt lat="42.774132" lon="-7.345726">
        <ele>610.9</ele>
        <time>2022-08-23T08:34:10Z</time>
      </trkpt>
      <trkpt lat="42.774066" lon="-7.345967">
        <ele>609.6</ele>
        <time>2022-08-23T08:34:26Z</time>
      </trkpt>
      <trkpt lat="42.774007" lon="-7.346210">
        <ele>608.6</ele>
        <time>2022-08-23T08:34:42Z</time>
      </trkpt>
      <trkpt lat="42.773986" lon="-7.346462">
        <ele>605.6</ele>
        <time>2022-08-23T08:34:58Z</time>
      </trkpt>
      <trkpt lat="42.773978" lon="-7.346719">
        <ele>602.6</ele>
        <time>2022-08-23T08:35:14Z</time>
      </trkpt>
      <trkpt lat="42.773986" lon="-7.346976">
        <ele>602.7</ele>
        <time>2022-08-23T08:35:29Z</time>
      </trkpt>
      <trkpt lat="42.773988" lon="-7.347224">
        <ele>600.6</ele>
        <time>2022-08-23T08:35:44Z</time>
      </trkpt>
      <trkpt lat="42.773993" lon="-7.347479">
        <ele>599.6</ele>
        <time>2022-08-23T08:35:59Z</time>
      </trkpt>
      <trkpt lat="42.773996" lon="-7.347737">
        <ele>598.7</ele>
        <time>2022-08-23T08:36:15Z</time>
      </trkpt>
      <trkpt lat="42.773980" lon="-7.347990">
        <ele>595.6</ele>
        <time>2022-08-23T08:36:32Z</time>
      </trkpt>
      <trkpt lat="42.773958" lon="-7.348239">
        <ele>590.9</ele>
        <time>2022-08-23T08:36:49Z</time>
      </trkpt>
      <trkpt lat="42.773936" lon="-7.348493">
        <ele>589.6</ele>
        <time>2022-08-23T08:37:02Z</time>
      </trkpt>
      <trkpt lat="42.773963" lon="-7.348743">
        <ele>586.0</ele>
        <time>2022-08-23T08:37:24Z</time>
      </trkpt>
      <trkpt lat="42.773976" lon="-7.348997">
        <ele>584.6</ele>
        <time>2022-08-23T08:37:42Z</time>
      </trkpt>
      <trkpt lat="42.773918" lon="-7.349245">
        <ele>580.6</ele>
        <time>2022-08-23T08:38:00Z</time>
      </trkpt>
      <trkpt lat="42.773853" lon="-7.349476">
        <ele>579.6</ele>
        <time>2022-08-23T08:38:14Z</time>
      </trkpt>
      <trkpt lat="42.773801" lon="-7.349715">
        <ele>576.6</ele>
        <time>2022-08-23T08:38:31Z</time>
      </trkpt>
      <trkpt lat="42.773796" lon="-7.349971">
        <ele>574.6</ele>
        <time>2022-08-23T08:38:48Z</time>
      </trkpt>
      <trkpt lat="42.773816" lon="-7.350232">
        <ele>569.6</ele>
        <time>2022-08-23T08:39:04Z</time>
      </trkpt>
      <trkpt lat="42.773847" lon="-7.350480">
        <ele>563.9</ele>
        <time>2022-08-23T08:39:23Z</time>
      </trkpt>
      <trkpt lat="42.773843" lon="-7.350736">
        <ele>562.6</ele>
        <time>2022-08-23T08:39:42Z</time>
      </trkpt>
      <trkpt lat="42.773813" lon="-7.350979">
        <ele>561.0</ele>
        <time>2022-08-23T08:39:58Z</time>
      </trkpt>
      <trkpt lat="42.773794" lon="-7.351224">
        <ele>557.6</ele>
        <time>2022-08-23T08:40:14Z</time>
      </trkpt>
      <trkpt lat="42.773736" lon="-7.351459">
        <ele>556.6</ele>
        <time>2022-08-23T08:40:35Z</time>
      </trkpt>
      <trkpt lat="42.773673" lon="-7.351693">
        <ele>557.9</ele>
        <time>2022-08-23T08:41:24Z</time>
      </trkpt>
      <trkpt lat="42.773563" lon="-7.351907">
        <ele>553.7</ele>
        <time>2022-08-23T08:41:41Z</time>
      </trkpt>
      <trkpt lat="42.773641" lon="-7.352141">
        <ele>544.6</ele>
        <time>2022-08-23T08:42:04Z</time>
      </trkpt>
      <trkpt lat="42.773732" lon="-7.352353">
        <ele>543.9</ele>
        <time>2022-08-23T08:42:17Z</time>
      </trkpt>
      <trkpt lat="42.773628" lon="-7.352557">
        <ele>542.6</ele>
        <time>2022-08-23T08:42:30Z</time>
      </trkpt>
      <trkpt lat="42.773531" lon="-7.352772">
        <ele>542.6</ele>
        <time>2022-08-23T08:42:45Z</time>
      </trkpt>
      <trkpt lat="42.773472" lon="-7.353005">
        <ele>540.0</ele>
        <time>2022-08-23T08:43:00Z</time>
      </trkpt>
      <trkpt lat="42.773397" lon="-7.353230">
        <ele>534.7</ele>
        <time>2022-08-23T08:44:12Z</time>
      </trkpt>
      <trkpt lat="42.773350" lon="-7.353469">
        <ele>533.5</ele>
        <time>2022-08-23T08:44:30Z</time>
      </trkpt>
      <trkpt lat="42.773345" lon="-7.353719">
        <ele>530.9</ele>
        <time>2022-08-23T08:44:48Z</time>
      </trkpt>
      <trkpt lat="42.773317" lon="-7.353964">
        <ele>529.6</ele>
        <time>2022-08-23T08:45:02Z</time>
      </trkpt>
      <trkpt lat="42.773467" lon="-7.354101">
        <ele>528.6</ele>
        <time>2022-08-23T08:46:52Z</time>
      </trkpt>
      <trkpt lat="42.773532" lon="-7.354342">
        <ele>525.6</ele>
        <time>2022-08-23T08:47:05Z</time>
      </trkpt>
      <trkpt lat="42.773615" lon="-7.354574">
        <ele>521.7</ele>
        <time>2022-08-23T08:47:22Z</time>
      </trkpt>
      <trkpt lat="42.773694" lon="-7.354807">
        <ele>519.9</ele>
        <time>2022-08-23T08:47:35Z</time>
      </trkpt>
      <trkpt lat="42.773703" lon="-7.355062">
        <ele>519.6</ele>
        <time>2022-08-23T08:47:48Z</time>
      </trkpt>
      <trkpt lat="42.773787" lon="-7.355282">
        <ele>519.6</ele>
        <time>2022-08-23T08:48:00Z</time>
      </trkpt>
      <trkpt lat="42.773837" lon="-7.355519">
        <ele>517.9</ele>
        <time>2022-08-23T08:48:13Z</time>
      </trkpt>
      <trkpt lat="42.773833" lon="-7.355782">
        <ele>515.7</ele>
        <time>2022-08-23T08:48:26Z</time>
      </trkpt>
      <trkpt lat="42.773816" lon="-7.356040">
        <ele>512.9</ele>
        <time>2022-08-23T08:48:39Z</time>
      </trkpt>
      <trkpt lat="42.773825" lon="-7.356285">
        <ele>513.7</ele>
        <time>2022-08-23T08:48:53Z</time>
      </trkpt>
      <trkpt lat="42.773801" lon="-7.356532">
        <ele>509.7</ele>
        <time>2022-08-23T08:49:08Z</time>
      </trkpt>
      <trkpt lat="42.773780" lon="-7.356792">
        <ele>507.6</ele>
        <time>2022-08-23T08:49:21Z</time>
      </trkpt>
      <trkpt lat="42.773759" lon="-7.357037">
        <ele>506.6</ele>
        <time>2022-08-23T08:49:33Z</time>
      </trkpt>
      <trkpt lat="42.773793" lon="-7.357281">
        <ele>506.9</ele>
        <time>2022-08-23T08:49:55Z</time>
      </trkpt>
      <trkpt lat="42.773759" lon="-7.357527">
        <ele>507.6</ele>
        <time>2022-08-23T08:50:08Z</time>
      </trkpt>
      <trkpt lat="42.773760" lon="-7.357778">
        <ele>506.3</ele>
        <time>2022-08-23T08:50:21Z</time>
      </trkpt>
      <trkpt lat="42.773729" lon="-7.358033">
        <ele>505.6</ele>
        <time>2022-08-23T08:50:33Z</time>
      </trkpt>
      <trkpt lat="42.773693" lon="-7.358279">
        <ele>505.4</ele>
        <time>2022-08-23T08:50:46Z</time>
      </trkpt>
      <trkpt lat="42.773662" lon="-7.358522">
        <ele>503.6</ele>
        <time>2022-08-23T08:50:58Z</time>
      </trkpt>
      <trkpt lat="42.773615" lon="-7.358764">
        <ele>504.6</ele>
        <time>2022-08-23T08:51:11Z</time>
      </trkpt>
      <trkpt lat="42.773694" lon="-7.358992">
        <ele>503.6</ele>
        <time>2022-08-23T08:51:24Z</time>
      </trkpt>
      <trkpt lat="42.773716" lon="-7.359241">
        <ele>504.3</ele>
        <time>2022-08-23T08:51:37Z</time>
      </trkpt>
      <trkpt lat="42.773750" lon="-7.359498">
        <ele>500.6</ele>
        <time>2022-08-23T08:51:50Z</time>
      </trkpt>
      <trkpt lat="42.773791" lon="-7.359753">
        <ele>498.7</ele>
        <time>2022-08-23T08:52:05Z</time>
      </trkpt>
      <trkpt lat="42.773816" lon="-7.360011">
        <ele>497.5</ele>
        <time>2022-08-23T08:52:18Z</time>
      </trkpt>
      <trkpt lat="42.773828" lon="-7.360272">
        <ele>497.6</ele>
        <time>2022-08-23T08:52:31Z</time>
      </trkpt>
      <trkpt lat="42.773820" lon="-7.360532">
        <ele>498.6</ele>
        <time>2022-08-23T08:52:44Z</time>
      </trkpt>
      <trkpt lat="42.773789" lon="-7.360777">
        <ele>500.6</ele>
        <time>2022-08-23T08:52:57Z</time>
      </trkpt>
      <trkpt lat="42.773754" lon="-7.361031">
        <ele>502.6</ele>
        <time>2022-08-23T08:53:12Z</time>
      </trkpt>
      <trkpt lat="42.773699" lon="-7.361302">
        <ele>497.6</ele>
        <time>2022-08-23T08:53:33Z</time>
      </trkpt>
      <trkpt lat="42.773629" lon="-7.361538">
        <ele>496.7</ele>
        <time>2022-08-23T08:53:47Z</time>
      </trkpt>
      <trkpt lat="42.773604" lon="-7.361790">
        <ele>500.1</ele>
        <time>2022-08-23T08:54:02Z</time>
      </trkpt>
      <trkpt lat="42.773603" lon="-7.362035">
        <ele>500.1</ele>
        <time>2022-08-23T08:54:15Z</time>
      </trkpt>
      <trkpt lat="42.773591" lon="-7.362285">
        <ele>500.1</ele>
        <time>2022-08-23T08:54:30Z</time>
      </trkpt>
      <trkpt lat="42.773597" lon="-7.362537">
        <ele>500.1</ele>
        <time>2022-08-23T08:54:45Z</time>
      </trkpt>
      <trkpt lat="42.773508" lon="-7.362751">
        <ele>495.6</ele>
        <time>2022-08-23T08:54:59Z</time>
      </trkpt>
      <trkpt lat="42.773423" lon="-7.362970">
        <ele>494.7</ele>
        <time>2022-08-23T08:55:12Z</time>
      </trkpt>
      <trkpt lat="42.773370" lon="-7.363218">
        <ele>489.6</ele>
        <time>2022-08-23T08:55:28Z</time>
      </trkpt>
      <trkpt lat="42.773317" lon="-7.363461">
        <ele>489.6</ele>
        <time>2022-08-23T08:55:42Z</time>
      </trkpt>
      <trkpt lat="42.773267" lon="-7.363705">
        <ele>488.6</ele>
        <time>2022-08-23T08:55:55Z</time>
      </trkpt>
      <trkpt lat="42.773231" lon="-7.363953">
        <ele>494.5</ele>
        <time>2022-08-23T08:56:11Z</time>
      </trkpt>
      <trkpt lat="42.773189" lon="-7.364204">
        <ele>494.7</ele>
        <time>2022-08-23T08:56:24Z</time>
      </trkpt>
      <trkpt lat="42.773151" lon="-7.364448">
        <ele>486.7</ele>
        <time>2022-08-23T08:56:37Z</time>
      </trkpt>
      <trkpt lat="42.773195" lon="-7.364689">
        <ele>485.6</ele>
        <time>2022-08-23T08:56:52Z</time>
      </trkpt>
      <trkpt lat="42.773250" lon="-7.364931">
        <ele>483.6</ele>
        <time>2022-08-23T08:57:05Z</time>
      </trkpt>
      <trkpt lat="42.773315" lon="-7.365162">
        <ele>483.6</ele>
        <time>2022-08-23T08:57:22Z</time>
      </trkpt>
      <trkpt lat="42.773399" lon="-7.365381">
        <ele>483.7</ele>
        <time>2022-08-23T08:57:54Z</time>
      </trkpt>
      <trkpt lat="42.773400" lon="-7.365634">
        <ele>488.1</ele>
        <time>2022-08-23T08:58:06Z</time>
      </trkpt>
      <trkpt lat="42.773373" lon="-7.365882">
        <ele>489.0</ele>
        <time>2022-08-23T08:58:22Z</time>
      </trkpt>
      <trkpt lat="42.773360" lon="-7.366135">
        <ele>486.2</ele>
        <time>2022-08-23T08:58:39Z</time>
      </trkpt>
      <trkpt lat="42.773326" lon="-7.366393">
        <ele>486.2</ele>
        <time>2022-08-23T08:58:54Z</time>
      </trkpt>
      <trkpt lat="42.773250" lon="-7.366625">
        <ele>486.1</ele>
        <time>2022-08-23T08:59:07Z</time>
      </trkpt>
      <trkpt lat="42.773202" lon="-7.366875">
        <ele>486.2</ele>
        <time>2022-08-23T08:59:20Z</time>
      </trkpt>
      <trkpt lat="42.773183" lon="-7.367137">
        <ele>486.2</ele>
        <time>2022-08-23T08:59:35Z</time>
      </trkpt>
      <trkpt lat="42.773161" lon="-7.367394">
        <ele>486.2</ele>
        <time>2022-08-23T08:59:49Z</time>
      </trkpt>
      <trkpt lat="42.773172" lon="-7.367660">
        <ele>486.2</ele>
        <time>2022-08-23T09:00:02Z</time>
      </trkpt>
      <trkpt lat="42.773175" lon="-7.367913">
        <ele>475.9</ele>
        <time>2022-08-23T09:00:16Z</time>
      </trkpt>
      <trkpt lat="42.773156" lon="-7.368178">
        <ele>477.5</ele>
        <time>2022-08-23T09:00:30Z</time>
      </trkpt>
      <trkpt lat="42.773154" lon="-7.368425">
        <ele>476.8</ele>
        <time>2022-08-23T09:00:44Z</time>
      </trkpt>
      <trkpt lat="42.773154" lon="-7.368677">
        <ele>476.6</ele>
        <time>2022-08-23T09:00:56Z</time>
      </trkpt>
      <trkpt lat="42.773171" lon="-7.368949">
        <ele>476.6</ele>
        <time>2022-08-23T09:01:10Z</time>
      </trkpt>
      <trkpt lat="42.773227" lon="-7.369216">
        <ele>473.7</ele>
        <time>2022-08-23T09:01:25Z</time>
      </trkpt>
      <trkpt lat="42.773224" lon="-7.369470">
        <ele>472.7</ele>
        <time>2022-08-23T09:01:39Z</time>
      </trkpt>
      <trkpt lat="42.773231" lon="-7.369727">
        <ele>473.6</ele>
        <time>2022-08-23T09:01:51Z</time>
      </trkpt>
      <trkpt lat="42.773232" lon="-7.369986">
        <ele>474.6</ele>
        <time>2022-08-23T09:02:05Z</time>
      </trkpt>
      <trkpt lat="42.773232" lon="-7.370240">
        <ele>473.6</ele>
        <time>2022-08-23T09:02:19Z</time>
      </trkpt>
      <trkpt lat="42.773236" lon="-7.370493">
        <ele>472.9</ele>
        <time>2022-08-23T09:02:33Z</time>
      </trkpt>
      <trkpt lat="42.773278" lon="-7.370745">
        <ele>473.6</ele>
        <time>2022-08-23T09:02:47Z</time>
      </trkpt>
      <trkpt lat="42.773275" lon="-7.370992">
        <ele>473.8</ele>
        <time>2022-08-23T09:03:00Z</time>
      </trkpt>
      <trkpt lat="42.773322" lon="-7.371238">
        <ele>474.5</ele>
        <time>2022-08-23T09:03:16Z</time>
      </trkpt>
      <trkpt lat="42.773332" lon="-7.371494">
        <ele>476.4</ele>
        <time>2022-08-23T09:03:31Z</time>
      </trkpt>
      <trkpt lat="42.773334" lon="-7.371746">
        <ele>479.6</ele>
        <time>2022-08-23T09:03:45Z</time>
      </trkpt>
      <trkpt lat="42.773368" lon="-7.371991">
        <ele>478.9</ele>
        <time>2022-08-23T09:05:16Z</time>
      </trkpt>
      <trkpt lat="42.773419" lon="-7.372246">
        <ele>478.6</ele>
        <time>2022-08-23T09:05:29Z</time>
      </trkpt>
      <trkpt lat="42.773486" lon="-7.372482">
        <ele>478.6</ele>
        <time>2022-08-23T09:05:41Z</time>
      </trkpt>
      <trkpt lat="42.773538" lon="-7.372738">
        <ele>478.6</ele>
        <time>2022-08-23T09:05:54Z</time>
      </trkpt>
      <trkpt lat="42.773583" lon="-7.372982">
        <ele>479.5</ele>
        <time>2022-08-23T09:06:06Z</time>
      </trkpt>
      <trkpt lat="42.773612" lon="-7.373230">
        <ele>479.5</ele>
        <time>2022-08-23T09:06:18Z</time>
      </trkpt>
      <trkpt lat="42.773601" lon="-7.373486">
        <ele>478.6</ele>
        <time>2022-08-23T09:06:31Z</time>
      </trkpt>
      <trkpt lat="42.773551" lon="-7.373734">
        <ele>476.3</ele>
        <time>2022-08-23T09:06:44Z</time>
      </trkpt>
      <trkpt lat="42.773521" lon="-7.373983">
        <ele>478.3</ele>
        <time>2022-08-23T09:06:56Z</time>
      </trkpt>
      <trkpt lat="42.773517" lon="-7.374250">
        <ele>478.5</ele>
        <time>2022-08-23T09:07:10Z</time>
      </trkpt>
      <trkpt lat="42.773560" lon="-7.374499">
        <ele>478.8</ele>
        <time>2022-08-23T09:07:22Z</time>
      </trkpt>
      <trkpt lat="42.773632" lon="-7.374729">
        <ele>477.9</ele>
        <time>2022-08-23T09:07:35Z</time>
      </trkpt>
      <trkpt lat="42.773710" lon="-7.374959">
        <ele>478.6</ele>
        <time>2022-08-23T09:07:47Z</time>
      </trkpt>
      <trkpt lat="42.773789" lon="-7.375181">
        <ele>479.7</ele>
        <time>2022-08-23T09:08:01Z</time>
      </trkpt>
      <trkpt lat="42.773858" lon="-7.375418">
        <ele>479.6</ele>
        <time>2022-08-23T09:08:15Z</time>
      </trkpt>
      <trkpt lat="42.773931" lon="-7.375653">
        <ele>477.6</ele>
        <time>2022-08-23T09:08:28Z</time>
      </trkpt>
      <trkpt lat="42.773948" lon="-7.375904">
        <ele>477.6</ele>
        <time>2022-08-23T09:08:41Z</time>
      </trkpt>
      <trkpt lat="42.773973" lon="-7.376162">
        <ele>478.3</ele>
        <time>2022-08-23T09:08:53Z</time>
      </trkpt>
      <trkpt lat="42.773997" lon="-7.376405">
        <ele>478.6</ele>
        <time>2022-08-23T09:09:06Z</time>
      </trkpt>
      <trkpt lat="42.774005" lon="-7.376664">
        <ele>479.4</ele>
        <time>2022-08-23T09:09:21Z</time>
      </trkpt>
      <trkpt lat="42.774068" lon="-7.376908">
        <ele>479.6</ele>
        <time>2022-08-23T09:09:34Z</time>
      </trkpt>
      <trkpt lat="42.774111" lon="-7.377150">
        <ele>480.5</ele>
        <time>2022-08-23T09:09:47Z</time>
      </trkpt>
      <trkpt lat="42.774138" lon="-7.377402">
        <ele>481.6</ele>
        <time>2022-08-23T09:10:01Z</time>
      </trkpt>
      <trkpt lat="42.774139" lon="-7.377649">
        <ele>479.9</ele>
        <time>2022-08-23T09:10:15Z</time>
      </trkpt>
      <trkpt lat="42.774192" lon="-7.377895">
        <ele>480.3</ele>
        <time>2022-08-23T09:10:30Z</time>
      </trkpt>
      <trkpt lat="42.774280" lon="-7.378114">
        <ele>479.6</ele>
        <time>2022-08-23T09:10:42Z</time>
      </trkpt>
      <trkpt lat="42.774378" lon="-7.378326">
        <ele>477.6</ele>
        <time>2022-08-23T09:10:55Z</time>
      </trkpt>
      <trkpt lat="42.774492" lon="-7.378531">
        <ele>472.9</ele>
        <time>2022-08-23T09:11:11Z</time>
      </trkpt>
      <trkpt lat="42.774542" lon="-7.378783">
        <ele>468.9</ele>
        <time>2022-08-23T09:11:25Z</time>
      </trkpt>
      <trkpt lat="42.774615" lon="-7.379025">
        <ele>468.8</ele>
        <time>2022-08-23T09:11:42Z</time>
      </trkpt>
      <trkpt lat="42.774714" lon="-7.379232">
        <ele>465.9</ele>
        <time>2022-08-23T09:11:57Z</time>
      </trkpt>
      <trkpt lat="42.774779" lon="-7.379471">
        <ele>466.6</ele>
        <time>2022-08-23T09:12:12Z</time>
      </trkpt>
      <trkpt lat="42.774875" lon="-7.379680">
        <ele>464.6</ele>
        <time>2022-08-23T09:12:24Z</time>
      </trkpt>
      <trkpt lat="42.774985" lon="-7.379903">
        <ele>463.5</ele>
        <time>2022-08-23T09:12:37Z</time>
      </trkpt>
      <trkpt lat="42.775027" lon="-7.380143">
        <ele>462.6</ele>
        <time>2022-08-23T09:12:51Z</time>
      </trkpt>
      <trkpt lat="42.775094" lon="-7.380377">
        <ele>462.6</ele>
        <time>2022-08-23T09:13:05Z</time>
      </trkpt>
      <trkpt lat="42.775153" lon="-7.380612">
        <ele>460.6</ele>
        <time>2022-08-23T09:13:19Z</time>
      </trkpt>
      <trkpt lat="42.775202" lon="-7.380867">
        <ele>459.6</ele>
        <time>2022-08-23T09:13:35Z</time>
      </trkpt>
      <trkpt lat="42.775256" lon="-7.381104">
        <ele>459.6</ele>
        <time>2022-08-23T09:13:48Z</time>
      </trkpt>
      <trkpt lat="42.775308" lon="-7.381340">
        <ele>458.9</ele>
        <time>2022-08-23T09:14:01Z</time>
      </trkpt>
      <trkpt lat="42.775372" lon="-7.381573">
        <ele>459.6</ele>
        <time>2022-08-23T09:14:13Z</time>
      </trkpt>
      <trkpt lat="42.775439" lon="-7.381814">
        <ele>458.6</ele>
        <time>2022-08-23T09:14:29Z</time>
      </trkpt>
      <trkpt lat="42.775508" lon="-7.382045">
        <ele>457.6</ele>
        <time>2022-08-23T09:14:46Z</time>
      </trkpt>
      <trkpt lat="42.775566" lon="-7.382290">
        <ele>454.6</ele>
        <time>2022-08-23T09:15:01Z</time>
      </trkpt>
      <trkpt lat="42.775628" lon="-7.382527">
        <ele>454.5</ele>
        <time>2022-08-23T09:15:18Z</time>
      </trkpt>
      <trkpt lat="42.775680" lon="-7.382765">
        <ele>458.2</ele>
        <time>2022-08-23T09:15:35Z</time>
      </trkpt>
      <trkpt lat="42.775772" lon="-7.382990">
        <ele>458.2</ele>
        <time>2022-08-23T09:15:53Z</time>
      </trkpt>
      <trkpt lat="42.775860" lon="-7.383205">
        <ele>448.6</ele>
        <time>2022-08-23T09:16:05Z</time>
      </trkpt>
      <trkpt lat="42.775975" lon="-7.383398">
        <ele>447.6</ele>
        <time>2022-08-23T09:16:19Z</time>
      </trkpt>
      <trkpt lat="42.776118" lon="-7.383564">
        <ele>445.7</ele>
        <time>2022-08-23T09:16:33Z</time>
      </trkpt>
      <trkpt lat="42.776255" lon="-7.383730">
        <ele>444.7</ele>
        <time>2022-08-23T09:16:46Z</time>
      </trkpt>
      <trkpt lat="42.776396" lon="-7.383901">
        <ele>444.5</ele>
        <time>2022-08-23T09:17:02Z</time>
      </trkpt>
      <trkpt lat="42.776523" lon="-7.384100">
        <ele>443.6</ele>
        <time>2022-08-23T09:17:16Z</time>
      </trkpt>
      <trkpt lat="42.776634" lon="-7.384313">
        <ele>443.6</ele>
        <time>2022-08-23T09:17:29Z</time>
      </trkpt>
      <trkpt lat="42.776630" lon="-7.384566">
        <ele>442.6</ele>
        <time>2022-08-23T09:17:44Z</time>
      </trkpt>
      <trkpt lat="42.776574" lon="-7.384800">
        <ele>441.6</ele>
        <time>2022-08-23T09:18:00Z</time>
      </trkpt>
      <trkpt lat="42.776510" lon="-7.385035">
        <ele>439.9</ele>
        <time>2022-08-23T09:18:16Z</time>
      </trkpt>
      <trkpt lat="42.776434" lon="-7.385269">
        <ele>439.6</ele>
        <time>2022-08-23T09:18:30Z</time>
      </trkpt>
      <trkpt lat="42.776378" lon="-7.385505">
        <ele>439.6</ele>
        <time>2022-08-23T09:18:45Z</time>
      </trkpt>
      <trkpt lat="42.776330" lon="-7.385751">
        <ele>437.6</ele>
        <time>2022-08-23T09:19:01Z</time>
      </trkpt>
      <trkpt lat="42.776293" lon="-7.385996">
        <ele>436.6</ele>
        <time>2022-08-23T09:19:15Z</time>
      </trkpt>
      <trkpt lat="42.776288" lon="-7.386247">
        <ele>436.6</ele>
        <time>2022-08-23T09:19:31Z</time>
      </trkpt>
      <trkpt lat="42.776264" lon="-7.386493">
        <ele>436.5</ele>
        <time>2022-08-23T09:19:45Z</time>
      </trkpt>
      <trkpt lat="42.776266" lon="-7.386749">
        <ele>434.9</ele>
        <time>2022-08-23T09:20:01Z</time>
      </trkpt>
      <trkpt lat="42.776238" lon="-7.386992">
        <ele>435.6</ele>
        <time>2022-08-23T09:20:17Z</time>
      </trkpt>
      <trkpt lat="42.776243" lon="-7.387240">
        <ele>436.5</ele>
        <time>2022-08-23T09:20:32Z</time>
      </trkpt>
      <trkpt lat="42.776233" lon="-7.387498">
        <ele>434.6</ele>
        <time>2022-08-23T09:21:58Z</time>
      </trkpt>
      <trkpt lat="42.776209" lon="-7.387743">
        <ele>435.6</ele>
        <time>2022-08-23T09:22:15Z</time>
      </trkpt>
      <trkpt lat="42.776175" lon="-7.387987">
        <ele>440.2</ele>
        <time>2022-08-23T09:22:34Z</time>
      </trkpt>
      <trkpt lat="42.776178" lon="-7.388237">
        <ele>441.6</ele>
        <time>2022-08-23T09:22:47Z</time>
      </trkpt>
      <trkpt lat="42.776167" lon="-7.388501">
        <ele>440.6</ele>
        <time>2022-08-23T09:24:15Z</time>
      </trkpt>
      <trkpt lat="42.776157" lon="-7.388751">
        <ele>441.6</ele>
        <time>2022-08-23T09:24:28Z</time>
      </trkpt>
      <trkpt lat="42.776117" lon="-7.389007">
        <ele>442.7</ele>
        <time>2022-08-23T09:24:40Z</time>
      </trkpt>
      <trkpt lat="42.776101" lon="-7.389253">
        <ele>441.9</ele>
        <time>2022-08-23T09:24:52Z</time>
      </trkpt>
      <trkpt lat="42.776127" lon="-7.389505">
        <ele>441.5</ele>
        <time>2022-08-23T09:25:04Z</time>
      </trkpt>
      <trkpt lat="42.776132" lon="-7.389752">
        <ele>448.0</ele>
        <time>2022-08-23T09:25:17Z</time>
      </trkpt>
      <trkpt lat="42.776197" lon="-7.389986">
        <ele>448.3</ele>
        <time>2022-08-23T09:25:31Z</time>
      </trkpt>
      <trkpt lat="42.776202" lon="-7.390233">
        <ele>445.8</ele>
        <time>2022-08-23T09:25:45Z</time>
      </trkpt>
      <trkpt lat="42.776227" lon="-7.390479">
        <ele>448.3</ele>
        <time>2022-08-23T09:25:57Z</time>
      </trkpt>
      <trkpt lat="42.776231" lon="-7.390740">
        <ele>434.6</ele>
        <time>2022-08-23T09:26:10Z</time>
      </trkpt>
      <trkpt lat="42.776255" lon="-7.390988">
        <ele>445.8</ele>
        <time>2022-08-23T09:26:22Z</time>
      </trkpt>
      <trkpt lat="42.776280" lon="-7.391236">
        <ele>445.8</ele>
        <time>2022-08-23T09:26:34Z</time>
      </trkpt>
      <trkpt lat="42.776279" lon="-7.391496">
        <ele>445.8</ele>
        <time>2022-08-23T09:26:46Z</time>
      </trkpt>
      <trkpt lat="42.776344" lon="-7.391739">
        <ele>445.8</ele>
        <time>2022-08-23T09:27:00Z</time>
      </trkpt>
      <trkpt lat="42.776387" lon="-7.391983">
        <ele>445.8</ele>
        <time>2022-08-23T09:27:14Z</time>
      </trkpt>
      <trkpt lat="42.776391" lon="-7.392251">
        <ele>445.8</ele>
        <time>2022-08-23T09:27:27Z</time>
      </trkpt>
      <trkpt lat="42.776371" lon="-7.392504">
        <ele>445.8</ele>
        <time>2022-08-23T09:27:38Z</time>
      </trkpt>
      <trkpt lat="42.776386" lon="-7.392752">
        <ele>445.8</ele>
        <time>2022-08-23T09:27:50Z</time>
      </trkpt>
      <trkpt lat="42.776404" lon="-7.393015">
        <ele>427.4</ele>
        <time>2022-08-23T09:28:02Z</time>
      </trkpt>
      <trkpt lat="42.776425" lon="-7.393269">
        <ele>424.6</ele>
        <time>2022-08-23T09:28:14Z</time>
      </trkpt>
      <trkpt lat="42.776400" lon="-7.393527">
        <ele>424.6</ele>
        <time>2022-08-23T09:28:26Z</time>
      </trkpt>
      <trkpt lat="42.776412" lon="-7.393780">
        <ele>422.9</ele>
        <time>2022-08-23T09:28:39Z</time>
      </trkpt>
      <trkpt lat="42.776400" lon="-7.394052">
        <ele>424.6</ele>
        <time>2022-08-23T09:28:52Z</time>
      </trkpt>
      <trkpt lat="42.776378" lon="-7.394297">
        <ele>426.6</ele>
        <time>2022-08-23T09:29:05Z</time>
      </trkpt>
      <trkpt lat="42.776352" lon="-7.394563">
        <ele>434.3</ele>
        <time>2022-08-23T09:29:17Z</time>
      </trkpt>
      <trkpt lat="42.776318" lon="-7.394817">
        <ele>434.3</ele>
        <time>2022-08-23T09:29:29Z</time>
      </trkpt>
      <trkpt lat="42.776312" lon="-7.395080">
        <ele>434.5</ele>
        <time>2022-08-23T09:29:43Z</time>
      </trkpt>
      <trkpt lat="42.776293" lon="-7.395336">
        <ele>434.5</ele>
        <time>2022-08-23T09:29:57Z</time>
      </trkpt>
      <trkpt lat="42.776245" lon="-7.395579">
        <ele>434.5</ele>
        <time>2022-08-23T09:30:09Z</time>
      </trkpt>
      <trkpt lat="42.776211" lon="-7.395820">
        <ele>434.5</ele>
        <time>2022-08-23T09:30:26Z</time>
      </trkpt>
      <trkpt lat="42.776204" lon="-7.396074">
        <ele>434.3</ele>
        <time>2022-08-23T09:30:40Z</time>
      </trkpt>
      <trkpt lat="42.776193" lon="-7.396338">
        <ele>430.8</ele>
        <time>2022-08-23T09:30:55Z</time>
      </trkpt>
      <trkpt lat="42.776162" lon="-7.396585">
        <ele>430.8</ele>
        <time>2022-08-23T09:31:08Z</time>
      </trkpt>
      <trkpt lat="42.776186" lon="-7.396829">
        <ele>430.8</ele>
        <time>2022-08-23T09:31:20Z</time>
      </trkpt>
      <trkpt lat="42.776195" lon="-7.397096">
        <ele>430.7</ele>
        <time>2022-08-23T09:31:34Z</time>
      </trkpt>
      <trkpt lat="42.776201" lon="-7.397343">
        <ele>430.0</ele>
        <time>2022-08-23T09:31:47Z</time>
      </trkpt>
      <trkpt lat="42.776215" lon="-7.397589">
        <ele>430.0</ele>
        <time>2022-08-23T09:31:59Z</time>
      </trkpt>
      <trkpt lat="42.776190" lon="-7.397841">
        <ele>429.0</ele>
        <time>2022-08-23T09:32:12Z</time>
      </trkpt>
      <trkpt lat="42.776168" lon="-7.398096">
        <ele>429.0</ele>
        <time>2022-08-23T09:32:27Z</time>
      </trkpt>
      <trkpt lat="42.776172" lon="-7.398342">
        <ele>415.6</ele>
        <time>2022-08-23T09:32:43Z</time>
      </trkpt>
      <trkpt lat="42.776134" lon="-7.398595">
        <ele>415.6</ele>
        <time>2022-08-23T09:33:00Z</time>
      </trkpt>
      <trkpt lat="42.776081" lon="-7.398840">
        <ele>416.9</ele>
        <time>2022-08-23T09:33:36Z</time>
      </trkpt>
      <trkpt lat="42.775990" lon="-7.399084">
        <ele>417.6</ele>
        <time>2022-08-23T09:33:48Z</time>
      </trkpt>
      <trkpt lat="42.775912" lon="-7.399309">
        <ele>416.6</ele>
        <time>2022-08-23T09:33:59Z</time>
      </trkpt>
      <trkpt lat="42.775845" lon="-7.399547">
        <ele>415.6</ele>
        <time>2022-08-23T09:34:11Z</time>
      </trkpt>
      <trkpt lat="42.775764" lon="-7.399775">
        <ele>413.6</ele>
        <time>2022-08-23T09:34:25Z</time>
      </trkpt>
      <trkpt lat="42.775692" lon="-7.400019">
        <ele>411.6</ele>
        <time>2022-08-23T09:34:37Z</time>
      </trkpt>
      <trkpt lat="42.775642" lon="-7.400270">
        <ele>423.4</ele>
        <time>2022-08-23T09:34:52Z</time>
      </trkpt>
      <trkpt lat="42.775627" lon="-7.400532">
        <ele>423.4</ele>
        <time>2022-08-23T09:35:06Z</time>
      </trkpt>
      <trkpt lat="42.775675" lon="-7.400773">
        <ele>423.4</ele>
        <time>2022-08-23T09:35:21Z</time>
      </trkpt>
      <trkpt lat="42.775697" lon="-7.401018">
        <ele>421.9</ele>
        <time>2022-08-23T09:35:42Z</time>
      </trkpt>
      <trkpt lat="42.775723" lon="-7.401271">
        <ele>421.9</ele>
        <time>2022-08-23T09:35:56Z</time>
      </trkpt>
      <trkpt lat="42.775717" lon="-7.401527">
        <ele>421.9</ele>
        <time>2022-08-23T09:36:09Z</time>
      </trkpt>
      <trkpt lat="42.775762" lon="-7.401771">
        <ele>421.9</ele>
        <time>2022-08-23T09:36:23Z</time>
      </trkpt>
      <trkpt lat="42.775769" lon="-7.402036">
        <ele>421.9</ele>
        <time>2022-08-23T09:36:38Z</time>
      </trkpt>
      <trkpt lat="42.775791" lon="-7.402280">
        <ele>421.9</ele>
        <time>2022-08-23T09:36:56Z</time>
      </trkpt>
      <trkpt lat="42.775820" lon="-7.402527">
        <ele>419.1</ele>
        <time>2022-08-23T09:37:11Z</time>
      </trkpt>
      <trkpt lat="42.775838" lon="-7.402777">
        <ele>422.2</ele>
        <time>2022-08-23T09:37:24Z</time>
      </trkpt>
      <trkpt lat="42.775791" lon="-7.403033">
        <ele>422.2</ele>
        <time>2022-08-23T09:37:38Z</time>
      </trkpt>
      <trkpt lat="42.775728" lon="-7.403280">
        <ele>422.5</ele>
        <time>2022-08-23T09:37:54Z</time>
      </trkpt>
      <trkpt lat="42.775687" lon="-7.403530">
        <ele>422.6</ele>
        <time>2022-08-23T09:38:06Z</time>
      </trkpt>
      <trkpt lat="42.775646" lon="-7.403772">
        <ele>413.8</ele>
        <time>2022-08-23T09:38:21Z</time>
      </trkpt>
      <trkpt lat="42.775620" lon="-7.404026">
        <ele>422.6</ele>
        <time>2022-08-23T09:38:35Z</time>
      </trkpt>
      <trkpt lat="42.775651" lon="-7.404283">
        <ele>422.6</ele>
        <time>2022-08-23T09:38:52Z</time>
      </trkpt>
      <trkpt lat="42.775715" lon="-7.404512">
        <ele>422.5</ele>
        <time>2022-08-23T09:42:33Z</time>
      </trkpt>
      <trkpt lat="42.775784" lon="-7.404751">
        <ele>422.5</ele>
        <time>2022-08-23T09:42:53Z</time>
      </trkpt>
      <trkpt lat="42.775826" lon="-7.405001">
        <ele>422.4</ele>
        <time>2022-08-23T09:43:06Z</time>
      </trkpt>
      <trkpt lat="42.775873" lon="-7.405249">
        <ele>422.4</ele>
        <time>2022-08-23T09:43:22Z</time>
      </trkpt>
      <trkpt lat="42.775931" lon="-7.405497">
        <ele>422.4</ele>
        <time>2022-08-23T09:43:37Z</time>
      </trkpt>
      <trkpt lat="42.775936" lon="-7.405747">
        <ele>422.1</ele>
        <time>2022-08-23T09:43:51Z</time>
      </trkpt>
      <trkpt lat="42.775926" lon="-7.406001">
        <ele>422.1</ele>
        <time>2022-08-23T09:44:07Z</time>
      </trkpt>
      <trkpt lat="42.775853" lon="-7.406246">
        <ele>422.0</ele>
        <time>2022-08-23T09:44:23Z</time>
      </trkpt>
      <trkpt lat="42.775762" lon="-7.406475">
        <ele>422.0</ele>
        <time>2022-08-23T09:45:00Z</time>
      </trkpt>
      <trkpt lat="42.775694" lon="-7.406716">
        <ele>421.9</ele>
        <time>2022-08-23T09:45:17Z</time>
      </trkpt>
      <trkpt lat="42.775633" lon="-7.406958">
        <ele>421.9</ele>
        <time>2022-08-23T09:45:30Z</time>
      </trkpt>
      <trkpt lat="42.775580" lon="-7.407197">
        <ele>421.9</ele>
        <time>2022-08-23T09:45:43Z</time>
      </trkpt>
      <trkpt lat="42.775479" lon="-7.407405">
        <ele>421.9</ele>
        <time>2022-08-23T09:45:57Z</time>
      </trkpt>
      <trkpt lat="42.775325" lon="-7.407549">
        <ele>422.0</ele>
        <time>2022-08-23T09:46:11Z</time>
      </trkpt>
      <trkpt lat="42.775180" lon="-7.407719">
        <ele>422.1</ele>
        <time>2022-08-23T09:46:24Z</time>
      </trkpt>
      <trkpt lat="42.775055" lon="-7.407912">
        <ele>422.5</ele>
        <time>2022-08-23T09:46:37Z</time>
      </trkpt>
      <trkpt lat="42.774970" lon="-7.408134">
        <ele>423.1</ele>
        <time>2022-08-23T09:46:50Z</time>
      </trkpt>
      <trkpt lat="42.774920" lon="-7.408372">
        <ele>423.0</ele>
        <time>2022-08-23T09:47:03Z</time>
      </trkpt>
      <trkpt lat="42.774932" lon="-7.408627">
        <ele>423.1</ele>
        <time>2022-08-23T09:47:18Z</time>
      </trkpt>
      <trkpt lat="42.774975" lon="-7.408873">
        <ele>423.0</ele>
        <time>2022-08-23T09:47:32Z</time>
      </trkpt>
      <trkpt lat="42.775088" lon="-7.409081">
        <ele>423.5</ele>
        <time>2022-08-23T09:47:46Z</time>
      </trkpt>
      <trkpt lat="42.775268" lon="-7.409186">
        <ele>422.5</ele>
        <time>2022-08-23T09:48:01Z</time>
      </trkpt>
      <trkpt lat="42.775437" lon="-7.409314">
        <ele>422.4</ele>
        <time>2022-08-23T09:48:15Z</time>
      </trkpt>
      <trkpt lat="42.775537" lon="-7.409526">
        <ele>422.4</ele>
        <time>2022-08-23T09:48:28Z</time>
      </trkpt>
      <trkpt lat="42.775577" lon="-7.409786">
        <ele>422.4</ele>
        <time>2022-08-23T09:48:41Z</time>
      </trkpt>
      <trkpt lat="42.775602" lon="-7.410035">
        <ele>422.4</ele>
        <time>2022-08-23T09:48:53Z</time>
      </trkpt>
      <trkpt lat="42.775633" lon="-7.410293">
        <ele>422.4</ele>
        <time>2022-08-23T09:49:06Z</time>
      </trkpt>
      <trkpt lat="42.775675" lon="-7.410541">
        <ele>422.2</ele>
        <time>2022-08-23T09:49:20Z</time>
      </trkpt>
      <trkpt lat="42.775743" lon="-7.410769">
        <ele>422.2</ele>
        <time>2022-08-23T09:49:33Z</time>
      </trkpt>
      <trkpt lat="42.775705" lon="-7.411015">
        <ele>422.4</ele>
        <time>2022-08-23T09:49:45Z</time>
      </trkpt>
      <trkpt lat="42.775725" lon="-7.411264">
        <ele>422.4</ele>
        <time>2022-08-23T09:49:58Z</time>
      </trkpt>
      <trkpt lat="42.775794" lon="-7.411507">
        <ele>423.1</ele>
        <time>2022-08-23T09:50:12Z</time>
      </trkpt>
      <trkpt lat="42.775818" lon="-7.411755">
        <ele>423.8</ele>
        <time>2022-08-23T09:50:25Z</time>
      </trkpt>
      <trkpt lat="42.775917" lon="-7.411973">
        <ele>424.8</ele>
        <time>2022-08-23T09:50:52Z</time>
      </trkpt>
      <trkpt lat="42.776051" lon="-7.412148">
        <ele>426.0</ele>
        <time>2022-08-23T09:51:03Z</time>
      </trkpt>
      <trkpt lat="42.776160" lon="-7.412353">
        <ele>424.0</ele>
        <time>2022-08-23T09:51:16Z</time>
      </trkpt>
      <trkpt lat="42.776270" lon="-7.412557">
        <ele>428.2</ele>
        <time>2022-08-23T09:51:29Z</time>
      </trkpt>
      <trkpt lat="42.776388" lon="-7.412758">
        <ele>428.1</ele>
        <time>2022-08-23T09:51:42Z</time>
      </trkpt>
      <trkpt lat="42.776576" lon="-7.412780">
        <ele>429.2</ele>
        <time>2022-08-23T09:52:02Z</time>
      </trkpt>
      <trkpt lat="42.776749" lon="-7.412883">
        <ele>429.2</ele>
        <time>2022-08-23T09:52:21Z</time>
      </trkpt>
      <trkpt lat="42.776871" lon="-7.413084">
        <ele>432.3</ele>
        <time>2022-08-23T09:52:34Z</time>
      </trkpt>
      <trkpt lat="42.776999" lon="-7.413259">
        <ele>434.7</ele>
        <time>2022-08-23T09:52:53Z</time>
      </trkpt>
      <trkpt lat="42.777090" lon="-7.413480">
        <ele>427.0</ele>
        <time>2022-08-23T09:53:11Z</time>
      </trkpt>
      <trkpt lat="42.777164" lon="-7.413705">
        <ele>447.0</ele>
        <time>2022-08-23T09:53:34Z</time>
      </trkpt>
      <trkpt lat="42.777192" lon="-7.413953">
        <ele>447.0</ele>
        <time>2022-08-23T09:53:58Z</time>
      </trkpt>
      <trkpt lat="42.777275" lon="-7.414327">
        <ele>447.0</ele>
        <time>2022-08-23T09:54:17Z</time>
      </trkpt>
      <trkpt lat="42.777401" lon="-7.414706">
        <ele>453.4</ele>
        <time>2022-08-23T09:54:32Z</time>
        <cmt>WAYPOINT.bmp</cmt>
        <sym>C:\Program Files (x86)\CompeGPS\symbols\GARMIN.ZIP\WAYPOINT.bmp</sym>
      </trkpt>
      <trkpt lat="42.777400" lon="-7.414712">
        <ele>458.4</ele>
        <time>2023-08-11T16:15:12Z</time>
      </trkpt>
      <trkpt lat="42.777420" lon="-7.414785">
        <ele>458.4</ele>
        <time>2023-08-11T16:15:14Z</time>
      </trkpt>
      <trkpt lat="42.777448" lon="-7.414898">
        <ele>458.4</ele>
        <time>2023-08-11T16:15:35Z</time>
      </trkpt>
      <trkpt lat="42.777463" lon="-7.415153">
        <ele>458.3</ele>
        <time>2023-08-11T16:15:43Z</time>
      </trkpt>
      <trkpt lat="42.777437" lon="-7.415401">
        <ele>459.8</ele>
        <time>2023-08-11T16:15:59Z</time>
      </trkpt>
      <trkpt lat="42.777403" lon="-7.415641">
        <ele>460.9</ele>
        <time>2023-08-11T16:16:14Z</time>
      </trkpt>
      <trkpt lat="42.777344" lon="-7.415887">
        <ele>461.6</ele>
        <time>2023-08-11T16:17:05Z</time>
      </trkpt>
      <trkpt lat="42.777282" lon="-7.416117">
        <ele>461.8</ele>
        <time>2023-08-11T16:17:21Z</time>
      </trkpt>
      <trkpt lat="42.777203" lon="-7.416357">
        <ele>462.0</ele>
        <time>2023-08-11T16:17:54Z</time>
      </trkpt>
      <trkpt lat="42.777127" lon="-7.416580">
        <ele>462.1</ele>
        <time>2023-08-11T16:18:07Z</time>
      </trkpt>
      <trkpt lat="42.777116" lon="-7.416619">
        <ele>464.5</ele>
        <time>2023-08-11T16:18:52Z</time>
      </trkpt>
      <trkpt lat="42.777100" lon="-7.416666">
        <ele>464.5</ele>
        <time>2023-08-11T16:22:52Z</time>
      </trkpt>
      <trkpt lat="42.777083" lon="-7.416700">
        <ele>462.1</ele>
        <time>2023-08-12T04:23:51Z</time>
      </trkpt>
      <trkpt lat="42.777082" lon="-7.416746">
        <ele>463.0</ele>
        <time>2023-08-12T04:24:32Z</time>
      </trkpt>
      <trkpt lat="42.777006" lon="-7.416972">
        <ele>464.4</ele>
        <time>2023-08-12T04:24:49Z</time>
      </trkpt>
      <trkpt lat="42.776942" lon="-7.417205">
        <ele>467.4</ele>
        <time>2023-08-12T04:25:06Z</time>
      </trkpt>
      <trkpt lat="42.776841" lon="-7.417573">
        <ele>468.5</ele>
        <time>2023-08-12T04:25:22Z</time>
      </trkpt>
      <trkpt lat="42.776967" lon="-7.417628">
        <ele>472.8</ele>
        <time>2023-08-12T04:25:43Z</time>
      </trkpt>
      <trkpt lat="42.777148" lon="-7.417674">
        <ele>475.1</ele>
        <time>2023-08-12T04:25:58Z</time>
      </trkpt>
      <trkpt lat="42.777324" lon="-7.417740">
        <ele>475.4</ele>
        <time>2023-08-12T04:26:12Z</time>
      </trkpt>
      <trkpt lat="42.777475" lon="-7.417877">
        <ele>475.4</ele>
        <time>2023-08-12T04:26:24Z</time>
      </trkpt>
      <trkpt lat="42.777569" lon="-7.418090">
        <ele>475.4</ele>
        <time>2023-08-12T04:26:38Z</time>
      </trkpt>
      <trkpt lat="42.777661" lon="-7.418310">
        <ele>475.4</ele>
        <time>2023-08-12T04:26:52Z</time>
      </trkpt>
      <trkpt lat="42.777725" lon="-7.418540">
        <ele>460.8</ele>
        <time>2023-08-12T04:27:08Z</time>
      </trkpt>
      <trkpt lat="42.777781" lon="-7.418774">
        <ele>460.8</ele>
        <time>2023-08-12T04:27:20Z</time>
      </trkpt>
      <trkpt lat="42.777803" lon="-7.419028">
        <ele>460.8</ele>
        <time>2023-08-12T04:27:34Z</time>
      </trkpt>
      <trkpt lat="42.777830" lon="-7.419278">
        <ele>460.8</ele>
        <time>2023-08-12T04:27:49Z</time>
      </trkpt>
      <trkpt lat="42.777874" lon="-7.419521">
        <ele>484.1</ele>
        <time>2023-08-12T04:28:03Z</time>
      </trkpt>
      <trkpt lat="42.777943" lon="-7.419749">
        <ele>484.1</ele>
        <time>2023-08-12T04:28:17Z</time>
      </trkpt>
      <trkpt lat="42.778029" lon="-7.419966">
        <ele>484.1</ele>
        <time>2023-08-12T04:28:30Z</time>
      </trkpt>
      <trkpt lat="42.778127" lon="-7.420181">
        <ele>479.8</ele>
        <time>2023-08-12T04:28:43Z</time>
      </trkpt>
      <trkpt lat="42.778242" lon="-7.420375">
        <ele>479.8</ele>
        <time>2023-08-12T04:28:58Z</time>
      </trkpt>
      <trkpt lat="42.778360" lon="-7.420561">
        <ele>479.8</ele>
        <time>2023-08-12T04:29:11Z</time>
      </trkpt>
      <trkpt lat="42.778530" lon="-7.420858">
        <ele>477.1</ele>
        <time>2023-08-12T04:29:26Z</time>
      </trkpt>
      <trkpt lat="42.778393" lon="-7.420950">
        <ele>472.0</ele>
        <time>2023-08-12T04:30:07Z</time>
      </trkpt>
      <trkpt lat="42.778228" lon="-7.421062">
        <ele>472.4</ele>
        <time>2023-08-12T04:30:21Z</time>
      </trkpt>
      <trkpt lat="42.778075" lon="-7.421195">
        <ele>476.5</ele>
        <time>2023-08-12T04:30:35Z</time>
      </trkpt>
      <trkpt lat="42.777917" lon="-7.421313">
        <ele>476.5</ele>
        <time>2023-08-12T04:30:48Z</time>
      </trkpt>
      <trkpt lat="42.777753" lon="-7.421434">
        <ele>476.5</ele>
        <time>2023-08-12T04:31:03Z</time>
      </trkpt>
      <trkpt lat="42.777597" lon="-7.421564">
        <ele>476.5</ele>
        <time>2023-08-12T04:31:16Z</time>
      </trkpt>
      <trkpt lat="42.777437" lon="-7.421706">
        <ele>476.5</ele>
        <time>2023-08-12T04:31:30Z</time>
      </trkpt>
      <trkpt lat="42.777281" lon="-7.421828">
        <ele>476.5</ele>
        <time>2023-08-12T04:31:47Z</time>
      </trkpt>
      <trkpt lat="42.777134" lon="-7.421970">
        <ele>447.6</ele>
        <time>2023-08-12T04:32:03Z</time>
      </trkpt>
      <trkpt lat="42.776980" lon="-7.422143">
        <ele>440.5</ele>
        <time>2023-08-12T04:32:24Z</time>
      </trkpt>
      <trkpt lat="42.776694" lon="-7.422378">
        <ele>442.2</ele>
        <time>2023-08-12T04:32:35Z</time>
      </trkpt>
      <trkpt lat="42.776830" lon="-7.422513">
        <ele>435.5</ele>
        <time>2023-08-12T04:33:21Z</time>
      </trkpt>
      <trkpt lat="42.776987" lon="-7.422635">
        <ele>433.6</ele>
        <time>2023-08-12T04:33:35Z</time>
      </trkpt>
      <trkpt lat="42.777137" lon="-7.422797">
        <ele>431.5</ele>
        <time>2023-08-12T04:33:49Z</time>
      </trkpt>
      <trkpt lat="42.777330" lon="-7.422889">
        <ele>431.6</ele>
        <time>2023-08-12T04:34:05Z</time>
      </trkpt>
      <trkpt lat="42.777504" lon="-7.422948">
        <ele>433.5</ele>
        <time>2023-08-12T04:34:19Z</time>
      </trkpt>
      <trkpt lat="42.777677" lon="-7.423026">
        <ele>432.5</ele>
        <time>2023-08-12T04:34:33Z</time>
      </trkpt>
      <trkpt lat="42.777855" lon="-7.423094">
        <ele>433.5</ele>
        <time>2023-08-12T04:34:49Z</time>
      </trkpt>
      <trkpt lat="42.778026" lon="-7.423203">
        <ele>432.5</ele>
        <time>2023-08-12T04:35:01Z</time>
      </trkpt>
      <trkpt lat="42.778198" lon="-7.423288">
        <ele>431.6</ele>
        <time>2023-08-12T04:35:13Z</time>
      </trkpt>
      <trkpt lat="42.778373" lon="-7.423403">
        <ele>425.3</ele>
        <time>2023-08-12T04:35:25Z</time>
      </trkpt>
      <trkpt lat="42.778413" lon="-7.423597">
        <ele>429.3</ele>
        <time>2023-08-12T04:36:25Z</time>
      </trkpt>
      <trkpt lat="42.778422" lon="-7.423860">
        <ele>429.3</ele>
        <time>2023-08-12T04:36:43Z</time>
      </trkpt>
      <trkpt lat="42.778340" lon="-7.424075">
        <ele>429.3</ele>
        <time>2023-08-12T04:36:57Z</time>
      </trkpt>
      <trkpt lat="42.778222" lon="-7.424263">
        <ele>429.3</ele>
        <time>2023-08-12T04:37:10Z</time>
      </trkpt>
      <trkpt lat="42.778140" lon="-7.424486">
        <ele>429.3</ele>
        <time>2023-08-12T04:37:24Z</time>
      </trkpt>
      <trkpt lat="42.778106" lon="-7.424736">
        <ele>429.3</ele>
        <time>2023-08-12T04:37:38Z</time>
      </trkpt>
      <trkpt lat="42.778040" lon="-7.424966">
        <ele>429.3</ele>
        <time>2023-08-12T04:37:51Z</time>
      </trkpt>
      <trkpt lat="42.777955" lon="-7.425183">
        <ele>423.5</ele>
        <time>2023-08-12T04:38:06Z</time>
      </trkpt>
      <trkpt lat="42.777799" lon="-7.425310">
        <ele>427.5</ele>
        <time>2023-08-12T04:38:45Z</time>
      </trkpt>
      <trkpt lat="42.777658" lon="-7.425461">
        <ele>426.5</ele>
        <time>2023-08-12T04:38:59Z</time>
      </trkpt>
      <trkpt lat="42.777509" lon="-7.425614">
        <ele>423.6</ele>
        <time>2023-08-12T04:39:15Z</time>
      </trkpt>
      <trkpt lat="42.777359" lon="-7.425762">
        <ele>422.5</ele>
        <time>2023-08-12T04:39:33Z</time>
      </trkpt>
      <trkpt lat="42.777225" lon="-7.425919">
        <ele>418.5</ele>
        <time>2023-08-12T04:40:01Z</time>
      </trkpt>
      <trkpt lat="42.777085" lon="-7.426070">
        <ele>419.5</ele>
        <time>2023-08-12T04:40:14Z</time>
      </trkpt>
      <trkpt lat="42.776961" lon="-7.426249">
        <ele>418.5</ele>
        <time>2023-08-12T04:40:29Z</time>
      </trkpt>
      <trkpt lat="42.776844" lon="-7.426439">
        <ele>417.5</ele>
        <time>2023-08-12T04:40:45Z</time>
      </trkpt>
      <trkpt lat="42.776640" lon="-7.426834">
        <ele>418.5</ele>
        <time>2023-08-12T04:40:59Z</time>
      </trkpt>
      <trkpt lat="42.776569" lon="-7.426879">
        <ele>420.2</ele>
        <time>2023-08-12T04:41:12Z</time>
      </trkpt>
      <trkpt lat="42.776451" lon="-7.426618">
        <ele>424.5</ele>
        <time>2023-08-12T04:41:29Z</time>
      </trkpt>
      <trkpt lat="42.776355" lon="-7.426544">
        <ele>425.8</ele>
        <time>2023-08-12T04:41:46Z</time>
      </trkpt>
      <trkpt lat="42.776139" lon="-7.426785">
        <ele>422.8</ele>
        <time>2023-08-12T04:41:59Z</time>
      </trkpt>
      <trkpt lat="42.775992" lon="-7.426933">
        <ele>423.6</ele>
        <time>2023-08-12T04:42:13Z</time>
      </trkpt>
      <trkpt lat="42.775830" lon="-7.427057">
        <ele>422.5</ele>
        <time>2023-08-12T04:42:25Z</time>
      </trkpt>
      <trkpt lat="42.775673" lon="-7.427141">
        <ele>420.5</ele>
        <time>2023-08-12T04:42:38Z</time>
      </trkpt>
      <trkpt lat="42.775508" lon="-7.427271">
        <ele>420.5</ele>
        <time>2023-08-12T04:42:50Z</time>
      </trkpt>
      <trkpt lat="42.775382" lon="-7.427447">
        <ele>421.5</ele>
        <time>2023-08-12T04:43:03Z</time>
      </trkpt>
      <trkpt lat="42.775283" lon="-7.427669">
        <ele>420.5</ele>
        <time>2023-08-12T04:43:16Z</time>
      </trkpt>
      <trkpt lat="42.775184" lon="-7.427890">
        <ele>421.6</ele>
        <time>2023-08-12T04:43:31Z</time>
      </trkpt>
      <trkpt lat="42.775051" lon="-7.428072">
        <ele>419.5</ele>
        <time>2023-08-12T04:43:45Z</time>
      </trkpt>
      <trkpt lat="42.774916" lon="-7.428247">
        <ele>419.5</ele>
        <time>2023-08-12T04:43:58Z</time>
      </trkpt>
      <trkpt lat="42.774795" lon="-7.428401">
        <ele>420.5</ele>
        <time>2023-08-12T04:44:12Z</time>
      </trkpt>
      <trkpt lat="42.774670" lon="-7.428574">
        <ele>419.5</ele>
        <time>2023-08-12T04:44:27Z</time>
      </trkpt>
      <trkpt lat="42.774547" lon="-7.428762">
        <ele>416.5</ele>
        <time>2023-08-12T04:44:41Z</time>
      </trkpt>
      <trkpt lat="42.774501" lon="-7.429004">
        <ele>417.5</ele>
        <time>2023-08-12T04:44:51Z</time>
      </trkpt>
      <trkpt lat="42.774422" lon="-7.429232">
        <ele>420.5</ele>
        <time>2023-08-12T04:45:03Z</time>
      </trkpt>
      <trkpt lat="42.774363" lon="-7.429471">
        <ele>421.5</ele>
        <time>2023-08-12T04:45:20Z</time>
      </trkpt>
      <trkpt lat="42.774315" lon="-7.429731">
        <ele>420.5</ele>
        <time>2023-08-12T04:45:36Z</time>
      </trkpt>
      <trkpt lat="42.774246" lon="-7.429971">
        <ele>432.2</ele>
        <time>2023-08-12T04:46:10Z</time>
      </trkpt>
      <trkpt lat="42.774178" lon="-7.430240">
        <ele>434.5</ele>
        <time>2023-08-12T04:46:24Z</time>
      </trkpt>
      <trkpt lat="42.774051" lon="-7.430366">
        <ele>432.6</ele>
        <time>2023-08-12T04:46:37Z</time>
      </trkpt>
      <trkpt lat="42.773857" lon="-7.430450">
        <ele>431.5</ele>
        <time>2023-08-12T04:46:50Z</time>
      </trkpt>
      <trkpt lat="42.773677" lon="-7.430526">
        <ele>429.6</ele>
        <time>2023-08-12T04:47:06Z</time>
      </trkpt>
      <trkpt lat="42.773492" lon="-7.430557">
        <ele>428.5</ele>
        <time>2023-08-12T04:47:21Z</time>
      </trkpt>
      <trkpt lat="42.773318" lon="-7.430642">
        <ele>427.5</ele>
        <time>2023-08-12T04:47:36Z</time>
      </trkpt>
      <trkpt lat="42.773156" lon="-7.430753">
        <ele>420.9</ele>
        <time>2023-08-12T04:47:52Z</time>
      </trkpt>
      <trkpt lat="42.772995" lon="-7.430864">
        <ele>417.5</ele>
        <time>2023-08-12T04:48:05Z</time>
      </trkpt>
      <trkpt lat="42.772850" lon="-7.431018">
        <ele>415.5</ele>
        <time>2023-08-12T04:48:18Z</time>
      </trkpt>
      <trkpt lat="42.772764" lon="-7.431252">
        <ele>421.2</ele>
        <time>2023-08-12T04:48:45Z</time>
      </trkpt>
      <trkpt lat="42.772733" lon="-7.431495">
        <ele>424.5</ele>
        <time>2023-08-12T04:48:57Z</time>
      </trkpt>
      <trkpt lat="42.772727" lon="-7.431747">
        <ele>426.5</ele>
        <time>2023-08-12T04:49:14Z</time>
      </trkpt>
      <trkpt lat="42.772698" lon="-7.431993">
        <ele>426.5</ele>
        <time>2023-08-12T04:49:27Z</time>
      </trkpt>
      <trkpt lat="42.772678" lon="-7.432218">
        <ele>426.5</ele>
        <time>2023-08-12T04:49:39Z</time>
      </trkpt>
      <trkpt lat="42.772639" lon="-7.432479">
        <ele>427.5</ele>
        <time>2023-08-12T04:49:51Z</time>
      </trkpt>
      <trkpt lat="42.772617" lon="-7.432743">
        <ele>430.5</ele>
        <time>2023-08-12T04:50:07Z</time>
      </trkpt>
      <trkpt lat="42.772528" lon="-7.432957">
        <ele>436.5</ele>
        <time>2023-08-12T04:50:25Z</time>
      </trkpt>
      <trkpt lat="42.772453" lon="-7.433187">
        <ele>444.4</ele>
        <time>2023-08-12T04:50:50Z</time>
      </trkpt>
      <trkpt lat="42.772442" lon="-7.433438">
        <ele>446.2</ele>
        <time>2023-08-12T04:51:03Z</time>
      </trkpt>
      <trkpt lat="42.772430" lon="-7.433692">
        <ele>450.5</ele>
        <time>2023-08-12T04:51:22Z</time>
      </trkpt>
      <trkpt lat="42.772402" lon="-7.433937">
        <ele>450.6</ele>
        <time>2023-08-12T04:51:44Z</time>
      </trkpt>
      <trkpt lat="42.772378" lon="-7.434184">
        <ele>454.5</ele>
        <time>2023-08-12T04:52:02Z</time>
      </trkpt>
      <trkpt lat="42.772363" lon="-7.434430">
        <ele>457.5</ele>
        <time>2023-08-12T04:52:17Z</time>
      </trkpt>
      <trkpt lat="42.772308" lon="-7.434675">
        <ele>462.5</ele>
        <time>2023-08-12T04:52:37Z</time>
      </trkpt>
      <trkpt lat="42.772338" lon="-7.434921">
        <ele>467.5</ele>
        <time>2023-08-12T04:52:54Z</time>
      </trkpt>
      <trkpt lat="42.772345" lon="-7.435167">
        <ele>467.5</ele>
        <time>2023-08-12T04:53:09Z</time>
      </trkpt>
      <trkpt lat="42.772336" lon="-7.435420">
        <ele>471.5</ele>
        <time>2023-08-12T04:53:25Z</time>
      </trkpt>
      <trkpt lat="42.772334" lon="-7.435667">
        <ele>471.5</ele>
        <time>2023-08-12T04:53:42Z</time>
      </trkpt>
      <trkpt lat="42.772331" lon="-7.435913">
        <ele>474.5</ele>
        <time>2023-08-12T04:53:58Z</time>
      </trkpt>
      <trkpt lat="42.772301" lon="-7.435972">
        <ele>478.5</ele>
        <time>2023-08-12T04:54:14Z</time>
      </trkpt>
      <trkpt lat="42.772232" lon="-7.436019">
        <ele>490.5</ele>
        <time>2023-08-12T04:54:53Z</time>
      </trkpt>
      <trkpt lat="42.772113" lon="-7.435832">
        <ele>495.5</ele>
        <time>2023-08-12T04:55:06Z</time>
      </trkpt>
      <trkpt lat="42.771976" lon="-7.435784">
        <ele>493.6</ele>
        <time>2023-08-12T04:55:24Z</time>
      </trkpt>
      <trkpt lat="42.771816" lon="-7.435783">
        <ele>490.5</ele>
        <time>2023-08-12T04:55:40Z</time>
      </trkpt>
      <trkpt lat="42.771639" lon="-7.435829">
        <ele>490.5</ele>
        <time>2023-08-12T04:55:56Z</time>
      </trkpt>
      <trkpt lat="42.771461" lon="-7.435929">
        <ele>489.5</ele>
        <time>2023-08-12T04:56:06Z</time>
      </trkpt>
      <trkpt lat="42.771331" lon="-7.436099">
        <ele>490.6</ele>
        <time>2023-08-12T04:56:18Z</time>
      </trkpt>
      <trkpt lat="42.771250" lon="-7.436332">
        <ele>493.5</ele>
        <time>2023-08-12T04:56:32Z</time>
      </trkpt>
      <trkpt lat="42.771173" lon="-7.436568">
        <ele>496.5</ele>
        <time>2023-08-12T04:56:44Z</time>
      </trkpt>
      <trkpt lat="42.771097" lon="-7.436813">
        <ele>496.5</ele>
        <time>2023-08-12T04:56:59Z</time>
      </trkpt>
      <trkpt lat="42.771025" lon="-7.437041">
        <ele>496.5</ele>
        <time>2023-08-12T04:57:13Z</time>
      </trkpt>
      <trkpt lat="42.770953" lon="-7.437271">
        <ele>497.5</ele>
        <time>2023-08-12T04:57:29Z</time>
      </trkpt>
      <trkpt lat="42.770879" lon="-7.437501">
        <ele>496.5</ele>
        <time>2023-08-12T04:57:43Z</time>
      </trkpt>
      <trkpt lat="42.770784" lon="-7.437719">
        <ele>497.5</ele>
        <time>2023-08-12T04:57:57Z</time>
      </trkpt>
      <trkpt lat="42.770658" lon="-7.437905">
        <ele>496.5</ele>
        <time>2023-08-12T04:58:11Z</time>
      </trkpt>
      <trkpt lat="42.770546" lon="-7.438105">
        <ele>498.5</ele>
        <time>2023-08-12T04:58:26Z</time>
      </trkpt>
      <trkpt lat="42.770403" lon="-7.438268">
        <ele>503.5</ele>
        <time>2023-08-12T04:58:40Z</time>
      </trkpt>
      <trkpt lat="42.770273" lon="-7.438449">
        <ele>503.5</ele>
        <time>2023-08-12T04:58:54Z</time>
      </trkpt>
      <trkpt lat="42.770180" lon="-7.438662">
        <ele>500.8</ele>
        <time>2023-08-12T04:59:10Z</time>
      </trkpt>
      <trkpt lat="42.770096" lon="-7.438879">
        <ele>498.6</ele>
        <time>2023-08-12T04:59:26Z</time>
      </trkpt>
      <trkpt lat="42.770017" lon="-7.439110">
        <ele>497.5</ele>
        <time>2023-08-12T04:59:40Z</time>
      </trkpt>
      <trkpt lat="42.769926" lon="-7.439323">
        <ele>497.5</ele>
        <time>2023-08-12T04:59:54Z</time>
      </trkpt>
      <trkpt lat="42.769791" lon="-7.439635">
        <ele>495.5</ele>
        <time>2023-08-12T05:00:08Z</time>
      </trkpt>
      <trkpt lat="42.769871" lon="-7.439787">
        <ele>499.2</ele>
        <time>2023-08-12T05:00:26Z</time>
      </trkpt>
      <trkpt lat="42.770079" lon="-7.439920">
        <ele>500.5</ele>
        <time>2023-08-12T05:00:42Z</time>
      </trkpt>
      <trkpt lat="42.770248" lon="-7.440041">
        <ele>501.5</ele>
        <time>2023-08-12T05:00:55Z</time>
      </trkpt>
      <trkpt lat="42.770372" lon="-7.440234">
        <ele>501.5</ele>
        <time>2023-08-12T05:01:10Z</time>
      </trkpt>
      <trkpt lat="42.770422" lon="-7.440470">
        <ele>502.5</ele>
        <time>2023-08-12T05:01:22Z</time>
      </trkpt>
      <trkpt lat="42.770484" lon="-7.440703">
        <ele>503.5</ele>
        <time>2023-08-12T05:01:35Z</time>
      </trkpt>
      <trkpt lat="42.770549" lon="-7.440942">
        <ele>504.6</ele>
        <time>2023-08-12T05:01:48Z</time>
      </trkpt>
      <trkpt lat="42.770595" lon="-7.441189">
        <ele>502.5</ele>
        <time>2023-08-12T05:02:03Z</time>
      </trkpt>
      <trkpt lat="42.770621" lon="-7.441434">
        <ele>501.6</ele>
        <time>2023-08-12T05:02:18Z</time>
      </trkpt>
      <trkpt lat="42.770619" lon="-7.441698">
        <ele>500.5</ele>
        <time>2023-08-12T05:02:33Z</time>
      </trkpt>
      <trkpt lat="42.770657" lon="-7.441949">
        <ele>500.5</ele>
        <time>2023-08-12T05:02:46Z</time>
      </trkpt>
      <trkpt lat="42.770727" lon="-7.442199">
        <ele>504.4</ele>
        <time>2023-08-12T05:03:00Z</time>
      </trkpt>
      <trkpt lat="42.770800" lon="-7.442412">
        <ele>504.5</ele>
        <time>2023-08-12T05:03:12Z</time>
      </trkpt>
      <trkpt lat="42.770844" lon="-7.442646">
        <ele>504.6</ele>
        <time>2023-08-12T05:03:25Z</time>
      </trkpt>
      <trkpt lat="42.770874" lon="-7.442899">
        <ele>503.5</ele>
        <time>2023-08-12T05:03:39Z</time>
      </trkpt>
      <trkpt lat="42.770908" lon="-7.443220">
        <ele>503.5</ele>
        <time>2023-08-12T05:03:53Z</time>
      </trkpt>
      <trkpt lat="42.770860" lon="-7.443352">
        <ele>499.8</ele>
        <time>2023-08-12T05:04:07Z</time>
      </trkpt>
      <trkpt lat="42.770662" lon="-7.443457">
        <ele>497.5</ele>
        <time>2023-08-12T05:04:22Z</time>
      </trkpt>
      <trkpt lat="42.770490" lon="-7.443540">
        <ele>500.6</ele>
        <time>2023-08-12T05:04:39Z</time>
      </trkpt>
      <trkpt lat="42.770323" lon="-7.443650">
        <ele>500.5</ele>
        <time>2023-08-12T05:04:52Z</time>
      </trkpt>
      <trkpt lat="42.770162" lon="-7.443783">
        <ele>499.5</ele>
        <time>2023-08-12T05:05:09Z</time>
      </trkpt>
      <trkpt lat="42.770014" lon="-7.443932">
        <ele>499.5</ele>
        <time>2023-08-12T05:05:28Z</time>
      </trkpt>
      <trkpt lat="42.769879" lon="-7.444109">
        <ele>499.5</ele>
        <time>2023-08-12T05:05:41Z</time>
      </trkpt>
      <trkpt lat="42.769656" lon="-7.444376">
        <ele>520.7</ele>
        <time>2023-08-12T05:05:53Z</time>
      </trkpt>
      <trkpt lat="42.769570" lon="-7.444370">
        <ele>520.7</ele>
        <time>2023-08-12T05:06:05Z</time>
      </trkpt>
      <trkpt lat="42.769384" lon="-7.444372">
        <ele>520.7</ele>
        <time>2023-08-12T05:06:18Z</time>
      </trkpt>
      <trkpt lat="42.769194" lon="-7.444339">
        <ele>512.6</ele>
        <time>2023-08-12T05:06:31Z</time>
      </trkpt>
      <trkpt lat="42.769036" lon="-7.444211">
        <ele>520.7</ele>
        <time>2023-08-12T05:06:45Z</time>
      </trkpt>
      <trkpt lat="42.768786" lon="-7.444097">
        <ele>520.7</ele>
        <time>2023-08-12T05:06:58Z</time>
      </trkpt>
      <trkpt lat="42.768709" lon="-7.444263">
        <ele>522.0</ele>
        <time>2023-08-12T05:07:12Z</time>
      </trkpt>
      <trkpt lat="42.768607" lon="-7.444468">
        <ele>522.4</ele>
        <time>2023-08-12T05:07:26Z</time>
      </trkpt>
      <trkpt lat="42.768544" lon="-7.444702">
        <ele>525.4</ele>
        <time>2023-08-12T05:07:40Z</time>
      </trkpt>
      <trkpt lat="42.768573" lon="-7.444959">
        <ele>525.5</ele>
        <time>2023-08-12T05:07:57Z</time>
      </trkpt>
      <trkpt lat="42.768551" lon="-7.445237">
        <ele>524.5</ele>
        <time>2023-08-12T05:08:09Z</time>
      </trkpt>
      <trkpt lat="42.768422" lon="-7.445477">
        <ele>526.5</ele>
        <time>2023-08-12T05:08:24Z</time>
      </trkpt>
      <trkpt lat="42.768279" lon="-7.445598">
        <ele>526.5</ele>
        <time>2023-08-12T05:08:37Z</time>
      </trkpt>
      <trkpt lat="42.768116" lon="-7.445750">
        <ele>527.5</ele>
        <time>2023-08-12T05:08:50Z</time>
      </trkpt>
      <trkpt lat="42.767973" lon="-7.445861">
        <ele>528.5</ele>
        <time>2023-08-12T05:09:02Z</time>
      </trkpt>
      <trkpt lat="42.767810" lon="-7.445988">
        <ele>529.5</ele>
        <time>2023-08-12T05:09:16Z</time>
      </trkpt>
      <trkpt lat="42.767693" lon="-7.446203">
        <ele>529.5</ele>
        <time>2023-08-12T05:09:31Z</time>
      </trkpt>
      <trkpt lat="42.767558" lon="-7.446363">
        <ele>530.5</ele>
        <time>2023-08-12T05:09:46Z</time>
      </trkpt>
      <trkpt lat="42.767419" lon="-7.446490">
        <ele>532.5</ele>
        <time>2023-08-12T05:09:56Z</time>
      </trkpt>
      <trkpt lat="42.767279" lon="-7.446655">
        <ele>531.5</ele>
        <time>2023-08-12T05:10:10Z</time>
      </trkpt>
      <trkpt lat="42.767132" lon="-7.446823">
        <ele>532.4</ele>
        <time>2023-08-12T05:10:22Z</time>
      </trkpt>
      <trkpt lat="42.767025" lon="-7.447000">
        <ele>535.5</ele>
        <time>2023-08-12T05:10:35Z</time>
      </trkpt>
      <trkpt lat="42.766893" lon="-7.447183">
        <ele>539.4</ele>
        <time>2023-08-12T05:10:46Z</time>
      </trkpt>
      <trkpt lat="42.766813" lon="-7.447422">
        <ele>537.5</ele>
        <time>2023-08-12T05:11:02Z</time>
      </trkpt>
      <trkpt lat="42.766720" lon="-7.447631">
        <ele>538.5</ele>
        <time>2023-08-12T05:11:16Z</time>
      </trkpt>
      <trkpt lat="42.766639" lon="-7.447856">
        <ele>542.5</ele>
        <time>2023-08-12T05:11:30Z</time>
      </trkpt>
      <trkpt lat="42.766592" lon="-7.448098">
        <ele>543.5</ele>
        <time>2023-08-12T05:11:43Z</time>
      </trkpt>
      <trkpt lat="42.766565" lon="-7.448343">
        <ele>544.5</ele>
        <time>2023-08-12T05:11:57Z</time>
      </trkpt>
      <trkpt lat="42.766542" lon="-7.448589">
        <ele>544.5</ele>
        <time>2023-08-12T05:12:10Z</time>
      </trkpt>
      <trkpt lat="42.766551" lon="-7.448836">
        <ele>544.5</ele>
        <time>2023-08-12T05:12:23Z</time>
      </trkpt>
      <trkpt lat="42.766509" lon="-7.449078">
        <ele>544.5</ele>
        <time>2023-08-12T05:12:37Z</time>
      </trkpt>
      <trkpt lat="42.766452" lon="-7.449327">
        <ele>547.4</ele>
        <time>2023-08-12T05:12:56Z</time>
      </trkpt>
      <trkpt lat="42.766341" lon="-7.449535">
        <ele>549.5</ele>
        <time>2023-08-12T05:13:12Z</time>
      </trkpt>
      <trkpt lat="42.766263" lon="-7.449767">
        <ele>548.5</ele>
        <time>2023-08-12T05:13:25Z</time>
      </trkpt>
      <trkpt lat="42.766138" lon="-7.449960">
        <ele>548.4</ele>
        <time>2023-08-12T05:13:37Z</time>
      </trkpt>
      <trkpt lat="42.765981" lon="-7.450183">
        <ele>546.8</ele>
        <time>2023-08-12T05:13:55Z</time>
      </trkpt>
      <trkpt lat="42.765935" lon="-7.450396">
        <ele>544.8</ele>
        <time>2023-08-12T05:14:10Z</time>
      </trkpt>
      <trkpt lat="42.766088" lon="-7.450603">
        <ele>547.5</ele>
        <time>2023-08-12T05:14:24Z</time>
      </trkpt>
      <trkpt lat="42.766218" lon="-7.450801">
        <ele>553.4</ele>
        <time>2023-08-12T05:14:37Z</time>
      </trkpt>
      <trkpt lat="42.766353" lon="-7.450968">
        <ele>553.4</ele>
        <time>2023-08-12T05:14:51Z</time>
      </trkpt>
      <trkpt lat="42.766490" lon="-7.451141">
        <ele>553.4</ele>
        <time>2023-08-12T05:15:07Z</time>
      </trkpt>
      <trkpt lat="42.766643" lon="-7.451288">
        <ele>553.4</ele>
        <time>2023-08-12T05:15:22Z</time>
      </trkpt>
      <trkpt lat="42.766804" lon="-7.451415">
        <ele>553.4</ele>
        <time>2023-08-12T05:15:34Z</time>
      </trkpt>
      <trkpt lat="42.766950" lon="-7.451572">
        <ele>553.4</ele>
        <time>2023-08-12T05:15:46Z</time>
      </trkpt>
      <trkpt lat="42.767096" lon="-7.451721">
        <ele>557.5</ele>
        <time>2023-08-12T05:15:59Z</time>
      </trkpt>
      <trkpt lat="42.767257" lon="-7.451834">
        <ele>558.5</ele>
        <time>2023-08-12T05:16:10Z</time>
      </trkpt>
      <trkpt lat="42.767410" lon="-7.451978">
        <ele>558.5</ele>
        <time>2023-08-12T05:16:23Z</time>
      </trkpt>
      <trkpt lat="42.767576" lon="-7.452091">
        <ele>559.8</ele>
        <time>2023-08-12T05:16:36Z</time>
      </trkpt>
      <trkpt lat="42.767720" lon="-7.452252">
        <ele>561.5</ele>
        <time>2023-08-12T05:16:51Z</time>
      </trkpt>
      <trkpt lat="42.767884" lon="-7.452399">
        <ele>564.5</ele>
        <time>2023-08-12T05:17:04Z</time>
      </trkpt>
      <trkpt lat="42.768042" lon="-7.452525">
        <ele>565.5</ele>
        <time>2023-08-12T05:17:18Z</time>
      </trkpt>
      <trkpt lat="42.768204" lon="-7.452648">
        <ele>567.2</ele>
        <time>2023-08-12T05:17:32Z</time>
      </trkpt>
      <trkpt lat="42.768378" lon="-7.452734">
        <ele>570.2</ele>
        <time>2023-08-12T05:17:44Z</time>
      </trkpt>
      <trkpt lat="42.768551" lon="-7.452834">
        <ele>570.5</ele>
        <time>2023-08-12T05:17:59Z</time>
      </trkpt>
      <trkpt lat="42.768671" lon="-7.452958">
        <ele>571.5</ele>
        <time>2023-08-12T05:18:30Z</time>
      </trkpt>
      <trkpt lat="42.768779" lon="-7.453166">
        <ele>571.5</ele>
        <time>2023-08-12T05:18:42Z</time>
      </trkpt>
      <trkpt lat="42.768887" lon="-7.453364">
        <ele>570.2</ele>
        <time>2023-08-12T05:18:55Z</time>
      </trkpt>
      <trkpt lat="42.768995" lon="-7.453564">
        <ele>570.5</ele>
        <time>2023-08-12T05:19:08Z</time>
      </trkpt>
      <trkpt lat="42.769087" lon="-7.453780">
        <ele>569.5</ele>
        <time>2023-08-12T05:19:21Z</time>
      </trkpt>
      <trkpt lat="42.769192" lon="-7.453988">
        <ele>571.5</ele>
        <time>2023-08-12T05:19:34Z</time>
      </trkpt>
      <trkpt lat="42.769269" lon="-7.454210">
        <ele>575.2</ele>
        <time>2023-08-12T05:19:46Z</time>
      </trkpt>
      <trkpt lat="42.769323" lon="-7.454446">
        <ele>575.5</ele>
        <time>2023-08-12T05:19:59Z</time>
      </trkpt>
      <trkpt lat="42.769407" lon="-7.454682">
        <ele>577.5</ele>
        <time>2023-08-12T05:20:12Z</time>
      </trkpt>
      <trkpt lat="42.769426" lon="-7.454937">
        <ele>576.6</ele>
        <time>2023-08-12T05:20:27Z</time>
      </trkpt>
      <trkpt lat="42.769444" lon="-7.455189">
        <ele>578.5</ele>
        <time>2023-08-12T05:20:41Z</time>
      </trkpt>
      <trkpt lat="42.769460" lon="-7.455434">
        <ele>578.5</ele>
        <time>2023-08-12T05:20:52Z</time>
      </trkpt>
      <trkpt lat="42.769513" lon="-7.455671">
        <ele>581.6</ele>
        <time>2023-08-12T05:21:06Z</time>
      </trkpt>
      <trkpt lat="42.769561" lon="-7.455910">
        <ele>583.5</ele>
        <time>2023-08-12T05:21:20Z</time>
      </trkpt>
      <trkpt lat="42.769536" lon="-7.456153">
        <ele>583.5</ele>
        <time>2023-08-12T05:21:35Z</time>
      </trkpt>
      <trkpt lat="42.769444" lon="-7.456367">
        <ele>586.5</ele>
        <time>2023-08-12T05:21:48Z</time>
      </trkpt>
      <trkpt lat="42.769308" lon="-7.456531">
        <ele>586.5</ele>
        <time>2023-08-12T05:22:04Z</time>
      </trkpt>
      <trkpt lat="42.769160" lon="-7.456674">
        <ele>587.5</ele>
        <time>2023-08-12T05:22:16Z</time>
      </trkpt>
      <trkpt lat="42.769004" lon="-7.456809">
        <ele>589.5</ele>
        <time>2023-08-12T05:22:30Z</time>
      </trkpt>
      <trkpt lat="42.768875" lon="-7.456990">
        <ele>590.5</ele>
        <time>2023-08-12T05:22:46Z</time>
      </trkpt>
      <trkpt lat="42.768771" lon="-7.457197">
        <ele>590.5</ele>
        <time>2023-08-12T05:22:58Z</time>
      </trkpt>
      <trkpt lat="42.768788" lon="-7.457442">
        <ele>594.5</ele>
        <time>2023-08-12T05:23:11Z</time>
      </trkpt>
      <trkpt lat="42.768652" lon="-7.457609">
        <ele>590.5</ele>
        <time>2023-08-12T05:23:44Z</time>
      </trkpt>
      <trkpt lat="42.768535" lon="-7.457804">
        <ele>587.5</ele>
        <time>2023-08-12T05:23:58Z</time>
      </trkpt>
      <trkpt lat="42.768462" lon="-7.458037">
        <ele>590.5</ele>
        <time>2023-08-12T05:24:14Z</time>
      </trkpt>
      <trkpt lat="42.768400" lon="-7.458273">
        <ele>587.5</ele>
        <time>2023-08-12T05:24:29Z</time>
      </trkpt>
      <trkpt lat="42.768317" lon="-7.458499">
        <ele>588.5</ele>
        <time>2023-08-12T05:24:41Z</time>
      </trkpt>
      <trkpt lat="42.768226" lon="-7.458732">
        <ele>592.4</ele>
        <time>2023-08-12T05:24:52Z</time>
      </trkpt>
      <trkpt lat="42.768033" lon="-7.458959">
        <ele>593.8</ele>
        <time>2023-08-12T05:25:07Z</time>
      </trkpt>
      <trkpt lat="42.768096" lon="-7.459101">
        <ele>593.5</ele>
        <time>2023-08-12T05:25:19Z</time>
      </trkpt>
      <trkpt lat="42.768205" lon="-7.459296">
        <ele>592.8</ele>
        <time>2023-08-12T05:25:31Z</time>
      </trkpt>
      <trkpt lat="42.768342" lon="-7.459471">
        <ele>593.5</ele>
        <time>2023-08-12T05:25:45Z</time>
      </trkpt>
      <trkpt lat="42.768511" lon="-7.459560">
        <ele>592.6</ele>
        <time>2023-08-12T05:25:58Z</time>
      </trkpt>
      <trkpt lat="42.768674" lon="-7.459671">
        <ele>598.1</ele>
        <time>2023-08-12T05:26:08Z</time>
      </trkpt>
      <trkpt lat="42.768764" lon="-7.459920">
        <ele>601.2</ele>
        <time>2023-08-12T05:26:21Z</time>
      </trkpt>
      <trkpt lat="42.768940" lon="-7.460157">
        <ele>598.7</ele>
        <time>2023-08-12T05:26:34Z</time>
      </trkpt>
      <trkpt lat="42.768949" lon="-7.460327">
        <ele>598.7</ele>
        <time>2023-08-12T05:26:48Z</time>
      </trkpt>
      <trkpt lat="42.769035" lon="-7.460529">
        <ele>598.7</ele>
        <time>2023-08-12T05:27:06Z</time>
      </trkpt>
      <trkpt lat="42.769113" lon="-7.460756">
        <ele>598.7</ele>
        <time>2023-08-12T05:27:21Z</time>
      </trkpt>
      <trkpt lat="42.769197" lon="-7.460981">
        <ele>598.7</ele>
        <time>2023-08-12T05:27:32Z</time>
      </trkpt>
      <trkpt lat="42.769198" lon="-7.461248">
        <ele>595.4</ele>
        <time>2023-08-12T05:27:44Z</time>
      </trkpt>
      <trkpt lat="42.769206" lon="-7.461514">
        <ele>594.4</ele>
        <time>2023-08-12T05:27:56Z</time>
      </trkpt>
      <trkpt lat="42.769215" lon="-7.461763">
        <ele>596.5</ele>
        <time>2023-08-12T05:28:10Z</time>
      </trkpt>
      <trkpt lat="42.769252" lon="-7.462004">
        <ele>599.5</ele>
        <time>2023-08-12T05:28:24Z</time>
      </trkpt>
      <trkpt lat="42.769287" lon="-7.462253">
        <ele>600.5</ele>
        <time>2023-08-12T05:28:37Z</time>
      </trkpt>
      <trkpt lat="42.769328" lon="-7.462493">
        <ele>601.5</ele>
        <time>2023-08-12T05:28:53Z</time>
      </trkpt>
      <trkpt lat="42.769334" lon="-7.462745">
        <ele>603.4</ele>
        <time>2023-08-12T05:29:07Z</time>
      </trkpt>
      <trkpt lat="42.769305" lon="-7.462989">
        <ele>602.5</ele>
        <time>2023-08-12T05:29:21Z</time>
      </trkpt>
      <trkpt lat="42.769286" lon="-7.463241">
        <ele>603.5</ele>
        <time>2023-08-12T05:29:36Z</time>
      </trkpt>
      <trkpt lat="42.769392" lon="-7.463444">
        <ele>605.4</ele>
        <time>2023-08-12T05:29:51Z</time>
      </trkpt>
      <trkpt lat="42.769508" lon="-7.463639">
        <ele>610.5</ele>
        <time>2023-08-12T05:30:05Z</time>
      </trkpt>
      <trkpt lat="42.769621" lon="-7.463830">
        <ele>614.4</ele>
        <time>2023-08-12T05:30:20Z</time>
      </trkpt>
      <trkpt lat="42.769661" lon="-7.464077">
        <ele>616.5</ele>
        <time>2023-08-12T05:30:34Z</time>
      </trkpt>
      <trkpt lat="42.769674" lon="-7.464325">
        <ele>616.5</ele>
        <time>2023-08-12T05:30:49Z</time>
      </trkpt>
      <trkpt lat="42.769712" lon="-7.464576">
        <ele>618.5</ele>
        <time>2023-08-12T05:31:04Z</time>
      </trkpt>
      <trkpt lat="42.769703" lon="-7.464958">
        <ele>618.5</ele>
        <time>2023-08-12T05:31:14Z</time>
      </trkpt>
      <trkpt lat="42.769783" lon="-7.465036">
        <ele>619.5</ele>
        <time>2023-08-12T05:31:28Z</time>
      </trkpt>
      <trkpt lat="42.769884" lon="-7.465241">
        <ele>617.5</ele>
        <time>2023-08-12T05:31:40Z</time>
      </trkpt>
      <trkpt lat="42.770053" lon="-7.465424">
        <ele>619.8</ele>
        <time>2023-08-12T05:31:54Z</time>
      </trkpt>
      <trkpt lat="42.770066" lon="-7.465689">
        <ele>624.5</ele>
        <time>2023-08-12T05:33:04Z</time>
      </trkpt>
      <trkpt lat="42.770114" lon="-7.465930">
        <ele>628.5</ele>
        <time>2023-08-12T05:33:19Z</time>
      </trkpt>
      <trkpt lat="42.770135" lon="-7.466178">
        <ele>629.7</ele>
        <time>2023-08-12T05:33:33Z</time>
      </trkpt>
      <trkpt lat="42.770216" lon="-7.466451">
        <ele>629.7</ele>
        <time>2023-08-12T05:33:48Z</time>
      </trkpt>
      <trkpt lat="42.770355" lon="-7.466593">
        <ele>629.7</ele>
        <time>2023-08-12T05:34:02Z</time>
      </trkpt>
      <trkpt lat="42.770560" lon="-7.466625">
        <ele>635.2</ele>
        <time>2023-08-12T05:34:19Z</time>
      </trkpt>
      <trkpt lat="42.770746" lon="-7.466686">
        <ele>636.8</ele>
        <time>2023-08-12T05:34:32Z</time>
      </trkpt>
      <trkpt lat="42.770880" lon="-7.466855">
        <ele>635.5</ele>
        <time>2023-08-12T05:34:48Z</time>
      </trkpt>
      <trkpt lat="42.770965" lon="-7.467078">
        <ele>636.8</ele>
        <time>2023-08-12T05:35:03Z</time>
      </trkpt>
      <trkpt lat="42.771094" lon="-7.467256">
        <ele>636.5</ele>
        <time>2023-08-12T05:35:19Z</time>
      </trkpt>
      <trkpt lat="42.771282" lon="-7.467242">
        <ele>629.5</ele>
        <time>2023-08-12T05:35:38Z</time>
      </trkpt>
      <trkpt lat="42.771432" lon="-7.467274">
        <ele>629.5</ele>
        <time>2023-08-12T05:35:52Z</time>
      </trkpt>
      <trkpt lat="42.771591" lon="-7.467305">
        <ele>629.8</ele>
        <time>2023-08-12T05:36:04Z</time>
      </trkpt>
      <trkpt lat="42.771730" lon="-7.467444">
        <ele>629.8</ele>
        <time>2023-08-12T05:36:22Z</time>
      </trkpt>
      <trkpt lat="42.771859" lon="-7.467616">
        <ele>629.8</ele>
        <time>2023-08-12T05:36:35Z</time>
      </trkpt>
      <trkpt lat="42.772011" lon="-7.467757">
        <ele>629.8</ele>
        <time>2023-08-12T05:36:54Z</time>
      </trkpt>
      <trkpt lat="42.772160" lon="-7.467899">
        <ele>629.8</ele>
        <time>2023-08-12T05:37:06Z</time>
      </trkpt>
      <trkpt lat="42.772311" lon="-7.468034">
        <ele>629.8</ele>
        <time>2023-08-12T05:37:20Z</time>
      </trkpt>
      <trkpt lat="42.772444" lon="-7.468200">
        <ele>628.4</ele>
        <time>2023-08-12T05:37:33Z</time>
      </trkpt>
      <trkpt lat="42.772569" lon="-7.468381">
        <ele>627.5</ele>
        <time>2023-08-12T05:37:46Z</time>
      </trkpt>
      <trkpt lat="42.772700" lon="-7.468552">
        <ele>629.5</ele>
        <time>2023-08-12T05:38:00Z</time>
      </trkpt>
      <trkpt lat="42.772845" lon="-7.468706">
        <ele>628.5</ele>
        <time>2023-08-12T05:38:13Z</time>
      </trkpt>
      <trkpt lat="42.772980" lon="-7.468877">
        <ele>627.5</ele>
        <time>2023-08-12T05:38:28Z</time>
      </trkpt>
      <trkpt lat="42.773124" lon="-7.469028">
        <ele>625.5</ele>
        <time>2023-08-12T05:38:41Z</time>
      </trkpt>
      <trkpt lat="42.773257" lon="-7.469195">
        <ele>626.5</ele>
        <time>2023-08-12T05:38:54Z</time>
      </trkpt>
      <trkpt lat="42.773349" lon="-7.469407">
        <ele>623.8</ele>
        <time>2023-08-12T05:39:08Z</time>
      </trkpt>
      <trkpt lat="42.773455" lon="-7.469626">
        <ele>620.4</ele>
        <time>2023-08-12T05:39:22Z</time>
      </trkpt>
      <trkpt lat="42.773531" lon="-7.469854">
        <ele>622.5</ele>
        <time>2023-08-12T05:39:37Z</time>
      </trkpt>
      <trkpt lat="42.773648" lon="-7.470042">
        <ele>621.5</ele>
        <time>2023-08-12T05:39:53Z</time>
      </trkpt>
      <trkpt lat="42.773773" lon="-7.470218">
        <ele>618.8</ele>
        <time>2023-08-12T05:40:08Z</time>
      </trkpt>
      <trkpt lat="42.773895" lon="-7.470408">
        <ele>617.5</ele>
        <time>2023-08-12T05:40:21Z</time>
      </trkpt>
      <trkpt lat="42.774040" lon="-7.470583">
        <ele>622.5</ele>
        <time>2023-08-12T05:41:01Z</time>
      </trkpt>
      <trkpt lat="42.774165" lon="-7.470792">
        <ele>621.4</ele>
        <time>2023-08-12T05:41:16Z</time>
      </trkpt>
      <trkpt lat="42.774246" lon="-7.471019">
        <ele>621.6</ele>
        <time>2023-08-12T05:41:29Z</time>
      </trkpt>
      <trkpt lat="42.774422" lon="-7.471117">
        <ele>613.5</ele>
        <time>2023-08-12T05:41:56Z</time>
      </trkpt>
      <trkpt lat="42.774581" lon="-7.471262">
        <ele>610.8</ele>
        <time>2023-08-12T05:42:07Z</time>
      </trkpt>
      <trkpt lat="42.774718" lon="-7.471433">
        <ele>611.5</ele>
        <time>2023-08-12T05:42:21Z</time>
      </trkpt>
      <trkpt lat="42.774815" lon="-7.471640">
        <ele>611.6</ele>
        <time>2023-08-12T05:42:35Z</time>
      </trkpt>
      <trkpt lat="42.774939" lon="-7.471823">
        <ele>616.5</ele>
        <time>2023-08-12T05:42:51Z</time>
      </trkpt>
      <trkpt lat="42.775015" lon="-7.472047">
        <ele>620.5</ele>
        <time>2023-08-12T05:43:19Z</time>
      </trkpt>
      <trkpt lat="42.774944" lon="-7.472285">
        <ele>620.5</ele>
        <time>2023-08-12T05:43:51Z</time>
      </trkpt>
      <trkpt lat="42.774845" lon="-7.472472">
        <ele>620.5</ele>
        <time>2023-08-12T05:44:03Z</time>
      </trkpt>
      <trkpt lat="42.774773" lon="-7.472729">
        <ele>621.4</ele>
        <time>2023-08-12T05:44:16Z</time>
      </trkpt>
      <trkpt lat="42.774728" lon="-7.472980">
        <ele>619.5</ele>
        <time>2023-08-12T05:44:29Z</time>
      </trkpt>
      <trkpt lat="42.774653" lon="-7.473211">
        <ele>618.5</ele>
        <time>2023-08-12T05:44:44Z</time>
      </trkpt>
      <trkpt lat="42.774577" lon="-7.473438">
        <ele>618.5</ele>
        <time>2023-08-12T05:44:56Z</time>
      </trkpt>
      <trkpt lat="42.774518" lon="-7.473672">
        <ele>615.6</ele>
        <time>2023-08-12T05:45:10Z</time>
      </trkpt>
      <trkpt lat="42.774429" lon="-7.473886">
        <ele>614.5</ele>
        <time>2023-08-12T05:45:26Z</time>
      </trkpt>
      <trkpt lat="42.774359" lon="-7.474113">
        <ele>613.5</ele>
        <time>2023-08-12T05:45:42Z</time>
      </trkpt>
      <trkpt lat="42.774288" lon="-7.474338">
        <ele>612.5</ele>
        <time>2023-08-12T05:45:54Z</time>
      </trkpt>
      <trkpt lat="42.774231" lon="-7.474577">
        <ele>610.6</ele>
        <time>2023-08-12T05:46:10Z</time>
      </trkpt>
      <trkpt lat="42.774166" lon="-7.474812">
        <ele>609.5</ele>
        <time>2023-08-12T05:46:26Z</time>
      </trkpt>
      <trkpt lat="42.774107" lon="-7.475062">
        <ele>612.5</ele>
        <time>2023-08-12T05:46:50Z</time>
      </trkpt>
      <trkpt lat="42.774022" lon="-7.475283">
        <ele>612.5</ele>
        <time>2023-08-12T05:47:02Z</time>
      </trkpt>
      <trkpt lat="42.773950" lon="-7.475515">
        <ele>607.6</ele>
        <time>2023-08-12T05:47:16Z</time>
      </trkpt>
      <trkpt lat="42.773884" lon="-7.475751">
        <ele>607.6</ele>
        <time>2023-08-12T05:47:28Z</time>
      </trkpt>
      <trkpt lat="42.773796" lon="-7.475966">
        <ele>607.4</ele>
        <time>2023-08-12T05:47:43Z</time>
      </trkpt>
      <trkpt lat="42.773738" lon="-7.476165">
        <ele>605.5</ele>
        <time>2023-08-12T05:47:58Z</time>
      </trkpt>
      <trkpt lat="42.773659" lon="-7.476417">
        <ele>604.5</ele>
        <time>2023-08-12T05:48:14Z</time>
      </trkpt>
      <trkpt lat="42.773547" lon="-7.476622">
        <ele>607.2</ele>
        <time>2023-08-12T05:48:29Z</time>
      </trkpt>
      <trkpt lat="42.773407" lon="-7.476793">
        <ele>609.2</ele>
        <time>2023-08-12T05:48:40Z</time>
      </trkpt>
      <trkpt lat="42.773278" lon="-7.476971">
        <ele>610.4</ele>
        <time>2023-08-12T05:48:55Z</time>
      </trkpt>
      <trkpt lat="42.773192" lon="-7.477190">
        <ele>609.5</ele>
        <time>2023-08-12T05:49:09Z</time>
      </trkpt>
      <trkpt lat="42.773171" lon="-7.477436">
        <ele>608.5</ele>
        <time>2023-08-12T05:49:25Z</time>
      </trkpt>
      <trkpt lat="42.773175" lon="-7.477690">
        <ele>607.5</ele>
        <time>2023-08-12T05:49:41Z</time>
      </trkpt>
      <trkpt lat="42.773151" lon="-7.477938">
        <ele>604.5</ele>
        <time>2023-08-12T05:49:56Z</time>
      </trkpt>
      <trkpt lat="42.773113" lon="-7.478179">
        <ele>604.6</ele>
        <time>2023-08-12T05:50:13Z</time>
      </trkpt>
      <trkpt lat="42.773024" lon="-7.478397">
        <ele>603.4</ele>
        <time>2023-08-12T05:50:26Z</time>
      </trkpt>
      <trkpt lat="42.772889" lon="-7.478569">
        <ele>602.8</ele>
        <time>2023-08-12T05:50:40Z</time>
      </trkpt>
      <trkpt lat="42.772835" lon="-7.478810">
        <ele>601.5</ele>
        <time>2023-08-12T05:50:52Z</time>
      </trkpt>
      <trkpt lat="42.772792" lon="-7.479052">
        <ele>599.5</ele>
        <time>2023-08-12T05:51:05Z</time>
      </trkpt>
      <trkpt lat="42.772726" lon="-7.479290">
        <ele>597.5</ele>
        <time>2023-08-12T05:51:20Z</time>
      </trkpt>
      <trkpt lat="42.772642" lon="-7.479511">
        <ele>599.4</ele>
        <time>2023-08-12T05:51:36Z</time>
      </trkpt>
      <trkpt lat="42.772516" lon="-7.479821">
        <ele>598.9</ele>
        <time>2023-08-12T05:51:48Z</time>
      </trkpt>
      <trkpt lat="42.772684" lon="-7.479979">
        <ele>602.8</ele>
        <time>2023-08-12T05:52:04Z</time>
      </trkpt>
      <trkpt lat="42.772872" lon="-7.480030">
        <ele>600.6</ele>
        <time>2023-08-12T05:52:19Z</time>
      </trkpt>
      <trkpt lat="42.773053" lon="-7.479926">
        <ele>600.5</ele>
        <time>2023-08-12T05:52:33Z</time>
      </trkpt>
      <trkpt lat="42.773210" lon="-7.479885">
        <ele>596.9</ele>
        <time>2023-08-12T05:53:01Z</time>
      </trkpt>
      <trkpt lat="42.773401" lon="-7.479894">
        <ele>598.2</ele>
        <time>2023-08-12T05:53:45Z</time>
      </trkpt>
      <trkpt lat="42.773571" lon="-7.479897">
        <ele>590.6</ele>
        <time>2023-08-12T05:54:04Z</time>
      </trkpt>
      <trkpt lat="42.773755" lon="-7.479926">
        <ele>588.5</ele>
        <time>2023-08-12T05:54:28Z</time>
      </trkpt>
      <trkpt lat="42.773940" lon="-7.479960">
        <ele>588.5</ele>
        <time>2023-08-12T05:54:40Z</time>
      </trkpt>
      <trkpt lat="42.774115" lon="-7.480028">
        <ele>591.2</ele>
        <time>2023-08-12T05:54:55Z</time>
      </trkpt>
      <trkpt lat="42.774303" lon="-7.480041">
        <ele>598.4</ele>
        <time>2023-08-12T05:55:22Z</time>
      </trkpt>
      <trkpt lat="42.774456" lon="-7.480178">
        <ele>601.2</ele>
        <time>2023-08-12T05:55:35Z</time>
      </trkpt>
      <trkpt lat="42.774609" lon="-7.480306">
        <ele>600.8</ele>
        <time>2023-08-12T05:55:50Z</time>
      </trkpt>
      <trkpt lat="42.774769" lon="-7.480445">
        <ele>601.2</ele>
        <time>2023-08-12T05:56:03Z</time>
      </trkpt>
      <trkpt lat="42.774931" lon="-7.480568">
        <ele>599.5</ele>
        <time>2023-08-12T05:56:18Z</time>
      </trkpt>
      <trkpt lat="42.775070" lon="-7.480732">
        <ele>603.5</ele>
        <time>2023-08-12T05:56:32Z</time>
      </trkpt>
      <trkpt lat="42.775283" lon="-7.480721">
        <ele>602.5</ele>
        <time>2023-08-12T05:56:45Z</time>
      </trkpt>
      <trkpt lat="42.775463" lon="-7.480763">
        <ele>605.8</ele>
        <time>2023-08-12T05:56:58Z</time>
      </trkpt>
      <trkpt lat="42.775638" lon="-7.480847">
        <ele>604.5</ele>
        <time>2023-08-12T05:57:14Z</time>
      </trkpt>
      <trkpt lat="42.775823" lon="-7.480928">
        <ele>605.5</ele>
        <time>2023-08-12T05:57:27Z</time>
      </trkpt>
      <trkpt lat="42.776005" lon="-7.480989">
        <ele>605.5</ele>
        <time>2023-08-12T05:57:41Z</time>
      </trkpt>
      <trkpt lat="42.776172" lon="-7.481083">
        <ele>607.5</ele>
        <time>2023-08-12T05:57:54Z</time>
      </trkpt>
      <trkpt lat="42.776351" lon="-7.481150">
        <ele>606.5</ele>
        <time>2023-08-12T05:58:09Z</time>
      </trkpt>
      <trkpt lat="42.776532" lon="-7.481214">
        <ele>607.8</ele>
        <time>2023-08-12T05:58:21Z</time>
      </trkpt>
      <trkpt lat="42.776699" lon="-7.481312">
        <ele>610.5</ele>
        <time>2023-08-12T05:58:35Z</time>
      </trkpt>
      <trkpt lat="42.776861" lon="-7.481428">
        <ele>611.5</ele>
        <time>2023-08-12T05:58:48Z</time>
      </trkpt>
      <trkpt lat="42.777008" lon="-7.481581">
        <ele>613.5</ele>
        <time>2023-08-12T05:59:27Z</time>
      </trkpt>
      <trkpt lat="42.777143" lon="-7.481650">
        <ele>613.5</ele>
        <time>2023-08-12T05:59:42Z</time>
      </trkpt>
      <trkpt lat="42.777354" lon="-7.481703">
        <ele>612.5</ele>
        <time>2023-08-12T05:59:53Z</time>
      </trkpt>
      <trkpt lat="42.777534" lon="-7.481745">
        <ele>613.6</ele>
        <time>2023-08-12T06:00:07Z</time>
      </trkpt>
      <trkpt lat="42.777711" lon="-7.481822">
        <ele>614.5</ele>
        <time>2023-08-12T06:00:21Z</time>
      </trkpt>
      <trkpt lat="42.777885" lon="-7.481889">
        <ele>614.5</ele>
        <time>2023-08-12T06:00:34Z</time>
      </trkpt>
      <trkpt lat="42.778061" lon="-7.481950">
        <ele>617.5</ele>
        <time>2023-08-12T06:00:48Z</time>
      </trkpt>
      <trkpt lat="42.778244" lon="-7.482022">
        <ele>615.2</ele>
        <time>2023-08-12T06:01:02Z</time>
      </trkpt>
      <trkpt lat="42.778397" lon="-7.482155">
        <ele>615.2</ele>
        <time>2023-08-12T06:01:16Z</time>
      </trkpt>
      <trkpt lat="42.778560" lon="-7.482264">
        <ele>615.2</ele>
        <time>2023-08-12T06:01:29Z</time>
      </trkpt>
      <trkpt lat="42.778723" lon="-7.482387">
        <ele>615.2</ele>
        <time>2023-08-12T06:01:42Z</time>
      </trkpt>
      <trkpt lat="42.778889" lon="-7.482504">
        <ele>615.2</ele>
        <time>2023-08-12T06:01:56Z</time>
      </trkpt>
      <trkpt lat="42.779067" lon="-7.482614">
        <ele>615.2</ele>
        <time>2023-08-12T06:02:09Z</time>
      </trkpt>
      <trkpt lat="42.779237" lon="-7.482700">
        <ele>615.2</ele>
        <time>2023-08-12T06:02:23Z</time>
      </trkpt>
      <trkpt lat="42.779393" lon="-7.482838">
        <ele>623.5</ele>
        <time>2023-08-12T06:02:38Z</time>
      </trkpt>
      <trkpt lat="42.779559" lon="-7.482934">
        <ele>628.7</ele>
        <time>2023-08-12T06:02:56Z</time>
      </trkpt>
      <trkpt lat="42.779730" lon="-7.483018">
        <ele>628.7</ele>
        <time>2023-08-12T06:03:08Z</time>
      </trkpt>
      <trkpt lat="42.779905" lon="-7.483102">
        <ele>628.7</ele>
        <time>2023-08-12T06:03:23Z</time>
      </trkpt>
      <trkpt lat="42.780078" lon="-7.483175">
        <ele>628.7</ele>
        <time>2023-08-12T06:03:35Z</time>
      </trkpt>
      <trkpt lat="42.780252" lon="-7.483264">
        <ele>628.7</ele>
        <time>2023-08-12T06:03:49Z</time>
      </trkpt>
      <trkpt lat="42.780443" lon="-7.483265">
        <ele>628.7</ele>
        <time>2023-08-12T06:04:03Z</time>
      </trkpt>
      <trkpt lat="42.780617" lon="-7.483346">
        <ele>628.7</ele>
        <time>2023-08-12T06:04:15Z</time>
      </trkpt>
      <trkpt lat="42.780768" lon="-7.483491">
        <ele>628.7</ele>
        <time>2023-08-12T06:04:30Z</time>
      </trkpt>
      <trkpt lat="42.780899" lon="-7.483668">
        <ele>628.7</ele>
        <time>2023-08-12T06:04:41Z</time>
      </trkpt>
      <trkpt lat="42.781025" lon="-7.483843">
        <ele>632.5</ele>
        <time>2023-08-12T06:04:54Z</time>
      </trkpt>
      <trkpt lat="42.781117" lon="-7.484055">
        <ele>632.5</ele>
        <time>2023-08-12T06:05:08Z</time>
      </trkpt>
      <trkpt lat="42.781166" lon="-7.484294">
        <ele>632.5</ele>
        <time>2023-08-12T06:05:21Z</time>
      </trkpt>
      <trkpt lat="42.781173" lon="-7.484547">
        <ele>631.5</ele>
        <time>2023-08-12T06:05:35Z</time>
      </trkpt>
      <trkpt lat="42.781153" lon="-7.484800">
        <ele>632.5</ele>
        <time>2023-08-12T06:05:49Z</time>
      </trkpt>
      <trkpt lat="42.781132" lon="-7.485047">
        <ele>634.2</ele>
        <time>2023-08-12T06:06:07Z</time>
      </trkpt>
      <trkpt lat="42.781090" lon="-7.485296">
        <ele>631.8</ele>
        <time>2023-08-12T06:06:21Z</time>
      </trkpt>
      <trkpt lat="42.781046" lon="-7.485535">
        <ele>634.4</ele>
        <time>2023-08-12T06:06:34Z</time>
      </trkpt>
      <trkpt lat="42.781013" lon="-7.485781">
        <ele>634.5</ele>
        <time>2023-08-12T06:06:47Z</time>
      </trkpt>
      <trkpt lat="42.780975" lon="-7.486028">
        <ele>634.5</ele>
        <time>2023-08-12T06:07:01Z</time>
      </trkpt>
      <trkpt lat="42.780961" lon="-7.486276">
        <ele>636.5</ele>
        <time>2023-08-12T06:07:14Z</time>
      </trkpt>
      <trkpt lat="42.780981" lon="-7.486531">
        <ele>634.5</ele>
        <time>2023-08-12T06:07:27Z</time>
      </trkpt>
      <trkpt lat="42.780997" lon="-7.486777">
        <ele>637.4</ele>
        <time>2023-08-12T06:07:40Z</time>
      </trkpt>
      <trkpt lat="42.781013" lon="-7.487021">
        <ele>636.5</ele>
        <time>2023-08-12T06:07:53Z</time>
      </trkpt>
      <trkpt lat="42.780993" lon="-7.487269">
        <ele>637.5</ele>
        <time>2023-08-12T06:08:06Z</time>
      </trkpt>
      <trkpt lat="42.780996" lon="-7.487521">
        <ele>636.5</ele>
        <time>2023-08-12T06:08:22Z</time>
      </trkpt>
      <trkpt lat="42.781054" lon="-7.487758">
        <ele>635.5</ele>
        <time>2023-08-12T06:08:35Z</time>
      </trkpt>
      <trkpt lat="42.781105" lon="-7.487995">
        <ele>635.5</ele>
        <time>2023-08-12T06:08:48Z</time>
      </trkpt>
      <trkpt lat="42.781101" lon="-7.488242">
        <ele>635.5</ele>
        <time>2023-08-12T06:09:02Z</time>
      </trkpt>
      <trkpt lat="42.781116" lon="-7.488488">
        <ele>634.5</ele>
        <time>2023-08-12T06:09:16Z</time>
      </trkpt>
      <trkpt lat="42.781105" lon="-7.488738">
        <ele>635.5</ele>
        <time>2023-08-12T06:09:28Z</time>
      </trkpt>
      <trkpt lat="42.781105" lon="-7.488992">
        <ele>635.5</ele>
        <time>2023-08-12T06:09:41Z</time>
      </trkpt>
      <trkpt lat="42.781068" lon="-7.489237">
        <ele>638.2</ele>
        <time>2023-08-12T06:09:55Z</time>
      </trkpt>
      <trkpt lat="42.781054" lon="-7.489489">
        <ele>638.8</ele>
        <time>2023-08-12T06:10:08Z</time>
      </trkpt>
      <trkpt lat="42.781049" lon="-7.489740">
        <ele>638.5</ele>
        <time>2023-08-12T06:10:21Z</time>
      </trkpt>
      <trkpt lat="42.781027" lon="-7.489988">
        <ele>641.4</ele>
        <time>2023-08-12T06:10:35Z</time>
      </trkpt>
      <trkpt lat="42.781025" lon="-7.490243">
        <ele>640.5</ele>
        <time>2023-08-12T06:10:49Z</time>
      </trkpt>
      <trkpt lat="42.781050" lon="-7.490489">
        <ele>638.2</ele>
        <time>2023-08-12T06:11:01Z</time>
      </trkpt>
      <trkpt lat="42.781061" lon="-7.490741">
        <ele>639.2</ele>
        <time>2023-08-12T06:11:14Z</time>
      </trkpt>
      <trkpt lat="42.781047" lon="-7.490995">
        <ele>636.8</ele>
        <time>2023-08-12T06:11:28Z</time>
      </trkpt>
      <trkpt lat="42.781020" lon="-7.491241">
        <ele>636.2</ele>
        <time>2023-08-12T06:11:40Z</time>
      </trkpt>
      <trkpt lat="42.780956" lon="-7.491474">
        <ele>637.5</ele>
        <time>2023-08-12T06:11:53Z</time>
      </trkpt>
      <trkpt lat="42.780895" lon="-7.491710">
        <ele>636.3</ele>
        <time>2023-08-12T06:12:06Z</time>
      </trkpt>
      <trkpt lat="42.780811" lon="-7.491933">
        <ele>636.3</ele>
        <time>2023-08-12T06:12:18Z</time>
      </trkpt>
      <trkpt lat="42.780751" lon="-7.492174">
        <ele>637.8</ele>
        <time>2023-08-12T06:12:32Z</time>
      </trkpt>
      <trkpt lat="42.780701" lon="-7.492420">
        <ele>637.8</ele>
        <time>2023-08-12T06:12:45Z</time>
      </trkpt>
      <trkpt lat="42.780668" lon="-7.492662">
        <ele>637.8</ele>
        <time>2023-08-12T06:12:58Z</time>
      </trkpt>
      <trkpt lat="42.780604" lon="-7.492902">
        <ele>637.8</ele>
        <time>2023-08-12T06:13:12Z</time>
      </trkpt>
      <trkpt lat="42.780587" lon="-7.493149">
        <ele>640.5</ele>
        <time>2023-08-12T06:13:26Z</time>
      </trkpt>
      <trkpt lat="42.780542" lon="-7.493393">
        <ele>638.5</ele>
        <time>2023-08-12T06:13:40Z</time>
      </trkpt>
      <trkpt lat="42.780416" lon="-7.493579">
        <ele>640.5</ele>
        <time>2023-08-12T06:13:53Z</time>
      </trkpt>
      <trkpt lat="42.780301" lon="-7.493775">
        <ele>636.1</ele>
        <time>2023-08-12T06:14:08Z</time>
      </trkpt>
      <trkpt lat="42.780243" lon="-7.494020">
        <ele>636.1</ele>
        <time>2023-08-12T06:14:19Z</time>
      </trkpt>
      <trkpt lat="42.780191" lon="-7.494257">
        <ele>636.1</ele>
        <time>2023-08-12T06:14:36Z</time>
      </trkpt>
      <trkpt lat="42.780237" lon="-7.494498">
        <ele>636.1</ele>
        <time>2023-08-12T06:14:48Z</time>
      </trkpt>
      <trkpt lat="42.780399" lon="-7.494608">
        <ele>636.1</ele>
        <time>2023-08-12T06:15:02Z</time>
      </trkpt>
      <trkpt lat="42.780551" lon="-7.494798">
        <ele>636.1</ele>
        <time>2023-08-12T06:15:14Z</time>
      </trkpt>
      <trkpt lat="42.780650" lon="-7.495003">
        <ele>636.1</ele>
        <time>2023-08-12T06:15:29Z</time>
      </trkpt>
      <trkpt lat="42.780768" lon="-7.495196">
        <ele>634.5</ele>
        <time>2023-08-12T06:15:54Z</time>
      </trkpt>
      <trkpt lat="42.780882" lon="-7.495397">
        <ele>632.5</ele>
        <time>2023-08-12T06:16:07Z</time>
      </trkpt>
      <trkpt lat="42.780944" lon="-7.495629">
        <ele>634.4</ele>
        <time>2023-08-12T06:16:21Z</time>
      </trkpt>
      <trkpt lat="42.780830" lon="-7.495826">
        <ele>635.5</ele>
        <time>2023-08-12T06:16:37Z</time>
      </trkpt>
      <trkpt lat="42.780659" lon="-7.495921">
        <ele>634.5</ele>
        <time>2023-08-12T06:16:54Z</time>
      </trkpt>
      <trkpt lat="42.780475" lon="-7.495909">
        <ele>634.5</ele>
        <time>2023-08-12T06:17:09Z</time>
      </trkpt>
      <trkpt lat="42.780296" lon="-7.495875">
        <ele>634.5</ele>
        <time>2023-08-12T06:17:22Z</time>
      </trkpt>
      <trkpt lat="42.780123" lon="-7.495802">
        <ele>637.5</ele>
        <time>2023-08-12T06:17:33Z</time>
      </trkpt>
      <trkpt lat="42.779941" lon="-7.495765">
        <ele>638.5</ele>
        <time>2023-08-12T06:17:47Z</time>
      </trkpt>
      <trkpt lat="42.779758" lon="-7.495825">
        <ele>644.5</ele>
        <time>2023-08-12T06:18:15Z</time>
      </trkpt>
      <trkpt lat="42.779606" lon="-7.495984">
        <ele>647.5</ele>
        <time>2023-08-12T06:18:27Z</time>
      </trkpt>
      <trkpt lat="42.779519" lon="-7.496201">
        <ele>643.6</ele>
        <time>2023-08-12T06:18:46Z</time>
      </trkpt>
      <trkpt lat="42.779476" lon="-7.496446">
        <ele>639.5</ele>
        <time>2023-08-12T06:19:02Z</time>
      </trkpt>
      <trkpt lat="42.779474" lon="-7.496704">
        <ele>638.8</ele>
        <time>2023-08-12T06:19:15Z</time>
      </trkpt>
      <trkpt lat="42.779428" lon="-7.496948">
        <ele>638.5</ele>
        <time>2023-08-12T06:19:28Z</time>
      </trkpt>
      <trkpt lat="42.779379" lon="-7.497188">
        <ele>638.5</ele>
        <time>2023-08-12T06:19:39Z</time>
      </trkpt>
      <trkpt lat="42.779353" lon="-7.497452">
        <ele>640.5</ele>
        <time>2023-08-12T06:19:53Z</time>
      </trkpt>
      <trkpt lat="42.779327" lon="-7.497705">
        <ele>641.5</ele>
        <time>2023-08-12T06:20:07Z</time>
      </trkpt>
      <trkpt lat="42.779298" lon="-7.497969">
        <ele>640.5</ele>
        <time>2023-08-12T06:20:23Z</time>
      </trkpt>
      <trkpt lat="42.779259" lon="-7.498214">
        <ele>639.5</ele>
        <time>2023-08-12T06:20:36Z</time>
      </trkpt>
      <trkpt lat="42.779228" lon="-7.498461">
        <ele>639.6</ele>
        <time>2023-08-12T06:20:50Z</time>
      </trkpt>
      <trkpt lat="42.779157" lon="-7.498696">
        <ele>640.5</ele>
        <time>2023-08-12T06:21:05Z</time>
      </trkpt>
      <trkpt lat="42.779097" lon="-7.498935">
        <ele>635.5</ele>
        <time>2023-08-12T06:21:28Z</time>
      </trkpt>
      <trkpt lat="42.779003" lon="-7.499155">
        <ele>637.5</ele>
        <time>2023-08-12T06:21:59Z</time>
      </trkpt>
      <trkpt lat="42.778869" lon="-7.499329">
        <ele>641.5</ele>
        <time>2023-08-12T06:22:17Z</time>
      </trkpt>
      <trkpt lat="42.778716" lon="-7.499473">
        <ele>642.5</ele>
        <time>2023-08-12T06:22:29Z</time>
      </trkpt>
      <trkpt lat="42.778568" lon="-7.499633">
        <ele>640.5</ele>
        <time>2023-08-12T06:22:42Z</time>
      </trkpt>
      <trkpt lat="42.778438" lon="-7.499817">
        <ele>642.5</ele>
        <time>2023-08-12T06:22:54Z</time>
      </trkpt>
      <trkpt lat="42.778268" lon="-7.499917">
        <ele>641.2</ele>
        <time>2023-08-12T06:23:10Z</time>
      </trkpt>
      <trkpt lat="42.778133" lon="-7.500086">
        <ele>641.8</ele>
        <time>2023-08-12T06:23:24Z</time>
      </trkpt>
      <trkpt lat="42.778007" lon="-7.500268">
        <ele>637.6</ele>
        <time>2023-08-12T06:23:38Z</time>
      </trkpt>
      <trkpt lat="42.777873" lon="-7.500436">
        <ele>637.6</ele>
        <time>2023-08-12T06:23:52Z</time>
      </trkpt>
      <trkpt lat="42.777807" lon="-7.500672">
        <ele>637.6</ele>
        <time>2023-08-12T06:24:07Z</time>
      </trkpt>
      <trkpt lat="42.777821" lon="-7.500921">
        <ele>637.6</ele>
        <time>2023-08-12T06:24:18Z</time>
      </trkpt>
      <trkpt lat="42.777742" lon="-7.501145">
        <ele>637.6</ele>
        <time>2023-08-12T06:24:32Z</time>
      </trkpt>
      <trkpt lat="42.777678" lon="-7.501385">
        <ele>637.6</ele>
        <time>2023-08-12T06:24:47Z</time>
      </trkpt>
      <trkpt lat="42.777595" lon="-7.501610">
        <ele>637.6</ele>
        <time>2023-08-12T06:25:04Z</time>
      </trkpt>
      <trkpt lat="42.777533" lon="-7.501847">
        <ele>643.8</ele>
        <time>2023-08-12T06:25:27Z</time>
      </trkpt>
      <trkpt lat="42.777474" lon="-7.502075">
        <ele>641.6</ele>
        <time>2023-08-12T06:25:38Z</time>
      </trkpt>
      <trkpt lat="42.777413" lon="-7.502306">
        <ele>644.2</ele>
        <time>2023-08-12T06:25:51Z</time>
      </trkpt>
      <trkpt lat="42.777372" lon="-7.502557">
        <ele>647.4</ele>
        <time>2023-08-12T06:26:06Z</time>
      </trkpt>
      <trkpt lat="42.777293" lon="-7.502787">
        <ele>647.8</ele>
        <time>2023-08-12T06:26:20Z</time>
      </trkpt>
      <trkpt lat="42.777288" lon="-7.503033">
        <ele>649.2</ele>
        <time>2023-08-12T06:26:32Z</time>
      </trkpt>
      <trkpt lat="42.777272" lon="-7.503279">
        <ele>652.4</ele>
        <time>2023-08-12T06:26:49Z</time>
      </trkpt>
      <trkpt lat="42.777361" lon="-7.503502">
        <ele>650.5</ele>
        <time>2023-08-12T06:27:03Z</time>
      </trkpt>
      <trkpt lat="42.777495" lon="-7.503677">
        <ele>654.2</ele>
        <time>2023-08-12T06:27:16Z</time>
      </trkpt>
      <trkpt lat="42.777522" lon="-7.503921">
        <ele>655.6</ele>
        <time>2023-08-12T06:27:31Z</time>
      </trkpt>
      <trkpt lat="42.777521" lon="-7.504171">
        <ele>651.5</ele>
        <time>2023-08-12T06:27:48Z</time>
      </trkpt>
      <trkpt lat="42.777495" lon="-7.504415">
        <ele>646.6</ele>
        <time>2023-08-12T06:28:02Z</time>
      </trkpt>
      <trkpt lat="42.777466" lon="-7.504660">
        <ele>645.5</ele>
        <time>2023-08-12T06:28:15Z</time>
      </trkpt>
      <trkpt lat="42.777381" lon="-7.504885">
        <ele>642.6</ele>
        <time>2023-08-12T06:28:29Z</time>
      </trkpt>
      <trkpt lat="42.777289" lon="-7.505102">
        <ele>642.3</ele>
        <time>2023-08-12T06:28:44Z</time>
      </trkpt>
      <trkpt lat="42.777253" lon="-7.505342">
        <ele>642.4</ele>
        <time>2023-08-12T06:28:58Z</time>
      </trkpt>
      <trkpt lat="42.777202" lon="-7.505582">
        <ele>640.2</ele>
        <time>2023-08-12T06:29:13Z</time>
      </trkpt>
      <trkpt lat="42.777175" lon="-7.505831">
        <ele>640.2</ele>
        <time>2023-08-12T06:29:27Z</time>
      </trkpt>
      <trkpt lat="42.777177" lon="-7.506078">
        <ele>640.2</ele>
        <time>2023-08-12T06:29:41Z</time>
      </trkpt>
      <trkpt lat="42.777295" lon="-7.506266">
        <ele>640.2</ele>
        <time>2023-08-12T06:29:55Z</time>
      </trkpt>
      <trkpt lat="42.777376" lon="-7.506496">
        <ele>640.2</ele>
        <time>2023-08-12T06:30:10Z</time>
      </trkpt>
      <trkpt lat="42.777462" lon="-7.506713">
        <ele>640.2</ele>
        <time>2023-08-12T06:30:24Z</time>
      </trkpt>
      <trkpt lat="42.777599" lon="-7.506876">
        <ele>640.2</ele>
        <time>2023-08-12T06:30:37Z</time>
      </trkpt>
      <trkpt lat="42.777720" lon="-7.507065">
        <ele>633.5</ele>
        <time>2023-08-12T06:30:52Z</time>
      </trkpt>
      <trkpt lat="42.777835" lon="-7.507254">
        <ele>631.5</ele>
        <time>2023-08-12T06:31:18Z</time>
      </trkpt>
      <trkpt lat="42.777970" lon="-7.507416">
        <ele>630.5</ele>
        <time>2023-08-12T06:31:31Z</time>
      </trkpt>
      <trkpt lat="42.778088" lon="-7.507602">
        <ele>629.5</ele>
        <time>2023-08-12T06:31:45Z</time>
      </trkpt>
      <trkpt lat="42.778200" lon="-7.507796">
        <ele>627.5</ele>
        <time>2023-08-12T06:32:00Z</time>
      </trkpt>
      <trkpt lat="42.778310" lon="-7.507992">
        <ele>624.5</ele>
        <time>2023-08-12T06:32:16Z</time>
      </trkpt>
      <trkpt lat="42.778445" lon="-7.508161">
        <ele>622.5</ele>
        <time>2023-08-12T06:32:33Z</time>
      </trkpt>
      <trkpt lat="42.778620" lon="-7.508233">
        <ele>619.6</ele>
        <time>2023-08-12T06:32:50Z</time>
      </trkpt>
      <trkpt lat="42.778819" lon="-7.508462">
        <ele>616.5</ele>
        <time>2023-08-12T06:33:04Z</time>
      </trkpt>
      <trkpt lat="42.778800" lon="-7.508582">
        <ele>611.5</ele>
        <time>2023-08-12T06:33:22Z</time>
      </trkpt>
      <trkpt lat="42.778721" lon="-7.508806">
        <ele>612.2</ele>
        <time>2023-08-12T06:33:38Z</time>
      </trkpt>
      <trkpt lat="42.778661" lon="-7.509045">
        <ele>615.5</ele>
        <time>2023-08-12T06:33:49Z</time>
      </trkpt>
      <trkpt lat="42.778574" lon="-7.509271">
        <ele>619.8</ele>
        <time>2023-08-12T06:34:04Z</time>
      </trkpt>
      <trkpt lat="42.778440" lon="-7.509455">
        <ele>620.5</ele>
        <time>2023-08-12T06:34:19Z</time>
      </trkpt>
      <trkpt lat="42.778369" lon="-7.509682">
        <ele>623.5</ele>
        <time>2023-08-12T06:34:38Z</time>
      </trkpt>
      <trkpt lat="42.778377" lon="-7.509934">
        <ele>625.5</ele>
        <time>2023-08-12T06:34:54Z</time>
      </trkpt>
      <trkpt lat="42.778420" lon="-7.510174">
        <ele>629.4</ele>
        <time>2023-08-12T06:35:10Z</time>
      </trkpt>
      <trkpt lat="42.778479" lon="-7.510406">
        <ele>629.5</ele>
        <time>2023-08-12T06:35:44Z</time>
      </trkpt>
      <trkpt lat="42.778552" lon="-7.510638">
        <ele>632.5</ele>
        <time>2023-08-12T06:35:59Z</time>
      </trkpt>
      <trkpt lat="42.778642" lon="-7.510852">
        <ele>632.5</ele>
        <time>2023-08-12T06:36:13Z</time>
      </trkpt>
      <trkpt lat="42.778684" lon="-7.511098">
        <ele>636.5</ele>
        <time>2023-08-12T06:36:28Z</time>
      </trkpt>
      <trkpt lat="42.778754" lon="-7.511335">
        <ele>635.5</ele>
        <time>2023-08-12T06:36:43Z</time>
      </trkpt>
      <trkpt lat="42.778761" lon="-7.511588">
        <ele>639.5</ele>
        <time>2023-08-12T06:36:58Z</time>
      </trkpt>
      <trkpt lat="42.778760" lon="-7.511833">
        <ele>642.2</ele>
        <time>2023-08-12T06:37:11Z</time>
      </trkpt>
      <trkpt lat="42.778748" lon="-7.512088">
        <ele>642.5</ele>
        <time>2023-08-12T06:37:25Z</time>
      </trkpt>
      <trkpt lat="42.778710" lon="-7.512333">
        <ele>644.5</ele>
        <time>2023-08-12T06:37:40Z</time>
      </trkpt>
      <trkpt lat="42.778708" lon="-7.512581">
        <ele>644.5</ele>
        <time>2023-08-12T06:37:57Z</time>
      </trkpt>
      <trkpt lat="42.778752" lon="-7.512822">
        <ele>645.4</ele>
        <time>2023-08-12T06:38:13Z</time>
      </trkpt>
      <trkpt lat="42.778794" lon="-7.513064">
        <ele>647.5</ele>
        <time>2023-08-12T06:38:42Z</time>
      </trkpt>
      <trkpt lat="42.778902" lon="-7.513273">
        <ele>646.5</ele>
        <time>2023-08-12T06:38:56Z</time>
      </trkpt>
      <trkpt lat="42.778939" lon="-7.513520">
        <ele>647.5</ele>
        <time>2023-08-12T06:39:12Z</time>
      </trkpt>
      <trkpt lat="42.779029" lon="-7.513733">
        <ele>650.5</ele>
        <time>2023-08-12T06:39:26Z</time>
      </trkpt>
      <trkpt lat="42.779010" lon="-7.513983">
        <ele>651.5</ele>
        <time>2023-08-12T06:39:42Z</time>
      </trkpt>
      <trkpt lat="42.778968" lon="-7.514225">
        <ele>650.5</ele>
        <time>2023-08-12T06:39:59Z</time>
      </trkpt>
      <trkpt lat="42.778953" lon="-7.514473">
        <ele>653.5</ele>
        <time>2023-08-12T06:40:12Z</time>
      </trkpt>
      <trkpt lat="42.779080" lon="-7.514651">
        <ele>657.5</ele>
        <time>2023-08-12T06:40:27Z</time>
      </trkpt>
      <trkpt lat="42.779235" lon="-7.514910">
        <ele>657.5</ele>
        <time>2023-08-12T06:40:46Z</time>
      </trkpt>
      <trkpt lat="42.779200" lon="-7.515216">
        <ele>661.2</ele>
        <time>2023-08-12T06:41:03Z</time>
      </trkpt>
      <trkpt lat="42.779307" lon="-7.515297">
        <ele>662.8</ele>
        <time>2023-08-12T06:41:23Z</time>
      </trkpt>
      <trkpt lat="42.779424" lon="-7.515488">
        <ele>664.4</ele>
        <time>2023-08-12T06:41:37Z</time>
      </trkpt>
      <trkpt lat="42.779556" lon="-7.515676">
        <ele>662.7</ele>
        <time>2023-08-12T06:41:53Z</time>
      </trkpt>
      <trkpt lat="42.779645" lon="-7.515888">
        <ele>663.1</ele>
        <time>2023-08-12T06:42:07Z</time>
      </trkpt>
      <trkpt lat="42.779691" lon="-7.516137">
        <ele>663.1</ele>
        <time>2023-08-12T06:42:22Z</time>
      </trkpt>
      <trkpt lat="42.779701" lon="-7.516389">
        <ele>664.8</ele>
        <time>2023-08-12T06:42:36Z</time>
      </trkpt>
      <trkpt lat="42.779694" lon="-7.516639">
        <ele>662.6</ele>
        <time>2023-08-12T06:42:52Z</time>
      </trkpt>
      <trkpt lat="42.779747" lon="-7.516884">
        <ele>662.9</ele>
        <time>2023-08-12T06:43:06Z</time>
      </trkpt>
      <trkpt lat="42.779830" lon="-7.517106">
        <ele>662.7</ele>
        <time>2023-08-12T06:43:19Z</time>
      </trkpt>
      <trkpt lat="42.779931" lon="-7.517316">
        <ele>662.6</ele>
        <time>2023-08-12T06:43:34Z</time>
      </trkpt>
      <trkpt lat="42.780027" lon="-7.517533">
        <ele>661.6</ele>
        <time>2023-08-12T06:43:48Z</time>
      </trkpt>
      <trkpt lat="42.780092" lon="-7.517763">
        <ele>664.4</ele>
        <time>2023-08-12T06:44:05Z</time>
      </trkpt>
      <trkpt lat="42.780150" lon="-7.518020">
        <ele>663.5</ele>
        <time>2023-08-12T06:44:21Z</time>
      </trkpt>
      <trkpt lat="42.780169" lon="-7.518265">
        <ele>662.5</ele>
        <time>2023-08-12T06:44:35Z</time>
      </trkpt>
      <trkpt lat="42.780191" lon="-7.518522">
        <ele>661.5</ele>
        <time>2023-08-12T06:44:50Z</time>
      </trkpt>
      <trkpt lat="42.780269" lon="-7.518745">
        <ele>662.4</ele>
        <time>2023-08-12T06:45:06Z</time>
      </trkpt>
      <trkpt lat="42.780361" lon="-7.518976">
        <ele>663.5</ele>
        <time>2023-08-12T06:45:21Z</time>
      </trkpt>
      <trkpt lat="42.780431" lon="-7.519209">
        <ele>665.5</ele>
        <time>2023-08-12T06:45:35Z</time>
      </trkpt>
      <trkpt lat="42.780567" lon="-7.519379">
        <ele>666.5</ele>
        <time>2023-08-12T06:45:56Z</time>
      </trkpt>
      <trkpt lat="42.780674" lon="-7.519580">
        <ele>665.5</ele>
        <time>2023-08-12T06:46:11Z</time>
      </trkpt>
      <trkpt lat="42.780853" lon="-7.519625">
        <ele>663.5</ele>
        <time>2023-08-12T06:46:23Z</time>
      </trkpt>
      <trkpt lat="42.780987" lon="-7.519789">
        <ele>663.5</ele>
        <time>2023-08-12T06:46:36Z</time>
      </trkpt>
      <trkpt lat="42.781108" lon="-7.519978">
        <ele>661.5</ele>
        <time>2023-08-12T06:46:50Z</time>
      </trkpt>
      <trkpt lat="42.781225" lon="-7.520170">
        <ele>660.5</ele>
        <time>2023-08-12T06:47:05Z</time>
      </trkpt>
      <trkpt lat="42.781308" lon="-7.520393">
        <ele>658.5</ele>
        <time>2023-08-12T06:47:20Z</time>
      </trkpt>
      <trkpt lat="42.781408" lon="-7.520603">
        <ele>657.5</ele>
        <time>2023-08-12T06:47:35Z</time>
      </trkpt>
      <trkpt lat="42.781562" lon="-7.520734">
        <ele>655.5</ele>
        <time>2023-08-12T06:47:52Z</time>
      </trkpt>
      <trkpt lat="42.781744" lon="-7.520702">
        <ele>654.5</ele>
        <time>2023-08-12T06:48:05Z</time>
      </trkpt>
      <trkpt lat="42.781900" lon="-7.520833">
        <ele>652.5</ele>
        <time>2023-08-12T06:48:22Z</time>
      </trkpt>
      <trkpt lat="42.782019" lon="-7.521019">
        <ele>654.1</ele>
        <time>2023-08-12T06:48:35Z</time>
      </trkpt>
      <trkpt lat="42.782169" lon="-7.521168">
        <ele>654.1</ele>
        <time>2023-08-12T06:48:49Z</time>
      </trkpt>
      <trkpt lat="42.782350" lon="-7.521194">
        <ele>654.1</ele>
        <time>2023-08-12T06:49:01Z</time>
      </trkpt>
      <trkpt lat="42.782524" lon="-7.521126">
        <ele>654.2</ele>
        <time>2023-08-12T06:49:15Z</time>
      </trkpt>
      <trkpt lat="42.782700" lon="-7.521066">
        <ele>654.2</ele>
        <time>2023-08-12T06:49:32Z</time>
      </trkpt>
      <trkpt lat="42.782883" lon="-7.521108">
        <ele>654.2</ele>
        <time>2023-08-12T06:49:49Z</time>
      </trkpt>
      <trkpt lat="42.783047" lon="-7.521218">
        <ele>654.2</ele>
        <time>2023-08-12T06:50:29Z</time>
      </trkpt>
      <trkpt lat="42.783249" lon="-7.521201">
        <ele>654.2</ele>
        <time>2023-08-12T06:50:45Z</time>
      </trkpt>
      <trkpt lat="42.783409" lon="-7.521315">
        <ele>654.2</ele>
        <time>2023-08-12T06:51:06Z</time>
      </trkpt>
      <trkpt lat="42.783626" lon="-7.521372">
        <ele>654.2</ele>
        <time>2023-08-12T06:51:22Z</time>
      </trkpt>
      <trkpt lat="42.783826" lon="-7.521217">
        <ele>643.2</ele>
        <time>2023-08-12T06:51:35Z</time>
      </trkpt>
      <trkpt lat="42.784030" lon="-7.520999">
        <ele>640.5</ele>
        <time>2023-08-12T06:51:53Z</time>
      </trkpt>
      <trkpt lat="42.784097" lon="-7.521033">
        <ele>643.7</ele>
        <time>2023-08-12T06:52:14Z</time>
      </trkpt>
      <trkpt lat="42.784269" lon="-7.521134">
        <ele>642.5</ele>
        <time>2023-08-12T06:52:28Z</time>
      </trkpt>
      <trkpt lat="42.784440" lon="-7.521236">
        <ele>645.5</ele>
        <time>2023-08-12T06:52:41Z</time>
      </trkpt>
      <trkpt lat="42.784611" lon="-7.521318">
        <ele>646.4</ele>
        <time>2023-08-12T06:52:56Z</time>
      </trkpt>
      <trkpt lat="42.784787" lon="-7.521400">
        <ele>646.8</ele>
        <time>2023-08-12T06:53:14Z</time>
      </trkpt>
      <trkpt lat="42.784924" lon="-7.521566">
        <ele>648.4</ele>
        <time>2023-08-12T06:53:31Z</time>
      </trkpt>
      <trkpt lat="42.785034" lon="-7.521766">
        <ele>647.5</ele>
        <time>2023-08-12T06:53:46Z</time>
      </trkpt>
      <trkpt lat="42.785160" lon="-7.521950">
        <ele>645.5</ele>
        <time>2023-08-12T06:54:00Z</time>
      </trkpt>
      <trkpt lat="42.785291" lon="-7.522161">
        <ele>647.5</ele>
        <time>2023-08-12T06:54:15Z</time>
      </trkpt>
      <trkpt lat="42.785225" lon="-7.522430">
        <ele>653.5</ele>
        <time>2023-08-12T06:54:33Z</time>
      </trkpt>
      <trkpt lat="42.785179" lon="-7.522678">
        <ele>652.4</ele>
        <time>2023-08-12T06:54:49Z</time>
      </trkpt>
      <trkpt lat="42.785098" lon="-7.522903">
        <ele>654.5</ele>
        <time>2023-08-12T06:55:04Z</time>
      </trkpt>
      <trkpt lat="42.785017" lon="-7.523131">
        <ele>655.6</ele>
        <time>2023-08-12T06:55:30Z</time>
      </trkpt>
      <trkpt lat="42.784912" lon="-7.523336">
        <ele>653.8</ele>
        <time>2023-08-12T06:55:52Z</time>
      </trkpt>
      <trkpt lat="42.784810" lon="-7.523554">
        <ele>655.5</ele>
        <time>2023-08-12T06:56:06Z</time>
      </trkpt>
      <trkpt lat="42.784690" lon="-7.523745">
        <ele>657.5</ele>
        <time>2023-08-12T06:56:19Z</time>
      </trkpt>
      <trkpt lat="42.784607" lon="-7.523975">
        <ele>657.5</ele>
        <time>2023-08-12T06:56:31Z</time>
      </trkpt>
      <trkpt lat="42.784545" lon="-7.524216">
        <ele>656.5</ele>
        <time>2023-08-12T06:56:45Z</time>
      </trkpt>
      <trkpt lat="42.784480" lon="-7.524456">
        <ele>660.2</ele>
        <time>2023-08-12T06:57:01Z</time>
      </trkpt>
      <trkpt lat="42.784420" lon="-7.524704">
        <ele>661.5</ele>
        <time>2023-08-12T06:57:12Z</time>
      </trkpt>
      <trkpt lat="42.784349" lon="-7.524933">
        <ele>663.5</ele>
        <time>2023-08-12T06:57:23Z</time>
      </trkpt>
      <trkpt lat="42.784286" lon="-7.525167">
        <ele>666.4</ele>
        <time>2023-08-12T06:57:36Z</time>
      </trkpt>
      <trkpt lat="42.784196" lon="-7.525390">
        <ele>665.8</ele>
        <time>2023-08-12T06:57:51Z</time>
      </trkpt>
      <trkpt lat="42.784018" lon="-7.525697">
        <ele>662.5</ele>
        <time>2023-08-12T06:58:10Z</time>
      </trkpt>
      <trkpt lat="42.784052" lon="-7.525855">
        <ele>660.5</ele>
        <time>2023-08-12T06:58:24Z</time>
      </trkpt>
      <trkpt lat="42.784072" lon="-7.526070">
        <ele>659.5</ele>
        <time>2023-08-12T06:58:38Z</time>
      </trkpt>
      <trkpt lat="42.784053" lon="-7.526324">
        <ele>660.5</ele>
        <time>2023-08-12T06:58:51Z</time>
      </trkpt>
      <trkpt lat="42.784006" lon="-7.526563">
        <ele>660.5</ele>
        <time>2023-08-12T06:59:04Z</time>
      </trkpt>
      <trkpt lat="42.783919" lon="-7.526779">
        <ele>660.5</ele>
        <time>2023-08-12T06:59:16Z</time>
      </trkpt>
      <trkpt lat="42.783813" lon="-7.526989">
        <ele>660.5</ele>
        <time>2023-08-12T06:59:30Z</time>
      </trkpt>
      <trkpt lat="42.783727" lon="-7.527209">
        <ele>659.5</ele>
        <time>2023-08-12T06:59:44Z</time>
      </trkpt>
      <trkpt lat="42.783636" lon="-7.527438">
        <ele>661.4</ele>
        <time>2023-08-12T06:59:59Z</time>
      </trkpt>
      <trkpt lat="42.783631" lon="-7.527684">
        <ele>661.4</ele>
        <time>2023-08-12T07:00:14Z</time>
      </trkpt>
      <trkpt lat="42.783645" lon="-7.527934">
        <ele>660.5</ele>
        <time>2023-08-12T07:00:29Z</time>
      </trkpt>
      <trkpt lat="42.783677" lon="-7.528181">
        <ele>659.5</ele>
        <time>2023-08-12T07:00:43Z</time>
      </trkpt>
      <trkpt lat="42.783686" lon="-7.528406">
        <ele>659.5</ele>
        <time>2023-08-12T07:00:58Z</time>
      </trkpt>
      <trkpt lat="42.783709" lon="-7.528679">
        <ele>657.5</ele>
        <time>2023-08-12T07:01:12Z</time>
      </trkpt>
      <trkpt lat="42.783752" lon="-7.528926">
        <ele>658.4</ele>
        <time>2023-08-12T07:01:26Z</time>
      </trkpt>
      <trkpt lat="42.783790" lon="-7.529171">
        <ele>658.8</ele>
        <time>2023-08-12T07:01:39Z</time>
      </trkpt>
      <trkpt lat="42.783807" lon="-7.529565">
        <ele>658.8</ele>
        <time>2023-08-12T07:01:50Z</time>
      </trkpt>
      <trkpt lat="42.783900" lon="-7.529644">
        <ele>658.8</ele>
        <time>2023-08-12T07:02:05Z</time>
      </trkpt>
      <trkpt lat="42.783926" lon="-7.529879">
        <ele>658.8</ele>
        <time>2023-08-12T07:02:16Z</time>
      </trkpt>
      <trkpt lat="42.783949" lon="-7.530130">
        <ele>658.8</ele>
        <time>2023-08-12T07:02:30Z</time>
      </trkpt>
      <trkpt lat="42.783939" lon="-7.530377">
        <ele>658.8</ele>
        <time>2023-08-12T07:02:44Z</time>
      </trkpt>
      <trkpt lat="42.783899" lon="-7.530620">
        <ele>658.8</ele>
        <time>2023-08-12T07:03:01Z</time>
      </trkpt>
      <trkpt lat="42.783796" lon="-7.530839">
        <ele>657.5</ele>
        <time>2023-08-12T07:03:19Z</time>
      </trkpt>
      <trkpt lat="42.783658" lon="-7.531019">
        <ele>659.5</ele>
        <time>2023-08-12T07:03:32Z</time>
      </trkpt>
      <trkpt lat="42.783541" lon="-7.531234">
        <ele>660.5</ele>
        <time>2023-08-12T07:03:43Z</time>
      </trkpt>
      <trkpt lat="42.783483" lon="-7.531472">
        <ele>659.6</ele>
        <time>2023-08-12T07:03:58Z</time>
      </trkpt>
      <trkpt lat="42.783465" lon="-7.531720">
        <ele>663.5</ele>
        <time>2023-08-12T07:04:37Z</time>
      </trkpt>
      <trkpt lat="42.783474" lon="-7.531981">
        <ele>664.5</ele>
        <time>2023-08-12T07:04:50Z</time>
      </trkpt>
      <trkpt lat="42.783475" lon="-7.532232">
        <ele>664.5</ele>
        <time>2023-08-12T07:05:05Z</time>
      </trkpt>
      <trkpt lat="42.783521" lon="-7.532477">
        <ele>661.5</ele>
        <time>2023-08-12T07:05:17Z</time>
      </trkpt>
      <trkpt lat="42.783536" lon="-7.532729">
        <ele>661.5</ele>
        <time>2023-08-12T07:05:31Z</time>
      </trkpt>
      <trkpt lat="42.783581" lon="-7.532973">
        <ele>667.1</ele>
        <time>2023-08-12T07:05:43Z</time>
      </trkpt>
      <trkpt lat="42.783641" lon="-7.533374">
        <ele>667.1</ele>
        <time>2023-08-12T07:05:57Z</time>
      </trkpt>
      <trkpt lat="42.783529" lon="-7.533428">
        <ele>665.5</ele>
        <time>2023-08-12T07:06:15Z</time>
      </trkpt>
      <trkpt lat="42.783513" lon="-7.533674">
        <ele>665.0</ele>
        <time>2023-08-12T07:06:28Z</time>
      </trkpt>
      <trkpt lat="42.783517" lon="-7.533921">
        <ele>665.0</ele>
        <time>2023-08-12T07:06:43Z</time>
      </trkpt>
      <trkpt lat="42.783511" lon="-7.534172">
        <ele>665.0</ele>
        <time>2023-08-12T07:06:57Z</time>
      </trkpt>
      <trkpt lat="42.783496" lon="-7.534426">
        <ele>638.4</ele>
        <time>2023-08-12T07:07:11Z</time>
      </trkpt>
      <trkpt lat="42.783498" lon="-7.534672">
        <ele>643.5</ele>
        <time>2023-08-12T07:07:24Z</time>
      </trkpt>
      <trkpt lat="42.783538" lon="-7.534912">
        <ele>655.5</ele>
        <time>2023-08-12T07:07:38Z</time>
      </trkpt>
      <trkpt lat="42.783553" lon="-7.535157">
        <ele>653.5</ele>
        <time>2023-08-12T07:07:52Z</time>
      </trkpt>
      <trkpt lat="42.783613" lon="-7.535354">
        <ele>638.4</ele>
        <time>2023-08-12T07:08:07Z</time>
      </trkpt>
      <trkpt lat="42.783639" lon="-7.535508">
        <ele>648.5</ele>
        <time>2023-08-12T07:09:53Z</time>
      </trkpt>
      <trkpt lat="42.783688" lon="-7.535753">
        <ele>646.5</ele>
        <time>2023-08-12T07:10:09Z</time>
      </trkpt>
      <trkpt lat="42.783749" lon="-7.535991">
        <ele>645.5</ele>
        <time>2023-08-12T07:10:25Z</time>
      </trkpt>
      <trkpt lat="42.783785" lon="-7.536237">
        <ele>641.5</ele>
        <time>2023-08-12T07:10:42Z</time>
      </trkpt>
      <trkpt lat="42.783813" lon="-7.536518">
        <ele>637.9</ele>
        <time>2023-08-12T07:10:57Z</time>
      </trkpt>
      <trkpt lat="42.783801" lon="-7.536694">
        <ele>637.9</ele>
        <time>2023-08-12T07:11:16Z</time>
      </trkpt>
      <trkpt lat="42.783859" lon="-7.536915">
        <ele>637.9</ele>
        <time>2023-08-12T07:13:37Z</time>
      </trkpt>
      <trkpt lat="42.783866" lon="-7.537166">
        <ele>640.5</ele>
        <time>2023-08-12T07:13:50Z</time>
      </trkpt>
      <trkpt lat="42.783880" lon="-7.537411">
        <ele>640.5</ele>
        <time>2023-08-12T07:14:05Z</time>
      </trkpt>
      <trkpt lat="42.783956" lon="-7.537640">
        <ele>638.4</ele>
        <time>2023-08-12T07:14:44Z</time>
      </trkpt>
      <trkpt lat="42.784013" lon="-7.537877">
        <ele>638.4</ele>
        <time>2023-08-12T07:14:57Z</time>
      </trkpt>
      <trkpt lat="42.784080" lon="-7.538113">
        <ele>638.4</ele>
        <time>2023-08-12T07:15:09Z</time>
      </trkpt>
      <trkpt lat="42.784142" lon="-7.538346">
        <ele>638.4</ele>
        <time>2023-08-12T07:15:22Z</time>
      </trkpt>
      <trkpt lat="42.784188" lon="-7.538588">
        <ele>638.4</ele>
        <time>2023-08-12T07:15:35Z</time>
      </trkpt>
      <trkpt lat="42.784249" lon="-7.538823">
        <ele>638.4</ele>
        <time>2023-08-12T07:15:50Z</time>
      </trkpt>
      <trkpt lat="42.784257" lon="-7.539040">
        <ele>638.4</ele>
        <time>2023-08-12T07:16:03Z</time>
      </trkpt>
      <trkpt lat="42.784267" lon="-7.539292">
        <ele>646.5</ele>
        <time>2023-08-12T07:16:20Z</time>
      </trkpt>
      <trkpt lat="42.784238" lon="-7.539540">
        <ele>646.5</ele>
        <time>2023-08-12T07:16:50Z</time>
      </trkpt>
      <trkpt lat="42.784257" lon="-7.539797">
        <ele>645.5</ele>
        <time>2023-08-12T07:17:05Z</time>
      </trkpt>
      <trkpt lat="42.784295" lon="-7.540046">
        <ele>645.5</ele>
        <time>2023-08-12T07:17:19Z</time>
      </trkpt>
      <trkpt lat="42.784334" lon="-7.540297">
        <ele>644.5</ele>
        <time>2023-08-12T07:17:35Z</time>
      </trkpt>
      <trkpt lat="42.784374" lon="-7.540541">
        <ele>642.5</ele>
        <time>2023-08-12T07:17:49Z</time>
      </trkpt>
      <trkpt lat="42.784484" lon="-7.540742">
        <ele>641.5</ele>
        <time>2023-08-12T07:18:02Z</time>
      </trkpt>
      <trkpt lat="42.784574" lon="-7.540967">
        <ele>639.7</ele>
        <time>2023-08-12T07:18:17Z</time>
      </trkpt>
      <trkpt lat="42.784692" lon="-7.541177">
        <ele>640.0</ele>
        <time>2023-08-12T07:18:30Z</time>
      </trkpt>
      <trkpt lat="42.784796" lon="-7.541376">
        <ele>640.0</ele>
        <time>2023-08-12T07:18:45Z</time>
      </trkpt>
      <trkpt lat="42.784893" lon="-7.541559">
        <ele>640.0</ele>
        <time>2023-08-12T07:18:58Z</time>
      </trkpt>
      <trkpt lat="42.784968" lon="-7.541776">
        <ele>639.3</ele>
        <time>2023-08-12T07:19:12Z</time>
      </trkpt>
      <trkpt lat="42.785018" lon="-7.542026">
        <ele>639.3</ele>
        <time>2023-08-12T07:20:09Z</time>
      </trkpt>
      <trkpt lat="42.785113" lon="-7.542326">
        <ele>641.5</ele>
        <time>2023-08-12T07:20:22Z</time>
      </trkpt>
      <trkpt lat="42.784941" lon="-7.542404">
        <ele>639.3</ele>
        <time>2023-08-12T07:20:40Z</time>
      </trkpt>
      <trkpt lat="42.784751" lon="-7.542601">
        <ele>639.3</ele>
        <time>2023-08-12T07:20:53Z</time>
      </trkpt>
      <trkpt lat="42.784763" lon="-7.542779">
        <ele>637.4</ele>
        <time>2023-08-12T07:22:11Z</time>
      </trkpt>
      <trkpt lat="42.784747" lon="-7.543029">
        <ele>637.4</ele>
        <time>2023-08-12T07:22:25Z</time>
      </trkpt>
      <trkpt lat="42.784859" lon="-7.543228">
        <ele>637.4</ele>
        <time>2023-08-12T07:22:42Z</time>
      </trkpt>
      <trkpt lat="42.784941" lon="-7.543464">
        <ele>637.4</ele>
        <time>2023-08-12T07:22:55Z</time>
      </trkpt>
      <trkpt lat="42.784955" lon="-7.543713">
        <ele>637.4</ele>
        <time>2023-08-12T07:23:09Z</time>
      </trkpt>
      <trkpt lat="42.784938" lon="-7.543958">
        <ele>637.4</ele>
        <time>2023-08-12T07:23:20Z</time>
      </trkpt>
      <trkpt lat="42.784937" lon="-7.544208">
        <ele>637.4</ele>
        <time>2023-08-12T07:23:34Z</time>
      </trkpt>
      <trkpt lat="42.784927" lon="-7.544460">
        <ele>637.4</ele>
        <time>2023-08-12T07:23:47Z</time>
      </trkpt>
      <trkpt lat="42.784881" lon="-7.544704">
        <ele>644.2</ele>
        <time>2023-08-12T07:24:00Z</time>
      </trkpt>
      <trkpt lat="42.784777" lon="-7.544910">
        <ele>644.2</ele>
        <time>2023-08-12T07:24:15Z</time>
      </trkpt>
      <trkpt lat="42.784667" lon="-7.545112">
        <ele>644.2</ele>
        <time>2023-08-12T07:24:31Z</time>
      </trkpt>
      <trkpt lat="42.784560" lon="-7.545309">
        <ele>644.2</ele>
        <time>2023-08-12T07:24:44Z</time>
      </trkpt>
      <trkpt lat="42.784443" lon="-7.545506">
        <ele>644.2</ele>
        <time>2023-08-12T07:24:58Z</time>
      </trkpt>
      <trkpt lat="42.784390" lon="-7.545744">
        <ele>644.2</ele>
        <time>2023-08-12T07:25:10Z</time>
      </trkpt>
      <trkpt lat="42.784445" lon="-7.545978">
        <ele>630.5</ele>
        <time>2023-08-12T07:25:22Z</time>
      </trkpt>
      <trkpt lat="42.784613" lon="-7.546088">
        <ele>633.5</ele>
        <time>2023-08-12T07:25:34Z</time>
      </trkpt>
      <trkpt lat="42.784768" lon="-7.546218">
        <ele>639.4</ele>
        <time>2023-08-12T07:25:47Z</time>
      </trkpt>
      <trkpt lat="42.784947" lon="-7.546274">
        <ele>643.5</ele>
        <time>2023-08-12T07:26:01Z</time>
      </trkpt>
      <trkpt lat="42.785129" lon="-7.546333">
        <ele>643.5</ele>
        <time>2023-08-12T07:26:19Z</time>
      </trkpt>
      <trkpt lat="42.785049" lon="-7.546558">
        <ele>644.5</ele>
        <time>2023-08-12T07:27:09Z</time>
      </trkpt>
      <trkpt lat="42.784987" lon="-7.546789">
        <ele>645.4</ele>
        <time>2023-08-12T07:27:20Z</time>
      </trkpt>
      <trkpt lat="42.784865" lon="-7.546974">
        <ele>644.7</ele>
        <time>2023-08-12T07:27:31Z</time>
      </trkpt>
      <trkpt lat="42.784703" lon="-7.547085">
        <ele>644.4</ele>
        <time>2023-08-12T07:27:44Z</time>
      </trkpt>
      <trkpt lat="42.784580" lon="-7.547281">
        <ele>642.4</ele>
        <time>2023-08-12T07:27:58Z</time>
      </trkpt>
      <trkpt lat="42.784529" lon="-7.547523">
        <ele>644.2</ele>
        <time>2023-08-12T07:28:10Z</time>
      </trkpt>
      <trkpt lat="42.784484" lon="-7.547770">
        <ele>645.5</ele>
        <time>2023-08-12T07:28:23Z</time>
      </trkpt>
      <trkpt lat="42.784380" lon="-7.547975">
        <ele>644.5</ele>
        <time>2023-08-12T07:28:36Z</time>
      </trkpt>
      <trkpt lat="42.784257" lon="-7.548163">
        <ele>644.5</ele>
        <time>2023-08-12T07:28:50Z</time>
      </trkpt>
      <trkpt lat="42.784171" lon="-7.548389">
        <ele>645.5</ele>
        <time>2023-08-12T07:29:04Z</time>
      </trkpt>
      <trkpt lat="42.784119" lon="-7.548628">
        <ele>646.5</ele>
        <time>2023-08-12T07:29:17Z</time>
      </trkpt>
      <trkpt lat="42.784062" lon="-7.548888">
        <ele>642.5</ele>
        <time>2023-08-12T07:29:34Z</time>
      </trkpt>
      <trkpt lat="42.784033" lon="-7.549143">
        <ele>643.4</ele>
        <time>2023-08-12T07:29:47Z</time>
      </trkpt>
      <trkpt lat="42.783996" lon="-7.549378">
        <ele>642.5</ele>
        <time>2023-08-12T07:30:11Z</time>
      </trkpt>
      <trkpt lat="42.783971" lon="-7.549639">
        <ele>640.5</ele>
        <time>2023-08-12T07:30:23Z</time>
      </trkpt>
      <trkpt lat="42.783968" lon="-7.549880">
        <ele>640.5</ele>
        <time>2023-08-12T07:30:37Z</time>
      </trkpt>
      <trkpt lat="42.783996" lon="-7.550111">
        <ele>641.4</ele>
        <time>2023-08-12T07:30:50Z</time>
      </trkpt>
      <trkpt lat="42.784062" lon="-7.550348">
        <ele>638.8</ele>
        <time>2023-08-12T07:31:05Z</time>
      </trkpt>
      <trkpt lat="42.784168" lon="-7.550566">
        <ele>633.6</ele>
        <time>2023-08-12T07:31:22Z</time>
      </trkpt>
      <trkpt lat="42.784251" lon="-7.550789">
        <ele>631.5</ele>
        <time>2023-08-12T07:31:38Z</time>
      </trkpt>
      <trkpt lat="42.784299" lon="-7.551029">
        <ele>633.4</ele>
        <time>2023-08-12T07:31:51Z</time>
      </trkpt>
      <trkpt lat="42.784305" lon="-7.551276">
        <ele>634.5</ele>
        <time>2023-08-12T07:32:03Z</time>
      </trkpt>
      <trkpt lat="42.784262" lon="-7.551513">
        <ele>636.5</ele>
        <time>2023-08-12T07:32:17Z</time>
      </trkpt>
      <trkpt lat="42.784195" lon="-7.551763">
        <ele>636.5</ele>
        <time>2023-08-12T07:32:29Z</time>
      </trkpt>
      <trkpt lat="42.784242" lon="-7.552041">
        <ele>635.5</ele>
        <time>2023-08-12T07:32:46Z</time>
      </trkpt>
      <trkpt lat="42.784215" lon="-7.552289">
        <ele>633.5</ele>
        <time>2023-08-12T07:33:02Z</time>
      </trkpt>
      <trkpt lat="42.784173" lon="-7.552534">
        <ele>632.5</ele>
        <time>2023-08-12T07:33:19Z</time>
      </trkpt>
      <trkpt lat="42.784110" lon="-7.552773">
        <ele>630.5</ele>
        <time>2023-08-12T07:33:33Z</time>
      </trkpt>
      <trkpt lat="42.784072" lon="-7.553020">
        <ele>630.5</ele>
        <time>2023-08-12T07:33:49Z</time>
      </trkpt>
      <trkpt lat="42.784055" lon="-7.553273">
        <ele>628.4</ele>
        <time>2023-08-12T07:34:03Z</time>
      </trkpt>
      <trkpt lat="42.784001" lon="-7.553519">
        <ele>630.4</ele>
        <time>2023-08-12T07:34:14Z</time>
      </trkpt>
      <trkpt lat="42.783965" lon="-7.553765">
        <ele>633.2</ele>
        <time>2023-08-12T07:34:28Z</time>
      </trkpt>
      <trkpt lat="42.783894" lon="-7.553997">
        <ele>633.4</ele>
        <time>2023-08-12T07:34:42Z</time>
      </trkpt>
      <trkpt lat="42.783829" lon="-7.554229">
        <ele>631.5</ele>
        <time>2023-08-12T07:34:57Z</time>
      </trkpt>
      <trkpt lat="42.783719" lon="-7.554433">
        <ele>629.5</ele>
        <time>2023-08-12T07:35:15Z</time>
      </trkpt>
      <trkpt lat="42.783571" lon="-7.554585">
        <ele>628.5</ele>
        <time>2023-08-12T07:35:29Z</time>
      </trkpt>
      <trkpt lat="42.783430" lon="-7.554784">
        <ele>628.8</ele>
        <time>2023-08-12T07:35:46Z</time>
      </trkpt>
      <trkpt lat="42.783284" lon="-7.554933">
        <ele>628.4</ele>
        <time>2023-08-12T07:36:00Z</time>
      </trkpt>
      <trkpt lat="42.783145" lon="-7.555101">
        <ele>630.4</ele>
        <time>2023-08-12T07:36:11Z</time>
      </trkpt>
      <trkpt lat="42.783010" lon="-7.555280">
        <ele>635.8</ele>
        <time>2023-08-12T07:36:25Z</time>
      </trkpt>
      <trkpt lat="42.782841" lon="-7.555409">
        <ele>637.4</ele>
        <time>2023-08-12T07:36:37Z</time>
      </trkpt>
      <trkpt lat="42.782814" lon="-7.555673">
        <ele>639.5</ele>
        <time>2023-08-12T07:36:47Z</time>
      </trkpt>
      <trkpt lat="42.782882" lon="-7.555903">
        <ele>641.5</ele>
        <time>2023-08-12T07:37:03Z</time>
      </trkpt>
      <trkpt lat="42.782942" lon="-7.556153">
        <ele>640.5</ele>
        <time>2023-08-12T07:37:16Z</time>
      </trkpt>
      <trkpt lat="42.782983" lon="-7.556400">
        <ele>642.4</ele>
        <time>2023-08-12T07:37:32Z</time>
      </trkpt>
      <trkpt lat="42.783122" lon="-7.556576">
        <ele>643.5</ele>
        <time>2023-08-12T07:37:45Z</time>
      </trkpt>
      <trkpt lat="42.783267" lon="-7.556734">
        <ele>642.5</ele>
        <time>2023-08-12T07:37:59Z</time>
      </trkpt>
      <trkpt lat="42.783439" lon="-7.556854">
        <ele>644.5</ele>
        <time>2023-08-12T07:38:17Z</time>
      </trkpt>
      <trkpt lat="42.783578" lon="-7.557014">
        <ele>641.5</ele>
        <time>2023-08-12T07:38:38Z</time>
      </trkpt>
      <trkpt lat="42.783758" lon="-7.557071">
        <ele>642.5</ele>
        <time>2023-08-12T07:38:49Z</time>
      </trkpt>
      <trkpt lat="42.783922" lon="-7.557179">
        <ele>640.5</ele>
        <time>2023-08-12T07:39:01Z</time>
      </trkpt>
      <trkpt lat="42.784094" lon="-7.557270">
        <ele>640.5</ele>
        <time>2023-08-12T07:39:15Z</time>
      </trkpt>
      <trkpt lat="42.784247" lon="-7.557429">
        <ele>641.5</ele>
        <time>2023-08-12T07:39:30Z</time>
      </trkpt>
      <trkpt lat="42.784382" lon="-7.557607">
        <ele>633.8</ele>
        <time>2023-08-12T07:39:44Z</time>
      </trkpt>
      <trkpt lat="42.784481" lon="-7.557814">
        <ele>628.8</ele>
        <time>2023-08-12T07:39:59Z</time>
      </trkpt>
      <trkpt lat="42.784551" lon="-7.558050">
        <ele>626.8</ele>
        <time>2023-08-12T07:40:15Z</time>
      </trkpt>
      <trkpt lat="42.784576" lon="-7.558295">
        <ele>627.4</ele>
        <time>2023-08-12T07:40:29Z</time>
      </trkpt>
      <trkpt lat="42.784548" lon="-7.558541">
        <ele>626.5</ele>
        <time>2023-08-12T07:40:43Z</time>
      </trkpt>
      <trkpt lat="42.784537" lon="-7.558796">
        <ele>627.5</ele>
        <time>2023-08-12T07:40:57Z</time>
      </trkpt>
      <trkpt lat="42.784522" lon="-7.559042">
        <ele>627.2</ele>
        <time>2023-08-12T07:41:12Z</time>
      </trkpt>
      <trkpt lat="42.784666" lon="-7.559193">
        <ele>624.2</ele>
        <time>2023-08-12T07:41:28Z</time>
      </trkpt>
      <trkpt lat="42.784794" lon="-7.559373">
        <ele>621.8</ele>
        <time>2023-08-12T07:41:43Z</time>
      </trkpt>
      <trkpt lat="42.784920" lon="-7.559553">
        <ele>623.4</ele>
        <time>2023-08-12T07:42:16Z</time>
      </trkpt>
      <trkpt lat="42.785045" lon="-7.559737">
        <ele>619.5</ele>
        <time>2023-08-12T07:42:33Z</time>
      </trkpt>
      <trkpt lat="42.785204" lon="-7.559857">
        <ele>615.2</ele>
        <time>2023-08-12T07:43:20Z</time>
      </trkpt>
      <trkpt lat="42.785340" lon="-7.560020">
        <ele>613.5</ele>
        <time>2023-08-12T07:43:38Z</time>
      </trkpt>
      <trkpt lat="42.785494" lon="-7.560170">
        <ele>607.5</ele>
        <time>2023-08-12T07:43:57Z</time>
      </trkpt>
      <trkpt lat="42.785613" lon="-7.560358">
        <ele>599.8</ele>
        <time>2023-08-12T07:44:15Z</time>
      </trkpt>
      <trkpt lat="42.785759" lon="-7.560512">
        <ele>596.5</ele>
        <time>2023-08-12T07:44:31Z</time>
      </trkpt>
      <trkpt lat="42.785884" lon="-7.560701">
        <ele>595.5</ele>
        <time>2023-08-12T07:44:44Z</time>
      </trkpt>
      <trkpt lat="42.785988" lon="-7.560903">
        <ele>601.5</ele>
        <time>2023-08-12T07:45:12Z</time>
      </trkpt>
      <trkpt lat="42.786093" lon="-7.561125">
        <ele>607.4</ele>
        <time>2023-08-12T07:45:27Z</time>
      </trkpt>
      <trkpt lat="42.786117" lon="-7.561401">
        <ele>608.5</ele>
        <time>2023-08-12T07:45:41Z</time>
      </trkpt>
      <trkpt lat="42.786124" lon="-7.561644">
        <ele>610.4</ele>
        <time>2023-08-12T07:45:56Z</time>
      </trkpt>
      <trkpt lat="42.786173" lon="-7.561882">
        <ele>605.8</ele>
        <time>2023-08-12T07:46:11Z</time>
      </trkpt>
      <trkpt lat="42.786277" lon="-7.562097">
        <ele>567.0</ele>
        <time>2023-08-12T07:46:26Z</time>
      </trkpt>
      <trkpt lat="42.786368" lon="-7.562282">
        <ele>567.0</ele>
        <time>2023-08-12T07:46:44Z</time>
      </trkpt>
      <trkpt lat="42.786480" lon="-7.562450">
        <ele>567.0</ele>
        <time>2023-08-12T07:46:59Z</time>
      </trkpt>
      <trkpt lat="42.786619" lon="-7.562610">
        <ele>567.0</ele>
        <time>2023-08-12T07:47:15Z</time>
      </trkpt>
      <trkpt lat="42.786771" lon="-7.562743">
        <ele>567.0</ele>
        <time>2023-08-12T07:47:29Z</time>
      </trkpt>
      <trkpt lat="42.786931" lon="-7.562855">
        <ele>587.6</ele>
        <time>2023-08-12T07:47:57Z</time>
      </trkpt>
      <trkpt lat="42.786995" lon="-7.563110">
        <ele>585.8</ele>
        <time>2023-08-12T08:05:41Z</time>
      </trkpt>
      <trkpt lat="42.786961" lon="-7.563342">
        <ele>583.5</ele>
        <time>2023-08-12T08:05:57Z</time>
      </trkpt>
      <trkpt lat="42.787029" lon="-7.563629">
        <ele>579.8</ele>
        <time>2023-08-12T08:06:17Z</time>
      </trkpt>
      <trkpt lat="42.787149" lon="-7.563810">
        <ele>578.5</ele>
        <time>2023-08-12T08:06:33Z</time>
      </trkpt>
      <trkpt lat="42.787282" lon="-7.563963">
        <ele>577.8</ele>
        <time>2023-08-12T08:06:50Z</time>
      </trkpt>
      <trkpt lat="42.787394" lon="-7.564164">
        <ele>575.5</ele>
        <time>2023-08-12T08:07:04Z</time>
      </trkpt>
      <trkpt lat="42.787448" lon="-7.564390">
        <ele>573.5</ele>
        <time>2023-08-12T08:07:19Z</time>
      </trkpt>
      <trkpt lat="42.787545" lon="-7.564615">
        <ele>569.8</ele>
        <time>2023-08-12T08:07:32Z</time>
      </trkpt>
      <trkpt lat="42.787606" lon="-7.564852">
        <ele>570.5</ele>
        <time>2023-08-12T08:07:45Z</time>
      </trkpt>
      <trkpt lat="42.787679" lon="-7.565082">
        <ele>567.5</ele>
        <time>2023-08-12T08:07:58Z</time>
      </trkpt>
      <trkpt lat="42.787757" lon="-7.565306">
        <ele>565.5</ele>
        <time>2023-08-12T08:08:10Z</time>
      </trkpt>
      <trkpt lat="42.787842" lon="-7.565524">
        <ele>563.5</ele>
        <time>2023-08-12T08:08:24Z</time>
      </trkpt>
      <trkpt lat="42.787972" lon="-7.565706">
        <ele>563.5</ele>
        <time>2023-08-12T08:08:36Z</time>
      </trkpt>
      <trkpt lat="42.788013" lon="-7.565946">
        <ele>562.8</ele>
        <time>2023-08-12T08:08:49Z</time>
      </trkpt>
      <trkpt lat="42.788060" lon="-7.566211">
        <ele>561.8</ele>
        <time>2023-08-12T08:09:03Z</time>
      </trkpt>
      <trkpt lat="42.788113" lon="-7.566492">
        <ele>561.4</ele>
        <time>2023-08-12T08:09:18Z</time>
      </trkpt>
      <trkpt lat="42.788211" lon="-7.566708">
        <ele>560.5</ele>
        <time>2023-08-12T08:09:30Z</time>
      </trkpt>
      <trkpt lat="42.788360" lon="-7.566848">
        <ele>558.5</ele>
        <time>2023-08-12T08:09:45Z</time>
      </trkpt>
      <trkpt lat="42.788515" lon="-7.567001">
        <ele>556.5</ele>
        <time>2023-08-12T08:09:59Z</time>
      </trkpt>
      <trkpt lat="42.788534" lon="-7.567214">
        <ele>555.5</ele>
        <time>2023-08-12T08:10:13Z</time>
      </trkpt>
      <trkpt lat="42.788512" lon="-7.567474">
        <ele>554.5</ele>
        <time>2023-08-12T08:10:28Z</time>
      </trkpt>
      <trkpt lat="42.788580" lon="-7.567708">
        <ele>549.5</ele>
        <time>2023-08-12T08:10:45Z</time>
      </trkpt>
      <trkpt lat="42.788730" lon="-7.567856">
        <ele>543.5</ele>
        <time>2023-08-12T08:11:01Z</time>
      </trkpt>
      <trkpt lat="42.788789" lon="-7.568040">
        <ele>540.5</ele>
        <time>2023-08-12T08:11:17Z</time>
      </trkpt>
      <trkpt lat="42.788752" lon="-7.568353">
        <ele>546.0</ele>
        <time>2023-08-12T08:12:07Z</time>
      </trkpt>
      <trkpt lat="42.788688" lon="-7.568611">
        <ele>545.0</ele>
        <time>2023-08-12T08:12:20Z</time>
      </trkpt>
      <trkpt lat="42.788734" lon="-7.568872">
        <ele>544.7</ele>
        <time>2023-08-12T08:12:36Z</time>
      </trkpt>
      <trkpt lat="42.788782" lon="-7.569098">
        <ele>544.7</ele>
        <time>2023-08-12T08:12:51Z</time>
      </trkpt>
      <trkpt lat="42.788853" lon="-7.569327">
        <ele>544.7</ele>
        <time>2023-08-12T08:13:06Z</time>
      </trkpt>
      <trkpt lat="42.788947" lon="-7.569550">
        <ele>544.7</ele>
        <time>2023-08-12T08:13:34Z</time>
      </trkpt>
      <trkpt lat="42.789042" lon="-7.569761">
        <ele>544.3</ele>
        <time>2023-08-12T08:13:48Z</time>
      </trkpt>
      <trkpt lat="42.789138" lon="-7.569975">
        <ele>535.5</ele>
        <time>2023-08-12T08:14:00Z</time>
      </trkpt>
      <trkpt lat="42.789245" lon="-7.570161">
        <ele>534.5</ele>
        <time>2023-08-12T08:14:12Z</time>
      </trkpt>
      <trkpt lat="42.789352" lon="-7.570368">
        <ele>535.5</ele>
        <time>2023-08-12T08:14:21Z</time>
      </trkpt>
      <trkpt lat="42.789467" lon="-7.570565">
        <ele>537.5</ele>
        <time>2023-08-12T08:14:33Z</time>
      </trkpt>
      <trkpt lat="42.789572" lon="-7.570792">
        <ele>537.5</ele>
        <time>2023-08-12T08:14:46Z</time>
      </trkpt>
      <trkpt lat="42.789753" lon="-7.570876">
        <ele>537.5</ele>
        <time>2023-08-12T08:15:10Z</time>
      </trkpt>
      <trkpt lat="42.789866" lon="-7.571027">
        <ele>537.5</ele>
        <time>2023-08-12T08:15:37Z</time>
      </trkpt>
      <trkpt lat="42.790036" lon="-7.571171">
        <ele>537.5</ele>
        <time>2023-08-12T08:15:51Z</time>
      </trkpt>
      <trkpt lat="42.790176" lon="-7.571335">
        <ele>537.5</ele>
        <time>2023-08-12T08:16:04Z</time>
      </trkpt>
      <trkpt lat="42.790319" lon="-7.571502">
        <ele>529.5</ele>
        <time>2023-08-12T08:16:20Z</time>
      </trkpt>
      <trkpt lat="42.790467" lon="-7.571645">
        <ele>530.4</ele>
        <time>2023-08-12T08:16:32Z</time>
      </trkpt>
      <trkpt lat="42.790590" lon="-7.571838">
        <ele>529.4</ele>
        <time>2023-08-12T08:16:44Z</time>
      </trkpt>
      <trkpt lat="42.790731" lon="-7.571995">
        <ele>530.5</ele>
        <time>2023-08-12T08:16:58Z</time>
      </trkpt>
      <trkpt lat="42.790842" lon="-7.572196">
        <ele>529.5</ele>
        <time>2023-08-12T08:17:11Z</time>
      </trkpt>
      <trkpt lat="42.790933" lon="-7.572419">
        <ele>537.8</ele>
        <time>2023-08-12T08:17:26Z</time>
      </trkpt>
      <trkpt lat="42.790943" lon="-7.572668">
        <ele>532.9</ele>
        <time>2023-08-12T08:17:38Z</time>
      </trkpt>
      <trkpt lat="42.790958" lon="-7.572945">
        <ele>537.8</ele>
        <time>2023-08-12T08:17:52Z</time>
      </trkpt>
      <trkpt lat="42.790970" lon="-7.573172">
        <ele>537.8</ele>
        <time>2023-08-12T08:18:05Z</time>
      </trkpt>
      <trkpt lat="42.790979" lon="-7.573428">
        <ele>537.8</ele>
        <time>2023-08-12T08:18:18Z</time>
      </trkpt>
      <trkpt lat="42.790992" lon="-7.573664">
        <ele>537.8</ele>
        <time>2023-08-12T08:18:35Z</time>
      </trkpt>
      <trkpt lat="42.791050" lon="-7.573757">
        <ele>538.5</ele>
        <time>2023-08-12T08:18:50Z</time>
      </trkpt>
      <trkpt lat="42.790961" lon="-7.574162">
        <ele>539.4</ele>
        <time>2023-08-12T08:19:05Z</time>
      </trkpt>
      <trkpt lat="42.790924" lon="-7.574404">
        <ele>538.5</ele>
        <time>2023-08-12T08:19:20Z</time>
      </trkpt>
      <trkpt lat="42.790926" lon="-7.574651">
        <ele>539.5</ele>
        <time>2023-08-12T08:19:38Z</time>
      </trkpt>
      <trkpt lat="42.790911" lon="-7.574907">
        <ele>540.5</ele>
        <time>2023-08-12T08:19:53Z</time>
      </trkpt>
      <trkpt lat="42.790945" lon="-7.575149">
        <ele>542.4</ele>
        <time>2023-08-12T08:20:08Z</time>
      </trkpt>
      <trkpt lat="42.790982" lon="-7.575394">
        <ele>546.4</ele>
        <time>2023-08-12T08:20:25Z</time>
      </trkpt>
      <trkpt lat="42.791064" lon="-7.575643">
        <ele>550.4</ele>
        <time>2023-08-12T08:20:39Z</time>
      </trkpt>
      <trkpt lat="42.791079" lon="-7.575896">
        <ele>552.4</ele>
        <time>2023-08-12T08:20:53Z</time>
      </trkpt>
      <trkpt lat="42.791081" lon="-7.576146">
        <ele>554.4</ele>
        <time>2023-08-12T08:21:06Z</time>
      </trkpt>
      <trkpt lat="42.791065" lon="-7.576400">
        <ele>554.4</ele>
        <time>2023-08-12T08:21:19Z</time>
      </trkpt>
      <trkpt lat="42.791069" lon="-7.576651">
        <ele>556.4</ele>
        <time>2023-08-12T08:21:31Z</time>
      </trkpt>
      <trkpt lat="42.791042" lon="-7.576893">
        <ele>553.5</ele>
        <time>2023-08-12T08:21:44Z</time>
      </trkpt>
      <trkpt lat="42.790976" lon="-7.577125">
        <ele>552.4</ele>
        <time>2023-08-12T08:21:58Z</time>
      </trkpt>
      <trkpt lat="42.790942" lon="-7.577376">
        <ele>552.4</ele>
        <time>2023-08-12T08:22:13Z</time>
      </trkpt>
      <trkpt lat="42.790918" lon="-7.577629">
        <ele>555.4</ele>
        <time>2023-08-12T08:22:25Z</time>
      </trkpt>
      <trkpt lat="42.790859" lon="-7.577867">
        <ele>556.4</ele>
        <time>2023-08-12T08:22:37Z</time>
      </trkpt>
      <trkpt lat="42.790841" lon="-7.578111">
        <ele>554.4</ele>
        <time>2023-08-12T08:22:50Z</time>
      </trkpt>
      <trkpt lat="42.790813" lon="-7.578355">
        <ele>557.4</ele>
        <time>2023-08-12T08:23:02Z</time>
      </trkpt>
      <trkpt lat="42.790806" lon="-7.578605">
        <ele>555.5</ele>
        <time>2023-08-12T08:23:15Z</time>
      </trkpt>
      <trkpt lat="42.790817" lon="-7.578853">
        <ele>557.4</ele>
        <time>2023-08-12T08:23:29Z</time>
      </trkpt>
      <trkpt lat="42.790817" lon="-7.579105">
        <ele>559.4</ele>
        <time>2023-08-12T08:23:43Z</time>
      </trkpt>
      <trkpt lat="42.790835" lon="-7.579358">
        <ele>558.4</ele>
        <time>2023-08-12T08:23:55Z</time>
      </trkpt>
      <trkpt lat="42.790844" lon="-7.579605">
        <ele>558.5</ele>
        <time>2023-08-12T08:24:07Z</time>
      </trkpt>
      <trkpt lat="42.790882" lon="-7.579864">
        <ele>558.4</ele>
        <time>2023-08-12T08:24:21Z</time>
      </trkpt>
      <trkpt lat="42.790915" lon="-7.580109">
        <ele>557.5</ele>
        <time>2023-08-12T08:24:35Z</time>
      </trkpt>
      <trkpt lat="42.790949" lon="-7.580357">
        <ele>559.4</ele>
        <time>2023-08-12T08:24:49Z</time>
      </trkpt>
      <trkpt lat="42.790959" lon="-7.580605">
        <ele>559.4</ele>
        <time>2023-08-12T08:25:03Z</time>
      </trkpt>
      <trkpt lat="42.790984" lon="-7.580856">
        <ele>557.4</ele>
        <time>2023-08-12T08:25:17Z</time>
      </trkpt>
      <trkpt lat="42.791011" lon="-7.581111">
        <ele>558.5</ele>
        <time>2023-08-12T08:25:31Z</time>
      </trkpt>
      <trkpt lat="42.791058" lon="-7.581363">
        <ele>557.4</ele>
        <time>2023-08-12T08:25:46Z</time>
      </trkpt>
      <trkpt lat="42.791099" lon="-7.581605">
        <ele>555.3</ele>
        <time>2023-08-12T08:26:01Z</time>
      </trkpt>
      <trkpt lat="42.791121" lon="-7.581857">
        <ele>555.1</ele>
        <time>2023-08-12T08:26:13Z</time>
      </trkpt>
      <trkpt lat="42.791162" lon="-7.582097">
        <ele>552.4</ele>
        <time>2023-08-12T08:26:29Z</time>
      </trkpt>
      <trkpt lat="42.791187" lon="-7.582355">
        <ele>550.4</ele>
        <time>2023-08-12T08:26:42Z</time>
      </trkpt>
      <trkpt lat="42.791221" lon="-7.582597">
        <ele>546.5</ele>
        <time>2023-08-12T08:26:57Z</time>
      </trkpt>
      <trkpt lat="42.791304" lon="-7.582818">
        <ele>546.4</ele>
        <time>2023-08-12T08:27:11Z</time>
      </trkpt>
      <trkpt lat="42.791404" lon="-7.583028">
        <ele>545.4</ele>
        <time>2023-08-12T08:27:24Z</time>
      </trkpt>
      <trkpt lat="42.791457" lon="-7.583268">
        <ele>543.4</ele>
        <time>2023-08-12T08:27:37Z</time>
      </trkpt>
      <trkpt lat="42.791537" lon="-7.583503">
        <ele>538.4</ele>
        <time>2023-08-12T08:27:51Z</time>
      </trkpt>
      <trkpt lat="42.791709" lon="-7.583603">
        <ele>538.4</ele>
        <time>2023-08-12T08:28:05Z</time>
      </trkpt>
      <trkpt lat="42.791877" lon="-7.583728">
        <ele>536.4</ele>
        <time>2023-08-12T08:28:19Z</time>
      </trkpt>
      <trkpt lat="42.792019" lon="-7.583879">
        <ele>534.4</ele>
        <time>2023-08-12T08:28:32Z</time>
      </trkpt>
      <trkpt lat="42.792194" lon="-7.583938">
        <ele>534.4</ele>
        <time>2023-08-12T08:28:46Z</time>
      </trkpt>
      <trkpt lat="42.792336" lon="-7.583984">
        <ele>533.4</ele>
        <time>2023-08-12T08:28:59Z</time>
      </trkpt>
      <trkpt lat="42.792504" lon="-7.584114">
        <ele>531.4</ele>
        <time>2023-08-12T08:29:12Z</time>
      </trkpt>
      <trkpt lat="42.792649" lon="-7.584243">
        <ele>528.3</ele>
        <time>2023-08-12T08:29:27Z</time>
      </trkpt>
      <trkpt lat="42.792797" lon="-7.584383">
        <ele>526.4</ele>
        <time>2023-08-12T08:29:41Z</time>
      </trkpt>
      <trkpt lat="42.792971" lon="-7.584453">
        <ele>522.5</ele>
        <time>2023-08-12T08:29:54Z</time>
      </trkpt>
      <trkpt lat="42.793126" lon="-7.584589">
        <ele>520.8</ele>
        <time>2023-08-12T08:30:08Z</time>
      </trkpt>
      <trkpt lat="42.793268" lon="-7.584760">
        <ele>519.4</ele>
        <time>2023-08-12T08:30:22Z</time>
      </trkpt>
      <trkpt lat="42.793341" lon="-7.584993">
        <ele>518.4</ele>
        <time>2023-08-12T08:30:35Z</time>
      </trkpt>
      <trkpt lat="42.793406" lon="-7.585229">
        <ele>513.4</ele>
        <time>2023-08-12T08:30:50Z</time>
      </trkpt>
      <trkpt lat="42.793483" lon="-7.585454">
        <ele>493.4</ele>
        <time>2023-08-12T08:31:04Z</time>
      </trkpt>
      <trkpt lat="42.793578" lon="-7.585672">
        <ele>493.4</ele>
        <time>2023-08-12T08:31:18Z</time>
      </trkpt>
      <trkpt lat="42.793636" lon="-7.585906">
        <ele>509.1</ele>
        <time>2023-08-12T08:31:37Z</time>
      </trkpt>
      <trkpt lat="42.793723" lon="-7.586129">
        <ele>493.4</ele>
        <time>2023-08-12T08:31:51Z</time>
      </trkpt>
      <trkpt lat="42.793800" lon="-7.586362">
        <ele>493.4</ele>
        <time>2023-08-12T08:32:07Z</time>
      </trkpt>
      <trkpt lat="42.793911" lon="-7.586561">
        <ele>493.4</ele>
        <time>2023-08-12T08:32:19Z</time>
      </trkpt>
      <trkpt lat="42.794028" lon="-7.586762">
        <ele>498.5</ele>
        <time>2023-08-12T08:32:32Z</time>
      </trkpt>
      <trkpt lat="42.794074" lon="-7.587001">
        <ele>496.5</ele>
        <time>2023-08-12T08:32:46Z</time>
      </trkpt>
      <trkpt lat="42.794086" lon="-7.587253">
        <ele>493.4</ele>
        <time>2023-08-12T08:33:11Z</time>
      </trkpt>
      <trkpt lat="42.793978" lon="-7.587459">
        <ele>493.4</ele>
        <time>2023-08-12T08:33:25Z</time>
      </trkpt>
      <trkpt lat="42.793945" lon="-7.587701">
        <ele>489.7</ele>
        <time>2023-08-12T08:33:39Z</time>
      </trkpt>
      <trkpt lat="42.793997" lon="-7.587940">
        <ele>488.4</ele>
        <time>2023-08-12T08:33:54Z</time>
      </trkpt>
      <trkpt lat="42.794123" lon="-7.588132">
        <ele>493.4</ele>
        <time>2023-08-12T08:34:18Z</time>
      </trkpt>
      <trkpt lat="42.794158" lon="-7.588394">
        <ele>484.9</ele>
        <time>2023-08-12T08:34:41Z</time>
      </trkpt>
      <trkpt lat="42.794173" lon="-7.588633">
        <ele>484.9</ele>
        <time>2023-08-12T08:34:53Z</time>
      </trkpt>
      <trkpt lat="42.794225" lon="-7.588871">
        <ele>484.9</ele>
        <time>2023-08-12T08:35:05Z</time>
      </trkpt>
      <trkpt lat="42.794260" lon="-7.589120">
        <ele>480.5</ele>
        <time>2023-08-12T08:36:49Z</time>
      </trkpt>
      <trkpt lat="42.794294" lon="-7.589391">
        <ele>480.2</ele>
        <time>2023-08-12T08:37:04Z</time>
      </trkpt>
      <trkpt lat="42.794324" lon="-7.589634">
        <ele>480.5</ele>
        <time>2023-08-12T08:37:18Z</time>
      </trkpt>
      <trkpt lat="42.794371" lon="-7.589881">
        <ele>482.4</ele>
        <time>2023-08-12T08:37:33Z</time>
      </trkpt>
      <trkpt lat="42.794384" lon="-7.590127">
        <ele>481.4</ele>
        <time>2023-08-12T08:37:46Z</time>
      </trkpt>
      <trkpt lat="42.794412" lon="-7.590381">
        <ele>481.4</ele>
        <time>2023-08-12T08:37:59Z</time>
      </trkpt>
      <trkpt lat="42.794409" lon="-7.590629">
        <ele>481.4</ele>
        <time>2023-08-12T08:38:11Z</time>
      </trkpt>
      <trkpt lat="42.794398" lon="-7.590876">
        <ele>478.7</ele>
        <time>2023-08-12T08:38:25Z</time>
      </trkpt>
      <trkpt lat="42.794351" lon="-7.591132">
        <ele>477.4</ele>
        <time>2023-08-12T08:38:40Z</time>
      </trkpt>
      <trkpt lat="42.794296" lon="-7.591262">
        <ele>477.4</ele>
        <time>2023-08-12T08:38:55Z</time>
      </trkpt>
      <trkpt lat="42.794422" lon="-7.591626">
        <ele>473.7</ele>
        <time>2023-08-12T08:39:09Z</time>
      </trkpt>
      <trkpt lat="42.794474" lon="-7.591868">
        <ele>473.1</ele>
        <time>2023-08-12T08:39:23Z</time>
      </trkpt>
      <trkpt lat="42.794534" lon="-7.592104">
        <ele>473.5</ele>
        <time>2023-08-12T08:39:37Z</time>
      </trkpt>
      <trkpt lat="42.794597" lon="-7.592334">
        <ele>474.4</ele>
        <time>2023-08-12T08:39:50Z</time>
      </trkpt>
      <trkpt lat="42.794678" lon="-7.592572">
        <ele>473.4</ele>
        <time>2023-08-12T08:40:04Z</time>
      </trkpt>
      <trkpt lat="42.794746" lon="-7.592809">
        <ele>472.4</ele>
        <time>2023-08-12T08:40:17Z</time>
      </trkpt>
      <trkpt lat="42.794813" lon="-7.593043">
        <ele>469.8</ele>
        <time>2023-08-12T08:40:30Z</time>
      </trkpt>
      <trkpt lat="42.794861" lon="-7.593291">
        <ele>468.7</ele>
        <time>2023-08-12T08:40:44Z</time>
      </trkpt>
      <trkpt lat="42.794918" lon="-7.593535">
        <ele>469.4</ele>
        <time>2023-08-12T08:40:58Z</time>
      </trkpt>
      <trkpt lat="42.794941" lon="-7.593786">
        <ele>468.5</ele>
        <time>2023-08-12T08:41:13Z</time>
      </trkpt>
      <trkpt lat="42.794924" lon="-7.594035">
        <ele>468.4</ele>
        <time>2023-08-12T08:41:25Z</time>
      </trkpt>
      <trkpt lat="42.794931" lon="-7.594311">
        <ele>466.5</ele>
        <time>2023-08-12T08:41:40Z</time>
      </trkpt>
      <trkpt lat="42.794998" lon="-7.594548">
        <ele>464.5</ele>
        <time>2023-08-12T08:41:56Z</time>
      </trkpt>
      <trkpt lat="42.795063" lon="-7.594804">
        <ele>460.5</ele>
        <time>2023-08-12T08:42:10Z</time>
      </trkpt>
      <trkpt lat="42.795115" lon="-7.595046">
        <ele>459.4</ele>
        <time>2023-08-12T08:42:26Z</time>
      </trkpt>
      <trkpt lat="42.795168" lon="-7.595283">
        <ele>459.5</ele>
        <time>2023-08-12T08:42:39Z</time>
      </trkpt>
      <trkpt lat="42.795210" lon="-7.595528">
        <ele>457.5</ele>
        <time>2023-08-12T08:42:53Z</time>
      </trkpt>
      <trkpt lat="42.795256" lon="-7.595778">
        <ele>454.4</ele>
        <time>2023-08-12T08:43:10Z</time>
      </trkpt>
      <trkpt lat="42.795279" lon="-7.596028">
        <ele>450.5</ele>
        <time>2023-08-12T08:43:24Z</time>
      </trkpt>
      <trkpt lat="42.795339" lon="-7.596263">
        <ele>448.4</ele>
        <time>2023-08-12T08:43:39Z</time>
      </trkpt>
      <trkpt lat="42.795303" lon="-7.596504">
        <ele>445.5</ele>
        <time>2023-08-12T08:43:54Z</time>
      </trkpt>
      <trkpt lat="42.795275" lon="-7.596750">
        <ele>442.4</ele>
        <time>2023-08-12T08:44:09Z</time>
      </trkpt>
      <trkpt lat="42.795213" lon="-7.596989">
        <ele>440.7</ele>
        <time>2023-08-12T08:44:34Z</time>
      </trkpt>
      <trkpt lat="42.795324" lon="-7.597233">
        <ele>439.4</ele>
        <time>2023-08-12T08:44:48Z</time>
      </trkpt>
      <trkpt lat="42.795385" lon="-7.597469">
        <ele>439.4</ele>
        <time>2023-08-12T08:45:02Z</time>
      </trkpt>
      <trkpt lat="42.795436" lon="-7.597717">
        <ele>437.4</ele>
        <time>2023-08-12T08:45:17Z</time>
      </trkpt>
      <trkpt lat="42.795493" lon="-7.597959">
        <ele>436.4</ele>
        <time>2023-08-12T08:45:30Z</time>
      </trkpt>
      <trkpt lat="42.795544" lon="-7.598207">
        <ele>433.4</ele>
        <time>2023-08-12T08:45:45Z</time>
      </trkpt>
      <trkpt lat="42.795595" lon="-7.598472">
        <ele>433.4</ele>
        <time>2023-08-12T08:46:00Z</time>
      </trkpt>
      <trkpt lat="42.795607" lon="-7.598739">
        <ele>430.5</ele>
        <time>2023-08-12T08:46:15Z</time>
      </trkpt>
      <trkpt lat="42.795572" lon="-7.598990">
        <ele>428.5</ele>
        <time>2023-08-12T08:46:30Z</time>
      </trkpt>
      <trkpt lat="42.795545" lon="-7.599240">
        <ele>427.4</ele>
        <time>2023-08-12T08:46:45Z</time>
      </trkpt>
      <trkpt lat="42.795542" lon="-7.599488">
        <ele>428.4</ele>
        <time>2023-08-12T08:46:58Z</time>
      </trkpt>
      <trkpt lat="42.795576" lon="-7.599736">
        <ele>428.4</ele>
        <time>2023-08-12T08:47:13Z</time>
      </trkpt>
      <trkpt lat="42.795574" lon="-7.599986">
        <ele>429.4</ele>
        <time>2023-08-12T08:47:26Z</time>
      </trkpt>
      <trkpt lat="42.795623" lon="-7.600235">
        <ele>426.7</ele>
        <time>2023-08-12T08:48:49Z</time>
      </trkpt>
      <trkpt lat="42.795649" lon="-7.600484">
        <ele>427.4</ele>
        <time>2023-08-12T08:49:02Z</time>
      </trkpt>
      <trkpt lat="42.795672" lon="-7.600729">
        <ele>426.2</ele>
        <time>2023-08-12T08:49:15Z</time>
      </trkpt>
      <trkpt lat="42.795611" lon="-7.600982">
        <ele>426.4</ele>
        <time>2023-08-12T08:49:31Z</time>
      </trkpt>
      <trkpt lat="42.795579" lon="-7.601241">
        <ele>424.8</ele>
        <time>2023-08-12T08:49:46Z</time>
      </trkpt>
      <trkpt lat="42.795550" lon="-7.601493">
        <ele>424.4</ele>
        <time>2023-08-12T08:50:01Z</time>
      </trkpt>
      <trkpt lat="42.795479" lon="-7.601760">
        <ele>424.3</ele>
        <time>2023-08-12T08:50:16Z</time>
      </trkpt>
      <trkpt lat="42.795481" lon="-7.601977">
        <ele>424.2</ele>
        <time>2023-08-12T08:50:35Z</time>
      </trkpt>
      <trkpt lat="42.795635" lon="-7.602230">
        <ele>426.4</ele>
        <time>2023-08-12T08:51:06Z</time>
      </trkpt>
      <trkpt lat="42.795691" lon="-7.602437">
        <ele>427.4</ele>
        <time>2023-08-12T08:51:54Z</time>
      </trkpt>
      <trkpt lat="42.795711" lon="-7.602696">
        <ele>428.1</ele>
        <time>2023-08-12T08:52:09Z</time>
      </trkpt>
      <trkpt lat="42.795684" lon="-7.602945">
        <ele>428.1</ele>
        <time>2023-08-12T08:52:22Z</time>
      </trkpt>
      <trkpt lat="42.795687" lon="-7.603216">
        <ele>428.1</ele>
        <time>2023-08-12T08:52:41Z</time>
      </trkpt>
      <trkpt lat="42.795635" lon="-7.603436">
        <ele>428.1</ele>
        <time>2023-08-12T08:52:55Z</time>
      </trkpt>
      <trkpt lat="42.795417" lon="-7.603602">
        <ele>427.4</ele>
        <time>2023-08-12T08:53:29Z</time>
      </trkpt>
      <trkpt lat="42.795356" lon="-7.603777">
        <ele>426.6</ele>
        <time>2023-08-12T08:53:49Z</time>
      </trkpt>
      <trkpt lat="42.795233" lon="-7.603953">
        <ele>426.5</ele>
        <time>2023-08-12T08:54:04Z</time>
      </trkpt>
      <trkpt lat="42.795112" lon="-7.604178">
        <ele>426.5</ele>
        <time>2023-08-12T08:54:17Z</time>
      </trkpt>
      <trkpt lat="42.795107" lon="-7.604456">
        <ele>426.5</ele>
        <time>2023-08-12T08:55:09Z</time>
      </trkpt>
      <trkpt lat="42.795126" lon="-7.604747">
        <ele>426.4</ele>
        <time>2023-08-12T08:55:22Z</time>
      </trkpt>
      <trkpt lat="42.795189" lon="-7.605002">
        <ele>426.4</ele>
        <time>2023-08-12T08:55:46Z</time>
      </trkpt>
      <trkpt lat="42.795256" lon="-7.605234">
        <ele>426.4</ele>
        <time>2023-08-12T08:56:00Z</time>
      </trkpt>
      <trkpt lat="42.795327" lon="-7.605476">
        <ele>426.4</ele>
        <time>2023-08-12T08:56:15Z</time>
      </trkpt>
      <trkpt lat="42.795405" lon="-7.605705">
        <ele>426.4</ele>
        <time>2023-08-12T08:56:34Z</time>
      </trkpt>
      <trkpt lat="42.795493" lon="-7.605940">
        <ele>417.4</ele>
        <time>2023-08-12T08:56:49Z</time>
      </trkpt>
      <trkpt lat="42.795540" lon="-7.606177">
        <ele>417.4</ele>
        <time>2023-08-12T08:57:03Z</time>
      </trkpt>
      <trkpt lat="42.795586" lon="-7.606426">
        <ele>417.4</ele>
        <time>2023-08-12T08:57:18Z</time>
      </trkpt>
      <trkpt lat="42.795644" lon="-7.606676">
        <ele>419.4</ele>
        <time>2023-08-12T08:57:32Z</time>
      </trkpt>
      <trkpt lat="42.795676" lon="-7.606924">
        <ele>418.4</ele>
        <time>2023-08-12T08:57:46Z</time>
      </trkpt>
      <trkpt lat="42.795704" lon="-7.607171">
        <ele>419.5</ele>
        <time>2023-08-12T08:58:01Z</time>
      </trkpt>
      <trkpt lat="42.795721" lon="-7.607429">
        <ele>419.4</ele>
        <time>2023-08-12T08:58:16Z</time>
      </trkpt>
      <trkpt lat="42.795745" lon="-7.607680">
        <ele>418.4</ele>
        <time>2023-08-12T08:58:30Z</time>
      </trkpt>
      <trkpt lat="42.795782" lon="-7.607935">
        <ele>419.7</ele>
        <time>2023-08-12T08:58:45Z</time>
      </trkpt>
      <trkpt lat="42.795852" lon="-7.608168">
        <ele>419.4</ele>
        <time>2023-08-12T08:58:59Z</time>
      </trkpt>
      <trkpt lat="42.795943" lon="-7.608397">
        <ele>420.4</ele>
        <time>2023-08-12T08:59:15Z</time>
      </trkpt>
      <trkpt lat="42.796000" lon="-7.608637">
        <ele>420.4</ele>
        <time>2023-08-12T08:59:29Z</time>
      </trkpt>
      <trkpt lat="42.796043" lon="-7.608877">
        <ele>421.4</ele>
        <time>2023-08-12T08:59:42Z</time>
      </trkpt>
      <trkpt lat="42.796096" lon="-7.609124">
        <ele>420.4</ele>
        <time>2023-08-12T08:59:57Z</time>
      </trkpt>
      <trkpt lat="42.796312" lon="-7.609283">
        <ele>419.5</ele>
        <time>2023-08-12T09:00:12Z</time>
      </trkpt>
      <trkpt lat="42.796467" lon="-7.609165">
        <ele>419.2</ele>
        <time>2023-08-12T09:00:31Z</time>
      </trkpt>
      <trkpt lat="42.796608" lon="-7.609010">
        <ele>419.4</ele>
        <time>2023-08-12T09:01:43Z</time>
      </trkpt>
      <trkpt lat="42.796613" lon="-7.608792">
        <ele>423.4</ele>
        <time>2023-08-12T09:03:38Z</time>
      </trkpt>
      <trkpt lat="42.796866" lon="-7.608662">
        <ele>420.5</ele>
        <time>2023-08-12T09:03:51Z</time>
      </trkpt>
      <trkpt lat="42.797034" lon="-7.608554">
        <ele>421.4</ele>
        <time>2023-08-12T09:04:05Z</time>
      </trkpt>
      <trkpt lat="42.797196" lon="-7.608423">
        <ele>418.4</ele>
        <time>2023-08-12T09:04:18Z</time>
      </trkpt>
      <trkpt lat="42.797357" lon="-7.608307">
        <ele>419.4</ele>
        <time>2023-08-12T09:04:31Z</time>
      </trkpt>
      <trkpt lat="42.797526" lon="-7.608220">
        <ele>418.4</ele>
        <time>2023-08-12T09:04:45Z</time>
      </trkpt>
      <trkpt lat="42.797769" lon="-7.608142">
        <ele>418.4</ele>
        <time>2023-08-12T09:04:58Z</time>
      </trkpt>
      <trkpt lat="42.797885" lon="-7.608239">
        <ele>419.4</ele>
        <time>2023-08-12T09:05:13Z</time>
      </trkpt>
      <trkpt lat="42.798053" lon="-7.608377">
        <ele>419.4</ele>
        <time>2023-08-12T09:05:28Z</time>
      </trkpt>
      <trkpt lat="42.798208" lon="-7.608511">
        <ele>418.5</ele>
        <time>2023-08-12T09:05:44Z</time>
      </trkpt>
      <trkpt lat="42.798379" lon="-7.608618">
        <ele>416.4</ele>
        <time>2023-08-12T09:05:58Z</time>
      </trkpt>
      <trkpt lat="42.798566" lon="-7.608648">
        <ele>415.4</ele>
        <time>2023-08-12T09:06:13Z</time>
      </trkpt>
      <trkpt lat="42.798763" lon="-7.608653">
        <ele>414.5</ele>
        <time>2023-08-12T09:06:28Z</time>
      </trkpt>
      <trkpt lat="42.798964" lon="-7.608689">
        <ele>413.4</ele>
        <time>2023-08-12T09:06:43Z</time>
      </trkpt>
      <trkpt lat="42.799127" lon="-7.608800">
        <ele>413.4</ele>
        <time>2023-08-12T09:06:59Z</time>
      </trkpt>
      <trkpt lat="42.799198" lon="-7.609038">
        <ele>410.5</ele>
        <time>2023-08-12T09:07:15Z</time>
      </trkpt>
      <trkpt lat="42.799275" lon="-7.609273">
        <ele>407.5</ele>
        <time>2023-08-12T09:07:32Z</time>
      </trkpt>
      <trkpt lat="42.799383" lon="-7.609476">
        <ele>403.4</ele>
        <time>2023-08-12T09:07:46Z</time>
      </trkpt>
      <trkpt lat="42.799452" lon="-7.609717">
        <ele>400.4</ele>
        <time>2023-08-12T09:08:49Z</time>
      </trkpt>
      <trkpt lat="42.799515" lon="-7.609948">
        <ele>396.4</ele>
        <time>2023-08-12T09:09:11Z</time>
      </trkpt>
      <trkpt lat="42.799558" lon="-7.610198">
        <ele>391.7</ele>
        <time>2023-08-12T09:09:28Z</time>
      </trkpt>
      <trkpt lat="42.799617" lon="-7.610430">
        <ele>387.5</ele>
        <time>2023-08-12T09:09:43Z</time>
      </trkpt>
      <trkpt lat="42.799728" lon="-7.610632">
        <ele>383.5</ele>
        <time>2023-08-12T09:09:58Z</time>
      </trkpt>
      <trkpt lat="42.799889" lon="-7.610746">
        <ele>379.4</ele>
        <time>2023-08-12T09:10:14Z</time>
      </trkpt>
      <trkpt lat="42.800065" lon="-7.610837">
        <ele>376.4</ele>
        <time>2023-08-12T09:10:29Z</time>
      </trkpt>
      <trkpt lat="42.800244" lon="-7.610907">
        <ele>372.7</ele>
        <time>2023-08-12T09:10:58Z</time>
      </trkpt>
      <trkpt lat="42.800428" lon="-7.611020">
        <ele>371.4</ele>
        <time>2023-08-12T09:11:14Z</time>
      </trkpt>
      <trkpt lat="42.800465" lon="-7.611274">
        <ele>368.1</ele>
        <time>2023-08-12T09:11:31Z</time>
      </trkpt>
      <trkpt lat="42.800491" lon="-7.611526">
        <ele>358.7</ele>
        <time>2023-08-12T09:12:01Z</time>
      </trkpt>
      <trkpt lat="42.800550" lon="-7.611760">
        <ele>355.7</ele>
        <time>2023-08-12T09:12:40Z</time>
      </trkpt>
      <trkpt lat="42.800733" lon="-7.611810">
        <ele>353.5</ele>
        <time>2023-08-12T09:12:55Z</time>
      </trkpt>
      <trkpt lat="42.800885" lon="-7.611900">
        <ele>349.5</ele>
        <time>2023-08-12T09:13:22Z</time>
      </trkpt>
      <trkpt lat="42.801054" lon="-7.612022">
        <ele>349.4</ele>
        <time>2023-08-12T09:13:38Z</time>
      </trkpt>
      <trkpt lat="42.800996" lon="-7.612298">
        <ele>349.4</ele>
        <time>2023-08-12T09:13:50Z</time>
      </trkpt>
      <trkpt lat="42.801102" lon="-7.612501">
        <ele>351.4</ele>
        <time>2023-08-12T09:14:04Z</time>
      </trkpt>
      <trkpt lat="42.801259" lon="-7.612623">
        <ele>349.5</ele>
        <time>2023-08-12T09:14:17Z</time>
      </trkpt>
      <trkpt lat="42.801431" lon="-7.612723">
        <ele>349.4</ele>
        <time>2023-08-12T09:14:30Z</time>
      </trkpt>
      <trkpt lat="42.801607" lon="-7.612824">
        <ele>351.2</ele>
        <time>2023-08-12T09:14:44Z</time>
      </trkpt>
      <trkpt lat="42.801797" lon="-7.612859">
        <ele>351.5</ele>
        <time>2023-08-12T09:15:00Z</time>
      </trkpt>
      <trkpt lat="42.801975" lon="-7.612914">
        <ele>354.9</ele>
        <time>2023-08-12T09:15:15Z</time>
      </trkpt>
      <trkpt lat="42.802108" lon="-7.613082">
        <ele>353.6</ele>
        <time>2023-08-12T09:15:30Z</time>
      </trkpt>
      <trkpt lat="42.802221" lon="-7.613285">
        <ele>355.2</ele>
        <time>2023-08-12T09:15:44Z</time>
      </trkpt>
      <trkpt lat="42.802311" lon="-7.613501">
        <ele>355.6</ele>
        <time>2023-08-12T09:15:58Z</time>
      </trkpt>
      <trkpt lat="42.802340" lon="-7.613744">
        <ele>353.4</ele>
        <time>2023-08-12T09:16:13Z</time>
      </trkpt>
      <trkpt lat="42.802293" lon="-7.614003">
        <ele>351.7</ele>
        <time>2023-08-12T09:16:25Z</time>
      </trkpt>
      <trkpt lat="42.802260" lon="-7.614264">
        <ele>351.4</ele>
        <time>2023-08-12T09:16:40Z</time>
      </trkpt>
      <trkpt lat="42.802240" lon="-7.614517">
        <ele>350.4</ele>
        <time>2023-08-12T09:16:57Z</time>
      </trkpt>
      <trkpt lat="42.802160" lon="-7.614935">
        <ele>347.1</ele>
        <time>2023-08-12T09:17:18Z</time>
      </trkpt>
      <trkpt lat="42.802245" lon="-7.615013">
        <ele>343.3</ele>
        <time>2023-08-12T09:18:15Z</time>
      </trkpt>
      <trkpt lat="42.802409" lon="-7.615118">
        <ele>347.1</ele>
        <time>2023-08-12T09:19:02Z</time>
      </trkpt>
      <trkpt lat="42.802588" lon="-7.615232">
        <ele>347.0</ele>
        <time>2023-08-12T09:19:44Z</time>
      </trkpt>
      <trkpt lat="42.802753" lon="-7.615363">
        <ele>345.0</ele>
        <time>2023-08-12T09:20:14Z</time>
      </trkpt>
      <trkpt lat="42.802895" lon="-7.615524">
        <ele>343.2</ele>
        <time>2023-08-12T09:21:10Z</time>
      </trkpt>
      <trkpt lat="42.803061" lon="-7.615635">
        <ele>344.7</ele>
        <time>2023-08-12T09:21:28Z</time>
      </trkpt>
      <trkpt lat="42.803232" lon="-7.615750">
        <ele>384.2</ele>
        <time>2023-08-12T09:21:43Z</time>
      </trkpt>
      <trkpt lat="42.803399" lon="-7.615860">
        <ele>348.3</ele>
        <time>2023-08-12T09:21:56Z</time>
      </trkpt>
      <trkpt lat="42.803564" lon="-7.615968">
        <ele>348.3</ele>
        <time>2023-08-12T09:22:12Z</time>
      </trkpt>
      <trkpt lat="42.803742" lon="-7.616037">
        <ele>347.2</ele>
        <time>2023-08-12T09:22:35Z</time>
      </trkpt>
      <trkpt lat="42.803910" lon="-7.616142">
        <ele>346.4</ele>
        <time>2023-08-12T09:23:10Z</time>
      </trkpt>
      <trkpt lat="42.804095" lon="-7.616243">
        <ele>343.4</ele>
        <time>2023-08-12T09:23:25Z</time>
      </trkpt>
      <trkpt lat="42.804269" lon="-7.616349">
        <ele>344.1</ele>
        <time>2023-08-12T09:23:50Z</time>
      </trkpt>
      <trkpt lat="42.804436" lon="-7.616451">
        <ele>345.1</ele>
        <time>2023-08-12T09:24:28Z</time>
      </trkpt>
      <trkpt lat="42.804595" lon="-7.616571">
        <ele>345.4</ele>
        <time>2023-08-12T09:25:01Z</time>
      </trkpt>
      <trkpt lat="42.804744" lon="-7.616743">
        <ele>345.4</ele>
        <time>2023-08-12T09:26:06Z</time>
      </trkpt>
      <trkpt lat="42.804945" lon="-7.616751">
        <ele>347.1</ele>
        <time>2023-08-12T09:26:37Z</time>
      </trkpt>
      <trkpt lat="42.805091" lon="-7.616902">
        <ele>347.1</ele>
        <time>2023-08-12T09:28:05Z</time>
      </trkpt>
      <trkpt lat="42.805262" lon="-7.617009">
        <ele>364.7</ele>
        <time>2023-08-12T09:29:25Z</time>
      </trkpt>
      <trkpt lat="42.805431" lon="-7.617129">
        <ele>356.4</ele>
        <time>2023-08-12T09:30:02Z</time>
      </trkpt>
      <trkpt lat="42.805608" lon="-7.617069">
        <ele>365.1</ele>
        <time>2023-08-12T09:30:49Z</time>
      </trkpt>
      <trkpt lat="42.805758" lon="-7.616925">
        <ele>374.8</ele>
        <time>2023-08-12T09:31:10Z</time>
      </trkpt>
      <trkpt lat="42.805898" lon="-7.616759">
        <ele>374.8</ele>
        <time>2023-08-12T09:31:35Z</time>
      </trkpt>
      <trkpt lat="42.806077" lon="-7.616572">
        <ele>373.9</ele>
        <time>2023-08-12T09:31:59Z</time>
      </trkpt>
      <trkpt lat="42.806230" lon="-7.616659">
        <ele>375.6</ele>
        <time>2023-08-12T09:32:17Z</time>
      </trkpt>
      <trkpt lat="42.806326" lon="-7.616665">
        <ele>375.5</ele>
        <time>2023-08-12T09:33:05Z</time>
      </trkpt>
      <trkpt lat="42.806538" lon="-7.616360">
        <ele>381.7</ele>
        <time>2023-08-12T09:33:18Z</time>
      </trkpt>
      <trkpt lat="42.806665" lon="-7.616189">
        <ele>384.2</ele>
        <time>2023-08-12T09:33:30Z</time>
      </trkpt>
      <trkpt lat="42.806795" lon="-7.616018">
        <ele>382.3</ele>
        <time>2023-08-12T09:33:45Z</time>
      </trkpt>
      <trkpt lat="42.806937" lon="-7.615861">
        <ele>383.4</ele>
        <time>2023-08-12T09:34:04Z</time>
      </trkpt>
      <trkpt lat="42.807064" lon="-7.615678">
        <ele>383.9</ele>
        <time>2023-08-12T09:34:16Z</time>
      </trkpt>
      <trkpt lat="42.807205" lon="-7.615514">
        <ele>385.7</ele>
        <time>2023-08-12T09:34:30Z</time>
      </trkpt>
      <trkpt lat="42.807323" lon="-7.615322">
        <ele>385.7</ele>
        <time>2023-08-12T09:34:42Z</time>
      </trkpt>
      <trkpt lat="42.807478" lon="-7.615094">
        <ele>385.4</ele>
        <time>2023-08-12T09:34:55Z</time>
      </trkpt>
      <trkpt lat="42.807712" lon="-7.615409">
        <ele>388.8</ele>
        <time>2023-08-12T09:35:17Z</time>
      </trkpt>
      <trkpt lat="42.807606" lon="-7.615601">
        <ele>389.7</ele>
        <time>2023-08-12T09:35:48Z</time>
      </trkpt>
      <trkpt lat="42.807566" lon="-7.615783">
        <ele>389.6</ele>
        <time>2023-08-12T09:36:01Z</time>
      </trkpt>
      <trkpt lat="42.807443" lon="-7.615776">
        <ele>388.0</ele>
        <time>2023-08-13T04:26:41Z</time>
      </trkpt>
      <trkpt lat="42.807175" lon="-7.616141">
        <ele>387.0</ele>
        <time>2023-08-13T04:26:52Z</time>
      </trkpt>
      <trkpt lat="42.807028" lon="-7.616300">
        <ele>385.4</ele>
        <time>2023-08-13T04:27:07Z</time>
      </trkpt>
      <trkpt lat="42.806899" lon="-7.616487">
        <ele>384.9</ele>
        <time>2023-08-13T04:27:21Z</time>
      </trkpt>
      <trkpt lat="42.806619" lon="-7.616808">
        <ele>382.8</ele>
        <time>2023-08-13T04:28:07Z</time>
      </trkpt>
      <trkpt lat="42.806490" lon="-7.617002">
        <ele>383.2</ele>
        <time>2023-08-13T04:28:18Z</time>
      </trkpt>
      <trkpt lat="42.806355" lon="-7.617181">
        <ele>381.8</ele>
        <time>2023-08-13T04:28:30Z</time>
      </trkpt>
      <trkpt lat="42.806278" lon="-7.617404">
        <ele>375.7</ele>
        <time>2023-08-13T04:28:45Z</time>
      </trkpt>
      <trkpt lat="42.806216" lon="-7.617630">
        <ele>375.4</ele>
        <time>2023-08-13T04:28:58Z</time>
      </trkpt>
      <trkpt lat="42.806203" lon="-7.617877">
        <ele>375.4</ele>
        <time>2023-08-13T04:29:33Z</time>
      </trkpt>
      <trkpt lat="42.806210" lon="-7.618128">
        <ele>375.3</ele>
        <time>2023-08-13T04:29:47Z</time>
      </trkpt>
      <trkpt lat="42.806284" lon="-7.618357">
        <ele>373.9</ele>
        <time>2023-08-13T04:30:00Z</time>
      </trkpt>
      <trkpt lat="42.806357" lon="-7.618582">
        <ele>372.1</ele>
        <time>2023-08-13T04:30:10Z</time>
      </trkpt>
      <trkpt lat="42.806442" lon="-7.618805">
        <ele>371.9</ele>
        <time>2023-08-13T04:30:24Z</time>
      </trkpt>
      <trkpt lat="42.806504" lon="-7.619046">
        <ele>369.9</ele>
        <time>2023-08-13T04:30:39Z</time>
      </trkpt>
      <trkpt lat="42.806545" lon="-7.619294">
        <ele>366.3</ele>
        <time>2023-08-13T04:30:52Z</time>
      </trkpt>
      <trkpt lat="42.806571" lon="-7.619544">
        <ele>359.9</ele>
        <time>2023-08-13T04:31:06Z</time>
      </trkpt>
      <trkpt lat="42.806597" lon="-7.619787">
        <ele>359.9</ele>
        <time>2023-08-13T04:31:22Z</time>
      </trkpt>
      <trkpt lat="42.806568" lon="-7.620035">
        <ele>359.9</ele>
        <time>2023-08-13T04:31:36Z</time>
      </trkpt>
      <trkpt lat="42.806551" lon="-7.620285">
        <ele>366.3</ele>
        <time>2023-08-13T04:31:49Z</time>
      </trkpt>
      <trkpt lat="42.806527" lon="-7.620535">
        <ele>357.5</ele>
        <time>2023-08-13T04:32:07Z</time>
      </trkpt>
      <trkpt lat="42.806493" lon="-7.620897">
        <ele>357.3</ele>
        <time>2023-08-13T04:32:22Z</time>
      </trkpt>
      <trkpt lat="42.806414" lon="-7.620978">
        <ele>353.4</ele>
        <time>2023-08-13T04:32:44Z</time>
      </trkpt>
      <trkpt lat="42.806382" lon="-7.620441">
        <ele>353.5</ele>
        <time>2023-08-13T04:32:58Z</time>
      </trkpt>
      <trkpt lat="42.806374" lon="-7.620181">
        <ele>353.4</ele>
        <time>2023-08-13T04:33:13Z</time>
      </trkpt>
      <trkpt lat="42.806383" lon="-7.619931">
        <ele>354.4</ele>
        <time>2023-08-13T04:33:30Z</time>
      </trkpt>
      <trkpt lat="42.806332" lon="-7.619688">
        <ele>352.4</ele>
        <time>2023-08-13T04:33:44Z</time>
      </trkpt>
      <trkpt lat="42.806276" lon="-7.619445">
        <ele>351.4</ele>
        <time>2023-08-13T04:33:58Z</time>
      </trkpt>
      <trkpt lat="42.806182" lon="-7.619228">
        <ele>351.4</ele>
        <time>2023-08-13T04:34:13Z</time>
      </trkpt>
      <trkpt lat="42.806019" lon="-7.619109">
        <ele>350.4</ele>
        <time>2023-08-13T04:34:28Z</time>
      </trkpt>
      <trkpt lat="42.805790" lon="-7.618992">
        <ele>350.4</ele>
        <time>2023-08-13T04:34:43Z</time>
      </trkpt>
      <trkpt lat="42.805706" lon="-7.619062">
        <ele>352.0</ele>
        <time>2023-08-13T04:34:57Z</time>
      </trkpt>
      <trkpt lat="42.805624" lon="-7.619293">
        <ele>365.2</ele>
        <time>2023-08-13T04:35:10Z</time>
      </trkpt>
      <trkpt lat="42.805525" lon="-7.619502">
        <ele>370.9</ele>
        <time>2023-08-13T04:35:25Z</time>
      </trkpt>
      <trkpt lat="42.805436" lon="-7.619698">
        <ele>370.9</ele>
        <time>2023-08-13T04:35:39Z</time>
      </trkpt>
      <trkpt lat="42.805295" lon="-7.619950">
        <ele>370.9</ele>
        <time>2023-08-13T04:35:53Z</time>
      </trkpt>
      <trkpt lat="42.805444" lon="-7.620182">
        <ele>370.9</ele>
        <time>2023-08-13T04:36:07Z</time>
      </trkpt>
      <trkpt lat="42.805476" lon="-7.620419">
        <ele>375.4</ele>
        <time>2023-08-13T04:36:21Z</time>
      </trkpt>
      <trkpt lat="42.805418" lon="-7.620629">
        <ele>370.9</ele>
        <time>2023-08-13T04:36:35Z</time>
      </trkpt>
      <trkpt lat="42.805348" lon="-7.620860">
        <ele>370.9</ele>
        <time>2023-08-13T04:36:48Z</time>
      </trkpt>
      <trkpt lat="42.805306" lon="-7.621099">
        <ele>370.9</ele>
        <time>2023-08-13T04:37:04Z</time>
      </trkpt>
      <trkpt lat="42.805270" lon="-7.621349">
        <ele>370.9</ele>
        <time>2023-08-13T04:37:18Z</time>
      </trkpt>
      <trkpt lat="42.805243" lon="-7.621596">
        <ele>370.9</ele>
        <time>2023-08-13T04:37:33Z</time>
      </trkpt>
      <trkpt lat="42.805272" lon="-7.621843">
        <ele>370.9</ele>
        <time>2023-08-13T04:37:48Z</time>
      </trkpt>
      <trkpt lat="42.805177" lon="-7.622058">
        <ele>370.9</ele>
        <time>2023-08-13T04:38:04Z</time>
      </trkpt>
      <trkpt lat="42.805110" lon="-7.622293">
        <ele>370.9</ele>
        <time>2023-08-13T04:38:21Z</time>
      </trkpt>
      <trkpt lat="42.805033" lon="-7.622516">
        <ele>370.9</ele>
        <time>2023-08-13T04:38:37Z</time>
      </trkpt>
      <trkpt lat="42.804990" lon="-7.622757">
        <ele>370.9</ele>
        <time>2023-08-13T04:38:57Z</time>
      </trkpt>
      <trkpt lat="42.804929" lon="-7.622999">
        <ele>359.3</ele>
        <time>2023-08-13T04:39:11Z</time>
      </trkpt>
      <trkpt lat="42.804842" lon="-7.623219">
        <ele>360.4</ele>
        <time>2023-08-13T04:39:31Z</time>
      </trkpt>
      <trkpt lat="42.804735" lon="-7.623423">
        <ele>362.1</ele>
        <time>2023-08-13T04:39:48Z</time>
      </trkpt>
      <trkpt lat="42.804706" lon="-7.623668">
        <ele>363.1</ele>
        <time>2023-08-13T04:40:06Z</time>
      </trkpt>
      <trkpt lat="42.804687" lon="-7.623918">
        <ele>367.1</ele>
        <time>2023-08-13T04:40:23Z</time>
      </trkpt>
      <trkpt lat="42.804699" lon="-7.624171">
        <ele>371.4</ele>
        <time>2023-08-13T04:40:42Z</time>
      </trkpt>
      <trkpt lat="42.804740" lon="-7.624410">
        <ele>372.4</ele>
        <time>2023-08-13T04:40:55Z</time>
      </trkpt>
      <trkpt lat="42.804742" lon="-7.624657">
        <ele>372.4</ele>
        <time>2023-08-13T04:41:09Z</time>
      </trkpt>
      <trkpt lat="42.804716" lon="-7.624907">
        <ele>373.4</ele>
        <time>2023-08-13T04:41:25Z</time>
      </trkpt>
      <trkpt lat="42.804706" lon="-7.625158">
        <ele>375.1</ele>
        <time>2023-08-13T04:41:43Z</time>
      </trkpt>
      <trkpt lat="42.804825" lon="-7.625347">
        <ele>378.4</ele>
        <time>2023-08-13T04:41:58Z</time>
      </trkpt>
      <trkpt lat="42.804920" lon="-7.625562">
        <ele>382.1</ele>
        <time>2023-08-13T04:42:14Z</time>
      </trkpt>
      <trkpt lat="42.805035" lon="-7.625750">
        <ele>384.4</ele>
        <time>2023-08-13T04:42:27Z</time>
      </trkpt>
      <trkpt lat="42.805075" lon="-7.625996">
        <ele>383.4</ele>
        <time>2023-08-13T04:42:43Z</time>
      </trkpt>
      <trkpt lat="42.805078" lon="-7.626244">
        <ele>384.6</ele>
        <time>2023-08-13T04:42:58Z</time>
      </trkpt>
      <trkpt lat="42.805153" lon="-7.626474">
        <ele>389.4</ele>
        <time>2023-08-13T04:43:14Z</time>
      </trkpt>
      <trkpt lat="42.805191" lon="-7.626724">
        <ele>383.4</ele>
        <time>2023-08-13T04:43:29Z</time>
      </trkpt>
      <trkpt lat="42.805245" lon="-7.626965">
        <ele>384.3</ele>
        <time>2023-08-13T04:43:47Z</time>
      </trkpt>
      <trkpt lat="42.805275" lon="-7.627218">
        <ele>387.4</ele>
        <time>2023-08-13T04:44:06Z</time>
      </trkpt>
      <trkpt lat="42.805282" lon="-7.627453">
        <ele>389.4</ele>
        <time>2023-08-13T04:44:20Z</time>
      </trkpt>
      <trkpt lat="42.805350" lon="-7.627717">
        <ele>388.4</ele>
        <time>2023-08-13T04:44:36Z</time>
      </trkpt>
      <trkpt lat="42.805406" lon="-7.627939">
        <ele>385.7</ele>
        <time>2023-08-13T04:44:51Z</time>
      </trkpt>
      <trkpt lat="42.805436" lon="-7.628184">
        <ele>384.4</ele>
        <time>2023-08-13T04:45:06Z</time>
      </trkpt>
      <trkpt lat="42.805511" lon="-7.628418">
        <ele>389.4</ele>
        <time>2023-08-13T04:45:19Z</time>
      </trkpt>
      <trkpt lat="42.805580" lon="-7.628650">
        <ele>395.4</ele>
        <time>2023-08-13T04:45:36Z</time>
      </trkpt>
      <trkpt lat="42.805658" lon="-7.628880">
        <ele>395.4</ele>
        <time>2023-08-13T04:45:50Z</time>
      </trkpt>
      <trkpt lat="42.805729" lon="-7.629105">
        <ele>398.4</ele>
        <time>2023-08-13T04:46:05Z</time>
      </trkpt>
      <trkpt lat="42.805843" lon="-7.629301">
        <ele>400.4</ele>
        <time>2023-08-13T04:46:18Z</time>
      </trkpt>
      <trkpt lat="42.805897" lon="-7.629540">
        <ele>398.5</ele>
        <time>2023-08-13T04:46:33Z</time>
      </trkpt>
      <trkpt lat="42.805954" lon="-7.629782">
        <ele>399.4</ele>
        <time>2023-08-13T04:46:47Z</time>
      </trkpt>
      <trkpt lat="42.805961" lon="-7.630031">
        <ele>399.7</ele>
        <time>2023-08-13T04:47:03Z</time>
      </trkpt>
      <trkpt lat="42.805997" lon="-7.630276">
        <ele>400.7</ele>
        <time>2023-08-13T04:47:19Z</time>
      </trkpt>
      <trkpt lat="42.806059" lon="-7.630517">
        <ele>404.4</ele>
        <time>2023-08-13T04:47:35Z</time>
      </trkpt>
      <trkpt lat="42.806122" lon="-7.630760">
        <ele>408.4</ele>
        <time>2023-08-13T04:47:50Z</time>
      </trkpt>
      <trkpt lat="42.806255" lon="-7.630937">
        <ele>412.4</ele>
        <time>2023-08-13T04:48:03Z</time>
      </trkpt>
      <trkpt lat="42.806344" lon="-7.631159">
        <ele>413.4</ele>
        <time>2023-08-13T04:48:20Z</time>
      </trkpt>
      <trkpt lat="42.806451" lon="-7.631358">
        <ele>416.4</ele>
        <time>2023-08-13T04:48:33Z</time>
      </trkpt>
      <trkpt lat="42.806575" lon="-7.631536">
        <ele>419.4</ele>
        <time>2023-08-13T04:48:48Z</time>
      </trkpt>
      <trkpt lat="42.806714" lon="-7.631706">
        <ele>421.4</ele>
        <time>2023-08-13T04:49:01Z</time>
      </trkpt>
      <trkpt lat="42.806841" lon="-7.631885">
        <ele>425.4</ele>
        <time>2023-08-13T04:49:13Z</time>
      </trkpt>
      <trkpt lat="42.806979" lon="-7.632050">
        <ele>429.4</ele>
        <time>2023-08-13T04:49:32Z</time>
      </trkpt>
      <trkpt lat="42.807090" lon="-7.632250">
        <ele>428.4</ele>
        <time>2023-08-13T04:49:49Z</time>
      </trkpt>
      <trkpt lat="42.807207" lon="-7.632447">
        <ele>432.3</ele>
        <time>2023-08-13T04:50:03Z</time>
      </trkpt>
      <trkpt lat="42.807277" lon="-7.632675">
        <ele>432.1</ele>
        <time>2023-08-13T04:50:17Z</time>
      </trkpt>
      <trkpt lat="42.807367" lon="-7.632893">
        <ele>435.1</ele>
        <time>2023-08-13T04:50:32Z</time>
      </trkpt>
      <trkpt lat="42.807451" lon="-7.633114">
        <ele>437.4</ele>
        <time>2023-08-13T04:50:47Z</time>
      </trkpt>
      <trkpt lat="42.807526" lon="-7.633344">
        <ele>437.3</ele>
        <time>2023-08-13T04:51:05Z</time>
      </trkpt>
      <trkpt lat="42.807571" lon="-7.633582">
        <ele>437.4</ele>
        <time>2023-08-13T04:51:19Z</time>
      </trkpt>
      <trkpt lat="42.807609" lon="-7.633828">
        <ele>441.3</ele>
        <time>2023-08-13T04:51:33Z</time>
      </trkpt>
      <trkpt lat="42.807598" lon="-7.634079">
        <ele>441.3</ele>
        <time>2023-08-13T04:51:48Z</time>
      </trkpt>
      <trkpt lat="42.807506" lon="-7.634294">
        <ele>439.5</ele>
        <time>2023-08-13T04:52:03Z</time>
      </trkpt>
      <trkpt lat="42.807376" lon="-7.634475">
        <ele>438.4</ele>
        <time>2023-08-13T04:52:19Z</time>
      </trkpt>
      <trkpt lat="42.807321" lon="-7.634714">
        <ele>437.4</ele>
        <time>2023-08-13T04:52:38Z</time>
      </trkpt>
      <trkpt lat="42.807260" lon="-7.634945">
        <ele>436.4</ele>
        <time>2023-08-13T04:52:51Z</time>
      </trkpt>
      <trkpt lat="42.807172" lon="-7.635164">
        <ele>435.4</ele>
        <time>2023-08-13T04:53:04Z</time>
      </trkpt>
      <trkpt lat="42.807099" lon="-7.635401">
        <ele>436.4</ele>
        <time>2023-08-13T04:53:17Z</time>
      </trkpt>
      <trkpt lat="42.807051" lon="-7.635647">
        <ele>439.4</ele>
        <time>2023-08-13T04:53:32Z</time>
      </trkpt>
      <trkpt lat="42.806992" lon="-7.635880">
        <ele>440.4</ele>
        <time>2023-08-13T04:53:46Z</time>
      </trkpt>
      <trkpt lat="42.806910" lon="-7.636100">
        <ele>439.4</ele>
        <time>2023-08-13T04:54:01Z</time>
      </trkpt>
      <trkpt lat="42.806810" lon="-7.636308">
        <ele>437.7</ele>
        <time>2023-08-13T04:54:19Z</time>
      </trkpt>
      <trkpt lat="42.806723" lon="-7.636529">
        <ele>437.4</ele>
        <time>2023-08-13T04:54:35Z</time>
      </trkpt>
      <trkpt lat="42.806640" lon="-7.636757">
        <ele>437.4</ele>
        <time>2023-08-13T04:54:48Z</time>
      </trkpt>
      <trkpt lat="42.806617" lon="-7.637006">
        <ele>436.4</ele>
        <time>2023-08-13T04:55:02Z</time>
      </trkpt>
      <trkpt lat="42.806626" lon="-7.637259">
        <ele>436.1</ele>
        <time>2023-08-13T04:55:16Z</time>
      </trkpt>
      <trkpt lat="42.806635" lon="-7.637511">
        <ele>438.1</ele>
        <time>2023-08-13T04:55:29Z</time>
      </trkpt>
      <trkpt lat="42.806675" lon="-7.637751">
        <ele>439.4</ele>
        <time>2023-08-13T04:55:42Z</time>
      </trkpt>
      <trkpt lat="42.806750" lon="-7.637976">
        <ele>440.4</ele>
        <time>2023-08-13T04:55:55Z</time>
      </trkpt>
      <trkpt lat="42.806807" lon="-7.638214">
        <ele>439.4</ele>
        <time>2023-08-13T04:56:11Z</time>
      </trkpt>
      <trkpt lat="42.806859" lon="-7.638455">
        <ele>435.4</ele>
        <time>2023-08-13T04:56:30Z</time>
      </trkpt>
      <trkpt lat="42.806938" lon="-7.638687">
        <ele>432.7</ele>
        <time>2023-08-13T04:56:44Z</time>
      </trkpt>
      <trkpt lat="42.807003" lon="-7.638925">
        <ele>431.4</ele>
        <time>2023-08-13T04:57:00Z</time>
      </trkpt>
      <trkpt lat="42.807095" lon="-7.639141">
        <ele>428.4</ele>
        <time>2023-08-13T04:57:17Z</time>
      </trkpt>
      <trkpt lat="42.807232" lon="-7.639315">
        <ele>427.7</ele>
        <time>2023-08-13T04:57:32Z</time>
      </trkpt>
      <trkpt lat="42.807402" lon="-7.639412">
        <ele>431.3</ele>
        <time>2023-08-13T04:57:45Z</time>
      </trkpt>
      <trkpt lat="42.807581" lon="-7.639446">
        <ele>435.4</ele>
        <time>2023-08-13T04:57:58Z</time>
      </trkpt>
      <trkpt lat="42.807757" lon="-7.639496">
        <ele>438.4</ele>
        <time>2023-08-13T04:58:11Z</time>
      </trkpt>
      <trkpt lat="42.807920" lon="-7.639602">
        <ele>438.4</ele>
        <time>2023-08-13T04:58:26Z</time>
      </trkpt>
      <trkpt lat="42.808018" lon="-7.639817">
        <ele>441.4</ele>
        <time>2023-08-13T04:58:40Z</time>
      </trkpt>
      <trkpt lat="42.808130" lon="-7.640016">
        <ele>443.4</ele>
        <time>2023-08-13T04:58:54Z</time>
      </trkpt>
      <trkpt lat="42.808258" lon="-7.640202">
        <ele>443.4</ele>
        <time>2023-08-13T04:59:08Z</time>
      </trkpt>
      <trkpt lat="42.808324" lon="-7.640383">
        <ele>443.4</ele>
        <time>2023-08-13T04:59:29Z</time>
      </trkpt>
      <trkpt lat="42.808067" lon="-7.640571">
        <ele>443.4</ele>
        <time>2023-08-13T04:59:46Z</time>
      </trkpt>
      <trkpt lat="42.807919" lon="-7.640722">
        <ele>441.4</ele>
        <time>2023-08-13T04:59:59Z</time>
      </trkpt>
      <trkpt lat="42.807755" lon="-7.640833">
        <ele>441.4</ele>
        <time>2023-08-13T05:00:13Z</time>
      </trkpt>
      <trkpt lat="42.807604" lon="-7.640968">
        <ele>441.4</ele>
        <time>2023-08-13T05:00:26Z</time>
      </trkpt>
      <trkpt lat="42.807503" lon="-7.641172">
        <ele>445.1</ele>
        <time>2023-08-13T05:00:38Z</time>
      </trkpt>
      <trkpt lat="42.807430" lon="-7.641408">
        <ele>444.4</ele>
        <time>2023-08-13T05:00:51Z</time>
      </trkpt>
      <trkpt lat="42.807370" lon="-7.641647">
        <ele>447.7</ele>
        <time>2023-08-13T05:01:06Z</time>
      </trkpt>
      <trkpt lat="42.807351" lon="-7.641901">
        <ele>447.5</ele>
        <time>2023-08-13T05:01:20Z</time>
      </trkpt>
      <trkpt lat="42.807340" lon="-7.642153">
        <ele>446.4</ele>
        <time>2023-08-13T05:01:33Z</time>
      </trkpt>
      <trkpt lat="42.807316" lon="-7.642407">
        <ele>446.4</ele>
        <time>2023-08-13T05:01:46Z</time>
      </trkpt>
      <trkpt lat="42.807285" lon="-7.642656">
        <ele>444.5</ele>
        <time>2023-08-13T05:01:59Z</time>
      </trkpt>
      <trkpt lat="42.807438" lon="-7.642791">
        <ele>448.4</ele>
        <time>2023-08-13T05:02:11Z</time>
      </trkpt>
      <trkpt lat="42.807614" lon="-7.642861">
        <ele>448.1</ele>
        <time>2023-08-13T05:02:26Z</time>
      </trkpt>
      <trkpt lat="42.807744" lon="-7.642993">
        <ele>448.4</ele>
        <time>2023-08-13T05:02:41Z</time>
      </trkpt>
      <trkpt lat="42.807940" lon="-7.643104">
        <ele>446.4</ele>
        <time>2023-08-13T05:02:58Z</time>
      </trkpt>
      <trkpt lat="42.808080" lon="-7.643203">
        <ele>445.4</ele>
        <time>2023-08-13T05:03:15Z</time>
      </trkpt>
      <trkpt lat="42.808262" lon="-7.643280">
        <ele>449.4</ele>
        <time>2023-08-13T05:03:24Z</time>
      </trkpt>
      <trkpt lat="42.808458" lon="-7.643341">
        <ele>451.4</ele>
        <time>2023-08-13T05:03:35Z</time>
      </trkpt>
      <trkpt lat="42.808626" lon="-7.643439">
        <ele>452.4</ele>
        <time>2023-08-13T05:03:48Z</time>
      </trkpt>
      <trkpt lat="42.808792" lon="-7.643543">
        <ele>452.3</ele>
        <time>2023-08-13T05:04:02Z</time>
      </trkpt>
      <trkpt lat="42.808960" lon="-7.643633">
        <ele>453.1</ele>
        <time>2023-08-13T05:04:17Z</time>
      </trkpt>
      <trkpt lat="42.809126" lon="-7.643732">
        <ele>450.5</ele>
        <time>2023-08-13T05:04:36Z</time>
      </trkpt>
      <trkpt lat="42.809299" lon="-7.643816">
        <ele>449.3</ele>
        <time>2023-08-13T05:04:50Z</time>
      </trkpt>
      <trkpt lat="42.809463" lon="-7.643924">
        <ele>449.4</ele>
        <time>2023-08-13T05:05:01Z</time>
      </trkpt>
      <trkpt lat="42.809632" lon="-7.644029">
        <ele>452.4</ele>
        <time>2023-08-13T05:05:11Z</time>
      </trkpt>
      <trkpt lat="42.809809" lon="-7.644105">
        <ele>452.4</ele>
        <time>2023-08-13T05:05:22Z</time>
      </trkpt>
      <trkpt lat="42.809989" lon="-7.644181">
        <ele>453.4</ele>
        <time>2023-08-13T05:05:34Z</time>
      </trkpt>
      <trkpt lat="42.810167" lon="-7.644259">
        <ele>452.4</ele>
        <time>2023-08-13T05:05:48Z</time>
      </trkpt>
      <trkpt lat="42.810337" lon="-7.644354">
        <ele>452.7</ele>
        <time>2023-08-13T05:06:03Z</time>
      </trkpt>
      <trkpt lat="42.810511" lon="-7.644424">
        <ele>451.4</ele>
        <time>2023-08-13T05:06:15Z</time>
      </trkpt>
      <trkpt lat="42.810672" lon="-7.644543">
        <ele>451.4</ele>
        <time>2023-08-13T05:06:30Z</time>
      </trkpt>
      <trkpt lat="42.810847" lon="-7.644609">
        <ele>452.1</ele>
        <time>2023-08-13T05:06:43Z</time>
      </trkpt>
      <trkpt lat="42.811020" lon="-7.644696">
        <ele>450.4</ele>
        <time>2023-08-13T05:06:59Z</time>
      </trkpt>
      <trkpt lat="42.811130" lon="-7.644894">
        <ele>447.4</ele>
        <time>2023-08-13T05:07:12Z</time>
      </trkpt>
      <trkpt lat="42.811261" lon="-7.645083">
        <ele>446.7</ele>
        <time>2023-08-13T05:07:29Z</time>
      </trkpt>
      <trkpt lat="42.811351" lon="-7.645300">
        <ele>444.4</ele>
        <time>2023-08-13T05:07:43Z</time>
      </trkpt>
      <trkpt lat="42.811470" lon="-7.645500">
        <ele>445.4</ele>
        <time>2023-08-13T05:07:58Z</time>
      </trkpt>
      <trkpt lat="42.811562" lon="-7.645718">
        <ele>444.4</ele>
        <time>2023-08-13T05:08:13Z</time>
      </trkpt>
      <trkpt lat="42.811634" lon="-7.645943">
        <ele>443.4</ele>
        <time>2023-08-13T05:08:26Z</time>
      </trkpt>
      <trkpt lat="42.811691" lon="-7.646184">
        <ele>443.4</ele>
        <time>2023-08-13T05:08:42Z</time>
      </trkpt>
      <trkpt lat="42.811722" lon="-7.646434">
        <ele>444.4</ele>
        <time>2023-08-13T05:08:55Z</time>
      </trkpt>
      <trkpt lat="42.811761" lon="-7.646679">
        <ele>444.4</ele>
        <time>2023-08-13T05:09:08Z</time>
      </trkpt>
      <trkpt lat="42.811791" lon="-7.646923">
        <ele>445.4</ele>
        <time>2023-08-13T05:09:22Z</time>
      </trkpt>
      <trkpt lat="42.811802" lon="-7.647169">
        <ele>445.4</ele>
        <time>2023-08-13T05:09:35Z</time>
      </trkpt>
      <trkpt lat="42.811808" lon="-7.647420">
        <ele>446.4</ele>
        <time>2023-08-13T05:09:48Z</time>
      </trkpt>
      <trkpt lat="42.811807" lon="-7.647667">
        <ele>448.1</ele>
        <time>2023-08-13T05:10:00Z</time>
      </trkpt>
      <trkpt lat="42.811831" lon="-7.647916">
        <ele>448.7</ele>
        <time>2023-08-13T05:10:13Z</time>
      </trkpt>
      <trkpt lat="42.811816" lon="-7.648165">
        <ele>449.4</ele>
        <time>2023-08-13T05:10:28Z</time>
      </trkpt>
      <trkpt lat="42.811844" lon="-7.648408">
        <ele>449.4</ele>
        <time>2023-08-13T05:10:42Z</time>
      </trkpt>
      <trkpt lat="42.811853" lon="-7.648656">
        <ele>446.4</ele>
        <time>2023-08-13T05:10:58Z</time>
      </trkpt>
      <trkpt lat="42.811845" lon="-7.648909">
        <ele>445.4</ele>
        <time>2023-08-13T05:11:12Z</time>
      </trkpt>
      <trkpt lat="42.811855" lon="-7.649158">
        <ele>448.4</ele>
        <time>2023-08-13T05:11:24Z</time>
      </trkpt>
      <trkpt lat="42.811846" lon="-7.649413">
        <ele>448.4</ele>
        <time>2023-08-13T05:11:38Z</time>
      </trkpt>
      <trkpt lat="42.811867" lon="-7.649656">
        <ele>450.4</ele>
        <time>2023-08-13T05:11:50Z</time>
      </trkpt>
      <trkpt lat="42.811852" lon="-7.649901">
        <ele>465.1</ele>
        <time>2023-08-13T05:12:03Z</time>
      </trkpt>
      <trkpt lat="42.811868" lon="-7.650146">
        <ele>461.1</ele>
        <time>2023-08-13T05:12:16Z</time>
      </trkpt>
      <trkpt lat="42.811874" lon="-7.650392">
        <ele>456.5</ele>
        <time>2023-08-13T05:12:31Z</time>
      </trkpt>
      <trkpt lat="42.811876" lon="-7.650641">
        <ele>461.1</ele>
        <time>2023-08-13T05:12:44Z</time>
      </trkpt>
      <trkpt lat="42.811908" lon="-7.650883">
        <ele>457.4</ele>
        <time>2023-08-13T05:12:55Z</time>
      </trkpt>
      <trkpt lat="42.811916" lon="-7.651131">
        <ele>458.4</ele>
        <time>2023-08-13T05:13:10Z</time>
      </trkpt>
      <trkpt lat="42.811901" lon="-7.651377">
        <ele>462.2</ele>
        <time>2023-08-13T05:13:25Z</time>
      </trkpt>
      <trkpt lat="42.811929" lon="-7.651627">
        <ele>460.4</ele>
        <time>2023-08-13T05:13:39Z</time>
      </trkpt>
      <trkpt lat="42.811944" lon="-7.651880">
        <ele>465.1</ele>
        <time>2023-08-13T05:13:52Z</time>
      </trkpt>
      <trkpt lat="42.811925" lon="-7.652125">
        <ele>465.1</ele>
        <time>2023-08-13T05:14:06Z</time>
      </trkpt>
      <trkpt lat="42.811925" lon="-7.652375">
        <ele>465.1</ele>
        <time>2023-08-13T05:14:19Z</time>
      </trkpt>
      <trkpt lat="42.811925" lon="-7.652623">
        <ele>465.1</ele>
        <time>2023-08-13T05:14:33Z</time>
      </trkpt>
      <trkpt lat="42.811945" lon="-7.652872">
        <ele>465.1</ele>
        <time>2023-08-13T05:14:46Z</time>
      </trkpt>
      <trkpt lat="42.811963" lon="-7.653122">
        <ele>465.1</ele>
        <time>2023-08-13T05:15:00Z</time>
      </trkpt>
      <trkpt lat="42.811975" lon="-7.653377">
        <ele>464.4</ele>
        <time>2023-08-13T05:15:14Z</time>
      </trkpt>
      <trkpt lat="42.811976" lon="-7.653624">
        <ele>466.4</ele>
        <time>2023-08-13T05:15:28Z</time>
      </trkpt>
      <trkpt lat="42.811982" lon="-7.653874">
        <ele>465.4</ele>
        <time>2023-08-13T05:15:42Z</time>
      </trkpt>
      <trkpt lat="42.811973" lon="-7.654127">
        <ele>467.4</ele>
        <time>2023-08-13T05:15:55Z</time>
      </trkpt>
      <trkpt lat="42.812002" lon="-7.654369">
        <ele>466.4</ele>
        <time>2023-08-13T05:16:10Z</time>
      </trkpt>
      <trkpt lat="42.812006" lon="-7.654615">
        <ele>466.4</ele>
        <time>2023-08-13T05:16:23Z</time>
      </trkpt>
      <trkpt lat="42.812022" lon="-7.654868">
        <ele>463.5</ele>
        <time>2023-08-13T05:16:38Z</time>
      </trkpt>
      <trkpt lat="42.812020" lon="-7.655116">
        <ele>464.4</ele>
        <time>2023-08-13T05:16:54Z</time>
      </trkpt>
      <trkpt lat="42.812027" lon="-7.655365">
        <ele>467.4</ele>
        <time>2023-08-13T05:17:08Z</time>
      </trkpt>
      <trkpt lat="42.812030" lon="-7.655611">
        <ele>469.4</ele>
        <time>2023-08-13T05:17:23Z</time>
      </trkpt>
      <trkpt lat="42.812038" lon="-7.655862">
        <ele>467.5</ele>
        <time>2023-08-13T05:17:38Z</time>
      </trkpt>
      <trkpt lat="42.812043" lon="-7.656112">
        <ele>468.4</ele>
        <time>2023-08-13T05:17:52Z</time>
      </trkpt>
      <trkpt lat="42.812067" lon="-7.656361">
        <ele>468.4</ele>
        <time>2023-08-13T05:18:08Z</time>
      </trkpt>
      <trkpt lat="42.812082" lon="-7.656607">
        <ele>468.4</ele>
        <time>2023-08-13T05:18:23Z</time>
      </trkpt>
      <trkpt lat="42.812081" lon="-7.656861">
        <ele>469.4</ele>
        <time>2023-08-13T05:18:37Z</time>
      </trkpt>
      <trkpt lat="42.812114" lon="-7.657103">
        <ele>472.3</ele>
        <time>2023-08-13T05:18:52Z</time>
      </trkpt>
      <trkpt lat="42.812109" lon="-7.657353">
        <ele>473.7</ele>
        <time>2023-08-13T05:19:05Z</time>
      </trkpt>
      <trkpt lat="42.812123" lon="-7.657608">
        <ele>474.3</ele>
        <time>2023-08-13T05:19:20Z</time>
      </trkpt>
      <trkpt lat="42.812138" lon="-7.657856">
        <ele>475.3</ele>
        <time>2023-08-13T05:19:35Z</time>
      </trkpt>
      <trkpt lat="42.812156" lon="-7.658110">
        <ele>476.4</ele>
        <time>2023-08-13T05:19:52Z</time>
      </trkpt>
      <trkpt lat="42.812183" lon="-7.658357">
        <ele>477.4</ele>
        <time>2023-08-13T05:20:09Z</time>
      </trkpt>
      <trkpt lat="42.812204" lon="-7.658606">
        <ele>478.4</ele>
        <time>2023-08-13T05:20:24Z</time>
      </trkpt>
      <trkpt lat="42.812256" lon="-7.658846">
        <ele>481.3</ele>
        <time>2023-08-13T05:20:39Z</time>
      </trkpt>
      <trkpt lat="42.812121" lon="-7.659018">
        <ele>482.3</ele>
        <time>2023-08-13T05:20:55Z</time>
      </trkpt>
      <trkpt lat="42.812165" lon="-7.659265">
        <ele>483.3</ele>
        <time>2023-08-13T05:21:10Z</time>
      </trkpt>
      <trkpt lat="42.812204" lon="-7.659508">
        <ele>481.4</ele>
        <time>2023-08-13T05:21:25Z</time>
      </trkpt>
      <trkpt lat="42.812223" lon="-7.659763">
        <ele>482.4</ele>
        <time>2023-08-13T05:21:40Z</time>
      </trkpt>
      <trkpt lat="42.812278" lon="-7.660001">
        <ele>485.4</ele>
        <time>2023-08-13T05:21:52Z</time>
      </trkpt>
      <trkpt lat="42.812287" lon="-7.660253">
        <ele>485.4</ele>
        <time>2023-08-13T05:22:09Z</time>
      </trkpt>
      <trkpt lat="42.812337" lon="-7.660498">
        <ele>484.3</ele>
        <time>2023-08-13T05:22:24Z</time>
      </trkpt>
      <trkpt lat="42.812373" lon="-7.660745">
        <ele>483.4</ele>
        <time>2023-08-13T05:22:39Z</time>
      </trkpt>
      <trkpt lat="42.812428" lon="-7.660983">
        <ele>482.4</ele>
        <time>2023-08-13T05:22:54Z</time>
      </trkpt>
      <trkpt lat="42.812443" lon="-7.661236">
        <ele>484.7</ele>
        <time>2023-08-13T05:23:08Z</time>
      </trkpt>
      <trkpt lat="42.812475" lon="-7.661482">
        <ele>484.4</ele>
        <time>2023-08-13T05:23:20Z</time>
      </trkpt>
      <trkpt lat="42.812528" lon="-7.661720">
        <ele>481.7</ele>
        <time>2023-08-13T05:23:35Z</time>
      </trkpt>
      <trkpt lat="42.812580" lon="-7.661960">
        <ele>483.4</ele>
        <time>2023-08-13T05:23:50Z</time>
      </trkpt>
      <trkpt lat="42.812612" lon="-7.662205">
        <ele>484.1</ele>
        <time>2023-08-13T05:24:05Z</time>
      </trkpt>
      <trkpt lat="42.812646" lon="-7.662451">
        <ele>484.4</ele>
        <time>2023-08-13T05:24:19Z</time>
      </trkpt>
      <trkpt lat="42.812664" lon="-7.662702">
        <ele>482.4</ele>
        <time>2023-08-13T05:24:34Z</time>
      </trkpt>
      <trkpt lat="42.812732" lon="-7.662936">
        <ele>483.1</ele>
        <time>2023-08-13T05:24:48Z</time>
      </trkpt>
      <trkpt lat="42.812795" lon="-7.663180">
        <ele>487.5</ele>
        <time>2023-08-13T05:25:04Z</time>
      </trkpt>
      <trkpt lat="42.812774" lon="-7.663425">
        <ele>492.1</ele>
        <time>2023-08-13T05:25:20Z</time>
      </trkpt>
      <trkpt lat="42.812751" lon="-7.663677">
        <ele>492.4</ele>
        <time>2023-08-13T05:25:35Z</time>
      </trkpt>
      <trkpt lat="42.812792" lon="-7.663921">
        <ele>496.3</ele>
        <time>2023-08-13T05:25:51Z</time>
      </trkpt>
      <trkpt lat="42.812940" lon="-7.664093">
        <ele>495.4</ele>
        <time>2023-08-13T05:26:08Z</time>
      </trkpt>
      <trkpt lat="42.813093" lon="-7.664239">
        <ele>497.4</ele>
        <time>2023-08-13T05:26:21Z</time>
      </trkpt>
      <trkpt lat="42.813233" lon="-7.664403">
        <ele>501.4</ele>
        <time>2023-08-13T05:26:36Z</time>
      </trkpt>
      <trkpt lat="42.813367" lon="-7.664575">
        <ele>500.4</ele>
        <time>2023-08-13T05:26:50Z</time>
      </trkpt>
      <trkpt lat="42.813496" lon="-7.664755">
        <ele>501.2</ele>
        <time>2023-08-13T05:27:05Z</time>
      </trkpt>
      <trkpt lat="42.813619" lon="-7.664934">
        <ele>504.4</ele>
        <time>2023-08-13T05:27:18Z</time>
      </trkpt>
      <trkpt lat="42.813686" lon="-7.665166">
        <ele>505.4</ele>
        <time>2023-08-13T05:27:32Z</time>
      </trkpt>
      <trkpt lat="42.813789" lon="-7.665376">
        <ele>507.4</ele>
        <time>2023-08-13T05:27:47Z</time>
      </trkpt>
      <trkpt lat="42.813870" lon="-7.665600">
        <ele>512.4</ele>
        <time>2023-08-13T05:28:01Z</time>
      </trkpt>
      <trkpt lat="42.813942" lon="-7.665836">
        <ele>514.4</ele>
        <time>2023-08-13T05:28:15Z</time>
      </trkpt>
      <trkpt lat="42.814024" lon="-7.666062">
        <ele>514.4</ele>
        <time>2023-08-13T05:28:30Z</time>
      </trkpt>
      <trkpt lat="42.814127" lon="-7.666268">
        <ele>515.4</ele>
        <time>2023-08-13T05:28:44Z</time>
      </trkpt>
      <trkpt lat="42.814231" lon="-7.666472">
        <ele>515.4</ele>
        <time>2023-08-13T05:29:03Z</time>
      </trkpt>
      <trkpt lat="42.814321" lon="-7.666694">
        <ele>520.4</ele>
        <time>2023-08-13T05:29:17Z</time>
      </trkpt>
      <trkpt lat="42.814420" lon="-7.666903">
        <ele>520.7</ele>
        <time>2023-08-13T05:29:31Z</time>
      </trkpt>
      <trkpt lat="42.814520" lon="-7.667110">
        <ele>522.4</ele>
        <time>2023-08-13T05:29:44Z</time>
      </trkpt>
      <trkpt lat="42.814613" lon="-7.667329">
        <ele>524.4</ele>
        <time>2023-08-13T05:29:59Z</time>
      </trkpt>
      <trkpt lat="42.814711" lon="-7.667545">
        <ele>526.4</ele>
        <time>2023-08-13T05:30:14Z</time>
      </trkpt>
      <trkpt lat="42.814759" lon="-7.667786">
        <ele>526.4</ele>
        <time>2023-08-13T05:30:28Z</time>
      </trkpt>
      <trkpt lat="42.814838" lon="-7.668012">
        <ele>527.4</ele>
        <time>2023-08-13T05:30:43Z</time>
      </trkpt>
      <trkpt lat="42.814894" lon="-7.668252">
        <ele>528.4</ele>
        <time>2023-08-13T05:30:59Z</time>
      </trkpt>
      <trkpt lat="42.814939" lon="-7.668490">
        <ele>531.4</ele>
        <time>2023-08-13T05:31:13Z</time>
      </trkpt>
      <trkpt lat="42.815036" lon="-7.668699">
        <ele>532.3</ele>
        <time>2023-08-13T05:31:26Z</time>
      </trkpt>
      <trkpt lat="42.815139" lon="-7.668902">
        <ele>534.4</ele>
        <time>2023-08-13T05:31:39Z</time>
      </trkpt>
      <trkpt lat="42.815205" lon="-7.669137">
        <ele>534.4</ele>
        <time>2023-08-13T05:31:52Z</time>
      </trkpt>
      <trkpt lat="42.815287" lon="-7.669364">
        <ele>535.4</ele>
        <time>2023-08-13T05:32:06Z</time>
      </trkpt>
      <trkpt lat="42.815365" lon="-7.669594">
        <ele>534.4</ele>
        <time>2023-08-13T05:32:20Z</time>
      </trkpt>
      <trkpt lat="42.815461" lon="-7.669806">
        <ele>532.1</ele>
        <time>2023-08-13T05:32:34Z</time>
      </trkpt>
      <trkpt lat="42.815552" lon="-7.670020">
        <ele>530.4</ele>
        <time>2023-08-13T05:32:51Z</time>
      </trkpt>
      <trkpt lat="42.815675" lon="-7.670212">
        <ele>530.4</ele>
        <time>2023-08-13T05:33:07Z</time>
      </trkpt>
      <trkpt lat="42.815711" lon="-7.670458">
        <ele>529.3</ele>
        <time>2023-08-13T05:33:27Z</time>
      </trkpt>
      <trkpt lat="42.815789" lon="-7.670680">
        <ele>524.5</ele>
        <time>2023-08-13T05:33:47Z</time>
      </trkpt>
      <trkpt lat="42.815851" lon="-7.670914">
        <ele>523.3</ele>
        <time>2023-08-13T05:34:00Z</time>
      </trkpt>
      <trkpt lat="42.815907" lon="-7.671147">
        <ele>524.4</ele>
        <time>2023-08-13T05:34:14Z</time>
      </trkpt>
      <trkpt lat="42.816008" lon="-7.671361">
        <ele>525.4</ele>
        <time>2023-08-13T05:34:27Z</time>
      </trkpt>
      <trkpt lat="42.816084" lon="-7.671585">
        <ele>523.6</ele>
        <time>2023-08-13T05:34:41Z</time>
      </trkpt>
      <trkpt lat="42.816157" lon="-7.671818">
        <ele>520.4</ele>
        <time>2023-08-13T05:34:53Z</time>
      </trkpt>
      <trkpt lat="42.816187" lon="-7.672062">
        <ele>517.5</ele>
        <time>2023-08-13T05:35:12Z</time>
      </trkpt>
      <trkpt lat="42.816199" lon="-7.672315">
        <ele>516.4</ele>
        <time>2023-08-13T05:35:25Z</time>
      </trkpt>
      <trkpt lat="42.816206" lon="-7.672569">
        <ele>510.4</ele>
        <time>2023-08-13T05:35:39Z</time>
      </trkpt>
      <trkpt lat="42.816250" lon="-7.672811">
        <ele>508.4</ele>
        <time>2023-08-13T05:35:53Z</time>
      </trkpt>
      <trkpt lat="42.816279" lon="-7.673062">
        <ele>510.4</ele>
        <time>2023-08-13T05:36:08Z</time>
      </trkpt>
      <trkpt lat="42.816338" lon="-7.673294">
        <ele>511.3</ele>
        <time>2023-08-13T05:36:19Z</time>
      </trkpt>
      <trkpt lat="42.816371" lon="-7.673545">
        <ele>515.1</ele>
        <time>2023-08-13T05:36:29Z</time>
      </trkpt>
      <trkpt lat="42.816408" lon="-7.673788">
        <ele>522.3</ele>
        <time>2023-08-13T05:36:39Z</time>
      </trkpt>
      <trkpt lat="42.816471" lon="-7.674020">
        <ele>529.1</ele>
        <time>2023-08-13T05:36:51Z</time>
      </trkpt>
      <trkpt lat="42.816578" lon="-7.674222">
        <ele>533.2</ele>
        <time>2023-08-13T05:37:04Z</time>
      </trkpt>
      <trkpt lat="42.816702" lon="-7.674401">
        <ele>533.3</ele>
        <time>2023-08-13T05:37:17Z</time>
      </trkpt>
      <trkpt lat="42.816843" lon="-7.674563">
        <ele>534.4</ele>
        <time>2023-08-13T05:37:30Z</time>
      </trkpt>
      <trkpt lat="42.816995" lon="-7.674724">
        <ele>535.4</ele>
        <time>2023-08-13T05:37:45Z</time>
      </trkpt>
      <trkpt lat="42.817135" lon="-7.674882">
        <ele>536.4</ele>
        <time>2023-08-13T05:37:59Z</time>
      </trkpt>
      <trkpt lat="42.817281" lon="-7.675037">
        <ele>536.4</ele>
        <time>2023-08-13T05:38:12Z</time>
      </trkpt>
      <trkpt lat="42.817450" lon="-7.675150">
        <ele>534.5</ele>
        <time>2023-08-13T05:38:26Z</time>
      </trkpt>
      <trkpt lat="42.817608" lon="-7.675269">
        <ele>536.4</ele>
        <time>2023-08-13T05:38:40Z</time>
      </trkpt>
      <trkpt lat="42.817760" lon="-7.675401">
        <ele>536.4</ele>
        <time>2023-08-13T05:38:52Z</time>
      </trkpt>
      <trkpt lat="42.817926" lon="-7.675497">
        <ele>536.4</ele>
        <time>2023-08-13T05:39:08Z</time>
      </trkpt>
      <trkpt lat="42.818106" lon="-7.675566">
        <ele>536.3</ele>
        <time>2023-08-13T05:39:21Z</time>
      </trkpt>
      <trkpt lat="42.818267" lon="-7.675676">
        <ele>535.3</ele>
        <time>2023-08-13T05:39:36Z</time>
      </trkpt>
      <trkpt lat="42.818427" lon="-7.675795">
        <ele>534.4</ele>
        <time>2023-08-13T05:39:51Z</time>
      </trkpt>
      <trkpt lat="42.818584" lon="-7.675918">
        <ele>532.4</ele>
        <time>2023-08-13T05:40:06Z</time>
      </trkpt>
      <trkpt lat="42.818737" lon="-7.676051">
        <ele>533.1</ele>
        <time>2023-08-13T05:40:20Z</time>
      </trkpt>
      <trkpt lat="42.818898" lon="-7.676172">
        <ele>531.4</ele>
        <time>2023-08-13T05:40:34Z</time>
      </trkpt>
      <trkpt lat="42.818993" lon="-7.676373">
        <ele>531.4</ele>
        <time>2023-08-13T05:40:49Z</time>
      </trkpt>
      <trkpt lat="42.819152" lon="-7.676583">
        <ele>530.4</ele>
        <time>2023-08-13T05:41:02Z</time>
      </trkpt>
      <trkpt lat="42.819299" lon="-7.676695">
        <ele>533.3</ele>
        <time>2023-08-13T05:41:17Z</time>
      </trkpt>
      <trkpt lat="42.819518" lon="-7.676527">
        <ele>534.4</ele>
        <time>2023-08-13T05:41:31Z</time>
      </trkpt>
      <trkpt lat="42.819672" lon="-7.676612">
        <ele>536.1</ele>
        <time>2023-08-13T05:41:47Z</time>
      </trkpt>
      <trkpt lat="42.819785" lon="-7.676813">
        <ele>537.5</ele>
        <time>2023-08-13T05:41:59Z</time>
      </trkpt>
      <trkpt lat="42.819901" lon="-7.677001">
        <ele>538.4</ele>
        <time>2023-08-13T05:42:11Z</time>
      </trkpt>
      <trkpt lat="42.820004" lon="-7.677204">
        <ele>539.4</ele>
        <time>2023-08-13T05:42:24Z</time>
      </trkpt>
      <trkpt lat="42.820117" lon="-7.677399">
        <ele>537.4</ele>
        <time>2023-08-13T05:42:39Z</time>
      </trkpt>
      <trkpt lat="42.820212" lon="-7.677613">
        <ele>540.3</ele>
        <time>2023-08-13T05:42:52Z</time>
      </trkpt>
      <trkpt lat="42.820247" lon="-7.677859">
        <ele>537.5</ele>
        <time>2023-08-13T05:43:08Z</time>
      </trkpt>
      <trkpt lat="42.820320" lon="-7.678089">
        <ele>533.4</ele>
        <time>2023-08-13T05:43:25Z</time>
      </trkpt>
      <trkpt lat="42.820452" lon="-7.678257">
        <ele>533.3</ele>
        <time>2023-08-13T05:43:39Z</time>
      </trkpt>
      <trkpt lat="42.820581" lon="-7.678443">
        <ele>535.4</ele>
        <time>2023-08-13T05:43:54Z</time>
      </trkpt>
      <trkpt lat="42.820709" lon="-7.678624">
        <ele>538.3</ele>
        <time>2023-08-13T05:44:07Z</time>
      </trkpt>
      <trkpt lat="42.820832" lon="-7.678818">
        <ele>540.4</ele>
        <time>2023-08-13T05:44:18Z</time>
      </trkpt>
      <trkpt lat="42.820944" lon="-7.679015">
        <ele>543.3</ele>
        <time>2023-08-13T05:44:32Z</time>
      </trkpt>
      <trkpt lat="42.821026" lon="-7.679235">
        <ele>543.4</ele>
        <time>2023-08-13T05:44:45Z</time>
      </trkpt>
      <trkpt lat="42.821079" lon="-7.679473">
        <ele>545.1</ele>
        <time>2023-08-13T05:44:59Z</time>
      </trkpt>
      <trkpt lat="42.821149" lon="-7.679713">
        <ele>542.4</ele>
        <time>2023-08-13T05:45:13Z</time>
      </trkpt>
      <trkpt lat="42.821195" lon="-7.679952">
        <ele>541.4</ele>
        <time>2023-08-13T05:45:26Z</time>
      </trkpt>
      <trkpt lat="42.821230" lon="-7.680194">
        <ele>541.4</ele>
        <time>2023-08-13T05:45:41Z</time>
      </trkpt>
      <trkpt lat="42.821286" lon="-7.680434">
        <ele>543.4</ele>
        <time>2023-08-13T05:45:56Z</time>
      </trkpt>
      <trkpt lat="42.821319" lon="-7.680684">
        <ele>540.4</ele>
        <time>2023-08-13T05:46:09Z</time>
      </trkpt>
      <trkpt lat="42.821342" lon="-7.680937">
        <ele>539.4</ele>
        <time>2023-08-13T05:46:23Z</time>
      </trkpt>
      <trkpt lat="42.821369" lon="-7.681186">
        <ele>534.4</ele>
        <time>2023-08-13T05:46:38Z</time>
      </trkpt>
      <trkpt lat="42.821408" lon="-7.681430">
        <ele>531.4</ele>
        <time>2023-08-13T05:46:52Z</time>
      </trkpt>
      <trkpt lat="42.821463" lon="-7.681679">
        <ele>531.1</ele>
        <time>2023-08-13T05:47:04Z</time>
      </trkpt>
      <trkpt lat="42.821510" lon="-7.681926">
        <ele>531.4</ele>
        <time>2023-08-13T05:47:18Z</time>
      </trkpt>
      <trkpt lat="42.821523" lon="-7.682182">
        <ele>530.4</ele>
        <time>2023-08-13T05:47:33Z</time>
      </trkpt>
      <trkpt lat="42.821550" lon="-7.682429">
        <ele>531.4</ele>
        <time>2023-08-13T05:47:46Z</time>
      </trkpt>
      <trkpt lat="42.821612" lon="-7.682666">
        <ele>530.4</ele>
        <time>2023-08-13T05:47:59Z</time>
      </trkpt>
      <trkpt lat="42.821666" lon="-7.682903">
        <ele>531.1</ele>
        <time>2023-08-13T05:48:11Z</time>
      </trkpt>
      <trkpt lat="42.821687" lon="-7.683148">
        <ele>529.4</ele>
        <time>2023-08-13T05:48:25Z</time>
      </trkpt>
      <trkpt lat="42.821726" lon="-7.683398">
        <ele>530.4</ele>
        <time>2023-08-13T05:48:40Z</time>
      </trkpt>
      <trkpt lat="42.821748" lon="-7.683648">
        <ele>530.4</ele>
        <time>2023-08-13T05:48:55Z</time>
      </trkpt>
      <trkpt lat="42.821784" lon="-7.683890">
        <ele>530.4</ele>
        <time>2023-08-13T05:49:08Z</time>
      </trkpt>
      <trkpt lat="42.821834" lon="-7.684133">
        <ele>528.4</ele>
        <time>2023-08-13T05:49:21Z</time>
      </trkpt>
      <trkpt lat="42.821880" lon="-7.684373">
        <ele>531.4</ele>
        <time>2023-08-13T05:49:33Z</time>
      </trkpt>
      <trkpt lat="42.821926" lon="-7.684617">
        <ele>532.1</ele>
        <time>2023-08-13T05:49:46Z</time>
      </trkpt>
      <trkpt lat="42.821917" lon="-7.684870">
        <ele>532.4</ele>
        <time>2023-08-13T05:50:00Z</time>
      </trkpt>
      <trkpt lat="42.821970" lon="-7.685112">
        <ele>531.5</ele>
        <time>2023-08-13T05:50:13Z</time>
      </trkpt>
      <trkpt lat="42.822007" lon="-7.685357">
        <ele>531.4</ele>
        <time>2023-08-13T05:50:26Z</time>
      </trkpt>
      <trkpt lat="42.822051" lon="-7.685596">
        <ele>532.1</ele>
        <time>2023-08-13T05:50:40Z</time>
      </trkpt>
      <trkpt lat="42.822101" lon="-7.685842">
        <ele>532.4</ele>
        <time>2023-08-13T05:50:55Z</time>
      </trkpt>
      <trkpt lat="42.822166" lon="-7.686076">
        <ele>533.4</ele>
        <time>2023-08-13T05:51:09Z</time>
      </trkpt>
      <trkpt lat="42.822249" lon="-7.686295">
        <ele>532.4</ele>
        <time>2023-08-13T05:51:22Z</time>
      </trkpt>
      <trkpt lat="42.822337" lon="-7.686520">
        <ele>532.4</ele>
        <time>2023-08-13T05:51:35Z</time>
      </trkpt>
      <trkpt lat="42.822447" lon="-7.686722">
        <ele>533.4</ele>
        <time>2023-08-13T05:51:48Z</time>
      </trkpt>
      <trkpt lat="42.822555" lon="-7.686923">
        <ele>531.5</ele>
        <time>2023-08-13T05:52:02Z</time>
      </trkpt>
      <trkpt lat="42.822687" lon="-7.687100">
        <ele>530.7</ele>
        <time>2023-08-13T05:52:15Z</time>
      </trkpt>
      <trkpt lat="42.822804" lon="-7.687299">
        <ele>529.4</ele>
        <time>2023-08-13T05:52:27Z</time>
      </trkpt>
      <trkpt lat="42.822920" lon="-7.687495">
        <ele>529.4</ele>
        <time>2023-08-13T05:52:40Z</time>
      </trkpt>
      <trkpt lat="42.823028" lon="-7.687691">
        <ele>528.1</ele>
        <time>2023-08-13T05:52:52Z</time>
      </trkpt>
      <trkpt lat="42.823159" lon="-7.687879">
        <ele>529.4</ele>
        <time>2023-08-13T05:53:05Z</time>
      </trkpt>
      <trkpt lat="42.823271" lon="-7.688079">
        <ele>529.4</ele>
        <time>2023-08-13T05:53:18Z</time>
      </trkpt>
      <trkpt lat="42.823375" lon="-7.688290">
        <ele>529.4</ele>
        <time>2023-08-13T05:53:32Z</time>
      </trkpt>
      <trkpt lat="42.823445" lon="-7.688516">
        <ele>527.4</ele>
        <time>2023-08-13T05:53:46Z</time>
      </trkpt>
      <trkpt lat="42.823541" lon="-7.688732">
        <ele>526.5</ele>
        <time>2023-08-13T05:54:01Z</time>
      </trkpt>
      <trkpt lat="42.823626" lon="-7.688952">
        <ele>524.4</ele>
        <time>2023-08-13T05:54:14Z</time>
      </trkpt>
      <trkpt lat="42.823729" lon="-7.689154">
        <ele>526.4</ele>
        <time>2023-08-13T05:54:29Z</time>
      </trkpt>
      <trkpt lat="42.823863" lon="-7.689322">
        <ele>524.5</ele>
        <time>2023-08-13T05:56:48Z</time>
      </trkpt>
      <trkpt lat="42.823970" lon="-7.689527">
        <ele>522.1</ele>
        <time>2023-08-13T05:58:51Z</time>
      </trkpt>
      <trkpt lat="42.823958" lon="-7.689780">
        <ele>525.4</ele>
        <time>2023-08-13T05:59:51Z</time>
      </trkpt>
      <trkpt lat="42.823772" lon="-7.689895">
        <ele>525.4</ele>
        <time>2023-08-13T06:00:09Z</time>
      </trkpt>
      <trkpt lat="42.823628" lon="-7.690017">
        <ele>525.4</ele>
        <time>2023-08-13T06:00:27Z</time>
      </trkpt>
      <trkpt lat="42.823694" lon="-7.690274">
        <ele>525.4</ele>
        <time>2023-08-13T06:00:39Z</time>
      </trkpt>
      <trkpt lat="42.823748" lon="-7.690494">
        <ele>528.4</ele>
        <time>2023-08-13T06:00:51Z</time>
      </trkpt>
      <trkpt lat="42.823802" lon="-7.690729">
        <ele>530.4</ele>
        <time>2023-08-13T06:01:03Z</time>
      </trkpt>
      <trkpt lat="42.823847" lon="-7.690967">
        <ele>531.4</ele>
        <time>2023-08-13T06:01:16Z</time>
      </trkpt>
      <trkpt lat="42.823880" lon="-7.691215">
        <ele>531.5</ele>
        <time>2023-08-13T06:01:31Z</time>
      </trkpt>
      <trkpt lat="42.823906" lon="-7.691459">
        <ele>532.4</ele>
        <time>2023-08-13T06:01:46Z</time>
      </trkpt>
      <trkpt lat="42.823945" lon="-7.691707">
        <ele>534.4</ele>
        <time>2023-08-13T06:01:59Z</time>
      </trkpt>
      <trkpt lat="42.824001" lon="-7.691941">
        <ele>535.3</ele>
        <time>2023-08-13T06:02:11Z</time>
      </trkpt>
      <trkpt lat="42.824046" lon="-7.692183">
        <ele>535.4</ele>
        <time>2023-08-13T06:02:25Z</time>
      </trkpt>
      <trkpt lat="42.824087" lon="-7.692426">
        <ele>532.4</ele>
        <time>2023-08-13T06:02:40Z</time>
      </trkpt>
      <trkpt lat="42.824129" lon="-7.692675">
        <ele>532.4</ele>
        <time>2023-08-13T06:02:54Z</time>
      </trkpt>
      <trkpt lat="42.824239" lon="-7.692870">
        <ele>532.4</ele>
        <time>2023-08-13T06:03:08Z</time>
      </trkpt>
      <trkpt lat="42.824349" lon="-7.693066">
        <ele>535.4</ele>
        <time>2023-08-13T06:03:22Z</time>
      </trkpt>
      <trkpt lat="42.824454" lon="-7.693265">
        <ele>534.4</ele>
        <time>2023-08-13T06:03:37Z</time>
      </trkpt>
      <trkpt lat="42.824556" lon="-7.693476">
        <ele>532.5</ele>
        <time>2023-08-13T06:03:51Z</time>
      </trkpt>
      <trkpt lat="42.824651" lon="-7.693688">
        <ele>534.4</ele>
        <time>2023-08-13T06:04:05Z</time>
      </trkpt>
      <trkpt lat="42.824724" lon="-7.693915">
        <ele>534.4</ele>
        <time>2023-08-13T06:04:19Z</time>
      </trkpt>
      <trkpt lat="42.824789" lon="-7.694152">
        <ele>534.5</ele>
        <time>2023-08-13T06:04:33Z</time>
      </trkpt>
      <trkpt lat="42.824823" lon="-7.694394">
        <ele>533.4</ele>
        <time>2023-08-13T06:04:47Z</time>
      </trkpt>
      <trkpt lat="42.824865" lon="-7.694641">
        <ele>530.4</ele>
        <time>2023-08-13T06:05:02Z</time>
      </trkpt>
      <trkpt lat="42.824879" lon="-7.694886">
        <ele>531.1</ele>
        <time>2023-08-13T06:05:17Z</time>
      </trkpt>
      <trkpt lat="42.824915" lon="-7.695134">
        <ele>539.3</ele>
        <time>2023-08-13T06:05:32Z</time>
      </trkpt>
      <trkpt lat="42.824926" lon="-7.695382">
        <ele>534.4</ele>
        <time>2023-08-13T06:06:02Z</time>
      </trkpt>
      <trkpt lat="42.824926" lon="-7.695633">
        <ele>535.4</ele>
        <time>2023-08-13T06:06:16Z</time>
      </trkpt>
      <trkpt lat="42.824959" lon="-7.695878">
        <ele>538.5</ele>
        <time>2023-08-13T06:06:30Z</time>
      </trkpt>
      <trkpt lat="42.824962" lon="-7.696124">
        <ele>537.4</ele>
        <time>2023-08-13T06:06:47Z</time>
      </trkpt>
      <trkpt lat="42.825099" lon="-7.696302">
        <ele>540.1</ele>
        <time>2023-08-13T06:07:03Z</time>
      </trkpt>
      <trkpt lat="42.825150" lon="-7.696539">
        <ele>538.4</ele>
        <time>2023-08-13T06:07:20Z</time>
      </trkpt>
      <trkpt lat="42.825275" lon="-7.696716">
        <ele>536.4</ele>
        <time>2023-08-13T06:07:37Z</time>
      </trkpt>
      <trkpt lat="42.825385" lon="-7.696911">
        <ele>533.4</ele>
        <time>2023-08-13T06:07:52Z</time>
      </trkpt>
      <trkpt lat="42.825519" lon="-7.697091">
        <ele>535.1</ele>
        <time>2023-08-13T06:08:05Z</time>
      </trkpt>
      <trkpt lat="42.825643" lon="-7.697277">
        <ele>536.4</ele>
        <time>2023-08-13T06:08:19Z</time>
      </trkpt>
      <trkpt lat="42.825672" lon="-7.697529">
        <ele>535.4</ele>
        <time>2023-08-13T06:08:33Z</time>
      </trkpt>
      <trkpt lat="42.825697" lon="-7.697780">
        <ele>546.9</ele>
        <time>2023-08-13T06:08:46Z</time>
      </trkpt>
      <trkpt lat="42.825789" lon="-7.697994">
        <ele>546.9</ele>
        <time>2023-08-13T06:08:59Z</time>
      </trkpt>
      <trkpt lat="42.825904" lon="-7.698199">
        <ele>546.9</ele>
        <time>2023-08-13T06:09:14Z</time>
      </trkpt>
      <trkpt lat="42.825973" lon="-7.698440">
        <ele>546.1</ele>
        <time>2023-08-13T06:09:29Z</time>
      </trkpt>
      <trkpt lat="42.826102" lon="-7.698619">
        <ele>546.5</ele>
        <time>2023-08-13T06:09:44Z</time>
      </trkpt>
      <trkpt lat="42.826272" lon="-7.698710">
        <ele>549.3</ele>
        <time>2023-08-13T06:10:00Z</time>
      </trkpt>
      <trkpt lat="42.826454" lon="-7.698728">
        <ele>549.8</ele>
        <time>2023-08-13T06:10:16Z</time>
      </trkpt>
      <trkpt lat="42.826622" lon="-7.698829">
        <ele>553.4</ele>
        <time>2023-08-13T06:10:33Z</time>
      </trkpt>
      <trkpt lat="42.826787" lon="-7.698945">
        <ele>556.4</ele>
        <time>2023-08-13T06:10:45Z</time>
      </trkpt>
      <trkpt lat="42.826954" lon="-7.699045">
        <ele>559.1</ele>
        <time>2023-08-13T06:10:59Z</time>
      </trkpt>
      <trkpt lat="42.827124" lon="-7.699126">
        <ele>561.4</ele>
        <time>2023-08-13T06:11:16Z</time>
      </trkpt>
      <trkpt lat="42.827306" lon="-7.699165">
        <ele>562.4</ele>
        <time>2023-08-13T06:11:32Z</time>
      </trkpt>
      <trkpt lat="42.827452" lon="-7.699328">
        <ele>561.4</ele>
        <time>2023-08-13T06:11:46Z</time>
      </trkpt>
      <trkpt lat="42.827567" lon="-7.699529">
        <ele>556.5</ele>
        <time>2023-08-13T06:11:58Z</time>
      </trkpt>
      <trkpt lat="42.827690" lon="-7.699717">
        <ele>558.4</ele>
        <time>2023-08-13T06:12:15Z</time>
      </trkpt>
      <trkpt lat="42.827810" lon="-7.699904">
        <ele>558.1</ele>
        <time>2023-08-13T06:12:32Z</time>
      </trkpt>
      <trkpt lat="42.827942" lon="-7.700077">
        <ele>559.4</ele>
        <time>2023-08-13T06:12:45Z</time>
      </trkpt>
      <trkpt lat="42.828070" lon="-7.700255">
        <ele>560.4</ele>
        <time>2023-08-13T06:13:00Z</time>
      </trkpt>
      <trkpt lat="42.828186" lon="-7.700450">
        <ele>561.4</ele>
        <time>2023-08-13T06:13:13Z</time>
      </trkpt>
      <trkpt lat="42.828281" lon="-7.700662">
        <ele>562.4</ele>
        <time>2023-08-13T06:13:27Z</time>
      </trkpt>
      <trkpt lat="42.828420" lon="-7.700824">
        <ele>562.4</ele>
        <time>2023-08-13T06:13:42Z</time>
      </trkpt>
      <trkpt lat="42.828545" lon="-7.701008">
        <ele>564.4</ele>
        <time>2023-08-13T06:14:00Z</time>
      </trkpt>
      <trkpt lat="42.828674" lon="-7.701180">
        <ele>566.4</ele>
        <time>2023-08-13T06:14:14Z</time>
      </trkpt>
      <trkpt lat="42.828805" lon="-7.701349">
        <ele>569.4</ele>
        <time>2023-08-13T06:14:32Z</time>
      </trkpt>
      <trkpt lat="42.828960" lon="-7.701481">
        <ele>570.5</ele>
        <time>2023-08-13T06:14:51Z</time>
      </trkpt>
      <trkpt lat="42.829088" lon="-7.701655">
        <ele>567.5</ele>
        <time>2023-08-13T06:15:05Z</time>
      </trkpt>
      <trkpt lat="42.829233" lon="-7.701800">
        <ele>566.4</ele>
        <time>2023-08-13T06:15:20Z</time>
      </trkpt>
      <trkpt lat="42.829380" lon="-7.701953">
        <ele>568.4</ele>
        <time>2023-08-13T06:15:32Z</time>
      </trkpt>
      <trkpt lat="42.829536" lon="-7.702092">
        <ele>567.4</ele>
        <time>2023-08-13T06:15:47Z</time>
      </trkpt>
      <trkpt lat="42.829650" lon="-7.702288">
        <ele>570.3</ele>
        <time>2023-08-13T06:16:05Z</time>
      </trkpt>
      <trkpt lat="42.829656" lon="-7.702538">
        <ele>570.4</ele>
        <time>2023-08-13T06:16:25Z</time>
      </trkpt>
      <trkpt lat="42.829730" lon="-7.702764">
        <ele>571.4</ele>
        <time>2023-08-13T06:16:39Z</time>
      </trkpt>
      <trkpt lat="42.829820" lon="-7.702989">
        <ele>594.5</ele>
        <time>2023-08-13T06:16:54Z</time>
      </trkpt>
      <trkpt lat="42.829872" lon="-7.703224">
        <ele>592.6</ele>
        <time>2023-08-13T06:17:06Z</time>
      </trkpt>
      <trkpt lat="42.829875" lon="-7.703471">
        <ele>594.5</ele>
        <time>2023-08-13T06:17:21Z</time>
      </trkpt>
      <trkpt lat="42.829940" lon="-7.703704">
        <ele>592.6</ele>
        <time>2023-08-13T06:17:36Z</time>
      </trkpt>
      <trkpt lat="42.829994" lon="-7.703946">
        <ele>592.6</ele>
        <time>2023-08-13T06:17:51Z</time>
      </trkpt>
      <trkpt lat="42.830093" lon="-7.704151">
        <ele>592.6</ele>
        <time>2023-08-13T06:18:09Z</time>
      </trkpt>
      <trkpt lat="42.830164" lon="-7.704384">
        <ele>592.6</ele>
        <time>2023-08-13T06:18:23Z</time>
      </trkpt>
      <trkpt lat="42.830259" lon="-7.704598">
        <ele>592.6</ele>
        <time>2023-08-13T06:18:39Z</time>
      </trkpt>
      <trkpt lat="42.830378" lon="-7.704791">
        <ele>592.6</ele>
        <time>2023-08-13T06:18:54Z</time>
      </trkpt>
      <trkpt lat="42.830491" lon="-7.704995">
        <ele>588.3</ele>
        <time>2023-08-13T06:19:08Z</time>
      </trkpt>
      <trkpt lat="42.830589" lon="-7.705204">
        <ele>591.4</ele>
        <time>2023-08-13T06:19:21Z</time>
      </trkpt>
      <trkpt lat="42.830688" lon="-7.705408">
        <ele>590.4</ele>
        <time>2023-08-13T06:19:40Z</time>
      </trkpt>
      <trkpt lat="42.830835" lon="-7.705564">
        <ele>591.4</ele>
        <time>2023-08-13T06:19:57Z</time>
      </trkpt>
      <trkpt lat="42.830896" lon="-7.705800">
        <ele>591.4</ele>
        <time>2023-08-13T06:20:11Z</time>
      </trkpt>
      <trkpt lat="42.830948" lon="-7.706046">
        <ele>590.5</ele>
        <time>2023-08-13T06:20:28Z</time>
      </trkpt>
      <trkpt lat="42.830997" lon="-7.706284">
        <ele>587.4</ele>
        <time>2023-08-13T06:20:44Z</time>
      </trkpt>
      <trkpt lat="42.831076" lon="-7.706512">
        <ele>589.3</ele>
        <time>2023-08-13T06:20:59Z</time>
      </trkpt>
      <trkpt lat="42.831154" lon="-7.706737">
        <ele>590.3</ele>
        <time>2023-08-13T06:21:13Z</time>
      </trkpt>
      <trkpt lat="42.831226" lon="-7.706962">
        <ele>588.7</ele>
        <time>2023-08-13T06:21:27Z</time>
      </trkpt>
      <trkpt lat="42.831288" lon="-7.707196">
        <ele>587.4</ele>
        <time>2023-08-13T06:21:42Z</time>
      </trkpt>
      <trkpt lat="42.831365" lon="-7.707429">
        <ele>586.2</ele>
        <time>2023-08-13T06:22:00Z</time>
      </trkpt>
      <trkpt lat="42.831446" lon="-7.707669">
        <ele>588.4</ele>
        <time>2023-08-13T06:22:13Z</time>
      </trkpt>
      <trkpt lat="42.831482" lon="-7.707913">
        <ele>589.4</ele>
        <time>2023-08-13T06:22:27Z</time>
      </trkpt>
      <trkpt lat="42.831519" lon="-7.708154">
        <ele>589.7</ele>
        <time>2023-08-13T06:22:42Z</time>
      </trkpt>
      <trkpt lat="42.831538" lon="-7.708398">
        <ele>594.9</ele>
        <time>2023-08-13T06:22:55Z</time>
      </trkpt>
      <trkpt lat="42.831640" lon="-7.708600">
        <ele>594.9</ele>
        <time>2023-08-13T06:23:12Z</time>
      </trkpt>
      <trkpt lat="42.831715" lon="-7.708827">
        <ele>594.9</ele>
        <time>2023-08-13T06:23:28Z</time>
      </trkpt>
      <trkpt lat="42.831718" lon="-7.709078">
        <ele>600.2</ele>
        <time>2023-08-13T06:23:44Z</time>
      </trkpt>
      <trkpt lat="42.831806" lon="-7.709296">
        <ele>600.2</ele>
        <time>2023-08-13T06:23:58Z</time>
      </trkpt>
      <trkpt lat="42.831890" lon="-7.709524">
        <ele>604.0</ele>
        <time>2023-08-13T06:24:12Z</time>
      </trkpt>
      <trkpt lat="42.831999" lon="-7.709727">
        <ele>604.0</ele>
        <time>2023-08-13T06:24:28Z</time>
      </trkpt>
      <trkpt lat="42.832107" lon="-7.709930">
        <ele>604.0</ele>
        <time>2023-08-13T06:24:45Z</time>
      </trkpt>
      <trkpt lat="42.832153" lon="-7.710171">
        <ele>612.0</ele>
        <time>2023-08-13T06:24:59Z</time>
      </trkpt>
      <trkpt lat="42.832262" lon="-7.710377">
        <ele>612.0</ele>
        <time>2023-08-13T06:25:14Z</time>
      </trkpt>
      <trkpt lat="42.832393" lon="-7.710548">
        <ele>612.0</ele>
        <time>2023-08-13T06:25:30Z</time>
      </trkpt>
      <trkpt lat="42.832512" lon="-7.710743">
        <ele>612.0</ele>
        <time>2023-08-13T06:25:44Z</time>
      </trkpt>
      <trkpt lat="42.832627" lon="-7.710934">
        <ele>612.0</ele>
        <time>2023-08-13T06:25:59Z</time>
      </trkpt>
      <trkpt lat="42.832682" lon="-7.711174">
        <ele>612.0</ele>
        <time>2023-08-13T06:26:17Z</time>
      </trkpt>
      <trkpt lat="42.832810" lon="-7.711358">
        <ele>612.0</ele>
        <time>2023-08-13T06:26:30Z</time>
      </trkpt>
      <trkpt lat="42.832945" lon="-7.711521">
        <ele>624.1</ele>
        <time>2023-08-13T06:27:03Z</time>
      </trkpt>
      <trkpt lat="42.833048" lon="-7.711724">
        <ele>623.4</ele>
        <time>2023-08-13T06:27:18Z</time>
      </trkpt>
      <trkpt lat="42.833169" lon="-7.711919">
        <ele>624.3</ele>
        <time>2023-08-13T06:27:35Z</time>
      </trkpt>
      <trkpt lat="42.833229" lon="-7.712151">
        <ele>624.4</ele>
        <time>2023-08-13T06:27:48Z</time>
      </trkpt>
      <trkpt lat="42.833319" lon="-7.712378">
        <ele>626.4</ele>
        <time>2023-08-13T06:28:03Z</time>
      </trkpt>
      <trkpt lat="42.833397" lon="-7.712606">
        <ele>627.7</ele>
        <time>2023-08-13T06:28:19Z</time>
      </trkpt>
      <trkpt lat="42.833501" lon="-7.712812">
        <ele>629.4</ele>
        <time>2023-08-13T06:28:33Z</time>
      </trkpt>
      <trkpt lat="42.833583" lon="-7.713045">
        <ele>631.4</ele>
        <time>2023-08-13T06:28:47Z</time>
      </trkpt>
      <trkpt lat="42.833632" lon="-7.713289">
        <ele>634.3</ele>
        <time>2023-08-13T06:29:01Z</time>
      </trkpt>
      <trkpt lat="42.833652" lon="-7.713538">
        <ele>638.5</ele>
        <time>2023-08-13T06:29:18Z</time>
      </trkpt>
      <trkpt lat="42.833745" lon="-7.713756">
        <ele>641.3</ele>
        <time>2023-08-13T06:29:35Z</time>
      </trkpt>
      <trkpt lat="42.833776" lon="-7.714001">
        <ele>644.4</ele>
        <time>2023-08-13T06:29:53Z</time>
      </trkpt>
      <trkpt lat="42.833739" lon="-7.714248">
        <ele>641.7</ele>
        <time>2023-08-13T06:30:19Z</time>
      </trkpt>
      <trkpt lat="42.833693" lon="-7.714490">
        <ele>640.5</ele>
        <time>2023-08-13T06:30:32Z</time>
      </trkpt>
      <trkpt lat="42.833645" lon="-7.714733">
        <ele>642.4</ele>
        <time>2023-08-13T06:30:45Z</time>
      </trkpt>
      <trkpt lat="42.833607" lon="-7.714974">
        <ele>643.4</ele>
        <time>2023-08-13T06:31:01Z</time>
      </trkpt>
      <trkpt lat="42.833562" lon="-7.715213">
        <ele>648.3</ele>
        <time>2023-08-13T06:31:17Z</time>
      </trkpt>
      <trkpt lat="42.833541" lon="-7.715463">
        <ele>651.1</ele>
        <time>2023-08-13T06:31:34Z</time>
      </trkpt>
      <trkpt lat="42.833535" lon="-7.715715">
        <ele>652.4</ele>
        <time>2023-08-13T06:31:50Z</time>
      </trkpt>
      <trkpt lat="42.833510" lon="-7.715964">
        <ele>655.4</ele>
        <time>2023-08-13T06:32:06Z</time>
      </trkpt>
      <trkpt lat="42.833512" lon="-7.716219">
        <ele>658.4</ele>
        <time>2023-08-13T06:32:24Z</time>
      </trkpt>
      <trkpt lat="42.833510" lon="-7.716477">
        <ele>661.4</ele>
        <time>2023-08-13T06:32:41Z</time>
      </trkpt>
      <trkpt lat="42.833632" lon="-7.716661">
        <ele>665.1</ele>
        <time>2023-08-13T06:33:03Z</time>
      </trkpt>
      <trkpt lat="42.833509" lon="-7.716845">
        <ele>670.4</ele>
        <time>2023-08-13T06:34:42Z</time>
      </trkpt>
      <trkpt lat="42.833524" lon="-7.717094">
        <ele>671.1</ele>
        <time>2023-08-13T06:34:55Z</time>
      </trkpt>
      <trkpt lat="42.833638" lon="-7.717283">
        <ele>673.1</ele>
        <time>2023-08-13T06:35:13Z</time>
      </trkpt>
      <trkpt lat="42.833764" lon="-7.717471">
        <ele>672.4</ele>
        <time>2023-08-13T06:35:25Z</time>
      </trkpt>
      <trkpt lat="42.833881" lon="-7.717664">
        <ele>673.7</ele>
        <time>2023-08-13T06:35:38Z</time>
      </trkpt>
      <trkpt lat="42.833916" lon="-7.717912">
        <ele>675.4</ele>
        <time>2023-08-13T06:35:52Z</time>
      </trkpt>
      <trkpt lat="42.833988" lon="-7.718143">
        <ele>678.4</ele>
        <time>2023-08-13T06:36:05Z</time>
      </trkpt>
      <trkpt lat="42.834065" lon="-7.718380">
        <ele>679.3</ele>
        <time>2023-08-13T06:36:18Z</time>
      </trkpt>
      <trkpt lat="42.834126" lon="-7.718612">
        <ele>680.4</ele>
        <time>2023-08-13T06:36:31Z</time>
      </trkpt>
      <trkpt lat="42.834144" lon="-7.718859">
        <ele>682.4</ele>
        <time>2023-08-13T06:36:46Z</time>
      </trkpt>
      <trkpt lat="42.834197" lon="-7.719095">
        <ele>682.4</ele>
        <time>2023-08-13T06:36:58Z</time>
      </trkpt>
      <trkpt lat="42.834225" lon="-7.719338">
        <ele>682.4</ele>
        <time>2023-08-13T06:37:11Z</time>
      </trkpt>
      <trkpt lat="42.834245" lon="-7.719588">
        <ele>681.4</ele>
        <time>2023-08-13T06:37:24Z</time>
      </trkpt>
      <trkpt lat="42.834258" lon="-7.719839">
        <ele>683.4</ele>
        <time>2023-08-13T06:37:37Z</time>
      </trkpt>
      <trkpt lat="42.834247" lon="-7.720085">
        <ele>682.5</ele>
        <time>2023-08-13T06:37:50Z</time>
      </trkpt>
      <trkpt lat="42.834221" lon="-7.720338">
        <ele>689.3</ele>
        <time>2023-08-13T06:38:14Z</time>
      </trkpt>
      <trkpt lat="42.834217" lon="-7.720589">
        <ele>689.4</ele>
        <time>2023-08-13T06:38:30Z</time>
      </trkpt>
      <trkpt lat="42.834185" lon="-7.720832">
        <ele>687.4</ele>
        <time>2023-08-13T06:38:50Z</time>
      </trkpt>
      <trkpt lat="42.834119" lon="-7.721064">
        <ele>687.4</ele>
        <time>2023-08-13T06:39:04Z</time>
      </trkpt>
      <trkpt lat="42.834012" lon="-7.721269">
        <ele>689.4</ele>
        <time>2023-08-13T06:39:22Z</time>
      </trkpt>
      <trkpt lat="42.834126" lon="-7.721460">
        <ele>688.4</ele>
        <time>2023-08-13T06:39:37Z</time>
      </trkpt>
      <trkpt lat="42.834263" lon="-7.721619">
        <ele>688.4</ele>
        <time>2023-08-13T06:39:49Z</time>
      </trkpt>
      <trkpt lat="42.834425" lon="-7.721736">
        <ele>687.4</ele>
        <time>2023-08-13T06:40:03Z</time>
      </trkpt>
      <trkpt lat="42.834571" lon="-7.721881">
        <ele>687.4</ele>
        <time>2023-08-13T06:40:17Z</time>
      </trkpt>
      <trkpt lat="42.834669" lon="-7.722097">
        <ele>687.4</ele>
        <time>2023-08-13T06:40:31Z</time>
      </trkpt>
      <trkpt lat="42.834813" lon="-7.722252">
        <ele>686.4</ele>
        <time>2023-08-13T06:40:46Z</time>
      </trkpt>
      <trkpt lat="42.834941" lon="-7.722431">
        <ele>683.4</ele>
        <time>2023-08-13T06:41:03Z</time>
      </trkpt>
      <trkpt lat="42.835069" lon="-7.722605">
        <ele>681.4</ele>
        <time>2023-08-13T06:41:14Z</time>
      </trkpt>
      <trkpt lat="42.835188" lon="-7.722789">
        <ele>680.6</ele>
        <time>2023-08-13T06:41:28Z</time>
      </trkpt>
      <trkpt lat="42.835304" lon="-7.722984">
        <ele>678.4</ele>
        <time>2023-08-13T06:41:40Z</time>
      </trkpt>
      <trkpt lat="42.835429" lon="-7.723176">
        <ele>676.4</ele>
        <time>2023-08-13T06:41:54Z</time>
      </trkpt>
      <trkpt lat="42.835559" lon="-7.723345">
        <ele>674.5</ele>
        <time>2023-08-13T06:42:08Z</time>
      </trkpt>
      <trkpt lat="42.835718" lon="-7.723463">
        <ele>674.6</ele>
        <time>2023-08-13T06:42:24Z</time>
      </trkpt>
      <trkpt lat="42.835826" lon="-7.723664">
        <ele>672.5</ele>
        <time>2023-08-13T06:42:38Z</time>
      </trkpt>
      <trkpt lat="42.835930" lon="-7.723867">
        <ele>670.4</ele>
        <time>2023-08-13T06:42:52Z</time>
      </trkpt>
      <trkpt lat="42.836013" lon="-7.724094">
        <ele>671.4</ele>
        <time>2023-08-13T06:43:07Z</time>
      </trkpt>
      <trkpt lat="42.836112" lon="-7.724309">
        <ele>674.5</ele>
        <time>2023-08-13T06:43:21Z</time>
      </trkpt>
      <trkpt lat="42.836287" lon="-7.724373">
        <ele>679.3</ele>
        <time>2023-08-13T06:43:37Z</time>
      </trkpt>
      <trkpt lat="42.836398" lon="-7.724569">
        <ele>681.4</ele>
        <time>2023-08-13T06:43:53Z</time>
      </trkpt>
      <trkpt lat="42.836460" lon="-7.724806">
        <ele>680.4</ele>
        <time>2023-08-13T06:44:09Z</time>
      </trkpt>
      <trkpt lat="42.836555" lon="-7.725021">
        <ele>678.4</ele>
        <time>2023-08-13T06:44:22Z</time>
      </trkpt>
      <trkpt lat="42.836619" lon="-7.725254">
        <ele>676.4</ele>
        <time>2023-08-13T06:44:36Z</time>
      </trkpt>
      <trkpt lat="42.836715" lon="-7.725469">
        <ele>674.4</ele>
        <time>2023-08-13T06:44:53Z</time>
      </trkpt>
      <trkpt lat="42.836779" lon="-7.725700">
        <ele>674.4</ele>
        <time>2023-08-13T06:45:06Z</time>
      </trkpt>
      <trkpt lat="42.836850" lon="-7.725936">
        <ele>675.7</ele>
        <time>2023-08-13T06:45:20Z</time>
      </trkpt>
      <trkpt lat="42.836936" lon="-7.726163">
        <ele>676.4</ele>
        <time>2023-08-13T06:45:36Z</time>
      </trkpt>
      <trkpt lat="42.837002" lon="-7.726400">
        <ele>677.4</ele>
        <time>2023-08-13T06:45:50Z</time>
      </trkpt>
      <trkpt lat="42.837080" lon="-7.726625">
        <ele>678.4</ele>
        <time>2023-08-13T06:46:04Z</time>
      </trkpt>
      <trkpt lat="42.837151" lon="-7.726855">
        <ele>679.4</ele>
        <time>2023-08-13T06:46:16Z</time>
      </trkpt>
      <trkpt lat="42.837220" lon="-7.727086">
        <ele>679.3</ele>
        <time>2023-08-13T06:46:31Z</time>
      </trkpt>
      <trkpt lat="42.837311" lon="-7.727302">
        <ele>679.4</ele>
        <time>2023-08-13T06:46:45Z</time>
      </trkpt>
      <trkpt lat="42.837396" lon="-7.727523">
        <ele>679.4</ele>
        <time>2023-08-13T06:46:59Z</time>
      </trkpt>
      <trkpt lat="42.837447" lon="-7.727758">
        <ele>680.4</ele>
        <time>2023-08-13T06:47:13Z</time>
      </trkpt>
      <trkpt lat="42.837519" lon="-7.727987">
        <ele>681.4</ele>
        <time>2023-08-13T06:47:26Z</time>
      </trkpt>
      <trkpt lat="42.837604" lon="-7.728203">
        <ele>681.4</ele>
        <time>2023-08-13T06:47:40Z</time>
      </trkpt>
      <trkpt lat="42.837687" lon="-7.728431">
        <ele>680.4</ele>
        <time>2023-08-13T06:47:54Z</time>
      </trkpt>
      <trkpt lat="42.837767" lon="-7.728658">
        <ele>680.1</ele>
        <time>2023-08-13T06:48:08Z</time>
      </trkpt>
      <trkpt lat="42.837835" lon="-7.728887">
        <ele>681.4</ele>
        <time>2023-08-13T06:48:22Z</time>
      </trkpt>
      <trkpt lat="42.837926" lon="-7.729105">
        <ele>683.4</ele>
        <time>2023-08-13T06:48:36Z</time>
      </trkpt>
      <trkpt lat="42.837985" lon="-7.729337">
        <ele>682.4</ele>
        <time>2023-08-13T06:48:52Z</time>
      </trkpt>
      <trkpt lat="42.838012" lon="-7.729588">
        <ele>685.3</ele>
        <time>2023-08-13T06:49:08Z</time>
      </trkpt>
      <trkpt lat="42.838028" lon="-7.729834">
        <ele>685.4</ele>
        <time>2023-08-13T06:49:24Z</time>
      </trkpt>
      <trkpt lat="42.838084" lon="-7.730071">
        <ele>682.4</ele>
        <time>2023-08-13T06:49:38Z</time>
      </trkpt>
      <trkpt lat="42.838178" lon="-7.730289">
        <ele>682.4</ele>
        <time>2023-08-13T06:49:52Z</time>
      </trkpt>
      <trkpt lat="42.838281" lon="-7.730495">
        <ele>683.4</ele>
        <time>2023-08-13T06:50:07Z</time>
      </trkpt>
      <trkpt lat="42.838391" lon="-7.730692">
        <ele>685.4</ele>
        <time>2023-08-13T06:50:21Z</time>
      </trkpt>
      <trkpt lat="42.838494" lon="-7.730903">
        <ele>684.4</ele>
        <time>2023-08-13T06:50:35Z</time>
      </trkpt>
      <trkpt lat="42.838606" lon="-7.731110">
        <ele>681.7</ele>
        <time>2023-08-13T06:50:53Z</time>
      </trkpt>
      <trkpt lat="42.838749" lon="-7.731262">
        <ele>680.4</ele>
        <time>2023-08-13T06:51:08Z</time>
      </trkpt>
      <trkpt lat="42.838885" lon="-7.731426">
        <ele>680.4</ele>
        <time>2023-08-13T06:51:23Z</time>
      </trkpt>
      <trkpt lat="42.839041" lon="-7.731572">
        <ele>682.4</ele>
        <time>2023-08-13T06:51:36Z</time>
      </trkpt>
      <trkpt lat="42.839186" lon="-7.731719">
        <ele>683.4</ele>
        <time>2023-08-13T06:51:51Z</time>
      </trkpt>
      <trkpt lat="42.839340" lon="-7.731851">
        <ele>683.4</ele>
        <time>2023-08-13T06:52:05Z</time>
      </trkpt>
      <trkpt lat="42.839498" lon="-7.731996">
        <ele>683.7</ele>
        <time>2023-08-13T06:52:20Z</time>
      </trkpt>
      <trkpt lat="42.839638" lon="-7.732154">
        <ele>683.7</ele>
        <time>2023-08-13T06:52:34Z</time>
      </trkpt>
      <trkpt lat="42.839770" lon="-7.732327">
        <ele>682.4</ele>
        <time>2023-08-13T06:52:49Z</time>
      </trkpt>
      <trkpt lat="42.839885" lon="-7.732524">
        <ele>685.3</ele>
        <time>2023-08-13T06:53:04Z</time>
      </trkpt>
      <trkpt lat="42.840002" lon="-7.732714">
        <ele>685.4</ele>
        <time>2023-08-13T06:53:20Z</time>
      </trkpt>
      <trkpt lat="42.840066" lon="-7.732945">
        <ele>683.4</ele>
        <time>2023-08-13T06:53:36Z</time>
      </trkpt>
      <trkpt lat="42.840175" lon="-7.733149">
        <ele>681.7</ele>
        <time>2023-08-13T06:53:53Z</time>
      </trkpt>
      <trkpt lat="42.840296" lon="-7.733334">
        <ele>678.5</ele>
        <time>2023-08-13T06:54:11Z</time>
      </trkpt>
      <trkpt lat="42.840401" lon="-7.733536">
        <ele>675.7</ele>
        <time>2023-08-13T06:54:27Z</time>
      </trkpt>
      <trkpt lat="42.840540" lon="-7.733696">
        <ele>673.4</ele>
        <time>2023-08-13T06:54:41Z</time>
      </trkpt>
      <trkpt lat="42.840652" lon="-7.733891">
        <ele>674.1</ele>
        <time>2023-08-13T06:54:56Z</time>
      </trkpt>
      <trkpt lat="42.840802" lon="-7.734034">
        <ele>672.5</ele>
        <time>2023-08-13T06:55:11Z</time>
      </trkpt>
      <trkpt lat="42.840937" lon="-7.734202">
        <ele>671.4</ele>
        <time>2023-08-13T06:55:26Z</time>
      </trkpt>
      <trkpt lat="42.841059" lon="-7.734406">
        <ele>672.1</ele>
        <time>2023-08-13T06:55:44Z</time>
      </trkpt>
      <trkpt lat="42.841207" lon="-7.734555">
        <ele>676.3</ele>
        <time>2023-08-13T06:55:58Z</time>
      </trkpt>
      <trkpt lat="42.841359" lon="-7.734686">
        <ele>676.3</ele>
        <time>2023-08-13T06:56:14Z</time>
      </trkpt>
      <trkpt lat="42.841539" lon="-7.734764">
        <ele>676.3</ele>
        <time>2023-08-13T06:56:31Z</time>
      </trkpt>
      <trkpt lat="42.841654" lon="-7.734569">
        <ele>681.3</ele>
        <time>2023-08-13T06:56:45Z</time>
      </trkpt>
      <trkpt lat="42.841675" lon="-7.734317">
        <ele>683.4</ele>
        <time>2023-08-13T06:56:58Z</time>
      </trkpt>
      <trkpt lat="42.841698" lon="-7.734074">
        <ele>686.4</ele>
        <time>2023-08-13T06:57:12Z</time>
      </trkpt>
      <trkpt lat="42.841826" lon="-7.733882">
        <ele>687.4</ele>
        <time>2023-08-13T06:57:27Z</time>
      </trkpt>
      <trkpt lat="42.841943" lon="-7.733713">
        <ele>688.1</ele>
        <time>2023-08-13T06:57:46Z</time>
      </trkpt>
      <trkpt lat="42.842124" lon="-7.733906">
        <ele>690.4</ele>
        <time>2023-08-13T06:58:04Z</time>
      </trkpt>
      <trkpt lat="42.842222" lon="-7.734114">
        <ele>687.4</ele>
        <time>2023-08-13T06:58:17Z</time>
      </trkpt>
      <trkpt lat="42.842342" lon="-7.734407">
        <ele>686.4</ele>
        <time>2023-08-13T06:58:32Z</time>
      </trkpt>
      <trkpt lat="42.842221" lon="-7.734550">
        <ele>687.4</ele>
        <time>2023-08-13T06:58:52Z</time>
      </trkpt>
      <trkpt lat="42.842100" lon="-7.734737">
        <ele>687.4</ele>
        <time>2023-08-13T06:59:06Z</time>
      </trkpt>
      <trkpt lat="42.842017" lon="-7.734958">
        <ele>683.4</ele>
        <time>2023-08-13T06:59:19Z</time>
      </trkpt>
      <trkpt lat="42.841914" lon="-7.735167">
        <ele>684.4</ele>
        <time>2023-08-13T06:59:32Z</time>
      </trkpt>
      <trkpt lat="42.841928" lon="-7.735421">
        <ele>683.4</ele>
        <time>2023-08-13T06:59:48Z</time>
      </trkpt>
      <trkpt lat="42.841971" lon="-7.735658">
        <ele>684.3</ele>
        <time>2023-08-13T07:00:01Z</time>
      </trkpt>
      <trkpt lat="42.842034" lon="-7.735902">
        <ele>685.4</ele>
        <time>2023-08-13T07:00:15Z</time>
      </trkpt>
      <trkpt lat="42.842070" lon="-7.736150">
        <ele>686.4</ele>
        <time>2023-08-13T07:00:32Z</time>
      </trkpt>
      <trkpt lat="42.842149" lon="-7.736374">
        <ele>687.4</ele>
        <time>2023-08-13T07:00:46Z</time>
      </trkpt>
      <trkpt lat="42.842214" lon="-7.736614">
        <ele>688.4</ele>
        <time>2023-08-13T07:00:59Z</time>
      </trkpt>
      <trkpt lat="42.842268" lon="-7.736852">
        <ele>690.4</ele>
        <time>2023-08-13T07:01:13Z</time>
      </trkpt>
      <trkpt lat="42.842340" lon="-7.737077">
        <ele>690.4</ele>
        <time>2023-08-13T07:01:26Z</time>
      </trkpt>
      <trkpt lat="42.842452" lon="-7.737274">
        <ele>689.1</ele>
        <time>2023-08-13T07:01:39Z</time>
      </trkpt>
      <trkpt lat="42.842523" lon="-7.737500">
        <ele>687.4</ele>
        <time>2023-08-13T07:01:53Z</time>
      </trkpt>
      <trkpt lat="42.842543" lon="-7.737749">
        <ele>689.4</ele>
        <time>2023-08-13T07:02:08Z</time>
      </trkpt>
      <trkpt lat="42.842576" lon="-7.738001">
        <ele>689.4</ele>
        <time>2023-08-13T07:02:22Z</time>
      </trkpt>
      <trkpt lat="42.842590" lon="-7.738246">
        <ele>692.4</ele>
        <time>2023-08-13T07:02:34Z</time>
      </trkpt>
      <trkpt lat="42.842606" lon="-7.738498">
        <ele>694.4</ele>
        <time>2023-08-13T07:02:48Z</time>
      </trkpt>
      <trkpt lat="42.842627" lon="-7.738743">
        <ele>696.1</ele>
        <time>2023-08-13T07:03:01Z</time>
      </trkpt>
      <trkpt lat="42.842636" lon="-7.738996">
        <ele>696.6</ele>
        <time>2023-08-13T07:03:16Z</time>
      </trkpt>
      <trkpt lat="42.842655" lon="-7.739245">
        <ele>697.4</ele>
        <time>2023-08-13T07:03:29Z</time>
      </trkpt>
      <trkpt lat="42.842683" lon="-7.739490">
        <ele>697.4</ele>
        <time>2023-08-13T07:03:43Z</time>
      </trkpt>
      <trkpt lat="42.842683" lon="-7.739737">
        <ele>698.4</ele>
        <time>2023-08-13T07:03:56Z</time>
      </trkpt>
      <trkpt lat="42.842704" lon="-7.739983">
        <ele>699.4</ele>
        <time>2023-08-13T07:04:09Z</time>
      </trkpt>
      <trkpt lat="42.842708" lon="-7.740234">
        <ele>702.3</ele>
        <time>2023-08-13T07:04:23Z</time>
      </trkpt>
      <trkpt lat="42.842729" lon="-7.740481">
        <ele>702.4</ele>
        <time>2023-08-13T07:04:36Z</time>
      </trkpt>
      <trkpt lat="42.842749" lon="-7.740730">
        <ele>703.4</ele>
        <time>2023-08-13T07:04:50Z</time>
      </trkpt>
      <trkpt lat="42.842795" lon="-7.740969">
        <ele>704.3</ele>
        <time>2023-08-13T07:05:04Z</time>
      </trkpt>
      <trkpt lat="42.842883" lon="-7.741196">
        <ele>704.4</ele>
        <time>2023-08-13T07:05:18Z</time>
      </trkpt>
      <trkpt lat="42.842969" lon="-7.741414">
        <ele>705.3</ele>
        <time>2023-08-13T07:05:30Z</time>
      </trkpt>
      <trkpt lat="42.843061" lon="-7.741631">
        <ele>705.3</ele>
        <time>2023-08-13T07:05:45Z</time>
      </trkpt>
      <trkpt lat="42.843128" lon="-7.741865">
        <ele>704.4</ele>
        <time>2023-08-13T07:06:01Z</time>
      </trkpt>
      <trkpt lat="42.843181" lon="-7.742101">
        <ele>702.7</ele>
        <time>2023-08-13T07:06:16Z</time>
      </trkpt>
      <trkpt lat="42.843208" lon="-7.742351">
        <ele>701.4</ele>
        <time>2023-08-13T07:06:30Z</time>
      </trkpt>
      <trkpt lat="42.843227" lon="-7.742596">
        <ele>702.4</ele>
        <time>2023-08-13T07:06:43Z</time>
      </trkpt>
      <trkpt lat="42.843257" lon="-7.742845">
        <ele>702.4</ele>
        <time>2023-08-13T07:06:56Z</time>
      </trkpt>
      <trkpt lat="42.843279" lon="-7.743092">
        <ele>702.7</ele>
        <time>2023-08-13T07:07:08Z</time>
      </trkpt>
      <trkpt lat="42.843280" lon="-7.743346">
        <ele>703.4</ele>
        <time>2023-08-13T07:07:22Z</time>
      </trkpt>
      <trkpt lat="42.843312" lon="-7.743595">
        <ele>703.4</ele>
        <time>2023-08-13T07:07:34Z</time>
      </trkpt>
      <trkpt lat="42.843325" lon="-7.743852">
        <ele>704.3</ele>
        <time>2023-08-13T07:07:51Z</time>
      </trkpt>
      <trkpt lat="42.843338" lon="-7.744097">
        <ele>704.4</ele>
        <time>2023-08-13T07:08:03Z</time>
      </trkpt>
      <trkpt lat="42.843345" lon="-7.744343">
        <ele>706.3</ele>
        <time>2023-08-13T07:08:21Z</time>
      </trkpt>
      <trkpt lat="42.843367" lon="-7.744596">
        <ele>705.3</ele>
        <time>2023-08-13T07:08:33Z</time>
      </trkpt>
      <trkpt lat="42.843372" lon="-7.744849">
        <ele>707.3</ele>
        <time>2023-08-13T07:08:46Z</time>
      </trkpt>
      <trkpt lat="42.843391" lon="-7.745102">
        <ele>707.3</ele>
        <time>2023-08-13T07:09:00Z</time>
      </trkpt>
      <trkpt lat="42.843430" lon="-7.745346">
        <ele>708.3</ele>
        <time>2023-08-13T07:09:12Z</time>
      </trkpt>
      <trkpt lat="42.843479" lon="-7.745587">
        <ele>708.3</ele>
        <time>2023-08-13T07:09:26Z</time>
      </trkpt>
      <trkpt lat="42.843519" lon="-7.745837">
        <ele>709.3</ele>
        <time>2023-08-13T07:09:41Z</time>
      </trkpt>
      <trkpt lat="42.843524" lon="-7.746091">
        <ele>709.7</ele>
        <time>2023-08-13T07:09:56Z</time>
      </trkpt>
      <trkpt lat="42.843629" lon="-7.746299">
        <ele>707.3</ele>
        <time>2023-08-13T07:10:10Z</time>
      </trkpt>
      <trkpt lat="42.843699" lon="-7.746530">
        <ele>708.3</ele>
        <time>2023-08-13T07:10:24Z</time>
      </trkpt>
      <trkpt lat="42.843770" lon="-7.746762">
        <ele>709.3</ele>
        <time>2023-08-13T07:10:40Z</time>
      </trkpt>
      <trkpt lat="42.843855" lon="-7.746980">
        <ele>705.8</ele>
        <time>2023-08-13T07:10:53Z</time>
      </trkpt>
      <trkpt lat="42.843926" lon="-7.747213">
        <ele>705.8</ele>
        <time>2023-08-13T07:11:07Z</time>
      </trkpt>
      <trkpt lat="42.844018" lon="-7.747423">
        <ele>705.8</ele>
        <time>2023-08-13T07:11:20Z</time>
      </trkpt>
      <trkpt lat="42.844114" lon="-7.747638">
        <ele>705.8</ele>
        <time>2023-08-13T07:11:35Z</time>
      </trkpt>
      <trkpt lat="42.844220" lon="-7.747840">
        <ele>705.8</ele>
        <time>2023-08-13T07:11:48Z</time>
      </trkpt>
      <trkpt lat="42.844309" lon="-7.748063">
        <ele>705.8</ele>
        <time>2023-08-13T07:12:03Z</time>
      </trkpt>
      <trkpt lat="42.844241" lon="-7.748295">
        <ele>705.3</ele>
        <time>2023-08-13T07:13:41Z</time>
      </trkpt>
      <trkpt lat="42.844206" lon="-7.748538">
        <ele>705.3</ele>
        <time>2023-08-13T07:13:56Z</time>
      </trkpt>
      <trkpt lat="42.844223" lon="-7.748792">
        <ele>705.2</ele>
        <time>2023-08-13T07:14:08Z</time>
      </trkpt>
      <trkpt lat="42.844293" lon="-7.749029">
        <ele>705.2</ele>
        <time>2023-08-13T07:14:56Z</time>
      </trkpt>
      <trkpt lat="42.844335" lon="-7.749269">
        <ele>704.3</ele>
        <time>2023-08-13T07:16:59Z</time>
      </trkpt>
      <trkpt lat="42.844437" lon="-7.749479">
        <ele>705.3</ele>
        <time>2023-08-13T07:17:10Z</time>
      </trkpt>
      <trkpt lat="42.844541" lon="-7.749694">
        <ele>705.4</ele>
        <time>2023-08-13T07:17:22Z</time>
      </trkpt>
      <trkpt lat="42.844616" lon="-7.749929">
        <ele>706.4</ele>
        <time>2023-08-13T07:17:36Z</time>
      </trkpt>
      <trkpt lat="42.844692" lon="-7.750155">
        <ele>707.1</ele>
        <time>2023-08-13T07:17:48Z</time>
      </trkpt>
      <trkpt lat="42.844755" lon="-7.750406">
        <ele>708.3</ele>
        <time>2023-08-13T07:18:01Z</time>
      </trkpt>
      <trkpt lat="42.844841" lon="-7.750624">
        <ele>710.3</ele>
        <time>2023-08-13T07:18:16Z</time>
      </trkpt>
      <trkpt lat="42.844919" lon="-7.750847">
        <ele>711.3</ele>
        <time>2023-08-13T07:18:28Z</time>
      </trkpt>
      <trkpt lat="42.844988" lon="-7.751085">
        <ele>713.0</ele>
        <time>2023-08-13T07:18:42Z</time>
      </trkpt>
      <trkpt lat="42.845022" lon="-7.751328">
        <ele>714.3</ele>
        <time>2023-08-13T07:18:55Z</time>
      </trkpt>
      <trkpt lat="42.845082" lon="-7.751568">
        <ele>714.3</ele>
        <time>2023-08-13T07:19:08Z</time>
      </trkpt>
      <trkpt lat="42.845141" lon="-7.751805">
        <ele>715.0</ele>
        <time>2023-08-13T07:19:22Z</time>
      </trkpt>
      <trkpt lat="42.845215" lon="-7.752030">
        <ele>715.3</ele>
        <time>2023-08-13T07:19:35Z</time>
      </trkpt>
      <trkpt lat="42.845277" lon="-7.752260">
        <ele>719.3</ele>
        <time>2023-08-13T07:19:50Z</time>
      </trkpt>
      <trkpt lat="42.845345" lon="-7.752492">
        <ele>720.3</ele>
        <time>2023-08-13T07:20:02Z</time>
      </trkpt>
      <trkpt lat="42.845421" lon="-7.752717">
        <ele>720.3</ele>
        <time>2023-08-13T07:20:16Z</time>
      </trkpt>
      <trkpt lat="42.845445" lon="-7.752962">
        <ele>721.3</ele>
        <time>2023-08-13T07:20:30Z</time>
      </trkpt>
      <trkpt lat="42.845433" lon="-7.753215">
        <ele>723.3</ele>
        <time>2023-08-13T07:20:43Z</time>
      </trkpt>
      <trkpt lat="42.845442" lon="-7.753466">
        <ele>724.4</ele>
        <time>2023-08-13T07:20:57Z</time>
      </trkpt>
      <trkpt lat="42.845448" lon="-7.753723">
        <ele>722.3</ele>
        <time>2023-08-13T07:21:31Z</time>
      </trkpt>
      <trkpt lat="42.845455" lon="-7.753976">
        <ele>725.3</ele>
        <time>2023-08-13T07:21:44Z</time>
      </trkpt>
      <trkpt lat="42.845463" lon="-7.754227">
        <ele>724.4</ele>
        <time>2023-08-13T07:21:59Z</time>
      </trkpt>
      <trkpt lat="42.845515" lon="-7.754468">
        <ele>724.6</ele>
        <time>2023-08-13T07:22:14Z</time>
      </trkpt>
      <trkpt lat="42.845560" lon="-7.754706">
        <ele>723.3</ele>
        <time>2023-08-13T07:22:28Z</time>
      </trkpt>
      <trkpt lat="42.845604" lon="-7.754952">
        <ele>724.3</ele>
        <time>2023-08-13T07:22:43Z</time>
      </trkpt>
      <trkpt lat="42.845665" lon="-7.755192">
        <ele>725.3</ele>
        <time>2023-08-13T07:22:57Z</time>
      </trkpt>
      <trkpt lat="42.845705" lon="-7.755434">
        <ele>725.3</ele>
        <time>2023-08-13T07:23:11Z</time>
      </trkpt>
      <trkpt lat="42.845771" lon="-7.755667">
        <ele>723.3</ele>
        <time>2023-08-13T07:23:25Z</time>
      </trkpt>
      <trkpt lat="42.845895" lon="-7.755859">
        <ele>722.3</ele>
        <time>2023-08-13T07:23:42Z</time>
      </trkpt>
      <trkpt lat="42.845986" lon="-7.756072">
        <ele>720.3</ele>
        <time>2023-08-13T07:23:56Z</time>
      </trkpt>
      <trkpt lat="42.846108" lon="-7.756257">
        <ele>718.4</ele>
        <time>2023-08-13T07:24:10Z</time>
      </trkpt>
      <trkpt lat="42.846232" lon="-7.756440">
        <ele>720.3</ele>
        <time>2023-08-13T07:24:23Z</time>
      </trkpt>
      <trkpt lat="42.846378" lon="-7.756590">
        <ele>720.3</ele>
        <time>2023-08-13T07:24:37Z</time>
      </trkpt>
      <trkpt lat="42.846522" lon="-7.756751">
        <ele>720.3</ele>
        <time>2023-08-13T07:24:51Z</time>
      </trkpt>
      <trkpt lat="42.846661" lon="-7.756913">
        <ele>721.3</ele>
        <time>2023-08-13T07:25:04Z</time>
      </trkpt>
      <trkpt lat="42.846800" lon="-7.757079">
        <ele>718.4</ele>
        <time>2023-08-13T07:25:17Z</time>
      </trkpt>
      <trkpt lat="42.846954" lon="-7.757210">
        <ele>719.3</ele>
        <time>2023-08-13T07:25:30Z</time>
      </trkpt>
      <trkpt lat="42.847099" lon="-7.757363">
        <ele>715.4</ele>
        <time>2023-08-13T07:25:44Z</time>
      </trkpt>
      <trkpt lat="42.847269" lon="-7.757468">
        <ele>715.3</ele>
        <time>2023-08-13T07:25:58Z</time>
      </trkpt>
      <trkpt lat="42.847423" lon="-7.757599">
        <ele>715.3</ele>
        <time>2023-08-13T07:26:11Z</time>
      </trkpt>
      <trkpt lat="42.847574" lon="-7.757733">
        <ele>716.3</ele>
        <time>2023-08-13T07:26:24Z</time>
      </trkpt>
      <trkpt lat="42.847729" lon="-7.757873">
        <ele>716.3</ele>
        <time>2023-08-13T07:26:37Z</time>
      </trkpt>
      <trkpt lat="42.847882" lon="-7.758022">
        <ele>716.3</ele>
        <time>2023-08-13T07:26:51Z</time>
      </trkpt>
      <trkpt lat="42.848038" lon="-7.758160">
        <ele>718.3</ele>
        <time>2023-08-13T07:27:03Z</time>
      </trkpt>
      <trkpt lat="42.848158" lon="-7.758348">
        <ele>718.3</ele>
        <time>2023-08-13T07:27:17Z</time>
      </trkpt>
      <trkpt lat="42.848294" lon="-7.758521">
        <ele>719.4</ele>
        <time>2023-08-13T07:27:29Z</time>
      </trkpt>
      <trkpt lat="42.848416" lon="-7.758706">
        <ele>721.3</ele>
        <time>2023-08-13T07:27:43Z</time>
      </trkpt>
      <trkpt lat="42.848544" lon="-7.758894">
        <ele>723.3</ele>
        <time>2023-08-13T07:27:57Z</time>
      </trkpt>
      <trkpt lat="42.848669" lon="-7.759072">
        <ele>720.4</ele>
        <time>2023-08-13T07:28:09Z</time>
      </trkpt>
      <trkpt lat="42.848818" lon="-7.759218">
        <ele>721.4</ele>
        <time>2023-08-13T07:28:22Z</time>
      </trkpt>
      <trkpt lat="42.848956" lon="-7.759391">
        <ele>720.7</ele>
        <time>2023-08-13T07:28:35Z</time>
      </trkpt>
      <trkpt lat="42.849084" lon="-7.759568">
        <ele>721.4</ele>
        <time>2023-08-13T07:28:48Z</time>
      </trkpt>
      <trkpt lat="42.849226" lon="-7.759739">
        <ele>721.3</ele>
        <time>2023-08-13T07:29:02Z</time>
      </trkpt>
      <trkpt lat="42.849351" lon="-7.759925">
        <ele>719.4</ele>
        <time>2023-08-13T07:29:16Z</time>
      </trkpt>
      <trkpt lat="42.849488" lon="-7.760094">
        <ele>721.3</ele>
        <time>2023-08-13T07:29:29Z</time>
      </trkpt>
      <trkpt lat="42.849605" lon="-7.760299">
        <ele>720.4</ele>
        <time>2023-08-13T07:29:44Z</time>
      </trkpt>
      <trkpt lat="42.849700" lon="-7.760512">
        <ele>720.4</ele>
        <time>2023-08-13T07:29:57Z</time>
      </trkpt>
      <trkpt lat="42.849764" lon="-7.760748">
        <ele>720.4</ele>
        <time>2023-08-13T07:30:12Z</time>
      </trkpt>
      <trkpt lat="42.849826" lon="-7.760986">
        <ele>719.3</ele>
        <time>2023-08-13T07:30:25Z</time>
      </trkpt>
      <trkpt lat="42.849889" lon="-7.761226">
        <ele>719.4</ele>
        <time>2023-08-13T07:30:37Z</time>
      </trkpt>
      <trkpt lat="42.849960" lon="-7.761456">
        <ele>718.4</ele>
        <time>2023-08-13T07:30:52Z</time>
      </trkpt>
      <trkpt lat="42.850024" lon="-7.761689">
        <ele>716.4</ele>
        <time>2023-08-13T07:31:04Z</time>
      </trkpt>
      <trkpt lat="42.850084" lon="-7.761928">
        <ele>714.4</ele>
        <time>2023-08-13T07:31:17Z</time>
      </trkpt>
      <trkpt lat="42.850184" lon="-7.762136">
        <ele>711.4</ele>
        <time>2023-08-13T07:31:31Z</time>
      </trkpt>
      <trkpt lat="42.850265" lon="-7.762364">
        <ele>712.3</ele>
        <time>2023-08-13T07:31:46Z</time>
      </trkpt>
      <trkpt lat="42.850350" lon="-7.762595">
        <ele>709.4</ele>
        <time>2023-08-13T07:32:00Z</time>
      </trkpt>
      <trkpt lat="42.850450" lon="-7.762814">
        <ele>707.7</ele>
        <time>2023-08-13T07:32:14Z</time>
      </trkpt>
      <trkpt lat="42.850532" lon="-7.763034">
        <ele>706.4</ele>
        <time>2023-08-13T07:32:28Z</time>
      </trkpt>
      <trkpt lat="42.850618" lon="-7.763259">
        <ele>704.6</ele>
        <time>2023-08-13T07:32:41Z</time>
      </trkpt>
      <trkpt lat="42.850698" lon="-7.763486">
        <ele>706.4</ele>
        <time>2023-08-13T07:32:56Z</time>
      </trkpt>
      <trkpt lat="42.850773" lon="-7.763708">
        <ele>704.4</ele>
        <time>2023-08-13T07:33:11Z</time>
      </trkpt>
      <trkpt lat="42.850832" lon="-7.763942">
        <ele>701.4</ele>
        <time>2023-08-13T07:33:25Z</time>
      </trkpt>
      <trkpt lat="42.850905" lon="-7.764167">
        <ele>701.4</ele>
        <time>2023-08-13T07:33:39Z</time>
      </trkpt>
      <trkpt lat="42.850944" lon="-7.764408">
        <ele>700.4</ele>
        <time>2023-08-13T07:33:52Z</time>
      </trkpt>
      <trkpt lat="42.850992" lon="-7.764656">
        <ele>698.4</ele>
        <time>2023-08-13T07:34:07Z</time>
      </trkpt>
      <trkpt lat="42.851016" lon="-7.764902">
        <ele>695.4</ele>
        <time>2023-08-13T07:34:25Z</time>
      </trkpt>
      <trkpt lat="42.851112" lon="-7.765116">
        <ele>694.4</ele>
        <time>2023-08-13T07:34:38Z</time>
      </trkpt>
      <trkpt lat="42.851145" lon="-7.765366">
        <ele>695.1</ele>
        <time>2023-08-13T07:34:54Z</time>
      </trkpt>
      <trkpt lat="42.851208" lon="-7.765601">
        <ele>693.5</ele>
        <time>2023-08-13T07:35:06Z</time>
      </trkpt>
      <trkpt lat="42.851283" lon="-7.765835">
        <ele>691.4</ele>
        <time>2023-08-13T07:35:19Z</time>
      </trkpt>
      <trkpt lat="42.851338" lon="-7.766077">
        <ele>690.4</ele>
        <time>2023-08-13T07:35:33Z</time>
      </trkpt>
      <trkpt lat="42.851421" lon="-7.766297">
        <ele>689.4</ele>
        <time>2023-08-13T07:35:46Z</time>
      </trkpt>
      <trkpt lat="42.851485" lon="-7.766531">
        <ele>687.4</ele>
        <time>2023-08-13T07:35:59Z</time>
      </trkpt>
      <trkpt lat="42.851542" lon="-7.766767">
        <ele>686.3</ele>
        <time>2023-08-13T07:36:13Z</time>
      </trkpt>
      <trkpt lat="42.851612" lon="-7.766999">
        <ele>685.7</ele>
        <time>2023-08-13T07:36:26Z</time>
      </trkpt>
      <trkpt lat="42.851661" lon="-7.767241">
        <ele>685.4</ele>
        <time>2023-08-13T07:36:40Z</time>
      </trkpt>
      <trkpt lat="42.851686" lon="-7.767487">
        <ele>684.5</ele>
        <time>2023-08-13T07:36:55Z</time>
      </trkpt>
      <trkpt lat="42.851735" lon="-7.767726">
        <ele>681.4</ele>
        <time>2023-08-13T07:37:10Z</time>
      </trkpt>
      <trkpt lat="42.851809" lon="-7.767955">
        <ele>680.3</ele>
        <time>2023-08-13T07:37:24Z</time>
      </trkpt>
      <trkpt lat="42.851862" lon="-7.768194">
        <ele>675.7</ele>
        <time>2023-08-13T07:37:39Z</time>
      </trkpt>
      <trkpt lat="42.851956" lon="-7.768408">
        <ele>675.7</ele>
        <time>2023-08-13T07:38:09Z</time>
      </trkpt>
      <trkpt lat="42.852011" lon="-7.768643">
        <ele>671.4</ele>
        <time>2023-08-13T07:38:27Z</time>
      </trkpt>
      <trkpt lat="42.852106" lon="-7.768855">
        <ele>671.2</ele>
        <time>2023-08-13T07:38:39Z</time>
      </trkpt>
      <trkpt lat="42.852144" lon="-7.769105">
        <ele>671.4</ele>
        <time>2023-08-13T07:38:54Z</time>
      </trkpt>
      <trkpt lat="42.852226" lon="-7.769338">
        <ele>669.3</ele>
        <time>2023-08-13T07:39:21Z</time>
      </trkpt>
      <trkpt lat="42.852325" lon="-7.769544">
        <ele>666.7</ele>
        <time>2023-08-13T07:39:33Z</time>
      </trkpt>
      <trkpt lat="42.852421" lon="-7.769756">
        <ele>668.1</ele>
        <time>2023-08-13T07:39:45Z</time>
      </trkpt>
      <trkpt lat="42.852492" lon="-7.769983">
        <ele>668.3</ele>
        <time>2023-08-13T07:39:58Z</time>
      </trkpt>
      <trkpt lat="42.852545" lon="-7.770226">
        <ele>667.3</ele>
        <time>2023-08-13T07:40:12Z</time>
      </trkpt>
      <trkpt lat="42.852540" lon="-7.770481">
        <ele>663.3</ele>
        <time>2023-08-13T07:40:25Z</time>
      </trkpt>
      <trkpt lat="42.852565" lon="-7.770738">
        <ele>663.3</ele>
        <time>2023-08-13T07:40:38Z</time>
      </trkpt>
      <trkpt lat="42.852552" lon="-7.770990">
        <ele>663.3</ele>
        <time>2023-08-13T07:40:53Z</time>
      </trkpt>
      <trkpt lat="42.852533" lon="-7.771241">
        <ele>663.3</ele>
        <time>2023-08-13T07:41:07Z</time>
      </trkpt>
      <trkpt lat="42.852518" lon="-7.771491">
        <ele>663.3</ele>
        <time>2023-08-13T07:41:22Z</time>
      </trkpt>
      <trkpt lat="42.852502" lon="-7.771737">
        <ele>663.3</ele>
        <time>2023-08-13T07:41:34Z</time>
      </trkpt>
      <trkpt lat="42.852496" lon="-7.771991">
        <ele>652.5</ele>
        <time>2023-08-13T07:41:48Z</time>
      </trkpt>
      <trkpt lat="42.852502" lon="-7.772239">
        <ele>649.4</ele>
        <time>2023-08-13T07:42:02Z</time>
      </trkpt>
      <trkpt lat="42.852572" lon="-7.772469">
        <ele>647.4</ele>
        <time>2023-08-13T07:42:39Z</time>
      </trkpt>
      <trkpt lat="42.852649" lon="-7.772702">
        <ele>647.3</ele>
        <time>2023-08-13T07:42:53Z</time>
      </trkpt>
      <trkpt lat="42.852786" lon="-7.772869">
        <ele>648.3</ele>
        <time>2023-08-13T07:43:07Z</time>
      </trkpt>
      <trkpt lat="42.852915" lon="-7.773054">
        <ele>647.4</ele>
        <time>2023-08-13T07:43:22Z</time>
      </trkpt>
      <trkpt lat="42.853048" lon="-7.773228">
        <ele>644.4</ele>
        <time>2023-08-13T07:43:35Z</time>
      </trkpt>
      <trkpt lat="42.853194" lon="-7.773383">
        <ele>642.4</ele>
        <time>2023-08-13T07:43:49Z</time>
      </trkpt>
      <trkpt lat="42.853334" lon="-7.773546">
        <ele>640.4</ele>
        <time>2023-08-13T07:44:03Z</time>
      </trkpt>
      <trkpt lat="42.853500" lon="-7.773668">
        <ele>639.4</ele>
        <time>2023-08-13T07:44:17Z</time>
      </trkpt>
      <trkpt lat="42.853640" lon="-7.773847">
        <ele>640.4</ele>
        <time>2023-08-13T07:44:31Z</time>
      </trkpt>
      <trkpt lat="42.853764" lon="-7.774028">
        <ele>640.7</ele>
        <time>2023-08-13T07:44:44Z</time>
      </trkpt>
      <trkpt lat="42.853877" lon="-7.774226">
        <ele>642.4</ele>
        <time>2023-08-13T07:44:56Z</time>
      </trkpt>
      <trkpt lat="42.853980" lon="-7.774442">
        <ele>641.4</ele>
        <time>2023-08-13T07:46:30Z</time>
      </trkpt>
      <trkpt lat="42.854090" lon="-7.774647">
        <ele>641.4</ele>
        <time>2023-08-13T07:46:43Z</time>
      </trkpt>
      <trkpt lat="42.854181" lon="-7.774863">
        <ele>638.4</ele>
        <time>2023-08-13T07:46:58Z</time>
      </trkpt>
      <trkpt lat="42.854284" lon="-7.775074">
        <ele>637.4</ele>
        <time>2023-08-13T07:47:11Z</time>
      </trkpt>
      <trkpt lat="42.854422" lon="-7.775248">
        <ele>637.3</ele>
        <time>2023-08-13T07:47:22Z</time>
      </trkpt>
      <trkpt lat="42.854532" lon="-7.775445">
        <ele>640.3</ele>
        <time>2023-08-13T07:47:48Z</time>
      </trkpt>
      <trkpt lat="42.854630" lon="-7.775660">
        <ele>639.5</ele>
        <time>2023-08-13T07:48:03Z</time>
      </trkpt>
      <trkpt lat="42.854723" lon="-7.775876">
        <ele>636.5</ele>
        <time>2023-08-13T07:48:18Z</time>
      </trkpt>
      <trkpt lat="42.854815" lon="-7.776093">
        <ele>635.7</ele>
        <time>2023-08-13T07:48:32Z</time>
      </trkpt>
      <trkpt lat="42.854895" lon="-7.776322">
        <ele>634.5</ele>
        <time>2023-08-13T07:48:45Z</time>
      </trkpt>
      <trkpt lat="42.854975" lon="-7.776556">
        <ele>635.5</ele>
        <time>2023-08-13T07:48:56Z</time>
      </trkpt>
      <trkpt lat="42.855043" lon="-7.776789">
        <ele>635.4</ele>
        <time>2023-08-13T07:49:09Z</time>
      </trkpt>
      <trkpt lat="42.855099" lon="-7.777029">
        <ele>635.4</ele>
        <time>2023-08-13T07:49:23Z</time>
      </trkpt>
      <trkpt lat="42.855105" lon="-7.777279">
        <ele>637.3</ele>
        <time>2023-08-13T07:49:41Z</time>
      </trkpt>
      <trkpt lat="42.855214" lon="-7.777476">
        <ele>633.4</ele>
        <time>2023-08-13T07:52:04Z</time>
      </trkpt>
      <trkpt lat="42.855400" lon="-7.777479">
        <ele>628.3</ele>
        <time>2023-08-13T07:54:51Z</time>
      </trkpt>
      <trkpt lat="42.855513" lon="-7.777675">
        <ele>628.4</ele>
        <time>2023-08-13T07:55:06Z</time>
      </trkpt>
      <trkpt lat="42.855680" lon="-7.777767">
        <ele>630.3</ele>
        <time>2023-08-13T07:55:20Z</time>
      </trkpt>
      <trkpt lat="42.855860" lon="-7.777840">
        <ele>626.5</ele>
        <time>2023-08-13T07:55:34Z</time>
      </trkpt>
      <trkpt lat="42.856045" lon="-7.777864">
        <ele>625.4</ele>
        <time>2023-08-13T07:55:47Z</time>
      </trkpt>
      <trkpt lat="42.856225" lon="-7.777920">
        <ele>627.4</ele>
        <time>2023-08-13T07:55:58Z</time>
      </trkpt>
      <trkpt lat="42.856391" lon="-7.778029">
        <ele>629.3</ele>
        <time>2023-08-13T07:56:09Z</time>
      </trkpt>
      <trkpt lat="42.856564" lon="-7.778132">
        <ele>631.0</ele>
        <time>2023-08-13T07:56:23Z</time>
      </trkpt>
      <trkpt lat="42.856713" lon="-7.778281">
        <ele>630.5</ele>
        <time>2023-08-13T07:56:38Z</time>
      </trkpt>
      <trkpt lat="42.856879" lon="-7.778386">
        <ele>631.5</ele>
        <time>2023-08-13T07:56:52Z</time>
      </trkpt>
      <trkpt lat="42.857046" lon="-7.778490">
        <ele>629.8</ele>
        <time>2023-08-13T07:57:07Z</time>
      </trkpt>
      <trkpt lat="42.857185" lon="-7.778650">
        <ele>629.8</ele>
        <time>2023-08-13T07:57:23Z</time>
      </trkpt>
      <trkpt lat="42.857323" lon="-7.778812">
        <ele>629.8</ele>
        <time>2023-08-13T07:57:38Z</time>
      </trkpt>
      <trkpt lat="42.857458" lon="-7.778983">
        <ele>629.8</ele>
        <time>2023-08-13T07:57:52Z</time>
      </trkpt>
      <trkpt lat="42.857627" lon="-7.779094">
        <ele>628.8</ele>
        <time>2023-08-13T07:58:04Z</time>
      </trkpt>
      <trkpt lat="42.857794" lon="-7.779188">
        <ele>628.8</ele>
        <time>2023-08-13T07:58:18Z</time>
      </trkpt>
      <trkpt lat="42.857968" lon="-7.779256">
        <ele>628.8</ele>
        <time>2023-08-13T07:58:32Z</time>
      </trkpt>
      <trkpt lat="42.858146" lon="-7.779308">
        <ele>628.8</ele>
        <time>2023-08-13T07:58:44Z</time>
      </trkpt>
      <trkpt lat="42.858316" lon="-7.779407">
        <ele>628.8</ele>
        <time>2023-08-13T07:58:58Z</time>
      </trkpt>
      <trkpt lat="42.858481" lon="-7.779524">
        <ele>625.7</ele>
        <time>2023-08-13T07:59:10Z</time>
      </trkpt>
      <trkpt lat="42.858639" lon="-7.779653">
        <ele>627.7</ele>
        <time>2023-08-13T07:59:23Z</time>
      </trkpt>
      <trkpt lat="42.858794" lon="-7.779784">
        <ele>627.7</ele>
        <time>2023-08-13T07:59:39Z</time>
      </trkpt>
      <trkpt lat="42.858932" lon="-7.779958">
        <ele>627.7</ele>
        <time>2023-08-13T07:59:52Z</time>
      </trkpt>
      <trkpt lat="42.859051" lon="-7.780161">
        <ele>627.2</ele>
        <time>2023-08-13T08:00:07Z</time>
      </trkpt>
      <trkpt lat="42.859173" lon="-7.780344">
        <ele>625.8</ele>
        <time>2023-08-13T08:00:20Z</time>
      </trkpt>
      <trkpt lat="42.859306" lon="-7.780513">
        <ele>625.8</ele>
        <time>2023-08-13T08:00:33Z</time>
      </trkpt>
      <trkpt lat="42.859441" lon="-7.780689">
        <ele>625.8</ele>
        <time>2023-08-13T08:00:48Z</time>
      </trkpt>
      <trkpt lat="42.859557" lon="-7.780883">
        <ele>625.8</ele>
        <time>2023-08-13T08:01:01Z</time>
      </trkpt>
      <trkpt lat="42.859694" lon="-7.781041">
        <ele>625.8</ele>
        <time>2023-08-13T08:01:13Z</time>
      </trkpt>
      <trkpt lat="42.859818" lon="-7.781224">
        <ele>625.8</ele>
        <time>2023-08-13T08:01:28Z</time>
      </trkpt>
      <trkpt lat="42.859936" lon="-7.781419">
        <ele>625.8</ele>
        <time>2023-08-13T08:01:43Z</time>
      </trkpt>
      <trkpt lat="42.860105" lon="-7.781506">
        <ele>625.8</ele>
        <time>2023-08-13T08:01:59Z</time>
      </trkpt>
      <trkpt lat="42.860289" lon="-7.781566">
        <ele>625.8</ele>
        <time>2023-08-13T08:02:16Z</time>
      </trkpt>
      <trkpt lat="42.860447" lon="-7.781704">
        <ele>625.8</ele>
        <time>2023-08-13T08:02:29Z</time>
      </trkpt>
      <trkpt lat="42.860595" lon="-7.781856">
        <ele>625.8</ele>
        <time>2023-08-13T08:02:43Z</time>
      </trkpt>
      <trkpt lat="42.860751" lon="-7.781986">
        <ele>621.4</ele>
        <time>2023-08-13T08:02:56Z</time>
      </trkpt>
      <trkpt lat="42.860908" lon="-7.782147">
        <ele>620.4</ele>
        <time>2023-08-13T08:03:09Z</time>
      </trkpt>
      <trkpt lat="42.861057" lon="-7.782290">
        <ele>622.4</ele>
        <time>2023-08-13T08:03:23Z</time>
      </trkpt>
      <trkpt lat="42.861193" lon="-7.782458">
        <ele>621.4</ele>
        <time>2023-08-13T08:03:37Z</time>
      </trkpt>
      <trkpt lat="42.861344" lon="-7.782602">
        <ele>619.4</ele>
        <time>2023-08-13T08:03:51Z</time>
      </trkpt>
      <trkpt lat="42.861483" lon="-7.782766">
        <ele>619.3</ele>
        <time>2023-08-13T08:04:11Z</time>
      </trkpt>
      <trkpt lat="42.861529" lon="-7.783004">
        <ele>615.4</ele>
        <time>2023-08-13T08:04:38Z</time>
      </trkpt>
      <trkpt lat="42.861675" lon="-7.783159">
        <ele>611.4</ele>
        <time>2023-08-13T08:04:58Z</time>
      </trkpt>
      <trkpt lat="42.861844" lon="-7.783258">
        <ele>610.4</ele>
        <time>2023-08-13T08:05:23Z</time>
      </trkpt>
      <trkpt lat="42.862020" lon="-7.783331">
        <ele>609.3</ele>
        <time>2023-08-13T08:05:51Z</time>
      </trkpt>
      <trkpt lat="42.862182" lon="-7.783447">
        <ele>605.4</ele>
        <time>2023-08-13T08:06:07Z</time>
      </trkpt>
      <trkpt lat="42.862275" lon="-7.783659">
        <ele>602.4</ele>
        <time>2023-08-13T08:06:21Z</time>
      </trkpt>
      <trkpt lat="42.862334" lon="-7.783896">
        <ele>602.5</ele>
        <time>2023-08-13T08:06:36Z</time>
      </trkpt>
      <trkpt lat="42.862429" lon="-7.784106">
        <ele>603.4</ele>
        <time>2023-08-13T08:06:51Z</time>
      </trkpt>
      <trkpt lat="42.862497" lon="-7.784343">
        <ele>607.3</ele>
        <time>2023-08-13T08:07:08Z</time>
      </trkpt>
      <trkpt lat="42.862550" lon="-7.784583">
        <ele>608.6</ele>
        <time>2023-08-13T08:07:26Z</time>
      </trkpt>
      <trkpt lat="42.862631" lon="-7.784809">
        <ele>608.6</ele>
        <time>2023-08-13T08:07:40Z</time>
      </trkpt>
      <trkpt lat="42.862727" lon="-7.785038">
        <ele>608.6</ele>
        <time>2023-08-13T08:07:55Z</time>
      </trkpt>
      <trkpt lat="42.862880" lon="-7.785174">
        <ele>608.6</ele>
        <time>2023-08-13T08:08:14Z</time>
      </trkpt>
      <trkpt lat="42.863057" lon="-7.785248">
        <ele>608.6</ele>
        <time>2023-08-13T08:08:31Z</time>
      </trkpt>
      <trkpt lat="42.863235" lon="-7.785296">
        <ele>608.6</ele>
        <time>2023-08-13T08:08:45Z</time>
      </trkpt>
      <trkpt lat="42.863404" lon="-7.785381">
        <ele>608.6</ele>
        <time>2023-08-13T08:09:01Z</time>
      </trkpt>
      <trkpt lat="42.863564" lon="-7.785501">
        <ele>608.6</ele>
        <time>2023-08-13T08:09:15Z</time>
      </trkpt>
      <trkpt lat="42.863718" lon="-7.785635">
        <ele>608.6</ele>
        <time>2023-08-13T08:09:27Z</time>
      </trkpt>
      <trkpt lat="42.863840" lon="-7.785818">
        <ele>618.4</ele>
        <time>2023-08-13T08:09:43Z</time>
      </trkpt>
      <trkpt lat="42.863983" lon="-7.785975">
        <ele>621.3</ele>
        <time>2023-08-13T08:09:56Z</time>
      </trkpt>
      <trkpt lat="42.864120" lon="-7.786140">
        <ele>621.4</ele>
        <time>2023-08-13T08:10:10Z</time>
      </trkpt>
      <trkpt lat="42.864252" lon="-7.786311">
        <ele>622.4</ele>
        <time>2023-08-13T08:10:26Z</time>
      </trkpt>
      <trkpt lat="42.864284" lon="-7.786361">
        <ele>629.4</ele>
        <time>2023-08-13T08:11:42Z</time>
      </trkpt>
      <trkpt lat="42.864309" lon="-7.786411">
        <ele>631.4</ele>
        <time>2023-08-13T08:11:58Z</time>
      </trkpt>
      <trkpt lat="42.864339" lon="-7.786452">
        <ele>632.1</ele>
        <time>2023-08-13T08:12:11Z</time>
      </trkpt>
      <trkpt lat="42.864370" lon="-7.786500">
        <ele>631.4</ele>
        <time>2023-08-13T08:12:27Z</time>
      </trkpt>
      <trkpt lat="42.864388" lon="-7.786511">
        <ele>627.4</ele>
        <time>2023-08-13T08:13:49Z</time>
      </trkpt>
      <trkpt lat="42.864437" lon="-7.786557">
        <ele>627.4</ele>
        <time>2023-08-13T08:14:04Z</time>
      </trkpt>
      <trkpt lat="42.864459" lon="-7.786566">
        <ele>627.4</ele>
        <time>2023-08-13T08:14:16Z</time>
      </trkpt>
      <trkpt lat="42.864494" lon="-7.786566">
        <ele>627.4</ele>
        <time>2023-08-13T08:14:31Z</time>
      </trkpt>
      <trkpt lat="42.864604" lon="-7.786682">
        <ele>627.0</ele>
        <time>2023-08-13T08:14:47Z</time>
      </trkpt>
      <trkpt lat="42.864771" lon="-7.786783">
        <ele>629.4</ele>
        <time>2023-08-13T08:15:06Z</time>
      </trkpt>
      <trkpt lat="42.864926" lon="-7.786924">
        <ele>630.4</ele>
        <time>2023-08-13T08:15:21Z</time>
      </trkpt>
      <trkpt lat="42.865076" lon="-7.787071">
        <ele>630.4</ele>
        <time>2023-08-13T08:15:37Z</time>
      </trkpt>
      <trkpt lat="42.865231" lon="-7.787203">
        <ele>633.0</ele>
        <time>2023-08-13T08:15:50Z</time>
      </trkpt>
      <trkpt lat="42.865377" lon="-7.787355">
        <ele>633.0</ele>
        <time>2023-08-13T08:16:06Z</time>
      </trkpt>
      <trkpt lat="42.865484" lon="-7.787564">
        <ele>632.9</ele>
        <time>2023-08-13T08:16:18Z</time>
      </trkpt>
      <trkpt lat="42.865484" lon="-7.787793">
        <ele>633.0</ele>
        <time>2023-08-13T08:16:38Z</time>
      </trkpt>
      <trkpt lat="42.865533" lon="-7.788033">
        <ele>633.0</ele>
        <time>2023-08-13T08:16:51Z</time>
      </trkpt>
      <trkpt lat="42.865624" lon="-7.788245">
        <ele>633.0</ele>
        <time>2023-08-13T08:17:05Z</time>
      </trkpt>
      <trkpt lat="42.865668" lon="-7.788484">
        <ele>633.0</ele>
        <time>2023-08-13T08:17:20Z</time>
      </trkpt>
      <trkpt lat="42.865646" lon="-7.788732">
        <ele>633.0</ele>
        <time>2023-08-13T08:17:35Z</time>
      </trkpt>
      <trkpt lat="42.865645" lon="-7.788980">
        <ele>633.0</ele>
        <time>2023-08-13T08:17:51Z</time>
      </trkpt>
      <trkpt lat="42.865610" lon="-7.789220">
        <ele>638.2</ele>
        <time>2023-08-13T08:18:06Z</time>
      </trkpt>
      <trkpt lat="42.865584" lon="-7.789467">
        <ele>638.3</ele>
        <time>2023-08-13T08:18:20Z</time>
      </trkpt>
      <trkpt lat="42.865579" lon="-7.789717">
        <ele>636.4</ele>
        <time>2023-08-13T08:18:36Z</time>
      </trkpt>
      <trkpt lat="42.865579" lon="-7.789970">
        <ele>632.3</ele>
        <time>2023-08-13T08:18:52Z</time>
      </trkpt>
      <trkpt lat="42.865596" lon="-7.790220">
        <ele>630.5</ele>
        <time>2023-08-13T08:19:10Z</time>
      </trkpt>
      <trkpt lat="42.865607" lon="-7.790468">
        <ele>632.3</ele>
        <time>2023-08-13T08:19:21Z</time>
      </trkpt>
      <trkpt lat="42.865663" lon="-7.790701">
        <ele>630.4</ele>
        <time>2023-08-13T08:19:34Z</time>
      </trkpt>
      <trkpt lat="42.865744" lon="-7.790922">
        <ele>626.4</ele>
        <time>2023-08-13T08:19:50Z</time>
      </trkpt>
      <trkpt lat="42.865830" lon="-7.791143">
        <ele>627.4</ele>
        <time>2023-08-13T08:20:07Z</time>
      </trkpt>
      <trkpt lat="42.865895" lon="-7.791377">
        <ele>625.4</ele>
        <time>2023-08-13T08:20:24Z</time>
      </trkpt>
      <trkpt lat="42.865981" lon="-7.791603">
        <ele>627.4</ele>
        <time>2023-08-13T08:20:38Z</time>
      </trkpt>
      <trkpt lat="42.866017" lon="-7.791844">
        <ele>627.4</ele>
        <time>2023-08-13T08:20:54Z</time>
      </trkpt>
      <trkpt lat="42.866003" lon="-7.792090">
        <ele>628.4</ele>
        <time>2023-08-13T08:21:06Z</time>
      </trkpt>
      <trkpt lat="42.865995" lon="-7.792339">
        <ele>630.4</ele>
        <time>2023-08-13T08:21:19Z</time>
      </trkpt>
      <trkpt lat="42.866038" lon="-7.792586">
        <ele>631.7</ele>
        <time>2023-08-13T08:21:32Z</time>
      </trkpt>
      <trkpt lat="42.866063" lon="-7.792840">
        <ele>632.4</ele>
        <time>2023-08-13T08:21:46Z</time>
      </trkpt>
      <trkpt lat="42.866093" lon="-7.793102">
        <ele>632.4</ele>
        <time>2023-08-13T08:22:29Z</time>
      </trkpt>
      <trkpt lat="42.866131" lon="-7.793353">
        <ele>632.4</ele>
        <time>2023-08-13T08:22:41Z</time>
      </trkpt>
      <trkpt lat="42.866216" lon="-7.793570">
        <ele>632.4</ele>
        <time>2023-08-13T08:22:55Z</time>
      </trkpt>
      <trkpt lat="42.866269" lon="-7.793808">
        <ele>631.4</ele>
        <time>2023-08-13T08:23:08Z</time>
      </trkpt>
      <trkpt lat="42.866366" lon="-7.794016">
        <ele>634.3</ele>
        <time>2023-08-13T08:23:22Z</time>
      </trkpt>
      <trkpt lat="42.866473" lon="-7.794217">
        <ele>632.4</ele>
        <time>2023-08-13T08:23:36Z</time>
      </trkpt>
      <trkpt lat="42.866601" lon="-7.794401">
        <ele>631.5</ele>
        <time>2023-08-13T08:24:04Z</time>
      </trkpt>
      <trkpt lat="42.866669" lon="-7.794636">
        <ele>630.4</ele>
        <time>2023-08-13T08:24:18Z</time>
      </trkpt>
      <trkpt lat="42.866771" lon="-7.794842">
        <ele>629.7</ele>
        <time>2023-08-13T08:24:31Z</time>
      </trkpt>
      <trkpt lat="42.866875" lon="-7.795051">
        <ele>630.1</ele>
        <time>2023-08-13T08:24:44Z</time>
      </trkpt>
      <trkpt lat="42.866988" lon="-7.795248">
        <ele>632.4</ele>
        <time>2023-08-13T08:24:58Z</time>
      </trkpt>
      <trkpt lat="42.867101" lon="-7.795450">
        <ele>632.4</ele>
        <time>2023-08-13T08:25:11Z</time>
      </trkpt>
      <trkpt lat="42.867211" lon="-7.795660">
        <ele>634.4</ele>
        <time>2023-08-13T08:25:23Z</time>
      </trkpt>
      <trkpt lat="42.867317" lon="-7.795858">
        <ele>634.4</ele>
        <time>2023-08-13T08:25:36Z</time>
      </trkpt>
      <trkpt lat="42.867418" lon="-7.796065">
        <ele>637.4</ele>
        <time>2023-08-13T08:25:49Z</time>
      </trkpt>
      <trkpt lat="42.867530" lon="-7.796267">
        <ele>638.3</ele>
        <time>2023-08-13T08:26:01Z</time>
      </trkpt>
      <trkpt lat="42.867640" lon="-7.796472">
        <ele>639.4</ele>
        <time>2023-08-13T08:26:14Z</time>
      </trkpt>
      <trkpt lat="42.867745" lon="-7.796672">
        <ele>641.4</ele>
        <time>2023-08-13T08:26:26Z</time>
      </trkpt>
      <trkpt lat="42.867855" lon="-7.796871">
        <ele>642.4</ele>
        <time>2023-08-13T08:26:39Z</time>
      </trkpt>
      <trkpt lat="42.867976" lon="-7.797072">
        <ele>645.4</ele>
        <time>2023-08-13T08:26:51Z</time>
      </trkpt>
      <trkpt lat="42.868093" lon="-7.797261">
        <ele>646.4</ele>
        <time>2023-08-13T08:27:05Z</time>
      </trkpt>
      <trkpt lat="42.868213" lon="-7.797450">
        <ele>650.4</ele>
        <time>2023-08-13T08:27:18Z</time>
      </trkpt>
      <trkpt lat="42.868294" lon="-7.797678">
        <ele>652.3</ele>
        <time>2023-08-13T08:27:34Z</time>
      </trkpt>
      <trkpt lat="42.868389" lon="-7.797894">
        <ele>652.4</ele>
        <time>2023-08-13T08:27:47Z</time>
      </trkpt>
      <trkpt lat="42.868543" lon="-7.798039">
        <ele>652.4</ele>
        <time>2023-08-13T08:28:02Z</time>
      </trkpt>
      <trkpt lat="42.868678" lon="-7.798214">
        <ele>651.7</ele>
        <time>2023-08-13T08:28:18Z</time>
      </trkpt>
      <trkpt lat="42.868818" lon="-7.798368">
        <ele>649.4</ele>
        <time>2023-08-13T08:28:33Z</time>
      </trkpt>
      <trkpt lat="42.868955" lon="-7.798544">
        <ele>647.4</ele>
        <time>2023-08-13T08:28:50Z</time>
      </trkpt>
      <trkpt lat="42.869089" lon="-7.798717">
        <ele>648.4</ele>
        <time>2023-08-13T08:29:05Z</time>
      </trkpt>
      <trkpt lat="42.869226" lon="-7.798890">
        <ele>649.3</ele>
        <time>2023-08-13T08:29:19Z</time>
      </trkpt>
      <trkpt lat="42.869363" lon="-7.799054">
        <ele>648.4</ele>
        <time>2023-08-13T08:29:34Z</time>
      </trkpt>
      <trkpt lat="42.869500" lon="-7.799221">
        <ele>646.4</ele>
        <time>2023-08-13T08:29:48Z</time>
      </trkpt>
      <trkpt lat="42.869647" lon="-7.799375">
        <ele>644.4</ele>
        <time>2023-08-13T08:30:02Z</time>
      </trkpt>
      <trkpt lat="42.869779" lon="-7.799544">
        <ele>645.1</ele>
        <time>2023-08-13T08:30:15Z</time>
      </trkpt>
      <trkpt lat="42.869898" lon="-7.799733">
        <ele>644.4</ele>
        <time>2023-08-13T08:30:28Z</time>
      </trkpt>
      <trkpt lat="42.870035" lon="-7.799895">
        <ele>646.4</ele>
        <time>2023-08-13T08:30:42Z</time>
      </trkpt>
      <trkpt lat="42.870172" lon="-7.800059">
        <ele>644.4</ele>
        <time>2023-08-13T08:30:56Z</time>
      </trkpt>
      <trkpt lat="42.870307" lon="-7.800230">
        <ele>645.4</ele>
        <time>2023-08-13T08:31:09Z</time>
      </trkpt>
      <trkpt lat="42.870442" lon="-7.800408">
        <ele>642.3</ele>
        <time>2023-08-13T08:31:23Z</time>
      </trkpt>
      <trkpt lat="42.870584" lon="-7.800565">
        <ele>640.4</ele>
        <time>2023-08-13T08:31:37Z</time>
      </trkpt>
      <trkpt lat="42.870718" lon="-7.800733">
        <ele>639.4</ele>
        <time>2023-08-13T08:31:51Z</time>
      </trkpt>
      <trkpt lat="42.870853" lon="-7.800898">
        <ele>641.1</ele>
        <time>2023-08-13T08:32:03Z</time>
      </trkpt>
      <trkpt lat="42.870993" lon="-7.801060">
        <ele>638.7</ele>
        <time>2023-08-13T08:32:17Z</time>
      </trkpt>
      <trkpt lat="42.871098" lon="-7.801275">
        <ele>637.4</ele>
        <time>2023-08-13T08:32:32Z</time>
      </trkpt>
      <trkpt lat="42.871202" lon="-7.801495">
        <ele>637.4</ele>
        <time>2023-08-13T08:32:45Z</time>
      </trkpt>
      <trkpt lat="42.871296" lon="-7.801714">
        <ele>637.3</ele>
        <time>2023-08-13T08:33:00Z</time>
      </trkpt>
      <trkpt lat="42.871382" lon="-7.801931">
        <ele>637.4</ele>
        <time>2023-08-13T08:33:12Z</time>
      </trkpt>
      <trkpt lat="42.871466" lon="-7.802159">
        <ele>634.4</ele>
        <time>2023-08-13T08:33:26Z</time>
      </trkpt>
      <trkpt lat="42.871563" lon="-7.802377">
        <ele>630.4</ele>
        <time>2023-08-13T08:33:38Z</time>
      </trkpt>
      <trkpt lat="42.871638" lon="-7.802606">
        <ele>628.4</ele>
        <time>2023-08-13T08:33:52Z</time>
      </trkpt>
      <trkpt lat="42.871733" lon="-7.802820">
        <ele>626.4</ele>
        <time>2023-08-13T08:34:05Z</time>
      </trkpt>
      <trkpt lat="42.871793" lon="-7.803051">
        <ele>622.4</ele>
        <time>2023-08-13T08:34:19Z</time>
      </trkpt>
      <trkpt lat="42.871877" lon="-7.803274">
        <ele>619.4</ele>
        <time>2023-08-13T08:34:32Z</time>
      </trkpt>
      <trkpt lat="42.871959" lon="-7.803505">
        <ele>616.4</ele>
        <time>2023-08-13T08:34:45Z</time>
      </trkpt>
      <trkpt lat="42.872041" lon="-7.803729">
        <ele>613.4</ele>
        <time>2023-08-13T08:35:00Z</time>
      </trkpt>
      <trkpt lat="42.872176" lon="-7.803902">
        <ele>612.3</ele>
        <time>2023-08-13T08:35:13Z</time>
      </trkpt>
      <trkpt lat="42.872300" lon="-7.804080">
        <ele>610.4</ele>
        <time>2023-08-13T08:35:26Z</time>
      </trkpt>
      <trkpt lat="42.872430" lon="-7.804251">
        <ele>607.4</ele>
        <time>2023-08-13T08:35:41Z</time>
      </trkpt>
      <trkpt lat="42.872568" lon="-7.804411">
        <ele>606.7</ele>
        <time>2023-08-13T08:35:53Z</time>
      </trkpt>
      <trkpt lat="42.872717" lon="-7.804569">
        <ele>604.4</ele>
        <time>2023-08-13T08:36:06Z</time>
      </trkpt>
      <trkpt lat="42.872845" lon="-7.804744">
        <ele>603.4</ele>
        <time>2023-08-13T08:36:20Z</time>
      </trkpt>
      <trkpt lat="42.872996" lon="-7.804896">
        <ele>602.4</ele>
        <time>2023-08-13T08:36:34Z</time>
      </trkpt>
      <trkpt lat="42.873129" lon="-7.805068">
        <ele>599.7</ele>
        <time>2023-08-13T08:36:48Z</time>
      </trkpt>
      <trkpt lat="42.873281" lon="-7.805205">
        <ele>595.4</ele>
        <time>2023-08-13T08:37:01Z</time>
      </trkpt>
      <trkpt lat="42.873423" lon="-7.805377">
        <ele>593.4</ele>
        <time>2023-08-13T08:37:14Z</time>
      </trkpt>
      <trkpt lat="42.873563" lon="-7.805545">
        <ele>590.4</ele>
        <time>2023-08-13T08:37:28Z</time>
      </trkpt>
      <trkpt lat="42.873699" lon="-7.805716">
        <ele>588.4</ele>
        <time>2023-08-13T08:37:42Z</time>
      </trkpt>
      <trkpt lat="42.873786" lon="-7.805937">
        <ele>587.4</ele>
        <time>2023-08-13T08:37:55Z</time>
      </trkpt>
      <trkpt lat="42.873774" lon="-7.806193">
        <ele>587.4</ele>
        <time>2023-08-13T08:38:09Z</time>
      </trkpt>
      <trkpt lat="42.873753" lon="-7.806438">
        <ele>587.7</ele>
        <time>2023-08-13T08:38:23Z</time>
      </trkpt>
      <trkpt lat="42.873721" lon="-7.806681">
        <ele>585.4</ele>
        <time>2023-08-13T08:38:38Z</time>
      </trkpt>
      <trkpt lat="42.873668" lon="-7.806918">
        <ele>585.4</ele>
        <time>2023-08-13T08:38:53Z</time>
      </trkpt>
      <trkpt lat="42.873545" lon="-7.807102">
        <ele>586.4</ele>
        <time>2023-08-13T08:39:06Z</time>
      </trkpt>
      <trkpt lat="42.873484" lon="-7.807339">
        <ele>585.4</ele>
        <time>2023-08-13T08:39:22Z</time>
      </trkpt>
      <trkpt lat="42.873490" lon="-7.807598">
        <ele>583.4</ele>
        <time>2023-08-13T08:40:03Z</time>
      </trkpt>
      <trkpt lat="42.873510" lon="-7.807854">
        <ele>584.3</ele>
        <time>2023-08-13T08:40:15Z</time>
      </trkpt>
      <trkpt lat="42.873584" lon="-7.808078">
        <ele>585.3</ele>
        <time>2023-08-13T08:40:28Z</time>
      </trkpt>
      <trkpt lat="42.873656" lon="-7.808305">
        <ele>583.4</ele>
        <time>2023-08-13T08:40:42Z</time>
      </trkpt>
      <trkpt lat="42.873720" lon="-7.808537">
        <ele>583.6</ele>
        <time>2023-08-13T08:40:57Z</time>
      </trkpt>
      <trkpt lat="42.873716" lon="-7.808787">
        <ele>585.4</ele>
        <time>2023-08-13T08:41:12Z</time>
      </trkpt>
      <trkpt lat="42.873642" lon="-7.809011">
        <ele>586.4</ele>
        <time>2023-08-13T08:41:27Z</time>
      </trkpt>
      <trkpt lat="42.873581" lon="-7.809248">
        <ele>586.5</ele>
        <time>2023-08-13T08:41:40Z</time>
      </trkpt>
      <trkpt lat="42.873499" lon="-7.809475">
        <ele>588.4</ele>
        <time>2023-08-13T08:41:55Z</time>
      </trkpt>
      <trkpt lat="42.873428" lon="-7.809711">
        <ele>587.4</ele>
        <time>2023-08-13T08:42:10Z</time>
      </trkpt>
      <trkpt lat="42.873344" lon="-7.809934">
        <ele>588.3</ele>
        <time>2023-08-13T08:42:25Z</time>
      </trkpt>
      <trkpt lat="42.873255" lon="-7.810148">
        <ele>590.4</ele>
        <time>2023-08-13T08:42:38Z</time>
      </trkpt>
      <trkpt lat="42.873155" lon="-7.810363">
        <ele>591.4</ele>
        <time>2023-08-13T08:42:52Z</time>
      </trkpt>
      <trkpt lat="42.873052" lon="-7.810568">
        <ele>592.4</ele>
        <time>2023-08-13T08:43:06Z</time>
      </trkpt>
      <trkpt lat="42.872912" lon="-7.810736">
        <ele>592.4</ele>
        <time>2023-08-13T08:43:22Z</time>
      </trkpt>
      <trkpt lat="42.872819" lon="-7.810948">
        <ele>593.3</ele>
        <time>2023-08-13T08:43:36Z</time>
      </trkpt>
      <trkpt lat="42.872709" lon="-7.811145">
        <ele>593.4</ele>
        <time>2023-08-13T08:43:50Z</time>
      </trkpt>
      <trkpt lat="42.872578" lon="-7.811317">
        <ele>593.4</ele>
        <time>2023-08-13T08:44:03Z</time>
      </trkpt>
      <trkpt lat="42.872480" lon="-7.811533">
        <ele>594.1</ele>
        <time>2023-08-13T08:44:17Z</time>
      </trkpt>
      <trkpt lat="42.872388" lon="-7.811756">
        <ele>593.4</ele>
        <time>2023-08-13T08:44:31Z</time>
      </trkpt>
      <trkpt lat="42.872329" lon="-7.811988">
        <ele>594.1</ele>
        <time>2023-08-13T08:44:46Z</time>
      </trkpt>
      <trkpt lat="42.872297" lon="-7.812244">
        <ele>596.4</ele>
        <time>2023-08-13T08:45:01Z</time>
      </trkpt>
      <trkpt lat="42.872270" lon="-7.812497">
        <ele>595.4</ele>
        <time>2023-08-13T08:45:15Z</time>
      </trkpt>
      <trkpt lat="42.872253" lon="-7.812751">
        <ele>593.4</ele>
        <time>2023-08-13T08:45:30Z</time>
      </trkpt>
      <trkpt lat="42.872231" lon="-7.812996">
        <ele>593.3</ele>
        <time>2023-08-13T08:45:44Z</time>
      </trkpt>
      <trkpt lat="42.872198" lon="-7.813239">
        <ele>594.4</ele>
        <time>2023-08-13T08:45:58Z</time>
      </trkpt>
      <trkpt lat="42.872163" lon="-7.813484">
        <ele>595.3</ele>
        <time>2023-08-13T08:46:14Z</time>
      </trkpt>
      <trkpt lat="42.872153" lon="-7.813730">
        <ele>596.4</ele>
        <time>2023-08-13T08:46:27Z</time>
      </trkpt>
      <trkpt lat="42.872124" lon="-7.813978">
        <ele>594.4</ele>
        <time>2023-08-13T08:46:47Z</time>
      </trkpt>
      <trkpt lat="42.872170" lon="-7.814221">
        <ele>596.3</ele>
        <time>2023-08-13T08:46:59Z</time>
      </trkpt>
      <trkpt lat="42.872312" lon="-7.814383">
        <ele>596.4</ele>
        <time>2023-08-13T08:47:13Z</time>
      </trkpt>
      <trkpt lat="42.872460" lon="-7.814524">
        <ele>597.4</ele>
        <time>2023-08-13T08:47:25Z</time>
      </trkpt>
      <trkpt lat="42.872613" lon="-7.814675">
        <ele>600.3</ele>
        <time>2023-08-13T08:47:42Z</time>
      </trkpt>
      <trkpt lat="42.872631" lon="-7.814920">
        <ele>602.4</ele>
        <time>2023-08-13T08:47:58Z</time>
      </trkpt>
      <trkpt lat="42.872638" lon="-7.815167">
        <ele>603.1</ele>
        <time>2023-08-13T08:48:15Z</time>
      </trkpt>
      <trkpt lat="42.872794" lon="-7.815303">
        <ele>603.3</ele>
        <time>2023-08-13T08:48:39Z</time>
      </trkpt>
      <trkpt lat="42.872929" lon="-7.815473">
        <ele>605.4</ele>
        <time>2023-08-13T08:48:53Z</time>
      </trkpt>
      <trkpt lat="42.873077" lon="-7.815630">
        <ele>607.4</ele>
        <time>2023-08-13T08:49:06Z</time>
      </trkpt>
      <trkpt lat="42.873182" lon="-7.815835">
        <ele>607.4</ele>
        <time>2023-08-13T08:49:20Z</time>
      </trkpt>
      <trkpt lat="42.873235" lon="-7.816075">
        <ele>610.1</ele>
        <time>2023-08-13T08:49:34Z</time>
      </trkpt>
      <trkpt lat="42.873305" lon="-7.816306">
        <ele>611.4</ele>
        <time>2023-08-13T08:49:51Z</time>
      </trkpt>
      <trkpt lat="42.873306" lon="-7.816553">
        <ele>611.4</ele>
        <time>2023-08-13T08:50:06Z</time>
      </trkpt>
      <trkpt lat="42.873299" lon="-7.816805">
        <ele>612.4</ele>
        <time>2023-08-13T08:50:22Z</time>
      </trkpt>
      <trkpt lat="42.873323" lon="-7.817055">
        <ele>612.4</ele>
        <time>2023-08-13T09:05:19Z</time>
      </trkpt>
      <trkpt lat="42.873430" lon="-7.817269">
        <ele>615.4</ele>
        <time>2023-08-13T09:05:34Z</time>
      </trkpt>
      <trkpt lat="42.873535" lon="-7.817475">
        <ele>614.4</ele>
        <time>2023-08-13T09:05:46Z</time>
      </trkpt>
      <trkpt lat="42.873705" lon="-7.817583">
        <ele>615.3</ele>
        <time>2023-08-13T09:06:00Z</time>
      </trkpt>
      <trkpt lat="42.873872" lon="-7.817685">
        <ele>614.4</ele>
        <time>2023-08-13T09:06:13Z</time>
      </trkpt>
      <trkpt lat="42.874034" lon="-7.817812">
        <ele>617.4</ele>
        <time>2023-08-13T09:06:26Z</time>
      </trkpt>
      <trkpt lat="42.874144" lon="-7.818008">
        <ele>619.7</ele>
        <time>2023-08-13T09:06:40Z</time>
      </trkpt>
      <trkpt lat="42.874139" lon="-7.818258">
        <ele>620.1</ele>
        <time>2023-08-13T09:06:54Z</time>
      </trkpt>
      <trkpt lat="42.874069" lon="-7.818488">
        <ele>623.4</ele>
        <time>2023-08-13T09:07:08Z</time>
      </trkpt>
      <trkpt lat="42.873972" lon="-7.818695">
        <ele>624.4</ele>
        <time>2023-08-13T09:07:22Z</time>
      </trkpt>
      <trkpt lat="42.873897" lon="-7.818928">
        <ele>624.4</ele>
        <time>2023-08-13T09:07:37Z</time>
      </trkpt>
      <trkpt lat="42.873835" lon="-7.819163">
        <ele>626.6</ele>
        <time>2023-08-13T09:07:52Z</time>
      </trkpt>
      <trkpt lat="42.873793" lon="-7.819412">
        <ele>626.6</ele>
        <time>2023-08-13T09:08:05Z</time>
      </trkpt>
      <trkpt lat="42.873745" lon="-7.819650">
        <ele>626.6</ele>
        <time>2023-08-13T09:08:18Z</time>
      </trkpt>
      <trkpt lat="42.873686" lon="-7.819886">
        <ele>626.6</ele>
        <time>2023-08-13T09:08:32Z</time>
      </trkpt>
      <trkpt lat="42.873613" lon="-7.820111">
        <ele>626.6</ele>
        <time>2023-08-13T09:08:47Z</time>
      </trkpt>
      <trkpt lat="42.873522" lon="-7.820336">
        <ele>626.6</ele>
        <time>2023-08-13T09:09:01Z</time>
      </trkpt>
      <trkpt lat="42.873473" lon="-7.820589">
        <ele>626.6</ele>
        <time>2023-08-13T09:09:14Z</time>
      </trkpt>
      <trkpt lat="42.873370" lon="-7.820787">
        <ele>627.4</ele>
        <time>2023-08-13T09:09:28Z</time>
      </trkpt>
      <trkpt lat="42.873267" lon="-7.821010">
        <ele>628.4</ele>
        <time>2023-08-13T09:09:42Z</time>
      </trkpt>
      <trkpt lat="42.873199" lon="-7.821244">
        <ele>636.8</ele>
        <time>2023-08-13T09:09:57Z</time>
      </trkpt>
      <trkpt lat="42.873140" lon="-7.821486">
        <ele>636.8</ele>
        <time>2023-08-13T09:10:13Z</time>
      </trkpt>
      <trkpt lat="42.873110" lon="-7.821730">
        <ele>636.8</ele>
        <time>2023-08-13T09:10:26Z</time>
      </trkpt>
      <trkpt lat="42.873111" lon="-7.821978">
        <ele>636.8</ele>
        <time>2023-08-13T09:10:40Z</time>
      </trkpt>
      <trkpt lat="42.873065" lon="-7.822229">
        <ele>636.8</ele>
        <time>2023-08-13T09:10:56Z</time>
      </trkpt>
      <trkpt lat="42.872980" lon="-7.822448">
        <ele>636.8</ele>
        <time>2023-08-13T09:11:10Z</time>
      </trkpt>
      <trkpt lat="42.872937" lon="-7.822693">
        <ele>635.3</ele>
        <time>2023-08-13T09:11:25Z</time>
      </trkpt>
      <trkpt lat="42.872961" lon="-7.822935">
        <ele>635.3</ele>
        <time>2023-08-13T09:11:39Z</time>
      </trkpt>
      <trkpt lat="42.872956" lon="-7.823181">
        <ele>635.3</ele>
        <time>2023-08-13T09:11:53Z</time>
      </trkpt>
      <trkpt lat="42.873015" lon="-7.823348">
        <ele>636.9</ele>
        <time>2023-08-13T09:12:13Z</time>
      </trkpt>
      <trkpt lat="42.873034" lon="-7.823599">
        <ele>636.9</ele>
        <time>2023-08-13T09:12:40Z</time>
      </trkpt>
      <trkpt lat="42.873045" lon="-7.823845">
        <ele>636.9</ele>
        <time>2023-08-13T09:12:58Z</time>
      </trkpt>
      <trkpt lat="42.872961" lon="-7.824076">
        <ele>632.4</ele>
        <time>2023-08-13T09:13:12Z</time>
      </trkpt>
      <trkpt lat="42.872926" lon="-7.824318">
        <ele>634.4</ele>
        <time>2023-08-13T09:13:25Z</time>
      </trkpt>
      <trkpt lat="42.872887" lon="-7.824559">
        <ele>637.4</ele>
        <time>2023-08-13T09:13:38Z</time>
      </trkpt>
      <trkpt lat="42.872915" lon="-7.824804">
        <ele>636.4</ele>
        <time>2023-08-13T09:13:54Z</time>
      </trkpt>
      <trkpt lat="42.872966" lon="-7.825060">
        <ele>634.4</ele>
        <time>2023-08-13T09:14:13Z</time>
      </trkpt>
      <trkpt lat="42.873017" lon="-7.825301">
        <ele>634.7</ele>
        <time>2023-08-13T09:14:26Z</time>
      </trkpt>
      <trkpt lat="42.873099" lon="-7.825522">
        <ele>633.4</ele>
        <time>2023-08-13T09:14:42Z</time>
      </trkpt>
      <trkpt lat="42.873180" lon="-7.825744">
        <ele>632.3</ele>
        <time>2023-08-13T09:14:57Z</time>
      </trkpt>
      <trkpt lat="42.873255" lon="-7.825979">
        <ele>630.4</ele>
        <time>2023-08-13T09:15:12Z</time>
      </trkpt>
      <trkpt lat="42.873331" lon="-7.826203">
        <ele>632.1</ele>
        <time>2023-08-13T09:15:27Z</time>
      </trkpt>
      <trkpt lat="42.873400" lon="-7.826434">
        <ele>627.7</ele>
        <time>2023-08-13T09:15:46Z</time>
      </trkpt>
      <trkpt lat="42.873539" lon="-7.826600">
        <ele>626.3</ele>
        <time>2023-08-13T09:16:03Z</time>
      </trkpt>
      <trkpt lat="42.873659" lon="-7.826797">
        <ele>624.4</ele>
        <time>2023-08-13T09:16:20Z</time>
      </trkpt>
      <trkpt lat="42.873791" lon="-7.826969">
        <ele>622.4</ele>
        <time>2023-08-13T09:16:36Z</time>
      </trkpt>
      <trkpt lat="42.873895" lon="-7.827176">
        <ele>623.4</ele>
        <time>2023-08-13T09:17:01Z</time>
      </trkpt>
      <trkpt lat="42.873969" lon="-7.827404">
        <ele>619.4</ele>
        <time>2023-08-13T09:17:17Z</time>
      </trkpt>
      <trkpt lat="42.874018" lon="-7.827459">
        <ele>620.1</ele>
        <time>2023-08-13T09:17:37Z</time>
      </trkpt>
      <trkpt lat="42.874070" lon="-7.827514">
        <ele>618.7</ele>
        <time>2023-08-13T09:17:51Z</time>
      </trkpt>
      <trkpt lat="42.874086" lon="-7.827549">
        <ele>619.4</ele>
        <time>2023-08-13T09:19:36Z</time>
      </trkpt>
      <trkpt lat="42.874188" lon="-7.827726">
        <ele>616.4</ele>
        <time>2023-08-13T09:19:55Z</time>
      </trkpt>
      <trkpt lat="42.874261" lon="-7.827965">
        <ele>617.4</ele>
        <time>2023-08-13T09:20:11Z</time>
      </trkpt>
      <trkpt lat="42.874358" lon="-7.828178">
        <ele>618.4</ele>
        <time>2023-08-13T09:20:24Z</time>
      </trkpt>
      <trkpt lat="42.874449" lon="-7.828403">
        <ele>618.4</ele>
        <time>2023-08-13T09:20:39Z</time>
      </trkpt>
      <trkpt lat="42.874547" lon="-7.828621">
        <ele>617.4</ele>
        <time>2023-08-13T09:20:51Z</time>
      </trkpt>
      <trkpt lat="42.874643" lon="-7.828829">
        <ele>616.1</ele>
        <time>2023-08-13T09:21:05Z</time>
      </trkpt>
      <trkpt lat="42.874738" lon="-7.829048">
        <ele>615.3</ele>
        <time>2023-08-13T09:21:18Z</time>
      </trkpt>
      <trkpt lat="42.874886" lon="-7.829191">
        <ele>617.1</ele>
        <time>2023-08-13T09:21:33Z</time>
      </trkpt>
      <trkpt lat="42.875042" lon="-7.829320">
        <ele>616.4</ele>
        <time>2023-08-13T09:21:47Z</time>
      </trkpt>
      <trkpt lat="42.875163" lon="-7.829510">
        <ele>613.7</ele>
        <time>2023-08-13T09:22:02Z</time>
      </trkpt>
      <trkpt lat="42.875244" lon="-7.829736">
        <ele>612.4</ele>
        <time>2023-08-13T09:22:15Z</time>
      </trkpt>
      <trkpt lat="42.875313" lon="-7.829965">
        <ele>613.4</ele>
        <time>2023-08-13T09:22:29Z</time>
      </trkpt>
      <trkpt lat="42.875348" lon="-7.830213">
        <ele>611.4</ele>
        <time>2023-08-13T09:22:43Z</time>
      </trkpt>
      <trkpt lat="42.875417" lon="-7.830442">
        <ele>611.4</ele>
        <time>2023-08-13T09:22:57Z</time>
      </trkpt>
      <trkpt lat="42.875469" lon="-7.830681">
        <ele>611.4</ele>
        <time>2023-08-13T09:23:11Z</time>
      </trkpt>
      <trkpt lat="42.875528" lon="-7.830916">
        <ele>612.4</ele>
        <time>2023-08-13T09:23:25Z</time>
      </trkpt>
      <trkpt lat="42.875589" lon="-7.831160">
        <ele>613.4</ele>
        <time>2023-08-13T09:23:39Z</time>
      </trkpt>
      <trkpt lat="42.875633" lon="-7.831410">
        <ele>614.4</ele>
        <time>2023-08-13T09:23:53Z</time>
      </trkpt>
      <trkpt lat="42.875671" lon="-7.831654">
        <ele>615.4</ele>
        <time>2023-08-13T09:24:06Z</time>
      </trkpt>
      <trkpt lat="42.875721" lon="-7.831893">
        <ele>614.7</ele>
        <time>2023-08-13T09:24:19Z</time>
      </trkpt>
      <trkpt lat="42.875745" lon="-7.832147">
        <ele>615.4</ele>
        <time>2023-08-13T09:24:34Z</time>
      </trkpt>
      <trkpt lat="42.875798" lon="-7.832384">
        <ele>615.4</ele>
        <time>2023-08-13T09:24:47Z</time>
      </trkpt>
      <trkpt lat="42.875840" lon="-7.832626">
        <ele>614.7</ele>
        <time>2023-08-13T09:25:00Z</time>
      </trkpt>
      <trkpt lat="42.875899" lon="-7.832868">
        <ele>615.3</ele>
        <time>2023-08-13T09:25:14Z</time>
      </trkpt>
      <trkpt lat="42.875889" lon="-7.833115">
        <ele>616.3</ele>
        <time>2023-08-13T09:25:28Z</time>
      </trkpt>
      <trkpt lat="42.875913" lon="-7.833363">
        <ele>616.4</ele>
        <time>2023-08-13T09:25:42Z</time>
      </trkpt>
      <trkpt lat="42.875943" lon="-7.833611">
        <ele>617.3</ele>
        <time>2023-08-13T09:25:55Z</time>
      </trkpt>
      <trkpt lat="42.875944" lon="-7.833857">
        <ele>618.4</ele>
        <time>2023-08-13T09:26:06Z</time>
      </trkpt>
      <trkpt lat="42.875969" lon="-7.834109">
        <ele>618.1</ele>
        <time>2023-08-13T09:26:20Z</time>
      </trkpt>
      <trkpt lat="42.875987" lon="-7.834365">
        <ele>617.3</ele>
        <time>2023-08-13T09:26:34Z</time>
      </trkpt>
      <trkpt lat="42.875981" lon="-7.834617">
        <ele>618.4</ele>
        <time>2023-08-13T09:26:46Z</time>
      </trkpt>
      <trkpt lat="42.875968" lon="-7.834865">
        <ele>620.1</ele>
        <time>2023-08-13T09:26:59Z</time>
      </trkpt>
      <trkpt lat="42.875954" lon="-7.835118">
        <ele>619.4</ele>
        <time>2023-08-13T09:27:12Z</time>
      </trkpt>
      <trkpt lat="42.875939" lon="-7.835365">
        <ele>622.1</ele>
        <time>2023-08-13T09:27:25Z</time>
      </trkpt>
      <trkpt lat="42.875920" lon="-7.835609">
        <ele>622.1</ele>
        <time>2023-08-13T09:27:40Z</time>
      </trkpt>
      <trkpt lat="42.875870" lon="-7.835849">
        <ele>622.1</ele>
        <time>2023-08-13T09:27:52Z</time>
      </trkpt>
      <trkpt lat="42.875794" lon="-7.836074">
        <ele>622.1</ele>
        <time>2023-08-13T09:28:07Z</time>
      </trkpt>
      <trkpt lat="42.875802" lon="-7.836323">
        <ele>622.1</ele>
        <time>2023-08-13T09:28:21Z</time>
      </trkpt>
      <trkpt lat="42.875789" lon="-7.836571">
        <ele>622.1</ele>
        <time>2023-08-13T09:28:35Z</time>
      </trkpt>
      <trkpt lat="42.875765" lon="-7.836816">
        <ele>622.1</ele>
        <time>2023-08-13T09:28:50Z</time>
      </trkpt>
      <trkpt lat="42.875717" lon="-7.837057">
        <ele>622.1</ele>
        <time>2023-08-13T09:29:05Z</time>
      </trkpt>
      <trkpt lat="42.875667" lon="-7.837297">
        <ele>622.1</ele>
        <time>2023-08-13T09:29:19Z</time>
      </trkpt>
      <trkpt lat="42.875587" lon="-7.837523">
        <ele>622.1</ele>
        <time>2023-08-13T09:29:38Z</time>
      </trkpt>
      <trkpt lat="42.875487" lon="-7.837739">
        <ele>622.1</ele>
        <time>2023-08-13T09:29:52Z</time>
      </trkpt>
      <trkpt lat="42.875363" lon="-7.837927">
        <ele>616.5</ele>
        <time>2023-08-13T09:30:04Z</time>
      </trkpt>
      <trkpt lat="42.875263" lon="-7.838138">
        <ele>616.4</ele>
        <time>2023-08-13T09:30:19Z</time>
      </trkpt>
      <trkpt lat="42.875166" lon="-7.838347">
        <ele>619.2</ele>
        <time>2023-08-13T09:30:34Z</time>
      </trkpt>
      <trkpt lat="42.875060" lon="-7.838559">
        <ele>620.4</ele>
        <time>2023-08-13T09:30:45Z</time>
      </trkpt>
      <trkpt lat="42.874950" lon="-7.838760">
        <ele>619.4</ele>
        <time>2023-08-13T09:30:58Z</time>
      </trkpt>
      <trkpt lat="42.874872" lon="-7.838988">
        <ele>618.4</ele>
        <time>2023-08-13T09:31:10Z</time>
      </trkpt>
      <trkpt lat="42.874745" lon="-7.839167">
        <ele>620.4</ele>
        <time>2023-08-13T09:31:27Z</time>
      </trkpt>
      <trkpt lat="42.874611" lon="-7.839344">
        <ele>622.1</ele>
        <time>2023-08-13T09:31:40Z</time>
      </trkpt>
      <trkpt lat="42.874521" lon="-7.839563">
        <ele>624.4</ele>
        <time>2023-08-13T09:31:53Z</time>
      </trkpt>
      <trkpt lat="42.874445" lon="-7.839792">
        <ele>626.3</ele>
        <time>2023-08-13T09:32:08Z</time>
      </trkpt>
      <trkpt lat="42.874466" lon="-7.840045">
        <ele>627.1</ele>
        <time>2023-08-13T09:32:51Z</time>
      </trkpt>
      <trkpt lat="42.874448" lon="-7.840301">
        <ele>626.1</ele>
        <time>2023-08-13T09:33:50Z</time>
      </trkpt>
      <trkpt lat="42.874434" lon="-7.840553">
        <ele>622.4</ele>
        <time>2023-08-13T09:34:07Z</time>
      </trkpt>
      <trkpt lat="42.874432" lon="-7.840810">
        <ele>621.4</ele>
        <time>2023-08-13T09:34:19Z</time>
      </trkpt>
      <trkpt lat="42.874417" lon="-7.841050">
        <ele>621.4</ele>
        <time>2023-08-13T09:34:33Z</time>
      </trkpt>
      <trkpt lat="42.874391" lon="-7.841291">
        <ele>621.5</ele>
        <time>2023-08-13T09:34:47Z</time>
      </trkpt>
      <trkpt lat="42.874361" lon="-7.841546">
        <ele>621.4</ele>
        <time>2023-08-13T09:34:59Z</time>
      </trkpt>
      <trkpt lat="42.874322" lon="-7.841788">
        <ele>623.4</ele>
        <time>2023-08-13T09:35:13Z</time>
      </trkpt>
      <trkpt lat="42.874298" lon="-7.842034">
        <ele>624.4</ele>
        <time>2023-08-13T09:35:37Z</time>
      </trkpt>
      <trkpt lat="42.874321" lon="-7.842290">
        <ele>624.3</ele>
        <time>2023-08-13T09:36:08Z</time>
      </trkpt>
      <trkpt lat="42.874298" lon="-7.842554">
        <ele>621.5</ele>
        <time>2023-08-13T09:36:22Z</time>
      </trkpt>
      <trkpt lat="42.874335" lon="-7.842778">
        <ele>621.4</ele>
        <time>2023-08-13T09:36:37Z</time>
      </trkpt>
      <trkpt lat="42.874342" lon="-7.843024">
        <ele>618.4</ele>
        <time>2023-08-13T09:36:51Z</time>
      </trkpt>
      <trkpt lat="42.874344" lon="-7.843271">
        <ele>617.4</ele>
        <time>2023-08-13T09:37:06Z</time>
      </trkpt>
      <trkpt lat="42.874344" lon="-7.843519">
        <ele>617.1</ele>
        <time>2023-08-13T09:37:21Z</time>
      </trkpt>
      <trkpt lat="42.874348" lon="-7.843765">
        <ele>619.4</ele>
        <time>2023-08-13T09:37:33Z</time>
      </trkpt>
      <trkpt lat="42.874372" lon="-7.844017">
        <ele>619.4</ele>
        <time>2023-08-13T09:37:48Z</time>
      </trkpt>
      <trkpt lat="42.874346" lon="-7.844267">
        <ele>621.4</ele>
        <time>2023-08-13T09:38:02Z</time>
      </trkpt>
      <trkpt lat="42.874339" lon="-7.844525">
        <ele>622.4</ele>
        <time>2023-08-13T09:38:15Z</time>
      </trkpt>
      <trkpt lat="42.874327" lon="-7.844779">
        <ele>623.4</ele>
        <time>2023-08-13T09:38:27Z</time>
      </trkpt>
      <trkpt lat="42.874323" lon="-7.845029">
        <ele>626.3</ele>
        <time>2023-08-13T09:38:40Z</time>
      </trkpt>
      <trkpt lat="42.874312" lon="-7.845278">
        <ele>625.4</ele>
        <time>2023-08-13T09:38:54Z</time>
      </trkpt>
      <trkpt lat="42.874337" lon="-7.845532">
        <ele>628.4</ele>
        <time>2023-08-13T09:39:08Z</time>
      </trkpt>
      <trkpt lat="42.874275" lon="-7.845765">
        <ele>629.3</ele>
        <time>2023-08-13T09:39:23Z</time>
      </trkpt>
      <trkpt lat="42.874280" lon="-7.846011">
        <ele>627.5</ele>
        <time>2023-08-13T09:39:35Z</time>
      </trkpt>
      <trkpt lat="42.874305" lon="-7.846258">
        <ele>627.4</ele>
        <time>2023-08-13T09:39:50Z</time>
      </trkpt>
      <trkpt lat="42.874296" lon="-7.846506">
        <ele>622.4</ele>
        <time>2023-08-13T09:40:03Z</time>
      </trkpt>
      <trkpt lat="42.874268" lon="-7.846753">
        <ele>624.4</ele>
        <time>2023-08-13T09:40:16Z</time>
      </trkpt>
      <trkpt lat="42.874268" lon="-7.847001">
        <ele>627.4</ele>
        <time>2023-08-13T09:40:29Z</time>
      </trkpt>
      <trkpt lat="42.874275" lon="-7.847251">
        <ele>633.4</ele>
        <time>2023-08-13T09:40:41Z</time>
      </trkpt>
      <trkpt lat="42.874275" lon="-7.847505">
        <ele>634.4</ele>
        <time>2023-08-13T09:40:55Z</time>
      </trkpt>
      <trkpt lat="42.874278" lon="-7.847758">
        <ele>634.4</ele>
        <time>2023-08-13T09:41:11Z</time>
      </trkpt>
      <trkpt lat="42.874282" lon="-7.848008">
        <ele>634.4</ele>
        <time>2023-08-13T09:41:25Z</time>
      </trkpt>
      <trkpt lat="42.874261" lon="-7.848260">
        <ele>630.4</ele>
        <time>2023-08-13T09:41:42Z</time>
      </trkpt>
      <trkpt lat="42.874242" lon="-7.848506">
        <ele>629.4</ele>
        <time>2023-08-13T09:41:55Z</time>
      </trkpt>
      <trkpt lat="42.874256" lon="-7.848756">
        <ele>628.4</ele>
        <time>2023-08-13T09:42:08Z</time>
      </trkpt>
      <trkpt lat="42.874294" lon="-7.849005">
        <ele>627.6</ele>
        <time>2023-08-13T09:42:21Z</time>
      </trkpt>
      <trkpt lat="42.874324" lon="-7.849257">
        <ele>625.4</ele>
        <time>2023-08-13T09:42:35Z</time>
      </trkpt>
      <trkpt lat="42.874377" lon="-7.849499">
        <ele>626.4</ele>
        <time>2023-08-13T09:42:49Z</time>
      </trkpt>
      <trkpt lat="42.874465" lon="-7.849717">
        <ele>628.3</ele>
        <time>2023-08-13T09:43:02Z</time>
      </trkpt>
      <trkpt lat="42.874568" lon="-7.849934">
        <ele>628.4</ele>
        <time>2023-08-13T09:43:15Z</time>
      </trkpt>
      <trkpt lat="42.874638" lon="-7.850162">
        <ele>628.4</ele>
        <time>2023-08-13T09:43:29Z</time>
      </trkpt>
      <trkpt lat="42.874694" lon="-7.850400">
        <ele>627.4</ele>
        <time>2023-08-13T09:43:44Z</time>
      </trkpt>
      <trkpt lat="42.874779" lon="-7.850631">
        <ele>626.4</ele>
        <time>2023-08-13T09:43:58Z</time>
      </trkpt>
      <trkpt lat="42.874856" lon="-7.850864">
        <ele>627.3</ele>
        <time>2023-08-13T09:44:10Z</time>
      </trkpt>
      <trkpt lat="42.874867" lon="-7.851112">
        <ele>629.3</ele>
        <time>2023-08-13T09:44:24Z</time>
      </trkpt>
      <trkpt lat="42.874829" lon="-7.851355">
        <ele>629.3</ele>
        <time>2023-08-13T09:44:38Z</time>
      </trkpt>
      <trkpt lat="42.874784" lon="-7.851601">
        <ele>628.7</ele>
        <time>2023-08-13T09:44:52Z</time>
      </trkpt>
      <trkpt lat="42.874703" lon="-7.851827">
        <ele>628.7</ele>
        <time>2023-08-13T09:45:07Z</time>
      </trkpt>
      <trkpt lat="42.874563" lon="-7.852000">
        <ele>628.7</ele>
        <time>2023-08-13T09:45:37Z</time>
      </trkpt>
      <trkpt lat="42.874515" lon="-7.852241">
        <ele>628.7</ele>
        <time>2023-08-13T09:45:51Z</time>
      </trkpt>
      <trkpt lat="42.874394" lon="-7.852431">
        <ele>628.7</ele>
        <time>2023-08-13T09:46:05Z</time>
      </trkpt>
      <trkpt lat="42.874367" lon="-7.852680">
        <ele>618.4</ele>
        <time>2023-08-13T09:46:20Z</time>
      </trkpt>
      <trkpt lat="42.874273" lon="-7.852890">
        <ele>618.4</ele>
        <time>2023-08-13T09:46:34Z</time>
      </trkpt>
      <trkpt lat="42.874227" lon="-7.853129">
        <ele>613.7</ele>
        <time>2023-08-13T09:46:47Z</time>
      </trkpt>
      <trkpt lat="42.874228" lon="-7.853376">
        <ele>614.4</ele>
        <time>2023-08-13T09:46:59Z</time>
      </trkpt>
      <trkpt lat="42.874229" lon="-7.853623">
        <ele>613.4</ele>
        <time>2023-08-13T09:47:12Z</time>
      </trkpt>
      <trkpt lat="42.874228" lon="-7.853872">
        <ele>612.7</ele>
        <time>2023-08-13T09:47:31Z</time>
      </trkpt>
      <trkpt lat="42.874219" lon="-7.854127">
        <ele>612.4</ele>
        <time>2023-08-13T09:47:44Z</time>
      </trkpt>
      <trkpt lat="42.874158" lon="-7.854363">
        <ele>609.4</ele>
        <time>2023-08-13T09:47:58Z</time>
      </trkpt>
      <trkpt lat="42.874081" lon="-7.854585">
        <ele>609.3</ele>
        <time>2023-08-13T09:48:08Z</time>
      </trkpt>
      <trkpt lat="42.874014" lon="-7.854820">
        <ele>613.4</ele>
        <time>2023-08-13T09:48:18Z</time>
      </trkpt>
      <trkpt lat="42.873975" lon="-7.855061">
        <ele>616.4</ele>
        <time>2023-08-13T09:48:30Z</time>
      </trkpt>
      <trkpt lat="42.873969" lon="-7.855311">
        <ele>618.4</ele>
        <time>2023-08-13T09:48:43Z</time>
      </trkpt>
      <trkpt lat="42.873967" lon="-7.855560">
        <ele>615.5</ele>
        <time>2023-08-13T09:48:58Z</time>
      </trkpt>
      <trkpt lat="42.873967" lon="-7.855817">
        <ele>616.4</ele>
        <time>2023-08-13T09:49:11Z</time>
      </trkpt>
      <trkpt lat="42.873940" lon="-7.856067">
        <ele>614.4</ele>
        <time>2023-08-13T09:49:24Z</time>
      </trkpt>
      <trkpt lat="42.873929" lon="-7.856321">
        <ele>614.4</ele>
        <time>2023-08-13T09:49:39Z</time>
      </trkpt>
      <trkpt lat="42.873910" lon="-7.856574">
        <ele>610.4</ele>
        <time>2023-08-13T09:49:53Z</time>
      </trkpt>
      <trkpt lat="42.873853" lon="-7.856817">
        <ele>610.4</ele>
        <time>2023-08-13T09:50:06Z</time>
      </trkpt>
      <trkpt lat="42.873822" lon="-7.857067">
        <ele>609.3</ele>
        <time>2023-08-13T09:50:20Z</time>
      </trkpt>
      <trkpt lat="42.873875" lon="-7.857321">
        <ele>612.7</ele>
        <time>2023-08-13T09:50:35Z</time>
      </trkpt>
      <trkpt lat="42.873904" lon="-7.857571">
        <ele>612.6</ele>
        <time>2023-08-13T09:51:00Z</time>
      </trkpt>
      <trkpt lat="42.873872" lon="-7.857825">
        <ele>604.4</ele>
        <time>2023-08-13T09:53:48Z</time>
      </trkpt>
      <trkpt lat="42.873814" lon="-7.858061">
        <ele>600.7</ele>
        <time>2023-08-13T09:54:04Z</time>
      </trkpt>
      <trkpt lat="42.873798" lon="-7.858309">
        <ele>601.4</ele>
        <time>2023-08-13T09:54:20Z</time>
      </trkpt>
      <trkpt lat="42.873764" lon="-7.858556">
        <ele>606.0</ele>
        <time>2023-08-13T09:54:32Z</time>
      </trkpt>
      <trkpt lat="42.873728" lon="-7.858801">
        <ele>606.9</ele>
        <time>2023-08-13T09:54:47Z</time>
      </trkpt>
      <trkpt lat="42.873709" lon="-7.859047">
        <ele>606.9</ele>
        <time>2023-08-13T09:55:00Z</time>
      </trkpt>
      <trkpt lat="42.873715" lon="-7.859292">
        <ele>606.9</ele>
        <time>2023-08-13T09:55:13Z</time>
      </trkpt>
      <trkpt lat="42.873680" lon="-7.859548">
        <ele>606.9</ele>
        <time>2023-08-13T09:55:27Z</time>
      </trkpt>
      <trkpt lat="42.873647" lon="-7.859796">
        <ele>606.9</ele>
        <time>2023-08-13T09:55:41Z</time>
      </trkpt>
      <trkpt lat="42.873625" lon="-7.860072">
        <ele>606.9</ele>
        <time>2023-08-13T09:55:56Z</time>
      </trkpt>
      <trkpt lat="42.873607" lon="-7.860310">
        <ele>606.9</ele>
        <time>2023-08-13T09:56:10Z</time>
      </trkpt>
      <trkpt lat="42.873595" lon="-7.860534">
        <ele>606.9</ele>
        <time>2023-08-13T09:56:22Z</time>
      </trkpt>
      <trkpt lat="42.873553" lon="-7.860769">
        <ele>606.9</ele>
        <time>2023-08-13T09:56:34Z</time>
      </trkpt>
      <trkpt lat="42.873556" lon="-7.861023">
        <ele>594.7</ele>
        <time>2023-08-13T09:56:48Z</time>
      </trkpt>
      <trkpt lat="42.873562" lon="-7.861269">
        <ele>592.5</ele>
        <time>2023-08-13T09:57:01Z</time>
      </trkpt>
      <trkpt lat="42.873527" lon="-7.861513">
        <ele>594.1</ele>
        <time>2023-08-13T09:57:15Z</time>
      </trkpt>
      <trkpt lat="42.873467" lon="-7.861751">
        <ele>594.4</ele>
        <time>2023-08-13T09:57:29Z</time>
      </trkpt>
      <trkpt lat="42.873408" lon="-7.861987">
        <ele>596.4</ele>
        <time>2023-08-13T09:57:43Z</time>
      </trkpt>
      <trkpt lat="42.873347" lon="-7.862226">
        <ele>595.4</ele>
        <time>2023-08-13T09:57:58Z</time>
      </trkpt>
      <trkpt lat="42.873326" lon="-7.862471">
        <ele>591.4</ele>
        <time>2023-08-13T09:58:12Z</time>
      </trkpt>
      <trkpt lat="42.873293" lon="-7.862712">
        <ele>589.3</ele>
        <time>2023-08-13T09:58:26Z</time>
      </trkpt>
      <trkpt lat="42.873293" lon="-7.862958">
        <ele>588.4</ele>
        <time>2023-08-13T09:58:44Z</time>
      </trkpt>
      <trkpt lat="42.873355" lon="-7.863195">
        <ele>586.4</ele>
        <time>2023-08-13T09:58:59Z</time>
      </trkpt>
      <trkpt lat="42.873446" lon="-7.863409">
        <ele>583.4</ele>
        <time>2023-08-13T09:59:12Z</time>
      </trkpt>
      <trkpt lat="42.873445" lon="-7.863662">
        <ele>582.1</ele>
        <time>2023-08-13T09:59:28Z</time>
      </trkpt>
      <trkpt lat="42.873363" lon="-7.863891">
        <ele>584.4</ele>
        <time>2023-08-13T09:59:39Z</time>
      </trkpt>
      <trkpt lat="42.873307" lon="-7.864130">
        <ele>584.4</ele>
        <time>2023-08-13T09:59:55Z</time>
      </trkpt>
      <trkpt lat="42.873219" lon="-7.864346">
        <ele>579.4</ele>
        <time>2023-08-13T10:00:09Z</time>
      </trkpt>
      <trkpt lat="42.873130" lon="-7.864571">
        <ele>580.1</ele>
        <time>2023-08-13T10:00:44Z</time>
      </trkpt>
      <trkpt lat="42.873031" lon="-7.864782">
        <ele>580.4</ele>
        <time>2023-08-13T10:00:56Z</time>
      </trkpt>
      <trkpt lat="42.872926" lon="-7.864984">
        <ele>579.5</ele>
        <time>2023-08-13T10:01:08Z</time>
      </trkpt>
      <trkpt lat="42.872848" lon="-7.865207">
        <ele>578.4</ele>
        <time>2023-08-13T10:01:27Z</time>
      </trkpt>
      <trkpt lat="42.872796" lon="-7.865442">
        <ele>575.3</ele>
        <time>2023-08-13T10:01:45Z</time>
      </trkpt>
      <trkpt lat="42.872773" lon="-7.865692">
        <ele>578.4</ele>
        <time>2023-08-13T10:01:57Z</time>
      </trkpt>
      <trkpt lat="42.872760" lon="-7.865941">
        <ele>574.4</ele>
        <time>2023-08-13T10:02:13Z</time>
      </trkpt>
      <trkpt lat="42.872727" lon="-7.866189">
        <ele>571.5</ele>
        <time>2023-08-13T10:02:28Z</time>
      </trkpt>
      <trkpt lat="42.872767" lon="-7.866430">
        <ele>572.0</ele>
        <time>2023-08-13T10:03:02Z</time>
      </trkpt>
      <trkpt lat="42.872896" lon="-7.866614">
        <ele>572.0</ele>
        <time>2023-08-13T10:03:14Z</time>
      </trkpt>
      <trkpt lat="42.872869" lon="-7.866860">
        <ele>572.0</ele>
        <time>2023-08-13T10:03:27Z</time>
      </trkpt>
      <trkpt lat="42.872792" lon="-7.867098">
        <ele>572.0</ele>
        <time>2023-08-13T10:03:43Z</time>
      </trkpt>
      <trkpt lat="42.872727" lon="-7.867338">
        <ele>571.4</ele>
        <time>2023-08-13T10:03:56Z</time>
      </trkpt>
      <trkpt lat="42.872741" lon="-7.867526">
        <ele>571.0</ele>
        <time>2023-08-13T10:04:10Z</time>
      </trkpt>
      <trkpt lat="42.872618" lon="-7.867810">
        <ele>568.6</ele>
        <time>2023-08-13T10:04:53Z</time>
      </trkpt>
      <trkpt lat="42.872527" lon="-7.868045">
        <ele>568.6</ele>
        <time>2023-08-13T10:05:11Z</time>
      </trkpt>
      <trkpt lat="42.872407" lon="-7.868050">
        <ele>564.4</ele>
        <time>2023-08-13T10:07:47Z</time>
      </trkpt>
      <trkpt lat="42.872434" lon="-7.868159">
        <ele>561.4</ele>
        <time>2023-08-13T10:08:33Z</time>
      </trkpt>
      <trkpt lat="42.872532" lon="-7.868153">
        <ele>559.5</ele>
        <time>2023-08-13T10:08:53Z</time>
      </trkpt>
      <trkpt lat="42.872747" lon="-7.868347">
        <ele>558.9</ele>
        <time>2023-08-13T10:09:08Z</time>
      </trkpt>
      <trkpt lat="42.873031" lon="-7.868332">
        <ele>559.5</ele>
        <time>2023-08-13T10:09:28Z</time>
      </trkpt>
      <trkpt lat="42.873072" lon="-7.868600">
        <ele>557.9</ele>
        <time>2023-08-13T10:09:40Z</time>
      </trkpt>
      <trkpt lat="42.873153" lon="-7.868826">
        <ele>558.7</ele>
        <time>2023-08-13T10:09:53Z</time>
      </trkpt>
      <trkpt lat="42.873255" lon="-7.869038">
        <ele>559.3</ele>
        <time>2023-08-13T10:10:08Z</time>
      </trkpt>
      <trkpt lat="42.873296" lon="-7.869291">
        <ele>554.2</ele>
        <time>2023-08-13T10:10:44Z</time>
      </trkpt>
      <trkpt lat="42.873264" lon="-7.869533">
        <ele>551.3</ele>
        <time>2023-08-13T10:11:21Z</time>
      </trkpt>
      <trkpt lat="42.873239" lon="-7.869785">
        <ele>551.3</ele>
        <time>2023-08-13T10:11:35Z</time>
      </trkpt>
      <trkpt lat="42.873286" lon="-7.870029">
        <ele>550.4</ele>
        <time>2023-08-13T10:11:50Z</time>
      </trkpt>
      <trkpt lat="42.873317" lon="-7.870133">
        <ele>546.0</ele>
        <time>2023-08-13T10:12:06Z</time>
      </trkpt>
      <trkpt lat="42.873319" lon="-7.870147">
        <ele>554.3</ele>
        <time>2023-08-14T04:03:16Z</time>
      </trkpt>
      <trkpt lat="42.873326" lon="-7.870172">
        <ele>552.0</ele>
        <time>2023-08-14T04:03:26Z</time>
      </trkpt>
      <trkpt lat="42.873338" lon="-7.870204">
        <ele>551.1</ele>
        <time>2023-08-14T04:03:44Z</time>
      </trkpt>
      <trkpt lat="42.873348" lon="-7.870251">
        <ele>546.5</ele>
        <time>2023-08-14T04:03:58Z</time>
      </trkpt>
      <trkpt lat="42.873499" lon="-7.870389">
        <ele>546.0</ele>
        <time>2023-08-14T04:04:13Z</time>
      </trkpt>
      <trkpt lat="42.873451" lon="-7.870587">
        <ele>545.9</ele>
        <time>2023-08-14T04:04:28Z</time>
      </trkpt>
      <trkpt lat="42.873442" lon="-7.870860">
        <ele>544.4</ele>
        <time>2023-08-14T04:04:45Z</time>
      </trkpt>
      <trkpt lat="42.873371" lon="-7.871096">
        <ele>543.6</ele>
        <time>2023-08-14T04:04:58Z</time>
      </trkpt>
      <trkpt lat="42.873342" lon="-7.871375">
        <ele>543.1</ele>
        <time>2023-08-14T04:05:11Z</time>
      </trkpt>
      <trkpt lat="42.873359" lon="-7.871608">
        <ele>543.1</ele>
        <time>2023-08-14T04:05:25Z</time>
      </trkpt>
      <trkpt lat="42.873336" lon="-7.871864">
        <ele>543.1</ele>
        <time>2023-08-14T04:05:35Z</time>
      </trkpt>
      <trkpt lat="42.873322" lon="-7.872113">
        <ele>543.1</ele>
        <time>2023-08-14T04:05:46Z</time>
      </trkpt>
      <trkpt lat="42.873353" lon="-7.872361">
        <ele>539.7</ele>
        <time>2023-08-14T04:06:02Z</time>
      </trkpt>
      <trkpt lat="42.873451" lon="-7.872570">
        <ele>539.7</ele>
        <time>2023-08-14T04:06:18Z</time>
      </trkpt>
      <trkpt lat="42.873621" lon="-7.872667">
        <ele>539.7</ele>
        <time>2023-08-14T04:06:30Z</time>
      </trkpt>
      <trkpt lat="42.873798" lon="-7.872752">
        <ele>539.7</ele>
        <time>2023-08-14T04:06:46Z</time>
      </trkpt>
      <trkpt lat="42.873969" lon="-7.872833">
        <ele>531.4</ele>
        <time>2023-08-14T04:06:59Z</time>
      </trkpt>
      <trkpt lat="42.874218" lon="-7.873064">
        <ele>538.5</ele>
        <time>2023-08-14T04:07:14Z</time>
      </trkpt>
      <trkpt lat="42.874187" lon="-7.873184">
        <ele>536.8</ele>
        <time>2023-08-14T04:07:27Z</time>
      </trkpt>
      <trkpt lat="42.874182" lon="-7.873433">
        <ele>531.9</ele>
        <time>2023-08-14T04:07:41Z</time>
      </trkpt>
      <trkpt lat="42.874192" lon="-7.873678">
        <ele>525.4</ele>
        <time>2023-08-14T04:07:54Z</time>
      </trkpt>
      <trkpt lat="42.874208" lon="-7.873927">
        <ele>532.4</ele>
        <time>2023-08-14T04:08:07Z</time>
      </trkpt>
      <trkpt lat="42.874229" lon="-7.874172">
        <ele>531.9</ele>
        <time>2023-08-14T04:08:21Z</time>
      </trkpt>
      <trkpt lat="42.874263" lon="-7.874416">
        <ele>531.9</ele>
        <time>2023-08-14T04:08:34Z</time>
      </trkpt>
      <trkpt lat="42.874226" lon="-7.874661">
        <ele>531.9</ele>
        <time>2023-08-14T04:08:49Z</time>
      </trkpt>
      <trkpt lat="42.874149" lon="-7.874888">
        <ele>531.9</ele>
        <time>2023-08-14T04:09:06Z</time>
      </trkpt>
      <trkpt lat="42.874003" lon="-7.875039">
        <ele>523.4</ele>
        <time>2023-08-14T04:09:19Z</time>
      </trkpt>
      <trkpt lat="42.873849" lon="-7.875193">
        <ele>523.6</ele>
        <time>2023-08-14T04:09:32Z</time>
      </trkpt>
      <trkpt lat="42.873781" lon="-7.875421">
        <ele>523.7</ele>
        <time>2023-08-14T04:09:45Z</time>
      </trkpt>
      <trkpt lat="42.873697" lon="-7.875648">
        <ele>523.7</ele>
        <time>2023-08-14T04:09:58Z</time>
      </trkpt>
      <trkpt lat="42.873438" lon="-7.875669">
        <ele>526.6</ele>
        <time>2023-08-14T04:10:12Z</time>
      </trkpt>
      <trkpt lat="42.873408" lon="-7.875859">
        <ele>523.7</ele>
        <time>2023-08-14T04:10:28Z</time>
      </trkpt>
      <trkpt lat="42.873370" lon="-7.876106">
        <ele>523.7</ele>
        <time>2023-08-14T04:10:40Z</time>
      </trkpt>
      <trkpt lat="42.873324" lon="-7.876347">
        <ele>523.7</ele>
        <time>2023-08-14T04:10:53Z</time>
      </trkpt>
      <trkpt lat="42.873267" lon="-7.876588">
        <ele>523.7</ele>
        <time>2023-08-14T04:11:07Z</time>
      </trkpt>
      <trkpt lat="42.873182" lon="-7.876804">
        <ele>522.8</ele>
        <time>2023-08-14T04:11:46Z</time>
      </trkpt>
      <trkpt lat="42.873160" lon="-7.877059">
        <ele>523.7</ele>
        <time>2023-08-14T04:12:00Z</time>
      </trkpt>
      <trkpt lat="42.873130" lon="-7.877314">
        <ele>523.7</ele>
        <time>2023-08-14T04:12:16Z</time>
      </trkpt>
      <trkpt lat="42.873057" lon="-7.877539">
        <ele>523.7</ele>
        <time>2023-08-14T04:12:29Z</time>
      </trkpt>
      <trkpt lat="42.873048" lon="-7.877791">
        <ele>523.7</ele>
        <time>2023-08-14T04:12:44Z</time>
      </trkpt>
      <trkpt lat="42.872984" lon="-7.878021">
        <ele>520.7</ele>
        <time>2023-08-14T04:12:57Z</time>
      </trkpt>
      <trkpt lat="42.872918" lon="-7.878258">
        <ele>519.8</ele>
        <time>2023-08-14T04:13:12Z</time>
      </trkpt>
      <trkpt lat="42.872862" lon="-7.878495">
        <ele>520.7</ele>
        <time>2023-08-14T04:13:26Z</time>
      </trkpt>
      <trkpt lat="42.872803" lon="-7.878733">
        <ele>520.7</ele>
        <time>2023-08-14T04:13:41Z</time>
      </trkpt>
      <trkpt lat="42.872732" lon="-7.878969">
        <ele>520.7</ele>
        <time>2023-08-14T04:13:56Z</time>
      </trkpt>
      <trkpt lat="42.872732" lon="-7.879228">
        <ele>520.7</ele>
        <time>2023-08-14T04:14:09Z</time>
      </trkpt>
      <trkpt lat="42.872725" lon="-7.879475">
        <ele>520.7</ele>
        <time>2023-08-14T04:14:23Z</time>
      </trkpt>
      <trkpt lat="42.872700" lon="-7.879739">
        <ele>511.7</ele>
        <time>2023-08-14T04:14:36Z</time>
      </trkpt>
      <trkpt lat="42.872713" lon="-7.879998">
        <ele>507.9</ele>
        <time>2023-08-14T04:14:50Z</time>
      </trkpt>
      <trkpt lat="42.872684" lon="-7.880256">
        <ele>507.9</ele>
        <time>2023-08-14T04:15:03Z</time>
      </trkpt>
      <trkpt lat="42.872631" lon="-7.880519">
        <ele>507.9</ele>
        <time>2023-08-14T04:15:14Z</time>
      </trkpt>
      <trkpt lat="42.872607" lon="-7.880769">
        <ele>507.9</ele>
        <time>2023-08-14T04:15:26Z</time>
      </trkpt>
      <trkpt lat="42.872588" lon="-7.881021">
        <ele>507.9</ele>
        <time>2023-08-14T04:15:39Z</time>
      </trkpt>
      <trkpt lat="42.872581" lon="-7.881267">
        <ele>507.9</ele>
        <time>2023-08-14T04:15:51Z</time>
      </trkpt>
      <trkpt lat="42.872641" lon="-7.881505">
        <ele>507.9</ele>
        <time>2023-08-14T04:16:06Z</time>
      </trkpt>
      <trkpt lat="42.872702" lon="-7.881740">
        <ele>505.2</ele>
        <time>2023-08-14T04:16:19Z</time>
      </trkpt>
      <trkpt lat="42.872716" lon="-7.881989">
        <ele>505.2</ele>
        <time>2023-08-14T04:16:31Z</time>
      </trkpt>
      <trkpt lat="42.872617" lon="-7.882206">
        <ele>505.2</ele>
        <time>2023-08-14T04:16:44Z</time>
      </trkpt>
      <trkpt lat="42.872451" lon="-7.882305">
        <ele>505.2</ele>
        <time>2023-08-14T04:16:58Z</time>
      </trkpt>
      <trkpt lat="42.872281" lon="-7.882403">
        <ele>505.1</ele>
        <time>2023-08-14T04:17:12Z</time>
      </trkpt>
      <trkpt lat="42.872109" lon="-7.882507">
        <ele>505.1</ele>
        <time>2023-08-14T04:17:27Z</time>
      </trkpt>
      <trkpt lat="42.871967" lon="-7.882660">
        <ele>505.1</ele>
        <time>2023-08-14T04:17:37Z</time>
      </trkpt>
      <trkpt lat="42.871827" lon="-7.882821">
        <ele>505.1</ele>
        <time>2023-08-14T04:17:54Z</time>
      </trkpt>
      <trkpt lat="42.871730" lon="-7.883031">
        <ele>505.1</ele>
        <time>2023-08-14T04:18:08Z</time>
      </trkpt>
      <trkpt lat="42.871681" lon="-7.883277">
        <ele>505.1</ele>
        <time>2023-08-14T04:18:26Z</time>
      </trkpt>
      <trkpt lat="42.871637" lon="-7.883518">
        <ele>505.1</ele>
        <time>2023-08-14T04:18:43Z</time>
      </trkpt>
      <trkpt lat="42.871589" lon="-7.883763">
        <ele>484.0</ele>
        <time>2023-08-14T04:19:01Z</time>
      </trkpt>
      <trkpt lat="42.871582" lon="-7.884012">
        <ele>480.4</ele>
        <time>2023-08-14T04:19:18Z</time>
      </trkpt>
      <trkpt lat="42.871551" lon="-7.884258">
        <ele>522.7</ele>
        <time>2023-08-14T04:19:32Z</time>
      </trkpt>
      <trkpt lat="42.871474" lon="-7.884486">
        <ele>522.7</ele>
        <time>2023-08-14T04:19:46Z</time>
      </trkpt>
      <trkpt lat="42.871388" lon="-7.884704">
        <ele>522.7</ele>
        <time>2023-08-14T04:19:59Z</time>
      </trkpt>
      <trkpt lat="42.871348" lon="-7.884947">
        <ele>522.7</ele>
        <time>2023-08-14T04:20:18Z</time>
      </trkpt>
      <trkpt lat="42.871395" lon="-7.885186">
        <ele>522.7</ele>
        <time>2023-08-14T04:20:31Z</time>
      </trkpt>
      <trkpt lat="42.871420" lon="-7.885432">
        <ele>522.7</ele>
        <time>2023-08-14T04:20:45Z</time>
      </trkpt>
      <trkpt lat="42.871440" lon="-7.885677">
        <ele>522.7</ele>
        <time>2023-08-14T04:21:04Z</time>
      </trkpt>
      <trkpt lat="42.871442" lon="-7.885922">
        <ele>494.4</ele>
        <time>2023-08-14T04:21:21Z</time>
      </trkpt>
      <trkpt lat="42.871417" lon="-7.886175">
        <ele>534.1</ele>
        <time>2023-08-14T04:21:38Z</time>
      </trkpt>
      <trkpt lat="42.871427" lon="-7.886464">
        <ele>534.2</ele>
        <time>2023-08-14T04:21:55Z</time>
      </trkpt>
      <trkpt lat="42.871508" lon="-7.886677">
        <ele>537.4</ele>
        <time>2023-08-14T04:22:07Z</time>
      </trkpt>
      <trkpt lat="42.871580" lon="-7.886880">
        <ele>537.7</ele>
        <time>2023-08-14T04:22:20Z</time>
      </trkpt>
      <trkpt lat="42.871618" lon="-7.887119">
        <ele>537.7</ele>
        <time>2023-08-14T04:23:15Z</time>
      </trkpt>
      <trkpt lat="42.871647" lon="-7.887367">
        <ele>494.6</ele>
        <time>2023-08-14T04:23:32Z</time>
      </trkpt>
      <trkpt lat="42.871623" lon="-7.887628">
        <ele>537.7</ele>
        <time>2023-08-14T04:23:44Z</time>
      </trkpt>
      <trkpt lat="42.871647" lon="-7.887860">
        <ele>537.7</ele>
        <time>2023-08-14T04:24:00Z</time>
      </trkpt>
      <trkpt lat="42.871636" lon="-7.888106">
        <ele>537.7</ele>
        <time>2023-08-14T04:24:15Z</time>
      </trkpt>
      <trkpt lat="42.871670" lon="-7.888359">
        <ele>537.7</ele>
        <time>2023-08-14T04:24:31Z</time>
      </trkpt>
      <trkpt lat="42.871657" lon="-7.888610">
        <ele>537.7</ele>
        <time>2023-08-14T04:24:44Z</time>
      </trkpt>
      <trkpt lat="42.871702" lon="-7.888854">
        <ele>537.7</ele>
        <time>2023-08-14T04:24:56Z</time>
      </trkpt>
      <trkpt lat="42.871690" lon="-7.889108">
        <ele>537.7</ele>
        <time>2023-08-14T04:25:08Z</time>
      </trkpt>
      <trkpt lat="42.871742" lon="-7.889344">
        <ele>537.7</ele>
        <time>2023-08-14T04:25:23Z</time>
      </trkpt>
      <trkpt lat="42.871840" lon="-7.889552">
        <ele>537.7</ele>
        <time>2023-08-14T04:25:38Z</time>
      </trkpt>
      <trkpt lat="42.871905" lon="-7.889786">
        <ele>537.7</ele>
        <time>2023-08-14T04:25:53Z</time>
      </trkpt>
      <trkpt lat="42.871773" lon="-7.889955">
        <ele>537.7</ele>
        <time>2023-08-14T04:26:08Z</time>
      </trkpt>
      <trkpt lat="42.871596" lon="-7.889905">
        <ele>537.7</ele>
        <time>2023-08-14T04:26:22Z</time>
      </trkpt>
      <trkpt lat="42.871448" lon="-7.889747">
        <ele>537.7</ele>
        <time>2023-08-14T04:26:42Z</time>
      </trkpt>
      <trkpt lat="42.871278" lon="-7.889655">
        <ele>504.4</ele>
        <time>2023-08-14T04:26:59Z</time>
      </trkpt>
      <trkpt lat="42.871127" lon="-7.889513">
        <ele>507.4</ele>
        <time>2023-08-14T04:27:12Z</time>
      </trkpt>
      <trkpt lat="42.870949" lon="-7.889443">
        <ele>509.7</ele>
        <time>2023-08-14T04:27:26Z</time>
      </trkpt>
      <trkpt lat="42.870764" lon="-7.889428">
        <ele>509.4</ele>
        <time>2023-08-14T04:27:37Z</time>
      </trkpt>
      <trkpt lat="42.870578" lon="-7.889430">
        <ele>509.4</ele>
        <time>2023-08-14T04:27:49Z</time>
      </trkpt>
      <trkpt lat="42.870379" lon="-7.889459">
        <ele>509.4</ele>
        <time>2023-08-14T04:28:02Z</time>
      </trkpt>
      <trkpt lat="42.870236" lon="-7.889536">
        <ele>516.3</ele>
        <time>2023-08-14T04:28:19Z</time>
      </trkpt>
      <trkpt lat="42.870221" lon="-7.889782">
        <ele>519.4</ele>
        <time>2023-08-14T04:28:29Z</time>
      </trkpt>
      <trkpt lat="42.870213" lon="-7.890034">
        <ele>519.4</ele>
        <time>2023-08-14T04:28:44Z</time>
      </trkpt>
      <trkpt lat="42.870205" lon="-7.890291">
        <ele>520.4</ele>
        <time>2023-08-14T04:28:59Z</time>
      </trkpt>
      <trkpt lat="42.870217" lon="-7.890536">
        <ele>516.4</ele>
        <time>2023-08-14T04:29:13Z</time>
      </trkpt>
      <trkpt lat="42.870295" lon="-7.890763">
        <ele>513.4</ele>
        <time>2023-08-14T04:29:28Z</time>
      </trkpt>
      <trkpt lat="42.870305" lon="-7.891008">
        <ele>508.7</ele>
        <time>2023-08-14T04:29:42Z</time>
      </trkpt>
      <trkpt lat="42.870358" lon="-7.891249">
        <ele>506.4</ele>
        <time>2023-08-14T04:29:56Z</time>
      </trkpt>
      <trkpt lat="42.870443" lon="-7.891472">
        <ele>506.5</ele>
        <time>2023-08-14T04:30:10Z</time>
      </trkpt>
      <trkpt lat="42.870502" lon="-7.891708">
        <ele>505.4</ele>
        <time>2023-08-14T04:30:32Z</time>
      </trkpt>
      <trkpt lat="42.870490" lon="-7.891955">
        <ele>496.7</ele>
        <time>2023-08-14T04:30:51Z</time>
      </trkpt>
      <trkpt lat="42.870551" lon="-7.892198">
        <ele>487.4</ele>
        <time>2023-08-14T04:31:07Z</time>
      </trkpt>
      <trkpt lat="42.870583" lon="-7.892447">
        <ele>483.7</ele>
        <time>2023-08-14T04:31:19Z</time>
      </trkpt>
      <trkpt lat="42.870652" lon="-7.892690">
        <ele>484.4</ele>
        <time>2023-08-14T04:31:33Z</time>
      </trkpt>
      <trkpt lat="42.870702" lon="-7.892932">
        <ele>481.4</ele>
        <time>2023-08-14T04:31:47Z</time>
      </trkpt>
      <trkpt lat="42.870729" lon="-7.893175">
        <ele>479.4</ele>
        <time>2023-08-14T04:32:04Z</time>
      </trkpt>
      <trkpt lat="42.870797" lon="-7.893407">
        <ele>475.4</ele>
        <time>2023-08-14T04:33:00Z</time>
      </trkpt>
      <trkpt lat="42.870798" lon="-7.893658">
        <ele>473.4</ele>
        <time>2023-08-14T04:33:12Z</time>
      </trkpt>
      <trkpt lat="42.870818" lon="-7.893920">
        <ele>471.4</ele>
        <time>2023-08-14T04:33:26Z</time>
      </trkpt>
      <trkpt lat="42.870850" lon="-7.894137">
        <ele>473.4</ele>
        <time>2023-08-14T04:33:40Z</time>
      </trkpt>
      <trkpt lat="42.870871" lon="-7.894383">
        <ele>473.4</ele>
        <time>2023-08-14T04:33:53Z</time>
      </trkpt>
      <trkpt lat="42.870897" lon="-7.894633">
        <ele>474.4</ele>
        <time>2023-08-14T04:34:07Z</time>
      </trkpt>
      <trkpt lat="42.870926" lon="-7.894888">
        <ele>472.5</ele>
        <time>2023-08-14T04:34:24Z</time>
      </trkpt>
      <trkpt lat="42.870979" lon="-7.895128">
        <ele>473.5</ele>
        <time>2023-08-14T04:34:39Z</time>
      </trkpt>
      <trkpt lat="42.871073" lon="-7.895339">
        <ele>476.1</ele>
        <time>2023-08-14T04:34:52Z</time>
      </trkpt>
      <trkpt lat="42.871091" lon="-7.895594">
        <ele>483.4</ele>
        <time>2023-08-14T04:35:04Z</time>
      </trkpt>
      <trkpt lat="42.871120" lon="-7.895838">
        <ele>488.4</ele>
        <time>2023-08-14T04:35:15Z</time>
      </trkpt>
      <trkpt lat="42.871172" lon="-7.896074">
        <ele>492.4</ele>
        <time>2023-08-14T04:35:27Z</time>
      </trkpt>
      <trkpt lat="42.871265" lon="-7.896301">
        <ele>495.3</ele>
        <time>2023-08-14T04:35:40Z</time>
      </trkpt>
      <trkpt lat="42.871316" lon="-7.896544">
        <ele>494.4</ele>
        <time>2023-08-14T04:35:55Z</time>
      </trkpt>
      <trkpt lat="42.871370" lon="-7.896785">
        <ele>495.4</ele>
        <time>2023-08-14T04:36:08Z</time>
      </trkpt>
      <trkpt lat="42.871415" lon="-7.897025">
        <ele>499.4</ele>
        <time>2023-08-14T04:36:21Z</time>
      </trkpt>
      <trkpt lat="42.871484" lon="-7.897261">
        <ele>503.4</ele>
        <time>2023-08-14T04:36:35Z</time>
      </trkpt>
      <trkpt lat="42.871573" lon="-7.897475">
        <ele>502.4</ele>
        <time>2023-08-14T04:36:49Z</time>
      </trkpt>
      <trkpt lat="42.871668" lon="-7.897693">
        <ele>504.1</ele>
        <time>2023-08-14T04:37:04Z</time>
      </trkpt>
      <trkpt lat="42.871772" lon="-7.897894">
        <ele>502.4</ele>
        <time>2023-08-14T04:37:18Z</time>
      </trkpt>
      <trkpt lat="42.871929" lon="-7.898030">
        <ele>501.4</ele>
        <time>2023-08-14T04:37:42Z</time>
      </trkpt>
      <trkpt lat="42.872067" lon="-7.898194">
        <ele>500.4</ele>
        <time>2023-08-14T04:37:55Z</time>
      </trkpt>
      <trkpt lat="42.872226" lon="-7.898312">
        <ele>503.4</ele>
        <time>2023-08-14T04:38:09Z</time>
      </trkpt>
      <trkpt lat="42.872339" lon="-7.898519">
        <ele>500.4</ele>
        <time>2023-08-14T04:38:24Z</time>
      </trkpt>
      <trkpt lat="42.872466" lon="-7.898694">
        <ele>499.7</ele>
        <time>2023-08-14T04:38:37Z</time>
      </trkpt>
      <trkpt lat="42.872636" lon="-7.898801">
        <ele>498.4</ele>
        <time>2023-08-14T04:39:01Z</time>
      </trkpt>
      <trkpt lat="42.872789" lon="-7.898948">
        <ele>497.4</ele>
        <time>2023-08-14T04:39:19Z</time>
      </trkpt>
      <trkpt lat="42.872957" lon="-7.899060">
        <ele>492.5</ele>
        <time>2023-08-14T04:39:31Z</time>
      </trkpt>
      <trkpt lat="42.873092" lon="-7.899225">
        <ele>488.4</ele>
        <time>2023-08-14T04:39:45Z</time>
      </trkpt>
      <trkpt lat="42.873229" lon="-7.899388">
        <ele>488.3</ele>
        <time>2023-08-14T04:39:59Z</time>
      </trkpt>
      <trkpt lat="42.873380" lon="-7.899523">
        <ele>483.4</ele>
        <time>2023-08-14T04:40:13Z</time>
      </trkpt>
      <trkpt lat="42.873507" lon="-7.899711">
        <ele>480.5</ele>
        <time>2023-08-14T04:40:26Z</time>
      </trkpt>
      <trkpt lat="42.873631" lon="-7.899888">
        <ele>481.4</ele>
        <time>2023-08-14T04:40:39Z</time>
      </trkpt>
      <trkpt lat="42.873736" lon="-7.900088">
        <ele>481.3</ele>
        <time>2023-08-14T04:40:59Z</time>
      </trkpt>
      <trkpt lat="42.873799" lon="-7.900321">
        <ele>480.4</ele>
        <time>2023-08-14T04:41:12Z</time>
      </trkpt>
      <trkpt lat="42.873884" lon="-7.900539">
        <ele>481.1</ele>
        <time>2023-08-14T04:41:28Z</time>
      </trkpt>
      <trkpt lat="42.873969" lon="-7.900763">
        <ele>481.4</ele>
        <time>2023-08-14T04:41:50Z</time>
      </trkpt>
      <trkpt lat="42.874047" lon="-7.900992">
        <ele>485.4</ele>
        <time>2023-08-14T04:43:00Z</time>
      </trkpt>
      <trkpt lat="42.874148" lon="-7.901207">
        <ele>486.4</ele>
        <time>2023-08-14T04:43:14Z</time>
      </trkpt>
      <trkpt lat="42.874273" lon="-7.901396">
        <ele>482.4</ele>
        <time>2023-08-14T04:43:31Z</time>
      </trkpt>
      <trkpt lat="42.874408" lon="-7.901561">
        <ele>481.1</ele>
        <time>2023-08-14T04:43:47Z</time>
      </trkpt>
      <trkpt lat="42.874544" lon="-7.901725">
        <ele>478.5</ele>
        <time>2023-08-14T04:44:01Z</time>
      </trkpt>
      <trkpt lat="42.874498" lon="-7.901964">
        <ele>476.4</ele>
        <time>2023-08-14T04:44:16Z</time>
      </trkpt>
      <trkpt lat="42.874513" lon="-7.902214">
        <ele>473.4</ele>
        <time>2023-08-14T04:44:30Z</time>
      </trkpt>
      <trkpt lat="42.874542" lon="-7.902464">
        <ele>472.4</ele>
        <time>2023-08-14T04:44:46Z</time>
      </trkpt>
      <trkpt lat="42.874549" lon="-7.902718">
        <ele>470.4</ele>
        <time>2023-08-14T04:45:03Z</time>
      </trkpt>
      <trkpt lat="42.874467" lon="-7.902946">
        <ele>469.4</ele>
        <time>2023-08-14T04:45:54Z</time>
      </trkpt>
      <trkpt lat="42.874424" lon="-7.903202">
        <ele>467.7</ele>
        <time>2023-08-14T04:46:08Z</time>
      </trkpt>
      <trkpt lat="42.874524" lon="-7.903459">
        <ele>463.4</ele>
        <time>2023-08-14T04:46:23Z</time>
      </trkpt>
      <trkpt lat="42.874556" lon="-7.903665">
        <ele>469.7</ele>
        <time>2023-08-14T04:46:50Z</time>
      </trkpt>
      <trkpt lat="42.874413" lon="-7.903889">
        <ele>464.3</ele>
        <time>2023-08-14T04:47:07Z</time>
      </trkpt>
      <trkpt lat="42.874411" lon="-7.904115">
        <ele>464.3</ele>
        <time>2023-08-14T04:47:20Z</time>
      </trkpt>
      <trkpt lat="42.874544" lon="-7.904286">
        <ele>464.3</ele>
        <time>2023-08-14T04:48:01Z</time>
      </trkpt>
      <trkpt lat="42.874705" lon="-7.904420">
        <ele>464.3</ele>
        <time>2023-08-14T04:48:17Z</time>
      </trkpt>
      <trkpt lat="42.874832" lon="-7.904599">
        <ele>464.3</ele>
        <time>2023-08-14T04:48:31Z</time>
      </trkpt>
      <trkpt lat="42.874945" lon="-7.904786">
        <ele>458.3</ele>
        <time>2023-08-14T04:48:43Z</time>
      </trkpt>
      <trkpt lat="42.875003" lon="-7.905002">
        <ele>458.3</ele>
        <time>2023-08-14T04:48:56Z</time>
      </trkpt>
      <trkpt lat="42.875068" lon="-7.905170">
        <ele>458.3</ele>
        <time>2023-08-14T04:49:31Z</time>
      </trkpt>
      <trkpt lat="42.875094" lon="-7.905231">
        <ele>458.3</ele>
        <time>2023-08-14T04:52:35Z</time>
      </trkpt>
      <trkpt lat="42.875112" lon="-7.905284">
        <ele>458.3</ele>
        <time>2023-08-14T04:54:24Z</time>
      </trkpt>
      <trkpt lat="42.875124" lon="-7.905302">
        <ele>458.3</ele>
        <time>2023-08-14T05:01:13Z</time>
      </trkpt>
      <trkpt lat="42.875142" lon="-7.905366">
        <ele>458.3</ele>
        <time>2023-08-14T05:02:05Z</time>
      </trkpt>
      <trkpt lat="42.875156" lon="-7.905402">
        <ele>458.3</ele>
        <time>2023-08-14T05:02:21Z</time>
      </trkpt>
      <trkpt lat="42.875188" lon="-7.905564">
        <ele>464.3</ele>
        <time>2023-08-14T05:02:52Z</time>
      </trkpt>
      <trkpt lat="42.875197" lon="-7.905813">
        <ele>464.3</ele>
        <time>2023-08-14T05:03:06Z</time>
      </trkpt>
      <trkpt lat="42.875188" lon="-7.906065">
        <ele>464.3</ele>
        <time>2023-08-14T05:03:20Z</time>
      </trkpt>
      <trkpt lat="42.875219" lon="-7.906294">
        <ele>464.3</ele>
        <time>2023-08-14T05:03:34Z</time>
      </trkpt>
      <trkpt lat="42.875263" lon="-7.906545">
        <ele>464.3</ele>
        <time>2023-08-14T05:03:48Z</time>
      </trkpt>
      <trkpt lat="42.875302" lon="-7.906765">
        <ele>464.3</ele>
        <time>2023-08-14T05:04:00Z</time>
      </trkpt>
      <trkpt lat="42.875347" lon="-7.906983">
        <ele>457.2</ele>
        <time>2023-08-14T05:04:10Z</time>
      </trkpt>
      <trkpt lat="42.875383" lon="-7.907232">
        <ele>459.1</ele>
        <time>2023-08-14T05:04:23Z</time>
      </trkpt>
      <trkpt lat="42.875439" lon="-7.907466">
        <ele>459.1</ele>
        <time>2023-08-14T05:04:35Z</time>
      </trkpt>
      <trkpt lat="42.875492" lon="-7.907705">
        <ele>459.1</ele>
        <time>2023-08-14T05:04:47Z</time>
      </trkpt>
      <trkpt lat="42.875549" lon="-7.907948">
        <ele>455.4</ele>
        <time>2023-08-14T05:05:01Z</time>
      </trkpt>
      <trkpt lat="42.875619" lon="-7.908182">
        <ele>459.1</ele>
        <time>2023-08-14T05:05:15Z</time>
      </trkpt>
      <trkpt lat="42.875695" lon="-7.908426">
        <ele>459.1</ele>
        <time>2023-08-14T05:05:28Z</time>
      </trkpt>
      <trkpt lat="42.875777" lon="-7.908633">
        <ele>459.1</ele>
        <time>2023-08-14T05:05:41Z</time>
      </trkpt>
      <trkpt lat="42.875943" lon="-7.908975">
        <ele>459.6</ele>
        <time>2023-08-14T05:05:55Z</time>
      </trkpt>
      <trkpt lat="42.875942" lon="-7.909054">
        <ele>459.6</ele>
        <time>2023-08-14T05:06:13Z</time>
      </trkpt>
      <trkpt lat="42.876118" lon="-7.909230">
        <ele>459.6</ele>
        <time>2023-08-14T05:06:34Z</time>
      </trkpt>
      <trkpt lat="42.876254" lon="-7.909396">
        <ele>459.6</ele>
        <time>2023-08-14T05:06:49Z</time>
      </trkpt>
      <trkpt lat="42.876380" lon="-7.909578">
        <ele>459.6</ele>
        <time>2023-08-14T05:07:06Z</time>
      </trkpt>
      <trkpt lat="42.876544" lon="-7.909732">
        <ele>443.7</ele>
        <time>2023-08-14T05:07:20Z</time>
      </trkpt>
      <trkpt lat="42.876684" lon="-7.909918">
        <ele>440.4</ele>
        <time>2023-08-14T05:07:35Z</time>
      </trkpt>
      <trkpt lat="42.876787" lon="-7.910160">
        <ele>439.7</ele>
        <time>2023-08-14T05:07:48Z</time>
      </trkpt>
      <trkpt lat="42.876861" lon="-7.910332">
        <ele>437.4</ele>
        <time>2023-08-14T05:08:03Z</time>
      </trkpt>
      <trkpt lat="42.876931" lon="-7.910564">
        <ele>435.4</ele>
        <time>2023-08-14T05:08:17Z</time>
      </trkpt>
      <trkpt lat="42.877013" lon="-7.910787">
        <ele>433.4</ele>
        <time>2023-08-14T05:08:30Z</time>
      </trkpt>
      <trkpt lat="42.877048" lon="-7.911029">
        <ele>434.1</ele>
        <time>2023-08-14T05:08:43Z</time>
      </trkpt>
      <trkpt lat="42.877151" lon="-7.911246">
        <ele>436.3</ele>
        <time>2023-08-14T05:08:54Z</time>
      </trkpt>
      <trkpt lat="42.877206" lon="-7.911482">
        <ele>432.5</ele>
        <time>2023-08-14T05:09:12Z</time>
      </trkpt>
      <trkpt lat="42.877292" lon="-7.911717">
        <ele>429.4</ele>
        <time>2023-08-14T05:09:30Z</time>
      </trkpt>
      <trkpt lat="42.877393" lon="-7.911920">
        <ele>418.1</ele>
        <time>2023-08-14T05:09:48Z</time>
      </trkpt>
      <trkpt lat="42.877517" lon="-7.912103">
        <ele>418.1</ele>
        <time>2023-08-14T05:10:06Z</time>
      </trkpt>
      <trkpt lat="42.877656" lon="-7.912268">
        <ele>418.1</ele>
        <time>2023-08-14T05:10:22Z</time>
      </trkpt>
      <trkpt lat="42.877809" lon="-7.912589">
        <ele>416.4</ele>
        <time>2023-08-14T05:10:37Z</time>
      </trkpt>
      <trkpt lat="42.877904" lon="-7.912907">
        <ele>417.4</ele>
        <time>2023-08-14T05:11:01Z</time>
      </trkpt>
      <trkpt lat="42.877948" lon="-7.913148">
        <ele>418.4</ele>
        <time>2023-08-14T05:11:15Z</time>
      </trkpt>
      <trkpt lat="42.877878" lon="-7.913303">
        <ele>419.4</ele>
        <time>2023-08-14T05:11:29Z</time>
      </trkpt>
      <trkpt lat="42.877899" lon="-7.913425">
        <ele>418.1</ele>
        <time>2023-08-14T05:11:44Z</time>
      </trkpt>
      <trkpt lat="42.877998" lon="-7.913636">
        <ele>418.1</ele>
        <time>2023-08-14T05:11:58Z</time>
      </trkpt>
      <trkpt lat="42.878075" lon="-7.913876">
        <ele>418.1</ele>
        <time>2023-08-14T05:12:15Z</time>
      </trkpt>
      <trkpt lat="42.878097" lon="-7.914131">
        <ele>419.4</ele>
        <time>2023-08-14T05:12:29Z</time>
      </trkpt>
      <trkpt lat="42.878274" lon="-7.914275">
        <ele>419.4</ele>
        <time>2023-08-14T05:12:41Z</time>
      </trkpt>
      <trkpt lat="42.878424" lon="-7.914381">
        <ele>419.4</ele>
        <time>2023-08-14T05:12:52Z</time>
      </trkpt>
      <trkpt lat="42.878630" lon="-7.914441">
        <ele>419.4</ele>
        <time>2023-08-14T05:13:07Z</time>
      </trkpt>
      <trkpt lat="42.878753" lon="-7.914632">
        <ele>419.4</ele>
        <time>2023-08-14T05:13:26Z</time>
      </trkpt>
      <trkpt lat="42.878890" lon="-7.914803">
        <ele>424.8</ele>
        <time>2023-08-14T05:13:41Z</time>
      </trkpt>
      <trkpt lat="42.878992" lon="-7.915011">
        <ele>424.8</ele>
        <time>2023-08-14T05:13:55Z</time>
      </trkpt>
      <trkpt lat="42.879055" lon="-7.915210">
        <ele>424.8</ele>
        <time>2023-08-14T05:14:12Z</time>
      </trkpt>
      <trkpt lat="42.879120" lon="-7.915470">
        <ele>424.8</ele>
        <time>2023-08-14T05:14:27Z</time>
      </trkpt>
      <trkpt lat="42.879134" lon="-7.915724">
        <ele>424.8</ele>
        <time>2023-08-14T05:14:43Z</time>
      </trkpt>
      <trkpt lat="42.879109" lon="-7.915971">
        <ele>424.8</ele>
        <time>2023-08-14T05:14:57Z</time>
      </trkpt>
      <trkpt lat="42.879109" lon="-7.916238">
        <ele>424.8</ele>
        <time>2023-08-14T05:15:11Z</time>
      </trkpt>
      <trkpt lat="42.879170" lon="-7.916467">
        <ele>424.8</ele>
        <time>2023-08-14T05:15:24Z</time>
      </trkpt>
      <trkpt lat="42.879235" lon="-7.916708">
        <ele>424.8</ele>
        <time>2023-08-14T05:15:40Z</time>
      </trkpt>
      <trkpt lat="42.879299" lon="-7.916939">
        <ele>427.4</ele>
        <time>2023-08-14T05:15:53Z</time>
      </trkpt>
      <trkpt lat="42.879388" lon="-7.917156">
        <ele>430.4</ele>
        <time>2023-08-14T05:16:06Z</time>
      </trkpt>
      <trkpt lat="42.879488" lon="-7.917365">
        <ele>433.4</ele>
        <time>2023-08-14T05:16:17Z</time>
      </trkpt>
      <trkpt lat="42.879551" lon="-7.917602">
        <ele>435.4</ele>
        <time>2023-08-14T05:16:33Z</time>
      </trkpt>
      <trkpt lat="42.879606" lon="-7.917842">
        <ele>429.5</ele>
        <time>2023-08-14T05:16:51Z</time>
      </trkpt>
      <trkpt lat="42.879680" lon="-7.918069">
        <ele>429.4</ele>
        <time>2023-08-14T05:17:07Z</time>
      </trkpt>
      <trkpt lat="42.879759" lon="-7.918290">
        <ele>427.4</ele>
        <time>2023-08-14T05:17:21Z</time>
      </trkpt>
      <trkpt lat="42.879821" lon="-7.918525">
        <ele>426.4</ele>
        <time>2023-08-14T05:17:36Z</time>
      </trkpt>
      <trkpt lat="42.879852" lon="-7.918773">
        <ele>429.4</ele>
        <time>2023-08-14T05:17:48Z</time>
      </trkpt>
      <trkpt lat="42.879883" lon="-7.919020">
        <ele>430.5</ele>
        <time>2023-08-14T05:18:04Z</time>
      </trkpt>
      <trkpt lat="42.879895" lon="-7.919281">
        <ele>430.5</ele>
        <time>2023-08-14T05:18:20Z</time>
      </trkpt>
      <trkpt lat="42.879922" lon="-7.919530">
        <ele>431.1</ele>
        <time>2023-08-14T05:18:35Z</time>
      </trkpt>
      <trkpt lat="42.879951" lon="-7.919775">
        <ele>431.4</ele>
        <time>2023-08-14T05:18:48Z</time>
      </trkpt>
      <trkpt lat="42.879956" lon="-7.920015">
        <ele>432.4</ele>
        <time>2023-08-14T05:19:02Z</time>
      </trkpt>
      <trkpt lat="42.879965" lon="-7.920264">
        <ele>433.4</ele>
        <time>2023-08-14T05:19:16Z</time>
      </trkpt>
      <trkpt lat="42.879995" lon="-7.920509">
        <ele>437.3</ele>
        <time>2023-08-14T05:19:31Z</time>
      </trkpt>
      <trkpt lat="42.879981" lon="-7.920755">
        <ele>439.7</ele>
        <time>2023-08-14T05:19:45Z</time>
      </trkpt>
      <trkpt lat="42.879986" lon="-7.921008">
        <ele>440.2</ele>
        <time>2023-08-14T05:20:49Z</time>
      </trkpt>
      <trkpt lat="42.879992" lon="-7.921254">
        <ele>441.4</ele>
        <time>2023-08-14T05:21:03Z</time>
      </trkpt>
      <trkpt lat="42.879974" lon="-7.921495">
        <ele>443.3</ele>
        <time>2023-08-14T05:21:18Z</time>
      </trkpt>
      <trkpt lat="42.879983" lon="-7.921747">
        <ele>444.4</ele>
        <time>2023-08-14T05:21:34Z</time>
      </trkpt>
      <trkpt lat="42.879934" lon="-7.921984">
        <ele>447.1</ele>
        <time>2023-08-14T05:21:47Z</time>
      </trkpt>
      <trkpt lat="42.879859" lon="-7.922208">
        <ele>447.4</ele>
        <time>2023-08-14T05:22:01Z</time>
      </trkpt>
      <trkpt lat="42.879756" lon="-7.922424">
        <ele>450.4</ele>
        <time>2023-08-14T05:22:16Z</time>
      </trkpt>
      <trkpt lat="42.879697" lon="-7.922658">
        <ele>452.4</ele>
        <time>2023-08-14T05:22:30Z</time>
      </trkpt>
      <trkpt lat="42.879628" lon="-7.922890">
        <ele>454.4</ele>
        <time>2023-08-14T05:22:44Z</time>
      </trkpt>
      <trkpt lat="42.879580" lon="-7.923138">
        <ele>456.4</ele>
        <time>2023-08-14T05:22:57Z</time>
      </trkpt>
      <trkpt lat="42.879520" lon="-7.923380">
        <ele>459.4</ele>
        <time>2023-08-14T05:23:12Z</time>
      </trkpt>
      <trkpt lat="42.879475" lon="-7.923618">
        <ele>457.4</ele>
        <time>2023-08-14T05:23:26Z</time>
      </trkpt>
      <trkpt lat="42.879419" lon="-7.923860">
        <ele>461.4</ele>
        <time>2023-08-14T05:23:40Z</time>
      </trkpt>
      <trkpt lat="42.879382" lon="-7.924106">
        <ele>460.5</ele>
        <time>2023-08-14T05:23:53Z</time>
      </trkpt>
      <trkpt lat="42.879334" lon="-7.924359">
        <ele>460.4</ele>
        <time>2023-08-14T05:24:09Z</time>
      </trkpt>
      <trkpt lat="42.879323" lon="-7.924606">
        <ele>457.4</ele>
        <time>2023-08-14T05:24:22Z</time>
      </trkpt>
      <trkpt lat="42.879312" lon="-7.924854">
        <ele>456.4</ele>
        <time>2023-08-14T05:24:38Z</time>
      </trkpt>
      <trkpt lat="42.879284" lon="-7.925086">
        <ele>459.4</ele>
        <time>2023-08-14T05:24:49Z</time>
      </trkpt>
      <trkpt lat="42.879274" lon="-7.925354">
        <ele>459.7</ele>
        <time>2023-08-14T05:25:02Z</time>
      </trkpt>
      <trkpt lat="42.879266" lon="-7.925591">
        <ele>461.4</ele>
        <time>2023-08-14T05:25:14Z</time>
      </trkpt>
      <trkpt lat="42.879235" lon="-7.925828">
        <ele>459.3</ele>
        <time>2023-08-14T05:25:30Z</time>
      </trkpt>
      <trkpt lat="42.879145" lon="-7.926044">
        <ele>472.9</ele>
        <time>2023-08-14T05:25:44Z</time>
      </trkpt>
      <trkpt lat="42.879042" lon="-7.926246">
        <ele>473.8</ele>
        <time>2023-08-14T05:26:02Z</time>
      </trkpt>
      <trkpt lat="42.878955" lon="-7.926471">
        <ele>473.8</ele>
        <time>2023-08-14T05:26:15Z</time>
      </trkpt>
      <trkpt lat="42.878907" lon="-7.926718">
        <ele>473.8</ele>
        <time>2023-08-14T05:26:29Z</time>
      </trkpt>
      <trkpt lat="42.878848" lon="-7.926952">
        <ele>473.8</ele>
        <time>2023-08-14T05:26:41Z</time>
      </trkpt>
      <trkpt lat="42.878781" lon="-7.927185">
        <ele>468.1</ele>
        <time>2023-08-14T05:26:54Z</time>
      </trkpt>
      <trkpt lat="42.878771" lon="-7.927435">
        <ele>481.5</ele>
        <time>2023-08-14T05:27:07Z</time>
      </trkpt>
      <trkpt lat="42.878752" lon="-7.927680">
        <ele>481.5</ele>
        <time>2023-08-14T05:27:20Z</time>
      </trkpt>
      <trkpt lat="42.878777" lon="-7.927927">
        <ele>481.5</ele>
        <time>2023-08-14T05:27:35Z</time>
      </trkpt>
      <trkpt lat="42.878789" lon="-7.928172">
        <ele>481.5</ele>
        <time>2023-08-14T05:27:50Z</time>
      </trkpt>
      <trkpt lat="42.878773" lon="-7.928419">
        <ele>481.5</ele>
        <time>2023-08-14T05:28:03Z</time>
      </trkpt>
      <trkpt lat="42.878775" lon="-7.928677">
        <ele>484.0</ele>
        <time>2023-08-14T05:28:16Z</time>
      </trkpt>
      <trkpt lat="42.878803" lon="-7.928933">
        <ele>485.0</ele>
        <time>2023-08-14T05:28:31Z</time>
      </trkpt>
      <trkpt lat="42.878860" lon="-7.929169">
        <ele>485.0</ele>
        <time>2023-08-14T05:28:45Z</time>
      </trkpt>
      <trkpt lat="42.878928" lon="-7.929403">
        <ele>485.0</ele>
        <time>2023-08-14T05:29:03Z</time>
      </trkpt>
      <trkpt lat="42.878964" lon="-7.929651">
        <ele>485.0</ele>
        <time>2023-08-14T05:29:19Z</time>
      </trkpt>
      <trkpt lat="42.879029" lon="-7.929885">
        <ele>485.0</ele>
        <time>2023-08-14T05:29:38Z</time>
      </trkpt>
      <trkpt lat="42.879105" lon="-7.930109">
        <ele>485.0</ele>
        <time>2023-08-14T05:29:53Z</time>
      </trkpt>
      <trkpt lat="42.879135" lon="-7.930357">
        <ele>485.0</ele>
        <time>2023-08-14T05:30:07Z</time>
      </trkpt>
      <trkpt lat="42.879154" lon="-7.930607">
        <ele>491.4</ele>
        <time>2023-08-14T05:30:25Z</time>
      </trkpt>
      <trkpt lat="42.879140" lon="-7.931004">
        <ele>495.4</ele>
        <time>2023-08-14T05:30:37Z</time>
      </trkpt>
      <trkpt lat="42.879257" lon="-7.931088">
        <ele>497.4</ele>
        <time>2023-08-14T05:30:52Z</time>
      </trkpt>
      <trkpt lat="42.879370" lon="-7.931283">
        <ele>497.4</ele>
        <time>2023-08-14T05:31:06Z</time>
      </trkpt>
      <trkpt lat="42.879513" lon="-7.931446">
        <ele>495.4</ele>
        <time>2023-08-14T05:31:20Z</time>
      </trkpt>
      <trkpt lat="42.879669" lon="-7.931584">
        <ele>495.4</ele>
        <time>2023-08-14T05:31:32Z</time>
      </trkpt>
      <trkpt lat="42.879825" lon="-7.931709">
        <ele>499.4</ele>
        <time>2023-08-14T05:31:47Z</time>
      </trkpt>
      <trkpt lat="42.879942" lon="-7.931896">
        <ele>497.5</ele>
        <time>2023-08-14T05:32:04Z</time>
      </trkpt>
      <trkpt lat="42.880074" lon="-7.932076">
        <ele>497.7</ele>
        <time>2023-08-14T05:32:18Z</time>
      </trkpt>
      <trkpt lat="42.880178" lon="-7.932277">
        <ele>498.4</ele>
        <time>2023-08-14T05:32:34Z</time>
      </trkpt>
      <trkpt lat="42.880204" lon="-7.932526">
        <ele>496.7</ele>
        <time>2023-08-14T05:32:50Z</time>
      </trkpt>
      <trkpt lat="42.880247" lon="-7.932769">
        <ele>495.4</ele>
        <time>2023-08-14T05:33:07Z</time>
      </trkpt>
      <trkpt lat="42.880308" lon="-7.933008">
        <ele>491.4</ele>
        <time>2023-08-14T05:33:21Z</time>
      </trkpt>
      <trkpt lat="42.880391" lon="-7.933230">
        <ele>491.3</ele>
        <time>2023-08-14T05:33:35Z</time>
      </trkpt>
      <trkpt lat="42.880451" lon="-7.933462">
        <ele>492.4</ele>
        <time>2023-08-14T05:33:50Z</time>
      </trkpt>
      <trkpt lat="42.880493" lon="-7.933712">
        <ele>492.4</ele>
        <time>2023-08-14T05:34:04Z</time>
      </trkpt>
      <trkpt lat="42.880580" lon="-7.933932">
        <ele>489.4</ele>
        <time>2023-08-14T05:34:24Z</time>
      </trkpt>
      <trkpt lat="42.880674" lon="-7.934153">
        <ele>490.1</ele>
        <time>2023-08-14T05:34:38Z</time>
      </trkpt>
      <trkpt lat="42.880752" lon="-7.934381">
        <ele>491.4</ele>
        <time>2023-08-14T05:34:50Z</time>
      </trkpt>
      <trkpt lat="42.880780" lon="-7.934625">
        <ele>486.5</ele>
        <time>2023-08-14T05:35:03Z</time>
      </trkpt>
      <trkpt lat="42.880777" lon="-7.934878">
        <ele>483.4</ele>
        <time>2023-08-14T05:35:19Z</time>
      </trkpt>
      <trkpt lat="42.880783" lon="-7.935126">
        <ele>488.4</ele>
        <time>2023-08-14T05:35:48Z</time>
      </trkpt>
      <trkpt lat="42.880795" lon="-7.935373">
        <ele>481.4</ele>
        <time>2023-08-14T05:36:02Z</time>
      </trkpt>
      <trkpt lat="42.880744" lon="-7.935622">
        <ele>474.4</ele>
        <time>2023-08-14T05:36:21Z</time>
      </trkpt>
      <trkpt lat="42.880737" lon="-7.935874">
        <ele>471.4</ele>
        <time>2023-08-14T05:36:38Z</time>
      </trkpt>
      <trkpt lat="42.880711" lon="-7.936121">
        <ele>469.4</ele>
        <time>2023-08-14T05:36:50Z</time>
      </trkpt>
      <trkpt lat="42.880675" lon="-7.936366">
        <ele>471.1</ele>
        <time>2023-08-14T05:37:02Z</time>
      </trkpt>
      <trkpt lat="42.880604" lon="-7.936594">
        <ele>471.4</ele>
        <time>2023-08-14T05:37:15Z</time>
      </trkpt>
      <trkpt lat="42.880520" lon="-7.936816">
        <ele>469.7</ele>
        <time>2023-08-14T05:37:31Z</time>
      </trkpt>
      <trkpt lat="42.880547" lon="-7.937065">
        <ele>470.7</ele>
        <time>2023-08-14T05:37:48Z</time>
      </trkpt>
      <trkpt lat="42.880646" lon="-7.937284">
        <ele>468.3</ele>
        <time>2023-08-14T05:38:01Z</time>
      </trkpt>
      <trkpt lat="42.880724" lon="-7.937509">
        <ele>464.4</ele>
        <time>2023-08-14T05:38:14Z</time>
      </trkpt>
      <trkpt lat="42.880846" lon="-7.937724">
        <ele>465.3</ele>
        <time>2023-08-14T05:38:24Z</time>
      </trkpt>
      <trkpt lat="42.880938" lon="-7.937913">
        <ele>464.7</ele>
        <time>2023-08-14T05:38:37Z</time>
      </trkpt>
      <trkpt lat="42.881055" lon="-7.938098">
        <ele>464.1</ele>
        <time>2023-08-14T05:38:51Z</time>
      </trkpt>
      <trkpt lat="42.881136" lon="-7.938324">
        <ele>467.3</ele>
        <time>2023-08-14T05:39:06Z</time>
      </trkpt>
      <trkpt lat="42.881174" lon="-7.938570">
        <ele>465.5</ele>
        <time>2023-08-14T05:39:23Z</time>
      </trkpt>
      <trkpt lat="42.881188" lon="-7.938824">
        <ele>464.7</ele>
        <time>2023-08-14T05:39:37Z</time>
      </trkpt>
      <trkpt lat="42.881181" lon="-7.939070">
        <ele>464.3</ele>
        <time>2023-08-14T05:39:54Z</time>
      </trkpt>
      <trkpt lat="42.881145" lon="-7.939315">
        <ele>463.4</ele>
        <time>2023-08-14T05:40:09Z</time>
      </trkpt>
      <trkpt lat="42.881123" lon="-7.939561">
        <ele>457.7</ele>
        <time>2023-08-14T05:40:26Z</time>
      </trkpt>
      <trkpt lat="42.881098" lon="-7.939813">
        <ele>455.1</ele>
        <time>2023-08-14T05:40:41Z</time>
      </trkpt>
      <trkpt lat="42.881058" lon="-7.940055">
        <ele>451.4</ele>
        <time>2023-08-14T05:40:56Z</time>
      </trkpt>
      <trkpt lat="42.881014" lon="-7.940295">
        <ele>448.4</ele>
        <time>2023-08-14T05:41:09Z</time>
      </trkpt>
      <trkpt lat="42.880960" lon="-7.940529">
        <ele>448.4</ele>
        <time>2023-08-14T05:41:24Z</time>
      </trkpt>
      <trkpt lat="42.880892" lon="-7.940762">
        <ele>445.1</ele>
        <time>2023-08-14T05:41:37Z</time>
      </trkpt>
      <trkpt lat="42.880804" lon="-7.940988">
        <ele>445.1</ele>
        <time>2023-08-14T05:41:50Z</time>
      </trkpt>
      <trkpt lat="42.880762" lon="-7.941227">
        <ele>444.3</ele>
        <time>2023-08-14T05:42:02Z</time>
      </trkpt>
      <trkpt lat="42.880694" lon="-7.941461">
        <ele>445.1</ele>
        <time>2023-08-14T05:42:15Z</time>
      </trkpt>
      <trkpt lat="42.880664" lon="-7.941708">
        <ele>445.1</ele>
        <time>2023-08-14T05:42:29Z</time>
      </trkpt>
      <trkpt lat="42.880620" lon="-7.941959">
        <ele>445.1</ele>
        <time>2023-08-14T05:42:44Z</time>
      </trkpt>
      <trkpt lat="42.880554" lon="-7.942193">
        <ele>445.1</ele>
        <time>2023-08-14T05:42:58Z</time>
      </trkpt>
      <trkpt lat="42.880432" lon="-7.942378">
        <ele>440.4</ele>
        <time>2023-08-14T05:43:13Z</time>
      </trkpt>
      <trkpt lat="42.880323" lon="-7.942575">
        <ele>436.4</ele>
        <time>2023-08-14T05:43:28Z</time>
      </trkpt>
      <trkpt lat="42.880272" lon="-7.942818">
        <ele>434.4</ele>
        <time>2023-08-14T05:43:44Z</time>
      </trkpt>
      <trkpt lat="42.880323" lon="-7.943062">
        <ele>433.4</ele>
        <time>2023-08-14T05:43:58Z</time>
      </trkpt>
      <trkpt lat="42.880387" lon="-7.943293">
        <ele>431.4</ele>
        <time>2023-08-14T05:44:11Z</time>
      </trkpt>
      <trkpt lat="42.880463" lon="-7.943520">
        <ele>429.3</ele>
        <time>2023-08-14T05:44:26Z</time>
      </trkpt>
      <trkpt lat="42.880534" lon="-7.943756">
        <ele>428.4</ele>
        <time>2023-08-14T05:44:41Z</time>
      </trkpt>
      <trkpt lat="42.880601" lon="-7.943994">
        <ele>428.4</ele>
        <time>2023-08-14T05:44:55Z</time>
      </trkpt>
      <trkpt lat="42.880687" lon="-7.944214">
        <ele>429.4</ele>
        <time>2023-08-14T05:45:07Z</time>
      </trkpt>
      <trkpt lat="42.880667" lon="-7.944461">
        <ele>428.1</ele>
        <time>2023-08-14T05:45:23Z</time>
      </trkpt>
      <trkpt lat="42.880617" lon="-7.944702">
        <ele>425.7</ele>
        <time>2023-08-14T05:45:39Z</time>
      </trkpt>
      <trkpt lat="42.880626" lon="-7.944950">
        <ele>422.4</ele>
        <time>2023-08-14T05:45:56Z</time>
      </trkpt>
      <trkpt lat="42.880797" lon="-7.945137">
        <ele>426.4</ele>
        <time>2023-08-14T05:46:09Z</time>
      </trkpt>
      <trkpt lat="42.880890" lon="-7.945352">
        <ele>430.4</ele>
        <time>2023-08-14T05:46:25Z</time>
      </trkpt>
      <trkpt lat="42.880995" lon="-7.945564">
        <ele>430.1</ele>
        <time>2023-08-14T05:46:36Z</time>
      </trkpt>
      <trkpt lat="42.881137" lon="-7.945721">
        <ele>430.4</ele>
        <time>2023-08-14T05:46:48Z</time>
      </trkpt>
      <trkpt lat="42.881300" lon="-7.945844">
        <ele>432.1</ele>
        <time>2023-08-14T05:47:02Z</time>
      </trkpt>
      <trkpt lat="42.881416" lon="-7.946034">
        <ele>439.5</ele>
        <time>2023-08-14T05:50:39Z</time>
      </trkpt>
      <trkpt lat="42.881538" lon="-7.946229">
        <ele>442.1</ele>
        <time>2023-08-14T05:50:54Z</time>
      </trkpt>
      <trkpt lat="42.881656" lon="-7.946418">
        <ele>443.4</ele>
        <time>2023-08-14T05:51:08Z</time>
      </trkpt>
      <trkpt lat="42.881718" lon="-7.946652">
        <ele>440.4</ele>
        <time>2023-08-14T05:51:26Z</time>
      </trkpt>
      <trkpt lat="42.881741" lon="-7.946905">
        <ele>441.4</ele>
        <time>2023-08-14T05:51:40Z</time>
      </trkpt>
      <trkpt lat="42.881780" lon="-7.947150">
        <ele>438.5</ele>
        <time>2023-08-14T05:51:54Z</time>
      </trkpt>
      <trkpt lat="42.881824" lon="-7.947393">
        <ele>437.4</ele>
        <time>2023-08-14T05:52:07Z</time>
      </trkpt>
      <trkpt lat="42.881802" lon="-7.947662">
        <ele>439.1</ele>
        <time>2023-08-14T05:52:20Z</time>
      </trkpt>
      <trkpt lat="42.881835" lon="-7.947941">
        <ele>444.3</ele>
        <time>2023-08-14T05:52:32Z</time>
      </trkpt>
      <trkpt lat="42.881877" lon="-7.948149">
        <ele>447.4</ele>
        <time>2023-08-14T05:52:47Z</time>
      </trkpt>
      <trkpt lat="42.881893" lon="-7.948374">
        <ele>447.4</ele>
        <time>2023-08-14T05:53:02Z</time>
      </trkpt>
      <trkpt lat="42.881875" lon="-7.948742">
        <ele>445.4</ele>
        <time>2023-08-14T05:53:20Z</time>
      </trkpt>
      <trkpt lat="42.881793" lon="-7.948853">
        <ele>446.4</ele>
        <time>2023-08-14T05:53:34Z</time>
      </trkpt>
      <trkpt lat="42.881744" lon="-7.949096">
        <ele>448.4</ele>
        <time>2023-08-14T05:53:46Z</time>
      </trkpt>
      <trkpt lat="42.881688" lon="-7.949340">
        <ele>452.4</ele>
        <time>2023-08-14T05:53:58Z</time>
      </trkpt>
      <trkpt lat="42.881617" lon="-7.949577">
        <ele>453.4</ele>
        <time>2023-08-14T05:54:15Z</time>
      </trkpt>
      <trkpt lat="42.881548" lon="-7.949809">
        <ele>456.4</ele>
        <time>2023-08-14T05:54:28Z</time>
      </trkpt>
      <trkpt lat="42.881486" lon="-7.950040">
        <ele>458.4</ele>
        <time>2023-08-14T05:54:41Z</time>
      </trkpt>
      <trkpt lat="42.881509" lon="-7.950296">
        <ele>457.4</ele>
        <time>2023-08-14T05:54:57Z</time>
      </trkpt>
      <trkpt lat="42.881519" lon="-7.950551">
        <ele>460.4</ele>
        <time>2023-08-14T05:55:14Z</time>
      </trkpt>
      <trkpt lat="42.881523" lon="-7.950812">
        <ele>460.4</ele>
        <time>2023-08-14T05:55:28Z</time>
      </trkpt>
      <trkpt lat="42.881542" lon="-7.951045">
        <ele>458.7</ele>
        <time>2023-08-14T05:55:44Z</time>
      </trkpt>
      <trkpt lat="42.881544" lon="-7.951306">
        <ele>460.1</ele>
        <time>2023-08-14T05:56:02Z</time>
      </trkpt>
      <trkpt lat="42.881583" lon="-7.951533">
        <ele>460.4</ele>
        <time>2023-08-14T05:56:18Z</time>
      </trkpt>
      <trkpt lat="42.881592" lon="-7.951792">
        <ele>458.4</ele>
        <time>2023-08-14T05:56:45Z</time>
      </trkpt>
      <trkpt lat="42.881616" lon="-7.952039">
        <ele>460.4</ele>
        <time>2023-08-14T05:57:02Z</time>
      </trkpt>
      <trkpt lat="42.881613" lon="-7.952306">
        <ele>460.5</ele>
        <time>2023-08-14T05:57:22Z</time>
      </trkpt>
      <trkpt lat="42.881600" lon="-7.952558">
        <ele>471.7</ele>
        <time>2023-08-14T05:57:39Z</time>
      </trkpt>
      <trkpt lat="42.881581" lon="-7.952850">
        <ele>471.7</ele>
        <time>2023-08-14T05:57:57Z</time>
      </trkpt>
      <trkpt lat="42.881733" lon="-7.953042">
        <ele>471.7</ele>
        <time>2023-08-14T05:58:11Z</time>
      </trkpt>
      <trkpt lat="42.881843" lon="-7.953262">
        <ele>473.7</ele>
        <time>2023-08-14T05:58:24Z</time>
      </trkpt>
      <trkpt lat="42.881983" lon="-7.953434">
        <ele>473.7</ele>
        <time>2023-08-14T05:58:38Z</time>
      </trkpt>
      <trkpt lat="42.882098" lon="-7.953624">
        <ele>473.7</ele>
        <time>2023-08-14T05:58:51Z</time>
      </trkpt>
      <trkpt lat="42.882215" lon="-7.953827">
        <ele>473.7</ele>
        <time>2023-08-14T05:59:02Z</time>
      </trkpt>
      <trkpt lat="42.882339" lon="-7.954008">
        <ele>473.7</ele>
        <time>2023-08-14T05:59:17Z</time>
      </trkpt>
      <trkpt lat="42.882423" lon="-7.954223">
        <ele>474.6</ele>
        <time>2023-08-14T05:59:32Z</time>
      </trkpt>
      <trkpt lat="42.882493" lon="-7.954458">
        <ele>475.0</ele>
        <time>2023-08-14T05:59:46Z</time>
      </trkpt>
      <trkpt lat="42.882578" lon="-7.954686">
        <ele>475.0</ele>
        <time>2023-08-14T05:59:58Z</time>
      </trkpt>
      <trkpt lat="42.882658" lon="-7.954912">
        <ele>475.0</ele>
        <time>2023-08-14T06:00:11Z</time>
      </trkpt>
      <trkpt lat="42.882726" lon="-7.955153">
        <ele>475.0</ele>
        <time>2023-08-14T06:00:28Z</time>
      </trkpt>
      <trkpt lat="42.882821" lon="-7.955370">
        <ele>475.0</ele>
        <time>2023-08-14T06:00:41Z</time>
      </trkpt>
      <trkpt lat="42.882941" lon="-7.955553">
        <ele>475.0</ele>
        <time>2023-08-14T06:00:52Z</time>
      </trkpt>
      <trkpt lat="42.883066" lon="-7.955736">
        <ele>475.0</ele>
        <time>2023-08-14T06:01:06Z</time>
      </trkpt>
      <trkpt lat="42.883193" lon="-7.955918">
        <ele>475.0</ele>
        <time>2023-08-14T06:01:22Z</time>
      </trkpt>
      <trkpt lat="42.883316" lon="-7.956101">
        <ele>475.4</ele>
        <time>2023-08-14T06:01:36Z</time>
      </trkpt>
      <trkpt lat="42.883450" lon="-7.956280">
        <ele>475.4</ele>
        <time>2023-08-14T06:01:50Z</time>
      </trkpt>
      <trkpt lat="42.883576" lon="-7.956459">
        <ele>476.4</ele>
        <time>2023-08-14T06:02:05Z</time>
      </trkpt>
      <trkpt lat="42.883737" lon="-7.956600">
        <ele>480.0</ele>
        <time>2023-08-14T06:02:21Z</time>
      </trkpt>
      <trkpt lat="42.883878" lon="-7.956771">
        <ele>480.0</ele>
        <time>2023-08-14T06:02:34Z</time>
      </trkpt>
      <trkpt lat="42.883997" lon="-7.956944">
        <ele>479.9</ele>
        <time>2023-08-14T06:02:48Z</time>
      </trkpt>
      <trkpt lat="42.884141" lon="-7.957112">
        <ele>477.4</ele>
        <time>2023-08-14T06:03:03Z</time>
      </trkpt>
      <trkpt lat="42.884247" lon="-7.957333">
        <ele>475.7</ele>
        <time>2023-08-14T06:03:19Z</time>
      </trkpt>
      <trkpt lat="42.884318" lon="-7.957566">
        <ele>472.5</ele>
        <time>2023-08-14T06:03:34Z</time>
      </trkpt>
      <trkpt lat="42.884420" lon="-7.957777">
        <ele>473.4</ele>
        <time>2023-08-14T06:03:48Z</time>
      </trkpt>
      <trkpt lat="42.884524" lon="-7.958037">
        <ele>478.2</ele>
        <time>2023-08-14T06:04:03Z</time>
      </trkpt>
      <trkpt lat="42.884603" lon="-7.958234">
        <ele>478.2</ele>
        <time>2023-08-14T06:04:20Z</time>
      </trkpt>
      <trkpt lat="42.884813" lon="-7.958345">
        <ele>479.1</ele>
        <time>2023-08-14T06:04:35Z</time>
      </trkpt>
      <trkpt lat="42.884817" lon="-7.958600">
        <ele>479.1</ele>
        <time>2023-08-14T06:05:05Z</time>
      </trkpt>
      <trkpt lat="42.884838" lon="-7.958864">
        <ele>478.7</ele>
        <time>2023-08-14T06:05:25Z</time>
      </trkpt>
      <trkpt lat="42.884932" lon="-7.959087">
        <ele>478.7</ele>
        <time>2023-08-14T06:05:38Z</time>
      </trkpt>
      <trkpt lat="42.885007" lon="-7.959282">
        <ele>478.7</ele>
        <time>2023-08-14T06:05:49Z</time>
      </trkpt>
      <trkpt lat="42.885027" lon="-7.959541">
        <ele>478.7</ele>
        <time>2023-08-14T06:06:03Z</time>
      </trkpt>
      <trkpt lat="42.885079" lon="-7.959786">
        <ele>478.7</ele>
        <time>2023-08-14T06:06:18Z</time>
      </trkpt>
      <trkpt lat="42.885196" lon="-7.959982">
        <ele>478.7</ele>
        <time>2023-08-14T06:08:17Z</time>
      </trkpt>
      <trkpt lat="42.885261" lon="-7.960213">
        <ele>476.5</ele>
        <time>2023-08-14T06:08:32Z</time>
      </trkpt>
      <trkpt lat="42.885352" lon="-7.960428">
        <ele>478.7</ele>
        <time>2023-08-14T06:08:48Z</time>
      </trkpt>
      <trkpt lat="42.885452" lon="-7.960638">
        <ele>478.7</ele>
        <time>2023-08-14T06:09:01Z</time>
      </trkpt>
      <trkpt lat="42.885558" lon="-7.960837">
        <ele>476.9</ele>
        <time>2023-08-14T06:09:15Z</time>
      </trkpt>
      <trkpt lat="42.885667" lon="-7.961040">
        <ele>476.4</ele>
        <time>2023-08-14T06:09:29Z</time>
      </trkpt>
      <trkpt lat="42.885763" lon="-7.961265">
        <ele>476.4</ele>
        <time>2023-08-14T06:09:46Z</time>
      </trkpt>
      <trkpt lat="42.885842" lon="-7.961499">
        <ele>474.4</ele>
        <time>2023-08-14T06:09:58Z</time>
      </trkpt>
      <trkpt lat="42.885925" lon="-7.961737">
        <ele>473.4</ele>
        <time>2023-08-14T06:10:12Z</time>
      </trkpt>
      <trkpt lat="42.885988" lon="-7.961973">
        <ele>472.4</ele>
        <time>2023-08-14T06:10:26Z</time>
      </trkpt>
      <trkpt lat="42.886074" lon="-7.962197">
        <ele>472.1</ele>
        <time>2023-08-14T06:10:40Z</time>
      </trkpt>
      <trkpt lat="42.886158" lon="-7.962432">
        <ele>466.7</ele>
        <time>2023-08-14T06:10:54Z</time>
      </trkpt>
      <trkpt lat="42.886238" lon="-7.962664">
        <ele>459.7</ele>
        <time>2023-08-14T06:11:08Z</time>
      </trkpt>
      <trkpt lat="42.886343" lon="-7.962882">
        <ele>459.7</ele>
        <time>2023-08-14T06:11:22Z</time>
      </trkpt>
      <trkpt lat="42.886424" lon="-7.963103">
        <ele>459.7</ele>
        <time>2023-08-14T06:11:36Z</time>
      </trkpt>
      <trkpt lat="42.886541" lon="-7.963300">
        <ele>460.1</ele>
        <time>2023-08-14T06:12:45Z</time>
      </trkpt>
      <trkpt lat="42.886658" lon="-7.963498">
        <ele>459.4</ele>
        <time>2023-08-14T06:13:00Z</time>
      </trkpt>
      <trkpt lat="42.886681" lon="-7.963749">
        <ele>457.7</ele>
        <time>2023-08-14T06:13:14Z</time>
      </trkpt>
      <trkpt lat="42.886704" lon="-7.963996">
        <ele>456.4</ele>
        <time>2023-08-14T06:13:31Z</time>
      </trkpt>
      <trkpt lat="42.886794" lon="-7.964220">
        <ele>457.5</ele>
        <time>2023-08-14T06:13:45Z</time>
      </trkpt>
      <trkpt lat="42.886936" lon="-7.964389">
        <ele>453.4</ele>
        <time>2023-08-14T06:13:59Z</time>
      </trkpt>
      <trkpt lat="42.887054" lon="-7.964594">
        <ele>452.4</ele>
        <time>2023-08-14T06:14:14Z</time>
      </trkpt>
      <trkpt lat="42.887180" lon="-7.964771">
        <ele>450.5</ele>
        <time>2023-08-14T06:14:27Z</time>
      </trkpt>
      <trkpt lat="42.887314" lon="-7.964955">
        <ele>450.5</ele>
        <time>2023-08-14T06:14:51Z</time>
      </trkpt>
      <trkpt lat="42.887460" lon="-7.965121">
        <ele>450.5</ele>
        <time>2023-08-14T06:15:45Z</time>
      </trkpt>
      <trkpt lat="42.887574" lon="-7.965327">
        <ele>449.8</ele>
        <time>2023-08-14T06:16:13Z</time>
      </trkpt>
      <trkpt lat="42.887690" lon="-7.965519">
        <ele>448.4</ele>
        <time>2023-08-14T06:16:44Z</time>
      </trkpt>
      <trkpt lat="42.887838" lon="-7.965686">
        <ele>449.3</ele>
        <time>2023-08-14T06:16:57Z</time>
      </trkpt>
      <trkpt lat="42.887982" lon="-7.965849">
        <ele>448.9</ele>
        <time>2023-08-14T06:17:13Z</time>
      </trkpt>
      <trkpt lat="42.888107" lon="-7.966042">
        <ele>448.0</ele>
        <time>2023-08-14T06:18:24Z</time>
      </trkpt>
      <trkpt lat="42.888233" lon="-7.966246">
        <ele>448.0</ele>
        <time>2023-08-14T06:18:40Z</time>
      </trkpt>
      <trkpt lat="42.888392" lon="-7.966374">
        <ele>448.0</ele>
        <time>2023-08-14T06:18:54Z</time>
      </trkpt>
      <trkpt lat="42.888561" lon="-7.966485">
        <ele>448.0</ele>
        <time>2023-08-14T06:19:10Z</time>
      </trkpt>
      <trkpt lat="42.888730" lon="-7.966587">
        <ele>448.0</ele>
        <time>2023-08-14T06:19:24Z</time>
      </trkpt>
      <trkpt lat="42.888908" lon="-7.966680">
        <ele>445.3</ele>
        <time>2023-08-14T06:19:38Z</time>
      </trkpt>
      <trkpt lat="42.889095" lon="-7.966757">
        <ele>445.3</ele>
        <time>2023-08-14T06:19:51Z</time>
      </trkpt>
      <trkpt lat="42.889265" lon="-7.966844">
        <ele>443.5</ele>
        <time>2023-08-14T06:20:05Z</time>
      </trkpt>
      <trkpt lat="42.889441" lon="-7.966926">
        <ele>440.7</ele>
        <time>2023-08-14T06:20:20Z</time>
      </trkpt>
      <trkpt lat="42.889599" lon="-7.967057">
        <ele>440.4</ele>
        <time>2023-08-14T06:20:43Z</time>
      </trkpt>
      <trkpt lat="42.889728" lon="-7.967228">
        <ele>440.4</ele>
        <time>2023-08-14T06:21:08Z</time>
      </trkpt>
      <trkpt lat="42.889849" lon="-7.967417">
        <ele>438.5</ele>
        <time>2023-08-14T06:21:23Z</time>
      </trkpt>
      <trkpt lat="42.889935" lon="-7.967652">
        <ele>439.4</ele>
        <time>2023-08-14T06:21:37Z</time>
      </trkpt>
      <trkpt lat="42.889980" lon="-7.967896">
        <ele>439.4</ele>
        <time>2023-08-14T06:21:51Z</time>
      </trkpt>
      <trkpt lat="42.890007" lon="-7.968151">
        <ele>437.4</ele>
        <time>2023-08-14T06:22:06Z</time>
      </trkpt>
      <trkpt lat="42.890040" lon="-7.968403">
        <ele>439.4</ele>
        <time>2023-08-14T06:22:21Z</time>
      </trkpt>
      <trkpt lat="42.890058" lon="-7.968667">
        <ele>438.3</ele>
        <time>2023-08-14T06:22:37Z</time>
      </trkpt>
      <trkpt lat="42.890160" lon="-7.968884">
        <ele>441.4</ele>
        <time>2023-08-14T06:22:51Z</time>
      </trkpt>
      <trkpt lat="42.890285" lon="-7.969068">
        <ele>438.7</ele>
        <time>2023-08-14T06:23:06Z</time>
      </trkpt>
      <trkpt lat="42.890431" lon="-7.969218">
        <ele>439.0</ele>
        <time>2023-08-14T06:23:21Z</time>
      </trkpt>
      <trkpt lat="42.890587" lon="-7.969360">
        <ele>438.7</ele>
        <time>2023-08-14T06:23:35Z</time>
      </trkpt>
      <trkpt lat="42.890745" lon="-7.969513">
        <ele>439.0</ele>
        <time>2023-08-14T06:23:48Z</time>
      </trkpt>
      <trkpt lat="42.890912" lon="-7.969616">
        <ele>443.4</ele>
        <time>2023-08-14T06:24:01Z</time>
      </trkpt>
      <trkpt lat="42.891045" lon="-7.969795">
        <ele>448.4</ele>
        <time>2023-08-14T06:24:30Z</time>
      </trkpt>
      <trkpt lat="42.891172" lon="-7.969980">
        <ele>447.2</ele>
        <time>2023-08-14T06:24:45Z</time>
      </trkpt>
      <trkpt lat="42.891302" lon="-7.970150">
        <ele>447.3</ele>
        <time>2023-08-14T06:24:59Z</time>
      </trkpt>
      <trkpt lat="42.891427" lon="-7.970331">
        <ele>450.1</ele>
        <time>2023-08-14T06:25:11Z</time>
      </trkpt>
      <trkpt lat="42.891561" lon="-7.970499">
        <ele>452.1</ele>
        <time>2023-08-14T06:25:23Z</time>
      </trkpt>
      <trkpt lat="42.891705" lon="-7.970669">
        <ele>453.1</ele>
        <time>2023-08-14T06:25:36Z</time>
      </trkpt>
      <trkpt lat="42.891840" lon="-7.970853">
        <ele>454.3</ele>
        <time>2023-08-14T06:25:50Z</time>
      </trkpt>
      <trkpt lat="42.891973" lon="-7.971029">
        <ele>455.4</ele>
        <time>2023-08-14T06:26:04Z</time>
      </trkpt>
      <trkpt lat="42.892098" lon="-7.971223">
        <ele>454.4</ele>
        <time>2023-08-14T06:26:29Z</time>
      </trkpt>
      <trkpt lat="42.892242" lon="-7.971403">
        <ele>456.4</ele>
        <time>2023-08-14T06:26:44Z</time>
      </trkpt>
      <trkpt lat="42.892395" lon="-7.971558">
        <ele>457.4</ele>
        <time>2023-08-14T06:26:59Z</time>
      </trkpt>
      <trkpt lat="42.892551" lon="-7.971691">
        <ele>462.4</ele>
        <time>2023-08-14T06:27:22Z</time>
      </trkpt>
      <trkpt lat="42.892684" lon="-7.971880">
        <ele>461.3</ele>
        <time>2023-08-14T06:27:41Z</time>
      </trkpt>
      <trkpt lat="42.892807" lon="-7.972077">
        <ele>462.3</ele>
        <time>2023-08-14T06:27:56Z</time>
      </trkpt>
      <trkpt lat="42.892943" lon="-7.972247">
        <ele>461.7</ele>
        <time>2023-08-14T06:28:09Z</time>
      </trkpt>
      <trkpt lat="42.893074" lon="-7.972438">
        <ele>463.4</ele>
        <time>2023-08-14T06:28:24Z</time>
      </trkpt>
      <trkpt lat="42.893195" lon="-7.972632">
        <ele>464.4</ele>
        <time>2023-08-14T06:28:37Z</time>
      </trkpt>
      <trkpt lat="42.893321" lon="-7.972827">
        <ele>465.4</ele>
        <time>2023-08-14T06:28:50Z</time>
      </trkpt>
      <trkpt lat="42.893448" lon="-7.973023">
        <ele>467.4</ele>
        <time>2023-08-14T06:29:04Z</time>
      </trkpt>
      <trkpt lat="42.893553" lon="-7.973285">
        <ele>469.1</ele>
        <time>2023-08-14T06:29:18Z</time>
      </trkpt>
      <trkpt lat="42.893740" lon="-7.973331">
        <ele>468.4</ele>
        <time>2023-08-14T06:29:33Z</time>
      </trkpt>
      <trkpt lat="42.893890" lon="-7.973477">
        <ele>467.7</ele>
        <time>2023-08-14T06:29:50Z</time>
      </trkpt>
      <trkpt lat="42.894001" lon="-7.973679">
        <ele>468.4</ele>
        <time>2023-08-14T06:30:04Z</time>
      </trkpt>
      <trkpt lat="42.894105" lon="-7.973895">
        <ele>464.4</ele>
        <time>2023-08-14T06:30:19Z</time>
      </trkpt>
      <trkpt lat="42.894217" lon="-7.974105">
        <ele>463.4</ele>
        <time>2023-08-14T06:30:32Z</time>
      </trkpt>
      <trkpt lat="42.894267" lon="-7.974350">
        <ele>461.4</ele>
        <time>2023-08-14T06:30:46Z</time>
      </trkpt>
      <trkpt lat="42.894219" lon="-7.974584">
        <ele>463.4</ele>
        <time>2023-08-14T06:31:01Z</time>
      </trkpt>
      <trkpt lat="42.894102" lon="-7.974792">
        <ele>464.4</ele>
        <time>2023-08-14T06:31:15Z</time>
      </trkpt>
      <trkpt lat="42.893972" lon="-7.974971">
        <ele>463.4</ele>
        <time>2023-08-14T06:31:32Z</time>
      </trkpt>
      <trkpt lat="42.893872" lon="-7.975180">
        <ele>460.4</ele>
        <time>2023-08-14T06:31:45Z</time>
      </trkpt>
      <trkpt lat="42.893781" lon="-7.975393">
        <ele>460.4</ele>
        <time>2023-08-14T06:31:56Z</time>
      </trkpt>
      <trkpt lat="42.893688" lon="-7.975614">
        <ele>462.4</ele>
        <time>2023-08-14T06:32:09Z</time>
      </trkpt>
      <trkpt lat="42.893607" lon="-7.975842">
        <ele>462.4</ele>
        <time>2023-08-14T06:32:23Z</time>
      </trkpt>
      <trkpt lat="42.893567" lon="-7.976083">
        <ele>460.5</ele>
        <time>2023-08-14T06:32:37Z</time>
      </trkpt>
      <trkpt lat="42.893699" lon="-7.976277">
        <ele>461.1</ele>
        <time>2023-08-14T06:32:51Z</time>
      </trkpt>
      <trkpt lat="42.893853" lon="-7.976429">
        <ele>462.2</ele>
        <time>2023-08-14T06:33:04Z</time>
      </trkpt>
      <trkpt lat="42.893994" lon="-7.976605">
        <ele>463.4</ele>
        <time>2023-08-14T06:33:19Z</time>
      </trkpt>
      <trkpt lat="42.894129" lon="-7.976778">
        <ele>461.8</ele>
        <time>2023-08-14T06:33:34Z</time>
      </trkpt>
      <trkpt lat="42.894259" lon="-7.976974">
        <ele>460.5</ele>
        <time>2023-08-14T06:33:50Z</time>
      </trkpt>
      <trkpt lat="42.894388" lon="-7.977150">
        <ele>458.0</ele>
        <time>2023-08-14T06:34:05Z</time>
      </trkpt>
      <trkpt lat="42.894518" lon="-7.977336">
        <ele>458.0</ele>
        <time>2023-08-14T06:34:19Z</time>
      </trkpt>
      <trkpt lat="42.894662" lon="-7.977498">
        <ele>458.0</ele>
        <time>2023-08-14T06:34:33Z</time>
      </trkpt>
      <trkpt lat="42.894811" lon="-7.977647">
        <ele>458.0</ele>
        <time>2023-08-14T06:34:47Z</time>
      </trkpt>
      <trkpt lat="42.894948" lon="-7.977806">
        <ele>458.0</ele>
        <time>2023-08-14T06:35:01Z</time>
      </trkpt>
      <trkpt lat="42.895095" lon="-7.977956">
        <ele>458.0</ele>
        <time>2023-08-14T06:35:14Z</time>
      </trkpt>
      <trkpt lat="42.895248" lon="-7.978102">
        <ele>458.0</ele>
        <time>2023-08-14T06:35:30Z</time>
      </trkpt>
      <trkpt lat="42.895387" lon="-7.978260">
        <ele>458.0</ele>
        <time>2023-08-14T06:35:46Z</time>
      </trkpt>
      <trkpt lat="42.895540" lon="-7.978403">
        <ele>458.0</ele>
        <time>2023-08-14T06:36:02Z</time>
      </trkpt>
      <trkpt lat="42.895692" lon="-7.978556">
        <ele>453.5</ele>
        <time>2023-08-14T06:36:16Z</time>
      </trkpt>
      <trkpt lat="42.895837" lon="-7.978710">
        <ele>453.5</ele>
        <time>2023-08-14T06:36:28Z</time>
      </trkpt>
      <trkpt lat="42.895978" lon="-7.978865">
        <ele>453.5</ele>
        <time>2023-08-14T06:36:39Z</time>
      </trkpt>
      <trkpt lat="42.896129" lon="-7.979017">
        <ele>453.5</ele>
        <time>2023-08-14T06:36:50Z</time>
      </trkpt>
      <trkpt lat="42.896271" lon="-7.979195">
        <ele>453.5</ele>
        <time>2023-08-14T06:37:03Z</time>
      </trkpt>
      <trkpt lat="42.896408" lon="-7.979368">
        <ele>453.5</ele>
        <time>2023-08-14T06:37:45Z</time>
      </trkpt>
      <trkpt lat="42.896527" lon="-7.979571">
        <ele>454.5</ele>
        <time>2023-08-14T06:37:58Z</time>
      </trkpt>
      <trkpt lat="42.896650" lon="-7.979764">
        <ele>453.5</ele>
        <time>2023-08-14T06:38:10Z</time>
      </trkpt>
      <trkpt lat="42.896792" lon="-7.979932">
        <ele>449.8</ele>
        <time>2023-08-14T06:38:24Z</time>
      </trkpt>
      <trkpt lat="42.896946" lon="-7.980065">
        <ele>453.5</ele>
        <time>2023-08-14T06:38:37Z</time>
      </trkpt>
      <trkpt lat="42.897095" lon="-7.980212">
        <ele>453.5</ele>
        <time>2023-08-14T06:38:49Z</time>
      </trkpt>
      <trkpt lat="42.897247" lon="-7.980355">
        <ele>449.9</ele>
        <time>2023-08-14T06:39:03Z</time>
      </trkpt>
      <trkpt lat="42.897402" lon="-7.980491">
        <ele>449.8</ele>
        <time>2023-08-14T06:39:16Z</time>
      </trkpt>
      <trkpt lat="42.897564" lon="-7.980625">
        <ele>453.5</ele>
        <time>2023-08-14T06:39:30Z</time>
      </trkpt>
      <trkpt lat="42.897704" lon="-7.980802">
        <ele>449.8</ele>
        <time>2023-08-14T06:39:42Z</time>
      </trkpt>
      <trkpt lat="42.897821" lon="-7.981010">
        <ele>453.5</ele>
        <time>2023-08-14T06:39:56Z</time>
      </trkpt>
      <trkpt lat="42.897918" lon="-7.981233">
        <ele>449.8</ele>
        <time>2023-08-14T06:40:10Z</time>
      </trkpt>
      <trkpt lat="42.898041" lon="-7.981436">
        <ele>453.5</ele>
        <time>2023-08-14T06:40:24Z</time>
      </trkpt>
      <trkpt lat="42.898141" lon="-7.981648">
        <ele>448.8</ele>
        <time>2023-08-14T06:40:40Z</time>
      </trkpt>
      <trkpt lat="42.898232" lon="-7.981865">
        <ele>449.5</ele>
        <time>2023-08-14T06:40:54Z</time>
      </trkpt>
      <trkpt lat="42.898315" lon="-7.982092">
        <ele>449.5</ele>
        <time>2023-08-14T06:41:09Z</time>
      </trkpt>
      <trkpt lat="42.898399" lon="-7.982309">
        <ele>449.5</ele>
        <time>2023-08-14T06:41:21Z</time>
      </trkpt>
      <trkpt lat="42.898498" lon="-7.982530">
        <ele>449.5</ele>
        <time>2023-08-14T06:41:34Z</time>
      </trkpt>
      <trkpt lat="42.898603" lon="-7.982731">
        <ele>449.5</ele>
        <time>2023-08-14T06:41:47Z</time>
      </trkpt>
      <trkpt lat="42.898732" lon="-7.982919">
        <ele>449.5</ele>
        <time>2023-08-14T06:42:01Z</time>
      </trkpt>
      <trkpt lat="42.898834" lon="-7.983126">
        <ele>449.5</ele>
        <time>2023-08-14T06:42:15Z</time>
      </trkpt>
      <trkpt lat="42.898943" lon="-7.983334">
        <ele>450.8</ele>
        <time>2023-08-14T06:42:28Z</time>
      </trkpt>
      <trkpt lat="42.899051" lon="-7.983538">
        <ele>450.8</ele>
        <time>2023-08-14T06:42:42Z</time>
      </trkpt>
      <trkpt lat="42.899154" lon="-7.983760">
        <ele>450.8</ele>
        <time>2023-08-14T06:42:56Z</time>
      </trkpt>
      <trkpt lat="42.899257" lon="-7.983963">
        <ele>450.8</ele>
        <time>2023-08-14T06:43:09Z</time>
      </trkpt>
      <trkpt lat="42.899379" lon="-7.984162">
        <ele>450.8</ele>
        <time>2023-08-14T06:43:22Z</time>
      </trkpt>
      <trkpt lat="42.899494" lon="-7.984371">
        <ele>450.8</ele>
        <time>2023-08-14T06:43:36Z</time>
      </trkpt>
      <trkpt lat="42.899606" lon="-7.984568">
        <ele>451.1</ele>
        <time>2023-08-14T06:43:50Z</time>
      </trkpt>
      <trkpt lat="42.899707" lon="-7.984781">
        <ele>451.1</ele>
        <time>2023-08-14T06:44:04Z</time>
      </trkpt>
      <trkpt lat="42.899817" lon="-7.984997">
        <ele>451.1</ele>
        <time>2023-08-14T06:44:17Z</time>
      </trkpt>
      <trkpt lat="42.899923" lon="-7.985208">
        <ele>452.6</ele>
        <time>2023-08-14T06:44:37Z</time>
      </trkpt>
      <trkpt lat="42.900029" lon="-7.985418">
        <ele>452.7</ele>
        <time>2023-08-14T06:44:51Z</time>
      </trkpt>
      <trkpt lat="42.900146" lon="-7.985613">
        <ele>452.7</ele>
        <time>2023-08-14T06:45:24Z</time>
      </trkpt>
      <trkpt lat="42.900260" lon="-7.985816">
        <ele>453.4</ele>
        <time>2023-08-14T06:45:42Z</time>
      </trkpt>
      <trkpt lat="42.900391" lon="-7.985999">
        <ele>452.7</ele>
        <time>2023-08-14T06:45:54Z</time>
      </trkpt>
      <trkpt lat="42.900540" lon="-7.986165">
        <ele>452.7</ele>
        <time>2023-08-14T06:46:06Z</time>
      </trkpt>
      <trkpt lat="42.900674" lon="-7.986338">
        <ele>452.7</ele>
        <time>2023-08-14T06:46:18Z</time>
      </trkpt>
      <trkpt lat="42.900777" lon="-7.986542">
        <ele>452.7</ele>
        <time>2023-08-14T06:46:31Z</time>
      </trkpt>
      <trkpt lat="42.900883" lon="-7.986766">
        <ele>452.7</ele>
        <time>2023-08-14T06:46:46Z</time>
      </trkpt>
      <trkpt lat="42.900988" lon="-7.986966">
        <ele>452.7</ele>
        <time>2023-08-14T06:46:59Z</time>
      </trkpt>
      <trkpt lat="42.901102" lon="-7.987165">
        <ele>452.7</ele>
        <time>2023-08-14T06:47:12Z</time>
      </trkpt>
      <trkpt lat="42.901220" lon="-7.987366">
        <ele>456.4</ele>
        <time>2023-08-14T06:47:26Z</time>
      </trkpt>
      <trkpt lat="42.901337" lon="-7.987570">
        <ele>455.4</ele>
        <time>2023-08-14T06:47:42Z</time>
      </trkpt>
      <trkpt lat="42.901447" lon="-7.987768">
        <ele>456.7</ele>
        <time>2023-08-14T06:47:56Z</time>
      </trkpt>
      <trkpt lat="42.901535" lon="-7.987985">
        <ele>453.4</ele>
        <time>2023-08-14T06:48:10Z</time>
      </trkpt>
      <trkpt lat="42.901643" lon="-7.988181">
        <ele>454.4</ele>
        <time>2023-08-14T06:48:22Z</time>
      </trkpt>
      <trkpt lat="42.901748" lon="-7.988386">
        <ele>452.7</ele>
        <time>2023-08-14T06:48:37Z</time>
      </trkpt>
      <trkpt lat="42.901859" lon="-7.988591">
        <ele>452.4</ele>
        <time>2023-08-14T06:48:52Z</time>
      </trkpt>
      <trkpt lat="42.901928" lon="-7.988824">
        <ele>452.5</ele>
        <time>2023-08-14T06:50:33Z</time>
      </trkpt>
      <trkpt lat="42.902038" lon="-7.989019">
        <ele>454.4</ele>
        <time>2023-08-14T06:51:46Z</time>
      </trkpt>
      <trkpt lat="42.902139" lon="-7.989225">
        <ele>451.5</ele>
        <time>2023-08-14T06:51:59Z</time>
      </trkpt>
      <trkpt lat="42.902244" lon="-7.989441">
        <ele>450.4</ele>
        <time>2023-08-14T06:52:13Z</time>
      </trkpt>
      <trkpt lat="42.902365" lon="-7.989628">
        <ele>452.4</ele>
        <time>2023-08-14T06:52:26Z</time>
      </trkpt>
      <trkpt lat="42.902487" lon="-7.989824">
        <ele>450.5</ele>
        <time>2023-08-14T06:52:43Z</time>
      </trkpt>
      <trkpt lat="42.902602" lon="-7.990031">
        <ele>448.4</ele>
        <time>2023-08-14T06:52:57Z</time>
      </trkpt>
      <trkpt lat="42.902682" lon="-7.990254">
        <ele>448.4</ele>
        <time>2023-08-14T06:53:13Z</time>
      </trkpt>
      <trkpt lat="42.902739" lon="-7.990490">
        <ele>448.6</ele>
        <time>2023-08-14T06:53:26Z</time>
      </trkpt>
      <trkpt lat="42.902787" lon="-7.990731">
        <ele>447.4</ele>
        <time>2023-08-14T06:53:41Z</time>
      </trkpt>
      <trkpt lat="42.902768" lon="-7.990978">
        <ele>445.7</ele>
        <time>2023-08-14T06:53:55Z</time>
      </trkpt>
      <trkpt lat="42.902745" lon="-7.991228">
        <ele>444.1</ele>
        <time>2023-08-14T06:54:10Z</time>
      </trkpt>
      <trkpt lat="42.902824" lon="-7.991454">
        <ele>445.4</ele>
        <time>2023-08-14T06:54:22Z</time>
      </trkpt>
      <trkpt lat="42.902920" lon="-7.991687">
        <ele>444.4</ele>
        <time>2023-08-14T06:54:36Z</time>
      </trkpt>
      <trkpt lat="42.903014" lon="-7.991914">
        <ele>442.5</ele>
        <time>2023-08-14T06:54:50Z</time>
      </trkpt>
      <trkpt lat="42.903125" lon="-7.992123">
        <ele>441.4</ele>
        <time>2023-08-14T06:55:05Z</time>
      </trkpt>
      <trkpt lat="42.903231" lon="-7.992331">
        <ele>443.4</ele>
        <time>2023-08-14T06:55:19Z</time>
      </trkpt>
      <trkpt lat="42.903372" lon="-7.992515">
        <ele>440.4</ele>
        <time>2023-08-14T06:55:34Z</time>
      </trkpt>
      <trkpt lat="42.903480" lon="-7.992722">
        <ele>440.4</ele>
        <time>2023-08-14T06:55:48Z</time>
      </trkpt>
      <trkpt lat="42.903585" lon="-7.992938">
        <ele>440.1</ele>
        <time>2023-08-14T06:56:02Z</time>
      </trkpt>
      <trkpt lat="42.903689" lon="-7.993152">
        <ele>442.2</ele>
        <time>2023-08-14T06:56:20Z</time>
      </trkpt>
      <trkpt lat="42.903787" lon="-7.993367">
        <ele>445.4</ele>
        <time>2023-08-14T06:56:37Z</time>
      </trkpt>
      <trkpt lat="42.903866" lon="-7.993595">
        <ele>445.2</ele>
        <time>2023-08-14T06:56:51Z</time>
      </trkpt>
      <trkpt lat="42.903935" lon="-7.993827">
        <ele>444.4</ele>
        <time>2023-08-14T06:57:05Z</time>
      </trkpt>
      <trkpt lat="42.904013" lon="-7.994051">
        <ele>442.4</ele>
        <time>2023-08-14T06:57:18Z</time>
      </trkpt>
      <trkpt lat="42.904105" lon="-7.994265">
        <ele>447.3</ele>
        <time>2023-08-14T06:57:33Z</time>
      </trkpt>
      <trkpt lat="42.904170" lon="-7.994498">
        <ele>452.4</ele>
        <time>2023-08-14T06:57:49Z</time>
      </trkpt>
      <trkpt lat="42.904239" lon="-7.994742">
        <ele>453.4</ele>
        <time>2023-08-14T06:58:05Z</time>
      </trkpt>
      <trkpt lat="42.904352" lon="-7.994938">
        <ele>452.4</ele>
        <time>2023-08-14T06:58:19Z</time>
      </trkpt>
      <trkpt lat="42.904510" lon="-7.995068">
        <ele>455.4</ele>
        <time>2023-08-14T06:59:31Z</time>
      </trkpt>
      <trkpt lat="42.904663" lon="-7.995239">
        <ele>455.4</ele>
        <time>2023-08-14T06:59:46Z</time>
      </trkpt>
      <trkpt lat="42.904799" lon="-7.995409">
        <ele>456.4</ele>
        <time>2023-08-14T07:00:01Z</time>
      </trkpt>
      <trkpt lat="42.904946" lon="-7.995551">
        <ele>457.4</ele>
        <time>2023-08-14T07:00:13Z</time>
      </trkpt>
      <trkpt lat="42.905108" lon="-7.995694">
        <ele>456.4</ele>
        <time>2023-08-14T07:00:27Z</time>
      </trkpt>
      <trkpt lat="42.905245" lon="-7.995879">
        <ele>453.4</ele>
        <time>2023-08-14T07:00:43Z</time>
      </trkpt>
      <trkpt lat="42.905406" lon="-7.996022">
        <ele>453.4</ele>
        <time>2023-08-14T07:00:59Z</time>
      </trkpt>
      <trkpt lat="42.905587" lon="-7.996091">
        <ele>434.6</ele>
        <time>2023-08-14T07:01:15Z</time>
      </trkpt>
      <trkpt lat="42.905762" lon="-7.996199">
        <ele>427.4</ele>
        <time>2023-08-14T07:01:32Z</time>
      </trkpt>
      <trkpt lat="42.905941" lon="-7.996286">
        <ele>427.4</ele>
        <time>2023-08-14T07:02:03Z</time>
      </trkpt>
      <trkpt lat="42.906098" lon="-7.996422">
        <ele>427.4</ele>
        <time>2023-08-14T07:02:20Z</time>
      </trkpt>
      <trkpt lat="42.906261" lon="-7.996546">
        <ele>444.1</ele>
        <time>2023-08-14T07:02:49Z</time>
      </trkpt>
      <trkpt lat="42.906433" lon="-7.996649">
        <ele>440.7</ele>
        <time>2023-08-14T07:03:12Z</time>
      </trkpt>
      <trkpt lat="42.906611" lon="-7.996722">
        <ele>440.4</ele>
        <time>2023-08-14T07:03:25Z</time>
      </trkpt>
      <trkpt lat="42.906794" lon="-7.996724">
        <ele>436.5</ele>
        <time>2023-08-14T07:03:40Z</time>
      </trkpt>
      <trkpt lat="42.906969" lon="-7.996794">
        <ele>431.5</ele>
        <time>2023-08-14T07:03:54Z</time>
      </trkpt>
      <trkpt lat="42.907129" lon="-7.996930">
        <ele>430.5</ele>
        <time>2023-08-14T07:04:09Z</time>
      </trkpt>
      <trkpt lat="42.907285" lon="-7.997054">
        <ele>430.1</ele>
        <time>2023-08-14T07:04:26Z</time>
      </trkpt>
      <trkpt lat="42.907470" lon="-7.997108">
        <ele>430.4</ele>
        <time>2023-08-14T07:04:38Z</time>
      </trkpt>
      <trkpt lat="42.907642" lon="-7.997220">
        <ele>429.5</ele>
        <time>2023-08-14T07:04:50Z</time>
      </trkpt>
      <trkpt lat="42.907797" lon="-7.997373">
        <ele>428.4</ele>
        <time>2023-08-14T07:05:03Z</time>
      </trkpt>
      <trkpt lat="42.907948" lon="-7.997511">
        <ele>425.7</ele>
        <time>2023-08-14T07:05:18Z</time>
      </trkpt>
      <trkpt lat="42.908080" lon="-7.997696">
        <ele>412.0</ele>
        <time>2023-08-14T07:05:32Z</time>
      </trkpt>
      <trkpt lat="42.908174" lon="-7.997924">
        <ele>436.4</ele>
        <time>2023-08-14T07:05:48Z</time>
      </trkpt>
      <trkpt lat="42.908190" lon="-7.998139">
        <ele>413.1</ele>
        <time>2023-08-14T07:06:32Z</time>
      </trkpt>
      <trkpt lat="42.908179" lon="-7.998394">
        <ele>411.1</ele>
        <time>2023-08-14T07:07:30Z</time>
      </trkpt>
      <trkpt lat="42.908184" lon="-7.998768">
        <ele>409.2</ele>
        <time>2023-08-14T07:08:04Z</time>
      </trkpt>
      <trkpt lat="42.908337" lon="-7.998767">
        <ele>409.2</ele>
        <time>2023-08-14T07:19:01Z</time>
      </trkpt>
      <trkpt lat="42.908530" lon="-7.998771">
        <ele>414.5</ele>
        <time>2023-08-14T07:19:32Z</time>
      </trkpt>
      <trkpt lat="42.908718" lon="-7.998764">
        <ele>409.2</ele>
        <time>2023-08-14T07:19:50Z</time>
      </trkpt>
      <trkpt lat="42.908837" lon="-7.998950">
        <ele>409.2</ele>
        <time>2023-08-14T07:20:13Z</time>
      </trkpt>
      <trkpt lat="42.908927" lon="-7.999166">
        <ele>410.1</ele>
        <time>2023-08-14T07:20:39Z</time>
      </trkpt>
      <trkpt lat="42.909072" lon="-7.999314">
        <ele>410.1</ele>
        <time>2023-08-14T07:21:39Z</time>
      </trkpt>
      <trkpt lat="42.909133" lon="-7.999546">
        <ele>410.1</ele>
        <time>2023-08-14T07:21:54Z</time>
      </trkpt>
      <trkpt lat="42.909227" lon="-7.999760">
        <ele>410.0</ele>
        <time>2023-08-14T07:22:07Z</time>
      </trkpt>
      <trkpt lat="42.909238" lon="-8.000016">
        <ele>409.6</ele>
        <time>2023-08-14T07:22:23Z</time>
      </trkpt>
      <trkpt lat="42.909218" lon="-8.000282">
        <ele>409.6</ele>
        <time>2023-08-14T07:22:38Z</time>
      </trkpt>
      <trkpt lat="42.909236" lon="-8.000527">
        <ele>410.8</ele>
        <time>2023-08-14T07:22:51Z</time>
      </trkpt>
      <trkpt lat="42.909212" lon="-8.000782">
        <ele>410.8</ele>
        <time>2023-08-14T07:23:04Z</time>
      </trkpt>
      <trkpt lat="42.909208" lon="-8.001019">
        <ele>411.0</ele>
        <time>2023-08-14T07:23:17Z</time>
      </trkpt>
      <trkpt lat="42.909257" lon="-8.001109">
        <ele>411.0</ele>
        <time>2023-08-14T07:23:32Z</time>
      </trkpt>
      <trkpt lat="42.909241" lon="-8.001431">
        <ele>411.0</ele>
        <time>2023-08-14T07:23:47Z</time>
      </trkpt>
      <trkpt lat="42.909144" lon="-8.001702">
        <ele>411.0</ele>
        <time>2023-08-14T07:24:01Z</time>
      </trkpt>
      <trkpt lat="42.909036" lon="-8.002006">
        <ele>411.0</ele>
        <time>2023-08-14T07:24:14Z</time>
      </trkpt>
      <trkpt lat="42.909093" lon="-8.002253">
        <ele>411.0</ele>
        <time>2023-08-14T07:24:28Z</time>
      </trkpt>
      <trkpt lat="42.909172" lon="-8.002478">
        <ele>411.0</ele>
        <time>2023-08-14T07:24:42Z</time>
      </trkpt>
      <trkpt lat="42.909299" lon="-8.002676">
        <ele>411.0</ele>
        <time>2023-08-14T07:24:56Z</time>
      </trkpt>
      <trkpt lat="42.909463" lon="-8.002806">
        <ele>413.4</ele>
        <time>2023-08-14T07:25:08Z</time>
      </trkpt>
      <trkpt lat="42.909610" lon="-8.002968">
        <ele>415.4</ele>
        <time>2023-08-14T07:25:21Z</time>
      </trkpt>
      <trkpt lat="42.909760" lon="-8.003134">
        <ele>417.4</ele>
        <time>2023-08-14T07:25:34Z</time>
      </trkpt>
      <trkpt lat="42.909866" lon="-8.003339">
        <ele>417.4</ele>
        <time>2023-08-14T07:25:48Z</time>
      </trkpt>
      <trkpt lat="42.910005" lon="-8.003513">
        <ele>420.2</ele>
        <time>2023-08-14T07:26:03Z</time>
      </trkpt>
      <trkpt lat="42.910117" lon="-8.003730">
        <ele>421.5</ele>
        <time>2023-08-14T07:26:38Z</time>
      </trkpt>
      <trkpt lat="42.910226" lon="-8.003928">
        <ele>422.1</ele>
        <time>2023-08-14T07:26:50Z</time>
      </trkpt>
      <trkpt lat="42.910324" lon="-8.004145">
        <ele>421.5</ele>
        <time>2023-08-14T07:27:03Z</time>
      </trkpt>
      <trkpt lat="42.910413" lon="-8.004373">
        <ele>432.5</ele>
        <time>2023-08-14T07:27:16Z</time>
      </trkpt>
      <trkpt lat="42.910504" lon="-8.004591">
        <ele>426.2</ele>
        <time>2023-08-14T07:27:29Z</time>
      </trkpt>
      <trkpt lat="42.910599" lon="-8.004809">
        <ele>426.0</ele>
        <time>2023-08-14T07:27:42Z</time>
      </trkpt>
      <trkpt lat="42.910689" lon="-8.005022">
        <ele>427.4</ele>
        <time>2023-08-14T07:27:54Z</time>
      </trkpt>
      <trkpt lat="42.910778" lon="-8.005247">
        <ele>429.3</ele>
        <time>2023-08-14T07:28:08Z</time>
      </trkpt>
      <trkpt lat="42.910864" lon="-8.005476">
        <ele>428.5</ele>
        <time>2023-08-14T07:28:22Z</time>
      </trkpt>
      <trkpt lat="42.910951" lon="-8.005695">
        <ele>428.4</ele>
        <time>2023-08-14T07:28:36Z</time>
      </trkpt>
      <trkpt lat="42.911023" lon="-8.005943">
        <ele>430.4</ele>
        <time>2023-08-14T07:28:50Z</time>
      </trkpt>
      <trkpt lat="42.911116" lon="-8.006170">
        <ele>431.5</ele>
        <time>2023-08-14T07:29:03Z</time>
      </trkpt>
      <trkpt lat="42.911217" lon="-8.006392">
        <ele>435.5</ele>
        <time>2023-08-14T07:29:18Z</time>
      </trkpt>
      <trkpt lat="42.911324" lon="-8.006601">
        <ele>434.7</ele>
        <time>2023-08-14T07:29:32Z</time>
      </trkpt>
      <trkpt lat="42.911421" lon="-8.006814">
        <ele>437.1</ele>
        <time>2023-08-14T07:29:43Z</time>
      </trkpt>
      <trkpt lat="42.911493" lon="-8.007045">
        <ele>436.5</ele>
        <time>2023-08-14T07:29:57Z</time>
      </trkpt>
      <trkpt lat="42.911566" lon="-8.007285">
        <ele>436.4</ele>
        <time>2023-08-14T07:30:12Z</time>
      </trkpt>
      <trkpt lat="42.911648" lon="-8.007503">
        <ele>436.4</ele>
        <time>2023-08-14T07:30:27Z</time>
      </trkpt>
      <trkpt lat="42.911709" lon="-8.007740">
        <ele>436.4</ele>
        <time>2023-08-14T07:30:40Z</time>
      </trkpt>
      <trkpt lat="42.911772" lon="-8.007978">
        <ele>436.4</ele>
        <time>2023-08-14T07:30:54Z</time>
      </trkpt>
      <trkpt lat="42.911834" lon="-8.008214">
        <ele>436.4</ele>
        <time>2023-08-14T07:31:07Z</time>
      </trkpt>
      <trkpt lat="42.911933" lon="-8.008432">
        <ele>437.6</ele>
        <time>2023-08-14T07:31:21Z</time>
      </trkpt>
      <trkpt lat="42.911971" lon="-8.008679">
        <ele>438.0</ele>
        <time>2023-08-14T07:31:34Z</time>
      </trkpt>
      <trkpt lat="42.911965" lon="-8.008936">
        <ele>439.6</ele>
        <time>2023-08-14T07:31:47Z</time>
      </trkpt>
      <trkpt lat="42.912001" lon="-8.009199">
        <ele>439.6</ele>
        <time>2023-08-14T07:32:01Z</time>
      </trkpt>
      <trkpt lat="42.912029" lon="-8.009452">
        <ele>441.7</ele>
        <time>2023-08-14T07:32:13Z</time>
      </trkpt>
      <trkpt lat="42.912134" lon="-8.009653">
        <ele>442.7</ele>
        <time>2023-08-14T07:32:26Z</time>
      </trkpt>
      <trkpt lat="42.912224" lon="-8.009877">
        <ele>442.1</ele>
        <time>2023-08-14T07:32:40Z</time>
      </trkpt>
      <trkpt lat="42.912302" lon="-8.010107">
        <ele>441.7</ele>
        <time>2023-08-14T07:32:52Z</time>
      </trkpt>
      <trkpt lat="42.912395" lon="-8.010332">
        <ele>443.3</ele>
        <time>2023-08-14T07:33:05Z</time>
      </trkpt>
      <trkpt lat="42.912482" lon="-8.010561">
        <ele>444.1</ele>
        <time>2023-08-14T07:33:16Z</time>
      </trkpt>
      <trkpt lat="42.912587" lon="-8.010772">
        <ele>444.1</ele>
        <time>2023-08-14T07:33:29Z</time>
      </trkpt>
      <trkpt lat="42.912676" lon="-8.010999">
        <ele>447.9</ele>
        <time>2023-08-14T07:33:43Z</time>
      </trkpt>
      <trkpt lat="42.912821" lon="-8.011159">
        <ele>446.1</ele>
        <time>2023-08-14T07:33:58Z</time>
      </trkpt>
      <trkpt lat="42.912970" lon="-8.011300">
        <ele>446.7</ele>
        <time>2023-08-14T07:35:02Z</time>
      </trkpt>
      <trkpt lat="42.913129" lon="-8.011426">
        <ele>446.7</ele>
        <time>2023-08-14T07:35:18Z</time>
      </trkpt>
      <trkpt lat="42.913212" lon="-8.011503">
        <ele>448.9</ele>
        <time>2023-08-14T07:36:44Z</time>
      </trkpt>
      <trkpt lat="42.913282" lon="-8.011572">
        <ele>448.3</ele>
        <time>2023-08-14T07:43:29Z</time>
      </trkpt>
      <trkpt lat="42.913297" lon="-8.011631">
        <ele>448.9</ele>
        <time>2023-08-14T07:44:12Z</time>
      </trkpt>
      <trkpt lat="42.913305" lon="-8.011667">
        <ele>448.5</ele>
        <time>2023-08-14T08:03:12Z</time>
      </trkpt>
      <trkpt lat="42.913315" lon="-8.011730">
        <ele>448.9</ele>
        <time>2023-08-14T08:04:20Z</time>
      </trkpt>
      <trkpt lat="42.913322" lon="-8.011787">
        <ele>448.9</ele>
        <time>2023-08-14T08:04:47Z</time>
      </trkpt>
      <trkpt lat="42.913323" lon="-8.011883">
        <ele>449.0</ele>
        <time>2023-08-14T08:05:22Z</time>
      </trkpt>
      <trkpt lat="42.913367" lon="-8.012128">
        <ele>450.7</ele>
        <time>2023-08-14T08:05:37Z</time>
      </trkpt>
      <trkpt lat="42.913422" lon="-8.012364">
        <ele>451.0</ele>
        <time>2023-08-14T08:05:55Z</time>
      </trkpt>
      <trkpt lat="42.913462" lon="-8.012605">
        <ele>451.3</ele>
        <time>2023-08-14T08:06:08Z</time>
      </trkpt>
      <trkpt lat="42.913500" lon="-8.012850">
        <ele>451.9</ele>
        <time>2023-08-14T08:06:22Z</time>
      </trkpt>
      <trkpt lat="42.913526" lon="-8.013096">
        <ele>452.2</ele>
        <time>2023-08-14T08:07:22Z</time>
      </trkpt>
      <trkpt lat="42.913583" lon="-8.013348">
        <ele>453.8</ele>
        <time>2023-08-14T08:07:49Z</time>
      </trkpt>
      <trkpt lat="42.913608" lon="-8.013592">
        <ele>453.8</ele>
        <time>2023-08-14T08:08:26Z</time>
      </trkpt>
      <trkpt lat="42.913647" lon="-8.013822">
        <ele>453.8</ele>
        <time>2023-08-14T08:08:39Z</time>
      </trkpt>
      <trkpt lat="42.913699" lon="-8.014058">
        <ele>453.8</ele>
        <time>2023-08-14T08:08:53Z</time>
      </trkpt>
      <trkpt lat="42.913776" lon="-8.014429">
        <ele>454.5</ele>
        <time>2023-08-14T08:09:07Z</time>
      </trkpt>
      <trkpt lat="42.913920" lon="-8.014390">
        <ele>454.7</ele>
        <time>2023-08-14T08:09:52Z</time>
      </trkpt>
      <trkpt lat="42.914112" lon="-8.014739">
        <ele>455.2</ele>
        <time>2023-08-14T08:10:05Z</time>
      </trkpt>
      <trkpt lat="42.914085" lon="-8.014882">
        <ele>455.1</ele>
        <time>2023-08-14T08:10:24Z</time>
      </trkpt>
      <trkpt lat="42.914263" lon="-8.015036">
        <ele>455.1</ele>
        <time>2023-08-14T08:10:39Z</time>
      </trkpt>
      <trkpt lat="42.914373" lon="-8.015129">
        <ele>455.1</ele>
        <time>2023-08-14T08:10:52Z</time>
      </trkpt>
      <trkpt lat="42.914327" lon="-8.015459">
        <ele>456.0</ele>
        <time>2023-08-14T08:11:09Z</time>
      </trkpt>
      <trkpt lat="42.914290" lon="-8.015714">
        <ele>457.2</ele>
        <time>2023-08-14T08:11:24Z</time>
      </trkpt>
      <trkpt lat="42.914266" lon="-8.015965">
        <ele>457.7</ele>
        <time>2023-08-14T08:11:35Z</time>
      </trkpt>
      <trkpt lat="42.914236" lon="-8.016211">
        <ele>457.7</ele>
        <time>2023-08-14T08:11:45Z</time>
      </trkpt>
      <trkpt lat="42.914205" lon="-8.016472">
        <ele>457.5</ele>
        <time>2023-08-14T08:11:56Z</time>
      </trkpt>
      <trkpt lat="42.914177" lon="-8.016715">
        <ele>457.2</ele>
        <time>2023-08-14T08:12:10Z</time>
      </trkpt>
      <trkpt lat="42.914110" lon="-8.016942">
        <ele>456.3</ele>
        <time>2023-08-14T08:12:23Z</time>
      </trkpt>
      <trkpt lat="42.914111" lon="-8.017187">
        <ele>455.3</ele>
        <time>2023-08-14T08:12:36Z</time>
      </trkpt>
      <trkpt lat="42.914060" lon="-8.017446">
        <ele>455.2</ele>
        <time>2023-08-14T08:12:49Z</time>
      </trkpt>
      <trkpt lat="42.914028" lon="-8.017680">
        <ele>454.7</ele>
        <time>2023-08-14T08:13:03Z</time>
      </trkpt>
      <trkpt lat="42.913975" lon="-8.017930">
        <ele>454.7</ele>
        <time>2023-08-14T08:13:18Z</time>
      </trkpt>
      <trkpt lat="42.913909" lon="-8.018167">
        <ele>455.6</ele>
        <time>2023-08-14T08:13:32Z</time>
      </trkpt>
      <trkpt lat="42.913879" lon="-8.018413">
        <ele>455.6</ele>
        <time>2023-08-14T08:13:47Z</time>
      </trkpt>
      <trkpt lat="42.913828" lon="-8.018657">
        <ele>458.8</ele>
        <time>2023-08-14T08:14:04Z</time>
      </trkpt>
      <trkpt lat="42.913779" lon="-8.018891">
        <ele>458.8</ele>
        <time>2023-08-14T08:14:17Z</time>
      </trkpt>
      <trkpt lat="42.913773" lon="-8.018917">
        <ele>458.8</ele>
        <time>2023-08-14T08:14:40Z</time>
      </trkpt>
      <trkpt lat="42.913770" lon="-8.018955">
        <ele>464.4</ele>
        <time>2023-08-14T08:15:22Z</time>
      </trkpt>
      <trkpt lat="42.913750" lon="-8.019003">
        <ele>462.7</ele>
        <time>2023-08-14T08:15:51Z</time>
      </trkpt>
      <trkpt lat="42.913742" lon="-8.019081">
        <ele>461.4</ele>
        <time>2023-08-14T08:16:09Z</time>
      </trkpt>
      <trkpt lat="42.913760" lon="-8.019150">
        <ele>464.4</ele>
        <time>2023-08-14T08:16:24Z</time>
      </trkpt>
      <trkpt lat="42.913674" lon="-8.019420">
        <ele>465.5</ele>
        <time>2023-08-14T08:16:35Z</time>
      </trkpt>
      <trkpt lat="42.913586" lon="-8.019674">
        <ele>463.5</ele>
        <time>2023-08-14T08:16:47Z</time>
      </trkpt>
      <trkpt lat="42.913434" lon="-8.019928">
        <ele>460.8</ele>
        <time>2023-08-14T08:17:03Z</time>
      </trkpt>
      <trkpt lat="42.913327" lon="-8.020027">
        <ele>460.5</ele>
        <time>2023-08-14T08:17:16Z</time>
      </trkpt>
      <trkpt lat="42.913230" lon="-8.020252">
        <ele>461.2</ele>
        <time>2023-08-14T08:17:29Z</time>
      </trkpt>
      <trkpt lat="42.913139" lon="-8.020464">
        <ele>458.5</ele>
        <time>2023-08-14T08:17:57Z</time>
      </trkpt>
      <trkpt lat="42.913041" lon="-8.020662">
        <ele>457.4</ele>
        <time>2023-08-14T08:18:10Z</time>
      </trkpt>
      <trkpt lat="42.912964" lon="-8.020891">
        <ele>455.5</ele>
        <time>2023-08-14T08:18:24Z</time>
      </trkpt>
      <trkpt lat="42.912858" lon="-8.021102">
        <ele>441.6</ele>
        <time>2023-08-14T08:18:41Z</time>
      </trkpt>
      <trkpt lat="42.912751" lon="-8.021315">
        <ele>438.9</ele>
        <time>2023-08-14T08:19:05Z</time>
      </trkpt>
      <trkpt lat="42.912684" lon="-8.021539">
        <ele>438.9</ele>
        <time>2023-08-14T08:19:20Z</time>
      </trkpt>
      <trkpt lat="42.912509" lon="-8.022072">
        <ele>436.0</ele>
        <time>2023-08-14T08:19:35Z</time>
      </trkpt>
      <trkpt lat="42.912511" lon="-8.022177">
        <ele>436.0</ele>
        <time>2023-08-14T08:19:47Z</time>
      </trkpt>
      <trkpt lat="42.912427" lon="-8.022232">
        <ele>431.0</ele>
        <time>2023-08-14T08:20:01Z</time>
      </trkpt>
      <trkpt lat="42.912417" lon="-8.022364">
        <ele>430.9</ele>
        <time>2023-08-14T08:20:13Z</time>
      </trkpt>
      <trkpt lat="42.912246" lon="-8.022626">
        <ele>430.9</ele>
        <time>2023-08-14T08:20:27Z</time>
      </trkpt>
      <trkpt lat="42.912101" lon="-8.022831">
        <ele>430.9</ele>
        <time>2023-08-14T08:20:40Z</time>
      </trkpt>
      <trkpt lat="42.911979" lon="-8.023014">
        <ele>430.9</ele>
        <time>2023-08-14T08:20:53Z</time>
      </trkpt>
      <trkpt lat="42.911854" lon="-8.023196">
        <ele>428.6</ele>
        <time>2023-08-14T08:21:06Z</time>
      </trkpt>
      <trkpt lat="42.911736" lon="-8.023377">
        <ele>428.6</ele>
        <time>2023-08-14T08:21:20Z</time>
      </trkpt>
      <trkpt lat="42.911607" lon="-8.023571">
        <ele>428.6</ele>
        <time>2023-08-14T08:21:33Z</time>
      </trkpt>
      <trkpt lat="42.911492" lon="-8.023762">
        <ele>429.0</ele>
        <time>2023-08-14T08:21:47Z</time>
      </trkpt>
      <trkpt lat="42.911363" lon="-8.023946">
        <ele>429.0</ele>
        <time>2023-08-14T08:22:00Z</time>
      </trkpt>
      <trkpt lat="42.911248" lon="-8.024136">
        <ele>429.0</ele>
        <time>2023-08-14T08:22:14Z</time>
      </trkpt>
      <trkpt lat="42.911138" lon="-8.024339">
        <ele>429.0</ele>
        <time>2023-08-14T08:22:29Z</time>
      </trkpt>
      <trkpt lat="42.911179" lon="-8.024550">
        <ele>427.1</ele>
        <time>2023-08-14T08:22:45Z</time>
      </trkpt>
      <trkpt lat="42.911214" lon="-8.024779">
        <ele>425.8</ele>
        <time>2023-08-14T08:22:58Z</time>
      </trkpt>
      <trkpt lat="42.911310" lon="-8.025022">
        <ele>425.8</ele>
        <time>2023-08-14T08:23:12Z</time>
      </trkpt>
      <trkpt lat="42.911406" lon="-8.025225">
        <ele>424.4</ele>
        <time>2023-08-14T08:23:28Z</time>
      </trkpt>
      <trkpt lat="42.911407" lon="-8.025279">
        <ele>420.8</ele>
        <time>2023-08-14T08:27:10Z</time>
      </trkpt>
      <trkpt lat="42.911424" lon="-8.025330">
        <ele>416.1</ele>
        <time>2023-08-14T08:29:46Z</time>
      </trkpt>
      <trkpt lat="42.911466" lon="-8.025535">
        <ele>422.7</ele>
        <time>2023-08-14T08:36:57Z</time>
      </trkpt>
      <trkpt lat="42.911510" lon="-8.025773">
        <ele>425.8</ele>
        <time>2023-08-14T08:37:09Z</time>
      </trkpt>
      <trkpt lat="42.911586" lon="-8.026016">
        <ele>425.8</ele>
        <time>2023-08-14T08:37:24Z</time>
      </trkpt>
      <trkpt lat="42.911636" lon="-8.026261">
        <ele>425.8</ele>
        <time>2023-08-14T08:37:39Z</time>
      </trkpt>
      <trkpt lat="42.911679" lon="-8.026488">
        <ele>425.8</ele>
        <time>2023-08-14T08:37:53Z</time>
      </trkpt>
      <trkpt lat="42.911756" lon="-8.026721">
        <ele>425.8</ele>
        <time>2023-08-14T08:38:06Z</time>
      </trkpt>
      <trkpt lat="42.911864" lon="-8.026919">
        <ele>423.2</ele>
        <time>2023-08-14T08:38:19Z</time>
      </trkpt>
      <trkpt lat="42.911918" lon="-8.027156">
        <ele>415.4</ele>
        <time>2023-08-14T08:38:33Z</time>
      </trkpt>
      <trkpt lat="42.912019" lon="-8.027406">
        <ele>416.2</ele>
        <time>2023-08-14T08:38:46Z</time>
      </trkpt>
      <trkpt lat="42.912025" lon="-8.027660">
        <ele>414.5</ele>
        <time>2023-08-14T08:39:00Z</time>
      </trkpt>
      <trkpt lat="42.912030" lon="-8.027905">
        <ele>415.4</ele>
        <time>2023-08-14T08:39:13Z</time>
      </trkpt>
      <trkpt lat="42.912050" lon="-8.028124">
        <ele>414.5</ele>
        <time>2023-08-14T08:39:26Z</time>
      </trkpt>
      <trkpt lat="42.912078" lon="-8.028389">
        <ele>418.2</ele>
        <time>2023-08-14T08:39:40Z</time>
      </trkpt>
      <trkpt lat="42.912104" lon="-8.028618">
        <ele>418.2</ele>
        <time>2023-08-14T08:39:52Z</time>
      </trkpt>
      <trkpt lat="42.912156" lon="-8.028909">
        <ele>418.2</ele>
        <time>2023-08-14T08:40:05Z</time>
      </trkpt>
      <trkpt lat="42.912153" lon="-8.029109">
        <ele>419.2</ele>
        <time>2023-08-14T08:40:16Z</time>
      </trkpt>
      <trkpt lat="42.912163" lon="-8.029354">
        <ele>419.2</ele>
        <time>2023-08-14T08:40:29Z</time>
      </trkpt>
      <trkpt lat="42.912187" lon="-8.029656">
        <ele>419.2</ele>
        <time>2023-08-14T08:40:40Z</time>
      </trkpt>
      <trkpt lat="42.912184" lon="-8.029881">
        <ele>418.6</ele>
        <time>2023-08-14T08:40:53Z</time>
      </trkpt>
      <trkpt lat="42.912187" lon="-8.030129">
        <ele>418.6</ele>
        <time>2023-08-14T08:41:08Z</time>
      </trkpt>
      <trkpt lat="42.912183" lon="-8.030370">
        <ele>418.6</ele>
        <time>2023-08-14T08:41:21Z</time>
      </trkpt>
      <trkpt lat="42.912194" lon="-8.030629">
        <ele>418.6</ele>
        <time>2023-08-14T08:41:34Z</time>
      </trkpt>
      <trkpt lat="42.912175" lon="-8.030897">
        <ele>418.6</ele>
        <time>2023-08-14T08:41:48Z</time>
      </trkpt>
      <trkpt lat="42.912140" lon="-8.031147">
        <ele>418.6</ele>
        <time>2023-08-14T08:42:01Z</time>
      </trkpt>
      <trkpt lat="42.912072" lon="-8.031372">
        <ele>417.1</ele>
        <time>2023-08-14T08:42:14Z</time>
      </trkpt>
      <trkpt lat="42.912038" lon="-8.031628">
        <ele>416.5</ele>
        <time>2023-08-14T08:42:26Z</time>
      </trkpt>
      <trkpt lat="42.912006" lon="-8.031879">
        <ele>418.5</ele>
        <time>2023-08-14T08:42:39Z</time>
      </trkpt>
      <trkpt lat="42.912021" lon="-8.032129">
        <ele>417.5</ele>
        <time>2023-08-14T08:42:52Z</time>
      </trkpt>
      <trkpt lat="42.912071" lon="-8.032367">
        <ele>417.5</ele>
        <time>2023-08-14T08:43:06Z</time>
      </trkpt>
      <trkpt lat="42.912039" lon="-8.032615">
        <ele>418.7</ele>
        <time>2023-08-14T08:43:19Z</time>
      </trkpt>
      <trkpt lat="42.912001" lon="-8.032873">
        <ele>418.7</ele>
        <time>2023-08-14T08:43:32Z</time>
      </trkpt>
      <trkpt lat="42.912011" lon="-8.033140">
        <ele>419.5</ele>
        <time>2023-08-14T08:43:48Z</time>
      </trkpt>
      <trkpt lat="42.912010" lon="-8.033361">
        <ele>416.5</ele>
        <time>2023-08-14T08:44:04Z</time>
      </trkpt>
      <trkpt lat="42.912015" lon="-8.033613">
        <ele>423.6</ele>
        <time>2023-08-14T08:44:18Z</time>
      </trkpt>
      <trkpt lat="42.912078" lon="-8.033852">
        <ele>423.6</ele>
        <time>2023-08-14T08:44:31Z</time>
      </trkpt>
      <trkpt lat="42.912110" lon="-8.034094">
        <ele>423.6</ele>
        <time>2023-08-14T08:44:44Z</time>
      </trkpt>
      <trkpt lat="42.912127" lon="-8.034341">
        <ele>423.6</ele>
        <time>2023-08-14T08:44:55Z</time>
      </trkpt>
      <trkpt lat="42.912175" lon="-8.034578">
        <ele>423.6</ele>
        <time>2023-08-14T08:45:07Z</time>
      </trkpt>
      <trkpt lat="42.912254" lon="-8.034809">
        <ele>423.6</ele>
        <time>2023-08-14T08:45:19Z</time>
      </trkpt>
      <trkpt lat="42.912302" lon="-8.035054">
        <ele>423.6</ele>
        <time>2023-08-14T08:45:31Z</time>
      </trkpt>
      <trkpt lat="42.912375" lon="-8.035279">
        <ele>423.6</ele>
        <time>2023-08-14T08:45:45Z</time>
      </trkpt>
      <trkpt lat="42.912431" lon="-8.035532">
        <ele>420.5</ele>
        <time>2023-08-14T08:45:58Z</time>
      </trkpt>
      <trkpt lat="42.912483" lon="-8.035765">
        <ele>420.5</ele>
        <time>2023-08-14T08:47:05Z</time>
      </trkpt>
      <trkpt lat="42.912564" lon="-8.036019">
        <ele>423.2</ele>
        <time>2023-08-14T08:47:18Z</time>
      </trkpt>
      <trkpt lat="42.912556" lon="-8.036260">
        <ele>423.5</ele>
        <time>2023-08-14T08:47:31Z</time>
      </trkpt>
      <trkpt lat="42.912536" lon="-8.036504">
        <ele>424.5</ele>
        <time>2023-08-14T08:47:43Z</time>
      </trkpt>
      <trkpt lat="42.912564" lon="-8.036748">
        <ele>425.4</ele>
        <time>2023-08-14T08:47:57Z</time>
      </trkpt>
      <trkpt lat="42.912587" lon="-8.036988">
        <ele>423.8</ele>
        <time>2023-08-14T08:48:11Z</time>
      </trkpt>
      <trkpt lat="42.912663" lon="-8.037246">
        <ele>426.2</ele>
        <time>2023-08-14T08:48:33Z</time>
      </trkpt>
      <trkpt lat="42.912747" lon="-8.037471">
        <ele>424.5</ele>
        <time>2023-08-14T08:48:43Z</time>
      </trkpt>
      <trkpt lat="42.912850" lon="-8.037666">
        <ele>422.8</ele>
        <time>2023-08-14T08:49:13Z</time>
      </trkpt>
      <trkpt lat="42.912946" lon="-8.037887">
        <ele>423.5</ele>
        <time>2023-08-14T08:49:27Z</time>
      </trkpt>
      <trkpt lat="42.913053" lon="-8.038101">
        <ele>423.5</ele>
        <time>2023-08-14T08:49:42Z</time>
      </trkpt>
      <trkpt lat="42.913127" lon="-8.038328">
        <ele>429.4</ele>
        <time>2023-08-14T08:49:56Z</time>
      </trkpt>
      <trkpt lat="42.913180" lon="-8.038566">
        <ele>429.5</ele>
        <time>2023-08-14T08:50:10Z</time>
      </trkpt>
      <trkpt lat="42.913278" lon="-8.038780">
        <ele>428.7</ele>
        <time>2023-08-14T08:50:28Z</time>
      </trkpt>
      <trkpt lat="42.913353" lon="-8.039018">
        <ele>423.6</ele>
        <time>2023-08-14T08:50:44Z</time>
      </trkpt>
      <trkpt lat="42.913444" lon="-8.039214">
        <ele>422.5</ele>
        <time>2023-08-14T08:50:58Z</time>
      </trkpt>
      <trkpt lat="42.913586" lon="-8.039374">
        <ele>420.5</ele>
        <time>2023-08-14T08:51:12Z</time>
      </trkpt>
      <trkpt lat="42.913758" lon="-8.039459">
        <ele>420.5</ele>
        <time>2023-08-14T08:51:27Z</time>
      </trkpt>
      <trkpt lat="42.913884" lon="-8.039639">
        <ele>425.5</ele>
        <time>2023-08-14T08:52:14Z</time>
      </trkpt>
      <trkpt lat="42.914042" lon="-8.039780">
        <ele>426.5</ele>
        <time>2023-08-14T08:52:27Z</time>
      </trkpt>
      <trkpt lat="42.914181" lon="-8.039947">
        <ele>425.5</ele>
        <time>2023-08-14T08:52:40Z</time>
      </trkpt>
      <trkpt lat="42.914325" lon="-8.040101">
        <ele>424.6</ele>
        <time>2023-08-14T08:52:54Z</time>
      </trkpt>
      <trkpt lat="42.914479" lon="-8.040245">
        <ele>420.7</ele>
        <time>2023-08-14T08:53:10Z</time>
      </trkpt>
      <trkpt lat="42.914626" lon="-8.040404">
        <ele>420.5</ele>
        <time>2023-08-14T08:53:24Z</time>
      </trkpt>
      <trkpt lat="42.914769" lon="-8.040559">
        <ele>419.5</ele>
        <time>2023-08-14T08:53:38Z</time>
      </trkpt>
      <trkpt lat="42.914913" lon="-8.040715">
        <ele>417.5</ele>
        <time>2023-08-14T08:53:58Z</time>
      </trkpt>
      <trkpt lat="42.915031" lon="-8.040903">
        <ele>416.4</ele>
        <time>2023-08-14T08:54:14Z</time>
      </trkpt>
      <trkpt lat="42.915142" lon="-8.041099">
        <ele>413.5</ele>
        <time>2023-08-14T08:54:31Z</time>
      </trkpt>
      <trkpt lat="42.915265" lon="-8.041287">
        <ele>409.5</ele>
        <time>2023-08-14T08:55:02Z</time>
      </trkpt>
      <trkpt lat="42.915283" lon="-8.041532">
        <ele>406.4</ele>
        <time>2023-08-14T08:55:18Z</time>
      </trkpt>
      <trkpt lat="42.915311" lon="-8.041781">
        <ele>407.5</ele>
        <time>2023-08-14T08:55:48Z</time>
      </trkpt>
      <trkpt lat="42.915447" lon="-8.041952">
        <ele>406.4</ele>
        <time>2023-08-14T08:56:02Z</time>
      </trkpt>
      <trkpt lat="42.915595" lon="-8.042084">
        <ele>409.1</ele>
        <time>2023-08-14T08:56:15Z</time>
      </trkpt>
      <trkpt lat="42.915733" lon="-8.042231">
        <ele>412.5</ele>
        <time>2023-08-14T08:56:32Z</time>
      </trkpt>
      <trkpt lat="42.915887" lon="-8.042365">
        <ele>414.4</ele>
        <time>2023-08-14T08:57:11Z</time>
      </trkpt>
      <trkpt lat="42.916040" lon="-8.042511">
        <ele>413.5</ele>
        <time>2023-08-14T08:57:27Z</time>
      </trkpt>
      <trkpt lat="42.916217" lon="-8.042579">
        <ele>413.5</ele>
        <time>2023-08-14T08:57:48Z</time>
      </trkpt>
      <trkpt lat="42.916215" lon="-8.042828">
        <ele>415.5</ele>
        <time>2023-08-14T08:59:15Z</time>
      </trkpt>
      <trkpt lat="42.916222" lon="-8.043075">
        <ele>413.5</ele>
        <time>2023-08-14T08:59:32Z</time>
      </trkpt>
      <trkpt lat="42.916227" lon="-8.043325">
        <ele>414.5</ele>
        <time>2023-08-14T08:59:46Z</time>
      </trkpt>
      <trkpt lat="42.916188" lon="-8.043571">
        <ele>414.5</ele>
        <time>2023-08-14T08:59:57Z</time>
      </trkpt>
      <trkpt lat="42.916148" lon="-8.043823">
        <ele>419.4</ele>
        <time>2023-08-14T09:00:13Z</time>
      </trkpt>
      <trkpt lat="42.916195" lon="-8.044071">
        <ele>425.4</ele>
        <time>2023-08-14T09:00:26Z</time>
      </trkpt>
      <trkpt lat="42.916215" lon="-8.044315">
        <ele>425.5</ele>
        <time>2023-08-14T09:00:39Z</time>
      </trkpt>
      <trkpt lat="42.916247" lon="-8.044568">
        <ele>427.5</ele>
        <time>2023-08-14T09:00:58Z</time>
      </trkpt>
      <trkpt lat="42.916212" lon="-8.044816">
        <ele>430.5</ele>
        <time>2023-08-14T09:01:12Z</time>
      </trkpt>
      <trkpt lat="42.916173" lon="-8.045057">
        <ele>434.5</ele>
        <time>2023-08-14T09:01:27Z</time>
      </trkpt>
      <trkpt lat="42.916184" lon="-8.045310">
        <ele>435.5</ele>
        <time>2023-08-14T09:01:41Z</time>
      </trkpt>
      <trkpt lat="42.916170" lon="-8.045565">
        <ele>437.5</ele>
        <time>2023-08-14T09:01:57Z</time>
      </trkpt>
      <trkpt lat="42.916077" lon="-8.045779">
        <ele>436.5</ele>
        <time>2023-08-14T09:02:10Z</time>
      </trkpt>
      <trkpt lat="42.915995" lon="-8.046003">
        <ele>436.2</ele>
        <time>2023-08-14T09:02:24Z</time>
      </trkpt>
      <trkpt lat="42.915943" lon="-8.046256">
        <ele>439.2</ele>
        <time>2023-08-14T09:02:40Z</time>
      </trkpt>
      <trkpt lat="42.915987" lon="-8.046504">
        <ele>439.4</ele>
        <time>2023-08-14T09:02:52Z</time>
      </trkpt>
      <trkpt lat="42.916104" lon="-8.046712">
        <ele>442.5</ele>
        <time>2023-08-14T09:03:04Z</time>
      </trkpt>
      <trkpt lat="42.916235" lon="-8.046913">
        <ele>447.0</ele>
        <time>2023-08-14T09:03:17Z</time>
      </trkpt>
      <trkpt lat="42.916357" lon="-8.047091">
        <ele>442.5</ele>
        <time>2023-08-14T09:03:31Z</time>
      </trkpt>
      <trkpt lat="42.916472" lon="-8.047318">
        <ele>449.4</ele>
        <time>2023-08-14T09:03:45Z</time>
      </trkpt>
      <trkpt lat="42.916554" lon="-8.047482">
        <ele>447.4</ele>
        <time>2023-08-14T09:03:59Z</time>
      </trkpt>
      <trkpt lat="42.916639" lon="-8.047723">
        <ele>450.2</ele>
        <time>2023-08-14T09:04:10Z</time>
      </trkpt>
      <trkpt lat="42.916733" lon="-8.047959">
        <ele>451.5</ele>
        <time>2023-08-14T09:04:21Z</time>
      </trkpt>
      <trkpt lat="42.916760" lon="-8.048207">
        <ele>452.5</ele>
        <time>2023-08-14T09:04:35Z</time>
      </trkpt>
      <trkpt lat="42.916708" lon="-8.048458">
        <ele>450.6</ele>
        <time>2023-08-14T09:04:48Z</time>
      </trkpt>
      <trkpt lat="42.916626" lon="-8.048682">
        <ele>454.6</ele>
        <time>2023-08-14T09:05:03Z</time>
      </trkpt>
      <trkpt lat="42.916576" lon="-8.048941">
        <ele>454.6</ele>
        <time>2023-08-14T09:05:18Z</time>
      </trkpt>
      <trkpt lat="42.916758" lon="-8.049067">
        <ele>454.6</ele>
        <time>2023-08-14T09:05:32Z</time>
      </trkpt>
      <trkpt lat="42.916924" lon="-8.049182">
        <ele>454.6</ele>
        <time>2023-08-14T09:05:45Z</time>
      </trkpt>
      <trkpt lat="42.917054" lon="-8.049357">
        <ele>454.6</ele>
        <time>2023-08-14T09:05:59Z</time>
      </trkpt>
      <trkpt lat="42.917161" lon="-8.049556">
        <ele>454.6</ele>
        <time>2023-08-14T09:06:12Z</time>
      </trkpt>
      <trkpt lat="42.917264" lon="-8.049765">
        <ele>454.6</ele>
        <time>2023-08-14T09:06:27Z</time>
      </trkpt>
      <trkpt lat="42.917411" lon="-8.049942">
        <ele>454.6</ele>
        <time>2023-08-14T09:06:40Z</time>
      </trkpt>
      <trkpt lat="42.917436" lon="-8.050213">
        <ele>453.5</ele>
        <time>2023-08-14T09:06:53Z</time>
      </trkpt>
      <trkpt lat="42.917483" lon="-8.050446">
        <ele>453.5</ele>
        <time>2023-08-14T09:07:05Z</time>
      </trkpt>
      <trkpt lat="42.917513" lon="-8.050706">
        <ele>452.5</ele>
        <time>2023-08-14T09:07:18Z</time>
      </trkpt>
      <trkpt lat="42.917545" lon="-8.050950">
        <ele>450.5</ele>
        <time>2023-08-14T09:07:32Z</time>
      </trkpt>
      <trkpt lat="42.917567" lon="-8.051204">
        <ele>452.5</ele>
        <time>2023-08-14T09:07:45Z</time>
      </trkpt>
      <trkpt lat="42.917598" lon="-8.051458">
        <ele>458.3</ele>
        <time>2023-08-14T09:07:57Z</time>
      </trkpt>
      <trkpt lat="42.917621" lon="-8.051726">
        <ele>460.4</ele>
        <time>2023-08-14T09:08:11Z</time>
      </trkpt>
      <trkpt lat="42.917386" lon="-8.051805">
        <ele>461.4</ele>
        <time>2023-08-14T09:08:27Z</time>
      </trkpt>
      <trkpt lat="42.917211" lon="-8.051884">
        <ele>461.4</ele>
        <time>2023-08-14T09:08:45Z</time>
      </trkpt>
      <trkpt lat="42.917039" lon="-8.051995">
        <ele>461.4</ele>
        <time>2023-08-14T09:09:16Z</time>
      </trkpt>
      <trkpt lat="42.916928" lon="-8.052199">
        <ele>461.4</ele>
        <time>2023-08-14T09:09:28Z</time>
      </trkpt>
      <trkpt lat="42.916857" lon="-8.052436">
        <ele>443.8</ele>
        <time>2023-08-14T09:09:39Z</time>
      </trkpt>
      <trkpt lat="42.916773" lon="-8.052655">
        <ele>445.5</ele>
        <time>2023-08-14T09:09:51Z</time>
      </trkpt>
      <trkpt lat="42.916731" lon="-8.052898">
        <ele>445.5</ele>
        <time>2023-08-14T09:10:03Z</time>
      </trkpt>
      <trkpt lat="42.916625" lon="-8.053103">
        <ele>445.5</ele>
        <time>2023-08-14T09:10:18Z</time>
      </trkpt>
      <trkpt lat="42.916520" lon="-8.053315">
        <ele>442.5</ele>
        <time>2023-08-14T09:10:35Z</time>
      </trkpt>
      <trkpt lat="42.916420" lon="-8.053523">
        <ele>443.5</ele>
        <time>2023-08-14T09:10:48Z</time>
      </trkpt>
      <trkpt lat="42.916303" lon="-8.053722">
        <ele>441.6</ele>
        <time>2023-08-14T09:10:59Z</time>
      </trkpt>
      <trkpt lat="42.916225" lon="-8.053952">
        <ele>443.6</ele>
        <time>2023-08-14T09:11:12Z</time>
      </trkpt>
      <trkpt lat="42.916157" lon="-8.054158">
        <ele>444.5</ele>
        <time>2023-08-14T09:11:27Z</time>
      </trkpt>
      <trkpt lat="42.916064" lon="-8.054394">
        <ele>442.5</ele>
        <time>2023-08-14T09:11:44Z</time>
      </trkpt>
      <trkpt lat="42.915975" lon="-8.054605">
        <ele>445.5</ele>
        <time>2023-08-14T09:11:55Z</time>
      </trkpt>
      <trkpt lat="42.915889" lon="-8.054829">
        <ele>448.4</ele>
        <time>2023-08-14T09:12:05Z</time>
      </trkpt>
      <trkpt lat="42.915802" lon="-8.055059">
        <ele>450.5</ele>
        <time>2023-08-14T09:12:18Z</time>
      </trkpt>
      <trkpt lat="42.915736" lon="-8.055288">
        <ele>453.5</ele>
        <time>2023-08-14T09:12:31Z</time>
      </trkpt>
      <trkpt lat="42.915684" lon="-8.055524">
        <ele>455.2</ele>
        <time>2023-08-14T09:12:43Z</time>
      </trkpt>
      <trkpt lat="42.915638" lon="-8.055769">
        <ele>456.5</ele>
        <time>2023-08-14T09:12:55Z</time>
      </trkpt>
      <trkpt lat="42.915613" lon="-8.056015">
        <ele>456.5</ele>
        <time>2023-08-14T09:13:07Z</time>
      </trkpt>
      <trkpt lat="42.915577" lon="-8.056267">
        <ele>452.8</ele>
        <time>2023-08-14T09:13:23Z</time>
      </trkpt>
      <trkpt lat="42.915553" lon="-8.056516">
        <ele>452.5</ele>
        <time>2023-08-14T09:13:35Z</time>
      </trkpt>
      <trkpt lat="42.915459" lon="-8.056736">
        <ele>454.2</ele>
        <time>2023-08-14T09:13:48Z</time>
      </trkpt>
      <trkpt lat="42.915415" lon="-8.056984">
        <ele>459.8</ele>
        <time>2023-08-14T09:14:02Z</time>
      </trkpt>
      <trkpt lat="42.915399" lon="-8.057219">
        <ele>459.8</ele>
        <time>2023-08-14T09:14:15Z</time>
      </trkpt>
      <trkpt lat="42.915366" lon="-8.057475">
        <ele>459.8</ele>
        <time>2023-08-14T09:14:28Z</time>
      </trkpt>
      <trkpt lat="42.915366" lon="-8.057719">
        <ele>459.8</ele>
        <time>2023-08-14T09:14:41Z</time>
      </trkpt>
      <trkpt lat="42.915362" lon="-8.057965">
        <ele>459.8</ele>
        <time>2023-08-14T09:14:55Z</time>
      </trkpt>
      <trkpt lat="42.915381" lon="-8.058217">
        <ele>459.8</ele>
        <time>2023-08-14T09:15:07Z</time>
      </trkpt>
      <trkpt lat="42.915380" lon="-8.058471">
        <ele>459.8</ele>
        <time>2023-08-14T09:15:22Z</time>
      </trkpt>
      <trkpt lat="42.915396" lon="-8.058716">
        <ele>449.5</ele>
        <time>2023-08-14T09:15:35Z</time>
      </trkpt>
      <trkpt lat="42.915417" lon="-8.058962">
        <ele>450.2</ele>
        <time>2023-08-14T09:15:50Z</time>
      </trkpt>
      <trkpt lat="42.915394" lon="-8.059212">
        <ele>449.5</ele>
        <time>2023-08-14T09:16:02Z</time>
      </trkpt>
      <trkpt lat="42.915432" lon="-8.059470">
        <ele>451.5</ele>
        <time>2023-08-14T09:16:15Z</time>
      </trkpt>
      <trkpt lat="42.915455" lon="-8.059713">
        <ele>450.5</ele>
        <time>2023-08-14T09:16:30Z</time>
      </trkpt>
      <trkpt lat="42.915513" lon="-8.059939">
        <ele>450.8</ele>
        <time>2023-08-14T09:16:44Z</time>
      </trkpt>
      <trkpt lat="42.915559" lon="-8.060193">
        <ele>450.5</ele>
        <time>2023-08-14T09:16:57Z</time>
      </trkpt>
      <trkpt lat="42.915609" lon="-8.060415">
        <ele>449.5</ele>
        <time>2023-08-14T09:17:10Z</time>
      </trkpt>
      <trkpt lat="42.915651" lon="-8.060666">
        <ele>448.5</ele>
        <time>2023-08-14T09:17:25Z</time>
      </trkpt>
      <trkpt lat="42.915718" lon="-8.060897">
        <ele>447.5</ele>
        <time>2023-08-14T09:17:37Z</time>
      </trkpt>
      <trkpt lat="42.915792" lon="-8.061122">
        <ele>445.5</ele>
        <time>2023-08-14T09:17:51Z</time>
      </trkpt>
      <trkpt lat="42.915879" lon="-8.061344">
        <ele>445.5</ele>
        <time>2023-08-14T09:18:06Z</time>
      </trkpt>
      <trkpt lat="42.915946" lon="-8.061566">
        <ele>442.6</ele>
        <time>2023-08-14T09:18:20Z</time>
      </trkpt>
      <trkpt lat="42.916064" lon="-8.061754">
        <ele>441.5</ele>
        <time>2023-08-14T09:18:35Z</time>
      </trkpt>
      <trkpt lat="42.916155" lon="-8.061972">
        <ele>441.8</ele>
        <time>2023-08-14T09:18:48Z</time>
      </trkpt>
      <trkpt lat="42.916227" lon="-8.062190">
        <ele>439.5</ele>
        <time>2023-08-14T09:19:03Z</time>
      </trkpt>
      <trkpt lat="42.916273" lon="-8.062435">
        <ele>439.5</ele>
        <time>2023-08-14T09:19:16Z</time>
      </trkpt>
      <trkpt lat="42.916346" lon="-8.062666">
        <ele>437.5</ele>
        <time>2023-08-14T09:19:31Z</time>
      </trkpt>
      <trkpt lat="42.916377" lon="-8.062910">
        <ele>436.5</ele>
        <time>2023-08-14T09:19:45Z</time>
      </trkpt>
      <trkpt lat="42.916408" lon="-8.063154">
        <ele>433.6</ele>
        <time>2023-08-14T09:19:59Z</time>
      </trkpt>
      <trkpt lat="42.916462" lon="-8.063390">
        <ele>432.5</ele>
        <time>2023-08-14T09:20:13Z</time>
      </trkpt>
      <trkpt lat="42.916521" lon="-8.063627">
        <ele>430.5</ele>
        <time>2023-08-14T09:20:29Z</time>
      </trkpt>
      <trkpt lat="42.916620" lon="-8.063841">
        <ele>427.5</ele>
        <time>2023-08-14T09:20:44Z</time>
      </trkpt>
      <trkpt lat="42.916737" lon="-8.064031">
        <ele>424.5</ele>
        <time>2023-08-14T09:20:58Z</time>
      </trkpt>
      <trkpt lat="42.916913" lon="-8.064089">
        <ele>423.7</ele>
        <time>2023-08-14T09:21:13Z</time>
      </trkpt>
      <trkpt lat="42.916992" lon="-8.064311">
        <ele>419.8</ele>
        <time>2023-08-14T09:21:33Z</time>
      </trkpt>
      <trkpt lat="42.916960" lon="-8.064555">
        <ele>412.6</ele>
        <time>2023-08-14T09:21:50Z</time>
      </trkpt>
      <trkpt lat="42.916939" lon="-8.064800">
        <ele>412.5</ele>
        <time>2023-08-14T09:22:05Z</time>
      </trkpt>
      <trkpt lat="42.916819" lon="-8.064982">
        <ele>409.5</ele>
        <time>2023-08-14T09:22:21Z</time>
      </trkpt>
      <trkpt lat="42.916794" lon="-8.065233">
        <ele>405.3</ele>
        <time>2023-08-14T09:23:07Z</time>
      </trkpt>
      <trkpt lat="42.916692" lon="-8.065442">
        <ele>405.5</ele>
        <time>2023-08-14T09:25:12Z</time>
      </trkpt>
      <trkpt lat="42.916639" lon="-8.065681">
        <ele>406.5</ele>
        <time>2023-08-14T09:25:27Z</time>
      </trkpt>
      <trkpt lat="42.916540" lon="-8.065903">
        <ele>407.4</ele>
        <time>2023-08-14T09:25:43Z</time>
      </trkpt>
      <trkpt lat="42.916490" lon="-8.066153">
        <ele>409.5</ele>
        <time>2023-08-14T09:25:55Z</time>
      </trkpt>
      <trkpt lat="42.916424" lon="-8.066385">
        <ele>411.5</ele>
        <time>2023-08-14T09:26:07Z</time>
      </trkpt>
      <trkpt lat="42.916391" lon="-8.066628">
        <ele>409.5</ele>
        <time>2023-08-14T09:26:22Z</time>
      </trkpt>
      <trkpt lat="42.916386" lon="-8.066888">
        <ele>413.5</ele>
        <time>2023-08-14T09:26:34Z</time>
      </trkpt>
      <trkpt lat="42.916278" lon="-8.067100">
        <ele>414.2</ele>
        <time>2023-08-14T09:26:48Z</time>
      </trkpt>
      <trkpt lat="42.916228" lon="-8.067341">
        <ele>412.5</ele>
        <time>2023-08-14T09:27:02Z</time>
      </trkpt>
      <trkpt lat="42.916196" lon="-8.067589">
        <ele>411.5</ele>
        <time>2023-08-14T09:27:16Z</time>
      </trkpt>
      <trkpt lat="42.916169" lon="-8.067834">
        <ele>413.5</ele>
        <time>2023-08-14T09:27:29Z</time>
      </trkpt>
      <trkpt lat="42.916163" lon="-8.068087">
        <ele>415.2</ele>
        <time>2023-08-14T09:27:42Z</time>
      </trkpt>
      <trkpt lat="42.916125" lon="-8.068327">
        <ele>415.5</ele>
        <time>2023-08-14T09:27:55Z</time>
      </trkpt>
      <trkpt lat="42.916085" lon="-8.068569">
        <ele>414.5</ele>
        <time>2023-08-14T09:28:08Z</time>
      </trkpt>
      <trkpt lat="42.916048" lon="-8.068821">
        <ele>417.4</ele>
        <time>2023-08-14T09:28:21Z</time>
      </trkpt>
      <trkpt lat="42.915974" lon="-8.069047">
        <ele>416.8</ele>
        <time>2023-08-14T09:28:34Z</time>
      </trkpt>
      <trkpt lat="42.915899" lon="-8.069279">
        <ele>416.5</ele>
        <time>2023-08-14T09:28:47Z</time>
      </trkpt>
      <trkpt lat="42.915816" lon="-8.069508">
        <ele>417.5</ele>
        <time>2023-08-14T09:29:01Z</time>
      </trkpt>
      <trkpt lat="42.915789" lon="-8.069759">
        <ele>418.5</ele>
        <time>2023-08-14T09:29:13Z</time>
      </trkpt>
      <trkpt lat="42.915738" lon="-8.069995">
        <ele>420.5</ele>
        <time>2023-08-14T09:29:27Z</time>
      </trkpt>
      <trkpt lat="42.915723" lon="-8.070249">
        <ele>420.5</ele>
        <time>2023-08-14T09:29:40Z</time>
      </trkpt>
      <trkpt lat="42.915760" lon="-8.070497">
        <ele>425.9</ele>
        <time>2023-08-14T09:29:53Z</time>
      </trkpt>
      <trkpt lat="42.915811" lon="-8.070738">
        <ele>426.0</ele>
        <time>2023-08-14T09:30:06Z</time>
      </trkpt>
      <trkpt lat="42.915809" lon="-8.070984">
        <ele>426.0</ele>
        <time>2023-08-14T09:30:20Z</time>
      </trkpt>
      <trkpt lat="42.915781" lon="-8.071236">
        <ele>426.0</ele>
        <time>2023-08-14T09:30:33Z</time>
      </trkpt>
      <trkpt lat="42.915760" lon="-8.071484">
        <ele>426.0</ele>
        <time>2023-08-14T09:30:47Z</time>
      </trkpt>
      <trkpt lat="42.915800" lon="-8.071732">
        <ele>426.8</ele>
        <time>2023-08-14T09:31:01Z</time>
      </trkpt>
      <trkpt lat="42.915894" lon="-8.071942">
        <ele>427.2</ele>
        <time>2023-08-14T09:31:14Z</time>
      </trkpt>
      <trkpt lat="42.915978" lon="-8.072169">
        <ele>423.9</ele>
        <time>2023-08-14T09:31:28Z</time>
      </trkpt>
      <trkpt lat="42.915937" lon="-8.072411">
        <ele>423.9</ele>
        <time>2023-08-14T09:31:41Z</time>
      </trkpt>
      <trkpt lat="42.915878" lon="-8.072640">
        <ele>423.9</ele>
        <time>2023-08-14T09:31:55Z</time>
      </trkpt>
      <trkpt lat="42.915785" lon="-8.072850">
        <ele>418.6</ele>
        <time>2023-08-14T09:32:07Z</time>
      </trkpt>
      <trkpt lat="42.915674" lon="-8.073071">
        <ele>410.5</ele>
        <time>2023-08-14T09:32:21Z</time>
      </trkpt>
      <trkpt lat="42.915590" lon="-8.073277">
        <ele>412.5</ele>
        <time>2023-08-14T09:32:34Z</time>
      </trkpt>
      <trkpt lat="42.915506" lon="-8.073499">
        <ele>412.5</ele>
        <time>2023-08-14T09:33:14Z</time>
      </trkpt>
      <trkpt lat="42.915576" lon="-8.073728">
        <ele>418.6</ele>
        <time>2023-08-14T09:33:28Z</time>
      </trkpt>
      <trkpt lat="42.915703" lon="-8.073917">
        <ele>407.5</ele>
        <time>2023-08-14T09:33:42Z</time>
      </trkpt>
      <trkpt lat="42.915844" lon="-8.074072">
        <ele>413.6</ele>
        <time>2023-08-14T09:33:54Z</time>
      </trkpt>
      <trkpt lat="42.915953" lon="-8.074272">
        <ele>413.6</ele>
        <time>2023-08-14T09:34:08Z</time>
      </trkpt>
      <trkpt lat="42.915965" lon="-8.074522">
        <ele>413.6</ele>
        <time>2023-08-14T09:34:22Z</time>
      </trkpt>
      <trkpt lat="42.915989" lon="-8.074768">
        <ele>413.6</ele>
        <time>2023-08-14T09:34:36Z</time>
      </trkpt>
      <trkpt lat="42.916006" lon="-8.075018">
        <ele>413.6</ele>
        <time>2023-08-14T09:34:50Z</time>
      </trkpt>
      <trkpt lat="42.915984" lon="-8.075248">
        <ele>413.6</ele>
        <time>2023-08-14T09:35:04Z</time>
      </trkpt>
      <trkpt lat="42.915992" lon="-8.075491">
        <ele>413.6</ele>
        <time>2023-08-14T09:35:17Z</time>
      </trkpt>
      <trkpt lat="42.916005" lon="-8.075739">
        <ele>398.2</ele>
        <time>2023-08-14T09:35:31Z</time>
      </trkpt>
      <trkpt lat="42.916023" lon="-8.075984">
        <ele>398.5</ele>
        <time>2023-08-14T09:35:45Z</time>
      </trkpt>
      <trkpt lat="42.916071" lon="-8.076226">
        <ele>396.5</ele>
        <time>2023-08-14T09:35:58Z</time>
      </trkpt>
      <trkpt lat="42.916097" lon="-8.076470">
        <ele>402.5</ele>
        <time>2023-08-14T09:36:12Z</time>
      </trkpt>
      <trkpt lat="42.916139" lon="-8.076710">
        <ele>401.1</ele>
        <time>2023-08-14T09:36:26Z</time>
      </trkpt>
      <trkpt lat="42.916124" lon="-8.076963">
        <ele>400.5</ele>
        <time>2023-08-14T09:36:38Z</time>
      </trkpt>
      <trkpt lat="42.916136" lon="-8.077217">
        <ele>400.3</ele>
        <time>2023-08-14T09:36:53Z</time>
      </trkpt>
      <trkpt lat="42.916126" lon="-8.077486">
        <ele>400.3</ele>
        <time>2023-08-14T09:37:07Z</time>
      </trkpt>
      <trkpt lat="42.916092" lon="-8.077947">
        <ele>400.3</ele>
        <time>2023-08-14T09:37:21Z</time>
      </trkpt>
      <trkpt lat="42.916203" lon="-8.077956">
        <ele>399.6</ele>
        <time>2023-08-14T09:37:39Z</time>
      </trkpt>
      <trkpt lat="42.916373" lon="-8.078040">
        <ele>398.6</ele>
        <time>2023-08-14T09:37:53Z</time>
      </trkpt>
      <trkpt lat="42.916479" lon="-8.078245">
        <ele>397.6</ele>
        <time>2023-08-14T09:38:09Z</time>
      </trkpt>
      <trkpt lat="42.916570" lon="-8.078463">
        <ele>389.5</ele>
        <time>2023-08-14T09:38:22Z</time>
      </trkpt>
      <trkpt lat="42.916672" lon="-8.078676">
        <ele>388.5</ele>
        <time>2023-08-14T09:38:36Z</time>
      </trkpt>
      <trkpt lat="42.916772" lon="-8.078881">
        <ele>388.5</ele>
        <time>2023-08-14T09:38:50Z</time>
      </trkpt>
      <trkpt lat="42.916921" lon="-8.079025">
        <ele>388.5</ele>
        <time>2023-08-14T09:39:05Z</time>
      </trkpt>
      <trkpt lat="42.917100" lon="-8.079057">
        <ele>387.5</ele>
        <time>2023-08-14T09:39:17Z</time>
      </trkpt>
      <trkpt lat="42.917286" lon="-8.079057">
        <ele>392.1</ele>
        <time>2023-08-14T09:39:32Z</time>
      </trkpt>
      <trkpt lat="42.917471" lon="-8.079070">
        <ele>392.1</ele>
        <time>2023-08-14T09:39:46Z</time>
      </trkpt>
      <trkpt lat="42.917648" lon="-8.079122">
        <ele>392.1</ele>
        <time>2023-08-14T09:40:01Z</time>
      </trkpt>
      <trkpt lat="42.917792" lon="-8.079279">
        <ele>392.1</ele>
        <time>2023-08-14T09:40:16Z</time>
      </trkpt>
      <trkpt lat="42.917920" lon="-8.079463">
        <ele>377.6</ele>
        <time>2023-08-14T09:40:30Z</time>
      </trkpt>
      <trkpt lat="42.917999" lon="-8.079694">
        <ele>375.5</ele>
        <time>2023-08-14T09:40:44Z</time>
      </trkpt>
      <trkpt lat="42.918053" lon="-8.079938">
        <ele>373.5</ele>
        <time>2023-08-14T09:41:01Z</time>
      </trkpt>
      <trkpt lat="42.918076" lon="-8.080160">
        <ele>368.6</ele>
        <time>2023-08-14T09:41:13Z</time>
      </trkpt>
      <trkpt lat="42.918086" lon="-8.080405">
        <ele>366.5</ele>
        <time>2023-08-14T09:41:27Z</time>
      </trkpt>
      <trkpt lat="42.918149" lon="-8.080639">
        <ele>368.6</ele>
        <time>2023-08-14T09:41:42Z</time>
      </trkpt>
      <trkpt lat="42.918238" lon="-8.080869">
        <ele>367.5</ele>
        <time>2023-08-14T09:41:56Z</time>
      </trkpt>
      <trkpt lat="42.918332" lon="-8.081086">
        <ele>365.8</ele>
        <time>2023-08-14T09:42:10Z</time>
      </trkpt>
      <trkpt lat="42.918356" lon="-8.081342">
        <ele>361.5</ele>
        <time>2023-08-14T09:42:25Z</time>
      </trkpt>
      <trkpt lat="42.918318" lon="-8.081584">
        <ele>358.5</ele>
        <time>2023-08-14T09:42:40Z</time>
      </trkpt>
      <trkpt lat="42.918421" lon="-8.081796">
        <ele>359.5</ele>
        <time>2023-08-14T09:42:57Z</time>
      </trkpt>
      <trkpt lat="42.918336" lon="-8.082014">
        <ele>356.5</ele>
        <time>2023-08-14T09:43:14Z</time>
      </trkpt>
      <trkpt lat="42.918322" lon="-8.082270">
        <ele>354.2</ele>
        <time>2023-08-14T09:43:29Z</time>
      </trkpt>
      <trkpt lat="42.918395" lon="-8.082503">
        <ele>353.5</ele>
        <time>2023-08-14T09:43:40Z</time>
      </trkpt>
      <trkpt lat="42.918450" lon="-8.082749">
        <ele>351.8</ele>
        <time>2023-08-14T09:43:54Z</time>
      </trkpt>
      <trkpt lat="42.918471" lon="-8.082996">
        <ele>352.5</ele>
        <time>2023-08-14T09:44:08Z</time>
      </trkpt>
      <trkpt lat="42.918474" lon="-8.083242">
        <ele>349.5</ele>
        <time>2023-08-14T09:44:22Z</time>
      </trkpt>
      <trkpt lat="42.918368" lon="-8.083448">
        <ele>347.8</ele>
        <time>2023-08-14T09:44:38Z</time>
      </trkpt>
      <trkpt lat="42.918240" lon="-8.083628">
        <ele>345.5</ele>
        <time>2023-08-14T09:44:53Z</time>
      </trkpt>
      <trkpt lat="42.918127" lon="-8.083830">
        <ele>342.5</ele>
        <time>2023-08-14T09:45:07Z</time>
      </trkpt>
      <trkpt lat="42.918018" lon="-8.084031">
        <ele>341.5</ele>
        <time>2023-08-14T09:45:22Z</time>
      </trkpt>
      <trkpt lat="42.917986" lon="-8.084273">
        <ele>341.2</ele>
        <time>2023-08-14T09:45:35Z</time>
      </trkpt>
      <trkpt lat="42.917996" lon="-8.084524">
        <ele>340.5</ele>
        <time>2023-08-14T09:45:49Z</time>
      </trkpt>
      <trkpt lat="42.918033" lon="-8.084767">
        <ele>335.6</ele>
        <time>2023-08-14T09:46:04Z</time>
      </trkpt>
      <trkpt lat="42.918041" lon="-8.085015">
        <ele>333.5</ele>
        <time>2023-08-14T09:46:23Z</time>
      </trkpt>
      <trkpt lat="42.918154" lon="-8.085228">
        <ele>327.4</ele>
        <time>2023-08-14T09:46:35Z</time>
      </trkpt>
      <trkpt lat="42.918218" lon="-8.085445">
        <ele>328.6</ele>
        <time>2023-08-14T09:46:44Z</time>
      </trkpt>
      <trkpt lat="42.918283" lon="-8.085677">
        <ele>327.8</ele>
        <time>2023-08-14T09:46:58Z</time>
      </trkpt>
      <trkpt lat="42.918395" lon="-8.085865">
        <ele>326.5</ele>
        <time>2023-08-14T09:47:11Z</time>
      </trkpt>
      <trkpt lat="42.918508" lon="-8.086068">
        <ele>325.5</ele>
        <time>2023-08-14T09:47:26Z</time>
      </trkpt>
      <trkpt lat="42.918534" lon="-8.086321">
        <ele>321.6</ele>
        <time>2023-08-14T09:47:41Z</time>
      </trkpt>
      <trkpt lat="42.918548" lon="-8.086572">
        <ele>321.5</ele>
        <time>2023-08-14T09:47:55Z</time>
      </trkpt>
      <trkpt lat="42.918582" lon="-8.086816">
        <ele>321.6</ele>
        <time>2023-08-14T09:48:08Z</time>
      </trkpt>
      <trkpt lat="42.918601" lon="-8.087065">
        <ele>324.5</ele>
        <time>2023-08-14T09:48:20Z</time>
      </trkpt>
      <trkpt lat="42.918641" lon="-8.087305">
        <ele>325.5</ele>
        <time>2023-08-14T09:48:34Z</time>
      </trkpt>
      <trkpt lat="42.918716" lon="-8.087560">
        <ele>324.5</ele>
        <time>2023-08-14T09:48:48Z</time>
      </trkpt>
      <trkpt lat="42.918673" lon="-8.087792">
        <ele>327.5</ele>
        <time>2023-08-14T09:49:00Z</time>
      </trkpt>
      <trkpt lat="42.918601" lon="-8.088019">
        <ele>326.8</ele>
        <time>2023-08-14T09:49:13Z</time>
      </trkpt>
      <trkpt lat="42.918547" lon="-8.088256">
        <ele>324.6</ele>
        <time>2023-08-14T09:49:29Z</time>
      </trkpt>
      <trkpt lat="42.918547" lon="-8.088508">
        <ele>324.4</ele>
        <time>2023-08-14T09:49:42Z</time>
      </trkpt>
      <trkpt lat="42.918562" lon="-8.088757">
        <ele>321.5</ele>
        <time>2023-08-14T09:49:55Z</time>
      </trkpt>
      <trkpt lat="42.918515" lon="-8.089000">
        <ele>324.5</ele>
        <time>2023-08-14T09:50:11Z</time>
      </trkpt>
      <trkpt lat="42.918590" lon="-8.089224">
        <ele>327.5</ele>
        <time>2023-08-14T09:50:23Z</time>
      </trkpt>
      <trkpt lat="42.918770" lon="-8.089191">
        <ele>328.5</ele>
        <time>2023-08-14T09:50:40Z</time>
      </trkpt>
      <trkpt lat="42.918911" lon="-8.089024">
        <ele>331.5</ele>
        <time>2023-08-14T09:50:57Z</time>
      </trkpt>
      <trkpt lat="42.919067" lon="-8.088900">
        <ele>334.5</ele>
        <time>2023-08-14T09:51:12Z</time>
      </trkpt>
      <trkpt lat="42.919205" lon="-8.089072">
        <ele>338.5</ele>
        <time>2023-08-14T09:51:33Z</time>
      </trkpt>
      <trkpt lat="42.919274" lon="-8.089300">
        <ele>340.9</ele>
        <time>2023-08-14T09:51:47Z</time>
      </trkpt>
      <trkpt lat="42.919315" lon="-8.089541">
        <ele>344.5</ele>
        <time>2023-08-14T09:52:02Z</time>
      </trkpt>
      <trkpt lat="42.919366" lon="-8.089781">
        <ele>342.5</ele>
        <time>2023-08-14T09:52:20Z</time>
      </trkpt>
      <trkpt lat="42.919435" lon="-8.090010">
        <ele>346.8</ele>
        <time>2023-08-14T09:52:34Z</time>
      </trkpt>
      <trkpt lat="42.919486" lon="-8.090252">
        <ele>351.5</ele>
        <time>2023-08-14T09:52:48Z</time>
      </trkpt>
      <trkpt lat="42.919491" lon="-8.090500">
        <ele>356.2</ele>
        <time>2023-08-14T09:53:04Z</time>
      </trkpt>
      <trkpt lat="42.919494" lon="-8.090750">
        <ele>358.8</ele>
        <time>2023-08-14T09:53:19Z</time>
      </trkpt>
      <trkpt lat="42.919545" lon="-8.091017">
        <ele>362.5</ele>
        <time>2023-08-14T09:53:34Z</time>
      </trkpt>
      <trkpt lat="42.919662" lon="-8.091225">
        <ele>366.5</ele>
        <time>2023-08-14T09:53:47Z</time>
      </trkpt>
      <trkpt lat="42.919790" lon="-8.091385">
        <ele>366.5</ele>
        <time>2023-08-14T09:53:59Z</time>
      </trkpt>
      <trkpt lat="42.919917" lon="-8.091580">
        <ele>369.5</ele>
        <time>2023-08-14T09:54:14Z</time>
      </trkpt>
      <trkpt lat="42.920043" lon="-8.091745">
        <ele>371.6</ele>
        <time>2023-08-14T09:54:29Z</time>
      </trkpt>
      <trkpt lat="42.920178" lon="-8.091932">
        <ele>375.5</ele>
        <time>2023-08-14T09:54:45Z</time>
      </trkpt>
      <trkpt lat="42.920305" lon="-8.092105">
        <ele>380.5</ele>
        <time>2023-08-14T09:54:59Z</time>
      </trkpt>
      <trkpt lat="42.920437" lon="-8.092265">
        <ele>383.5</ele>
        <time>2023-08-14T09:55:14Z</time>
      </trkpt>
      <trkpt lat="42.920521" lon="-8.092495">
        <ele>389.2</ele>
        <time>2023-08-14T09:55:36Z</time>
      </trkpt>
      <trkpt lat="42.920689" lon="-8.092611">
        <ele>392.4</ele>
        <time>2023-08-14T09:56:04Z</time>
      </trkpt>
      <trkpt lat="42.920858" lon="-8.092712">
        <ele>393.6</ele>
        <time>2023-08-14T09:56:18Z</time>
      </trkpt>
      <trkpt lat="42.921033" lon="-8.092785">
        <ele>392.5</ele>
        <time>2023-08-14T09:56:32Z</time>
      </trkpt>
      <trkpt lat="42.921211" lon="-8.092846">
        <ele>394.5</ele>
        <time>2023-08-14T09:56:46Z</time>
      </trkpt>
      <trkpt lat="42.921382" lon="-8.092949">
        <ele>395.2</ele>
        <time>2023-08-14T09:57:01Z</time>
      </trkpt>
      <trkpt lat="42.921565" lon="-8.092994">
        <ele>396.5</ele>
        <time>2023-08-14T09:57:14Z</time>
      </trkpt>
      <trkpt lat="42.921742" lon="-8.093054">
        <ele>395.5</ele>
        <time>2023-08-14T09:57:27Z</time>
      </trkpt>
      <trkpt lat="42.921909" lon="-8.093152">
        <ele>395.5</ele>
        <time>2023-08-14T09:57:40Z</time>
      </trkpt>
      <trkpt lat="42.922088" lon="-8.093224">
        <ele>394.5</ele>
        <time>2023-08-14T09:57:55Z</time>
      </trkpt>
      <trkpt lat="42.922254" lon="-8.093325">
        <ele>395.4</ele>
        <time>2023-08-14T09:58:09Z</time>
      </trkpt>
      <trkpt lat="42.922415" lon="-8.093448">
        <ele>397.5</ele>
        <time>2023-08-14T09:58:23Z</time>
      </trkpt>
      <trkpt lat="42.922567" lon="-8.093587">
        <ele>398.4</ele>
        <time>2023-08-14T09:58:38Z</time>
      </trkpt>
      <trkpt lat="42.922729" lon="-8.093697">
        <ele>398.8</ele>
        <time>2023-08-14T09:58:51Z</time>
      </trkpt>
      <trkpt lat="42.922885" lon="-8.093827">
        <ele>400.5</ele>
        <time>2023-08-14T09:59:04Z</time>
      </trkpt>
      <trkpt lat="42.923039" lon="-8.093959">
        <ele>401.2</ele>
        <time>2023-08-14T09:59:18Z</time>
      </trkpt>
      <trkpt lat="42.923193" lon="-8.094095">
        <ele>400.6</ele>
        <time>2023-08-14T09:59:32Z</time>
      </trkpt>
      <trkpt lat="42.923349" lon="-8.094226">
        <ele>408.0</ele>
        <time>2023-08-14T09:59:45Z</time>
      </trkpt>
      <trkpt lat="42.923509" lon="-8.094346">
        <ele>408.0</ele>
        <time>2023-08-14T09:59:59Z</time>
      </trkpt>
      <trkpt lat="42.923653" lon="-8.094494">
        <ele>408.0</ele>
        <time>2023-08-14T10:00:12Z</time>
      </trkpt>
      <trkpt lat="42.923824" lon="-8.094630">
        <ele>408.2</ele>
        <time>2023-08-14T10:00:26Z</time>
      </trkpt>
      <trkpt lat="42.923945" lon="-8.094821">
        <ele>409.6</ele>
        <time>2023-08-14T10:00:40Z</time>
      </trkpt>
      <trkpt lat="42.924073" lon="-8.095000">
        <ele>409.6</ele>
        <time>2023-08-14T10:00:54Z</time>
      </trkpt>
      <trkpt lat="42.924186" lon="-8.095193">
        <ele>409.6</ele>
        <time>2023-08-14T10:01:08Z</time>
      </trkpt>
      <trkpt lat="42.924275" lon="-8.095407">
        <ele>409.6</ele>
        <time>2023-08-14T10:01:21Z</time>
      </trkpt>
      <trkpt lat="42.924328" lon="-8.095645">
        <ele>409.6</ele>
        <time>2023-08-14T10:01:35Z</time>
      </trkpt>
      <trkpt lat="42.924387" lon="-8.095880">
        <ele>404.5</ele>
        <time>2023-08-14T10:01:48Z</time>
      </trkpt>
      <trkpt lat="42.924445" lon="-8.096117">
        <ele>404.5</ele>
        <time>2023-08-14T10:02:02Z</time>
      </trkpt>
      <trkpt lat="42.924508" lon="-8.096348">
        <ele>405.5</ele>
        <time>2023-08-14T10:02:15Z</time>
      </trkpt>
      <trkpt lat="42.924567" lon="-8.096587">
        <ele>405.2</ele>
        <time>2023-08-14T10:02:29Z</time>
      </trkpt>
      <trkpt lat="42.924624" lon="-8.096827">
        <ele>403.5</ele>
        <time>2023-08-14T10:02:43Z</time>
      </trkpt>
      <trkpt lat="42.924682" lon="-8.097063">
        <ele>406.4</ele>
        <time>2023-08-14T10:02:57Z</time>
      </trkpt>
      <trkpt lat="42.924758" lon="-8.097318">
        <ele>407.5</ele>
        <time>2023-08-14T10:03:12Z</time>
      </trkpt>
      <trkpt lat="42.924678" lon="-8.097540">
        <ele>407.5</ele>
        <time>2023-08-14T10:03:27Z</time>
      </trkpt>
      <trkpt lat="42.924608" lon="-8.097775">
        <ele>413.5</ele>
        <time>2023-08-14T10:03:42Z</time>
      </trkpt>
      <trkpt lat="42.924555" lon="-8.098015">
        <ele>413.5</ele>
        <time>2023-08-14T10:03:56Z</time>
      </trkpt>
      <trkpt lat="42.924549" lon="-8.098262">
        <ele>413.2</ele>
        <time>2023-08-14T10:04:11Z</time>
      </trkpt>
      <trkpt lat="42.924561" lon="-8.098515">
        <ele>413.2</ele>
        <time>2023-08-14T10:04:26Z</time>
      </trkpt>
      <trkpt lat="42.924614" lon="-8.098752">
        <ele>413.2</ele>
        <time>2023-08-14T10:04:41Z</time>
      </trkpt>
      <trkpt lat="42.924702" lon="-8.098974">
        <ele>410.3</ele>
        <time>2023-08-14T10:04:54Z</time>
      </trkpt>
      <trkpt lat="42.924734" lon="-8.099223">
        <ele>411.0</ele>
        <time>2023-08-14T10:05:08Z</time>
      </trkpt>
      <trkpt lat="42.924678" lon="-8.099458">
        <ele>411.0</ele>
        <time>2023-08-14T10:05:22Z</time>
      </trkpt>
      <trkpt lat="42.924648" lon="-8.099705">
        <ele>411.0</ele>
        <time>2023-08-14T10:05:37Z</time>
      </trkpt>
      <trkpt lat="42.924653" lon="-8.099959">
        <ele>397.3</ele>
        <time>2023-08-14T10:06:56Z</time>
      </trkpt>
      <trkpt lat="42.924642" lon="-8.100212">
        <ele>397.5</ele>
        <time>2023-08-14T10:07:09Z</time>
      </trkpt>
      <trkpt lat="42.924643" lon="-8.100461">
        <ele>398.5</ele>
        <time>2023-08-14T10:07:23Z</time>
      </trkpt>
      <trkpt lat="42.924645" lon="-8.100715">
        <ele>397.5</ele>
        <time>2023-08-14T10:07:36Z</time>
      </trkpt>
      <trkpt lat="42.924639" lon="-8.100960">
        <ele>396.5</ele>
        <time>2023-08-14T10:07:50Z</time>
      </trkpt>
      <trkpt lat="42.924649" lon="-8.101211">
        <ele>395.5</ele>
        <time>2023-08-14T10:08:04Z</time>
      </trkpt>
      <trkpt lat="42.924654" lon="-8.101457">
        <ele>391.5</ele>
        <time>2023-08-14T10:08:17Z</time>
      </trkpt>
      <trkpt lat="42.924678" lon="-8.101707">
        <ele>392.5</ele>
        <time>2023-08-14T10:08:31Z</time>
      </trkpt>
      <trkpt lat="42.924756" lon="-8.101930">
        <ele>391.5</ele>
        <time>2023-08-14T10:08:44Z</time>
      </trkpt>
      <trkpt lat="42.924830" lon="-8.102159">
        <ele>392.5</ele>
        <time>2023-08-14T10:08:56Z</time>
      </trkpt>
      <trkpt lat="42.924888" lon="-8.102405">
        <ele>391.5</ele>
        <time>2023-08-14T10:09:14Z</time>
      </trkpt>
      <trkpt lat="42.924968" lon="-8.102630">
        <ele>391.5</ele>
        <time>2023-08-14T10:09:26Z</time>
      </trkpt>
      <trkpt lat="42.925032" lon="-8.102865">
        <ele>389.5</ele>
        <time>2023-08-14T10:09:39Z</time>
      </trkpt>
      <trkpt lat="42.925111" lon="-8.103086">
        <ele>388.5</ele>
        <time>2023-08-14T10:09:52Z</time>
      </trkpt>
      <trkpt lat="42.925176" lon="-8.103320">
        <ele>386.5</ele>
        <time>2023-08-14T10:10:05Z</time>
      </trkpt>
      <trkpt lat="42.925285" lon="-8.103515">
        <ele>385.5</ele>
        <time>2023-08-14T10:10:18Z</time>
      </trkpt>
      <trkpt lat="42.925388" lon="-8.103721">
        <ele>383.8</ele>
        <time>2023-08-14T10:10:31Z</time>
      </trkpt>
      <trkpt lat="42.925548" lon="-8.103855">
        <ele>382.5</ele>
        <time>2023-08-14T10:10:44Z</time>
      </trkpt>
      <trkpt lat="42.925708" lon="-8.103989">
        <ele>379.5</ele>
        <time>2023-08-14T10:10:57Z</time>
      </trkpt>
      <trkpt lat="42.925872" lon="-8.104098">
        <ele>377.6</ele>
        <time>2023-08-14T10:11:10Z</time>
      </trkpt>
      <trkpt lat="42.926056" lon="-8.104146">
        <ele>375.5</ele>
        <time>2023-08-14T10:11:23Z</time>
      </trkpt>
      <trkpt lat="42.926236" lon="-8.104180">
        <ele>372.5</ele>
        <time>2023-08-14T10:11:35Z</time>
      </trkpt>
      <trkpt lat="42.926419" lon="-8.104207">
        <ele>371.5</ele>
        <time>2023-08-14T10:11:49Z</time>
      </trkpt>
      <trkpt lat="42.926588" lon="-8.104295">
        <ele>370.8</ele>
        <time>2023-08-14T10:12:02Z</time>
      </trkpt>
      <trkpt lat="42.926682" lon="-8.104509">
        <ele>369.8</ele>
        <time>2023-08-14T10:12:15Z</time>
      </trkpt>
      <trkpt lat="42.926757" lon="-8.104744">
        <ele>367.5</ele>
        <time>2023-08-14T10:12:30Z</time>
      </trkpt>
      <trkpt lat="42.926818" lon="-8.104977">
        <ele>366.5</ele>
        <time>2023-08-14T10:12:42Z</time>
      </trkpt>
      <trkpt lat="42.926896" lon="-8.105208">
        <ele>369.5</ele>
        <time>2023-08-14T10:12:54Z</time>
      </trkpt>
      <trkpt lat="42.926965" lon="-8.105454">
        <ele>370.5</ele>
        <time>2023-08-14T10:13:07Z</time>
      </trkpt>
      <trkpt lat="42.927027" lon="-8.105680">
        <ele>370.5</ele>
        <time>2023-08-14T10:13:20Z</time>
      </trkpt>
      <trkpt lat="42.927105" lon="-8.105924">
        <ele>373.5</ele>
        <time>2023-08-14T10:13:32Z</time>
      </trkpt>
      <trkpt lat="42.927158" lon="-8.106156">
        <ele>376.5</ele>
        <time>2023-08-14T10:13:45Z</time>
      </trkpt>
      <trkpt lat="42.927236" lon="-8.106369">
        <ele>378.5</ele>
        <time>2023-08-14T10:13:56Z</time>
      </trkpt>
      <trkpt lat="42.927296" lon="-8.106603">
        <ele>378.5</ele>
        <time>2023-08-14T10:14:09Z</time>
      </trkpt>
      <trkpt lat="42.927353" lon="-8.106841">
        <ele>379.5</ele>
        <time>2023-08-14T10:14:22Z</time>
      </trkpt>
      <trkpt lat="42.927421" lon="-8.107087">
        <ele>379.5</ele>
        <time>2023-08-14T10:14:36Z</time>
      </trkpt>
      <trkpt lat="42.927475" lon="-8.107321">
        <ele>378.6</ele>
        <time>2023-08-14T10:14:48Z</time>
      </trkpt>
      <trkpt lat="42.927551" lon="-8.107545">
        <ele>391.2</ele>
        <time>2023-08-14T10:15:01Z</time>
      </trkpt>
      <trkpt lat="42.927613" lon="-8.107781">
        <ele>391.2</ele>
        <time>2023-08-14T10:15:14Z</time>
      </trkpt>
      <trkpt lat="42.927682" lon="-8.108008">
        <ele>391.2</ele>
        <time>2023-08-14T10:15:28Z</time>
      </trkpt>
      <trkpt lat="42.927752" lon="-8.108238">
        <ele>391.2</ele>
        <time>2023-08-14T10:15:41Z</time>
      </trkpt>
      <trkpt lat="42.927810" lon="-8.108473">
        <ele>391.2</ele>
        <time>2023-08-14T10:15:55Z</time>
      </trkpt>
      <trkpt lat="42.927879" lon="-8.108715">
        <ele>391.2</ele>
        <time>2023-08-14T10:16:09Z</time>
      </trkpt>
      <trkpt lat="42.927961" lon="-8.108939">
        <ele>391.2</ele>
        <time>2023-08-14T10:16:21Z</time>
      </trkpt>
      <trkpt lat="42.928011" lon="-8.109173">
        <ele>386.8</ele>
        <time>2023-08-14T10:16:35Z</time>
      </trkpt>
      <trkpt lat="42.928101" lon="-8.109386">
        <ele>385.5</ele>
        <time>2023-08-14T10:16:48Z</time>
      </trkpt>
      <trkpt lat="42.928141" lon="-8.109633">
        <ele>388.5</ele>
        <time>2023-08-14T10:17:01Z</time>
      </trkpt>
      <trkpt lat="42.928168" lon="-8.109885">
        <ele>390.5</ele>
        <time>2023-08-14T10:17:15Z</time>
      </trkpt>
      <trkpt lat="42.928129" lon="-8.110134">
        <ele>391.5</ele>
        <time>2023-08-14T10:17:29Z</time>
      </trkpt>
      <trkpt lat="42.928111" lon="-8.110381">
        <ele>391.5</ele>
        <time>2023-08-14T10:17:44Z</time>
      </trkpt>
      <trkpt lat="42.928084" lon="-8.110633">
        <ele>394.5</ele>
        <time>2023-08-14T10:17:58Z</time>
      </trkpt>
      <trkpt lat="42.928079" lon="-8.110883">
        <ele>395.5</ele>
        <time>2023-08-14T10:18:12Z</time>
      </trkpt>
      <trkpt lat="42.928043" lon="-8.111129">
        <ele>398.5</ele>
        <time>2023-08-14T10:18:28Z</time>
      </trkpt>
      <trkpt lat="42.927957" lon="-8.111349">
        <ele>404.5</ele>
        <time>2023-08-14T10:18:43Z</time>
      </trkpt>
      <trkpt lat="42.927849" lon="-8.111546">
        <ele>406.5</ele>
        <time>2023-08-14T10:18:55Z</time>
      </trkpt>
      <trkpt lat="42.927710" lon="-8.111703">
        <ele>405.6</ele>
        <time>2023-08-14T10:19:10Z</time>
      </trkpt>
      <trkpt lat="42.927574" lon="-8.111882">
        <ele>404.5</ele>
        <time>2023-08-14T10:19:26Z</time>
      </trkpt>
      <trkpt lat="42.927461" lon="-8.112083">
        <ele>408.5</ele>
        <time>2023-08-14T10:19:38Z</time>
      </trkpt>
      <trkpt lat="42.927346" lon="-8.112278">
        <ele>413.5</ele>
        <time>2023-08-14T10:19:52Z</time>
      </trkpt>
      <trkpt lat="42.927126" lon="-8.112534">
        <ele>417.2</ele>
        <time>2023-08-14T10:20:07Z</time>
      </trkpt>
      <trkpt lat="42.927139" lon="-8.112665">
        <ele>420.5</ele>
        <time>2023-08-14T10:20:23Z</time>
      </trkpt>
      <trkpt lat="42.927306" lon="-8.112765">
        <ele>420.5</ele>
        <time>2023-08-14T10:20:38Z</time>
      </trkpt>
      <trkpt lat="42.927477" lon="-8.113013">
        <ele>421.5</ele>
        <time>2023-08-14T10:20:53Z</time>
      </trkpt>
      <trkpt lat="42.927606" lon="-8.113034">
        <ele>422.5</ele>
        <time>2023-08-14T10:21:08Z</time>
      </trkpt>
      <trkpt lat="42.927791" lon="-8.113011">
        <ele>423.5</ele>
        <time>2023-08-14T10:21:23Z</time>
      </trkpt>
      <trkpt lat="42.927958" lon="-8.113108">
        <ele>422.8</ele>
        <time>2023-08-14T10:21:38Z</time>
      </trkpt>
      <trkpt lat="42.928087" lon="-8.113280">
        <ele>423.5</ele>
        <time>2023-08-14T10:21:51Z</time>
      </trkpt>
      <trkpt lat="42.928236" lon="-8.113419">
        <ele>421.5</ele>
        <time>2023-08-14T10:22:04Z</time>
      </trkpt>
      <trkpt lat="42.928381" lon="-8.113577">
        <ele>421.6</ele>
        <time>2023-08-14T10:22:19Z</time>
      </trkpt>
      <trkpt lat="42.928517" lon="-8.113746">
        <ele>421.5</ele>
        <time>2023-08-14T10:22:32Z</time>
      </trkpt>
      <trkpt lat="42.928611" lon="-8.113960">
        <ele>417.5</ele>
        <time>2023-08-14T10:22:46Z</time>
      </trkpt>
      <trkpt lat="42.928676" lon="-8.114197">
        <ele>415.5</ele>
        <time>2023-08-14T10:23:00Z</time>
      </trkpt>
      <trkpt lat="42.928734" lon="-8.114441">
        <ele>413.6</ele>
        <time>2023-08-14T10:23:14Z</time>
      </trkpt>
      <trkpt lat="42.928754" lon="-8.114692">
        <ele>410.5</ele>
        <time>2023-08-14T10:23:29Z</time>
      </trkpt>
      <trkpt lat="42.928817" lon="-8.114928">
        <ele>412.5</ele>
        <time>2023-08-14T10:23:42Z</time>
      </trkpt>
      <trkpt lat="42.928857" lon="-8.115169">
        <ele>409.5</ele>
        <time>2023-08-14T10:23:59Z</time>
      </trkpt>
      <trkpt lat="42.928905" lon="-8.115407">
        <ele>405.5</ele>
        <time>2023-08-14T10:24:13Z</time>
      </trkpt>
      <trkpt lat="42.928941" lon="-8.115657">
        <ele>401.9</ele>
        <time>2023-08-14T10:24:30Z</time>
      </trkpt>
      <trkpt lat="42.929004" lon="-8.115891">
        <ele>399.5</ele>
        <time>2023-08-14T10:24:44Z</time>
      </trkpt>
      <trkpt lat="42.929050" lon="-8.116133">
        <ele>400.5</ele>
        <time>2023-08-14T10:24:57Z</time>
      </trkpt>
      <trkpt lat="42.929099" lon="-8.116375">
        <ele>399.5</ele>
        <time>2023-08-14T10:25:12Z</time>
      </trkpt>
      <trkpt lat="42.929134" lon="-8.116621">
        <ele>397.6</ele>
        <time>2023-08-14T10:25:26Z</time>
      </trkpt>
      <trkpt lat="42.929155" lon="-8.116881">
        <ele>395.5</ele>
        <time>2023-08-14T10:25:42Z</time>
      </trkpt>
      <trkpt lat="42.929195" lon="-8.117124">
        <ele>391.6</ele>
        <time>2023-08-14T10:25:55Z</time>
      </trkpt>
      <trkpt lat="42.929243" lon="-8.117365">
        <ele>391.5</ele>
        <time>2023-08-14T10:26:11Z</time>
      </trkpt>
      <trkpt lat="42.929273" lon="-8.117610">
        <ele>387.9</ele>
        <time>2023-08-14T10:26:23Z</time>
      </trkpt>
      <trkpt lat="42.929306" lon="-8.117864">
        <ele>387.5</ele>
        <time>2023-08-14T10:26:35Z</time>
      </trkpt>
      <trkpt lat="42.929362" lon="-8.118102">
        <ele>386.5</ele>
        <time>2023-08-14T10:26:48Z</time>
      </trkpt>
      <trkpt lat="42.929403" lon="-8.118350">
        <ele>384.5</ele>
        <time>2023-08-14T10:27:02Z</time>
      </trkpt>
      <trkpt lat="42.929450" lon="-8.118598">
        <ele>381.9</ele>
        <time>2023-08-14T10:27:17Z</time>
      </trkpt>
      <trkpt lat="42.929483" lon="-8.118851">
        <ele>379.6</ele>
        <time>2023-08-14T10:27:32Z</time>
      </trkpt>
      <trkpt lat="42.929476" lon="-8.119105">
        <ele>378.5</ele>
        <time>2023-08-14T10:27:46Z</time>
      </trkpt>
      <trkpt lat="42.929480" lon="-8.119363">
        <ele>379.5</ele>
        <time>2023-08-14T10:28:01Z</time>
      </trkpt>
      <trkpt lat="42.929509" lon="-8.119620">
        <ele>377.5</ele>
        <time>2023-08-14T10:28:14Z</time>
      </trkpt>
      <trkpt lat="42.929524" lon="-8.119867">
        <ele>378.5</ele>
        <time>2023-08-14T10:28:27Z</time>
      </trkpt>
      <trkpt lat="42.929500" lon="-8.120116">
        <ele>378.5</ele>
        <time>2023-08-14T10:28:40Z</time>
      </trkpt>
      <trkpt lat="42.929429" lon="-8.120343">
        <ele>379.5</ele>
        <time>2023-08-14T10:28:58Z</time>
      </trkpt>
      <trkpt lat="42.929579" lon="-8.120492">
        <ele>379.6</ele>
        <time>2023-08-14T10:29:11Z</time>
      </trkpt>
      <trkpt lat="42.929673" lon="-8.120713">
        <ele>379.6</ele>
        <time>2023-08-14T10:29:24Z</time>
      </trkpt>
      <trkpt lat="42.929699" lon="-8.120957">
        <ele>380.5</ele>
        <time>2023-08-14T10:29:39Z</time>
      </trkpt>
      <trkpt lat="42.929763" lon="-8.121190">
        <ele>379.5</ele>
        <time>2023-08-14T10:29:54Z</time>
      </trkpt>
      <trkpt lat="42.929850" lon="-8.121410">
        <ele>379.5</ele>
        <time>2023-08-14T10:30:06Z</time>
      </trkpt>
      <trkpt lat="42.929896" lon="-8.121654">
        <ele>376.6</ele>
        <time>2023-08-14T10:30:21Z</time>
      </trkpt>
      <trkpt lat="42.929940" lon="-8.121900">
        <ele>374.6</ele>
        <time>2023-08-14T10:30:37Z</time>
      </trkpt>
      <trkpt lat="42.929945" lon="-8.122156">
        <ele>374.6</ele>
        <time>2023-08-14T10:30:52Z</time>
      </trkpt>
      <trkpt lat="42.930010" lon="-8.122390">
        <ele>371.6</ele>
        <time>2023-08-14T10:31:08Z</time>
      </trkpt>
      <trkpt lat="42.930108" lon="-8.122602">
        <ele>372.6</ele>
        <time>2023-08-14T10:31:21Z</time>
      </trkpt>
      <trkpt lat="42.930186" lon="-8.122829">
        <ele>370.6</ele>
        <time>2023-08-14T10:31:34Z</time>
      </trkpt>
      <trkpt lat="42.930146" lon="-8.123075">
        <ele>367.6</ele>
        <time>2023-08-14T10:31:56Z</time>
      </trkpt>
      <trkpt lat="42.930111" lon="-8.123323">
        <ele>366.6</ele>
        <time>2023-08-14T10:32:08Z</time>
      </trkpt>
      <trkpt lat="42.930114" lon="-8.123581">
        <ele>366.6</ele>
        <time>2023-08-14T10:32:21Z</time>
      </trkpt>
      <trkpt lat="42.930131" lon="-8.123827">
        <ele>365.6</ele>
        <time>2023-08-14T10:32:33Z</time>
      </trkpt>
      <trkpt lat="42.930121" lon="-8.124072">
        <ele>364.6</ele>
        <time>2023-08-14T10:32:47Z</time>
      </trkpt>
      <trkpt lat="42.930141" lon="-8.124322">
        <ele>363.6</ele>
        <time>2023-08-14T10:33:00Z</time>
      </trkpt>
      <trkpt lat="42.930186" lon="-8.124568">
        <ele>363.5</ele>
        <time>2023-08-14T10:33:14Z</time>
      </trkpt>
      <trkpt lat="42.930226" lon="-8.124811">
        <ele>360.6</ele>
        <time>2023-08-14T10:33:28Z</time>
      </trkpt>
      <trkpt lat="42.930253" lon="-8.125053">
        <ele>354.6</ele>
        <time>2023-08-14T10:33:44Z</time>
      </trkpt>
      <trkpt lat="42.930333" lon="-8.125276">
        <ele>351.6</ele>
        <time>2023-08-14T10:33:58Z</time>
      </trkpt>
      <trkpt lat="42.930460" lon="-8.125457">
        <ele>347.9</ele>
        <time>2023-08-14T10:34:14Z</time>
      </trkpt>
      <trkpt lat="42.930559" lon="-8.125667">
        <ele>346.6</ele>
        <time>2023-08-14T10:34:27Z</time>
      </trkpt>
      <trkpt lat="42.930664" lon="-8.125876">
        <ele>345.6</ele>
        <time>2023-08-14T10:34:40Z</time>
      </trkpt>
      <trkpt lat="42.930776" lon="-8.126078">
        <ele>341.6</ele>
        <time>2023-08-14T10:34:54Z</time>
      </trkpt>
      <trkpt lat="42.930859" lon="-8.126301">
        <ele>339.6</ele>
        <time>2023-08-14T10:35:08Z</time>
      </trkpt>
      <trkpt lat="42.930919" lon="-8.126540">
        <ele>337.5</ele>
        <time>2023-08-14T10:35:22Z</time>
      </trkpt>
      <trkpt lat="42.930944" lon="-8.126787">
        <ele>333.9</ele>
        <time>2023-08-14T10:35:36Z</time>
      </trkpt>
      <trkpt lat="42.930967" lon="-8.127031">
        <ele>334.5</ele>
        <time>2023-08-14T10:35:49Z</time>
      </trkpt>
      <trkpt lat="42.931012" lon="-8.127274">
        <ele>334.5</ele>
        <time>2023-08-14T10:36:02Z</time>
      </trkpt>
      <trkpt lat="42.930988" lon="-8.127523">
        <ele>334.5</ele>
        <time>2023-08-14T10:36:16Z</time>
      </trkpt>
      <trkpt lat="42.931004" lon="-8.127768">
        <ele>328.0</ele>
        <time>2023-08-14T10:36:30Z</time>
      </trkpt>
      <trkpt lat="42.930979" lon="-8.128014">
        <ele>328.0</ele>
        <time>2023-08-14T10:36:45Z</time>
      </trkpt>
      <trkpt lat="42.930934" lon="-8.128263">
        <ele>328.0</ele>
        <time>2023-08-14T10:37:00Z</time>
      </trkpt>
      <trkpt lat="42.930900" lon="-8.128507">
        <ele>328.0</ele>
        <time>2023-08-14T10:37:13Z</time>
      </trkpt>
      <trkpt lat="42.930904" lon="-8.128759">
        <ele>328.0</ele>
        <time>2023-08-14T10:37:26Z</time>
      </trkpt>
      <trkpt lat="42.930931" lon="-8.129011">
        <ele>328.0</ele>
        <time>2023-08-14T10:37:41Z</time>
      </trkpt>
      <trkpt lat="42.930960" lon="-8.129264">
        <ele>328.0</ele>
        <time>2023-08-14T10:37:55Z</time>
      </trkpt>
      <trkpt lat="42.931032" lon="-8.129491">
        <ele>306.6</ele>
        <time>2023-08-14T10:38:07Z</time>
      </trkpt>
      <trkpt lat="42.931004" lon="-8.129736">
        <ele>304.6</ele>
        <time>2023-08-14T10:38:20Z</time>
      </trkpt>
      <trkpt lat="42.930957" lon="-8.129983">
        <ele>305.8</ele>
        <time>2023-08-14T10:39:31Z</time>
      </trkpt>
      <trkpt lat="42.930856" lon="-8.130188">
        <ele>303.6</ele>
        <time>2023-08-14T10:39:44Z</time>
      </trkpt>
      <trkpt lat="42.930761" lon="-8.130398">
        <ele>313.4</ele>
        <time>2023-08-14T10:40:11Z</time>
      </trkpt>
      <trkpt lat="42.930708" lon="-8.130638">
        <ele>314.0</ele>
        <time>2023-08-14T10:40:22Z</time>
      </trkpt>
      <trkpt lat="42.930622" lon="-8.130875">
        <ele>312.2</ele>
        <time>2023-08-14T10:40:37Z</time>
      </trkpt>
      <trkpt lat="42.930532" lon="-8.131090">
        <ele>312.1</ele>
        <time>2023-08-14T10:40:51Z</time>
      </trkpt>
      <trkpt lat="42.930479" lon="-8.131327">
        <ele>313.1</ele>
        <time>2023-08-14T10:41:04Z</time>
      </trkpt>
      <trkpt lat="42.930474" lon="-8.131583">
        <ele>313.0</ele>
        <time>2023-08-14T10:41:18Z</time>
      </trkpt>
      <trkpt lat="42.930483" lon="-8.131831">
        <ele>314.9</ele>
        <time>2023-08-14T10:41:40Z</time>
      </trkpt>
      <trkpt lat="42.930475" lon="-8.132078">
        <ele>314.8</ele>
        <time>2023-08-14T10:41:58Z</time>
      </trkpt>
      <trkpt lat="42.930529" lon="-8.132322">
        <ele>315.8</ele>
        <time>2023-08-14T10:42:12Z</time>
      </trkpt>
      <trkpt lat="42.930561" lon="-8.132568">
        <ele>313.0</ele>
        <time>2023-08-14T10:42:30Z</time>
      </trkpt>
      <trkpt lat="42.930650" lon="-8.132784">
        <ele>319.2</ele>
        <time>2023-08-14T10:42:47Z</time>
      </trkpt>
      <trkpt lat="42.930708" lon="-8.133020">
        <ele>319.2</ele>
        <time>2023-08-14T10:43:02Z</time>
      </trkpt>
      <trkpt lat="42.930753" lon="-8.133265">
        <ele>318.6</ele>
        <time>2023-08-14T10:43:15Z</time>
      </trkpt>
      <trkpt lat="42.930786" lon="-8.133514">
        <ele>319.2</ele>
        <time>2023-08-14T10:43:30Z</time>
      </trkpt>
      <trkpt lat="42.930820" lon="-8.133758">
        <ele>319.2</ele>
        <time>2023-08-14T10:43:45Z</time>
      </trkpt>
      <trkpt lat="42.930858" lon="-8.134005">
        <ele>319.2</ele>
        <time>2023-08-14T10:44:00Z</time>
      </trkpt>
      <trkpt lat="42.930919" lon="-8.134238">
        <ele>319.2</ele>
        <time>2023-08-14T10:44:15Z</time>
      </trkpt>
      <trkpt lat="42.930992" lon="-8.134605">
        <ele>319.2</ele>
        <time>2023-08-14T10:44:30Z</time>
      </trkpt>
      <trkpt lat="42.930898" lon="-8.134724">
        <ele>319.2</ele>
        <time>2023-08-14T10:44:46Z</time>
      </trkpt>
      <trkpt lat="42.930771" lon="-8.134902">
        <ele>329.5</ele>
        <time>2023-08-14T10:45:00Z</time>
      </trkpt>
      <trkpt lat="42.930653" lon="-8.135098">
        <ele>332.6</ele>
        <time>2023-08-14T10:45:15Z</time>
      </trkpt>
      <trkpt lat="42.930510" lon="-8.135251">
        <ele>351.9</ele>
        <time>2023-08-14T10:45:32Z</time>
      </trkpt>
      <trkpt lat="42.930329" lon="-8.135248">
        <ele>351.9</ele>
        <time>2023-08-14T10:45:47Z</time>
      </trkpt>
      <trkpt lat="42.930145" lon="-8.135231">
        <ele>333.6</ele>
        <time>2023-08-14T10:46:00Z</time>
      </trkpt>
      <trkpt lat="42.929965" lon="-8.135246">
        <ele>334.5</ele>
        <time>2023-08-14T10:46:15Z</time>
      </trkpt>
      <trkpt lat="42.929784" lon="-8.135291">
        <ele>332.6</ele>
        <time>2023-08-14T10:46:29Z</time>
      </trkpt>
      <trkpt lat="42.929610" lon="-8.135397">
        <ele>332.6</ele>
        <time>2023-08-14T10:46:44Z</time>
      </trkpt>
      <trkpt lat="42.929409" lon="-8.135457">
        <ele>330.7</ele>
        <time>2023-08-14T10:46:58Z</time>
      </trkpt>
      <trkpt lat="42.929222" lon="-8.135607">
        <ele>328.6</ele>
        <time>2023-08-14T10:47:12Z</time>
      </trkpt>
      <trkpt lat="42.929240" lon="-8.135878">
        <ele>329.3</ele>
        <time>2023-08-14T10:47:32Z</time>
      </trkpt>
      <trkpt lat="42.929211" lon="-8.136055">
        <ele>331.3</ele>
        <time>2023-08-14T10:47:44Z</time>
      </trkpt>
      <trkpt lat="42.929029" lon="-8.136176">
        <ele>332.6</ele>
        <time>2023-08-14T10:47:57Z</time>
      </trkpt>
      <trkpt lat="42.928864" lon="-8.136349">
        <ele>335.5</ele>
        <time>2023-08-14T10:48:11Z</time>
      </trkpt>
      <trkpt lat="42.929090" lon="-8.136327">
        <ele>339.6</ele>
        <time>2023-08-14T10:48:34Z</time>
      </trkpt>
      <trkpt lat="42.929267" lon="-8.136275">
        <ele>339.6</ele>
        <time>2023-08-14T10:48:50Z</time>
      </trkpt>
      <trkpt lat="42.929439" lon="-8.136201">
        <ele>351.9</ele>
        <time>2023-08-14T10:49:01Z</time>
      </trkpt>
      <trkpt lat="42.929617" lon="-8.136155">
        <ele>351.9</ele>
        <time>2023-08-14T10:49:14Z</time>
      </trkpt>
      <trkpt lat="42.929803" lon="-8.136123">
        <ele>351.9</ele>
        <time>2023-08-14T10:49:27Z</time>
      </trkpt>
      <trkpt lat="42.929983" lon="-8.136069">
        <ele>351.9</ele>
        <time>2023-08-14T10:49:41Z</time>
      </trkpt>
      <trkpt lat="42.930165" lon="-8.136076">
        <ele>351.9</ele>
        <time>2023-08-14T10:49:54Z</time>
      </trkpt>
      <trkpt lat="42.930341" lon="-8.136151">
        <ele>351.8</ele>
        <time>2023-08-14T10:50:10Z</time>
      </trkpt>
      <trkpt lat="42.930513" lon="-8.136223">
        <ele>352.5</ele>
        <time>2023-08-14T10:50:22Z</time>
      </trkpt>
      <trkpt lat="42.930665" lon="-8.136368">
        <ele>354.6</ele>
        <time>2023-08-14T10:50:37Z</time>
      </trkpt>
      <trkpt lat="42.930720" lon="-8.136605">
        <ele>355.6</ele>
        <time>2023-08-14T10:50:52Z</time>
      </trkpt>
      <trkpt lat="42.930763" lon="-8.136853">
        <ele>356.2</ele>
        <time>2023-08-14T10:51:05Z</time>
      </trkpt>
      <trkpt lat="42.930801" lon="-8.137096">
        <ele>356.2</ele>
        <time>2023-08-14T10:51:19Z</time>
      </trkpt>
      <trkpt lat="42.930839" lon="-8.137336">
        <ele>356.2</ele>
        <time>2023-08-14T10:51:33Z</time>
      </trkpt>
      <trkpt lat="42.930881" lon="-8.137580">
        <ele>356.2</ele>
        <time>2023-08-14T10:51:47Z</time>
      </trkpt>
      <trkpt lat="42.930883" lon="-8.137827">
        <ele>362.3</ele>
        <time>2023-08-14T10:52:00Z</time>
      </trkpt>
      <trkpt lat="42.930901" lon="-8.138073">
        <ele>362.3</ele>
        <time>2023-08-14T10:52:15Z</time>
      </trkpt>
      <trkpt lat="42.930882" lon="-8.138316">
        <ele>362.3</ele>
        <time>2023-08-14T10:52:28Z</time>
      </trkpt>
      <trkpt lat="42.930847" lon="-8.138551">
        <ele>368.4</ele>
        <time>2023-08-14T10:52:42Z</time>
      </trkpt>
      <trkpt lat="42.930835" lon="-8.138801">
        <ele>368.4</ele>
        <time>2023-08-14T10:52:58Z</time>
      </trkpt>
      <trkpt lat="42.930829" lon="-8.139040">
        <ele>368.4</ele>
        <time>2023-08-14T10:53:12Z</time>
      </trkpt>
      <trkpt lat="42.930785" lon="-8.139286">
        <ele>368.4</ele>
        <time>2023-08-14T10:53:22Z</time>
      </trkpt>
      <trkpt lat="42.930757" lon="-8.139536">
        <ele>368.4</ele>
        <time>2023-08-14T10:53:35Z</time>
      </trkpt>
      <trkpt lat="42.930767" lon="-8.139790">
        <ele>368.4</ele>
        <time>2023-08-14T10:53:47Z</time>
      </trkpt>
      <trkpt lat="42.930732" lon="-8.140031">
        <ele>368.4</ele>
        <time>2023-08-14T10:54:01Z</time>
      </trkpt>
      <trkpt lat="42.930663" lon="-8.140273">
        <ele>368.4</ele>
        <time>2023-08-14T10:54:14Z</time>
      </trkpt>
      <trkpt lat="42.930571" lon="-8.140488">
        <ele>368.4</ele>
        <time>2023-08-14T10:54:27Z</time>
      </trkpt>
      <trkpt lat="42.930470" lon="-8.140698">
        <ele>368.4</ele>
        <time>2023-08-14T10:54:41Z</time>
      </trkpt>
      <trkpt lat="42.930358" lon="-8.140896">
        <ele>368.4</ele>
        <time>2023-08-14T10:54:55Z</time>
      </trkpt>
      <trkpt lat="42.930252" lon="-8.141101">
        <ele>372.6</ele>
        <time>2023-08-14T10:55:08Z</time>
      </trkpt>
      <trkpt lat="42.930164" lon="-8.141324">
        <ele>377.3</ele>
        <time>2023-08-14T10:55:22Z</time>
      </trkpt>
      <trkpt lat="42.930079" lon="-8.141546">
        <ele>378.1</ele>
        <time>2023-08-14T10:55:37Z</time>
      </trkpt>
      <trkpt lat="42.930026" lon="-8.141790">
        <ele>381.0</ele>
        <time>2023-08-14T10:55:51Z</time>
      </trkpt>
      <trkpt lat="42.929986" lon="-8.142031">
        <ele>390.3</ele>
        <time>2023-08-14T10:56:05Z</time>
      </trkpt>
      <trkpt lat="42.929967" lon="-8.142280">
        <ele>390.3</ele>
        <time>2023-08-14T10:56:18Z</time>
      </trkpt>
      <trkpt lat="42.929947" lon="-8.142530">
        <ele>390.3</ele>
        <time>2023-08-14T10:56:32Z</time>
      </trkpt>
      <trkpt lat="42.929945" lon="-8.142777">
        <ele>390.3</ele>
        <time>2023-08-14T10:56:46Z</time>
      </trkpt>
      <trkpt lat="42.929957" lon="-8.143031">
        <ele>390.3</ele>
        <time>2023-08-14T10:57:01Z</time>
      </trkpt>
      <trkpt lat="42.929957" lon="-8.143280">
        <ele>391.5</ele>
        <time>2023-08-14T10:57:15Z</time>
      </trkpt>
      <trkpt lat="42.929955" lon="-8.143537">
        <ele>390.3</ele>
        <time>2023-08-14T10:57:28Z</time>
      </trkpt>
      <trkpt lat="42.929938" lon="-8.143789">
        <ele>390.3</ele>
        <time>2023-08-14T10:57:44Z</time>
      </trkpt>
      <trkpt lat="42.929940" lon="-8.144040">
        <ele>391.5</ele>
        <time>2023-08-14T10:57:57Z</time>
      </trkpt>
      <trkpt lat="42.929939" lon="-8.144286">
        <ele>391.5</ele>
        <time>2023-08-14T10:58:10Z</time>
      </trkpt>
      <trkpt lat="42.929964" lon="-8.144545">
        <ele>391.5</ele>
        <time>2023-08-14T10:58:23Z</time>
      </trkpt>
      <trkpt lat="42.929965" lon="-8.144797">
        <ele>391.5</ele>
        <time>2023-08-14T10:58:38Z</time>
      </trkpt>
      <trkpt lat="42.929979" lon="-8.145054">
        <ele>391.5</ele>
        <time>2023-08-14T10:58:53Z</time>
      </trkpt>
      <trkpt lat="42.929985" lon="-8.145301">
        <ele>391.5</ele>
        <time>2023-08-14T10:59:08Z</time>
      </trkpt>
      <trkpt lat="42.929977" lon="-8.145549">
        <ele>391.5</ele>
        <time>2023-08-14T10:59:23Z</time>
      </trkpt>
      <trkpt lat="42.929991" lon="-8.145798">
        <ele>388.3</ele>
        <time>2023-08-14T10:59:35Z</time>
      </trkpt>
      <trkpt lat="42.929965" lon="-8.146048">
        <ele>391.8</ele>
        <time>2023-08-14T10:59:49Z</time>
      </trkpt>
      <trkpt lat="42.929982" lon="-8.146295">
        <ele>394.4</ele>
        <time>2023-08-14T11:00:01Z</time>
      </trkpt>
      <trkpt lat="42.929984" lon="-8.146550">
        <ele>391.5</ele>
        <time>2023-08-14T11:00:16Z</time>
      </trkpt>
      <trkpt lat="42.929988" lon="-8.146795">
        <ele>391.5</ele>
        <time>2023-08-14T11:00:29Z</time>
      </trkpt>
      <trkpt lat="42.930000" lon="-8.147041">
        <ele>395.0</ele>
        <time>2023-08-14T11:00:43Z</time>
      </trkpt>
      <trkpt lat="42.929955" lon="-8.147284">
        <ele>395.0</ele>
        <time>2023-08-14T11:01:08Z</time>
      </trkpt>
      <trkpt lat="42.930022" lon="-8.147513">
        <ele>394.9</ele>
        <time>2023-08-14T11:01:20Z</time>
      </trkpt>
      <trkpt lat="42.930005" lon="-8.147761">
        <ele>391.8</ele>
        <time>2023-08-14T11:01:36Z</time>
      </trkpt>
      <trkpt lat="42.930023" lon="-8.148014">
        <ele>391.8</ele>
        <time>2023-08-14T11:01:48Z</time>
      </trkpt>
      <trkpt lat="42.930005" lon="-8.148273">
        <ele>392.3</ele>
        <time>2023-08-14T11:02:02Z</time>
      </trkpt>
      <trkpt lat="42.930007" lon="-8.148500">
        <ele>392.3</ele>
        <time>2023-08-14T11:02:15Z</time>
      </trkpt>
      <trkpt lat="42.930013" lon="-8.148768">
        <ele>391.0</ele>
        <time>2023-08-14T11:02:29Z</time>
      </trkpt>
      <trkpt lat="42.930029" lon="-8.149012">
        <ele>391.0</ele>
        <time>2023-08-14T11:02:44Z</time>
      </trkpt>
      <trkpt lat="42.930031" lon="-8.149262">
        <ele>391.0</ele>
        <time>2023-08-14T11:02:58Z</time>
      </trkpt>
      <trkpt lat="42.930036" lon="-8.149514">
        <ele>391.0</ele>
        <time>2023-08-14T11:03:13Z</time>
      </trkpt>
      <trkpt lat="42.930027" lon="-8.149762">
        <ele>391.0</ele>
        <time>2023-08-14T11:03:29Z</time>
      </trkpt>
      <trkpt lat="42.930049" lon="-8.150021">
        <ele>391.0</ele>
        <time>2023-08-14T11:03:40Z</time>
      </trkpt>
      <trkpt lat="42.930044" lon="-8.150296">
        <ele>391.0</ele>
        <time>2023-08-14T11:03:53Z</time>
      </trkpt>
      <trkpt lat="42.930059" lon="-8.150530">
        <ele>391.0</ele>
        <time>2023-08-14T11:04:06Z</time>
      </trkpt>
      <trkpt lat="42.930062" lon="-8.150785">
        <ele>382.3</ele>
        <time>2023-08-14T11:04:19Z</time>
      </trkpt>
      <trkpt lat="42.930070" lon="-8.150998">
        <ele>387.6</ele>
        <time>2023-08-14T11:04:32Z</time>
      </trkpt>
      <trkpt lat="42.930074" lon="-8.151261">
        <ele>388.7</ele>
        <time>2023-08-14T11:04:44Z</time>
      </trkpt>
      <trkpt lat="42.930078" lon="-8.151523">
        <ele>388.7</ele>
        <time>2023-08-14T11:04:59Z</time>
      </trkpt>
      <trkpt lat="42.930057" lon="-8.151767">
        <ele>388.7</ele>
        <time>2023-08-14T11:05:12Z</time>
      </trkpt>
      <trkpt lat="42.930038" lon="-8.152016">
        <ele>388.7</ele>
        <time>2023-08-14T11:05:26Z</time>
      </trkpt>
      <trkpt lat="42.930016" lon="-8.152261">
        <ele>393.0</ele>
        <time>2023-08-14T11:05:39Z</time>
      </trkpt>
      <trkpt lat="42.929993" lon="-8.152508">
        <ele>393.0</ele>
        <time>2023-08-14T11:05:51Z</time>
      </trkpt>
      <trkpt lat="42.929950" lon="-8.152741">
        <ele>398.0</ele>
        <time>2023-08-14T11:06:03Z</time>
      </trkpt>
      <trkpt lat="42.929887" lon="-8.152986">
        <ele>395.0</ele>
        <time>2023-08-14T11:06:16Z</time>
      </trkpt>
      <trkpt lat="42.929855" lon="-8.153242">
        <ele>393.7</ele>
        <time>2023-08-14T11:06:30Z</time>
      </trkpt>
      <trkpt lat="42.929798" lon="-8.153475">
        <ele>392.9</ele>
        <time>2023-08-14T11:06:42Z</time>
      </trkpt>
      <trkpt lat="42.929727" lon="-8.153692">
        <ele>393.6</ele>
        <time>2023-08-14T11:06:56Z</time>
      </trkpt>
      <trkpt lat="42.929638" lon="-8.153973">
        <ele>393.8</ele>
        <time>2023-08-14T11:07:11Z</time>
      </trkpt>
      <trkpt lat="42.929566" lon="-8.154200">
        <ele>394.3</ele>
        <time>2023-08-14T11:07:24Z</time>
      </trkpt>
      <trkpt lat="42.929495" lon="-8.154403">
        <ele>393.6</ele>
        <time>2023-08-14T11:07:37Z</time>
      </trkpt>
      <trkpt lat="42.929420" lon="-8.154607">
        <ele>394.3</ele>
        <time>2023-08-14T11:07:51Z</time>
      </trkpt>
      <trkpt lat="42.929328" lon="-8.154819">
        <ele>395.0</ele>
        <time>2023-08-14T11:08:04Z</time>
      </trkpt>
      <trkpt lat="42.929241" lon="-8.155035">
        <ele>396.7</ele>
        <time>2023-08-14T11:08:18Z</time>
      </trkpt>
      <trkpt lat="42.929140" lon="-8.155241">
        <ele>396.4</ele>
        <time>2023-08-14T11:08:33Z</time>
      </trkpt>
      <trkpt lat="42.929044" lon="-8.155451">
        <ele>396.4</ele>
        <time>2023-08-14T11:08:47Z</time>
      </trkpt>
      <trkpt lat="42.928967" lon="-8.155679">
        <ele>396.7</ele>
        <time>2023-08-14T11:08:59Z</time>
      </trkpt>
      <trkpt lat="42.928890" lon="-8.155903">
        <ele>396.8</ele>
        <time>2023-08-14T11:09:14Z</time>
      </trkpt>
      <trkpt lat="42.928812" lon="-8.156124">
        <ele>396.5</ele>
        <time>2023-08-14T11:09:27Z</time>
      </trkpt>
      <trkpt lat="42.928740" lon="-8.156322">
        <ele>396.6</ele>
        <time>2023-08-14T11:09:39Z</time>
      </trkpt>
      <trkpt lat="42.928651" lon="-8.156554">
        <ele>396.6</ele>
        <time>2023-08-14T11:09:54Z</time>
      </trkpt>
      <trkpt lat="42.928575" lon="-8.156692">
        <ele>396.5</ele>
        <time>2023-08-14T11:10:07Z</time>
      </trkpt>
      <trkpt lat="42.928490" lon="-8.156981">
        <ele>395.9</ele>
        <time>2023-08-14T11:10:22Z</time>
      </trkpt>
      <trkpt lat="42.928415" lon="-8.157206">
        <ele>395.5</ele>
        <time>2023-08-14T11:10:38Z</time>
      </trkpt>
      <trkpt lat="42.928331" lon="-8.157453">
        <ele>394.3</ele>
        <time>2023-08-14T11:10:54Z</time>
      </trkpt>
      <trkpt lat="42.928238" lon="-8.157659">
        <ele>394.1</ele>
        <time>2023-08-14T11:11:08Z</time>
      </trkpt>
      <trkpt lat="42.928145" lon="-8.157850">
        <ele>394.1</ele>
        <time>2023-08-14T11:11:22Z</time>
      </trkpt>
      <trkpt lat="42.928077" lon="-8.158104">
        <ele>394.1</ele>
        <time>2023-08-14T11:11:33Z</time>
      </trkpt>
      <trkpt lat="42.928007" lon="-8.158314">
        <ele>393.7</ele>
        <time>2023-08-14T11:11:46Z</time>
      </trkpt>
      <trkpt lat="42.927949" lon="-8.158519">
        <ele>391.7</ele>
        <time>2023-08-14T11:12:02Z</time>
      </trkpt>
      <trkpt lat="42.927856" lon="-8.158729">
        <ele>391.6</ele>
        <time>2023-08-14T11:12:16Z</time>
      </trkpt>
      <trkpt lat="42.927780" lon="-8.158955">
        <ele>391.6</ele>
        <time>2023-08-14T11:12:30Z</time>
      </trkpt>
      <trkpt lat="42.927701" lon="-8.159181">
        <ele>391.1</ele>
        <time>2023-08-14T11:12:45Z</time>
      </trkpt>
      <trkpt lat="42.927600" lon="-8.159393">
        <ele>390.9</ele>
        <time>2023-08-14T11:13:03Z</time>
      </trkpt>
      <trkpt lat="42.927520" lon="-8.159624">
        <ele>390.7</ele>
        <time>2023-08-14T11:13:17Z</time>
      </trkpt>
      <trkpt lat="42.927439" lon="-8.159842">
        <ele>390.3</ele>
        <time>2023-08-14T11:13:31Z</time>
      </trkpt>
      <trkpt lat="42.927387" lon="-8.160067">
        <ele>389.8</ele>
        <time>2023-08-14T11:13:46Z</time>
      </trkpt>
      <trkpt lat="42.927308" lon="-8.160293">
        <ele>390.3</ele>
        <time>2023-08-14T11:13:57Z</time>
      </trkpt>
      <trkpt lat="42.927138" lon="-8.160459">
        <ele>388.5</ele>
        <time>2023-08-14T11:14:15Z</time>
      </trkpt>
      <trkpt lat="42.927058" lon="-8.160679">
        <ele>387.2</ele>
        <time>2023-08-14T11:14:29Z</time>
      </trkpt>
      <trkpt lat="42.926978" lon="-8.160897">
        <ele>385.5</ele>
        <time>2023-08-14T11:14:42Z</time>
      </trkpt>
      <trkpt lat="42.926874" lon="-8.161107">
        <ele>385.5</ele>
        <time>2023-08-14T11:14:56Z</time>
      </trkpt>
      <trkpt lat="42.926783" lon="-8.161329">
        <ele>386.7</ele>
        <time>2023-08-14T11:15:15Z</time>
      </trkpt>
      <trkpt lat="42.926694" lon="-8.161551">
        <ele>385.5</ele>
        <time>2023-08-14T11:15:30Z</time>
      </trkpt>
      <trkpt lat="42.926604" lon="-8.161764">
        <ele>384.7</ele>
        <time>2023-08-14T11:15:50Z</time>
      </trkpt>
      <trkpt lat="42.926539" lon="-8.162013">
        <ele>385.0</ele>
        <time>2023-08-14T11:16:02Z</time>
      </trkpt>
      <trkpt lat="42.926432" lon="-8.162244">
        <ele>385.2</ele>
        <time>2023-08-14T11:16:16Z</time>
      </trkpt>
      <trkpt lat="42.926368" lon="-8.162483">
        <ele>385.2</ele>
        <time>2023-08-14T11:16:29Z</time>
      </trkpt>
      <trkpt lat="42.926320" lon="-8.162720">
        <ele>385.4</ele>
        <time>2023-08-14T11:16:43Z</time>
      </trkpt>
      <trkpt lat="42.926270" lon="-8.162957">
        <ele>386.9</ele>
        <time>2023-08-14T11:16:58Z</time>
      </trkpt>
      <trkpt lat="42.926220" lon="-8.163201">
        <ele>385.7</ele>
        <time>2023-08-14T11:17:18Z</time>
      </trkpt>
      <trkpt lat="42.926222" lon="-8.163465">
        <ele>384.5</ele>
        <time>2023-08-14T11:17:32Z</time>
      </trkpt>
      <trkpt lat="42.926225" lon="-8.163695">
        <ele>384.4</ele>
        <time>2023-08-14T11:17:49Z</time>
      </trkpt>
      <trkpt lat="42.926241" lon="-8.163939">
        <ele>383.2</ele>
        <time>2023-08-14T11:18:10Z</time>
      </trkpt>
      <trkpt lat="42.926244" lon="-8.164193">
        <ele>383.5</ele>
        <time>2023-08-14T11:18:38Z</time>
      </trkpt>
      <trkpt lat="42.926249" lon="-8.164444">
        <ele>379.3</ele>
        <time>2023-08-14T11:19:03Z</time>
      </trkpt>
      <trkpt lat="42.926257" lon="-8.164706">
        <ele>379.4</ele>
        <time>2023-08-14T11:19:16Z</time>
      </trkpt>
      <trkpt lat="42.926350" lon="-8.164916">
        <ele>377.2</ele>
        <time>2023-08-14T11:19:29Z</time>
      </trkpt>
      <trkpt lat="42.926311" lon="-8.165244">
        <ele>377.0</ele>
        <time>2023-08-15T04:03:46Z</time>
      </trkpt>
      <trkpt lat="42.926317" lon="-8.165491">
        <ele>372.9</ele>
        <time>2023-08-15T04:04:18Z</time>
      </trkpt>
      <trkpt lat="42.926406" lon="-8.165706">
        <ele>372.9</ele>
        <time>2023-08-15T04:04:32Z</time>
      </trkpt>
      <trkpt lat="42.926474" lon="-8.165951">
        <ele>369.6</ele>
        <time>2023-08-15T04:05:17Z</time>
      </trkpt>
      <trkpt lat="42.926573" lon="-8.166154">
        <ele>372.7</ele>
        <time>2023-08-15T04:05:33Z</time>
      </trkpt>
      <trkpt lat="42.926659" lon="-8.166351">
        <ele>372.9</ele>
        <time>2023-08-15T04:05:49Z</time>
      </trkpt>
      <trkpt lat="42.926727" lon="-8.166604">
        <ele>362.6</ele>
        <time>2023-08-15T04:06:05Z</time>
      </trkpt>
      <trkpt lat="42.926798" lon="-8.166834">
        <ele>360.6</ele>
        <time>2023-08-15T04:06:20Z</time>
      </trkpt>
      <trkpt lat="42.926811" lon="-8.167074">
        <ele>358.9</ele>
        <time>2023-08-15T04:06:37Z</time>
      </trkpt>
      <trkpt lat="42.926807" lon="-8.167324">
        <ele>357.6</ele>
        <time>2023-08-15T04:06:52Z</time>
      </trkpt>
      <trkpt lat="42.926817" lon="-8.167565">
        <ele>355.6</ele>
        <time>2023-08-15T04:07:07Z</time>
      </trkpt>
      <trkpt lat="42.926793" lon="-8.167811">
        <ele>353.6</ele>
        <time>2023-08-15T04:07:28Z</time>
      </trkpt>
      <trkpt lat="42.926823" lon="-8.168063">
        <ele>351.5</ele>
        <time>2023-08-15T04:07:40Z</time>
      </trkpt>
      <trkpt lat="42.926846" lon="-8.168312">
        <ele>345.6</ele>
        <time>2023-08-15T04:08:23Z</time>
      </trkpt>
      <trkpt lat="42.926905" lon="-8.168569">
        <ele>346.4</ele>
        <time>2023-08-15T04:08:34Z</time>
      </trkpt>
      <trkpt lat="42.926966" lon="-8.168785">
        <ele>344.7</ele>
        <time>2023-08-15T04:08:50Z</time>
      </trkpt>
      <trkpt lat="42.927013" lon="-8.169022">
        <ele>344.9</ele>
        <time>2023-08-15T04:09:05Z</time>
      </trkpt>
      <trkpt lat="42.927064" lon="-8.169260">
        <ele>341.6</ele>
        <time>2023-08-15T04:09:19Z</time>
      </trkpt>
      <trkpt lat="42.927101" lon="-8.169508">
        <ele>339.7</ele>
        <time>2023-08-15T04:09:33Z</time>
      </trkpt>
      <trkpt lat="42.927167" lon="-8.169740">
        <ele>339.7</ele>
        <time>2023-08-15T04:09:47Z</time>
      </trkpt>
      <trkpt lat="42.927181" lon="-8.169991">
        <ele>336.6</ele>
        <time>2023-08-15T04:10:01Z</time>
      </trkpt>
      <trkpt lat="42.927154" lon="-8.170238">
        <ele>334.6</ele>
        <time>2023-08-15T04:10:17Z</time>
      </trkpt>
      <trkpt lat="42.927077" lon="-8.170464">
        <ele>331.6</ele>
        <time>2023-08-15T04:10:32Z</time>
      </trkpt>
      <trkpt lat="42.927050" lon="-8.170708">
        <ele>332.5</ele>
        <time>2023-08-15T04:10:46Z</time>
      </trkpt>
      <trkpt lat="42.927064" lon="-8.170956">
        <ele>334.6</ele>
        <time>2023-08-15T04:10:58Z</time>
      </trkpt>
      <trkpt lat="42.927057" lon="-8.171207">
        <ele>335.5</ele>
        <time>2023-08-15T04:11:13Z</time>
      </trkpt>
      <trkpt lat="42.927047" lon="-8.171462">
        <ele>333.7</ele>
        <time>2023-08-15T04:11:28Z</time>
      </trkpt>
      <trkpt lat="42.927071" lon="-8.171712">
        <ele>336.6</ele>
        <time>2023-08-15T04:11:42Z</time>
      </trkpt>
      <trkpt lat="42.927133" lon="-8.171945">
        <ele>335.6</ele>
        <time>2023-08-15T04:11:59Z</time>
      </trkpt>
      <trkpt lat="42.927222" lon="-8.172165">
        <ele>338.5</ele>
        <time>2023-08-15T04:12:14Z</time>
      </trkpt>
      <trkpt lat="42.927284" lon="-8.172403">
        <ele>337.6</ele>
        <time>2023-08-15T04:12:29Z</time>
      </trkpt>
      <trkpt lat="42.927347" lon="-8.172634">
        <ele>341.3</ele>
        <time>2023-08-15T04:12:47Z</time>
      </trkpt>
      <trkpt lat="42.927390" lon="-8.172879">
        <ele>342.3</ele>
        <time>2023-08-15T04:13:02Z</time>
      </trkpt>
      <trkpt lat="42.927458" lon="-8.173112">
        <ele>345.5</ele>
        <time>2023-08-15T04:13:17Z</time>
      </trkpt>
      <trkpt lat="42.927547" lon="-8.173331">
        <ele>349.8</ele>
        <time>2023-08-15T04:13:32Z</time>
      </trkpt>
      <trkpt lat="42.927479" lon="-8.173561">
        <ele>349.8</ele>
        <time>2023-08-15T04:13:46Z</time>
      </trkpt>
      <trkpt lat="42.927345" lon="-8.173740">
        <ele>349.8</ele>
        <time>2023-08-15T04:14:03Z</time>
      </trkpt>
      <trkpt lat="42.927232" lon="-8.173934">
        <ele>349.8</ele>
        <time>2023-08-15T04:14:16Z</time>
      </trkpt>
      <trkpt lat="42.927067" lon="-8.174036">
        <ele>349.8</ele>
        <time>2023-08-15T04:14:29Z</time>
      </trkpt>
      <trkpt lat="42.926887" lon="-8.174045">
        <ele>349.8</ele>
        <time>2023-08-15T04:14:46Z</time>
      </trkpt>
      <trkpt lat="42.926705" lon="-8.174113">
        <ele>349.8</ele>
        <time>2023-08-15T04:14:59Z</time>
      </trkpt>
      <trkpt lat="42.926532" lon="-8.174216">
        <ele>349.8</ele>
        <time>2023-08-15T04:15:10Z</time>
      </trkpt>
      <trkpt lat="42.926421" lon="-8.174417">
        <ele>349.8</ele>
        <time>2023-08-15T04:15:29Z</time>
      </trkpt>
      <trkpt lat="42.926310" lon="-8.174620">
        <ele>344.9</ele>
        <time>2023-08-15T04:15:44Z</time>
      </trkpt>
      <trkpt lat="42.926235" lon="-8.174847">
        <ele>343.6</ele>
        <time>2023-08-15T04:16:01Z</time>
      </trkpt>
      <trkpt lat="42.926150" lon="-8.175073">
        <ele>340.6</ele>
        <time>2023-08-15T04:16:15Z</time>
      </trkpt>
      <trkpt lat="42.926064" lon="-8.175301">
        <ele>335.9</ele>
        <time>2023-08-15T04:16:29Z</time>
      </trkpt>
      <trkpt lat="42.925960" lon="-8.175503">
        <ele>334.6</ele>
        <time>2023-08-15T04:16:43Z</time>
      </trkpt>
      <trkpt lat="42.925840" lon="-8.175700">
        <ele>331.6</ele>
        <time>2023-08-15T04:16:57Z</time>
      </trkpt>
      <trkpt lat="42.925783" lon="-8.175939">
        <ele>331.6</ele>
        <time>2023-08-15T04:17:09Z</time>
      </trkpt>
      <trkpt lat="42.925691" lon="-8.176158">
        <ele>335.5</ele>
        <time>2023-08-15T04:17:22Z</time>
      </trkpt>
      <trkpt lat="42.925603" lon="-8.176377">
        <ele>337.6</ele>
        <time>2023-08-15T04:17:33Z</time>
      </trkpt>
      <trkpt lat="42.925544" lon="-8.176621">
        <ele>336.3</ele>
        <time>2023-08-15T04:17:49Z</time>
      </trkpt>
      <trkpt lat="42.925465" lon="-8.176842">
        <ele>336.7</ele>
        <time>2023-08-15T04:18:03Z</time>
      </trkpt>
      <trkpt lat="42.925399" lon="-8.177081">
        <ele>334.6</ele>
        <time>2023-08-15T04:18:17Z</time>
      </trkpt>
      <trkpt lat="42.925344" lon="-8.177327">
        <ele>334.6</ele>
        <time>2023-08-15T04:18:31Z</time>
      </trkpt>
      <trkpt lat="42.925325" lon="-8.177574">
        <ele>335.6</ele>
        <time>2023-08-15T04:18:42Z</time>
      </trkpt>
      <trkpt lat="42.925282" lon="-8.177813">
        <ele>334.9</ele>
        <time>2023-08-15T04:19:19Z</time>
      </trkpt>
      <trkpt lat="42.925309" lon="-8.178056">
        <ele>332.6</ele>
        <time>2023-08-15T04:19:32Z</time>
      </trkpt>
      <trkpt lat="42.925301" lon="-8.178305">
        <ele>332.7</ele>
        <time>2023-08-15T04:19:46Z</time>
      </trkpt>
      <trkpt lat="42.925304" lon="-8.178555">
        <ele>329.6</ele>
        <time>2023-08-15T04:20:01Z</time>
      </trkpt>
      <trkpt lat="42.925274" lon="-8.178801">
        <ele>325.6</ele>
        <time>2023-08-15T04:20:14Z</time>
      </trkpt>
      <trkpt lat="42.925270" lon="-8.179055">
        <ele>324.6</ele>
        <time>2023-08-15T04:20:29Z</time>
      </trkpt>
      <trkpt lat="42.925318" lon="-8.179298">
        <ele>323.6</ele>
        <time>2023-08-15T04:20:46Z</time>
      </trkpt>
      <trkpt lat="42.925400" lon="-8.179522">
        <ele>323.3</ele>
        <time>2023-08-15T04:20:59Z</time>
      </trkpt>
      <trkpt lat="42.925490" lon="-8.179745">
        <ele>322.6</ele>
        <time>2023-08-15T04:21:12Z</time>
      </trkpt>
      <trkpt lat="42.925575" lon="-8.179976">
        <ele>320.6</ele>
        <time>2023-08-15T04:21:28Z</time>
      </trkpt>
      <trkpt lat="42.925607" lon="-8.180227">
        <ele>316.6</ele>
        <time>2023-08-15T04:21:44Z</time>
      </trkpt>
      <trkpt lat="42.925451" lon="-8.180351">
        <ele>310.0</ele>
        <time>2023-08-15T04:22:07Z</time>
      </trkpt>
      <trkpt lat="42.925269" lon="-8.180379">
        <ele>308.7</ele>
        <time>2023-08-15T04:22:21Z</time>
      </trkpt>
      <trkpt lat="42.925086" lon="-8.180363">
        <ele>310.6</ele>
        <time>2023-08-15T04:22:36Z</time>
      </trkpt>
      <trkpt lat="42.924927" lon="-8.180482">
        <ele>307.6</ele>
        <time>2023-08-15T04:22:51Z</time>
      </trkpt>
      <trkpt lat="42.924822" lon="-8.180690">
        <ele>308.6</ele>
        <time>2023-08-15T04:23:04Z</time>
      </trkpt>
      <trkpt lat="42.924760" lon="-8.180929">
        <ele>306.6</ele>
        <time>2023-08-15T04:23:19Z</time>
      </trkpt>
      <trkpt lat="42.924716" lon="-8.181175">
        <ele>306.6</ele>
        <time>2023-08-15T04:23:31Z</time>
      </trkpt>
      <trkpt lat="42.924701" lon="-8.181416">
        <ele>307.6</ele>
        <time>2023-08-15T04:23:47Z</time>
      </trkpt>
      <trkpt lat="42.924647" lon="-8.181662">
        <ele>304.6</ele>
        <time>2023-08-15T04:24:02Z</time>
      </trkpt>
      <trkpt lat="42.924607" lon="-8.181901">
        <ele>305.6</ele>
        <time>2023-08-15T04:24:14Z</time>
      </trkpt>
      <trkpt lat="42.924597" lon="-8.182153">
        <ele>305.5</ele>
        <time>2023-08-15T04:24:27Z</time>
      </trkpt>
      <trkpt lat="42.924573" lon="-8.182402">
        <ele>305.6</ele>
        <time>2023-08-15T04:24:42Z</time>
      </trkpt>
      <trkpt lat="42.924536" lon="-8.182646">
        <ele>307.5</ele>
        <time>2023-08-15T04:24:58Z</time>
      </trkpt>
      <trkpt lat="42.924411" lon="-8.182828">
        <ele>305.6</ele>
        <time>2023-08-15T04:25:14Z</time>
      </trkpt>
      <trkpt lat="42.924323" lon="-8.183047">
        <ele>305.7</ele>
        <time>2023-08-15T04:25:32Z</time>
      </trkpt>
      <trkpt lat="42.924278" lon="-8.183291">
        <ele>308.6</ele>
        <time>2023-08-15T04:25:51Z</time>
      </trkpt>
      <trkpt lat="42.924250" lon="-8.183535">
        <ele>309.6</ele>
        <time>2023-08-15T04:26:06Z</time>
      </trkpt>
      <trkpt lat="42.924238" lon="-8.183782">
        <ele>310.6</ele>
        <time>2023-08-15T04:26:19Z</time>
      </trkpt>
      <trkpt lat="42.924218" lon="-8.184027">
        <ele>312.6</ele>
        <time>2023-08-15T04:26:33Z</time>
      </trkpt>
      <trkpt lat="42.924172" lon="-8.184273">
        <ele>313.6</ele>
        <time>2023-08-15T04:26:49Z</time>
      </trkpt>
      <trkpt lat="42.924049" lon="-8.184496">
        <ele>330.4</ele>
        <time>2023-08-15T04:27:03Z</time>
      </trkpt>
      <trkpt lat="42.923888" lon="-8.184705">
        <ele>330.4</ele>
        <time>2023-08-15T04:27:21Z</time>
      </trkpt>
      <trkpt lat="42.923695" lon="-8.184777">
        <ele>330.4</ele>
        <time>2023-08-15T04:27:33Z</time>
      </trkpt>
      <trkpt lat="42.923563" lon="-8.184830">
        <ele>330.4</ele>
        <time>2023-08-15T04:27:46Z</time>
      </trkpt>
      <trkpt lat="42.923359" lon="-8.184902">
        <ele>330.4</ele>
        <time>2023-08-15T04:28:00Z</time>
      </trkpt>
      <trkpt lat="42.923204" lon="-8.184933">
        <ele>330.4</ele>
        <time>2023-08-15T04:29:04Z</time>
      </trkpt>
      <trkpt lat="42.923027" lon="-8.185012">
        <ele>330.4</ele>
        <time>2023-08-15T04:29:17Z</time>
      </trkpt>
      <trkpt lat="42.922869" lon="-8.185101">
        <ele>330.4</ele>
        <time>2023-08-15T04:29:31Z</time>
      </trkpt>
      <trkpt lat="42.922745" lon="-8.185289">
        <ele>330.4</ele>
        <time>2023-08-15T04:29:44Z</time>
      </trkpt>
      <trkpt lat="42.922615" lon="-8.185604">
        <ele>330.4</ele>
        <time>2023-08-15T04:30:00Z</time>
      </trkpt>
      <trkpt lat="42.922630" lon="-8.185755">
        <ele>330.4</ele>
        <time>2023-08-15T04:30:13Z</time>
      </trkpt>
      <trkpt lat="42.922694" lon="-8.185990">
        <ele>330.4</ele>
        <time>2023-08-15T04:30:26Z</time>
      </trkpt>
      <trkpt lat="42.922702" lon="-8.186242">
        <ele>330.4</ele>
        <time>2023-08-15T04:30:40Z</time>
      </trkpt>
      <trkpt lat="42.922644" lon="-8.186484">
        <ele>330.4</ele>
        <time>2023-08-15T04:30:53Z</time>
      </trkpt>
      <trkpt lat="42.922614" lon="-8.186728">
        <ele>330.4</ele>
        <time>2023-08-15T04:31:06Z</time>
      </trkpt>
      <trkpt lat="42.922594" lon="-8.186995">
        <ele>330.4</ele>
        <time>2023-08-15T04:31:35Z</time>
      </trkpt>
      <trkpt lat="42.922722" lon="-8.187122">
        <ele>330.4</ele>
        <time>2023-08-15T04:31:50Z</time>
      </trkpt>
      <trkpt lat="42.922775" lon="-8.187432">
        <ele>347.6</ele>
        <time>2023-08-15T04:32:09Z</time>
      </trkpt>
      <trkpt lat="42.922789" lon="-8.187686">
        <ele>345.3</ele>
        <time>2023-08-15T04:32:25Z</time>
      </trkpt>
      <trkpt lat="42.922900" lon="-8.187919">
        <ele>347.6</ele>
        <time>2023-08-15T04:32:40Z</time>
      </trkpt>
      <trkpt lat="42.923078" lon="-8.188033">
        <ele>350.6</ele>
        <time>2023-08-15T04:32:59Z</time>
      </trkpt>
      <trkpt lat="42.923208" lon="-8.188256">
        <ele>348.6</ele>
        <time>2023-08-15T04:33:21Z</time>
      </trkpt>
      <trkpt lat="42.923017" lon="-8.188600">
        <ele>357.6</ele>
        <time>2023-08-15T04:33:38Z</time>
      </trkpt>
      <trkpt lat="42.923170" lon="-8.188664">
        <ele>358.6</ele>
        <time>2023-08-15T04:33:58Z</time>
      </trkpt>
      <trkpt lat="42.923325" lon="-8.188725">
        <ele>364.9</ele>
        <time>2023-08-15T04:34:15Z</time>
      </trkpt>
      <trkpt lat="42.923526" lon="-8.188771">
        <ele>367.6</ele>
        <time>2023-08-15T04:34:40Z</time>
      </trkpt>
      <trkpt lat="42.923701" lon="-8.188854">
        <ele>368.7</ele>
        <time>2023-08-15T04:34:53Z</time>
      </trkpt>
      <trkpt lat="42.923872" lon="-8.188942">
        <ele>370.6</ele>
        <time>2023-08-15T04:35:06Z</time>
      </trkpt>
      <trkpt lat="42.924045" lon="-8.189009">
        <ele>366.6</ele>
        <time>2023-08-15T04:35:19Z</time>
      </trkpt>
      <trkpt lat="42.924215" lon="-8.189115">
        <ele>366.7</ele>
        <time>2023-08-15T04:35:34Z</time>
      </trkpt>
      <trkpt lat="42.924376" lon="-8.189183">
        <ele>367.6</ele>
        <time>2023-08-15T04:35:55Z</time>
      </trkpt>
      <trkpt lat="42.924546" lon="-8.189274">
        <ele>367.5</ele>
        <time>2023-08-15T04:36:11Z</time>
      </trkpt>
      <trkpt lat="42.924727" lon="-8.189335">
        <ele>366.7</ele>
        <time>2023-08-15T04:36:24Z</time>
      </trkpt>
      <trkpt lat="42.924902" lon="-8.189408">
        <ele>367.6</ele>
        <time>2023-08-15T04:36:38Z</time>
      </trkpt>
      <trkpt lat="42.925071" lon="-8.189493">
        <ele>369.5</ele>
        <time>2023-08-15T04:36:52Z</time>
      </trkpt>
      <trkpt lat="42.925247" lon="-8.189554">
        <ele>368.4</ele>
        <time>2023-08-15T04:37:05Z</time>
      </trkpt>
      <trkpt lat="42.925423" lon="-8.189642">
        <ele>367.6</ele>
        <time>2023-08-15T04:37:18Z</time>
      </trkpt>
      <trkpt lat="42.925591" lon="-8.189733">
        <ele>368.6</ele>
        <time>2023-08-15T04:37:32Z</time>
      </trkpt>
      <trkpt lat="42.925764" lon="-8.189804">
        <ele>370.6</ele>
        <time>2023-08-15T04:37:46Z</time>
      </trkpt>
      <trkpt lat="42.925932" lon="-8.189894">
        <ele>370.6</ele>
        <time>2023-08-15T04:38:00Z</time>
      </trkpt>
      <trkpt lat="42.926076" lon="-8.190036">
        <ele>370.6</ele>
        <time>2023-08-15T04:38:13Z</time>
      </trkpt>
      <trkpt lat="42.926162" lon="-8.190240">
        <ele>370.6</ele>
        <time>2023-08-15T04:38:26Z</time>
      </trkpt>
      <trkpt lat="42.926161" lon="-8.190486">
        <ele>372.6</ele>
        <time>2023-08-15T04:38:41Z</time>
      </trkpt>
      <trkpt lat="42.926167" lon="-8.190732">
        <ele>372.7</ele>
        <time>2023-08-15T04:38:54Z</time>
      </trkpt>
      <trkpt lat="42.926167" lon="-8.190982">
        <ele>373.6</ele>
        <time>2023-08-15T04:39:09Z</time>
      </trkpt>
      <trkpt lat="42.926169" lon="-8.191230">
        <ele>373.6</ele>
        <time>2023-08-15T04:39:22Z</time>
      </trkpt>
      <trkpt lat="42.926152" lon="-8.191482">
        <ele>374.6</ele>
        <time>2023-08-15T04:39:36Z</time>
      </trkpt>
      <trkpt lat="42.926163" lon="-8.191728">
        <ele>376.7</ele>
        <time>2023-08-15T04:39:51Z</time>
      </trkpt>
      <trkpt lat="42.926156" lon="-8.191981">
        <ele>379.3</ele>
        <time>2023-08-15T04:40:05Z</time>
      </trkpt>
      <trkpt lat="42.926161" lon="-8.192240">
        <ele>379.6</ele>
        <time>2023-08-15T04:40:21Z</time>
      </trkpt>
      <trkpt lat="42.926175" lon="-8.192492">
        <ele>379.6</ele>
        <time>2023-08-15T04:40:35Z</time>
      </trkpt>
      <trkpt lat="42.926162" lon="-8.192726">
        <ele>379.6</ele>
        <time>2023-08-15T04:40:48Z</time>
      </trkpt>
      <trkpt lat="42.926169" lon="-8.192975">
        <ele>379.4</ele>
        <time>2023-08-15T04:41:03Z</time>
      </trkpt>
      <trkpt lat="42.926216" lon="-8.193223">
        <ele>381.6</ele>
        <time>2023-08-15T04:41:17Z</time>
      </trkpt>
      <trkpt lat="42.926278" lon="-8.193463">
        <ele>382.7</ele>
        <time>2023-08-15T04:41:32Z</time>
      </trkpt>
      <trkpt lat="42.926340" lon="-8.193695">
        <ele>383.6</ele>
        <time>2023-08-15T04:41:45Z</time>
      </trkpt>
      <trkpt lat="42.926407" lon="-8.193920">
        <ele>385.6</ele>
        <time>2023-08-15T04:41:59Z</time>
      </trkpt>
      <trkpt lat="42.926490" lon="-8.194175">
        <ele>386.5</ele>
        <time>2023-08-15T04:42:11Z</time>
      </trkpt>
      <trkpt lat="42.926519" lon="-8.194407">
        <ele>387.6</ele>
        <time>2023-08-15T04:42:28Z</time>
      </trkpt>
      <trkpt lat="42.926550" lon="-8.194657">
        <ele>386.4</ele>
        <time>2023-08-15T04:42:40Z</time>
      </trkpt>
      <trkpt lat="42.926602" lon="-8.194893">
        <ele>376.8</ele>
        <time>2023-08-15T04:42:53Z</time>
      </trkpt>
      <trkpt lat="42.926680" lon="-8.194989">
        <ele>376.9</ele>
        <time>2023-08-15T04:43:28Z</time>
      </trkpt>
      <trkpt lat="42.926663" lon="-8.195388">
        <ele>376.9</ele>
        <time>2023-08-15T04:43:41Z</time>
      </trkpt>
      <trkpt lat="42.926637" lon="-8.195631">
        <ele>384.7</ele>
        <time>2023-08-15T04:44:05Z</time>
      </trkpt>
      <trkpt lat="42.926608" lon="-8.195988">
        <ele>376.9</ele>
        <time>2023-08-15T04:44:19Z</time>
      </trkpt>
      <trkpt lat="42.926535" lon="-8.196104">
        <ele>376.9</ele>
        <time>2023-08-15T04:44:37Z</time>
      </trkpt>
      <trkpt lat="42.926431" lon="-8.196306">
        <ele>383.6</ele>
        <time>2023-08-15T04:45:06Z</time>
      </trkpt>
      <trkpt lat="42.926312" lon="-8.196503">
        <ele>382.7</ele>
        <time>2023-08-15T04:45:24Z</time>
      </trkpt>
      <trkpt lat="42.926211" lon="-8.196708">
        <ele>381.7</ele>
        <time>2023-08-15T04:45:43Z</time>
      </trkpt>
      <trkpt lat="42.926137" lon="-8.196934">
        <ele>379.7</ele>
        <time>2023-08-15T04:45:57Z</time>
      </trkpt>
      <trkpt lat="42.926096" lon="-8.197183">
        <ele>378.6</ele>
        <time>2023-08-15T04:46:12Z</time>
      </trkpt>
      <trkpt lat="42.925988" lon="-8.197385">
        <ele>378.6</ele>
        <time>2023-08-15T04:46:27Z</time>
      </trkpt>
      <trkpt lat="42.925898" lon="-8.197599">
        <ele>379.6</ele>
        <time>2023-08-15T04:46:43Z</time>
      </trkpt>
      <trkpt lat="42.925867" lon="-8.197844">
        <ele>381.0</ele>
        <time>2023-08-15T04:47:05Z</time>
      </trkpt>
      <trkpt lat="42.925977" lon="-8.198045">
        <ele>375.7</ele>
        <time>2023-08-15T04:47:23Z</time>
      </trkpt>
      <trkpt lat="42.926088" lon="-8.198244">
        <ele>374.6</ele>
        <time>2023-08-15T04:47:39Z</time>
      </trkpt>
      <trkpt lat="42.926240" lon="-8.198393">
        <ele>371.6</ele>
        <time>2023-08-15T04:47:58Z</time>
      </trkpt>
      <trkpt lat="42.926376" lon="-8.198558">
        <ele>359.6</ele>
        <time>2023-08-15T04:48:51Z</time>
      </trkpt>
      <trkpt lat="42.926508" lon="-8.198726">
        <ele>354.6</ele>
        <time>2023-08-15T04:51:42Z</time>
      </trkpt>
      <trkpt lat="42.926653" lon="-8.198871">
        <ele>354.6</ele>
        <time>2023-08-15T04:51:57Z</time>
      </trkpt>
      <trkpt lat="42.926792" lon="-8.199033">
        <ele>353.6</ele>
        <time>2023-08-15T04:52:13Z</time>
      </trkpt>
      <trkpt lat="42.926925" lon="-8.199203">
        <ele>352.7</ele>
        <time>2023-08-15T04:52:30Z</time>
      </trkpt>
      <trkpt lat="42.927061" lon="-8.199376">
        <ele>351.6</ele>
        <time>2023-08-15T04:52:45Z</time>
      </trkpt>
      <trkpt lat="42.927187" lon="-8.199562">
        <ele>354.7</ele>
        <time>2023-08-15T04:52:58Z</time>
      </trkpt>
      <trkpt lat="42.927257" lon="-8.199798">
        <ele>356.7</ele>
        <time>2023-08-15T04:53:12Z</time>
      </trkpt>
      <trkpt lat="42.927358" lon="-8.200004">
        <ele>352.9</ele>
        <time>2023-08-15T04:53:27Z</time>
      </trkpt>
      <trkpt lat="42.927450" lon="-8.200216">
        <ele>354.6</ele>
        <time>2023-08-15T04:53:42Z</time>
      </trkpt>
      <trkpt lat="42.927536" lon="-8.200439">
        <ele>353.6</ele>
        <time>2023-08-15T04:53:57Z</time>
      </trkpt>
      <trkpt lat="42.927599" lon="-8.200672">
        <ele>353.6</ele>
        <time>2023-08-15T04:54:13Z</time>
      </trkpt>
      <trkpt lat="42.927687" lon="-8.200890">
        <ele>350.6</ele>
        <time>2023-08-15T04:54:27Z</time>
      </trkpt>
      <trkpt lat="42.927697" lon="-8.201141">
        <ele>349.6</ele>
        <time>2023-08-15T04:54:54Z</time>
      </trkpt>
      <trkpt lat="42.927692" lon="-8.201393">
        <ele>353.6</ele>
        <time>2023-08-15T04:56:06Z</time>
      </trkpt>
      <trkpt lat="42.927743" lon="-8.201631">
        <ele>358.6</ele>
        <time>2023-08-15T04:56:29Z</time>
      </trkpt>
      <trkpt lat="42.927790" lon="-8.201870">
        <ele>359.6</ele>
        <time>2023-08-15T04:56:42Z</time>
      </trkpt>
      <trkpt lat="42.927809" lon="-8.202117">
        <ele>360.3</ele>
        <time>2023-08-15T04:56:57Z</time>
      </trkpt>
      <trkpt lat="42.927785" lon="-8.202365">
        <ele>363.6</ele>
        <time>2023-08-15T04:57:15Z</time>
      </trkpt>
      <trkpt lat="42.927748" lon="-8.202609">
        <ele>363.6</ele>
        <time>2023-08-15T04:57:31Z</time>
      </trkpt>
      <trkpt lat="42.927717" lon="-8.202856">
        <ele>360.7</ele>
        <time>2023-08-15T04:57:46Z</time>
      </trkpt>
      <trkpt lat="42.927664" lon="-8.203095">
        <ele>365.6</ele>
        <time>2023-08-15T04:58:01Z</time>
      </trkpt>
      <trkpt lat="42.927627" lon="-8.203338">
        <ele>369.6</ele>
        <time>2023-08-15T04:58:16Z</time>
      </trkpt>
      <trkpt lat="42.927559" lon="-8.203564">
        <ele>372.4</ele>
        <time>2023-08-15T04:58:31Z</time>
      </trkpt>
      <trkpt lat="42.927532" lon="-8.203806">
        <ele>374.6</ele>
        <time>2023-08-15T04:58:45Z</time>
      </trkpt>
      <trkpt lat="42.927505" lon="-8.204053">
        <ele>376.6</ele>
        <time>2023-08-15T04:59:04Z</time>
      </trkpt>
      <trkpt lat="42.927481" lon="-8.204303">
        <ele>375.6</ele>
        <time>2023-08-15T04:59:17Z</time>
      </trkpt>
      <trkpt lat="42.927458" lon="-8.204550">
        <ele>376.6</ele>
        <time>2023-08-15T04:59:32Z</time>
      </trkpt>
      <trkpt lat="42.927457" lon="-8.204799">
        <ele>378.6</ele>
        <time>2023-08-15T04:59:45Z</time>
      </trkpt>
      <trkpt lat="42.927451" lon="-8.205045">
        <ele>380.6</ele>
        <time>2023-08-15T05:00:00Z</time>
      </trkpt>
      <trkpt lat="42.927447" lon="-8.205298">
        <ele>378.6</ele>
        <time>2023-08-15T05:00:15Z</time>
      </trkpt>
      <trkpt lat="42.927430" lon="-8.205547">
        <ele>382.6</ele>
        <time>2023-08-15T05:00:32Z</time>
      </trkpt>
      <trkpt lat="42.927428" lon="-8.205796">
        <ele>385.6</ele>
        <time>2023-08-15T05:00:46Z</time>
      </trkpt>
      <trkpt lat="42.927477" lon="-8.206040">
        <ele>388.6</ele>
        <time>2023-08-15T05:00:59Z</time>
      </trkpt>
      <trkpt lat="42.927514" lon="-8.206286">
        <ele>388.6</ele>
        <time>2023-08-15T05:01:14Z</time>
      </trkpt>
      <trkpt lat="42.927508" lon="-8.206544">
        <ele>387.6</ele>
        <time>2023-08-15T05:01:33Z</time>
      </trkpt>
      <trkpt lat="42.927538" lon="-8.206784">
        <ele>387.7</ele>
        <time>2023-08-15T05:01:46Z</time>
      </trkpt>
      <trkpt lat="42.927551" lon="-8.207052">
        <ele>388.6</ele>
        <time>2023-08-15T05:01:57Z</time>
      </trkpt>
      <trkpt lat="42.927558" lon="-8.207295">
        <ele>391.6</ele>
        <time>2023-08-15T05:02:10Z</time>
      </trkpt>
      <trkpt lat="42.927579" lon="-8.207539">
        <ele>392.4</ele>
        <time>2023-08-15T05:02:23Z</time>
      </trkpt>
      <trkpt lat="42.927582" lon="-8.207787">
        <ele>395.6</ele>
        <time>2023-08-15T05:02:41Z</time>
      </trkpt>
      <trkpt lat="42.927637" lon="-8.208024">
        <ele>396.4</ele>
        <time>2023-08-15T05:03:04Z</time>
      </trkpt>
      <trkpt lat="42.927808" lon="-8.208211">
        <ele>391.6</ele>
        <time>2023-08-15T05:03:26Z</time>
      </trkpt>
      <trkpt lat="42.927885" lon="-8.208428">
        <ele>391.6</ele>
        <time>2023-08-15T05:03:42Z</time>
      </trkpt>
      <trkpt lat="42.927979" lon="-8.208650">
        <ele>393.7</ele>
        <time>2023-08-15T05:03:58Z</time>
      </trkpt>
      <trkpt lat="42.928064" lon="-8.208852">
        <ele>395.9</ele>
        <time>2023-08-15T05:04:18Z</time>
      </trkpt>
      <trkpt lat="42.928168" lon="-8.209076">
        <ele>397.6</ele>
        <time>2023-08-15T05:04:34Z</time>
      </trkpt>
      <trkpt lat="42.928253" lon="-8.209312">
        <ele>399.6</ele>
        <time>2023-08-15T05:04:47Z</time>
      </trkpt>
      <trkpt lat="42.928331" lon="-8.209519">
        <ele>400.6</ele>
        <time>2023-08-15T05:05:00Z</time>
      </trkpt>
      <trkpt lat="42.928408" lon="-8.209758">
        <ele>401.6</ele>
        <time>2023-08-15T05:05:14Z</time>
      </trkpt>
      <trkpt lat="42.928480" lon="-8.209987">
        <ele>402.6</ele>
        <time>2023-08-15T05:05:34Z</time>
      </trkpt>
      <trkpt lat="42.928534" lon="-8.210185">
        <ele>402.6</ele>
        <time>2023-08-15T05:05:48Z</time>
      </trkpt>
      <trkpt lat="42.928584" lon="-8.210432">
        <ele>402.6</ele>
        <time>2023-08-15T05:06:02Z</time>
      </trkpt>
      <trkpt lat="42.928624" lon="-8.210703">
        <ele>404.6</ele>
        <time>2023-08-15T05:06:15Z</time>
      </trkpt>
      <trkpt lat="42.928648" lon="-8.210963">
        <ele>406.6</ele>
        <time>2023-08-15T05:06:33Z</time>
      </trkpt>
      <trkpt lat="42.928673" lon="-8.211219">
        <ele>403.6</ele>
        <time>2023-08-15T05:06:48Z</time>
      </trkpt>
      <trkpt lat="42.928668" lon="-8.211456">
        <ele>402.0</ele>
        <time>2023-08-15T05:07:05Z</time>
      </trkpt>
      <trkpt lat="42.928705" lon="-8.211697">
        <ele>402.6</ele>
        <time>2023-08-15T05:07:22Z</time>
      </trkpt>
      <trkpt lat="42.928747" lon="-8.211929">
        <ele>398.0</ele>
        <time>2023-08-15T05:08:18Z</time>
      </trkpt>
      <trkpt lat="42.928761" lon="-8.212179">
        <ele>398.0</ele>
        <time>2023-08-15T05:08:38Z</time>
      </trkpt>
      <trkpt lat="42.928785" lon="-8.212427">
        <ele>399.7</ele>
        <time>2023-08-15T05:09:05Z</time>
      </trkpt>
      <trkpt lat="42.928759" lon="-8.212672">
        <ele>398.7</ele>
        <time>2023-08-15T05:09:36Z</time>
      </trkpt>
      <trkpt lat="42.928793" lon="-8.212915">
        <ele>396.6</ele>
        <time>2023-08-15T05:12:28Z</time>
      </trkpt>
      <trkpt lat="42.928792" lon="-8.213165">
        <ele>395.8</ele>
        <time>2023-08-15T05:12:42Z</time>
      </trkpt>
      <trkpt lat="42.928795" lon="-8.213427">
        <ele>390.7</ele>
        <time>2023-08-15T05:12:56Z</time>
      </trkpt>
      <trkpt lat="42.928805" lon="-8.213672">
        <ele>389.7</ele>
        <time>2023-08-15T05:13:11Z</time>
      </trkpt>
      <trkpt lat="42.928788" lon="-8.213902">
        <ele>390.0</ele>
        <time>2023-08-15T05:13:26Z</time>
      </trkpt>
      <trkpt lat="42.928734" lon="-8.214139">
        <ele>399.5</ele>
        <time>2023-08-15T05:13:36Z</time>
      </trkpt>
      <trkpt lat="42.928664" lon="-8.214374">
        <ele>399.5</ele>
        <time>2023-08-15T05:13:49Z</time>
      </trkpt>
      <trkpt lat="42.928544" lon="-8.214558">
        <ele>399.5</ele>
        <time>2023-08-15T05:14:06Z</time>
      </trkpt>
      <trkpt lat="42.928457" lon="-8.214756">
        <ele>399.3</ele>
        <time>2023-08-15T05:14:20Z</time>
      </trkpt>
      <trkpt lat="42.928348" lon="-8.214972">
        <ele>399.3</ele>
        <time>2023-08-15T05:15:06Z</time>
      </trkpt>
      <trkpt lat="42.928267" lon="-8.215196">
        <ele>399.3</ele>
        <time>2023-08-15T05:15:24Z</time>
      </trkpt>
      <trkpt lat="42.928181" lon="-8.215417">
        <ele>399.3</ele>
        <time>2023-08-15T05:15:37Z</time>
      </trkpt>
      <trkpt lat="42.928064" lon="-8.215614">
        <ele>399.3</ele>
        <time>2023-08-15T05:15:52Z</time>
      </trkpt>
      <trkpt lat="42.927994" lon="-8.215840">
        <ele>396.7</ele>
        <time>2023-08-15T05:16:04Z</time>
      </trkpt>
      <trkpt lat="42.927898" lon="-8.216045">
        <ele>395.7</ele>
        <time>2023-08-15T05:16:16Z</time>
      </trkpt>
      <trkpt lat="42.927784" lon="-8.216245">
        <ele>396.8</ele>
        <time>2023-08-15T05:16:29Z</time>
      </trkpt>
      <trkpt lat="42.927705" lon="-8.216469">
        <ele>396.7</ele>
        <time>2023-08-15T05:16:44Z</time>
      </trkpt>
      <trkpt lat="42.927617" lon="-8.216685">
        <ele>395.8</ele>
        <time>2023-08-15T05:16:59Z</time>
      </trkpt>
      <trkpt lat="42.927542" lon="-8.216910">
        <ele>394.6</ele>
        <time>2023-08-15T05:17:13Z</time>
      </trkpt>
      <trkpt lat="42.927454" lon="-8.217139">
        <ele>395.7</ele>
        <time>2023-08-15T05:17:27Z</time>
      </trkpt>
      <trkpt lat="42.927380" lon="-8.217369">
        <ele>393.7</ele>
        <time>2023-08-15T05:17:43Z</time>
      </trkpt>
      <trkpt lat="42.927271" lon="-8.217578">
        <ele>392.7</ele>
        <time>2023-08-15T05:17:57Z</time>
      </trkpt>
      <trkpt lat="42.927135" lon="-8.217951">
        <ele>389.7</ele>
        <time>2023-08-15T05:18:14Z</time>
      </trkpt>
      <trkpt lat="42.927040" lon="-8.217985">
        <ele>389.8</ele>
        <time>2023-08-15T05:18:30Z</time>
      </trkpt>
      <trkpt lat="42.926960" lon="-8.218191">
        <ele>388.0</ele>
        <time>2023-08-15T05:18:46Z</time>
      </trkpt>
      <trkpt lat="42.926892" lon="-8.218425">
        <ele>383.8</ele>
        <time>2023-08-15T05:19:02Z</time>
      </trkpt>
      <trkpt lat="42.926840" lon="-8.218661">
        <ele>382.7</ele>
        <time>2023-08-15T05:19:19Z</time>
      </trkpt>
      <trkpt lat="42.926770" lon="-8.218891">
        <ele>381.6</ele>
        <time>2023-08-15T05:19:33Z</time>
      </trkpt>
      <trkpt lat="42.926715" lon="-8.219125">
        <ele>378.7</ele>
        <time>2023-08-15T05:19:46Z</time>
      </trkpt>
      <trkpt lat="42.926663" lon="-8.219361">
        <ele>378.6</ele>
        <time>2023-08-15T05:19:59Z</time>
      </trkpt>
      <trkpt lat="42.926580" lon="-8.219585">
        <ele>380.4</ele>
        <time>2023-08-15T05:20:13Z</time>
      </trkpt>
      <trkpt lat="42.926523" lon="-8.219825">
        <ele>377.7</ele>
        <time>2023-08-15T05:20:28Z</time>
      </trkpt>
      <trkpt lat="42.926452" lon="-8.220054">
        <ele>387.5</ele>
        <time>2023-08-15T05:20:44Z</time>
      </trkpt>
      <trkpt lat="42.926375" lon="-8.220289">
        <ele>387.5</ele>
        <time>2023-08-15T05:20:58Z</time>
      </trkpt>
      <trkpt lat="42.926313" lon="-8.220537">
        <ele>387.5</ele>
        <time>2023-08-15T05:21:11Z</time>
      </trkpt>
      <trkpt lat="42.926255" lon="-8.220769">
        <ele>387.4</ele>
        <time>2023-08-15T05:21:22Z</time>
      </trkpt>
      <trkpt lat="42.926172" lon="-8.220996">
        <ele>387.4</ele>
        <time>2023-08-15T05:21:36Z</time>
      </trkpt>
      <trkpt lat="42.926135" lon="-8.221233">
        <ele>387.4</ele>
        <time>2023-08-15T05:21:52Z</time>
      </trkpt>
      <trkpt lat="42.926071" lon="-8.221454">
        <ele>387.4</ele>
        <time>2023-08-15T05:22:04Z</time>
      </trkpt>
      <trkpt lat="42.926004" lon="-8.221713">
        <ele>387.4</ele>
        <time>2023-08-15T05:22:19Z</time>
      </trkpt>
      <trkpt lat="42.925937" lon="-8.221965">
        <ele>387.4</ele>
        <time>2023-08-15T05:22:31Z</time>
      </trkpt>
      <trkpt lat="42.925882" lon="-8.222202">
        <ele>387.5</ele>
        <time>2023-08-15T05:22:47Z</time>
      </trkpt>
      <trkpt lat="42.925896" lon="-8.222478">
        <ele>387.4</ele>
        <time>2023-08-15T05:22:58Z</time>
      </trkpt>
      <trkpt lat="42.925915" lon="-8.222704">
        <ele>387.4</ele>
        <time>2023-08-15T05:23:09Z</time>
      </trkpt>
      <trkpt lat="42.925906" lon="-8.222935">
        <ele>387.5</ele>
        <time>2023-08-15T05:23:24Z</time>
      </trkpt>
      <trkpt lat="42.925836" lon="-8.223161">
        <ele>387.5</ele>
        <time>2023-08-15T05:23:38Z</time>
      </trkpt>
      <trkpt lat="42.925748" lon="-8.223378">
        <ele>388.3</ele>
        <time>2023-08-15T05:23:51Z</time>
      </trkpt>
      <trkpt lat="42.925670" lon="-8.223600">
        <ele>388.3</ele>
        <time>2023-08-15T05:24:25Z</time>
      </trkpt>
      <trkpt lat="42.925594" lon="-8.223832">
        <ele>388.3</ele>
        <time>2023-08-15T05:24:40Z</time>
      </trkpt>
      <trkpt lat="42.925531" lon="-8.224065">
        <ele>388.3</ele>
        <time>2023-08-15T05:24:55Z</time>
      </trkpt>
      <trkpt lat="42.925412" lon="-8.224251">
        <ele>387.7</ele>
        <time>2023-08-15T05:25:10Z</time>
      </trkpt>
      <trkpt lat="42.925318" lon="-8.224462">
        <ele>389.7</ele>
        <time>2023-08-15T05:25:25Z</time>
      </trkpt>
      <trkpt lat="42.925228" lon="-8.224680">
        <ele>386.8</ele>
        <time>2023-08-15T05:25:38Z</time>
      </trkpt>
      <trkpt lat="42.925155" lon="-8.224906">
        <ele>388.0</ele>
        <time>2023-08-15T05:25:52Z</time>
      </trkpt>
      <trkpt lat="42.925068" lon="-8.225122">
        <ele>387.9</ele>
        <time>2023-08-15T05:26:05Z</time>
      </trkpt>
      <trkpt lat="42.924963" lon="-8.225322">
        <ele>387.9</ele>
        <time>2023-08-15T05:26:19Z</time>
      </trkpt>
      <trkpt lat="42.924860" lon="-8.225530">
        <ele>387.9</ele>
        <time>2023-08-15T05:26:37Z</time>
      </trkpt>
      <trkpt lat="42.924814" lon="-8.225747">
        <ele>387.9</ele>
        <time>2023-08-15T05:26:51Z</time>
      </trkpt>
      <trkpt lat="42.924684" lon="-8.225980">
        <ele>387.9</ele>
        <time>2023-08-15T05:27:03Z</time>
      </trkpt>
      <trkpt lat="42.924596" lon="-8.226205">
        <ele>387.9</ele>
        <time>2023-08-15T05:27:19Z</time>
      </trkpt>
      <trkpt lat="42.924482" lon="-8.226431">
        <ele>384.2</ele>
        <time>2023-08-15T05:27:34Z</time>
      </trkpt>
      <trkpt lat="42.924354" lon="-8.226591">
        <ele>381.7</ele>
        <time>2023-08-15T05:27:50Z</time>
      </trkpt>
      <trkpt lat="42.924215" lon="-8.226765">
        <ele>378.7</ele>
        <time>2023-08-15T05:28:06Z</time>
      </trkpt>
      <trkpt lat="42.924062" lon="-8.226955">
        <ele>377.7</ele>
        <time>2023-08-15T05:28:20Z</time>
      </trkpt>
      <trkpt lat="42.923977" lon="-8.227107">
        <ele>374.7</ele>
        <time>2023-08-15T05:28:36Z</time>
      </trkpt>
      <trkpt lat="42.923841" lon="-8.227300">
        <ele>373.7</ele>
        <time>2023-08-15T05:28:49Z</time>
      </trkpt>
      <trkpt lat="42.923726" lon="-8.227499">
        <ele>375.7</ele>
        <time>2023-08-15T05:29:01Z</time>
      </trkpt>
      <trkpt lat="42.923612" lon="-8.227690">
        <ele>377.7</ele>
        <time>2023-08-15T05:29:17Z</time>
      </trkpt>
      <trkpt lat="42.923524" lon="-8.227908">
        <ele>377.7</ele>
        <time>2023-08-15T05:29:31Z</time>
      </trkpt>
      <trkpt lat="42.923424" lon="-8.228113">
        <ele>380.6</ele>
        <time>2023-08-15T05:29:47Z</time>
      </trkpt>
      <trkpt lat="42.923335" lon="-8.228328">
        <ele>385.4</ele>
        <time>2023-08-15T05:30:03Z</time>
      </trkpt>
      <trkpt lat="42.923184" lon="-8.228466">
        <ele>385.7</ele>
        <time>2023-08-15T05:30:16Z</time>
      </trkpt>
      <trkpt lat="42.923046" lon="-8.228629">
        <ele>387.6</ele>
        <time>2023-08-15T05:30:30Z</time>
      </trkpt>
      <trkpt lat="42.922916" lon="-8.228800">
        <ele>390.6</ele>
        <time>2023-08-15T05:30:45Z</time>
      </trkpt>
      <trkpt lat="42.922819" lon="-8.229017">
        <ele>390.7</ele>
        <time>2023-08-15T05:31:00Z</time>
      </trkpt>
      <trkpt lat="42.922711" lon="-8.229214">
        <ele>389.7</ele>
        <time>2023-08-15T05:31:14Z</time>
      </trkpt>
      <trkpt lat="42.922641" lon="-8.229446">
        <ele>392.6</ele>
        <time>2023-08-15T05:31:27Z</time>
      </trkpt>
      <trkpt lat="42.922592" lon="-8.229689">
        <ele>394.7</ele>
        <time>2023-08-15T05:31:41Z</time>
      </trkpt>
      <trkpt lat="42.922509" lon="-8.229912">
        <ele>394.7</ele>
        <time>2023-08-15T05:31:53Z</time>
      </trkpt>
      <trkpt lat="42.922410" lon="-8.230124">
        <ele>398.7</ele>
        <time>2023-08-15T05:32:08Z</time>
      </trkpt>
      <trkpt lat="42.922351" lon="-8.230366">
        <ele>394.7</ele>
        <time>2023-08-15T05:32:22Z</time>
      </trkpt>
      <trkpt lat="42.922283" lon="-8.230600">
        <ele>395.7</ele>
        <time>2023-08-15T05:32:42Z</time>
      </trkpt>
      <trkpt lat="42.922199" lon="-8.230831">
        <ele>400.6</ele>
        <time>2023-08-15T05:32:54Z</time>
      </trkpt>
      <trkpt lat="42.922129" lon="-8.231067">
        <ele>400.7</ele>
        <time>2023-08-15T05:33:07Z</time>
      </trkpt>
      <trkpt lat="42.922086" lon="-8.231306">
        <ele>393.7</ele>
        <time>2023-08-15T05:33:21Z</time>
      </trkpt>
      <trkpt lat="42.921999" lon="-8.231502">
        <ele>393.7</ele>
        <time>2023-08-15T05:33:44Z</time>
      </trkpt>
      <trkpt lat="42.921889" lon="-8.231705">
        <ele>393.0</ele>
        <time>2023-08-15T05:34:00Z</time>
      </trkpt>
      <trkpt lat="42.921801" lon="-8.231922">
        <ele>390.7</ele>
        <time>2023-08-15T05:34:16Z</time>
      </trkpt>
      <trkpt lat="42.921707" lon="-8.232132">
        <ele>393.7</ele>
        <time>2023-08-15T05:34:27Z</time>
      </trkpt>
      <trkpt lat="42.921607" lon="-8.232338">
        <ele>394.6</ele>
        <time>2023-08-15T05:34:43Z</time>
      </trkpt>
      <trkpt lat="42.921527" lon="-8.232559">
        <ele>393.8</ele>
        <time>2023-08-15T05:34:54Z</time>
      </trkpt>
      <trkpt lat="42.921423" lon="-8.232761">
        <ele>392.7</ele>
        <time>2023-08-15T05:35:12Z</time>
      </trkpt>
      <trkpt lat="42.921307" lon="-8.232954">
        <ele>392.7</ele>
        <time>2023-08-15T05:35:26Z</time>
      </trkpt>
      <trkpt lat="42.921195" lon="-8.233157">
        <ele>391.7</ele>
        <time>2023-08-15T05:35:41Z</time>
      </trkpt>
      <trkpt lat="42.921091" lon="-8.233360">
        <ele>392.7</ele>
        <time>2023-08-15T05:35:53Z</time>
      </trkpt>
      <trkpt lat="42.921007" lon="-8.233577">
        <ele>392.7</ele>
        <time>2023-08-15T05:36:06Z</time>
      </trkpt>
      <trkpt lat="42.920936" lon="-8.233798">
        <ele>390.7</ele>
        <time>2023-08-15T05:36:21Z</time>
      </trkpt>
      <trkpt lat="42.920861" lon="-8.234047">
        <ele>389.7</ele>
        <time>2023-08-15T05:36:34Z</time>
      </trkpt>
      <trkpt lat="42.920834" lon="-8.234282">
        <ele>386.7</ele>
        <time>2023-08-15T05:36:49Z</time>
      </trkpt>
      <trkpt lat="42.920760" lon="-8.234526">
        <ele>383.7</ele>
        <time>2023-08-15T05:37:06Z</time>
      </trkpt>
      <trkpt lat="42.920693" lon="-8.234743">
        <ele>382.7</ele>
        <time>2023-08-15T05:37:22Z</time>
      </trkpt>
      <trkpt lat="42.920607" lon="-8.234965">
        <ele>382.7</ele>
        <time>2023-08-15T05:37:37Z</time>
      </trkpt>
      <trkpt lat="42.920505" lon="-8.235172">
        <ele>381.7</ele>
        <time>2023-08-15T05:37:50Z</time>
      </trkpt>
      <trkpt lat="42.920439" lon="-8.235414">
        <ele>377.7</ele>
        <time>2023-08-15T05:38:05Z</time>
      </trkpt>
      <trkpt lat="42.920423" lon="-8.235711">
        <ele>371.7</ele>
        <time>2023-08-15T05:38:17Z</time>
      </trkpt>
      <trkpt lat="42.920417" lon="-8.235918">
        <ele>370.7</ele>
        <time>2023-08-15T05:38:31Z</time>
      </trkpt>
      <trkpt lat="42.920429" lon="-8.236150">
        <ele>367.8</ele>
        <time>2023-08-15T05:38:44Z</time>
      </trkpt>
      <trkpt lat="42.920421" lon="-8.236392">
        <ele>369.7</ele>
        <time>2023-08-15T05:38:56Z</time>
      </trkpt>
      <trkpt lat="42.920397" lon="-8.236632">
        <ele>371.8</ele>
        <time>2023-08-15T05:39:08Z</time>
      </trkpt>
      <trkpt lat="42.920399" lon="-8.236881">
        <ele>374.7</ele>
        <time>2023-08-15T05:39:23Z</time>
      </trkpt>
      <trkpt lat="42.920312" lon="-8.237097">
        <ele>374.6</ele>
        <time>2023-08-15T05:39:41Z</time>
      </trkpt>
      <trkpt lat="42.920187" lon="-8.237284">
        <ele>376.7</ele>
        <time>2023-08-15T05:39:53Z</time>
      </trkpt>
      <trkpt lat="42.920024" lon="-8.237405">
        <ele>377.7</ele>
        <time>2023-08-15T05:40:06Z</time>
      </trkpt>
      <trkpt lat="42.919869" lon="-8.237539">
        <ele>377.7</ele>
        <time>2023-08-15T05:40:22Z</time>
      </trkpt>
      <trkpt lat="42.919756" lon="-8.237742">
        <ele>375.0</ele>
        <time>2023-08-15T05:40:36Z</time>
      </trkpt>
      <trkpt lat="42.919671" lon="-8.237966">
        <ele>370.7</ele>
        <time>2023-08-15T05:40:51Z</time>
      </trkpt>
      <trkpt lat="42.919573" lon="-8.238182">
        <ele>371.0</ele>
        <time>2023-08-15T05:41:06Z</time>
      </trkpt>
      <trkpt lat="42.919478" lon="-8.238412">
        <ele>368.7</ele>
        <time>2023-08-15T05:41:22Z</time>
      </trkpt>
      <trkpt lat="42.919383" lon="-8.238628">
        <ele>369.6</ele>
        <time>2023-08-15T05:41:35Z</time>
      </trkpt>
      <trkpt lat="42.919302" lon="-8.238849">
        <ele>367.7</ele>
        <time>2023-08-15T05:41:49Z</time>
      </trkpt>
      <trkpt lat="42.919212" lon="-8.239065">
        <ele>364.8</ele>
        <time>2023-08-15T05:42:05Z</time>
      </trkpt>
      <trkpt lat="42.919101" lon="-8.239262">
        <ele>364.7</ele>
        <time>2023-08-15T05:42:19Z</time>
      </trkpt>
      <trkpt lat="42.918988" lon="-8.239473">
        <ele>362.8</ele>
        <time>2023-08-15T05:42:38Z</time>
      </trkpt>
      <trkpt lat="42.918909" lon="-8.239707">
        <ele>356.7</ele>
        <time>2023-08-15T05:42:53Z</time>
      </trkpt>
      <trkpt lat="42.918736" lon="-8.239834">
        <ele>355.7</ele>
        <time>2023-08-15T05:43:03Z</time>
      </trkpt>
      <trkpt lat="42.918619" lon="-8.240030">
        <ele>358.7</ele>
        <time>2023-08-15T05:43:16Z</time>
      </trkpt>
      <trkpt lat="42.918476" lon="-8.240184">
        <ele>357.1</ele>
        <time>2023-08-15T05:43:36Z</time>
      </trkpt>
      <trkpt lat="42.918306" lon="-8.240275">
        <ele>357.1</ele>
        <time>2023-08-15T05:43:50Z</time>
      </trkpt>
      <trkpt lat="42.918176" lon="-8.240447">
        <ele>357.1</ele>
        <time>2023-08-15T05:44:05Z</time>
      </trkpt>
      <trkpt lat="42.918102" lon="-8.240678">
        <ele>357.1</ele>
        <time>2023-08-15T05:44:19Z</time>
      </trkpt>
      <trkpt lat="42.918031" lon="-8.240909">
        <ele>357.6</ele>
        <time>2023-08-15T05:44:38Z</time>
      </trkpt>
      <trkpt lat="42.917954" lon="-8.241144">
        <ele>357.6</ele>
        <time>2023-08-15T05:44:50Z</time>
      </trkpt>
      <trkpt lat="42.917849" lon="-8.241338">
        <ele>349.7</ele>
        <time>2023-08-15T05:45:06Z</time>
      </trkpt>
      <trkpt lat="42.917717" lon="-8.241608">
        <ele>349.7</ele>
        <time>2023-08-15T05:45:20Z</time>
      </trkpt>
      <trkpt lat="42.917758" lon="-8.241784">
        <ele>346.0</ele>
        <time>2023-08-15T05:45:37Z</time>
      </trkpt>
      <trkpt lat="42.917874" lon="-8.242127">
        <ele>344.4</ele>
        <time>2023-08-15T05:45:51Z</time>
      </trkpt>
      <trkpt lat="42.917859" lon="-8.242246">
        <ele>341.7</ele>
        <time>2023-08-15T05:46:08Z</time>
      </trkpt>
      <trkpt lat="42.917951" lon="-8.242470">
        <ele>345.9</ele>
        <time>2023-08-15T05:46:25Z</time>
      </trkpt>
      <trkpt lat="42.918041" lon="-8.242711">
        <ele>344.8</ele>
        <time>2023-08-15T05:46:40Z</time>
      </trkpt>
      <trkpt lat="42.918111" lon="-8.242935">
        <ele>342.6</ele>
        <time>2023-08-15T05:46:55Z</time>
      </trkpt>
      <trkpt lat="42.918245" lon="-8.243203">
        <ele>341.9</ele>
        <time>2023-08-15T05:47:09Z</time>
      </trkpt>
      <trkpt lat="42.918191" lon="-8.243348">
        <ele>341.9</ele>
        <time>2023-08-15T05:47:26Z</time>
      </trkpt>
      <trkpt lat="42.917984" lon="-8.243422">
        <ele>341.9</ele>
        <time>2023-08-15T05:47:41Z</time>
      </trkpt>
      <trkpt lat="42.917900" lon="-8.243539">
        <ele>341.9</ele>
        <time>2023-08-15T05:47:54Z</time>
      </trkpt>
      <trkpt lat="42.917753" lon="-8.243642">
        <ele>341.9</ele>
        <time>2023-08-15T05:48:10Z</time>
      </trkpt>
      <trkpt lat="42.917647" lon="-8.243664">
        <ele>337.7</ele>
        <time>2023-08-15T05:48:46Z</time>
      </trkpt>
      <trkpt lat="42.917649" lon="-8.244113">
        <ele>337.7</ele>
        <time>2023-08-15T05:49:01Z</time>
      </trkpt>
      <trkpt lat="42.917624" lon="-8.244495">
        <ele>337.7</ele>
        <time>2023-08-15T05:49:24Z</time>
      </trkpt>
      <trkpt lat="42.917510" lon="-8.244703">
        <ele>337.7</ele>
        <time>2023-08-15T05:49:40Z</time>
      </trkpt>
      <trkpt lat="42.917511" lon="-8.244823">
        <ele>334.4</ele>
        <time>2023-08-15T05:50:14Z</time>
      </trkpt>
      <trkpt lat="42.917527" lon="-8.245061">
        <ele>333.7</ele>
        <time>2023-08-15T05:50:27Z</time>
      </trkpt>
      <trkpt lat="42.917544" lon="-8.245326">
        <ele>334.7</ele>
        <time>2023-08-15T05:50:42Z</time>
      </trkpt>
      <trkpt lat="42.917618" lon="-8.245583">
        <ele>336.7</ele>
        <time>2023-08-15T05:50:56Z</time>
      </trkpt>
      <trkpt lat="42.917740" lon="-8.245784">
        <ele>339.7</ele>
        <time>2023-08-15T05:51:09Z</time>
      </trkpt>
      <trkpt lat="42.917855" lon="-8.245978">
        <ele>340.6</ele>
        <time>2023-08-15T05:51:22Z</time>
      </trkpt>
      <trkpt lat="42.917926" lon="-8.246214">
        <ele>341.4</ele>
        <time>2023-08-15T05:51:35Z</time>
      </trkpt>
      <trkpt lat="42.917972" lon="-8.246456">
        <ele>341.7</ele>
        <time>2023-08-15T05:51:49Z</time>
      </trkpt>
      <trkpt lat="42.917996" lon="-8.246690">
        <ele>343.7</ele>
        <time>2023-08-15T05:52:02Z</time>
      </trkpt>
      <trkpt lat="42.918034" lon="-8.246931">
        <ele>349.3</ele>
        <time>2023-08-15T05:52:18Z</time>
      </trkpt>
      <trkpt lat="42.918077" lon="-8.247212">
        <ele>349.3</ele>
        <time>2023-08-15T05:52:39Z</time>
      </trkpt>
      <trkpt lat="42.918117" lon="-8.247435">
        <ele>349.3</ele>
        <time>2023-08-15T05:52:50Z</time>
      </trkpt>
      <trkpt lat="42.918151" lon="-8.247665">
        <ele>349.3</ele>
        <time>2023-08-15T05:53:00Z</time>
      </trkpt>
      <trkpt lat="42.918188" lon="-8.247917">
        <ele>349.3</ele>
        <time>2023-08-15T05:53:10Z</time>
      </trkpt>
      <trkpt lat="42.918220" lon="-8.248151">
        <ele>349.3</ele>
        <time>2023-08-15T05:53:42Z</time>
      </trkpt>
      <trkpt lat="42.918281" lon="-8.248382">
        <ele>349.3</ele>
        <time>2023-08-15T05:53:55Z</time>
      </trkpt>
      <trkpt lat="42.918341" lon="-8.248619">
        <ele>349.3</ele>
        <time>2023-08-15T05:54:08Z</time>
      </trkpt>
      <trkpt lat="42.918390" lon="-8.248864">
        <ele>349.7</ele>
        <time>2023-08-15T05:54:21Z</time>
      </trkpt>
      <trkpt lat="42.918416" lon="-8.249109">
        <ele>351.7</ele>
        <time>2023-08-15T05:54:34Z</time>
      </trkpt>
      <trkpt lat="42.918468" lon="-8.249349">
        <ele>349.3</ele>
        <time>2023-08-15T05:54:50Z</time>
      </trkpt>
      <trkpt lat="42.918505" lon="-8.249594">
        <ele>349.3</ele>
        <time>2023-08-15T05:55:04Z</time>
      </trkpt>
      <trkpt lat="42.918543" lon="-8.249837">
        <ele>349.3</ele>
        <time>2023-08-15T05:55:16Z</time>
      </trkpt>
      <trkpt lat="42.918572" lon="-8.250090">
        <ele>349.3</ele>
        <time>2023-08-15T05:55:29Z</time>
      </trkpt>
      <trkpt lat="42.918616" lon="-8.250333">
        <ele>349.3</ele>
        <time>2023-08-15T05:55:41Z</time>
      </trkpt>
      <trkpt lat="42.918669" lon="-8.250570">
        <ele>349.3</ele>
        <time>2023-08-15T05:55:56Z</time>
      </trkpt>
      <trkpt lat="42.918723" lon="-8.250805">
        <ele>353.7</ele>
        <time>2023-08-15T05:56:11Z</time>
      </trkpt>
      <trkpt lat="42.918806" lon="-8.251030">
        <ele>353.7</ele>
        <time>2023-08-15T05:56:26Z</time>
      </trkpt>
      <trkpt lat="42.918917" lon="-8.251232">
        <ele>354.7</ele>
        <time>2023-08-15T05:56:53Z</time>
      </trkpt>
      <trkpt lat="42.919010" lon="-8.251454">
        <ele>358.0</ele>
        <time>2023-08-15T05:57:08Z</time>
      </trkpt>
      <trkpt lat="42.919105" lon="-8.251657">
        <ele>357.7</ele>
        <time>2023-08-15T05:57:20Z</time>
      </trkpt>
      <trkpt lat="42.919221" lon="-8.251835">
        <ele>359.7</ele>
        <time>2023-08-15T05:57:32Z</time>
      </trkpt>
      <trkpt lat="42.919343" lon="-8.252022">
        <ele>359.0</ele>
        <time>2023-08-15T05:57:46Z</time>
      </trkpt>
      <trkpt lat="42.919415" lon="-8.252241">
        <ele>358.4</ele>
        <time>2023-08-15T05:58:00Z</time>
      </trkpt>
      <trkpt lat="42.919515" lon="-8.252455">
        <ele>360.7</ele>
        <time>2023-08-15T05:58:14Z</time>
      </trkpt>
      <trkpt lat="42.919621" lon="-8.252645">
        <ele>363.6</ele>
        <time>2023-08-15T05:58:28Z</time>
      </trkpt>
      <trkpt lat="42.919758" lon="-8.252810">
        <ele>366.6</ele>
        <time>2023-08-15T05:58:41Z</time>
      </trkpt>
      <trkpt lat="42.919917" lon="-8.252926">
        <ele>367.7</ele>
        <time>2023-08-15T05:58:54Z</time>
      </trkpt>
      <trkpt lat="42.920066" lon="-8.253069">
        <ele>368.7</ele>
        <time>2023-08-15T05:59:08Z</time>
      </trkpt>
      <trkpt lat="42.920233" lon="-8.253169">
        <ele>367.7</ele>
        <time>2023-08-15T05:59:23Z</time>
      </trkpt>
      <trkpt lat="42.920413" lon="-8.253252">
        <ele>369.7</ele>
        <time>2023-08-15T05:59:37Z</time>
      </trkpt>
      <trkpt lat="42.920579" lon="-8.253348">
        <ele>370.7</ele>
        <time>2023-08-15T05:59:49Z</time>
      </trkpt>
      <trkpt lat="42.920719" lon="-8.253518">
        <ele>371.7</ele>
        <time>2023-08-15T06:00:04Z</time>
      </trkpt>
      <trkpt lat="42.920860" lon="-8.253678">
        <ele>373.7</ele>
        <time>2023-08-15T06:00:19Z</time>
      </trkpt>
      <trkpt lat="42.920964" lon="-8.253868">
        <ele>375.7</ele>
        <time>2023-08-15T06:00:32Z</time>
      </trkpt>
      <trkpt lat="42.921108" lon="-8.254038">
        <ele>375.0</ele>
        <time>2023-08-15T06:00:46Z</time>
      </trkpt>
      <trkpt lat="42.921197" lon="-8.254264">
        <ele>375.7</ele>
        <time>2023-08-15T06:01:00Z</time>
      </trkpt>
      <trkpt lat="42.921294" lon="-8.254476">
        <ele>373.7</ele>
        <time>2023-08-15T06:01:14Z</time>
      </trkpt>
      <trkpt lat="42.921381" lon="-8.254700">
        <ele>374.7</ele>
        <time>2023-08-15T06:01:29Z</time>
      </trkpt>
      <trkpt lat="42.921461" lon="-8.254921">
        <ele>376.7</ele>
        <time>2023-08-15T06:01:41Z</time>
      </trkpt>
      <trkpt lat="42.921542" lon="-8.255141">
        <ele>377.7</ele>
        <time>2023-08-15T06:01:57Z</time>
      </trkpt>
      <trkpt lat="42.921605" lon="-8.255382">
        <ele>377.7</ele>
        <time>2023-08-15T06:02:11Z</time>
      </trkpt>
      <trkpt lat="42.921714" lon="-8.255588">
        <ele>377.7</ele>
        <time>2023-08-15T06:02:27Z</time>
      </trkpt>
      <trkpt lat="42.921799" lon="-8.255807">
        <ele>378.7</ele>
        <time>2023-08-15T06:02:42Z</time>
      </trkpt>
      <trkpt lat="42.921878" lon="-8.256044">
        <ele>379.0</ele>
        <time>2023-08-15T06:03:00Z</time>
      </trkpt>
      <trkpt lat="42.922007" lon="-8.256226">
        <ele>379.0</ele>
        <time>2023-08-15T06:03:12Z</time>
      </trkpt>
      <trkpt lat="42.922098" lon="-8.256450">
        <ele>379.0</ele>
        <time>2023-08-15T06:03:27Z</time>
      </trkpt>
      <trkpt lat="42.922204" lon="-8.256650">
        <ele>379.0</ele>
        <time>2023-08-15T06:03:41Z</time>
      </trkpt>
      <trkpt lat="42.922280" lon="-8.256882">
        <ele>379.0</ele>
        <time>2023-08-15T06:03:55Z</time>
      </trkpt>
      <trkpt lat="42.922340" lon="-8.257119">
        <ele>379.0</ele>
        <time>2023-08-15T06:04:09Z</time>
      </trkpt>
      <trkpt lat="42.922353" lon="-8.257368">
        <ele>379.0</ele>
        <time>2023-08-15T06:04:24Z</time>
      </trkpt>
      <trkpt lat="42.922391" lon="-8.257620">
        <ele>369.7</ele>
        <time>2023-08-15T06:04:39Z</time>
      </trkpt>
      <trkpt lat="42.922414" lon="-8.257873">
        <ele>368.8</ele>
        <time>2023-08-15T06:04:52Z</time>
      </trkpt>
      <trkpt lat="42.922429" lon="-8.258126">
        <ele>377.2</ele>
        <time>2023-08-15T06:05:06Z</time>
      </trkpt>
      <trkpt lat="42.922422" lon="-8.258409">
        <ele>377.2</ele>
        <time>2023-08-15T06:05:19Z</time>
      </trkpt>
      <trkpt lat="42.922435" lon="-8.258793">
        <ele>377.2</ele>
        <time>2023-08-15T06:05:32Z</time>
      </trkpt>
      <trkpt lat="42.922330" lon="-8.258837">
        <ele>377.2</ele>
        <time>2023-08-15T06:05:47Z</time>
      </trkpt>
      <trkpt lat="42.922332" lon="-8.259089">
        <ele>377.2</ele>
        <time>2023-08-15T06:06:02Z</time>
      </trkpt>
      <trkpt lat="42.922309" lon="-8.259311">
        <ele>377.2</ele>
        <time>2023-08-15T06:06:14Z</time>
      </trkpt>
      <trkpt lat="42.922339" lon="-8.259563">
        <ele>377.2</ele>
        <time>2023-08-15T06:06:29Z</time>
      </trkpt>
      <trkpt lat="42.922349" lon="-8.259811">
        <ele>372.8</ele>
        <time>2023-08-15T06:06:43Z</time>
      </trkpt>
      <trkpt lat="42.922337" lon="-8.260062">
        <ele>370.7</ele>
        <time>2023-08-15T06:06:57Z</time>
      </trkpt>
      <trkpt lat="42.922375" lon="-8.260308">
        <ele>368.7</ele>
        <time>2023-08-15T06:07:11Z</time>
      </trkpt>
      <trkpt lat="42.922391" lon="-8.260557">
        <ele>366.7</ele>
        <time>2023-08-15T06:07:27Z</time>
      </trkpt>
      <trkpt lat="42.922427" lon="-8.260806">
        <ele>363.7</ele>
        <time>2023-08-15T06:07:42Z</time>
      </trkpt>
      <trkpt lat="42.922457" lon="-8.261050">
        <ele>363.7</ele>
        <time>2023-08-15T06:07:57Z</time>
      </trkpt>
      <trkpt lat="42.922524" lon="-8.261289">
        <ele>362.7</ele>
        <time>2023-08-15T06:08:13Z</time>
      </trkpt>
      <trkpt lat="42.922539" lon="-8.261539">
        <ele>365.7</ele>
        <time>2023-08-15T06:08:28Z</time>
      </trkpt>
      <trkpt lat="42.922624" lon="-8.261767">
        <ele>360.7</ele>
        <time>2023-08-15T06:08:45Z</time>
      </trkpt>
      <trkpt lat="42.922774" lon="-8.261904">
        <ele>356.7</ele>
        <time>2023-08-15T06:08:59Z</time>
      </trkpt>
      <trkpt lat="42.922828" lon="-8.262146">
        <ele>350.8</ele>
        <time>2023-08-15T06:09:16Z</time>
      </trkpt>
      <trkpt lat="42.922878" lon="-8.262386">
        <ele>354.7</ele>
        <time>2023-08-15T06:10:09Z</time>
      </trkpt>
      <trkpt lat="42.922938" lon="-8.262626">
        <ele>351.0</ele>
        <time>2023-08-15T06:10:23Z</time>
      </trkpt>
      <trkpt lat="42.923019" lon="-8.262859">
        <ele>347.0</ele>
        <time>2023-08-15T06:10:40Z</time>
      </trkpt>
      <trkpt lat="42.923060" lon="-8.263084">
        <ele>343.6</ele>
        <time>2023-08-15T06:10:55Z</time>
      </trkpt>
      <trkpt lat="42.923117" lon="-8.263305">
        <ele>347.7</ele>
        <time>2023-08-15T06:11:03Z</time>
      </trkpt>
      <trkpt lat="42.923137" lon="-8.263556">
        <ele>349.7</ele>
        <time>2023-08-15T06:11:16Z</time>
      </trkpt>
      <trkpt lat="42.923237" lon="-8.263769">
        <ele>348.0</ele>
        <time>2023-08-15T06:11:34Z</time>
      </trkpt>
      <trkpt lat="42.923293" lon="-8.263997">
        <ele>333.0</ele>
        <time>2023-08-15T06:11:52Z</time>
      </trkpt>
      <trkpt lat="42.923333" lon="-8.264253">
        <ele>333.7</ele>
        <time>2023-08-15T06:12:07Z</time>
      </trkpt>
      <trkpt lat="42.923387" lon="-8.264486">
        <ele>339.7</ele>
        <time>2023-08-15T06:12:17Z</time>
      </trkpt>
      <trkpt lat="42.923450" lon="-8.264713">
        <ele>343.4</ele>
        <time>2023-08-15T06:12:29Z</time>
      </trkpt>
      <trkpt lat="42.923543" lon="-8.265112">
        <ele>346.6</ele>
        <time>2023-08-15T06:12:40Z</time>
      </trkpt>
      <trkpt lat="42.923588" lon="-8.265134">
        <ele>363.0</ele>
        <time>2023-08-15T06:12:53Z</time>
      </trkpt>
      <trkpt lat="42.923581" lon="-8.265420">
        <ele>363.0</ele>
        <time>2023-08-15T06:13:07Z</time>
      </trkpt>
      <trkpt lat="42.923587" lon="-8.265775">
        <ele>363.0</ele>
        <time>2023-08-15T06:13:25Z</time>
      </trkpt>
      <trkpt lat="42.923514" lon="-8.265907">
        <ele>363.0</ele>
        <time>2023-08-15T06:13:41Z</time>
      </trkpt>
      <trkpt lat="42.923463" lon="-8.266149">
        <ele>363.0</ele>
        <time>2023-08-15T06:14:02Z</time>
      </trkpt>
      <trkpt lat="42.923441" lon="-8.266396">
        <ele>363.0</ele>
        <time>2023-08-15T06:14:17Z</time>
      </trkpt>
      <trkpt lat="42.923435" lon="-8.266645">
        <ele>347.7</ele>
        <time>2023-08-15T06:14:28Z</time>
      </trkpt>
      <trkpt lat="42.923450" lon="-8.266938">
        <ele>347.7</ele>
        <time>2023-08-15T06:14:40Z</time>
      </trkpt>
      <trkpt lat="42.923528" lon="-8.267169">
        <ele>347.7</ele>
        <time>2023-08-15T06:14:52Z</time>
      </trkpt>
      <trkpt lat="42.923643" lon="-8.267371">
        <ele>348.4</ele>
        <time>2023-08-15T06:15:05Z</time>
      </trkpt>
      <trkpt lat="42.923733" lon="-8.267579">
        <ele>352.6</ele>
        <time>2023-08-15T06:15:15Z</time>
      </trkpt>
      <trkpt lat="42.923832" lon="-8.267785">
        <ele>354.6</ele>
        <time>2023-08-15T06:15:25Z</time>
      </trkpt>
      <trkpt lat="42.923954" lon="-8.267965">
        <ele>356.7</ele>
        <time>2023-08-15T06:15:41Z</time>
      </trkpt>
      <trkpt lat="42.924085" lon="-8.268138">
        <ele>365.6</ele>
        <time>2023-08-15T06:16:05Z</time>
      </trkpt>
      <trkpt lat="42.924228" lon="-8.268283">
        <ele>365.7</ele>
        <time>2023-08-15T06:16:22Z</time>
      </trkpt>
      <trkpt lat="42.924374" lon="-8.268447">
        <ele>363.7</ele>
        <time>2023-08-15T06:16:38Z</time>
      </trkpt>
      <trkpt lat="42.924550" lon="-8.268528">
        <ele>362.7</ele>
        <time>2023-08-15T06:16:51Z</time>
      </trkpt>
      <trkpt lat="42.924713" lon="-8.268648">
        <ele>364.4</ele>
        <time>2023-08-15T06:17:03Z</time>
      </trkpt>
      <trkpt lat="42.924856" lon="-8.268811">
        <ele>364.7</ele>
        <time>2023-08-15T06:17:21Z</time>
      </trkpt>
      <trkpt lat="42.924935" lon="-8.269034">
        <ele>365.6</ele>
        <time>2023-08-15T06:17:35Z</time>
      </trkpt>
      <trkpt lat="42.924975" lon="-8.269281">
        <ele>367.8</ele>
        <time>2023-08-15T06:17:50Z</time>
      </trkpt>
      <trkpt lat="42.925020" lon="-8.269522">
        <ele>366.8</ele>
        <time>2023-08-15T06:18:06Z</time>
      </trkpt>
      <trkpt lat="42.925043" lon="-8.269772">
        <ele>365.7</ele>
        <time>2023-08-15T06:18:20Z</time>
      </trkpt>
      <trkpt lat="42.925099" lon="-8.270010">
        <ele>365.7</ele>
        <time>2023-08-15T06:18:33Z</time>
      </trkpt>
      <trkpt lat="42.925128" lon="-8.270260">
        <ele>365.7</ele>
        <time>2023-08-15T06:18:47Z</time>
      </trkpt>
      <trkpt lat="42.925204" lon="-8.270499">
        <ele>363.4</ele>
        <time>2023-08-15T06:19:02Z</time>
      </trkpt>
      <trkpt lat="42.925262" lon="-8.270743">
        <ele>363.7</ele>
        <time>2023-08-15T06:19:15Z</time>
      </trkpt>
      <trkpt lat="42.925283" lon="-8.270992">
        <ele>364.7</ele>
        <time>2023-08-15T06:19:30Z</time>
      </trkpt>
      <trkpt lat="42.925304" lon="-8.271244">
        <ele>363.0</ele>
        <time>2023-08-15T06:19:43Z</time>
      </trkpt>
      <trkpt lat="42.925321" lon="-8.271497">
        <ele>363.7</ele>
        <time>2023-08-15T06:19:59Z</time>
      </trkpt>
      <trkpt lat="42.925345" lon="-8.271749">
        <ele>364.7</ele>
        <time>2023-08-15T06:20:12Z</time>
      </trkpt>
      <trkpt lat="42.925411" lon="-8.271995">
        <ele>363.6</ele>
        <time>2023-08-15T06:20:25Z</time>
      </trkpt>
      <trkpt lat="42.925451" lon="-8.272228">
        <ele>373.9</ele>
        <time>2023-08-15T06:20:40Z</time>
      </trkpt>
      <trkpt lat="42.925489" lon="-8.272464">
        <ele>373.9</ele>
        <time>2023-08-15T06:20:54Z</time>
      </trkpt>
      <trkpt lat="42.925546" lon="-8.272713">
        <ele>373.9</ele>
        <time>2023-08-15T06:21:07Z</time>
      </trkpt>
      <trkpt lat="42.925607" lon="-8.272950">
        <ele>373.9</ele>
        <time>2023-08-15T06:21:20Z</time>
      </trkpt>
      <trkpt lat="42.925657" lon="-8.273167">
        <ele>372.6</ele>
        <time>2023-08-15T06:21:33Z</time>
      </trkpt>
      <trkpt lat="42.925692" lon="-8.273420">
        <ele>372.6</ele>
        <time>2023-08-15T06:21:50Z</time>
      </trkpt>
      <trkpt lat="42.925748" lon="-8.273672">
        <ele>372.6</ele>
        <time>2023-08-15T06:22:02Z</time>
      </trkpt>
      <trkpt lat="42.925826" lon="-8.273887">
        <ele>372.6</ele>
        <time>2023-08-15T06:22:15Z</time>
      </trkpt>
      <trkpt lat="42.925944" lon="-8.274186">
        <ele>371.4</ele>
        <time>2023-08-15T06:22:31Z</time>
      </trkpt>
      <trkpt lat="42.926052" lon="-8.274229">
        <ele>363.3</ele>
        <time>2023-08-15T06:22:47Z</time>
      </trkpt>
      <trkpt lat="42.926155" lon="-8.274466">
        <ele>360.7</ele>
        <time>2023-08-15T06:23:02Z</time>
      </trkpt>
      <trkpt lat="42.926231" lon="-8.274690">
        <ele>360.6</ele>
        <time>2023-08-15T06:23:15Z</time>
      </trkpt>
      <trkpt lat="42.926291" lon="-8.274926">
        <ele>362.7</ele>
        <time>2023-08-15T06:23:32Z</time>
      </trkpt>
      <trkpt lat="42.926352" lon="-8.275164">
        <ele>365.7</ele>
        <time>2023-08-15T06:23:49Z</time>
      </trkpt>
      <trkpt lat="42.926414" lon="-8.275404">
        <ele>363.7</ele>
        <time>2023-08-15T06:24:03Z</time>
      </trkpt>
      <trkpt lat="42.926447" lon="-8.275646">
        <ele>362.7</ele>
        <time>2023-08-15T06:24:17Z</time>
      </trkpt>
      <trkpt lat="42.926465" lon="-8.275893">
        <ele>361.7</ele>
        <time>2023-08-15T06:24:33Z</time>
      </trkpt>
      <trkpt lat="42.926468" lon="-8.276143">
        <ele>363.7</ele>
        <time>2023-08-15T06:24:46Z</time>
      </trkpt>
      <trkpt lat="42.926480" lon="-8.276390">
        <ele>362.4</ele>
        <time>2023-08-15T06:25:00Z</time>
      </trkpt>
      <trkpt lat="42.926498" lon="-8.276640">
        <ele>361.7</ele>
        <time>2023-08-15T06:25:17Z</time>
      </trkpt>
      <trkpt lat="42.926473" lon="-8.276887">
        <ele>360.7</ele>
        <time>2023-08-15T06:26:01Z</time>
      </trkpt>
      <trkpt lat="42.926430" lon="-8.277130">
        <ele>355.8</ele>
        <time>2023-08-15T06:26:21Z</time>
      </trkpt>
      <trkpt lat="42.926387" lon="-8.277392">
        <ele>350.8</ele>
        <time>2023-08-15T06:26:41Z</time>
      </trkpt>
      <trkpt lat="42.926252" lon="-8.277650">
        <ele>349.8</ele>
        <time>2023-08-15T06:26:54Z</time>
      </trkpt>
      <trkpt lat="42.926250" lon="-8.277842">
        <ele>350.7</ele>
        <time>2023-08-15T06:27:06Z</time>
      </trkpt>
      <trkpt lat="42.926279" lon="-8.278084">
        <ele>354.4</ele>
        <time>2023-08-15T06:27:17Z</time>
      </trkpt>
      <trkpt lat="42.926289" lon="-8.278332">
        <ele>355.7</ele>
        <time>2023-08-15T06:27:28Z</time>
      </trkpt>
      <trkpt lat="42.926328" lon="-8.278541">
        <ele>356.7</ele>
        <time>2023-08-15T06:27:42Z</time>
      </trkpt>
      <trkpt lat="42.926364" lon="-8.278810">
        <ele>357.7</ele>
        <time>2023-08-15T06:27:57Z</time>
      </trkpt>
      <trkpt lat="42.926390" lon="-8.279060">
        <ele>359.0</ele>
        <time>2023-08-15T06:28:11Z</time>
      </trkpt>
      <trkpt lat="42.926407" lon="-8.279300">
        <ele>358.0</ele>
        <time>2023-08-15T06:28:26Z</time>
      </trkpt>
      <trkpt lat="42.926416" lon="-8.279563">
        <ele>363.1</ele>
        <time>2023-08-15T06:28:39Z</time>
      </trkpt>
      <trkpt lat="42.926432" lon="-8.279818">
        <ele>363.1</ele>
        <time>2023-08-15T06:28:54Z</time>
      </trkpt>
      <trkpt lat="42.926450" lon="-8.280064">
        <ele>363.1</ele>
        <time>2023-08-15T06:29:06Z</time>
      </trkpt>
      <trkpt lat="42.926410" lon="-8.280309">
        <ele>363.0</ele>
        <time>2023-08-15T06:29:20Z</time>
      </trkpt>
      <trkpt lat="42.926390" lon="-8.280553">
        <ele>362.8</ele>
        <time>2023-08-15T06:29:36Z</time>
      </trkpt>
      <trkpt lat="42.926355" lon="-8.280804">
        <ele>363.0</ele>
        <time>2023-08-15T06:29:52Z</time>
      </trkpt>
      <trkpt lat="42.926277" lon="-8.281034">
        <ele>363.0</ele>
        <time>2023-08-15T06:30:06Z</time>
      </trkpt>
      <trkpt lat="42.926211" lon="-8.281267">
        <ele>363.0</ele>
        <time>2023-08-15T06:30:19Z</time>
      </trkpt>
      <trkpt lat="42.926110" lon="-8.281475">
        <ele>363.0</ele>
        <time>2023-08-15T06:30:35Z</time>
      </trkpt>
      <trkpt lat="42.926034" lon="-8.281703">
        <ele>363.0</ele>
        <time>2023-08-15T06:30:51Z</time>
      </trkpt>
      <trkpt lat="42.925971" lon="-8.281935">
        <ele>363.0</ele>
        <time>2023-08-15T06:31:02Z</time>
      </trkpt>
      <trkpt lat="42.925879" lon="-8.282155">
        <ele>363.0</ele>
        <time>2023-08-15T06:31:17Z</time>
      </trkpt>
      <trkpt lat="42.925768" lon="-8.282356">
        <ele>365.8</ele>
        <time>2023-08-15T06:31:29Z</time>
      </trkpt>
      <trkpt lat="42.925667" lon="-8.282559">
        <ele>365.8</ele>
        <time>2023-08-15T06:31:43Z</time>
      </trkpt>
      <trkpt lat="42.925636" lon="-8.282802">
        <ele>366.5</ele>
        <time>2023-08-15T06:31:55Z</time>
      </trkpt>
      <trkpt lat="42.925580" lon="-8.283031">
        <ele>367.3</ele>
        <time>2023-08-15T06:32:12Z</time>
      </trkpt>
      <trkpt lat="42.925504" lon="-8.283263">
        <ele>367.3</ele>
        <time>2023-08-15T06:32:28Z</time>
      </trkpt>
      <trkpt lat="42.925460" lon="-8.283504">
        <ele>367.4</ele>
        <time>2023-08-15T06:32:40Z</time>
      </trkpt>
      <trkpt lat="42.925402" lon="-8.283817">
        <ele>367.4</ele>
        <time>2023-08-15T06:32:54Z</time>
      </trkpt>
      <trkpt lat="42.925431" lon="-8.283984">
        <ele>367.4</ele>
        <time>2023-08-15T06:33:08Z</time>
      </trkpt>
      <trkpt lat="42.925497" lon="-8.284217">
        <ele>367.4</ele>
        <time>2023-08-15T06:33:23Z</time>
      </trkpt>
      <trkpt lat="42.925535" lon="-8.284461">
        <ele>372.7</ele>
        <time>2023-08-15T06:33:38Z</time>
      </trkpt>
      <trkpt lat="42.925487" lon="-8.284707">
        <ele>378.0</ele>
        <time>2023-08-15T06:33:51Z</time>
      </trkpt>
      <trkpt lat="42.925405" lon="-8.284926">
        <ele>378.0</ele>
        <time>2023-08-15T06:34:06Z</time>
      </trkpt>
      <trkpt lat="42.925369" lon="-8.285179">
        <ele>378.0</ele>
        <time>2023-08-15T06:34:18Z</time>
      </trkpt>
      <trkpt lat="42.925312" lon="-8.285413">
        <ele>378.0</ele>
        <time>2023-08-15T06:34:33Z</time>
      </trkpt>
      <trkpt lat="42.925246" lon="-8.285646">
        <ele>378.0</ele>
        <time>2023-08-15T06:34:46Z</time>
      </trkpt>
      <trkpt lat="42.925201" lon="-8.285887">
        <ele>378.0</ele>
        <time>2023-08-15T06:35:00Z</time>
      </trkpt>
      <trkpt lat="42.925188" lon="-8.286136">
        <ele>381.0</ele>
        <time>2023-08-15T06:35:13Z</time>
      </trkpt>
      <trkpt lat="42.925174" lon="-8.286391">
        <ele>382.7</ele>
        <time>2023-08-15T06:35:28Z</time>
      </trkpt>
      <trkpt lat="42.925170" lon="-8.286640">
        <ele>384.8</ele>
        <time>2023-08-15T06:35:41Z</time>
      </trkpt>
      <trkpt lat="42.925186" lon="-8.286888">
        <ele>386.7</ele>
        <time>2023-08-15T06:35:55Z</time>
      </trkpt>
      <trkpt lat="42.925156" lon="-8.287135">
        <ele>388.0</ele>
        <time>2023-08-15T06:36:08Z</time>
      </trkpt>
      <trkpt lat="42.925112" lon="-8.287382">
        <ele>386.0</ele>
        <time>2023-08-15T06:36:29Z</time>
      </trkpt>
      <trkpt lat="42.925062" lon="-8.287615">
        <ele>387.0</ele>
        <time>2023-08-15T06:36:38Z</time>
      </trkpt>
      <trkpt lat="42.925025" lon="-8.287848">
        <ele>381.8</ele>
        <time>2023-08-15T06:37:05Z</time>
      </trkpt>
      <trkpt lat="42.924939" lon="-8.288065">
        <ele>378.8</ele>
        <time>2023-08-15T06:37:20Z</time>
      </trkpt>
      <trkpt lat="42.924884" lon="-8.288304">
        <ele>372.9</ele>
        <time>2023-08-15T06:37:37Z</time>
      </trkpt>
      <trkpt lat="42.924812" lon="-8.288545">
        <ele>375.7</ele>
        <time>2023-08-15T06:37:50Z</time>
      </trkpt>
      <trkpt lat="42.924696" lon="-8.288760">
        <ele>378.8</ele>
        <time>2023-08-15T06:38:05Z</time>
      </trkpt>
      <trkpt lat="42.924587" lon="-8.288958">
        <ele>374.8</ele>
        <time>2023-08-15T06:38:17Z</time>
      </trkpt>
      <trkpt lat="42.924501" lon="-8.289183">
        <ele>377.4</ele>
        <time>2023-08-15T06:38:29Z</time>
      </trkpt>
      <trkpt lat="42.924455" lon="-8.289429">
        <ele>385.4</ele>
        <time>2023-08-15T06:38:39Z</time>
      </trkpt>
      <trkpt lat="42.924388" lon="-8.289671">
        <ele>385.8</ele>
        <time>2023-08-15T06:38:52Z</time>
      </trkpt>
      <trkpt lat="42.924335" lon="-8.289904">
        <ele>386.8</ele>
        <time>2023-08-15T06:39:08Z</time>
      </trkpt>
      <trkpt lat="42.924193" lon="-8.290223">
        <ele>387.8</ele>
        <time>2023-08-15T06:39:23Z</time>
      </trkpt>
      <trkpt lat="42.924122" lon="-8.290301">
        <ele>388.8</ele>
        <time>2023-08-15T06:39:37Z</time>
      </trkpt>
      <trkpt lat="42.923987" lon="-8.290462">
        <ele>388.8</ele>
        <time>2023-08-15T06:39:52Z</time>
      </trkpt>
      <trkpt lat="42.923863" lon="-8.290639">
        <ele>388.9</ele>
        <time>2023-08-15T06:40:09Z</time>
      </trkpt>
      <trkpt lat="42.923737" lon="-8.290821">
        <ele>388.8</ele>
        <time>2023-08-15T06:40:24Z</time>
      </trkpt>
      <trkpt lat="42.923609" lon="-8.290997">
        <ele>388.8</ele>
        <time>2023-08-15T06:40:38Z</time>
      </trkpt>
      <trkpt lat="42.923460" lon="-8.291135">
        <ele>388.8</ele>
        <time>2023-08-15T06:40:52Z</time>
      </trkpt>
      <trkpt lat="42.923350" lon="-8.291319">
        <ele>388.8</ele>
        <time>2023-08-15T06:41:08Z</time>
      </trkpt>
      <trkpt lat="42.923241" lon="-8.291530">
        <ele>388.5</ele>
        <time>2023-08-15T06:41:26Z</time>
      </trkpt>
      <trkpt lat="42.923202" lon="-8.291772">
        <ele>376.9</ele>
        <time>2023-08-15T06:41:41Z</time>
      </trkpt>
      <trkpt lat="42.923108" lon="-8.291992">
        <ele>376.8</ele>
        <time>2023-08-15T06:41:56Z</time>
      </trkpt>
      <trkpt lat="42.923008" lon="-8.292198">
        <ele>375.8</ele>
        <time>2023-08-15T06:42:13Z</time>
      </trkpt>
      <trkpt lat="42.922939" lon="-8.292426">
        <ele>375.8</ele>
        <time>2023-08-15T06:42:28Z</time>
      </trkpt>
      <trkpt lat="42.922892" lon="-8.292665">
        <ele>383.6</ele>
        <time>2023-08-15T06:43:22Z</time>
      </trkpt>
      <trkpt lat="42.922784" lon="-8.292874">
        <ele>381.8</ele>
        <time>2023-08-15T06:43:36Z</time>
      </trkpt>
      <trkpt lat="42.922697" lon="-8.293093">
        <ele>380.8</ele>
        <time>2023-08-15T06:43:52Z</time>
      </trkpt>
      <trkpt lat="42.922594" lon="-8.293319">
        <ele>383.8</ele>
        <time>2023-08-15T06:44:07Z</time>
      </trkpt>
      <trkpt lat="42.922527" lon="-8.293550">
        <ele>398.5</ele>
        <time>2023-08-15T06:44:21Z</time>
      </trkpt>
      <trkpt lat="42.922444" lon="-8.293773">
        <ele>398.5</ele>
        <time>2023-08-15T06:44:35Z</time>
      </trkpt>
      <trkpt lat="42.922352" lon="-8.293993">
        <ele>400.0</ele>
        <time>2023-08-15T06:44:49Z</time>
      </trkpt>
      <trkpt lat="42.922234" lon="-8.294189">
        <ele>400.1</ele>
        <time>2023-08-15T06:45:02Z</time>
      </trkpt>
      <trkpt lat="42.922164" lon="-8.294430">
        <ele>400.1</ele>
        <time>2023-08-15T06:45:15Z</time>
      </trkpt>
      <trkpt lat="42.922063" lon="-8.294634">
        <ele>395.1</ele>
        <time>2023-08-15T06:45:31Z</time>
      </trkpt>
      <trkpt lat="42.921930" lon="-8.294810">
        <ele>393.8</ele>
        <time>2023-08-15T06:45:45Z</time>
      </trkpt>
      <trkpt lat="42.921781" lon="-8.294949">
        <ele>393.1</ele>
        <time>2023-08-15T06:46:00Z</time>
      </trkpt>
      <trkpt lat="42.921668" lon="-8.295143">
        <ele>391.8</ele>
        <time>2023-08-15T06:46:14Z</time>
      </trkpt>
      <trkpt lat="42.921587" lon="-8.295375">
        <ele>388.9</ele>
        <time>2023-08-15T06:46:29Z</time>
      </trkpt>
      <trkpt lat="42.921514" lon="-8.295611">
        <ele>390.8</ele>
        <time>2023-08-15T06:46:43Z</time>
      </trkpt>
      <trkpt lat="42.921434" lon="-8.295835">
        <ele>391.8</ele>
        <time>2023-08-15T06:46:55Z</time>
      </trkpt>
      <trkpt lat="42.921321" lon="-8.296047">
        <ele>391.8</ele>
        <time>2023-08-15T06:47:10Z</time>
      </trkpt>
      <trkpt lat="42.921193" lon="-8.296240">
        <ele>390.1</ele>
        <time>2023-08-15T06:47:27Z</time>
      </trkpt>
      <trkpt lat="42.921041" lon="-8.296401">
        <ele>386.1</ele>
        <time>2023-08-15T06:47:42Z</time>
      </trkpt>
      <trkpt lat="42.920901" lon="-8.296556">
        <ele>384.1</ele>
        <time>2023-08-15T06:47:58Z</time>
      </trkpt>
      <trkpt lat="42.920758" lon="-8.296728">
        <ele>384.7</ele>
        <time>2023-08-15T06:48:14Z</time>
      </trkpt>
      <trkpt lat="42.920623" lon="-8.296905">
        <ele>382.8</ele>
        <time>2023-08-15T06:48:29Z</time>
      </trkpt>
      <trkpt lat="42.920513" lon="-8.297112">
        <ele>380.8</ele>
        <time>2023-08-15T06:48:44Z</time>
      </trkpt>
      <trkpt lat="42.920413" lon="-8.297333">
        <ele>383.8</ele>
        <time>2023-08-15T06:49:01Z</time>
      </trkpt>
      <trkpt lat="42.920363" lon="-8.297569">
        <ele>383.0</ele>
        <time>2023-08-15T06:49:15Z</time>
      </trkpt>
      <trkpt lat="42.920351" lon="-8.297819">
        <ele>380.1</ele>
        <time>2023-08-15T06:49:34Z</time>
      </trkpt>
      <trkpt lat="42.920284" lon="-8.298052">
        <ele>379.8</ele>
        <time>2023-08-15T06:49:49Z</time>
      </trkpt>
      <trkpt lat="42.920228" lon="-8.298297">
        <ele>379.8</ele>
        <time>2023-08-15T06:50:06Z</time>
      </trkpt>
      <trkpt lat="42.920259" lon="-8.298539">
        <ele>374.2</ele>
        <time>2023-08-15T06:50:23Z</time>
      </trkpt>
      <trkpt lat="42.920242" lon="-8.298787">
        <ele>372.8</ele>
        <time>2023-08-15T06:50:39Z</time>
      </trkpt>
      <trkpt lat="42.920168" lon="-8.299019">
        <ele>371.8</ele>
        <time>2023-08-15T06:50:53Z</time>
      </trkpt>
      <trkpt lat="42.920011" lon="-8.299142">
        <ele>369.7</ele>
        <time>2023-08-15T06:51:08Z</time>
      </trkpt>
      <trkpt lat="42.919857" lon="-8.299277">
        <ele>370.4</ele>
        <time>2023-08-15T06:51:23Z</time>
      </trkpt>
      <trkpt lat="42.919709" lon="-8.299436">
        <ele>369.8</ele>
        <time>2023-08-15T06:51:35Z</time>
      </trkpt>
      <trkpt lat="42.919553" lon="-8.299565">
        <ele>372.7</ele>
        <time>2023-08-15T06:51:56Z</time>
      </trkpt>
      <trkpt lat="42.919438" lon="-8.299773">
        <ele>374.8</ele>
        <time>2023-08-15T06:52:22Z</time>
      </trkpt>
      <trkpt lat="42.919321" lon="-8.299960">
        <ele>373.8</ele>
        <time>2023-08-15T06:52:37Z</time>
      </trkpt>
      <trkpt lat="42.919247" lon="-8.300200">
        <ele>371.9</ele>
        <time>2023-08-15T06:52:54Z</time>
      </trkpt>
      <trkpt lat="42.919194" lon="-8.300441">
        <ele>371.5</ele>
        <time>2023-08-15T06:53:07Z</time>
      </trkpt>
      <trkpt lat="42.919133" lon="-8.300677">
        <ele>371.8</ele>
        <time>2023-08-15T06:53:21Z</time>
      </trkpt>
      <trkpt lat="42.919010" lon="-8.300867">
        <ele>374.5</ele>
        <time>2023-08-15T06:53:36Z</time>
      </trkpt>
      <trkpt lat="42.918838" lon="-8.301116">
        <ele>378.1</ele>
        <time>2023-08-15T06:53:50Z</time>
      </trkpt>
      <trkpt lat="42.918961" lon="-8.301319">
        <ele>378.1</ele>
        <time>2023-08-15T06:54:12Z</time>
      </trkpt>
      <trkpt lat="42.919004" lon="-8.301529">
        <ele>378.1</ele>
        <time>2023-08-15T06:54:25Z</time>
      </trkpt>
      <trkpt lat="42.919034" lon="-8.301779">
        <ele>378.1</ele>
        <time>2023-08-15T06:54:41Z</time>
      </trkpt>
      <trkpt lat="42.919081" lon="-8.302024">
        <ele>378.1</ele>
        <time>2023-08-15T06:54:56Z</time>
      </trkpt>
      <trkpt lat="42.919135" lon="-8.302270">
        <ele>372.5</ele>
        <time>2023-08-15T06:55:12Z</time>
      </trkpt>
      <trkpt lat="42.919182" lon="-8.302511">
        <ele>374.5</ele>
        <time>2023-08-15T06:55:24Z</time>
      </trkpt>
      <trkpt lat="42.919210" lon="-8.302755">
        <ele>376.7</ele>
        <time>2023-08-15T06:55:37Z</time>
      </trkpt>
      <trkpt lat="42.919230" lon="-8.303009">
        <ele>375.8</ele>
        <time>2023-08-15T06:55:52Z</time>
      </trkpt>
      <trkpt lat="42.919283" lon="-8.303251">
        <ele>381.4</ele>
        <time>2023-08-15T06:56:06Z</time>
      </trkpt>
      <trkpt lat="42.919330" lon="-8.303490">
        <ele>381.9</ele>
        <time>2023-08-15T06:56:21Z</time>
      </trkpt>
      <trkpt lat="42.919310" lon="-8.303749">
        <ele>382.0</ele>
        <time>2023-08-15T06:56:36Z</time>
      </trkpt>
      <trkpt lat="42.919237" lon="-8.303995">
        <ele>381.9</ele>
        <time>2023-08-15T06:56:54Z</time>
      </trkpt>
      <trkpt lat="42.919200" lon="-8.304256">
        <ele>381.9</ele>
        <time>2023-08-15T06:57:09Z</time>
      </trkpt>
      <trkpt lat="42.919159" lon="-8.304507">
        <ele>381.9</ele>
        <time>2023-08-15T06:57:22Z</time>
      </trkpt>
      <trkpt lat="42.919123" lon="-8.304754">
        <ele>381.9</ele>
        <time>2023-08-15T06:57:38Z</time>
      </trkpt>
      <trkpt lat="42.919072" lon="-8.305146">
        <ele>381.9</ele>
        <time>2023-08-15T06:57:52Z</time>
      </trkpt>
      <trkpt lat="42.918966" lon="-8.305187">
        <ele>377.6</ele>
        <time>2023-08-15T06:58:08Z</time>
      </trkpt>
      <trkpt lat="42.918800" lon="-8.305282">
        <ele>377.6</ele>
        <time>2023-08-15T06:58:25Z</time>
      </trkpt>
      <trkpt lat="42.918846" lon="-8.305594">
        <ele>376.7</ele>
        <time>2023-08-15T06:58:39Z</time>
      </trkpt>
      <trkpt lat="42.918982" lon="-8.305757">
        <ele>376.3</ele>
        <time>2023-08-15T06:58:55Z</time>
      </trkpt>
      <trkpt lat="42.918978" lon="-8.306017">
        <ele>376.3</ele>
        <time>2023-08-15T06:59:10Z</time>
      </trkpt>
      <trkpt lat="42.918984" lon="-8.306271">
        <ele>376.3</ele>
        <time>2023-08-15T06:59:25Z</time>
      </trkpt>
      <trkpt lat="42.919029" lon="-8.306528">
        <ele>376.3</ele>
        <time>2023-08-15T06:59:40Z</time>
      </trkpt>
      <trkpt lat="42.919022" lon="-8.306867">
        <ele>376.3</ele>
        <time>2023-08-15T06:59:55Z</time>
      </trkpt>
      <trkpt lat="42.918948" lon="-8.306987">
        <ele>367.8</ele>
        <time>2023-08-15T07:00:27Z</time>
      </trkpt>
      <trkpt lat="42.918841" lon="-8.307203">
        <ele>362.8</ele>
        <time>2023-08-15T07:00:46Z</time>
      </trkpt>
      <trkpt lat="42.918708" lon="-8.307374">
        <ele>362.9</ele>
        <time>2023-08-15T07:01:02Z</time>
      </trkpt>
      <trkpt lat="42.918581" lon="-8.307569">
        <ele>360.8</ele>
        <time>2023-08-15T07:01:17Z</time>
      </trkpt>
      <trkpt lat="42.918474" lon="-8.307788">
        <ele>359.8</ele>
        <time>2023-08-15T07:01:33Z</time>
      </trkpt>
      <trkpt lat="42.918445" lon="-8.308038">
        <ele>356.9</ele>
        <time>2023-08-15T07:01:47Z</time>
      </trkpt>
      <trkpt lat="42.918423" lon="-8.308290">
        <ele>353.8</ele>
        <time>2023-08-15T07:02:04Z</time>
      </trkpt>
      <trkpt lat="42.918420" lon="-8.308581">
        <ele>357.5</ele>
        <time>2023-08-15T07:02:16Z</time>
      </trkpt>
      <trkpt lat="42.918500" lon="-8.308800">
        <ele>365.7</ele>
        <time>2023-08-15T07:02:25Z</time>
      </trkpt>
      <trkpt lat="42.918366" lon="-8.309119">
        <ele>367.8</ele>
        <time>2023-08-15T07:02:39Z</time>
      </trkpt>
      <trkpt lat="42.918361" lon="-8.309287">
        <ele>368.8</ele>
        <time>2023-08-15T07:02:53Z</time>
      </trkpt>
      <trkpt lat="42.918358" lon="-8.309530">
        <ele>367.9</ele>
        <time>2023-08-15T07:03:10Z</time>
      </trkpt>
      <trkpt lat="42.918369" lon="-8.309791">
        <ele>366.1</ele>
        <time>2023-08-15T07:03:28Z</time>
      </trkpt>
      <trkpt lat="42.918391" lon="-8.310046">
        <ele>368.5</ele>
        <time>2023-08-15T07:03:42Z</time>
      </trkpt>
      <trkpt lat="42.918379" lon="-8.310299">
        <ele>370.8</ele>
        <time>2023-08-15T07:03:57Z</time>
      </trkpt>
      <trkpt lat="42.918330" lon="-8.310677">
        <ele>372.8</ele>
        <time>2023-08-15T07:04:13Z</time>
      </trkpt>
      <trkpt lat="42.918206" lon="-8.310645">
        <ele>372.9</ele>
        <time>2023-08-15T07:04:30Z</time>
      </trkpt>
      <trkpt lat="42.918023" lon="-8.310593">
        <ele>370.9</ele>
        <time>2023-08-15T07:04:44Z</time>
      </trkpt>
      <trkpt lat="42.917840" lon="-8.310549">
        <ele>369.8</ele>
        <time>2023-08-15T07:04:58Z</time>
      </trkpt>
      <trkpt lat="42.917533" lon="-8.310465">
        <ele>371.0</ele>
        <time>2023-08-15T07:05:12Z</time>
      </trkpt>
      <trkpt lat="42.917495" lon="-8.310606">
        <ele>370.8</ele>
        <time>2023-08-15T07:05:31Z</time>
      </trkpt>
      <trkpt lat="42.917448" lon="-8.310853">
        <ele>368.8</ele>
        <time>2023-08-15T07:05:47Z</time>
      </trkpt>
      <trkpt lat="42.917456" lon="-8.311105">
        <ele>366.8</ele>
        <time>2023-08-15T07:06:05Z</time>
      </trkpt>
      <trkpt lat="42.917420" lon="-8.311357">
        <ele>367.8</ele>
        <time>2023-08-15T07:06:17Z</time>
      </trkpt>
      <trkpt lat="42.917386" lon="-8.311610">
        <ele>369.8</ele>
        <time>2023-08-15T07:06:29Z</time>
      </trkpt>
      <trkpt lat="42.917354" lon="-8.311864">
        <ele>372.8</ele>
        <time>2023-08-15T07:06:43Z</time>
      </trkpt>
      <trkpt lat="42.917325" lon="-8.312108">
        <ele>373.5</ele>
        <time>2023-08-15T07:06:57Z</time>
      </trkpt>
      <trkpt lat="42.917281" lon="-8.312355">
        <ele>376.0</ele>
        <time>2023-08-15T07:07:11Z</time>
      </trkpt>
      <trkpt lat="42.917254" lon="-8.312599">
        <ele>376.1</ele>
        <time>2023-08-15T07:07:26Z</time>
      </trkpt>
      <trkpt lat="42.917236" lon="-8.312858">
        <ele>376.8</ele>
        <time>2023-08-15T07:07:40Z</time>
      </trkpt>
      <trkpt lat="42.917231" lon="-8.313106">
        <ele>376.8</ele>
        <time>2023-08-15T07:07:54Z</time>
      </trkpt>
      <trkpt lat="42.917215" lon="-8.313360">
        <ele>377.8</ele>
        <time>2023-08-15T07:08:08Z</time>
      </trkpt>
      <trkpt lat="42.917200" lon="-8.313622">
        <ele>377.7</ele>
        <time>2023-08-15T07:08:24Z</time>
      </trkpt>
      <trkpt lat="42.917163" lon="-8.313865">
        <ele>379.7</ele>
        <time>2023-08-15T07:08:43Z</time>
      </trkpt>
      <trkpt lat="42.917132" lon="-8.314108">
        <ele>378.9</ele>
        <time>2023-08-15T07:08:59Z</time>
      </trkpt>
      <trkpt lat="42.917109" lon="-8.314362">
        <ele>378.8</ele>
        <time>2023-08-15T07:09:13Z</time>
      </trkpt>
      <trkpt lat="42.917079" lon="-8.314614">
        <ele>379.8</ele>
        <time>2023-08-15T07:09:28Z</time>
      </trkpt>
      <trkpt lat="42.917048" lon="-8.314866">
        <ele>378.8</ele>
        <time>2023-08-15T07:09:45Z</time>
      </trkpt>
      <trkpt lat="42.917049" lon="-8.315113">
        <ele>379.9</ele>
        <time>2023-08-15T07:10:00Z</time>
      </trkpt>
      <trkpt lat="42.917000" lon="-8.315404">
        <ele>377.8</ele>
        <time>2023-08-15T07:10:15Z</time>
      </trkpt>
      <trkpt lat="42.916813" lon="-8.315546">
        <ele>379.8</ele>
        <time>2023-08-15T07:10:31Z</time>
      </trkpt>
      <trkpt lat="42.916785" lon="-8.315741">
        <ele>379.7</ele>
        <time>2023-08-15T07:10:45Z</time>
      </trkpt>
      <trkpt lat="42.916750" lon="-8.315997">
        <ele>382.8</ele>
        <time>2023-08-15T07:11:00Z</time>
      </trkpt>
      <trkpt lat="42.916711" lon="-8.316243">
        <ele>382.8</ele>
        <time>2023-08-15T07:11:14Z</time>
      </trkpt>
      <trkpt lat="42.916663" lon="-8.316490">
        <ele>381.8</ele>
        <time>2023-08-15T07:11:28Z</time>
      </trkpt>
      <trkpt lat="42.916609" lon="-8.316734">
        <ele>383.8</ele>
        <time>2023-08-15T07:11:43Z</time>
      </trkpt>
      <trkpt lat="42.916584" lon="-8.316969">
        <ele>388.8</ele>
        <time>2023-08-15T07:36:53Z</time>
      </trkpt>
      <trkpt lat="42.916537" lon="-8.317212">
        <ele>388.8</ele>
        <time>2023-08-15T07:37:10Z</time>
      </trkpt>
      <trkpt lat="42.916505" lon="-8.317462">
        <ele>389.8</ele>
        <time>2023-08-15T07:37:26Z</time>
      </trkpt>
      <trkpt lat="42.916443" lon="-8.317693">
        <ele>390.8</ele>
        <time>2023-08-15T07:37:42Z</time>
      </trkpt>
      <trkpt lat="42.916421" lon="-8.317955">
        <ele>390.7</ele>
        <time>2023-08-15T07:38:19Z</time>
      </trkpt>
      <trkpt lat="42.916373" lon="-8.318207">
        <ele>390.8</ele>
        <time>2023-08-15T07:38:32Z</time>
      </trkpt>
      <trkpt lat="42.916326" lon="-8.318448">
        <ele>392.8</ele>
        <time>2023-08-15T07:38:45Z</time>
      </trkpt>
      <trkpt lat="42.916262" lon="-8.318693">
        <ele>392.7</ele>
        <time>2023-08-15T07:38:58Z</time>
      </trkpt>
      <trkpt lat="42.916175" lon="-8.318911">
        <ele>392.7</ele>
        <time>2023-08-15T07:39:11Z</time>
      </trkpt>
      <trkpt lat="42.916079" lon="-8.319138">
        <ele>398.8</ele>
        <time>2023-08-15T07:39:24Z</time>
      </trkpt>
      <trkpt lat="42.915984" lon="-8.319350">
        <ele>400.0</ele>
        <time>2023-08-15T07:39:39Z</time>
      </trkpt>
      <trkpt lat="42.915903" lon="-8.319578">
        <ele>397.4</ele>
        <time>2023-08-15T07:39:54Z</time>
      </trkpt>
      <trkpt lat="42.915813" lon="-8.319800">
        <ele>397.4</ele>
        <time>2023-08-15T07:40:09Z</time>
      </trkpt>
      <trkpt lat="42.915737" lon="-8.320031">
        <ele>397.4</ele>
        <time>2023-08-15T07:40:25Z</time>
      </trkpt>
      <trkpt lat="42.915664" lon="-8.320264">
        <ele>397.4</ele>
        <time>2023-08-15T07:40:38Z</time>
      </trkpt>
      <trkpt lat="42.915588" lon="-8.320503">
        <ele>400.0</ele>
        <time>2023-08-15T07:40:53Z</time>
      </trkpt>
      <trkpt lat="42.915539" lon="-8.320740">
        <ele>400.0</ele>
        <time>2023-08-15T07:41:07Z</time>
      </trkpt>
      <trkpt lat="42.915477" lon="-8.320978">
        <ele>400.0</ele>
        <time>2023-08-15T07:41:21Z</time>
      </trkpt>
      <trkpt lat="42.915418" lon="-8.321224">
        <ele>401.9</ele>
        <time>2023-08-15T07:41:36Z</time>
      </trkpt>
      <trkpt lat="42.915368" lon="-8.321483">
        <ele>401.9</ele>
        <time>2023-08-15T07:41:50Z</time>
      </trkpt>
      <trkpt lat="42.915328" lon="-8.321740">
        <ele>400.0</ele>
        <time>2023-08-15T07:42:04Z</time>
      </trkpt>
      <trkpt lat="42.915312" lon="-8.321989">
        <ele>401.9</ele>
        <time>2023-08-15T07:42:18Z</time>
      </trkpt>
      <trkpt lat="42.915283" lon="-8.322256">
        <ele>401.9</ele>
        <time>2023-08-15T07:42:32Z</time>
      </trkpt>
      <trkpt lat="42.915277" lon="-8.322502">
        <ele>405.8</ele>
        <time>2023-08-15T07:42:46Z</time>
      </trkpt>
      <trkpt lat="42.915288" lon="-8.322756">
        <ele>405.8</ele>
        <time>2023-08-15T07:42:59Z</time>
      </trkpt>
      <trkpt lat="42.915293" lon="-8.323005">
        <ele>405.9</ele>
        <time>2023-08-15T07:43:13Z</time>
      </trkpt>
      <trkpt lat="42.915312" lon="-8.323255">
        <ele>405.9</ele>
        <time>2023-08-15T07:43:27Z</time>
      </trkpt>
      <trkpt lat="42.915337" lon="-8.323504">
        <ele>405.9</ele>
        <time>2023-08-15T07:43:39Z</time>
      </trkpt>
      <trkpt lat="42.915493" lon="-8.323653">
        <ele>405.9</ele>
        <time>2023-08-15T07:43:55Z</time>
      </trkpt>
      <trkpt lat="42.915672" lon="-8.323615">
        <ele>406.6</ele>
        <time>2023-08-15T07:44:06Z</time>
      </trkpt>
      <trkpt lat="42.915843" lon="-8.323503">
        <ele>406.6</ele>
        <time>2023-08-15T07:44:23Z</time>
      </trkpt>
      <trkpt lat="42.916023" lon="-8.323454">
        <ele>406.6</ele>
        <time>2023-08-15T07:44:36Z</time>
      </trkpt>
      <trkpt lat="42.916213" lon="-8.323405">
        <ele>409.2</ele>
        <time>2023-08-15T07:44:48Z</time>
      </trkpt>
      <trkpt lat="42.916391" lon="-8.323433">
        <ele>409.2</ele>
        <time>2023-08-15T07:45:00Z</time>
      </trkpt>
      <trkpt lat="42.916558" lon="-8.323425">
        <ele>409.2</ele>
        <time>2023-08-15T07:45:12Z</time>
      </trkpt>
      <trkpt lat="42.916510" lon="-8.323702">
        <ele>409.2</ele>
        <time>2023-08-15T07:45:27Z</time>
      </trkpt>
      <trkpt lat="42.916484" lon="-8.323951">
        <ele>409.2</ele>
        <time>2023-08-15T07:45:41Z</time>
      </trkpt>
      <trkpt lat="42.916446" lon="-8.324200">
        <ele>409.2</ele>
        <time>2023-08-15T07:46:00Z</time>
      </trkpt>
      <trkpt lat="42.916411" lon="-8.324458">
        <ele>409.2</ele>
        <time>2023-08-15T07:46:13Z</time>
      </trkpt>
      <trkpt lat="42.916379" lon="-8.324710">
        <ele>409.2</ele>
        <time>2023-08-15T07:46:24Z</time>
      </trkpt>
      <trkpt lat="42.916378" lon="-8.324961">
        <ele>410.1</ele>
        <time>2023-08-15T07:46:35Z</time>
      </trkpt>
      <trkpt lat="42.916388" lon="-8.325215">
        <ele>407.9</ele>
        <time>2023-08-15T07:46:50Z</time>
      </trkpt>
      <trkpt lat="42.916371" lon="-8.325478">
        <ele>409.8</ele>
        <time>2023-08-15T07:47:03Z</time>
      </trkpt>
      <trkpt lat="42.916393" lon="-8.325731">
        <ele>407.8</ele>
        <time>2023-08-15T07:47:17Z</time>
      </trkpt>
      <trkpt lat="42.916454" lon="-8.325965">
        <ele>402.8</ele>
        <time>2023-08-15T07:47:33Z</time>
      </trkpt>
      <trkpt lat="42.916455" lon="-8.326212">
        <ele>409.0</ele>
        <time>2023-08-15T07:49:41Z</time>
      </trkpt>
      <trkpt lat="42.916497" lon="-8.326464">
        <ele>406.9</ele>
        <time>2023-08-15T07:49:55Z</time>
      </trkpt>
      <trkpt lat="42.916554" lon="-8.326698">
        <ele>407.8</ele>
        <time>2023-08-15T07:50:08Z</time>
      </trkpt>
      <trkpt lat="42.916568" lon="-8.326944">
        <ele>404.2</ele>
        <time>2023-08-15T07:50:22Z</time>
      </trkpt>
      <trkpt lat="42.916627" lon="-8.327178">
        <ele>402.9</ele>
        <time>2023-08-15T07:50:34Z</time>
      </trkpt>
      <trkpt lat="42.916680" lon="-8.327428">
        <ele>400.9</ele>
        <time>2023-08-15T07:50:48Z</time>
      </trkpt>
      <trkpt lat="42.916728" lon="-8.327672">
        <ele>396.9</ele>
        <time>2023-08-15T07:51:02Z</time>
      </trkpt>
      <trkpt lat="42.916833" lon="-8.327892">
        <ele>394.8</ele>
        <time>2023-08-15T07:51:14Z</time>
      </trkpt>
      <trkpt lat="42.916900" lon="-8.328126">
        <ele>393.9</ele>
        <time>2023-08-15T07:51:27Z</time>
      </trkpt>
      <trkpt lat="42.916968" lon="-8.328373">
        <ele>392.1</ele>
        <time>2023-08-15T07:51:40Z</time>
      </trkpt>
      <trkpt lat="42.917010" lon="-8.328613">
        <ele>387.9</ele>
        <time>2023-08-15T07:51:53Z</time>
      </trkpt>
      <trkpt lat="42.917061" lon="-8.328864">
        <ele>387.9</ele>
        <time>2023-08-15T07:52:06Z</time>
      </trkpt>
      <trkpt lat="42.917167" lon="-8.329085">
        <ele>385.9</ele>
        <time>2023-08-15T07:52:19Z</time>
      </trkpt>
      <trkpt lat="42.917199" lon="-8.329342">
        <ele>381.8</ele>
        <time>2023-08-15T07:52:33Z</time>
      </trkpt>
      <trkpt lat="42.917253" lon="-8.329577">
        <ele>378.8</ele>
        <time>2023-08-15T07:52:50Z</time>
      </trkpt>
      <trkpt lat="42.917296" lon="-8.329824">
        <ele>375.8</ele>
        <time>2023-08-15T07:53:03Z</time>
      </trkpt>
      <trkpt lat="42.917352" lon="-8.330077">
        <ele>371.1</ele>
        <time>2023-08-15T07:53:17Z</time>
      </trkpt>
      <trkpt lat="42.917413" lon="-8.330324">
        <ele>371.5</ele>
        <time>2023-08-15T07:53:30Z</time>
      </trkpt>
      <trkpt lat="42.917398" lon="-8.330569">
        <ele>373.8</ele>
        <time>2023-08-15T07:54:15Z</time>
      </trkpt>
      <trkpt lat="42.917220" lon="-8.330621">
        <ele>371.0</ele>
        <time>2023-08-15T07:54:49Z</time>
      </trkpt>
      <trkpt lat="42.917062" lon="-8.330763">
        <ele>372.5</ele>
        <time>2023-08-15T07:55:12Z</time>
      </trkpt>
      <trkpt lat="42.916895" lon="-8.330874">
        <ele>376.8</ele>
        <time>2023-08-15T07:55:25Z</time>
      </trkpt>
      <trkpt lat="42.916780" lon="-8.331045">
        <ele>379.8</ele>
        <time>2023-08-15T07:55:39Z</time>
      </trkpt>
      <trkpt lat="42.916789" lon="-8.331386">
        <ele>375.2</ele>
        <time>2023-08-15T07:55:54Z</time>
      </trkpt>
      <trkpt lat="42.916851" lon="-8.331657">
        <ele>374.5</ele>
        <time>2023-08-15T07:56:08Z</time>
      </trkpt>
      <trkpt lat="42.916940" lon="-8.331860">
        <ele>374.4</ele>
        <time>2023-08-15T07:56:22Z</time>
      </trkpt>
      <trkpt lat="42.917061" lon="-8.332062">
        <ele>374.4</ele>
        <time>2023-08-15T07:56:35Z</time>
      </trkpt>
      <trkpt lat="42.917173" lon="-8.332262">
        <ele>374.4</ele>
        <time>2023-08-15T07:56:48Z</time>
      </trkpt>
      <trkpt lat="42.917274" lon="-8.332473">
        <ele>370.5</ele>
        <time>2023-08-15T07:57:09Z</time>
      </trkpt>
      <trkpt lat="42.917392" lon="-8.332678">
        <ele>370.5</ele>
        <time>2023-08-15T07:57:23Z</time>
      </trkpt>
      <trkpt lat="42.917510" lon="-8.332882">
        <ele>372.1</ele>
        <time>2023-08-15T07:57:36Z</time>
      </trkpt>
      <trkpt lat="42.917609" lon="-8.333098">
        <ele>370.6</ele>
        <time>2023-08-15T07:57:49Z</time>
      </trkpt>
      <trkpt lat="42.917702" lon="-8.333320">
        <ele>365.8</ele>
        <time>2023-08-15T07:58:06Z</time>
      </trkpt>
      <trkpt lat="42.917848" lon="-8.333518">
        <ele>365.3</ele>
        <time>2023-08-15T07:58:20Z</time>
      </trkpt>
      <trkpt lat="42.917937" lon="-8.333727">
        <ele>365.3</ele>
        <time>2023-08-15T07:58:33Z</time>
      </trkpt>
      <trkpt lat="42.918025" lon="-8.333927">
        <ele>365.3</ele>
        <time>2023-08-15T07:58:46Z</time>
      </trkpt>
      <trkpt lat="42.918105" lon="-8.334161">
        <ele>363.9</ele>
        <time>2023-08-15T07:59:00Z</time>
      </trkpt>
      <trkpt lat="42.918166" lon="-8.334405">
        <ele>363.9</ele>
        <time>2023-08-15T07:59:15Z</time>
      </trkpt>
      <trkpt lat="42.918179" lon="-8.334649">
        <ele>364.1</ele>
        <time>2023-08-15T08:00:01Z</time>
      </trkpt>
      <trkpt lat="42.918204" lon="-8.334900">
        <ele>363.2</ele>
        <time>2023-08-15T08:00:34Z</time>
      </trkpt>
      <trkpt lat="42.918217" lon="-8.335182">
        <ele>365.8</ele>
        <time>2023-08-15T08:00:50Z</time>
      </trkpt>
      <trkpt lat="42.918249" lon="-8.335426">
        <ele>363.8</ele>
        <time>2023-08-15T08:01:04Z</time>
      </trkpt>
      <trkpt lat="42.918292" lon="-8.335702">
        <ele>361.8</ele>
        <time>2023-08-15T08:01:17Z</time>
      </trkpt>
      <trkpt lat="42.918294" lon="-8.335911">
        <ele>360.9</ele>
        <time>2023-08-15T08:01:29Z</time>
      </trkpt>
      <trkpt lat="42.918318" lon="-8.336155">
        <ele>357.5</ele>
        <time>2023-08-15T08:01:43Z</time>
      </trkpt>
      <trkpt lat="42.918346" lon="-8.336402">
        <ele>357.5</ele>
        <time>2023-08-15T08:01:56Z</time>
      </trkpt>
      <trkpt lat="42.918362" lon="-8.336661">
        <ele>357.5</ele>
        <time>2023-08-15T08:02:11Z</time>
      </trkpt>
      <trkpt lat="42.918402" lon="-8.336908">
        <ele>357.5</ele>
        <time>2023-08-15T08:02:24Z</time>
      </trkpt>
      <trkpt lat="42.918441" lon="-8.337151">
        <ele>357.5</ele>
        <time>2023-08-15T08:02:39Z</time>
      </trkpt>
      <trkpt lat="42.918447" lon="-8.337402">
        <ele>357.5</ele>
        <time>2023-08-15T08:02:53Z</time>
      </trkpt>
      <trkpt lat="42.918459" lon="-8.337659">
        <ele>352.1</ele>
        <time>2023-08-15T08:03:07Z</time>
      </trkpt>
      <trkpt lat="42.918496" lon="-8.337901">
        <ele>352.1</ele>
        <time>2023-08-15T08:03:21Z</time>
      </trkpt>
      <trkpt lat="42.918507" lon="-8.338150">
        <ele>351.5</ele>
        <time>2023-08-15T08:03:35Z</time>
      </trkpt>
      <trkpt lat="42.918516" lon="-8.338403">
        <ele>348.8</ele>
        <time>2023-08-15T08:03:49Z</time>
      </trkpt>
      <trkpt lat="42.918495" lon="-8.338652">
        <ele>352.1</ele>
        <time>2023-08-15T08:04:02Z</time>
      </trkpt>
      <trkpt lat="42.918437" lon="-8.338888">
        <ele>352.1</ele>
        <time>2023-08-15T08:04:16Z</time>
      </trkpt>
      <trkpt lat="42.918358" lon="-8.339110">
        <ele>352.6</ele>
        <time>2023-08-15T08:04:30Z</time>
      </trkpt>
      <trkpt lat="42.918288" lon="-8.339351">
        <ele>352.8</ele>
        <time>2023-08-15T08:04:44Z</time>
      </trkpt>
      <trkpt lat="42.918248" lon="-8.339595">
        <ele>350.1</ele>
        <time>2023-08-15T08:04:58Z</time>
      </trkpt>
      <trkpt lat="42.918177" lon="-8.339838">
        <ele>343.8</ele>
        <time>2023-08-15T08:06:04Z</time>
      </trkpt>
      <trkpt lat="42.918087" lon="-8.340054">
        <ele>345.8</ele>
        <time>2023-08-15T08:06:18Z</time>
      </trkpt>
      <trkpt lat="42.918034" lon="-8.340294">
        <ele>346.8</ele>
        <time>2023-08-15T08:06:30Z</time>
      </trkpt>
      <trkpt lat="42.917965" lon="-8.340533">
        <ele>345.8</ele>
        <time>2023-08-15T08:06:43Z</time>
      </trkpt>
      <trkpt lat="42.917875" lon="-8.340748">
        <ele>344.8</ele>
        <time>2023-08-15T08:06:59Z</time>
      </trkpt>
      <trkpt lat="42.917783" lon="-8.340978">
        <ele>344.8</ele>
        <time>2023-08-15T08:07:13Z</time>
      </trkpt>
      <trkpt lat="42.917686" lon="-8.341190">
        <ele>345.8</ele>
        <time>2023-08-15T08:07:25Z</time>
      </trkpt>
      <trkpt lat="42.917619" lon="-8.341431">
        <ele>344.8</ele>
        <time>2023-08-15T08:07:39Z</time>
      </trkpt>
      <trkpt lat="42.917532" lon="-8.341663">
        <ele>343.9</ele>
        <time>2023-08-15T08:07:52Z</time>
      </trkpt>
      <trkpt lat="42.917461" lon="-8.341893">
        <ele>346.8</ele>
        <time>2023-08-15T08:08:03Z</time>
      </trkpt>
      <trkpt lat="42.917421" lon="-8.342133">
        <ele>345.8</ele>
        <time>2023-08-15T08:08:16Z</time>
      </trkpt>
      <trkpt lat="42.917339" lon="-8.342355">
        <ele>343.8</ele>
        <time>2023-08-15T08:08:30Z</time>
      </trkpt>
      <trkpt lat="42.917234" lon="-8.342559">
        <ele>342.9</ele>
        <time>2023-08-15T08:08:43Z</time>
      </trkpt>
      <trkpt lat="42.917202" lon="-8.342803">
        <ele>342.8</ele>
        <time>2023-08-15T08:08:56Z</time>
      </trkpt>
      <trkpt lat="42.917122" lon="-8.343107">
        <ele>339.9</ele>
        <time>2023-08-15T08:09:09Z</time>
      </trkpt>
      <trkpt lat="42.916985" lon="-8.343234">
        <ele>339.8</ele>
        <time>2023-08-15T08:09:21Z</time>
      </trkpt>
      <trkpt lat="42.916804" lon="-8.343308">
        <ele>335.1</ele>
        <time>2023-08-15T08:09:38Z</time>
      </trkpt>
      <trkpt lat="42.916599" lon="-8.343197">
        <ele>332.8</ele>
        <time>2023-08-15T08:09:50Z</time>
      </trkpt>
      <trkpt lat="42.916524" lon="-8.343321">
        <ele>330.8</ele>
        <time>2023-08-15T08:10:10Z</time>
      </trkpt>
      <trkpt lat="42.916542" lon="-8.343789">
        <ele>324.0</ele>
        <time>2023-08-15T08:10:25Z</time>
      </trkpt>
      <trkpt lat="42.916363" lon="-8.343919">
        <ele>321.9</ele>
        <time>2023-08-15T08:10:39Z</time>
      </trkpt>
      <trkpt lat="42.916305" lon="-8.344122">
        <ele>321.8</ele>
        <time>2023-08-15T08:10:55Z</time>
      </trkpt>
      <trkpt lat="42.916299" lon="-8.344374">
        <ele>320.8</ele>
        <time>2023-08-15T08:11:10Z</time>
      </trkpt>
      <trkpt lat="42.916209" lon="-8.344586">
        <ele>315.8</ele>
        <time>2023-08-15T08:11:23Z</time>
      </trkpt>
      <trkpt lat="42.916149" lon="-8.344819">
        <ele>315.7</ele>
        <time>2023-08-15T08:11:36Z</time>
      </trkpt>
      <trkpt lat="42.916073" lon="-8.345081">
        <ele>315.7</ele>
        <time>2023-08-15T08:11:50Z</time>
      </trkpt>
      <trkpt lat="42.915994" lon="-8.345335">
        <ele>313.6</ele>
        <time>2023-08-15T08:12:05Z</time>
      </trkpt>
      <trkpt lat="42.915901" lon="-8.345555">
        <ele>312.7</ele>
        <time>2023-08-15T08:12:19Z</time>
      </trkpt>
      <trkpt lat="42.915803" lon="-8.345766">
        <ele>312.7</ele>
        <time>2023-08-15T08:12:33Z</time>
      </trkpt>
      <trkpt lat="42.915686" lon="-8.345968">
        <ele>312.7</ele>
        <time>2023-08-15T08:12:46Z</time>
      </trkpt>
      <trkpt lat="42.915607" lon="-8.346195">
        <ele>312.7</ele>
        <time>2023-08-15T08:13:01Z</time>
      </trkpt>
      <trkpt lat="42.915498" lon="-8.346411">
        <ele>308.8</ele>
        <time>2023-08-15T08:15:18Z</time>
      </trkpt>
      <trkpt lat="42.915389" lon="-8.346617">
        <ele>305.1</ele>
        <time>2023-08-15T08:15:33Z</time>
      </trkpt>
      <trkpt lat="42.915271" lon="-8.346805">
        <ele>305.6</ele>
        <time>2023-08-15T08:15:45Z</time>
      </trkpt>
      <trkpt lat="42.915137" lon="-8.346992">
        <ele>306.8</ele>
        <time>2023-08-15T08:16:00Z</time>
      </trkpt>
      <trkpt lat="42.915025" lon="-8.347199">
        <ele>306.9</ele>
        <time>2023-08-15T08:16:13Z</time>
      </trkpt>
      <trkpt lat="42.914903" lon="-8.347381">
        <ele>304.9</ele>
        <time>2023-08-15T08:16:28Z</time>
      </trkpt>
      <trkpt lat="42.914767" lon="-8.347557">
        <ele>303.9</ele>
        <time>2023-08-15T08:16:43Z</time>
      </trkpt>
      <trkpt lat="42.914684" lon="-8.347779">
        <ele>300.9</ele>
        <time>2023-08-15T08:16:57Z</time>
      </trkpt>
      <trkpt lat="42.914620" lon="-8.348011">
        <ele>299.1</ele>
        <time>2023-08-15T08:17:10Z</time>
      </trkpt>
      <trkpt lat="42.914557" lon="-8.348254">
        <ele>297.8</ele>
        <time>2023-08-15T08:17:24Z</time>
      </trkpt>
      <trkpt lat="42.914481" lon="-8.348477">
        <ele>296.9</ele>
        <time>2023-08-15T08:17:38Z</time>
      </trkpt>
      <trkpt lat="42.914388" lon="-8.348692">
        <ele>296.8</ele>
        <time>2023-08-15T08:17:50Z</time>
      </trkpt>
      <trkpt lat="42.914324" lon="-8.348924">
        <ele>295.9</ele>
        <time>2023-08-15T08:18:04Z</time>
      </trkpt>
      <trkpt lat="42.914369" lon="-8.349165">
        <ele>292.9</ele>
        <time>2023-08-15T08:18:19Z</time>
      </trkpt>
      <trkpt lat="42.914522" lon="-8.349313">
        <ele>290.9</ele>
        <time>2023-08-15T08:18:34Z</time>
      </trkpt>
      <trkpt lat="42.914676" lon="-8.349453">
        <ele>289.7</ele>
        <time>2023-08-15T08:18:53Z</time>
      </trkpt>
      <trkpt lat="42.914729" lon="-8.349714">
        <ele>280.4</ele>
        <time>2023-08-15T08:19:22Z</time>
      </trkpt>
      <trkpt lat="42.914687" lon="-8.350061">
        <ele>281.4</ele>
        <time>2023-08-15T08:19:34Z</time>
      </trkpt>
      <trkpt lat="42.914591" lon="-8.350171">
        <ele>278.9</ele>
        <time>2023-08-15T08:19:51Z</time>
      </trkpt>
      <trkpt lat="42.914517" lon="-8.350398">
        <ele>278.8</ele>
        <time>2023-08-15T08:20:05Z</time>
      </trkpt>
      <trkpt lat="42.914441" lon="-8.350622">
        <ele>278.8</ele>
        <time>2023-08-15T08:20:19Z</time>
      </trkpt>
      <trkpt lat="42.914399" lon="-8.350850">
        <ele>277.8</ele>
        <time>2023-08-15T08:20:34Z</time>
      </trkpt>
      <trkpt lat="42.914321" lon="-8.351118">
        <ele>277.3</ele>
        <time>2023-08-15T08:20:49Z</time>
      </trkpt>
      <trkpt lat="42.914252" lon="-8.351331">
        <ele>277.2</ele>
        <time>2023-08-15T08:21:31Z</time>
      </trkpt>
      <trkpt lat="42.914187" lon="-8.351572">
        <ele>277.2</ele>
        <time>2023-08-15T08:22:06Z</time>
      </trkpt>
      <trkpt lat="42.914087" lon="-8.351780">
        <ele>278.9</ele>
        <time>2023-08-15T08:22:19Z</time>
      </trkpt>
      <trkpt lat="42.913994" lon="-8.352007">
        <ele>275.5</ele>
        <time>2023-08-15T08:22:32Z</time>
      </trkpt>
      <trkpt lat="42.913900" lon="-8.352226">
        <ele>275.5</ele>
        <time>2023-08-15T08:22:45Z</time>
      </trkpt>
      <trkpt lat="42.913821" lon="-8.352448">
        <ele>275.5</ele>
        <time>2023-08-15T08:22:58Z</time>
      </trkpt>
      <trkpt lat="42.913747" lon="-8.352678">
        <ele>275.5</ele>
        <time>2023-08-15T08:23:13Z</time>
      </trkpt>
      <trkpt lat="42.913659" lon="-8.352910">
        <ele>273.8</ele>
        <time>2023-08-15T08:24:07Z</time>
      </trkpt>
      <trkpt lat="42.913512" lon="-8.353079">
        <ele>273.8</ele>
        <time>2023-08-15T08:24:21Z</time>
      </trkpt>
      <trkpt lat="42.913366" lon="-8.353227">
        <ele>273.8</ele>
        <time>2023-08-15T08:24:34Z</time>
      </trkpt>
      <trkpt lat="42.913223" lon="-8.353377">
        <ele>273.8</ele>
        <time>2023-08-15T08:24:46Z</time>
      </trkpt>
      <trkpt lat="42.913088" lon="-8.353554">
        <ele>273.8</ele>
        <time>2023-08-15T08:25:01Z</time>
      </trkpt>
      <trkpt lat="42.912953" lon="-8.353731">
        <ele>273.8</ele>
        <time>2023-08-15T08:25:14Z</time>
      </trkpt>
      <trkpt lat="42.912874" lon="-8.353961">
        <ele>275.9</ele>
        <time>2023-08-15T08:25:30Z</time>
      </trkpt>
      <trkpt lat="42.912808" lon="-8.354208">
        <ele>275.9</ele>
        <time>2023-08-15T08:25:44Z</time>
      </trkpt>
      <trkpt lat="42.912720" lon="-8.354453">
        <ele>273.9</ele>
        <time>2023-08-15T08:25:59Z</time>
      </trkpt>
      <trkpt lat="42.912651" lon="-8.354691">
        <ele>273.1</ele>
        <time>2023-08-15T08:26:13Z</time>
      </trkpt>
      <trkpt lat="42.912612" lon="-8.354928">
        <ele>271.2</ele>
        <time>2023-08-15T08:26:30Z</time>
      </trkpt>
      <trkpt lat="42.912559" lon="-8.355171">
        <ele>270.0</ele>
        <time>2023-08-15T08:26:43Z</time>
      </trkpt>
      <trkpt lat="42.912521" lon="-8.355410">
        <ele>268.2</ele>
        <time>2023-08-15T08:26:57Z</time>
      </trkpt>
      <trkpt lat="42.912495" lon="-8.355656">
        <ele>267.1</ele>
        <time>2023-08-15T08:27:12Z</time>
      </trkpt>
      <trkpt lat="42.912498" lon="-8.355910">
        <ele>264.9</ele>
        <time>2023-08-15T08:27:25Z</time>
      </trkpt>
      <trkpt lat="42.912498" lon="-8.356162">
        <ele>261.9</ele>
        <time>2023-08-15T08:27:40Z</time>
      </trkpt>
      <trkpt lat="42.912501" lon="-8.356422">
        <ele>260.2</ele>
        <time>2023-08-15T08:27:54Z</time>
      </trkpt>
      <trkpt lat="42.912502" lon="-8.356671">
        <ele>257.8</ele>
        <time>2023-08-15T08:28:08Z</time>
      </trkpt>
      <trkpt lat="42.912419" lon="-8.356964">
        <ele>259.6</ele>
        <time>2023-08-15T08:28:22Z</time>
      </trkpt>
      <trkpt lat="42.912384" lon="-8.357161">
        <ele>259.9</ele>
        <time>2023-08-15T08:28:35Z</time>
      </trkpt>
      <trkpt lat="42.912370" lon="-8.357421">
        <ele>261.9</ele>
        <time>2023-08-15T08:28:51Z</time>
      </trkpt>
      <trkpt lat="42.912234" lon="-8.357597">
        <ele>264.8</ele>
        <time>2023-08-15T08:29:05Z</time>
      </trkpt>
      <trkpt lat="42.912002" lon="-8.357692">
        <ele>261.7</ele>
        <time>2023-08-15T08:29:18Z</time>
      </trkpt>
      <trkpt lat="42.911917" lon="-8.357849">
        <ele>261.7</ele>
        <time>2023-08-15T08:29:49Z</time>
      </trkpt>
      <trkpt lat="42.911803" lon="-8.358041">
        <ele>261.7</ele>
        <time>2023-08-15T08:30:04Z</time>
      </trkpt>
      <trkpt lat="42.911670" lon="-8.358222">
        <ele>261.7</ele>
        <time>2023-08-15T08:30:18Z</time>
      </trkpt>
      <trkpt lat="42.911533" lon="-8.358401">
        <ele>261.7</ele>
        <time>2023-08-15T08:30:33Z</time>
      </trkpt>
      <trkpt lat="42.911425" lon="-8.358604">
        <ele>266.9</ele>
        <time>2023-08-15T08:30:46Z</time>
      </trkpt>
      <trkpt lat="42.911322" lon="-8.358811">
        <ele>267.9</ele>
        <time>2023-08-15T08:31:01Z</time>
      </trkpt>
      <trkpt lat="42.911199" lon="-8.358995">
        <ele>268.5</ele>
        <time>2023-08-15T08:31:14Z</time>
      </trkpt>
      <trkpt lat="42.911065" lon="-8.359169">
        <ele>268.6</ele>
        <time>2023-08-15T08:31:26Z</time>
      </trkpt>
      <trkpt lat="42.910957" lon="-8.359374">
        <ele>268.6</ele>
        <time>2023-08-15T08:31:38Z</time>
      </trkpt>
      <trkpt lat="42.910845" lon="-8.359571">
        <ele>268.6</ele>
        <time>2023-08-15T08:31:53Z</time>
      </trkpt>
      <trkpt lat="42.910693" lon="-8.359767">
        <ele>268.6</ele>
        <time>2023-08-15T08:32:08Z</time>
      </trkpt>
      <trkpt lat="42.910591" lon="-8.359950">
        <ele>268.6</ele>
        <time>2023-08-15T08:32:22Z</time>
      </trkpt>
      <trkpt lat="42.910475" lon="-8.360146">
        <ele>268.6</ele>
        <time>2023-08-15T08:32:37Z</time>
      </trkpt>
      <trkpt lat="42.910415" lon="-8.360378">
        <ele>270.8</ele>
        <time>2023-08-15T08:32:52Z</time>
      </trkpt>
      <trkpt lat="42.910353" lon="-8.360611">
        <ele>272.9</ele>
        <time>2023-08-15T08:33:05Z</time>
      </trkpt>
      <trkpt lat="42.910264" lon="-8.360837">
        <ele>274.9</ele>
        <time>2023-08-15T08:33:21Z</time>
      </trkpt>
      <trkpt lat="42.910128" lon="-8.361013">
        <ele>276.9</ele>
        <time>2023-08-15T08:33:34Z</time>
      </trkpt>
      <trkpt lat="42.910055" lon="-8.361252">
        <ele>278.8</ele>
        <time>2023-08-15T08:33:49Z</time>
      </trkpt>
      <trkpt lat="42.910001" lon="-8.361505">
        <ele>279.8</ele>
        <time>2023-08-15T08:34:01Z</time>
      </trkpt>
      <trkpt lat="42.909926" lon="-8.361750">
        <ele>282.8</ele>
        <time>2023-08-15T08:34:16Z</time>
      </trkpt>
      <trkpt lat="42.909856" lon="-8.361986">
        <ele>283.2</ele>
        <time>2023-08-15T08:34:31Z</time>
      </trkpt>
      <trkpt lat="42.909853" lon="-8.362233">
        <ele>282.8</ele>
        <time>2023-08-15T08:34:44Z</time>
      </trkpt>
      <trkpt lat="42.909757" lon="-8.362443">
        <ele>282.9</ele>
        <time>2023-08-15T08:34:55Z</time>
      </trkpt>
      <trkpt lat="42.909703" lon="-8.362680">
        <ele>287.8</ele>
        <time>2023-08-15T08:35:10Z</time>
      </trkpt>
      <trkpt lat="42.909602" lon="-8.362893">
        <ele>285.9</ele>
        <time>2023-08-15T08:35:26Z</time>
      </trkpt>
      <trkpt lat="42.909487" lon="-8.363101">
        <ele>287.9</ele>
        <time>2023-08-15T08:35:43Z</time>
      </trkpt>
      <trkpt lat="42.909336" lon="-8.363237">
        <ele>286.1</ele>
        <time>2023-08-15T08:35:54Z</time>
      </trkpt>
      <trkpt lat="42.909207" lon="-8.363413">
        <ele>287.8</ele>
        <time>2023-08-15T08:36:06Z</time>
      </trkpt>
      <trkpt lat="42.909086" lon="-8.363650">
        <ele>287.0</ele>
        <time>2023-08-15T08:36:20Z</time>
      </trkpt>
      <trkpt lat="42.908959" lon="-8.363662">
        <ele>288.8</ele>
        <time>2023-08-15T08:36:38Z</time>
      </trkpt>
      <trkpt lat="42.908766" lon="-8.363393">
        <ele>286.9</ele>
        <time>2023-08-15T08:36:53Z</time>
      </trkpt>
      <trkpt lat="42.908686" lon="-8.363187">
        <ele>287.8</ele>
        <time>2023-08-15T08:37:08Z</time>
      </trkpt>
      <trkpt lat="42.908364" lon="-8.363317">
        <ele>289.9</ele>
        <time>2023-08-15T08:37:22Z</time>
      </trkpt>
      <trkpt lat="42.908177" lon="-8.363395">
        <ele>295.1</ele>
        <time>2023-08-15T08:37:36Z</time>
      </trkpt>
      <trkpt lat="42.907988" lon="-8.363467">
        <ele>291.0</ele>
        <time>2023-08-15T08:37:52Z</time>
      </trkpt>
      <trkpt lat="42.907808" lon="-8.363546">
        <ele>291.0</ele>
        <time>2023-08-15T08:38:04Z</time>
      </trkpt>
      <trkpt lat="42.907646" lon="-8.363663">
        <ele>291.0</ele>
        <time>2023-08-15T08:38:18Z</time>
      </trkpt>
      <trkpt lat="42.907485" lon="-8.363869">
        <ele>290.7</ele>
        <time>2023-08-15T08:38:31Z</time>
      </trkpt>
      <trkpt lat="42.907412" lon="-8.364062">
        <ele>290.6</ele>
        <time>2023-08-15T08:38:46Z</time>
      </trkpt>
      <trkpt lat="42.907524" lon="-8.364265">
        <ele>290.7</ele>
        <time>2023-08-15T08:39:00Z</time>
      </trkpt>
      <trkpt lat="42.907651" lon="-8.364439">
        <ele>290.7</ele>
        <time>2023-08-15T08:39:15Z</time>
      </trkpt>
      <trkpt lat="42.907788" lon="-8.364630">
        <ele>290.3</ele>
        <time>2023-08-15T08:39:28Z</time>
      </trkpt>
      <trkpt lat="42.907905" lon="-8.364824">
        <ele>291.4</ele>
        <time>2023-08-15T08:39:41Z</time>
      </trkpt>
      <trkpt lat="42.907945" lon="-8.365073">
        <ele>290.3</ele>
        <time>2023-08-15T08:39:55Z</time>
      </trkpt>
      <trkpt lat="42.908040" lon="-8.365284">
        <ele>290.3</ele>
        <time>2023-08-15T08:40:09Z</time>
      </trkpt>
      <trkpt lat="42.908177" lon="-8.365460">
        <ele>290.3</ele>
        <time>2023-08-15T08:40:24Z</time>
      </trkpt>
      <trkpt lat="42.908332" lon="-8.365661">
        <ele>290.3</ele>
        <time>2023-08-15T08:40:37Z</time>
      </trkpt>
      <trkpt lat="42.908285" lon="-8.365899">
        <ele>290.3</ele>
        <time>2023-08-15T08:40:52Z</time>
      </trkpt>
      <trkpt lat="42.908210" lon="-8.366130">
        <ele>290.3</ele>
        <time>2023-08-15T08:41:09Z</time>
      </trkpt>
      <trkpt lat="42.908104" lon="-8.366343">
        <ele>292.9</ele>
        <time>2023-08-15T08:41:22Z</time>
      </trkpt>
      <trkpt lat="42.908059" lon="-8.366584">
        <ele>296.9</ele>
        <time>2023-08-15T08:41:34Z</time>
      </trkpt>
      <trkpt lat="42.907952" lon="-8.366805">
        <ele>293.7</ele>
        <time>2023-08-15T08:41:48Z</time>
      </trkpt>
      <trkpt lat="42.907868" lon="-8.367034">
        <ele>294.9</ele>
        <time>2023-08-15T08:42:03Z</time>
      </trkpt>
      <trkpt lat="42.907776" lon="-8.367262">
        <ele>294.9</ele>
        <time>2023-08-15T08:42:18Z</time>
      </trkpt>
      <trkpt lat="42.907664" lon="-8.367468">
        <ele>291.9</ele>
        <time>2023-08-15T08:42:33Z</time>
      </trkpt>
      <trkpt lat="42.907568" lon="-8.367686">
        <ele>292.9</ele>
        <time>2023-08-15T08:42:46Z</time>
      </trkpt>
      <trkpt lat="42.907478" lon="-8.367902">
        <ele>290.9</ele>
        <time>2023-08-15T08:42:59Z</time>
      </trkpt>
      <trkpt lat="42.907402" lon="-8.368136">
        <ele>290.9</ele>
        <time>2023-08-15T08:43:12Z</time>
      </trkpt>
      <trkpt lat="42.907321" lon="-8.368360">
        <ele>289.9</ele>
        <time>2023-08-15T08:43:25Z</time>
      </trkpt>
      <trkpt lat="42.907274" lon="-8.368609">
        <ele>289.6</ele>
        <time>2023-08-15T08:43:40Z</time>
      </trkpt>
      <trkpt lat="42.907212" lon="-8.368846">
        <ele>287.9</ele>
        <time>2023-08-15T08:43:56Z</time>
      </trkpt>
      <trkpt lat="42.907151" lon="-8.369087">
        <ele>290.5</ele>
        <time>2023-08-15T08:44:10Z</time>
      </trkpt>
      <trkpt lat="42.907055" lon="-8.369307">
        <ele>291.9</ele>
        <time>2023-08-15T08:44:26Z</time>
      </trkpt>
      <trkpt lat="42.906940" lon="-8.369509">
        <ele>292.9</ele>
        <time>2023-08-15T08:44:41Z</time>
      </trkpt>
      <trkpt lat="42.906857" lon="-8.369738">
        <ele>291.0</ele>
        <time>2023-08-15T08:44:54Z</time>
      </trkpt>
      <trkpt lat="42.906765" lon="-8.369953">
        <ele>289.2</ele>
        <time>2023-08-15T08:45:12Z</time>
      </trkpt>
      <trkpt lat="42.906651" lon="-8.370148">
        <ele>285.2</ele>
        <time>2023-08-15T08:45:25Z</time>
      </trkpt>
      <trkpt lat="42.906529" lon="-8.370351">
        <ele>282.9</ele>
        <time>2023-08-15T08:45:40Z</time>
      </trkpt>
      <trkpt lat="42.906262" lon="-8.370512">
        <ele>282.9</ele>
        <time>2023-08-15T08:45:56Z</time>
      </trkpt>
      <trkpt lat="42.906331" lon="-8.370691">
        <ele>272.5</ele>
        <time>2023-08-15T08:46:15Z</time>
      </trkpt>
      <trkpt lat="42.906486" lon="-8.370999">
        <ele>272.5</ele>
        <time>2023-08-15T08:46:28Z</time>
      </trkpt>
      <trkpt lat="42.906419" lon="-8.371115">
        <ele>272.5</ele>
        <time>2023-08-15T08:46:43Z</time>
      </trkpt>
      <trkpt lat="42.906282" lon="-8.371293">
        <ele>272.5</ele>
        <time>2023-08-15T08:46:56Z</time>
      </trkpt>
      <trkpt lat="42.906145" lon="-8.371465">
        <ele>269.7</ele>
        <time>2023-08-15T08:47:09Z</time>
      </trkpt>
      <trkpt lat="42.906002" lon="-8.371609">
        <ele>268.5</ele>
        <time>2023-08-15T08:47:26Z</time>
      </trkpt>
      <trkpt lat="42.905777" lon="-8.371866">
        <ele>268.5</ele>
        <time>2023-08-15T08:47:43Z</time>
      </trkpt>
      <trkpt lat="42.905803" lon="-8.372031">
        <ele>268.5</ele>
        <time>2023-08-15T08:48:00Z</time>
      </trkpt>
      <trkpt lat="42.905939" lon="-8.372211">
        <ele>268.5</ele>
        <time>2023-08-15T08:48:14Z</time>
      </trkpt>
      <trkpt lat="42.906074" lon="-8.372389">
        <ele>268.5</ele>
        <time>2023-08-15T08:48:29Z</time>
      </trkpt>
      <trkpt lat="42.906091" lon="-8.372642">
        <ele>268.5</ele>
        <time>2023-08-15T08:48:46Z</time>
      </trkpt>
      <trkpt lat="42.906048" lon="-8.372899">
        <ele>270.6</ele>
        <time>2023-08-15T08:49:03Z</time>
      </trkpt>
      <trkpt lat="42.906024" lon="-8.373147">
        <ele>274.8</ele>
        <time>2023-08-15T08:49:14Z</time>
      </trkpt>
      <trkpt lat="42.905959" lon="-8.373390">
        <ele>275.9</ele>
        <time>2023-08-15T08:49:34Z</time>
      </trkpt>
      <trkpt lat="42.905881" lon="-8.373630">
        <ele>275.9</ele>
        <time>2023-08-15T08:49:48Z</time>
      </trkpt>
      <trkpt lat="42.905809" lon="-8.373861">
        <ele>280.8</ele>
        <time>2023-08-15T08:50:03Z</time>
      </trkpt>
      <trkpt lat="42.905715" lon="-8.374075">
        <ele>277.9</ele>
        <time>2023-08-15T08:50:34Z</time>
      </trkpt>
      <trkpt lat="42.905625" lon="-8.374291">
        <ele>266.9</ele>
        <time>2023-08-15T08:54:29Z</time>
      </trkpt>
      <trkpt lat="42.905524" lon="-8.374497">
        <ele>268.9</ele>
        <time>2023-08-15T08:54:44Z</time>
      </trkpt>
      <trkpt lat="42.905431" lon="-8.374717">
        <ele>269.6</ele>
        <time>2023-08-15T08:55:00Z</time>
      </trkpt>
      <trkpt lat="42.905288" lon="-8.374868">
        <ele>269.9</ele>
        <time>2023-08-15T08:55:14Z</time>
      </trkpt>
      <trkpt lat="42.905120" lon="-8.374980">
        <ele>272.8</ele>
        <time>2023-08-15T08:55:24Z</time>
      </trkpt>
      <trkpt lat="42.904970" lon="-8.375131">
        <ele>274.2</ele>
        <time>2023-08-15T08:55:38Z</time>
      </trkpt>
      <trkpt lat="42.904831" lon="-8.375289">
        <ele>271.9</ele>
        <time>2023-08-15T08:55:55Z</time>
      </trkpt>
      <trkpt lat="42.904711" lon="-8.375479">
        <ele>269.9</ele>
        <time>2023-08-15T08:56:07Z</time>
      </trkpt>
      <trkpt lat="42.904579" lon="-8.375656">
        <ele>268.9</ele>
        <time>2023-08-15T08:56:20Z</time>
      </trkpt>
      <trkpt lat="42.904447" lon="-8.375828">
        <ele>267.9</ele>
        <time>2023-08-15T08:56:35Z</time>
      </trkpt>
      <trkpt lat="42.904330" lon="-8.376018">
        <ele>265.0</ele>
        <time>2023-08-15T08:56:48Z</time>
      </trkpt>
      <trkpt lat="42.904236" lon="-8.376230">
        <ele>266.9</ele>
        <time>2023-08-15T08:57:07Z</time>
      </trkpt>
      <trkpt lat="42.904132" lon="-8.376449">
        <ele>264.9</ele>
        <time>2023-08-15T08:57:18Z</time>
      </trkpt>
      <trkpt lat="42.904037" lon="-8.376662">
        <ele>267.9</ele>
        <time>2023-08-15T08:57:30Z</time>
      </trkpt>
      <trkpt lat="42.903964" lon="-8.376887">
        <ele>267.9</ele>
        <time>2023-08-15T08:57:42Z</time>
      </trkpt>
      <trkpt lat="42.903893" lon="-8.377120">
        <ele>268.9</ele>
        <time>2023-08-15T08:57:55Z</time>
      </trkpt>
      <trkpt lat="42.903819" lon="-8.377358">
        <ele>266.0</ele>
        <time>2023-08-15T08:58:07Z</time>
      </trkpt>
      <trkpt lat="42.903794" lon="-8.377605">
        <ele>267.9</ele>
        <time>2023-08-15T08:58:20Z</time>
      </trkpt>
      <trkpt lat="42.903811" lon="-8.377855">
        <ele>267.9</ele>
        <time>2023-08-15T08:58:33Z</time>
      </trkpt>
      <trkpt lat="42.903801" lon="-8.378111">
        <ele>269.0</ele>
        <time>2023-08-15T08:58:47Z</time>
      </trkpt>
      <trkpt lat="42.903776" lon="-8.378356">
        <ele>268.9</ele>
        <time>2023-08-15T08:58:59Z</time>
      </trkpt>
      <trkpt lat="42.903734" lon="-8.378604">
        <ele>269.9</ele>
        <time>2023-08-15T08:59:10Z</time>
      </trkpt>
      <trkpt lat="42.903718" lon="-8.378853">
        <ele>270.9</ele>
        <time>2023-08-15T08:59:27Z</time>
      </trkpt>
      <trkpt lat="42.903723" lon="-8.379111">
        <ele>271.6</ele>
        <time>2023-08-15T08:59:40Z</time>
      </trkpt>
      <trkpt lat="42.903690" lon="-8.379356">
        <ele>271.2</ele>
        <time>2023-08-15T08:59:51Z</time>
      </trkpt>
      <trkpt lat="42.903704" lon="-8.379608">
        <ele>269.9</ele>
        <time>2023-08-15T09:00:04Z</time>
      </trkpt>
      <trkpt lat="42.903728" lon="-8.379854">
        <ele>271.9</ele>
        <time>2023-08-15T09:00:17Z</time>
      </trkpt>
      <trkpt lat="42.903733" lon="-8.380103">
        <ele>272.9</ele>
        <time>2023-08-15T09:00:31Z</time>
      </trkpt>
      <trkpt lat="42.903729" lon="-8.380350">
        <ele>274.0</ele>
        <time>2023-08-15T09:00:44Z</time>
      </trkpt>
      <trkpt lat="42.903743" lon="-8.380597">
        <ele>275.9</ele>
        <time>2023-08-15T09:00:58Z</time>
      </trkpt>
      <trkpt lat="42.903756" lon="-8.380852">
        <ele>279.9</ele>
        <time>2023-08-15T09:01:12Z</time>
      </trkpt>
      <trkpt lat="42.903789" lon="-8.381101">
        <ele>281.9</ele>
        <time>2023-08-15T09:01:24Z</time>
      </trkpt>
      <trkpt lat="42.903758" lon="-8.381347">
        <ele>278.9</ele>
        <time>2023-08-15T09:01:38Z</time>
      </trkpt>
      <trkpt lat="42.903548" lon="-8.381667">
        <ele>277.9</ele>
        <time>2023-08-15T09:01:50Z</time>
      </trkpt>
      <trkpt lat="42.903612" lon="-8.381844">
        <ele>278.2</ele>
        <time>2023-08-15T09:02:03Z</time>
      </trkpt>
      <trkpt lat="42.903664" lon="-8.382065">
        <ele>281.8</ele>
        <time>2023-08-15T09:02:15Z</time>
      </trkpt>
      <trkpt lat="42.903739" lon="-8.382293">
        <ele>282.9</ele>
        <time>2023-08-15T09:02:29Z</time>
      </trkpt>
      <trkpt lat="42.903807" lon="-8.382529">
        <ele>284.9</ele>
        <time>2023-08-15T09:02:43Z</time>
      </trkpt>
      <trkpt lat="42.903875" lon="-8.382760">
        <ele>284.9</ele>
        <time>2023-08-15T09:02:56Z</time>
      </trkpt>
      <trkpt lat="42.903939" lon="-8.383000">
        <ele>283.9</ele>
        <time>2023-08-15T09:03:10Z</time>
      </trkpt>
      <trkpt lat="42.904005" lon="-8.383225">
        <ele>282.9</ele>
        <time>2023-08-15T09:03:23Z</time>
      </trkpt>
      <trkpt lat="42.904075" lon="-8.383458">
        <ele>282.6</ele>
        <time>2023-08-15T09:03:38Z</time>
      </trkpt>
      <trkpt lat="42.904157" lon="-8.383681">
        <ele>281.9</ele>
        <time>2023-08-15T09:03:53Z</time>
      </trkpt>
      <trkpt lat="42.904211" lon="-8.383920">
        <ele>283.9</ele>
        <time>2023-08-15T09:04:06Z</time>
      </trkpt>
      <trkpt lat="42.904259" lon="-8.384162">
        <ele>283.9</ele>
        <time>2023-08-15T09:04:21Z</time>
      </trkpt>
      <trkpt lat="42.904352" lon="-8.384377">
        <ele>288.7</ele>
        <time>2023-08-15T09:04:34Z</time>
      </trkpt>
      <trkpt lat="42.904410" lon="-8.384619">
        <ele>288.7</ele>
        <time>2023-08-15T09:04:46Z</time>
      </trkpt>
      <trkpt lat="42.904488" lon="-8.384843">
        <ele>288.7</ele>
        <time>2023-08-15T09:04:58Z</time>
      </trkpt>
      <trkpt lat="42.904579" lon="-8.385056">
        <ele>288.7</ele>
        <time>2023-08-15T09:05:11Z</time>
      </trkpt>
      <trkpt lat="42.904703" lon="-8.385247">
        <ele>288.7</ele>
        <time>2023-08-15T09:05:27Z</time>
      </trkpt>
      <trkpt lat="42.904751" lon="-8.385487">
        <ele>288.7</ele>
        <time>2023-08-15T09:05:40Z</time>
      </trkpt>
      <trkpt lat="42.904819" lon="-8.385717">
        <ele>288.7</ele>
        <time>2023-08-15T09:05:53Z</time>
      </trkpt>
      <trkpt lat="42.904880" lon="-8.385950">
        <ele>288.7</ele>
        <time>2023-08-15T09:06:07Z</time>
      </trkpt>
      <trkpt lat="42.904834" lon="-8.386197">
        <ele>291.5</ele>
        <time>2023-08-15T09:06:20Z</time>
      </trkpt>
      <trkpt lat="42.904690" lon="-8.386346">
        <ele>291.5</ele>
        <time>2023-08-15T09:06:34Z</time>
      </trkpt>
      <trkpt lat="42.904549" lon="-8.386508">
        <ele>291.5</ele>
        <time>2023-08-15T09:06:48Z</time>
      </trkpt>
      <trkpt lat="42.904361" lon="-8.386604">
        <ele>291.5</ele>
        <time>2023-08-15T09:07:03Z</time>
      </trkpt>
      <trkpt lat="42.904193" lon="-8.386672">
        <ele>291.5</ele>
        <time>2023-08-15T09:07:15Z</time>
      </trkpt>
      <trkpt lat="42.904024" lon="-8.386759">
        <ele>281.7</ele>
        <time>2023-08-15T09:07:27Z</time>
      </trkpt>
      <trkpt lat="42.903851" lon="-8.386809">
        <ele>281.7</ele>
        <time>2023-08-15T09:07:40Z</time>
      </trkpt>
      <trkpt lat="42.903658" lon="-8.386892">
        <ele>281.7</ele>
        <time>2023-08-15T09:07:53Z</time>
      </trkpt>
      <trkpt lat="42.903452" lon="-8.386995">
        <ele>281.7</ele>
        <time>2023-08-15T09:08:08Z</time>
      </trkpt>
      <trkpt lat="42.903241" lon="-8.387095">
        <ele>281.7</ele>
        <time>2023-08-15T09:08:22Z</time>
      </trkpt>
      <trkpt lat="42.903294" lon="-8.387368">
        <ele>273.9</ele>
        <time>2023-08-15T09:08:38Z</time>
      </trkpt>
      <trkpt lat="42.903364" lon="-8.387589">
        <ele>273.6</ele>
        <time>2023-08-15T09:08:50Z</time>
      </trkpt>
      <trkpt lat="42.903452" lon="-8.387816">
        <ele>274.9</ele>
        <time>2023-08-15T09:09:03Z</time>
      </trkpt>
      <trkpt lat="42.903493" lon="-8.388061">
        <ele>271.2</ele>
        <time>2023-08-15T09:09:16Z</time>
      </trkpt>
      <trkpt lat="42.903570" lon="-8.388289">
        <ele>271.2</ele>
        <time>2023-08-15T09:09:29Z</time>
      </trkpt>
      <trkpt lat="42.903638" lon="-8.388523">
        <ele>270.3</ele>
        <time>2023-08-15T09:09:42Z</time>
      </trkpt>
      <trkpt lat="42.903710" lon="-8.388766">
        <ele>270.7</ele>
        <time>2023-08-15T09:09:55Z</time>
      </trkpt>
      <trkpt lat="42.903791" lon="-8.388995">
        <ele>269.2</ele>
        <time>2023-08-15T09:10:10Z</time>
      </trkpt>
      <trkpt lat="42.903887" lon="-8.389215">
        <ele>265.0</ele>
        <time>2023-08-15T09:10:24Z</time>
      </trkpt>
      <trkpt lat="42.904025" lon="-8.389387">
        <ele>262.9</ele>
        <time>2023-08-15T09:10:37Z</time>
      </trkpt>
      <trkpt lat="42.904179" lon="-8.389538">
        <ele>260.9</ele>
        <time>2023-08-15T09:10:50Z</time>
      </trkpt>
      <trkpt lat="42.904309" lon="-8.389720">
        <ele>259.9</ele>
        <time>2023-08-15T09:11:03Z</time>
      </trkpt>
      <trkpt lat="42.904396" lon="-8.389935">
        <ele>258.9</ele>
        <time>2023-08-15T09:11:16Z</time>
      </trkpt>
      <trkpt lat="42.904438" lon="-8.390176">
        <ele>257.9</ele>
        <time>2023-08-15T09:11:29Z</time>
      </trkpt>
      <trkpt lat="42.904422" lon="-8.390431">
        <ele>255.9</ele>
        <time>2023-08-15T09:11:42Z</time>
      </trkpt>
      <trkpt lat="42.904404" lon="-8.390678">
        <ele>255.9</ele>
        <time>2023-08-15T09:11:55Z</time>
      </trkpt>
      <trkpt lat="42.904455" lon="-8.390916">
        <ele>252.9</ele>
        <time>2023-08-15T09:12:08Z</time>
      </trkpt>
      <trkpt lat="42.904583" lon="-8.391179">
        <ele>249.9</ele>
        <time>2023-08-15T09:12:22Z</time>
      </trkpt>
      <trkpt lat="42.904758" lon="-8.391131">
        <ele>256.1</ele>
        <time>2023-08-15T09:12:36Z</time>
      </trkpt>
      <trkpt lat="42.904937" lon="-8.391198">
        <ele>248.9</ele>
        <time>2023-08-15T09:12:46Z</time>
      </trkpt>
      <trkpt lat="42.905079" lon="-8.391358">
        <ele>249.2</ele>
        <time>2023-08-15T09:12:58Z</time>
      </trkpt>
      <trkpt lat="42.905230" lon="-8.391496">
        <ele>248.9</ele>
        <time>2023-08-15T09:13:11Z</time>
      </trkpt>
      <trkpt lat="42.905350" lon="-8.391673">
        <ele>248.9</ele>
        <time>2023-08-15T09:13:23Z</time>
      </trkpt>
      <trkpt lat="42.905431" lon="-8.391891">
        <ele>247.9</ele>
        <time>2023-08-15T09:13:36Z</time>
      </trkpt>
      <trkpt lat="42.905516" lon="-8.392114">
        <ele>246.9</ele>
        <time>2023-08-15T09:13:49Z</time>
      </trkpt>
      <trkpt lat="42.905584" lon="-8.392345">
        <ele>249.3</ele>
        <time>2023-08-15T09:14:02Z</time>
      </trkpt>
      <trkpt lat="42.905674" lon="-8.392568">
        <ele>249.3</ele>
        <time>2023-08-15T09:14:15Z</time>
      </trkpt>
      <trkpt lat="42.905736" lon="-8.392802">
        <ele>249.3</ele>
        <time>2023-08-15T09:14:30Z</time>
      </trkpt>
      <trkpt lat="42.905827" lon="-8.393043">
        <ele>256.6</ele>
        <time>2023-08-15T09:14:43Z</time>
      </trkpt>
      <trkpt lat="42.905898" lon="-8.393251">
        <ele>256.6</ele>
        <time>2023-08-15T09:14:54Z</time>
      </trkpt>
      <trkpt lat="42.905960" lon="-8.393491">
        <ele>248.8</ele>
        <time>2023-08-15T09:15:53Z</time>
      </trkpt>
      <trkpt lat="42.905928" lon="-8.393737">
        <ele>248.8</ele>
        <time>2023-08-15T09:16:06Z</time>
      </trkpt>
      <trkpt lat="42.905902" lon="-8.393974">
        <ele>249.1</ele>
        <time>2023-08-15T09:16:16Z</time>
      </trkpt>
      <trkpt lat="42.905989" lon="-8.394196">
        <ele>252.9</ele>
        <time>2023-08-15T09:16:30Z</time>
      </trkpt>
      <trkpt lat="42.905971" lon="-8.394446">
        <ele>256.6</ele>
        <time>2023-08-15T09:16:44Z</time>
      </trkpt>
      <trkpt lat="42.905917" lon="-8.394681">
        <ele>256.6</ele>
        <time>2023-08-15T09:16:58Z</time>
      </trkpt>
      <trkpt lat="42.905891" lon="-8.394930">
        <ele>257.1</ele>
        <time>2023-08-15T09:17:19Z</time>
      </trkpt>
      <trkpt lat="42.905847" lon="-8.395178">
        <ele>257.1</ele>
        <time>2023-08-15T09:17:32Z</time>
      </trkpt>
      <trkpt lat="42.905857" lon="-8.395438">
        <ele>257.1</ele>
        <time>2023-08-15T09:18:01Z</time>
      </trkpt>
      <trkpt lat="42.905746" lon="-8.395638">
        <ele>257.1</ele>
        <time>2023-08-15T09:18:11Z</time>
      </trkpt>
      <trkpt lat="42.905666" lon="-8.395864">
        <ele>257.1</ele>
        <time>2023-08-15T09:18:21Z</time>
      </trkpt>
      <trkpt lat="42.905631" lon="-8.396111">
        <ele>246.2</ele>
        <time>2023-08-15T09:18:35Z</time>
      </trkpt>
      <trkpt lat="42.905614" lon="-8.396364">
        <ele>244.9</ele>
        <time>2023-08-15T09:18:50Z</time>
      </trkpt>
      <trkpt lat="42.905587" lon="-8.396608">
        <ele>244.9</ele>
        <time>2023-08-15T09:19:03Z</time>
      </trkpt>
      <trkpt lat="42.905527" lon="-8.396848">
        <ele>245.9</ele>
        <time>2023-08-15T09:19:16Z</time>
      </trkpt>
      <trkpt lat="42.905498" lon="-8.397098">
        <ele>247.9</ele>
        <time>2023-08-15T09:19:29Z</time>
      </trkpt>
      <trkpt lat="42.905486" lon="-8.397347">
        <ele>250.9</ele>
        <time>2023-08-15T09:19:44Z</time>
      </trkpt>
      <trkpt lat="42.905499" lon="-8.397599">
        <ele>255.9</ele>
        <time>2023-08-15T09:19:57Z</time>
      </trkpt>
      <trkpt lat="42.905525" lon="-8.397847">
        <ele>262.6</ele>
        <time>2023-08-15T09:20:10Z</time>
      </trkpt>
      <trkpt lat="42.905681" lon="-8.397979">
        <ele>269.9</ele>
        <time>2023-08-15T09:20:25Z</time>
      </trkpt>
      <trkpt lat="42.905818" lon="-8.398150">
        <ele>273.9</ele>
        <time>2023-08-15T09:20:43Z</time>
      </trkpt>
      <trkpt lat="42.905946" lon="-8.398329">
        <ele>286.5</ele>
        <time>2023-08-15T09:20:58Z</time>
      </trkpt>
      <trkpt lat="42.906021" lon="-8.398555">
        <ele>286.6</ele>
        <time>2023-08-15T09:21:11Z</time>
      </trkpt>
      <trkpt lat="42.906140" lon="-8.398744">
        <ele>286.6</ele>
        <time>2023-08-15T09:21:25Z</time>
      </trkpt>
      <trkpt lat="42.906234" lon="-8.398955">
        <ele>286.5</ele>
        <time>2023-08-15T09:21:38Z</time>
      </trkpt>
      <trkpt lat="42.906299" lon="-8.399191">
        <ele>286.5</ele>
        <time>2023-08-15T09:21:52Z</time>
      </trkpt>
      <trkpt lat="42.906374" lon="-8.399422">
        <ele>286.5</ele>
        <time>2023-08-15T09:22:06Z</time>
      </trkpt>
      <trkpt lat="42.906423" lon="-8.399660">
        <ele>286.5</ele>
        <time>2023-08-15T09:22:19Z</time>
      </trkpt>
      <trkpt lat="42.906413" lon="-8.399906">
        <ele>286.5</ele>
        <time>2023-08-15T09:22:33Z</time>
      </trkpt>
      <trkpt lat="42.906304" lon="-8.400109">
        <ele>286.5</ele>
        <time>2023-08-15T09:22:47Z</time>
      </trkpt>
      <trkpt lat="42.906262" lon="-8.400357">
        <ele>286.5</ele>
        <time>2023-08-15T09:23:02Z</time>
      </trkpt>
      <trkpt lat="42.906226" lon="-8.400581">
        <ele>286.5</ele>
        <time>2023-08-15T09:23:15Z</time>
      </trkpt>
      <trkpt lat="42.906179" lon="-8.400810">
        <ele>277.9</ele>
        <time>2023-08-15T09:23:28Z</time>
      </trkpt>
      <trkpt lat="42.906127" lon="-8.401051">
        <ele>276.9</ele>
        <time>2023-08-15T09:23:41Z</time>
      </trkpt>
      <trkpt lat="42.906084" lon="-8.401297">
        <ele>275.9</ele>
        <time>2023-08-15T09:23:55Z</time>
      </trkpt>
      <trkpt lat="42.906076" lon="-8.401553">
        <ele>275.9</ele>
        <time>2023-08-15T09:24:09Z</time>
      </trkpt>
      <trkpt lat="42.906098" lon="-8.401802">
        <ele>283.9</ele>
        <time>2023-08-15T09:24:22Z</time>
      </trkpt>
      <trkpt lat="42.906174" lon="-8.402030">
        <ele>283.6</ele>
        <time>2023-08-15T09:24:36Z</time>
      </trkpt>
      <trkpt lat="42.906149" lon="-8.402279">
        <ele>282.9</ele>
        <time>2023-08-15T09:24:52Z</time>
      </trkpt>
      <trkpt lat="42.906072" lon="-8.402505">
        <ele>282.9</ele>
        <time>2023-08-15T09:25:08Z</time>
      </trkpt>
      <trkpt lat="42.905933" lon="-8.402663">
        <ele>280.9</ele>
        <time>2023-08-15T09:25:25Z</time>
      </trkpt>
      <trkpt lat="42.905874" lon="-8.402907">
        <ele>282.8</ele>
        <time>2023-08-15T09:25:41Z</time>
      </trkpt>
      <trkpt lat="42.905803" lon="-8.403136">
        <ele>288.9</ele>
        <time>2023-08-15T09:25:52Z</time>
      </trkpt>
      <trkpt lat="42.905810" lon="-8.403382">
        <ele>290.8</ele>
        <time>2023-08-15T09:26:07Z</time>
      </trkpt>
      <trkpt lat="42.905760" lon="-8.403625">
        <ele>287.2</ele>
        <time>2023-08-15T09:26:20Z</time>
      </trkpt>
      <trkpt lat="42.905781" lon="-8.403880">
        <ele>287.9</ele>
        <time>2023-08-15T09:26:31Z</time>
      </trkpt>
      <trkpt lat="42.905811" lon="-8.404120">
        <ele>289.9</ele>
        <time>2023-08-15T09:26:44Z</time>
      </trkpt>
      <trkpt lat="42.905905" lon="-8.404373">
        <ele>295.6</ele>
        <time>2023-08-15T09:26:56Z</time>
      </trkpt>
      <trkpt lat="42.905934" lon="-8.404588">
        <ele>297.9</ele>
        <time>2023-08-15T09:27:11Z</time>
      </trkpt>
      <trkpt lat="42.905916" lon="-8.404855">
        <ele>302.8</ele>
        <time>2023-08-15T09:27:24Z</time>
      </trkpt>
      <trkpt lat="42.905918" lon="-8.405099">
        <ele>305.9</ele>
        <time>2023-08-15T09:27:36Z</time>
      </trkpt>
      <trkpt lat="42.905907" lon="-8.405344">
        <ele>309.0</ele>
        <time>2023-08-15T09:27:49Z</time>
      </trkpt>
      <trkpt lat="42.905898" lon="-8.405580">
        <ele>308.0</ele>
        <time>2023-08-15T09:28:03Z</time>
      </trkpt>
      <trkpt lat="42.905880" lon="-8.405835">
        <ele>311.8</ele>
        <time>2023-08-15T09:28:17Z</time>
      </trkpt>
      <trkpt lat="42.905869" lon="-8.406082">
        <ele>313.9</ele>
        <time>2023-08-15T09:28:31Z</time>
      </trkpt>
      <trkpt lat="42.905890" lon="-8.406332">
        <ele>314.9</ele>
        <time>2023-08-15T09:28:45Z</time>
      </trkpt>
      <trkpt lat="42.905903" lon="-8.406578">
        <ele>314.9</ele>
        <time>2023-08-15T09:28:58Z</time>
      </trkpt>
      <trkpt lat="42.905859" lon="-8.406817">
        <ele>317.9</ele>
        <time>2023-08-15T09:29:15Z</time>
      </trkpt>
      <trkpt lat="42.905849" lon="-8.407063">
        <ele>318.6</ele>
        <time>2023-08-15T09:29:30Z</time>
      </trkpt>
      <trkpt lat="42.905893" lon="-8.407315">
        <ele>323.9</ele>
        <time>2023-08-15T09:29:43Z</time>
      </trkpt>
      <trkpt lat="42.905901" lon="-8.407572">
        <ele>324.9</ele>
        <time>2023-08-15T09:29:58Z</time>
      </trkpt>
      <trkpt lat="42.905869" lon="-8.407816">
        <ele>324.9</ele>
        <time>2023-08-15T09:30:13Z</time>
      </trkpt>
      <trkpt lat="42.905810" lon="-8.408055">
        <ele>323.9</ele>
        <time>2023-08-15T09:30:30Z</time>
      </trkpt>
      <trkpt lat="42.905764" lon="-8.408305">
        <ele>322.9</ele>
        <time>2023-08-15T09:30:46Z</time>
      </trkpt>
      <trkpt lat="42.905735" lon="-8.408592">
        <ele>325.0</ele>
        <time>2023-08-15T09:31:00Z</time>
      </trkpt>
      <trkpt lat="42.905810" lon="-8.408800">
        <ele>328.9</ele>
        <time>2023-08-15T09:31:14Z</time>
      </trkpt>
      <trkpt lat="42.905913" lon="-8.409022">
        <ele>332.8</ele>
        <time>2023-08-15T09:31:27Z</time>
      </trkpt>
      <trkpt lat="42.905981" lon="-8.409252">
        <ele>338.9</ele>
        <time>2023-08-15T09:31:41Z</time>
      </trkpt>
      <trkpt lat="42.906074" lon="-8.409470">
        <ele>340.0</ele>
        <time>2023-08-15T09:31:55Z</time>
      </trkpt>
      <trkpt lat="42.906174" lon="-8.409682">
        <ele>343.9</ele>
        <time>2023-08-15T09:32:08Z</time>
      </trkpt>
      <trkpt lat="42.906189" lon="-8.409929">
        <ele>343.9</ele>
        <time>2023-08-15T09:32:26Z</time>
      </trkpt>
      <trkpt lat="42.906280" lon="-8.410144">
        <ele>339.0</ele>
        <time>2023-08-15T09:32:44Z</time>
      </trkpt>
      <trkpt lat="42.906390" lon="-8.410347">
        <ele>341.9</ele>
        <time>2023-08-15T09:32:57Z</time>
      </trkpt>
      <trkpt lat="42.906525" lon="-8.410510">
        <ele>344.9</ele>
        <time>2023-08-15T09:33:12Z</time>
      </trkpt>
      <trkpt lat="42.906685" lon="-8.410626">
        <ele>346.9</ele>
        <time>2023-08-15T09:33:25Z</time>
      </trkpt>
      <trkpt lat="42.906855" lon="-8.410739">
        <ele>347.9</ele>
        <time>2023-08-15T09:33:40Z</time>
      </trkpt>
      <trkpt lat="42.907034" lon="-8.410826">
        <ele>350.0</ele>
        <time>2023-08-15T09:33:55Z</time>
      </trkpt>
      <trkpt lat="42.907198" lon="-8.410919">
        <ele>348.9</ele>
        <time>2023-08-15T09:34:10Z</time>
      </trkpt>
      <trkpt lat="42.907341" lon="-8.411127">
        <ele>350.9</ele>
        <time>2023-08-15T09:34:26Z</time>
      </trkpt>
      <trkpt lat="42.907435" lon="-8.411328">
        <ele>351.9</ele>
        <time>2023-08-15T09:34:39Z</time>
      </trkpt>
      <trkpt lat="42.907521" lon="-8.411555">
        <ele>350.0</ele>
        <time>2023-08-15T09:34:52Z</time>
      </trkpt>
      <trkpt lat="42.907568" lon="-8.411802">
        <ele>350.9</ele>
        <time>2023-08-15T09:35:06Z</time>
      </trkpt>
      <trkpt lat="42.907639" lon="-8.412041">
        <ele>351.2</ele>
        <time>2023-08-15T09:35:19Z</time>
      </trkpt>
      <trkpt lat="42.907710" lon="-8.412257">
        <ele>352.9</ele>
        <time>2023-08-15T09:35:34Z</time>
      </trkpt>
      <trkpt lat="42.907757" lon="-8.412510">
        <ele>354.9</ele>
        <time>2023-08-15T09:35:48Z</time>
      </trkpt>
      <trkpt lat="42.907806" lon="-8.412739">
        <ele>355.9</ele>
        <time>2023-08-15T09:36:01Z</time>
      </trkpt>
      <trkpt lat="42.907870" lon="-8.412975">
        <ele>358.9</ele>
        <time>2023-08-15T09:36:19Z</time>
      </trkpt>
      <trkpt lat="42.907934" lon="-8.413206">
        <ele>360.9</ele>
        <time>2023-08-15T09:36:31Z</time>
      </trkpt>
      <trkpt lat="42.907981" lon="-8.413470">
        <ele>364.9</ele>
        <time>2023-08-15T09:37:26Z</time>
      </trkpt>
      <trkpt lat="42.908061" lon="-8.413688">
        <ele>360.0</ele>
        <time>2023-08-15T09:37:40Z</time>
      </trkpt>
      <trkpt lat="42.908125" lon="-8.413909">
        <ele>360.9</ele>
        <time>2023-08-15T09:37:53Z</time>
      </trkpt>
      <trkpt lat="42.908209" lon="-8.414133">
        <ele>362.9</ele>
        <time>2023-08-15T09:38:07Z</time>
      </trkpt>
      <trkpt lat="42.908281" lon="-8.414360">
        <ele>361.9</ele>
        <time>2023-08-15T09:38:23Z</time>
      </trkpt>
      <trkpt lat="42.908328" lon="-8.414600">
        <ele>362.0</ele>
        <time>2023-08-15T09:38:35Z</time>
      </trkpt>
      <trkpt lat="42.908373" lon="-8.414826">
        <ele>363.6</ele>
        <time>2023-08-15T09:38:51Z</time>
      </trkpt>
      <trkpt lat="42.908626" lon="-8.414833">
        <ele>366.9</ele>
        <time>2023-08-15T09:44:53Z</time>
      </trkpt>
      <trkpt lat="42.908806" lon="-8.414824">
        <ele>368.1</ele>
        <time>2023-08-15T09:45:30Z</time>
      </trkpt>
      <trkpt lat="42.908996" lon="-8.414793">
        <ele>368.9</ele>
        <time>2023-08-15T09:45:46Z</time>
      </trkpt>
      <trkpt lat="42.909186" lon="-8.414750">
        <ele>370.0</ele>
        <time>2023-08-15T09:45:59Z</time>
      </trkpt>
      <trkpt lat="42.909368" lon="-8.414692">
        <ele>370.9</ele>
        <time>2023-08-15T09:46:11Z</time>
      </trkpt>
      <trkpt lat="42.909529" lon="-8.414623">
        <ele>371.9</ele>
        <time>2023-08-15T09:46:24Z</time>
      </trkpt>
      <trkpt lat="42.909708" lon="-8.414578">
        <ele>371.0</ele>
        <time>2023-08-15T09:46:38Z</time>
      </trkpt>
      <trkpt lat="42.909891" lon="-8.414519">
        <ele>369.0</ele>
        <time>2023-08-15T09:46:56Z</time>
      </trkpt>
      <trkpt lat="42.910078" lon="-8.414521">
        <ele>366.2</ele>
        <time>2023-08-15T09:47:09Z</time>
      </trkpt>
      <trkpt lat="42.910263" lon="-8.414470">
        <ele>364.9</ele>
        <time>2023-08-15T09:47:21Z</time>
      </trkpt>
      <trkpt lat="42.910444" lon="-8.414453">
        <ele>363.9</ele>
        <time>2023-08-15T09:47:33Z</time>
      </trkpt>
      <trkpt lat="42.910632" lon="-8.414475">
        <ele>365.9</ele>
        <time>2023-08-15T09:48:15Z</time>
      </trkpt>
      <trkpt lat="42.910821" lon="-8.414448">
        <ele>365.0</ele>
        <time>2023-08-15T09:48:38Z</time>
      </trkpt>
      <trkpt lat="42.911001" lon="-8.414426">
        <ele>365.9</ele>
        <time>2023-08-15T09:48:53Z</time>
      </trkpt>
      <trkpt lat="42.911178" lon="-8.414350">
        <ele>365.9</ele>
        <time>2023-08-15T09:49:13Z</time>
      </trkpt>
      <trkpt lat="42.911356" lon="-8.414316">
        <ele>368.9</ele>
        <time>2023-08-15T09:49:27Z</time>
      </trkpt>
      <trkpt lat="42.911540" lon="-8.414319">
        <ele>366.9</ele>
        <time>2023-08-15T09:49:40Z</time>
      </trkpt>
      <trkpt lat="42.911705" lon="-8.414202">
        <ele>367.9</ele>
        <time>2023-08-15T09:49:51Z</time>
      </trkpt>
      <trkpt lat="42.911886" lon="-8.414180">
        <ele>369.0</ele>
        <time>2023-08-15T09:50:01Z</time>
      </trkpt>
      <trkpt lat="42.912069" lon="-8.414194">
        <ele>369.9</ele>
        <time>2023-08-15T09:50:13Z</time>
      </trkpt>
      <trkpt lat="42.912247" lon="-8.414148">
        <ele>370.8</ele>
        <time>2023-08-15T09:50:27Z</time>
      </trkpt>
      <trkpt lat="42.912434" lon="-8.414140">
        <ele>369.0</ele>
        <time>2023-08-15T09:50:43Z</time>
      </trkpt>
      <trkpt lat="42.912617" lon="-8.414177">
        <ele>367.0</ele>
        <time>2023-08-15T09:50:57Z</time>
      </trkpt>
      <trkpt lat="42.912795" lon="-8.414121">
        <ele>368.9</ele>
        <time>2023-08-15T09:51:08Z</time>
      </trkpt>
      <trkpt lat="42.912977" lon="-8.414120">
        <ele>370.0</ele>
        <time>2023-08-15T09:51:17Z</time>
      </trkpt>
      <trkpt lat="42.913174" lon="-8.414096">
        <ele>367.3</ele>
        <time>2023-08-15T09:51:31Z</time>
      </trkpt>
      <trkpt lat="42.913337" lon="-8.414085">
        <ele>366.0</ele>
        <time>2023-08-15T09:51:46Z</time>
      </trkpt>
      <trkpt lat="42.913642" lon="-8.414083">
        <ele>364.9</ele>
        <time>2023-08-15T09:52:00Z</time>
      </trkpt>
      <trkpt lat="42.913640" lon="-8.414255">
        <ele>363.0</ele>
        <time>2023-08-15T09:52:14Z</time>
      </trkpt>
      <trkpt lat="42.913630" lon="-8.414469">
        <ele>362.9</ele>
        <time>2023-08-15T09:52:26Z</time>
      </trkpt>
      <trkpt lat="42.913631" lon="-8.414721">
        <ele>361.9</ele>
        <time>2023-08-15T09:52:39Z</time>
      </trkpt>
      <trkpt lat="42.913649" lon="-8.414977">
        <ele>363.9</ele>
        <time>2023-08-15T09:53:14Z</time>
      </trkpt>
      <trkpt lat="42.913643" lon="-8.415228">
        <ele>361.0</ele>
        <time>2023-08-15T09:53:37Z</time>
      </trkpt>
      <trkpt lat="42.913623" lon="-8.415477">
        <ele>358.9</ele>
        <time>2023-08-15T09:53:51Z</time>
      </trkpt>
      <trkpt lat="42.913602" lon="-8.415721">
        <ele>357.2</ele>
        <time>2023-08-15T09:54:06Z</time>
      </trkpt>
      <trkpt lat="42.913633" lon="-8.415983">
        <ele>357.0</ele>
        <time>2023-08-15T09:54:19Z</time>
      </trkpt>
      <trkpt lat="42.913628" lon="-8.416226">
        <ele>357.9</ele>
        <time>2023-08-15T09:54:35Z</time>
      </trkpt>
      <trkpt lat="42.913648" lon="-8.416475">
        <ele>356.9</ele>
        <time>2023-08-15T09:55:05Z</time>
      </trkpt>
      <trkpt lat="42.913647" lon="-8.416721">
        <ele>353.9</ele>
        <time>2023-08-15T09:55:20Z</time>
      </trkpt>
      <trkpt lat="42.913638" lon="-8.416967">
        <ele>353.9</ele>
        <time>2023-08-15T09:56:17Z</time>
      </trkpt>
      <trkpt lat="42.913656" lon="-8.417221">
        <ele>351.9</ele>
        <time>2023-08-15T09:56:31Z</time>
      </trkpt>
      <trkpt lat="42.913647" lon="-8.417472">
        <ele>349.0</ele>
        <time>2023-08-15T09:56:45Z</time>
      </trkpt>
      <trkpt lat="42.913654" lon="-8.417726">
        <ele>347.9</ele>
        <time>2023-08-15T09:56:59Z</time>
      </trkpt>
      <trkpt lat="42.913634" lon="-8.417978">
        <ele>346.0</ele>
        <time>2023-08-15T09:57:13Z</time>
      </trkpt>
      <trkpt lat="42.913642" lon="-8.418232">
        <ele>349.9</ele>
        <time>2023-08-15T09:57:43Z</time>
      </trkpt>
      <trkpt lat="42.913571" lon="-8.418465">
        <ele>348.0</ele>
        <time>2023-08-15T09:57:59Z</time>
      </trkpt>
      <trkpt lat="42.913644" lon="-8.418698">
        <ele>346.0</ele>
        <time>2023-08-15T09:58:12Z</time>
      </trkpt>
      <trkpt lat="42.913636" lon="-8.418948">
        <ele>344.0</ele>
        <time>2023-08-15T09:58:27Z</time>
      </trkpt>
      <trkpt lat="42.913628" lon="-8.419200">
        <ele>339.0</ele>
        <time>2023-08-15T09:58:41Z</time>
      </trkpt>
      <trkpt lat="42.913651" lon="-8.419453">
        <ele>339.0</ele>
        <time>2023-08-15T09:58:54Z</time>
      </trkpt>
      <trkpt lat="42.913644" lon="-8.419705">
        <ele>339.0</ele>
        <time>2023-08-15T09:59:06Z</time>
      </trkpt>
      <trkpt lat="42.913625" lon="-8.419950">
        <ele>339.0</ele>
        <time>2023-08-15T09:59:21Z</time>
      </trkpt>
      <trkpt lat="42.913490" lon="-8.420157">
        <ele>342.6</ele>
        <time>2023-08-15T09:59:37Z</time>
      </trkpt>
      <trkpt lat="42.913459" lon="-8.420387">
        <ele>341.0</ele>
        <time>2023-08-15T10:00:03Z</time>
      </trkpt>
      <trkpt lat="42.913475" lon="-8.420648">
        <ele>336.0</ele>
        <time>2023-08-15T10:00:19Z</time>
      </trkpt>
      <trkpt lat="42.913460" lon="-8.420873">
        <ele>335.0</ele>
        <time>2023-08-15T10:00:31Z</time>
      </trkpt>
      <trkpt lat="42.913434" lon="-8.421118">
        <ele>332.0</ele>
        <time>2023-08-15T10:00:45Z</time>
      </trkpt>
      <trkpt lat="42.913446" lon="-8.421368">
        <ele>330.9</ele>
        <time>2023-08-15T10:00:59Z</time>
      </trkpt>
      <trkpt lat="42.913422" lon="-8.421615">
        <ele>330.0</ele>
        <time>2023-08-15T10:01:13Z</time>
      </trkpt>
      <trkpt lat="42.913441" lon="-8.421865">
        <ele>328.0</ele>
        <time>2023-08-15T10:01:28Z</time>
      </trkpt>
      <trkpt lat="42.913410" lon="-8.422118">
        <ele>327.0</ele>
        <time>2023-08-15T10:01:45Z</time>
      </trkpt>
      <trkpt lat="42.913386" lon="-8.422371">
        <ele>326.0</ele>
        <time>2023-08-15T10:02:00Z</time>
      </trkpt>
      <trkpt lat="42.913280" lon="-8.422579">
        <ele>328.9</ele>
        <time>2023-08-15T10:02:15Z</time>
      </trkpt>
      <trkpt lat="42.913172" lon="-8.422781">
        <ele>330.0</ele>
        <time>2023-08-15T10:02:35Z</time>
      </trkpt>
      <trkpt lat="42.913044" lon="-8.422958">
        <ele>329.0</ele>
        <time>2023-08-15T10:03:00Z</time>
      </trkpt>
      <trkpt lat="42.912931" lon="-8.423155">
        <ele>325.3</ele>
        <time>2023-08-15T10:03:12Z</time>
      </trkpt>
      <trkpt lat="42.912825" lon="-8.423368">
        <ele>322.9</ele>
        <time>2023-08-15T10:03:32Z</time>
      </trkpt>
      <trkpt lat="42.912681" lon="-8.423520">
        <ele>322.0</ele>
        <time>2023-08-15T10:03:45Z</time>
      </trkpt>
      <trkpt lat="42.912531" lon="-8.423657">
        <ele>321.3</ele>
        <time>2023-08-15T10:03:59Z</time>
      </trkpt>
      <trkpt lat="42.912368" lon="-8.423771">
        <ele>321.6</ele>
        <time>2023-08-15T10:04:13Z</time>
      </trkpt>
      <trkpt lat="42.912204" lon="-8.423888">
        <ele>319.0</ele>
        <time>2023-08-15T10:04:32Z</time>
      </trkpt>
      <trkpt lat="42.912035" lon="-8.423985">
        <ele>322.6</ele>
        <time>2023-08-15T10:04:48Z</time>
      </trkpt>
      <trkpt lat="42.911858" lon="-8.424057">
        <ele>323.9</ele>
        <time>2023-08-15T10:05:05Z</time>
      </trkpt>
      <trkpt lat="42.911689" lon="-8.424171">
        <ele>327.9</ele>
        <time>2023-08-15T10:05:21Z</time>
      </trkpt>
      <trkpt lat="42.911504" lon="-8.424186">
        <ele>331.8</ele>
        <time>2023-08-15T10:05:36Z</time>
      </trkpt>
      <trkpt lat="42.911318" lon="-8.424178">
        <ele>337.0</ele>
        <time>2023-08-15T10:05:50Z</time>
      </trkpt>
      <trkpt lat="42.911136" lon="-8.424178">
        <ele>337.0</ele>
        <time>2023-08-15T10:06:04Z</time>
      </trkpt>
      <trkpt lat="42.911029" lon="-8.424378">
        <ele>338.9</ele>
        <time>2023-08-15T10:06:18Z</time>
      </trkpt>
      <trkpt lat="42.910847" lon="-8.424396">
        <ele>336.0</ele>
        <time>2023-08-15T10:06:34Z</time>
      </trkpt>
      <trkpt lat="42.910673" lon="-8.424322">
        <ele>332.3</ele>
        <time>2023-08-15T10:06:47Z</time>
      </trkpt>
      <trkpt lat="42.910493" lon="-8.424236">
        <ele>332.0</ele>
        <time>2023-08-15T10:07:01Z</time>
      </trkpt>
      <trkpt lat="42.910317" lon="-8.424178">
        <ele>331.0</ele>
        <time>2023-08-15T10:07:18Z</time>
      </trkpt>
      <trkpt lat="42.910142" lon="-8.424098">
        <ele>331.0</ele>
        <time>2023-08-15T10:07:33Z</time>
      </trkpt>
      <trkpt lat="42.909965" lon="-8.424048">
        <ele>331.0</ele>
        <time>2023-08-15T10:07:46Z</time>
      </trkpt>
      <trkpt lat="42.909789" lon="-8.423963">
        <ele>331.0</ele>
        <time>2023-08-15T10:07:59Z</time>
      </trkpt>
      <trkpt lat="42.909610" lon="-8.423895">
        <ele>332.0</ele>
        <time>2023-08-15T10:08:11Z</time>
      </trkpt>
      <trkpt lat="42.909425" lon="-8.423847">
        <ele>333.0</ele>
        <time>2023-08-15T10:08:24Z</time>
      </trkpt>
      <trkpt lat="42.909246" lon="-8.423796">
        <ele>332.0</ele>
        <time>2023-08-15T10:08:39Z</time>
      </trkpt>
      <trkpt lat="42.909077" lon="-8.423711">
        <ele>333.0</ele>
        <time>2023-08-15T10:08:50Z</time>
      </trkpt>
      <trkpt lat="42.908801" lon="-8.423632">
        <ele>332.0</ele>
        <time>2023-08-15T10:09:06Z</time>
      </trkpt>
      <trkpt lat="42.908729" lon="-8.423781">
        <ele>333.0</ele>
        <time>2023-08-15T10:09:24Z</time>
      </trkpt>
      <trkpt lat="42.908765" lon="-8.424129">
        <ele>331.3</ele>
        <time>2023-08-15T10:09:39Z</time>
      </trkpt>
      <trkpt lat="42.908789" lon="-8.424367">
        <ele>332.0</ele>
        <time>2023-08-15T10:09:53Z</time>
      </trkpt>
      <trkpt lat="42.908825" lon="-8.424613">
        <ele>333.0</ele>
        <time>2023-08-15T10:10:06Z</time>
      </trkpt>
      <trkpt lat="42.908854" lon="-8.424863">
        <ele>331.2</ele>
        <time>2023-08-15T10:10:22Z</time>
      </trkpt>
      <trkpt lat="42.908867" lon="-8.425112">
        <ele>331.2</ele>
        <time>2023-08-15T10:10:37Z</time>
      </trkpt>
      <trkpt lat="42.908963" lon="-8.425349">
        <ele>331.2</ele>
        <time>2023-08-15T10:10:51Z</time>
      </trkpt>
      <trkpt lat="42.909001" lon="-8.425616">
        <ele>330.9</ele>
        <time>2023-08-15T10:11:06Z</time>
      </trkpt>
      <trkpt lat="42.908942" lon="-8.425913">
        <ele>330.9</ele>
        <time>2023-08-15T10:11:20Z</time>
      </trkpt>
      <trkpt lat="42.908836" lon="-8.426247">
        <ele>330.9</ele>
        <time>2023-08-15T10:11:33Z</time>
      </trkpt>
      <trkpt lat="42.908643" lon="-8.426210">
        <ele>330.8</ele>
        <time>2023-08-15T10:11:48Z</time>
      </trkpt>
      <trkpt lat="42.908495" lon="-8.426271">
        <ele>330.8</ele>
        <time>2023-08-15T10:12:17Z</time>
      </trkpt>
      <trkpt lat="42.908433" lon="-8.426498">
        <ele>330.8</ele>
        <time>2023-08-15T10:12:29Z</time>
      </trkpt>
      <trkpt lat="42.908335" lon="-8.426720">
        <ele>330.8</ele>
        <time>2023-08-15T10:12:46Z</time>
      </trkpt>
      <trkpt lat="42.908237" lon="-8.426922">
        <ele>330.8</ele>
        <time>2023-08-15T10:13:01Z</time>
      </trkpt>
      <trkpt lat="42.908086" lon="-8.427094">
        <ele>330.8</ele>
        <time>2023-08-15T10:13:18Z</time>
      </trkpt>
      <trkpt lat="42.907956" lon="-8.427266">
        <ele>330.8</ele>
        <time>2023-08-15T10:13:31Z</time>
      </trkpt>
      <trkpt lat="42.907813" lon="-8.427420">
        <ele>330.8</ele>
        <time>2023-08-15T10:13:50Z</time>
      </trkpt>
      <trkpt lat="42.907642" lon="-8.427524">
        <ele>330.8</ele>
        <time>2023-08-15T10:14:09Z</time>
      </trkpt>
      <trkpt lat="42.907475" lon="-8.427642">
        <ele>349.0</ele>
        <time>2023-08-15T10:14:23Z</time>
      </trkpt>
      <trkpt lat="42.907284" lon="-8.427712">
        <ele>349.0</ele>
        <time>2023-08-15T10:14:42Z</time>
      </trkpt>
      <trkpt lat="42.907165" lon="-8.427904">
        <ele>350.0</ele>
        <time>2023-08-15T10:14:56Z</time>
      </trkpt>
      <trkpt lat="42.907060" lon="-8.428107">
        <ele>349.0</ele>
        <time>2023-08-15T10:15:08Z</time>
      </trkpt>
      <trkpt lat="42.906966" lon="-8.428328">
        <ele>346.0</ele>
        <time>2023-08-15T10:15:19Z</time>
      </trkpt>
      <trkpt lat="42.906866" lon="-8.428534">
        <ele>343.3</ele>
        <time>2023-08-15T10:15:32Z</time>
      </trkpt>
      <trkpt lat="42.906767" lon="-8.428746">
        <ele>343.0</ele>
        <time>2023-08-15T10:15:46Z</time>
      </trkpt>
      <trkpt lat="42.906667" lon="-8.428953">
        <ele>342.0</ele>
        <time>2023-08-15T10:16:01Z</time>
      </trkpt>
      <trkpt lat="42.906593" lon="-8.429179">
        <ele>338.0</ele>
        <time>2023-08-15T10:16:16Z</time>
      </trkpt>
      <trkpt lat="42.906498" lon="-8.429397">
        <ele>335.0</ele>
        <time>2023-08-15T10:16:32Z</time>
      </trkpt>
      <trkpt lat="42.906394" lon="-8.429605">
        <ele>335.0</ele>
        <time>2023-08-15T10:16:47Z</time>
      </trkpt>
      <trkpt lat="42.906266" lon="-8.429767">
        <ele>336.0</ele>
        <time>2023-08-15T10:17:01Z</time>
      </trkpt>
      <trkpt lat="42.906103" lon="-8.429923">
        <ele>333.0</ele>
        <time>2023-08-15T10:17:21Z</time>
      </trkpt>
      <trkpt lat="42.905948" lon="-8.430055">
        <ele>336.9</ele>
        <time>2023-08-15T10:17:34Z</time>
      </trkpt>
      <trkpt lat="42.905841" lon="-8.430223">
        <ele>338.0</ele>
        <time>2023-08-15T10:17:47Z</time>
      </trkpt>
      <trkpt lat="42.905673" lon="-8.430409">
        <ele>338.0</ele>
        <time>2023-08-15T10:18:01Z</time>
      </trkpt>
      <trkpt lat="42.905571" lon="-8.430624">
        <ele>338.0</ele>
        <time>2023-08-15T10:18:14Z</time>
      </trkpt>
      <trkpt lat="42.905488" lon="-8.430827">
        <ele>338.0</ele>
        <time>2023-08-15T10:18:27Z</time>
      </trkpt>
      <trkpt lat="42.905446" lon="-8.431068">
        <ele>338.0</ele>
        <time>2023-08-15T10:18:42Z</time>
      </trkpt>
      <trkpt lat="42.905410" lon="-8.431314">
        <ele>338.0</ele>
        <time>2023-08-15T10:18:58Z</time>
      </trkpt>
      <trkpt lat="42.905379" lon="-8.431553">
        <ele>336.0</ele>
        <time>2023-08-15T10:19:13Z</time>
      </trkpt>
      <trkpt lat="42.905320" lon="-8.431801">
        <ele>335.0</ele>
        <time>2023-08-15T10:19:26Z</time>
      </trkpt>
      <trkpt lat="42.905217" lon="-8.432014">
        <ele>332.0</ele>
        <time>2023-08-15T10:19:43Z</time>
      </trkpt>
      <trkpt lat="42.905120" lon="-8.432224">
        <ele>332.0</ele>
        <time>2023-08-15T10:20:01Z</time>
      </trkpt>
      <trkpt lat="42.905038" lon="-8.432443">
        <ele>333.0</ele>
        <time>2023-08-15T10:20:17Z</time>
      </trkpt>
      <trkpt lat="42.904943" lon="-8.432656">
        <ele>333.0</ele>
        <time>2023-08-15T10:20:34Z</time>
      </trkpt>
      <trkpt lat="42.904805" lon="-8.432836">
        <ele>336.0</ele>
        <time>2023-08-15T10:20:57Z</time>
      </trkpt>
      <trkpt lat="42.904687" lon="-8.433024">
        <ele>335.7</ele>
        <time>2023-08-15T10:21:12Z</time>
      </trkpt>
      <trkpt lat="42.904562" lon="-8.433205">
        <ele>335.0</ele>
        <time>2023-08-15T10:21:49Z</time>
      </trkpt>
      <trkpt lat="42.904484" lon="-8.433427">
        <ele>332.0</ele>
        <time>2023-08-15T10:22:03Z</time>
      </trkpt>
      <trkpt lat="42.904375" lon="-8.433623">
        <ele>328.0</ele>
        <time>2023-08-15T10:22:16Z</time>
      </trkpt>
      <trkpt lat="42.904330" lon="-8.433863">
        <ele>327.9</ele>
        <time>2023-08-15T10:22:28Z</time>
      </trkpt>
      <trkpt lat="42.904303" lon="-8.434108">
        <ele>326.0</ele>
        <time>2023-08-15T10:22:45Z</time>
      </trkpt>
      <trkpt lat="42.904245" lon="-8.434342">
        <ele>325.0</ele>
        <time>2023-08-15T10:22:59Z</time>
      </trkpt>
      <trkpt lat="42.904176" lon="-8.434572">
        <ele>324.0</ele>
        <time>2023-08-15T10:23:13Z</time>
      </trkpt>
      <trkpt lat="42.904175" lon="-8.434820">
        <ele>325.0</ele>
        <time>2023-08-15T10:23:27Z</time>
      </trkpt>
      <trkpt lat="42.904186" lon="-8.435067">
        <ele>324.3</ele>
        <time>2023-08-15T10:23:57Z</time>
      </trkpt>
      <trkpt lat="42.904098" lon="-8.435281">
        <ele>325.0</ele>
        <time>2023-08-15T10:24:16Z</time>
      </trkpt>
      <trkpt lat="42.903978" lon="-8.435467">
        <ele>326.0</ele>
        <time>2023-08-15T10:24:30Z</time>
      </trkpt>
      <trkpt lat="42.903868" lon="-8.435670">
        <ele>328.9</ele>
        <time>2023-08-15T10:24:46Z</time>
      </trkpt>
      <trkpt lat="42.903739" lon="-8.435847">
        <ele>328.3</ele>
        <time>2023-08-15T10:25:01Z</time>
      </trkpt>
      <trkpt lat="42.903614" lon="-8.436024">
        <ele>327.0</ele>
        <time>2023-08-15T10:25:12Z</time>
      </trkpt>
      <trkpt lat="42.903496" lon="-8.436230">
        <ele>324.0</ele>
        <time>2023-08-15T10:25:27Z</time>
      </trkpt>
      <trkpt lat="42.903352" lon="-8.436382">
        <ele>323.3</ele>
        <time>2023-08-15T10:25:41Z</time>
      </trkpt>
      <trkpt lat="42.903215" lon="-8.436545">
        <ele>323.5</ele>
        <time>2023-08-15T10:25:55Z</time>
      </trkpt>
      <trkpt lat="42.903093" lon="-8.436729">
        <ele>323.5</ele>
        <time>2023-08-15T10:26:07Z</time>
      </trkpt>
      <trkpt lat="42.902970" lon="-8.436921">
        <ele>318.8</ele>
        <time>2023-08-15T10:26:24Z</time>
      </trkpt>
      <trkpt lat="42.902860" lon="-8.437123">
        <ele>318.8</ele>
        <time>2023-08-15T10:26:40Z</time>
      </trkpt>
      <trkpt lat="42.902738" lon="-8.437319">
        <ele>317.8</ele>
        <time>2023-08-15T10:26:56Z</time>
      </trkpt>
      <trkpt lat="42.902609" lon="-8.437505">
        <ele>317.7</ele>
        <time>2023-08-15T10:27:06Z</time>
      </trkpt>
      <trkpt lat="42.902475" lon="-8.437671">
        <ele>317.7</ele>
        <time>2023-08-15T10:27:17Z</time>
      </trkpt>
      <trkpt lat="42.902347" lon="-8.437858">
        <ele>317.7</ele>
        <time>2023-08-15T10:27:29Z</time>
      </trkpt>
      <trkpt lat="42.902244" lon="-8.438060">
        <ele>317.8</ele>
        <time>2023-08-15T10:27:42Z</time>
      </trkpt>
      <trkpt lat="42.902122" lon="-8.438251">
        <ele>318.0</ele>
        <time>2023-08-15T10:27:54Z</time>
      </trkpt>
      <trkpt lat="42.902002" lon="-8.438439">
        <ele>318.0</ele>
        <time>2023-08-15T10:28:09Z</time>
      </trkpt>
      <trkpt lat="42.901969" lon="-8.438695">
        <ele>317.0</ele>
        <time>2023-08-15T10:28:22Z</time>
      </trkpt>
      <trkpt lat="42.901941" lon="-8.438944">
        <ele>317.4</ele>
        <time>2023-08-15T10:28:36Z</time>
      </trkpt>
      <trkpt lat="42.901944" lon="-8.439194">
        <ele>317.4</ele>
        <time>2023-08-15T10:28:51Z</time>
      </trkpt>
      <trkpt lat="42.901953" lon="-8.439444">
        <ele>317.4</ele>
        <time>2023-08-15T10:29:13Z</time>
      </trkpt>
      <trkpt lat="42.901910" lon="-8.439689">
        <ele>316.0</ele>
        <time>2023-08-15T10:29:25Z</time>
      </trkpt>
      <trkpt lat="42.901883" lon="-8.439816">
        <ele>314.8</ele>
        <time>2023-08-15T10:29:58Z</time>
      </trkpt>
      <trkpt lat="42.901861" lon="-8.439965">
        <ele>314.8</ele>
        <time>2023-08-16T04:37:29Z</time>
      </trkpt>
      <trkpt lat="42.901818" lon="-8.440209">
        <ele>314.1</ele>
        <time>2023-08-16T04:37:41Z</time>
      </trkpt>
      <trkpt lat="42.901768" lon="-8.440449">
        <ele>314.1</ele>
        <time>2023-08-16T04:37:55Z</time>
      </trkpt>
      <trkpt lat="42.901760" lon="-8.440693">
        <ele>314.1</ele>
        <time>2023-08-16T04:38:11Z</time>
      </trkpt>
      <trkpt lat="42.901743" lon="-8.440952">
        <ele>312.1</ele>
        <time>2023-08-16T04:38:44Z</time>
      </trkpt>
      <trkpt lat="42.901723" lon="-8.441192">
        <ele>312.1</ele>
        <time>2023-08-16T04:39:01Z</time>
      </trkpt>
      <trkpt lat="42.901685" lon="-8.441449">
        <ele>312.5</ele>
        <time>2023-08-16T04:39:17Z</time>
      </trkpt>
      <trkpt lat="42.901648" lon="-8.441704">
        <ele>312.5</ele>
        <time>2023-08-16T04:39:30Z</time>
      </trkpt>
      <trkpt lat="42.901614" lon="-8.441941">
        <ele>312.5</ele>
        <time>2023-08-16T04:39:44Z</time>
      </trkpt>
      <trkpt lat="42.901595" lon="-8.442178">
        <ele>306.1</ele>
        <time>2023-08-16T04:39:56Z</time>
      </trkpt>
      <trkpt lat="42.901552" lon="-8.442427">
        <ele>306.1</ele>
        <time>2023-08-16T04:40:10Z</time>
      </trkpt>
      <trkpt lat="42.901494" lon="-8.442658">
        <ele>306.1</ele>
        <time>2023-08-16T04:40:29Z</time>
      </trkpt>
      <trkpt lat="42.901383" lon="-8.442860">
        <ele>302.6</ele>
        <time>2023-08-16T04:40:41Z</time>
      </trkpt>
      <trkpt lat="42.901259" lon="-8.443044">
        <ele>303.1</ele>
        <time>2023-08-16T04:40:54Z</time>
      </trkpt>
      <trkpt lat="42.901152" lon="-8.443256">
        <ele>303.1</ele>
        <time>2023-08-16T04:41:08Z</time>
      </trkpt>
      <trkpt lat="42.901076" lon="-8.443479">
        <ele>303.1</ele>
        <time>2023-08-16T04:41:21Z</time>
      </trkpt>
      <trkpt lat="42.901005" lon="-8.443724">
        <ele>302.6</ele>
        <time>2023-08-16T04:41:34Z</time>
      </trkpt>
      <trkpt lat="42.900938" lon="-8.443962">
        <ele>302.6</ele>
        <time>2023-08-16T04:41:47Z</time>
      </trkpt>
      <trkpt lat="42.900885" lon="-8.444212">
        <ele>302.6</ele>
        <time>2023-08-16T04:42:02Z</time>
      </trkpt>
      <trkpt lat="42.900810" lon="-8.444451">
        <ele>302.6</ele>
        <time>2023-08-16T04:42:14Z</time>
      </trkpt>
      <trkpt lat="42.900758" lon="-8.444697">
        <ele>302.6</ele>
        <time>2023-08-16T04:42:29Z</time>
      </trkpt>
      <trkpt lat="42.900750" lon="-8.444944">
        <ele>302.0</ele>
        <time>2023-08-16T04:42:43Z</time>
      </trkpt>
      <trkpt lat="42.900694" lon="-8.445184">
        <ele>302.0</ele>
        <time>2023-08-16T04:42:56Z</time>
      </trkpt>
      <trkpt lat="42.900675" lon="-8.445429">
        <ele>302.0</ele>
        <time>2023-08-16T04:43:11Z</time>
      </trkpt>
      <trkpt lat="42.900633" lon="-8.445674">
        <ele>302.0</ele>
        <time>2023-08-16T04:43:24Z</time>
      </trkpt>
      <trkpt lat="42.900580" lon="-8.445917">
        <ele>302.0</ele>
        <time>2023-08-16T04:43:38Z</time>
      </trkpt>
      <trkpt lat="42.900506" lon="-8.446147">
        <ele>302.0</ele>
        <time>2023-08-16T04:43:51Z</time>
      </trkpt>
      <trkpt lat="42.900446" lon="-8.446380">
        <ele>302.0</ele>
        <time>2023-08-16T04:44:04Z</time>
      </trkpt>
      <trkpt lat="42.900379" lon="-8.446618">
        <ele>299.7</ele>
        <time>2023-08-16T04:44:17Z</time>
      </trkpt>
      <trkpt lat="42.900282" lon="-8.446771">
        <ele>298.7</ele>
        <time>2023-08-16T04:44:33Z</time>
      </trkpt>
      <trkpt lat="42.900090" lon="-8.446885">
        <ele>298.7</ele>
        <time>2023-08-16T04:44:45Z</time>
      </trkpt>
      <trkpt lat="42.899884" lon="-8.446843">
        <ele>298.7</ele>
        <time>2023-08-16T04:44:57Z</time>
      </trkpt>
      <trkpt lat="42.899833" lon="-8.446633">
        <ele>298.7</ele>
        <time>2023-08-16T04:45:13Z</time>
      </trkpt>
      <trkpt lat="42.899637" lon="-8.446570">
        <ele>298.1</ele>
        <time>2023-08-16T04:48:51Z</time>
      </trkpt>
      <trkpt lat="42.899525" lon="-8.446428">
        <ele>298.1</ele>
        <time>2023-08-16T04:49:02Z</time>
      </trkpt>
      <trkpt lat="42.899458" lon="-8.446149">
        <ele>298.1</ele>
        <time>2023-08-16T04:49:17Z</time>
      </trkpt>
      <trkpt lat="42.899406" lon="-8.445902">
        <ele>298.1</ele>
        <time>2023-08-16T04:49:30Z</time>
      </trkpt>
      <trkpt lat="42.899387" lon="-8.445649">
        <ele>300.1</ele>
        <time>2023-08-16T04:49:43Z</time>
      </trkpt>
      <trkpt lat="42.899391" lon="-8.445401">
        <ele>300.1</ele>
        <time>2023-08-16T04:49:58Z</time>
      </trkpt>
      <trkpt lat="42.899339" lon="-8.445124">
        <ele>300.1</ele>
        <time>2023-08-16T04:50:12Z</time>
      </trkpt>
      <trkpt lat="42.899230" lon="-8.444946">
        <ele>300.1</ele>
        <time>2023-08-16T04:50:25Z</time>
      </trkpt>
      <trkpt lat="42.899129" lon="-8.444742">
        <ele>300.0</ele>
        <time>2023-08-16T04:50:40Z</time>
      </trkpt>
      <trkpt lat="42.898957" lon="-8.444646">
        <ele>300.0</ele>
        <time>2023-08-16T04:50:55Z</time>
      </trkpt>
      <trkpt lat="42.898746" lon="-8.444607">
        <ele>300.0</ele>
        <time>2023-08-16T04:51:08Z</time>
      </trkpt>
      <trkpt lat="42.898579" lon="-8.444496">
        <ele>300.0</ele>
        <time>2023-08-16T04:51:21Z</time>
      </trkpt>
      <trkpt lat="42.898397" lon="-8.444210">
        <ele>300.0</ele>
        <time>2023-08-16T04:51:34Z</time>
      </trkpt>
      <trkpt lat="42.898361" lon="-8.444440">
        <ele>300.0</ele>
        <time>2023-08-16T04:52:04Z</time>
      </trkpt>
      <trkpt lat="42.898180" lon="-8.444591">
        <ele>289.0</ele>
        <time>2023-08-16T04:52:21Z</time>
      </trkpt>
      <trkpt lat="42.898194" lon="-8.444857">
        <ele>288.0</ele>
        <time>2023-08-16T04:52:33Z</time>
      </trkpt>
      <trkpt lat="42.898144" lon="-8.445100">
        <ele>290.0</ele>
        <time>2023-08-16T04:52:44Z</time>
      </trkpt>
      <trkpt lat="42.898025" lon="-8.445291">
        <ele>294.0</ele>
        <time>2023-08-16T04:52:57Z</time>
      </trkpt>
      <trkpt lat="42.897882" lon="-8.445443">
        <ele>297.0</ele>
        <time>2023-08-16T04:53:09Z</time>
      </trkpt>
      <trkpt lat="42.897763" lon="-8.445637">
        <ele>298.9</ele>
        <time>2023-08-16T04:53:25Z</time>
      </trkpt>
      <trkpt lat="42.897694" lon="-8.445869">
        <ele>301.0</ele>
        <time>2023-08-16T04:53:38Z</time>
      </trkpt>
      <trkpt lat="42.897608" lon="-8.446097">
        <ele>303.0</ele>
        <time>2023-08-16T04:53:51Z</time>
      </trkpt>
      <trkpt lat="42.897537" lon="-8.446325">
        <ele>306.9</ele>
        <time>2023-08-16T04:54:04Z</time>
      </trkpt>
      <trkpt lat="42.897427" lon="-8.446533">
        <ele>308.0</ele>
        <time>2023-08-16T04:54:18Z</time>
      </trkpt>
      <trkpt lat="42.897342" lon="-8.446757">
        <ele>307.0</ele>
        <time>2023-08-16T04:54:32Z</time>
      </trkpt>
      <trkpt lat="42.897312" lon="-8.447007">
        <ele>307.0</ele>
        <time>2023-08-16T04:54:47Z</time>
      </trkpt>
      <trkpt lat="42.897250" lon="-8.447246">
        <ele>310.7</ele>
        <time>2023-08-16T04:55:01Z</time>
      </trkpt>
      <trkpt lat="42.897183" lon="-8.447483">
        <ele>312.0</ele>
        <time>2023-08-16T04:55:18Z</time>
      </trkpt>
      <trkpt lat="42.897011" lon="-8.447562">
        <ele>316.3</ele>
        <time>2023-08-16T04:55:32Z</time>
      </trkpt>
      <trkpt lat="42.896808" lon="-8.447609">
        <ele>322.0</ele>
        <time>2023-08-16T04:55:45Z</time>
      </trkpt>
      <trkpt lat="42.896640" lon="-8.447613">
        <ele>325.0</ele>
        <time>2023-08-16T04:55:57Z</time>
      </trkpt>
      <trkpt lat="42.896462" lon="-8.447586">
        <ele>326.0</ele>
        <time>2023-08-16T04:56:11Z</time>
      </trkpt>
      <trkpt lat="42.896288" lon="-8.447517">
        <ele>326.0</ele>
        <time>2023-08-16T04:56:25Z</time>
      </trkpt>
      <trkpt lat="42.896104" lon="-8.447476">
        <ele>328.0</ele>
        <time>2023-08-16T04:56:41Z</time>
      </trkpt>
      <trkpt lat="42.895906" lon="-8.447601">
        <ele>319.0</ele>
        <time>2023-08-16T04:56:54Z</time>
      </trkpt>
      <trkpt lat="42.895738" lon="-8.447741">
        <ele>316.0</ele>
        <time>2023-08-16T04:57:07Z</time>
      </trkpt>
      <trkpt lat="42.895603" lon="-8.447806">
        <ele>313.0</ele>
        <time>2023-08-16T04:57:22Z</time>
      </trkpt>
      <trkpt lat="42.895215" lon="-8.447788">
        <ele>314.0</ele>
        <time>2023-08-16T04:57:37Z</time>
      </trkpt>
      <trkpt lat="42.895062" lon="-8.447650">
        <ele>314.0</ele>
        <time>2023-08-16T04:57:51Z</time>
      </trkpt>
      <trkpt lat="42.895021" lon="-8.447618">
        <ele>319.8</ele>
        <time>2023-08-16T04:58:04Z</time>
      </trkpt>
      <trkpt lat="42.894906" lon="-8.447421">
        <ele>325.0</ele>
        <time>2023-08-16T04:58:16Z</time>
      </trkpt>
      <trkpt lat="42.894794" lon="-8.447202">
        <ele>330.9</ele>
        <time>2023-08-16T04:58:33Z</time>
      </trkpt>
      <trkpt lat="42.894629" lon="-8.447100">
        <ele>333.0</ele>
        <time>2023-08-16T04:58:49Z</time>
      </trkpt>
      <trkpt lat="42.894452" lon="-8.447163">
        <ele>328.7</ele>
        <time>2023-08-16T04:59:04Z</time>
      </trkpt>
      <trkpt lat="42.894309" lon="-8.447315">
        <ele>329.9</ele>
        <time>2023-08-16T04:59:21Z</time>
      </trkpt>
      <trkpt lat="42.894191" lon="-8.447506">
        <ele>333.0</ele>
        <time>2023-08-16T04:59:35Z</time>
      </trkpt>
      <trkpt lat="42.894053" lon="-8.447735">
        <ele>338.0</ele>
        <time>2023-08-16T04:59:49Z</time>
      </trkpt>
      <trkpt lat="42.893897" lon="-8.447865">
        <ele>342.0</ele>
        <time>2023-08-16T05:00:05Z</time>
      </trkpt>
      <trkpt lat="42.893724" lon="-8.447946">
        <ele>344.0</ele>
        <time>2023-08-16T05:00:20Z</time>
      </trkpt>
      <trkpt lat="42.893557" lon="-8.448036">
        <ele>347.7</ele>
        <time>2023-08-16T05:00:36Z</time>
      </trkpt>
      <trkpt lat="42.893398" lon="-8.448115">
        <ele>347.1</ele>
        <time>2023-08-16T05:00:51Z</time>
      </trkpt>
      <trkpt lat="42.893253" lon="-8.448259">
        <ele>343.1</ele>
        <time>2023-08-16T05:01:05Z</time>
      </trkpt>
      <trkpt lat="42.893113" lon="-8.448423">
        <ele>345.0</ele>
        <time>2023-08-16T05:01:19Z</time>
      </trkpt>
      <trkpt lat="42.892976" lon="-8.448586">
        <ele>345.9</ele>
        <time>2023-08-16T05:01:33Z</time>
      </trkpt>
      <trkpt lat="42.892840" lon="-8.448755">
        <ele>344.0</ele>
        <time>2023-08-16T05:01:47Z</time>
      </trkpt>
      <trkpt lat="42.892718" lon="-8.448936">
        <ele>343.0</ele>
        <time>2023-08-16T05:02:02Z</time>
      </trkpt>
      <trkpt lat="42.892568" lon="-8.449093">
        <ele>350.4</ele>
        <time>2023-08-16T05:02:17Z</time>
      </trkpt>
      <trkpt lat="42.892453" lon="-8.449294">
        <ele>350.4</ele>
        <time>2023-08-16T05:02:29Z</time>
      </trkpt>
      <trkpt lat="42.892336" lon="-8.449482">
        <ele>350.4</ele>
        <time>2023-08-16T05:02:42Z</time>
      </trkpt>
      <trkpt lat="42.892236" lon="-8.449686">
        <ele>350.4</ele>
        <time>2023-08-16T05:02:56Z</time>
      </trkpt>
      <trkpt lat="42.892097" lon="-8.449845">
        <ele>350.4</ele>
        <time>2023-08-16T05:03:09Z</time>
      </trkpt>
      <trkpt lat="42.891908" lon="-8.449826">
        <ele>351.4</ele>
        <time>2023-08-16T05:03:22Z</time>
      </trkpt>
      <trkpt lat="42.891584" lon="-8.449643">
        <ele>351.4</ele>
        <time>2023-08-16T05:03:35Z</time>
      </trkpt>
      <trkpt lat="42.891569" lon="-8.449813">
        <ele>350.3</ele>
        <time>2023-08-16T05:03:58Z</time>
      </trkpt>
      <trkpt lat="42.891540" lon="-8.450055">
        <ele>350.0</ele>
        <time>2023-08-16T05:04:11Z</time>
      </trkpt>
      <trkpt lat="42.891473" lon="-8.450293">
        <ele>349.0</ele>
        <time>2023-08-16T05:04:28Z</time>
      </trkpt>
      <trkpt lat="42.891427" lon="-8.450538">
        <ele>350.0</ele>
        <time>2023-08-16T05:04:39Z</time>
      </trkpt>
      <trkpt lat="42.891422" lon="-8.450805">
        <ele>353.9</ele>
        <time>2023-08-16T05:04:52Z</time>
      </trkpt>
      <trkpt lat="42.891456" lon="-8.451047">
        <ele>353.9</ele>
        <time>2023-08-16T05:05:06Z</time>
      </trkpt>
      <trkpt lat="42.891448" lon="-8.451286">
        <ele>353.8</ele>
        <time>2023-08-16T05:05:18Z</time>
      </trkpt>
      <trkpt lat="42.891429" lon="-8.451521">
        <ele>353.7</ele>
        <time>2023-08-16T05:05:33Z</time>
      </trkpt>
      <trkpt lat="42.891403" lon="-8.451771">
        <ele>353.7</ele>
        <time>2023-08-16T05:05:49Z</time>
      </trkpt>
      <trkpt lat="42.891403" lon="-8.452024">
        <ele>356.9</ele>
        <time>2023-08-16T05:06:02Z</time>
      </trkpt>
      <trkpt lat="42.891378" lon="-8.452268">
        <ele>358.3</ele>
        <time>2023-08-16T05:06:15Z</time>
      </trkpt>
      <trkpt lat="42.891385" lon="-8.452525">
        <ele>354.4</ele>
        <time>2023-08-16T05:06:30Z</time>
      </trkpt>
      <trkpt lat="42.891265" lon="-8.452712">
        <ele>356.0</ele>
        <time>2023-08-16T05:06:46Z</time>
      </trkpt>
      <trkpt lat="42.891126" lon="-8.452881">
        <ele>359.9</ele>
        <time>2023-08-16T05:07:01Z</time>
      </trkpt>
      <trkpt lat="42.890994" lon="-8.453037">
        <ele>359.9</ele>
        <time>2023-08-16T05:07:15Z</time>
      </trkpt>
      <trkpt lat="42.890950" lon="-8.453286">
        <ele>359.9</ele>
        <time>2023-08-16T05:07:28Z</time>
      </trkpt>
      <trkpt lat="42.890952" lon="-8.453537">
        <ele>362.6</ele>
        <time>2023-08-16T05:07:41Z</time>
      </trkpt>
      <trkpt lat="42.890937" lon="-8.453788">
        <ele>362.6</ele>
        <time>2023-08-16T05:07:54Z</time>
      </trkpt>
      <trkpt lat="42.890927" lon="-8.454040">
        <ele>362.6</ele>
        <time>2023-08-16T05:08:07Z</time>
      </trkpt>
      <trkpt lat="42.890932" lon="-8.454289">
        <ele>366.1</ele>
        <time>2023-08-16T05:08:21Z</time>
      </trkpt>
      <trkpt lat="42.890905" lon="-8.454532">
        <ele>366.1</ele>
        <time>2023-08-16T05:08:35Z</time>
      </trkpt>
      <trkpt lat="42.890864" lon="-8.454774">
        <ele>366.1</ele>
        <time>2023-08-16T05:08:48Z</time>
      </trkpt>
      <trkpt lat="42.890750" lon="-8.454973">
        <ele>366.1</ele>
        <time>2023-08-16T05:09:02Z</time>
      </trkpt>
      <trkpt lat="42.890628" lon="-8.455161">
        <ele>367.7</ele>
        <time>2023-08-16T05:09:15Z</time>
      </trkpt>
      <trkpt lat="42.890510" lon="-8.455358">
        <ele>368.4</ele>
        <time>2023-08-16T05:09:30Z</time>
      </trkpt>
      <trkpt lat="42.890401" lon="-8.455598">
        <ele>368.4</ele>
        <time>2023-08-16T05:09:45Z</time>
      </trkpt>
      <trkpt lat="42.890345" lon="-8.455835">
        <ele>368.4</ele>
        <time>2023-08-16T05:09:58Z</time>
      </trkpt>
      <trkpt lat="42.890265" lon="-8.456061">
        <ele>368.4</ele>
        <time>2023-08-16T05:10:12Z</time>
      </trkpt>
      <trkpt lat="42.890187" lon="-8.456282">
        <ele>370.1</ele>
        <time>2023-08-16T05:10:25Z</time>
      </trkpt>
      <trkpt lat="42.890166" lon="-8.456531">
        <ele>372.1</ele>
        <time>2023-08-16T05:10:37Z</time>
      </trkpt>
      <trkpt lat="42.890123" lon="-8.456771">
        <ele>372.1</ele>
        <time>2023-08-16T05:10:52Z</time>
      </trkpt>
      <trkpt lat="42.890114" lon="-8.457020">
        <ele>372.1</ele>
        <time>2023-08-16T05:11:05Z</time>
      </trkpt>
      <trkpt lat="42.890105" lon="-8.457273">
        <ele>372.1</ele>
        <time>2023-08-16T05:11:21Z</time>
      </trkpt>
      <trkpt lat="42.890126" lon="-8.457527">
        <ele>372.1</ele>
        <time>2023-08-16T05:11:37Z</time>
      </trkpt>
      <trkpt lat="42.890172" lon="-8.457765">
        <ele>372.1</ele>
        <time>2023-08-16T05:11:49Z</time>
      </trkpt>
      <trkpt lat="42.890249" lon="-8.457999">
        <ele>376.3</ele>
        <time>2023-08-16T05:12:01Z</time>
      </trkpt>
      <trkpt lat="42.890326" lon="-8.458217">
        <ele>376.6</ele>
        <time>2023-08-16T05:12:16Z</time>
      </trkpt>
      <trkpt lat="42.890390" lon="-8.458473">
        <ele>376.7</ele>
        <time>2023-08-16T05:12:30Z</time>
      </trkpt>
      <trkpt lat="42.890392" lon="-8.458731">
        <ele>376.7</ele>
        <time>2023-08-16T05:12:43Z</time>
      </trkpt>
      <trkpt lat="42.890437" lon="-8.458964">
        <ele>376.7</ele>
        <time>2023-08-16T05:12:57Z</time>
      </trkpt>
      <trkpt lat="42.890473" lon="-8.459206">
        <ele>376.7</ele>
        <time>2023-08-16T05:13:11Z</time>
      </trkpt>
      <trkpt lat="42.890491" lon="-8.459454">
        <ele>376.7</ele>
        <time>2023-08-16T05:13:25Z</time>
      </trkpt>
      <trkpt lat="42.890553" lon="-8.459699">
        <ele>376.7</ele>
        <time>2023-08-16T05:13:37Z</time>
      </trkpt>
      <trkpt lat="42.890597" lon="-8.459942">
        <ele>384.8</ele>
        <time>2023-08-16T05:13:51Z</time>
      </trkpt>
      <trkpt lat="42.890598" lon="-8.460194">
        <ele>386.0</ele>
        <time>2023-08-16T05:14:07Z</time>
      </trkpt>
      <trkpt lat="42.890574" lon="-8.460437">
        <ele>385.0</ele>
        <time>2023-08-16T05:14:23Z</time>
      </trkpt>
      <trkpt lat="42.890538" lon="-8.460690">
        <ele>383.3</ele>
        <time>2023-08-16T05:14:37Z</time>
      </trkpt>
      <trkpt lat="42.890480" lon="-8.460924">
        <ele>384.0</ele>
        <time>2023-08-16T05:14:51Z</time>
      </trkpt>
      <trkpt lat="42.890447" lon="-8.461170">
        <ele>386.7</ele>
        <time>2023-08-16T05:15:05Z</time>
      </trkpt>
      <trkpt lat="42.890412" lon="-8.461409">
        <ele>385.1</ele>
        <time>2023-08-16T05:15:22Z</time>
      </trkpt>
      <trkpt lat="42.890390" lon="-8.461655">
        <ele>382.0</ele>
        <time>2023-08-16T05:15:34Z</time>
      </trkpt>
      <trkpt lat="42.890379" lon="-8.461926">
        <ele>375.3</ele>
        <time>2023-08-16T05:15:47Z</time>
      </trkpt>
      <trkpt lat="42.890386" lon="-8.462185">
        <ele>377.0</ele>
        <time>2023-08-16T05:15:58Z</time>
      </trkpt>
      <trkpt lat="42.890403" lon="-8.462410">
        <ele>379.0</ele>
        <time>2023-08-16T05:16:11Z</time>
      </trkpt>
      <trkpt lat="42.890399" lon="-8.462659">
        <ele>378.3</ele>
        <time>2023-08-16T05:16:23Z</time>
      </trkpt>
      <trkpt lat="42.890403" lon="-8.462912">
        <ele>379.9</ele>
        <time>2023-08-16T05:16:37Z</time>
      </trkpt>
      <trkpt lat="42.890390" lon="-8.463166">
        <ele>383.0</ele>
        <time>2023-08-16T05:16:49Z</time>
      </trkpt>
      <trkpt lat="42.890412" lon="-8.463420">
        <ele>382.0</ele>
        <time>2023-08-16T05:17:04Z</time>
      </trkpt>
      <trkpt lat="42.890432" lon="-8.463662">
        <ele>385.0</ele>
        <time>2023-08-16T05:17:17Z</time>
      </trkpt>
      <trkpt lat="42.890458" lon="-8.463926">
        <ele>385.7</ele>
        <time>2023-08-16T05:17:32Z</time>
      </trkpt>
      <trkpt lat="42.890493" lon="-8.464169">
        <ele>387.0</ele>
        <time>2023-08-16T05:17:46Z</time>
      </trkpt>
      <trkpt lat="42.890562" lon="-8.464397">
        <ele>388.0</ele>
        <time>2023-08-16T05:18:00Z</time>
      </trkpt>
      <trkpt lat="42.890594" lon="-8.464667">
        <ele>388.7</ele>
        <time>2023-08-16T05:18:12Z</time>
      </trkpt>
      <trkpt lat="42.890620" lon="-8.464903">
        <ele>388.0</ele>
        <time>2023-08-16T05:18:26Z</time>
      </trkpt>
      <trkpt lat="42.890654" lon="-8.465140">
        <ele>387.1</ele>
        <time>2023-08-16T05:18:38Z</time>
      </trkpt>
      <trkpt lat="42.890683" lon="-8.465383">
        <ele>386.0</ele>
        <time>2023-08-16T05:18:52Z</time>
      </trkpt>
      <trkpt lat="42.890728" lon="-8.465617">
        <ele>384.3</ele>
        <time>2023-08-16T05:19:05Z</time>
      </trkpt>
      <trkpt lat="42.890750" lon="-8.465868">
        <ele>385.0</ele>
        <time>2023-08-16T05:20:03Z</time>
      </trkpt>
      <trkpt lat="42.890791" lon="-8.466117">
        <ele>383.1</ele>
        <time>2023-08-16T05:20:15Z</time>
      </trkpt>
      <trkpt lat="42.890838" lon="-8.466359">
        <ele>384.0</ele>
        <time>2023-08-16T05:20:26Z</time>
      </trkpt>
      <trkpt lat="42.890877" lon="-8.466602">
        <ele>383.0</ele>
        <time>2023-08-16T05:20:40Z</time>
      </trkpt>
      <trkpt lat="42.890903" lon="-8.466859">
        <ele>385.1</ele>
        <time>2023-08-16T05:20:55Z</time>
      </trkpt>
      <trkpt lat="42.890932" lon="-8.467108">
        <ele>386.1</ele>
        <time>2023-08-16T05:21:07Z</time>
      </trkpt>
      <trkpt lat="42.890957" lon="-8.467359">
        <ele>387.0</ele>
        <time>2023-08-16T05:21:21Z</time>
      </trkpt>
      <trkpt lat="42.890988" lon="-8.467604">
        <ele>387.0</ele>
        <time>2023-08-16T05:21:36Z</time>
      </trkpt>
      <trkpt lat="42.891021" lon="-8.467867">
        <ele>387.0</ele>
        <time>2023-08-16T05:21:50Z</time>
      </trkpt>
      <trkpt lat="42.891045" lon="-8.468117">
        <ele>385.0</ele>
        <time>2023-08-16T05:22:04Z</time>
      </trkpt>
      <trkpt lat="42.891090" lon="-8.468368">
        <ele>385.1</ele>
        <time>2023-08-16T05:22:17Z</time>
      </trkpt>
      <trkpt lat="42.891123" lon="-8.468595">
        <ele>387.0</ele>
        <time>2023-08-16T05:22:31Z</time>
      </trkpt>
      <trkpt lat="42.891163" lon="-8.468838">
        <ele>390.0</ele>
        <time>2023-08-16T05:22:46Z</time>
      </trkpt>
      <trkpt lat="42.891190" lon="-8.469083">
        <ele>389.0</ele>
        <time>2023-08-16T05:23:01Z</time>
      </trkpt>
      <trkpt lat="42.891227" lon="-8.469332">
        <ele>399.7</ele>
        <time>2023-08-16T05:23:13Z</time>
      </trkpt>
      <trkpt lat="42.891284" lon="-8.469569">
        <ele>399.7</ele>
        <time>2023-08-16T05:23:27Z</time>
      </trkpt>
      <trkpt lat="42.891307" lon="-8.469812">
        <ele>399.7</ele>
        <time>2023-08-16T05:23:40Z</time>
      </trkpt>
      <trkpt lat="42.891346" lon="-8.470059">
        <ele>399.7</ele>
        <time>2023-08-16T05:23:53Z</time>
      </trkpt>
      <trkpt lat="42.891396" lon="-8.470320">
        <ele>399.7</ele>
        <time>2023-08-16T05:24:07Z</time>
      </trkpt>
      <trkpt lat="42.891443" lon="-8.470560">
        <ele>399.7</ele>
        <time>2023-08-16T05:24:23Z</time>
      </trkpt>
      <trkpt lat="42.891478" lon="-8.470811">
        <ele>399.7</ele>
        <time>2023-08-16T05:24:37Z</time>
      </trkpt>
      <trkpt lat="42.891512" lon="-8.471066">
        <ele>399.7</ele>
        <time>2023-08-16T05:24:52Z</time>
      </trkpt>
      <trkpt lat="42.891554" lon="-8.471313">
        <ele>399.7</ele>
        <time>2023-08-16T05:25:05Z</time>
      </trkpt>
      <trkpt lat="42.891581" lon="-8.471559">
        <ele>399.7</ele>
        <time>2023-08-16T05:25:19Z</time>
      </trkpt>
      <trkpt lat="42.891605" lon="-8.471820">
        <ele>399.7</ele>
        <time>2023-08-16T05:25:33Z</time>
      </trkpt>
      <trkpt lat="42.891634" lon="-8.472075">
        <ele>389.5</ele>
        <time>2023-08-16T05:25:48Z</time>
      </trkpt>
      <trkpt lat="42.891677" lon="-8.472324">
        <ele>384.7</ele>
        <time>2023-08-16T05:26:03Z</time>
      </trkpt>
      <trkpt lat="42.891717" lon="-8.472568">
        <ele>384.1</ele>
        <time>2023-08-16T05:26:16Z</time>
      </trkpt>
      <trkpt lat="42.891735" lon="-8.472819">
        <ele>383.0</ele>
        <time>2023-08-16T05:26:30Z</time>
      </trkpt>
      <trkpt lat="42.891769" lon="-8.473062">
        <ele>383.0</ele>
        <time>2023-08-16T05:26:44Z</time>
      </trkpt>
      <trkpt lat="42.891801" lon="-8.473306">
        <ele>384.1</ele>
        <time>2023-08-16T05:26:58Z</time>
      </trkpt>
      <trkpt lat="42.891838" lon="-8.473553">
        <ele>383.0</ele>
        <time>2023-08-16T05:27:11Z</time>
      </trkpt>
      <trkpt lat="42.891851" lon="-8.473805">
        <ele>381.0</ele>
        <time>2023-08-16T05:27:25Z</time>
      </trkpt>
      <trkpt lat="42.891876" lon="-8.474054">
        <ele>382.0</ele>
        <time>2023-08-16T05:27:43Z</time>
      </trkpt>
      <trkpt lat="42.891911" lon="-8.474311">
        <ele>381.4</ele>
        <time>2023-08-16T05:27:57Z</time>
      </trkpt>
      <trkpt lat="42.891923" lon="-8.474564">
        <ele>381.0</ele>
        <time>2023-08-16T05:28:11Z</time>
      </trkpt>
      <trkpt lat="42.891971" lon="-8.474805">
        <ele>381.4</ele>
        <time>2023-08-16T05:28:26Z</time>
      </trkpt>
      <trkpt lat="42.891995" lon="-8.475056">
        <ele>381.4</ele>
        <time>2023-08-16T05:28:39Z</time>
      </trkpt>
      <trkpt lat="42.892023" lon="-8.475308">
        <ele>382.0</ele>
        <time>2023-08-16T05:28:53Z</time>
      </trkpt>
      <trkpt lat="42.892050" lon="-8.475559">
        <ele>383.0</ele>
        <time>2023-08-16T05:29:07Z</time>
      </trkpt>
      <trkpt lat="42.892094" lon="-8.475797">
        <ele>381.0</ele>
        <time>2023-08-16T05:29:30Z</time>
      </trkpt>
      <trkpt lat="42.892133" lon="-8.476038">
        <ele>380.0</ele>
        <time>2023-08-16T05:29:50Z</time>
      </trkpt>
      <trkpt lat="42.892162" lon="-8.476281">
        <ele>380.0</ele>
        <time>2023-08-16T05:30:04Z</time>
      </trkpt>
      <trkpt lat="42.892311" lon="-8.476528">
        <ele>380.2</ele>
        <time>2023-08-16T05:30:22Z</time>
      </trkpt>
      <trkpt lat="42.892302" lon="-8.476599">
        <ele>380.2</ele>
        <time>2023-08-16T05:30:41Z</time>
      </trkpt>
      <trkpt lat="42.891923" lon="-8.476517">
        <ele>380.2</ele>
        <time>2023-08-16T05:30:48Z</time>
      </trkpt>
      <trkpt lat="42.891720" lon="-8.476455">
        <ele>380.2</ele>
        <time>2023-08-16T05:31:02Z</time>
      </trkpt>
      <trkpt lat="42.891563" lon="-8.476392">
        <ele>380.2</ele>
        <time>2023-08-16T05:31:21Z</time>
      </trkpt>
      <trkpt lat="42.891389" lon="-8.476350">
        <ele>380.3</ele>
        <time>2023-08-16T05:31:34Z</time>
      </trkpt>
      <trkpt lat="42.891215" lon="-8.476309">
        <ele>381.3</ele>
        <time>2023-08-16T05:31:50Z</time>
      </trkpt>
      <trkpt lat="42.891016" lon="-8.476260">
        <ele>381.8</ele>
        <time>2023-08-16T05:32:03Z</time>
      </trkpt>
      <trkpt lat="42.890828" lon="-8.476197">
        <ele>381.8</ele>
        <time>2023-08-16T05:32:16Z</time>
      </trkpt>
      <trkpt lat="42.890573" lon="-8.476154">
        <ele>381.8</ele>
        <time>2023-08-16T05:32:30Z</time>
      </trkpt>
      <trkpt lat="42.890522" lon="-8.476209">
        <ele>383.9</ele>
        <time>2023-08-16T05:32:45Z</time>
      </trkpt>
      <trkpt lat="42.890516" lon="-8.476632">
        <ele>383.8</ele>
        <time>2023-08-16T05:32:57Z</time>
      </trkpt>
      <trkpt lat="42.890528" lon="-8.476881">
        <ele>383.9</ele>
        <time>2023-08-16T05:33:10Z</time>
      </trkpt>
      <trkpt lat="42.890531" lon="-8.477146">
        <ele>380.0</ele>
        <time>2023-08-16T05:33:26Z</time>
      </trkpt>
      <trkpt lat="42.890536" lon="-8.477395">
        <ele>378.1</ele>
        <time>2023-08-16T05:33:40Z</time>
      </trkpt>
      <trkpt lat="42.890553" lon="-8.477641">
        <ele>378.0</ele>
        <time>2023-08-16T05:33:54Z</time>
      </trkpt>
      <trkpt lat="42.890565" lon="-8.477898">
        <ele>378.0</ele>
        <time>2023-08-16T05:34:08Z</time>
      </trkpt>
      <trkpt lat="42.890577" lon="-8.478148">
        <ele>376.0</ele>
        <time>2023-08-16T05:34:22Z</time>
      </trkpt>
      <trkpt lat="42.890581" lon="-8.478410">
        <ele>378.0</ele>
        <time>2023-08-16T05:34:36Z</time>
      </trkpt>
      <trkpt lat="42.890574" lon="-8.478673">
        <ele>376.0</ele>
        <time>2023-08-16T05:34:51Z</time>
      </trkpt>
      <trkpt lat="42.890558" lon="-8.478923">
        <ele>373.1</ele>
        <time>2023-08-16T05:35:05Z</time>
      </trkpt>
      <trkpt lat="42.890574" lon="-8.479172">
        <ele>371.0</ele>
        <time>2023-08-16T05:35:18Z</time>
      </trkpt>
      <trkpt lat="42.890569" lon="-8.479430">
        <ele>372.8</ele>
        <time>2023-08-16T05:35:32Z</time>
      </trkpt>
      <trkpt lat="42.890587" lon="-8.479681">
        <ele>375.0</ele>
        <time>2023-08-16T05:35:45Z</time>
      </trkpt>
      <trkpt lat="42.890595" lon="-8.479935">
        <ele>373.1</ele>
        <time>2023-08-16T05:35:58Z</time>
      </trkpt>
      <trkpt lat="42.890601" lon="-8.480180">
        <ele>375.0</ele>
        <time>2023-08-16T05:36:11Z</time>
      </trkpt>
      <trkpt lat="42.890605" lon="-8.480434">
        <ele>377.0</ele>
        <time>2023-08-16T05:36:25Z</time>
      </trkpt>
      <trkpt lat="42.890600" lon="-8.480695">
        <ele>379.0</ele>
        <time>2023-08-16T05:36:40Z</time>
      </trkpt>
      <trkpt lat="42.890615" lon="-8.480969">
        <ele>381.4</ele>
        <time>2023-08-16T05:36:55Z</time>
      </trkpt>
      <trkpt lat="42.890627" lon="-8.481214">
        <ele>383.0</ele>
        <time>2023-08-16T05:37:08Z</time>
      </trkpt>
      <trkpt lat="42.890633" lon="-8.481467">
        <ele>383.1</ele>
        <time>2023-08-16T05:37:22Z</time>
      </trkpt>
      <trkpt lat="42.890649" lon="-8.481722">
        <ele>384.1</ele>
        <time>2023-08-16T05:37:36Z</time>
      </trkpt>
      <trkpt lat="42.890661" lon="-8.481979">
        <ele>385.1</ele>
        <time>2023-08-16T05:37:51Z</time>
      </trkpt>
      <trkpt lat="42.890671" lon="-8.482212">
        <ele>384.8</ele>
        <time>2023-08-16T05:39:15Z</time>
      </trkpt>
      <trkpt lat="42.890676" lon="-8.482469">
        <ele>383.1</ele>
        <time>2023-08-16T05:39:27Z</time>
      </trkpt>
      <trkpt lat="42.890674" lon="-8.482725">
        <ele>384.1</ele>
        <time>2023-08-16T05:39:40Z</time>
      </trkpt>
      <trkpt lat="42.890691" lon="-8.482973">
        <ele>384.0</ele>
        <time>2023-08-16T05:39:52Z</time>
      </trkpt>
      <trkpt lat="42.890703" lon="-8.483226">
        <ele>383.0</ele>
        <time>2023-08-16T05:40:06Z</time>
      </trkpt>
      <trkpt lat="42.890709" lon="-8.483482">
        <ele>381.1</ele>
        <time>2023-08-16T05:40:20Z</time>
      </trkpt>
      <trkpt lat="42.890708" lon="-8.483733">
        <ele>382.1</ele>
        <time>2023-08-16T05:40:33Z</time>
      </trkpt>
      <trkpt lat="42.890719" lon="-8.483987">
        <ele>383.9</ele>
        <time>2023-08-16T05:40:46Z</time>
      </trkpt>
      <trkpt lat="42.890727" lon="-8.484233">
        <ele>381.4</ele>
        <time>2023-08-16T05:41:00Z</time>
      </trkpt>
      <trkpt lat="42.890729" lon="-8.484482">
        <ele>380.9</ele>
        <time>2023-08-16T05:41:15Z</time>
      </trkpt>
      <trkpt lat="42.890749" lon="-8.484730">
        <ele>380.1</ele>
        <time>2023-08-16T05:41:29Z</time>
      </trkpt>
      <trkpt lat="42.890761" lon="-8.484979">
        <ele>379.1</ele>
        <time>2023-08-16T05:41:42Z</time>
      </trkpt>
      <trkpt lat="42.890774" lon="-8.485236">
        <ele>377.1</ele>
        <time>2023-08-16T05:41:56Z</time>
      </trkpt>
      <trkpt lat="42.890766" lon="-8.485484">
        <ele>377.1</ele>
        <time>2023-08-16T05:42:10Z</time>
      </trkpt>
      <trkpt lat="42.890774" lon="-8.485745">
        <ele>375.1</ele>
        <time>2023-08-16T05:42:24Z</time>
      </trkpt>
      <trkpt lat="42.890765" lon="-8.485877">
        <ele>374.0</ele>
        <time>2023-08-16T05:42:40Z</time>
      </trkpt>
      <trkpt lat="42.890592" lon="-8.486085">
        <ele>377.0</ele>
        <time>2023-08-16T05:42:58Z</time>
      </trkpt>
      <trkpt lat="42.890615" lon="-8.486435">
        <ele>373.1</ele>
        <time>2023-08-16T05:43:10Z</time>
      </trkpt>
      <trkpt lat="42.890653" lon="-8.486679">
        <ele>367.5</ele>
        <time>2023-08-16T05:43:24Z</time>
      </trkpt>
      <trkpt lat="42.890703" lon="-8.486915">
        <ele>365.1</ele>
        <time>2023-08-16T05:43:37Z</time>
      </trkpt>
      <trkpt lat="42.890762" lon="-8.487153">
        <ele>363.1</ele>
        <time>2023-08-16T05:43:51Z</time>
      </trkpt>
      <trkpt lat="42.890813" lon="-8.487376">
        <ele>362.1</ele>
        <time>2023-08-16T05:44:05Z</time>
      </trkpt>
      <trkpt lat="42.890995" lon="-8.487436">
        <ele>364.2</ele>
        <time>2023-08-16T05:44:31Z</time>
      </trkpt>
      <trkpt lat="42.891205" lon="-8.487464">
        <ele>359.1</ele>
        <time>2023-08-16T05:44:47Z</time>
      </trkpt>
      <trkpt lat="42.891364" lon="-8.487599">
        <ele>358.1</ele>
        <time>2023-08-16T05:45:00Z</time>
      </trkpt>
      <trkpt lat="42.891518" lon="-8.487774">
        <ele>358.0</ele>
        <time>2023-08-16T05:45:12Z</time>
      </trkpt>
      <trkpt lat="42.891488" lon="-8.488037">
        <ele>360.1</ele>
        <time>2023-08-16T05:45:25Z</time>
      </trkpt>
      <trkpt lat="42.891453" lon="-8.488297">
        <ele>363.1</ele>
        <time>2023-08-16T05:45:39Z</time>
      </trkpt>
      <trkpt lat="42.891408" lon="-8.488555">
        <ele>362.2</ele>
        <time>2023-08-16T05:45:52Z</time>
      </trkpt>
      <trkpt lat="42.891373" lon="-8.488799">
        <ele>361.2</ele>
        <time>2023-08-16T05:46:06Z</time>
      </trkpt>
      <trkpt lat="42.891351" lon="-8.489049">
        <ele>362.1</ele>
        <time>2023-08-16T05:46:19Z</time>
      </trkpt>
      <trkpt lat="42.891292" lon="-8.489295">
        <ele>363.1</ele>
        <time>2023-08-16T05:46:32Z</time>
      </trkpt>
      <trkpt lat="42.891213" lon="-8.489520">
        <ele>364.1</ele>
        <time>2023-08-16T05:46:46Z</time>
      </trkpt>
      <trkpt lat="42.891124" lon="-8.489752">
        <ele>364.8</ele>
        <time>2023-08-16T05:47:00Z</time>
      </trkpt>
      <trkpt lat="42.891051" lon="-8.489992">
        <ele>363.1</ele>
        <time>2023-08-16T05:47:13Z</time>
      </trkpt>
      <trkpt lat="42.890995" lon="-8.490244">
        <ele>362.1</ele>
        <time>2023-08-16T05:47:27Z</time>
      </trkpt>
      <trkpt lat="42.890932" lon="-8.490493">
        <ele>363.0</ele>
        <time>2023-08-16T05:47:41Z</time>
      </trkpt>
      <trkpt lat="42.890873" lon="-8.490733">
        <ele>364.0</ele>
        <time>2023-08-16T05:47:55Z</time>
      </trkpt>
      <trkpt lat="42.890828" lon="-8.490978">
        <ele>365.1</ele>
        <time>2023-08-16T05:48:08Z</time>
      </trkpt>
      <trkpt lat="42.890803" lon="-8.491223">
        <ele>365.1</ele>
        <time>2023-08-16T05:48:21Z</time>
      </trkpt>
      <trkpt lat="42.890726" lon="-8.491458">
        <ele>366.1</ele>
        <time>2023-08-16T05:48:35Z</time>
      </trkpt>
      <trkpt lat="42.890640" lon="-8.491682">
        <ele>368.7</ele>
        <time>2023-08-16T05:48:48Z</time>
      </trkpt>
      <trkpt lat="42.890554" lon="-8.491905">
        <ele>367.1</ele>
        <time>2023-08-16T05:49:01Z</time>
      </trkpt>
      <trkpt lat="42.890461" lon="-8.492126">
        <ele>368.1</ele>
        <time>2023-08-16T05:49:15Z</time>
      </trkpt>
      <trkpt lat="42.890372" lon="-8.492357">
        <ele>368.1</ele>
        <time>2023-08-16T05:49:29Z</time>
      </trkpt>
      <trkpt lat="42.890270" lon="-8.492572">
        <ele>370.8</ele>
        <time>2023-08-16T05:49:43Z</time>
      </trkpt>
      <trkpt lat="42.890165" lon="-8.492774">
        <ele>371.4</ele>
        <time>2023-08-16T05:50:01Z</time>
      </trkpt>
      <trkpt lat="42.890074" lon="-8.492992">
        <ele>370.1</ele>
        <time>2023-08-16T05:50:19Z</time>
      </trkpt>
      <trkpt lat="42.890020" lon="-8.493229">
        <ele>367.1</ele>
        <time>2023-08-16T05:50:43Z</time>
      </trkpt>
      <trkpt lat="42.889942" lon="-8.493467">
        <ele>369.0</ele>
        <time>2023-08-16T05:50:58Z</time>
      </trkpt>
      <trkpt lat="42.889864" lon="-8.493699">
        <ele>370.1</ele>
        <time>2023-08-16T05:51:11Z</time>
      </trkpt>
      <trkpt lat="42.889780" lon="-8.493925">
        <ele>371.0</ele>
        <time>2023-08-16T05:51:28Z</time>
      </trkpt>
      <trkpt lat="42.889722" lon="-8.494174">
        <ele>373.1</ele>
        <time>2023-08-16T05:51:43Z</time>
      </trkpt>
      <trkpt lat="42.889519" lon="-8.494221">
        <ele>373.8</ele>
        <time>2023-08-16T05:52:22Z</time>
      </trkpt>
      <trkpt lat="42.889317" lon="-8.494284">
        <ele>375.0</ele>
        <time>2023-08-16T05:52:36Z</time>
      </trkpt>
      <trkpt lat="42.889165" lon="-8.494227">
        <ele>373.9</ele>
        <time>2023-08-16T05:53:03Z</time>
      </trkpt>
      <trkpt lat="42.889160" lon="-8.493964">
        <ele>375.1</ele>
        <time>2023-08-16T05:53:17Z</time>
      </trkpt>
      <trkpt lat="42.889083" lon="-8.493733">
        <ele>379.0</ele>
        <time>2023-08-16T05:53:30Z</time>
      </trkpt>
      <trkpt lat="42.888940" lon="-8.493649">
        <ele>377.8</ele>
        <time>2023-08-16T05:55:12Z</time>
      </trkpt>
      <trkpt lat="42.888984" lon="-8.493599">
        <ele>373.8</ele>
        <time>2023-08-16T05:55:40Z</time>
      </trkpt>
      <trkpt lat="42.889097" lon="-8.493415">
        <ele>377.0</ele>
        <time>2023-08-16T05:55:55Z</time>
      </trkpt>
      <trkpt lat="42.889040" lon="-8.493207">
        <ele>377.1</ele>
        <time>2023-08-16T05:56:09Z</time>
      </trkpt>
      <trkpt lat="42.888950" lon="-8.493303">
        <ele>373.7</ele>
        <time>2023-08-16T05:58:41Z</time>
      </trkpt>
      <trkpt lat="42.888855" lon="-8.493459">
        <ele>377.1</ele>
        <time>2023-08-16T05:58:59Z</time>
      </trkpt>
      <trkpt lat="42.888802" lon="-8.493582">
        <ele>374.4</ele>
        <time>2023-08-16T05:59:12Z</time>
      </trkpt>
      <trkpt lat="42.888673" lon="-8.493772">
        <ele>374.3</ele>
        <time>2023-08-16T05:59:39Z</time>
      </trkpt>
      <trkpt lat="42.888831" lon="-8.493822">
        <ele>377.1</ele>
        <time>2023-08-16T06:00:18Z</time>
      </trkpt>
      <trkpt lat="42.889010" lon="-8.494022">
        <ele>376.1</ele>
        <time>2023-08-16T06:00:33Z</time>
      </trkpt>
      <trkpt lat="42.889167" lon="-8.494289">
        <ele>376.7</ele>
        <time>2023-08-16T06:01:29Z</time>
      </trkpt>
      <trkpt lat="42.889307" lon="-8.494323">
        <ele>374.4</ele>
        <time>2023-08-16T06:01:49Z</time>
      </trkpt>
      <trkpt lat="42.889503" lon="-8.494284">
        <ele>372.4</ele>
        <time>2023-08-16T06:02:03Z</time>
      </trkpt>
      <trkpt lat="42.889701" lon="-8.494250">
        <ele>370.0</ele>
        <time>2023-08-16T06:02:18Z</time>
      </trkpt>
      <trkpt lat="42.889609" lon="-8.494535">
        <ele>372.1</ele>
        <time>2023-08-16T06:02:33Z</time>
      </trkpt>
      <trkpt lat="42.889517" lon="-8.494770">
        <ele>371.1</ele>
        <time>2023-08-16T06:02:52Z</time>
      </trkpt>
      <trkpt lat="42.889418" lon="-8.494981">
        <ele>372.1</ele>
        <time>2023-08-16T06:03:05Z</time>
      </trkpt>
      <trkpt lat="42.889309" lon="-8.495197">
        <ele>368.3</ele>
        <time>2023-08-16T06:03:33Z</time>
      </trkpt>
      <trkpt lat="42.889220" lon="-8.495431">
        <ele>371.0</ele>
        <time>2023-08-16T06:03:47Z</time>
      </trkpt>
      <trkpt lat="42.889152" lon="-8.495663">
        <ele>370.1</ele>
        <time>2023-08-16T06:04:00Z</time>
      </trkpt>
      <trkpt lat="42.889057" lon="-8.495891">
        <ele>370.1</ele>
        <time>2023-08-16T06:04:14Z</time>
      </trkpt>
      <trkpt lat="42.888952" lon="-8.496206">
        <ele>370.1</ele>
        <time>2023-08-16T06:04:27Z</time>
      </trkpt>
      <trkpt lat="42.888868" lon="-8.496236">
        <ele>368.1</ele>
        <time>2023-08-16T06:04:41Z</time>
      </trkpt>
      <trkpt lat="42.888774" lon="-8.496538">
        <ele>366.0</ele>
        <time>2023-08-16T06:04:55Z</time>
      </trkpt>
      <trkpt lat="42.888690" lon="-8.496783">
        <ele>364.2</ele>
        <time>2023-08-16T06:05:09Z</time>
      </trkpt>
      <trkpt lat="42.888605" lon="-8.497008">
        <ele>363.1</ele>
        <time>2023-08-16T06:05:21Z</time>
      </trkpt>
      <trkpt lat="42.888530" lon="-8.497226">
        <ele>362.2</ele>
        <time>2023-08-16T06:05:35Z</time>
      </trkpt>
      <trkpt lat="42.888449" lon="-8.497462">
        <ele>360.1</ele>
        <time>2023-08-16T06:05:49Z</time>
      </trkpt>
      <trkpt lat="42.888368" lon="-8.497695">
        <ele>357.4</ele>
        <time>2023-08-16T06:06:03Z</time>
      </trkpt>
      <trkpt lat="42.888309" lon="-8.497932">
        <ele>353.1</ele>
        <time>2023-08-16T06:06:17Z</time>
      </trkpt>
      <trkpt lat="42.888245" lon="-8.498157">
        <ele>350.1</ele>
        <time>2023-08-16T06:06:31Z</time>
      </trkpt>
      <trkpt lat="42.888184" lon="-8.498400">
        <ele>349.1</ele>
        <time>2023-08-16T06:06:46Z</time>
      </trkpt>
      <trkpt lat="42.888112" lon="-8.498627">
        <ele>347.4</ele>
        <time>2023-08-16T06:06:58Z</time>
      </trkpt>
      <trkpt lat="42.888062" lon="-8.498883">
        <ele>346.2</ele>
        <time>2023-08-16T06:07:12Z</time>
      </trkpt>
      <trkpt lat="42.888045" lon="-8.499120">
        <ele>344.1</ele>
        <time>2023-08-16T06:07:26Z</time>
      </trkpt>
      <trkpt lat="42.887974" lon="-8.499358">
        <ele>339.4</ele>
        <time>2023-08-16T06:07:42Z</time>
      </trkpt>
      <trkpt lat="42.887908" lon="-8.499591">
        <ele>338.1</ele>
        <time>2023-08-16T06:07:56Z</time>
      </trkpt>
      <trkpt lat="42.887840" lon="-8.499815">
        <ele>335.1</ele>
        <time>2023-08-16T06:08:11Z</time>
      </trkpt>
      <trkpt lat="42.887739" lon="-8.499888">
        <ele>334.1</ele>
        <time>2023-08-16T06:08:26Z</time>
      </trkpt>
      <trkpt lat="42.887711" lon="-8.500297">
        <ele>332.1</ele>
        <time>2023-08-16T06:08:40Z</time>
      </trkpt>
      <trkpt lat="42.887744" lon="-8.500535">
        <ele>330.1</ele>
        <time>2023-08-16T06:08:54Z</time>
      </trkpt>
      <trkpt lat="42.887777" lon="-8.500782">
        <ele>329.1</ele>
        <time>2023-08-16T06:09:06Z</time>
      </trkpt>
      <trkpt lat="42.887807" lon="-8.501024">
        <ele>327.2</ele>
        <time>2023-08-16T06:09:20Z</time>
      </trkpt>
      <trkpt lat="42.887869" lon="-8.501290">
        <ele>321.4</ele>
        <time>2023-08-16T06:09:37Z</time>
      </trkpt>
      <trkpt lat="42.887906" lon="-8.501542">
        <ele>318.1</ele>
        <time>2023-08-16T06:09:52Z</time>
      </trkpt>
      <trkpt lat="42.887886" lon="-8.501791">
        <ele>315.5</ele>
        <time>2023-08-16T06:10:09Z</time>
      </trkpt>
      <trkpt lat="42.887814" lon="-8.502024">
        <ele>313.1</ele>
        <time>2023-08-16T06:10:25Z</time>
      </trkpt>
      <trkpt lat="42.887719" lon="-8.502246">
        <ele>311.1</ele>
        <time>2023-08-16T06:10:42Z</time>
      </trkpt>
      <trkpt lat="42.887671" lon="-8.502470">
        <ele>310.1</ele>
        <time>2023-08-16T06:10:55Z</time>
      </trkpt>
      <trkpt lat="42.887636" lon="-8.502559">
        <ele>311.1</ele>
        <time>2023-08-16T06:11:08Z</time>
      </trkpt>
      <trkpt lat="42.887619" lon="-8.502605">
        <ele>310.1</ele>
        <time>2023-08-16T06:11:24Z</time>
      </trkpt>
      <trkpt lat="42.887607" lon="-8.502648">
        <ele>314.7</ele>
        <time>2023-08-16T06:11:38Z</time>
      </trkpt>
      <trkpt lat="42.887592" lon="-8.502685">
        <ele>317.1</ele>
        <time>2023-08-16T06:11:51Z</time>
      </trkpt>
      <trkpt lat="42.887585" lon="-8.502722">
        <ele>315.4</ele>
        <time>2023-08-16T06:12:02Z</time>
      </trkpt>
      <trkpt lat="42.887573" lon="-8.502760">
        <ele>317.8</ele>
        <time>2023-08-16T06:13:11Z</time>
      </trkpt>
      <trkpt lat="42.887566" lon="-8.502785">
        <ele>320.1</ele>
        <time>2023-08-16T06:13:24Z</time>
      </trkpt>
      <trkpt lat="42.887553" lon="-8.502822">
        <ele>319.8</ele>
        <time>2023-08-16T06:13:39Z</time>
      </trkpt>
      <trkpt lat="42.887542" lon="-8.502855">
        <ele>313.1</ele>
        <time>2023-08-16T06:13:56Z</time>
      </trkpt>
      <trkpt lat="42.887507" lon="-8.503065">
        <ele>313.4</ele>
        <time>2023-08-16T06:14:17Z</time>
      </trkpt>
      <trkpt lat="42.887526" lon="-8.503320">
        <ele>313.1</ele>
        <time>2023-08-16T06:14:29Z</time>
      </trkpt>
      <trkpt lat="42.887460" lon="-8.503576">
        <ele>307.2</ele>
        <time>2023-08-16T06:15:03Z</time>
      </trkpt>
      <trkpt lat="42.887401" lon="-8.503817">
        <ele>305.1</ele>
        <time>2023-08-16T06:15:17Z</time>
      </trkpt>
      <trkpt lat="42.887365" lon="-8.504073">
        <ele>304.1</ele>
        <time>2023-08-16T06:15:31Z</time>
      </trkpt>
      <trkpt lat="42.887333" lon="-8.504332">
        <ele>304.1</ele>
        <time>2023-08-16T06:15:48Z</time>
      </trkpt>
      <trkpt lat="42.887213" lon="-8.504515">
        <ele>303.9</ele>
        <time>2023-08-16T06:16:01Z</time>
      </trkpt>
      <trkpt lat="42.887035" lon="-8.504605">
        <ele>303.0</ele>
        <time>2023-08-16T06:16:14Z</time>
      </trkpt>
      <trkpt lat="42.886853" lon="-8.504574">
        <ele>301.4</ele>
        <time>2023-08-16T06:16:29Z</time>
      </trkpt>
      <trkpt lat="42.886954" lon="-8.504780">
        <ele>295.1</ele>
        <time>2023-08-16T06:16:46Z</time>
      </trkpt>
      <trkpt lat="42.886890" lon="-8.505028">
        <ele>297.1</ele>
        <time>2023-08-16T06:17:00Z</time>
      </trkpt>
      <trkpt lat="42.886806" lon="-8.505265">
        <ele>295.2</ele>
        <time>2023-08-16T06:17:14Z</time>
      </trkpt>
      <trkpt lat="42.886763" lon="-8.505503">
        <ele>294.1</ele>
        <time>2023-08-16T06:17:27Z</time>
      </trkpt>
      <trkpt lat="42.886731" lon="-8.505763">
        <ele>293.0</ele>
        <time>2023-08-16T06:17:41Z</time>
      </trkpt>
      <trkpt lat="42.886700" lon="-8.506014">
        <ele>292.1</ele>
        <time>2023-08-16T06:17:54Z</time>
      </trkpt>
      <trkpt lat="42.886666" lon="-8.506258">
        <ele>291.1</ele>
        <time>2023-08-16T06:18:08Z</time>
      </trkpt>
      <trkpt lat="42.886630" lon="-8.506508">
        <ele>288.3</ele>
        <time>2023-08-16T06:18:22Z</time>
      </trkpt>
      <trkpt lat="42.886599" lon="-8.506762">
        <ele>286.1</ele>
        <time>2023-08-16T06:18:36Z</time>
      </trkpt>
      <trkpt lat="42.886568" lon="-8.507021">
        <ele>285.4</ele>
        <time>2023-08-16T06:18:50Z</time>
      </trkpt>
      <trkpt lat="42.886558" lon="-8.507268">
        <ele>283.4</ele>
        <time>2023-08-16T06:19:03Z</time>
      </trkpt>
      <trkpt lat="42.886549" lon="-8.507513">
        <ele>281.1</ele>
        <time>2023-08-16T06:19:16Z</time>
      </trkpt>
      <trkpt lat="42.886534" lon="-8.507770">
        <ele>279.2</ele>
        <time>2023-08-16T06:19:31Z</time>
      </trkpt>
      <trkpt lat="42.886540" lon="-8.508017">
        <ele>279.1</ele>
        <time>2023-08-16T06:19:43Z</time>
      </trkpt>
      <trkpt lat="42.886533" lon="-8.508284">
        <ele>279.1</ele>
        <time>2023-08-16T06:19:57Z</time>
      </trkpt>
      <trkpt lat="42.886536" lon="-8.508534">
        <ele>280.1</ele>
        <time>2023-08-16T06:20:11Z</time>
      </trkpt>
      <trkpt lat="42.886533" lon="-8.508781">
        <ele>280.1</ele>
        <time>2023-08-16T06:20:24Z</time>
      </trkpt>
      <trkpt lat="42.886514" lon="-8.509122">
        <ele>277.1</ele>
        <time>2023-08-16T06:20:39Z</time>
      </trkpt>
      <trkpt lat="42.886487" lon="-8.509224">
        <ele>276.0</ele>
        <time>2023-08-16T06:20:52Z</time>
      </trkpt>
      <trkpt lat="42.886492" lon="-8.509542">
        <ele>276.1</ele>
        <time>2023-08-16T06:21:06Z</time>
      </trkpt>
      <trkpt lat="42.886497" lon="-8.509798">
        <ele>277.1</ele>
        <time>2023-08-16T06:21:18Z</time>
      </trkpt>
      <trkpt lat="42.886450" lon="-8.510039">
        <ele>276.1</ele>
        <time>2023-08-16T06:21:32Z</time>
      </trkpt>
      <trkpt lat="42.886348" lon="-8.510266">
        <ele>277.1</ele>
        <time>2023-08-16T06:21:44Z</time>
      </trkpt>
      <trkpt lat="42.886195" lon="-8.510445">
        <ele>280.1</ele>
        <time>2023-08-16T06:21:58Z</time>
      </trkpt>
      <trkpt lat="42.886183" lon="-8.510682">
        <ele>281.8</ele>
        <time>2023-08-16T06:22:11Z</time>
      </trkpt>
      <trkpt lat="42.886192" lon="-8.510945">
        <ele>281.1</ele>
        <time>2023-08-16T06:22:24Z</time>
      </trkpt>
      <trkpt lat="42.886321" lon="-8.511105">
        <ele>281.0</ele>
        <time>2023-08-16T06:22:38Z</time>
      </trkpt>
      <trkpt lat="42.886342" lon="-8.511380">
        <ele>279.1</ele>
        <time>2023-08-16T06:22:52Z</time>
      </trkpt>
      <trkpt lat="42.886342" lon="-8.511629">
        <ele>277.9</ele>
        <time>2023-08-16T06:23:06Z</time>
      </trkpt>
      <trkpt lat="42.886339" lon="-8.511887">
        <ele>281.0</ele>
        <time>2023-08-16T06:23:19Z</time>
      </trkpt>
      <trkpt lat="42.886344" lon="-8.512152">
        <ele>283.0</ele>
        <time>2023-08-16T06:23:32Z</time>
      </trkpt>
      <trkpt lat="42.886343" lon="-8.512401">
        <ele>284.0</ele>
        <time>2023-08-16T06:23:45Z</time>
      </trkpt>
      <trkpt lat="42.886358" lon="-8.512646">
        <ele>285.1</ele>
        <time>2023-08-16T06:23:58Z</time>
      </trkpt>
      <trkpt lat="42.886356" lon="-8.512908">
        <ele>285.0</ele>
        <time>2023-08-16T06:24:12Z</time>
      </trkpt>
      <trkpt lat="42.886355" lon="-8.513169">
        <ele>285.1</ele>
        <time>2023-08-16T06:24:25Z</time>
      </trkpt>
      <trkpt lat="42.886352" lon="-8.513430">
        <ele>288.0</ele>
        <time>2023-08-16T06:24:38Z</time>
      </trkpt>
      <trkpt lat="42.886340" lon="-8.513687">
        <ele>288.1</ele>
        <time>2023-08-16T06:24:52Z</time>
      </trkpt>
      <trkpt lat="42.886321" lon="-8.513952">
        <ele>290.1</ele>
        <time>2023-08-16T06:25:06Z</time>
      </trkpt>
      <trkpt lat="42.886319" lon="-8.514203">
        <ele>290.1</ele>
        <time>2023-08-16T06:25:19Z</time>
      </trkpt>
      <trkpt lat="42.886316" lon="-8.514462">
        <ele>290.1</ele>
        <time>2023-08-16T06:25:33Z</time>
      </trkpt>
      <trkpt lat="42.886310" lon="-8.514710">
        <ele>286.1</ele>
        <time>2023-08-16T06:25:48Z</time>
      </trkpt>
      <trkpt lat="42.886294" lon="-8.514956">
        <ele>287.4</ele>
        <time>2023-08-16T06:26:00Z</time>
      </trkpt>
      <trkpt lat="42.886294" lon="-8.515207">
        <ele>289.1</ele>
        <time>2023-08-16T06:26:13Z</time>
      </trkpt>
      <trkpt lat="42.886285" lon="-8.515460">
        <ele>289.1</ele>
        <time>2023-08-16T06:26:26Z</time>
      </trkpt>
      <trkpt lat="42.886304" lon="-8.515710">
        <ele>290.1</ele>
        <time>2023-08-16T06:30:54Z</time>
      </trkpt>
      <trkpt lat="42.886308" lon="-8.515973">
        <ele>291.0</ele>
        <time>2023-08-16T06:31:06Z</time>
      </trkpt>
      <trkpt lat="42.886308" lon="-8.516223">
        <ele>290.1</ele>
        <time>2023-08-16T06:31:20Z</time>
      </trkpt>
      <trkpt lat="42.886321" lon="-8.516474">
        <ele>291.1</ele>
        <time>2023-08-16T06:31:33Z</time>
      </trkpt>
      <trkpt lat="42.886316" lon="-8.516733">
        <ele>292.1</ele>
        <time>2023-08-16T06:31:45Z</time>
      </trkpt>
      <trkpt lat="42.886278" lon="-8.516978">
        <ele>292.1</ele>
        <time>2023-08-16T06:31:58Z</time>
      </trkpt>
      <trkpt lat="42.886304" lon="-8.517222">
        <ele>292.0</ele>
        <time>2023-08-16T06:32:10Z</time>
      </trkpt>
      <trkpt lat="42.886411" lon="-8.517398">
        <ele>290.8</ele>
        <time>2023-08-16T06:32:24Z</time>
      </trkpt>
      <trkpt lat="42.886442" lon="-8.517688">
        <ele>293.1</ele>
        <time>2023-08-16T06:32:37Z</time>
      </trkpt>
      <trkpt lat="42.886470" lon="-8.517941">
        <ele>293.1</ele>
        <time>2023-08-16T06:32:50Z</time>
      </trkpt>
      <trkpt lat="42.886506" lon="-8.518187">
        <ele>292.1</ele>
        <time>2023-08-16T06:33:02Z</time>
      </trkpt>
      <trkpt lat="42.886558" lon="-8.518435">
        <ele>295.1</ele>
        <time>2023-08-16T06:33:15Z</time>
      </trkpt>
      <trkpt lat="42.886585" lon="-8.518684">
        <ele>293.1</ele>
        <time>2023-08-16T06:33:33Z</time>
      </trkpt>
      <trkpt lat="42.886600" lon="-8.518940">
        <ele>292.4</ele>
        <time>2023-08-16T06:33:48Z</time>
      </trkpt>
      <trkpt lat="42.886620" lon="-8.519205">
        <ele>292.2</ele>
        <time>2023-08-16T06:34:00Z</time>
      </trkpt>
      <trkpt lat="42.886641" lon="-8.519462">
        <ele>295.1</ele>
        <time>2023-08-16T06:34:14Z</time>
      </trkpt>
      <trkpt lat="42.886664" lon="-8.519722">
        <ele>294.1</ele>
        <time>2023-08-16T06:34:27Z</time>
      </trkpt>
      <trkpt lat="42.886695" lon="-8.519984">
        <ele>295.1</ele>
        <time>2023-08-16T06:34:40Z</time>
      </trkpt>
      <trkpt lat="42.886702" lon="-8.520214">
        <ele>296.2</ele>
        <time>2023-08-16T06:34:52Z</time>
      </trkpt>
      <trkpt lat="42.886762" lon="-8.520449">
        <ele>293.1</ele>
        <time>2023-08-16T06:35:07Z</time>
      </trkpt>
      <trkpt lat="42.886822" lon="-8.520696">
        <ele>293.4</ele>
        <time>2023-08-16T06:35:21Z</time>
      </trkpt>
      <trkpt lat="42.886900" lon="-8.521079">
        <ele>293.0</ele>
        <time>2023-08-16T06:35:33Z</time>
      </trkpt>
      <trkpt lat="42.886889" lon="-8.521207">
        <ele>293.1</ele>
        <time>2023-08-16T06:35:46Z</time>
      </trkpt>
      <trkpt lat="42.886916" lon="-8.521410">
        <ele>291.2</ele>
        <time>2023-08-16T06:35:59Z</time>
      </trkpt>
      <trkpt lat="42.886996" lon="-8.521466">
        <ele>290.1</ele>
        <time>2023-08-16T06:36:11Z</time>
      </trkpt>
      <trkpt lat="42.887079" lon="-8.521965">
        <ele>290.8</ele>
        <time>2023-08-16T06:36:25Z</time>
      </trkpt>
      <trkpt lat="42.887105" lon="-8.522197">
        <ele>292.1</ele>
        <time>2023-08-16T06:36:38Z</time>
      </trkpt>
      <trkpt lat="42.887175" lon="-8.522430">
        <ele>292.1</ele>
        <time>2023-08-16T06:36:51Z</time>
      </trkpt>
      <trkpt lat="42.887206" lon="-8.522697">
        <ele>295.0</ele>
        <time>2023-08-16T06:37:05Z</time>
      </trkpt>
      <trkpt lat="42.887244" lon="-8.522920">
        <ele>296.1</ele>
        <time>2023-08-16T06:37:18Z</time>
      </trkpt>
      <trkpt lat="42.887263" lon="-8.523410">
        <ele>292.1</ele>
        <time>2023-08-16T06:37:32Z</time>
      </trkpt>
      <trkpt lat="42.887171" lon="-8.523530">
        <ele>293.1</ele>
        <time>2023-08-16T06:37:44Z</time>
      </trkpt>
      <trkpt lat="42.887173" lon="-8.523679">
        <ele>293.0</ele>
        <time>2023-08-16T06:37:55Z</time>
      </trkpt>
      <trkpt lat="42.887234" lon="-8.523712">
        <ele>293.1</ele>
        <time>2023-08-16T06:38:09Z</time>
      </trkpt>
      <trkpt lat="42.887257" lon="-8.524163">
        <ele>290.1</ele>
        <time>2023-08-16T06:38:23Z</time>
      </trkpt>
      <trkpt lat="42.887252" lon="-8.524427">
        <ele>286.5</ele>
        <time>2023-08-16T06:38:37Z</time>
      </trkpt>
      <trkpt lat="42.887238" lon="-8.524691">
        <ele>284.4</ele>
        <time>2023-08-16T06:38:50Z</time>
      </trkpt>
      <trkpt lat="42.887232" lon="-8.524919">
        <ele>284.0</ele>
        <time>2023-08-16T06:39:03Z</time>
      </trkpt>
      <trkpt lat="42.887226" lon="-8.525187">
        <ele>287.8</ele>
        <time>2023-08-16T06:39:16Z</time>
      </trkpt>
      <trkpt lat="42.887174" lon="-8.525410">
        <ele>287.4</ele>
        <time>2023-08-16T06:39:30Z</time>
      </trkpt>
      <trkpt lat="42.887115" lon="-8.525636">
        <ele>284.1</ele>
        <time>2023-08-16T06:39:42Z</time>
      </trkpt>
      <trkpt lat="42.887028" lon="-8.525879">
        <ele>284.8</ele>
        <time>2023-08-16T06:39:55Z</time>
      </trkpt>
      <trkpt lat="42.886959" lon="-8.526117">
        <ele>285.1</ele>
        <time>2023-08-16T06:40:08Z</time>
      </trkpt>
      <trkpt lat="42.886873" lon="-8.526322">
        <ele>287.1</ele>
        <time>2023-08-16T06:40:21Z</time>
      </trkpt>
      <trkpt lat="42.886778" lon="-8.526539">
        <ele>285.1</ele>
        <time>2023-08-16T06:40:34Z</time>
      </trkpt>
      <trkpt lat="42.886700" lon="-8.526760">
        <ele>284.4</ele>
        <time>2023-08-16T06:40:47Z</time>
      </trkpt>
      <trkpt lat="42.886600" lon="-8.526987">
        <ele>281.4</ele>
        <time>2023-08-16T06:41:00Z</time>
      </trkpt>
      <trkpt lat="42.886499" lon="-8.527190">
        <ele>282.8</ele>
        <time>2023-08-16T06:41:14Z</time>
      </trkpt>
      <trkpt lat="42.886390" lon="-8.527400">
        <ele>286.0</ele>
        <time>2023-08-16T06:41:28Z</time>
      </trkpt>
      <trkpt lat="42.886284" lon="-8.527616">
        <ele>289.1</ele>
        <time>2023-08-16T06:41:40Z</time>
      </trkpt>
      <trkpt lat="42.886206" lon="-8.527857">
        <ele>293.0</ele>
        <time>2023-08-16T06:41:54Z</time>
      </trkpt>
      <trkpt lat="42.886172" lon="-8.528100">
        <ele>291.2</ele>
        <time>2023-08-16T06:42:12Z</time>
      </trkpt>
      <trkpt lat="42.886164" lon="-8.528354">
        <ele>286.1</ele>
        <time>2023-08-16T06:42:27Z</time>
      </trkpt>
      <trkpt lat="42.886162" lon="-8.528611">
        <ele>288.1</ele>
        <time>2023-08-16T06:42:40Z</time>
      </trkpt>
      <trkpt lat="42.886154" lon="-8.528862">
        <ele>289.1</ele>
        <time>2023-08-16T06:42:53Z</time>
      </trkpt>
      <trkpt lat="42.886130" lon="-8.529110">
        <ele>286.1</ele>
        <time>2023-08-16T06:43:06Z</time>
      </trkpt>
      <trkpt lat="42.886116" lon="-8.529372">
        <ele>282.2</ele>
        <time>2023-08-16T06:43:21Z</time>
      </trkpt>
      <trkpt lat="42.886069" lon="-8.529623">
        <ele>283.1</ele>
        <time>2023-08-16T06:43:35Z</time>
      </trkpt>
      <trkpt lat="42.886002" lon="-8.529867">
        <ele>287.1</ele>
        <time>2023-08-16T06:43:47Z</time>
      </trkpt>
      <trkpt lat="42.885959" lon="-8.530107">
        <ele>289.8</ele>
        <time>2023-08-16T06:44:00Z</time>
      </trkpt>
      <trkpt lat="42.885875" lon="-8.530337">
        <ele>289.1</ele>
        <time>2023-08-16T06:44:13Z</time>
      </trkpt>
      <trkpt lat="42.885766" lon="-8.530553">
        <ele>290.2</ele>
        <time>2023-08-16T06:44:26Z</time>
      </trkpt>
      <trkpt lat="42.885647" lon="-8.530741">
        <ele>294.1</ele>
        <time>2023-08-16T06:44:39Z</time>
      </trkpt>
      <trkpt lat="42.885508" lon="-8.530924">
        <ele>295.4</ele>
        <time>2023-08-16T06:44:54Z</time>
      </trkpt>
      <trkpt lat="42.885384" lon="-8.531113">
        <ele>288.2</ele>
        <time>2023-08-16T06:45:09Z</time>
      </trkpt>
      <trkpt lat="42.885269" lon="-8.531303">
        <ele>284.2</ele>
        <time>2023-08-16T06:45:23Z</time>
      </trkpt>
      <trkpt lat="42.885142" lon="-8.531489">
        <ele>283.1</ele>
        <time>2023-08-16T06:45:36Z</time>
      </trkpt>
      <trkpt lat="42.884966" lon="-8.531753">
        <ele>283.1</ele>
        <time>2023-08-16T06:45:49Z</time>
      </trkpt>
      <trkpt lat="42.885032" lon="-8.531999">
        <ele>283.2</ele>
        <time>2023-08-16T06:46:04Z</time>
      </trkpt>
      <trkpt lat="42.885105" lon="-8.532202">
        <ele>285.3</ele>
        <time>2023-08-16T06:46:16Z</time>
      </trkpt>
      <trkpt lat="42.885172" lon="-8.532448">
        <ele>284.1</ele>
        <time>2023-08-16T06:46:31Z</time>
      </trkpt>
      <trkpt lat="42.885259" lon="-8.532768">
        <ele>278.2</ele>
        <time>2023-08-16T06:46:45Z</time>
      </trkpt>
      <trkpt lat="42.885215" lon="-8.532932">
        <ele>279.8</ele>
        <time>2023-08-16T06:46:59Z</time>
      </trkpt>
      <trkpt lat="42.885069" lon="-8.533131">
        <ele>275.1</ele>
        <time>2023-08-16T06:47:13Z</time>
      </trkpt>
      <trkpt lat="42.884909" lon="-8.533255">
        <ele>272.1</ele>
        <time>2023-08-16T06:47:27Z</time>
      </trkpt>
      <trkpt lat="42.884746" lon="-8.533390">
        <ele>273.8</ele>
        <time>2023-08-16T06:47:40Z</time>
      </trkpt>
      <trkpt lat="42.884592" lon="-8.533521">
        <ele>276.1</ele>
        <time>2023-08-16T06:47:52Z</time>
      </trkpt>
      <trkpt lat="42.884443" lon="-8.533680">
        <ele>277.1</ele>
        <time>2023-08-16T06:48:05Z</time>
      </trkpt>
      <trkpt lat="42.884296" lon="-8.533829">
        <ele>275.1</ele>
        <time>2023-08-16T06:48:18Z</time>
      </trkpt>
      <trkpt lat="42.884130" lon="-8.533939">
        <ele>275.4</ele>
        <time>2023-08-16T06:48:31Z</time>
      </trkpt>
      <trkpt lat="42.883947" lon="-8.534028">
        <ele>276.1</ele>
        <time>2023-08-16T06:48:45Z</time>
      </trkpt>
      <trkpt lat="42.883765" lon="-8.534098">
        <ele>278.8</ele>
        <time>2023-08-16T06:48:57Z</time>
      </trkpt>
      <trkpt lat="42.883579" lon="-8.534137">
        <ele>282.1</ele>
        <time>2023-08-16T06:49:10Z</time>
      </trkpt>
      <trkpt lat="42.883394" lon="-8.534182">
        <ele>285.0</ele>
        <time>2023-08-16T06:49:23Z</time>
      </trkpt>
      <trkpt lat="42.883214" lon="-8.534237">
        <ele>287.0</ele>
        <time>2023-08-16T06:49:36Z</time>
      </trkpt>
      <trkpt lat="42.883029" lon="-8.534269">
        <ele>291.8</ele>
        <time>2023-08-16T06:49:47Z</time>
      </trkpt>
      <trkpt lat="42.882842" lon="-8.534295">
        <ele>291.9</ele>
        <time>2023-08-16T06:50:00Z</time>
      </trkpt>
      <trkpt lat="42.882666" lon="-8.534346">
        <ele>294.8</ele>
        <time>2023-08-16T06:50:13Z</time>
      </trkpt>
      <trkpt lat="42.882489" lon="-8.534394">
        <ele>293.1</ele>
        <time>2023-08-16T06:50:28Z</time>
      </trkpt>
      <trkpt lat="42.882330" lon="-8.534532">
        <ele>297.7</ele>
        <time>2023-08-16T06:50:41Z</time>
      </trkpt>
      <trkpt lat="42.882177" lon="-8.534676">
        <ele>305.1</ele>
        <time>2023-08-16T06:50:54Z</time>
      </trkpt>
      <trkpt lat="42.882021" lon="-8.534800">
        <ele>303.1</ele>
        <time>2023-08-16T06:51:12Z</time>
      </trkpt>
      <trkpt lat="42.881863" lon="-8.534946">
        <ele>301.2</ele>
        <time>2023-08-16T06:51:26Z</time>
      </trkpt>
      <trkpt lat="42.881788" lon="-8.535184">
        <ele>302.1</ele>
        <time>2023-08-16T06:51:39Z</time>
      </trkpt>
      <trkpt lat="42.881748" lon="-8.535431">
        <ele>299.2</ele>
        <time>2023-08-16T06:51:55Z</time>
      </trkpt>
      <trkpt lat="42.881721" lon="-8.535680">
        <ele>294.5</ele>
        <time>2023-08-16T06:52:19Z</time>
      </trkpt>
      <trkpt lat="42.881686" lon="-8.535922">
        <ele>287.5</ele>
        <time>2023-08-16T06:52:32Z</time>
      </trkpt>
      <trkpt lat="42.881658" lon="-8.536169">
        <ele>286.2</ele>
        <time>2023-08-16T06:52:45Z</time>
      </trkpt>
      <trkpt lat="42.881605" lon="-8.536412">
        <ele>283.2</ele>
        <time>2023-08-16T06:52:59Z</time>
      </trkpt>
      <trkpt lat="42.881540" lon="-8.536643">
        <ele>282.0</ele>
        <time>2023-08-16T06:53:12Z</time>
      </trkpt>
      <trkpt lat="42.881502" lon="-8.536884">
        <ele>277.8</ele>
        <time>2023-08-16T06:53:38Z</time>
      </trkpt>
      <trkpt lat="42.881435" lon="-8.537123">
        <ele>280.1</ele>
        <time>2023-08-16T06:53:52Z</time>
      </trkpt>
      <trkpt lat="42.881409" lon="-8.537372">
        <ele>281.8</ele>
        <time>2023-08-16T06:54:05Z</time>
      </trkpt>
      <trkpt lat="42.881372" lon="-8.537626">
        <ele>282.9</ele>
        <time>2023-08-16T06:54:19Z</time>
      </trkpt>
      <trkpt lat="42.881332" lon="-8.537871">
        <ele>284.1</ele>
        <time>2023-08-16T06:54:32Z</time>
      </trkpt>
      <trkpt lat="42.881300" lon="-8.538114">
        <ele>280.2</ele>
        <time>2023-08-16T06:54:46Z</time>
      </trkpt>
      <trkpt lat="42.881377" lon="-8.538346">
        <ele>278.2</ele>
        <time>2023-08-16T06:55:01Z</time>
      </trkpt>
      <trkpt lat="42.881438" lon="-8.538576">
        <ele>273.2</ele>
        <time>2023-08-16T06:55:15Z</time>
      </trkpt>
      <trkpt lat="42.881531" lon="-8.538796">
        <ele>270.1</ele>
        <time>2023-08-16T06:55:29Z</time>
      </trkpt>
      <trkpt lat="42.881621" lon="-8.539013">
        <ele>270.1</ele>
        <time>2023-08-16T06:55:40Z</time>
      </trkpt>
      <trkpt lat="42.881714" lon="-8.539231">
        <ele>274.1</ele>
        <time>2023-08-16T06:55:52Z</time>
      </trkpt>
      <trkpt lat="42.881809" lon="-8.539465">
        <ele>274.5</ele>
        <time>2023-08-16T06:56:06Z</time>
      </trkpt>
      <trkpt lat="42.881864" lon="-8.539690">
        <ele>271.4</ele>
        <time>2023-08-16T06:56:19Z</time>
      </trkpt>
      <trkpt lat="42.881934" lon="-8.539980">
        <ele>272.0</ele>
        <time>2023-08-16T06:56:32Z</time>
      </trkpt>
      <trkpt lat="42.881884" lon="-8.540083">
        <ele>272.1</ele>
        <time>2023-08-16T06:56:49Z</time>
      </trkpt>
      <trkpt lat="42.881874" lon="-8.540456">
        <ele>272.8</ele>
        <time>2023-08-16T06:57:02Z</time>
      </trkpt>
      <trkpt lat="42.881882" lon="-8.540727">
        <ele>277.1</ele>
        <time>2023-08-16T06:57:18Z</time>
      </trkpt>
      <trkpt lat="42.881855" lon="-8.540961">
        <ele>275.1</ele>
        <time>2023-08-16T06:57:32Z</time>
      </trkpt>
      <trkpt lat="42.881760" lon="-8.541209">
        <ele>275.8</ele>
        <time>2023-08-16T06:57:43Z</time>
      </trkpt>
      <trkpt lat="42.881695" lon="-8.541445">
        <ele>277.8</ele>
        <time>2023-08-16T06:57:55Z</time>
      </trkpt>
      <trkpt lat="42.881620" lon="-8.541670">
        <ele>278.9</ele>
        <time>2023-08-16T06:58:06Z</time>
      </trkpt>
      <trkpt lat="42.881497" lon="-8.541867">
        <ele>277.2</ele>
        <time>2023-08-16T06:58:19Z</time>
      </trkpt>
      <trkpt lat="42.881416" lon="-8.542182">
        <ele>278.2</ele>
        <time>2023-08-16T06:58:43Z</time>
      </trkpt>
      <trkpt lat="42.881378" lon="-8.542285">
        <ele>278.1</ele>
        <time>2023-08-16T06:59:10Z</time>
      </trkpt>
      <trkpt lat="42.881193" lon="-8.542409">
        <ele>278.8</ele>
        <time>2023-08-16T06:59:32Z</time>
      </trkpt>
      <trkpt lat="42.881187" lon="-8.542686">
        <ele>275.2</ele>
        <time>2023-08-16T06:59:48Z</time>
      </trkpt>
      <trkpt lat="42.881225" lon="-8.542921">
        <ele>275.2</ele>
        <time>2023-08-16T07:00:01Z</time>
      </trkpt>
      <trkpt lat="42.881254" lon="-8.543139">
        <ele>276.1</ele>
        <time>2023-08-16T07:00:14Z</time>
      </trkpt>
      <trkpt lat="42.881264" lon="-8.543408">
        <ele>276.8</ele>
        <time>2023-08-16T07:00:28Z</time>
      </trkpt>
      <trkpt lat="42.881256" lon="-8.543658">
        <ele>275.4</ele>
        <time>2023-08-16T07:00:39Z</time>
      </trkpt>
      <trkpt lat="42.881259" lon="-8.543880">
        <ele>274.2</ele>
        <time>2023-08-16T07:00:58Z</time>
      </trkpt>
      <trkpt lat="42.881212" lon="-8.544153">
        <ele>274.0</ele>
        <time>2023-08-16T07:01:12Z</time>
      </trkpt>
      <trkpt lat="42.881150" lon="-8.544409">
        <ele>274.2</ele>
        <time>2023-08-16T07:01:52Z</time>
      </trkpt>
      <trkpt lat="42.881103" lon="-8.544661">
        <ele>273.0</ele>
        <time>2023-08-16T07:02:05Z</time>
      </trkpt>
      <trkpt lat="42.881053" lon="-8.544899">
        <ele>271.1</ele>
        <time>2023-08-16T07:02:23Z</time>
      </trkpt>
      <trkpt lat="42.880999" lon="-8.545153">
        <ele>271.1</ele>
        <time>2023-08-16T07:02:44Z</time>
      </trkpt>
      <trkpt lat="42.880963" lon="-8.545412">
        <ele>268.5</ele>
        <time>2023-08-16T07:03:02Z</time>
      </trkpt>
      <trkpt lat="42.880888" lon="-8.545633">
        <ele>265.9</ele>
        <time>2023-08-16T07:03:23Z</time>
      </trkpt>
      <trkpt lat="42.880709" lon="-8.545736">
        <ele>265.2</ele>
        <time>2023-08-16T07:03:36Z</time>
      </trkpt>
      <trkpt lat="42.880516" lon="-8.545816">
        <ele>264.1</ele>
        <time>2023-08-16T07:03:48Z</time>
      </trkpt>
      <trkpt lat="42.880319" lon="-8.545775">
        <ele>261.9</ele>
        <time>2023-08-16T07:04:43Z</time>
      </trkpt>
      <trkpt lat="42.880100" lon="-8.545657">
        <ele>263.1</ele>
        <time>2023-08-16T07:04:55Z</time>
      </trkpt>
      <trkpt lat="42.880483" lon="-8.545700">
        <ele>261.9</ele>
        <time>2023-08-16T07:06:15Z</time>
      </trkpt>
    </trkseg>
  </trk>
</gpx>
